<?xml version="1.0" encoding="UTF-8" standalone="no" ?>
<gpx xmlns="http://www.topografix.com/GPX/1/1" creator="MapSource 6.16.3" version="1.1" xmlns:xsi="http://www.w3.org/2001/XMLSchema-instance" xsi:schemaLocation="http://www.topografix.com/GPX/1/1 http://www.topografix.com/GPX/1/1/gpx.xsd">

  <metadata>
    <link href="http://www.garmin.com">
      <text>Garmin International</text>
    </link>
    <time>2012-01-23T14:49:59Z</time>
    <bounds maxlat="40.414099171757698" maxlon="-1.003585550934076" minlat="30.774459997192025" minlon="-5.575104290619493"/>
  </metadata>

  <trk>
    <name>110415-España</name>
    <extensions>
      <gpxx:TrackExtension xmlns:gpxx="http://www.garmin.com/xmlschemas/GpxExtensions/v3">
        <gpxx:DisplayColor>Red</gpxx:DisplayColor>
      </gpxx:TrackExtension>
    </extensions>
    <trkseg>
      <trkpt lat="40.410593021661043" lon="-3.736824849620462">
        <ele>632.684814453125</ele>
        <time>2011-04-15T18:07:44Z</time>
      </trkpt>
      <trkpt lat="40.410386826843023" lon="-3.737379228696227">
        <ele>634.607421875</ele>
        <time>2011-04-15T18:07:50Z</time>
      </trkpt>
      <trkpt lat="40.410337625071406" lon="-3.737608473747969">
        <ele>635.568603515625</ele>
        <time>2011-04-15T18:08:06Z</time>
      </trkpt>
      <trkpt lat="40.41007493622601" lon="-3.73830777592957">
        <ele>637.491455078125</ele>
        <time>2011-04-15T18:08:15Z</time>
      </trkpt>
      <trkpt lat="40.409743851050735" lon="-3.73917262069881">
        <ele>638.452880859375</ele>
        <time>2011-04-15T18:08:23Z</time>
      </trkpt>
      <trkpt lat="40.409198692068458" lon="-3.740662587806583">
        <ele>636.5302734375</ele>
        <time>2011-04-15T18:08:34Z</time>
      </trkpt>
      <trkpt lat="40.409104144200683" lon="-3.740931730717421">
        <ele>635.568603515625</ele>
        <time>2011-04-15T18:08:36Z</time>
      </trkpt>
      <trkpt lat="40.409046979621053" lon="-3.741569677367806">
        <ele>630.76220703125</ele>
        <time>2011-04-15T18:08:41Z</time>
      </trkpt>
      <trkpt lat="40.409118393436074" lon="-3.741954239085317">
        <ele>629.320068359375</ele>
        <time>2011-04-15T18:08:44Z</time>
      </trkpt>
      <trkpt lat="40.409371191635728" lon="-3.742179796099663">
        <ele>626.9169921875</ele>
        <time>2011-04-15T18:08:47Z</time>
      </trkpt>
      <trkpt lat="40.409710574895144" lon="-3.74217283912003">
        <ele>629.320068359375</ele>
        <time>2011-04-15T18:08:52Z</time>
      </trkpt>
      <trkpt lat="40.409678975120187" lon="-3.741851979866624">
        <ele>634.126708984375</ele>
        <time>2011-04-15T18:08:56Z</time>
      </trkpt>
      <trkpt lat="40.409366665408015" lon="-3.741789031773806">
        <ele>636.049560546875</ele>
        <time>2011-04-15T18:09:01Z</time>
      </trkpt>
      <trkpt lat="40.408848328515887" lon="-3.742589168250561">
        <ele>636.5302734375</ele>
        <time>2011-04-15T18:09:09Z</time>
      </trkpt>
      <trkpt lat="40.408038636669517" lon="-3.744066897779703">
        <ele>635.088134765625</ele>
        <time>2011-04-15T18:09:19Z</time>
      </trkpt>
      <trkpt lat="40.407323995605111" lon="-3.745915275067091">
        <ele>630.281494140625</ele>
        <time>2011-04-15T18:09:30Z</time>
      </trkpt>
      <trkpt lat="40.406711278483272" lon="-3.74749006703496">
        <ele>628.839599609375</ele>
        <time>2011-04-15T18:09:39Z</time>
      </trkpt>
      <trkpt lat="40.405863868072629" lon="-3.749785032123327">
        <ele>630.76220703125</ele>
        <time>2011-04-15T18:09:51Z</time>
      </trkpt>
      <trkpt lat="40.405021822080016" lon="-3.751978743821383">
        <ele>633.64599609375</ele>
        <time>2011-04-15T18:10:02Z</time>
      </trkpt>
      <trkpt lat="40.404128395020962" lon="-3.754401532933116">
        <ele>637.97216796875</ele>
        <time>2011-04-15T18:10:13Z</time>
      </trkpt>
      <trkpt lat="40.40275476872921" lon="-3.758122259750962">
        <ele>652.87255859375</ele>
        <time>2011-04-15T18:10:29Z</time>
      </trkpt>
      <trkpt lat="40.401470577344298" lon="-3.761457838118076">
        <ele>662.005126953125</ele>
        <time>2011-04-15T18:10:44Z</time>
      </trkpt>
      <trkpt lat="40.400727270171046" lon="-3.762746555730701">
        <ele>664.408203125</ele>
        <time>2011-04-15T18:10:50Z</time>
      </trkpt>
      <trkpt lat="40.399431092664599" lon="-3.764418326318264">
        <ele>666.330810546875</ele>
        <time>2011-04-15T18:10:59Z</time>
      </trkpt>
      <trkpt lat="40.39736419916153" lon="-3.767125429585576">
        <ele>668.253662109375</ele>
        <time>2011-04-15T18:11:14Z</time>
      </trkpt>
      <trkpt lat="40.394729264080524" lon="-3.770557148382068">
        <ele>676.4248046875</ele>
        <time>2011-04-15T18:11:32Z</time>
      </trkpt>
      <trkpt lat="40.392302284017205" lon="-3.773724418133497">
        <ele>683.634521484375</ele>
        <time>2011-04-15T18:11:48Z</time>
      </trkpt>
      <trkpt lat="40.390610480681062" lon="-3.775871945545077">
        <ele>686.999267578125</ele>
        <time>2011-04-15T18:12:00Z</time>
      </trkpt>
      <trkpt lat="40.388665879145265" lon="-3.778413254767656">
        <ele>685.076904296875</ele>
        <time>2011-04-15T18:12:14Z</time>
      </trkpt>
      <trkpt lat="40.386537546291947" lon="-3.781195040792227">
        <ele>683.15380859375</ele>
        <time>2011-04-15T18:12:28Z</time>
      </trkpt>
      <trkpt lat="40.384340398013592" lon="-3.784071877598763">
        <ele>690.844482421875</ele>
        <time>2011-04-15T18:12:43Z</time>
      </trkpt>
      <trkpt lat="40.382306361570954" lon="-3.786958269774914">
        <ele>696.612548828125</ele>
        <time>2011-04-15T18:12:57Z</time>
      </trkpt>
      <trkpt lat="40.379886757582426" lon="-3.790119420737028">
        <ele>702.861083984375</ele>
        <time>2011-04-15T18:13:13Z</time>
      </trkpt>
      <trkpt lat="40.378157822415233" lon="-3.792359568178654">
        <ele>702.38037109375</ele>
        <time>2011-04-15T18:13:25Z</time>
      </trkpt>
      <trkpt lat="40.375879872590303" lon="-3.795141018927097">
        <ele>703.341796875</ele>
        <time>2011-04-15T18:13:40Z</time>
      </trkpt>
      <trkpt lat="40.373582225292921" lon="-3.798115672543645">
        <ele>707.18701171875</ele>
        <time>2011-04-15T18:13:55Z</time>
      </trkpt>
      <trkpt lat="40.371658327057958" lon="-3.800623789429665">
        <ele>706.706298828125</ele>
        <time>2011-04-15T18:14:07Z</time>
      </trkpt>
      <trkpt lat="40.369878932833672" lon="-3.802893022075295">
        <ele>706.2255859375</ele>
        <time>2011-04-15T18:14:18Z</time>
      </trkpt>
      <trkpt lat="40.367779852822423" lon="-3.805608674883843">
        <ele>709.59033203125</ele>
        <time>2011-04-15T18:14:31Z</time>
      </trkpt>
      <trkpt lat="40.365606341511011" lon="-3.80852079950273">
        <ele>705.264404296875</ele>
        <time>2011-04-15T18:14:44Z</time>
      </trkpt>
      <trkpt lat="40.362753644585609" lon="-3.812235072255135">
        <ele>696.612548828125</ele>
        <time>2011-04-15T18:15:01Z</time>
      </trkpt>
      <trkpt lat="40.36070192232728" lon="-3.815037226304412">
        <ele>688.44140625</ele>
        <time>2011-04-15T18:15:14Z</time>
      </trkpt>
      <trkpt lat="40.358975753188133" lon="-3.817330850288272">
        <ele>690.844482421875</ele>
        <time>2011-04-15T18:15:25Z</time>
      </trkpt>
      <trkpt lat="40.357282776385546" lon="-3.819533530622721">
        <ele>700.4580078125</ele>
        <time>2011-04-15T18:15:36Z</time>
      </trkpt>
      <trkpt lat="40.355810495093465" lon="-3.821460781618953">
        <ele>702.861083984375</ele>
        <time>2011-04-15T18:15:47Z</time>
      </trkpt>
      <trkpt lat="40.355191994458437" lon="-3.822624441236258">
        <ele>705.264404296875</ele>
        <time>2011-04-15T18:15:53Z</time>
      </trkpt>
      <trkpt lat="40.355030642822385" lon="-3.822983438149095">
        <ele>706.706298828125</ele>
        <time>2011-04-15T18:15:55Z</time>
      </trkpt>
      <trkpt lat="40.354522196575999" lon="-3.823562543839216">
        <ele>711.0322265625</ele>
        <time>2011-04-15T18:16:00Z</time>
      </trkpt>
      <trkpt lat="40.353450486436486" lon="-3.82427073083818">
        <ele>711.512939453125</ele>
        <time>2011-04-15T18:16:10Z</time>
      </trkpt>
      <trkpt lat="40.353101044893265" lon="-3.824759982526302">
        <ele>711.512939453125</ele>
        <time>2011-04-15T18:16:14Z</time>
      </trkpt>
      <trkpt lat="40.352902226150036" lon="-3.825333556160331">
        <ele>712.47412109375</ele>
        <time>2011-04-15T18:16:20Z</time>
      </trkpt>
      <trkpt lat="40.352786974981427" lon="-3.825888521969318">
        <ele>713.435546875</ele>
        <time>2011-04-15T18:16:29Z</time>
      </trkpt>
      <trkpt lat="40.352803822606802" lon="-3.826020872220397">
        <ele>712.954833984375</ele>
        <time>2011-04-15T18:16:43Z</time>
      </trkpt>
      <trkpt lat="40.352862076833844" lon="-3.826192282140255">
        <ele>712.954833984375</ele>
        <time>2011-04-15T18:16:46Z</time>
      </trkpt>
      <trkpt lat="40.35275244154036" lon="-3.826540382578969">
        <ele>712.954833984375</ele>
        <time>2011-04-15T18:16:52Z</time>
      </trkpt>
      <trkpt lat="40.352514060214162" lon="-3.826431417837739">
        <ele>711.99365234375</ele>
        <time>2011-04-15T18:16:56Z</time>
      </trkpt>
      <trkpt lat="40.352449854835868" lon="-3.826204771175981">
        <ele>712.47412109375</ele>
        <time>2011-04-15T18:16:58Z</time>
      </trkpt>
      <trkpt lat="40.352073758840561" lon="-3.825420644134283">
        <ele>723.529541015625</ele>
        <time>2011-04-15T18:17:07Z</time>
      </trkpt>
      <trkpt lat="40.351638235151768" lon="-3.824781021103263">
        <ele>735.0654296875</ele>
        <time>2011-04-15T18:17:16Z</time>
      </trkpt>
      <trkpt lat="40.351562378928065" lon="-3.824638864025474">
        <ele>738.429931640625</ele>
        <time>2011-04-15T18:17:18Z</time>
      </trkpt>
      <trkpt lat="40.35147663205862" lon="-3.8244354352355">
        <ele>733.142578125</ele>
        <time>2011-04-15T18:17:25Z</time>
      </trkpt>
      <trkpt lat="40.351394824683666" lon="-3.82434549741447">
        <ele>721.606689453125</ele>
        <time>2011-04-15T18:17:41Z</time>
      </trkpt>
      <trkpt lat="40.351126352325082" lon="-3.824078282341361">
        <ele>711.0322265625</ele>
        <time>2011-04-15T18:17:50Z</time>
      </trkpt>
      <trkpt lat="40.350895682349801" lon="-3.823923720046878">
        <ele>709.59033203125</ele>
        <time>2011-04-15T18:17:54Z</time>
      </trkpt>
      <trkpt lat="40.350789064541459" lon="-3.823611997067928">
        <ele>708.62890625</ele>
        <time>2011-04-15T18:17:59Z</time>
      </trkpt>
      <trkpt lat="40.350774731487036" lon="-3.823334975168109">
        <ele>704.78369140625</ele>
        <time>2011-04-15T18:18:07Z</time>
      </trkpt>
      <trkpt lat="40.350511120632291" lon="-3.822891656309366">
        <ele>705.7451171875</ele>
        <time>2011-04-15T18:18:17Z</time>
      </trkpt>
      <trkpt lat="40.350270895287395" lon="-3.82243693806231">
        <ele>721.126220703125</ele>
        <time>2011-04-15T18:18:27Z</time>
      </trkpt>
      <trkpt lat="40.350175760686398" lon="-3.82233333773911">
        <ele>730.7392578125</ele>
        <time>2011-04-15T18:18:33Z</time>
      </trkpt>
      <trkpt lat="40.350067466497421" lon="-3.822204424068332">
        <ele>741.313720703125</ele>
        <time>2011-04-15T18:18:48Z</time>
      </trkpt>
      <trkpt lat="40.349846435710788" lon="-3.821799661964178">
        <ele>751.40771484375</ele>
        <time>2011-04-15T18:18:57Z</time>
      </trkpt>
      <trkpt lat="40.349657088518143" lon="-3.821513168513775">
        <ele>760.5400390625</ele>
        <time>2011-04-15T18:19:02Z</time>
      </trkpt>
      <trkpt lat="40.349596068263054" lon="-3.821398923173547">
        <ele>771.59521484375</ele>
        <time>2011-04-15T18:19:08Z</time>
      </trkpt>
      <trkpt lat="40.349587853997946" lon="-3.821263387799263">
        <ele>794.666748046875</ele>
        <time>2011-04-15T18:19:28Z</time>
      </trkpt>
      <trkpt lat="40.349434884265065" lon="-3.820919143036008">
        <ele>760.059326171875</ele>
        <time>2011-04-15T18:19:39Z</time>
      </trkpt>
      <trkpt lat="40.349253751337528" lon="-3.820823589339852">
        <ele>756.69482421875</ele>
        <time>2011-04-15T18:19:48Z</time>
      </trkpt>
      <trkpt lat="40.349063985049725" lon="-3.820780422538519">
        <ele>742.275146484375</ele>
        <time>2011-04-15T18:19:55Z</time>
      </trkpt>
      <trkpt lat="40.349152497947216" lon="-3.820612030103803">
        <ele>720.6455078125</ele>
        <time>2011-04-15T18:20:02Z</time>
      </trkpt>
      <trkpt lat="40.349374450743198" lon="-3.820688053965569">
        <ele>711.99365234375</ele>
        <time>2011-04-15T18:20:07Z</time>
      </trkpt>
      <trkpt lat="40.349634792655706" lon="-3.820854937657714">
        <ele>706.2255859375</ele>
        <time>2011-04-15T18:20:13Z</time>
      </trkpt>
      <trkpt lat="40.34981575794518" lon="-3.820998352020979">
        <ele>705.264404296875</ele>
        <time>2011-04-15T18:20:20Z</time>
      </trkpt>
      <trkpt lat="40.349894044920802" lon="-3.820899948477745">
        <ele>703.341796875</ele>
        <time>2011-04-15T18:20:24Z</time>
      </trkpt>
      <trkpt lat="40.350240133702755" lon="-3.82054204121232">
        <ele>700.9384765625</ele>
        <time>2011-04-15T18:20:33Z</time>
      </trkpt>
      <trkpt lat="40.350745059549809" lon="-3.820026218891144">
        <ele>698.534912109375</ele>
        <time>2011-04-15T18:20:43Z</time>
      </trkpt>
      <trkpt lat="40.351235568523407" lon="-3.819576529785991">
        <ele>697.093017578125</ele>
        <time>2011-04-15T18:20:54Z</time>
      </trkpt>
      <trkpt lat="40.35155626013875" lon="-3.819258688017726">
        <ele>697.093017578125</ele>
        <time>2011-04-15T18:21:02Z</time>
      </trkpt>
      <trkpt lat="40.3515899553895" lon="-3.819088870659471">
        <ele>707.667724609375</ele>
        <time>2011-04-15T18:21:35Z</time>
      </trkpt>
      <trkpt lat="40.351776955649257" lon="-3.818891979753971">
        <ele>711.99365234375</ele>
        <time>2011-04-15T18:21:43Z</time>
      </trkpt>
      <trkpt lat="40.351944845169783" lon="-3.818684024736285">
        <ele>711.512939453125</ele>
        <time>2011-04-15T18:21:52Z</time>
      </trkpt>
      <trkpt lat="40.35177955403924" lon="-3.818376744166017">
        <ele>711.512939453125</ele>
        <time>2011-04-15T18:21:57Z</time>
      </trkpt>
      <trkpt lat="40.351496497169137" lon="-3.817989835515618">
        <ele>715.8388671875</ele>
        <time>2011-04-15T18:22:05Z</time>
      </trkpt>
      <trkpt lat="40.351537065580487" lon="-3.817827142775059">
        <ele>711.0322265625</ele>
        <time>2011-04-15T18:22:11Z</time>
      </trkpt>
      <trkpt lat="40.351807298138738" lon="-3.817566381767392">
        <ele>701.89990234375</ele>
        <time>2011-04-15T18:22:19Z</time>
      </trkpt>
      <trkpt lat="40.352117931470275" lon="-3.817216940224171">
        <ele>696.1318359375</ele>
        <time>2011-04-15T18:22:26Z</time>
      </trkpt>
      <trkpt lat="40.352378021925688" lon="-3.816993562504649">
        <ele>694.689697265625</ele>
        <time>2011-04-15T18:22:34Z</time>
      </trkpt>
      <trkpt lat="40.352423451840878" lon="-3.81686557084322">
        <ele>698.534912109375</ele>
        <time>2011-04-15T18:22:42Z</time>
      </trkpt>
      <trkpt lat="40.353447385132313" lon="-3.816542280837894">
        <ele>632.2041015625</ele>
        <time>2011-04-15T21:00:57Z</time>
      </trkpt>
      <trkpt lat="40.353729268535972" lon="-3.815821688622236">
        <ele>668.734375</ele>
        <time>2011-04-15T21:01:07Z</time>
      </trkpt>
      <trkpt lat="40.354050965979695" lon="-3.815646590664983">
        <ele>658.640380859375</ele>
        <time>2011-04-15T21:01:14Z</time>
      </trkpt>
      <trkpt lat="40.353859020397067" lon="-3.815543577075005">
        <ele>685.076904296875</ele>
        <time>2011-04-15T21:01:31Z</time>
      </trkpt>
      <trkpt lat="40.353964632377028" lon="-3.815401419997215">
        <ele>687.47998046875</ele>
        <time>2011-04-15T21:01:40Z</time>
      </trkpt>
      <trkpt lat="40.354193625971675" lon="-3.81515784189105">
        <ele>686.518798828125</ele>
        <time>2011-04-15T21:01:48Z</time>
      </trkpt>
      <trkpt lat="40.354290436953306" lon="-3.815045524388552">
        <ele>685.076904296875</ele>
        <time>2011-04-15T21:02:20Z</time>
      </trkpt>
      <trkpt lat="40.354693941771984" lon="-3.814612934365869">
        <ele>684.59619140625</ele>
        <time>2011-04-15T21:02:28Z</time>
      </trkpt>
      <trkpt lat="40.355174476280808" lon="-3.814053274691105">
        <ele>689.88330078125</ele>
        <time>2011-04-15T21:02:36Z</time>
      </trkpt>
      <trkpt lat="40.355402547866106" lon="-3.814080096781254">
        <ele>689.88330078125</ele>
        <time>2011-04-15T21:02:41Z</time>
      </trkpt>
      <trkpt lat="40.355477733537555" lon="-3.814203226938844">
        <ele>692.767333984375</ele>
        <time>2011-04-15T21:02:43Z</time>
      </trkpt>
      <trkpt lat="40.355548560619354" lon="-3.814333146438003">
        <ele>700.4580078125</ele>
        <time>2011-04-15T21:02:46Z</time>
      </trkpt>
      <trkpt lat="40.355409923940897" lon="-3.814615029841662">
        <ele>705.7451171875</ele>
        <time>2011-04-15T21:02:52Z</time>
      </trkpt>
      <trkpt lat="40.354892257601023" lon="-3.815223388373852">
        <ele>719.20361328125</ele>
        <time>2011-04-15T21:03:01Z</time>
      </trkpt>
      <trkpt lat="40.354774994775653" lon="-3.815344758331776">
        <ele>717.281005859375</ele>
        <time>2011-04-15T21:03:04Z</time>
      </trkpt>
      <trkpt lat="40.354677848517895" lon="-3.815189357846975">
        <ele>704.78369140625</ele>
        <time>2011-04-15T21:03:10Z</time>
      </trkpt>
      <trkpt lat="40.35462629981339" lon="-3.815050385892391">
        <ele>700.4580078125</ele>
        <time>2011-04-15T21:03:12Z</time>
      </trkpt>
      <trkpt lat="40.354471486061811" lon="-3.814918622374535">
        <ele>695.651123046875</ele>
        <time>2011-04-15T21:03:19Z</time>
      </trkpt>
      <trkpt lat="40.354375345632434" lon="-3.81504736840725">
        <ele>689.402587890625</ele>
        <time>2011-04-15T21:03:42Z</time>
      </trkpt>
      <trkpt lat="40.354549521580338" lon="-3.815369233489037">
        <ele>686.999267578125</ele>
        <time>2011-04-15T21:03:48Z</time>
      </trkpt>
      <trkpt lat="40.354647673666477" lon="-3.815513569861651">
        <ele>686.999267578125</ele>
        <time>2011-04-15T21:03:50Z</time>
      </trkpt>
      <trkpt lat="40.355074899271131" lon="-3.816218236461282">
        <ele>682.192626953125</ele>
        <time>2011-04-15T21:03:59Z</time>
      </trkpt>
      <trkpt lat="40.355233987793326" lon="-3.816412696614862">
        <ele>689.88330078125</ele>
        <time>2011-04-15T21:04:05Z</time>
      </trkpt>
      <trkpt lat="40.355561217293143" lon="-3.81598019041121">
        <ele>689.88330078125</ele>
        <time>2011-04-15T21:04:16Z</time>
      </trkpt>
      <trkpt lat="40.355965392664075" lon="-3.81524627096951">
        <ele>688.44140625</ele>
        <time>2011-04-15T21:04:23Z</time>
      </trkpt>
      <trkpt lat="40.356442574411631" lon="-3.814409673213959">
        <ele>688.44140625</ele>
        <time>2011-04-15T21:04:32Z</time>
      </trkpt>
      <trkpt lat="40.357139362022281" lon="-3.813150795176625">
        <ele>686.999267578125</ele>
        <time>2011-04-15T21:04:44Z</time>
      </trkpt>
      <trkpt lat="40.357776051387191" lon="-3.812013790011406">
        <ele>683.15380859375</ele>
        <time>2011-04-15T21:04:55Z</time>
      </trkpt>
      <trkpt lat="40.357859032228589" lon="-3.811859982088208">
        <ele>682.67333984375</ele>
        <time>2011-04-15T21:04:57Z</time>
      </trkpt>
      <trkpt lat="40.358052654191852" lon="-3.811305016279221">
        <ele>682.192626953125</ele>
        <time>2011-04-15T21:05:03Z</time>
      </trkpt>
      <trkpt lat="40.35830712877214" lon="-3.811295628547669">
        <ele>680.27001953125</ele>
        <time>2011-04-15T21:05:07Z</time>
      </trkpt>
      <trkpt lat="40.358430258929729" lon="-3.811680525541306">
        <ele>678.347412109375</ele>
        <time>2011-04-15T21:05:11Z</time>
      </trkpt>
      <trkpt lat="40.358421290293336" lon="-3.811798039823771">
        <ele>678.347412109375</ele>
        <time>2011-04-15T21:05:12Z</time>
      </trkpt>
      <trkpt lat="40.358593370765448" lon="-3.812609072774649">
        <ele>676.4248046875</ele>
        <time>2011-04-15T21:05:19Z</time>
      </trkpt>
      <trkpt lat="40.359580339863896" lon="-3.813689583912492">
        <ele>677.38623046875</ele>
        <time>2011-04-15T21:05:29Z</time>
      </trkpt>
      <trkpt lat="40.35981796681881" lon="-3.813842050731182">
        <ele>677.38623046875</ele>
        <time>2011-04-15T21:05:31Z</time>
      </trkpt>
      <trkpt lat="40.360439987853169" lon="-3.813848923891783">
        <ele>677.38623046875</ele>
        <time>2011-04-15T21:05:36Z</time>
      </trkpt>
      <trkpt lat="40.360902668908238" lon="-3.813433097675443">
        <ele>679.30859375</ele>
        <time>2011-04-15T21:05:40Z</time>
      </trkpt>
      <trkpt lat="40.361247332766652" lon="-3.812998998910189">
        <ele>683.15380859375</ele>
        <time>2011-04-15T21:05:44Z</time>
      </trkpt>
      <trkpt lat="40.361512620002031" lon="-3.812488792464137">
        <ele>687.47998046875</ele>
        <time>2011-04-15T21:05:49Z</time>
      </trkpt>
      <trkpt lat="40.361661734059453" lon="-3.811405766755343">
        <ele>693.247802734375</ele>
        <time>2011-04-15T21:05:57Z</time>
      </trkpt>
      <trkpt lat="40.361591493710876" lon="-3.810061980038881">
        <ele>698.534912109375</ele>
        <time>2011-04-15T21:06:04Z</time>
      </trkpt>
      <trkpt lat="40.36124967969954" lon="-3.808546783402562">
        <ele>701.419189453125</ele>
        <time>2011-04-15T21:06:11Z</time>
      </trkpt>
      <trkpt lat="40.360823040828109" lon="-3.806427419185638">
        <ele>697.093017578125</ele>
        <time>2011-04-15T21:06:20Z</time>
      </trkpt>
      <trkpt lat="40.360792865976691" lon="-3.804485583677888">
        <ele>690.364013671875</ele>
        <time>2011-04-15T21:06:27Z</time>
      </trkpt>
      <trkpt lat="40.361139625310898" lon="-3.802434364333749">
        <ele>689.88330078125</ele>
        <time>2011-04-15T21:06:34Z</time>
      </trkpt>
      <trkpt lat="40.361773632466793" lon="-3.799553085118532">
        <ele>693.247802734375</ele>
        <time>2011-04-15T21:06:44Z</time>
      </trkpt>
      <trkpt lat="40.361875221133232" lon="-3.797458782792091">
        <ele>696.612548828125</ele>
        <time>2011-04-15T21:06:51Z</time>
      </trkpt>
      <trkpt lat="40.361646395176649" lon="-3.795345285907388">
        <ele>694.689697265625</ele>
        <time>2011-04-15T21:06:58Z</time>
      </trkpt>
      <trkpt lat="40.361138870939612" lon="-3.793077729642391">
        <ele>687.960693359375</ele>
        <time>2011-04-15T21:07:06Z</time>
      </trkpt>
      <trkpt lat="40.360937537625432" lon="-3.791101528331637">
        <ele>682.192626953125</ele>
        <time>2011-04-15T21:07:13Z</time>
      </trkpt>
      <trkpt lat="40.361109199002385" lon="-3.789464626461268">
        <ele>680.27001953125</ele>
        <time>2011-04-15T21:07:19Z</time>
      </trkpt>
      <trkpt lat="40.361494347453117" lon="-3.787693530321121">
        <ele>679.30859375</ele>
        <time>2011-04-15T21:07:26Z</time>
      </trkpt>
      <trkpt lat="40.361930960789323" lon="-3.785434020683169">
        <ele>678.347412109375</ele>
        <time>2011-04-15T21:07:35Z</time>
      </trkpt>
      <trkpt lat="40.362381739541888" lon="-3.783147856593132">
        <ele>676.4248046875</ele>
        <time>2011-04-15T21:07:44Z</time>
      </trkpt>
      <trkpt lat="40.362397329881787" lon="-3.781195795163512">
        <ele>674.502197265625</ele>
        <time>2011-04-15T21:07:51Z</time>
      </trkpt>
      <trkpt lat="40.362047636881471" lon="-3.779175924137235">
        <ele>671.1376953125</ele>
        <time>2011-04-15T21:07:58Z</time>
      </trkpt>
      <trkpt lat="40.361229060217738" lon="-3.776999479159713">
        <ele>670.17626953125</ele>
        <time>2011-04-15T21:08:06Z</time>
      </trkpt>
      <trkpt lat="40.360269080847502" lon="-3.775083292275667">
        <ele>670.656982421875</ele>
        <time>2011-04-15T21:08:14Z</time>
      </trkpt>
      <trkpt lat="40.359675558283925" lon="-3.773280093446374">
        <ele>673.541015625</ele>
        <time>2011-04-15T21:08:21Z</time>
      </trkpt>
      <trkpt lat="40.3593435510993" lon="-3.771376060321927">
        <ele>676.4248046875</ele>
        <time>2011-04-15T21:08:28Z</time>
      </trkpt>
      <trkpt lat="40.359286135062575" lon="-3.769352752715349">
        <ele>675.944091796875</ele>
        <time>2011-04-15T21:08:35Z</time>
      </trkpt>
      <trkpt lat="40.359374647960067" lon="-3.766256645321846">
        <ele>671.1376953125</ele>
        <time>2011-04-15T21:08:45Z</time>
      </trkpt>
      <trkpt lat="40.359156718477607" lon="-3.76430232077837">
        <ele>667.292236328125</ele>
        <time>2011-04-15T21:08:51Z</time>
      </trkpt>
      <trkpt lat="40.358622539788485" lon="-3.761028936132789">
        <ele>661.5244140625</ele>
        <time>2011-04-15T21:09:01Z</time>
      </trkpt>
      <trkpt lat="40.358574679121375" lon="-3.758737491443753">
        <ele>656.7177734375</ele>
        <time>2011-04-15T21:09:08Z</time>
      </trkpt>
      <trkpt lat="40.358812557533383" lon="-3.756913170218468">
        <ele>651.9111328125</ele>
        <time>2011-04-15T21:09:14Z</time>
      </trkpt>
      <trkpt lat="40.35935134626925" lon="-3.754905620589852">
        <ele>646.6240234375</ele>
        <time>2011-04-15T21:09:21Z</time>
      </trkpt>
      <trkpt lat="40.360153159126639" lon="-3.752173539251089">
        <ele>643.25927734375</ele>
        <time>2011-04-15T21:09:30Z</time>
      </trkpt>
      <trkpt lat="40.360952625051141" lon="-3.748502936214209">
        <ele>637.97216796875</ele>
        <time>2011-04-15T21:09:42Z</time>
      </trkpt>
      <trkpt lat="40.361763071268797" lon="-3.745088316500187">
        <ele>631.723388671875</ele>
        <time>2011-04-15T21:09:53Z</time>
      </trkpt>
      <trkpt lat="40.361927524209023" lon="-3.742771977558732">
        <ele>627.878173828125</ele>
        <time>2011-04-15T21:10:00Z</time>
      </trkpt>
      <trkpt lat="40.361837251111865" lon="-3.740135533735156">
        <ele>626.436279296875</ele>
        <time>2011-04-15T21:10:08Z</time>
      </trkpt>
      <trkpt lat="40.361872958019376" lon="-3.737522140145302">
        <ele>624.513671875</ele>
        <time>2011-04-15T21:10:16Z</time>
      </trkpt>
      <trkpt lat="40.362206641584635" lon="-3.734955517575145">
        <ele>622.1103515625</ele>
        <time>2011-04-15T21:10:24Z</time>
      </trkpt>
      <trkpt lat="40.362846096977592" lon="-3.732473887503147">
        <ele>620.187744140625</ele>
        <time>2011-04-15T21:10:32Z</time>
      </trkpt>
      <trkpt lat="40.363648496568203" lon="-3.729335619136691">
        <ele>617.7841796875</ele>
        <time>2011-04-15T21:10:42Z</time>
      </trkpt>
      <trkpt lat="40.364420218393207" lon="-3.7254583183676">
        <ele>612.4970703125</ele>
        <time>2011-04-15T21:10:54Z</time>
      </trkpt>
      <trkpt lat="40.364700676873326" lon="-3.722495818510652">
        <ele>608.65185546875</ele>
        <time>2011-04-15T21:11:03Z</time>
      </trkpt>
      <trkpt lat="40.364746358245611" lon="-3.719258895143867">
        <ele>608.17138671875</ele>
        <time>2011-04-15T21:11:13Z</time>
      </trkpt>
      <trkpt lat="40.364514933899045" lon="-3.716121632605791">
        <ele>601.922607421875</ele>
        <time>2011-04-15T21:11:23Z</time>
      </trkpt>
      <trkpt lat="40.364083098247647" lon="-3.712356984615326">
        <ele>599.519287109375</ele>
        <time>2011-04-15T21:11:35Z</time>
      </trkpt>
      <trkpt lat="40.36389852873981" lon="-3.708700966089964">
        <ele>598.557861328125</ele>
        <time>2011-04-15T21:11:46Z</time>
      </trkpt>
      <trkpt lat="40.363635923713446" lon="-3.705265056341887">
        <ele>598.557861328125</ele>
        <time>2011-04-15T21:11:56Z</time>
      </trkpt>
      <trkpt lat="40.363490330055356" lon="-3.702688878402114">
        <ele>599.03857421875</ele>
        <time>2011-04-15T21:12:04Z</time>
      </trkpt>
      <trkpt lat="40.363760478794575" lon="-3.70049717836082">
        <ele>599.03857421875</ele>
        <time>2011-04-15T21:12:11Z</time>
      </trkpt>
      <trkpt lat="40.36425375379622" lon="-3.698008842766285">
        <ele>592.3095703125</ele>
        <time>2011-04-15T21:12:19Z</time>
      </trkpt>
      <trkpt lat="40.364449052140117" lon="-3.695720918476582">
        <ele>586.54150390625</ele>
        <time>2011-04-15T21:12:26Z</time>
      </trkpt>
      <trkpt lat="40.364363472908735" lon="-3.692323984578252">
        <ele>581.25439453125</ele>
        <time>2011-04-15T21:12:36Z</time>
      </trkpt>
      <trkpt lat="40.36401922814548" lon="-3.689973782747984">
        <ele>576.928466796875</ele>
        <time>2011-04-15T21:12:43Z</time>
      </trkpt>
      <trkpt lat="40.363372396677732" lon="-3.687801780179143">
        <ele>571.160400390625</ele>
        <time>2011-04-15T21:12:50Z</time>
      </trkpt>
      <trkpt lat="40.362094156444073" lon="-3.684267131611705">
        <ele>567.315185546875</ele>
        <time>2011-04-15T21:13:02Z</time>
      </trkpt>
      <trkpt lat="40.361185390502214" lon="-3.681810228154063">
        <ele>562.028076171875</ele>
        <time>2011-04-15T21:13:11Z</time>
      </trkpt>
      <trkpt lat="40.360791189596057" lon="-3.680812865495682">
        <ele>558.663330078125</ele>
        <time>2011-04-15T21:13:16Z</time>
      </trkpt>
      <trkpt lat="40.360680799931288" lon="-3.680533161386848">
        <ele>557.7021484375</ele>
        <time>2011-04-15T21:13:18Z</time>
      </trkpt>
      <trkpt lat="40.36048986017704" lon="-3.680150359869003">
        <ele>555.779296875</ele>
        <time>2011-04-15T21:13:21Z</time>
      </trkpt>
      <trkpt lat="40.359883094206452" lon="-3.679964197799563">
        <ele>556.74072265625</ele>
        <time>2011-04-15T21:13:26Z</time>
      </trkpt>
      <trkpt lat="40.359743954613805" lon="-3.679969226941466">
        <ele>557.7021484375</ele>
        <time>2011-04-15T21:13:27Z</time>
      </trkpt>
      <trkpt lat="40.35816689953208" lon="-3.680059080943465">
        <ele>562.9892578125</ele>
        <time>2011-04-15T21:13:37Z</time>
      </trkpt>
      <trkpt lat="40.356330676004291" lon="-3.679955396801233">
        <ele>564.43115234375</ele>
        <time>2011-04-15T21:13:47Z</time>
      </trkpt>
      <trkpt lat="40.355198280885816" lon="-3.679559854790568">
        <ele>563.950439453125</ele>
        <time>2011-04-15T21:13:53Z</time>
      </trkpt>
      <trkpt lat="40.354197481647134" lon="-3.67876005358994">
        <ele>562.9892578125</ele>
        <time>2011-04-15T21:13:59Z</time>
      </trkpt>
      <trkpt lat="40.353336073458195" lon="-3.67757317610085">
        <ele>564.43115234375</ele>
        <time>2011-04-15T21:14:05Z</time>
      </trkpt>
      <trkpt lat="40.352255227044225" lon="-3.676202483475208">
        <ele>562.508544921875</ele>
        <time>2011-04-15T21:14:12Z</time>
      </trkpt>
      <trkpt lat="40.350924097001553" lon="-3.675237894058228">
        <ele>561.54736328125</ele>
        <time>2011-04-15T21:14:19Z</time>
      </trkpt>
      <trkpt lat="40.348704569041729" lon="-3.673954037949443">
        <ele>567.315185546875</ele>
        <time>2011-04-15T21:14:30Z</time>
      </trkpt>
      <trkpt lat="40.346729038283229" lon="-3.673179382458329">
        <ele>573.56396484375</ele>
        <time>2011-04-15T21:14:39Z</time>
      </trkpt>
      <trkpt lat="40.344660049304366" lon="-3.672794653102756">
        <ele>577.4091796875</ele>
        <time>2011-04-15T21:14:48Z</time>
      </trkpt>
      <trkpt lat="40.342740593478084" lon="-3.672823989763856">
        <ele>575.005859375</ele>
        <time>2011-04-15T21:14:56Z</time>
      </trkpt>
      <trkpt lat="40.340701276436448" lon="-3.673235876485705">
        <ele>569.718505859375</ele>
        <time>2011-04-15T21:15:04Z</time>
      </trkpt>
      <trkpt lat="40.338700097054243" lon="-3.674076329916716">
        <ele>566.353759765625</ele>
        <time>2011-04-15T21:15:12Z</time>
      </trkpt>
      <trkpt lat="40.336814420297742" lon="-3.675351720303297">
        <ele>569.718505859375</ele>
        <time>2011-04-15T21:15:20Z</time>
      </trkpt>
      <trkpt lat="40.335111888125539" lon="-3.676981078460813">
        <ele>573.56396484375</ele>
        <time>2011-04-15T21:15:28Z</time>
      </trkpt>
      <trkpt lat="40.333639187738299" lon="-3.678882261738181">
        <ele>578.370361328125</ele>
        <time>2011-04-15T21:15:36Z</time>
      </trkpt>
      <trkpt lat="40.332449376583099" lon="-3.681026268750429">
        <ele>579.812255859375</ele>
        <time>2011-04-15T21:15:44Z</time>
      </trkpt>
      <trkpt lat="40.331487972289324" lon="-3.683368759229779">
        <ele>583.1767578125</ele>
        <time>2011-04-15T21:15:52Z</time>
      </trkpt>
      <trkpt lat="40.33046311698854" lon="-3.685644445940852">
        <ele>587.502685546875</ele>
        <time>2011-04-15T21:16:00Z</time>
      </trkpt>
      <trkpt lat="40.329337930306792" lon="-3.687412524595857">
        <ele>592.790283203125</ele>
        <time>2011-04-15T21:16:07Z</time>
      </trkpt>
      <trkpt lat="40.327824661508203" lon="-3.689144561067224">
        <ele>598.557861328125</ele>
        <time>2011-04-15T21:16:15Z</time>
      </trkpt>
      <trkpt lat="40.326339723542333" lon="-3.690377958118916">
        <ele>601.922607421875</ele>
        <time>2011-04-15T21:16:22Z</time>
      </trkpt>
      <trkpt lat="40.324738696217537" lon="-3.691332489252091">
        <ele>607.2099609375</ele>
        <time>2011-04-15T21:16:29Z</time>
      </trkpt>
      <trkpt lat="40.322650596499443" lon="-3.692258941009641">
        <ele>612.4970703125</ele>
        <time>2011-04-15T21:16:38Z</time>
      </trkpt>
      <trkpt lat="40.321412421762943" lon="-3.692332953214645">
        <ele>612.4970703125</ele>
        <time>2011-04-15T21:16:43Z</time>
      </trkpt>
      <trkpt lat="40.318667348474264" lon="-3.69223547168076">
        <ele>612.977783203125</ele>
        <time>2011-04-15T21:16:54Z</time>
      </trkpt>
      <trkpt lat="40.316271465271711" lon="-3.692168332636356">
        <ele>612.977783203125</ele>
        <time>2011-04-15T21:17:04Z</time>
      </trkpt>
      <trkpt lat="40.313391024246812" lon="-3.692084429785609">
        <ele>612.4970703125</ele>
        <time>2011-04-15T21:17:17Z</time>
      </trkpt>
      <trkpt lat="40.309792086482048" lon="-3.691930118948221">
        <ele>611.05517578125</ele>
        <time>2011-04-15T21:17:32Z</time>
      </trkpt>
      <trkpt lat="40.305963149294257" lon="-3.691782848909497">
        <ele>612.0166015625</ele>
        <time>2011-04-15T21:17:47Z</time>
      </trkpt>
      <trkpt lat="40.302999224513769" lon="-3.691708836704493">
        <ele>607.2099609375</ele>
        <time>2011-04-15T21:17:58Z</time>
      </trkpt>
      <trkpt lat="40.298858061432838" lon="-3.691572798416019">
        <ele>601.922607421875</ele>
        <time>2011-04-15T21:18:13Z</time>
      </trkpt>
      <trkpt lat="40.295008840039372" lon="-3.691428462043405">
        <ele>597.115966796875</ele>
        <time>2011-04-15T21:18:28Z</time>
      </trkpt>
      <trkpt lat="40.291837630793452" lon="-3.691302817314863">
        <ele>593.75146484375</ele>
        <time>2011-04-15T21:18:40Z</time>
      </trkpt>
      <trkpt lat="40.288397949188948" lon="-3.691254872828722">
        <ele>593.270751953125</ele>
        <time>2011-04-15T21:18:53Z</time>
      </trkpt>
      <trkpt lat="40.284545375034213" lon="-3.691166192293167">
        <ele>594.232177734375</ele>
        <time>2011-04-15T21:19:08Z</time>
      </trkpt>
      <trkpt lat="40.280512254685163" lon="-3.691044487059116">
        <ele>594.712646484375</ele>
        <time>2011-04-15T21:19:24Z</time>
      </trkpt>
      <trkpt lat="40.277574649080634" lon="-3.690926553681493">
        <ele>595.193359375</ele>
        <time>2011-04-15T21:19:35Z</time>
      </trkpt>
      <trkpt lat="40.274305958300829" lon="-3.690843572840095">
        <ele>597.5966796875</ele>
        <time>2011-04-15T21:19:48Z</time>
      </trkpt>
      <trkpt lat="40.270876670256257" lon="-3.69076126255095">
        <ele>589.425537109375</ele>
        <time>2011-04-15T21:20:01Z</time>
      </trkpt>
      <trkpt lat="40.26773882098496" lon="-3.690685573965311">
        <ele>598.077392578125</ele>
        <time>2011-04-15T21:20:13Z</time>
      </trkpt>
      <trkpt lat="40.265005817636847" lon="-3.690585326403379">
        <ele>599.519287109375</ele>
        <time>2011-04-15T21:20:23Z</time>
      </trkpt>
      <trkpt lat="40.261855144053698" lon="-3.690429842099547">
        <ele>596.635498046875</ele>
        <time>2011-04-15T21:20:34Z</time>
      </trkpt>
      <trkpt lat="40.258012963458896" lon="-3.690324649214745">
        <ele>596.635498046875</ele>
        <time>2011-04-15T21:20:48Z</time>
      </trkpt>
      <trkpt lat="40.254422659054399" lon="-3.690239321440458">
        <ele>598.557861328125</ele>
        <time>2011-04-15T21:21:02Z</time>
      </trkpt>
      <trkpt lat="40.250154342502356" lon="-3.690101690590382">
        <ele>601.922607421875</ele>
        <time>2011-04-15T21:21:19Z</time>
      </trkpt>
      <trkpt lat="40.24627092294395" lon="-3.689980655908585">
        <ele>612.977783203125</ele>
        <time>2011-04-15T21:21:34Z</time>
      </trkpt>
      <trkpt lat="40.241881068795919" lon="-3.689860291779041">
        <ele>618.264892578125</ele>
        <time>2011-04-15T21:21:51Z</time>
      </trkpt>
      <trkpt lat="40.238706171512604" lon="-3.689760379493237">
        <ele>619.226318359375</ele>
        <time>2011-04-15T21:22:03Z</time>
      </trkpt>
      <trkpt lat="40.233984393998981" lon="-3.689619982615113">
        <ele>628.35888671875</ele>
        <time>2011-04-15T21:22:21Z</time>
      </trkpt>
      <trkpt lat="40.230611683800817" lon="-3.689520070329309">
        <ele>634.607421875</ele>
        <time>2011-04-15T21:22:34Z</time>
      </trkpt>
      <trkpt lat="40.228955084457994" lon="-3.689245982095599">
        <ele>635.568603515625</ele>
        <time>2011-04-15T21:22:41Z</time>
      </trkpt>
      <trkpt lat="40.226949378848076" lon="-3.6885223723948">
        <ele>633.64599609375</ele>
        <time>2011-04-15T21:22:49Z</time>
      </trkpt>
      <trkpt lat="40.223205182701349" lon="-3.68700809776783">
        <ele>629.80078125</ele>
        <time>2011-04-15T21:23:03Z</time>
      </trkpt>
      <trkpt lat="40.220566978678107" lon="-3.685906548053026">
        <ele>625.474853515625</ele>
        <time>2011-04-15T21:23:13Z</time>
      </trkpt>
      <trkpt lat="40.216666460037231" lon="-3.684313651174307">
        <ele>621.149169921875</ele>
        <time>2011-04-15T21:23:28Z</time>
      </trkpt>
      <trkpt lat="40.212378697469831" lon="-3.682574992999435">
        <ele>619.226318359375</ele>
        <time>2011-04-15T21:23:44Z</time>
      </trkpt>
      <trkpt lat="40.207744846120477" lon="-3.680703230202198">
        <ele>614.419677734375</ele>
        <time>2011-04-15T21:24:01Z</time>
      </trkpt>
      <trkpt lat="40.204664161428809" lon="-3.679435299709439">
        <ele>609.61328125</ele>
        <time>2011-04-15T21:24:12Z</time>
      </trkpt>
      <trkpt lat="40.201102271676064" lon="-3.677980452775955">
        <ele>610.574462890625</ele>
        <time>2011-04-15T21:24:25Z</time>
      </trkpt>
      <trkpt lat="40.197825534269214" lon="-3.676636330783367">
        <ele>606.24853515625</ele>
        <time>2011-04-15T21:24:37Z</time>
      </trkpt>
      <trkpt lat="40.195379024371505" lon="-3.675493290647864">
        <ele>606.729248046875</ele>
        <time>2011-04-15T21:24:46Z</time>
      </trkpt>
      <trkpt lat="40.194195667281747" lon="-3.674438176676631">
        <ele>604.806640625</ele>
        <time>2011-04-15T21:24:51Z</time>
      </trkpt>
      <trkpt lat="40.192909464240074" lon="-3.673058180138469">
        <ele>601.44189453125</ele>
        <time>2011-04-15T21:24:57Z</time>
      </trkpt>
      <trkpt lat="40.191707918420434" lon="-3.672317638993263">
        <ele>598.077392578125</ele>
        <time>2011-04-15T21:25:02Z</time>
      </trkpt>
      <trkpt lat="40.190644254907966" lon="-3.672124017030001">
        <ele>595.193359375</ele>
        <time>2011-04-15T21:25:06Z</time>
      </trkpt>
      <trkpt lat="40.189006347209215" lon="-3.672316381707788">
        <ele>591.828857421875</ele>
        <time>2011-04-15T21:25:12Z</time>
      </trkpt>
      <trkpt lat="40.187354357913136" lon="-3.672299450263381">
        <ele>592.790283203125</ele>
        <time>2011-04-15T21:25:18Z</time>
      </trkpt>
      <trkpt lat="40.185803286731243" lon="-3.671827297657728">
        <ele>598.557861328125</ele>
        <time>2011-04-15T21:25:24Z</time>
      </trkpt>
      <trkpt lat="40.182575667276978" lon="-3.670510165393353">
        <ele>609.61328125</ele>
        <time>2011-04-15T21:25:37Z</time>
      </trkpt>
      <trkpt lat="40.179292894899845" lon="-3.669185992330313">
        <ele>608.17138671875</ele>
        <time>2011-04-15T21:25:49Z</time>
      </trkpt>
      <trkpt lat="40.176109950989485" lon="-3.667860897257924">
        <ele>619.70703125</ele>
        <time>2011-04-15T21:26:01Z</time>
      </trkpt>
      <trkpt lat="40.172376399859786" lon="-3.666352489963174">
        <ele>618.74560546875</ele>
        <time>2011-04-15T21:26:15Z</time>
      </trkpt>
      <trkpt lat="40.168134067207575" lon="-3.664649454876781">
        <ele>615.86181640625</ele>
        <time>2011-04-15T21:26:30Z</time>
      </trkpt>
      <trkpt lat="40.163296367973089" lon="-3.66268415004015">
        <ele>615.381103515625</ele>
        <time>2011-04-15T21:26:47Z</time>
      </trkpt>
      <trkpt lat="40.159972188994288" lon="-3.661325694993138">
        <ele>622.1103515625</ele>
        <time>2011-04-15T21:26:59Z</time>
      </trkpt>
      <trkpt lat="40.156786479055882" lon="-3.660053741186857">
        <ele>624.513671875</ele>
        <time>2011-04-15T21:27:11Z</time>
      </trkpt>
      <trkpt lat="40.155129628255963" lon="-3.659712178632617">
        <ele>626.436279296875</ele>
        <time>2011-04-15T21:27:17Z</time>
      </trkpt>
      <trkpt lat="40.151340756565332" lon="-3.65929601714015">
        <ele>622.1103515625</ele>
        <time>2011-04-15T21:27:30Z</time>
      </trkpt>
      <trkpt lat="40.148259149864316" lon="-3.65896669216454">
        <ele>618.264892578125</ele>
        <time>2011-04-15T21:27:41Z</time>
      </trkpt>
      <trkpt lat="40.144097534939647" lon="-3.658514572307468">
        <ele>619.70703125</ele>
        <time>2011-04-15T21:27:56Z</time>
      </trkpt>
      <trkpt lat="40.140339257195592" lon="-3.65809204056859">
        <ele>621.629638671875</ele>
        <time>2011-04-15T21:28:09Z</time>
      </trkpt>
      <trkpt lat="40.137314982712269" lon="-3.657757770270109">
        <ele>617.3037109375</ele>
        <time>2011-04-15T21:28:20Z</time>
      </trkpt>
      <trkpt lat="40.134324235841632" lon="-3.657419895753264">
        <ele>621.149169921875</ele>
        <time>2011-04-15T21:28:31Z</time>
      </trkpt>
      <trkpt lat="40.131228547543287" lon="-3.656984874978662">
        <ele>618.74560546875</ele>
        <time>2011-04-15T21:28:42Z</time>
      </trkpt>
      <trkpt lat="40.128313321620226" lon="-3.656561924144626">
        <ele>614.900390625</ele>
        <time>2011-04-15T21:28:52Z</time>
      </trkpt>
      <trkpt lat="40.124542219564319" lon="-3.656053896993399">
        <ele>612.0166015625</ele>
        <time>2011-04-15T21:29:05Z</time>
      </trkpt>
      <trkpt lat="40.122028738260269" lon="-3.655622228980064">
        <ele>611.05517578125</ele>
        <time>2011-04-15T21:29:14Z</time>
      </trkpt>
      <trkpt lat="40.120485378429294" lon="-3.654904821887612">
        <ele>611.535888671875</ele>
        <time>2011-04-15T21:29:20Z</time>
      </trkpt>
      <trkpt lat="40.117044523358345" lon="-3.65289056673646">
        <ele>605.76806640625</ele>
        <time>2011-04-15T21:29:33Z</time>
      </trkpt>
      <trkpt lat="40.112616866827011" lon="-3.650383790954948">
        <ele>600.961181640625</ele>
        <time>2011-04-15T21:29:50Z</time>
      </trkpt>
      <trkpt lat="40.109057743102312" lon="-3.648313460871577">
        <ele>603.84521484375</ele>
        <time>2011-04-15T21:30:04Z</time>
      </trkpt>
      <trkpt lat="40.105760721489787" lon="-3.646319154649973">
        <ele>607.690673828125</ele>
        <time>2011-04-15T21:30:17Z</time>
      </trkpt>
      <trkpt lat="40.104453563690186" lon="-3.64499531686306">
        <ele>606.729248046875</ele>
        <time>2011-04-15T21:30:23Z</time>
      </trkpt>
      <trkpt lat="40.103524597361684" lon="-3.643572488799691">
        <ele>603.84521484375</ele>
        <time>2011-04-15T21:30:28Z</time>
      </trkpt>
      <trkpt lat="40.102638630196452" lon="-3.641577092930675">
        <ele>599.03857421875</ele>
        <time>2011-04-15T21:30:34Z</time>
      </trkpt>
      <trkpt lat="40.101920133456588" lon="-3.639793340116739">
        <ele>589.90625</ele>
        <time>2011-04-15T21:30:40Z</time>
      </trkpt>
      <trkpt lat="40.101529788225889" lon="-3.638003971427679">
        <ele>580.29296875</ele>
        <time>2011-04-15T21:30:46Z</time>
      </trkpt>
      <trkpt lat="40.101071298122406" lon="-3.636035230010748">
        <ele>569.23779296875</ele>
        <time>2011-04-15T21:30:53Z</time>
      </trkpt>
      <trkpt lat="40.100440895184875" lon="-3.634756151586771">
        <ele>560.5859375</ele>
        <time>2011-04-15T21:30:58Z</time>
      </trkpt>
      <trkpt lat="40.099512180313468" lon="-3.633761471137404">
        <ele>550.4921875</ele>
        <time>2011-04-15T21:31:03Z</time>
      </trkpt>
      <trkpt lat="40.098376851528883" lon="-3.633175073191524">
        <ele>540.3983154296875</ele>
        <time>2011-04-15T21:31:08Z</time>
      </trkpt>
      <trkpt lat="40.097137084230781" lon="-3.63304884172976">
        <ele>529.3431396484375</ele>
        <time>2011-04-15T21:31:13Z</time>
      </trkpt>
      <trkpt lat="40.09588809683919" lon="-3.63339819945395">
        <ele>517.8072509765625</ele>
        <time>2011-04-15T21:31:18Z</time>
      </trkpt>
      <trkpt lat="40.093759680166841" lon="-3.633964061737061">
        <ele>509.1553955078125</ele>
        <time>2011-04-15T21:31:26Z</time>
      </trkpt>
      <trkpt lat="40.091813150793314" lon="-3.633979484438896">
        <ele>505.7908935546875</ele>
        <time>2011-04-15T21:31:33Z</time>
      </trkpt>
      <trkpt lat="40.090189576148987" lon="-3.634183248504996">
        <ele>503.8681640625</ele>
        <time>2011-04-15T21:31:39Z</time>
      </trkpt>
      <trkpt lat="40.089165726676583" lon="-3.634720193222165">
        <ele>503.8681640625</ele>
        <time>2011-04-15T21:31:43Z</time>
      </trkpt>
      <trkpt lat="40.086443619802594" lon="-3.636615257710218">
        <ele>504.8294677734375</ele>
        <time>2011-04-15T21:31:54Z</time>
      </trkpt>
      <trkpt lat="40.084835970774293" lon="-3.63737122155726">
        <ele>503.387451171875</ele>
        <time>2011-04-15T21:32:00Z</time>
      </trkpt>
      <trkpt lat="40.083417249843478" lon="-3.637654362246394">
        <ele>501.945556640625</ele>
        <time>2011-04-15T21:32:05Z</time>
      </trkpt>
      <trkpt lat="40.080920783802867" lon="-3.637823257595301">
        <ele>499.0615234375</ele>
        <time>2011-04-15T21:32:14Z</time>
      </trkpt>
      <trkpt lat="40.079388823360205" lon="-3.638171693310142">
        <ele>500.02294921875</ele>
        <time>2011-04-15T21:32:20Z</time>
      </trkpt>
      <trkpt lat="40.077903717756271" lon="-3.638921622186899">
        <ele>498.100341796875</ele>
        <time>2011-04-15T21:32:26Z</time>
      </trkpt>
      <trkpt lat="40.07522645406425" lon="-3.640656173229218">
        <ele>498.5809326171875</ele>
        <time>2011-04-15T21:32:38Z</time>
      </trkpt>
      <trkpt lat="40.072013586759567" lon="-3.642574874684215">
        <ele>495.6968994140625</ele>
        <time>2011-04-15T21:32:52Z</time>
      </trkpt>
      <trkpt lat="40.06953002884984" lon="-3.643943639472127">
        <ele>495.2161865234375</ele>
        <time>2011-04-15T21:33:02Z</time>
      </trkpt>
      <trkpt lat="40.06788189522922" lon="-3.645289856940508">
        <ele>494.2550048828125</ele>
        <time>2011-04-15T21:33:09Z</time>
      </trkpt>
      <trkpt lat="40.065380735322833" lon="-3.647435121238232">
        <ele>496.177734375</ele>
        <time>2011-04-15T21:33:20Z</time>
      </trkpt>
      <trkpt lat="40.063643082976341" lon="-3.648388646543026">
        <ele>497.138916015625</ele>
        <time>2011-04-15T21:33:27Z</time>
      </trkpt>
      <trkpt lat="40.061773583292961" lon="-3.649022653698921">
        <ele>497.61962890625</ele>
        <time>2011-04-15T21:33:34Z</time>
      </trkpt>
      <trkpt lat="40.059361523017287" lon="-3.649916918948293">
        <ele>500.5035400390625</ele>
        <time>2011-04-15T21:33:43Z</time>
      </trkpt>
      <trkpt lat="40.057605262845755" lon="-3.651081081479788">
        <ele>501.46484375</ele>
        <time>2011-04-15T21:33:50Z</time>
      </trkpt>
      <trkpt lat="40.053632576018572" lon="-3.653893042355776">
        <ele>500.984130859375</ele>
        <time>2011-04-15T21:34:06Z</time>
      </trkpt>
      <trkpt lat="40.050645349547267" lon="-3.65612187422812">
        <ele>498.5809326171875</ele>
        <time>2011-04-15T21:34:18Z</time>
      </trkpt>
      <trkpt lat="40.047721322625875" lon="-3.659114548936486">
        <ele>501.945556640625</ele>
        <time>2011-04-15T21:34:31Z</time>
      </trkpt>
      <trkpt lat="40.04633629694581" lon="-3.660232275724411">
        <ele>503.387451171875</ele>
        <time>2011-04-15T21:34:37Z</time>
      </trkpt>
      <trkpt lat="40.044280048459768" lon="-3.661381937563419">
        <ele>500.5035400390625</ele>
        <time>2011-04-15T21:34:45Z</time>
      </trkpt>
      <trkpt lat="40.041378233581781" lon="-3.662899564951658">
        <ele>497.138916015625</ele>
        <time>2011-04-15T21:34:56Z</time>
      </trkpt>
      <trkpt lat="40.040021622553468" lon="-3.663113890215755">
        <ele>494.2550048828125</ele>
        <time>2011-04-15T21:35:01Z</time>
      </trkpt>
      <trkpt lat="40.038660652935505" lon="-3.662811890244484">
        <ele>490.890380859375</ele>
        <time>2011-04-15T21:35:06Z</time>
      </trkpt>
      <trkpt lat="40.035177720710635" lon="-3.661512276157737">
        <ele>488.9677734375</ele>
        <time>2011-04-15T21:35:19Z</time>
      </trkpt>
      <trkpt lat="40.033911718055606" lon="-3.660716917365789">
        <ele>488.0064697265625</ele>
        <time>2011-04-15T21:35:24Z</time>
      </trkpt>
      <trkpt lat="40.032022185623646" lon="-3.659045062959194">
        <ele>488.0064697265625</ele>
        <time>2011-04-15T21:35:32Z</time>
      </trkpt>
      <trkpt lat="40.029826797544956" lon="-3.657439760863781">
        <ele>488.4871826171875</ele>
        <time>2011-04-15T21:35:41Z</time>
      </trkpt>
      <trkpt lat="40.027529066428542" lon="-3.655780395492911">
        <ele>489.9290771484375</ele>
        <time>2011-04-15T21:35:51Z</time>
      </trkpt>
      <trkpt lat="40.025993250310421" lon="-3.65440777502954">
        <ele>490.4097900390625</ele>
        <time>2011-04-15T21:35:58Z</time>
      </trkpt>
      <trkpt lat="40.025075767189264" lon="-3.653066754341126">
        <ele>489.9290771484375</ele>
        <time>2011-04-15T21:36:03Z</time>
      </trkpt>
      <trkpt lat="40.02390188165009" lon="-3.650651844218373">
        <ele>489.4483642578125</ele>
        <time>2011-04-15T21:36:11Z</time>
      </trkpt>
      <trkpt lat="40.022565638646483" lon="-3.648064183071256">
        <ele>489.4483642578125</ele>
        <time>2011-04-15T21:36:20Z</time>
      </trkpt>
      <trkpt lat="40.021401476114988" lon="-3.64606493152678">
        <ele>489.4483642578125</ele>
        <time>2011-04-15T21:36:28Z</time>
      </trkpt>
      <trkpt lat="40.020893029868603" lon="-3.644607737660408">
        <ele>491.8516845703125</ele>
        <time>2011-04-15T21:36:33Z</time>
      </trkpt>
      <trkpt lat="40.019595259800553" lon="-3.640289464965463">
        <ele>503.8681640625</ele>
        <time>2011-04-15T21:36:47Z</time>
      </trkpt>
      <trkpt lat="40.018680291250348" lon="-3.637644974514842">
        <ele>502.4261474609375</ele>
        <time>2011-04-15T21:36:55Z</time>
      </trkpt>
      <trkpt lat="40.017662644386292" lon="-3.6358442902565">
        <ele>505.7908935546875</ele>
        <time>2011-04-15T21:37:01Z</time>
      </trkpt>
      <trkpt lat="40.015692729502916" lon="-3.633250342682004">
        <ele>512.52001953125</ele>
        <time>2011-04-15T21:37:11Z</time>
      </trkpt>
      <trkpt lat="40.014405269175768" lon="-3.631988363340497">
        <ele>515.8846435546875</ele>
        <time>2011-04-15T21:37:17Z</time>
      </trkpt>
      <trkpt lat="40.012837434187531" lon="-3.63075714558363">
        <ele>517.8072509765625</ele>
        <time>2011-04-15T21:37:24Z</time>
      </trkpt>
      <trkpt lat="40.012125978246331" lon="-3.629798758774996">
        <ele>519.7298583984375</ele>
        <time>2011-04-15T21:37:28Z</time>
      </trkpt>
      <trkpt lat="40.011528851464391" lon="-3.628330836072564">
        <ele>521.1719970703125</ele>
        <time>2011-04-15T21:37:33Z</time>
      </trkpt>
      <trkpt lat="40.011275298893452" lon="-3.626637943089008">
        <ele>525.0172119140625</ele>
        <time>2011-04-15T21:37:38Z</time>
      </trkpt>
      <trkpt lat="40.010784538462758" lon="-3.620756696909666">
        <ele>547.608154296875</ele>
        <time>2011-04-15T21:37:55Z</time>
      </trkpt>
      <trkpt lat="40.010457057505846" lon="-3.618701035156846">
        <ele>552.895263671875</ele>
        <time>2011-04-15T21:38:01Z</time>
      </trkpt>
      <trkpt lat="40.009868647903204" lon="-3.617138983681798">
        <ele>559.624755859375</ele>
        <time>2011-04-15T21:38:06Z</time>
      </trkpt>
      <trkpt lat="40.009044287726283" lon="-3.615818498656154">
        <ele>568.757080078125</ele>
        <time>2011-04-15T21:38:11Z</time>
      </trkpt>
      <trkpt lat="40.007814494892955" lon="-3.61460261978209">
        <ele>577.4091796875</ele>
        <time>2011-04-15T21:38:17Z</time>
      </trkpt>
      <trkpt lat="40.004626857116818" lon="-3.611744893714786">
        <ele>588.945068359375</ele>
        <time>2011-04-15T21:38:32Z</time>
      </trkpt>
      <trkpt lat="40.002285623922944" lon="-3.609610525891185">
        <ele>592.790283203125</ele>
        <time>2011-04-15T21:38:42Z</time>
      </trkpt>
      <trkpt lat="40.000512767583132" lon="-3.60767874866724">
        <ele>595.674072265625</ele>
        <time>2011-04-15T21:38:50Z</time>
      </trkpt>
      <trkpt lat="39.998686518520117" lon="-3.605759963393211">
        <ele>599.519287109375</ele>
        <time>2011-04-15T21:38:58Z</time>
      </trkpt>
      <trkpt lat="39.99547784216702" lon="-3.602973986417055">
        <ele>605.76806640625</ele>
        <time>2011-04-15T21:39:11Z</time>
      </trkpt>
      <trkpt lat="39.994536638259888" lon="-3.601601952686906">
        <ele>606.729248046875</ele>
        <time>2011-04-15T21:39:16Z</time>
      </trkpt>
      <trkpt lat="39.993462581187487" lon="-3.59933883883059">
        <ele>606.729248046875</ele>
        <time>2011-04-15T21:39:23Z</time>
      </trkpt>
      <trkpt lat="39.992132540792227" lon="-3.596636597067118">
        <ele>608.17138671875</ele>
        <time>2011-04-15T21:39:32Z</time>
      </trkpt>
      <trkpt lat="39.990798979997635" lon="-3.594001075252891">
        <ele>609.132568359375</ele>
        <time>2011-04-15T21:39:41Z</time>
      </trkpt>
      <trkpt lat="39.988774918019772" lon="-3.590039033442736">
        <ele>608.17138671875</ele>
        <time>2011-04-15T21:39:54Z</time>
      </trkpt>
      <trkpt lat="39.98680274002254" lon="-3.586097275838256">
        <ele>612.4970703125</ele>
        <time>2011-04-15T21:40:08Z</time>
      </trkpt>
      <trkpt lat="39.984882194548845" lon="-3.582269093021751">
        <ele>610.574462890625</ele>
        <time>2011-04-15T21:40:22Z</time>
      </trkpt>
      <trkpt lat="39.983485853299499" lon="-3.579508932307363">
        <ele>610.09375</ele>
        <time>2011-04-15T21:40:33Z</time>
      </trkpt>
      <trkpt lat="39.982427638024092" lon="-3.577457377687097">
        <ele>612.4970703125</ele>
        <time>2011-04-15T21:40:42Z</time>
      </trkpt>
      <trkpt lat="39.981617778539658" lon="-3.576035471633077">
        <ele>614.419677734375</ele>
        <time>2011-04-15T21:40:49Z</time>
      </trkpt>
      <trkpt lat="39.980447329580784" lon="-3.573714857921004">
        <ele>618.74560546875</ele>
        <time>2011-04-15T21:41:00Z</time>
      </trkpt>
      <trkpt lat="39.97922264970839" lon="-3.571260385215282">
        <ele>624.513671875</ele>
        <time>2011-04-15T21:41:11Z</time>
      </trkpt>
      <trkpt lat="39.978742282837629" lon="-3.570189848542213">
        <ele>625.474853515625</ele>
        <time>2011-04-15T21:41:17Z</time>
      </trkpt>
      <trkpt lat="39.978090170770884" lon="-3.56865637935698">
        <ele>624.994384765625</ele>
        <time>2011-04-15T21:41:26Z</time>
      </trkpt>
      <trkpt lat="39.977682055905461" lon="-3.56772649101913">
        <ele>625.474853515625</ele>
        <time>2011-04-15T21:41:33Z</time>
      </trkpt>
      <trkpt lat="39.977145781740546" lon="-3.567003384232521">
        <ele>626.9169921875</ele>
        <time>2011-04-15T21:41:41Z</time>
      </trkpt>
      <trkpt lat="39.976897090673447" lon="-3.566725356504321">
        <ele>629.320068359375</ele>
        <time>2011-04-15T21:41:47Z</time>
      </trkpt>
      <trkpt lat="39.976812684908509" lon="-3.56668034568429">
        <ele>630.76220703125</ele>
        <time>2011-04-15T21:41:54Z</time>
      </trkpt>
      <trkpt lat="39.976722160354257" lon="-3.566561071202159">
        <ele>615.381103515625</ele>
        <time>2011-04-15T21:46:32Z</time>
      </trkpt>
      <trkpt lat="39.976740097627044" lon="-3.566216742619872">
        <ele>620.187744140625</ele>
        <time>2011-04-15T21:46:38Z</time>
      </trkpt>
      <trkpt lat="39.976752083748579" lon="-3.565734028816223">
        <ele>622.1103515625</ele>
        <time>2011-04-15T21:46:45Z</time>
      </trkpt>
      <trkpt lat="39.976742276921868" lon="-3.565506124868989">
        <ele>623.552490234375</ele>
        <time>2011-04-15T21:46:50Z</time>
      </trkpt>
      <trkpt lat="39.976470870897174" lon="-3.564848732203245">
        <ele>624.032958984375</ele>
        <time>2011-04-15T21:46:56Z</time>
      </trkpt>
      <trkpt lat="39.975977931171656" lon="-3.563667135313153">
        <ele>623.552490234375</ele>
        <time>2011-04-15T21:47:03Z</time>
      </trkpt>
      <trkpt lat="39.975217692553997" lon="-3.561900397762656">
        <ele>624.513671875</ele>
        <time>2011-04-15T21:47:12Z</time>
      </trkpt>
      <trkpt lat="39.97410818003118" lon="-3.559213997796178">
        <ele>626.436279296875</ele>
        <time>2011-04-15T21:47:25Z</time>
      </trkpt>
      <trkpt lat="39.97346319258213" lon="-3.557700226083398">
        <ele>625.474853515625</ele>
        <time>2011-04-15T21:47:33Z</time>
      </trkpt>
      <trkpt lat="39.972871597856283" lon="-3.556422321125865">
        <ele>620.66845703125</ele>
        <time>2011-04-15T21:47:41Z</time>
      </trkpt>
      <trkpt lat="39.97222744859755" lon="-3.554763877764344">
        <ele>623.07177734375</ele>
        <time>2011-04-15T21:47:50Z</time>
      </trkpt>
      <trkpt lat="39.97108549810946" lon="-3.552055936306715">
        <ele>622.591064453125</ele>
        <time>2011-04-15T21:48:03Z</time>
      </trkpt>
      <trkpt lat="39.969793260097504" lon="-3.548979023471475">
        <ele>623.552490234375</ele>
        <time>2011-04-15T21:48:16Z</time>
      </trkpt>
      <trkpt lat="39.969053473323584" lon="-3.547206334769726">
        <ele>624.032958984375</ele>
        <time>2011-04-15T21:48:24Z</time>
      </trkpt>
      <trkpt lat="39.967755535617471" lon="-3.544104862958193">
        <ele>625.474853515625</ele>
        <time>2011-04-15T21:48:38Z</time>
      </trkpt>
      <trkpt lat="39.96614252217114" lon="-3.540317583829165">
        <ele>629.80078125</ele>
        <time>2011-04-15T21:48:54Z</time>
      </trkpt>
      <trkpt lat="39.964573346078396" lon="-3.536746557801962">
        <ele>634.607421875</ele>
        <time>2011-04-15T21:49:09Z</time>
      </trkpt>
      <trkpt lat="39.96350004337728" lon="-3.535245945677161">
        <ele>638.452880859375</ele>
        <time>2011-04-15T21:49:16Z</time>
      </trkpt>
      <trkpt lat="39.961845790967345" lon="-3.53298794478178">
        <ele>643.739990234375</ele>
        <time>2011-04-15T21:49:27Z</time>
      </trkpt>
      <trkpt lat="39.96054139919579" lon="-3.531014593318105">
        <ele>645.66259765625</ele>
        <time>2011-04-15T21:49:36Z</time>
      </trkpt>
      <trkpt lat="39.958797544240952" lon="-3.528635390102863">
        <ele>654.795166015625</ele>
        <time>2011-04-15T21:49:46Z</time>
      </trkpt>
      <trkpt lat="39.956420855596662" lon="-3.52510535158217">
        <ele>677.38623046875</ele>
        <time>2011-04-15T21:50:00Z</time>
      </trkpt>
      <trkpt lat="39.954469883814454" lon="-3.522126171737909">
        <ele>696.1318359375</ele>
        <time>2011-04-15T21:50:12Z</time>
      </trkpt>
      <trkpt lat="39.952436937019229" lon="-3.518915819004178">
        <ele>713.435546875</ele>
        <time>2011-04-15T21:50:25Z</time>
      </trkpt>
      <trkpt lat="39.951775353401899" lon="-3.517248993739486">
        <ele>719.20361328125</ele>
        <time>2011-04-15T21:50:31Z</time>
      </trkpt>
      <trkpt lat="39.951457595452666" lon="-3.51543246768415">
        <ele>724.49072265625</ele>
        <time>2011-04-15T21:50:37Z</time>
      </trkpt>
      <trkpt lat="39.951418368145823" lon="-3.513074051588774">
        <ele>728.3359375</ele>
        <time>2011-04-15T21:50:44Z</time>
      </trkpt>
      <trkpt lat="39.951396156102419" lon="-3.508767262101173">
        <ele>729.297119140625</ele>
        <time>2011-04-15T21:50:56Z</time>
      </trkpt>
      <trkpt lat="39.951067166402936" lon="-3.50706372410059">
        <ele>729.77783203125</ele>
        <time>2011-04-15T21:51:01Z</time>
      </trkpt>
      <trkpt lat="39.950124034658074" lon="-3.504429291933775">
        <ele>729.297119140625</ele>
        <time>2011-04-15T21:51:09Z</time>
      </trkpt>
      <trkpt lat="39.948565755039454" lon="-3.500223085284233">
        <ele>727.374755859375</ele>
        <time>2011-04-15T21:51:22Z</time>
      </trkpt>
      <trkpt lat="39.947773329913616" lon="-3.498787265270948">
        <ele>727.374755859375</ele>
        <time>2011-04-15T21:51:27Z</time>
      </trkpt>
      <trkpt lat="39.945864351466298" lon="-3.496065828949213">
        <ele>728.816650390625</ele>
        <time>2011-04-15T21:51:37Z</time>
      </trkpt>
      <trkpt lat="39.944495167583227" lon="-3.494412498548627">
        <ele>728.3359375</ele>
        <time>2011-04-15T21:51:44Z</time>
      </trkpt>
      <trkpt lat="39.943075692281127" lon="-3.493338860571384">
        <ele>728.3359375</ele>
        <time>2011-04-15T21:51:50Z</time>
      </trkpt>
      <trkpt lat="39.940262641757727" lon="-3.491509845480323">
        <ele>729.297119140625</ele>
        <time>2011-04-15T21:52:01Z</time>
      </trkpt>
      <trkpt lat="39.938079491257668" lon="-3.489984590560198">
        <ele>732.662109375</ele>
        <time>2011-04-15T21:52:10Z</time>
      </trkpt>
      <trkpt lat="39.933449160307646" lon="-3.48714916035533">
        <ele>733.623291015625</ele>
        <time>2011-04-15T21:52:29Z</time>
      </trkpt>
      <trkpt lat="39.930228916928172" lon="-3.485141526907682">
        <ele>734.584716796875</ele>
        <time>2011-04-15T21:52:42Z</time>
      </trkpt>
      <trkpt lat="39.92733615450561" lon="-3.483541086316109">
        <ele>733.623291015625</ele>
        <time>2011-04-15T21:52:53Z</time>
      </trkpt>
      <trkpt lat="39.92531368508935" lon="-3.482620837166905">
        <ele>732.662109375</ele>
        <time>2011-04-15T21:53:01Z</time>
      </trkpt>
      <trkpt lat="39.924022117629647" lon="-3.482365775853396">
        <ele>734.10400390625</ele>
        <time>2011-04-15T21:53:06Z</time>
      </trkpt>
      <trkpt lat="39.922485966235399" lon="-3.482430316507816">
        <ele>736.98779296875</ele>
        <time>2011-04-15T21:53:12Z</time>
      </trkpt>
      <trkpt lat="39.920930787920952" lon="-3.48231665790081">
        <ele>737.468505859375</ele>
        <time>2011-04-15T21:53:18Z</time>
      </trkpt>
      <trkpt lat="39.919649446383119" lon="-3.481846516951919">
        <ele>738.429931640625</ele>
        <time>2011-04-15T21:53:23Z</time>
      </trkpt>
      <trkpt lat="39.918451420962811" lon="-3.480989886447787">
        <ele>735.5458984375</ele>
        <time>2011-04-15T21:53:28Z</time>
      </trkpt>
      <trkpt lat="39.915739875286818" lon="-3.477751035243273">
        <ele>730.7392578125</ele>
        <time>2011-04-15T21:53:41Z</time>
      </trkpt>
      <trkpt lat="39.914734130725265" lon="-3.477142592892051">
        <ele>730.7392578125</ele>
        <time>2011-04-15T21:53:45Z</time>
      </trkpt>
      <trkpt lat="39.912275047972798" lon="-3.476241286844015">
        <ele>727.855224609375</ele>
        <time>2011-04-15T21:53:54Z</time>
      </trkpt>
      <trkpt lat="39.909091098234057" lon="-3.475417429581285">
        <ele>728.3359375</ele>
        <time>2011-04-15T21:54:05Z</time>
      </trkpt>
      <trkpt lat="39.904671320691705" lon="-3.474323423579335">
        <ele>724.49072265625</ele>
        <time>2011-04-15T21:54:20Z</time>
      </trkpt>
      <trkpt lat="39.901602957397699" lon="-3.473564023151994">
        <ele>722.08740234375</ele>
        <time>2011-04-15T21:54:31Z</time>
      </trkpt>
      <trkpt lat="39.898997191339731" lon="-3.473005285486579">
        <ele>721.606689453125</ele>
        <time>2011-04-15T21:54:41Z</time>
      </trkpt>
      <trkpt lat="39.896226972341537" lon="-3.472949881106615">
        <ele>727.374755859375</ele>
        <time>2011-04-15T21:54:52Z</time>
      </trkpt>
      <trkpt lat="39.892539689317346" lon="-3.472825661301613">
        <ele>726.89404296875</ele>
        <time>2011-04-15T21:55:06Z</time>
      </trkpt>
      <trkpt lat="39.89068703725934" lon="-3.472504550591111">
        <ele>723.529541015625</ele>
        <time>2011-04-15T21:55:13Z</time>
      </trkpt>
      <trkpt lat="39.888942092657089" lon="-3.471611039713025">
        <ele>718.722900390625</ele>
        <time>2011-04-15T21:55:20Z</time>
      </trkpt>
      <trkpt lat="39.887104192748666" lon="-3.470910228788853">
        <ele>716.80029296875</ele>
        <time>2011-04-15T21:55:27Z</time>
      </trkpt>
      <trkpt lat="39.885686477646232" lon="-3.470819452777505">
        <ele>715.8388671875</ele>
        <time>2011-04-15T21:55:32Z</time>
      </trkpt>
      <trkpt lat="39.88424738869071" lon="-3.471136875450611">
        <ele>713.916015625</ele>
        <time>2011-04-15T21:55:37Z</time>
      </trkpt>
      <trkpt lat="39.882585927844048" lon="-3.471984872594476">
        <ele>712.47412109375</ele>
        <time>2011-04-15T21:55:43Z</time>
      </trkpt>
      <trkpt lat="39.877967163920403" lon="-3.474577646702528">
        <ele>715.8388671875</ele>
        <time>2011-04-15T21:56:00Z</time>
      </trkpt>
      <trkpt lat="39.874588754028082" lon="-3.476375816389918">
        <ele>724.010009765625</ele>
        <time>2011-04-15T21:56:13Z</time>
      </trkpt>
      <trkpt lat="39.87298252992332" lon="-3.476756187155843">
        <ele>726.89404296875</ele>
        <time>2011-04-15T21:56:19Z</time>
      </trkpt>
      <trkpt lat="39.868831560015678" lon="-3.477556491270661">
        <ele>727.374755859375</ele>
        <time>2011-04-15T21:56:34Z</time>
      </trkpt>
      <trkpt lat="39.867155347019434" lon="-3.477605944499373">
        <ele>724.010009765625</ele>
        <time>2011-04-15T21:56:40Z</time>
      </trkpt>
      <trkpt lat="39.864344391971827" lon="-3.477281564846635">
        <ele>721.606689453125</ele>
        <time>2011-04-15T21:56:50Z</time>
      </trkpt>
      <trkpt lat="39.862103071063757" lon="-3.476498192176223">
        <ele>716.319580078125</ele>
        <time>2011-04-15T21:56:58Z</time>
      </trkpt>
      <trkpt lat="39.857850261032581" lon="-3.474995484575629">
        <ele>714.396728515625</ele>
        <time>2011-04-15T21:57:13Z</time>
      </trkpt>
      <trkpt lat="39.856049995869398" lon="-3.474181434139609">
        <ele>715.8388671875</ele>
        <time>2011-04-15T21:57:20Z</time>
      </trkpt>
      <trkpt lat="39.853608347475529" lon="-3.472751062363386">
        <ele>715.358154296875</ele>
        <time>2011-04-15T21:57:30Z</time>
      </trkpt>
      <trkpt lat="39.851991226896644" lon="-3.472261056303978">
        <ele>711.512939453125</ele>
        <time>2011-04-15T21:57:36Z</time>
      </trkpt>
      <trkpt lat="39.850311744958162" lon="-3.472164161503315">
        <ele>709.59033203125</ele>
        <time>2011-04-15T21:57:42Z</time>
      </trkpt>
      <trkpt lat="39.848053576424718" lon="-3.472463563084602">
        <ele>706.2255859375</ele>
        <time>2011-04-15T21:57:50Z</time>
      </trkpt>
      <trkpt lat="39.843263234943151" lon="-3.473569639027119">
        <ele>708.1484375</ele>
        <time>2011-04-15T21:58:07Z</time>
      </trkpt>
      <trkpt lat="39.839852889999747" lon="-3.474424257874489">
        <ele>702.861083984375</ele>
        <time>2011-04-15T21:58:19Z</time>
      </trkpt>
      <trkpt lat="39.838563669472933" lon="-3.47520025447011">
        <ele>700.9384765625</ele>
        <time>2011-04-15T21:58:24Z</time>
      </trkpt>
      <trkpt lat="39.83746899291873" lon="-3.476422922685742">
        <ele>697.57373046875</ele>
        <time>2011-04-15T21:58:29Z</time>
      </trkpt>
      <trkpt lat="39.836636250838637" lon="-3.477993691340089">
        <ele>693.728515625</ele>
        <time>2011-04-15T21:58:34Z</time>
      </trkpt>
      <trkpt lat="39.835343342274427" lon="-3.480814956128597">
        <ele>683.634521484375</ele>
        <time>2011-04-15T21:58:43Z</time>
      </trkpt>
      <trkpt lat="39.834542786702514" lon="-3.482115743681788">
        <ele>677.86669921875</ele>
        <time>2011-04-15T21:58:48Z</time>
      </trkpt>
      <trkpt lat="39.833524720743299" lon="-3.483087038621306">
        <ele>672.57958984375</ele>
        <time>2011-04-15T21:58:53Z</time>
      </trkpt>
      <trkpt lat="39.832349326461554" lon="-3.483675783500075">
        <ele>666.8115234375</ele>
        <time>2011-04-15T21:58:58Z</time>
      </trkpt>
      <trkpt lat="39.830762129276991" lon="-3.483975771814585">
        <ele>660.56298828125</ele>
        <time>2011-04-15T21:59:04Z</time>
      </trkpt>
      <trkpt lat="39.826617864891887" lon="-3.484667781740427">
        <ele>650.46923828125</ele>
        <time>2011-04-15T21:59:19Z</time>
      </trkpt>
      <trkpt lat="39.824494225904346" lon="-3.484782529994845">
        <ele>646.6240234375</ele>
        <time>2011-04-15T21:59:27Z</time>
      </trkpt>
      <trkpt lat="39.823245322331786" lon="-3.484334265813232">
        <ele>643.25927734375</ele>
        <time>2011-04-15T21:59:32Z</time>
      </trkpt>
      <trkpt lat="39.822118878364563" lon="-3.483480485156179">
        <ele>638.93359375</ele>
        <time>2011-04-15T21:59:37Z</time>
      </trkpt>
      <trkpt lat="39.819654263556004" lon="-3.481433121487498">
        <ele>629.320068359375</ele>
        <time>2011-04-15T21:59:48Z</time>
      </trkpt>
      <trkpt lat="39.818481467664242" lon="-3.480823421850801">
        <ele>623.07177734375</ele>
        <time>2011-04-15T21:59:53Z</time>
      </trkpt>
      <trkpt lat="39.816946322098374" lon="-3.480484373867512">
        <ele>616.34228515625</ele>
        <time>2011-04-15T21:59:59Z</time>
      </trkpt>
      <trkpt lat="39.812872549518943" lon="-3.479691194370389">
        <ele>606.729248046875</ele>
        <time>2011-04-15T22:00:14Z</time>
      </trkpt>
      <trkpt lat="39.808016745373607" lon="-3.478794163092971">
        <ele>604.326171875</ele>
        <time>2011-04-15T22:00:32Z</time>
      </trkpt>
      <trkpt lat="39.806194435805082" lon="-3.478816458955407">
        <ele>610.574462890625</ele>
        <time>2011-04-15T22:00:39Z</time>
      </trkpt>
      <trkpt lat="39.802537830546498" lon="-3.479117956012487">
        <ele>621.149169921875</ele>
        <time>2011-04-15T22:00:53Z</time>
      </trkpt>
      <trkpt lat="39.799006199464202" lon="-3.479582984000444">
        <ele>631.242919921875</ele>
        <time>2011-04-15T22:01:06Z</time>
      </trkpt>
      <trkpt lat="39.796893624588847" lon="-3.480312544852495">
        <ele>637.97216796875</ele>
        <time>2011-04-15T22:01:14Z</time>
      </trkpt>
      <trkpt lat="39.793196618556976" lon="-3.4817283321172">
        <ele>648.54638671875</ele>
        <time>2011-04-15T22:01:28Z</time>
      </trkpt>
      <trkpt lat="39.789795661345124" lon="-3.483014535158873">
        <ele>661.5244140625</ele>
        <time>2011-04-15T22:01:41Z</time>
      </trkpt>
      <trkpt lat="39.787681493908167" lon="-3.483569920063019">
        <ele>670.656982421875</ele>
        <time>2011-04-15T22:01:49Z</time>
      </trkpt>
      <trkpt lat="39.78612438775599" lon="-3.483587186783552">
        <ele>678.828125</ele>
        <time>2011-04-15T22:01:55Z</time>
      </trkpt>
      <trkpt lat="39.784383969381452" lon="-3.483190136030316">
        <ele>688.44140625</ele>
        <time>2011-04-15T22:02:02Z</time>
      </trkpt>
      <trkpt lat="39.782741535454988" lon="-3.482375834137201">
        <ele>695.17041015625</ele>
        <time>2011-04-15T22:02:09Z</time>
      </trkpt>
      <trkpt lat="39.781185518950224" lon="-3.481158530339599">
        <ele>698.534912109375</ele>
        <time>2011-04-15T22:02:16Z</time>
      </trkpt>
      <trkpt lat="39.779316522181034" lon="-3.479841398075223">
        <ele>699.015625</ele>
        <time>2011-04-15T22:02:24Z</time>
      </trkpt>
      <trkpt lat="39.777715243399143" lon="-3.4792485460639">
        <ele>698.534912109375</ele>
        <time>2011-04-15T22:02:30Z</time>
      </trkpt>
      <trkpt lat="39.776274980977178" lon="-3.479090547189117">
        <ele>698.054443359375</ele>
        <time>2011-04-15T22:02:35Z</time>
      </trkpt>
      <trkpt lat="39.774216720834374" lon="-3.479331526905298">
        <ele>696.612548828125</ele>
        <time>2011-04-15T22:02:42Z</time>
      </trkpt>
      <trkpt lat="39.769472144544125" lon="-3.480140045285225">
        <ele>695.17041015625</ele>
        <time>2011-04-15T22:02:58Z</time>
      </trkpt>
      <trkpt lat="39.764640564098954" lon="-3.480976643040776">
        <ele>695.651123046875</ele>
        <time>2011-04-15T22:03:14Z</time>
      </trkpt>
      <trkpt lat="39.760372750461102" lon="-3.481721794232726">
        <ele>685.076904296875</ele>
        <time>2011-04-15T22:03:28Z</time>
      </trkpt>
      <trkpt lat="39.758549435064197" lon="-3.482299474999309">
        <ele>682.192626953125</ele>
        <time>2011-04-15T22:03:34Z</time>
      </trkpt>
      <trkpt lat="39.75429804995656" lon="-3.483781144022942">
        <ele>677.38623046875</ele>
        <time>2011-04-15T22:03:49Z</time>
      </trkpt>
      <trkpt lat="39.750240789726377" lon="-3.485193159431219">
        <ele>665.850341796875</ele>
        <time>2011-04-15T22:04:03Z</time>
      </trkpt>
      <trkpt lat="39.745617164298892" lon="-3.486832156777382">
        <ele>664.888916015625</ele>
        <time>2011-04-15T22:04:19Z</time>
      </trkpt>
      <trkpt lat="39.741864837706089" lon="-3.488094471395016">
        <ele>666.8115234375</ele>
        <time>2011-04-15T22:04:32Z</time>
      </trkpt>
      <trkpt lat="39.739394271746278" lon="-3.488935427740216">
        <ele>668.253662109375</ele>
        <time>2011-04-15T22:04:41Z</time>
      </trkpt>
      <trkpt lat="39.736005887389183" lon="-3.489849055185914">
        <ele>659.601806640625</ele>
        <time>2011-04-15T22:04:53Z</time>
      </trkpt>
      <trkpt lat="39.732447182759643" lon="-3.490765281021595">
        <ele>654.795166015625</ele>
        <time>2011-04-15T22:05:06Z</time>
      </trkpt>
      <trkpt lat="39.727388871833682" lon="-3.492048550397158">
        <ele>651.430419921875</ele>
        <time>2011-04-15T22:05:25Z</time>
      </trkpt>
      <trkpt lat="39.722806066274643" lon="-3.493207599967718">
        <ele>651.430419921875</ele>
        <time>2011-04-15T22:05:42Z</time>
      </trkpt>
      <trkpt lat="39.718587370589375" lon="-3.494271179661155">
        <ele>660.56298828125</ele>
        <time>2011-04-15T22:05:58Z</time>
      </trkpt>
      <trkpt lat="39.715780019760132" lon="-3.494990430772305">
        <ele>656.237060546875</ele>
        <time>2011-04-15T22:06:08Z</time>
      </trkpt>
      <trkpt lat="39.711102917790413" lon="-3.496139757335186">
        <ele>653.353271484375</ele>
        <time>2011-04-15T22:06:24Z</time>
      </trkpt>
      <trkpt lat="39.707056637853384" lon="-3.497171318158507">
        <ele>644.220703125</ele>
        <time>2011-04-15T22:06:38Z</time>
      </trkpt>
      <trkpt lat="39.702157331630588" lon="-3.498409325256944">
        <ele>641.336669921875</ele>
        <time>2011-04-15T22:06:55Z</time>
      </trkpt>
      <trkpt lat="39.699989855289459" lon="-3.498772261664271">
        <ele>640.37548828125</ele>
        <time>2011-04-15T22:07:03Z</time>
      </trkpt>
      <trkpt lat="39.698363598436117" lon="-3.498628679662943">
        <ele>639.4140625</ele>
        <time>2011-04-15T22:07:09Z</time>
      </trkpt>
      <trkpt lat="39.696795092895627" lon="-3.498143451288343">
        <ele>639.894775390625</ele>
        <time>2011-04-15T22:07:15Z</time>
      </trkpt>
      <trkpt lat="39.694549832493067" lon="-3.497321689501405">
        <ele>640.37548828125</ele>
        <time>2011-04-15T22:07:24Z</time>
      </trkpt>
      <trkpt lat="39.693058859556913" lon="-3.497234182432294">
        <ele>641.336669921875</ele>
        <time>2011-04-15T22:07:30Z</time>
      </trkpt>
      <trkpt lat="39.691578196361661" lon="-3.497557723894715">
        <ele>641.8173828125</ele>
        <time>2011-04-15T22:07:36Z</time>
      </trkpt>
      <trkpt lat="39.690179591998458" lon="-3.49828745238483">
        <ele>642.77880859375</ele>
        <time>2011-04-15T22:07:42Z</time>
      </trkpt>
      <trkpt lat="39.688913337886333" lon="-3.499393695965409">
        <ele>644.701171875</ele>
        <time>2011-04-15T22:07:48Z</time>
      </trkpt>
      <trkpt lat="39.68617832288146" lon="-3.502163663506508">
        <ele>649.027099609375</ele>
        <time>2011-04-15T22:08:01Z</time>
      </trkpt>
      <trkpt lat="39.683182463049889" lon="-3.505134377628565">
        <ele>655.756591796875</ele>
        <time>2011-04-15T22:08:15Z</time>
      </trkpt>
      <trkpt lat="39.68204059638083" lon="-3.505922527983785">
        <ele>658.640380859375</ele>
        <time>2011-04-15T22:08:20Z</time>
      </trkpt>
      <trkpt lat="39.680297244340181" lon="-3.506638426333666">
        <ele>661.043701171875</ele>
        <time>2011-04-15T22:08:27Z</time>
      </trkpt>
      <trkpt lat="39.676961163058877" lon="-3.507907697930932">
        <ele>666.8115234375</ele>
        <time>2011-04-15T22:08:40Z</time>
      </trkpt>
      <trkpt lat="39.672574158757925" lon="-3.509570751339197">
        <ele>683.634521484375</ele>
        <time>2011-04-15T22:08:57Z</time>
      </trkpt>
      <trkpt lat="39.669385431334376" lon="-3.510768190026283">
        <ele>704.78369140625</ele>
        <time>2011-04-15T22:09:10Z</time>
      </trkpt>
      <trkpt lat="39.666888378560543" lon="-3.511584168300033">
        <ele>707.667724609375</ele>
        <time>2011-04-15T22:09:20Z</time>
      </trkpt>
      <trkpt lat="39.663334283977747" lon="-3.512360583990812">
        <ele>706.706298828125</ele>
        <time>2011-04-15T22:09:33Z</time>
      </trkpt>
      <trkpt lat="39.658180586993694" lon="-3.513517957180738">
        <ele>706.706298828125</ele>
        <time>2011-04-15T22:09:51Z</time>
      </trkpt>
      <trkpt lat="39.654553234577179" lon="-3.514338126406074">
        <ele>708.1484375</ele>
        <time>2011-04-15T22:10:04Z</time>
      </trkpt>
      <trkpt lat="39.651047084480524" lon="-3.515118146315217">
        <ele>709.109619140625</ele>
        <time>2011-04-15T22:10:17Z</time>
      </trkpt>
      <trkpt lat="39.647589465603232" lon="-3.515896070748568">
        <ele>709.59033203125</ele>
        <time>2011-04-15T22:10:30Z</time>
      </trkpt>
      <trkpt lat="39.643691042438149" lon="-3.516807937994599">
        <ele>706.706298828125</ele>
        <time>2011-04-15T22:10:44Z</time>
      </trkpt>
      <trkpt lat="39.638707665726542" lon="-3.51794209331274">
        <ele>703.822509765625</ele>
        <time>2011-04-15T22:11:02Z</time>
      </trkpt>
      <trkpt lat="39.635022059082985" lon="-3.518773494288325">
        <ele>702.38037109375</ele>
        <time>2011-04-15T22:11:16Z</time>
      </trkpt>
      <trkpt lat="39.630904532968998" lon="-3.519710591062903">
        <ele>700.9384765625</ele>
        <time>2011-04-15T22:11:31Z</time>
      </trkpt>
      <trkpt lat="39.625898776575923" lon="-3.520835945382714">
        <ele>701.419189453125</ele>
        <time>2011-04-15T22:11:49Z</time>
      </trkpt>
      <trkpt lat="39.621577067300677" lon="-3.521776478737593">
        <ele>698.534912109375</ele>
        <time>2011-04-15T22:12:04Z</time>
      </trkpt>
      <trkpt lat="39.616917734965682" lon="-3.522839723154903">
        <ele>699.015625</ele>
        <time>2011-04-15T22:12:20Z</time>
      </trkpt>
      <trkpt lat="39.61202303878963" lon="-3.52394538000226">
        <ele>699.496337890625</ele>
        <time>2011-04-15T22:12:37Z</time>
      </trkpt>
      <trkpt lat="39.608685029670596" lon="-3.524697320535779">
        <ele>698.534912109375</ele>
        <time>2011-04-15T22:12:49Z</time>
      </trkpt>
      <trkpt lat="39.604804376140237" lon="-3.525549424812198">
        <ele>699.97705078125</ele>
        <time>2011-04-15T22:13:03Z</time>
      </trkpt>
      <trkpt lat="39.603489842265844" lon="-3.525497959926724">
        <ele>702.861083984375</ele>
        <time>2011-04-15T22:13:08Z</time>
      </trkpt>
      <trkpt lat="39.602039353922009" lon="-3.525052545592189">
        <ele>707.667724609375</ele>
        <time>2011-04-15T22:13:14Z</time>
      </trkpt>
      <trkpt lat="39.599158661440015" lon="-3.52387698367238">
        <ele>709.109619140625</ele>
        <time>2011-04-15T22:13:26Z</time>
      </trkpt>
      <trkpt lat="39.595860717818141" lon="-3.522526323795319">
        <ele>710.551513671875</ele>
        <time>2011-04-15T22:13:39Z</time>
      </trkpt>
      <trkpt lat="39.592728484421968" lon="-3.521376242861152">
        <ele>715.358154296875</ele>
        <time>2011-04-15T22:13:51Z</time>
      </trkpt>
      <trkpt lat="39.589040447026491" lon="-3.520111832767725">
        <ele>711.512939453125</ele>
        <time>2011-04-15T22:14:05Z</time>
      </trkpt>
      <trkpt lat="39.585764463990927" lon="-3.518995363265276">
        <ele>711.0322265625</ele>
        <time>2011-04-15T22:14:17Z</time>
      </trkpt>
      <trkpt lat="39.582265522330999" lon="-3.517805971205235">
        <ele>709.109619140625</ele>
        <time>2011-04-15T22:14:30Z</time>
      </trkpt>
      <trkpt lat="39.578388975933194" lon="-3.516492275521159">
        <ele>701.419189453125</ele>
        <time>2011-04-15T22:14:44Z</time>
      </trkpt>
      <trkpt lat="39.573670299723744" lon="-3.514889152720571">
        <ele>702.861083984375</ele>
        <time>2011-04-15T22:15:01Z</time>
      </trkpt>
      <trkpt lat="39.571584882214665" lon="-3.514274591580033">
        <ele>705.7451171875</ele>
        <time>2011-04-15T22:15:09Z</time>
      </trkpt>
      <trkpt lat="39.570068595930934" lon="-3.514164118096232">
        <ele>705.7451171875</ele>
        <time>2011-04-15T22:15:15Z</time>
      </trkpt>
      <trkpt lat="39.568305378779769" lon="-3.514403672888875">
        <ele>705.7451171875</ele>
        <time>2011-04-15T22:15:22Z</time>
      </trkpt>
      <trkpt lat="39.564138147979975" lon="-3.515191320329905">
        <ele>705.264404296875</ele>
        <time>2011-04-15T22:15:38Z</time>
      </trkpt>
      <trkpt lat="39.558970872312784" lon="-3.516151551157236">
        <ele>705.7451171875</ele>
        <time>2011-04-15T22:15:57Z</time>
      </trkpt>
      <trkpt lat="39.554997850209475" lon="-3.516848422586918">
        <ele>705.7451171875</ele>
        <time>2011-04-15T22:16:11Z</time>
      </trkpt>
      <trkpt lat="39.550300128757954" lon="-3.517732629552484">
        <ele>701.89990234375</ele>
        <time>2011-04-15T22:16:27Z</time>
      </trkpt>
      <trkpt lat="39.544961862266064" lon="-3.518671989440918">
        <ele>704.78369140625</ele>
        <time>2011-04-15T22:16:45Z</time>
      </trkpt>
      <trkpt lat="39.540789518505335" lon="-3.519449243322015">
        <ele>696.1318359375</ele>
        <time>2011-04-15T22:16:59Z</time>
      </trkpt>
      <trkpt lat="39.537242129445076" lon="-3.520103534683585">
        <ele>702.38037109375</ele>
        <time>2011-04-15T22:17:11Z</time>
      </trkpt>
      <trkpt lat="39.533586446195841" lon="-3.520778780803084">
        <ele>713.435546875</ele>
        <time>2011-04-15T22:17:24Z</time>
      </trkpt>
      <trkpt lat="39.529864881187677" lon="-3.521463917568326">
        <ele>715.8388671875</ele>
        <time>2011-04-15T22:17:38Z</time>
      </trkpt>
      <trkpt lat="39.526484040543437" lon="-3.52212768048048">
        <ele>709.109619140625</ele>
        <time>2011-04-15T22:17:51Z</time>
      </trkpt>
      <trkpt lat="39.522775467485189" lon="-3.522926894947887">
        <ele>703.822509765625</ele>
        <time>2011-04-15T22:18:05Z</time>
      </trkpt>
      <trkpt lat="39.519198071211576" lon="-3.523658467456698">
        <ele>702.38037109375</ele>
        <time>2011-04-15T22:18:18Z</time>
      </trkpt>
      <trkpt lat="39.514520298689604" lon="-3.524609729647636">
        <ele>701.419189453125</ele>
        <time>2011-04-15T22:18:35Z</time>
      </trkpt>
      <trkpt lat="39.511522259563208" lon="-3.525215573608875">
        <ele>701.89990234375</ele>
        <time>2011-04-15T22:18:46Z</time>
      </trkpt>
      <trkpt lat="39.50809758156538" lon="-3.525874894112349">
        <ele>701.419189453125</ele>
        <time>2011-04-15T22:18:59Z</time>
      </trkpt>
      <trkpt lat="39.503667242825031" lon="-3.526755748316646">
        <ele>701.419189453125</ele>
        <time>2011-04-15T22:19:16Z</time>
      </trkpt>
      <trkpt lat="39.500223286449909" lon="-3.527427976951003">
        <ele>700.9384765625</ele>
        <time>2011-04-15T22:19:29Z</time>
      </trkpt>
      <trkpt lat="39.497550968080759" lon="-3.527732072398067">
        <ele>701.89990234375</ele>
        <time>2011-04-15T22:19:39Z</time>
      </trkpt>
      <trkpt lat="39.495747936889529" lon="-3.527435017749667">
        <ele>702.38037109375</ele>
        <time>2011-04-15T22:19:46Z</time>
      </trkpt>
      <trkpt lat="39.492238853126764" lon="-3.526551397517324">
        <ele>702.38037109375</ele>
        <time>2011-04-15T22:20:00Z</time>
      </trkpt>
      <trkpt lat="39.489399818703532" lon="-3.526117382571101">
        <ele>702.38037109375</ele>
        <time>2011-04-15T22:20:11Z</time>
      </trkpt>
      <trkpt lat="39.48597589507699" lon="-3.525630561634898">
        <ele>702.38037109375</ele>
        <time>2011-04-15T22:20:24Z</time>
      </trkpt>
      <trkpt lat="39.483209699392319" lon="-3.525281371548772">
        <ele>701.419189453125</ele>
        <time>2011-04-15T22:20:34Z</time>
      </trkpt>
      <trkpt lat="39.481578078120947" lon="-3.524863282218576">
        <ele>701.419189453125</ele>
        <time>2011-04-15T22:20:40Z</time>
      </trkpt>
      <trkpt lat="39.480035053566098" lon="-3.524080831557512">
        <ele>700.9384765625</ele>
        <time>2011-04-15T22:20:46Z</time>
      </trkpt>
      <trkpt lat="39.476817743852735" lon="-3.522255588322878">
        <ele>700.4580078125</ele>
        <time>2011-04-15T22:20:59Z</time>
      </trkpt>
      <trkpt lat="39.473549639806151" lon="-3.520415844395757">
        <ele>695.17041015625</ele>
        <time>2011-04-15T22:21:12Z</time>
      </trkpt>
      <trkpt lat="39.469758672639728" lon="-3.518269238993526">
        <ele>692.28662109375</ele>
        <time>2011-04-15T22:21:27Z</time>
      </trkpt>
      <trkpt lat="39.467708962038159" lon="-3.517342787235975">
        <ele>690.844482421875</ele>
        <time>2011-04-15T22:21:35Z</time>
      </trkpt>
      <trkpt lat="39.466357380151749" lon="-3.517144219949842">
        <ele>689.402587890625</ele>
        <time>2011-04-15T22:21:40Z</time>
      </trkpt>
      <trkpt lat="39.465001774951816" lon="-3.517280425876379">
        <ele>688.44140625</ele>
        <time>2011-04-15T22:21:45Z</time>
      </trkpt>
      <trkpt lat="39.463438047096133" lon="-3.517871098592877">
        <ele>686.999267578125</ele>
        <time>2011-04-15T22:21:51Z</time>
      </trkpt>
      <trkpt lat="39.461728390306234" lon="-3.518998045474291">
        <ele>686.999267578125</ele>
        <time>2011-04-15T22:21:58Z</time>
      </trkpt>
      <trkpt lat="39.459018688648939" lon="-3.521032417193055">
        <ele>687.960693359375</ele>
        <time>2011-04-15T22:22:09Z</time>
      </trkpt>
      <trkpt lat="39.455017084255815" lon="-3.524082340300083">
        <ele>689.402587890625</ele>
        <time>2011-04-15T22:22:25Z</time>
      </trkpt>
      <trkpt lat="39.452432943508029" lon="-3.525984780862927">
        <ele>694.209228515625</ele>
        <time>2011-04-15T22:22:36Z</time>
      </trkpt>
      <trkpt lat="39.451047163456678" lon="-3.52663773111999">
        <ele>696.612548828125</ele>
        <time>2011-04-15T22:22:42Z</time>
      </trkpt>
      <trkpt lat="39.449578486382961" lon="-3.526923218742013">
        <ele>696.1318359375</ele>
        <time>2011-04-15T22:22:48Z</time>
      </trkpt>
      <trkpt lat="39.448000676929951" lon="-3.526790784671903">
        <ele>694.209228515625</ele>
        <time>2011-04-15T22:22:54Z</time>
      </trkpt>
      <trkpt lat="39.446637025102973" lon="-3.526300191879273">
        <ele>692.28662109375</ele>
        <time>2011-04-15T22:22:59Z</time>
      </trkpt>
      <trkpt lat="39.444471728056669" lon="-3.525071991607547">
        <ele>693.728515625</ele>
        <time>2011-04-15T22:23:07Z</time>
      </trkpt>
      <trkpt lat="39.440764160826802" lon="-3.522941898554564">
        <ele>704.78369140625</ele>
        <time>2011-04-15T22:23:21Z</time>
      </trkpt>
      <trkpt lat="39.436927093192935" lon="-3.52074047550559">
        <ele>706.2255859375</ele>
        <time>2011-04-15T22:23:36Z</time>
      </trkpt>
      <trkpt lat="39.434489635750651" lon="-3.519528284668922">
        <ele>699.015625</ele>
        <time>2011-04-15T22:23:45Z</time>
      </trkpt>
      <trkpt lat="39.431808264926076" lon="-3.518377197906375">
        <ele>697.57373046875</ele>
        <time>2011-04-15T22:23:55Z</time>
      </trkpt>
      <trkpt lat="39.427549168467522" lon="-3.516654632985592">
        <ele>695.651123046875</ele>
        <time>2011-04-15T22:24:11Z</time>
      </trkpt>
      <trkpt lat="39.425525274127722" lon="-3.515812670812011">
        <ele>698.054443359375</ele>
        <time>2011-04-15T22:24:19Z</time>
      </trkpt>
      <trkpt lat="39.422649191692472" lon="-3.514624536037445">
        <ele>699.496337890625</ele>
        <time>2011-04-15T22:24:31Z</time>
      </trkpt>
      <trkpt lat="39.420009143650532" lon="-3.513563051819801">
        <ele>698.054443359375</ele>
        <time>2011-04-15T22:24:42Z</time>
      </trkpt>
      <trkpt lat="39.417426846921444" lon="-3.512498466297984">
        <ele>699.015625</ele>
        <time>2011-04-15T22:24:53Z</time>
      </trkpt>
      <trkpt lat="39.414603151381016" lon="-3.511340925469995">
        <ele>699.015625</ele>
        <time>2011-04-15T22:25:05Z</time>
      </trkpt>
      <trkpt lat="39.411424649879336" lon="-3.510047178715468">
        <ele>699.015625</ele>
        <time>2011-04-15T22:25:19Z</time>
      </trkpt>
      <trkpt lat="39.408073648810387" lon="-3.508687969297171">
        <ele>699.496337890625</ele>
        <time>2011-04-15T22:25:33Z</time>
      </trkpt>
      <trkpt lat="39.405247941613197" lon="-3.507588766515255">
        <ele>698.534912109375</ele>
        <time>2011-04-15T22:25:45Z</time>
      </trkpt>
      <trkpt lat="39.402665728703141" lon="-3.506543627008796">
        <ele>697.093017578125</ele>
        <time>2011-04-15T22:25:57Z</time>
      </trkpt>
      <trkpt lat="39.399987543001771" lon="-3.505458841100335">
        <ele>697.57373046875</ele>
        <time>2011-04-15T22:26:09Z</time>
      </trkpt>
      <trkpt lat="39.396584993228316" lon="-3.504059566184878">
        <ele>701.419189453125</ele>
        <time>2011-04-15T22:26:23Z</time>
      </trkpt>
      <trkpt lat="39.392932746559381" lon="-3.502583764493465">
        <ele>700.4580078125</ele>
        <time>2011-04-15T22:26:38Z</time>
      </trkpt>
      <trkpt lat="39.389972258359194" lon="-3.501387918367982">
        <ele>699.015625</ele>
        <time>2011-04-15T22:26:50Z</time>
      </trkpt>
      <trkpt lat="39.387318547815084" lon="-3.500302629545331">
        <ele>699.97705078125</ele>
        <time>2011-04-15T22:27:01Z</time>
      </trkpt>
      <trkpt lat="39.384006187319756" lon="-3.498951885849237">
        <ele>700.4580078125</ele>
        <time>2011-04-15T22:27:15Z</time>
      </trkpt>
      <trkpt lat="39.381568729877472" lon="-3.497930634766817">
        <ele>701.419189453125</ele>
        <time>2011-04-15T22:27:25Z</time>
      </trkpt>
      <trkpt lat="39.378475723788142" lon="-3.49670872092247">
        <ele>700.9384765625</ele>
        <time>2011-04-15T22:27:37Z</time>
      </trkpt>
      <trkpt lat="39.375113658607006" lon="-3.495371723547578">
        <ele>704.78369140625</ele>
        <time>2011-04-15T22:27:50Z</time>
      </trkpt>
      <trkpt lat="39.37243664637208" lon="-3.49428366869688">
        <ele>706.706298828125</ele>
        <time>2011-04-15T22:28:01Z</time>
      </trkpt>
      <trkpt lat="39.368885988369584" lon="-3.492835443466902">
        <ele>711.512939453125</ele>
        <time>2011-04-15T22:28:16Z</time>
      </trkpt>
      <trkpt lat="39.366234038025141" lon="-3.491799021139741">
        <ele>713.916015625</ele>
        <time>2011-04-15T22:28:27Z</time>
      </trkpt>
      <trkpt lat="39.364227997139096" lon="-3.491142047569156">
        <ele>712.954833984375</ele>
        <time>2011-04-15T22:28:35Z</time>
      </trkpt>
      <trkpt lat="39.361342778429389" lon="-3.490419276058674">
        <ele>704.78369140625</ele>
        <time>2011-04-15T22:28:46Z</time>
      </trkpt>
      <trkpt lat="39.358733240514994" lon="-3.489780323579907">
        <ele>699.97705078125</ele>
        <time>2011-04-15T22:28:57Z</time>
      </trkpt>
      <trkpt lat="39.357783319428563" lon="-3.489569686353207">
        <ele>699.97705078125</ele>
        <time>2011-04-15T22:29:02Z</time>
      </trkpt>
      <trkpt lat="39.357213350012898" lon="-3.489444544538856">
        <ele>699.496337890625</ele>
        <time>2011-04-15T22:29:07Z</time>
      </trkpt>
      <trkpt lat="39.357048477977514" lon="-3.489408921450377">
        <ele>698.054443359375</ele>
        <time>2011-04-15T22:29:12Z</time>
      </trkpt>
      <trkpt lat="39.356603482738137" lon="-3.489264249801636">
        <ele>694.689697265625</ele>
        <time>2011-04-15T22:30:39Z</time>
      </trkpt>
      <trkpt lat="39.355943994596601" lon="-3.489095522090793">
        <ele>695.17041015625</ele>
        <time>2011-04-15T22:30:44Z</time>
      </trkpt>
      <trkpt lat="39.354864154011011" lon="-3.488828642293811">
        <ele>695.651123046875</ele>
        <time>2011-04-15T22:30:50Z</time>
      </trkpt>
      <trkpt lat="39.353100182488561" lon="-3.488460257649422">
        <ele>696.1318359375</ele>
        <time>2011-04-15T22:30:58Z</time>
      </trkpt>
      <trkpt lat="39.350999090820551" lon="-3.488039737567306">
        <ele>698.054443359375</ele>
        <time>2011-04-15T22:31:06Z</time>
      </trkpt>
      <trkpt lat="39.347978588193655" lon="-3.487291233614087">
        <ele>696.612548828125</ele>
        <time>2011-04-15T22:31:17Z</time>
      </trkpt>
      <trkpt lat="39.344640159979463" lon="-3.486430579796433">
        <ele>696.1318359375</ele>
        <time>2011-04-15T22:31:29Z</time>
      </trkpt>
      <trkpt lat="39.340766547247767" lon="-3.485541930422187">
        <ele>694.689697265625</ele>
        <time>2011-04-15T22:31:43Z</time>
      </trkpt>
      <trkpt lat="39.338009990751743" lon="-3.485103473067284">
        <ele>693.728515625</ele>
        <time>2011-04-15T22:31:53Z</time>
      </trkpt>
      <trkpt lat="39.336408879607916" lon="-3.48451447673142">
        <ele>694.209228515625</ele>
        <time>2011-04-15T22:31:59Z</time>
      </trkpt>
      <trkpt lat="39.335198868066072" lon="-3.483658768236637">
        <ele>692.767333984375</ele>
        <time>2011-04-15T22:32:04Z</time>
      </trkpt>
      <trkpt lat="39.334119698032737" lon="-3.482498545199633">
        <ele>690.844482421875</ele>
        <time>2011-04-15T22:32:09Z</time>
      </trkpt>
      <trkpt lat="39.333038683980703" lon="-3.480784362182021">
        <ele>689.88330078125</ele>
        <time>2011-04-15T22:32:15Z</time>
      </trkpt>
      <trkpt lat="39.331977870315313" lon="-3.479297244921327">
        <ele>688.44140625</ele>
        <time>2011-04-15T22:32:21Z</time>
      </trkpt>
      <trkpt lat="39.331072457134724" lon="-3.478595092892647">
        <ele>690.844482421875</ele>
        <time>2011-04-15T22:32:25Z</time>
      </trkpt>
      <trkpt lat="39.330039639025927" lon="-3.478201646357775">
        <ele>691.3251953125</ele>
        <time>2011-04-15T22:32:29Z</time>
      </trkpt>
      <trkpt lat="39.328931635245681" lon="-3.478147331625223">
        <ele>687.960693359375</ele>
        <time>2011-04-15T22:32:33Z</time>
      </trkpt>
      <trkpt lat="39.327263468876481" lon="-3.478433322161436">
        <ele>684.115478515625</ele>
        <time>2011-04-15T22:32:39Z</time>
      </trkpt>
      <trkpt lat="39.325918760150671" lon="-3.478389149531722">
        <ele>682.67333984375</ele>
        <time>2011-04-15T22:32:44Z</time>
      </trkpt>
      <trkpt lat="39.324619229882956" lon="-3.477905178442597">
        <ele>681.7119140625</ele>
        <time>2011-04-15T22:32:49Z</time>
      </trkpt>
      <trkpt lat="39.323420869186521" lon="-3.47699549049139">
        <ele>680.27001953125</ele>
        <time>2011-04-15T22:32:54Z</time>
      </trkpt>
      <trkpt lat="39.321634685620666" lon="-3.475260268896818">
        <ele>677.86669921875</ele>
        <time>2011-04-15T22:33:02Z</time>
      </trkpt>
      <trkpt lat="39.319965345785022" lon="-3.473984878510237">
        <ele>676.4248046875</ele>
        <time>2011-04-15T22:33:09Z</time>
      </trkpt>
      <trkpt lat="39.318966222926974" lon="-3.472902439534664">
        <ele>675.46337890625</ele>
        <time>2011-04-15T22:33:14Z</time>
      </trkpt>
      <trkpt lat="39.318057373166084" lon="-3.471388332545757">
        <ele>673.541015625</ele>
        <time>2011-04-15T22:33:20Z</time>
      </trkpt>
      <trkpt lat="39.317097729071975" lon="-3.470026776194572">
        <ele>672.57958984375</ele>
        <time>2011-04-15T22:33:26Z</time>
      </trkpt>
      <trkpt lat="39.316016128286719" lon="-3.469185652211309">
        <ele>671.1376953125</ele>
        <time>2011-04-15T22:33:31Z</time>
      </trkpt>
      <trkpt lat="39.314737552776933" lon="-3.468787763267756">
        <ele>669.69580078125</ele>
        <time>2011-04-15T22:33:36Z</time>
      </trkpt>
      <trkpt lat="39.313406338915229" lon="-3.468899074941874">
        <ele>669.215087890625</ele>
        <time>2011-04-15T22:33:41Z</time>
      </trkpt>
      <trkpt lat="39.312161793932319" lon="-3.469444653019309">
        <ele>669.69580078125</ele>
        <time>2011-04-15T22:33:46Z</time>
      </trkpt>
      <trkpt lat="39.310657577589154" lon="-3.469947567209601">
        <ele>670.656982421875</ele>
        <time>2011-04-15T22:33:52Z</time>
      </trkpt>
      <trkpt lat="39.309596680104733" lon="-3.469877243041992">
        <ele>671.6181640625</ele>
        <time>2011-04-15T22:33:56Z</time>
      </trkpt>
      <trkpt lat="39.308581883087754" lon="-3.469455717131496">
        <ele>671.6181640625</ele>
        <time>2011-04-15T22:34:00Z</time>
      </trkpt>
      <trkpt lat="39.306370737031102" lon="-3.468002043664455">
        <ele>669.69580078125</ele>
        <time>2011-04-15T22:34:09Z</time>
      </trkpt>
      <trkpt lat="39.30186253041029" lon="-3.464986067265272">
        <ele>666.8115234375</ele>
        <time>2011-04-15T22:34:27Z</time>
      </trkpt>
      <trkpt lat="39.29842796176672" lon="-3.462707446888089">
        <ele>664.408203125</ele>
        <time>2011-04-15T22:34:41Z</time>
      </trkpt>
      <trkpt lat="39.294502632692456" lon="-3.460098998621106">
        <ele>659.601806640625</ele>
        <time>2011-04-15T22:34:57Z</time>
      </trkpt>
      <trkpt lat="39.290384855121374" lon="-3.457369096577168">
        <ele>656.7177734375</ele>
        <time>2011-04-15T22:35:13Z</time>
      </trkpt>
      <trkpt lat="39.287512041628361" lon="-3.455452993512154">
        <ele>658.159912109375</ele>
        <time>2011-04-15T22:35:24Z</time>
      </trkpt>
      <trkpt lat="39.285823591053486" lon="-3.454354964196682">
        <ele>652.391845703125</ele>
        <time>2011-04-15T22:35:31Z</time>
      </trkpt>
      <trkpt lat="39.283409770578146" lon="-3.45280297100544">
        <ele>647.585205078125</ele>
        <time>2011-04-15T22:35:42Z</time>
      </trkpt>
      <trkpt lat="39.280304694548249" lon="-3.450806988403201">
        <ele>643.739990234375</ele>
        <time>2011-04-15T22:35:57Z</time>
      </trkpt>
      <trkpt lat="39.277198361232877" lon="-3.448795583099127">
        <ele>644.220703125</ele>
        <time>2011-04-15T22:36:12Z</time>
      </trkpt>
      <trkpt lat="39.274577088654041" lon="-3.44710947945714">
        <ele>647.1044921875</ele>
        <time>2011-04-15T22:36:24Z</time>
      </trkpt>
      <trkpt lat="39.272111970931292" lon="-3.445563353598118">
        <ele>645.181884765625</ele>
        <time>2011-04-15T22:36:34Z</time>
      </trkpt>
      <trkpt lat="39.268249087035656" lon="-3.443089434877038">
        <ele>642.298095703125</ele>
        <time>2011-04-15T22:36:49Z</time>
      </trkpt>
      <trkpt lat="39.265266973525286" lon="-3.441160675138235">
        <ele>640.85595703125</ele>
        <time>2011-04-15T22:37:01Z</time>
      </trkpt>
      <trkpt lat="39.262789534404874" lon="-3.439548835158348">
        <ele>638.93359375</ele>
        <time>2011-04-15T22:37:12Z</time>
      </trkpt>
      <trkpt lat="39.259883025661111" lon="-3.437679084017873">
        <ele>634.607421875</ele>
        <time>2011-04-15T22:37:26Z</time>
      </trkpt>
      <trkpt lat="39.257206181064248" lon="-3.43597412109375">
        <ele>630.281494140625</ele>
        <time>2011-04-15T22:37:39Z</time>
      </trkpt>
      <trkpt lat="39.253574050962925" lon="-3.433667924255133">
        <ele>627.878173828125</ele>
        <time>2011-04-15T22:37:57Z</time>
      </trkpt>
      <trkpt lat="39.251525849103928" lon="-3.432361939921975">
        <ele>627.397705078125</ele>
        <time>2011-04-15T22:38:07Z</time>
      </trkpt>
      <trkpt lat="39.249170618131757" lon="-3.430711794644594">
        <ele>628.839599609375</ele>
        <time>2011-04-15T22:38:19Z</time>
      </trkpt>
      <trkpt lat="39.24806647002697" lon="-3.42954134568572">
        <ele>629.320068359375</ele>
        <time>2011-04-15T22:38:25Z</time>
      </trkpt>
      <trkpt lat="39.247059049084783" lon="-3.4280158393085">
        <ele>629.320068359375</ele>
        <time>2011-04-15T22:38:31Z</time>
      </trkpt>
      <trkpt lat="39.246248183771968" lon="-3.426210964098573">
        <ele>630.281494140625</ele>
        <time>2011-04-15T22:38:37Z</time>
      </trkpt>
      <trkpt lat="39.245732864364982" lon="-3.42420844361186">
        <ele>630.76220703125</ele>
        <time>2011-04-15T22:38:43Z</time>
      </trkpt>
      <trkpt lat="39.245292730629444" lon="-3.421151144430041">
        <ele>631.242919921875</ele>
        <time>2011-04-15T22:38:52Z</time>
      </trkpt>
      <trkpt lat="39.244739776477218" lon="-3.418468097224832">
        <ele>629.80078125</ele>
        <time>2011-04-15T22:39:00Z</time>
      </trkpt>
      <trkpt lat="39.243958331644535" lon="-3.416541516780853">
        <ele>630.281494140625</ele>
        <time>2011-04-15T22:39:06Z</time>
      </trkpt>
      <trkpt lat="39.243056438863277" lon="-3.415107959881425">
        <ele>631.723388671875</ele>
        <time>2011-04-15T22:39:11Z</time>
      </trkpt>
      <trkpt lat="39.241771074011922" lon="-3.413725951686502">
        <ele>633.165283203125</ele>
        <time>2011-04-15T22:39:17Z</time>
      </trkpt>
      <trkpt lat="39.240271635353565" lon="-3.412720123305917">
        <ele>634.126708984375</ele>
        <time>2011-04-15T22:39:23Z</time>
      </trkpt>
      <trkpt lat="39.238706734031439" lon="-3.41215836815536">
        <ele>637.0107421875</ele>
        <time>2011-04-15T22:39:29Z</time>
      </trkpt>
      <trkpt lat="39.236516794189811" lon="-3.411814877763391">
        <ele>639.894775390625</ele>
        <time>2011-04-15T22:39:37Z</time>
      </trkpt>
      <trkpt lat="39.232996478676796" lon="-3.411401398479939">
        <ele>641.8173828125</ele>
        <time>2011-04-15T22:39:49Z</time>
      </trkpt>
      <trkpt lat="39.229089925065637" lon="-3.411027481779456">
        <ele>645.181884765625</ele>
        <time>2011-04-15T22:40:02Z</time>
      </trkpt>
      <trkpt lat="39.227286726236343" lon="-3.411297462880611">
        <ele>645.66259765625</ele>
        <time>2011-04-15T22:40:08Z</time>
      </trkpt>
      <trkpt lat="39.225533818826079" lon="-3.412019396200776">
        <ele>646.6240234375</ele>
        <time>2011-04-15T22:40:14Z</time>
      </trkpt>
      <trkpt lat="39.222357161343098" lon="-3.413531742990017">
        <ele>647.585205078125</ele>
        <time>2011-04-15T22:40:25Z</time>
      </trkpt>
      <trkpt lat="39.220545748248696" lon="-3.413852266967297">
        <ele>649.027099609375</ele>
        <time>2011-04-15T22:40:31Z</time>
      </trkpt>
      <trkpt lat="39.218746153637767" lon="-3.41370927169919">
        <ele>649.988525390625</ele>
        <time>2011-04-15T22:40:37Z</time>
      </trkpt>
      <trkpt lat="39.216975141316652" lon="-3.413131674751639">
        <ele>649.988525390625</ele>
        <time>2011-04-15T22:40:43Z</time>
      </trkpt>
      <trkpt lat="39.213262628763914" lon="-3.411514470353723">
        <ele>651.9111328125</ele>
        <time>2011-04-15T22:40:56Z</time>
      </trkpt>
      <trkpt lat="39.20915205962956" lon="-3.409700291231275">
        <ele>653.353271484375</ele>
        <time>2011-04-15T22:41:11Z</time>
      </trkpt>
      <trkpt lat="39.204725157469511" lon="-3.407755186781287">
        <ele>655.27587890625</ele>
        <time>2011-04-15T22:41:27Z</time>
      </trkpt>
      <trkpt lat="39.201389579102397" lon="-3.406361024826765">
        <ele>652.391845703125</ele>
        <time>2011-04-15T22:41:39Z</time>
      </trkpt>
      <trkpt lat="39.196346439421177" lon="-3.404222130775452">
        <ele>657.67919921875</ele>
        <time>2011-04-15T22:41:57Z</time>
      </trkpt>
      <trkpt lat="39.192670723423362" lon="-3.402824867516756">
        <ele>656.237060546875</ele>
        <time>2011-04-15T22:42:10Z</time>
      </trkpt>
      <trkpt lat="39.188824435696006" lon="-3.401316544041038">
        <ele>656.7177734375</ele>
        <time>2011-04-15T22:42:24Z</time>
      </trkpt>
      <trkpt lat="39.184568356722593" lon="-3.399718953296542">
        <ele>655.756591796875</ele>
        <time>2011-04-15T22:42:39Z</time>
      </trkpt>
      <trkpt lat="39.179238472133875" lon="-3.397724898532033">
        <ele>657.198486328125</ele>
        <time>2011-04-15T22:42:58Z</time>
      </trkpt>
      <trkpt lat="39.175086747854948" lon="-3.396159159019589">
        <ele>656.237060546875</ele>
        <time>2011-04-15T22:43:13Z</time>
      </trkpt>
      <trkpt lat="39.171898355707526" lon="-3.394944872707129">
        <ele>654.314697265625</ele>
        <time>2011-04-15T22:43:24Z</time>
      </trkpt>
      <trkpt lat="39.1683095600456" lon="-3.393588261678815">
        <ele>655.756591796875</ele>
        <time>2011-04-15T22:43:37Z</time>
      </trkpt>
      <trkpt lat="39.164360174909234" lon="-3.392143892124295">
        <ele>656.237060546875</ele>
        <time>2011-04-15T22:43:51Z</time>
      </trkpt>
      <trkpt lat="39.160275086760521" lon="-3.390622660517693">
        <ele>656.237060546875</ele>
        <time>2011-04-15T22:44:05Z</time>
      </trkpt>
      <trkpt lat="39.156183963641524" lon="-3.389067063108087">
        <ele>654.795166015625</ele>
        <time>2011-04-15T22:44:19Z</time>
      </trkpt>
      <trkpt lat="39.153371080756187" lon="-3.387993089854717">
        <ele>656.237060546875</ele>
        <time>2011-04-15T22:44:29Z</time>
      </trkpt>
      <trkpt lat="39.149409374222159" lon="-3.386537153273821">
        <ele>656.237060546875</ele>
        <time>2011-04-15T22:44:43Z</time>
      </trkpt>
      <trkpt lat="39.144936539232731" lon="-3.384860437363386">
        <ele>655.756591796875</ele>
        <time>2011-04-15T22:44:58Z</time>
      </trkpt>
      <trkpt lat="39.142126590013504" lon="-3.38377196341753">
        <ele>656.237060546875</ele>
        <time>2011-04-15T22:45:08Z</time>
      </trkpt>
      <trkpt lat="39.137894650921226" lon="-3.382178144529462">
        <ele>653.833984375</ele>
        <time>2011-04-15T22:45:23Z</time>
      </trkpt>
      <trkpt lat="39.133724570274353" lon="-3.380651548504829">
        <ele>657.67919921875</ele>
        <time>2011-04-15T22:45:38Z</time>
      </trkpt>
      <trkpt lat="39.129367740824819" lon="-3.379032416269183">
        <ele>656.7177734375</ele>
        <time>2011-04-15T22:45:53Z</time>
      </trkpt>
      <trkpt lat="39.126694835722446" lon="-3.378219539299607">
        <ele>655.756591796875</ele>
        <time>2011-04-15T22:46:02Z</time>
      </trkpt>
      <trkpt lat="39.124299623072147" lon="-3.377919299528003">
        <ele>657.67919921875</ele>
        <time>2011-04-15T22:46:10Z</time>
      </trkpt>
      <trkpt lat="39.120325427502394" lon="-3.377757277339697">
        <ele>659.12109375</ele>
        <time>2011-04-15T22:46:23Z</time>
      </trkpt>
      <trkpt lat="39.117452865466475" lon="-3.377653425559402">
        <ele>659.601806640625</ele>
        <time>2011-04-15T22:46:33Z</time>
      </trkpt>
      <trkpt lat="39.115707250311971" lon="-3.377574132755399">
        <ele>659.12109375</ele>
        <time>2011-04-15T22:46:40Z</time>
      </trkpt>
      <trkpt lat="39.113251520320773" lon="-3.377482686191797">
        <ele>659.601806640625</ele>
        <time>2011-04-15T22:46:49Z</time>
      </trkpt>
      <trkpt lat="39.109427779912949" lon="-3.377343043684959">
        <ele>660.082275390625</ele>
        <time>2011-04-15T22:47:02Z</time>
      </trkpt>
      <trkpt lat="39.104425041005015" lon="-3.377146068960428">
        <ele>658.159912109375</ele>
        <time>2011-04-15T22:47:19Z</time>
      </trkpt>
      <trkpt lat="39.100287733599544" lon="-3.376982789486647">
        <ele>658.159912109375</ele>
        <time>2011-04-15T22:47:33Z</time>
      </trkpt>
      <trkpt lat="39.094865061342716" lon="-3.376773996278644">
        <ele>657.67919921875</ele>
        <time>2011-04-15T22:47:51Z</time>
      </trkpt>
      <trkpt lat="39.090023674070835" lon="-3.376545337960124">
        <ele>657.198486328125</ele>
        <time>2011-04-15T22:48:07Z</time>
      </trkpt>
      <trkpt lat="39.085446316748857" lon="-3.376398822292686">
        <ele>657.67919921875</ele>
        <time>2011-04-15T22:48:22Z</time>
      </trkpt>
      <trkpt lat="39.080658154562116" lon="-3.376207547262311">
        <ele>658.159912109375</ele>
        <time>2011-04-15T22:48:38Z</time>
      </trkpt>
      <trkpt lat="39.07631884329021" lon="-3.376028593629599">
        <ele>658.640380859375</ele>
        <time>2011-04-15T22:48:53Z</time>
      </trkpt>
      <trkpt lat="39.071736289188266" lon="-3.375840252265334">
        <ele>658.159912109375</ele>
        <time>2011-04-15T22:49:09Z</time>
      </trkpt>
      <trkpt lat="39.067056672647595" lon="-3.375656688585877">
        <ele>659.12109375</ele>
        <time>2011-04-15T22:49:25Z</time>
      </trkpt>
      <trkpt lat="39.061968270689249" lon="-3.375455187633634">
        <ele>660.082275390625</ele>
        <time>2011-04-15T22:49:42Z</time>
      </trkpt>
      <trkpt lat="39.058106224983931" lon="-3.375284196808934">
        <ele>660.56298828125</ele>
        <time>2011-04-15T22:49:55Z</time>
      </trkpt>
      <trkpt lat="39.054942224174738" lon="-3.375139441341162">
        <ele>660.56298828125</ele>
        <time>2011-04-15T22:50:06Z</time>
      </trkpt>
      <trkpt lat="39.051710162311792" lon="-3.375005917623639">
        <ele>662.485595703125</ele>
        <time>2011-04-15T22:50:18Z</time>
      </trkpt>
      <trkpt lat="39.048325382173061" lon="-3.374877590686083">
        <ele>663.447021484375</ele>
        <time>2011-04-15T22:50:30Z</time>
      </trkpt>
      <trkpt lat="39.044330483302474" lon="-3.374720178544521">
        <ele>665.850341796875</ele>
        <time>2011-04-15T22:50:44Z</time>
      </trkpt>
      <trkpt lat="39.041929822415113" lon="-3.37461699731648">
        <ele>665.850341796875</ele>
        <time>2011-04-15T22:50:53Z</time>
      </trkpt>
      <trkpt lat="39.038856932893395" lon="-3.374515241011977">
        <ele>665.36962890625</ele>
        <time>2011-04-15T22:51:04Z</time>
      </trkpt>
      <trkpt lat="39.035218767821789" lon="-3.374382052570581">
        <ele>664.888916015625</ele>
        <time>2011-04-15T22:51:16Z</time>
      </trkpt>
      <trkpt lat="39.030148554593325" lon="-3.374167056754232">
        <ele>666.330810546875</ele>
        <time>2011-04-15T22:51:32Z</time>
      </trkpt>
      <trkpt lat="39.026401173323393" lon="-3.374023893848062">
        <ele>666.8115234375</ele>
        <time>2011-04-15T22:51:44Z</time>
      </trkpt>
      <trkpt lat="39.023498939350247" lon="-3.373909899964929">
        <ele>667.292236328125</ele>
        <time>2011-04-15T22:51:54Z</time>
      </trkpt>
      <trkpt lat="39.018741874024272" lon="-3.373716529458761">
        <ele>666.8115234375</ele>
        <time>2011-04-15T22:52:10Z</time>
      </trkpt>
      <trkpt lat="39.016441544517875" lon="-3.373707393184304">
        <ele>666.8115234375</ele>
        <time>2011-04-15T22:52:18Z</time>
      </trkpt>
      <trkpt lat="39.01477656327188" lon="-3.374162362888455">
        <ele>667.292236328125</ele>
        <time>2011-04-15T22:52:24Z</time>
      </trkpt>
      <trkpt lat="39.013457335531712" lon="-3.374920338392258">
        <ele>668.253662109375</ele>
        <time>2011-04-15T22:52:29Z</time>
      </trkpt>
      <trkpt lat="39.012267356738448" lon="-3.37599297054112">
        <ele>669.215087890625</ele>
        <time>2011-04-15T22:52:34Z</time>
      </trkpt>
      <trkpt lat="39.009752534329891" lon="-3.378760674968362">
        <ele>667.292236328125</ele>
        <time>2011-04-15T22:52:45Z</time>
      </trkpt>
      <trkpt lat="39.006233895197511" lon="-3.382650464773178">
        <ele>667.292236328125</ele>
        <time>2011-04-15T22:53:00Z</time>
      </trkpt>
      <trkpt lat="39.003247423097491" lon="-3.385946732014418">
        <ele>672.57958984375</ele>
        <time>2011-04-15T22:53:13Z</time>
      </trkpt>
      <trkpt lat="39.000944495201111" lon="-3.38826734572649">
        <ele>674.502197265625</ele>
        <time>2011-04-15T22:53:23Z</time>
      </trkpt>
      <trkpt lat="38.999292254447937" lon="-3.389282478019595">
        <ele>670.656982421875</ele>
        <time>2011-04-15T22:53:29Z</time>
      </trkpt>
      <trkpt lat="38.997762640938163" lon="-3.389808358624578">
        <ele>668.253662109375</ele>
        <time>2011-04-15T22:53:34Z</time>
      </trkpt>
      <trkpt lat="38.996196230873466" lon="-3.389970045536757">
        <ele>667.772705078125</ele>
        <time>2011-04-15T22:53:39Z</time>
      </trkpt>
      <trkpt lat="38.994672149419785" lon="-3.389777764678001">
        <ele>667.292236328125</ele>
        <time>2011-04-15T22:53:44Z</time>
      </trkpt>
      <trkpt lat="38.99294463917613" lon="-3.389144092798233">
        <ele>666.8115234375</ele>
        <time>2011-04-15T22:53:50Z</time>
      </trkpt>
      <trkpt lat="38.991318382322788" lon="-3.388067185878754">
        <ele>667.772705078125</ele>
        <time>2011-04-15T22:53:56Z</time>
      </trkpt>
      <trkpt lat="38.989629931747913" lon="-3.386380076408386">
        <ele>674.021484375</ele>
        <time>2011-04-15T22:54:03Z</time>
      </trkpt>
      <trkpt lat="38.987421216443181" lon="-3.384030042216182">
        <ele>674.98291015625</ele>
        <time>2011-04-15T22:54:13Z</time>
      </trkpt>
      <trkpt lat="38.985834438353777" lon="-3.38262464851141">
        <ele>673.060302734375</ele>
        <time>2011-04-15T22:54:20Z</time>
      </trkpt>
      <trkpt lat="38.984311278909445" lon="-3.381821997463703">
        <ele>671.6181640625</ele>
        <time>2011-04-15T22:54:26Z</time>
      </trkpt>
      <trkpt lat="38.9828837569803" lon="-3.381498036906123">
        <ele>670.656982421875</ele>
        <time>2011-04-15T22:54:31Z</time>
      </trkpt>
      <trkpt lat="38.98107435554266" lon="-3.381505999714136">
        <ele>672.57958984375</ele>
        <time>2011-04-15T22:54:37Z</time>
      </trkpt>
      <trkpt lat="38.97673144005239" lon="-3.381995167583227">
        <ele>673.541015625</ele>
        <time>2011-04-15T22:54:51Z</time>
      </trkpt>
      <trkpt lat="38.972419369965792" lon="-3.382491795346141">
        <ele>674.98291015625</ele>
        <time>2011-04-15T22:55:05Z</time>
      </trkpt>
      <trkpt lat="38.969258889555931" lon="-3.382870070636272">
        <ele>678.828125</ele>
        <time>2011-04-15T22:55:16Z</time>
      </trkpt>
      <trkpt lat="38.966460255905986" lon="-3.383199647068977">
        <ele>683.15380859375</ele>
        <time>2011-04-15T22:55:27Z</time>
      </trkpt>
      <trkpt lat="38.963731694966555" lon="-3.383518327027559">
        <ele>685.557373046875</ele>
        <time>2011-04-15T22:55:38Z</time>
      </trkpt>
      <trkpt lat="38.96081923507154" lon="-3.383912947028875">
        <ele>687.960693359375</ele>
        <time>2011-04-15T22:55:49Z</time>
      </trkpt>
      <trkpt lat="38.957431940361857" lon="-3.384309494867921">
        <ele>688.922119140625</ele>
        <time>2011-04-15T22:56:01Z</time>
      </trkpt>
      <trkpt lat="38.953542066738009" lon="-3.384764883667231">
        <ele>683.15380859375</ele>
        <time>2011-04-15T22:56:14Z</time>
      </trkpt>
      <trkpt lat="38.948599761351943" lon="-3.38533652946353">
        <ele>682.67333984375</ele>
        <time>2011-04-15T22:56:30Z</time>
      </trkpt>
      <trkpt lat="38.944065235555172" lon="-3.385838270187378">
        <ele>682.67333984375</ele>
        <time>2011-04-15T22:56:45Z</time>
      </trkpt>
      <trkpt lat="38.939959360286593" lon="-3.386350153014064">
        <ele>683.634521484375</ele>
        <time>2011-04-15T22:56:59Z</time>
      </trkpt>
      <trkpt lat="38.934708265587687" lon="-3.386964630335569">
        <ele>684.59619140625</ele>
        <time>2011-04-15T22:57:17Z</time>
      </trkpt>
      <trkpt lat="38.929952038452029" lon="-3.387524038553238">
        <ele>686.0380859375</ele>
        <time>2011-04-15T22:57:33Z</time>
      </trkpt>
      <trkpt lat="38.924860451370478" lon="-3.388044135645032">
        <ele>687.960693359375</ele>
        <time>2011-04-15T22:57:50Z</time>
      </trkpt>
      <trkpt lat="38.920413432642817" lon="-3.388544283807278">
        <ele>689.402587890625</ele>
        <time>2011-04-15T22:58:05Z</time>
      </trkpt>
      <trkpt lat="38.915553940460086" lon="-3.38907603174448">
        <ele>689.402587890625</ele>
        <time>2011-04-15T22:58:21Z</time>
      </trkpt>
      <trkpt lat="38.91132652759552" lon="-3.389560170471668">
        <ele>689.402587890625</ele>
        <time>2011-04-15T22:58:35Z</time>
      </trkpt>
      <trkpt lat="38.90766573138535" lon="-3.389982366934419">
        <ele>687.960693359375</ele>
        <time>2011-04-15T22:58:47Z</time>
      </trkpt>
      <trkpt lat="38.902846639975905" lon="-3.390577984973788">
        <ele>688.922119140625</ele>
        <time>2011-04-15T22:59:03Z</time>
      </trkpt>
      <trkpt lat="38.899372257292271" lon="-3.390974197536707">
        <ele>688.922119140625</ele>
        <time>2011-04-15T22:59:15Z</time>
      </trkpt>
      <trkpt lat="38.896247148513794" lon="-3.391321962699294">
        <ele>688.44140625</ele>
        <time>2011-04-15T22:59:26Z</time>
      </trkpt>
      <trkpt lat="38.891611956059933" lon="-3.391866954043508">
        <ele>687.960693359375</ele>
        <time>2011-04-15T22:59:42Z</time>
      </trkpt>
      <trkpt lat="38.889180449768901" lon="-3.392157219350338">
        <ele>689.402587890625</ele>
        <time>2011-04-15T22:59:51Z</time>
      </trkpt>
      <trkpt lat="38.886037822812796" lon="-3.392395097762346">
        <ele>688.922119140625</ele>
        <time>2011-04-15T23:00:02Z</time>
      </trkpt>
      <trkpt lat="38.882353641092777" lon="-3.39257899671793">
        <ele>688.922119140625</ele>
        <time>2011-04-15T23:00:14Z</time>
      </trkpt>
      <trkpt lat="38.877566065639257" lon="-3.392817545682192">
        <ele>692.28662109375</ele>
        <time>2011-04-15T23:00:29Z</time>
      </trkpt>
      <trkpt lat="38.87286557815969" lon="-3.393067074939609">
        <ele>694.209228515625</ele>
        <time>2011-04-15T23:00:44Z</time>
      </trkpt>
      <trkpt lat="38.868698179721832" lon="-3.393251979723573">
        <ele>694.689697265625</ele>
        <time>2011-04-15T23:00:58Z</time>
      </trkpt>
      <trkpt lat="38.863691668957472" lon="-3.393530678004026">
        <ele>696.612548828125</ele>
        <time>2011-04-15T23:01:15Z</time>
      </trkpt>
      <trkpt lat="38.859251020476222" lon="-3.393773082643747">
        <ele>698.054443359375</ele>
        <time>2011-04-15T23:01:30Z</time>
      </trkpt>
      <trkpt lat="38.854225650429726" lon="-3.394001573324204">
        <ele>698.534912109375</ele>
        <time>2011-04-15T23:01:47Z</time>
      </trkpt>
      <trkpt lat="38.849890530109406" lon="-3.394226459786296">
        <ele>699.496337890625</ele>
        <time>2011-04-15T23:02:02Z</time>
      </trkpt>
      <trkpt lat="38.845495563000441" lon="-3.39445679448545">
        <ele>699.015625</ele>
        <time>2011-04-15T23:02:17Z</time>
      </trkpt>
      <trkpt lat="38.841296229511499" lon="-3.394670365378261">
        <ele>697.57373046875</ele>
        <time>2011-04-15T23:02:31Z</time>
      </trkpt>
      <trkpt lat="38.836354091763496" lon="-3.394968425855041">
        <ele>698.534912109375</ele>
        <time>2011-04-15T23:02:47Z</time>
      </trkpt>
      <trkpt lat="38.832180071622133" lon="-3.395192893221974">
        <ele>698.534912109375</ele>
        <time>2011-04-15T23:03:00Z</time>
      </trkpt>
      <trkpt lat="38.829461988061666" lon="-3.395336642861366">
        <ele>700.4580078125</ele>
        <time>2011-04-15T23:03:09Z</time>
      </trkpt>
      <trkpt lat="38.826506361365318" lon="-3.39549757540226">
        <ele>703.822509765625</ele>
        <time>2011-04-15T23:03:19Z</time>
      </trkpt>
      <trkpt lat="38.822824778035283" lon="-3.395684659481049">
        <ele>704.78369140625</ele>
        <time>2011-04-15T23:03:32Z</time>
      </trkpt>
      <trkpt lat="38.819172447547317" lon="-3.395881047472358">
        <ele>706.706298828125</ele>
        <time>2011-04-15T23:03:45Z</time>
      </trkpt>
      <trkpt lat="38.815367231145501" lon="-3.396078692749143">
        <ele>709.109619140625</ele>
        <time>2011-04-15T23:03:58Z</time>
      </trkpt>
      <trkpt lat="38.812263244763017" lon="-3.396245073527098">
        <ele>709.59033203125</ele>
        <time>2011-04-15T23:04:09Z</time>
      </trkpt>
      <trkpt lat="38.80921533331275" lon="-3.396377088502049">
        <ele>709.109619140625</ele>
        <time>2011-04-15T23:04:20Z</time>
      </trkpt>
      <trkpt lat="38.806738816201687" lon="-3.396424278616905">
        <ele>709.59033203125</ele>
        <time>2011-04-15T23:04:29Z</time>
      </trkpt>
      <trkpt lat="38.804820282384753" lon="-3.396014487370849">
        <ele>711.0322265625</ele>
        <time>2011-04-15T23:04:36Z</time>
      </trkpt>
      <trkpt lat="38.800628576427698" lon="-3.395050736144185">
        <ele>720.164794921875</ele>
        <time>2011-04-15T23:04:51Z</time>
      </trkpt>
      <trkpt lat="38.796774744987488" lon="-3.394162589684129">
        <ele>734.10400390625</ele>
        <time>2011-04-15T23:05:05Z</time>
      </trkpt>
      <trkpt lat="38.793471939861774" lon="-3.393407464027405">
        <ele>742.275146484375</ele>
        <time>2011-04-15T23:05:17Z</time>
      </trkpt>
      <trkpt lat="38.79045931622386" lon="-3.392767421901226">
        <ele>736.98779296875</ele>
        <time>2011-04-15T23:05:28Z</time>
      </trkpt>
      <trkpt lat="38.787419954314828" lon="-3.392149424180389">
        <ele>728.816650390625</ele>
        <time>2011-04-15T23:05:39Z</time>
      </trkpt>
      <trkpt lat="38.786160238087177" lon="-3.392118075862527">
        <ele>725.451904296875</ele>
        <time>2011-04-15T23:05:44Z</time>
      </trkpt>
      <trkpt lat="38.784906724467874" lon="-3.392523173242807">
        <ele>721.606689453125</ele>
        <time>2011-04-15T23:05:49Z</time>
      </trkpt>
      <trkpt lat="38.783746585249901" lon="-3.393388772383332">
        <ele>718.2421875</ele>
        <time>2011-04-15T23:05:54Z</time>
      </trkpt>
      <trkpt lat="38.781808018684387" lon="-3.395022489130497">
        <ele>715.8388671875</ele>
        <time>2011-04-15T23:06:02Z</time>
      </trkpt>
      <trkpt lat="38.778492975980043" lon="-3.397760018706322">
        <ele>712.954833984375</ele>
        <time>2011-04-15T23:06:15Z</time>
      </trkpt>
      <trkpt lat="38.776608137413859" lon="-3.399373032152653">
        <ele>718.2421875</ele>
        <time>2011-04-15T23:06:23Z</time>
      </trkpt>
      <trkpt lat="38.774994369596243" lon="-3.400702737271786">
        <ele>723.048828125</ele>
        <time>2011-04-15T23:06:31Z</time>
      </trkpt>
      <trkpt lat="38.77317457459867" lon="-3.402212485671043">
        <ele>716.80029296875</ele>
        <time>2011-04-15T23:06:39Z</time>
      </trkpt>
      <trkpt lat="38.770374683663249" lon="-3.404502840712667">
        <ele>709.109619140625</ele>
        <time>2011-04-15T23:06:50Z</time>
      </trkpt>
      <trkpt lat="38.767330627888441" lon="-3.407000647857785">
        <ele>713.916015625</ele>
        <time>2011-04-15T23:07:02Z</time>
      </trkpt>
      <trkpt lat="38.764269640669227" lon="-3.409524019807577">
        <ele>703.341796875</ele>
        <time>2011-04-15T23:07:14Z</time>
      </trkpt>
      <trkpt lat="38.761306051164865" lon="-3.411953430622816">
        <ele>703.822509765625</ele>
        <time>2011-04-15T23:07:26Z</time>
      </trkpt>
      <trkpt lat="38.758706487715244" lon="-3.414044128730893">
        <ele>703.341796875</ele>
        <time>2011-04-15T23:07:37Z</time>
      </trkpt>
      <trkpt lat="38.755697635933757" lon="-3.416544450446963">
        <ele>700.4580078125</ele>
        <time>2011-04-15T23:07:49Z</time>
      </trkpt>
      <trkpt lat="38.752155443653464" lon="-3.419397147372365">
        <ele>699.015625</ele>
        <time>2011-04-15T23:08:03Z</time>
      </trkpt>
      <trkpt lat="38.750733118504286" lon="-3.420160068199039">
        <ele>699.97705078125</ele>
        <time>2011-04-15T23:08:08Z</time>
      </trkpt>
      <trkpt lat="38.749180538579822" lon="-3.420483525842428">
        <ele>700.9384765625</ele>
        <time>2011-04-15T23:08:13Z</time>
      </trkpt>
      <trkpt lat="38.747570542618632" lon="-3.420324856415391">
        <ele>700.9384765625</ele>
        <time>2011-04-15T23:08:18Z</time>
      </trkpt>
      <trkpt lat="38.744141757488251" lon="-3.419723622500897">
        <ele>702.38037109375</ele>
        <time>2011-04-15T23:08:29Z</time>
      </trkpt>
      <trkpt lat="38.739891545847058" lon="-3.419014262035489">
        <ele>703.822509765625</ele>
        <time>2011-04-15T23:08:43Z</time>
      </trkpt>
      <trkpt lat="38.735805368050933" lon="-3.418309846892953">
        <ele>705.7451171875</ele>
        <time>2011-04-15T23:08:57Z</time>
      </trkpt>
      <trkpt lat="38.732166364789009" lon="-3.417677264660597">
        <ele>708.1484375</ele>
        <time>2011-04-15T23:09:10Z</time>
      </trkpt>
      <trkpt lat="38.729362953454256" lon="-3.417192874476314">
        <ele>711.512939453125</ele>
        <time>2011-04-15T23:09:21Z</time>
      </trkpt>
      <trkpt lat="38.727864939719439" lon="-3.417161023244262">
        <ele>710.07080078125</ele>
        <time>2011-04-15T23:09:27Z</time>
      </trkpt>
      <trkpt lat="38.725119866430759" lon="-3.417381551116705">
        <ele>707.18701171875</ele>
        <time>2011-04-15T23:09:37Z</time>
      </trkpt>
      <trkpt lat="38.720780219882727" lon="-3.417699644342065">
        <ele>705.264404296875</ele>
        <time>2011-04-15T23:09:52Z</time>
      </trkpt>
      <trkpt lat="38.715818384662271" lon="-3.418056042864919">
        <ele>704.78369140625</ele>
        <time>2011-04-15T23:10:09Z</time>
      </trkpt>
      <trkpt lat="38.712352132424712" lon="-3.418308757245541">
        <ele>706.2255859375</ele>
        <time>2011-04-15T23:10:21Z</time>
      </trkpt>
      <trkpt lat="38.7104756757617" lon="-3.418681165203452">
        <ele>708.1484375</ele>
        <time>2011-04-15T23:10:28Z</time>
      </trkpt>
      <trkpt lat="38.708920245990157" lon="-3.419408882036805">
        <ele>710.07080078125</ele>
        <time>2011-04-15T23:10:34Z</time>
      </trkpt>
      <trkpt lat="38.707198351621628" lon="-3.42065216973424">
        <ele>712.47412109375</ele>
        <time>2011-04-15T23:10:41Z</time>
      </trkpt>
      <trkpt lat="38.703392129391432" lon="-3.423584327101708">
        <ele>710.551513671875</ele>
        <time>2011-04-15T23:10:57Z</time>
      </trkpt>
      <trkpt lat="38.7010607868433" lon="-3.425532281398773">
        <ele>709.59033203125</ele>
        <time>2011-04-15T23:11:07Z</time>
      </trkpt>
      <trkpt lat="38.69872223585844" lon="-3.427346460521221">
        <ele>710.551513671875</ele>
        <time>2011-04-15T23:11:17Z</time>
      </trkpt>
      <trkpt lat="38.696453925222158" lon="-3.429025774821639">
        <ele>711.99365234375</ele>
        <time>2011-04-15T23:11:27Z</time>
      </trkpt>
      <trkpt lat="38.694057958200574" lon="-3.430835176259279">
        <ele>714.87744140625</ele>
        <time>2011-04-15T23:11:37Z</time>
      </trkpt>
      <trkpt lat="38.691042065620422" lon="-3.433139445260167">
        <ele>717.761474609375</ele>
        <time>2011-04-15T23:11:49Z</time>
      </trkpt>
      <trkpt lat="38.688526824116707" lon="-3.435049764811993">
        <ele>720.164794921875</ele>
        <time>2011-04-15T23:11:59Z</time>
      </trkpt>
      <trkpt lat="38.685574550181627" lon="-3.437293097376823">
        <ele>721.126220703125</ele>
        <time>2011-04-15T23:12:11Z</time>
      </trkpt>
      <trkpt lat="38.682233523577452" lon="-3.439807835966349">
        <ele>724.010009765625</ele>
        <time>2011-04-15T23:12:24Z</time>
      </trkpt>
      <trkpt lat="38.679196927696466" lon="-3.442107830196619">
        <ele>726.89404296875</ele>
        <time>2011-04-15T23:12:35Z</time>
      </trkpt>
      <trkpt lat="38.675854559987783" lon="-3.4445954952389">
        <ele>735.0654296875</ele>
        <time>2011-04-15T23:12:48Z</time>
      </trkpt>
      <trkpt lat="38.672872949391603" lon="-3.446852322667837">
        <ele>739.871826171875</ele>
        <time>2011-04-15T23:13:00Z</time>
      </trkpt>
      <trkpt lat="38.669835766777396" lon="-3.449140666052699">
        <ele>741.79443359375</ele>
        <time>2011-04-15T23:13:12Z</time>
      </trkpt>
      <trkpt lat="38.66664519533515" lon="-3.451536884531379">
        <ele>740.3525390625</ele>
        <time>2011-04-15T23:13:25Z</time>
      </trkpt>
      <trkpt lat="38.663176260888577" lon="-3.454197971150279">
        <ele>743.236328125</ele>
        <time>2011-04-15T23:13:39Z</time>
      </trkpt>
      <trkpt lat="38.659918634220958" lon="-3.456619083881378">
        <ele>743.236328125</ele>
        <time>2011-04-15T23:13:52Z</time>
      </trkpt>
      <trkpt lat="38.655911749228835" lon="-3.459672527387738">
        <ele>747.08154296875</ele>
        <time>2011-04-15T23:14:08Z</time>
      </trkpt>
      <trkpt lat="38.654348524287343" lon="-3.461015559732914">
        <ele>746.120361328125</ele>
        <time>2011-04-15T23:14:15Z</time>
      </trkpt>
      <trkpt lat="38.653235239908099" lon="-3.462476944550872">
        <ele>741.313720703125</ele>
        <time>2011-04-15T23:14:21Z</time>
      </trkpt>
      <trkpt lat="38.652358073741198" lon="-3.464237228035927">
        <ele>736.026611328125</ele>
        <time>2011-04-15T23:14:27Z</time>
      </trkpt>
      <trkpt lat="38.651206651702523" lon="-3.46746183000505">
        <ele>731.219970703125</ele>
        <time>2011-04-15T23:14:37Z</time>
      </trkpt>
      <trkpt lat="38.64998247474432" lon="-3.470971332862973">
        <ele>728.3359375</ele>
        <time>2011-04-15T23:14:47Z</time>
      </trkpt>
      <trkpt lat="38.648627288639545" lon="-3.474684599786997">
        <ele>726.413330078125</ele>
        <time>2011-04-15T23:14:58Z</time>
      </trkpt>
      <trkpt lat="38.647694131359458" lon="-3.476558877155185">
        <ele>725.9326171875</ele>
        <time>2011-04-15T23:15:04Z</time>
      </trkpt>
      <trkpt lat="38.646811181679368" lon="-3.477530926465988">
        <ele>725.9326171875</ele>
        <time>2011-04-15T23:15:08Z</time>
      </trkpt>
      <trkpt lat="38.645790684968233" lon="-3.478195946663618">
        <ele>726.413330078125</ele>
        <time>2011-04-15T23:15:12Z</time>
      </trkpt>
      <trkpt lat="38.644460225477815" lon="-3.478580843657255">
        <ele>727.374755859375</ele>
        <time>2011-04-15T23:15:17Z</time>
      </trkpt>
      <trkpt lat="38.643136722967029" lon="-3.47848822362721">
        <ele>728.3359375</ele>
        <time>2011-04-15T23:15:22Z</time>
      </trkpt>
      <trkpt lat="38.641881449148059" lon="-3.477981956675649">
        <ele>728.816650390625</ele>
        <time>2011-04-15T23:15:27Z</time>
      </trkpt>
      <trkpt lat="38.640740169212222" lon="-3.477076627314091">
        <ele>728.816650390625</ele>
        <time>2011-04-15T23:15:32Z</time>
      </trkpt>
      <trkpt lat="38.638433972373605" lon="-3.474580245092511">
        <ele>726.89404296875</ele>
        <time>2011-04-15T23:15:43Z</time>
      </trkpt>
      <trkpt lat="38.635715469717979" lon="-3.471663258969784">
        <ele>724.010009765625</ele>
        <time>2011-04-15T23:15:56Z</time>
      </trkpt>
      <trkpt lat="38.632621876895428" lon="-3.468342768028379">
        <ele>732.181396484375</ele>
        <time>2011-04-15T23:16:10Z</time>
      </trkpt>
      <trkpt lat="38.62966482527554" lon="-3.465357050299645">
        <ele>740.8330078125</ele>
        <time>2011-04-15T23:16:23Z</time>
      </trkpt>
      <trkpt lat="38.628496136516333" lon="-3.464581221342087">
        <ele>743.236328125</ele>
        <time>2011-04-15T23:16:28Z</time>
      </trkpt>
      <trkpt lat="38.627266678959131" lon="-3.464174699038267">
        <ele>744.19775390625</ele>
        <time>2011-04-15T23:16:33Z</time>
      </trkpt>
      <trkpt lat="38.625456355512142" lon="-3.463976718485355">
        <ele>742.755859375</ele>
        <time>2011-04-15T23:16:40Z</time>
      </trkpt>
      <trkpt lat="38.622153634205461" lon="-3.463707575574517">
        <ele>738.91064453125</ele>
        <time>2011-04-15T23:16:52Z</time>
      </trkpt>
      <trkpt lat="38.618820738047361" lon="-3.463492747396231">
        <ele>747.562255859375</ele>
        <time>2011-04-15T23:17:04Z</time>
      </trkpt>
      <trkpt lat="38.617574097588658" lon="-3.463773792609572">
        <ele>749.9658203125</ele>
        <time>2011-04-15T23:17:09Z</time>
      </trkpt>
      <trkpt lat="38.616425693035126" lon="-3.464415762573481">
        <ele>751.888427734375</ele>
        <time>2011-04-15T23:17:14Z</time>
      </trkpt>
      <trkpt lat="38.614221671596169" lon="-3.465957446023822">
        <ele>761.50146484375</ele>
        <time>2011-04-15T23:17:24Z</time>
      </trkpt>
      <trkpt lat="38.613046193495393" lon="-3.46626321785152">
        <ele>768.230712890625</ele>
        <time>2011-04-15T23:17:29Z</time>
      </trkpt>
      <trkpt lat="38.611857136711478" lon="-3.466139920055866">
        <ele>774.479248046875</ele>
        <time>2011-04-15T23:17:34Z</time>
      </trkpt>
      <trkpt lat="38.608886590227485" lon="-3.465632228180766">
        <ele>784.092529296875</ele>
        <time>2011-04-15T23:17:47Z</time>
      </trkpt>
      <trkpt lat="38.607759643346071" lon="-3.465770278126001">
        <ele>783.131103515625</ele>
        <time>2011-04-15T23:17:52Z</time>
      </trkpt>
      <trkpt lat="38.606756832450628" lon="-3.466317532584071">
        <ele>781.208740234375</ele>
        <time>2011-04-15T23:17:57Z</time>
      </trkpt>
      <trkpt lat="38.606272274628282" lon="-3.466739896684885">
        <ele>780.247314453125</ele>
        <time>2011-04-15T23:18:01Z</time>
      </trkpt>
      <trkpt lat="38.605993157252669" lon="-3.467046841979027">
        <ele>778.80517578125</ele>
        <time>2011-04-15T23:18:06Z</time>
      </trkpt>
      <trkpt lat="38.605863992124796" lon="-3.467205427587032">
        <ele>778.80517578125</ele>
        <time>2011-04-15T23:18:13Z</time>
      </trkpt>
      <trkpt lat="38.605283126235008" lon="-3.467529891058803">
        <ele>779.28564453125</ele>
        <time>2011-04-15T23:20:52Z</time>
      </trkpt>
      <trkpt lat="38.604457592591643" lon="-3.467923672869802">
        <ele>777.84375</ele>
        <time>2011-04-15T23:20:59Z</time>
      </trkpt>
      <trkpt lat="38.603352690115571" lon="-3.468340672552586">
        <ele>774.9599609375</ele>
        <time>2011-04-15T23:21:06Z</time>
      </trkpt>
      <trkpt lat="38.601256292313337" lon="-3.469076016917825">
        <ele>769.6728515625</ele>
        <time>2011-04-15T23:21:17Z</time>
      </trkpt>
      <trkpt lat="38.598910951986909" lon="-3.469892162829638">
        <ele>765.82763671875</ele>
        <time>2011-04-15T23:21:28Z</time>
      </trkpt>
      <trkpt lat="38.595346799120307" lon="-3.471138635650277">
        <ele>769.6728515625</ele>
        <time>2011-04-15T23:21:44Z</time>
      </trkpt>
      <trkpt lat="38.592508435249329" lon="-3.472095429897308">
        <ele>777.84375</ele>
        <time>2011-04-15T23:21:56Z</time>
      </trkpt>
      <trkpt lat="38.591286186128855" lon="-3.472173884510994">
        <ele>780.247314453125</ele>
        <time>2011-04-15T23:22:01Z</time>
      </trkpt>
      <trkpt lat="38.589881462976336" lon="-3.472247561439872">
        <ele>782.650634765625</ele>
        <time>2011-04-15T23:22:07Z</time>
      </trkpt>
      <trkpt lat="38.588761137798429" lon="-3.47275466658175">
        <ele>783.61181640625</ele>
        <time>2011-04-15T23:22:12Z</time>
      </trkpt>
      <trkpt lat="38.587766624987125" lon="-3.473724871873856">
        <ele>786.495849609375</ele>
        <time>2011-04-15T23:22:17Z</time>
      </trkpt>
      <trkpt lat="38.586998758837581" lon="-3.475044183433056">
        <ele>791.782958984375</ele>
        <time>2011-04-15T23:22:22Z</time>
      </trkpt>
      <trkpt lat="38.584951478987932" lon="-3.479014271870256">
        <ele>803.31884765625</ele>
        <time>2011-04-15T23:22:36Z</time>
      </trkpt>
      <trkpt lat="38.58350551687181" lon="-3.481448292732239">
        <ele>811.970703125</ele>
        <time>2011-04-15T23:22:45Z</time>
      </trkpt>
      <trkpt lat="38.582644779235125" lon="-3.482161089777947">
        <ele>815.33544921875</ele>
        <time>2011-04-15T23:22:49Z</time>
      </trkpt>
      <trkpt lat="38.581642219796777" lon="-3.482545483857393">
        <ele>816.296630859375</ele>
        <time>2011-04-15T23:22:53Z</time>
      </trkpt>
      <trkpt lat="38.580288542434573" lon="-3.482568617910147">
        <ele>813.412841796875</ele>
        <time>2011-04-15T23:22:58Z</time>
      </trkpt>
      <trkpt lat="38.579481197521091" lon="-3.482607258483768">
        <ele>809.5673828125</ele>
        <time>2011-04-15T23:23:01Z</time>
      </trkpt>
      <trkpt lat="38.577562747523189" lon="-3.483238918706775">
        <ele>798.51220703125</ele>
        <time>2011-04-15T23:23:08Z</time>
      </trkpt>
      <trkpt lat="38.575538853183389" lon="-3.48377762362361">
        <ele>786.495849609375</ele>
        <time>2011-04-15T23:23:15Z</time>
      </trkpt>
      <trkpt lat="38.572872234508395" lon="-3.484405595809221">
        <ele>776.882568359375</ele>
        <time>2011-04-15T23:23:24Z</time>
      </trkpt>
      <trkpt lat="38.570130430161953" lon="-3.485282091423869">
        <ele>772.075927734375</ele>
        <time>2011-04-15T23:23:34Z</time>
      </trkpt>
      <trkpt lat="38.568324549123645" lon="-3.486087843775749">
        <ele>773.99853515625</ele>
        <time>2011-04-15T23:23:41Z</time>
      </trkpt>
      <trkpt lat="38.566937260329723" lon="-3.486992167308927">
        <ele>775.4404296875</ele>
        <time>2011-04-15T23:23:47Z</time>
      </trkpt>
      <trkpt lat="38.564420593902469" lon="-3.488639127463102">
        <ele>771.59521484375</ele>
        <time>2011-04-15T23:23:58Z</time>
      </trkpt>
      <trkpt lat="38.563223239034414" lon="-3.489093258976936">
        <ele>771.11474609375</ele>
        <time>2011-04-15T23:24:03Z</time>
      </trkpt>
      <trkpt lat="38.560861218720675" lon="-3.489560717716813">
        <ele>771.11474609375</ele>
        <time>2011-04-15T23:24:12Z</time>
      </trkpt>
      <trkpt lat="38.556987522169948" lon="-3.490224396809936">
        <ele>773.037353515625</ele>
        <time>2011-04-15T23:24:26Z</time>
      </trkpt>
      <trkpt lat="38.552187876775861" lon="-3.490984551608563">
        <ele>774.9599609375</ele>
        <time>2011-04-15T23:24:43Z</time>
      </trkpt>
      <trkpt lat="38.548123240470886" lon="-3.491638926789165">
        <ele>774.9599609375</ele>
        <time>2011-04-15T23:24:57Z</time>
      </trkpt>
      <trkpt lat="38.543792897835374" lon="-3.492349125444889">
        <ele>779.766357421875</ele>
        <time>2011-04-15T23:25:12Z</time>
      </trkpt>
      <trkpt lat="38.538693347945809" lon="-3.493182538077235">
        <ele>773.037353515625</ele>
        <time>2011-04-15T23:25:30Z</time>
      </trkpt>
      <trkpt lat="38.534593340009451" lon="-3.4939044713974">
        <ele>776.882568359375</ele>
        <time>2011-04-15T23:25:45Z</time>
      </trkpt>
      <trkpt lat="38.530840761959553" lon="-3.49457485601306">
        <ele>781.689208984375</ele>
        <time>2011-04-15T23:25:59Z</time>
      </trkpt>
      <trkpt lat="38.528432557359338" lon="-3.494848273694515">
        <ele>784.5732421875</ele>
        <time>2011-04-15T23:26:08Z</time>
      </trkpt>
      <trkpt lat="38.527408959344029" lon="-3.494483157992363">
        <ele>786.01513671875</ele>
        <time>2011-04-15T23:26:12Z</time>
      </trkpt>
      <trkpt lat="38.525974480435252" lon="-3.493458973243833">
        <ele>787.937744140625</ele>
        <time>2011-04-15T23:26:18Z</time>
      </trkpt>
      <trkpt lat="38.524473281577229" lon="-3.492590188980103">
        <ele>790.821533203125</ele>
        <time>2011-04-15T23:26:24Z</time>
      </trkpt>
      <trkpt lat="38.521826695650816" lon="-3.491630041971803">
        <ele>794.666748046875</ele>
        <time>2011-04-15T23:26:34Z</time>
      </trkpt>
      <trkpt lat="38.51962074637413" lon="-3.491057138890028">
        <ele>798.03173828125</ele>
        <time>2011-04-15T23:26:42Z</time>
      </trkpt>
      <trkpt lat="38.517623757943511" lon="-3.490994023159146">
        <ele>803.799560546875</ele>
        <time>2011-04-15T23:26:49Z</time>
      </trkpt>
      <trkpt lat="38.515921225771308" lon="-3.491317480802536">
        <ele>809.5673828125</ele>
        <time>2011-04-15T23:26:55Z</time>
      </trkpt>
      <trkpt lat="38.514001183211803" lon="-3.492126669734716">
        <ele>816.296630859375</ele>
        <time>2011-04-15T23:27:02Z</time>
      </trkpt>
      <trkpt lat="38.512503672391176" lon="-3.49323894828558">
        <ele>823.02587890625</ele>
        <time>2011-04-15T23:27:08Z</time>
      </trkpt>
      <trkpt lat="38.51015011779964" lon="-3.495266363024712">
        <ele>824.4677734375</ele>
        <time>2011-04-15T23:27:18Z</time>
      </trkpt>
      <trkpt lat="38.5078882612288" lon="-3.497233679518104">
        <ele>817.258056640625</ele>
        <time>2011-04-15T23:27:27Z</time>
      </trkpt>
      <trkpt lat="38.505485923960805" lon="-3.499171743169427">
        <ele>807.1640625</ele>
        <time>2011-04-15T23:27:36Z</time>
      </trkpt>
      <trkpt lat="38.502672286704183" lon="-3.500903695821762">
        <ele>792.744384765625</ele>
        <time>2011-04-15T23:27:46Z</time>
      </trkpt>
      <trkpt lat="38.499429579824209" lon="-3.502859193831682">
        <ele>783.61181640625</ele>
        <time>2011-04-15T23:27:58Z</time>
      </trkpt>
      <trkpt lat="38.497363356873393" lon="-3.503901734948158">
        <ele>783.61181640625</ele>
        <time>2011-04-15T23:28:06Z</time>
      </trkpt>
      <trkpt lat="38.49626624956727" lon="-3.504010951146483">
        <ele>783.131103515625</ele>
        <time>2011-04-15T23:28:10Z</time>
      </trkpt>
      <trkpt lat="38.494896478950977" lon="-3.503694282844663">
        <ele>780.247314453125</ele>
        <time>2011-04-15T23:28:15Z</time>
      </trkpt>
      <trkpt lat="38.491754857823253" lon="-3.502627853304148">
        <ele>773.037353515625</ele>
        <time>2011-04-15T23:28:26Z</time>
      </trkpt>
      <trkpt lat="38.487369948998094" lon="-3.501169988885522">
        <ele>774.479248046875</ele>
        <time>2011-04-15T23:28:41Z</time>
      </trkpt>
      <trkpt lat="38.485619639977813" lon="-3.500903779640794">
        <ele>775.4404296875</ele>
        <time>2011-04-15T23:28:47Z</time>
      </trkpt>
      <trkpt lat="38.484265794977546" lon="-3.501110225915909">
        <ele>775.4404296875</ele>
        <time>2011-04-15T23:28:52Z</time>
      </trkpt>
      <trkpt lat="38.483234820887446" lon="-3.501538960263133">
        <ele>773.037353515625</ele>
        <time>2011-04-15T23:28:57Z</time>
      </trkpt>
      <trkpt lat="38.4822235442698" lon="-3.502045143395662">
        <ele>768.71142578125</ele>
        <time>2011-04-15T23:29:03Z</time>
      </trkpt>
      <trkpt lat="38.481178069487214" lon="-3.502670349553227">
        <ele>764.8662109375</ele>
        <time>2011-04-15T23:29:09Z</time>
      </trkpt>
      <trkpt lat="38.479582741856575" lon="-3.503630496561527">
        <ele>765.82763671875</ele>
        <time>2011-04-15T23:29:17Z</time>
      </trkpt>
      <trkpt lat="38.478232165798545" lon="-3.50406208075583">
        <ele>771.59521484375</ele>
        <time>2011-04-15T23:29:23Z</time>
      </trkpt>
      <trkpt lat="38.476831382140517" lon="-3.504150928929448">
        <ele>777.84375</ele>
        <time>2011-04-15T23:29:29Z</time>
      </trkpt>
      <trkpt lat="38.475240999832749" lon="-3.503969879820943">
        <ele>783.61181640625</ele>
        <time>2011-04-15T23:29:36Z</time>
      </trkpt>
      <trkpt lat="38.474829783663154" lon="-3.503947164863348">
        <ele>784.5732421875</ele>
        <time>2011-04-15T23:29:38Z</time>
      </trkpt>
      <trkpt lat="38.473185673356056" lon="-3.503544079139829">
        <ele>783.61181640625</ele>
        <time>2011-04-15T23:29:46Z</time>
      </trkpt>
      <trkpt lat="38.471240065991879" lon="-3.503037896007299">
        <ele>778.324462890625</ele>
        <time>2011-04-15T23:29:54Z</time>
      </trkpt>
      <trkpt lat="38.469925364479423" lon="-3.502581417560577">
        <ele>775.4404296875</ele>
        <time>2011-04-15T23:30:00Z</time>
      </trkpt>
      <trkpt lat="38.468300448730588" lon="-3.502105744555593">
        <ele>773.037353515625</ele>
        <time>2011-04-15T23:30:08Z</time>
      </trkpt>
      <trkpt lat="38.467063531279564" lon="-3.502019997686148">
        <ele>771.59521484375</ele>
        <time>2011-04-15T23:30:14Z</time>
      </trkpt>
      <trkpt lat="38.464956488460302" lon="-3.502214625477791">
        <ele>769.192138671875</ele>
        <time>2011-04-15T23:30:23Z</time>
      </trkpt>
      <trkpt lat="38.463785536587238" lon="-3.502124939113855">
        <ele>767.26953125</ele>
        <time>2011-04-15T23:30:28Z</time>
      </trkpt>
      <trkpt lat="38.462509727105498" lon="-3.501630993559957">
        <ele>763.904541015625</ele>
        <time>2011-04-15T23:30:34Z</time>
      </trkpt>
      <trkpt lat="38.461132161319256" lon="-3.501105783507228">
        <ele>757.175537109375</ele>
        <time>2011-04-15T23:30:41Z</time>
      </trkpt>
      <trkpt lat="38.459930447861552" lon="-3.500570766627789">
        <ele>750.446533203125</ele>
        <time>2011-04-15T23:30:47Z</time>
      </trkpt>
      <trkpt lat="38.458020044490695" lon="-3.499650433659554">
        <ele>743.717041015625</ele>
        <time>2011-04-15T23:30:55Z</time>
      </trkpt>
      <trkpt lat="38.453939566388726" lon="-3.497765092179179">
        <ele>724.971435546875</ele>
        <time>2011-04-15T23:31:11Z</time>
      </trkpt>
      <trkpt lat="38.451740322634578" lon="-3.497134856879711">
        <ele>712.47412109375</ele>
        <time>2011-04-15T23:31:19Z</time>
      </trkpt>
      <trkpt lat="38.449735622853041" lon="-3.497012481093407">
        <ele>704.30322265625</ele>
        <time>2011-04-15T23:31:26Z</time>
      </trkpt>
      <trkpt lat="38.44643684104085" lon="-3.497097389772534">
        <ele>700.4580078125</ele>
        <time>2011-04-15T23:31:38Z</time>
      </trkpt>
      <trkpt lat="38.44458494335413" lon="-3.496955987066031">
        <ele>698.054443359375</ele>
        <time>2011-04-15T23:31:45Z</time>
      </trkpt>
      <trkpt lat="38.442571274936199" lon="-3.496393980458379">
        <ele>695.17041015625</ele>
        <time>2011-04-15T23:31:53Z</time>
      </trkpt>
      <trkpt lat="38.441349528729916" lon="-3.49636229686439">
        <ele>693.728515625</ele>
        <time>2011-04-15T23:31:58Z</time>
      </trkpt>
      <trkpt lat="38.439901722595096" lon="-3.496735962107778">
        <ele>692.28662109375</ele>
        <time>2011-04-15T23:32:04Z</time>
      </trkpt>
      <trkpt lat="38.438438661396503" lon="-3.496945425868034">
        <ele>692.28662109375</ele>
        <time>2011-04-15T23:32:10Z</time>
      </trkpt>
      <trkpt lat="38.43556777574122" lon="-3.496651388704777">
        <ele>699.97705078125</ele>
        <time>2011-04-15T23:32:22Z</time>
      </trkpt>
      <trkpt lat="38.433709843084216" lon="-3.49667938426137">
        <ele>700.4580078125</ele>
        <time>2011-04-15T23:32:30Z</time>
      </trkpt>
      <trkpt lat="38.431949140504003" lon="-3.497172575443983">
        <ele>699.496337890625</ele>
        <time>2011-04-15T23:32:37Z</time>
      </trkpt>
      <trkpt lat="38.428125232458115" lon="-3.498351657763124">
        <ele>704.78369140625</ele>
        <time>2011-04-15T23:32:52Z</time>
      </trkpt>
      <trkpt lat="38.426054148003459" lon="-3.498731190338731">
        <ele>698.534912109375</ele>
        <time>2011-04-15T23:33:00Z</time>
      </trkpt>
      <trkpt lat="38.424195544794202" lon="-3.498701183125377">
        <ele>688.922119140625</ele>
        <time>2011-04-15T23:33:07Z</time>
      </trkpt>
      <trkpt lat="38.422974720597267" lon="-3.498967392370105">
        <ele>682.67333984375</ele>
        <time>2011-04-15T23:33:12Z</time>
      </trkpt>
      <trkpt lat="38.421841822564602" lon="-3.499732743948698">
        <ele>676.905517578125</ele>
        <time>2011-04-15T23:33:17Z</time>
      </trkpt>
      <trkpt lat="38.42044279910624" lon="-3.500606557354331">
        <ele>674.98291015625</ele>
        <time>2011-04-15T23:33:23Z</time>
      </trkpt>
      <trkpt lat="38.419163385406137" lon="-3.500839658081532">
        <ele>674.98291015625</ele>
        <time>2011-04-15T23:33:28Z</time>
      </trkpt>
      <trkpt lat="38.418129729107022" lon="-3.500610580667853">
        <ele>675.944091796875</ele>
        <time>2011-04-15T23:33:32Z</time>
      </trkpt>
      <trkpt lat="38.416922735050321" lon="-3.499918570742011">
        <ele>677.86669921875</ele>
        <time>2011-04-15T23:33:37Z</time>
      </trkpt>
      <trkpt lat="38.414768753573298" lon="-3.498677294701338">
        <ele>681.2314453125</ele>
        <time>2011-04-15T23:33:46Z</time>
      </trkpt>
      <trkpt lat="38.413505265489221" lon="-3.498374540358782">
        <ele>681.7119140625</ele>
        <time>2011-04-15T23:33:51Z</time>
      </trkpt>
      <trkpt lat="38.411946231499314" lon="-3.498477386310697">
        <ele>679.30859375</ele>
        <time>2011-04-15T23:33:57Z</time>
      </trkpt>
      <trkpt lat="38.410155270248652" lon="-3.499071747064591">
        <ele>674.021484375</ele>
        <time>2011-04-15T23:34:04Z</time>
      </trkpt>
      <trkpt lat="38.408862026408315" lon="-3.499530740082264">
        <ele>671.1376953125</ele>
        <time>2011-04-15T23:34:10Z</time>
      </trkpt>
      <trkpt lat="38.407401060685515" lon="-3.499890575185418">
        <ele>671.6181640625</ele>
        <time>2011-04-15T23:34:18Z</time>
      </trkpt>
      <trkpt lat="38.406717348843813" lon="-3.499941034242511">
        <ele>672.57958984375</ele>
        <time>2011-04-15T23:34:22Z</time>
      </trkpt>
      <trkpt lat="38.405916290357709" lon="-3.500379743054509">
        <ele>673.060302734375</ele>
        <time>2011-04-15T23:34:27Z</time>
      </trkpt>
      <trkpt lat="38.405201816931367" lon="-3.501043254509568">
        <ele>672.098876953125</ele>
        <time>2011-04-15T23:34:32Z</time>
      </trkpt>
      <trkpt lat="38.404466724023223" lon="-3.501230925321579">
        <ele>673.060302734375</ele>
        <time>2011-04-15T23:34:37Z</time>
      </trkpt>
      <trkpt lat="38.404196575284004" lon="-3.501120368018746">
        <ele>673.541015625</ele>
        <time>2011-04-15T23:34:39Z</time>
      </trkpt>
      <trkpt lat="38.402997627854347" lon="-3.500496251508594">
        <ele>677.38623046875</ele>
        <time>2011-04-15T23:34:47Z</time>
      </trkpt>
      <trkpt lat="38.402318945154548" lon="-3.500330289825797">
        <ele>679.789306640625</ele>
        <time>2011-04-15T23:34:51Z</time>
      </trkpt>
      <trkpt lat="38.401569435372949" lon="-3.500431962311268">
        <ele>681.2314453125</ele>
        <time>2011-04-15T23:34:56Z</time>
      </trkpt>
      <trkpt lat="38.401098288595676" lon="-3.500973852351308">
        <ele>679.789306640625</ele>
        <time>2011-04-15T23:35:00Z</time>
      </trkpt>
      <trkpt lat="38.400965686887503" lon="-3.501361599192023">
        <ele>679.30859375</ele>
        <time>2011-04-15T23:35:02Z</time>
      </trkpt>
      <trkpt lat="38.400473082438111" lon="-3.503533434122801">
        <ele>676.4248046875</ele>
        <time>2011-04-15T23:35:12Z</time>
      </trkpt>
      <trkpt lat="38.400434944778681" lon="-3.50372931919992">
        <ele>676.4248046875</ele>
        <time>2011-04-15T23:35:13Z</time>
      </trkpt>
      <trkpt lat="38.400462688878179" lon="-3.504476062953472">
        <ele>676.4248046875</ele>
        <time>2011-04-15T23:35:17Z</time>
      </trkpt>
      <trkpt lat="38.40073392726481" lon="-3.505617845803499">
        <ele>677.86669921875</ele>
        <time>2011-04-15T23:35:23Z</time>
      </trkpt>
      <trkpt lat="38.400679193437099" lon="-3.506277082487941">
        <ele>679.789306640625</ele>
        <time>2011-04-15T23:35:27Z</time>
      </trkpt>
      <trkpt lat="38.400294128805399" lon="-3.506593080237508">
        <ele>681.7119140625</ele>
        <time>2011-04-15T23:35:31Z</time>
      </trkpt>
      <trkpt lat="38.399801440536976" lon="-3.506358386948705">
        <ele>685.557373046875</ele>
        <time>2011-04-15T23:35:35Z</time>
      </trkpt>
      <trkpt lat="38.399620223790407" lon="-3.506079772487283">
        <ele>686.518798828125</ele>
        <time>2011-04-15T23:35:37Z</time>
      </trkpt>
      <trkpt lat="38.399445042014122" lon="-3.505787579342723">
        <ele>688.44140625</ele>
        <time>2011-04-15T23:35:39Z</time>
      </trkpt>
      <trkpt lat="38.398922933265567" lon="-3.50543562322855">
        <ele>692.28662109375</ele>
        <time>2011-04-15T23:35:44Z</time>
      </trkpt>
      <trkpt lat="38.398810029029846" lon="-3.505451967939735">
        <ele>692.767333984375</ele>
        <time>2011-04-15T23:35:45Z</time>
      </trkpt>
      <trkpt lat="38.397923726588488" lon="-3.5057732462883">
        <ele>698.534912109375</ele>
        <time>2011-04-15T23:35:52Z</time>
      </trkpt>
      <trkpt lat="38.397169020026922" lon="-3.506434075534344">
        <ele>702.861083984375</ele>
        <time>2011-04-15T23:35:58Z</time>
      </trkpt>
      <trkpt lat="38.396916389465332" lon="-3.506711181253195">
        <ele>704.78369140625</ele>
        <time>2011-04-15T23:36:00Z</time>
      </trkpt>
      <trkpt lat="38.396240388974547" lon="-3.50703589618206">
        <ele>708.62890625</ele>
        <time>2011-04-15T23:36:05Z</time>
      </trkpt>
      <trkpt lat="38.395957667380571" lon="-3.507073195651174">
        <ele>710.07080078125</ele>
        <time>2011-04-15T23:36:07Z</time>
      </trkpt>
      <trkpt lat="38.395129032433033" lon="-3.507543923333287">
        <ele>713.916015625</ele>
        <time>2011-04-15T23:36:13Z</time>
      </trkpt>
      <trkpt lat="38.393882559612393" lon="-3.508433997631073">
        <ele>713.916015625</ele>
        <time>2011-04-15T23:36:22Z</time>
      </trkpt>
      <trkpt lat="38.39373922906816" lon="-3.508523432537913">
        <ele>713.435546875</ele>
        <time>2011-04-15T23:36:23Z</time>
      </trkpt>
      <trkpt lat="38.393012769520283" lon="-3.508507171645761">
        <ele>709.109619140625</ele>
        <time>2011-04-15T23:36:28Z</time>
      </trkpt>
      <trkpt lat="38.392588142305613" lon="-3.508274490013719">
        <ele>706.706298828125</ele>
        <time>2011-04-15T23:36:31Z</time>
      </trkpt>
      <trkpt lat="38.39190686121583" lon="-3.507474940270186">
        <ele>701.419189453125</ele>
        <time>2011-04-15T23:36:37Z</time>
      </trkpt>
      <trkpt lat="38.391496231779456" lon="-3.506876975297928">
        <ele>700.9384765625</ele>
        <time>2011-04-15T23:36:41Z</time>
      </trkpt>
      <trkpt lat="38.390852250158787" lon="-3.506514541804791">
        <ele>698.534912109375</ele>
        <time>2011-04-15T23:36:46Z</time>
      </trkpt>
      <trkpt lat="38.390698358416557" lon="-3.506531976163387">
        <ele>698.054443359375</ele>
        <time>2011-04-15T23:36:47Z</time>
      </trkpt>
      <trkpt lat="38.389253653585911" lon="-3.50687563419342">
        <ele>689.88330078125</ele>
        <time>2011-04-15T23:36:55Z</time>
      </trkpt>
      <trkpt lat="38.388660633936524" lon="-3.507486088201404">
        <ele>683.634521484375</ele>
        <time>2011-04-15T23:37:00Z</time>
      </trkpt>
      <trkpt lat="38.388603553175926" lon="-3.507663533091545">
        <ele>682.192626953125</ele>
        <time>2011-04-15T23:37:01Z</time>
      </trkpt>
      <trkpt lat="38.388494420796633" lon="-3.508030157536268">
        <ele>680.27001953125</ele>
        <time>2011-04-15T23:37:03Z</time>
      </trkpt>
      <trkpt lat="38.388129472732544" lon="-3.508700877428055">
        <ele>675.944091796875</ele>
        <time>2011-04-15T23:37:07Z</time>
      </trkpt>
      <trkpt lat="38.386903367936611" lon="-3.510169554501772">
        <ele>665.850341796875</ele>
        <time>2011-04-15T23:37:17Z</time>
      </trkpt>
      <trkpt lat="38.386759953573346" lon="-3.510076431557536">
        <ele>666.8115234375</ele>
        <time>2011-04-15T23:37:19Z</time>
      </trkpt>
      <trkpt lat="38.386163329705596" lon="-3.509733779355884">
        <ele>662.96630859375</ele>
        <time>2011-04-15T23:37:24Z</time>
      </trkpt>
      <trkpt lat="38.385475929826498" lon="-3.50880959071219">
        <ele>656.7177734375</ele>
        <time>2011-04-15T23:37:31Z</time>
      </trkpt>
      <trkpt lat="38.384876623749733" lon="-3.508664919063449">
        <ele>654.314697265625</ele>
        <time>2011-04-15T23:37:36Z</time>
      </trkpt>
      <trkpt lat="38.384628938511014" lon="-3.508845968171954">
        <ele>652.391845703125</ele>
        <time>2011-04-15T23:37:38Z</time>
      </trkpt>
      <trkpt lat="38.383689830079675" lon="-3.509648619219661">
        <ele>646.143310546875</ele>
        <time>2011-04-15T23:37:45Z</time>
      </trkpt>
      <trkpt lat="38.382940152660012" lon="-3.509998228400946">
        <ele>641.336669921875</ele>
        <time>2011-04-15T23:37:50Z</time>
      </trkpt>
      <trkpt lat="38.382357526570559" lon="-3.510627457872033">
        <ele>636.5302734375</ele>
        <time>2011-04-15T23:37:55Z</time>
      </trkpt>
      <trkpt lat="38.382186284288764" lon="-3.511376464739442">
        <ele>632.2041015625</ele>
        <time>2011-04-15T23:37:59Z</time>
      </trkpt>
      <trkpt lat="38.382246969267726" lon="-3.511955151334405">
        <ele>629.320068359375</ele>
        <time>2011-04-15T23:38:02Z</time>
      </trkpt>
      <trkpt lat="38.382460288703442" lon="-3.513284521177411">
        <ele>622.1103515625</ele>
        <time>2011-04-15T23:38:09Z</time>
      </trkpt>
      <trkpt lat="38.382324166595936" lon="-3.514171577990055">
        <ele>618.264892578125</ele>
        <time>2011-04-15T23:38:14Z</time>
      </trkpt>
      <trkpt lat="38.381920494139194" lon="-3.514567036181688">
        <ele>614.419677734375</ele>
        <time>2011-04-15T23:38:19Z</time>
      </trkpt>
      <trkpt lat="38.381625954061747" lon="-3.514379616826773">
        <ele>612.0166015625</ele>
        <time>2011-04-15T23:38:22Z</time>
      </trkpt>
      <trkpt lat="38.38148538954556" lon="-3.513791793957353">
        <ele>609.132568359375</ele>
        <time>2011-04-15T23:38:26Z</time>
      </trkpt>
      <trkpt lat="38.381450772285461" lon="-3.513433383777738">
        <ele>607.690673828125</ele>
        <time>2011-04-15T23:38:28Z</time>
      </trkpt>
      <trkpt lat="38.381083393469453" lon="-3.512582452967763">
        <ele>605.287353515625</ele>
        <time>2011-04-15T23:38:33Z</time>
      </trkpt>
      <trkpt lat="38.380711656063795" lon="-3.512171991169453">
        <ele>604.806640625</ele>
        <time>2011-04-15T23:38:36Z</time>
      </trkpt>
      <trkpt lat="38.379792999476194" lon="-3.51180637255311">
        <ele>603.84521484375</ele>
        <time>2011-04-15T23:38:42Z</time>
      </trkpt>
      <trkpt lat="38.3794697932899" lon="-3.51189237087965">
        <ele>601.922607421875</ele>
        <time>2011-04-15T23:38:44Z</time>
      </trkpt>
      <trkpt lat="38.378607295453548" lon="-3.512217840179801">
        <ele>600.961181640625</ele>
        <time>2011-04-15T23:38:49Z</time>
      </trkpt>
      <trkpt lat="38.377290749922395" lon="-3.512209542095661">
        <ele>600</ele>
        <time>2011-04-15T23:38:56Z</time>
      </trkpt>
      <trkpt lat="38.377108192071319" lon="-3.512212475761771">
        <ele>600</ele>
        <time>2011-04-15T23:38:57Z</time>
      </trkpt>
      <trkpt lat="38.37603765539825" lon="-3.512610280886293">
        <ele>598.557861328125</ele>
        <time>2011-04-15T23:39:03Z</time>
      </trkpt>
      <trkpt lat="38.374398490414023" lon="-3.513313438743353">
        <ele>601.44189453125</ele>
        <time>2011-04-15T23:39:12Z</time>
      </trkpt>
      <trkpt lat="38.374020550400019" lon="-3.513496080413461">
        <ele>600.480712890625</ele>
        <time>2011-04-15T23:39:15Z</time>
      </trkpt>
      <trkpt lat="38.373605478554964" lon="-3.514089770615101">
        <ele>597.5966796875</ele>
        <time>2011-04-15T23:39:20Z</time>
      </trkpt>
      <trkpt lat="38.373615369200706" lon="-3.5146614164114">
        <ele>594.712646484375</ele>
        <time>2011-04-15T23:39:23Z</time>
      </trkpt>
      <trkpt lat="38.373802788555622" lon="-3.515606643632054">
        <ele>590.867431640625</ele>
        <time>2011-04-15T23:39:28Z</time>
      </trkpt>
      <trkpt lat="38.373717628419399" lon="-3.516417592763901">
        <ele>587.502685546875</ele>
        <time>2011-04-15T23:39:33Z</time>
      </trkpt>
      <trkpt lat="38.373276740312576" lon="-3.516819924116135">
        <ele>585.099609375</ele>
        <time>2011-04-15T23:39:37Z</time>
      </trkpt>
      <trkpt lat="38.373129554092884" lon="-3.516867449507117">
        <ele>584.618896484375</ele>
        <time>2011-04-15T23:39:38Z</time>
      </trkpt>
      <trkpt lat="38.371857181191444" lon="-3.517164252698422">
        <ele>580.29296875</ele>
        <time>2011-04-15T23:39:45Z</time>
      </trkpt>
      <trkpt lat="38.37083819322288" lon="-3.517432976514101">
        <ele>579.812255859375</ele>
        <time>2011-04-15T23:39:50Z</time>
      </trkpt>
      <trkpt lat="38.369689537212253" lon="-3.518216265365481">
        <ele>582.6962890625</ele>
        <time>2011-04-15T23:39:56Z</time>
      </trkpt>
      <trkpt lat="38.368935249745846" lon="-3.519291747361422">
        <ele>585.099609375</ele>
        <time>2011-04-15T23:40:01Z</time>
      </trkpt>
      <trkpt lat="38.367963116616011" lon="-3.52084793150425">
        <ele>588.46435546875</ele>
        <time>2011-04-15T23:40:08Z</time>
      </trkpt>
      <trkpt lat="38.367044627666473" lon="-3.521602973341942">
        <ele>591.34814453125</ele>
        <time>2011-04-15T23:40:13Z</time>
      </trkpt>
      <trkpt lat="38.365679467096925" lon="-3.522167159244418">
        <ele>593.75146484375</ele>
        <time>2011-04-15T23:40:20Z</time>
      </trkpt>
      <trkpt lat="38.363378969952464" lon="-3.523002248257399">
        <ele>597.115966796875</ele>
        <time>2011-04-15T23:40:32Z</time>
      </trkpt>
      <trkpt lat="38.362311786040664" lon="-3.523662239313126">
        <ele>598.557861328125</ele>
        <time>2011-04-15T23:40:38Z</time>
      </trkpt>
      <trkpt lat="38.361407378688455" lon="-3.524671671912074">
        <ele>600</ele>
        <time>2011-04-15T23:40:44Z</time>
      </trkpt>
      <trkpt lat="38.360861968249083" lon="-3.525761319324374">
        <ele>601.44189453125</ele>
        <time>2011-04-15T23:40:49Z</time>
      </trkpt>
      <trkpt lat="38.360441029071808" lon="-3.5272450838238">
        <ele>602.403076171875</ele>
        <time>2011-04-15T23:40:55Z</time>
      </trkpt>
      <trkpt lat="38.360101142898202" lon="-3.528426932170987">
        <ele>606.24853515625</ele>
        <time>2011-04-15T23:41:00Z</time>
      </trkpt>
      <trkpt lat="38.359440816566348" lon="-3.529384396970272">
        <ele>611.535888671875</ele>
        <time>2011-04-15T23:41:05Z</time>
      </trkpt>
      <trkpt lat="38.358707819133997" lon="-3.529831320047379">
        <ele>616.34228515625</ele>
        <time>2011-04-15T23:41:09Z</time>
      </trkpt>
      <trkpt lat="38.358304565772414" lon="-3.529920168220997">
        <ele>618.74560546875</ele>
        <time>2011-04-15T23:41:11Z</time>
      </trkpt>
      <trkpt lat="38.357057757675648" lon="-3.529983116313815">
        <ele>624.513671875</ele>
        <time>2011-04-15T23:41:17Z</time>
      </trkpt>
      <trkpt lat="38.35613775998354" lon="-3.530517881736159">
        <ele>630.76220703125</ele>
        <time>2011-04-15T23:41:22Z</time>
      </trkpt>
      <trkpt lat="38.355726040899754" lon="-3.53144726715982">
        <ele>635.568603515625</ele>
        <time>2011-04-15T23:41:26Z</time>
      </trkpt>
      <trkpt lat="38.355682119727135" lon="-3.531707189977169">
        <ele>636.5302734375</ele>
        <time>2011-04-15T23:41:27Z</time>
      </trkpt>
      <trkpt lat="38.355564773082733" lon="-3.532504057511687">
        <ele>640.37548828125</ele>
        <time>2011-04-15T23:41:30Z</time>
      </trkpt>
      <trkpt lat="38.354942416772246" lon="-3.533891933038831">
        <ele>648.06591796875</ele>
        <time>2011-04-15T23:41:36Z</time>
      </trkpt>
      <trkpt lat="38.354830350726843" lon="-3.534114975482225">
        <ele>649.027099609375</ele>
        <time>2011-04-15T23:41:37Z</time>
      </trkpt>
      <trkpt lat="38.354597752913833" lon="-3.535370416939259">
        <ele>654.795166015625</ele>
        <time>2011-04-15T23:41:42Z</time>
      </trkpt>
      <trkpt lat="38.354877792298794" lon="-3.536363421007991">
        <ele>659.12109375</ele>
        <time>2011-04-15T23:41:46Z</time>
      </trkpt>
      <trkpt lat="38.355518169701099" lon="-3.537047719582915">
        <ele>663.447021484375</ele>
        <time>2011-04-15T23:41:50Z</time>
      </trkpt>
      <trkpt lat="38.355710031464696" lon="-3.53716959245503">
        <ele>664.408203125</ele>
        <time>2011-04-15T23:41:51Z</time>
      </trkpt>
      <trkpt lat="38.357327822595835" lon="-3.538084644824266">
        <ele>672.57958984375</ele>
        <time>2011-04-15T23:41:59Z</time>
      </trkpt>
      <trkpt lat="38.35813726298511" lon="-3.539015538990498">
        <ele>677.38623046875</ele>
        <time>2011-04-15T23:42:04Z</time>
      </trkpt>
      <trkpt lat="38.358594831079245" lon="-3.540274333208799">
        <ele>682.67333984375</ele>
        <time>2011-04-15T23:42:09Z</time>
      </trkpt>
      <trkpt lat="38.358611259609461" lon="-3.541660197079182">
        <ele>687.47998046875</ele>
        <time>2011-04-15T23:42:14Z</time>
      </trkpt>
      <trkpt lat="38.358298279345036" lon="-3.542727883905172">
        <ele>691.805908203125</ele>
        <time>2011-04-15T23:42:18Z</time>
      </trkpt>
      <trkpt lat="38.357730992138386" lon="-3.543641176074743">
        <ele>695.651123046875</ele>
        <time>2011-04-15T23:42:22Z</time>
      </trkpt>
      <trkpt lat="38.356780651956797" lon="-3.544463524594903">
        <ele>700.9384765625</ele>
        <time>2011-04-15T23:42:27Z</time>
      </trkpt>
      <trkpt lat="38.355625038966537" lon="-3.544833417981863">
        <ele>709.59033203125</ele>
        <time>2011-04-15T23:42:32Z</time>
      </trkpt>
      <trkpt lat="38.354545952752233" lon="-3.544697798788548">
        <ele>708.1484375</ele>
        <time>2011-04-15T23:42:37Z</time>
      </trkpt>
      <trkpt lat="38.353546829894185" lon="-3.544185999780893">
        <ele>710.551513671875</ele>
        <time>2011-04-15T23:42:42Z</time>
      </trkpt>
      <trkpt lat="38.353367289528251" lon="-3.544038226827979">
        <ele>711.0322265625</ele>
        <time>2011-04-15T23:42:43Z</time>
      </trkpt>
      <trkpt lat="38.351917136460543" lon="-3.542477767914534">
        <ele>719.684326171875</ele>
        <time>2011-04-15T23:42:52Z</time>
      </trkpt>
      <trkpt lat="38.350802259519696" lon="-3.541616359725595">
        <ele>726.413330078125</ele>
        <time>2011-04-15T23:42:58Z</time>
      </trkpt>
      <trkpt lat="38.349531730636954" lon="-3.541225176304579">
        <ele>735.5458984375</ele>
        <time>2011-04-15T23:43:04Z</time>
      </trkpt>
      <trkpt lat="38.348229099065065" lon="-3.54126675054431">
        <ele>741.79443359375</ele>
        <time>2011-04-15T23:43:10Z</time>
      </trkpt>
      <trkpt lat="38.347174236550927" lon="-3.541685678064823">
        <ele>748.043212890625</ele>
        <time>2011-04-15T23:43:15Z</time>
      </trkpt>
      <trkpt lat="38.346006469801068" lon="-3.542599556967616">
        <ele>755.733642578125</ele>
        <time>2011-04-15T23:43:21Z</time>
      </trkpt>
      <trkpt lat="38.343633385375142" lon="-3.544547678902745">
        <ele>765.346923828125</ele>
        <time>2011-04-15T23:43:33Z</time>
      </trkpt>
      <trkpt lat="38.342211479321122" lon="-3.545169029384852">
        <ele>765.346923828125</ele>
        <time>2011-04-15T23:43:39Z</time>
      </trkpt>
      <trkpt lat="38.340641548857093" lon="-3.545430963858962">
        <ele>761.982177734375</ele>
        <time>2011-04-15T23:43:45Z</time>
      </trkpt>
      <trkpt lat="38.339049825444818" lon="-3.545261481776834">
        <ele>756.69482421875</ele>
        <time>2011-04-15T23:43:51Z</time>
      </trkpt>
      <trkpt lat="38.337560780346394" lon="-3.544706851243973">
        <ele>752.368896484375</ele>
        <time>2011-04-15T23:43:57Z</time>
      </trkpt>
      <trkpt lat="38.335065823048353" lon="-3.543380498886108">
        <ele>749.00439453125</ele>
        <time>2011-04-15T23:44:08Z</time>
      </trkpt>
      <trkpt lat="38.3333520591259" lon="-3.542683962732554">
        <ele>747.562255859375</ele>
        <time>2011-04-15T23:44:16Z</time>
      </trkpt>
      <trkpt lat="38.332168199121952" lon="-3.542746072635055">
        <ele>745.158935546875</ele>
        <time>2011-04-15T23:44:21Z</time>
      </trkpt>
      <trkpt lat="38.331012418493629" lon="-3.543338673189282">
        <ele>741.79443359375</ele>
        <time>2011-04-15T23:44:26Z</time>
      </trkpt>
      <trkpt lat="38.330236673355103" lon="-3.544172253459692">
        <ele>737.468505859375</ele>
        <time>2011-04-15T23:44:30Z</time>
      </trkpt>
      <trkpt lat="38.328817030414939" lon="-3.546415083110333">
        <ele>732.662109375</ele>
        <time>2011-04-15T23:44:39Z</time>
      </trkpt>
      <trkpt lat="38.32670085132122" lon="-3.549694251269102">
        <ele>736.026611328125</ele>
        <time>2011-04-15T23:44:52Z</time>
      </trkpt>
      <trkpt lat="38.324434887617826" lon="-3.553237533196807">
        <ele>749.00439453125</ele>
        <time>2011-04-15T23:45:06Z</time>
      </trkpt>
      <trkpt lat="38.322507552802563" lon="-3.555965926498175">
        <ele>748.043212890625</ele>
        <time>2011-04-15T23:45:17Z</time>
      </trkpt>
      <trkpt lat="38.321127388626337" lon="-3.55708465911448">
        <ele>744.67822265625</ele>
        <time>2011-04-15T23:45:23Z</time>
      </trkpt>
      <trkpt lat="38.320289365947247" lon="-3.558046566322446">
        <ele>742.755859375</ele>
        <time>2011-04-15T23:45:27Z</time>
      </trkpt>
      <trkpt lat="38.318476947024465" lon="-3.560932790860534">
        <ele>733.623291015625</ele>
        <time>2011-04-15T23:45:37Z</time>
      </trkpt>
      <trkpt lat="38.317453684285283" lon="-3.563243765383959">
        <ele>728.816650390625</ele>
        <time>2011-04-15T23:45:44Z</time>
      </trkpt>
      <trkpt lat="38.316426733508706" lon="-3.565445858985186">
        <ele>732.662109375</ele>
        <time>2011-04-15T23:45:51Z</time>
      </trkpt>
      <trkpt lat="38.315496342256665" lon="-3.566572051495314">
        <ele>735.5458984375</ele>
        <time>2011-04-15T23:45:56Z</time>
      </trkpt>
      <trkpt lat="38.314482467249036" lon="-3.56783788651228">
        <ele>737.94921875</ele>
        <time>2011-04-15T23:46:02Z</time>
      </trkpt>
      <trkpt lat="38.313892465084791" lon="-3.569166753441095">
        <ele>738.91064453125</ele>
        <time>2011-04-15T23:46:07Z</time>
      </trkpt>
      <trkpt lat="38.31336859613657" lon="-3.571229372173548">
        <ele>736.026611328125</ele>
        <time>2011-04-15T23:46:14Z</time>
      </trkpt>
      <trkpt lat="38.312779096886516" lon="-3.572618085891008">
        <ele>733.142578125</ele>
        <time>2011-04-15T23:46:19Z</time>
      </trkpt>
      <trkpt lat="38.311885921284556" lon="-3.573826337233186">
        <ele>728.3359375</ele>
        <time>2011-04-15T23:46:24Z</time>
      </trkpt>
      <trkpt lat="38.309731939807534" lon="-3.57630729675293">
        <ele>717.761474609375</ele>
        <time>2011-04-15T23:46:35Z</time>
      </trkpt>
      <trkpt lat="38.308518575504422" lon="-3.57743164524436">
        <ele>712.47412109375</ele>
        <time>2011-04-15T23:46:41Z</time>
      </trkpt>
      <trkpt lat="38.307337565347552" lon="-3.577909246087074">
        <ele>705.264404296875</ele>
        <time>2011-04-15T23:46:46Z</time>
      </trkpt>
      <trkpt lat="38.304723082110286" lon="-3.578525818884373">
        <ele>689.88330078125</ele>
        <time>2011-04-15T23:46:56Z</time>
      </trkpt>
      <trkpt lat="38.301775753498077" lon="-3.579339031130076">
        <ele>671.6181640625</ele>
        <time>2011-04-15T23:47:07Z</time>
      </trkpt>
      <trkpt lat="38.300651991739869" lon="-3.580163978040218">
        <ele>663.927490234375</ele>
        <time>2011-04-15T23:47:12Z</time>
      </trkpt>
      <trkpt lat="38.299763090908527" lon="-3.581327050924301">
        <ele>657.198486328125</ele>
        <time>2011-04-15T23:47:17Z</time>
      </trkpt>
      <trkpt lat="38.297709273174405" lon="-3.584403293207288">
        <ele>640.85595703125</ele>
        <time>2011-04-15T23:47:29Z</time>
      </trkpt>
      <trkpt lat="38.295671883970499" lon="-3.587414156645536">
        <ele>638.452880859375</ele>
        <time>2011-04-15T23:47:41Z</time>
      </trkpt>
      <trkpt lat="38.294408563524485" lon="-3.588899346068502">
        <ele>635.088134765625</ele>
        <time>2011-04-15T23:47:48Z</time>
      </trkpt>
      <trkpt lat="38.293307265266776" lon="-3.589616417884827">
        <ele>628.35888671875</ele>
        <time>2011-04-15T23:47:53Z</time>
      </trkpt>
      <trkpt lat="38.292087279260159" lon="-3.589893272146583">
        <ele>620.187744140625</ele>
        <time>2011-04-15T23:47:58Z</time>
      </trkpt>
      <trkpt lat="38.290553223341703" lon="-3.589826049283147">
        <ele>610.574462890625</ele>
        <time>2011-04-15T23:48:04Z</time>
      </trkpt>
      <trkpt lat="38.287364076822996" lon="-3.589433524757624">
        <ele>595.193359375</ele>
        <time>2011-04-15T23:48:16Z</time>
      </trkpt>
      <trkpt lat="38.285542521625757" lon="-3.589365631341934">
        <ele>595.674072265625</ele>
        <time>2011-04-15T23:48:23Z</time>
      </trkpt>
      <trkpt lat="38.284373665228486" lon="-3.589711217209697">
        <ele>597.115966796875</ele>
        <time>2011-04-15T23:48:28Z</time>
      </trkpt>
      <trkpt lat="38.283366244286299" lon="-3.590441197156906">
        <ele>599.519287109375</ele>
        <time>2011-04-15T23:48:33Z</time>
      </trkpt>
      <trkpt lat="38.282544398680329" lon="-3.591571664437652">
        <ele>601.922607421875</ele>
        <time>2011-04-15T23:48:38Z</time>
      </trkpt>
      <trkpt lat="38.281854735687375" lon="-3.593307053670287">
        <ele>605.76806640625</ele>
        <time>2011-04-15T23:48:44Z</time>
      </trkpt>
      <trkpt lat="38.280909676104784" lon="-3.596475496888161">
        <ele>607.690673828125</ele>
        <time>2011-04-15T23:48:54Z</time>
      </trkpt>
      <trkpt lat="38.280093027278781" lon="-3.598377853631973">
        <ele>609.132568359375</ele>
        <time>2011-04-15T23:49:00Z</time>
      </trkpt>
      <trkpt lat="38.278777236118913" lon="-3.600658737123013">
        <ele>612.977783203125</ele>
        <time>2011-04-15T23:49:08Z</time>
      </trkpt>
      <trkpt lat="38.276866916567087" lon="-3.60386598855257">
        <ele>605.76806640625</ele>
        <time>2011-04-15T23:49:20Z</time>
      </trkpt>
      <trkpt lat="38.275811383500695" lon="-3.605294683948159">
        <ele>600.480712890625</ele>
        <time>2011-04-15T23:49:26Z</time>
      </trkpt>
      <trkpt lat="38.274694243445992" lon="-3.606212250888348">
        <ele>594.712646484375</ele>
        <time>2011-04-15T23:49:31Z</time>
      </trkpt>
      <trkpt lat="38.27317544259131" lon="-3.606906523928046">
        <ele>587.02197265625</ele>
        <time>2011-04-15T23:49:37Z</time>
      </trkpt>
      <trkpt lat="38.269903734326363" lon="-3.608246371150017">
        <ele>581.73486328125</ele>
        <time>2011-04-15T23:49:50Z</time>
      </trkpt>
      <trkpt lat="38.268825821578503" lon="-3.609045669436455">
        <ele>585.099609375</ele>
        <time>2011-04-15T23:49:55Z</time>
      </trkpt>
      <trkpt lat="38.267929293215275" lon="-3.610131293535233">
        <ele>588.46435546875</ele>
        <time>2011-04-15T23:50:00Z</time>
      </trkpt>
      <trkpt lat="38.267103089019656" lon="-3.611764255911112">
        <ele>590.867431640625</ele>
        <time>2011-04-15T23:50:06Z</time>
      </trkpt>
      <trkpt lat="38.266207817941904" lon="-3.614338086917996">
        <ele>588.945068359375</ele>
        <time>2011-04-15T23:50:14Z</time>
      </trkpt>
      <trkpt lat="38.264520457014441" lon="-3.61925533041358">
        <ele>575.486328125</ele>
        <time>2011-04-15T23:50:29Z</time>
      </trkpt>
      <trkpt lat="38.263451177626848" lon="-3.622011886909604">
        <ele>569.718505859375</ele>
        <time>2011-04-15T23:50:38Z</time>
      </trkpt>
      <trkpt lat="38.262506620958447" lon="-3.62319759093225">
        <ele>565.873291015625</ele>
        <time>2011-04-15T23:50:43Z</time>
      </trkpt>
      <trkpt lat="38.26154999434948" lon="-3.623785329982638">
        <ele>561.54736328125</ele>
        <time>2011-04-15T23:50:47Z</time>
      </trkpt>
      <trkpt lat="38.25994142331183" lon="-3.624235019087791">
        <ele>551.93408203125</ele>
        <time>2011-04-15T23:50:53Z</time>
      </trkpt>
      <trkpt lat="38.256786055862904" lon="-3.624968687072396">
        <ele>529.3431396484375</ele>
        <time>2011-04-15T23:51:04Z</time>
      </trkpt>
      <trkpt lat="38.255008086562157" lon="-3.625467158854008">
        <ele>515.8846435546875</ele>
        <time>2011-04-15T23:51:11Z</time>
      </trkpt>
      <trkpt lat="38.253348721191287" lon="-3.62631456926465">
        <ele>503.387451171875</ele>
        <time>2011-04-15T23:51:18Z</time>
      </trkpt>
      <trkpt lat="38.252100236713886" lon="-3.626612797379494">
        <ele>494.735595703125</ele>
        <time>2011-04-15T23:51:23Z</time>
      </trkpt>
      <trkpt lat="38.250273484736681" lon="-3.626737939193845">
        <ele>484.641845703125</ele>
        <time>2011-04-15T23:51:30Z</time>
      </trkpt>
      <trkpt lat="38.249073950573802" lon="-3.627187544479966">
        <ele>479.8350830078125</ele>
        <time>2011-04-15T23:51:35Z</time>
      </trkpt>
      <trkpt lat="38.247824460268021" lon="-3.628166550770402">
        <ele>475.0286865234375</ele>
        <time>2011-04-15T23:51:41Z</time>
      </trkpt>
      <trkpt lat="38.246744284406304" lon="-3.628803072497249">
        <ele>469.7413330078125</ele>
        <time>2011-04-15T23:51:46Z</time>
      </trkpt>
      <trkpt lat="38.245568471029401" lon="-3.629065761342645">
        <ele>462.5313720703125</ele>
        <time>2011-04-15T23:51:51Z</time>
      </trkpt>
      <trkpt lat="38.243532171472907" lon="-3.629375472664833">
        <ele>449.5537109375</ele>
        <time>2011-04-15T23:51:59Z</time>
      </trkpt>
      <trkpt lat="38.241365868598223" lon="-3.630007468163967">
        <ele>436.09521484375</ele>
        <time>2011-04-15T23:52:07Z</time>
      </trkpt>
      <trkpt lat="38.239616062492132" lon="-3.6301214620471">
        <ele>426.4820556640625</ele>
        <time>2011-04-15T23:52:13Z</time>
      </trkpt>
      <trkpt lat="38.236891021952033" lon="-3.629901520907879">
        <ele>416.38818359375</ele>
        <time>2011-04-15T23:52:22Z</time>
      </trkpt>
      <trkpt lat="38.233656864613295" lon="-3.629571190103889">
        <ele>409.1783447265625</ele>
        <time>2011-04-15T23:52:33Z</time>
      </trkpt>
      <trkpt lat="38.230330673977733" lon="-3.629224849864841">
        <ele>402.4490966796875</ele>
        <time>2011-04-15T23:52:45Z</time>
      </trkpt>
      <trkpt lat="38.228471651673317" lon="-3.629227029159665">
        <ele>398.603759765625</ele>
        <time>2011-04-15T23:52:52Z</time>
      </trkpt>
      <trkpt lat="38.227442940697074" lon="-3.629591725766659">
        <ele>395.7198486328125</ele>
        <time>2011-04-15T23:52:56Z</time>
      </trkpt>
      <trkpt lat="38.226518165320158" lon="-3.630292620509863">
        <ele>393.3165283203125</ele>
        <time>2011-04-15T23:53:00Z</time>
      </trkpt>
      <trkpt lat="38.225775025784969" lon="-3.6313112732023">
        <ele>391.87451171875</ele>
        <time>2011-04-15T23:53:04Z</time>
      </trkpt>
      <trkpt lat="38.225123165175319" lon="-3.632880868390203">
        <ele>391.87451171875</ele>
        <time>2011-04-15T23:53:09Z</time>
      </trkpt>
      <trkpt lat="38.224385222420096" lon="-3.635566681623459">
        <ele>389.47119140625</ele>
        <time>2011-04-15T23:53:17Z</time>
      </trkpt>
      <trkpt lat="38.223560275509953" lon="-3.637817641720176">
        <ele>388.510009765625</ele>
        <time>2011-04-15T23:53:24Z</time>
      </trkpt>
      <trkpt lat="38.222504239529371" lon="-3.639482455328107">
        <ele>387.0679931640625</ele>
        <time>2011-04-15T23:53:30Z</time>
      </trkpt>
      <trkpt lat="38.221141593530774" lon="-3.640827080234885">
        <ele>384.18408203125</ele>
        <time>2011-04-15T23:53:36Z</time>
      </trkpt>
      <trkpt lat="38.219188945367932" lon="-3.64257755689323">
        <ele>380.8194580078125</ele>
        <time>2011-04-15T23:53:44Z</time>
      </trkpt>
      <trkpt lat="38.215826125815511" lon="-3.645944818854332">
        <ele>374.57080078125</ele>
        <time>2011-04-15T23:53:58Z</time>
      </trkpt>
      <trkpt lat="38.213756969198585" lon="-3.647620277479291">
        <ele>368.802978515625</ele>
        <time>2011-04-15T23:54:06Z</time>
      </trkpt>
      <trkpt lat="38.212421229109168" lon="-3.649259693920612">
        <ele>369.28369140625</ele>
        <time>2011-04-15T23:54:12Z</time>
      </trkpt>
      <trkpt lat="38.211005860939622" lon="-3.650732478126884">
        <ele>369.28369140625</ele>
        <time>2011-04-15T23:54:18Z</time>
      </trkpt>
      <trkpt lat="38.209640448912978" lon="-3.652200233191252">
        <ele>368.322265625</ele>
        <time>2011-04-15T23:54:24Z</time>
      </trkpt>
      <trkpt lat="38.208778370171785" lon="-3.65369439125061">
        <ele>368.322265625</ele>
        <time>2011-04-15T23:54:29Z</time>
      </trkpt>
      <trkpt lat="38.208078145980835" lon="-3.655735217034817">
        <ele>369.28369140625</ele>
        <time>2011-04-15T23:54:35Z</time>
      </trkpt>
      <trkpt lat="38.206913648173213" lon="-3.659532638266683">
        <ele>368.802978515625</ele>
        <time>2011-04-15T23:54:46Z</time>
      </trkpt>
      <trkpt lat="38.205863563343883" lon="-3.662404445931315">
        <ele>367.841552734375</ele>
        <time>2011-04-15T23:54:55Z</time>
      </trkpt>
      <trkpt lat="38.204994359984994" lon="-3.663795841857791">
        <ele>366.8802490234375</ele>
        <time>2011-04-15T23:55:00Z</time>
      </trkpt>
      <trkpt lat="38.203906640410423" lon="-3.664944916963577">
        <ele>365.4383544921875</ele>
        <time>2011-04-15T23:55:05Z</time>
      </trkpt>
      <trkpt lat="38.202360766008496" lon="-3.66593012586236">
        <ele>361.1124267578125</ele>
        <time>2011-04-15T23:55:11Z</time>
      </trkpt>
      <trkpt lat="38.199932025745511" lon="-3.667103592306376">
        <ele>353.902587890625</ele>
        <time>2011-04-15T23:55:20Z</time>
      </trkpt>
      <trkpt lat="38.198509868234396" lon="-3.668175050988793">
        <ele>351.0184326171875</ele>
        <time>2011-04-15T23:55:26Z</time>
      </trkpt>
      <trkpt lat="38.197595067322254" lon="-3.669386571273208">
        <ele>350.537841796875</ele>
        <time>2011-04-15T23:55:31Z</time>
      </trkpt>
      <trkpt lat="38.196164695546031" lon="-3.671657564118505">
        <ele>351.9798583984375</ele>
        <time>2011-04-15T23:55:40Z</time>
      </trkpt>
      <trkpt lat="38.194957617670298" lon="-3.67286866530776">
        <ele>352.941162109375</ele>
        <time>2011-04-15T23:55:46Z</time>
      </trkpt>
      <trkpt lat="38.192291837185621" lon="-3.675242923200131">
        <ele>356.786376953125</ele>
        <time>2011-04-15T23:55:58Z</time>
      </trkpt>
      <trkpt lat="38.19031429477036" lon="-3.677185429260135">
        <ele>355.8251953125</ele>
        <time>2011-04-15T23:56:07Z</time>
      </trkpt>
      <trkpt lat="38.189398152753711" lon="-3.678555032238364">
        <ele>355.344482421875</ele>
        <time>2011-04-15T23:56:12Z</time>
      </trkpt>
      <trkpt lat="38.18879222497344" lon="-3.680139631032944">
        <ele>355.8251953125</ele>
        <time>2011-04-15T23:56:17Z</time>
      </trkpt>
      <trkpt lat="38.18853615783155" lon="-3.681806875392795">
        <ele>356.3057861328125</ele>
        <time>2011-04-15T23:56:22Z</time>
      </trkpt>
      <trkpt lat="38.188581252470613" lon="-3.683781148865819">
        <ele>358.2283935546875</ele>
        <time>2011-04-15T23:56:28Z</time>
      </trkpt>
      <trkpt lat="38.188741346821189" lon="-3.687035171315074">
        <ele>358.708984375</ele>
        <time>2011-04-15T23:56:38Z</time>
      </trkpt>
      <trkpt lat="38.18853129632771" lon="-3.688669223338366">
        <ele>356.3057861328125</ele>
        <time>2011-04-15T23:56:43Z</time>
      </trkpt>
      <trkpt lat="38.188041793182492" lon="-3.690233873203397">
        <ele>354.86376953125</ele>
        <time>2011-04-15T23:56:48Z</time>
      </trkpt>
      <trkpt lat="38.187259258702397" lon="-3.691581599414349">
        <ele>354.3831787109375</ele>
        <time>2011-04-15T23:56:53Z</time>
      </trkpt>
      <trkpt lat="38.186258878558874" lon="-3.692643251270056">
        <ele>354.86376953125</ele>
        <time>2011-04-15T23:56:58Z</time>
      </trkpt>
      <trkpt lat="38.185106283053756" lon="-3.693366190418601">
        <ele>355.344482421875</ele>
        <time>2011-04-15T23:57:03Z</time>
      </trkpt>
      <trkpt lat="38.183608520776033" lon="-3.693845048546791">
        <ele>355.8251953125</ele>
        <time>2011-04-15T23:57:09Z</time>
      </trkpt>
      <trkpt lat="38.181269047781825" lon="-3.694549547508359">
        <ele>356.786376953125</ele>
        <time>2011-04-15T23:57:18Z</time>
      </trkpt>
      <trkpt lat="38.180055599659681" lon="-3.695349935442209">
        <ele>357.747802734375</ele>
        <time>2011-04-15T23:57:23Z</time>
      </trkpt>
      <trkpt lat="38.179014651104808" lon="-3.69649582542479">
        <ele>358.2283935546875</ele>
        <time>2011-04-15T23:57:28Z</time>
      </trkpt>
      <trkpt lat="38.177346484735608" lon="-3.698917860165238">
        <ele>361.5931396484375</ele>
        <time>2011-04-15T23:57:37Z</time>
      </trkpt>
      <trkpt lat="38.175839418545365" lon="-3.701433939859271">
        <ele>364.4769287109375</ele>
        <time>2011-04-15T23:57:46Z</time>
      </trkpt>
      <trkpt lat="38.174603171646595" lon="-3.704012045636773">
        <ele>362.07373046875</ele>
        <time>2011-04-15T23:57:55Z</time>
      </trkpt>
      <trkpt lat="38.173695495352149" lon="-3.705271761864424">
        <ele>359.67041015625</ele>
        <time>2011-04-15T23:58:00Z</time>
      </trkpt>
      <trkpt lat="38.17254675552249" lon="-3.706251941621304">
        <ele>355.8251953125</ele>
        <time>2011-04-15T23:58:05Z</time>
      </trkpt>
      <trkpt lat="38.17098998464644" lon="-3.707100860774517">
        <ele>351.4991455078125</ele>
        <time>2011-04-15T23:58:11Z</time>
      </trkpt>
      <trkpt lat="38.169138422235847" lon="-3.707811562344432">
        <ele>349.0958251953125</ele>
        <time>2011-04-15T23:58:18Z</time>
      </trkpt>
      <trkpt lat="38.167372019961476" lon="-3.708446826785803">
        <ele>347.6539306640625</ele>
        <time>2011-04-15T23:58:25Z</time>
      </trkpt>
      <trkpt lat="38.166402820497751" lon="-3.709223158657551">
        <ele>346.692626953125</ele>
        <time>2011-04-15T23:58:30Z</time>
      </trkpt>
      <trkpt lat="38.164762146770954" lon="-3.710725950077176">
        <ele>339.96337890625</ele>
        <time>2011-04-15T23:58:38Z</time>
      </trkpt>
      <trkpt lat="38.162593161687255" lon="-3.712413478642702">
        <ele>335.6373291015625</ele>
        <time>2011-04-15T23:58:47Z</time>
      </trkpt>
      <trkpt lat="38.159143757075071" lon="-3.71478128246963">
        <ele>344.2894287109375</ele>
        <time>2011-04-15T23:59:01Z</time>
      </trkpt>
      <trkpt lat="38.156924899667501" lon="-3.716319445520639">
        <ele>351.0184326171875</ele>
        <time>2011-04-15T23:59:10Z</time>
      </trkpt>
      <trkpt lat="38.153488570824265" lon="-3.718728823587298">
        <ele>359.67041015625</ele>
        <time>2011-04-15T23:59:24Z</time>
      </trkpt>
      <trkpt lat="38.150763865560293" lon="-3.721005097031593">
        <ele>360.151123046875</ele>
        <time>2011-04-15T23:59:35Z</time>
      </trkpt>
      <trkpt lat="38.149160239845514" lon="-3.721967088058591">
        <ele>363.5157470703125</ele>
        <time>2011-04-15T23:59:41Z</time>
      </trkpt>
      <trkpt lat="38.146326569840312" lon="-3.723590075969696">
        <ele>367.841552734375</ele>
        <time>2011-04-15T23:59:52Z</time>
      </trkpt>
      <trkpt lat="38.144724536687136" lon="-3.724693972617388">
        <ele>367.841552734375</ele>
        <time>2011-04-15T23:59:59Z</time>
      </trkpt>
      <trkpt lat="38.143747374415398" lon="-3.725840784609318">
        <ele>365.9189453125</ele>
        <time>2011-04-16T00:00:04Z</time>
      </trkpt>
      <trkpt lat="38.143031224608421" lon="-3.727357657626271">
        <ele>365.4383544921875</ele>
        <time>2011-04-16T00:00:09Z</time>
      </trkpt>
      <trkpt lat="38.14248925074935" lon="-3.729446763172746">
        <ele>364.9576416015625</ele>
        <time>2011-04-16T00:00:15Z</time>
      </trkpt>
      <trkpt lat="38.142076274380088" lon="-3.731291787698865">
        <ele>364.4769287109375</ele>
        <time>2011-04-16T00:00:21Z</time>
      </trkpt>
      <trkpt lat="38.141231797635555" lon="-3.734697690233588">
        <ele>369.28369140625</ele>
        <time>2011-04-16T00:00:33Z</time>
      </trkpt>
      <trkpt lat="38.140368964523077" lon="-3.736610691994429">
        <ele>369.28369140625</ele>
        <time>2011-04-16T00:00:40Z</time>
      </trkpt>
      <trkpt lat="38.139125425368547" lon="-3.739628344774246">
        <ele>362.07373046875</ele>
        <time>2011-04-16T00:00:50Z</time>
      </trkpt>
      <trkpt lat="38.137947432696819" lon="-3.742512222379446">
        <ele>354.86376953125</ele>
        <time>2011-04-16T00:01:00Z</time>
      </trkpt>
      <trkpt lat="38.137042354792356" lon="-3.744060359895229">
        <ele>351.4991455078125</ele>
        <time>2011-04-16T00:01:06Z</time>
      </trkpt>
      <trkpt lat="38.135695466771722" lon="-3.745595254004002">
        <ele>353.421875</ele>
        <time>2011-04-16T00:01:13Z</time>
      </trkpt>
      <trkpt lat="38.134243972599506" lon="-3.747429884970188">
        <ele>357.747802734375</ele>
        <time>2011-04-16T00:01:21Z</time>
      </trkpt>
      <trkpt lat="38.132159980013967" lon="-3.750269925221801">
        <ele>357.747802734375</ele>
        <time>2011-04-16T00:01:33Z</time>
      </trkpt>
      <trkpt lat="38.130545457825065" lon="-3.751877071335912">
        <ele>359.67041015625</ele>
        <time>2011-04-16T00:01:41Z</time>
      </trkpt>
      <trkpt lat="38.127892585471272" lon="-3.754093246534467">
        <ele>363.0350341796875</ele>
        <time>2011-04-16T00:01:53Z</time>
      </trkpt>
      <trkpt lat="38.125828457996249" lon="-3.755975067615509">
        <ele>366.8802490234375</ele>
        <time>2011-04-16T00:02:03Z</time>
      </trkpt>
      <trkpt lat="38.125196378678083" lon="-3.757097236812115">
        <ele>369.7642822265625</ele>
        <time>2011-04-16T00:02:08Z</time>
      </trkpt>
      <trkpt lat="38.124843249097466" lon="-3.758449070155621">
        <ele>373.6094970703125</ele>
        <time>2011-04-16T00:02:13Z</time>
      </trkpt>
      <trkpt lat="38.12458885833621" lon="-3.760062670335174">
        <ele>378.8968505859375</ele>
        <time>2011-04-16T00:02:19Z</time>
      </trkpt>
      <trkpt lat="38.124515097588301" lon="-3.760302560403943">
        <ele>379.8580322265625</ele>
        <time>2011-04-16T00:02:20Z</time>
      </trkpt>
      <trkpt lat="38.123904895037413" lon="-3.761319033801556">
        <ele>381.7806396484375</ele>
        <time>2011-04-16T00:02:25Z</time>
      </trkpt>
      <trkpt lat="38.1231439858675" lon="-3.76182739622891">
        <ele>382.7420654296875</ele>
        <time>2011-04-16T00:02:29Z</time>
      </trkpt>
      <trkpt lat="38.122238656505942" lon="-3.761927979066968">
        <ele>382.7420654296875</ele>
        <time>2011-04-16T00:02:33Z</time>
      </trkpt>
      <trkpt lat="38.121340870857239" lon="-3.761533023789525">
        <ele>381.7806396484375</ele>
        <time>2011-04-16T00:02:37Z</time>
      </trkpt>
      <trkpt lat="38.120952369645238" lon="-3.761162124574184">
        <ele>381.7806396484375</ele>
        <time>2011-04-16T00:02:39Z</time>
      </trkpt>
      <trkpt lat="38.118959236890078" lon="-3.758775293827057">
        <ele>378.4161376953125</ele>
        <time>2011-04-16T00:02:50Z</time>
      </trkpt>
      <trkpt lat="38.117015557363629" lon="-3.756397934630513">
        <ele>368.322265625</ele>
        <time>2011-04-16T00:03:00Z</time>
      </trkpt>
      <trkpt lat="38.113877875730395" lon="-3.752643344923854">
        <ele>351.4991455078125</ele>
        <time>2011-04-16T00:03:15Z</time>
      </trkpt>
      <trkpt lat="38.111249562352896" lon="-3.749785451218486">
        <ele>348.1346435546875</ele>
        <time>2011-04-16T00:03:27Z</time>
      </trkpt>
      <trkpt lat="38.109288197010756" lon="-3.748013768345118">
        <ele>349.0958251953125</ele>
        <time>2011-04-16T00:03:36Z</time>
      </trkpt>
      <trkpt lat="38.10656919144094" lon="-3.745910162106156">
        <ele>343.327880859375</ele>
        <time>2011-04-16T00:03:48Z</time>
      </trkpt>
      <trkpt lat="38.104077838361263" lon="-3.744253143668175">
        <ele>333.7147216796875</ele>
        <time>2011-04-16T00:03:58Z</time>
      </trkpt>
      <trkpt lat="38.100600522011518" lon="-3.741975948214531">
        <ele>329.388916015625</ele>
        <time>2011-04-16T00:04:12Z</time>
      </trkpt>
      <trkpt lat="38.098037587478757" lon="-3.740551276132464">
        <ele>331.3115234375</ele>
        <time>2011-04-16T00:04:22Z</time>
      </trkpt>
      <trkpt lat="38.095642542466521" lon="-3.739630188792944">
        <ele>331.7921142578125</ele>
        <time>2011-04-16T00:04:31Z</time>
      </trkpt>
      <trkpt lat="38.092904761433601" lon="-3.738936083391309">
        <ele>332.7535400390625</ele>
        <time>2011-04-16T00:04:41Z</time>
      </trkpt>
      <trkpt lat="38.088494790717959" lon="-3.737982641905546">
        <ele>335.15673828125</ele>
        <time>2011-04-16T00:04:57Z</time>
      </trkpt>
      <trkpt lat="38.085486860945821" lon="-3.737135650590062">
        <ele>334.6761474609375</ele>
        <time>2011-04-16T00:05:08Z</time>
      </trkpt>
      <trkpt lat="38.082219427451491" lon="-3.736260496079922">
        <ele>329.388916015625</ele>
        <time>2011-04-16T00:05:20Z</time>
      </trkpt>
      <trkpt lat="38.07979672215879" lon="-3.73596821911633">
        <ele>323.6209716796875</ele>
        <time>2011-04-16T00:05:29Z</time>
      </trkpt>
      <trkpt lat="38.07763796299696" lon="-3.736122278496623">
        <ele>317.85302734375</ele>
        <time>2011-04-16T00:05:37Z</time>
      </trkpt>
      <trkpt lat="38.075499068945646" lon="-3.736662492156029">
        <ele>312.085205078125</ele>
        <time>2011-04-16T00:05:45Z</time>
      </trkpt>
      <trkpt lat="38.073442233726382" lon="-3.737578047439456">
        <ele>305.836669921875</ele>
        <time>2011-04-16T00:05:53Z</time>
      </trkpt>
      <trkpt lat="38.071555299684405" lon="-3.738804236054421">
        <ele>304.875244140625</ele>
        <time>2011-04-16T00:06:01Z</time>
      </trkpt>
      <trkpt lat="38.06896286085248" lon="-3.740844558924437">
        <ele>310.64306640625</ele>
        <time>2011-04-16T00:06:13Z</time>
      </trkpt>
      <trkpt lat="38.066221727058291" lon="-3.742938861250877">
        <ele>311.123779296875</ele>
        <time>2011-04-16T00:06:25Z</time>
      </trkpt>
      <trkpt lat="38.063673796132207" lon="-3.74473761767149">
        <ele>303.9139404296875</ele>
        <time>2011-04-16T00:06:35Z</time>
      </trkpt>
      <trkpt lat="38.061039196327329" lon="-3.746693283319473">
        <ele>292.8587646484375</ele>
        <time>2011-04-16T00:06:45Z</time>
      </trkpt>
      <trkpt lat="38.059114627540112" lon="-3.748496817424893">
        <ele>282.2843017578125</ele>
        <time>2011-04-16T00:06:53Z</time>
      </trkpt>
      <trkpt lat="38.056999035179615" lon="-3.750951373949647">
        <ele>269.787109375</ele>
        <time>2011-04-16T00:07:03Z</time>
      </trkpt>
      <trkpt lat="38.053819360211492" lon="-3.754885168746114">
        <ele>263.057861328125</ele>
        <time>2011-04-16T00:07:19Z</time>
      </trkpt>
      <trkpt lat="38.050586292520165" lon="-3.758843857795">
        <ele>268.3450927734375</ele>
        <time>2011-04-16T00:07:36Z</time>
      </trkpt>
      <trkpt lat="38.048479920253158" lon="-3.761390196159482">
        <ele>267.864501953125</ele>
        <time>2011-04-16T00:07:47Z</time>
      </trkpt>
      <trkpt lat="38.045775583013892" lon="-3.764428468421102">
        <ele>270.2677001953125</ele>
        <time>2011-04-16T00:08:00Z</time>
      </trkpt>
      <trkpt lat="38.043220276013017" lon="-3.766886126250029">
        <ele>271.709716796875</ele>
        <time>2011-04-16T00:08:11Z</time>
      </trkpt>
      <trkpt lat="38.040469251573086" lon="-3.769094925373793">
        <ele>269.787109375</ele>
        <time>2011-04-16T00:08:22Z</time>
      </trkpt>
      <trkpt lat="38.038049144670367" lon="-3.770753787830472">
        <ele>265.4613037109375</ele>
        <time>2011-04-16T00:08:32Z</time>
      </trkpt>
      <trkpt lat="38.035314464941621" lon="-3.772374261170626">
        <ele>260.1739501953125</ele>
        <time>2011-04-16T00:08:43Z</time>
      </trkpt>
      <trkpt lat="38.031911579892039" lon="-3.774205874651671">
        <ele>255.8480224609375</ele>
        <time>2011-04-16T00:08:56Z</time>
      </trkpt>
      <trkpt lat="38.029075060039759" lon="-3.775672875344753">
        <ele>254.8865966796875</ele>
        <time>2011-04-16T00:09:07Z</time>
      </trkpt>
      <trkpt lat="38.025694135576487" lon="-3.777407761663199">
        <ele>262.5771484375</ele>
        <time>2011-04-16T00:09:21Z</time>
      </trkpt>
      <trkpt lat="38.022314971312881" lon="-3.779282625764608">
        <ele>276.03564453125</ele>
        <time>2011-04-16T00:09:35Z</time>
      </trkpt>
      <trkpt lat="38.018453763797879" lon="-3.781677754595876">
        <ele>291.416748046875</ele>
        <time>2011-04-16T00:09:51Z</time>
      </trkpt>
      <trkpt lat="38.015080634504557" lon="-3.78392955288291">
        <ele>302.471923828125</ele>
        <time>2011-04-16T00:10:05Z</time>
      </trkpt>
      <trkpt lat="38.012293064966798" lon="-3.785631163045764">
        <ele>302.471923828125</ele>
        <time>2011-04-16T00:10:16Z</time>
      </trkpt>
      <trkpt lat="38.010624144226313" lon="-3.786169951781631">
        <ele>299.1072998046875</ele>
        <time>2011-04-16T00:10:22Z</time>
      </trkpt>
      <trkpt lat="38.007885860279202" lon="-3.786672782152891">
        <ele>287.0908203125</ele>
        <time>2011-04-16T00:10:32Z</time>
      </trkpt>
      <trkpt lat="38.006388349458575" lon="-3.787254737690091">
        <ele>279.4002685546875</ele>
        <time>2011-04-16T00:10:38Z</time>
      </trkpt>
      <trkpt lat="38.005077168345451" lon="-3.78810784779489">
        <ele>274.59375</ele>
        <time>2011-04-16T00:10:44Z</time>
      </trkpt>
      <trkpt lat="38.00382281653583" lon="-3.789288522675633">
        <ele>271.709716796875</ele>
        <time>2011-04-16T00:10:51Z</time>
      </trkpt>
      <trkpt lat="38.002484478056431" lon="-3.790957778692246">
        <ele>267.864501953125</ele>
        <time>2011-04-16T00:10:59Z</time>
      </trkpt>
      <trkpt lat="38.000452285632491" lon="-3.793389284983277">
        <ele>262.0965576171875</ele>
        <time>2011-04-16T00:11:10Z</time>
      </trkpt>
      <trkpt lat="37.998922588303685" lon="-3.794737597927451">
        <ele>260.654541015625</ele>
        <time>2011-04-16T00:11:17Z</time>
      </trkpt>
      <trkpt lat="37.997498838230968" lon="-3.795590540394187">
        <ele>257.770751953125</ele>
        <time>2011-04-16T00:11:23Z</time>
      </trkpt>
      <trkpt lat="37.995722377672791" lon="-3.796218428760767">
        <ele>252.0028076171875</ele>
        <time>2011-04-16T00:11:30Z</time>
      </trkpt>
      <trkpt lat="37.993878442794085" lon="-3.79642722196877">
        <ele>247.6767578125</ele>
        <time>2011-04-16T00:11:37Z</time>
      </trkpt>
      <trkpt lat="37.992244390770793" lon="-3.79624055698514">
        <ele>248.1575927734375</ele>
        <time>2011-04-16T00:11:43Z</time>
      </trkpt>
      <trkpt lat="37.990146148949862" lon="-3.795588864013553">
        <ele>252.4833984375</ele>
        <time>2011-04-16T00:11:51Z</time>
      </trkpt>
      <trkpt lat="37.986567579209805" lon="-3.794053886085749">
        <ele>252.0028076171875</ele>
        <time>2011-04-16T00:12:05Z</time>
      </trkpt>
      <trkpt lat="37.98291047103703" lon="-3.792516561225057">
        <ele>247.196044921875</ele>
        <time>2011-04-16T00:12:19Z</time>
      </trkpt>
      <trkpt lat="37.981265522539616" lon="-3.792158737778664">
        <ele>248.1575927734375</ele>
        <time>2011-04-16T00:12:25Z</time>
      </trkpt>
      <trkpt lat="37.978517599403858" lon="-3.792050946503878">
        <ele>255.3673095703125</ele>
        <time>2011-04-16T00:12:35Z</time>
      </trkpt>
      <trkpt lat="37.976001435890794" lon="-3.791969055309892">
        <ele>267.864501953125</ele>
        <time>2011-04-16T00:12:45Z</time>
      </trkpt>
      <trkpt lat="37.97369004227221" lon="-3.791689099743962">
        <ele>281.322998046875</ele>
        <time>2011-04-16T00:12:55Z</time>
      </trkpt>
      <trkpt lat="37.971425084397197" lon="-3.791109742596746">
        <ele>291.416748046875</ele>
        <time>2011-04-16T00:13:05Z</time>
      </trkpt>
      <trkpt lat="37.968575991690159" lon="-3.790281778201461">
        <ele>297.1846923828125</ele>
        <time>2011-04-16T00:13:17Z</time>
      </trkpt>
      <trkpt lat="37.965862266719341" lon="-3.78971834667027">
        <ele>301.5106201171875</ele>
        <time>2011-04-16T00:13:28Z</time>
      </trkpt>
      <trkpt lat="37.963929818943143" lon="-3.789614075794816">
        <ele>306.7978515625</ele>
        <time>2011-04-16T00:13:36Z</time>
      </trkpt>
      <trkpt lat="37.961549442261457" lon="-3.789826473221183">
        <ele>313.0465087890625</ele>
        <time>2011-04-16T00:13:46Z</time>
      </trkpt>
      <trkpt lat="37.959351455792785" lon="-3.790354784578085">
        <ele>315.4498291015625</ele>
        <time>2011-04-16T00:13:55Z</time>
      </trkpt>
      <trkpt lat="37.956753736361861" lon="-3.791173277422786">
        <ele>313.5272216796875</ele>
        <time>2011-04-16T00:14:05Z</time>
      </trkpt>
      <trkpt lat="37.953719235956669" lon="-3.792075840756297">
        <ele>303.4332275390625</ele>
        <time>2011-04-16T00:14:17Z</time>
      </trkpt>
      <trkpt lat="37.951628789305687" lon="-3.792471047490835">
        <ele>291.8974609375</ele>
        <time>2011-04-16T00:14:25Z</time>
      </trkpt>
      <trkpt lat="37.949314881116152" lon="-3.792557129636407">
        <ele>279.880859375</ele>
        <time>2011-04-16T00:14:33Z</time>
      </trkpt>
      <trkpt lat="37.947252597659826" lon="-3.792260829359293">
        <ele>273.15185546875</ele>
        <time>2011-04-16T00:14:40Z</time>
      </trkpt>
      <trkpt lat="37.944994093850255" lon="-3.791537890210748">
        <ele>273.6324462890625</ele>
        <time>2011-04-16T00:14:48Z</time>
      </trkpt>
      <trkpt lat="37.942948658019304" lon="-3.790503479540348">
        <ele>281.8035888671875</ele>
        <time>2011-04-16T00:14:56Z</time>
      </trkpt>
      <trkpt lat="37.94087908230722" lon="-3.789138654246926">
        <ele>292.8587646484375</ele>
        <time>2011-04-16T00:15:05Z</time>
      </trkpt>
      <trkpt lat="37.937725223600864" lon="-3.786818291991949">
        <ele>300.0687255859375</ele>
        <time>2011-04-16T00:15:19Z</time>
      </trkpt>
      <trkpt lat="37.934181438758969" lon="-3.784320065751672">
        <ele>302.471923828125</ele>
        <time>2011-04-16T00:15:34Z</time>
      </trkpt>
      <trkpt lat="37.932103481143713" lon="-3.783311471343041">
        <ele>303.9139404296875</ele>
        <time>2011-04-16T00:15:42Z</time>
      </trkpt>
      <trkpt lat="37.930492479354143" lon="-3.782935878261924">
        <ele>306.7978515625</ele>
        <time>2011-04-16T00:15:48Z</time>
      </trkpt>
      <trkpt lat="37.928962362930179" lon="-3.782899081707001">
        <ele>312.085205078125</ele>
        <time>2011-04-16T00:15:54Z</time>
      </trkpt>
      <trkpt lat="37.927265781909227" lon="-3.783227065578103">
        <ele>315.930419921875</ele>
        <time>2011-04-16T00:16:01Z</time>
      </trkpt>
      <trkpt lat="37.925412543118" lon="-3.784020328894258">
        <ele>315.930419921875</ele>
        <time>2011-04-16T00:16:09Z</time>
      </trkpt>
      <trkpt lat="37.923385882750154" lon="-3.785325977951288">
        <ele>310.64306640625</ele>
        <time>2011-04-16T00:16:18Z</time>
      </trkpt>
      <trkpt lat="37.920971726998687" lon="-3.787051057443023">
        <ele>302.471923828125</ele>
        <time>2011-04-16T00:16:29Z</time>
      </trkpt>
      <trkpt lat="37.919169869273901" lon="-3.788005085662007">
        <ele>299.5880126953125</ele>
        <time>2011-04-16T00:16:37Z</time>
      </trkpt>
      <trkpt lat="37.917516119778156" lon="-3.788495678454638">
        <ele>301.9913330078125</ele>
        <time>2011-04-16T00:16:44Z</time>
      </trkpt>
      <trkpt lat="37.915833871811628" lon="-3.788557033985853">
        <ele>307.278564453125</ele>
        <time>2011-04-16T00:16:51Z</time>
      </trkpt>
      <trkpt lat="37.914184145629406" lon="-3.788214465603232">
        <ele>310.64306640625</ele>
        <time>2011-04-16T00:16:58Z</time>
      </trkpt>
      <trkpt lat="37.912551518529654" lon="-3.787474427372217">
        <ele>311.123779296875</ele>
        <time>2011-04-16T00:17:05Z</time>
      </trkpt>
      <trkpt lat="37.910489235073328" lon="-3.786050425842404">
        <ele>307.278564453125</ele>
        <time>2011-04-16T00:17:14Z</time>
      </trkpt>
      <trkpt lat="37.908015232533216" lon="-3.78429408185184">
        <ele>300.54931640625</ele>
        <time>2011-04-16T00:17:25Z</time>
      </trkpt>
      <trkpt lat="37.906046658754349" lon="-3.783369055017829">
        <ele>297.1846923828125</ele>
        <time>2011-04-16T00:17:33Z</time>
      </trkpt>
      <trkpt lat="37.903543822467327" lon="-3.782635470852256">
        <ele>296.7041015625</ele>
        <time>2011-04-16T00:17:43Z</time>
      </trkpt>
      <trkpt lat="37.900002049282193" lon="-3.781659565865994">
        <ele>298.1461181640625</ele>
        <time>2011-04-16T00:17:57Z</time>
      </trkpt>
      <trkpt lat="37.896367823705077" lon="-3.780664298683405">
        <ele>299.1072998046875</ele>
        <time>2011-04-16T00:18:11Z</time>
      </trkpt>
      <trkpt lat="37.893130145967007" lon="-3.779793418943882">
        <ele>300.54931640625</ele>
        <time>2011-04-16T00:18:23Z</time>
      </trkpt>
      <trkpt lat="37.890207627788186" lon="-3.778974423184991">
        <ele>304.3946533203125</ele>
        <time>2011-04-16T00:18:34Z</time>
      </trkpt>
      <trkpt lat="37.88829387165606" lon="-3.778138747438788">
        <ele>310.64306640625</ele>
        <time>2011-04-16T00:18:42Z</time>
      </trkpt>
      <trkpt lat="37.886769622564316" lon="-3.776986822485924">
        <ele>313.5272216796875</ele>
        <time>2011-04-16T00:18:49Z</time>
      </trkpt>
      <trkpt lat="37.885414771735668" lon="-3.775481348857284">
        <ele>313.5272216796875</ele>
        <time>2011-04-16T00:18:56Z</time>
      </trkpt>
      <trkpt lat="37.883771667256951" lon="-3.773428536951542">
        <ele>309.681884765625</ele>
        <time>2011-04-16T00:19:05Z</time>
      </trkpt>
      <trkpt lat="37.882421594113111" lon="-3.772147027775645">
        <ele>309.201171875</ele>
        <time>2011-04-16T00:19:12Z</time>
      </trkpt>
      <trkpt lat="37.881011674180627" lon="-3.771237842738628">
        <ele>310.1624755859375</ele>
        <time>2011-04-16T00:19:19Z</time>
      </trkpt>
      <trkpt lat="37.878854591399431" lon="-3.77019077539444">
        <ele>311.6044921875</ele>
        <time>2011-04-16T00:19:29Z</time>
      </trkpt>
      <trkpt lat="37.875840878114104" lon="-3.768635932356119">
        <ele>314.9691162109375</ele>
        <time>2011-04-16T00:19:43Z</time>
      </trkpt>
      <trkpt lat="37.873005531728268" lon="-3.767269095405936">
        <ele>323.140380859375</ele>
        <time>2011-04-16T00:19:56Z</time>
      </trkpt>
      <trkpt lat="37.870842665433884" lon="-3.766185399144888">
        <ele>325.06298828125</ele>
        <time>2011-04-16T00:20:06Z</time>
      </trkpt>
      <trkpt lat="37.868214938789606" lon="-3.764836164191365">
        <ele>325.06298828125</ele>
        <time>2011-04-16T00:20:18Z</time>
      </trkpt>
      <trkpt lat="37.865994656458497" lon="-3.764021694660187">
        <ele>332.7535400390625</ele>
        <time>2011-04-16T00:20:28Z</time>
      </trkpt>
      <trkpt lat="37.86401292309165" lon="-3.763779457658529">
        <ele>339.96337890625</ele>
        <time>2011-04-16T00:20:37Z</time>
      </trkpt>
      <trkpt lat="37.862225817516446" lon="-3.763921866193414">
        <ele>345.2506103515625</ele>
        <time>2011-04-16T00:20:45Z</time>
      </trkpt>
      <trkpt lat="37.860161690041423" lon="-3.764425870031118">
        <ele>347.6539306640625</ele>
        <time>2011-04-16T00:20:54Z</time>
      </trkpt>
      <trkpt lat="37.857621554285288" lon="-3.765095919370651">
        <ele>346.692626953125</ele>
        <time>2011-04-16T00:21:05Z</time>
      </trkpt>
      <trkpt lat="37.854909254238009" lon="-3.765421975404024">
        <ele>350.537841796875</ele>
        <time>2011-04-16T00:21:16Z</time>
      </trkpt>
      <trkpt lat="37.85278033465147" lon="-3.765324242413044">
        <ele>356.786376953125</ele>
        <time>2011-04-16T00:21:25Z</time>
      </trkpt>
      <trkpt lat="37.850775299593806" lon="-3.764945799484849">
        <ele>362.5543212890625</ele>
        <time>2011-04-16T00:21:34Z</time>
      </trkpt>
      <trkpt lat="37.847988652065396" lon="-3.764274995774031">
        <ele>366.8802490234375</ele>
        <time>2011-04-16T00:21:47Z</time>
      </trkpt>
      <trkpt lat="37.845449689775705" lon="-3.763770489022136">
        <ele>369.28369140625</ele>
        <time>2011-04-16T00:21:58Z</time>
      </trkpt>
      <trkpt lat="37.842769073322415" lon="-3.763542585074902">
        <ele>371.206298828125</ele>
        <time>2011-04-16T00:22:09Z</time>
      </trkpt>
      <trkpt lat="37.840261124074459" lon="-3.763626739382744">
        <ele>373.12890625</ele>
        <time>2011-04-16T00:22:19Z</time>
      </trkpt>
      <trkpt lat="37.837824588641524" lon="-3.764019766822457">
        <ele>375.5321044921875</ele>
        <time>2011-04-16T00:22:29Z</time>
      </trkpt>
      <trkpt lat="37.835179343819618" lon="-3.764706831425428">
        <ele>375.051513671875</ele>
        <time>2011-04-16T00:22:40Z</time>
      </trkpt>
      <trkpt lat="37.832319773733616" lon="-3.765525324270129">
        <ele>375.051513671875</ele>
        <time>2011-04-16T00:22:52Z</time>
      </trkpt>
      <trkpt lat="37.829599175602198" lon="-3.766087247058749">
        <ele>379.37744140625</ele>
        <time>2011-04-16T00:23:04Z</time>
      </trkpt>
      <trkpt lat="37.827273029834032" lon="-3.766221525147557">
        <ele>383.22265625</ele>
        <time>2011-04-16T00:23:14Z</time>
      </trkpt>
      <trkpt lat="37.823938624933362" lon="-3.766012731939554">
        <ele>388.029296875</ele>
        <time>2011-04-16T00:23:28Z</time>
      </trkpt>
      <trkpt lat="37.8203119430691" lon="-3.765838220715523">
        <ele>386.106689453125</ele>
        <time>2011-04-16T00:23:43Z</time>
      </trkpt>
      <trkpt lat="37.817968362942338" lon="-3.765820367261767">
        <ele>384.18408203125</ele>
        <time>2011-04-16T00:23:53Z</time>
      </trkpt>
      <trkpt lat="37.815458150580525" lon="-3.765730429440737">
        <ele>388.510009765625</ele>
        <time>2011-04-16T00:24:04Z</time>
      </trkpt>
      <trkpt lat="37.813483122736216" lon="-3.765387777239084">
        <ele>389.951904296875</ele>
        <time>2011-04-16T00:24:12Z</time>
      </trkpt>
      <trkpt lat="37.811201233416796" lon="-3.764635333791375">
        <ele>388.029296875</ele>
        <time>2011-04-16T00:24:21Z</time>
      </trkpt>
      <trkpt lat="37.809067033231258" lon="-3.763525821268559">
        <ele>385.6259765625</ele>
        <time>2011-04-16T00:24:30Z</time>
      </trkpt>
      <trkpt lat="37.807050431147218" lon="-3.762120427563787">
        <ele>385.1453857421875</ele>
        <time>2011-04-16T00:24:39Z</time>
      </trkpt>
      <trkpt lat="37.804598053917289" lon="-3.760213628411293">
        <ele>387.0679931640625</ele>
        <time>2011-04-16T00:24:50Z</time>
      </trkpt>
      <trkpt lat="37.802960565313697" lon="-3.759224396198988">
        <ele>389.47119140625</ele>
        <time>2011-04-16T00:24:57Z</time>
      </trkpt>
      <trkpt lat="37.800835836678743" lon="-3.758377656340599">
        <ele>391.393798828125</ele>
        <time>2011-04-16T00:25:06Z</time>
      </trkpt>
      <trkpt lat="37.798501728102565" lon="-3.75796384178102">
        <ele>392.8359375</ele>
        <time>2011-04-16T00:25:16Z</time>
      </trkpt>
      <trkpt lat="37.796413293108344" lon="-3.757989490404725">
        <ele>394.2779541015625</ele>
        <time>2011-04-16T00:25:25Z</time>
      </trkpt>
      <trkpt lat="37.794088739901781" lon="-3.758187051862478">
        <ele>397.1617431640625</ele>
        <time>2011-04-16T00:25:35Z</time>
      </trkpt>
      <trkpt lat="37.791848676279187" lon="-3.75814413651824">
        <ele>401.48779296875</ele>
        <time>2011-04-16T00:25:45Z</time>
      </trkpt>
      <trkpt lat="37.789827547967434" lon="-3.757814224809408">
        <ele>403.89111328125</ele>
        <time>2011-04-16T00:25:54Z</time>
      </trkpt>
      <trkpt lat="37.787372823804617" lon="-3.757011070847511">
        <ele>405.813720703125</ele>
        <time>2011-04-16T00:26:05Z</time>
      </trkpt>
      <trkpt lat="37.78549712151289" lon="-3.756035082042217">
        <ele>404.852294921875</ele>
        <time>2011-04-16T00:26:14Z</time>
      </trkpt>
      <trkpt lat="37.783700041472912" lon="-3.7547926325351">
        <ele>401.968505859375</ele>
        <time>2011-04-16T00:26:23Z</time>
      </trkpt>
      <trkpt lat="37.781438771635294" lon="-3.752902261912823">
        <ele>398.603759765625</ele>
        <time>2011-04-16T00:26:34Z</time>
      </trkpt>
      <trkpt lat="37.779569271951914" lon="-3.751010969281197">
        <ele>394.758544921875</ele>
        <time>2011-04-16T00:26:44Z</time>
      </trkpt>
      <trkpt lat="37.777568763121963" lon="-3.748619947582483">
        <ele>390.9132080078125</ele>
        <time>2011-04-16T00:26:56Z</time>
      </trkpt>
      <trkpt lat="37.775897327810526" lon="-3.746264884248376">
        <ele>389.47119140625</ele>
        <time>2011-04-16T00:27:07Z</time>
      </trkpt>
      <trkpt lat="37.774418843910098" lon="-3.743788450956345">
        <ele>395.7198486328125</ele>
        <time>2011-04-16T00:27:18Z</time>
      </trkpt>
      <trkpt lat="37.773091485723853" lon="-3.741173045709729">
        <ele>407.255615234375</ele>
        <time>2011-04-16T00:27:30Z</time>
      </trkpt>
      <trkpt lat="37.771789692342281" lon="-3.738039471209049">
        <ele>419.272216796875</ele>
        <time>2011-04-16T00:27:44Z</time>
      </trkpt>
      <trkpt lat="37.770994920283556" lon="-3.73557829298079">
        <ele>425.0401611328125</ele>
        <time>2011-04-16T00:27:54Z</time>
      </trkpt>
      <trkpt lat="37.770471386611462" lon="-3.733059279620647">
        <ele>428.4046630859375</ele>
        <time>2011-04-16T00:28:03Z</time>
      </trkpt>
      <trkpt lat="37.769868643954396" lon="-3.729543155059218">
        <ele>433.2113037109375</ele>
        <time>2011-04-16T00:28:15Z</time>
      </trkpt>
      <trkpt lat="37.76909289881587" lon="-3.726972760632634">
        <ele>437.0565185546875</ele>
        <time>2011-04-16T00:28:24Z</time>
      </trkpt>
      <trkpt lat="37.768161166459322" lon="-3.724877117201686">
        <ele>441.8631591796875</ele>
        <time>2011-04-16T00:28:32Z</time>
      </trkpt>
      <trkpt lat="37.767046457156539" lon="-3.723064698278904">
        <ele>450.5150146484375</ele>
        <time>2011-04-16T00:28:40Z</time>
      </trkpt>
      <trkpt lat="37.765822699293494" lon="-3.721528882160783">
        <ele>460.128173828125</ele>
        <time>2011-04-16T00:28:48Z</time>
      </trkpt>
      <trkpt lat="37.764215972274542" lon="-3.71994704939425">
        <ele>472.1446533203125</ele>
        <time>2011-04-16T00:28:58Z</time>
      </trkpt>
      <trkpt lat="37.762751067057252" lon="-3.718347949907184">
        <ele>483.1998291015625</ele>
        <time>2011-04-16T00:29:08Z</time>
      </trkpt>
      <trkpt lat="37.761807683855295" lon="-3.716849768534303">
        <ele>491.8516845703125</ele>
        <time>2011-04-16T00:29:16Z</time>
      </trkpt>
      <trkpt lat="37.761011319234967" lon="-3.71493274345994">
        <ele>500.984130859375</ele>
        <time>2011-04-16T00:29:25Z</time>
      </trkpt>
      <trkpt lat="37.760438248515129" lon="-3.712655883282423">
        <ele>512.0394287109375</ele>
        <time>2011-04-16T00:29:35Z</time>
      </trkpt>
      <trkpt lat="37.760043796151876" lon="-3.71017986908555">
        <ele>522.6138916015625</ele>
        <time>2011-04-16T00:29:45Z</time>
      </trkpt>
      <trkpt lat="37.759532919153571" lon="-3.708044663071632">
        <ele>531.2657470703125</ele>
        <time>2011-04-16T00:29:53Z</time>
      </trkpt>
      <trkpt lat="37.758653992787004" lon="-3.705665292218328">
        <ele>537.9949951171875</ele>
        <time>2011-04-16T00:30:02Z</time>
      </trkpt>
      <trkpt lat="37.757603153586388" lon="-3.703661849722266">
        <ele>540.3983154296875</ele>
        <time>2011-04-16T00:30:10Z</time>
      </trkpt>
      <trkpt lat="37.756101619452238" lon="-3.701589172706008">
        <ele>540.3983154296875</ele>
        <time>2011-04-16T00:30:19Z</time>
      </trkpt>
      <trkpt lat="37.754099685698748" lon="-3.699302338063717">
        <ele>538.956298828125</ele>
        <time>2011-04-16T00:30:30Z</time>
      </trkpt>
      <trkpt lat="37.752681886777282" lon="-3.69724583812058">
        <ele>537.9949951171875</ele>
        <time>2011-04-16T00:30:39Z</time>
      </trkpt>
      <trkpt lat="37.751727188006043" lon="-3.69538907893002">
        <ele>536.5531005859375</ele>
        <time>2011-04-16T00:30:46Z</time>
      </trkpt>
      <trkpt lat="37.750648856163025" lon="-3.692417275160551">
        <ele>533.6689453125</ele>
        <time>2011-04-16T00:30:56Z</time>
      </trkpt>
      <trkpt lat="37.749767834320664" lon="-3.690140917897224">
        <ele>530.78515625</ele>
        <time>2011-04-16T00:31:04Z</time>
      </trkpt>
      <trkpt lat="37.748699057847261" lon="-3.688334031030536">
        <ele>528.3818359375</ele>
        <time>2011-04-16T00:31:11Z</time>
      </trkpt>
      <trkpt lat="37.747390558943152" lon="-3.686801567673683">
        <ele>526.4591064453125</ele>
        <time>2011-04-16T00:31:18Z</time>
      </trkpt>
      <trkpt lat="37.746118269860744" lon="-3.685762127861381">
        <ele>525.497802734375</ele>
        <time>2011-04-16T00:31:24Z</time>
      </trkpt>
      <trkpt lat="37.74451875127852" lon="-3.684897199273109">
        <ele>524.5364990234375</ele>
        <time>2011-04-16T00:31:31Z</time>
      </trkpt>
      <trkpt lat="37.742915293201804" lon="-3.684412725269795">
        <ele>522.1331787109375</ele>
        <time>2011-04-16T00:31:38Z</time>
      </trkpt>
      <trkpt lat="37.741261292248964" lon="-3.684277357533574">
        <ele>516.845947265625</ele>
        <time>2011-04-16T00:31:45Z</time>
      </trkpt>
      <trkpt lat="37.739562029018998" lon="-3.684505261480808">
        <ele>508.194091796875</ele>
        <time>2011-04-16T00:31:52Z</time>
      </trkpt>
      <trkpt lat="37.737350799143314" lon="-3.685208084061742">
        <ele>496.6583251953125</ele>
        <time>2011-04-16T00:32:01Z</time>
      </trkpt>
      <trkpt lat="37.735854545608163" lon="-3.685422744601965">
        <ele>491.8516845703125</ele>
        <time>2011-04-16T00:32:07Z</time>
      </trkpt>
      <trkpt lat="37.734346641227603" lon="-3.685273043811321">
        <ele>490.4097900390625</ele>
        <time>2011-04-16T00:32:13Z</time>
      </trkpt>
      <trkpt lat="37.732926495373249" lon="-3.684717072173953">
        <ele>491.3709716796875</ele>
        <time>2011-04-16T00:32:19Z</time>
      </trkpt>
      <trkpt lat="37.730969488620758" lon="-3.683504294604063">
        <ele>493.7742919921875</ele>
        <time>2011-04-16T00:32:28Z</time>
      </trkpt>
      <trkpt lat="37.728170687332749" lon="-3.681622389703989">
        <ele>498.100341796875</ele>
        <time>2011-04-16T00:32:41Z</time>
      </trkpt>
      <trkpt lat="37.72469948977232" lon="-3.679292052984238">
        <ele>504.8294677734375</ele>
        <time>2011-04-16T00:32:57Z</time>
      </trkpt>
      <trkpt lat="37.721929773688316" lon="-3.677427582442761">
        <ele>513.9620361328125</ele>
        <time>2011-04-16T00:33:10Z</time>
      </trkpt>
      <trkpt lat="37.719117561355233" lon="-3.675475185737014">
        <ele>517.8072509765625</ele>
        <time>2011-04-16T00:33:23Z</time>
      </trkpt>
      <trkpt lat="37.718191528692842" lon="-3.674482516944408">
        <ele>519.7298583984375</ele>
        <time>2011-04-16T00:33:28Z</time>
      </trkpt>
      <trkpt lat="37.717508738860488" lon="-3.673301925882697">
        <ele>523.0946044921875</ele>
        <time>2011-04-16T00:33:33Z</time>
      </trkpt>
      <trkpt lat="37.71690683439374" lon="-3.671501073986292">
        <ele>531.746337890625</ele>
        <time>2011-04-16T00:33:40Z</time>
      </trkpt>
      <trkpt lat="37.716668620705605" lon="-3.669632580131292">
        <ele>539.4368896484375</ele>
        <time>2011-04-16T00:33:47Z</time>
      </trkpt>
      <trkpt lat="37.716453457251191" lon="-3.66579576395452">
        <ele>552.41455078125</ele>
        <time>2011-04-16T00:34:01Z</time>
      </trkpt>
      <trkpt lat="37.716481285169721" lon="-3.663288569077849">
        <ele>560.105224609375</ele>
        <time>2011-04-16T00:34:10Z</time>
      </trkpt>
      <trkpt lat="37.716825949028134" lon="-3.660983545705676">
        <ele>562.508544921875</ele>
        <time>2011-04-16T00:34:18Z</time>
      </trkpt>
      <trkpt lat="37.717446377500892" lon="-3.658897457644343">
        <ele>562.028076171875</ele>
        <time>2011-04-16T00:34:25Z</time>
      </trkpt>
      <trkpt lat="37.718387497588992" lon="-3.656601319089532">
        <ele>566.353759765625</ele>
        <time>2011-04-16T00:34:33Z</time>
      </trkpt>
      <trkpt lat="37.718873983249068" lon="-3.654895853251219">
        <ele>574.525146484375</ele>
        <time>2011-04-16T00:34:39Z</time>
      </trkpt>
      <trkpt lat="37.718969956040382" lon="-3.65347495302558">
        <ele>580.773681640625</ele>
        <time>2011-04-16T00:34:44Z</time>
      </trkpt>
      <trkpt lat="37.718780525028706" lon="-3.65188255906105">
        <ele>587.02197265625</ele>
        <time>2011-04-16T00:34:50Z</time>
      </trkpt>
      <trkpt lat="37.718318849802017" lon="-3.650406589731574">
        <ele>589.90625</ele>
        <time>2011-04-16T00:34:56Z</time>
      </trkpt>
      <trkpt lat="37.71755768917501" lon="-3.64908023737371">
        <ele>589.425537109375</ele>
        <time>2011-04-16T00:35:02Z</time>
      </trkpt>
      <trkpt lat="37.716520680114627" lon="-3.647959996014834">
        <ele>585.099609375</ele>
        <time>2011-04-16T00:35:08Z</time>
      </trkpt>
      <trkpt lat="37.714666686952114" lon="-3.646098878234625">
        <ele>572.6025390625</ele>
        <time>2011-04-16T00:35:18Z</time>
      </trkpt>
      <trkpt lat="37.712788553908467" lon="-3.643854456022382">
        <ele>559.14404296875</ele>
        <time>2011-04-16T00:35:28Z</time>
      </trkpt>
      <trkpt lat="37.71096708253026" lon="-3.641392691060901">
        <ele>547.12744140625</ele>
        <time>2011-04-16T00:35:38Z</time>
      </trkpt>
      <trkpt lat="37.709544841200113" lon="-3.639936335384846">
        <ele>547.608154296875</ele>
        <time>2011-04-16T00:35:45Z</time>
      </trkpt>
      <trkpt lat="37.70810566842556" lon="-3.638910725712776">
        <ele>554.81787109375</ele>
        <time>2011-04-16T00:35:52Z</time>
      </trkpt>
      <trkpt lat="37.706163749098778" lon="-3.63785108551383">
        <ele>566.353759765625</ele>
        <time>2011-04-16T00:36:02Z</time>
      </trkpt>
      <trkpt lat="37.703829556703568" lon="-3.636561194434762">
        <ele>575.486328125</ele>
        <time>2011-04-16T00:36:15Z</time>
      </trkpt>
      <trkpt lat="37.701286822557449" lon="-3.635228723287582">
        <ele>577.4091796875</ele>
        <time>2011-04-16T00:36:28Z</time>
      </trkpt>
      <trkpt lat="37.699354039505124" lon="-3.634449625387788">
        <ele>580.29296875</ele>
        <time>2011-04-16T00:36:37Z</time>
      </trkpt>
      <trkpt lat="37.696987157687545" lon="-3.633541697636247">
        <ele>586.060791015625</ele>
        <time>2011-04-16T00:36:48Z</time>
      </trkpt>
      <trkpt lat="37.695179767906666" lon="-3.6324233841151">
        <ele>583.657470703125</ele>
        <time>2011-04-16T00:36:57Z</time>
      </trkpt>
      <trkpt lat="37.693724585697055" lon="-3.631752245128155">
        <ele>581.25439453125</ele>
        <time>2011-04-16T00:37:04Z</time>
      </trkpt>
      <trkpt lat="37.691867323592305" lon="-3.631347231566906">
        <ele>576.928466796875</ele>
        <time>2011-04-16T00:37:12Z</time>
      </trkpt>
      <trkpt lat="37.69021256826818" lon="-3.631065264344215">
        <ele>574.04443359375</ele>
        <time>2011-04-16T00:37:19Z</time>
      </trkpt>
      <trkpt lat="37.688126731663942" lon="-3.629793729633093">
        <ele>571.640869140625</ele>
        <time>2011-04-16T00:37:29Z</time>
      </trkpt>
      <trkpt lat="37.686832062900066" lon="-3.629640089347959">
        <ele>574.04443359375</ele>
        <time>2011-04-16T00:37:35Z</time>
      </trkpt>
      <trkpt lat="37.68513766117394" lon="-3.629384357482195">
        <ele>573.56396484375</ele>
        <time>2011-04-16T00:37:43Z</time>
      </trkpt>
      <trkpt lat="37.683971738442779" lon="-3.628683546558023">
        <ele>572.6025390625</ele>
        <time>2011-04-16T00:37:49Z</time>
      </trkpt>
      <trkpt lat="37.682422678917646" lon="-3.627610160037875">
        <ele>571.160400390625</ele>
        <time>2011-04-16T00:37:57Z</time>
      </trkpt>
      <trkpt lat="37.681306293234229" lon="-3.627048069611192">
        <ele>570.6796875</ele>
        <time>2011-04-16T00:38:03Z</time>
      </trkpt>
      <trkpt lat="37.680481849238276" lon="-3.62675285898149">
        <ele>570.198974609375</ele>
        <time>2011-04-16T00:38:09Z</time>
      </trkpt>
      <trkpt lat="37.679617675021291" lon="-3.62641473300755">
        <ele>571.160400390625</ele>
        <time>2011-04-16T00:38:16Z</time>
      </trkpt>
      <trkpt lat="37.679266221821308" lon="-3.62647483125329">
        <ele>572.6025390625</ele>
        <time>2011-04-16T00:38:20Z</time>
      </trkpt>
      <trkpt lat="37.679014764726162" lon="-3.626607852056623">
        <ele>574.525146484375</ele>
        <time>2011-04-16T00:38:26Z</time>
      </trkpt>
      <trkpt lat="37.678647553548217" lon="-3.626465862616897">
        <ele>575.967041015625</ele>
        <time>2011-04-16T00:38:33Z</time>
      </trkpt>
      <trkpt lat="37.678492153063416" lon="-3.626452954486013">
        <ele>577.8896484375</ele>
        <time>2011-04-16T00:38:39Z</time>
      </trkpt>
      <trkpt lat="37.678579576313496" lon="-3.626416996121407">
        <ele>528.862548828125</ele>
        <time>2011-04-16T00:39:19Z</time>
      </trkpt>
      <trkpt lat="37.67860715277493" lon="-3.626630399376154">
        <ele>496.6583251953125</ele>
        <time>2011-04-16T00:40:28Z</time>
      </trkpt>
      <trkpt lat="37.678468348458409" lon="-3.626551944762468">
        <ele>540.87890625</ele>
        <time>2011-04-16T00:40:52Z</time>
      </trkpt>
      <trkpt lat="37.678430881351233" lon="-3.626235947012901">
        <ele>542.801513671875</ele>
        <time>2011-04-16T00:42:31Z</time>
      </trkpt>
      <trkpt lat="37.678265757858753" lon="-3.626213064417243">
        <ele>549.050048828125</ele>
        <time>2011-04-16T00:42:43Z</time>
      </trkpt>
      <trkpt lat="37.677981778979301" lon="-3.626126395538449">
        <ele>594.712646484375</ele>
        <time>2011-04-16T00:54:05Z</time>
      </trkpt>
      <trkpt lat="37.677452294155955" lon="-3.625988094136119">
        <ele>596.635498046875</ele>
        <time>2011-04-16T00:54:14Z</time>
      </trkpt>
      <trkpt lat="37.677071588113904" lon="-3.62567394040525">
        <ele>597.115966796875</ele>
        <time>2011-04-16T00:54:22Z</time>
      </trkpt>
      <trkpt lat="37.676666490733624" lon="-3.625546116381884">
        <ele>598.077392578125</ele>
        <time>2011-04-16T00:54:30Z</time>
      </trkpt>
      <trkpt lat="37.675987053662539" lon="-3.625537734478712">
        <ele>600</ele>
        <time>2011-04-16T00:54:36Z</time>
      </trkpt>
      <trkpt lat="37.675583129748702" lon="-3.625508565455675">
        <ele>600.480712890625</ele>
        <time>2011-04-16T00:54:41Z</time>
      </trkpt>
      <trkpt lat="37.675395794212818" lon="-3.625083351507783">
        <ele>600.961181640625</ele>
        <time>2011-04-16T00:54:50Z</time>
      </trkpt>
      <trkpt lat="37.675271742045879" lon="-3.62500011920929">
        <ele>600.961181640625</ele>
        <time>2011-04-16T00:54:52Z</time>
      </trkpt>
      <trkpt lat="37.674608984962106" lon="-3.624584628269076">
        <ele>600</ele>
        <time>2011-04-16T00:54:59Z</time>
      </trkpt>
      <trkpt lat="37.673632577061653" lon="-3.62368818372488">
        <ele>599.03857421875</ele>
        <time>2011-04-16T00:55:07Z</time>
      </trkpt>
      <trkpt lat="37.672660863026977" lon="-3.622634578496218">
        <ele>600.480712890625</ele>
        <time>2011-04-16T00:55:14Z</time>
      </trkpt>
      <trkpt lat="37.671586470678449" lon="-3.621361451223493">
        <ele>601.922607421875</ele>
        <time>2011-04-16T00:55:21Z</time>
      </trkpt>
      <trkpt lat="37.670627329498529" lon="-3.62055947072804">
        <ele>604.326171875</ele>
        <time>2011-04-16T00:55:26Z</time>
      </trkpt>
      <trkpt lat="37.66926602460444" lon="-3.619899228215218">
        <ele>607.2099609375</ele>
        <time>2011-04-16T00:55:32Z</time>
      </trkpt>
      <trkpt lat="37.667137524113059" lon="-3.619015775620937">
        <ele>610.574462890625</ele>
        <time>2011-04-16T00:55:41Z</time>
      </trkpt>
      <trkpt lat="37.664706688374281" lon="-3.617943227291107">
        <ele>615.381103515625</ele>
        <time>2011-04-16T00:55:52Z</time>
      </trkpt>
      <trkpt lat="37.663556858897209" lon="-3.617089698091149">
        <ele>617.7841796875</ele>
        <time>2011-04-16T00:55:58Z</time>
      </trkpt>
      <trkpt lat="37.662773067131639" lon="-3.616069620475173">
        <ele>620.187744140625</ele>
        <time>2011-04-16T00:56:03Z</time>
      </trkpt>
      <trkpt lat="37.661981731653214" lon="-3.614691467955709">
        <ele>622.1103515625</ele>
        <time>2011-04-16T00:56:09Z</time>
      </trkpt>
      <trkpt lat="37.660911194980145" lon="-3.613493358716369">
        <ele>624.513671875</ele>
        <time>2011-04-16T00:56:15Z</time>
      </trkpt>
      <trkpt lat="37.659599259495735" lon="-3.612093832343817">
        <ele>624.994384765625</ele>
        <time>2011-04-16T00:56:22Z</time>
      </trkpt>
      <trkpt lat="37.658847738057375" lon="-3.610782818868756">
        <ele>625.474853515625</ele>
        <time>2011-04-16T00:56:27Z</time>
      </trkpt>
      <trkpt lat="37.658211132511497" lon="-3.608965622261167">
        <ele>625.95556640625</ele>
        <time>2011-04-16T00:56:33Z</time>
      </trkpt>
      <trkpt lat="37.657401273027062" lon="-3.606961760669947">
        <ele>627.878173828125</ele>
        <time>2011-04-16T00:56:40Z</time>
      </trkpt>
      <trkpt lat="37.656460488215089" lon="-3.60584981739521">
        <ele>628.839599609375</ele>
        <time>2011-04-16T00:56:45Z</time>
      </trkpt>
      <trkpt lat="37.655520625412464" lon="-3.605278925970197">
        <ele>629.80078125</ele>
        <time>2011-04-16T00:56:49Z</time>
      </trkpt>
      <trkpt lat="37.654236517846584" lon="-3.605035599321127">
        <ele>630.281494140625</ele>
        <time>2011-04-16T00:56:54Z</time>
      </trkpt>
      <trkpt lat="37.652918798848987" lon="-3.605303233489394">
        <ele>630.76220703125</ele>
        <time>2011-04-16T00:56:59Z</time>
      </trkpt>
      <trkpt lat="37.649398986250162" lon="-3.606468820944428">
        <ele>636.049560546875</ele>
        <time>2011-04-16T00:57:12Z</time>
      </trkpt>
      <trkpt lat="37.646854491904378" lon="-3.60702152363956">
        <ele>639.4140625</ele>
        <time>2011-04-16T00:57:21Z</time>
      </trkpt>
      <trkpt lat="37.643941948190331" lon="-3.607173655182123">
        <ele>649.5078125</ele>
        <time>2011-04-16T00:57:31Z</time>
      </trkpt>
      <trkpt lat="37.641111379489303" lon="-3.606938123703003">
        <ele>661.5244140625</ele>
        <time>2011-04-16T00:57:41Z</time>
      </trkpt>
      <trkpt lat="37.638927055522799" lon="-3.606412326917052">
        <ele>665.36962890625</ele>
        <time>2011-04-16T00:57:49Z</time>
      </trkpt>
      <trkpt lat="37.636753376573324" lon="-3.605760466307402">
        <ele>665.36962890625</ele>
        <time>2011-04-16T00:57:57Z</time>
      </trkpt>
      <trkpt lat="37.634783126413822" lon="-3.605600288137794">
        <ele>668.734375</ele>
        <time>2011-04-16T00:58:04Z</time>
      </trkpt>
      <trkpt lat="37.633415451273322" lon="-3.605123274028301">
        <ele>671.6181640625</ele>
        <time>2011-04-16T00:58:09Z</time>
      </trkpt>
      <trkpt lat="37.631870666518807" lon="-3.604174442589283">
        <ele>675.944091796875</ele>
        <time>2011-04-16T00:58:15Z</time>
      </trkpt>
      <trkpt lat="37.630520174279809" lon="-3.603675719350576">
        <ele>681.7119140625</ele>
        <time>2011-04-16T00:58:20Z</time>
      </trkpt>
      <trkpt lat="37.628846224397421" lon="-3.603534735739231">
        <ele>687.960693359375</ele>
        <time>2011-04-16T00:58:26Z</time>
      </trkpt>
      <trkpt lat="37.62507738545537" lon="-3.603351842612028">
        <ele>695.651123046875</ele>
        <time>2011-04-16T00:58:39Z</time>
      </trkpt>
      <trkpt lat="37.621607026085258" lon="-3.603212954476476">
        <ele>703.341796875</ele>
        <time>2011-04-16T00:58:51Z</time>
      </trkpt>
      <trkpt lat="37.620266173034906" lon="-3.602820849046111">
        <ele>707.667724609375</ele>
        <time>2011-04-16T00:58:56Z</time>
      </trkpt>
      <trkpt lat="37.619062531739473" lon="-3.601988861337304">
        <ele>711.512939453125</ele>
        <time>2011-04-16T00:59:01Z</time>
      </trkpt>
      <trkpt lat="37.617408195510507" lon="-3.600675920024514">
        <ele>715.358154296875</ele>
        <time>2011-04-16T00:59:08Z</time>
      </trkpt>
      <trkpt lat="37.616347381845117" lon="-3.600360089913011">
        <ele>717.761474609375</ele>
        <time>2011-04-16T00:59:12Z</time>
      </trkpt>
      <trkpt lat="37.615259662270546" lon="-3.600425133481622">
        <ele>719.684326171875</ele>
        <time>2011-04-16T00:59:16Z</time>
      </trkpt>
      <trkpt lat="37.613940266892314" lon="-3.600965095683932">
        <ele>722.08740234375</ele>
        <time>2011-04-16T00:59:21Z</time>
      </trkpt>
      <trkpt lat="37.610781043767929" lon="-3.602434443309903">
        <ele>730.258544921875</ele>
        <time>2011-04-16T00:59:33Z</time>
      </trkpt>
      <trkpt lat="37.609682260081172" lon="-3.602569894865155">
        <ele>734.10400390625</ele>
        <time>2011-04-16T00:59:37Z</time>
      </trkpt>
      <trkpt lat="37.608309555798769" lon="-3.602257752791047">
        <ele>736.98779296875</ele>
        <time>2011-04-16T00:59:42Z</time>
      </trkpt>
      <trkpt lat="37.606713641434908" lon="-3.601401457563043">
        <ele>737.94921875</ele>
        <time>2011-04-16T00:59:48Z</time>
      </trkpt>
      <trkpt lat="37.605087133124471" lon="-3.600776335224509">
        <ele>741.313720703125</ele>
        <time>2011-04-16T00:59:54Z</time>
      </trkpt>
      <trkpt lat="37.603329280391335" lon="-3.600349863991141">
        <ele>744.67822265625</ele>
        <time>2011-04-16T01:00:01Z</time>
      </trkpt>
      <trkpt lat="37.602025140076876" lon="-3.600446674972773">
        <ele>748.043212890625</ele>
        <time>2011-04-16T01:00:06Z</time>
      </trkpt>
      <trkpt lat="37.600756790488958" lon="-3.600973393768072">
        <ele>752.368896484375</ele>
        <time>2011-04-16T01:00:11Z</time>
      </trkpt>
      <trkpt lat="37.597631849348545" lon="-3.602485153824091">
        <ele>757.175537109375</ele>
        <time>2011-04-16T01:00:23Z</time>
      </trkpt>
      <trkpt lat="37.596198124811053" lon="-3.602804252877832">
        <ele>758.136962890625</ele>
        <time>2011-04-16T01:00:28Z</time>
      </trkpt>
      <trkpt lat="37.594704050570726" lon="-3.60271817073226">
        <ele>759.09814453125</ele>
        <time>2011-04-16T01:00:33Z</time>
      </trkpt>
      <trkpt lat="37.590809566900134" lon="-3.602445255964994">
        <ele>770.634033203125</ele>
        <time>2011-04-16T01:00:46Z</time>
      </trkpt>
      <trkpt lat="37.588161388412118" lon="-3.602368729189038">
        <ele>776.40185546875</ele>
        <time>2011-04-16T01:00:55Z</time>
      </trkpt>
      <trkpt lat="37.585824932903051" lon="-3.601995566859841">
        <ele>779.766357421875</ele>
        <time>2011-04-16T01:01:03Z</time>
      </trkpt>
      <trkpt lat="37.584692370146513" lon="-3.602217268198729">
        <ele>782.169921875</ele>
        <time>2011-04-16T01:01:07Z</time>
      </trkpt>
      <trkpt lat="37.583668520674109" lon="-3.602836020290852">
        <ele>785.053955078125</ele>
        <time>2011-04-16T01:01:11Z</time>
      </trkpt>
      <trkpt lat="37.58281733840704" lon="-3.603772865608335">
        <ele>787.937744140625</ele>
        <time>2011-04-16T01:01:15Z</time>
      </trkpt>
      <trkpt lat="37.581339525058866" lon="-3.605450922623277">
        <ele>793.224853515625</ele>
        <time>2011-04-16T01:01:22Z</time>
      </trkpt>
      <trkpt lat="37.580293966457248" lon="-3.606053749099374">
        <ele>796.58984375</ele>
        <time>2011-04-16T01:01:26Z</time>
      </trkpt>
      <trkpt lat="37.578861163929105" lon="-3.606332950294018">
        <ele>800.91552734375</ele>
        <time>2011-04-16T01:01:31Z</time>
      </trkpt>
      <trkpt lat="37.577130468562245" lon="-3.606530344113708">
        <ele>806.683349609375</ele>
        <time>2011-04-16T01:01:37Z</time>
      </trkpt>
      <trkpt lat="37.576060937717557" lon="-3.607053542509675">
        <ele>810.528564453125</ele>
        <time>2011-04-16T01:01:41Z</time>
      </trkpt>
      <trkpt lat="37.575123924762011" lon="-3.607908748090267">
        <ele>812.93212890625</ele>
        <time>2011-04-16T01:01:45Z</time>
      </trkpt>
      <trkpt lat="37.573928162455559" lon="-3.609536765143275">
        <ele>816.296630859375</ele>
        <time>2011-04-16T01:01:51Z</time>
      </trkpt>
      <trkpt lat="37.572951419278979" lon="-3.611415987834334">
        <ele>820.62255859375</ele>
        <time>2011-04-16T01:01:57Z</time>
      </trkpt>
      <trkpt lat="37.571891946718097" lon="-3.614124432206154">
        <ele>827.351806640625</ele>
        <time>2011-04-16T01:02:05Z</time>
      </trkpt>
      <trkpt lat="37.571152243763208" lon="-3.615304436534643">
        <ele>830.716552734375</ele>
        <time>2011-04-16T01:02:09Z</time>
      </trkpt>
      <trkpt lat="37.569790687412024" lon="-3.616714775562286">
        <ele>833.11962890625</ele>
        <time>2011-04-16T01:02:15Z</time>
      </trkpt>
      <trkpt lat="37.568834563717246" lon="-3.618078678846359">
        <ele>835.04248046875</ele>
        <time>2011-04-16T01:02:20Z</time>
      </trkpt>
      <trkpt lat="37.567312577739358" lon="-3.620375990867615">
        <ele>839.848876953125</ele>
        <time>2011-04-16T01:02:28Z</time>
      </trkpt>
      <trkpt lat="37.565948171541095" lon="-3.621807955205441">
        <ele>846.09765625</ele>
        <time>2011-04-16T01:02:34Z</time>
      </trkpt>
      <trkpt lat="37.564272880554199" lon="-3.623437229543924">
        <ele>858.114013671875</ele>
        <time>2011-04-16T01:02:42Z</time>
      </trkpt>
      <trkpt lat="37.562417462468147" lon="-3.625138085335493">
        <ele>872.052978515625</ele>
        <time>2011-04-16T01:02:51Z</time>
      </trkpt>
      <trkpt lat="37.561279451474547" lon="-3.625722974538803">
        <ele>879.262939453125</ele>
        <time>2011-04-16T01:02:56Z</time>
      </trkpt>
      <trkpt lat="37.560050580650568" lon="-3.625973341986537">
        <ele>885.9921875</ele>
        <time>2011-04-16T01:03:01Z</time>
      </trkpt>
      <trkpt lat="37.557979831472039" lon="-3.626056155189872">
        <ele>897.04736328125</ele>
        <time>2011-04-16T01:03:09Z</time>
      </trkpt>
      <trkpt lat="37.55670796148479" lon="-3.62649436108768">
        <ele>904.73779296875</ele>
        <time>2011-04-16T01:03:14Z</time>
      </trkpt>
      <trkpt lat="37.555548492819071" lon="-3.627310926094651">
        <ele>912.428466796875</ele>
        <time>2011-04-16T01:03:19Z</time>
      </trkpt>
      <trkpt lat="37.553796758875251" lon="-3.628849256783724">
        <ele>925.886962890625</ele>
        <time>2011-04-16T01:03:27Z</time>
      </trkpt>
      <trkpt lat="37.551884679123759" lon="-3.630081731826067">
        <ele>937.422607421875</ele>
        <time>2011-04-16T01:03:35Z</time>
      </trkpt>
      <trkpt lat="37.550597554072738" lon="-3.631313452497125">
        <ele>947.035888671875</ele>
        <time>2011-04-16T01:03:41Z</time>
      </trkpt>
      <trkpt lat="37.54862017929554" lon="-3.63357019610703">
        <ele>963.37841796875</ele>
        <time>2011-04-16T01:03:51Z</time>
      </trkpt>
      <trkpt lat="37.547203050926328" lon="-3.634499749168754">
        <ele>972.0302734375</ele>
        <time>2011-04-16T01:03:57Z</time>
      </trkpt>
      <trkpt lat="37.545645358040929" lon="-3.634979277849197">
        <ele>981.162841796875</ele>
        <time>2011-04-16T01:04:03Z</time>
      </trkpt>
      <trkpt lat="37.544036116451025" lon="-3.635022528469563">
        <ele>990.29541015625</ele>
        <time>2011-04-16T01:04:09Z</time>
      </trkpt>
      <trkpt lat="37.542156390845776" lon="-3.635055217891932">
        <ele>1000.38916015625</ele>
        <time>2011-04-16T01:04:16Z</time>
      </trkpt>
      <trkpt lat="37.540597021579742" lon="-3.635524772107601">
        <ele>1010.48291015625</ele>
        <time>2011-04-16T01:04:22Z</time>
      </trkpt>
      <trkpt lat="37.538783764466643" lon="-3.636014023795724">
        <ele>1021.5380859375</ele>
        <time>2011-04-16T01:04:29Z</time>
      </trkpt>
      <trkpt lat="37.537187598645687" lon="-3.636034978553653">
        <ele>1029.709228515625</ele>
        <time>2011-04-16T01:04:35Z</time>
      </trkpt>
      <trkpt lat="37.534587783738971" lon="-3.636019472032785">
        <ele>1044.129150390625</ele>
        <time>2011-04-16T01:04:45Z</time>
      </trkpt>
      <trkpt lat="37.531973887234926" lon="-3.636217284947634">
        <ele>1049.416259765625</ele>
        <time>2011-04-16T01:04:55Z</time>
      </trkpt>
      <trkpt lat="37.530023669824004" lon="-3.636547783389688">
        <ele>1044.129150390625</ele>
        <time>2011-04-16T01:05:02Z</time>
      </trkpt>
      <trkpt lat="37.527938084676862" lon="-3.636893620714545">
        <ele>1033.07373046875</ele>
        <time>2011-04-16T01:05:09Z</time>
      </trkpt>
      <trkpt lat="37.524620946496725" lon="-3.637272650375962">
        <ele>1014.808837890625</ele>
        <time>2011-04-16T01:05:19Z</time>
      </trkpt>
      <trkpt lat="37.519723819568753" lon="-3.63780515268445">
        <ele>999.427734375</ele>
        <time>2011-04-16T01:05:34Z</time>
      </trkpt>
      <trkpt lat="37.516143824905157" lon="-3.638014029711485">
        <ele>992.69873046875</ele>
        <time>2011-04-16T01:05:45Z</time>
      </trkpt>
      <trkpt lat="37.514907494187355" lon="-3.637630054727197">
        <ele>989.333984375</ele>
        <time>2011-04-16T01:05:49Z</time>
      </trkpt>
      <trkpt lat="37.513139080256224" lon="-3.636664543300867">
        <ele>985.96923828125</ele>
        <time>2011-04-16T01:05:55Z</time>
      </trkpt>
      <trkpt lat="37.510628951713443" lon="-3.634923286736012">
        <ele>982.1240234375</ele>
        <time>2011-04-16T01:06:04Z</time>
      </trkpt>
      <trkpt lat="37.507693525403738" lon="-3.63256755284965">
        <ele>975.394775390625</ele>
        <time>2011-04-16T01:06:15Z</time>
      </trkpt>
      <trkpt lat="37.504653828218579" lon="-3.630480542778969">
        <ele>964.339599609375</ele>
        <time>2011-04-16T01:06:26Z</time>
      </trkpt>
      <trkpt lat="37.500780047848821" lon="-3.628186667338014">
        <ele>952.8037109375</ele>
        <time>2011-04-16T01:06:39Z</time>
      </trkpt>
      <trkpt lat="37.496777689084411" lon="-3.62583763897419">
        <ele>949.919921875</ele>
        <time>2011-04-16T01:06:53Z</time>
      </trkpt>
      <trkpt lat="37.492318265140057" lon="-3.623187784105539">
        <ele>947.035888671875</ele>
        <time>2011-04-16T01:07:09Z</time>
      </trkpt>
      <trkpt lat="37.490759985521436" lon="-3.621891522780061">
        <ele>947.5166015625</ele>
        <time>2011-04-16T01:07:15Z</time>
      </trkpt>
      <trkpt lat="37.489920286461711" lon="-3.620740184560418">
        <ele>948.477783203125</ele>
        <time>2011-04-16T01:07:19Z</time>
      </trkpt>
      <trkpt lat="37.489298433065414" lon="-3.619371419772506">
        <ele>949.439208984375</ele>
        <time>2011-04-16T01:07:23Z</time>
      </trkpt>
      <trkpt lat="37.488926695659757" lon="-3.617837699130178">
        <ele>950.400634765625</ele>
        <time>2011-04-16T01:07:27Z</time>
      </trkpt>
      <trkpt lat="37.488840194419026" lon="-3.615811122581363">
        <ele>951.36181640625</ele>
        <time>2011-04-16T01:07:32Z</time>
      </trkpt>
      <trkpt lat="37.489087292924523" lon="-3.613360673189163">
        <ele>952.322998046875</ele>
        <time>2011-04-16T01:07:38Z</time>
      </trkpt>
      <trkpt lat="37.489241771399975" lon="-3.611006196588278">
        <ele>952.8037109375</ele>
        <time>2011-04-16T01:07:44Z</time>
      </trkpt>
      <trkpt lat="37.489014873281121" lon="-3.609044998884201">
        <ele>953.76513671875</ele>
        <time>2011-04-16T01:07:49Z</time>
      </trkpt>
      <trkpt lat="37.488443898037076" lon="-3.607175080105662">
        <ele>955.20703125</ele>
        <time>2011-04-16T01:07:54Z</time>
      </trkpt>
      <trkpt lat="37.48757335357368" lon="-3.605515630915761">
        <ele>956.649169921875</ele>
        <time>2011-04-16T01:07:59Z</time>
      </trkpt>
      <trkpt lat="37.486526789143682" lon="-3.603551583364606">
        <ele>959.052490234375</ele>
        <time>2011-04-16T01:08:05Z</time>
      </trkpt>
      <trkpt lat="37.486052541062236" lon="-3.60170278698206">
        <ele>960.494384765625</ele>
        <time>2011-04-16T01:08:10Z</time>
      </trkpt>
      <trkpt lat="37.48599118553102" lon="-3.60019194893539">
        <ele>962.897705078125</ele>
        <time>2011-04-16T01:08:14Z</time>
      </trkpt>
      <trkpt lat="37.486264854669571" lon="-3.598360670730472">
        <ele>966.742919921875</ele>
        <time>2011-04-16T01:08:19Z</time>
      </trkpt>
      <trkpt lat="37.486896682530642" lon="-3.596663335338235">
        <ele>970.588134765625</ele>
        <time>2011-04-16T01:08:24Z</time>
      </trkpt>
      <trkpt lat="37.489281082525849" lon="-3.591515840962529">
        <ele>988.372802734375</ele>
        <time>2011-04-16T01:08:40Z</time>
      </trkpt>
      <trkpt lat="37.490421524271369" lon="-3.588551161810756">
        <ele>998.46630859375</ele>
        <time>2011-04-16T01:08:49Z</time>
      </trkpt>
      <trkpt lat="37.490705084055662" lon="-3.586775120347738">
        <ele>1004.715087890625</ele>
        <time>2011-04-16T01:08:54Z</time>
      </trkpt>
      <trkpt lat="37.490693181753159" lon="-3.584980051964521">
        <ele>1010.963623046875</ele>
        <time>2011-04-16T01:08:59Z</time>
      </trkpt>
      <trkpt lat="37.490389421582222" lon="-3.583234772086144">
        <ele>1017.212158203125</ele>
        <time>2011-04-16T01:09:04Z</time>
      </trkpt>
      <trkpt lat="37.489816518500447" lon="-3.581609521061182">
        <ele>1023.4609375</ele>
        <time>2011-04-16T01:09:09Z</time>
      </trkpt>
      <trkpt lat="37.489001965150237" lon="-3.580170180648565">
        <ele>1029.709228515625</ele>
        <time>2011-04-16T01:09:14Z</time>
      </trkpt>
      <trkpt lat="37.487615346908569" lon="-3.578420961275697">
        <ele>1037.880615234375</ele>
        <time>2011-04-16T01:09:21Z</time>
      </trkpt>
      <trkpt lat="37.486065616831183" lon="-3.576267985627055">
        <ele>1041.725830078125</ele>
        <time>2011-04-16T01:09:29Z</time>
      </trkpt>
      <trkpt lat="37.484543044120073" lon="-3.573810495436192">
        <ele>1037.880615234375</ele>
        <time>2011-04-16T01:09:37Z</time>
      </trkpt>
      <trkpt lat="37.483119880780578" lon="-3.572111483663321">
        <ele>1032.112548828125</ele>
        <time>2011-04-16T01:09:43Z</time>
      </trkpt>
      <trkpt lat="37.481749271973968" lon="-3.571018818765879">
        <ele>1027.78662109375</ele>
        <time>2011-04-16T01:09:48Z</time>
      </trkpt>
      <trkpt lat="37.480234242975712" lon="-3.570260591804981">
        <ele>1022.980224609375</ele>
        <time>2011-04-16T01:09:53Z</time>
      </trkpt>
      <trkpt lat="37.47858309186995" lon="-3.5698451846838">
        <ele>1017.692626953125</ele>
        <time>2011-04-16T01:09:58Z</time>
      </trkpt>
      <trkpt lat="37.476938897743821" lon="-3.569821128621697">
        <ele>1012.88623046875</ele>
        <time>2011-04-16T01:10:03Z</time>
      </trkpt>
      <trkpt lat="37.475082892924547" lon="-3.570204181596637">
        <ele>1007.59912109375</ele>
        <time>2011-04-16T01:10:09Z</time>
      </trkpt>
      <trkpt lat="37.472049565985799" lon="-3.571094255894423">
        <ele>1006.6376953125</ele>
        <time>2011-04-16T01:10:19Z</time>
      </trkpt>
      <trkpt lat="37.470521796494722" lon="-3.571104984730482">
        <ele>1010.002197265625</ele>
        <time>2011-04-16T01:10:24Z</time>
      </trkpt>
      <trkpt lat="37.469063429161906" lon="-3.570615397766233">
        <ele>1012.88623046875</ele>
        <time>2011-04-16T01:10:29Z</time>
      </trkpt>
      <trkpt lat="37.468003118410707" lon="-3.56987058185041">
        <ele>1013.366943359375</ele>
        <time>2011-04-16T01:10:33Z</time>
      </trkpt>
      <trkpt lat="37.467083036899567" lon="-3.568806666880846">
        <ele>1012.405517578125</ele>
        <time>2011-04-16T01:10:37Z</time>
      </trkpt>
      <trkpt lat="37.466167816892266" lon="-3.567118970677257">
        <ele>1008.560302734375</ele>
        <time>2011-04-16T01:10:42Z</time>
      </trkpt>
      <trkpt lat="37.464919835329056" lon="-3.564721997827292">
        <ele>999.427734375</ele>
        <time>2011-04-16T01:10:49Z</time>
      </trkpt>
      <trkpt lat="37.463931944221258" lon="-3.563650539144874">
        <ele>993.659912109375</ele>
        <time>2011-04-16T01:10:53Z</time>
      </trkpt>
      <trkpt lat="37.46272218413651" lon="-3.56290522031486">
        <ele>987.4111328125</ele>
        <time>2011-04-16T01:10:57Z</time>
      </trkpt>
      <trkpt lat="37.461378565058112" lon="-3.562569273635745">
        <ele>981.162841796875</ele>
        <time>2011-04-16T01:11:01Z</time>
      </trkpt>
      <trkpt lat="37.459999993443489" lon="-3.562662899494171">
        <ele>974.914306640625</ele>
        <time>2011-04-16T01:11:05Z</time>
      </trkpt>
      <trkpt lat="37.457345444709063" lon="-3.563216775655747">
        <ele>964.8203125</ele>
        <time>2011-04-16T01:11:13Z</time>
      </trkpt>
      <trkpt lat="37.455065231770277" lon="-3.563359435647726">
        <ele>957.1298828125</ele>
        <time>2011-04-16T01:11:20Z</time>
      </trkpt>
      <trkpt lat="37.453134376555681" lon="-3.563072942197323">
        <ele>952.322998046875</ele>
        <time>2011-04-16T01:11:26Z</time>
      </trkpt>
      <trkpt lat="37.451346181333065" lon="-3.562439018860459">
        <ele>949.919921875</ele>
        <time>2011-04-16T01:11:32Z</time>
      </trkpt>
      <trkpt lat="37.449359837919474" lon="-3.561383737251163">
        <ele>950.400634765625</ele>
        <time>2011-04-16T01:11:39Z</time>
      </trkpt>
      <trkpt lat="37.446275465190411" lon="-3.559464029967785">
        <ele>958.57177734375</ele>
        <time>2011-04-16T01:11:50Z</time>
      </trkpt>
      <trkpt lat="37.444790527224541" lon="-3.558940663933754">
        <ele>965.301025390625</ele>
        <time>2011-04-16T01:11:55Z</time>
      </trkpt>
      <trkpt lat="37.443277090787888" lon="-3.558791046962142">
        <ele>972.0302734375</ele>
        <time>2011-04-16T01:12:00Z</time>
      </trkpt>
      <trkpt lat="37.441787794232368" lon="-3.559004282578826">
        <ele>978.759521484375</ele>
        <time>2011-04-16T01:12:05Z</time>
      </trkpt>
      <trkpt lat="37.440365049988031" lon="-3.55955614708364">
        <ele>984.046630859375</ele>
        <time>2011-04-16T01:12:10Z</time>
      </trkpt>
      <trkpt lat="37.438786318525672" lon="-3.560644537210465">
        <ele>989.333984375</ele>
        <time>2011-04-16T01:12:16Z</time>
      </trkpt>
      <trkpt lat="37.437114883214235" lon="-3.56235989369452">
        <ele>992.218017578125</ele>
        <time>2011-04-16T01:12:23Z</time>
      </trkpt>
      <trkpt lat="37.43554662913084" lon="-3.563693035393953">
        <ele>991.256591796875</ele>
        <time>2011-04-16T01:12:29Z</time>
      </trkpt>
      <trkpt lat="37.434344328939915" lon="-3.564197290688753">
        <ele>988.853515625</ele>
        <time>2011-04-16T01:12:33Z</time>
      </trkpt>
      <trkpt lat="37.433069190010428" lon="-3.564333077520132">
        <ele>985.008056640625</ele>
        <time>2011-04-16T01:12:37Z</time>
      </trkpt>
      <trkpt lat="37.431786926463246" lon="-3.564086733385921">
        <ele>980.68212890625</ele>
        <time>2011-04-16T01:12:41Z</time>
      </trkpt>
      <trkpt lat="37.430569287389517" lon="-3.563464963808656">
        <ele>976.8369140625</ele>
        <time>2011-04-16T01:12:45Z</time>
      </trkpt>
      <trkpt lat="37.429190296679735" lon="-3.56229686178267">
        <ele>971.54931640625</ele>
        <time>2011-04-16T01:12:50Z</time>
      </trkpt>
      <trkpt lat="37.427515257149935" lon="-3.560302220284939">
        <ele>964.8203125</ele>
        <time>2011-04-16T01:12:57Z</time>
      </trkpt>
      <trkpt lat="37.424983168020844" lon="-3.55715649202466">
        <ele>952.8037109375</ele>
        <time>2011-04-16T01:13:08Z</time>
      </trkpt>
      <trkpt lat="37.423426145687699" lon="-3.555821590125561">
        <ele>946.555419921875</ele>
        <time>2011-04-16T01:13:14Z</time>
      </trkpt>
      <trkpt lat="37.421991331502795" lon="-3.555172579362989">
        <ele>940.787353515625</ele>
        <time>2011-04-16T01:13:19Z</time>
      </trkpt>
      <trkpt lat="37.42073236964643" lon="-3.555014580488205">
        <ele>936.46142578125</ele>
        <time>2011-04-16T01:13:23Z</time>
      </trkpt>
      <trkpt lat="37.419160762801766" lon="-3.555258577689529">
        <ele>930.693603515625</ele>
        <time>2011-04-16T01:13:28Z</time>
      </trkpt>
      <trkpt lat="37.417975729331374" lon="-3.555792085826397">
        <ele>926.848388671875</ele>
        <time>2011-04-16T01:13:32Z</time>
      </trkpt>
      <trkpt lat="37.416686089709401" lon="-3.556798752397299">
        <ele>922.04150390625</ele>
        <time>2011-04-16T01:13:37Z</time>
      </trkpt>
      <trkpt lat="37.415817137807608" lon="-3.557933494448662">
        <ele>918.1962890625</ele>
        <time>2011-04-16T01:13:41Z</time>
      </trkpt>
      <trkpt lat="37.414961764588952" lon="-3.559640385210514">
        <ele>913.870361328125</ele>
        <time>2011-04-16T01:13:46Z</time>
      </trkpt>
      <trkpt lat="37.413791734725237" lon="-3.56210139580071">
        <ele>907.621826171875</ele>
        <time>2011-04-16T01:13:53Z</time>
      </trkpt>
      <trkpt lat="37.412887159734964" lon="-3.563212836161256">
        <ele>904.25732421875</ele>
        <time>2011-04-16T01:13:57Z</time>
      </trkpt>
      <trkpt lat="37.411561226472259" lon="-3.564173988997936">
        <ele>899.45068359375</ele>
        <time>2011-04-16T01:14:02Z</time>
      </trkpt>
      <trkpt lat="37.410100931301713" lon="-3.564634826034308">
        <ele>894.64404296875</ele>
        <time>2011-04-16T01:14:07Z</time>
      </trkpt>
      <trkpt lat="37.408568048849702" lon="-3.564626779407263">
        <ele>888.3955078125</ele>
        <time>2011-04-16T01:14:12Z</time>
      </trkpt>
      <trkpt lat="37.407064167782664" lon="-3.564745299518108">
        <ele>882.627685546875</ele>
        <time>2011-04-16T01:14:17Z</time>
      </trkpt>
      <trkpt lat="37.405876368284225" lon="-3.565225079655647">
        <ele>878.3017578125</ele>
        <time>2011-04-16T01:14:21Z</time>
      </trkpt>
      <trkpt lat="37.404764089733362" lon="-3.566076178103685">
        <ele>874.93701171875</ele>
        <time>2011-04-16T01:14:25Z</time>
      </trkpt>
      <trkpt lat="37.402055645361543" lon="-3.568557556718588">
        <ele>865.8046875</ele>
        <time>2011-04-16T01:14:35Z</time>
      </trkpt>
      <trkpt lat="37.399445185437799" lon="-3.570502158254385">
        <ele>857.63330078125</ele>
        <time>2011-04-16T01:14:44Z</time>
      </trkpt>
      <trkpt lat="37.397594377398491" lon="-3.571844939142466">
        <ele>856.191162109375</ele>
        <time>2011-04-16T01:14:51Z</time>
      </trkpt>
      <trkpt lat="37.395543241873384" lon="-3.573542190715671">
        <ele>855.22998046875</ele>
        <time>2011-04-16T01:14:59Z</time>
      </trkpt>
      <trkpt lat="37.393839117139578" lon="-3.575361398980022">
        <ele>855.22998046875</ele>
        <time>2011-04-16T01:15:06Z</time>
      </trkpt>
      <trkpt lat="37.392582250759006" lon="-3.577179433777928">
        <ele>857.152587890625</ele>
        <time>2011-04-16T01:15:12Z</time>
      </trkpt>
      <trkpt lat="37.391387242823839" lon="-3.579441625624895">
        <ele>863.4013671875</ele>
        <time>2011-04-16T01:15:19Z</time>
      </trkpt>
      <trkpt lat="37.390049155801535" lon="-3.581972373649478">
        <ele>869.64990234375</ele>
        <time>2011-04-16T01:15:27Z</time>
      </trkpt>
      <trkpt lat="37.389115327969193" lon="-3.582982392981648">
        <ele>870.13037109375</ele>
        <time>2011-04-16T01:15:31Z</time>
      </trkpt>
      <trkpt lat="37.387700043618679" lon="-3.583860648795962">
        <ele>866.765869140625</ele>
        <time>2011-04-16T01:15:36Z</time>
      </trkpt>
      <trkpt lat="37.386104632169008" lon="-3.584272619336844">
        <ele>859.0751953125</ele>
        <time>2011-04-16T01:15:41Z</time>
      </trkpt>
      <trkpt lat="37.384244939312339" lon="-3.584847617894411">
        <ele>848.9814453125</ele>
        <time>2011-04-16T01:15:47Z</time>
      </trkpt>
      <trkpt lat="37.383068958297372" lon="-3.585627051070333">
        <ele>843.21337890625</ele>
        <time>2011-04-16T01:15:51Z</time>
      </trkpt>
      <trkpt lat="37.381422417238355" lon="-3.587232185527682">
        <ele>836.484375</ele>
        <time>2011-04-16T01:15:57Z</time>
      </trkpt>
      <trkpt lat="37.378277275711298" lon="-3.590537840500474">
        <ele>827.351806640625</ele>
        <time>2011-04-16T01:16:09Z</time>
      </trkpt>
      <trkpt lat="37.375124422833323" lon="-3.593841399997473">
        <ele>818.21923828125</ele>
        <time>2011-04-16T01:16:22Z</time>
      </trkpt>
      <trkpt lat="37.372250184416771" lon="-3.597149485722184">
        <ele>809.5673828125</ele>
        <time>2011-04-16T01:16:34Z</time>
      </trkpt>
      <trkpt lat="37.369825467467308" lon="-3.600265039131045">
        <ele>802.838134765625</ele>
        <time>2011-04-16T01:16:45Z</time>
      </trkpt>
      <trkpt lat="37.368590896949172" lon="-3.6019925493747">
        <ele>800.43505859375</ele>
        <time>2011-04-16T01:16:52Z</time>
      </trkpt>
      <trkpt lat="37.36719329841435" lon="-3.603883255273104">
        <ele>794.666748046875</ele>
        <time>2011-04-16T01:17:00Z</time>
      </trkpt>
      <trkpt lat="37.365829143673182" lon="-3.605237184092403">
        <ele>787.45703125</ele>
        <time>2011-04-16T01:17:06Z</time>
      </trkpt>
      <trkpt lat="37.36397372558713" lon="-3.606564542278647">
        <ele>783.131103515625</ele>
        <time>2011-04-16T01:17:13Z</time>
      </trkpt>
      <trkpt lat="37.362147644162178" lon="-3.608074961230159">
        <ele>780.72802734375</ele>
        <time>2011-04-16T01:17:20Z</time>
      </trkpt>
      <trkpt lat="37.359667271375656" lon="-3.610672429203987">
        <ele>770.634033203125</ele>
        <time>2011-04-16T01:17:30Z</time>
      </trkpt>
      <trkpt lat="37.357760472223163" lon="-3.612130545079708">
        <ele>763.424072265625</ele>
        <time>2011-04-16T01:17:37Z</time>
      </trkpt>
      <trkpt lat="37.355693578720093" lon="-3.613197058439255">
        <ele>757.175537109375</ele>
        <time>2011-04-16T01:17:44Z</time>
      </trkpt>
      <trkpt lat="37.352419439703226" lon="-3.61469155177474">
        <ele>749.9658203125</ele>
        <time>2011-04-16T01:17:55Z</time>
      </trkpt>
      <trkpt lat="37.350444328039885" lon="-3.616068866103888">
        <ele>745.158935546875</ele>
        <time>2011-04-16T01:18:02Z</time>
      </trkpt>
      <trkpt lat="37.347751474007964" lon="-3.617769135162234">
        <ele>736.50732421875</ele>
        <time>2011-04-16T01:18:11Z</time>
      </trkpt>
      <trkpt lat="37.343482570722699" lon="-3.620088491588831">
        <ele>727.855224609375</ele>
        <time>2011-04-16T01:18:25Z</time>
      </trkpt>
      <trkpt lat="37.339893858879805" lon="-3.622252028435469">
        <ele>720.164794921875</ele>
        <time>2011-04-16T01:18:37Z</time>
      </trkpt>
      <trkpt lat="37.33860949985683" lon="-3.62357234582305">
        <ele>717.281005859375</ele>
        <time>2011-04-16T01:18:42Z</time>
      </trkpt>
      <trkpt lat="37.337295720353723" lon="-3.625460537150502">
        <ele>714.396728515625</ele>
        <time>2011-04-16T01:18:48Z</time>
      </trkpt>
      <trkpt lat="37.33368219807744" lon="-3.630851274356246">
        <ele>706.2255859375</ele>
        <time>2011-04-16T01:19:05Z</time>
      </trkpt>
      <trkpt lat="37.332446873188019" lon="-3.63213705830276">
        <ele>704.78369140625</ele>
        <time>2011-04-16T01:19:10Z</time>
      </trkpt>
      <trkpt lat="37.331315483897924" lon="-3.632801324129105">
        <ele>703.341796875</ele>
        <time>2011-04-16T01:19:14Z</time>
      </trkpt>
      <trkpt lat="37.329779667779803" lon="-3.633198458701372">
        <ele>700.4580078125</ele>
        <time>2011-04-16T01:19:19Z</time>
      </trkpt>
      <trkpt lat="37.327004335820675" lon="-3.633522419258952">
        <ele>696.1318359375</ele>
        <time>2011-04-16T01:19:28Z</time>
      </trkpt>
      <trkpt lat="37.325577987357974" lon="-3.633889965713024">
        <ele>693.728515625</ele>
        <time>2011-04-16T01:19:33Z</time>
      </trkpt>
      <trkpt lat="37.324241492897272" lon="-3.634769059717655">
        <ele>691.805908203125</ele>
        <time>2011-04-16T01:19:38Z</time>
      </trkpt>
      <trkpt lat="37.323332726955414" lon="-3.635831298306584">
        <ele>690.364013671875</ele>
        <time>2011-04-16T01:19:42Z</time>
      </trkpt>
      <trkpt lat="37.322470983490348" lon="-3.637472977861762">
        <ele>687.960693359375</ele>
        <time>2011-04-16T01:19:47Z</time>
      </trkpt>
      <trkpt lat="37.320382632315159" lon="-3.641871130093932">
        <ele>684.115478515625</ele>
        <time>2011-04-16T01:20:00Z</time>
      </trkpt>
      <trkpt lat="37.319330871105194" lon="-3.643269231542945">
        <ele>682.67333984375</ele>
        <time>2011-04-16T01:20:05Z</time>
      </trkpt>
      <trkpt lat="37.318015331402421" lon="-3.644316717982292">
        <ele>680.750732421875</ele>
        <time>2011-04-16T01:20:10Z</time>
      </trkpt>
      <trkpt lat="37.315207477658987" lon="-3.64615386351943">
        <ele>677.86669921875</ele>
        <time>2011-04-16T01:20:20Z</time>
      </trkpt>
      <trkpt lat="37.314277170225978" lon="-3.647214425727725">
        <ele>676.4248046875</ele>
        <time>2011-04-16T01:20:24Z</time>
      </trkpt>
      <trkpt lat="37.312772367149591" lon="-3.649299927055836">
        <ele>675.46337890625</ele>
        <time>2011-04-16T01:20:31Z</time>
      </trkpt>
      <trkpt lat="37.311459090560675" lon="-3.650445733219385">
        <ele>674.021484375</ele>
        <time>2011-04-16T01:20:36Z</time>
      </trkpt>
      <trkpt lat="37.309270491823554" lon="-3.652107026427984">
        <ele>671.6181640625</ele>
        <time>2011-04-16T01:20:44Z</time>
      </trkpt>
      <trkpt lat="37.308171791955829" lon="-3.653555084019899">
        <ele>670.656982421875</ele>
        <time>2011-04-16T01:20:49Z</time>
      </trkpt>
      <trkpt lat="37.306353589519858" lon="-3.65644826553762">
        <ele>669.69580078125</ele>
        <time>2011-04-16T01:20:58Z</time>
      </trkpt>
      <trkpt lat="37.305102841928601" lon="-3.657730026170611">
        <ele>669.69580078125</ele>
        <time>2011-04-16T01:21:03Z</time>
      </trkpt>
      <trkpt lat="37.303652353584766" lon="-3.658622447401285">
        <ele>670.17626953125</ele>
        <time>2011-04-16T01:21:08Z</time>
      </trkpt>
      <trkpt lat="37.302077561616898" lon="-3.659079931676388">
        <ele>672.57958984375</ele>
        <time>2011-04-16T01:21:13Z</time>
      </trkpt>
      <trkpt lat="37.300455244258046" lon="-3.659088481217623">
        <ele>674.021484375</ele>
        <time>2011-04-16T01:21:18Z</time>
      </trkpt>
      <trkpt lat="37.298864861950278" lon="-3.658621776849031">
        <ele>675.46337890625</ele>
        <time>2011-04-16T01:21:23Z</time>
      </trkpt>
      <trkpt lat="37.296465123072267" lon="-3.657453842461109">
        <ele>675.46337890625</ele>
        <time>2011-04-16T01:21:31Z</time>
      </trkpt>
      <trkpt lat="37.294613476842642" lon="-3.656756719574332">
        <ele>674.502197265625</ele>
        <time>2011-04-16T01:21:37Z</time>
      </trkpt>
      <trkpt lat="37.293052095919847" lon="-3.656691340729594">
        <ele>672.57958984375</ele>
        <time>2011-04-16T01:21:42Z</time>
      </trkpt>
      <trkpt lat="37.2918301820755" lon="-3.657022593542934">
        <ele>671.1376953125</ele>
        <time>2011-04-16T01:21:46Z</time>
      </trkpt>
      <trkpt lat="37.288858881220222" lon="-3.658345425501466">
        <ele>666.8115234375</ele>
        <time>2011-04-16T01:21:56Z</time>
      </trkpt>
      <trkpt lat="37.287305630743504" lon="-3.658661590889096">
        <ele>664.408203125</ele>
        <time>2011-04-16T01:22:01Z</time>
      </trkpt>
      <trkpt lat="37.286024121567607" lon="-3.658536784350872">
        <ele>662.005126953125</ele>
        <time>2011-04-16T01:22:05Z</time>
      </trkpt>
      <trkpt lat="37.283484991639853" lon="-3.657848043367267">
        <ele>656.237060546875</ele>
        <time>2011-04-16T01:22:13Z</time>
      </trkpt>
      <trkpt lat="37.282220162451267" lon="-3.657740419730544">
        <ele>655.756591796875</ele>
        <time>2011-04-16T01:22:17Z</time>
      </trkpt>
      <trkpt lat="37.280659787356853" lon="-3.658030768856406">
        <ele>656.7177734375</ele>
        <time>2011-04-16T01:22:22Z</time>
      </trkpt>
      <trkpt lat="37.277287328615785" lon="-3.65879662334919">
        <ele>663.927490234375</ele>
        <time>2011-04-16T01:22:33Z</time>
      </trkpt>
      <trkpt lat="37.275429479777813" lon="-3.658756138756871">
        <ele>667.772705078125</ele>
        <time>2011-04-16T01:22:39Z</time>
      </trkpt>
      <trkpt lat="37.272155676037073" lon="-3.6582918651402">
        <ele>674.021484375</ele>
        <time>2011-04-16T01:22:50Z</time>
      </trkpt>
      <trkpt lat="37.27032758295536" lon="-3.658303180709481">
        <ele>677.38623046875</ele>
        <time>2011-04-16T01:22:56Z</time>
      </trkpt>
      <trkpt lat="37.268530586734414" lon="-3.65875706076622">
        <ele>681.7119140625</ele>
        <time>2011-04-16T01:23:02Z</time>
      </trkpt>
      <trkpt lat="37.265521986410022" lon="-3.659573290497065">
        <ele>688.44140625</ele>
        <time>2011-04-16T01:23:12Z</time>
      </trkpt>
      <trkpt lat="37.263653827831149" lon="-3.65970497019589">
        <ele>691.805908203125</ele>
        <time>2011-04-16T01:23:18Z</time>
      </trkpt>
      <trkpt lat="37.261133557185531" lon="-3.659474467858672">
        <ele>694.689697265625</ele>
        <time>2011-04-16T01:23:26Z</time>
      </trkpt>
      <trkpt lat="37.257443843409419" lon="-3.658934338018298">
        <ele>696.1318359375</ele>
        <time>2011-04-16T01:23:38Z</time>
      </trkpt>
      <trkpt lat="37.252924656495452" lon="-3.658125149086118">
        <ele>695.651123046875</ele>
        <time>2011-04-16T01:23:53Z</time>
      </trkpt>
      <trkpt lat="37.251006038859487" lon="-3.657317636534572">
        <ele>693.247802734375</ele>
        <time>2011-04-16T01:24:00Z</time>
      </trkpt>
      <trkpt lat="37.248506052419543" lon="-3.655966138467193">
        <ele>690.364013671875</ele>
        <time>2011-04-16T01:24:10Z</time>
      </trkpt>
      <trkpt lat="37.245652852579951" lon="-3.654436524957418">
        <ele>687.47998046875</ele>
        <time>2011-04-16T01:24:22Z</time>
      </trkpt>
      <trkpt lat="37.243877062574029" lon="-3.653516946360469">
        <ele>685.557373046875</ele>
        <time>2011-04-16T01:24:30Z</time>
      </trkpt>
      <trkpt lat="37.24311338737607" lon="-3.653185945004225">
        <ele>684.59619140625</ele>
        <time>2011-04-16T01:24:35Z</time>
      </trkpt>
      <trkpt lat="37.242316771298647" lon="-3.653153087943792">
        <ele>683.634521484375</ele>
        <time>2011-04-16T01:24:41Z</time>
      </trkpt>
      <trkpt lat="37.241217736154795" lon="-3.653433378785849">
        <ele>684.59619140625</ele>
        <time>2011-04-16T01:24:48Z</time>
      </trkpt>
      <trkpt lat="37.240783218294382" lon="-3.653635047376156">
        <ele>684.115478515625</ele>
        <time>2011-04-16T01:24:51Z</time>
      </trkpt>
      <trkpt lat="37.240332355722785" lon="-3.654050286859274">
        <ele>682.192626953125</ele>
        <time>2011-04-16T01:24:55Z</time>
      </trkpt>
      <trkpt lat="37.239571027457714" lon="-3.655210677534342">
        <ele>677.86669921875</ele>
        <time>2011-04-16T01:25:02Z</time>
      </trkpt>
      <trkpt lat="37.238564779981971" lon="-3.656726377084851">
        <ele>672.098876953125</ele>
        <time>2011-04-16T01:25:09Z</time>
      </trkpt>
      <trkpt lat="37.236949084326625" lon="-3.659207420423627">
        <ele>662.96630859375</ele>
        <time>2011-04-16T01:25:19Z</time>
      </trkpt>
      <trkpt lat="37.235016971826553" lon="-3.662175619974732">
        <ele>653.353271484375</ele>
        <time>2011-04-16T01:25:31Z</time>
      </trkpt>
      <trkpt lat="37.233478473499417" lon="-3.664880963042378">
        <ele>644.701171875</ele>
        <time>2011-04-16T01:25:41Z</time>
      </trkpt>
      <trkpt lat="37.232472980394959" lon="-3.667188081890345">
        <ele>639.894775390625</ele>
        <time>2011-04-16T01:25:49Z</time>
      </trkpt>
      <trkpt lat="37.231755154207349" lon="-3.669638531282544">
        <ele>634.607421875</ele>
        <time>2011-04-16T01:25:57Z</time>
      </trkpt>
      <trkpt lat="37.231410071253777" lon="-3.671768791973591">
        <ele>633.165283203125</ele>
        <time>2011-04-16T01:26:04Z</time>
      </trkpt>
      <trkpt lat="37.231259029358625" lon="-3.674223851412535">
        <ele>633.64599609375</ele>
        <time>2011-04-16T01:26:12Z</time>
      </trkpt>
      <trkpt lat="37.231353744864464" lon="-3.677158439531922">
        <ele>638.93359375</ele>
        <time>2011-04-16T01:26:21Z</time>
      </trkpt>
      <trkpt lat="37.231726152822375" lon="-3.681373782455921">
        <ele>651.9111328125</ele>
        <time>2011-04-16T01:26:34Z</time>
      </trkpt>
      <trkpt lat="37.231995044276118" lon="-3.685545958578587">
        <ele>658.640380859375</ele>
        <time>2011-04-16T01:26:47Z</time>
      </trkpt>
      <trkpt lat="37.231776360422373" lon="-3.687162827700377">
        <ele>657.67919921875</ele>
        <time>2011-04-16T01:26:52Z</time>
      </trkpt>
      <trkpt lat="37.231234889477491" lon="-3.688681041821837">
        <ele>655.27587890625</ele>
        <time>2011-04-16T01:26:57Z</time>
      </trkpt>
      <trkpt lat="37.230422850698233" lon="-3.690077969804406">
        <ele>650.46923828125</ele>
        <time>2011-04-16T01:27:02Z</time>
      </trkpt>
      <trkpt lat="37.228347659111023" lon="-3.692969726398587">
        <ele>634.126708984375</ele>
        <time>2011-04-16T01:27:13Z</time>
      </trkpt>
      <trkpt lat="37.226972188800573" lon="-3.695128234103322">
        <ele>621.629638671875</ele>
        <time>2011-04-16T01:27:21Z</time>
      </trkpt>
      <trkpt lat="37.226503137499094" lon="-3.696676036342979">
        <ele>614.419677734375</ele>
        <time>2011-04-16T01:27:26Z</time>
      </trkpt>
      <trkpt lat="37.22636659629643" lon="-3.698302293196321">
        <ele>606.729248046875</ele>
        <time>2011-04-16T01:27:31Z</time>
      </trkpt>
      <trkpt lat="37.226135339587927" lon="-3.70090956799686">
        <ele>595.193359375</ele>
        <time>2011-04-16T01:27:39Z</time>
      </trkpt>
      <trkpt lat="37.225654972717166" lon="-3.702463489025831">
        <ele>589.425537109375</ele>
        <time>2011-04-16T01:27:44Z</time>
      </trkpt>
      <trkpt lat="37.224761042743921" lon="-3.704141965135932">
        <ele>586.060791015625</ele>
        <time>2011-04-16T01:27:50Z</time>
      </trkpt>
      <trkpt lat="37.22379544749856" lon="-3.70530772022903">
        <ele>586.54150390625</ele>
        <time>2011-04-16T01:27:55Z</time>
      </trkpt>
      <trkpt lat="37.222638158127666" lon="-3.706175582483411">
        <ele>588.46435546875</ele>
        <time>2011-04-16T01:28:00Z</time>
      </trkpt>
      <trkpt lat="37.220426760613918" lon="-3.70738048106432">
        <ele>590.386962890625</ele>
        <time>2011-04-16T01:28:09Z</time>
      </trkpt>
      <trkpt lat="37.218607887625694" lon="-3.708679676055908">
        <ele>586.060791015625</ele>
        <time>2011-04-16T01:28:17Z</time>
      </trkpt>
      <trkpt lat="37.217093864455819" lon="-3.710153885185719">
        <ele>580.29296875</ele>
        <time>2011-04-16T01:28:24Z</time>
      </trkpt>
      <trkpt lat="37.215702217072248" lon="-3.711941158398986">
        <ele>577.8896484375</ele>
        <time>2011-04-16T01:28:31Z</time>
      </trkpt>
      <trkpt lat="37.214386090636253" lon="-3.714157668873668">
        <ele>578.85107421875</ele>
        <time>2011-04-16T01:28:39Z</time>
      </trkpt>
      <trkpt lat="37.212580628693104" lon="-3.71722393669188">
        <ele>579.812255859375</ele>
        <time>2011-04-16T01:28:50Z</time>
      </trkpt>
      <trkpt lat="37.210982535034418" lon="-3.719293847680092">
        <ele>580.773681640625</ele>
        <time>2011-04-16T01:28:58Z</time>
      </trkpt>
      <trkpt lat="37.209191489964724" lon="-3.721085647121072">
        <ele>584.13818359375</ele>
        <time>2011-04-16T01:29:06Z</time>
      </trkpt>
      <trkpt lat="37.207299442961812" lon="-3.722543092444539">
        <ele>586.54150390625</ele>
        <time>2011-04-16T01:29:14Z</time>
      </trkpt>
      <trkpt lat="37.205228777602315" lon="-3.723702058196068">
        <ele>582.6962890625</ele>
        <time>2011-04-16T01:29:22Z</time>
      </trkpt>
      <trkpt lat="37.202455541118979" lon="-3.724900083616376">
        <ele>577.4091796875</ele>
        <time>2011-04-16T01:29:32Z</time>
      </trkpt>
      <trkpt lat="37.200080277398229" lon="-3.726129122078419">
        <ele>577.4091796875</ele>
        <time>2011-04-16T01:29:41Z</time>
      </trkpt>
      <trkpt lat="37.198162078857422" lon="-3.727530157193542">
        <ele>577.4091796875</ele>
        <time>2011-04-16T01:29:49Z</time>
      </trkpt>
      <trkpt lat="37.196212029084563" lon="-3.729428825899959">
        <ele>577.8896484375</ele>
        <time>2011-04-16T01:29:58Z</time>
      </trkpt>
      <trkpt lat="37.194464234635234" lon="-3.731673834845424">
        <ele>577.4091796875</ele>
        <time>2011-04-16T01:30:07Z</time>
      </trkpt>
      <trkpt lat="37.193103432655334" lon="-3.733990341424942">
        <ele>576.44775390625</ele>
        <time>2011-04-16T01:30:15Z</time>
      </trkpt>
      <trkpt lat="37.192014371976256" lon="-3.736416818574071">
        <ele>575.967041015625</ele>
        <time>2011-04-16T01:30:23Z</time>
      </trkpt>
      <trkpt lat="37.191191017627716" lon="-3.738967264071107">
        <ele>575.967041015625</ele>
        <time>2011-04-16T01:30:31Z</time>
      </trkpt>
      <trkpt lat="37.190732778981328" lon="-3.74130254611373">
        <ele>574.525146484375</ele>
        <time>2011-04-16T01:30:38Z</time>
      </trkpt>
      <trkpt lat="37.190751219168305" lon="-3.743040952831507">
        <ele>573.083251953125</ele>
        <time>2011-04-16T01:30:43Z</time>
      </trkpt>
      <trkpt lat="37.191209541633725" lon="-3.747345982119441">
        <ele>571.640869140625</ele>
        <time>2011-04-16T01:30:55Z</time>
      </trkpt>
      <trkpt lat="37.191745564341545" lon="-3.752038087695837">
        <ele>571.160400390625</ele>
        <time>2011-04-16T01:31:08Z</time>
      </trkpt>
      <trkpt lat="37.192008923739195" lon="-3.754982398822904">
        <ele>571.640869140625</ele>
        <time>2011-04-16T01:31:17Z</time>
      </trkpt>
      <trkpt lat="37.191968187689781" lon="-3.756685182452202">
        <ele>572.121826171875</ele>
        <time>2011-04-16T01:31:23Z</time>
      </trkpt>
      <trkpt lat="37.191849919036031" lon="-3.757965182885528">
        <ele>571.160400390625</ele>
        <time>2011-04-16T01:31:29Z</time>
      </trkpt>
      <trkpt lat="37.191808931529522" lon="-3.758742017671466">
        <ele>569.718505859375</ele>
        <time>2011-04-16T01:31:35Z</time>
      </trkpt>
      <trkpt lat="37.191719580441713" lon="-3.759751953184605">
        <ele>568.2763671875</ele>
        <time>2011-04-16T01:31:45Z</time>
      </trkpt>
      <trkpt lat="37.19158798456192" lon="-3.760719727724791">
        <ele>567.795654296875</ele>
        <time>2011-04-16T01:31:52Z</time>
      </trkpt>
      <trkpt lat="37.19145848415792" lon="-3.762519741430879">
        <ele>567.795654296875</ele>
        <time>2011-04-16T01:32:04Z</time>
      </trkpt>
      <trkpt lat="37.19137785024941" lon="-3.764039548113942">
        <ele>567.795654296875</ele>
        <time>2011-04-16T01:32:16Z</time>
      </trkpt>
      <trkpt lat="37.191338036209345" lon="-3.764347080141306">
        <ele>568.2763671875</ele>
        <time>2011-04-16T01:32:22Z</time>
      </trkpt>
      <trkpt lat="37.191198896616697" lon="-3.764300476759672">
        <ele>558.182861328125</ele>
        <time>2011-04-16T01:34:27Z</time>
      </trkpt>
      <trkpt lat="37.191382292658091" lon="-3.764059832319617">
        <ele>536.0723876953125</ele>
        <time>2011-04-16T01:36:47Z</time>
      </trkpt>
      <trkpt lat="37.191272657364607" lon="-3.764330735430121">
        <ele>546.166259765625</ele>
        <time>2011-04-16T01:39:55Z</time>
      </trkpt>
      <trkpt lat="37.191042490303516" lon="-3.765058452263475">
        <ele>552.41455078125</ele>
        <time>2011-04-16T01:40:02Z</time>
      </trkpt>
      <trkpt lat="37.19075976870954" lon="-3.766283048316836">
        <ele>554.81787109375</ele>
        <time>2011-04-16T01:40:10Z</time>
      </trkpt>
      <trkpt lat="37.190698496997356" lon="-3.767710821703076">
        <ele>555.779296875</ele>
        <time>2011-04-16T01:40:18Z</time>
      </trkpt>
      <trkpt lat="37.190749123692513" lon="-3.769933031871915">
        <ele>555.298583984375</ele>
        <time>2011-04-16T01:40:28Z</time>
      </trkpt>
      <trkpt lat="37.190831769257784" lon="-3.772244676947594">
        <ele>553.856689453125</ele>
        <time>2011-04-16T01:40:38Z</time>
      </trkpt>
      <trkpt lat="37.190697155892849" lon="-3.773789964616299">
        <ele>552.895263671875</ele>
        <time>2011-04-16T01:40:46Z</time>
      </trkpt>
      <trkpt lat="37.190696150064468" lon="-3.774748351424933">
        <ele>552.895263671875</ele>
        <time>2011-04-16T01:40:52Z</time>
      </trkpt>
      <trkpt lat="37.190651558339596" lon="-3.77508781850338">
        <ele>552.41455078125</ele>
        <time>2011-04-16T01:40:57Z</time>
      </trkpt>
      <trkpt lat="37.190625490620732" lon="-3.775749318301678">
        <ele>552.41455078125</ele>
        <time>2011-04-16T01:41:06Z</time>
      </trkpt>
      <trkpt lat="37.190774269402027" lon="-3.776873582974076">
        <ele>551.93408203125</ele>
        <time>2011-04-16T01:41:13Z</time>
      </trkpt>
      <trkpt lat="37.190857920795679" lon="-3.778535462915897">
        <ele>550.97265625</ele>
        <time>2011-04-16T01:41:21Z</time>
      </trkpt>
      <trkpt lat="37.190781561657786" lon="-3.780382499098778">
        <ele>551.453369140625</ele>
        <time>2011-04-16T01:41:28Z</time>
      </trkpt>
      <trkpt lat="37.190840234979987" lon="-3.782188463956118">
        <ele>551.453369140625</ele>
        <time>2011-04-16T01:41:34Z</time>
      </trkpt>
      <trkpt lat="37.191253462806344" lon="-3.78407665528357">
        <ele>553.856689453125</ele>
        <time>2011-04-16T01:41:40Z</time>
      </trkpt>
      <trkpt lat="37.191996518522501" lon="-3.787313578650355">
        <ele>554.81787109375</ele>
        <time>2011-04-16T01:41:50Z</time>
      </trkpt>
      <trkpt lat="37.192601021379232" lon="-3.7908617220819">
        <ele>550.97265625</ele>
        <time>2011-04-16T01:42:00Z</time>
      </trkpt>
      <trkpt lat="37.193461088463664" lon="-3.796012317761779">
        <ele>548.0888671875</ele>
        <time>2011-04-16T01:42:14Z</time>
      </trkpt>
      <trkpt lat="37.194347390905023" lon="-3.801632886752486">
        <ele>547.12744140625</ele>
        <time>2011-04-16T01:42:29Z</time>
      </trkpt>
      <trkpt lat="37.194676883518696" lon="-3.80551865324378">
        <ele>546.6468505859375</ele>
        <time>2011-04-16T01:42:39Z</time>
      </trkpt>
      <trkpt lat="37.195022134110332" lon="-3.809813456609845">
        <ele>543.7628173828125</ele>
        <time>2011-04-16T01:42:50Z</time>
      </trkpt>
      <trkpt lat="37.195261521264911" lon="-3.814470190554857">
        <ele>541.3594970703125</ele>
        <time>2011-04-16T01:43:02Z</time>
      </trkpt>
      <trkpt lat="37.195073431357741" lon="-3.816704135388136">
        <ele>540.3983154296875</ele>
        <time>2011-04-16T01:43:08Z</time>
      </trkpt>
      <trkpt lat="37.194592980667949" lon="-3.818455198779702">
        <ele>540.3983154296875</ele>
        <time>2011-04-16T01:43:13Z</time>
      </trkpt>
      <trkpt lat="37.193715898320079" lon="-3.820384964346886">
        <ele>541.3594970703125</ele>
        <time>2011-04-16T01:43:19Z</time>
      </trkpt>
      <trkpt lat="37.191149024292827" lon="-3.82533841766417">
        <ele>550.97265625</ele>
        <time>2011-04-16T01:43:35Z</time>
      </trkpt>
      <trkpt lat="37.189358063042164" lon="-3.828967195004225">
        <ele>563.469970703125</ele>
        <time>2011-04-16T01:43:47Z</time>
      </trkpt>
      <trkpt lat="37.188946260139346" lon="-3.830627650022507">
        <ele>561.54736328125</ele>
        <time>2011-04-16T01:43:52Z</time>
      </trkpt>
      <trkpt lat="37.188954893499613" lon="-3.83202088996768">
        <ele>558.663330078125</ele>
        <time>2011-04-16T01:43:56Z</time>
      </trkpt>
      <trkpt lat="37.189275166019797" lon="-3.833383787423372">
        <ele>555.779296875</ele>
        <time>2011-04-16T01:44:00Z</time>
      </trkpt>
      <trkpt lat="37.190018389374018" lon="-3.834917256608605">
        <ele>552.895263671875</ele>
        <time>2011-04-16T01:44:05Z</time>
      </trkpt>
      <trkpt lat="37.191548841074109" lon="-3.837332418188453">
        <ele>550.011474609375</ele>
        <time>2011-04-16T01:44:13Z</time>
      </trkpt>
      <trkpt lat="37.193479780107737" lon="-3.840486025437713">
        <ele>546.6468505859375</ele>
        <time>2011-04-16T01:44:23Z</time>
      </trkpt>
      <trkpt lat="37.194136083126068" lon="-3.842285452410579">
        <ele>543.2821044921875</ele>
        <time>2011-04-16T01:44:28Z</time>
      </trkpt>
      <trkpt lat="37.194341439753771" lon="-3.843805091455579">
        <ele>539.9176025390625</ele>
        <time>2011-04-16T01:44:32Z</time>
      </trkpt>
      <trkpt lat="37.19424027018249" lon="-3.84574256837368">
        <ele>534.149658203125</ele>
        <time>2011-04-16T01:44:37Z</time>
      </trkpt>
      <trkpt lat="37.19402133487165" lon="-3.848358141258359">
        <ele>530.78515625</ele>
        <time>2011-04-16T01:44:44Z</time>
      </trkpt>
      <trkpt lat="37.194151841104031" lon="-3.850927529856563">
        <ele>534.149658203125</ele>
        <time>2011-04-16T01:44:51Z</time>
      </trkpt>
      <trkpt lat="37.194328531622887" lon="-3.854916393756867">
        <ele>538.956298828125</ele>
        <time>2011-04-16T01:45:02Z</time>
      </trkpt>
      <trkpt lat="37.19436046667397" lon="-3.858349621295929">
        <ele>531.746337890625</ele>
        <time>2011-04-16T01:45:11Z</time>
      </trkpt>
      <trkpt lat="37.194712590426207" lon="-3.860158855095506">
        <ele>527.42041015625</ele>
        <time>2011-04-16T01:45:16Z</time>
      </trkpt>
      <trkpt lat="37.195479953661561" lon="-3.863096628338099">
        <ele>523.5751953125</ele>
        <time>2011-04-16T01:45:24Z</time>
      </trkpt>
      <trkpt lat="37.195585649460554" lon="-3.865005942061544">
        <ele>525.497802734375</ele>
        <time>2011-04-16T01:45:29Z</time>
      </trkpt>
      <trkpt lat="37.195363445207477" lon="-3.866478223353624">
        <ele>527.42041015625</ele>
        <time>2011-04-16T01:45:33Z</time>
      </trkpt>
      <trkpt lat="37.194748381152749" lon="-3.868145635351539">
        <ele>529.3431396484375</ele>
        <time>2011-04-16T01:45:38Z</time>
      </trkpt>
      <trkpt lat="37.193837519735098" lon="-3.869596626609564">
        <ele>530.304443359375</ele>
        <time>2011-04-16T01:45:43Z</time>
      </trkpt>
      <trkpt lat="37.191471057012677" lon="-3.872981742024422">
        <ele>540.87890625</ele>
        <time>2011-04-16T01:45:55Z</time>
      </trkpt>
      <trkpt lat="37.190394569188356" lon="-3.875186098739505">
        <ele>551.453369140625</ele>
        <time>2011-04-16T01:46:02Z</time>
      </trkpt>
      <trkpt lat="37.188412165269256" lon="-3.879544772207737">
        <ele>568.2763671875</ele>
        <time>2011-04-16T01:46:16Z</time>
      </trkpt>
      <trkpt lat="37.187057482078671" lon="-3.882528059184551">
        <ele>565.873291015625</ele>
        <time>2011-04-16T01:46:25Z</time>
      </trkpt>
      <trkpt lat="37.184548275545239" lon="-3.888044357299805">
        <ele>568.2763671875</ele>
        <time>2011-04-16T01:46:41Z</time>
      </trkpt>
      <trkpt lat="37.182875834405422" lon="-3.89167514629662">
        <ele>569.718505859375</ele>
        <time>2011-04-16T01:46:52Z</time>
      </trkpt>
      <trkpt lat="37.18196539208293" lon="-3.893986875191331">
        <ele>569.23779296875</ele>
        <time>2011-04-16T01:46:59Z</time>
      </trkpt>
      <trkpt lat="37.181182438507676" lon="-3.896656427532435">
        <ele>567.795654296875</ele>
        <time>2011-04-16T01:47:07Z</time>
      </trkpt>
      <trkpt lat="37.180175855755806" lon="-3.898837398737669">
        <ele>566.83447265625</ele>
        <time>2011-04-16T01:47:14Z</time>
      </trkpt>
      <trkpt lat="37.17897355556488" lon="-3.901519775390625">
        <ele>570.6796875</ele>
        <time>2011-04-16T01:47:23Z</time>
      </trkpt>
      <trkpt lat="37.178591676056385" lon="-3.903067326173186">
        <ele>575.967041015625</ele>
        <time>2011-04-16T01:47:28Z</time>
      </trkpt>
      <trkpt lat="37.178513556718826" lon="-3.90471269376576">
        <ele>579.33154296875</ele>
        <time>2011-04-16T01:47:33Z</time>
      </trkpt>
      <trkpt lat="37.178636770695448" lon="-3.90751744620502">
        <ele>578.370361328125</ele>
        <time>2011-04-16T01:47:41Z</time>
      </trkpt>
      <trkpt lat="37.178917480632663" lon="-3.910935753956437">
        <ele>575.005859375</ele>
        <time>2011-04-16T01:47:50Z</time>
      </trkpt>
      <trkpt lat="37.179552325978875" lon="-3.915183367207646">
        <ele>571.640869140625</ele>
        <time>2011-04-16T01:48:01Z</time>
      </trkpt>
      <trkpt lat="37.180365119129419" lon="-3.920417530462146">
        <ele>571.160400390625</ele>
        <time>2011-04-16T01:48:14Z</time>
      </trkpt>
      <trkpt lat="37.180832074955106" lon="-3.924408238381147">
        <ele>579.33154296875</ele>
        <time>2011-04-16T01:48:24Z</time>
      </trkpt>
      <trkpt lat="37.180892759934068" lon="-3.927612639963627">
        <ele>585.099609375</ele>
        <time>2011-04-16T01:48:32Z</time>
      </trkpt>
      <trkpt lat="37.180750519037247" lon="-3.932845462113619">
        <ele>588.945068359375</ele>
        <time>2011-04-16T01:48:45Z</time>
      </trkpt>
      <trkpt lat="37.180587071925402" lon="-3.935512499883771">
        <ele>583.657470703125</ele>
        <time>2011-04-16T01:48:52Z</time>
      </trkpt>
      <trkpt lat="37.180099999532104" lon="-3.939016638323665">
        <ele>576.44775390625</ele>
        <time>2011-04-16T01:49:01Z</time>
      </trkpt>
      <trkpt lat="37.179845357313752" lon="-3.941022763028741">
        <ele>578.85107421875</ele>
        <time>2011-04-16T01:49:07Z</time>
      </trkpt>
      <trkpt lat="37.179890032857656" lon="-3.942677518352866">
        <ele>579.33154296875</ele>
        <time>2011-04-16T01:49:12Z</time>
      </trkpt>
      <trkpt lat="37.180267218500376" lon="-3.944394970312715">
        <ele>577.4091796875</ele>
        <time>2011-04-16T01:49:17Z</time>
      </trkpt>
      <trkpt lat="37.181214792653918" lon="-3.947268454357982">
        <ele>573.56396484375</ele>
        <time>2011-04-16T01:49:25Z</time>
      </trkpt>
      <trkpt lat="37.182470485568047" lon="-3.951078280806541">
        <ele>569.23779296875</ele>
        <time>2011-04-16T01:49:35Z</time>
      </trkpt>
      <trkpt lat="37.183804297819734" lon="-3.955144258216023">
        <ele>565.392578125</ele>
        <time>2011-04-16T01:49:46Z</time>
      </trkpt>
      <trkpt lat="37.184792021289468" lon="-3.957809954881668">
        <ele>562.028076171875</ele>
        <time>2011-04-16T01:49:54Z</time>
      </trkpt>
      <trkpt lat="37.186496732756495" lon="-3.961399421095848">
        <ele>557.7021484375</ele>
        <time>2011-04-16T01:50:05Z</time>
      </trkpt>
      <trkpt lat="37.187288487330079" lon="-3.963491544127464">
        <ele>556.260009765625</ele>
        <time>2011-04-16T01:50:11Z</time>
      </trkpt>
      <trkpt lat="37.187960967421532" lon="-3.96618414670229">
        <ele>551.93408203125</ele>
        <time>2011-04-16T01:50:18Z</time>
      </trkpt>
      <trkpt lat="37.188728749752045" lon="-3.968420354649425">
        <ele>549.53076171875</ele>
        <time>2011-04-16T01:50:24Z</time>
      </trkpt>
      <trkpt lat="37.19022223725915" lon="-3.972388347610831">
        <ele>554.33740234375</ele>
        <time>2011-04-16T01:50:35Z</time>
      </trkpt>
      <trkpt lat="37.192184440791607" lon="-3.977692080661655">
        <ele>554.81787109375</ele>
        <time>2011-04-16T01:50:51Z</time>
      </trkpt>
      <trkpt lat="37.192655084654689" lon="-3.979785544797778">
        <ele>555.779296875</ele>
        <time>2011-04-16T01:50:57Z</time>
      </trkpt>
      <trkpt lat="37.193233519792557" lon="-3.983730236068368">
        <ele>551.453369140625</ele>
        <time>2011-04-16T01:51:08Z</time>
      </trkpt>
      <trkpt lat="37.193844057619572" lon="-3.987674424424768">
        <ele>547.12744140625</ele>
        <time>2011-04-16T01:51:19Z</time>
      </trkpt>
      <trkpt lat="37.194009097293019" lon="-3.989779036492109">
        <ele>545.204833984375</ele>
        <time>2011-04-16T01:51:25Z</time>
      </trkpt>
      <trkpt lat="37.193860318511724" lon="-3.991957325488329">
        <ele>539.4368896484375</ele>
        <time>2011-04-16T01:51:31Z</time>
      </trkpt>
      <trkpt lat="37.193226646631956" lon="-3.996010143309832">
        <ele>519.7298583984375</ele>
        <time>2011-04-16T01:51:42Z</time>
      </trkpt>
      <trkpt lat="37.192986756563187" lon="-3.998518763110042">
        <ele>509.6361083984375</ele>
        <time>2011-04-16T01:51:49Z</time>
      </trkpt>
      <trkpt lat="37.193083232268691" lon="-4.001482268795371">
        <ele>499.0615234375</ele>
        <time>2011-04-16T01:51:57Z</time>
      </trkpt>
      <trkpt lat="37.193315494805574" lon="-4.004453234374523">
        <ele>497.138916015625</ele>
        <time>2011-04-16T01:52:05Z</time>
      </trkpt>
      <trkpt lat="37.193749258294702" lon="-4.005871284753084">
        <ele>496.6583251953125</ele>
        <time>2011-04-16T01:52:09Z</time>
      </trkpt>
      <trkpt lat="37.195065384730697" lon="-4.008933026343584">
        <ele>503.387451171875</ele>
        <time>2011-04-16T01:52:18Z</time>
      </trkpt>
      <trkpt lat="37.195515157654881" lon="-4.010709654539824">
        <ele>511.0780029296875</ele>
        <time>2011-04-16T01:52:23Z</time>
      </trkpt>
      <trkpt lat="37.195590594783425" lon="-4.012535316869617">
        <ele>518.7685546875</ele>
        <time>2011-04-16T01:52:28Z</time>
      </trkpt>
      <trkpt lat="37.195340394973755" lon="-4.017289197072387">
        <ele>525.0172119140625</ele>
        <time>2011-04-16T01:52:41Z</time>
      </trkpt>
      <trkpt lat="37.194984834641218" lon="-4.019837882369757">
        <ele>524.5364990234375</ele>
        <time>2011-04-16T01:52:48Z</time>
      </trkpt>
      <trkpt lat="37.19441813416779" lon="-4.021568829193711">
        <ele>521.652587890625</ele>
        <time>2011-04-16T01:52:53Z</time>
      </trkpt>
      <trkpt lat="37.193418592214584" lon="-4.023378817364574">
        <ele>514.442626953125</ele>
        <time>2011-04-16T01:52:59Z</time>
      </trkpt>
      <trkpt lat="37.192153679206967" lon="-4.024973558261991">
        <ele>506.271484375</ele>
        <time>2011-04-16T01:53:05Z</time>
      </trkpt>
      <trkpt lat="37.189207440242171" lon="-4.028365965932608">
        <ele>500.984130859375</ele>
        <time>2011-04-16T01:53:18Z</time>
      </trkpt>
      <trkpt lat="37.18530859798193" lon="-4.032889762893319">
        <ele>508.6746826171875</ele>
        <time>2011-04-16T01:53:35Z</time>
      </trkpt>
      <trkpt lat="37.183581171557307" lon="-4.035223117098212">
        <ele>508.6746826171875</ele>
        <time>2011-04-16T01:53:43Z</time>
      </trkpt>
      <trkpt lat="37.182796373963356" lon="-4.036988765001297">
        <ele>507.2327880859375</ele>
        <time>2011-04-16T01:53:48Z</time>
      </trkpt>
      <trkpt lat="37.182333525270224" lon="-4.0389434248209">
        <ele>505.7908935546875</ele>
        <time>2011-04-16T01:53:53Z</time>
      </trkpt>
      <trkpt lat="37.182038482278585" lon="-4.041804419830442">
        <ele>503.387451171875</ele>
        <time>2011-04-16T01:54:00Z</time>
      </trkpt>
      <trkpt lat="37.181561971083283" lon="-4.046994494274259">
        <ele>497.138916015625</ele>
        <time>2011-04-16T01:54:13Z</time>
      </trkpt>
      <trkpt lat="37.181054949760437" lon="-4.052434097975493">
        <ele>482.71923828125</ele>
        <time>2011-04-16T01:54:27Z</time>
      </trkpt>
      <trkpt lat="37.180503755807877" lon="-4.058682890608907">
        <ele>482.238525390625</ele>
        <time>2011-04-16T01:54:43Z</time>
      </trkpt>
      <trkpt lat="37.180408872663975" lon="-4.06308364123106">
        <ele>481.2772216796875</ele>
        <time>2011-04-16T01:54:54Z</time>
      </trkpt>
      <trkpt lat="37.180319186300039" lon="-4.069491690024734">
        <ele>480.796630859375</ele>
        <time>2011-04-16T01:55:10Z</time>
      </trkpt>
      <trkpt lat="37.180523537099361" lon="-4.07184423878789">
        <ele>480.796630859375</ele>
        <time>2011-04-16T01:55:16Z</time>
      </trkpt>
      <trkpt lat="37.18111228197813" lon="-4.075727742165327">
        <ele>482.238525390625</ele>
        <time>2011-04-16T01:55:26Z</time>
      </trkpt>
      <trkpt lat="37.181033240631223" lon="-4.077287027612329">
        <ele>484.1611328125</ele>
        <time>2011-04-16T01:55:30Z</time>
      </trkpt>
      <trkpt lat="37.180588999763131" lon="-4.078725697472692">
        <ele>486.083740234375</ele>
        <time>2011-04-16T01:55:34Z</time>
      </trkpt>
      <trkpt lat="37.179824821650982" lon="-4.079924393445253">
        <ele>487.0450439453125</ele>
        <time>2011-04-16T01:55:38Z</time>
      </trkpt>
      <trkpt lat="37.178801726549864" lon="-4.080796865746379">
        <ele>486.083740234375</ele>
        <time>2011-04-16T01:55:42Z</time>
      </trkpt>
      <trkpt lat="37.177603952586651" lon="-4.081294583156705">
        <ele>484.1611328125</ele>
        <time>2011-04-16T01:55:46Z</time>
      </trkpt>
      <trkpt lat="37.175271771848202" lon="-4.081942336633802">
        <ele>488.0064697265625</ele>
        <time>2011-04-16T01:55:54Z</time>
      </trkpt>
      <trkpt lat="37.172574643045664" lon="-4.082810953259468">
        <ele>492.3323974609375</ele>
        <time>2011-04-16T01:56:04Z</time>
      </trkpt>
      <trkpt lat="37.171442164108157" lon="-4.083664733916521">
        <ele>496.177734375</ele>
        <time>2011-04-16T01:56:09Z</time>
      </trkpt>
      <trkpt lat="37.169443247839808" lon="-4.085524762049317">
        <ele>494.2550048828125</ele>
        <time>2011-04-16T01:56:18Z</time>
      </trkpt>
      <trkpt lat="37.167458245530725" lon="-4.087471123784781">
        <ele>488.9677734375</ele>
        <time>2011-04-16T01:56:27Z</time>
      </trkpt>
      <trkpt lat="37.166787190362811" lon="-4.088560184463859">
        <ele>489.9290771484375</ele>
        <time>2011-04-16T01:56:31Z</time>
      </trkpt>
      <trkpt lat="37.166368430480361" lon="-4.089853093028069">
        <ele>488.4871826171875</ele>
        <time>2011-04-16T01:56:35Z</time>
      </trkpt>
      <trkpt lat="37.166182938963175" lon="-4.091684957966209">
        <ele>485.1224365234375</ele>
        <time>2011-04-16T01:56:40Z</time>
      </trkpt>
      <trkpt lat="37.165917484089732" lon="-4.096280671656132">
        <ele>484.641845703125</ele>
        <time>2011-04-16T01:56:52Z</time>
      </trkpt>
      <trkpt lat="37.165491431951523" lon="-4.098447561264038">
        <ele>483.1998291015625</ele>
        <time>2011-04-16T01:56:58Z</time>
      </trkpt>
      <trkpt lat="37.164741167798638" lon="-4.100454356521368">
        <ele>482.71923828125</ele>
        <time>2011-04-16T01:57:04Z</time>
      </trkpt>
      <trkpt lat="37.16317081823945" lon="-4.103546440601349">
        <ele>485.1224365234375</ele>
        <time>2011-04-16T01:57:14Z</time>
      </trkpt>
      <trkpt lat="37.162418542429805" lon="-4.105567568913102">
        <ele>486.083740234375</ele>
        <time>2011-04-16T01:57:20Z</time>
      </trkpt>
      <trkpt lat="37.162114279344678" lon="-4.107410162687302">
        <ele>486.564453125</ele>
        <time>2011-04-16T01:57:25Z</time>
      </trkpt>
      <trkpt lat="37.162070861086249" lon="-4.109600353986025">
        <ele>486.083740234375</ele>
        <time>2011-04-16T01:57:31Z</time>
      </trkpt>
      <trkpt lat="37.162088295444846" lon="-4.111008681356907">
        <ele>485.1224365234375</ele>
        <time>2011-04-16T01:57:36Z</time>
      </trkpt>
      <trkpt lat="37.162261297926307" lon="-4.11237308755517">
        <ele>484.1611328125</ele>
        <time>2011-04-16T01:57:41Z</time>
      </trkpt>
      <trkpt lat="37.162860184907913" lon="-4.114702250808477">
        <ele>485.1224365234375</ele>
        <time>2011-04-16T01:57:49Z</time>
      </trkpt>
      <trkpt lat="37.163274418562651" lon="-4.116759756579995">
        <ele>486.564453125</ele>
        <time>2011-04-16T01:57:56Z</time>
      </trkpt>
      <trkpt lat="37.163282549008727" lon="-4.118431778624654">
        <ele>487.0450439453125</ele>
        <time>2011-04-16T01:58:02Z</time>
      </trkpt>
      <trkpt lat="37.163006868213415" lon="-4.12009147927165">
        <ele>488.9677734375</ele>
        <time>2011-04-16T01:58:08Z</time>
      </trkpt>
      <trkpt lat="37.162121068686247" lon="-4.124212022870779">
        <ele>503.8681640625</ele>
        <time>2011-04-16T01:58:22Z</time>
      </trkpt>
      <trkpt lat="37.161213727667928" lon="-4.127794867381454">
        <ele>513.9620361328125</ele>
        <time>2011-04-16T01:58:34Z</time>
      </trkpt>
      <trkpt lat="37.160377046093345" lon="-4.129481893032789">
        <ele>519.249267578125</ele>
        <time>2011-04-16T01:58:40Z</time>
      </trkpt>
      <trkpt lat="37.15953541919589" lon="-4.131482988595963">
        <ele>530.78515625</ele>
        <time>2011-04-16T01:58:47Z</time>
      </trkpt>
      <trkpt lat="37.159339785575867" lon="-4.132887879386544">
        <ele>538.4757080078125</ele>
        <time>2011-04-16T01:58:52Z</time>
      </trkpt>
      <trkpt lat="37.159457299858332" lon="-4.134206185117364">
        <ele>545.685546875</ele>
        <time>2011-04-16T01:58:57Z</time>
      </trkpt>
      <trkpt lat="37.160068424418569" lon="-4.136187080293894">
        <ele>557.7021484375</ele>
        <time>2011-04-16T01:59:05Z</time>
      </trkpt>
      <trkpt lat="37.160672340542078" lon="-4.138150960206986">
        <ele>567.795654296875</ele>
        <time>2011-04-16T01:59:13Z</time>
      </trkpt>
      <trkpt lat="37.160826232284307" lon="-4.139680322259665">
        <ele>575.486328125</ele>
        <time>2011-04-16T01:59:19Z</time>
      </trkpt>
      <trkpt lat="37.160654570907354" lon="-4.141260478645563">
        <ele>583.1767578125</ele>
        <time>2011-04-16T01:59:25Z</time>
      </trkpt>
      <trkpt lat="37.160098347812891" lon="-4.143129726871848">
        <ele>591.828857421875</ele>
        <time>2011-04-16T01:59:32Z</time>
      </trkpt>
      <trkpt lat="37.159498874098063" lon="-4.145416226238012">
        <ele>600.961181640625</ele>
        <time>2011-04-16T01:59:40Z</time>
      </trkpt>
      <trkpt lat="37.1594865527004" lon="-4.147038962692022">
        <ele>602.403076171875</ele>
        <time>2011-04-16T01:59:45Z</time>
      </trkpt>
      <trkpt lat="37.159854350611567" lon="-4.148699417710304">
        <ele>600.480712890625</ele>
        <time>2011-04-16T01:59:50Z</time>
      </trkpt>
      <trkpt lat="37.160578966140747" lon="-4.151382548734546">
        <ele>596.635498046875</ele>
        <time>2011-04-16T01:59:58Z</time>
      </trkpt>
      <trkpt lat="37.160982470959425" lon="-4.154067020863295">
        <ele>600.961181640625</ele>
        <time>2011-04-16T02:00:06Z</time>
      </trkpt>
      <trkpt lat="37.161554787307978" lon="-4.155944986268878">
        <ele>605.287353515625</ele>
        <time>2011-04-16T02:00:12Z</time>
      </trkpt>
      <trkpt lat="37.162335561588407" lon="-4.157380638644099">
        <ele>607.690673828125</ele>
        <time>2011-04-16T02:00:17Z</time>
      </trkpt>
      <trkpt lat="37.163774985820055" lon="-4.15986537002027">
        <ele>608.17138671875</ele>
        <time>2011-04-16T02:00:26Z</time>
      </trkpt>
      <trkpt lat="37.164442269131541" lon="-4.161613918840885">
        <ele>605.76806640625</ele>
        <time>2011-04-16T02:00:32Z</time>
      </trkpt>
      <trkpt lat="37.164790034294128" lon="-4.163474617525935">
        <ele>600.480712890625</ele>
        <time>2011-04-16T02:00:38Z</time>
      </trkpt>
      <trkpt lat="37.16495624743402" lon="-4.165827333927155">
        <ele>592.790283203125</ele>
        <time>2011-04-16T02:00:46Z</time>
      </trkpt>
      <trkpt lat="37.165114497765899" lon="-4.167717788368464">
        <ele>585.580078125</ele>
        <time>2011-04-16T02:00:53Z</time>
      </trkpt>
      <trkpt lat="37.165242154151201" lon="-4.168413737788796">
        <ele>582.215576171875</ele>
        <time>2011-04-16T02:00:57Z</time>
      </trkpt>
      <trkpt lat="37.165415324270725" lon="-4.168732250109315">
        <ele>579.812255859375</ele>
        <time>2011-04-16T02:01:02Z</time>
      </trkpt>
      <trkpt lat="37.165504088625312" lon="-4.168701320886612">
        <ele>578.85107421875</ele>
        <time>2011-04-16T02:01:08Z</time>
      </trkpt>
      <trkpt lat="37.165533592924476" lon="-4.168549021705985">
        <ele>578.370361328125</ele>
        <time>2011-04-16T02:01:13Z</time>
      </trkpt>
      <trkpt lat="37.165523367002606" lon="-4.16813294403255">
        <ele>576.928466796875</ele>
        <time>2011-04-16T02:01:21Z</time>
      </trkpt>
      <trkpt lat="37.1654546353966" lon="-4.168042922392488">
        <ele>580.29296875</ele>
        <time>2011-04-16T02:01:30Z</time>
      </trkpt>
      <trkpt lat="37.16526897624135" lon="-4.167928425595164">
        <ele>582.6962890625</ele>
        <time>2011-04-16T02:02:07Z</time>
      </trkpt>
      <trkpt lat="37.165306946262717" lon="-4.167764727026224">
        <ele>579.33154296875</ele>
        <time>2011-04-16T02:09:39Z</time>
      </trkpt>
      <trkpt lat="37.165336953476071" lon="-4.167649475857616">
        <ele>579.33154296875</ele>
        <time>2011-04-16T02:09:41Z</time>
      </trkpt>
      <trkpt lat="37.165346257388592" lon="-4.167227949947119">
        <ele>579.33154296875</ele>
        <time>2011-04-16T02:09:47Z</time>
      </trkpt>
      <trkpt lat="37.165483050048351" lon="-4.167009266093373">
        <ele>578.85107421875</ele>
        <time>2011-04-16T02:09:53Z</time>
      </trkpt>
      <trkpt lat="37.165577430278063" lon="-4.167202720418572">
        <ele>578.370361328125</ele>
        <time>2011-04-16T02:09:57Z</time>
      </trkpt>
      <trkpt lat="37.165562175214291" lon="-4.167404053732753">
        <ele>578.370361328125</ele>
        <time>2011-04-16T02:10:00Z</time>
      </trkpt>
      <trkpt lat="37.16553526930511" lon="-4.167586863040924">
        <ele>578.370361328125</ele>
        <time>2011-04-16T02:10:04Z</time>
      </trkpt>
      <trkpt lat="37.165587740018964" lon="-4.167753830552101">
        <ele>577.8896484375</ele>
        <time>2011-04-16T02:17:40Z</time>
      </trkpt>
      <trkpt lat="37.165500819683075" lon="-4.168661255389452">
        <ele>578.85107421875</ele>
        <time>2011-04-16T02:17:50Z</time>
      </trkpt>
      <trkpt lat="37.165506016463041" lon="-4.169360473752022">
        <ele>577.8896484375</ele>
        <time>2011-04-16T02:17:58Z</time>
      </trkpt>
      <trkpt lat="37.165579525753856" lon="-4.169594747945666">
        <ele>577.4091796875</ele>
        <time>2011-04-16T02:18:06Z</time>
      </trkpt>
      <trkpt lat="37.165609197691083" lon="-4.169757859781385">
        <ele>582.215576171875</ele>
        <time>2011-04-16T02:21:10Z</time>
      </trkpt>
      <trkpt lat="37.165620429441333" lon="-4.169949721544981">
        <ele>581.25439453125</ele>
        <time>2011-04-16T02:21:14Z</time>
      </trkpt>
      <trkpt lat="37.165557816624641" lon="-4.170163879171014">
        <ele>579.812255859375</ele>
        <time>2011-04-16T02:21:18Z</time>
      </trkpt>
      <trkpt lat="37.165530659258366" lon="-4.170524049550295">
        <ele>578.85107421875</ele>
        <time>2011-04-16T02:21:23Z</time>
      </trkpt>
      <trkpt lat="37.165715061128139" lon="-4.171300297603011">
        <ele>576.44775390625</ele>
        <time>2011-04-16T02:21:29Z</time>
      </trkpt>
      <trkpt lat="37.166059892624617" lon="-4.17270946316421">
        <ele>571.640869140625</ele>
        <time>2011-04-16T02:21:37Z</time>
      </trkpt>
      <trkpt lat="37.166437665000558" lon="-4.174247961491346">
        <ele>568.2763671875</ele>
        <time>2011-04-16T02:21:44Z</time>
      </trkpt>
      <trkpt lat="37.166739581152797" lon="-4.176233969628811">
        <ele>569.23779296875</ele>
        <time>2011-04-16T02:21:52Z</time>
      </trkpt>
      <trkpt lat="37.166717369109392" lon="-4.178158538416028">
        <ele>570.198974609375</ele>
        <time>2011-04-16T02:21:59Z</time>
      </trkpt>
      <trkpt lat="37.166349571198225" lon="-4.180104481056333">
        <ele>572.121826171875</ele>
        <time>2011-04-16T02:22:06Z</time>
      </trkpt>
      <trkpt lat="37.165639456361532" lon="-4.181959982961416">
        <ele>574.525146484375</ele>
        <time>2011-04-16T02:22:13Z</time>
      </trkpt>
      <trkpt lat="37.164385439828038" lon="-4.184192838147283">
        <ele>575.967041015625</ele>
        <time>2011-04-16T02:22:22Z</time>
      </trkpt>
      <trkpt lat="37.163068894296885" lon="-4.186497526243329">
        <ele>573.56396484375</ele>
        <time>2011-04-16T02:22:31Z</time>
      </trkpt>
      <trkpt lat="37.162392055615783" lon="-4.18829619884491">
        <ele>564.911865234375</ele>
        <time>2011-04-16T02:22:37Z</time>
      </trkpt>
      <trkpt lat="37.161761820316315" lon="-4.190918141975999">
        <ele>552.41455078125</ele>
        <time>2011-04-16T02:22:45Z</time>
      </trkpt>
      <trkpt lat="37.160744089633226" lon="-4.195153936743736">
        <ele>547.12744140625</ele>
        <time>2011-04-16T02:22:58Z</time>
      </trkpt>
      <trkpt lat="37.160072363913059" lon="-4.196675671264529">
        <ele>548.5693359375</ele>
        <time>2011-04-16T02:23:03Z</time>
      </trkpt>
      <trkpt lat="37.158901328220963" lon="-4.198644580319524">
        <ele>547.608154296875</ele>
        <time>2011-04-16T02:23:10Z</time>
      </trkpt>
      <trkpt lat="37.158351726830006" lon="-4.200196489691734">
        <ele>542.801513671875</ele>
        <time>2011-04-16T02:23:15Z</time>
      </trkpt>
      <trkpt lat="37.157796928659081" lon="-4.202432446181774">
        <ele>532.22705078125</ele>
        <time>2011-04-16T02:23:22Z</time>
      </trkpt>
      <trkpt lat="37.157134087756276" lon="-4.204688854515553">
        <ele>519.7298583984375</ele>
        <time>2011-04-16T02:23:29Z</time>
      </trkpt>
      <trkpt lat="37.157113049179316" lon="-4.206024259328842">
        <ele>511.5587158203125</ele>
        <time>2011-04-16T02:23:33Z</time>
      </trkpt>
      <trkpt lat="37.157400799915195" lon="-4.207243658602238">
        <ele>503.387451171875</ele>
        <time>2011-04-16T02:23:37Z</time>
      </trkpt>
      <trkpt lat="37.158232787624002" lon="-4.209487661719322">
        <ele>497.61962890625</ele>
        <time>2011-04-16T02:23:45Z</time>
      </trkpt>
      <trkpt lat="37.159149516373873" lon="-4.212203398346901">
        <ele>509.6361083984375</ele>
        <time>2011-04-16T02:23:55Z</time>
      </trkpt>
      <trkpt lat="37.159306174144149" lon="-4.213649025186896">
        <ele>516.845947265625</ele>
        <time>2011-04-16T02:24:00Z</time>
      </trkpt>
      <trkpt lat="37.159180277958512" lon="-4.215116193518043">
        <ele>523.5751953125</ele>
        <time>2011-04-16T02:24:05Z</time>
      </trkpt>
      <trkpt lat="37.158769397065043" lon="-4.216514797881246">
        <ele>530.78515625</ele>
        <time>2011-04-16T02:24:10Z</time>
      </trkpt>
      <trkpt lat="37.157939756289124" lon="-4.217994455248117">
        <ele>538.956298828125</ele>
        <time>2011-04-16T02:24:16Z</time>
      </trkpt>
      <trkpt lat="37.156804762780666" lon="-4.219968225806952">
        <ele>550.4921875</ele>
        <time>2011-04-16T02:24:24Z</time>
      </trkpt>
      <trkpt lat="37.15576414950192" lon="-4.222732745110989">
        <ele>566.353759765625</ele>
        <time>2011-04-16T02:24:34Z</time>
      </trkpt>
      <trkpt lat="37.154946830123663" lon="-4.224236542358995">
        <ele>575.005859375</ele>
        <time>2011-04-16T02:24:40Z</time>
      </trkpt>
      <trkpt lat="37.154035717248917" lon="-4.225227367132902">
        <ele>581.73486328125</ele>
        <time>2011-04-16T02:24:45Z</time>
      </trkpt>
      <trkpt lat="37.152964174747467" lon="-4.22591233626008">
        <ele>588.945068359375</ele>
        <time>2011-04-16T02:24:50Z</time>
      </trkpt>
      <trkpt lat="37.151549477130175" lon="-4.226336795836687">
        <ele>595.674072265625</ele>
        <time>2011-04-16T02:24:56Z</time>
      </trkpt>
      <trkpt lat="37.150172498077154" lon="-4.226897628977895">
        <ele>602.8837890625</ele>
        <time>2011-04-16T02:25:02Z</time>
      </trkpt>
      <trkpt lat="37.149432795122266" lon="-4.227662393823266">
        <ele>608.65185546875</ele>
        <time>2011-04-16T02:25:06Z</time>
      </trkpt>
      <trkpt lat="37.148917727172375" lon="-4.228669898584485">
        <ele>613.93896484375</ele>
        <time>2011-04-16T02:25:10Z</time>
      </trkpt>
      <trkpt lat="37.148623522371054" lon="-4.230121225118637">
        <ele>620.66845703125</ele>
        <time>2011-04-16T02:25:15Z</time>
      </trkpt>
      <trkpt lat="37.14818162843585" lon="-4.232144448906183">
        <ele>630.281494140625</ele>
        <time>2011-04-16T02:25:22Z</time>
      </trkpt>
      <trkpt lat="37.147466819733381" lon="-4.233348844572902">
        <ele>637.0107421875</ele>
        <time>2011-04-16T02:25:27Z</time>
      </trkpt>
      <trkpt lat="37.146269464865327" lon="-4.234808050096035">
        <ele>646.143310546875</ele>
        <time>2011-04-16T02:25:34Z</time>
      </trkpt>
      <trkpt lat="37.145680049434304" lon="-4.236088469624519">
        <ele>652.87255859375</ele>
        <time>2011-04-16T02:25:39Z</time>
      </trkpt>
      <trkpt lat="37.145415851846337" lon="-4.237530995160341">
        <ele>660.082275390625</ele>
        <time>2011-04-16T02:25:44Z</time>
      </trkpt>
      <trkpt lat="37.145499922335148" lon="-4.239021884277463">
        <ele>666.330810546875</ele>
        <time>2011-04-16T02:25:49Z</time>
      </trkpt>
      <trkpt lat="37.145794630050659" lon="-4.241408547386527">
        <ele>676.905517578125</ele>
        <time>2011-04-16T02:25:57Z</time>
      </trkpt>
      <trkpt lat="37.145645767450333" lon="-4.243217362090945">
        <ele>684.59619140625</ele>
        <time>2011-04-16T02:26:03Z</time>
      </trkpt>
      <trkpt lat="37.145620621740818" lon="-4.24472987651825">
        <ele>691.3251953125</ele>
        <time>2011-04-16T02:26:08Z</time>
      </trkpt>
      <trkpt lat="37.145899822935462" lon="-4.24620945006609">
        <ele>698.054443359375</ele>
        <time>2011-04-16T02:26:13Z</time>
      </trkpt>
      <trkpt lat="37.146469121798873" lon="-4.249193323776126">
        <ele>711.512939453125</ele>
        <time>2011-04-16T02:26:23Z</time>
      </trkpt>
      <trkpt lat="37.146546738222241" lon="-4.251376893371344">
        <ele>719.684326171875</ele>
        <time>2011-04-16T02:26:30Z</time>
      </trkpt>
      <trkpt lat="37.146340375766158" lon="-4.253628775477409">
        <ele>724.971435546875</ele>
        <time>2011-04-16T02:26:37Z</time>
      </trkpt>
      <trkpt lat="37.145805023610592" lon="-4.25589993596077">
        <ele>729.297119140625</ele>
        <time>2011-04-16T02:26:44Z</time>
      </trkpt>
      <trkpt lat="37.145002288743854" lon="-4.257980072870851">
        <ele>731.700439453125</ele>
        <time>2011-04-16T02:26:51Z</time>
      </trkpt>
      <trkpt lat="37.143972655758262" lon="-4.260565638542175">
        <ele>734.584716796875</ele>
        <time>2011-04-16T02:27:00Z</time>
      </trkpt>
      <trkpt lat="37.143527660518885" lon="-4.262550389394164">
        <ele>737.468505859375</ele>
        <time>2011-04-16T02:27:06Z</time>
      </trkpt>
      <trkpt lat="37.143164724111557" lon="-4.264765977859497">
        <ele>744.19775390625</ele>
        <time>2011-04-16T02:27:13Z</time>
      </trkpt>
      <trkpt lat="37.142552258446813" lon="-4.267163453623653">
        <ele>752.849609375</ele>
        <time>2011-04-16T02:27:21Z</time>
      </trkpt>
      <trkpt lat="37.141263792291284" lon="-4.270612858235836">
        <ele>759.578857421875</ele>
        <time>2011-04-16T02:27:33Z</time>
      </trkpt>
      <trkpt lat="37.140311859548092" lon="-4.27346714772284">
        <ele>758.617431640625</ele>
        <time>2011-04-16T02:27:43Z</time>
      </trkpt>
      <trkpt lat="37.139358250424266" lon="-4.276516148820519">
        <ele>748.043212890625</ele>
        <time>2011-04-16T02:27:53Z</time>
      </trkpt>
      <trkpt lat="37.1384481433779" lon="-4.278567032888532">
        <ele>737.94921875</ele>
        <time>2011-04-16T02:28:00Z</time>
      </trkpt>
      <trkpt lat="37.136960020288825" lon="-4.28124513477087">
        <ele>729.77783203125</ele>
        <time>2011-04-16T02:28:10Z</time>
      </trkpt>
      <trkpt lat="37.135093035176396" lon="-4.284071763977408">
        <ele>726.89404296875</ele>
        <time>2011-04-16T02:28:21Z</time>
      </trkpt>
      <trkpt lat="37.133809262886643" lon="-4.285207176581025">
        <ele>728.3359375</ele>
        <time>2011-04-16T02:28:27Z</time>
      </trkpt>
      <trkpt lat="37.132699079811573" lon="-4.286180399358273">
        <ele>728.816650390625</ele>
        <time>2011-04-16T02:28:33Z</time>
      </trkpt>
      <trkpt lat="37.131929537281394" lon="-4.287356128916144">
        <ele>730.258544921875</ele>
        <time>2011-04-16T02:28:38Z</time>
      </trkpt>
      <trkpt lat="37.130726566538215" lon="-4.289738265797496">
        <ele>738.429931640625</ele>
        <time>2011-04-16T02:28:47Z</time>
      </trkpt>
      <trkpt lat="37.12984629906714" lon="-4.29074359126389">
        <ele>743.236328125</ele>
        <time>2011-04-16T02:28:52Z</time>
      </trkpt>
      <trkpt lat="37.128784647211432" lon="-4.291422357782722">
        <ele>746.120361328125</ele>
        <time>2011-04-16T02:28:57Z</time>
      </trkpt>
      <trkpt lat="37.127572121098638" lon="-4.291740199550986">
        <ele>746.60107421875</ele>
        <time>2011-04-16T02:29:02Z</time>
      </trkpt>
      <trkpt lat="37.125974697992206" lon="-4.291755873709917">
        <ele>748.043212890625</ele>
        <time>2011-04-16T02:29:08Z</time>
      </trkpt>
      <trkpt lat="37.124630827456713" lon="-4.29197883233428">
        <ele>753.330322265625</ele>
        <time>2011-04-16T02:29:13Z</time>
      </trkpt>
      <trkpt lat="37.123111942782998" lon="-4.292634380981326">
        <ele>759.09814453125</ele>
        <time>2011-04-16T02:29:19Z</time>
      </trkpt>
      <trkpt lat="37.1207788400352" lon="-4.294188637286425">
        <ele>761.982177734375</ele>
        <time>2011-04-16T02:29:29Z</time>
      </trkpt>
      <trkpt lat="37.119054766371846" lon="-4.295849595218897">
        <ele>762.462646484375</ele>
        <time>2011-04-16T02:29:37Z</time>
      </trkpt>
      <trkpt lat="37.117698658257723" lon="-4.297672240063548">
        <ele>762.943359375</ele>
        <time>2011-04-16T02:29:44Z</time>
      </trkpt>
      <trkpt lat="37.115991180762649" lon="-4.300528792664409">
        <ele>763.424072265625</ele>
        <time>2011-04-16T02:29:54Z</time>
      </trkpt>
      <trkpt lat="37.114163339138031" lon="-4.303251737728715">
        <ele>763.904541015625</ele>
        <time>2011-04-16T02:30:04Z</time>
      </trkpt>
      <trkpt lat="37.112001562491059" lon="-4.305967222899199">
        <ele>763.904541015625</ele>
        <time>2011-04-16T02:30:15Z</time>
      </trkpt>
      <trkpt lat="37.109465030953288" lon="-4.308631243184209">
        <ele>765.346923828125</ele>
        <time>2011-04-16T02:30:27Z</time>
      </trkpt>
      <trkpt lat="37.106697158887982" lon="-4.311025450006127">
        <ele>763.424072265625</ele>
        <time>2011-04-16T02:30:39Z</time>
      </trkpt>
      <trkpt lat="37.104295324534178" lon="-4.312751367688179">
        <ele>760.059326171875</ele>
        <time>2011-04-16T02:30:49Z</time>
      </trkpt>
      <trkpt lat="37.101564081385732" lon="-4.314336217939854">
        <ele>756.69482421875</ele>
        <time>2011-04-16T02:31:00Z</time>
      </trkpt>
      <trkpt lat="37.099532894790173" lon="-4.315236266702414">
        <ele>754.772216796875</ele>
        <time>2011-04-16T02:31:08Z</time>
      </trkpt>
      <trkpt lat="37.097432976588607" lon="-4.315731637179852">
        <ele>751.888427734375</ele>
        <time>2011-04-16T02:31:16Z</time>
      </trkpt>
      <trkpt lat="37.095375051721931" lon="-4.31586155667901">
        <ele>748.043212890625</ele>
        <time>2011-04-16T02:31:24Z</time>
      </trkpt>
      <trkpt lat="37.093003392219543" lon="-4.315840853378177">
        <ele>743.717041015625</ele>
        <time>2011-04-16T02:31:34Z</time>
      </trkpt>
      <trkpt lat="37.089475281536579" lon="-4.315911093726754">
        <ele>742.275146484375</ele>
        <time>2011-04-16T02:31:49Z</time>
      </trkpt>
      <trkpt lat="37.087306380271912" lon="-4.316324321553111">
        <ele>741.79443359375</ele>
        <time>2011-04-16T02:31:58Z</time>
      </trkpt>
      <trkpt lat="37.084827851504087" lon="-4.316716594621539">
        <ele>740.3525390625</ele>
        <time>2011-04-16T02:32:08Z</time>
      </trkpt>
      <trkpt lat="37.08278551697731" lon="-4.317073496058583">
        <ele>736.98779296875</ele>
        <time>2011-04-16T02:32:16Z</time>
      </trkpt>
      <trkpt lat="37.079248940572143" lon="-4.318279568105936">
        <ele>735.0654296875</ele>
        <time>2011-04-16T02:32:30Z</time>
      </trkpt>
      <trkpt lat="37.077003847807646" lon="-4.319326132535934">
        <ele>735.0654296875</ele>
        <time>2011-04-16T02:32:39Z</time>
      </trkpt>
      <trkpt lat="37.074887668713927" lon="-4.320657346397638">
        <ele>735.5458984375</ele>
        <time>2011-04-16T02:32:48Z</time>
      </trkpt>
      <trkpt lat="37.0728790294379" lon="-4.322310676798224">
        <ele>736.026611328125</ele>
        <time>2011-04-16T02:32:57Z</time>
      </trkpt>
      <trkpt lat="37.070749942213297" lon="-4.324493072926998">
        <ele>735.0654296875</ele>
        <time>2011-04-16T02:33:07Z</time>
      </trkpt>
      <trkpt lat="37.068733256310225" lon="-4.327054247260094">
        <ele>735.0654296875</ele>
        <time>2011-04-16T02:33:17Z</time>
      </trkpt>
      <trkpt lat="37.067520227283239" lon="-4.329096833243966">
        <ele>735.5458984375</ele>
        <time>2011-04-16T02:33:24Z</time>
      </trkpt>
      <trkpt lat="37.066777674481273" lon="-4.331067753955722">
        <ele>736.98779296875</ele>
        <time>2011-04-16T02:33:30Z</time>
      </trkpt>
      <trkpt lat="37.066369475796819" lon="-4.333122661337256">
        <ele>739.39111328125</ele>
        <time>2011-04-16T02:33:36Z</time>
      </trkpt>
      <trkpt lat="37.065879218280315" lon="-4.336871635168791">
        <ele>744.67822265625</ele>
        <time>2011-04-16T02:33:47Z</time>
      </trkpt>
      <trkpt lat="37.065254431217909" lon="-4.339618636295199">
        <ele>746.120361328125</ele>
        <time>2011-04-16T02:33:55Z</time>
      </trkpt>
      <trkpt lat="37.064284645020962" lon="-4.342210991308093">
        <ele>745.158935546875</ele>
        <time>2011-04-16T02:34:03Z</time>
      </trkpt>
      <trkpt lat="37.063006069511175" lon="-4.344580722972751">
        <ele>743.717041015625</ele>
        <time>2011-04-16T02:34:11Z</time>
      </trkpt>
      <trkpt lat="37.061038333922625" lon="-4.347549341619015">
        <ele>743.236328125</ele>
        <time>2011-04-16T02:34:22Z</time>
      </trkpt>
      <trkpt lat="37.058614790439606" lon="-4.351402083411813">
        <ele>745.158935546875</ele>
        <time>2011-04-16T02:34:36Z</time>
      </trkpt>
      <trkpt lat="37.056543286889791" lon="-4.355135383084416">
        <ele>748.043212890625</ele>
        <time>2011-04-16T02:34:49Z</time>
      </trkpt>
      <trkpt lat="37.054836731404066" lon="-4.35870599001646">
        <ele>749.9658203125</ele>
        <time>2011-04-16T02:35:01Z</time>
      </trkpt>
      <trkpt lat="37.052956921979785" lon="-4.363273791968823">
        <ele>749.485107421875</ele>
        <time>2011-04-16T02:35:16Z</time>
      </trkpt>
      <trkpt lat="37.051222790032625" lon="-4.367827260866761">
        <ele>748.523681640625</ele>
        <time>2011-04-16T02:35:31Z</time>
      </trkpt>
      <trkpt lat="37.049448760226369" lon="-4.37202449887991">
        <ele>753.330322265625</ele>
        <time>2011-04-16T02:35:45Z</time>
      </trkpt>
      <trkpt lat="37.047910848632455" lon="-4.37481852248311">
        <ele>755.733642578125</ele>
        <time>2011-04-16T02:35:55Z</time>
      </trkpt>
      <trkpt lat="37.0464544929564" lon="-4.376732027158141">
        <ele>756.214111328125</ele>
        <time>2011-04-16T02:36:03Z</time>
      </trkpt>
      <trkpt lat="37.044427916407585" lon="-4.378885673359036">
        <ele>754.291748046875</ele>
        <time>2011-04-16T02:36:13Z</time>
      </trkpt>
      <trkpt lat="37.043113633990288" lon="-4.380639083683491">
        <ele>750.927001953125</ele>
        <time>2011-04-16T02:36:20Z</time>
      </trkpt>
      <trkpt lat="37.041996829211712" lon="-4.382972186431289">
        <ele>745.6396484375</ele>
        <time>2011-04-16T02:36:28Z</time>
      </trkpt>
      <trkpt lat="37.040625466033816" lon="-4.38559764996171">
        <ele>737.468505859375</ele>
        <time>2011-04-16T02:36:37Z</time>
      </trkpt>
      <trkpt lat="37.039350578561425" lon="-4.387147463858128">
        <ele>732.662109375</ele>
        <time>2011-04-16T02:36:43Z</time>
      </trkpt>
      <trkpt lat="37.037864718586206" lon="-4.388353619724512">
        <ele>728.816650390625</ele>
        <time>2011-04-16T02:36:49Z</time>
      </trkpt>
      <trkpt lat="37.036331249400973" lon="-4.389144033193588">
        <ele>726.413330078125</ele>
        <time>2011-04-16T02:36:55Z</time>
      </trkpt>
      <trkpt lat="37.034746985882521" lon="-4.389566397294402">
        <ele>721.606689453125</ele>
        <time>2011-04-16T02:37:01Z</time>
      </trkpt>
      <trkpt lat="37.033129446208477" lon="-4.389634877443314">
        <ele>715.358154296875</ele>
        <time>2011-04-16T02:37:07Z</time>
      </trkpt>
      <trkpt lat="37.030353946611285" lon="-4.389375960454345">
        <ele>701.419189453125</ele>
        <time>2011-04-16T02:37:17Z</time>
      </trkpt>
      <trkpt lat="37.027867371216416" lon="-4.389319298788905">
        <ele>691.805908203125</ele>
        <time>2011-04-16T02:37:26Z</time>
      </trkpt>
      <trkpt lat="37.025165129452944" lon="-4.389652982354164">
        <ele>681.7119140625</ele>
        <time>2011-04-16T02:37:36Z</time>
      </trkpt>
      <trkpt lat="37.022357443347573" lon="-4.389915587380529">
        <ele>671.1376953125</ele>
        <time>2011-04-16T02:37:46Z</time>
      </trkpt>
      <trkpt lat="37.019776739180088" lon="-4.389763791114092">
        <ele>661.043701171875</ele>
        <time>2011-04-16T02:37:55Z</time>
      </trkpt>
      <trkpt lat="37.016650289297104" lon="-4.389229193329811">
        <ele>648.54638671875</ele>
        <time>2011-04-16T02:38:06Z</time>
      </trkpt>
      <trkpt lat="37.01407553628087" lon="-4.388876147568226">
        <ele>640.37548828125</ele>
        <time>2011-04-16T02:38:15Z</time>
      </trkpt>
      <trkpt lat="37.012387169525027" lon="-4.388996846973896">
        <ele>634.607421875</ele>
        <time>2011-04-16T02:38:21Z</time>
      </trkpt>
      <trkpt lat="37.0105114672333" lon="-4.389536138623953">
        <ele>628.839599609375</ele>
        <time>2011-04-16T02:38:28Z</time>
      </trkpt>
      <trkpt lat="37.00897766277194" lon="-4.390339544042945">
        <ele>625.95556640625</ele>
        <time>2011-04-16T02:38:34Z</time>
      </trkpt>
      <trkpt lat="37.007353836670518" lon="-4.391613090410829">
        <ele>625.474853515625</ele>
        <time>2011-04-16T02:38:41Z</time>
      </trkpt>
      <trkpt lat="37.006163019686937" lon="-4.392917985096574">
        <ele>625.474853515625</ele>
        <time>2011-04-16T02:38:47Z</time>
      </trkpt>
      <trkpt lat="37.003693794831634" lon="-4.39572642557323">
        <ele>625.474853515625</ele>
        <time>2011-04-16T02:39:00Z</time>
      </trkpt>
      <trkpt lat="37.002132665365934" lon="-4.397024950012565">
        <ele>624.513671875</ele>
        <time>2011-04-16T02:39:07Z</time>
      </trkpt>
      <trkpt lat="37.000368693843484" lon="-4.398000352084637">
        <ele>624.032958984375</ele>
        <time>2011-04-16T02:39:14Z</time>
      </trkpt>
      <trkpt lat="36.998484022915363" lon="-4.398609297350049">
        <ele>625.474853515625</ele>
        <time>2011-04-16T02:39:21Z</time>
      </trkpt>
      <trkpt lat="36.996622066944838" lon="-4.398862682282925">
        <ele>629.80078125</ele>
        <time>2011-04-16T02:39:28Z</time>
      </trkpt>
      <trkpt lat="36.994767570868134" lon="-4.399047838523984">
        <ele>634.607421875</ele>
        <time>2011-04-16T02:39:36Z</time>
      </trkpt>
      <trkpt lat="36.992526920512319" lon="-4.399488139897585">
        <ele>641.336669921875</ele>
        <time>2011-04-16T02:39:46Z</time>
      </trkpt>
      <trkpt lat="36.989904893562198" lon="-4.40013924613595">
        <ele>650.94970703125</ele>
        <time>2011-04-16T02:39:58Z</time>
      </trkpt>
      <trkpt lat="36.986327078193426" lon="-4.400797393172979">
        <ele>663.447021484375</ele>
        <time>2011-04-16T02:40:14Z</time>
      </trkpt>
      <trkpt lat="36.984569979831576" lon="-4.401479093357921">
        <ele>669.69580078125</ele>
        <time>2011-04-16T02:40:22Z</time>
      </trkpt>
      <trkpt lat="36.982921091839671" lon="-4.402532950043678">
        <ele>675.46337890625</ele>
        <time>2011-04-16T02:40:30Z</time>
      </trkpt>
      <trkpt lat="36.981574287638068" lon="-4.403775651007891">
        <ele>680.27001953125</ele>
        <time>2011-04-16T02:40:37Z</time>
      </trkpt>
      <trkpt lat="36.980353631079197" lon="-4.405332924798131">
        <ele>686.0380859375</ele>
        <time>2011-04-16T02:40:44Z</time>
      </trkpt>
      <trkpt lat="36.979053094983101" lon="-4.40759084187448">
        <ele>694.209228515625</ele>
        <time>2011-04-16T02:40:53Z</time>
      </trkpt>
      <trkpt lat="36.977417198941112" lon="-4.410868417471647">
        <ele>706.706298828125</ele>
        <time>2011-04-16T02:41:06Z</time>
      </trkpt>
      <trkpt lat="36.97625957429409" lon="-4.413336720317602">
        <ele>717.281005859375</ele>
        <time>2011-04-16T02:41:17Z</time>
      </trkpt>
      <trkpt lat="36.975433956831694" lon="-4.415488354861736">
        <ele>724.971435546875</ele>
        <time>2011-04-16T02:41:26Z</time>
      </trkpt>
      <trkpt lat="36.974536590278149" lon="-4.418654451146722">
        <ele>736.50732421875</ele>
        <time>2011-04-16T02:41:38Z</time>
      </trkpt>
      <trkpt lat="36.973511651158333" lon="-4.422870632261038">
        <ele>751.888427734375</ele>
        <time>2011-04-16T02:41:53Z</time>
      </trkpt>
      <trkpt lat="36.972788125276566" lon="-4.426712142303586">
        <ele>767.26953125</ele>
        <time>2011-04-16T02:42:06Z</time>
      </trkpt>
      <trkpt lat="36.972394427284598" lon="-4.430414261296392">
        <ele>782.169921875</ele>
        <time>2011-04-16T02:42:18Z</time>
      </trkpt>
      <trkpt lat="36.971902577206492" lon="-4.433806920424104">
        <ele>796.109130859375</ele>
        <time>2011-04-16T02:42:29Z</time>
      </trkpt>
      <trkpt lat="36.971326824277639" lon="-4.435218768194318">
        <ele>800.91552734375</ele>
        <time>2011-04-16T02:42:34Z</time>
      </trkpt>
      <trkpt lat="36.970136174932122" lon="-4.437215756624937">
        <ele>805.241455078125</ele>
        <time>2011-04-16T02:42:42Z</time>
      </trkpt>
      <trkpt lat="36.969011072069407" lon="-4.438938573002815">
        <ele>806.20263671875</ele>
        <time>2011-04-16T02:42:50Z</time>
      </trkpt>
      <trkpt lat="36.967437118291855" lon="-4.441369576379657">
        <ele>798.992919921875</ele>
        <time>2011-04-16T02:43:01Z</time>
      </trkpt>
      <trkpt lat="36.966212270781398" lon="-4.442976471036673">
        <ele>788.899169921875</ele>
        <time>2011-04-16T02:43:08Z</time>
      </trkpt>
      <trkpt lat="36.965009048581123" lon="-4.444115487858653">
        <ele>777.84375</ele>
        <time>2011-04-16T02:43:14Z</time>
      </trkpt>
      <trkpt lat="36.963433586061001" lon="-4.44529926404357">
        <ele>764.8662109375</ele>
        <time>2011-04-16T02:43:22Z</time>
      </trkpt>
      <trkpt lat="36.962068174034357" lon="-4.44616561755538">
        <ele>754.291748046875</ele>
        <time>2011-04-16T02:43:28Z</time>
      </trkpt>
      <trkpt lat="36.960262125357985" lon="-4.44692887365818">
        <ele>740.3525390625</ele>
        <time>2011-04-16T02:43:35Z</time>
      </trkpt>
      <trkpt lat="36.958362031728029" lon="-4.447291474789381">
        <ele>725.451904296875</ele>
        <time>2011-04-16T02:43:42Z</time>
      </trkpt>
      <trkpt lat="36.956478282809258" lon="-4.447216624394059">
        <ele>712.47412109375</ele>
        <time>2011-04-16T02:43:49Z</time>
      </trkpt>
      <trkpt lat="36.954660918563604" lon="-4.446789398789406">
        <ele>699.496337890625</ele>
        <time>2011-04-16T02:43:56Z</time>
      </trkpt>
      <trkpt lat="36.953289974480867" lon="-4.446186069399118">
        <ele>689.402587890625</ele>
        <time>2011-04-16T02:44:02Z</time>
      </trkpt>
      <trkpt lat="36.951165916398168" lon="-4.4448780734092">
        <ele>671.6181640625</ele>
        <time>2011-04-16T02:44:12Z</time>
      </trkpt>
      <trkpt lat="36.94893448613584" lon="-4.443324822932482">
        <ele>649.5078125</ele>
        <time>2011-04-16T02:44:23Z</time>
      </trkpt>
      <trkpt lat="36.945725725963712" lon="-4.441204536706209">
        <ele>617.3037109375</ele>
        <time>2011-04-16T02:44:38Z</time>
      </trkpt>
      <trkpt lat="36.943836864084005" lon="-4.440316557884216">
        <ele>600</ele>
        <time>2011-04-16T02:44:46Z</time>
      </trkpt>
      <trkpt lat="36.942121842876077" lon="-4.439843399450183">
        <ele>588.945068359375</ele>
        <time>2011-04-16T02:44:53Z</time>
      </trkpt>
      <trkpt lat="36.940327445045114" lon="-4.439438469707966">
        <ele>579.812255859375</ele>
        <time>2011-04-16T02:45:01Z</time>
      </trkpt>
      <trkpt lat="36.938741756603122" lon="-4.439249122515321">
        <ele>572.6025390625</ele>
        <time>2011-04-16T02:45:08Z</time>
      </trkpt>
      <trkpt lat="36.937534846365452" lon="-4.439491024240851">
        <ele>569.23779296875</ele>
        <time>2011-04-16T02:45:13Z</time>
      </trkpt>
      <trkpt lat="36.936257695779204" lon="-4.440303482115269">
        <ele>565.873291015625</ele>
        <time>2011-04-16T02:45:19Z</time>
      </trkpt>
      <trkpt lat="36.935413889586926" lon="-4.441270669922233">
        <ele>559.624755859375</ele>
        <time>2011-04-16T02:45:24Z</time>
      </trkpt>
      <trkpt lat="36.934672761708498" lon="-4.442747142165899">
        <ele>550.97265625</ele>
        <time>2011-04-16T02:45:30Z</time>
      </trkpt>
      <trkpt lat="36.933682942762971" lon="-4.444522093981504">
        <ele>540.3983154296875</ele>
        <time>2011-04-16T02:45:37Z</time>
      </trkpt>
      <trkpt lat="36.932650376111269" lon="-4.445487353950739">
        <ele>534.63037109375</ele>
        <time>2011-04-16T02:45:42Z</time>
      </trkpt>
      <trkpt lat="36.931469030678272" lon="-4.44606008939445">
        <ele>530.78515625</ele>
        <time>2011-04-16T02:45:47Z</time>
      </trkpt>
      <trkpt lat="36.929822489619255" lon="-4.446430988609791">
        <ele>527.9010009765625</ele>
        <time>2011-04-16T02:45:54Z</time>
      </trkpt>
      <trkpt lat="36.926870131865144" lon="-4.447029372677207">
        <ele>525.0172119140625</ele>
        <time>2011-04-16T02:46:07Z</time>
      </trkpt>
      <trkpt lat="36.924187587574124" lon="-4.447436816990376">
        <ele>520.6912841796875</ele>
        <time>2011-04-16T02:46:18Z</time>
      </trkpt>
      <trkpt lat="36.922131339088082" lon="-4.447332629933953">
        <ele>515.8846435546875</ele>
        <time>2011-04-16T02:46:26Z</time>
      </trkpt>
      <trkpt lat="36.92034431733191" lon="-4.446908170357347">
        <ele>510.5972900390625</ele>
        <time>2011-04-16T02:46:33Z</time>
      </trkpt>
      <trkpt lat="36.918536843731999" lon="-4.446142734959722">
        <ele>504.8294677734375</ele>
        <time>2011-04-16T02:46:41Z</time>
      </trkpt>
      <trkpt lat="36.916761640459299" lon="-4.445010423660278">
        <ele>502.4261474609375</ele>
        <time>2011-04-16T02:46:49Z</time>
      </trkpt>
      <trkpt lat="36.915030777454376" lon="-4.443763950839639">
        <ele>500.984130859375</ele>
        <time>2011-04-16T02:46:57Z</time>
      </trkpt>
      <trkpt lat="36.913831830024719" lon="-4.44343906827271">
        <ele>499.542236328125</ele>
        <time>2011-04-16T02:47:02Z</time>
      </trkpt>
      <trkpt lat="36.912618549540639" lon="-4.443607879802585">
        <ele>498.100341796875</ele>
        <time>2011-04-16T02:47:07Z</time>
      </trkpt>
      <trkpt lat="36.911548934876919" lon="-4.44420425221324">
        <ele>496.6583251953125</ele>
        <time>2011-04-16T02:47:12Z</time>
      </trkpt>
      <trkpt lat="36.910161143168807" lon="-4.445432368665934">
        <ele>494.735595703125</ele>
        <time>2011-04-16T02:47:19Z</time>
      </trkpt>
      <trkpt lat="36.909040231257677" lon="-4.446155223995447">
        <ele>493.2935791015625</ele>
        <time>2011-04-16T02:47:24Z</time>
      </trkpt>
      <trkpt lat="36.907816138118505" lon="-4.446436269208789">
        <ele>491.8516845703125</ele>
        <time>2011-04-16T02:47:29Z</time>
      </trkpt>
      <trkpt lat="36.906578969210386" lon="-4.446259327232838">
        <ele>490.890380859375</ele>
        <time>2011-04-16T02:47:34Z</time>
      </trkpt>
      <trkpt lat="36.905445149168372" lon="-4.445654237642884">
        <ele>491.8516845703125</ele>
        <time>2011-04-16T02:47:39Z</time>
      </trkpt>
      <trkpt lat="36.904514757916331" lon="-4.444695934653282">
        <ele>492.81298828125</ele>
        <time>2011-04-16T02:47:44Z</time>
      </trkpt>
      <trkpt lat="36.903817635029554" lon="-4.443538142368197">
        <ele>494.735595703125</ele>
        <time>2011-04-16T02:47:49Z</time>
      </trkpt>
      <trkpt lat="36.902191881090403" lon="-4.440495762974024">
        <ele>503.8681640625</ele>
        <time>2011-04-16T02:48:02Z</time>
      </trkpt>
      <trkpt lat="36.900990586727858" lon="-4.438718883320689">
        <ele>511.5587158203125</ele>
        <time>2011-04-16T02:48:10Z</time>
      </trkpt>
      <trkpt lat="36.899259388446808" lon="-4.43681376054883">
        <ele>520.2105712890625</ele>
        <time>2011-04-16T02:48:20Z</time>
      </trkpt>
      <trkpt lat="36.897635143250227" lon="-4.434985164552927">
        <ele>521.1719970703125</ele>
        <time>2011-04-16T02:48:30Z</time>
      </trkpt>
      <trkpt lat="36.897037345916033" lon="-4.433778589591384">
        <ele>517.32666015625</ele>
        <time>2011-04-16T02:48:35Z</time>
      </trkpt>
      <trkpt lat="36.89665068872273" lon="-4.432097095996141">
        <ele>509.1553955078125</ele>
        <time>2011-04-16T02:48:41Z</time>
      </trkpt>
      <trkpt lat="36.896366626024246" lon="-4.429648742079735">
        <ele>495.6968994140625</ele>
        <time>2011-04-16T02:48:49Z</time>
      </trkpt>
      <trkpt lat="36.896433848887682" lon="-4.427556283771992">
        <ele>485.60302734375</ele>
        <time>2011-04-16T02:48:56Z</time>
      </trkpt>
      <trkpt lat="36.896291272714734" lon="-4.425802454352379">
        <ele>477.9124755859375</ele>
        <time>2011-04-16T02:49:02Z</time>
      </trkpt>
      <trkpt lat="36.895759524777532" lon="-4.424418769776821">
        <ele>472.1446533203125</ele>
        <time>2011-04-16T02:49:07Z</time>
      </trkpt>
      <trkpt lat="36.895059971138835" lon="-4.423503549769521">
        <ele>466.857421875</ele>
        <time>2011-04-16T02:49:11Z</time>
      </trkpt>
      <trkpt lat="36.893963785842061" lon="-4.422743478789926">
        <ele>461.5701904296875</ele>
        <time>2011-04-16T02:49:16Z</time>
      </trkpt>
      <trkpt lat="36.891437061131001" lon="-4.421505136415362">
        <ele>453.39892578125</ele>
        <time>2011-04-16T02:49:27Z</time>
      </trkpt>
      <trkpt lat="36.890026722103357" lon="-4.421206824481487">
        <ele>449.072998046875</ele>
        <time>2011-04-16T02:49:33Z</time>
      </trkpt>
      <trkpt lat="36.888586459681392" lon="-4.421314867213368">
        <ele>444.7470703125</ele>
        <time>2011-04-16T02:49:39Z</time>
      </trkpt>
      <trkpt lat="36.886944193392992" lon="-4.421855080872774">
        <ele>442.3438720703125</ele>
        <time>2011-04-16T02:49:46Z</time>
      </trkpt>
      <trkpt lat="36.883966354653239" lon="-4.422984961420298">
        <ele>439.459716796875</ele>
        <time>2011-04-16T02:49:59Z</time>
      </trkpt>
      <trkpt lat="36.881380369886756" lon="-4.42406103014946">
        <ele>435.614501953125</ele>
        <time>2011-04-16T02:50:10Z</time>
      </trkpt>
      <trkpt lat="36.880329363048077" lon="-4.424966778606176">
        <ele>432.25</ele>
        <time>2011-04-16T02:50:15Z</time>
      </trkpt>
      <trkpt lat="36.87952084466815" lon="-4.426189446821809">
        <ele>428.4046630859375</ele>
        <time>2011-04-16T02:50:20Z</time>
      </trkpt>
      <trkpt lat="36.878212429583073" lon="-4.428896466270089">
        <ele>419.7528076171875</ele>
        <time>2011-04-16T02:50:30Z</time>
      </trkpt>
      <trkpt lat="36.87740558758378" lon="-4.430283168330789">
        <ele>413.0235595703125</ele>
        <time>2011-04-16T02:50:36Z</time>
      </trkpt>
      <trkpt lat="36.875727530568838" lon="-4.432313768193126">
        <ele>402.9296875</ele>
        <time>2011-04-16T02:50:47Z</time>
      </trkpt>
      <trkpt lat="36.875574309378862" lon="-4.432496661320329">
        <ele>401.968505859375</ele>
        <time>2011-04-16T02:50:48Z</time>
      </trkpt>
      <trkpt lat="36.874583987519145" lon="-4.432879127562046">
        <ele>400.0458984375</ele>
        <time>2011-04-16T02:50:54Z</time>
      </trkpt>
      <trkpt lat="36.873709671199322" lon="-4.433983191847801">
        <ele>397.6424560546875</ele>
        <time>2011-04-16T02:51:00Z</time>
      </trkpt>
      <trkpt lat="36.872705016285181" lon="-4.435274340212345">
        <ele>397.1617431640625</ele>
        <time>2011-04-16T02:51:07Z</time>
      </trkpt>
      <trkpt lat="36.871655099093914" lon="-4.436032399535179">
        <ele>392.3553466796875</ele>
        <time>2011-04-16T02:51:13Z</time>
      </trkpt>
      <trkpt lat="36.870409129187465" lon="-4.436389049515128">
        <ele>392.8359375</ele>
        <time>2011-04-16T02:51:19Z</time>
      </trkpt>
      <trkpt lat="36.869054529815912" lon="-4.436349654570222">
        <ele>392.8359375</ele>
        <time>2011-04-16T02:51:25Z</time>
      </trkpt>
      <trkpt lat="36.866540042683482" lon="-4.436083780601621">
        <ele>392.8359375</ele>
        <time>2011-04-16T02:51:36Z</time>
      </trkpt>
      <trkpt lat="36.864908086135983" lon="-4.436189727857709">
        <ele>391.393798828125</ele>
        <time>2011-04-16T02:51:43Z</time>
      </trkpt>
      <trkpt lat="36.863088710233569" lon="-4.436769001185894">
        <ele>385.6259765625</ele>
        <time>2011-04-16T02:51:51Z</time>
      </trkpt>
      <trkpt lat="36.861962182447314" lon="-4.437151970341802">
        <ele>380.8194580078125</ele>
        <time>2011-04-16T02:51:56Z</time>
      </trkpt>
      <trkpt lat="36.861261539161205" lon="-4.438528781756759">
        <ele>380.3387451171875</ele>
        <time>2011-04-16T02:52:02Z</time>
      </trkpt>
      <trkpt lat="36.860344391316175" lon="-4.43982713855803">
        <ele>375.051513671875</ele>
        <time>2011-04-16T02:52:08Z</time>
      </trkpt>
      <trkpt lat="36.859466638416052" lon="-4.441448366269469">
        <ele>363.5157470703125</ele>
        <time>2011-04-16T02:52:15Z</time>
      </trkpt>
      <trkpt lat="36.858681589365005" lon="-4.44241345860064">
        <ele>358.2283935546875</ele>
        <time>2011-04-16T02:52:20Z</time>
      </trkpt>
      <trkpt lat="36.85772605240345" lon="-4.442991558462381">
        <ele>352.4605712890625</ele>
        <time>2011-04-16T02:52:25Z</time>
      </trkpt>
      <trkpt lat="36.856632297858596" lon="-4.443197920918465">
        <ele>346.692626953125</ele>
        <time>2011-04-16T02:52:30Z</time>
      </trkpt>
      <trkpt lat="36.855244338512421" lon="-4.443433033302426">
        <ele>340.9246826171875</ele>
        <time>2011-04-16T02:52:36Z</time>
      </trkpt>
      <trkpt lat="36.85423775576055" lon="-4.444013647735119">
        <ele>333.234130859375</ele>
        <time>2011-04-16T02:52:41Z</time>
      </trkpt>
      <trkpt lat="36.853234274312854" lon="-4.445084687322378">
        <ele>327.4661865234375</ele>
        <time>2011-04-16T02:52:47Z</time>
      </trkpt>
      <trkpt lat="36.852397425100207" lon="-4.446442974731326">
        <ele>322.178955078125</ele>
        <time>2011-04-16T02:52:53Z</time>
      </trkpt>
      <trkpt lat="36.851504920050502" lon="-4.448477597907186">
        <ele>317.85302734375</ele>
        <time>2011-04-16T02:53:01Z</time>
      </trkpt>
      <trkpt lat="36.85049339197576" lon="-4.450484476983547">
        <ele>312.085205078125</ele>
        <time>2011-04-16T02:53:09Z</time>
      </trkpt>
      <trkpt lat="36.849782858043909" lon="-4.451196268200874">
        <ele>310.64306640625</ele>
        <time>2011-04-16T02:53:13Z</time>
      </trkpt>
      <trkpt lat="36.848712489008904" lon="-4.451674371957779">
        <ele>309.201171875</ele>
        <time>2011-04-16T02:53:18Z</time>
      </trkpt>
      <trkpt lat="36.847570119425654" lon="-4.451672527939081">
        <ele>309.201171875</ele>
        <time>2011-04-16T02:53:23Z</time>
      </trkpt>
      <trkpt lat="36.845522420480847" lon="-4.451192663982511">
        <ele>304.3946533203125</ele>
        <time>2011-04-16T02:53:32Z</time>
      </trkpt>
      <trkpt lat="36.843321919441223" lon="-4.450567793101072">
        <ele>297.6654052734375</ele>
        <time>2011-04-16T02:53:42Z</time>
      </trkpt>
      <trkpt lat="36.842028088867664" lon="-4.450499983504415">
        <ele>293.820068359375</ele>
        <time>2011-04-16T02:53:48Z</time>
      </trkpt>
      <trkpt lat="36.840730737894773" lon="-4.450880773365498">
        <ele>293.820068359375</ele>
        <time>2011-04-16T02:53:54Z</time>
      </trkpt>
      <trkpt lat="36.838559238240123" lon="-4.451793730258942">
        <ele>296.2235107421875</ele>
        <time>2011-04-16T02:54:04Z</time>
      </trkpt>
      <trkpt lat="36.837133560329676" lon="-4.451911747455597">
        <ele>292.378173828125</ele>
        <time>2011-04-16T02:54:10Z</time>
      </trkpt>
      <trkpt lat="36.835977528244257" lon="-4.451580494642258">
        <ele>288.532958984375</ele>
        <time>2011-04-16T02:54:15Z</time>
      </trkpt>
      <trkpt lat="36.834897268563509" lon="-4.450880521908402">
        <ele>283.7261962890625</ele>
        <time>2011-04-16T02:54:20Z</time>
      </trkpt>
      <trkpt lat="36.833755737170577" lon="-4.449639078229666">
        <ele>277.958251953125</ele>
        <time>2011-04-16T02:54:26Z</time>
      </trkpt>
      <trkpt lat="36.83237599208951" lon="-4.448331333696842">
        <ele>269.787109375</ele>
        <time>2011-04-16T02:54:33Z</time>
      </trkpt>
      <trkpt lat="36.831028182059526" lon="-4.447655249387026">
        <ele>264.019287109375</ele>
        <time>2011-04-16T02:54:39Z</time>
      </trkpt>
      <trkpt lat="36.82955858297646" lon="-4.446802139282227">
        <ele>257.770751953125</ele>
        <time>2011-04-16T02:54:46Z</time>
      </trkpt>
      <trkpt lat="36.828067693859339" lon="-4.445410240441561">
        <ele>251.0413818359375</ele>
        <time>2011-04-16T02:54:54Z</time>
      </trkpt>
      <trkpt lat="36.826780149713159" lon="-4.444603817537427">
        <ele>245.2734375</ele>
        <time>2011-04-16T02:55:00Z</time>
      </trkpt>
      <trkpt lat="36.825554296374321" lon="-4.444255968555808">
        <ele>242.8702392578125</ele>
        <time>2011-04-16T02:55:05Z</time>
      </trkpt>
      <trkpt lat="36.82426524348557" lon="-4.444255381822586">
        <ele>240.467041015625</ele>
        <time>2011-04-16T02:55:10Z</time>
      </trkpt>
      <trkpt lat="36.822735127061605" lon="-4.444672130048275">
        <ele>236.6217041015625</ele>
        <time>2011-04-16T02:55:16Z</time>
      </trkpt>
      <trkpt lat="36.820107316598296" lon="-4.445545691996813">
        <ele>224.12451171875</ele>
        <time>2011-04-16T02:55:27Z</time>
      </trkpt>
      <trkpt lat="36.819014986976981" lon="-4.446170898154378">
        <ele>218.3565673828125</ele>
        <time>2011-04-16T02:55:32Z</time>
      </trkpt>
      <trkpt lat="36.818138156086206" lon="-4.447055188938975">
        <ele>212.588623046875</ele>
        <time>2011-04-16T02:55:37Z</time>
      </trkpt>
      <trkpt lat="36.817287225276232" lon="-4.447915675118566">
        <ele>207.7821044921875</ele>
        <time>2011-04-16T02:55:42Z</time>
      </trkpt>
      <trkpt lat="36.81603379547596" lon="-4.448430575430393">
        <ele>201.0528564453125</ele>
        <time>2011-04-16T02:55:48Z</time>
      </trkpt>
      <trkpt lat="36.815150259062648" lon="-4.448382295668125">
        <ele>198.6495361328125</ele>
        <time>2011-04-16T02:55:52Z</time>
      </trkpt>
      <trkpt lat="36.814109645783901" lon="-4.447855073958635">
        <ele>195.284912109375</ele>
        <time>2011-04-16T02:55:57Z</time>
      </trkpt>
      <trkpt lat="36.813111444935203" lon="-4.446734916418791">
        <ele>188.0750732421875</ele>
        <time>2011-04-16T02:56:03Z</time>
      </trkpt>
      <trkpt lat="36.812638286501169" lon="-4.445475619286299">
        <ele>185.191162109375</ele>
        <time>2011-04-16T02:56:08Z</time>
      </trkpt>
      <trkpt lat="36.812503924593329" lon="-4.444116745144129">
        <ele>182.787841796875</ele>
        <time>2011-04-16T02:56:13Z</time>
      </trkpt>
      <trkpt lat="36.812317091971636" lon="-4.441461022943258">
        <ele>180.865234375</ele>
        <time>2011-04-16T02:56:23Z</time>
      </trkpt>
      <trkpt lat="36.811896739527583" lon="-4.44021706469357">
        <ele>180.384521484375</ele>
        <time>2011-04-16T02:56:28Z</time>
      </trkpt>
      <trkpt lat="36.811195677146316" lon="-4.439173266291618">
        <ele>179.4232177734375</ele>
        <time>2011-04-16T02:56:33Z</time>
      </trkpt>
      <trkpt lat="36.810241062194109" lon="-4.438444375991821">
        <ele>178.4619140625</ele>
        <time>2011-04-16T02:56:38Z</time>
      </trkpt>
      <trkpt lat="36.809133980423212" lon="-4.438114380463958">
        <ele>177.02001953125</ele>
        <time>2011-04-16T02:56:43Z</time>
      </trkpt>
      <trkpt lat="36.807738058269024" lon="-4.438165761530399">
        <ele>174.1358642578125</ele>
        <time>2011-04-16T02:56:49Z</time>
      </trkpt>
      <trkpt lat="36.806285474449396" lon="-4.438069453462958">
        <ele>172.2132568359375</ele>
        <time>2011-04-16T02:56:55Z</time>
      </trkpt>
      <trkpt lat="36.805132292211056" lon="-4.437522869557142">
        <ele>169.3294677734375</ele>
        <time>2011-04-16T02:57:00Z</time>
      </trkpt>
      <trkpt lat="36.803464461117983" lon="-4.436205569654703">
        <ele>162.60009765625</ele>
        <time>2011-04-16T02:57:08Z</time>
      </trkpt>
      <trkpt lat="36.801182571798563" lon="-4.434464145451784">
        <ele>152.9869384765625</ele>
        <time>2011-04-16T02:57:19Z</time>
      </trkpt>
      <trkpt lat="36.800010027363896" lon="-4.434133898466826">
        <ele>150.5836181640625</ele>
        <time>2011-04-16T02:57:24Z</time>
      </trkpt>
      <trkpt lat="36.798753831535578" lon="-4.434264320880175">
        <ele>145.29638671875</ele>
        <time>2011-04-16T02:57:29Z</time>
      </trkpt>
      <trkpt lat="36.797002181410789" lon="-4.434413267299533">
        <ele>138.0865478515625</ele>
        <time>2011-04-16T02:57:36Z</time>
      </trkpt>
      <trkpt lat="36.796759022399783" lon="-4.434367753565311">
        <ele>137.6058349609375</ele>
        <time>2011-04-16T02:57:37Z</time>
      </trkpt>
      <trkpt lat="36.795434094965458" lon="-4.433721425011754">
        <ele>132.318603515625</ele>
        <time>2011-04-16T02:57:43Z</time>
      </trkpt>
      <trkpt lat="36.794327599927783" lon="-4.43339042365551">
        <ele>127.511962890625</ele>
        <time>2011-04-16T02:57:48Z</time>
      </trkpt>
      <trkpt lat="36.792904268950224" lon="-4.433498131111264">
        <ele>123.666748046875</ele>
        <time>2011-04-16T02:57:54Z</time>
      </trkpt>
      <trkpt lat="36.791006857529283" lon="-4.433593098074198">
        <ele>116.9375</ele>
        <time>2011-04-16T02:58:02Z</time>
      </trkpt>
      <trkpt lat="36.789932381361723" lon="-4.433202836662531">
        <ele>111.1695556640625</ele>
        <time>2011-04-16T02:58:07Z</time>
      </trkpt>
      <trkpt lat="36.78865397349" lon="-4.432755662128329">
        <ele>111.1695556640625</ele>
        <time>2011-04-16T02:58:13Z</time>
      </trkpt>
      <trkpt lat="36.78775979205966" lon="-4.432826824486256">
        <ele>109.2469482421875</ele>
        <time>2011-04-16T02:58:17Z</time>
      </trkpt>
      <trkpt lat="36.785071128979325" lon="-4.433757634833455">
        <ele>103.47900390625</ele>
        <time>2011-04-16T02:58:29Z</time>
      </trkpt>
      <trkpt lat="36.784839369356632" lon="-4.433801891282201">
        <ele>103.959716796875</ele>
        <time>2011-04-16T02:58:30Z</time>
      </trkpt>
      <trkpt lat="36.783681157976389" lon="-4.433655459433794">
        <ele>103.47900390625</ele>
        <time>2011-04-16T02:58:35Z</time>
      </trkpt>
      <trkpt lat="36.782884122803807" lon="-4.433084568008781">
        <ele>102.998291015625</ele>
        <time>2011-04-16T02:58:39Z</time>
      </trkpt>
      <trkpt lat="36.782289845868945" lon="-4.4322201423347">
        <ele>102.5177001953125</ele>
        <time>2011-04-16T02:58:43Z</time>
      </trkpt>
      <trkpt lat="36.782189598307014" lon="-4.431974971666932">
        <ele>102.5177001953125</ele>
        <time>2011-04-16T02:58:44Z</time>
      </trkpt>
      <trkpt lat="36.781201791018248" lon="-4.429244063794613">
        <ele>107.3243408203125</ele>
        <time>2011-04-16T02:58:55Z</time>
      </trkpt>
      <trkpt lat="36.780588151887059" lon="-4.428479382768273">
        <ele>110.6888427734375</ele>
        <time>2011-04-16T02:58:59Z</time>
      </trkpt>
      <trkpt lat="36.779801845550537" lon="-4.427999686449766">
        <ele>113.572998046875</ele>
        <time>2011-04-16T02:59:03Z</time>
      </trkpt>
      <trkpt lat="36.778151951730251" lon="-4.427075749263167">
        <ele>118.860107421875</ele>
        <time>2011-04-16T02:59:11Z</time>
      </trkpt>
      <trkpt lat="36.776849236339331" lon="-4.425971852615476">
        <ele>121.744140625</ele>
        <time>2011-04-16T02:59:18Z</time>
      </trkpt>
      <trkpt lat="36.776459058746696" lon="-4.4257668312639">
        <ele>122.7054443359375</ele>
        <time>2011-04-16T02:59:20Z</time>
      </trkpt>
      <trkpt lat="36.775213340297341" lon="-4.425616962835193">
        <ele>124.1473388671875</ele>
        <time>2011-04-16T02:59:26Z</time>
      </trkpt>
      <trkpt lat="36.772842099890113" lon="-4.425620064139366">
        <ele>121.2635498046875</ele>
        <time>2011-04-16T02:59:37Z</time>
      </trkpt>
      <trkpt lat="36.770440516993403" lon="-4.425588296726346">
        <ele>112.611572265625</ele>
        <time>2011-04-16T02:59:47Z</time>
      </trkpt>
      <trkpt lat="36.769000170752406" lon="-4.425168782472611">
        <ele>105.8824462890625</ele>
        <time>2011-04-16T02:59:53Z</time>
      </trkpt>
      <trkpt lat="36.767165455967188" lon="-4.424143675714731">
        <ele>95.7884521484375</ele>
        <time>2011-04-16T03:00:01Z</time>
      </trkpt>
      <trkpt lat="36.765984445810318" lon="-4.423772441223264">
        <ele>89.5399169921875</ele>
        <time>2011-04-16T03:00:06Z</time>
      </trkpt>
      <trkpt lat="36.764802094548941" lon="-4.423824241384864">
        <ele>84.252685546875</ele>
        <time>2011-04-16T03:00:11Z</time>
      </trkpt>
      <trkpt lat="36.762107983231544" lon="-4.424363868311048">
        <ele>71.27490234375</ele>
        <time>2011-04-16T03:00:23Z</time>
      </trkpt>
      <trkpt lat="36.761051192879677" lon="-4.424862843006849">
        <ele>65.9876708984375</ele>
        <time>2011-04-16T03:00:28Z</time>
      </trkpt>
      <trkpt lat="36.759798098355532" lon="-4.42585526034236">
        <ele>60.7003173828125</ele>
        <time>2011-04-16T03:00:35Z</time>
      </trkpt>
      <trkpt lat="36.758410893380642" lon="-4.426703928038478">
        <ele>54.4517822265625</ele>
        <time>2011-04-16T03:00:42Z</time>
      </trkpt>
      <trkpt lat="36.756700146943331" lon="-4.427852667868137">
        <ele>47.2418212890625</ele>
        <time>2011-04-16T03:00:50Z</time>
      </trkpt>
      <trkpt lat="36.755584850907326" lon="-4.428908117115498">
        <ele>49.645263671875</ele>
        <time>2011-04-16T03:00:56Z</time>
      </trkpt>
      <trkpt lat="36.754123717546463" lon="-4.429891817271709">
        <ele>53.97119140625</ele>
        <time>2011-04-16T03:01:03Z</time>
      </trkpt>
      <trkpt lat="36.750730974599719" lon="-4.431835161522031">
        <ele>72.2362060546875</ele>
        <time>2011-04-16T03:01:19Z</time>
      </trkpt>
      <trkpt lat="36.749421637505293" lon="-4.432808216661215">
        <ele>82.330078125</ele>
        <time>2011-04-16T03:01:26Z</time>
      </trkpt>
      <trkpt lat="36.7485043220222" lon="-4.433912867680192">
        <ele>90.5013427734375</ele>
        <time>2011-04-16T03:01:32Z</time>
      </trkpt>
      <trkpt lat="36.74766437150538" lon="-4.435507357120514">
        <ele>98.19189453125</ele>
        <time>2011-04-16T03:01:39Z</time>
      </trkpt>
      <trkpt lat="36.747226417064667" lon="-4.437075778841972">
        <ele>102.5177001953125</ele>
        <time>2011-04-16T03:01:45Z</time>
      </trkpt>
      <trkpt lat="36.747019719332457" lon="-4.438959192484617">
        <ele>108.28564453125</ele>
        <time>2011-04-16T03:01:52Z</time>
      </trkpt>
      <trkpt lat="36.746683772653341" lon="-4.440672369673848">
        <ele>114.0535888671875</ele>
        <time>2011-04-16T03:01:58Z</time>
      </trkpt>
      <trkpt lat="36.746096117421985" lon="-4.441982880234718">
        <ele>117.8988037109375</ele>
        <time>2011-04-16T03:02:03Z</time>
      </trkpt>
      <trkpt lat="36.745233032852411" lon="-4.443062972277403">
        <ele>120.7828369140625</ele>
        <time>2011-04-16T03:02:08Z</time>
      </trkpt>
      <trkpt lat="36.744073815643787" lon="-4.44399755448103">
        <ele>124.1473388671875</ele>
        <time>2011-04-16T03:02:14Z</time>
      </trkpt>
      <trkpt lat="36.742929266765714" lon="-4.444600967690349">
        <ele>125.58935546875</ele>
        <time>2011-04-16T03:02:19Z</time>
      </trkpt>
      <trkpt lat="36.741994265466928" lon="-4.445577962324023">
        <ele>126.0699462890625</ele>
        <time>2011-04-16T03:02:24Z</time>
      </trkpt>
      <trkpt lat="36.741274427622557" lon="-4.446772886440158">
        <ele>125.58935546875</ele>
        <time>2011-04-16T03:02:29Z</time>
      </trkpt>
      <trkpt lat="36.74064863473177" lon="-4.448480196297169">
        <ele>125.1087646484375</ele>
        <time>2011-04-16T03:02:35Z</time>
      </trkpt>
      <trkpt lat="36.73986584879458" lon="-4.451322332024574">
        <ele>124.1473388671875</ele>
        <time>2011-04-16T03:02:44Z</time>
      </trkpt>
      <trkpt lat="36.739185154438019" lon="-4.452763516455889">
        <ele>123.666748046875</ele>
        <time>2011-04-16T03:02:49Z</time>
      </trkpt>
      <trkpt lat="36.738414689898491" lon="-4.453611765056849">
        <ele>122.7054443359375</ele>
        <time>2011-04-16T03:02:53Z</time>
      </trkpt>
      <trkpt lat="36.737228985875845" lon="-4.454255495220423">
        <ele>121.744140625</ele>
        <time>2011-04-16T03:02:58Z</time>
      </trkpt>
      <trkpt lat="36.736187785863876" lon="-4.454361945390701">
        <ele>120.3021240234375</ele>
        <time>2011-04-16T03:03:02Z</time>
      </trkpt>
      <trkpt lat="36.734973331913352" lon="-4.454126162454486">
        <ele>116.9375</ele>
        <time>2011-04-16T03:03:07Z</time>
      </trkpt>
      <trkpt lat="36.733531057834625" lon="-4.454033961519599">
        <ele>112.611572265625</ele>
        <time>2011-04-16T03:03:13Z</time>
      </trkpt>
      <trkpt lat="36.731089660897851" lon="-4.454401759430766">
        <ele>100.114501953125</ele>
        <time>2011-04-16T03:03:23Z</time>
      </trkpt>
      <trkpt lat="36.729532638564706" lon="-4.454386923462153">
        <ele>90.5013427734375</ele>
        <time>2011-04-16T03:03:29Z</time>
      </trkpt>
      <trkpt lat="36.728043090552092" lon="-4.453992135822773">
        <ele>78.9654541015625</ele>
        <time>2011-04-16T03:03:35Z</time>
      </trkpt>
      <trkpt lat="36.72661573626101" lon="-4.453733218833804">
        <ele>67.9102783203125</ele>
        <time>2011-04-16T03:03:41Z</time>
      </trkpt>
      <trkpt lat="36.725437073037028" lon="-4.454048294574022">
        <ele>58.7777099609375</ele>
        <time>2011-04-16T03:03:46Z</time>
      </trkpt>
      <trkpt lat="36.724149696528912" lon="-4.45487642660737">
        <ele>48.203369140625</ele>
        <time>2011-04-16T03:03:52Z</time>
      </trkpt>
      <trkpt lat="36.722220182418823" lon="-4.455882925540209">
        <ele>35.7060546875</ele>
        <time>2011-04-16T03:04:01Z</time>
      </trkpt>
      <trkpt lat="36.720760557800531" lon="-4.456732096150518">
        <ele>34.744873046875</ele>
        <time>2011-04-16T03:04:08Z</time>
      </trkpt>
      <trkpt lat="36.718541281297803" lon="-4.457883099094033">
        <ele>34.744873046875</ele>
        <time>2011-04-16T03:04:18Z</time>
      </trkpt>
      <trkpt lat="36.717118872329593" lon="-4.458170430734754">
        <ele>35.2254638671875</ele>
        <time>2011-04-16T03:04:24Z</time>
      </trkpt>
      <trkpt lat="36.715316092595458" lon="-4.458151990547776">
        <ele>32.341552734375</ele>
        <time>2011-04-16T03:04:32Z</time>
      </trkpt>
      <trkpt lat="36.712771933525801" lon="-4.458048222586513">
        <ele>28.0155029296875</ele>
        <time>2011-04-16T03:04:43Z</time>
      </trkpt>
      <trkpt lat="36.710247471928596" lon="-4.457966079935432">
        <ele>24.6510009765625</ele>
        <time>2011-04-16T03:04:53Z</time>
      </trkpt>
      <trkpt lat="36.706960089504719" lon="-4.457854349166155">
        <ele>21.7669677734375</ele>
        <time>2011-04-16T03:05:06Z</time>
      </trkpt>
      <trkpt lat="36.70362182892859" lon="-4.457775475457311">
        <ele>22.24755859375</ele>
        <time>2011-04-16T03:05:20Z</time>
      </trkpt>
      <trkpt lat="36.701082196086645" lon="-4.457961721345782">
        <ele>23.6895751953125</ele>
        <time>2011-04-16T03:05:31Z</time>
      </trkpt>
      <trkpt lat="36.698938189074397" lon="-4.45840721949935">
        <ele>23.208984375</ele>
        <time>2011-04-16T03:05:40Z</time>
      </trkpt>
      <trkpt lat="36.696708267554641" lon="-4.459137367084622">
        <ele>19.8443603515625</ele>
        <time>2011-04-16T03:05:49Z</time>
      </trkpt>
      <trkpt lat="36.694355299696326" lon="-4.460183847695589">
        <ele>15.0377197265625</ele>
        <time>2011-04-16T03:05:59Z</time>
      </trkpt>
      <trkpt lat="36.691305628046393" lon="-4.461495028808713">
        <ele>11.6732177734375</ele>
        <time>2011-04-16T03:06:12Z</time>
      </trkpt>
      <trkpt lat="36.689139325171709" lon="-4.462053179740906">
        <ele>10.231201171875</ele>
        <time>2011-04-16T03:06:21Z</time>
      </trkpt>
      <trkpt lat="36.687051896005869" lon="-4.462267253547907">
        <ele>7.34716796875</ele>
        <time>2011-04-16T03:06:30Z</time>
      </trkpt>
      <trkpt lat="36.685361517593265" lon="-4.462384767830372">
        <ele>6.3858642578125</ele>
        <time>2011-04-16T03:06:37Z</time>
      </trkpt>
      <trkpt lat="36.682917941361666" lon="-4.462821632623673">
        <ele>6.3858642578125</ele>
        <time>2011-04-16T03:06:47Z</time>
      </trkpt>
      <trkpt lat="36.680054431781173" lon="-4.463176354765892">
        <ele>10.7117919921875</ele>
        <time>2011-04-16T03:06:59Z</time>
      </trkpt>
      <trkpt lat="36.677228976041079" lon="-4.463535351678729">
        <ele>11.6732177734375</ele>
        <time>2011-04-16T03:07:11Z</time>
      </trkpt>
      <trkpt lat="36.675598276779056" lon="-4.464025860652328">
        <ele>11.6732177734375</ele>
        <time>2011-04-16T03:07:18Z</time>
      </trkpt>
      <trkpt lat="36.674035135656595" lon="-4.464903948828578">
        <ele>11.1925048828125</ele>
        <time>2011-04-16T03:07:25Z</time>
      </trkpt>
      <trkpt lat="36.672369064763188" lon="-4.466260392218828">
        <ele>10.7117919921875</ele>
        <time>2011-04-16T03:07:33Z</time>
      </trkpt>
      <trkpt lat="36.671254523098469" lon="-4.466896327212453">
        <ele>10.231201171875</ele>
        <time>2011-04-16T03:07:38Z</time>
      </trkpt>
      <trkpt lat="36.670018946751952" lon="-4.467210229486227">
        <ele>11.1925048828125</ele>
        <time>2011-04-16T03:07:43Z</time>
      </trkpt>
      <trkpt lat="36.668580863624811" lon="-4.46720696054399">
        <ele>10.231201171875</ele>
        <time>2011-04-16T03:07:49Z</time>
      </trkpt>
      <trkpt lat="36.667182929813862" lon="-4.4674136582762">
        <ele>7.827880859375</ele>
        <time>2011-04-16T03:07:55Z</time>
      </trkpt>
      <trkpt lat="36.665809890255332" lon="-4.468108350411058">
        <ele>6.866455078125</ele>
        <time>2011-04-16T03:08:01Z</time>
      </trkpt>
      <trkpt lat="36.663886578753591" lon="-4.469673754647374">
        <ele>5.424560546875</ele>
        <time>2011-04-16T03:08:10Z</time>
      </trkpt>
      <trkpt lat="36.661609467118979" lon="-4.471581224352121">
        <ele>3.982666015625</ele>
        <time>2011-04-16T03:08:21Z</time>
      </trkpt>
      <trkpt lat="36.658745119348168" lon="-4.474046174436808">
        <ele>3.501953125</ele>
        <time>2011-04-16T03:08:35Z</time>
      </trkpt>
      <trkpt lat="36.655575418844819" lon="-4.476709943264723">
        <ele>4.4632568359375</ele>
        <time>2011-04-16T03:08:51Z</time>
      </trkpt>
      <trkpt lat="36.652049738913774" lon="-4.479677136987448">
        <ele>7.827880859375</ele>
        <time>2011-04-16T03:09:08Z</time>
      </trkpt>
      <trkpt lat="36.649998519569635" lon="-4.481601119041443">
        <ele>7.827880859375</ele>
        <time>2011-04-16T03:09:18Z</time>
      </trkpt>
      <trkpt lat="36.64933324791491" lon="-4.482881957665086">
        <ele>9.7506103515625</ele>
        <time>2011-04-16T03:09:23Z</time>
      </trkpt>
      <trkpt lat="36.648998642340302" lon="-4.484315095469356">
        <ele>14.076416015625</ele>
        <time>2011-04-16T03:09:28Z</time>
      </trkpt>
      <trkpt lat="36.648843577131629" lon="-4.486846178770065">
        <ele>20.324951171875</ele>
        <time>2011-04-16T03:09:37Z</time>
      </trkpt>
      <trkpt lat="36.648549288511276" lon="-4.488458270207048">
        <ele>24.1702880859375</ele>
        <time>2011-04-16T03:09:43Z</time>
      </trkpt>
      <trkpt lat="36.647984264418483" lon="-4.489656463265419">
        <ele>26.0928955078125</ele>
        <time>2011-04-16T03:09:48Z</time>
      </trkpt>
      <trkpt lat="36.647157138213515" lon="-4.490649132058024">
        <ele>26.0928955078125</ele>
        <time>2011-04-16T03:09:53Z</time>
      </trkpt>
      <trkpt lat="36.645917622372508" lon="-4.49155094102025">
        <ele>25.6123046875</ele>
        <time>2011-04-16T03:09:59Z</time>
      </trkpt>
      <trkpt lat="36.644595628604293" lon="-4.492585435509682">
        <ele>25.1317138671875</ele>
        <time>2011-04-16T03:10:06Z</time>
      </trkpt>
      <trkpt lat="36.643690383061767" lon="-4.493829980492592">
        <ele>26.5736083984375</ele>
        <time>2011-04-16T03:10:12Z</time>
      </trkpt>
      <trkpt lat="36.643095435574651" lon="-4.495303351432085">
        <ele>28.4962158203125</ele>
        <time>2011-04-16T03:10:18Z</time>
      </trkpt>
      <trkpt lat="36.642872896045446" lon="-4.496643617749214">
        <ele>29.45751953125</ele>
        <time>2011-04-16T03:10:23Z</time>
      </trkpt>
      <trkpt lat="36.642923019826412" lon="-4.498324692249298">
        <ele>32.341552734375</ele>
        <time>2011-04-16T03:10:29Z</time>
      </trkpt>
      <trkpt lat="36.643361477181315" lon="-4.500907491892576">
        <ele>40.993408203125</ele>
        <time>2011-04-16T03:10:38Z</time>
      </trkpt>
      <trkpt lat="36.643379498273134" lon="-4.502691077068448">
        <ele>47.7225341796875</ele>
        <time>2011-04-16T03:10:44Z</time>
      </trkpt>
      <trkpt lat="36.643093256279826" lon="-4.504132764413953">
        <ele>53.009765625</ele>
        <time>2011-04-16T03:10:49Z</time>
      </trkpt>
      <trkpt lat="36.642568884417415" lon="-4.505494572222233">
        <ele>57.8165283203125</ele>
        <time>2011-04-16T03:10:54Z</time>
      </trkpt>
      <trkpt lat="36.641637990251184" lon="-4.506884962320328">
        <ele>62.6229248046875</ele>
        <time>2011-04-16T03:11:00Z</time>
      </trkpt>
      <trkpt lat="36.640653032809496" lon="-4.507773527875543">
        <ele>66.46826171875</ele>
        <time>2011-04-16T03:11:05Z</time>
      </trkpt>
      <trkpt lat="36.639139680191875" lon="-4.50871841982007">
        <ele>72.2362060546875</ele>
        <time>2011-04-16T03:11:12Z</time>
      </trkpt>
      <trkpt lat="36.636895844712853" lon="-4.509828938171268">
        <ele>75.600830078125</ele>
        <time>2011-04-16T03:11:22Z</time>
      </trkpt>
      <trkpt lat="36.634533070027828" lon="-4.51107507571578">
        <ele>79.446044921875</ele>
        <time>2011-04-16T03:11:33Z</time>
      </trkpt>
      <trkpt lat="36.633149972185493" lon="-4.512125747278333">
        <ele>81.3687744140625</ele>
        <time>2011-04-16T03:11:40Z</time>
      </trkpt>
      <trkpt lat="36.631321040913463" lon="-4.513448579236865">
        <ele>87.6171875</ele>
        <time>2011-04-16T03:11:49Z</time>
      </trkpt>
      <trkpt lat="36.629838952794671" lon="-4.514079485088587">
        <ele>91.9432373046875</ele>
        <time>2011-04-16T03:11:55Z</time>
      </trkpt>
      <trkpt lat="36.627149619162083" lon="-4.515139879658818">
        <ele>104.9210205078125</ele>
        <time>2011-04-16T03:12:06Z</time>
      </trkpt>
      <trkpt lat="36.625438453629613" lon="-4.516116958111525">
        <ele>115.014892578125</ele>
        <time>2011-04-16T03:12:14Z</time>
      </trkpt>
      <trkpt lat="36.623615892603993" lon="-4.517114153131843">
        <ele>124.6280517578125</ele>
        <time>2011-04-16T03:12:23Z</time>
      </trkpt>
      <trkpt lat="36.62178872153163" lon="-4.517799289897084">
        <ele>131.837890625</ele>
        <time>2011-04-16T03:12:31Z</time>
      </trkpt>
      <trkpt lat="36.619148338213563" lon="-4.518368421122432">
        <ele>137.125244140625</ele>
        <time>2011-04-16T03:12:42Z</time>
      </trkpt>
      <trkpt lat="36.617797175422311" lon="-4.518826995044947">
        <ele>136.6446533203125</ele>
        <time>2011-04-16T03:12:48Z</time>
      </trkpt>
      <trkpt lat="36.616563191637397" lon="-4.519714470952749">
        <ele>134.721923828125</ele>
        <time>2011-04-16T03:12:54Z</time>
      </trkpt>
      <trkpt lat="36.615675631910563" lon="-4.520799340680242">
        <ele>132.79931640625</ele>
        <time>2011-04-16T03:12:59Z</time>
      </trkpt>
      <trkpt lat="36.615012120455503" lon="-4.522148491814733">
        <ele>131.837890625</ele>
        <time>2011-04-16T03:13:04Z</time>
      </trkpt>
      <trkpt lat="36.614531837403774" lon="-4.523934675380588">
        <ele>132.79931640625</ele>
        <time>2011-04-16T03:13:10Z</time>
      </trkpt>
      <trkpt lat="36.61390277557075" lon="-4.526065522804856">
        <ele>140.0091552734375</ele>
        <time>2011-04-16T03:13:17Z</time>
      </trkpt>
      <trkpt lat="36.613202299922705" lon="-4.527340242639184">
        <ele>143.8543701171875</ele>
        <time>2011-04-16T03:13:22Z</time>
      </trkpt>
      <trkpt lat="36.611896399408579" lon="-4.529111254960299">
        <ele>150.10302734375</ele>
        <time>2011-04-16T03:13:30Z</time>
      </trkpt>
      <trkpt lat="36.611145548522472" lon="-4.530553696677089">
        <ele>154.428955078125</ele>
        <time>2011-04-16T03:13:36Z</time>
      </trkpt>
      <trkpt lat="36.610719999298453" lon="-4.532088926061988">
        <ele>158.7547607421875</ele>
        <time>2011-04-16T03:13:42Z</time>
      </trkpt>
      <trkpt lat="36.610451443120837" lon="-4.534286828711629">
        <ele>165.9647216796875</ele>
        <time>2011-04-16T03:13:50Z</time>
      </trkpt>
      <trkpt lat="36.610027151182294" lon="-4.536603754386306">
        <ele>175.577880859375</ele>
        <time>2011-04-16T03:13:58Z</time>
      </trkpt>
      <trkpt lat="36.60934972576797" lon="-4.538585990667343">
        <ele>183.7490234375</ele>
        <time>2011-04-16T03:14:05Z</time>
      </trkpt>
      <trkpt lat="36.608131499961019" lon="-4.541264846920967">
        <ele>195.765625</ele>
        <time>2011-04-16T03:14:15Z</time>
      </trkpt>
      <trkpt lat="36.606480684131384" lon="-4.544895133003593">
        <ele>213.0693359375</ele>
        <time>2011-04-16T03:14:29Z</time>
      </trkpt>
      <trkpt lat="36.605998054146767" lon="-4.546643598005176">
        <ele>220.7598876953125</ele>
        <time>2011-04-16T03:14:35Z</time>
      </trkpt>
      <trkpt lat="36.605799654498696" lon="-4.548485688865185">
        <ele>229.4117431640625</ele>
        <time>2011-04-16T03:14:41Z</time>
      </trkpt>
      <trkpt lat="36.605884982272983" lon="-4.550316883251071">
        <ele>235.6602783203125</ele>
        <time>2011-04-16T03:14:47Z</time>
      </trkpt>
      <trkpt lat="36.606321595609188" lon="-4.55241646617651">
        <ele>240.467041015625</ele>
        <time>2011-04-16T03:14:54Z</time>
      </trkpt>
      <trkpt lat="36.606677239760756" lon="-4.554489143192768">
        <ele>243.83154296875</ele>
        <time>2011-04-16T03:15:01Z</time>
      </trkpt>
      <trkpt lat="36.606648238375783" lon="-4.556300137192011">
        <ele>247.196044921875</ele>
        <time>2011-04-16T03:15:07Z</time>
      </trkpt>
      <trkpt lat="36.606287648901343" lon="-4.558016918599606">
        <ele>248.63818359375</ele>
        <time>2011-04-16T03:15:13Z</time>
      </trkpt>
      <trkpt lat="36.605521626770496" lon="-4.560110718011856">
        <ele>251.5220947265625</ele>
        <time>2011-04-16T03:15:21Z</time>
      </trkpt>
      <trkpt lat="36.605097586289048" lon="-4.561984073370695">
        <ele>253.4447021484375</ele>
        <time>2011-04-16T03:15:28Z</time>
      </trkpt>
      <trkpt lat="36.604976383969188" lon="-4.564224053174257">
        <ele>258.2513427734375</ele>
        <time>2011-04-16T03:15:36Z</time>
      </trkpt>
      <trkpt lat="36.60472727380693" lon="-4.566273931413889">
        <ele>263.057861328125</ele>
        <time>2011-04-16T03:15:43Z</time>
      </trkpt>
      <trkpt lat="36.604174822568893" lon="-4.568020887672901">
        <ele>268.3450927734375</ele>
        <time>2011-04-16T03:15:49Z</time>
      </trkpt>
      <trkpt lat="36.603308049961925" lon="-4.569571288302541">
        <ele>274.113037109375</ele>
        <time>2011-04-16T03:15:55Z</time>
      </trkpt>
      <trkpt lat="36.602205745875835" lon="-4.570824382826686">
        <ele>280.3616943359375</ele>
        <time>2011-04-16T03:16:01Z</time>
      </trkpt>
      <trkpt lat="36.599644739180803" lon="-4.573230994865298">
        <ele>293.820068359375</ele>
        <time>2011-04-16T03:16:14Z</time>
      </trkpt>
      <trkpt lat="36.597743639722466" lon="-4.575022039934993">
        <ele>300.54931640625</ele>
        <time>2011-04-16T03:16:24Z</time>
      </trkpt>
      <trkpt lat="36.595791326835752" lon="-4.576871590688825">
        <ele>301.9913330078125</ele>
        <time>2011-04-16T03:16:34Z</time>
      </trkpt>
      <trkpt lat="36.593769276514649" lon="-4.578820466995239">
        <ele>296.7041015625</ele>
        <time>2011-04-16T03:16:43Z</time>
      </trkpt>
      <trkpt lat="36.591739263385534" lon="-4.5809465367347">
        <ele>285.168212890625</ele>
        <time>2011-04-16T03:16:52Z</time>
      </trkpt>
      <trkpt lat="36.590184420347214" lon="-4.583031451329589">
        <ele>271.709716796875</ele>
        <time>2011-04-16T03:17:00Z</time>
      </trkpt>
      <trkpt lat="36.589085217565298" lon="-4.585003796964884">
        <ele>262.5771484375</ele>
        <time>2011-04-16T03:17:07Z</time>
      </trkpt>
      <trkpt lat="36.588296564295888" lon="-4.587030122056603">
        <ele>252.0028076171875</ele>
        <time>2011-04-16T03:17:14Z</time>
      </trkpt>
      <trkpt lat="36.587690552696586" lon="-4.589310921728611">
        <ele>241.908935546875</ele>
        <time>2011-04-16T03:17:21Z</time>
      </trkpt>
      <trkpt lat="36.587350917980075" lon="-4.591750642284751">
        <ele>230.853759765625</ele>
        <time>2011-04-16T03:17:28Z</time>
      </trkpt>
      <trkpt lat="36.587081355974078" lon="-4.595105582848191">
        <ele>215.47265625</ele>
        <time>2011-04-16T03:17:37Z</time>
      </trkpt>
      <trkpt lat="36.586686987429857" lon="-4.598043188452721">
        <ele>202.9754638671875</ele>
        <time>2011-04-16T03:17:45Z</time>
      </trkpt>
      <trkpt lat="36.58610369078815" lon="-4.600047217682004">
        <ele>194.32373046875</ele>
        <time>2011-04-16T03:17:51Z</time>
      </trkpt>
      <trkpt lat="36.585165839642286" lon="-4.602093659341335">
        <ele>184.7105712890625</ele>
        <time>2011-04-16T03:17:58Z</time>
      </trkpt>
      <trkpt lat="36.583956917747855" lon="-4.603904820978642">
        <ele>174.6165771484375</ele>
        <time>2011-04-16T03:18:05Z</time>
      </trkpt>
      <trkpt lat="36.582038216292858" lon="-4.606204899027944">
        <ele>158.7547607421875</ele>
        <time>2011-04-16T03:18:15Z</time>
      </trkpt>
      <trkpt lat="36.58065302297473" lon="-4.607800394296646">
        <ele>146.2578125</ele>
        <time>2011-04-16T03:18:23Z</time>
      </trkpt>
      <trkpt lat="36.57950084656477" lon="-4.609173433855176">
        <ele>137.125244140625</ele>
        <time>2011-04-16T03:18:29Z</time>
      </trkpt>
      <trkpt lat="36.578427543863654" lon="-4.610777730122209">
        <ele>127.9925537109375</ele>
        <time>2011-04-16T03:18:35Z</time>
      </trkpt>
      <trkpt lat="36.57728492282331" lon="-4.612996419891715">
        <ele>116.9375</ele>
        <time>2011-04-16T03:18:43Z</time>
      </trkpt>
      <trkpt lat="36.576513452455401" lon="-4.615179067477584">
        <ele>105.8824462890625</ele>
        <time>2011-04-16T03:18:50Z</time>
      </trkpt>
      <trkpt lat="36.575434198603034" lon="-4.6184575650841">
        <ele>90.5013427734375</ele>
        <time>2011-04-16T03:19:00Z</time>
      </trkpt>
      <trkpt lat="36.574511518701911" lon="-4.62096618488431">
        <ele>79.9266357421875</ele>
        <time>2011-04-16T03:19:08Z</time>
      </trkpt>
      <trkpt lat="36.573681961745024" lon="-4.623223599046469">
        <ele>76.5621337890625</ele>
        <time>2011-04-16T03:19:15Z</time>
      </trkpt>
      <trkpt lat="36.572931781411171" lon="-4.624267145991325">
        <ele>74.1588134765625</ele>
        <time>2011-04-16T03:19:19Z</time>
      </trkpt>
      <trkpt lat="36.571984374895692" lon="-4.624998886138201">
        <ele>69.8328857421875</ele>
        <time>2011-04-16T03:19:23Z</time>
      </trkpt>
      <trkpt lat="36.570916268974543" lon="-4.625369869172573">
        <ele>64.545654296875</ele>
        <time>2011-04-16T03:19:27Z</time>
      </trkpt>
      <trkpt lat="36.56985386274755" lon="-4.625369952991605">
        <ele>58.297119140625</ele>
        <time>2011-04-16T03:19:31Z</time>
      </trkpt>
      <trkpt lat="36.568832863122225" lon="-4.625017493963242">
        <ele>51.087158203125</ele>
        <time>2011-04-16T03:19:35Z</time>
      </trkpt>
      <trkpt lat="36.56769996508956" lon="-4.62415499612689">
        <ele>42.916015625</ele>
        <time>2011-04-16T03:19:40Z</time>
      </trkpt>
      <trkpt lat="36.566222822293639" lon="-4.622820764780045">
        <ele>33.783447265625</ele>
        <time>2011-04-16T03:19:47Z</time>
      </trkpt>
      <trkpt lat="36.564974170178175" lon="-4.622187847271562">
        <ele>29.9381103515625</ele>
        <time>2011-04-16T03:19:52Z</time>
      </trkpt>
      <trkpt lat="36.563368868082762" lon="-4.6218266710639">
        <ele>28.4962158203125</ele>
        <time>2011-04-16T03:19:58Z</time>
      </trkpt>
      <trkpt lat="36.561311446130276" lon="-4.621264999732375">
        <ele>27.534912109375</ele>
        <time>2011-04-16T03:20:06Z</time>
      </trkpt>
      <trkpt lat="36.559188645333052" lon="-4.620355730876327">
        <ele>25.6123046875</ele>
        <time>2011-04-16T03:20:15Z</time>
      </trkpt>
      <trkpt lat="36.557979974895716" lon="-4.620100669562817">
        <ele>24.6510009765625</ele>
        <time>2011-04-16T03:20:20Z</time>
      </trkpt>
      <trkpt lat="36.556755043566227" lon="-4.62029772810638">
        <ele>22.728271484375</ele>
        <time>2011-04-16T03:20:25Z</time>
      </trkpt>
      <trkpt lat="36.555610662326217" lon="-4.620906421914697">
        <ele>21.7669677734375</ele>
        <time>2011-04-16T03:20:30Z</time>
      </trkpt>
      <trkpt lat="36.554425545036793" lon="-4.622014425694943">
        <ele>18.883056640625</ele>
        <time>2011-04-16T03:20:36Z</time>
      </trkpt>
      <trkpt lat="36.553074466064572" lon="-4.623780660331249">
        <ele>13.1151123046875</ele>
        <time>2011-04-16T03:20:44Z</time>
      </trkpt>
      <trkpt lat="36.551343686878681" lon="-4.626465132459998">
        <ele>9.7506103515625</ele>
        <time>2011-04-16T03:20:55Z</time>
      </trkpt>
      <trkpt lat="36.549616931006312" lon="-4.629152622073889">
        <ele>13.5958251953125</ele>
        <time>2011-04-16T03:21:06Z</time>
      </trkpt>
      <trkpt lat="36.548116318881512" lon="-4.630896393209696">
        <ele>13.5958251953125</ele>
        <time>2011-04-16T03:21:15Z</time>
      </trkpt>
      <trkpt lat="36.546454941853881" lon="-4.632354341447353">
        <ele>13.1151123046875</ele>
        <time>2011-04-16T03:21:24Z</time>
      </trkpt>
      <trkpt lat="36.544618885964155" lon="-4.633796364068985">
        <ele>11.6732177734375</ele>
        <time>2011-04-16T03:21:34Z</time>
      </trkpt>
      <trkpt lat="36.542981984093785" lon="-4.63467855937779">
        <ele>8.7891845703125</ele>
        <time>2011-04-16T03:21:42Z</time>
      </trkpt>
      <trkpt lat="36.541379867121577" lon="-4.635094050318003">
        <ele>4.94384765625</ele>
        <time>2011-04-16T03:21:49Z</time>
      </trkpt>
      <trkpt lat="36.539735840633512" lon="-4.635119950398803">
        <ele>3.021240234375</ele>
        <time>2011-04-16T03:21:56Z</time>
      </trkpt>
      <trkpt lat="36.538123581558466" lon="-4.634784925729036">
        <ele>2.06005859375</ele>
        <time>2011-04-16T03:22:03Z</time>
      </trkpt>
      <trkpt lat="36.536774598062038" lon="-4.634154858067632">
        <ele>2.06005859375</ele>
        <time>2011-04-16T03:22:09Z</time>
      </trkpt>
      <trkpt lat="36.534110745415092" lon="-4.632624574005604">
        <ele>6.3858642578125</ele>
        <time>2011-04-16T03:22:21Z</time>
      </trkpt>
      <trkpt lat="36.532388348132372" lon="-4.631285984069109">
        <ele>7.827880859375</ele>
        <time>2011-04-16T03:22:29Z</time>
      </trkpt>
      <trkpt lat="36.531153274700046" lon="-4.630018640309572">
        <ele>8.30859375</ele>
        <time>2011-04-16T03:22:36Z</time>
      </trkpt>
      <trkpt lat="36.529998835176229" lon="-4.628915330395103">
        <ele>4.4632568359375</ele>
        <time>2011-04-16T03:22:43Z</time>
      </trkpt>
      <trkpt lat="36.52899376116693" lon="-4.628583155572414">
        <ele>3.982666015625</ele>
        <time>2011-04-16T03:22:48Z</time>
      </trkpt>
      <trkpt lat="36.527965972200036" lon="-4.628769150003791">
        <ele>4.4632568359375</ele>
        <time>2011-04-16T03:22:53Z</time>
      </trkpt>
      <trkpt lat="36.527768829837441" lon="-4.62887023575604">
        <ele>4.94384765625</ele>
        <time>2011-04-16T03:22:54Z</time>
      </trkpt>
      <trkpt lat="36.525858258828521" lon="-4.630111763253808">
        <ele>6.866455078125</ele>
        <time>2011-04-16T03:23:04Z</time>
      </trkpt>
      <trkpt lat="36.525451987981796" lon="-4.630295746028423">
        <ele>9.2698974609375</ele>
        <time>2011-04-16T03:23:06Z</time>
      </trkpt>
      <trkpt lat="36.52411432005465" lon="-4.630401860922575">
        <ele>14.076416015625</ele>
        <time>2011-04-16T03:23:12Z</time>
      </trkpt>
      <trkpt lat="36.521514672785997" lon="-4.63028627447784">
        <ele>9.2698974609375</ele>
        <time>2011-04-16T03:23:23Z</time>
      </trkpt>
      <trkpt lat="36.519371839240193" lon="-4.630243023857474">
        <ele>7.34716796875</ele>
        <time>2011-04-16T03:23:32Z</time>
      </trkpt>
      <trkpt lat="36.518267439678311" lon="-4.630509736016393">
        <ele>8.7891845703125</ele>
        <time>2011-04-16T03:23:37Z</time>
      </trkpt>
      <trkpt lat="36.517011662945151" lon="-4.631201075389981">
        <ele>11.1925048828125</ele>
        <time>2011-04-16T03:23:43Z</time>
      </trkpt>
      <trkpt lat="36.515524126589298" lon="-4.632534552365542">
        <ele>10.231201171875</ele>
        <time>2011-04-16T03:23:51Z</time>
      </trkpt>
      <trkpt lat="36.513016344979405" lon="-4.634789954870939">
        <ele>7.34716796875</ele>
        <time>2011-04-16T03:24:04Z</time>
      </trkpt>
      <trkpt lat="36.511541130021214" lon="-4.635706096887589">
        <ele>8.7891845703125</ele>
        <time>2011-04-16T03:24:11Z</time>
      </trkpt>
      <trkpt lat="36.5093884896487" lon="-4.636779567226768">
        <ele>8.30859375</ele>
        <time>2011-04-16T03:24:22Z</time>
      </trkpt>
      <trkpt lat="36.508394563570619" lon="-4.637546930462122">
        <ele>6.866455078125</ele>
        <time>2011-04-16T03:24:28Z</time>
      </trkpt>
      <trkpt lat="36.507548158988357" lon="-4.638679157942534">
        <ele>5.424560546875</ele>
        <time>2011-04-16T03:24:34Z</time>
      </trkpt>
      <trkpt lat="36.507093692198396" lon="-4.63979747146368">
        <ele>3.982666015625</ele>
        <time>2011-04-16T03:24:39Z</time>
      </trkpt>
      <trkpt lat="36.506963856518269" lon="-4.641055259853602">
        <ele>2.06005859375</ele>
        <time>2011-04-16T03:24:44Z</time>
      </trkpt>
      <trkpt lat="36.506917588412762" lon="-4.643480144441128">
        <ele>0.137451171875</ele>
        <time>2011-04-16T03:24:53Z</time>
      </trkpt>
      <trkpt lat="36.506951283663511" lon="-4.643738558515906">
        <ele>-0.3433837890625</ele>
        <time>2011-04-16T03:24:54Z</time>
      </trkpt>
      <trkpt lat="36.507371133193374" lon="-4.644696358591318">
        <ele>0.137451171875</ele>
        <time>2011-04-16T03:24:58Z</time>
      </trkpt>
      <trkpt lat="36.507901456207037" lon="-4.645532872527838">
        <ele>2.06005859375</ele>
        <time>2011-04-16T03:25:02Z</time>
      </trkpt>
      <trkpt lat="36.508157439529896" lon="-4.646755456924439">
        <ele>4.94384765625</ele>
        <time>2011-04-16T03:25:07Z</time>
      </trkpt>
      <trkpt lat="36.508087199181318" lon="-4.647246468812227">
        <ele>6.3858642578125</ele>
        <time>2011-04-16T03:25:09Z</time>
      </trkpt>
      <trkpt lat="36.507444642484188" lon="-4.649580828845501">
        <ele>7.34716796875</ele>
        <time>2011-04-16T03:25:18Z</time>
      </trkpt>
      <trkpt lat="36.506564291194081" lon="-4.652427490800619">
        <ele>5.9052734375</ele>
        <time>2011-04-16T03:25:28Z</time>
      </trkpt>
      <trkpt lat="36.506210993975401" lon="-4.65353474020958">
        <ele>6.3858642578125</ele>
        <time>2011-04-16T03:25:32Z</time>
      </trkpt>
      <trkpt lat="36.506224740296602" lon="-4.654861344024539">
        <ele>6.3858642578125</ele>
        <time>2011-04-16T03:25:37Z</time>
      </trkpt>
      <trkpt lat="36.506301518529654" lon="-4.655107269063592">
        <ele>6.3858642578125</ele>
        <time>2011-04-16T03:25:38Z</time>
      </trkpt>
      <trkpt lat="36.506886072456837" lon="-4.656718354672194">
        <ele>5.9052734375</ele>
        <time>2011-04-16T03:25:45Z</time>
      </trkpt>
      <trkpt lat="36.507036779075861" lon="-4.658290380612016">
        <ele>6.3858642578125</ele>
        <time>2011-04-16T03:25:51Z</time>
      </trkpt>
      <trkpt lat="36.507193436846137" lon="-4.660537065938115">
        <ele>7.34716796875</ele>
        <time>2011-04-16T03:25:59Z</time>
      </trkpt>
      <trkpt lat="36.507413880899549" lon="-4.661647835746408">
        <ele>7.34716796875</ele>
        <time>2011-04-16T03:26:03Z</time>
      </trkpt>
      <trkpt lat="36.507342886179686" lon="-4.663073932752013">
        <ele>6.866455078125</ele>
        <time>2011-04-16T03:26:08Z</time>
      </trkpt>
      <trkpt lat="36.507272059097886" lon="-4.663346847519279">
        <ele>6.866455078125</ele>
        <time>2011-04-16T03:26:09Z</time>
      </trkpt>
      <trkpt lat="36.506343428045511" lon="-4.665712220594287">
        <ele>6.866455078125</ele>
        <time>2011-04-16T03:26:18Z</time>
      </trkpt>
      <trkpt lat="36.505000060424209" lon="-4.668820481747389">
        <ele>7.34716796875</ele>
        <time>2011-04-16T03:26:30Z</time>
      </trkpt>
      <trkpt lat="36.504575265571475" lon="-4.669996798038483">
        <ele>7.827880859375</ele>
        <time>2011-04-16T03:26:35Z</time>
      </trkpt>
      <trkpt lat="36.504484070464969" lon="-4.671220891177654">
        <ele>8.7891845703125</ele>
        <time>2011-04-16T03:26:40Z</time>
      </trkpt>
      <trkpt lat="36.504336129873991" lon="-4.672951838001609">
        <ele>9.2698974609375</ele>
        <time>2011-04-16T03:26:47Z</time>
      </trkpt>
      <trkpt lat="36.504144771024585" lon="-4.674046766012907">
        <ele>9.2698974609375</ele>
        <time>2011-04-16T03:26:52Z</time>
      </trkpt>
      <trkpt lat="36.504296818748116" lon="-4.675056952983141">
        <ele>7.34716796875</ele>
        <time>2011-04-16T03:26:57Z</time>
      </trkpt>
      <trkpt lat="36.504800654947758" lon="-4.675661791115999">
        <ele>5.424560546875</ele>
        <time>2011-04-16T03:27:01Z</time>
      </trkpt>
      <trkpt lat="36.505709085613489" lon="-4.676499562337995">
        <ele>6.3858642578125</ele>
        <time>2011-04-16T03:27:07Z</time>
      </trkpt>
      <trkpt lat="36.506254160776734" lon="-4.67774192802608">
        <ele>10.7117919921875</ele>
        <time>2011-04-16T03:27:13Z</time>
      </trkpt>
      <trkpt lat="36.506277127191424" lon="-4.678935930132866">
        <ele>14.076416015625</ele>
        <time>2011-04-16T03:27:18Z</time>
      </trkpt>
      <trkpt lat="36.505886446684599" lon="-4.680076036602259">
        <ele>15.0377197265625</ele>
        <time>2011-04-16T03:27:23Z</time>
      </trkpt>
      <trkpt lat="36.505435081198812" lon="-4.680659668520093">
        <ele>13.1151123046875</ele>
        <time>2011-04-16T03:27:26Z</time>
      </trkpt>
      <trkpt lat="36.503896247595549" lon="-4.682013094425201">
        <ele>6.3858642578125</ele>
        <time>2011-04-16T03:27:34Z</time>
      </trkpt>
      <trkpt lat="36.502948170527816" lon="-4.683246240019798">
        <ele>6.866455078125</ele>
        <time>2011-04-16T03:27:40Z</time>
      </trkpt>
      <trkpt lat="36.501812590286136" lon="-4.68509629368782">
        <ele>11.6732177734375</ele>
        <time>2011-04-16T03:27:48Z</time>
      </trkpt>
      <trkpt lat="36.500531416386366" lon="-4.686266826465726">
        <ele>11.1925048828125</ele>
        <time>2011-04-16T03:27:55Z</time>
      </trkpt>
      <trkpt lat="36.49909702129662" lon="-4.687493182718754">
        <ele>11.1925048828125</ele>
        <time>2011-04-16T03:28:04Z</time>
      </trkpt>
      <trkpt lat="36.497717946767807" lon="-4.688683245331049">
        <ele>9.7506103515625</ele>
        <time>2011-04-16T03:28:12Z</time>
      </trkpt>
      <trkpt lat="36.495993956923485" lon="-4.690114874392748">
        <ele>9.7506103515625</ele>
        <time>2011-04-16T03:28:21Z</time>
      </trkpt>
      <trkpt lat="36.494072489440441" lon="-4.691439885646105">
        <ele>15.0377197265625</ele>
        <time>2011-04-16T03:28:30Z</time>
      </trkpt>
      <trkpt lat="36.492680590599775" lon="-4.692352171987295">
        <ele>19.36376953125</ele>
        <time>2011-04-16T03:28:37Z</time>
      </trkpt>
      <trkpt lat="36.491979360580444" lon="-4.693206623196602">
        <ele>20.8056640625</ele>
        <time>2011-04-16T03:28:42Z</time>
      </trkpt>
      <trkpt lat="36.491433866322041" lon="-4.694457035511732">
        <ele>20.324951171875</ele>
        <time>2011-04-16T03:28:48Z</time>
      </trkpt>
      <trkpt lat="36.49123789742589" lon="-4.695895118638873">
        <ele>19.36376953125</ele>
        <time>2011-04-16T03:28:54Z</time>
      </trkpt>
      <trkpt lat="36.491197161376476" lon="-4.698186060413718">
        <ele>17.441162109375</ele>
        <time>2011-04-16T03:29:03Z</time>
      </trkpt>
      <trkpt lat="36.491258181631565" lon="-4.698578082025051">
        <ele>17.441162109375</ele>
        <time>2011-04-16T03:29:06Z</time>
      </trkpt>
      <trkpt lat="36.491232616826892" lon="-4.6989053953439">
        <ele>17.441162109375</ele>
        <time>2011-04-16T03:29:51Z</time>
      </trkpt>
      <trkpt lat="36.491208896040916" lon="-4.699611738324165">
        <ele>16.96044921875</ele>
        <time>2011-04-16T03:29:57Z</time>
      </trkpt>
      <trkpt lat="36.491178972646594" lon="-4.700947226956487">
        <ele>16.96044921875</ele>
        <time>2011-04-16T03:30:04Z</time>
      </trkpt>
      <trkpt lat="36.491138990968466" lon="-4.702696781605482">
        <ele>17.441162109375</ele>
        <time>2011-04-16T03:30:11Z</time>
      </trkpt>
      <trkpt lat="36.491081239655614" lon="-4.704949585720897">
        <ele>15.9990234375</ele>
        <time>2011-04-16T03:30:19Z</time>
      </trkpt>
      <trkpt lat="36.490847636014223" lon="-4.70673518255353">
        <ele>17.441162109375</ele>
        <time>2011-04-16T03:30:25Z</time>
      </trkpt>
      <trkpt lat="36.49012042209506" lon="-4.70952576957643">
        <ele>19.8443603515625</ele>
        <time>2011-04-16T03:30:35Z</time>
      </trkpt>
      <trkpt lat="36.489435788244009" lon="-4.712413586676121">
        <ele>21.7669677734375</ele>
        <time>2011-04-16T03:30:45Z</time>
      </trkpt>
      <trkpt lat="36.489273179322481" lon="-4.714612159878016">
        <ele>20.8056640625</ele>
        <time>2011-04-16T03:30:52Z</time>
      </trkpt>
      <trkpt lat="36.489069079980254" lon="-4.718695152550936">
        <ele>23.6895751953125</ele>
        <time>2011-04-16T03:31:05Z</time>
      </trkpt>
      <trkpt lat="36.488861879333854" lon="-4.722890881821513">
        <ele>24.6510009765625</ele>
        <time>2011-04-16T03:31:18Z</time>
      </trkpt>
      <trkpt lat="36.488646632060409" lon="-4.726667767390609">
        <ele>22.728271484375</ele>
        <time>2011-04-16T03:31:29Z</time>
      </trkpt>
      <trkpt lat="36.488378830254078" lon="-4.731995891779661">
        <ele>20.8056640625</ele>
        <time>2011-04-16T03:31:45Z</time>
      </trkpt>
      <trkpt lat="36.487974235787988" lon="-4.737003324553371">
        <ele>20.8056640625</ele>
        <time>2011-04-16T03:32:00Z</time>
      </trkpt>
      <trkpt lat="36.487798299640417" lon="-4.740385338664055">
        <ele>21.7669677734375</ele>
        <time>2011-04-16T03:32:10Z</time>
      </trkpt>
      <trkpt lat="36.487890752032399" lon="-4.743034020066261">
        <ele>22.24755859375</ele>
        <time>2011-04-16T03:32:18Z</time>
      </trkpt>
      <trkpt lat="36.488396683707833" lon="-4.744364563375711">
        <ele>22.24755859375</ele>
        <time>2011-04-16T03:32:23Z</time>
      </trkpt>
      <trkpt lat="36.488552335649729" lon="-4.744597747921944">
        <ele>22.24755859375</ele>
        <time>2011-04-16T03:32:24Z</time>
      </trkpt>
      <trkpt lat="36.490549491718411" lon="-4.747501155361533">
        <ele>23.208984375</ele>
        <time>2011-04-16T03:32:36Z</time>
      </trkpt>
      <trkpt lat="36.492493422701955" lon="-4.750398779287934">
        <ele>21.7669677734375</ele>
        <time>2011-04-16T03:32:47Z</time>
      </trkpt>
      <trkpt lat="36.493407469242811" lon="-4.751907186582685">
        <ele>28.4962158203125</ele>
        <time>2011-04-16T03:32:53Z</time>
      </trkpt>
      <trkpt lat="36.493754982948303" lon="-4.753595553338528">
        <ele>35.7060546875</ele>
        <time>2011-04-16T03:32:59Z</time>
      </trkpt>
      <trkpt lat="36.493861684575677" lon="-4.754996588453651">
        <ele>39.0706787109375</ele>
        <time>2011-04-16T03:33:04Z</time>
      </trkpt>
      <trkpt lat="36.493609556928277" lon="-4.756092941388488">
        <ele>39.55126953125</ele>
        <time>2011-04-16T03:33:08Z</time>
      </trkpt>
      <trkpt lat="36.492900531738997" lon="-4.758519334718585">
        <ele>31.380126953125</ele>
        <time>2011-04-16T03:33:17Z</time>
      </trkpt>
      <trkpt lat="36.492969430983067" lon="-4.760239887982607">
        <ele>22.728271484375</ele>
        <time>2011-04-16T03:33:23Z</time>
      </trkpt>
      <trkpt lat="36.49329598993063" lon="-4.762587239965797">
        <ele>12.15380859375</ele>
        <time>2011-04-16T03:33:31Z</time>
      </trkpt>
      <trkpt lat="36.493789767846465" lon="-4.76422967389226">
        <ele>11.6732177734375</ele>
        <time>2011-04-16T03:33:37Z</time>
      </trkpt>
      <trkpt lat="36.494017420336604" lon="-4.766079057008028">
        <ele>13.1151123046875</ele>
        <time>2011-04-16T03:33:43Z</time>
      </trkpt>
      <trkpt lat="36.494387565180659" lon="-4.769415389746428">
        <ele>19.36376953125</ele>
        <time>2011-04-16T03:33:53Z</time>
      </trkpt>
      <trkpt lat="36.494864746928215" lon="-4.774100789800286">
        <ele>18.883056640625</ele>
        <time>2011-04-16T03:34:07Z</time>
      </trkpt>
      <trkpt lat="36.49526079185307" lon="-4.777628565207124">
        <ele>15.9990234375</ele>
        <time>2011-04-16T03:34:18Z</time>
      </trkpt>
      <trkpt lat="36.495805447921157" lon="-4.780486039817333">
        <ele>9.7506103515625</ele>
        <time>2011-04-16T03:34:27Z</time>
      </trkpt>
      <trkpt lat="36.496886881068349" lon="-4.784888969734311">
        <ele>9.7506103515625</ele>
        <time>2011-04-16T03:34:41Z</time>
      </trkpt>
      <trkpt lat="36.498171323910356" lon="-4.789289385080338">
        <ele>14.076416015625</ele>
        <time>2011-04-16T03:34:55Z</time>
      </trkpt>
      <trkpt lat="36.499168099835515" lon="-4.792933668941259">
        <ele>19.36376953125</ele>
        <time>2011-04-16T03:35:07Z</time>
      </trkpt>
      <trkpt lat="36.499951640143991" lon="-4.796285089105368">
        <ele>19.36376953125</ele>
        <time>2011-04-16T03:35:18Z</time>
      </trkpt>
      <trkpt lat="36.500887982547283" lon="-4.800243526697159">
        <ele>20.8056640625</ele>
        <time>2011-04-16T03:35:30Z</time>
      </trkpt>
      <trkpt lat="36.50196916423738" lon="-4.80473211966455">
        <ele>32.822265625</ele>
        <time>2011-04-16T03:35:44Z</time>
      </trkpt>
      <trkpt lat="36.502556065097451" lon="-4.80636365711689">
        <ele>34.26416015625</ele>
        <time>2011-04-16T03:35:50Z</time>
      </trkpt>
      <trkpt lat="36.503850650042295" lon="-4.809149634093046">
        <ele>28.9769287109375</ele>
        <time>2011-04-16T03:36:00Z</time>
      </trkpt>
      <trkpt lat="36.505139283835888" lon="-4.812163850292563">
        <ele>18.883056640625</ele>
        <time>2011-04-16T03:36:10Z</time>
      </trkpt>
      <trkpt lat="36.505405995994806" lon="-4.813838889822364">
        <ele>16.479736328125</ele>
        <time>2011-04-16T03:36:15Z</time>
      </trkpt>
      <trkpt lat="36.505868257954717" lon="-4.818760743364692">
        <ele>16.96044921875</ele>
        <time>2011-04-16T03:36:29Z</time>
      </trkpt>
      <trkpt lat="36.506177382543683" lon="-4.822127586230636">
        <ele>28.9769287109375</ele>
        <time>2011-04-16T03:36:39Z</time>
      </trkpt>
      <trkpt lat="36.50658524595201" lon="-4.825561149045825">
        <ele>38.590087890625</ele>
        <time>2011-04-16T03:36:50Z</time>
      </trkpt>
      <trkpt lat="36.506931921467185" lon="-4.828519877046347">
        <ele>36.66748046875</ele>
        <time>2011-04-16T03:36:59Z</time>
      </trkpt>
      <trkpt lat="36.506996545940638" lon="-4.831084068864584">
        <ele>28.0155029296875</ele>
        <time>2011-04-16T03:37:06Z</time>
      </trkpt>
      <trkpt lat="36.507005346938968" lon="-4.833843475207686">
        <ele>18.883056640625</ele>
        <time>2011-04-16T03:37:14Z</time>
      </trkpt>
      <trkpt lat="36.507031079381704" lon="-4.83793786726892">
        <ele>18.883056640625</ele>
        <time>2011-04-16T03:37:27Z</time>
      </trkpt>
      <trkpt lat="36.507051782682538" lon="-4.841891443356872">
        <ele>17.441162109375</ele>
        <time>2011-04-16T03:37:40Z</time>
      </trkpt>
      <trkpt lat="36.507047340273857" lon="-4.842162765562534">
        <ele>16.96044921875</ele>
        <time>2011-04-16T03:37:41Z</time>
      </trkpt>
      <trkpt lat="36.506751794368029" lon="-4.84341879375279">
        <ele>16.96044921875</ele>
        <time>2011-04-16T03:37:46Z</time>
      </trkpt>
      <trkpt lat="36.506514670327306" lon="-4.843867979943752">
        <ele>17.9217529296875</ele>
        <time>2011-04-16T03:37:48Z</time>
      </trkpt>
      <trkpt lat="36.506008068099618" lon="-4.844674067571759">
        <ele>20.8056640625</ele>
        <time>2011-04-16T03:37:52Z</time>
      </trkpt>
      <trkpt lat="36.505753174424171" lon="-4.84534109942615">
        <ele>22.728271484375</ele>
        <time>2011-04-16T03:37:55Z</time>
      </trkpt>
      <trkpt lat="36.505694836378098" lon="-4.846624117344618">
        <ele>24.1702880859375</ele>
        <time>2011-04-16T03:38:00Z</time>
      </trkpt>
      <trkpt lat="36.505747893825173" lon="-4.846891667693853">
        <ele>24.6510009765625</ele>
        <time>2011-04-16T03:38:01Z</time>
      </trkpt>
      <trkpt lat="36.506357258185744" lon="-4.849515371024609">
        <ele>22.728271484375</ele>
        <time>2011-04-16T03:38:10Z</time>
      </trkpt>
      <trkpt lat="36.507443133741617" lon="-4.854159196838737">
        <ele>23.208984375</ele>
        <time>2011-04-16T03:38:25Z</time>
      </trkpt>
      <trkpt lat="36.508137742057443" lon="-4.857323030009866">
        <ele>20.324951171875</ele>
        <time>2011-04-16T03:38:35Z</time>
      </trkpt>
      <trkpt lat="36.508969143033028" lon="-4.860349651426077">
        <ele>24.1702880859375</ele>
        <time>2011-04-16T03:38:45Z</time>
      </trkpt>
      <trkpt lat="36.509687975049019" lon="-4.861646331846714">
        <ele>26.5736083984375</ele>
        <time>2011-04-16T03:38:50Z</time>
      </trkpt>
      <trkpt lat="36.510669747367501" lon="-4.862659871578217">
        <ele>29.45751953125</ele>
        <time>2011-04-16T03:38:55Z</time>
      </trkpt>
      <trkpt lat="36.511842291802168" lon="-4.863351965323091">
        <ele>31.380126953125</ele>
        <time>2011-04-16T03:39:00Z</time>
      </trkpt>
      <trkpt lat="36.514650480821729" lon="-4.864533729851246">
        <ele>37.628662109375</ele>
        <time>2011-04-16T03:39:11Z</time>
      </trkpt>
      <trkpt lat="36.517752874642611" lon="-4.865874331444502">
        <ele>45.7999267578125</ele>
        <time>2011-04-16T03:39:23Z</time>
      </trkpt>
      <trkpt lat="36.51890505105257" lon="-4.866665164008737">
        <ele>51.087158203125</ele>
        <time>2011-04-16T03:39:28Z</time>
      </trkpt>
      <trkpt lat="36.519803758710623" lon="-4.867830835282803">
        <ele>56.37451171875</ele>
        <time>2011-04-16T03:39:33Z</time>
      </trkpt>
      <trkpt lat="36.520385378971696" lon="-4.869276126846671">
        <ele>60.7003173828125</ele>
        <time>2011-04-16T03:39:38Z</time>
      </trkpt>
      <trkpt lat="36.520581180229783" lon="-4.870178857818246">
        <ele>63.5843505859375</ele>
        <time>2011-04-16T03:39:41Z</time>
      </trkpt>
      <trkpt lat="36.520489482209086" lon="-4.871952887624502">
        <ele>69.8328857421875</ele>
        <time>2011-04-16T03:39:47Z</time>
      </trkpt>
      <trkpt lat="36.51999905705452" lon="-4.874272998422384">
        <ele>74.6395263671875</ele>
        <time>2011-04-16T03:39:55Z</time>
      </trkpt>
      <trkpt lat="36.520034428685904" lon="-4.875827338546515">
        <ele>76.0814208984375</ele>
        <time>2011-04-16T03:40:00Z</time>
      </trkpt>
      <trkpt lat="36.520464587956667" lon="-4.877946954220533">
        <ele>79.446044921875</ele>
        <time>2011-04-16T03:40:07Z</time>
      </trkpt>
      <trkpt lat="36.520885778591037" lon="-4.880284834653139">
        <ele>81.849365234375</ele>
        <time>2011-04-16T03:40:15Z</time>
      </trkpt>
      <trkpt lat="36.520893657580018" lon="-4.880896881222725">
        <ele>81.849365234375</ele>
        <time>2011-04-16T03:40:17Z</time>
      </trkpt>
      <trkpt lat="36.520592495799065" lon="-4.882744755595923">
        <ele>81.3687744140625</ele>
        <time>2011-04-16T03:40:23Z</time>
      </trkpt>
      <trkpt lat="36.519755478948355" lon="-4.886380573734641">
        <ele>77.5234375</ele>
        <time>2011-04-16T03:40:35Z</time>
      </trkpt>
      <trkpt lat="36.519277123734355" lon="-4.889173926785588">
        <ele>74.6395263671875</ele>
        <time>2011-04-16T03:40:44Z</time>
      </trkpt>
      <trkpt lat="36.519032288342714" lon="-4.89194892346859">
        <ele>75.1202392578125</ele>
        <time>2011-04-16T03:40:53Z</time>
      </trkpt>
      <trkpt lat="36.518662730231881" lon="-4.893710045143962">
        <ele>79.446044921875</ele>
        <time>2011-04-16T03:40:59Z</time>
      </trkpt>
      <trkpt lat="36.517801154404879" lon="-4.896343136206269">
        <ele>83.77197265625</ele>
        <time>2011-04-16T03:41:08Z</time>
      </trkpt>
      <trkpt lat="36.5170091483742" lon="-4.898831387981772">
        <ele>81.3687744140625</ele>
        <time>2011-04-16T03:41:17Z</time>
      </trkpt>
      <trkpt lat="36.516639925539494" lon="-4.900803482159972">
        <ele>77.5234375</ele>
        <time>2011-04-16T03:41:24Z</time>
      </trkpt>
      <trkpt lat="36.516570439562201" lon="-4.902865597978234">
        <ele>73.1976318359375</ele>
        <time>2011-04-16T03:41:31Z</time>
      </trkpt>
      <trkpt lat="36.516517465934157" lon="-4.906797632575035">
        <ele>68.87158203125</ele>
        <time>2011-04-16T03:41:44Z</time>
      </trkpt>
      <trkpt lat="36.51621563360095" lon="-4.908249378204346">
        <ele>71.27490234375</ele>
        <time>2011-04-16T03:41:49Z</time>
      </trkpt>
      <trkpt lat="36.515477690845728" lon="-4.910190040245652">
        <ele>75.600830078125</ele>
        <time>2011-04-16T03:41:56Z</time>
      </trkpt>
      <trkpt lat="36.514705298468471" lon="-4.912586761638522">
        <ele>75.600830078125</ele>
        <time>2011-04-16T03:42:04Z</time>
      </trkpt>
      <trkpt lat="36.514278575778008" lon="-4.914953056722879">
        <ele>71.7554931640625</ele>
        <time>2011-04-16T03:42:11Z</time>
      </trkpt>
      <trkpt lat="36.513827042654157" lon="-4.918405395001173">
        <ele>68.87158203125</ele>
        <time>2011-04-16T03:42:21Z</time>
      </trkpt>
      <trkpt lat="36.513392440974712" lon="-4.921545926481485">
        <ele>66.948974609375</ele>
        <time>2011-04-16T03:42:31Z</time>
      </trkpt>
      <trkpt lat="36.513157747685909" lon="-4.923986569046974">
        <ele>63.5843505859375</ele>
        <time>2011-04-16T03:42:39Z</time>
      </trkpt>
      <trkpt lat="36.513050459325314" lon="-4.926899196580052">
        <ele>60.7003173828125</ele>
        <time>2011-04-16T03:42:48Z</time>
      </trkpt>
      <trkpt lat="36.513054398819804" lon="-4.929331876337528">
        <ele>59.7391357421875</ele>
        <time>2011-04-16T03:42:56Z</time>
      </trkpt>
      <trkpt lat="36.513421274721622" lon="-4.931150749325752">
        <ele>60.2197265625</ele>
        <time>2011-04-16T03:43:02Z</time>
      </trkpt>
      <trkpt lat="36.514144465327263" lon="-4.932798380032182">
        <ele>61.6617431640625</ele>
        <time>2011-04-16T03:43:08Z</time>
      </trkpt>
      <trkpt lat="36.515380460768938" lon="-4.93494875729084">
        <ele>67.4296875</ele>
        <time>2011-04-16T03:43:17Z</time>
      </trkpt>
      <trkpt lat="36.516594160348177" lon="-4.936314420774579">
        <ele>77.0428466796875</ele>
        <time>2011-04-16T03:43:24Z</time>
      </trkpt>
      <trkpt lat="36.518223350867629" lon="-4.937538933008909">
        <ele>89.059326171875</ele>
        <time>2011-04-16T03:43:32Z</time>
      </trkpt>
      <trkpt lat="36.520711937919259" lon="-4.939403822645545">
        <ele>103.959716796875</ele>
        <time>2011-04-16T03:43:44Z</time>
      </trkpt>
      <trkpt lat="36.522503569722176" lon="-4.941151952371001">
        <ele>112.1309814453125</ele>
        <time>2011-04-16T03:43:53Z</time>
      </trkpt>
      <trkpt lat="36.523766554892063" lon="-4.942848868668079">
        <ele>116.456787109375</ele>
        <time>2011-04-16T03:44:00Z</time>
      </trkpt>
      <trkpt lat="36.524824434891343" lon="-4.944808976724744">
        <ele>117.418212890625</ele>
        <time>2011-04-16T03:44:07Z</time>
      </trkpt>
      <trkpt lat="36.525720041245222" lon="-4.947217684239149">
        <ele>115.014892578125</ele>
        <time>2011-04-16T03:44:15Z</time>
      </trkpt>
      <trkpt lat="36.526225637644529" lon="-4.949528072029352">
        <ele>110.208251953125</ele>
        <time>2011-04-16T03:44:22Z</time>
      </trkpt>
      <trkpt lat="36.526465695351362" lon="-4.952043648809195">
        <ele>103.47900390625</ele>
        <time>2011-04-16T03:44:29Z</time>
      </trkpt>
      <trkpt lat="36.526362346485257" lon="-4.954582527279854">
        <ele>101.556396484375</ele>
        <time>2011-04-16T03:44:36Z</time>
      </trkpt>
      <trkpt lat="36.525914166122675" lon="-4.958450356498361">
        <ele>106.363037109375</ele>
        <time>2011-04-16T03:44:47Z</time>
      </trkpt>
      <trkpt lat="36.525950962677598" lon="-4.960736185312271">
        <ele>110.208251953125</ele>
        <time>2011-04-16T03:44:54Z</time>
      </trkpt>
      <trkpt lat="36.526520680636168" lon="-4.965784186497331">
        <ele>120.3021240234375</ele>
        <time>2011-04-16T03:45:12Z</time>
      </trkpt>
      <trkpt lat="36.526532080024481" lon="-4.968166071921587">
        <ele>125.1087646484375</ele>
        <time>2011-04-16T03:45:20Z</time>
      </trkpt>
      <trkpt lat="36.52621298097074" lon="-4.970580646768212">
        <ele>130.39599609375</ele>
        <time>2011-04-16T03:45:28Z</time>
      </trkpt>
      <trkpt lat="36.525566317141056" lon="-4.972957586869597">
        <ele>135.2025146484375</ele>
        <time>2011-04-16T03:45:36Z</time>
      </trkpt>
      <trkpt lat="36.524506844580173" lon="-4.975483976304531">
        <ele>141.9317626953125</ele>
        <time>2011-04-16T03:45:45Z</time>
      </trkpt>
      <trkpt lat="36.523311836645007" lon="-4.977596299722791">
        <ele>143.3736572265625</ele>
        <time>2011-04-16T03:45:53Z</time>
      </trkpt>
      <trkpt lat="36.521838633343577" lon="-4.979589097201824">
        <ele>140.0091552734375</ele>
        <time>2011-04-16T03:46:01Z</time>
      </trkpt>
      <trkpt lat="36.520283119753003" lon="-4.981208564713597">
        <ele>134.2412109375</ele>
        <time>2011-04-16T03:46:08Z</time>
      </trkpt>
      <trkpt lat="36.518294429406524" lon="-4.982827696949244">
        <ele>122.2247314453125</ele>
        <time>2011-04-16T03:46:16Z</time>
      </trkpt>
      <trkpt lat="36.515856049954891" lon="-4.984902134165168">
        <ele>106.363037109375</ele>
        <time>2011-04-16T03:46:26Z</time>
      </trkpt>
      <trkpt lat="36.514412350952625" lon="-4.986660238355398">
        <ele>95.3077392578125</ele>
        <time>2011-04-16T03:46:33Z</time>
      </trkpt>
      <trkpt lat="36.512560788542032" lon="-4.989277571439743">
        <ele>83.2913818359375</ele>
        <time>2011-04-16T03:46:43Z</time>
      </trkpt>
      <trkpt lat="36.510917181149125" lon="-4.991040537133813">
        <ele>77.5234375</ele>
        <time>2011-04-16T03:46:51Z</time>
      </trkpt>
      <trkpt lat="36.509257145226002" lon="-4.992286339402199">
        <ele>74.1588134765625</ele>
        <time>2011-04-16T03:46:58Z</time>
      </trkpt>
      <trkpt lat="36.507645975798368" lon="-4.993203822523356">
        <ele>72.2362060546875</ele>
        <time>2011-04-16T03:47:05Z</time>
      </trkpt>
      <trkpt lat="36.50580589659512" lon="-4.994338899850845">
        <ele>71.7554931640625</ele>
        <time>2011-04-16T03:47:14Z</time>
      </trkpt>
      <trkpt lat="36.504242336377501" lon="-4.995704479515553">
        <ele>70.3134765625</ele>
        <time>2011-04-16T03:47:22Z</time>
      </trkpt>
      <trkpt lat="36.501836562529206" lon="-4.998236736282706">
        <ele>67.4296875</ele>
        <time>2011-04-16T03:47:35Z</time>
      </trkpt>
      <trkpt lat="36.501032235100865" lon="-5.000873934477568">
        <ele>65.507080078125</ele>
        <time>2011-04-16T03:47:44Z</time>
      </trkpt>
      <trkpt lat="36.500273337587714" lon="-5.003055073320866">
        <ele>63.1036376953125</ele>
        <time>2011-04-16T03:47:53Z</time>
      </trkpt>
      <trkpt lat="36.49979674257338" lon="-5.005222465842962">
        <ele>62.6229248046875</ele>
        <time>2011-04-16T03:48:02Z</time>
      </trkpt>
      <trkpt lat="36.499615274369717" lon="-5.006412947550416">
        <ele>62.142333984375</ele>
        <time>2011-04-16T03:48:08Z</time>
      </trkpt>
      <trkpt lat="36.499492982402444" lon="-5.00772362574935">
        <ele>62.142333984375</ele>
        <time>2011-04-16T03:48:17Z</time>
      </trkpt>
      <trkpt lat="36.499451156705618" lon="-5.008425442501903">
        <ele>62.6229248046875</ele>
        <time>2011-04-16T03:48:24Z</time>
      </trkpt>
      <trkpt lat="36.499432884156704" lon="-5.008651837706566">
        <ele>63.1036376953125</ele>
        <time>2011-04-16T03:48:32Z</time>
      </trkpt>
      <trkpt lat="36.499455766752362" lon="-5.008840765804052">
        <ele>52.048583984375</ele>
        <time>2011-04-16T03:49:09Z</time>
      </trkpt>
      <trkpt lat="36.499445121735334" lon="-5.009507043287158">
        <ele>56.37451171875</ele>
        <time>2011-04-16T03:49:17Z</time>
      </trkpt>
      <trkpt lat="36.499386448413134" lon="-5.010384796187282">
        <ele>59.2584228515625</ele>
        <time>2011-04-16T03:49:23Z</time>
      </trkpt>
      <trkpt lat="36.499163741245866" lon="-5.012045418843627">
        <ele>62.6229248046875</ele>
        <time>2011-04-16T03:49:32Z</time>
      </trkpt>
      <trkpt lat="36.498687984421849" lon="-5.014046765863895">
        <ele>62.6229248046875</ele>
        <time>2011-04-16T03:49:41Z</time>
      </trkpt>
      <trkpt lat="36.498022964224219" lon="-5.016133775934577">
        <ele>64.545654296875</ele>
        <time>2011-04-16T03:49:51Z</time>
      </trkpt>
      <trkpt lat="36.497450564056635" lon="-5.018400577828288">
        <ele>71.27490234375</ele>
        <time>2011-04-16T03:50:02Z</time>
      </trkpt>
      <trkpt lat="36.497266246005893" lon="-5.020415419712663">
        <ele>81.3687744140625</ele>
        <time>2011-04-16T03:50:11Z</time>
      </trkpt>
      <trkpt lat="36.497346879914403" lon="-5.022283997386694">
        <ele>89.5399169921875</ele>
        <time>2011-04-16T03:50:19Z</time>
      </trkpt>
      <trkpt lat="36.497570173814893" lon="-5.02528396435082">
        <ele>102.037109375</ele>
        <time>2011-04-16T03:50:31Z</time>
      </trkpt>
      <trkpt lat="36.497541088610888" lon="-5.02796265296638">
        <ele>112.611572265625</ele>
        <time>2011-04-16T03:50:41Z</time>
      </trkpt>
      <trkpt lat="36.49721335619688" lon="-5.030539752915502">
        <ele>124.6280517578125</ele>
        <time>2011-04-16T03:50:50Z</time>
      </trkpt>
      <trkpt lat="36.496661491692066" lon="-5.032875118777156">
        <ele>134.2412109375</ele>
        <time>2011-04-16T03:50:58Z</time>
      </trkpt>
      <trkpt lat="36.495773093774915" lon="-5.035401256754994">
        <ele>144.335205078125</ele>
        <time>2011-04-16T03:51:07Z</time>
      </trkpt>
      <trkpt lat="36.494680428877473" lon="-5.037592453882098">
        <ele>149.622314453125</ele>
        <time>2011-04-16T03:51:15Z</time>
      </trkpt>
      <trkpt lat="36.493323063477874" lon="-5.039665130898356">
        <ele>150.10302734375</ele>
        <time>2011-04-16T03:51:23Z</time>
      </trkpt>
      <trkpt lat="36.491758162155747" lon="-5.041491379961371">
        <ele>146.2578125</ele>
        <time>2011-04-16T03:51:31Z</time>
      </trkpt>
      <trkpt lat="36.489686323329806" lon="-5.043577216565609">
        <ele>136.6446533203125</ele>
        <time>2011-04-16T03:51:41Z</time>
      </trkpt>
      <trkpt lat="36.487538879737258" lon="-5.045897997915745">
        <ele>125.1087646484375</ele>
        <time>2011-04-16T03:51:51Z</time>
      </trkpt>
      <trkpt lat="36.486272877082229" lon="-5.047783171758056">
        <ele>118.37939453125</ele>
        <time>2011-04-16T03:51:58Z</time>
      </trkpt>
      <trkpt lat="36.485267383977771" lon="-5.049864565953612">
        <ele>114.5341796875</ele>
        <time>2011-04-16T03:52:05Z</time>
      </trkpt>
      <trkpt lat="36.484548468142748" lon="-5.052093481644988">
        <ele>111.6502685546875</ele>
        <time>2011-04-16T03:52:12Z</time>
      </trkpt>
      <trkpt lat="36.484122667461634" lon="-5.054402528330684">
        <ele>109.2469482421875</ele>
        <time>2011-04-16T03:52:19Z</time>
      </trkpt>
      <trkpt lat="36.48401303216815" lon="-5.056667234748602">
        <ele>106.8436279296875</ele>
        <time>2011-04-16T03:52:26Z</time>
      </trkpt>
      <trkpt lat="36.484202295541763" lon="-5.059142829850316">
        <ele>104.4404296875</ele>
        <time>2011-04-16T03:52:34Z</time>
      </trkpt>
      <trkpt lat="36.48471568711102" lon="-5.064680501818657">
        <ele>99.6337890625</ele>
        <time>2011-04-16T03:52:52Z</time>
      </trkpt>
      <trkpt lat="36.486165588721633" lon="-5.067663621157408">
        <ele>97.711181640625</ele>
        <time>2011-04-16T03:53:03Z</time>
      </trkpt>
      <trkpt lat="36.486370358616114" lon="-5.070631485432386">
        <ele>94.3465576171875</ele>
        <time>2011-04-16T03:53:12Z</time>
      </trkpt>
      <trkpt lat="36.486288635060191" lon="-5.073362728580833">
        <ele>91.9432373046875</ele>
        <time>2011-04-16T03:53:20Z</time>
      </trkpt>
      <trkpt lat="36.485915221273899" lon="-5.076159853488207">
        <ele>90.98193359375</ele>
        <time>2011-04-16T03:53:28Z</time>
      </trkpt>
      <trkpt lat="36.485234024003148" lon="-5.078880535438657">
        <ele>92.904541015625</ele>
        <time>2011-04-16T03:53:36Z</time>
      </trkpt>
      <trkpt lat="36.484311260282993" lon="-5.08136878721416">
        <ele>100.114501953125</ele>
        <time>2011-04-16T03:53:44Z</time>
      </trkpt>
      <trkpt lat="36.483228737488389" lon="-5.083516398444772">
        <ele>108.7662353515625</ele>
        <time>2011-04-16T03:53:52Z</time>
      </trkpt>
      <trkpt lat="36.481872545555234" lon="-5.085592092946172">
        <ele>117.8988037109375</ele>
        <time>2011-04-16T03:54:01Z</time>
      </trkpt>
      <trkpt lat="36.480163559317589" lon="-5.087597379460931">
        <ele>128.473388671875</ele>
        <time>2011-04-16T03:54:11Z</time>
      </trkpt>
      <trkpt lat="36.477853674441576" lon="-5.08981129154563">
        <ele>142.4124755859375</ele>
        <time>2011-04-16T03:54:23Z</time>
      </trkpt>
      <trkpt lat="36.476179892197251" lon="-5.091634774580598">
        <ele>149.622314453125</ele>
        <time>2011-04-16T03:54:32Z</time>
      </trkpt>
      <trkpt lat="36.475247154012322" lon="-5.093157347291708">
        <ele>151.544921875</ele>
        <time>2011-04-16T03:54:38Z</time>
      </trkpt>
      <trkpt lat="36.474514659494162" lon="-5.094945458695293">
        <ele>151.064208984375</ele>
        <time>2011-04-16T03:54:44Z</time>
      </trkpt>
      <trkpt lat="36.474037980660796" lon="-5.096974465996027">
        <ele>149.1416015625</ele>
        <time>2011-04-16T03:54:50Z</time>
      </trkpt>
      <trkpt lat="36.473888531327248" lon="-5.099175721406937">
        <ele>143.8543701171875</ele>
        <time>2011-04-16T03:54:56Z</time>
      </trkpt>
      <trkpt lat="36.474083829671144" lon="-5.101825576275587">
        <ele>131.837890625</ele>
        <time>2011-04-16T03:55:03Z</time>
      </trkpt>
      <trkpt lat="36.474265297874808" lon="-5.10473694652319">
        <ele>118.860107421875</ele>
        <time>2011-04-16T03:55:11Z</time>
      </trkpt>
      <trkpt lat="36.474068993702531" lon="-5.106806522235274">
        <ele>110.6888427734375</ele>
        <time>2011-04-16T03:55:17Z</time>
      </trkpt>
      <trkpt lat="36.473580999299884" lon="-5.108760930597782">
        <ele>101.556396484375</ele>
        <time>2011-04-16T03:55:23Z</time>
      </trkpt>
      <trkpt lat="36.472802991047502" lon="-5.110581563785672">
        <ele>93.8658447265625</ele>
        <time>2011-04-16T03:55:29Z</time>
      </trkpt>
      <trkpt lat="36.471770592033863" lon="-5.112201198935509">
        <ele>87.1365966796875</ele>
        <time>2011-04-16T03:55:35Z</time>
      </trkpt>
      <trkpt lat="36.470513558015227" lon="-5.113536855205894">
        <ele>84.252685546875</ele>
        <time>2011-04-16T03:55:41Z</time>
      </trkpt>
      <trkpt lat="36.469056364148855" lon="-5.114539079368115">
        <ele>83.2913818359375</ele>
        <time>2011-04-16T03:55:47Z</time>
      </trkpt>
      <trkpt lat="36.467468328773975" lon="-5.11516235768795">
        <ele>84.7333984375</ele>
        <time>2011-04-16T03:55:53Z</time>
      </trkpt>
      <trkpt lat="36.464688135311007" lon="-5.115782367065549">
        <ele>86.17529296875</ele>
        <time>2011-04-16T03:56:03Z</time>
      </trkpt>
      <trkpt lat="36.462204242125154" lon="-5.116594741120935">
        <ele>88.0980224609375</ele>
        <time>2011-04-16T03:56:12Z</time>
      </trkpt>
      <trkpt lat="36.460346644744277" lon="-5.117605431005359">
        <ele>88.0980224609375</ele>
        <time>2011-04-16T03:56:19Z</time>
      </trkpt>
      <trkpt lat="36.458832118660212" lon="-5.118773197755218">
        <ele>85.2139892578125</ele>
        <time>2011-04-16T03:56:25Z</time>
      </trkpt>
      <trkpt lat="36.457190858200192" lon="-5.120506323873997">
        <ele>78.4847412109375</ele>
        <time>2011-04-16T03:56:32Z</time>
      </trkpt>
      <trkpt lat="36.455578850582242" lon="-5.122728534042835">
        <ele>70.794189453125</ele>
        <time>2011-04-16T03:56:40Z</time>
      </trkpt>
      <trkpt lat="36.454028533771634" lon="-5.12480154633522">
        <ele>62.6229248046875</ele>
        <time>2011-04-16T03:56:48Z</time>
      </trkpt>
      <trkpt lat="36.45230496302247" lon="-5.12666366994381">
        <ele>56.37451171875</ele>
        <time>2011-04-16T03:56:56Z</time>
      </trkpt>
      <trkpt lat="36.450133044272661" lon="-5.128480028361082">
        <ele>54.932373046875</ele>
        <time>2011-04-16T03:57:05Z</time>
      </trkpt>
      <trkpt lat="36.447756858542562" lon="-5.129948956891894">
        <ele>54.4517822265625</ele>
        <time>2011-04-16T03:57:14Z</time>
      </trkpt>
      <trkpt lat="36.445268522948027" lon="-5.13099585659802">
        <ele>51.087158203125</ele>
        <time>2011-04-16T03:57:23Z</time>
      </trkpt>
      <trkpt lat="36.442159842699766" lon="-5.131961787119508">
        <ele>42.916015625</ele>
        <time>2011-04-16T03:57:34Z</time>
      </trkpt>
      <trkpt lat="36.440565772354603" lon="-5.132701238617301">
        <ele>39.0706787109375</ele>
        <time>2011-04-16T03:57:40Z</time>
      </trkpt>
      <trkpt lat="36.439199857413769" lon="-5.133691392838955">
        <ele>35.2254638671875</ele>
        <time>2011-04-16T03:57:46Z</time>
      </trkpt>
      <trkpt lat="36.437826063483953" lon="-5.135126793757081">
        <ele>30.8995361328125</ele>
        <time>2011-04-16T03:57:53Z</time>
      </trkpt>
      <trkpt lat="36.436665924265981" lon="-5.136878276243806">
        <ele>28.4962158203125</ele>
        <time>2011-04-16T03:58:00Z</time>
      </trkpt>
      <trkpt lat="36.435851957648993" lon="-5.138839557766914">
        <ele>31.8607177734375</ele>
        <time>2011-04-16T03:58:07Z</time>
      </trkpt>
      <trkpt lat="36.43548977561295" lon="-5.140562038868666">
        <ele>36.66748046875</ele>
        <time>2011-04-16T03:58:13Z</time>
      </trkpt>
      <trkpt lat="36.43542087636888" lon="-5.142586268484592">
        <ele>40.5128173828125</ele>
        <time>2011-04-16T03:58:20Z</time>
      </trkpt>
      <trkpt lat="36.435639476403594" lon="-5.145250791683793">
        <ele>44.3580322265625</ele>
        <time>2011-04-16T03:58:29Z</time>
      </trkpt>
      <trkpt lat="36.435789344832301" lon="-5.149039831012487">
        <ele>49.645263671875</ele>
        <time>2011-04-16T03:58:41Z</time>
      </trkpt>
      <trkpt lat="36.435619862750173" lon="-5.151244271546602">
        <ele>48.203369140625</ele>
        <time>2011-04-16T03:58:48Z</time>
      </trkpt>
      <trkpt lat="36.435134969651699" lon="-5.153758842498064">
        <ele>45.3192138671875</ele>
        <time>2011-04-16T03:58:56Z</time>
      </trkpt>
      <trkpt lat="36.43427993170917" lon="-5.157103724777699">
        <ele>40.5128173828125</ele>
        <time>2011-04-16T03:59:07Z</time>
      </trkpt>
      <trkpt lat="36.433516843244433" lon="-5.160221122205257">
        <ele>35.2254638671875</ele>
        <time>2011-04-16T03:59:18Z</time>
      </trkpt>
      <trkpt lat="36.43323278054595" lon="-5.162355741485953">
        <ele>31.8607177734375</ele>
        <time>2011-04-16T03:59:25Z</time>
      </trkpt>
      <trkpt lat="36.433165222406387" lon="-5.164818428456783">
        <ele>32.822265625</ele>
        <time>2011-04-16T03:59:33Z</time>
      </trkpt>
      <trkpt lat="36.433160277083516" lon="-5.167684871703386">
        <ele>44.838623046875</ele>
        <time>2011-04-16T03:59:43Z</time>
      </trkpt>
      <trkpt lat="36.433193050324917" lon="-5.170588530600071">
        <ele>57.8165283203125</ele>
        <time>2011-04-16T03:59:54Z</time>
      </trkpt>
      <trkpt lat="36.433403352275491" lon="-5.173471905291081">
        <ele>68.390869140625</ele>
        <time>2011-04-16T04:00:06Z</time>
      </trkpt>
      <trkpt lat="36.433812724426389" lon="-5.175826633349061">
        <ele>69.352294921875</ele>
        <time>2011-04-16T04:00:16Z</time>
      </trkpt>
      <trkpt lat="36.434039371088147" lon="-5.17818077467382">
        <ele>67.9102783203125</ele>
        <time>2011-04-16T04:00:25Z</time>
      </trkpt>
      <trkpt lat="36.433910792693496" lon="-5.180233251303434">
        <ele>62.6229248046875</ele>
        <time>2011-04-16T04:00:32Z</time>
      </trkpt>
      <trkpt lat="36.433449368923903" lon="-5.182660818099976">
        <ele>56.37451171875</ele>
        <time>2011-04-16T04:00:40Z</time>
      </trkpt>
      <trkpt lat="36.432946622371674" lon="-5.18564754165709">
        <ele>57.8165283203125</ele>
        <time>2011-04-16T04:00:49Z</time>
      </trkpt>
      <trkpt lat="36.432757694274187" lon="-5.188659662380815">
        <ele>70.3134765625</ele>
        <time>2011-04-16T04:00:58Z</time>
      </trkpt>
      <trkpt lat="36.432726681232452" lon="-5.191080188378692">
        <ele>83.2913818359375</ele>
        <time>2011-04-16T04:01:06Z</time>
      </trkpt>
      <trkpt lat="36.432534316554666" lon="-5.19358092918992">
        <ele>93.8658447265625</ele>
        <time>2011-04-16T04:01:15Z</time>
      </trkpt>
      <trkpt lat="36.431266469880939" lon="-5.201916564255953">
        <ele>174.6165771484375</ele>
        <time>2011-04-16T04:01:47Z</time>
      </trkpt>
      <trkpt lat="36.426669834181666" lon="-5.205043517053127">
        <ele>114.0535888671875</ele>
        <time>2011-04-16T04:02:06Z</time>
      </trkpt>
      <trkpt lat="36.425918648019433" lon="-5.207020221278071">
        <ele>115.014892578125</ele>
        <time>2011-04-16T04:02:14Z</time>
      </trkpt>
      <trkpt lat="36.424176217988133" lon="-5.212603658437729">
        <ele>127.9925537109375</ele>
        <time>2011-04-16T04:02:36Z</time>
      </trkpt>
      <trkpt lat="36.423153290525079" lon="-5.215321239084005">
        <ele>118.860107421875</ele>
        <time>2011-04-16T04:02:45Z</time>
      </trkpt>
      <trkpt lat="36.421772539615631" lon="-5.217312946915627">
        <ele>114.5341796875</ele>
        <time>2011-04-16T04:02:53Z</time>
      </trkpt>
      <trkpt lat="36.420092722401023" lon="-5.219134585931897">
        <ele>110.6888427734375</ele>
        <time>2011-04-16T04:03:01Z</time>
      </trkpt>
      <trkpt lat="36.41887005418539" lon="-5.220030695199966">
        <ele>108.28564453125</ele>
        <time>2011-04-16T04:03:06Z</time>
      </trkpt>
      <trkpt lat="36.417281264439225" lon="-5.220722034573555">
        <ele>104.9210205078125</ele>
        <time>2011-04-16T04:03:12Z</time>
      </trkpt>
      <trkpt lat="36.414824947714806" lon="-5.221410691738129">
        <ele>99.153076171875</ele>
        <time>2011-04-16T04:03:21Z</time>
      </trkpt>
      <trkpt lat="36.412997525185347" lon="-5.22228978574276">
        <ele>95.7884521484375</ele>
        <time>2011-04-16T04:03:28Z</time>
      </trkpt>
      <trkpt lat="36.411388367414474" lon="-5.223419331014156">
        <ele>92.904541015625</ele>
        <time>2011-04-16T04:03:35Z</time>
      </trkpt>
      <trkpt lat="36.409934274852276" lon="-5.224823048338294">
        <ele>90.0206298828125</ele>
        <time>2011-04-16T04:03:42Z</time>
      </trkpt>
      <trkpt lat="36.408523852005601" lon="-5.226669330149889">
        <ele>86.656005859375</ele>
        <time>2011-04-16T04:03:50Z</time>
      </trkpt>
      <trkpt lat="36.406800029799342" lon="-5.229464024305344">
        <ele>89.059326171875</ele>
        <time>2011-04-16T04:04:01Z</time>
      </trkpt>
      <trkpt lat="36.404652670025826" lon="-5.232972018420696">
        <ele>100.114501953125</ele>
        <time>2011-04-16T04:04:15Z</time>
      </trkpt>
      <trkpt lat="36.401043422520161" lon="-5.238927863538265">
        <ele>166.926025390625</ele>
        <time>2011-04-16T04:04:40Z</time>
      </trkpt>
      <trkpt lat="36.401553126052022" lon="-5.245009437203407">
        <ele>92.4239501953125</ele>
        <time>2011-04-16T04:05:01Z</time>
      </trkpt>
      <trkpt lat="36.400987599045038" lon="-5.246919756755233">
        <ele>85.2139892578125</ele>
        <time>2011-04-16T04:05:07Z</time>
      </trkpt>
      <trkpt lat="36.400225851684809" lon="-5.248399581760168">
        <ele>78.4847412109375</ele>
        <time>2011-04-16T04:05:12Z</time>
      </trkpt>
      <trkpt lat="36.399244833737612" lon="-5.249619483947754">
        <ele>71.7554931640625</ele>
        <time>2011-04-16T04:05:17Z</time>
      </trkpt>
      <trkpt lat="36.397859221324325" lon="-5.250733690336347">
        <ele>67.4296875</ele>
        <time>2011-04-16T04:05:23Z</time>
      </trkpt>
      <trkpt lat="36.396405631676316" lon="-5.251393178477883">
        <ele>67.4296875</ele>
        <time>2011-04-16T04:05:29Z</time>
      </trkpt>
      <trkpt lat="36.394304288551211" lon="-5.252062054350972">
        <ele>69.8328857421875</ele>
        <time>2011-04-16T04:05:38Z</time>
      </trkpt>
      <trkpt lat="36.393024371936917" lon="-5.252879122272134">
        <ele>72.2362060546875</ele>
        <time>2011-04-16T04:05:44Z</time>
      </trkpt>
      <trkpt lat="36.391901364549994" lon="-5.25409022346139">
        <ele>73.1976318359375</ele>
        <time>2011-04-16T04:05:50Z</time>
      </trkpt>
      <trkpt lat="36.391009278595448" lon="-5.255672140046954">
        <ele>72.2362060546875</ele>
        <time>2011-04-16T04:05:56Z</time>
      </trkpt>
      <trkpt lat="36.390350628644228" lon="-5.257506854832172">
        <ele>70.794189453125</ele>
        <time>2011-04-16T04:06:02Z</time>
      </trkpt>
      <trkpt lat="36.389568261802197" lon="-5.259103439748287">
        <ele>70.794189453125</ele>
        <time>2011-04-16T04:06:08Z</time>
      </trkpt>
      <trkpt lat="36.388563439249992" lon="-5.260378578677774">
        <ele>74.1588134765625</ele>
        <time>2011-04-16T04:06:14Z</time>
      </trkpt>
      <trkpt lat="36.387366587296128" lon="-5.261334953829646">
        <ele>79.9266357421875</ele>
        <time>2011-04-16T04:06:20Z</time>
      </trkpt>
      <trkpt lat="36.386039396747947" lon="-5.261915484443307">
        <ele>87.1365966796875</ele>
        <time>2011-04-16T04:06:26Z</time>
      </trkpt>
      <trkpt lat="36.384664764627814" lon="-5.262124193832278">
        <ele>95.3077392578125</ele>
        <time>2011-04-16T04:06:32Z</time>
      </trkpt>
      <trkpt lat="36.38244423083961" lon="-5.262203570455313">
        <ele>108.28564453125</ele>
        <time>2011-04-16T04:06:42Z</time>
      </trkpt>
      <trkpt lat="36.38058646582067" lon="-5.262545133009553">
        <ele>118.37939453125</ele>
        <time>2011-04-16T04:06:51Z</time>
      </trkpt>
      <trkpt lat="36.379162631928921" lon="-5.263115353882313">
        <ele>124.1473388671875</ele>
        <time>2011-04-16T04:06:59Z</time>
      </trkpt>
      <trkpt lat="36.377698145806789" lon="-5.263920687139034">
        <ele>128.473388671875</ele>
        <time>2011-04-16T04:07:09Z</time>
      </trkpt>
      <trkpt lat="36.377205457538366" lon="-5.264283288270235">
        <ele>129.915283203125</ele>
        <time>2011-04-16T04:07:14Z</time>
      </trkpt>
      <trkpt lat="36.376700028777122" lon="-5.264644380658865">
        <ele>131.3572998046875</ele>
        <time>2011-04-16T04:07:22Z</time>
      </trkpt>
      <trkpt lat="36.376442117616534" lon="-5.264825094491243">
        <ele>132.318603515625</ele>
        <time>2011-04-16T04:07:31Z</time>
      </trkpt>
      <trkpt lat="36.376317730173469" lon="-5.264893658459187">
        <ele>118.37939453125</ele>
        <time>2011-04-16T04:08:06Z</time>
      </trkpt>
      <trkpt lat="36.375984465703368" lon="-5.265274280682206">
        <ele>119.3408203125</ele>
        <time>2011-04-16T04:08:13Z</time>
      </trkpt>
      <trkpt lat="36.375356242060661" lon="-5.26586277410388">
        <ele>120.7828369140625</ele>
        <time>2011-04-16T04:08:20Z</time>
      </trkpt>
      <trkpt lat="36.374233150854707" lon="-5.266760643571615">
        <ele>130.876708984375</ele>
        <time>2011-04-16T04:08:30Z</time>
      </trkpt>
      <trkpt lat="36.372921885922551" lon="-5.267599169164896">
        <ele>134.721923828125</ele>
        <time>2011-04-16T04:08:40Z</time>
      </trkpt>
      <trkpt lat="36.371462093666196" lon="-5.268236696720123">
        <ele>136.6446533203125</ele>
        <time>2011-04-16T04:08:49Z</time>
      </trkpt>
      <trkpt lat="36.369870621711016" lon="-5.268670879304409">
        <ele>135.2025146484375</ele>
        <time>2011-04-16T04:08:57Z</time>
      </trkpt>
      <trkpt lat="36.368078822270036" lon="-5.268817730247974">
        <ele>130.39599609375</ele>
        <time>2011-04-16T04:09:05Z</time>
      </trkpt>
      <trkpt lat="36.366370590403676" lon="-5.268633160740137">
        <ele>124.6280517578125</ele>
        <time>2011-04-16T04:09:13Z</time>
      </trkpt>
      <trkpt lat="36.363929696381092" lon="-5.26819696649909">
        <ele>115.9761962890625</ele>
        <time>2011-04-16T04:09:24Z</time>
      </trkpt>
      <trkpt lat="36.361657697707415" lon="-5.268057156354189">
        <ele>107.8050537109375</ele>
        <time>2011-04-16T04:09:33Z</time>
      </trkpt>
      <trkpt lat="36.359559958800673" lon="-5.268251867964864">
        <ele>101.556396484375</ele>
        <time>2011-04-16T04:09:41Z</time>
      </trkpt>
      <trkpt lat="36.35716499760747" lon="-5.26885804720223">
        <ele>100.114501953125</ele>
        <time>2011-04-16T04:09:50Z</time>
      </trkpt>
      <trkpt lat="36.35556036606431" lon="-5.269508650526404">
        <ele>102.037109375</ele>
        <time>2011-04-16T04:09:57Z</time>
      </trkpt>
      <trkpt lat="36.353063648566604" lon="-5.270771216601133">
        <ele>106.8436279296875</ele>
        <time>2011-04-16T04:10:09Z</time>
      </trkpt>
      <trkpt lat="36.351290456950665" lon="-5.271397428587079">
        <ele>109.7276611328125</ele>
        <time>2011-04-16T04:10:17Z</time>
      </trkpt>
      <trkpt lat="36.349606951698661" lon="-5.271587027236819">
        <ele>111.6502685546875</ele>
        <time>2011-04-16T04:10:24Z</time>
      </trkpt>
      <trkpt lat="36.347874077036977" lon="-5.271357866004109">
        <ele>113.572998046875</ele>
        <time>2011-04-16T04:10:31Z</time>
      </trkpt>
      <trkpt lat="36.346186297014356" lon="-5.270714638754726">
        <ele>116.9375</ele>
        <time>2011-04-16T04:10:38Z</time>
      </trkpt>
      <trkpt lat="36.344205820932984" lon="-5.269610323011875">
        <ele>123.666748046875</ele>
        <time>2011-04-16T04:10:47Z</time>
      </trkpt>
      <trkpt lat="36.342770671471953" lon="-5.269015962257981">
        <ele>127.511962890625</ele>
        <time>2011-04-16T04:10:54Z</time>
      </trkpt>
      <trkpt lat="36.341160256415606" lon="-5.268726367503405">
        <ele>130.39599609375</ele>
        <time>2011-04-16T04:11:02Z</time>
      </trkpt>
      <trkpt lat="36.339205428957939" lon="-5.268836170434952">
        <ele>132.79931640625</ele>
        <time>2011-04-16T04:11:11Z</time>
      </trkpt>
      <trkpt lat="36.337102744728327" lon="-5.268923426046968">
        <ele>134.721923828125</ele>
        <time>2011-04-16T04:11:20Z</time>
      </trkpt>
      <trkpt lat="36.335704056546092" lon="-5.26860449463129">
        <ele>136.1639404296875</ele>
        <time>2011-04-16T04:11:26Z</time>
      </trkpt>
      <trkpt lat="36.334229344502091" lon="-5.267927320674062">
        <ele>139.0478515625</ele>
        <time>2011-04-16T04:11:33Z</time>
      </trkpt>
      <trkpt lat="36.332849850878119" lon="-5.266905147582293">
        <ele>142.4124755859375</ele>
        <time>2011-04-16T04:11:40Z</time>
      </trkpt>
      <trkpt lat="36.331056375056505" lon="-5.265549877658486">
        <ele>146.7384033203125</ele>
        <time>2011-04-16T04:11:49Z</time>
      </trkpt>
      <trkpt lat="36.329724993556738" lon="-5.264968257397413">
        <ele>149.1416015625</ele>
        <time>2011-04-16T04:11:55Z</time>
      </trkpt>
      <trkpt lat="36.328056575730443" lon="-5.264630047604442">
        <ele>149.622314453125</ele>
        <time>2011-04-16T04:12:02Z</time>
      </trkpt>
      <trkpt lat="36.32654313929379" lon="-5.264743622392416">
        <ele>149.1416015625</ele>
        <time>2011-04-16T04:12:08Z</time>
      </trkpt>
      <trkpt lat="36.324997097253799" lon="-5.265222731977701">
        <ele>146.7384033203125</ele>
        <time>2011-04-16T04:12:14Z</time>
      </trkpt>
      <trkpt lat="36.323478883132339" lon="-5.266126971691847">
        <ele>142.4124755859375</ele>
        <time>2011-04-16T04:12:20Z</time>
      </trkpt>
      <trkpt lat="36.322177173569798" lon="-5.267366152256727">
        <ele>132.79931640625</ele>
        <time>2011-04-16T04:12:26Z</time>
      </trkpt>
      <trkpt lat="36.320311278104782" lon="-5.269707133993506">
        <ele>114.0535888671875</ele>
        <time>2011-04-16T04:12:36Z</time>
      </trkpt>
      <trkpt lat="36.318379249423742" lon="-5.271872263401747">
        <ele>99.153076171875</ele>
        <time>2011-04-16T04:12:46Z</time>
      </trkpt>
      <trkpt lat="36.316469181329012" lon="-5.273622656241059">
        <ele>84.7333984375</ele>
        <time>2011-04-16T04:12:55Z</time>
      </trkpt>
      <trkpt lat="36.31436163559556" lon="-5.275192335247994">
        <ele>69.352294921875</ele>
        <time>2011-04-16T04:13:04Z</time>
      </trkpt>
      <trkpt lat="36.312100365757942" lon="-5.27648457325995">
        <ele>58.297119140625</ele>
        <time>2011-04-16T04:13:13Z</time>
      </trkpt>
      <trkpt lat="36.309653855860233" lon="-5.277530048042536">
        <ele>47.2418212890625</ele>
        <time>2011-04-16T04:13:23Z</time>
      </trkpt>
      <trkpt lat="36.307328883558512" lon="-5.278232283890247">
        <ele>37.1480712890625</ele>
        <time>2011-04-16T04:13:32Z</time>
      </trkpt>
      <trkpt lat="36.304513989016414" lon="-5.27875523082912">
        <ele>24.6510009765625</ele>
        <time>2011-04-16T04:13:42Z</time>
      </trkpt>
      <trkpt lat="36.302234195172787" lon="-5.279362248256803">
        <ele>15.5184326171875</ele>
        <time>2011-04-16T04:13:50Z</time>
      </trkpt>
      <trkpt lat="36.300619337707758" lon="-5.280235474929214">
        <ele>11.1925048828125</ele>
        <time>2011-04-16T04:13:56Z</time>
      </trkpt>
      <trkpt lat="36.299185277894139" lon="-5.281435763463378">
        <ele>11.1925048828125</ele>
        <time>2011-04-16T04:14:02Z</time>
      </trkpt>
      <trkpt lat="36.297985576093197" lon="-5.282864375039935">
        <ele>11.1925048828125</ele>
        <time>2011-04-16T04:14:08Z</time>
      </trkpt>
      <trkpt lat="36.296883439645171" lon="-5.284756170585752">
        <ele>7.34716796875</ele>
        <time>2011-04-16T04:14:15Z</time>
      </trkpt>
      <trkpt lat="36.296085817739367" lon="-5.286920377984643">
        <ele>1.579345703125</ele>
        <time>2011-04-16T04:14:22Z</time>
      </trkpt>
      <trkpt lat="36.295286770910025" lon="-5.289610885083675">
        <ele>-2.7467041015625</ele>
        <time>2011-04-16T04:14:31Z</time>
      </trkpt>
      <trkpt lat="36.294479258358479" lon="-5.292360065504909">
        <ele>-2.7467041015625</ele>
        <time>2011-04-16T04:14:41Z</time>
      </trkpt>
      <trkpt lat="36.293457085266709" lon="-5.295819863677025">
        <ele>-0.3433837890625</ele>
        <time>2011-04-16T04:14:53Z</time>
      </trkpt>
      <trkpt lat="36.292508840560913" lon="-5.299023175612092">
        <ele>3.021240234375</ele>
        <time>2011-04-16T04:15:05Z</time>
      </trkpt>
      <trkpt lat="36.291429167613387" lon="-5.30205599963665">
        <ele>11.1925048828125</ele>
        <time>2011-04-16T04:15:17Z</time>
      </trkpt>
      <trkpt lat="36.290074316784739" lon="-5.305657116696239">
        <ele>15.9990234375</ele>
        <time>2011-04-16T04:15:31Z</time>
      </trkpt>
      <trkpt lat="36.289084078744054" lon="-5.3080387506634">
        <ele>16.96044921875</ele>
        <time>2011-04-16T04:15:40Z</time>
      </trkpt>
      <trkpt lat="36.288033658638597" lon="-5.30969861894846">
        <ele>18.883056640625</ele>
        <time>2011-04-16T04:15:47Z</time>
      </trkpt>
      <trkpt lat="36.286723734810948" lon="-5.311072077602148">
        <ele>27.0543212890625</ele>
        <time>2011-04-16T04:15:54Z</time>
      </trkpt>
      <trkpt lat="36.285238461568952" lon="-5.312116798013449">
        <ele>34.744873046875</ele>
        <time>2011-04-16T04:16:01Z</time>
      </trkpt>
      <trkpt lat="36.283602733165026" lon="-5.312832528725267">
        <ele>40.0321044921875</ele>
        <time>2011-04-16T04:16:08Z</time>
      </trkpt>
      <trkpt lat="36.280011339113116" lon="-5.314118899405003">
        <ele>49.16455078125</ele>
        <time>2011-04-16T04:16:23Z</time>
      </trkpt>
      <trkpt lat="36.278423639014363" lon="-5.314908726140857">
        <ele>53.009765625</ele>
        <time>2011-04-16T04:16:30Z</time>
      </trkpt>
      <trkpt lat="36.276005124673247" lon="-5.316371619701386">
        <ele>61.1810302734375</ele>
        <time>2011-04-16T04:16:41Z</time>
      </trkpt>
      <trkpt lat="36.273878971114755" lon="-5.31738767400384">
        <ele>59.2584228515625</ele>
        <time>2011-04-16T04:16:50Z</time>
      </trkpt>
      <trkpt lat="36.272378861904144" lon="-5.317695625126362">
        <ele>52.048583984375</ele>
        <time>2011-04-16T04:16:56Z</time>
      </trkpt>
      <trkpt lat="36.270925691351295" lon="-5.317620020359755">
        <ele>42.916015625</ele>
        <time>2011-04-16T04:17:02Z</time>
      </trkpt>
      <trkpt lat="36.269249645993114" lon="-5.317141665145755">
        <ele>32.341552734375</ele>
        <time>2011-04-16T04:17:09Z</time>
      </trkpt>
      <trkpt lat="36.267532948404551" lon="-5.316700022667646">
        <ele>22.24755859375</ele>
        <time>2011-04-16T04:17:16Z</time>
      </trkpt>
      <trkpt lat="36.266491077840328" lon="-5.316815776750445">
        <ele>17.441162109375</ele>
        <time>2011-04-16T04:17:20Z</time>
      </trkpt>
      <trkpt lat="36.265315264463425" lon="-5.317364456132054">
        <ele>14.076416015625</ele>
        <time>2011-04-16T04:17:25Z</time>
      </trkpt>
      <trkpt lat="36.264373725280166" lon="-5.318230893462896">
        <ele>16.96044921875</ele>
        <time>2011-04-16T04:17:30Z</time>
      </trkpt>
      <trkpt lat="36.26361507922411" lon="-5.31946973875165">
        <ele>22.728271484375</ele>
        <time>2011-04-16T04:17:36Z</time>
      </trkpt>
      <trkpt lat="36.263186596333981" lon="-5.320850154384971">
        <ele>28.4962158203125</ele>
        <time>2011-04-16T04:17:42Z</time>
      </trkpt>
      <trkpt lat="36.262935558333993" lon="-5.322769777849317">
        <ele>37.628662109375</ele>
        <time>2011-04-16T04:17:50Z</time>
      </trkpt>
      <trkpt lat="36.262496346607804" lon="-5.325243193656206">
        <ele>49.645263671875</ele>
        <time>2011-04-16T04:18:00Z</time>
      </trkpt>
      <trkpt lat="36.261889496818185" lon="-5.327238589525223">
        <ele>58.7777099609375</ele>
        <time>2011-04-16T04:18:08Z</time>
      </trkpt>
      <trkpt lat="36.260915771126747" lon="-5.329486867412925">
        <ele>62.6229248046875</ele>
        <time>2011-04-16T04:18:17Z</time>
      </trkpt>
      <trkpt lat="36.259522531181574" lon="-5.332008395344019">
        <ele>64.0650634765625</ele>
        <time>2011-04-16T04:18:27Z</time>
      </trkpt>
      <trkpt lat="36.258027032017708" lon="-5.334668224677444">
        <ele>78.0040283203125</ele>
        <time>2011-04-16T04:18:38Z</time>
      </trkpt>
      <trkpt lat="36.256221234798431" lon="-5.337796183302999">
        <ele>92.904541015625</ele>
        <time>2011-04-16T04:18:52Z</time>
      </trkpt>
      <trkpt lat="36.255221189931035" lon="-5.338842160999775">
        <ele>97.711181640625</ele>
        <time>2011-04-16T04:18:58Z</time>
      </trkpt>
      <trkpt lat="36.254219887778163" lon="-5.339414142072201">
        <ele>99.6337890625</ele>
        <time>2011-04-16T04:19:03Z</time>
      </trkpt>
      <trkpt lat="36.252944832667708" lon="-5.339697282761335">
        <ele>98.6724853515625</ele>
        <time>2011-04-16T04:19:09Z</time>
      </trkpt>
      <trkpt lat="36.251640692353249" lon="-5.339540122076869">
        <ele>96.7498779296875</ele>
        <time>2011-04-16T04:19:15Z</time>
      </trkpt>
      <trkpt lat="36.250335043296218" lon="-5.338906785473228">
        <ele>98.19189453125</ele>
        <time>2011-04-16T04:19:21Z</time>
      </trkpt>
      <trkpt lat="36.24878229573369" lon="-5.338229779154062">
        <ele>102.998291015625</ele>
        <time>2011-04-16T04:19:28Z</time>
      </trkpt>
      <trkpt lat="36.247397856786847" lon="-5.338125256821513">
        <ele>107.8050537109375</ele>
        <time>2011-04-16T04:19:34Z</time>
      </trkpt>
      <trkpt lat="36.246052728965878" lon="-5.338474866002798">
        <ele>113.572998046875</ele>
        <time>2011-04-16T04:19:40Z</time>
      </trkpt>
      <trkpt lat="36.24483902938664" lon="-5.339197888970375">
        <ele>119.8214111328125</ele>
        <time>2011-04-16T04:19:46Z</time>
      </trkpt>
      <trkpt lat="36.242420263588428" lon="-5.340952640399337">
        <ele>135.2025146484375</ele>
        <time>2011-04-16T04:19:58Z</time>
      </trkpt>
      <trkpt lat="36.239964365959167" lon="-5.342339761555195">
        <ele>147.69970703125</ele>
        <time>2011-04-16T04:20:09Z</time>
      </trkpt>
      <trkpt lat="36.237926054745913" lon="-5.343606686219573">
        <ele>154.428955078125</ele>
        <time>2011-04-16T04:20:18Z</time>
      </trkpt>
      <trkpt lat="36.236725179478526" lon="-5.344792138785124">
        <ele>156.8321533203125</ele>
        <time>2011-04-16T04:20:24Z</time>
      </trkpt>
      <trkpt lat="36.234624590724707" lon="-5.347241666167975">
        <ele>154.428955078125</ele>
        <time>2011-04-16T04:20:35Z</time>
      </trkpt>
      <trkpt lat="36.23251486569643" lon="-5.349926892668009">
        <ele>148.6610107421875</ele>
        <time>2011-04-16T04:20:46Z</time>
      </trkpt>
      <trkpt lat="36.231404431164265" lon="-5.352062182500958">
        <ele>144.8157958984375</ele>
        <time>2011-04-16T04:20:54Z</time>
      </trkpt>
      <trkpt lat="36.230024350807071" lon="-5.354976989328861">
        <ele>138.0865478515625</ele>
        <time>2011-04-16T04:21:05Z</time>
      </trkpt>
      <trkpt lat="36.228643599897623" lon="-5.357888443395495">
        <ele>127.9925537109375</ele>
        <time>2011-04-16T04:21:16Z</time>
      </trkpt>
      <trkpt lat="36.228009760379791" lon="-5.359654594212771">
        <ele>124.6280517578125</ele>
        <time>2011-04-16T04:21:22Z</time>
      </trkpt>
      <trkpt lat="36.227834075689316" lon="-5.361197534948587">
        <ele>122.2247314453125</ele>
        <time>2011-04-16T04:21:27Z</time>
      </trkpt>
      <trkpt lat="36.227767774835229" lon="-5.3633070923388">
        <ele>120.3021240234375</ele>
        <time>2011-04-16T04:21:34Z</time>
      </trkpt>
      <trkpt lat="36.227415818721056" lon="-5.364949777722359">
        <ele>118.860107421875</ele>
        <time>2011-04-16T04:21:40Z</time>
      </trkpt>
      <trkpt lat="36.22672657482326" lon="-5.366435050964356">
        <ele>114.5341796875</ele>
        <time>2011-04-16T04:21:46Z</time>
      </trkpt>
      <trkpt lat="36.225735163316131" lon="-5.367726283147931">
        <ele>107.8050537109375</ele>
        <time>2011-04-16T04:21:52Z</time>
      </trkpt>
      <trkpt lat="36.223688386380672" lon="-5.370086878538132">
        <ele>95.3077392578125</ele>
        <time>2011-04-16T04:22:03Z</time>
      </trkpt>
      <trkpt lat="36.221445556730032" lon="-5.372764728963375">
        <ele>88.5787353515625</ele>
        <time>2011-04-16T04:22:15Z</time>
      </trkpt>
      <trkpt lat="36.219911836087704" lon="-5.375056173652411">
        <ele>90.98193359375</ele>
        <time>2011-04-16T04:22:25Z</time>
      </trkpt>
      <trkpt lat="36.218775333836675" lon="-5.376478666439652">
        <ele>93.3851318359375</ele>
        <time>2011-04-16T04:22:32Z</time>
      </trkpt>
      <trkpt lat="36.217490639537573" lon="-5.377608798444271">
        <ele>95.3077392578125</ele>
        <time>2011-04-16T04:22:39Z</time>
      </trkpt>
      <trkpt lat="36.215698923915625" lon="-5.37862803786993">
        <ele>92.4239501953125</ele>
        <time>2011-04-16T04:22:48Z</time>
      </trkpt>
      <trkpt lat="36.213481156155467" lon="-5.37953688763082">
        <ele>83.2913818359375</ele>
        <time>2011-04-16T04:22:58Z</time>
      </trkpt>
      <trkpt lat="36.210403069853783" lon="-5.380762657150626">
        <ele>72.2362060546875</ele>
        <time>2011-04-16T04:23:12Z</time>
      </trkpt>
      <trkpt lat="36.208464838564396" lon="-5.381508646532893">
        <ele>65.9876708984375</ele>
        <time>2011-04-16T04:23:22Z</time>
      </trkpt>
      <trkpt lat="36.207926888018847" lon="-5.381794972345233">
        <ele>62.6229248046875</ele>
        <time>2011-04-16T04:23:25Z</time>
      </trkpt>
      <trkpt lat="36.207192717120051" lon="-5.382591923698783">
        <ele>57.3358154296875</ele>
        <time>2011-04-16T04:23:30Z</time>
      </trkpt>
      <trkpt lat="36.206743950024247" lon="-5.38368727080524">
        <ele>53.490478515625</ele>
        <time>2011-04-16T04:23:35Z</time>
      </trkpt>
      <trkpt lat="36.206664741039276" lon="-5.384637694805861">
        <ele>51.56787109375</ele>
        <time>2011-04-16T04:23:39Z</time>
      </trkpt>
      <trkpt lat="36.206960119307041" lon="-5.385956671088934">
        <ele>48.6839599609375</ele>
        <time>2011-04-16T04:23:45Z</time>
      </trkpt>
      <trkpt lat="36.207601418718696" lon="-5.387487877160311">
        <ele>45.3192138671875</ele>
        <time>2011-04-16T04:23:52Z</time>
      </trkpt>
      <trkpt lat="36.207795459777117" lon="-5.388651536777616">
        <ele>42.916015625</ele>
        <time>2011-04-16T04:23:57Z</time>
      </trkpt>
      <trkpt lat="36.20768859051168" lon="-5.38993782363832">
        <ele>39.55126953125</ele>
        <time>2011-04-16T04:24:02Z</time>
      </trkpt>
      <trkpt lat="36.207337053492665" lon="-5.392566723749042">
        <ele>31.8607177734375</ele>
        <time>2011-04-16T04:24:11Z</time>
      </trkpt>
      <trkpt lat="36.207095738500357" lon="-5.394322983920574">
        <ele>25.1317138671875</ele>
        <time>2011-04-16T04:24:17Z</time>
      </trkpt>
      <trkpt lat="36.207172516733408" lon="-5.395676661282778">
        <ele>20.324951171875</ele>
        <time>2011-04-16T04:24:22Z</time>
      </trkpt>
      <trkpt lat="36.207490190863609" lon="-5.398766482248902">
        <ele>10.7117919921875</ele>
        <time>2011-04-16T04:24:33Z</time>
      </trkpt>
      <trkpt lat="36.20775162242353" lon="-5.401742476969957">
        <ele>5.9052734375</ele>
        <time>2011-04-16T04:24:43Z</time>
      </trkpt>
      <trkpt lat="36.20794708840549" lon="-5.40464018471539">
        <ele>5.9052734375</ele>
        <time>2011-04-16T04:24:53Z</time>
      </trkpt>
      <trkpt lat="36.207553893327713" lon="-5.407115025445819">
        <ele>4.94384765625</ele>
        <time>2011-04-16T04:25:02Z</time>
      </trkpt>
      <trkpt lat="36.206895494833589" lon="-5.410705246031284">
        <ele>8.30859375</ele>
        <time>2011-04-16T04:25:14Z</time>
      </trkpt>
      <trkpt lat="36.206366261467338" lon="-5.412452118471265">
        <ele>9.7506103515625</ele>
        <time>2011-04-16T04:25:20Z</time>
      </trkpt>
      <trkpt lat="36.205301592126489" lon="-5.415371032431722">
        <ele>8.7891845703125</ele>
        <time>2011-04-16T04:25:30Z</time>
      </trkpt>
      <trkpt lat="36.204553758725524" lon="-5.416928138583899">
        <ele>7.827880859375</ele>
        <time>2011-04-16T04:25:36Z</time>
      </trkpt>
      <trkpt lat="36.203893180936575" lon="-5.418520448729396">
        <ele>8.30859375</ele>
        <time>2011-04-16T04:25:42Z</time>
      </trkpt>
      <trkpt lat="36.203717747703195" lon="-5.419991472736001">
        <ele>8.30859375</ele>
        <time>2011-04-16T04:25:47Z</time>
      </trkpt>
      <trkpt lat="36.203418597579002" lon="-5.421960968524218">
        <ele>6.866455078125</ele>
        <time>2011-04-16T04:25:54Z</time>
      </trkpt>
      <trkpt lat="36.202856339514256" lon="-5.423141894862056">
        <ele>5.424560546875</ele>
        <time>2011-04-16T04:25:59Z</time>
      </trkpt>
      <trkpt lat="36.201904239133" lon="-5.424307649955154">
        <ele>3.501953125</ele>
        <time>2011-04-16T04:26:05Z</time>
      </trkpt>
      <trkpt lat="36.199868191033602" lon="-5.426414189860225">
        <ele>3.021240234375</ele>
        <time>2011-04-16T04:26:16Z</time>
      </trkpt>
      <trkpt lat="36.197552271187305" lon="-5.428453087806702">
        <ele>5.424560546875</ele>
        <time>2011-04-16T04:26:27Z</time>
      </trkpt>
      <trkpt lat="36.195274237543344" lon="-5.430166684091091">
        <ele>6.3858642578125</ele>
        <time>2011-04-16T04:26:37Z</time>
      </trkpt>
      <trkpt lat="36.192409889772534" lon="-5.432417644187808">
        <ele>5.9052734375</ele>
        <time>2011-04-16T04:26:50Z</time>
      </trkpt>
      <trkpt lat="36.189463064074516" lon="-5.435047298669815">
        <ele>6.3858642578125</ele>
        <time>2011-04-16T04:27:04Z</time>
      </trkpt>
      <trkpt lat="36.186551777645946" lon="-5.437640994787216">
        <ele>8.30859375</ele>
        <time>2011-04-16T04:27:18Z</time>
      </trkpt>
      <trkpt lat="36.184476334601641" lon="-5.439486186951399">
        <ele>6.3858642578125</ele>
        <time>2011-04-16T04:27:28Z</time>
      </trkpt>
      <trkpt lat="36.183709222823381" lon="-5.44040777720511">
        <ele>4.94384765625</ele>
        <time>2011-04-16T04:27:33Z</time>
      </trkpt>
      <trkpt lat="36.182318832725286" lon="-5.442671980708838">
        <ele>3.982666015625</ele>
        <time>2011-04-16T04:27:43Z</time>
      </trkpt>
      <trkpt lat="36.180714285001159" lon="-5.445286883041263">
        <ele>2.5406494140625</ele>
        <time>2011-04-16T04:27:54Z</time>
      </trkpt>
      <trkpt lat="36.178646553307772" lon="-5.448684068396688">
        <ele>2.06005859375</ele>
        <time>2011-04-16T04:28:08Z</time>
      </trkpt>
      <trkpt lat="36.176560632884502" lon="-5.452240174636245">
        <ele>2.06005859375</ele>
        <time>2011-04-16T04:28:22Z</time>
      </trkpt>
      <trkpt lat="36.175211481750011" lon="-5.454405723139644">
        <ele>2.5406494140625</ele>
        <time>2011-04-16T04:28:31Z</time>
      </trkpt>
      <trkpt lat="36.174463396891952" lon="-5.455056242644787">
        <ele>2.06005859375</ele>
        <time>2011-04-16T04:28:35Z</time>
      </trkpt>
      <trkpt lat="36.173343155533075" lon="-5.455527557060123">
        <ele>1.0986328125</ele>
        <time>2011-04-16T04:28:40Z</time>
      </trkpt>
      <trkpt lat="36.170515771955252" lon="-5.456554424017668">
        <ele>0.137451171875</ele>
        <time>2011-04-16T04:28:52Z</time>
      </trkpt>
      <trkpt lat="36.167960716411471" lon="-5.457273926585913">
        <ele>0.6180419921875</ele>
        <time>2011-04-16T04:29:03Z</time>
      </trkpt>
      <trkpt lat="36.165736326947808" lon="-5.458184536546469">
        <ele>-0.3433837890625</ele>
        <time>2011-04-16T04:29:13Z</time>
      </trkpt>
      <trkpt lat="36.16327908821404" lon="-5.459148790687323">
        <ele>1.579345703125</ele>
        <time>2011-04-16T04:29:24Z</time>
      </trkpt>
      <trkpt lat="36.161626093089581" lon="-5.459629157558084">
        <ele>2.5406494140625</ele>
        <time>2011-04-16T04:29:32Z</time>
      </trkpt>
      <trkpt lat="36.160514485090971" lon="-5.459661930799484">
        <ele>5.9052734375</ele>
        <time>2011-04-16T04:29:38Z</time>
      </trkpt>
      <trkpt lat="36.159642096608877" lon="-5.459328163415194">
        <ele>7.827880859375</ele>
        <time>2011-04-16T04:29:43Z</time>
      </trkpt>
      <trkpt lat="36.15851397626102" lon="-5.458440352231264">
        <ele>11.1925048828125</ele>
        <time>2011-04-16T04:29:50Z</time>
      </trkpt>
      <trkpt lat="36.157549135386944" lon="-5.457312567159534">
        <ele>15.5184326171875</ele>
        <time>2011-04-16T04:29:57Z</time>
      </trkpt>
      <trkpt lat="36.156787471845746" lon="-5.456313695758581">
        <ele>20.324951171875</ele>
        <time>2011-04-16T04:30:04Z</time>
      </trkpt>
      <trkpt lat="36.15471881814301" lon="-5.453729890286923">
        <ele>13.5958251953125</ele>
        <time>2011-04-16T04:30:25Z</time>
      </trkpt>
      <trkpt lat="36.154620666056871" lon="-5.453607514500618">
        <ele>13.1151123046875</ele>
        <time>2011-04-16T04:30:26Z</time>
      </trkpt>
      <trkpt lat="36.15611239336431" lon="-5.452919024974108">
        <ele>12.15380859375</ele>
        <time>2011-04-16T04:30:28Z</time>
      </trkpt>
      <trkpt lat="36.155984150245786" lon="-5.451506339013577">
        <ele>13.5958251953125</ele>
        <time>2011-04-16T04:30:36Z</time>
      </trkpt>
      <trkpt lat="36.155928745865822" lon="-5.44903208501637">
        <ele>5.9052734375</ele>
        <time>2011-04-16T04:30:49Z</time>
      </trkpt>
      <trkpt lat="36.155775524675846" lon="-5.448275366798043">
        <ele>5.424560546875</ele>
        <time>2011-04-16T04:30:53Z</time>
      </trkpt>
      <trkpt lat="36.155220391228795" lon="-5.447437344118953">
        <ele>7.827880859375</ele>
        <time>2011-04-16T04:30:59Z</time>
      </trkpt>
      <trkpt lat="36.15455562248826" lon="-5.447075245901942">
        <ele>9.2698974609375</ele>
        <time>2011-04-16T04:31:04Z</time>
      </trkpt>
      <trkpt lat="36.153794294223189" lon="-5.447125369682908">
        <ele>10.231201171875</ele>
        <time>2011-04-16T04:31:09Z</time>
      </trkpt>
      <trkpt lat="36.153194569051266" lon="-5.447497861459851">
        <ele>10.7117919921875</ele>
        <time>2011-04-16T04:31:13Z</time>
      </trkpt>
      <trkpt lat="36.152208186686039" lon="-5.448416769504547">
        <ele>9.7506103515625</ele>
        <time>2011-04-16T04:31:20Z</time>
      </trkpt>
      <trkpt lat="36.151234628632665" lon="-5.448659844696522">
        <ele>5.9052734375</ele>
        <time>2011-04-16T04:31:26Z</time>
      </trkpt>
      <trkpt lat="36.150486376136541" lon="-5.448303362354636">
        <ele>2.5406494140625</ele>
        <time>2011-04-16T04:31:31Z</time>
      </trkpt>
      <trkpt lat="36.150094857439399" lon="-5.447868928313255">
        <ele>1.0986328125</ele>
        <time>2011-04-16T04:31:35Z</time>
      </trkpt>
      <trkpt lat="36.14988774061203" lon="-5.447463495656848">
        <ele>0.137451171875</ele>
        <time>2011-04-16T04:31:41Z</time>
      </trkpt>
      <trkpt lat="36.149783553555608" lon="-5.447096955031157">
        <ele>-0.3433837890625</ele>
        <time>2011-04-16T04:31:48Z</time>
      </trkpt>
      <trkpt lat="36.149757569655776" lon="-5.446983380243182">
        <ele>-0.3433837890625</ele>
        <time>2011-04-16T04:31:50Z</time>
      </trkpt>
      <trkpt lat="36.14961558021605" lon="-5.44636663980782">
        <ele>1.0986328125</ele>
        <time>2011-04-16T04:31:56Z</time>
      </trkpt>
      <trkpt lat="36.149347526952624" lon="-5.445219073444605">
        <ele>5.424560546875</ele>
        <time>2011-04-16T04:32:03Z</time>
      </trkpt>
      <trkpt lat="36.148913595825434" lon="-5.443489048629999">
        <ele>13.5958251953125</ele>
        <time>2011-04-16T04:32:12Z</time>
      </trkpt>
      <trkpt lat="36.148373633623123" lon="-5.442436197772622">
        <ele>16.479736328125</ele>
        <time>2011-04-16T04:32:18Z</time>
      </trkpt>
      <trkpt lat="36.147608617320657" lon="-5.441604042425752">
        <ele>17.441162109375</ele>
        <time>2011-04-16T04:32:24Z</time>
      </trkpt>
      <trkpt lat="36.146499356254935" lon="-5.441020745784044">
        <ele>14.5570068359375</ele>
        <time>2011-04-16T04:32:31Z</time>
      </trkpt>
      <trkpt lat="36.14538992755115" lon="-5.440892418846488">
        <ele>9.2698974609375</ele>
        <time>2011-04-16T04:32:37Z</time>
      </trkpt>
      <trkpt lat="36.144176227971911" lon="-5.440944973379374">
        <ele>4.4632568359375</ele>
        <time>2011-04-16T04:32:44Z</time>
      </trkpt>
      <trkpt lat="36.143100829795003" lon="-5.441003479063511">
        <ele>1.0986328125</ele>
        <time>2011-04-16T04:32:53Z</time>
      </trkpt>
      <trkpt lat="36.141846897080541" lon="-5.441082017496228">
        <ele>0.137451171875</ele>
        <time>2011-04-16T04:33:03Z</time>
      </trkpt>
      <trkpt lat="36.140893287956715" lon="-5.441144378855825">
        <ele>0.137451171875</ele>
        <time>2011-04-16T04:33:11Z</time>
      </trkpt>
      <trkpt lat="36.139630218967795" lon="-5.441213445737958">
        <ele>1.0986328125</ele>
        <time>2011-04-16T04:33:20Z</time>
      </trkpt>
      <trkpt lat="36.1390445753932" lon="-5.441244877874851">
        <ele>1.0986328125</ele>
        <time>2011-04-16T04:33:26Z</time>
      </trkpt>
      <trkpt lat="36.138823293149471" lon="-5.441273460164666">
        <ele>1.0986328125</ele>
        <time>2011-04-16T04:33:29Z</time>
      </trkpt>
      <trkpt lat="36.138620283454657" lon="-5.441346717998385">
        <ele>1.0986328125</ele>
        <time>2011-04-16T04:33:32Z</time>
      </trkpt>
      <trkpt lat="36.138309733942151" lon="-5.441351998597384">
        <ele>1.0986328125</ele>
        <time>2011-04-16T04:33:36Z</time>
      </trkpt>
      <trkpt lat="36.137463329359889" lon="-5.441185785457492">
        <ele>1.0986328125</ele>
        <time>2011-04-16T04:33:44Z</time>
      </trkpt>
      <trkpt lat="36.136102695018053" lon="-5.44125652872026">
        <ele>-1.3046875</ele>
        <time>2011-04-16T04:33:54Z</time>
      </trkpt>
      <trkpt lat="36.135257547721267" lon="-5.441235322505236">
        <ele>-2.2659912109375</ele>
        <time>2011-04-16T04:34:01Z</time>
      </trkpt>
      <trkpt lat="36.134741138666868" lon="-5.441262228414416">
        <ele>-4.1885986328125</ele>
        <time>2011-04-16T04:34:08Z</time>
      </trkpt>
      <trkpt lat="36.13444366492331" lon="-5.441193748265505">
        <ele>-4.6693115234375</ele>
        <time>2011-04-16T04:34:12Z</time>
      </trkpt>
      <trkpt lat="36.133689628913999" lon="-5.441252337768674">
        <ele>-4.6693115234375</ele>
        <time>2011-04-16T04:34:20Z</time>
      </trkpt>
      <trkpt lat="36.132449442520738" lon="-5.44146423228085">
        <ele>-5.14990234375</ele>
        <time>2011-04-16T04:34:31Z</time>
      </trkpt>
      <trkpt lat="36.131869163364172" lon="-5.441613681614399">
        <ele>-4.1885986328125</ele>
        <time>2011-04-16T04:34:38Z</time>
      </trkpt>
      <trkpt lat="36.131285531446338" lon="-5.442067980766296">
        <ele>-2.7467041015625</ele>
        <time>2011-04-16T04:34:45Z</time>
      </trkpt>
      <trkpt lat="36.130840284749866" lon="-5.442832075059414">
        <ele>-3.227294921875</ele>
        <time>2011-04-16T04:34:52Z</time>
      </trkpt>
      <trkpt lat="36.130423368886113" lon="-5.443812673911452">
        <ele>-2.7467041015625</ele>
        <time>2011-04-16T04:35:01Z</time>
      </trkpt>
      <trkpt lat="36.13035824149847" lon="-5.443974947556853">
        <ele>-2.7467041015625</ele>
        <time>2011-04-16T04:35:03Z</time>
      </trkpt>
      <trkpt lat="36.13029956817627" lon="-5.44431533664465">
        <ele>-2.2659912109375</ele>
        <time>2011-04-16T04:35:08Z</time>
      </trkpt>
      <trkpt lat="36.130046769976616" lon="-5.444601578637958">
        <ele>-2.7467041015625</ele>
        <time>2011-04-16T04:35:15Z</time>
      </trkpt>
      <trkpt lat="36.129940152168274" lon="-5.444535864517093">
        <ele>-5.14990234375</ele>
        <time>2011-04-16T04:35:19Z</time>
      </trkpt>
      <trkpt lat="36.129536144435406" lon="-5.444261189550161">
        <ele>-9.475830078125</ele>
        <time>2011-04-16T04:35:37Z</time>
      </trkpt>
      <trkpt lat="36.128834076225758" lon="-5.443797251209617">
        <ele>-9.95654296875</ele>
        <time>2011-04-16T04:35:46Z</time>
      </trkpt>
      <trkpt lat="36.128275757655501" lon="-5.443381424993277">
        <ele>-8.033935546875</ele>
        <time>2011-04-16T04:35:56Z</time>
      </trkpt>
      <trkpt lat="36.128129744902253" lon="-5.443295259028673">
        <ele>-7.5531005859375</ele>
        <time>2011-04-16T04:35:59Z</time>
      </trkpt>
      <trkpt lat="36.127948947250843" lon="-5.44306542724371">
        <ele>-7.5531005859375</ele>
        <time>2011-04-16T04:36:07Z</time>
      </trkpt>
      <trkpt lat="36.128090685233474" lon="-5.442904997617006">
        <ele>-6.5919189453125</ele>
        <time>2011-04-16T04:36:13Z</time>
      </trkpt>
      <trkpt lat="36.128413388505578" lon="-5.443046987056732">
        <ele>-6.1112060546875</ele>
        <time>2011-04-16T04:36:20Z</time>
      </trkpt>
      <trkpt lat="36.12849117256701" lon="-5.443168776109815">
        <ele>-5.6304931640625</ele>
        <time>2011-04-16T04:36:22Z</time>
      </trkpt>
      <trkpt lat="36.128590665757656" lon="-5.443366840481758">
        <ele>-5.14990234375</ele>
        <time>2011-04-16T04:36:25Z</time>
      </trkpt>
      <trkpt lat="36.128969192504883" lon="-5.443644868209958">
        <ele>-4.1885986328125</ele>
        <time>2011-04-16T04:36:32Z</time>
      </trkpt>
      <trkpt lat="36.129135992377996" lon="-5.443468429148197">
        <ele>-4.1885986328125</ele>
        <time>2011-04-16T04:36:36Z</time>
      </trkpt>
      <trkpt lat="36.129558943212032" lon="-5.442466037347913">
        <ele>-2.2659912109375</ele>
        <time>2011-04-16T04:36:45Z</time>
      </trkpt>
      <trkpt lat="36.129640499129891" lon="-5.442258417606354">
        <ele>-1.7852783203125</ele>
        <time>2011-04-16T04:36:47Z</time>
      </trkpt>
      <trkpt lat="36.12962432205677" lon="-5.44185122475028">
        <ele>-1.3046875</ele>
        <time>2011-04-16T04:36:53Z</time>
      </trkpt>
      <trkpt lat="36.129552656784654" lon="-5.441761035472155">
        <ele>-1.3046875</ele>
        <time>2011-04-16T04:36:55Z</time>
      </trkpt>
      <trkpt lat="36.12926566042006" lon="-5.441508572548628">
        <ele>-0.8240966796875</ele>
        <time>2011-04-16T04:37:02Z</time>
      </trkpt>
      <trkpt lat="36.128959385678172" lon="-5.441562971100211">
        <ele>-0.8240966796875</ele>
        <time>2011-04-16T04:37:09Z</time>
      </trkpt>
      <trkpt lat="36.128815468400717" lon="-5.441688532009721">
        <ele>1.579345703125</ele>
        <time>2011-04-16T04:37:16Z</time>
      </trkpt>
      <trkpt lat="36.128639364615083" lon="-5.441879136487842">
        <ele>-6.1112060546875</ele>
        <time>2011-04-16T04:37:30Z</time>
      </trkpt>
      <trkpt lat="36.128575745970011" lon="-5.442011654376984">
        <ele>-9.95654296875</ele>
        <time>2011-04-16T04:37:39Z</time>
      </trkpt>
      <trkpt lat="36.128532830625772" lon="-5.442150458693504">
        <ele>-11.879150390625</ele>
        <time>2011-04-16T04:37:50Z</time>
      </trkpt>
      <trkpt lat="36.128481365740299" lon="-5.442391186952591">
        <ele>-11.3984375</ele>
        <time>2011-04-16T04:38:13Z</time>
      </trkpt>
      <trkpt lat="36.128317834809422" lon="-5.442670471966267">
        <ele>-18.1278076171875</ele>
        <time>2011-04-16T04:39:07Z</time>
      </trkpt>
      <trkpt lat="36.128157237544656" lon="-5.442699892446399">
        <ele>-14.282470703125</ele>
        <time>2011-04-16T04:39:14Z</time>
      </trkpt>
      <trkpt lat="36.128126140683889" lon="-5.442530158907175">
        <ele>-11.879150390625</ele>
        <time>2011-04-16T04:39:18Z</time>
      </trkpt>
      <trkpt lat="36.128285648301244" lon="-5.442053060978651">
        <ele>-7.072509765625</ele>
        <time>2011-04-16T04:39:30Z</time>
      </trkpt>
      <trkpt lat="36.12836753949523" lon="-5.441854661330581">
        <ele>-6.1112060546875</ele>
        <time>2011-04-16T04:39:38Z</time>
      </trkpt>
      <trkpt lat="36.128469631075859" lon="-5.441618962213397">
        <ele>-1.3046875</ele>
        <time>2011-04-16T04:39:49Z</time>
      </trkpt>
      <trkpt lat="36.128336526453495" lon="-5.441533131524921">
        <ele>-12.35986328125</ele>
        <time>2011-04-16T04:41:42Z</time>
      </trkpt>
      <trkpt lat="36.128201661631465" lon="-5.441422825679183">
        <ele>-5.14990234375</ele>
        <time>2011-04-16T04:42:47Z</time>
      </trkpt>
      <trkpt lat="36.128339627757668" lon="-5.441512260586023">
        <ele>-8.033935546875</ele>
        <time>2011-04-16T04:43:22Z</time>
      </trkpt>
      <trkpt lat="36.128226639702916" lon="-5.441438164561987">
        <ele>-30.1441650390625</ele>
        <time>2011-04-16T04:45:33Z</time>
      </trkpt>
      <trkpt lat="36.128125218674541" lon="-5.441385190933943">
        <ele>-37.3541259765625</ele>
        <time>2011-04-16T04:45:44Z</time>
      </trkpt>
      <trkpt lat="36.128363767638803" lon="-5.441556433215737">
        <ele>2.5406494140625</ele>
        <time>2011-04-16T04:46:26Z</time>
      </trkpt>
      <trkpt lat="36.128233596682549" lon="-5.441606473177671">
        <ele>45.3192138671875</ele>
        <time>2011-04-16T04:47:44Z</time>
      </trkpt>
      <trkpt lat="36.128322780132294" lon="-5.441571185365319">
        <ele>25.1317138671875</ele>
        <time>2011-04-16T04:48:49Z</time>
      </trkpt>
      <trkpt lat="36.128540290519595" lon="-5.441632876172662">
        <ele>31.8607177734375</ele>
        <time>2011-04-16T04:53:22Z</time>
      </trkpt>
      <trkpt lat="36.128457980230451" lon="-5.441583842039108">
        <ele>-17.6470947265625</ele>
        <time>2011-04-16T04:57:24Z</time>
      </trkpt>
      <trkpt lat="36.128280116245151" lon="-5.441561965271831">
        <ele>-24.85693359375</ele>
        <time>2011-04-16T04:58:08Z</time>
      </trkpt>
      <trkpt lat="36.128446329385042" lon="-5.441576885059476">
        <ele>-28.2215576171875</ele>
        <time>2011-04-16T04:58:18Z</time>
      </trkpt>
      <trkpt lat="36.128577757626772" lon="-5.441596247255802">
        <ele>-21.0115966796875</ele>
        <time>2011-04-16T04:58:29Z</time>
      </trkpt>
      <trkpt lat="36.128198141232133" lon="-5.44155023060739">
        <ele>-2.7467041015625</ele>
        <time>2011-04-16T04:59:10Z</time>
      </trkpt>
      <trkpt lat="36.127989767119288" lon="-5.441509243100882">
        <ele>5.9052734375</ele>
        <time>2011-04-16T04:59:21Z</time>
      </trkpt>
      <trkpt lat="36.127804946154356" lon="-5.441488539800048">
        <ele>14.076416015625</ele>
        <time>2011-04-16T04:59:44Z</time>
      </trkpt>
      <trkpt lat="36.127913072705269" lon="-5.441455682739615">
        <ele>28.0155029296875</ele>
        <time>2011-04-16T05:00:23Z</time>
      </trkpt>
      <trkpt lat="36.128103844821453" lon="-5.441520139575005">
        <ele>1.579345703125</ele>
        <time>2011-04-16T05:01:02Z</time>
      </trkpt>
      <trkpt lat="36.128386482596397" lon="-5.441538076847792">
        <ele>-13.321044921875</ele>
        <time>2011-04-16T05:01:25Z</time>
      </trkpt>
      <trkpt lat="36.128255557268858" lon="-5.441495999693871">
        <ele>-6.1112060546875</ele>
        <time>2011-04-16T05:01:52Z</time>
      </trkpt>
      <trkpt lat="36.128400983288884" lon="-5.441617956385016">
        <ele>-8.9952392578125</ele>
        <time>2011-04-16T05:03:17Z</time>
      </trkpt>
      <trkpt lat="36.128346836194396" lon="-5.441404553130269">
        <ele>-12.35986328125</ele>
        <time>2011-04-16T05:05:28Z</time>
      </trkpt>
      <trkpt lat="36.128465356305242" lon="-5.441255522891879">
        <ele>-6.1112060546875</ele>
        <time>2011-04-16T05:06:06Z</time>
      </trkpt>
      <trkpt lat="36.128525035455823" lon="-5.441050166264176">
        <ele>-5.14990234375</ele>
        <time>2011-04-16T05:06:13Z</time>
      </trkpt>
      <trkpt lat="36.128643974661827" lon="-5.440929047763348">
        <ele>-8.9952392578125</ele>
        <time>2011-04-16T05:06:23Z</time>
      </trkpt>
      <trkpt lat="36.128741037100554" lon="-5.440866937860847">
        <ele>-14.7630615234375</ele>
        <time>2011-04-16T05:07:00Z</time>
      </trkpt>
      <trkpt lat="36.128638442605734" lon="-5.440812120214105">
        <ele>-3.227294921875</ele>
        <time>2011-04-16T05:07:48Z</time>
      </trkpt>
      <trkpt lat="36.128606172278523" lon="-5.440957546234131">
        <ele>-18.6083984375</ele>
        <time>2011-04-16T05:09:45Z</time>
      </trkpt>
      <trkpt lat="36.128584044054151" lon="-5.440813545137644">
        <ele>-10.437255859375</ele>
        <time>2011-04-16T05:10:21Z</time>
      </trkpt>
      <trkpt lat="36.128625450655818" lon="-5.441008424386382">
        <ele>-28.7021484375</ele>
        <time>2011-04-16T05:11:36Z</time>
      </trkpt>
      <trkpt lat="36.128663588315248" lon="-5.440849838778377">
        <ele>-2.7467041015625</ele>
        <time>2011-04-16T05:13:58Z</time>
      </trkpt>
      <trkpt lat="36.128644142299891" lon="-5.440727043896914">
        <ele>2.06005859375</ele>
        <time>2011-04-16T05:14:55Z</time>
      </trkpt>
      <trkpt lat="36.128659648820758" lon="-5.440889485180378">
        <ele>-3.227294921875</ele>
        <time>2011-04-16T05:16:25Z</time>
      </trkpt>
      <trkpt lat="36.128678927198052" lon="-5.441014543175697">
        <ele>2.06005859375</ele>
        <time>2011-04-16T05:20:13Z</time>
      </trkpt>
      <trkpt lat="36.128538362681866" lon="-5.440866434946656">
        <ele>23.208984375</ele>
        <time>2011-04-16T05:20:38Z</time>
      </trkpt>
      <trkpt lat="36.128593599423766" lon="-5.440774150192738">
        <ele>21.7669677734375</ele>
        <time>2011-04-16T05:20:55Z</time>
      </trkpt>
      <trkpt lat="36.128676496446133" lon="-5.440942542627454">
        <ele>-8.5146484375</ele>
        <time>2011-04-16T05:21:25Z</time>
      </trkpt>
      <trkpt lat="36.128579266369343" lon="-5.440875822678208">
        <ele>8.30859375</ele>
        <time>2011-04-16T05:21:43Z</time>
      </trkpt>
      <trkpt lat="36.128650261089206" lon="-5.440707849338651">
        <ele>15.9990234375</ele>
        <time>2011-04-16T05:22:55Z</time>
      </trkpt>
      <trkpt lat="36.128762494772673" lon="-5.440516322851181">
        <ele>10.231201171875</ele>
        <time>2011-04-16T05:23:02Z</time>
      </trkpt>
      <trkpt lat="36.128998277708888" lon="-5.440189177170396">
        <ele>7.34716796875</ele>
        <time>2011-04-16T05:23:12Z</time>
      </trkpt>
      <trkpt lat="36.129189720377326" lon="-5.439910730347037">
        <ele>5.424560546875</ele>
        <time>2011-04-16T05:23:21Z</time>
      </trkpt>
      <trkpt lat="36.129616359248757" lon="-5.439221486449242">
        <ele>3.982666015625</ele>
        <time>2011-04-16T05:23:33Z</time>
      </trkpt>
      <trkpt lat="36.129997735843062" lon="-5.43854758143425">
        <ele>1.579345703125</ele>
        <time>2011-04-16T05:23:46Z</time>
      </trkpt>
      <trkpt lat="36.130090691149235" lon="-5.438204426318407">
        <ele>1.579345703125</ele>
        <time>2011-04-16T05:23:56Z</time>
      </trkpt>
      <trkpt lat="36.129950629547238" lon="-5.438061431050301">
        <ele>-0.8240966796875</ele>
        <time>2011-04-16T05:25:52Z</time>
      </trkpt>
      <trkpt lat="36.129808556288481" lon="-5.438146675005555">
        <ele>1.0986328125</ele>
        <time>2011-04-16T05:25:59Z</time>
      </trkpt>
      <trkpt lat="36.129690622910857" lon="-5.438338369131088">
        <ele>4.4632568359375</ele>
        <time>2011-04-16T05:26:10Z</time>
      </trkpt>
      <trkpt lat="36.129805790260434" lon="-5.438455799594522">
        <ele>-3.7078857421875</ele>
        <time>2011-04-16T05:26:30Z</time>
      </trkpt>
      <trkpt lat="36.129916682839394" lon="-5.438438197597861">
        <ele>-4.1885986328125</ele>
        <time>2011-04-16T05:26:53Z</time>
      </trkpt>
      <trkpt lat="36.12988818436861" lon="-5.438735755160451">
        <ele>-44.083251953125</ele>
        <time>2011-04-16T05:27:22Z</time>
      </trkpt>
      <trkpt lat="36.130020450800657" lon="-5.438637267798185">
        <ele>-108.49169921875</ele>
        <time>2011-04-16T05:28:31Z</time>
      </trkpt>
      <trkpt lat="36.130043417215347" lon="-5.438810689374805">
        <ele>-105.607666015625</ele>
        <time>2011-04-16T05:28:42Z</time>
      </trkpt>
      <trkpt lat="36.130059761926532" lon="-5.439039096236229">
        <ele>-109.452880859375</ele>
        <time>2011-04-16T05:28:45Z</time>
      </trkpt>
      <trkpt lat="36.130029084160924" lon="-5.438849246129394">
        <ele>-106.08837890625</ele>
        <time>2011-04-16T05:28:53Z</time>
      </trkpt>
      <trkpt lat="36.129850381985307" lon="-5.439494317397475">
        <ele>-141.176513671875</ele>
        <time>2011-04-16T05:29:22Z</time>
      </trkpt>
      <trkpt lat="36.129824733361602" lon="-5.439672432839871">
        <ele>-150.3089599609375</ele>
        <time>2011-04-16T05:29:32Z</time>
      </trkpt>
      <trkpt lat="36.12982758320868" lon="-5.440072501078248">
        <ele>-123.39208984375</ele>
        <time>2011-04-16T05:30:02Z</time>
      </trkpt>
      <trkpt lat="36.129353251308203" lon="-5.439014537259936">
        <ele>31.380126953125</ele>
        <time>2011-04-16T05:34:14Z</time>
      </trkpt>
      <trkpt lat="36.129564391449094" lon="-5.438987631350756">
        <ele>9.2698974609375</ele>
        <time>2011-04-16T05:34:24Z</time>
      </trkpt>
      <trkpt lat="36.129496749490499" lon="-5.438824519515038">
        <ele>3.501953125</ele>
        <time>2011-04-16T05:34:40Z</time>
      </trkpt>
      <trkpt lat="36.129544358700514" lon="-5.43869904242456">
        <ele>33.783447265625</ele>
        <time>2011-04-16T05:35:09Z</time>
      </trkpt>
      <trkpt lat="36.129397256299853" lon="-5.438536433503032">
        <ele>10.231201171875</ele>
        <time>2011-04-16T05:36:16Z</time>
      </trkpt>
      <trkpt lat="36.129337241873145" lon="-5.438706669956446">
        <ele>28.0155029296875</ele>
        <time>2011-04-16T05:38:03Z</time>
      </trkpt>
      <trkpt lat="36.129307150840759" lon="-5.438597956672311">
        <ele>53.009765625</ele>
        <time>2011-04-16T05:38:52Z</time>
      </trkpt>
      <trkpt lat="36.129431454464793" lon="-5.438629221171141">
        <ele>56.37451171875</ele>
        <time>2011-04-16T05:40:06Z</time>
      </trkpt>
      <trkpt lat="36.129448553547263" lon="-5.438511623069644">
        <ele>42.4354248046875</ele>
        <time>2011-04-16T05:41:15Z</time>
      </trkpt>
      <trkpt lat="36.129581155255437" lon="-5.438521094620228">
        <ele>29.45751953125</ele>
        <time>2011-04-16T05:42:08Z</time>
      </trkpt>
      <trkpt lat="36.129510160535574" lon="-5.438408022746444">
        <ele>34.744873046875</ele>
        <time>2011-04-16T05:43:24Z</time>
      </trkpt>
      <trkpt lat="36.129508232697845" lon="-5.438659898936749">
        <ele>-11.3984375</ele>
        <time>2011-04-16T05:45:06Z</time>
      </trkpt>
      <trkpt lat="36.129546286538243" lon="-5.438764672726393">
        <ele>-16.685791015625</ele>
        <time>2011-04-16T05:46:12Z</time>
      </trkpt>
      <trkpt lat="36.129497671499848" lon="-5.438866345211864">
        <ele>2.5406494140625</ele>
        <time>2011-04-16T05:47:22Z</time>
      </trkpt>
      <trkpt lat="36.129361968487501" lon="-5.438963742926717">
        <ele>10.231201171875</ele>
        <time>2011-04-16T05:48:14Z</time>
      </trkpt>
      <trkpt lat="36.129416450858116" lon="-5.438786633312702">
        <ele>25.6123046875</ele>
        <time>2011-04-16T05:48:38Z</time>
      </trkpt>
      <trkpt lat="36.129383929073811" lon="-5.438891658559442">
        <ele>16.479736328125</ele>
        <time>2011-04-16T05:51:07Z</time>
      </trkpt>
      <trkpt lat="36.12943522632122" lon="-5.438718991354108">
        <ele>22.728271484375</ele>
        <time>2011-04-16T05:52:03Z</time>
      </trkpt>
      <trkpt lat="36.129453750327229" lon="-5.438851676881313">
        <ele>12.15380859375</ele>
        <time>2011-04-16T05:53:50Z</time>
      </trkpt>
      <trkpt lat="36.129489541053772" lon="-5.438588820397854">
        <ele>37.628662109375</ele>
        <time>2011-04-16T05:55:03Z</time>
      </trkpt>
      <trkpt lat="36.129544442519546" lon="-5.438722260296345">
        <ele>23.208984375</ele>
        <time>2011-04-16T05:57:11Z</time>
      </trkpt>
      <trkpt lat="36.129451487213373" lon="-5.438741790130734">
        <ele>31.380126953125</ele>
        <time>2011-04-16T05:58:39Z</time>
      </trkpt>
      <trkpt lat="36.129372948780656" lon="-5.438644643872976">
        <ele>40.993408203125</ele>
        <time>2011-04-16T06:00:02Z</time>
      </trkpt>
      <trkpt lat="36.129422737285495" lon="-5.438763331621885">
        <ele>32.341552734375</ele>
        <time>2011-04-16T06:02:32Z</time>
      </trkpt>
      <trkpt lat="36.129232719540596" lon="-5.438756542280316">
        <ele>15.0377197265625</ele>
        <time>2011-04-16T06:04:30Z</time>
      </trkpt>
      <trkpt lat="36.129215033724904" lon="-5.438574654981494">
        <ele>24.1702880859375</ele>
        <time>2011-04-16T06:04:52Z</time>
      </trkpt>
      <trkpt lat="36.129144793376327" lon="-5.438454877585173">
        <ele>20.324951171875</ele>
        <time>2011-04-16T06:05:09Z</time>
      </trkpt>
      <trkpt lat="36.129117216914892" lon="-5.438145082443953">
        <ele>11.6732177734375</ele>
        <time>2011-04-16T06:05:32Z</time>
      </trkpt>
      <trkpt lat="36.129122916609049" lon="-5.437791366130114">
        <ele>14.5570068359375</ele>
        <time>2011-04-16T06:05:54Z</time>
      </trkpt>
      <trkpt lat="36.12907899543643" lon="-5.437618028372526">
        <ele>12.15380859375</ele>
        <time>2011-04-16T06:06:11Z</time>
      </trkpt>
      <trkpt lat="36.128902388736606" lon="-5.437536640092731">
        <ele>7.34716796875</ele>
        <time>2011-04-16T06:06:30Z</time>
      </trkpt>
      <trkpt lat="36.128749335184693" lon="-5.43746086768806">
        <ele>13.5958251953125</ele>
        <time>2011-04-16T06:06:49Z</time>
      </trkpt>
      <trkpt lat="36.128558143973351" lon="-5.437582824379206">
        <ele>15.5184326171875</ele>
        <time>2011-04-16T06:07:07Z</time>
      </trkpt>
      <trkpt lat="36.128433253616095" lon="-5.437761275097728">
        <ele>15.0377197265625</ele>
        <time>2011-04-16T06:07:24Z</time>
      </trkpt>
      <trkpt lat="36.128716226667166" lon="-5.43757569976151">
        <ele>9.2698974609375</ele>
        <time>2011-04-16T06:07:51Z</time>
      </trkpt>
      <trkpt lat="36.129105063155293" lon="-5.436955271288753">
        <ele>5.9052734375</ele>
        <time>2011-04-16T06:08:08Z</time>
      </trkpt>
      <trkpt lat="36.129570342600346" lon="-5.436231242492795">
        <ele>8.7891845703125</ele>
        <time>2011-04-16T06:08:24Z</time>
      </trkpt>
      <trkpt lat="36.130040986463428" lon="-5.435480223968625">
        <ele>18.40234375</ele>
        <time>2011-04-16T06:08:42Z</time>
      </trkpt>
      <trkpt lat="36.130461674183607" lon="-5.434886952862144">
        <ele>16.96044921875</ele>
        <time>2011-04-16T06:09:02Z</time>
      </trkpt>
      <trkpt lat="36.130877416580915" lon="-5.43452275916934">
        <ele>12.6343994140625</ele>
        <time>2011-04-16T06:09:18Z</time>
      </trkpt>
      <trkpt lat="36.131255272775888" lon="-5.434370124712586">
        <ele>14.076416015625</ele>
        <time>2011-04-16T06:09:34Z</time>
      </trkpt>
      <trkpt lat="36.131833624094725" lon="-5.434179017320275">
        <ele>14.5570068359375</ele>
        <time>2011-04-16T06:09:52Z</time>
      </trkpt>
      <trkpt lat="36.132382387295365" lon="-5.434132749214768">
        <ele>9.7506103515625</ele>
        <time>2011-04-16T06:10:10Z</time>
      </trkpt>
      <trkpt lat="36.13319618627429" lon="-5.434012971818447">
        <ele>6.3858642578125</ele>
        <time>2011-04-16T06:10:31Z</time>
      </trkpt>
      <trkpt lat="36.134075867012143" lon="-5.433792192488909">
        <ele>12.6343994140625</ele>
        <time>2011-04-16T06:10:53Z</time>
      </trkpt>
      <trkpt lat="36.134829735383391" lon="-5.433663530275226">
        <ele>10.231201171875</ele>
        <time>2011-04-16T06:11:12Z</time>
      </trkpt>
      <trkpt lat="36.135662645101547" lon="-5.433489941060543">
        <ele>3.982666015625</ele>
        <time>2011-04-16T06:11:33Z</time>
      </trkpt>
      <trkpt lat="36.136595886200666" lon="-5.433429758995771">
        <ele>8.7891845703125</ele>
        <time>2011-04-16T06:11:55Z</time>
      </trkpt>
      <trkpt lat="36.1375283729285" lon="-5.433348454535008">
        <ele>35.2254638671875</ele>
        <time>2011-04-16T06:12:18Z</time>
      </trkpt>
      <trkpt lat="36.138181490823627" lon="-5.433170339092612">
        <ele>40.993408203125</ele>
        <time>2011-04-16T06:12:34Z</time>
      </trkpt>
      <trkpt lat="36.13909687846899" lon="-5.432980991899967">
        <ele>44.3580322265625</ele>
        <time>2011-04-16T06:12:56Z</time>
      </trkpt>
      <trkpt lat="36.139812944456935" lon="-5.432871021330357">
        <ele>44.3580322265625</ele>
        <time>2011-04-16T06:13:14Z</time>
      </trkpt>
      <trkpt lat="36.140446867793798" lon="-5.432684859260917">
        <ele>45.7999267578125</ele>
        <time>2011-04-16T06:13:30Z</time>
      </trkpt>
      <trkpt lat="36.141140554100275" lon="-5.432438096031547">
        <ele>44.3580322265625</ele>
        <time>2011-04-16T06:13:48Z</time>
      </trkpt>
      <trkpt lat="36.141831558197737" lon="-5.432335417717695">
        <ele>47.7225341796875</ele>
        <time>2011-04-16T06:14:04Z</time>
      </trkpt>
      <trkpt lat="36.142548965290189" lon="-5.43215436860919">
        <ele>30.8995361328125</ele>
        <time>2011-04-16T06:14:22Z</time>
      </trkpt>
      <trkpt lat="36.143284644931555" lon="-5.431869216263294">
        <ele>28.9769287109375</ele>
        <time>2011-04-16T06:14:41Z</time>
      </trkpt>
      <trkpt lat="36.144129540771246" lon="-5.431613735854626">
        <ele>28.0155029296875</ele>
        <time>2011-04-16T06:15:02Z</time>
      </trkpt>
      <trkpt lat="36.145031349733472" lon="-5.431300420314074">
        <ele>32.341552734375</ele>
        <time>2011-04-16T06:15:25Z</time>
      </trkpt>
      <trkpt lat="36.145807094871998" lon="-5.430979644879699">
        <ele>22.728271484375</ele>
        <time>2011-04-16T06:15:44Z</time>
      </trkpt>
      <trkpt lat="36.146560544148088" lon="-5.430722068995237">
        <ele>24.6510009765625</ele>
        <time>2011-04-16T06:16:04Z</time>
      </trkpt>
      <trkpt lat="36.147094890475273" lon="-5.430487962439656">
        <ele>22.24755859375</ele>
        <time>2011-04-16T06:16:19Z</time>
      </trkpt>
      <trkpt lat="36.147674079984426" lon="-5.430116225033999">
        <ele>23.6895751953125</ele>
        <time>2011-04-16T06:16:37Z</time>
      </trkpt>
      <trkpt lat="36.148231979459524" lon="-5.429643988609314">
        <ele>14.5570068359375</ele>
        <time>2011-04-16T06:16:54Z</time>
      </trkpt>
      <trkpt lat="36.14860849454999" lon="-5.429112995043397">
        <ele>18.40234375</ele>
        <time>2011-04-16T06:17:10Z</time>
      </trkpt>
      <trkpt lat="36.14881569519639" lon="-5.428582923486829">
        <ele>17.441162109375</ele>
        <time>2011-04-16T06:17:24Z</time>
      </trkpt>
      <trkpt lat="36.148890042677522" lon="-5.427997531369329">
        <ele>15.9990234375</ele>
        <time>2011-04-16T06:17:40Z</time>
      </trkpt>
      <trkpt lat="36.148747634142637" lon="-5.427388921380043">
        <ele>19.8443603515625</ele>
        <time>2011-04-16T06:17:56Z</time>
      </trkpt>
      <trkpt lat="36.148378578945994" lon="-5.42662893421948">
        <ele>17.9217529296875</ele>
        <time>2011-04-16T06:18:12Z</time>
      </trkpt>
      <trkpt lat="36.14782084710896" lon="-5.42563408613205">
        <ele>21.286376953125</ele>
        <time>2011-04-16T06:18:31Z</time>
      </trkpt>
      <trkpt lat="36.147312987595797" lon="-5.424689194187522">
        <ele>23.6895751953125</ele>
        <time>2011-04-16T06:18:48Z</time>
      </trkpt>
      <trkpt lat="36.146709239110351" lon="-5.423617316409946">
        <ele>24.6510009765625</ele>
        <time>2011-04-16T06:19:07Z</time>
      </trkpt>
      <trkpt lat="36.145971463993192" lon="-5.422345949336886">
        <ele>26.5736083984375</ele>
        <time>2011-04-16T06:19:29Z</time>
      </trkpt>
      <trkpt lat="36.14526093006134" lon="-5.421137027442455">
        <ele>41.4739990234375</ele>
        <time>2011-04-16T06:19:50Z</time>
      </trkpt>
      <trkpt lat="36.144648296758533" lon="-5.420048134401441">
        <ele>43.8773193359375</ele>
        <time>2011-04-16T06:20:09Z</time>
      </trkpt>
      <trkpt lat="36.144025437533855" lon="-5.418921271339059">
        <ele>30.4188232421875</ele>
        <time>2011-04-16T06:20:28Z</time>
      </trkpt>
      <trkpt lat="36.143327141180634" lon="-5.417860122397542">
        <ele>34.744873046875</ele>
        <time>2011-04-16T06:20:46Z</time>
      </trkpt>
      <trkpt lat="36.142707634717226" lon="-5.416735438629985">
        <ele>36.66748046875</ele>
        <time>2011-04-16T06:21:04Z</time>
      </trkpt>
      <trkpt lat="36.142097264528275" lon="-5.415614191442728">
        <ele>39.55126953125</ele>
        <time>2011-04-16T06:21:19Z</time>
      </trkpt>
      <trkpt lat="36.141277095302939" lon="-5.414138054475188">
        <ele>40.0321044921875</ele>
        <time>2011-04-16T06:21:35Z</time>
      </trkpt>
      <trkpt lat="36.140237068757415" lon="-5.41234876960516">
        <ele>39.0706787109375</ele>
        <time>2011-04-16T06:21:52Z</time>
      </trkpt>
      <trkpt lat="36.138902837410569" lon="-5.410152627155185">
        <ele>34.26416015625</ele>
        <time>2011-04-16T06:22:12Z</time>
      </trkpt>
      <trkpt lat="36.137834899127483" lon="-5.408733822405338">
        <ele>28.0155029296875</ele>
        <time>2011-04-16T06:22:26Z</time>
      </trkpt>
      <trkpt lat="36.136622289195657" lon="-5.407327674329281">
        <ele>32.822265625</ele>
        <time>2011-04-16T06:22:40Z</time>
      </trkpt>
      <trkpt lat="36.135440776124597" lon="-5.405951784923673">
        <ele>34.744873046875</ele>
        <time>2011-04-16T06:22:53Z</time>
      </trkpt>
      <trkpt lat="36.133711170405149" lon="-5.40406359359622">
        <ele>33.3028564453125</ele>
        <time>2011-04-16T06:23:11Z</time>
      </trkpt>
      <trkpt lat="36.131997238844633" lon="-5.402375478297472">
        <ele>24.1702880859375</ele>
        <time>2011-04-16T06:23:28Z</time>
      </trkpt>
      <trkpt lat="36.130192028358579" lon="-5.400681998580694">
        <ele>26.5736083984375</ele>
        <time>2011-04-16T06:23:46Z</time>
      </trkpt>
      <trkpt lat="36.128743635490537" lon="-5.399337038397789">
        <ele>22.728271484375</ele>
        <time>2011-04-16T06:24:00Z</time>
      </trkpt>
      <trkpt lat="36.127144452184439" lon="-5.397978248074651">
        <ele>22.24755859375</ele>
        <time>2011-04-16T06:24:15Z</time>
      </trkpt>
      <trkpt lat="36.125270929187536" lon="-5.396458860486746">
        <ele>22.24755859375</ele>
        <time>2011-04-16T06:24:32Z</time>
      </trkpt>
      <trkpt lat="36.123406458646059" lon="-5.394972497597337">
        <ele>25.1317138671875</ele>
        <time>2011-04-16T06:24:49Z</time>
      </trkpt>
      <trkpt lat="36.121890423819423" lon="-5.393775561824441">
        <ele>28.9769287109375</ele>
        <time>2011-04-16T06:25:03Z</time>
      </trkpt>
      <trkpt lat="36.119952276349068" lon="-5.392250474542379">
        <ele>29.45751953125</ele>
        <time>2011-04-16T06:25:21Z</time>
      </trkpt>
      <trkpt lat="36.118540344759822" lon="-5.391140878200531">
        <ele>21.7669677734375</ele>
        <time>2011-04-16T06:25:34Z</time>
      </trkpt>
      <trkpt lat="36.117070997133851" lon="-5.390089871361852">
        <ele>10.7117919921875</ele>
        <time>2011-04-16T06:25:47Z</time>
      </trkpt>
      <trkpt lat="36.115221446380019" lon="-5.388822946697474">
        <ele>19.36376953125</ele>
        <time>2011-04-16T06:26:03Z</time>
      </trkpt>
      <trkpt lat="36.113383797928691" lon="-5.387644618749619">
        <ele>37.1480712890625</ele>
        <time>2011-04-16T06:26:19Z</time>
      </trkpt>
      <trkpt lat="36.111193522810936" lon="-5.386272249743342">
        <ele>48.6839599609375</ele>
        <time>2011-04-16T06:26:38Z</time>
      </trkpt>
      <trkpt lat="36.108885230496526" lon="-5.384799968451262">
        <ele>57.3358154296875</ele>
        <time>2011-04-16T06:26:58Z</time>
      </trkpt>
      <trkpt lat="36.107198456302285" lon="-5.383644439280033">
        <ele>57.3358154296875</ele>
        <time>2011-04-16T06:27:13Z</time>
      </trkpt>
      <trkpt lat="36.105058388784528" lon="-5.382216749712825">
        <ele>51.56787109375</ele>
        <time>2011-04-16T06:27:32Z</time>
      </trkpt>
      <trkpt lat="36.103233229368925" lon="-5.380789143964648">
        <ele>35.2254638671875</ele>
        <time>2011-04-16T06:27:49Z</time>
      </trkpt>
      <trkpt lat="36.100996099412441" lon="-5.379070267081261">
        <ele>25.6123046875</ele>
        <time>2011-04-16T06:28:10Z</time>
      </trkpt>
      <trkpt lat="36.099728755652905" lon="-5.378147754818201">
        <ele>18.40234375</ele>
        <time>2011-04-16T06:28:22Z</time>
      </trkpt>
      <trkpt lat="36.098542045801878" lon="-5.377410985529423">
        <ele>26.5736083984375</ele>
        <time>2011-04-16T06:28:33Z</time>
      </trkpt>
      <trkpt lat="36.097302781417966" lon="-5.37656357511878">
        <ele>35.2254638671875</ele>
        <time>2011-04-16T06:28:45Z</time>
      </trkpt>
      <trkpt lat="36.096247248351574" lon="-5.375766372308135">
        <ele>41.9547119140625</ele>
        <time>2011-04-16T06:28:55Z</time>
      </trkpt>
      <trkpt lat="36.095168078318238" lon="-5.374883757904172">
        <ele>50.1259765625</ele>
        <time>2011-04-16T06:29:05Z</time>
      </trkpt>
      <trkpt lat="36.094197453930974" lon="-5.37423231638968">
        <ele>42.4354248046875</ele>
        <time>2011-04-16T06:29:14Z</time>
      </trkpt>
    </trkseg>
  </trk>

  <trk>
    <name>110416</name>
    <extensions>
      <gpxx:TrackExtension xmlns:gpxx="http://www.garmin.com/xmlschemas/GpxExtensions/v3">
        <gpxx:DisplayColor>Blue</gpxx:DisplayColor>
      </gpxx:TrackExtension>
    </extensions>
    <trkseg>
      <trkpt lat="35.894956346601248" lon="-5.321245947852731">
        <ele>47.7225341796875</ele>
        <time>2011-04-16T07:06:33Z</time>
      </trkpt>
      <trkpt lat="35.894915945827961" lon="-5.321364551782608">
        <ele>58.297119140625</ele>
        <time>2011-04-16T07:06:42Z</time>
      </trkpt>
      <trkpt lat="35.894768759608269" lon="-5.321287857368588">
        <ele>43.8773193359375</ele>
        <time>2011-04-16T07:06:49Z</time>
      </trkpt>
      <trkpt lat="35.894530965015292" lon="-5.321378884837031">
        <ele>22.24755859375</ele>
        <time>2011-04-16T07:07:03Z</time>
      </trkpt>
      <trkpt lat="35.894410349428654" lon="-5.32151953317225">
        <ele>11.1925048828125</ele>
        <time>2011-04-16T07:07:12Z</time>
      </trkpt>
      <trkpt lat="35.894315550103784" lon="-5.321707958355546">
        <ele>8.30859375</ele>
        <time>2011-04-16T07:07:20Z</time>
      </trkpt>
      <trkpt lat="35.894496263936162" lon="-5.321938544511795">
        <ele>6.866455078125</ele>
        <time>2011-04-16T07:07:27Z</time>
      </trkpt>
      <trkpt lat="35.894851740449667" lon="-5.322497030720115">
        <ele>5.424560546875</ele>
        <time>2011-04-16T07:07:36Z</time>
      </trkpt>
      <trkpt lat="35.895645758137107" lon="-5.323679465800524">
        <ele>1.579345703125</ele>
        <time>2011-04-16T07:07:52Z</time>
      </trkpt>
      <trkpt lat="35.896048173308372" lon="-5.324252955615521">
        <ele>0.6180419921875</ele>
        <time>2011-04-16T07:08:04Z</time>
      </trkpt>
      <trkpt lat="35.896171554923058" lon="-5.324479267001152">
        <ele>0.6180419921875</ele>
        <time>2011-04-16T07:08:13Z</time>
      </trkpt>
      <trkpt lat="35.896279597654939" lon="-5.324677163735032">
        <ele>-11.3984375</ele>
        <time>2011-04-16T07:08:22Z</time>
      </trkpt>
      <trkpt lat="35.896327877417207" lon="-5.325041441246867">
        <ele>-11.3984375</ele>
        <time>2011-04-16T07:08:30Z</time>
      </trkpt>
      <trkpt lat="35.89630558155477" lon="-5.325813665986061">
        <ele>-8.9952392578125</ele>
        <time>2011-04-16T07:08:42Z</time>
      </trkpt>
      <trkpt lat="35.896187564358115" lon="-5.325953140854836">
        <ele>-5.14990234375</ele>
        <time>2011-04-16T07:08:49Z</time>
      </trkpt>
      <trkpt lat="35.89609058573842" lon="-5.326112397015095">
        <ele>1.0986328125</ele>
        <time>2011-04-16T07:09:39Z</time>
      </trkpt>
      <trkpt lat="35.896284291520715" lon="-5.326401321217418">
        <ele>0.137451171875</ele>
        <time>2011-04-16T07:09:48Z</time>
      </trkpt>
      <trkpt lat="35.896271886304021" lon="-5.326702231541276">
        <ele>1.579345703125</ele>
        <time>2011-04-16T07:09:55Z</time>
      </trkpt>
      <trkpt lat="35.896123191341758" lon="-5.326596954837441">
        <ele>2.06005859375</ele>
        <time>2011-04-16T07:10:01Z</time>
      </trkpt>
      <trkpt lat="35.896095028147101" lon="-5.326166963204742">
        <ele>3.501953125</ele>
        <time>2011-04-16T07:10:07Z</time>
      </trkpt>
      <trkpt lat="35.895776348188519" lon="-5.325256688520312">
        <ele>3.501953125</ele>
        <time>2011-04-16T07:10:20Z</time>
      </trkpt>
      <trkpt lat="35.895530423149467" lon="-5.324947899207473">
        <ele>5.9052734375</ele>
        <time>2011-04-16T07:10:34Z</time>
      </trkpt>
      <trkpt lat="35.895048882812262" lon="-5.324369464069605">
        <ele>2.5406494140625</ele>
        <time>2011-04-16T07:10:44Z</time>
      </trkpt>
      <trkpt lat="35.894451001659036" lon="-5.323666473850608">
        <ele>0.6180419921875</ele>
        <time>2011-04-16T07:10:55Z</time>
      </trkpt>
      <trkpt lat="35.893851276487112" lon="-5.32300153747201">
        <ele>0.137451171875</ele>
        <time>2011-04-16T07:11:05Z</time>
      </trkpt>
      <trkpt lat="35.893476102501154" lon="-5.322523517534137">
        <ele>3.021240234375</ele>
        <time>2011-04-16T07:11:14Z</time>
      </trkpt>
      <trkpt lat="35.892787529155612" lon="-5.321667641401291">
        <ele>2.06005859375</ele>
        <time>2011-04-16T07:11:28Z</time>
      </trkpt>
      <trkpt lat="35.892711756750941" lon="-5.321563454344869">
        <ele>1.0986328125</ele>
        <time>2011-04-16T07:11:30Z</time>
      </trkpt>
      <trkpt lat="35.892229881137609" lon="-5.320890806615353">
        <ele>3.982666015625</ele>
        <time>2011-04-16T07:11:39Z</time>
      </trkpt>
      <trkpt lat="35.891647338867188" lon="-5.320065021514893">
        <ele>2.5406494140625</ele>
        <time>2011-04-16T07:11:50Z</time>
      </trkpt>
      <trkpt lat="35.891309296712279" lon="-5.319404946640134">
        <ele>1.0986328125</ele>
        <time>2011-04-16T07:11:59Z</time>
      </trkpt>
      <trkpt lat="35.890998831018806" lon="-5.318135591223836">
        <ele>-2.2659912109375</ele>
        <time>2011-04-16T07:12:11Z</time>
      </trkpt>
      <trkpt lat="35.89086564257741" lon="-5.31749957241118">
        <ele>-0.8240966796875</ele>
        <time>2011-04-16T07:12:19Z</time>
      </trkpt>
      <trkpt lat="35.890747709199786" lon="-5.317318439483643">
        <ele>-1.3046875</ele>
        <time>2011-04-16T07:12:25Z</time>
      </trkpt>
      <trkpt lat="35.890566660091281" lon="-5.317368898540735">
        <ele>-1.7852783203125</ele>
        <time>2011-04-16T07:12:29Z</time>
      </trkpt>
      <trkpt lat="35.890153516083956" lon="-5.317834177985787">
        <ele>0.6180419921875</ele>
        <time>2011-04-16T07:12:38Z</time>
      </trkpt>
      <trkpt lat="35.889973640441895" lon="-5.318708997219801">
        <ele>2.5406494140625</ele>
        <time>2011-04-16T07:12:49Z</time>
      </trkpt>
      <trkpt lat="35.889918906614184" lon="-5.319222891703248">
        <ele>3.501953125</ele>
        <time>2011-04-16T07:12:55Z</time>
      </trkpt>
      <trkpt lat="35.889887809753418" lon="-5.319399833679199">
        <ele>4.4632568359375</ele>
        <time>2011-04-16T07:13:02Z</time>
      </trkpt>
      <trkpt lat="35.889797201380134" lon="-5.319641903042793">
        <ele>6.866455078125</ele>
        <time>2011-04-16T07:13:10Z</time>
      </trkpt>
      <trkpt lat="35.889716986566782" lon="-5.319806104525924">
        <ele>7.827880859375</ele>
        <time>2011-04-16T07:13:13Z</time>
      </trkpt>
      <trkpt lat="35.889317840337753" lon="-5.320205921307206">
        <ele>11.6732177734375</ele>
        <time>2011-04-16T07:13:22Z</time>
      </trkpt>
      <trkpt lat="35.889205606654286" lon="-5.32071378082037">
        <ele>13.5958251953125</ele>
        <time>2011-04-16T07:13:30Z</time>
      </trkpt>
      <trkpt lat="35.889512300491333" lon="-5.321652889251709">
        <ele>12.6343994140625</ele>
        <time>2011-04-16T07:13:41Z</time>
      </trkpt>
      <trkpt lat="35.889980848878622" lon="-5.322427293285728">
        <ele>11.1925048828125</ele>
        <time>2011-04-16T07:13:51Z</time>
      </trkpt>
      <trkpt lat="35.890069529414177" lon="-5.322638601064682">
        <ele>12.15380859375</ele>
        <time>2011-04-16T07:13:58Z</time>
      </trkpt>
      <trkpt lat="35.890694484114647" lon="-5.32344913110137">
        <ele>13.1151123046875</ele>
        <time>2011-04-16T07:14:16Z</time>
      </trkpt>
      <trkpt lat="35.891340477392077" lon="-5.324395867064595">
        <ele>13.1151123046875</ele>
        <time>2011-04-16T07:14:29Z</time>
      </trkpt>
      <trkpt lat="35.89176963083446" lon="-5.325176138430834">
        <ele>14.5570068359375</ele>
        <time>2011-04-16T07:14:39Z</time>
      </trkpt>
      <trkpt lat="35.891943639144301" lon="-5.32582682557404">
        <ele>19.8443603515625</ele>
        <time>2011-04-16T07:14:47Z</time>
      </trkpt>
      <trkpt lat="35.892119407653809" lon="-5.326137542724609">
        <ele>21.286376953125</ele>
        <time>2011-04-16T07:14:53Z</time>
      </trkpt>
      <trkpt lat="35.892262402921915" lon="-5.326205603778362">
        <ele>21.7669677734375</ele>
        <time>2011-04-16T07:15:00Z</time>
      </trkpt>
      <trkpt lat="35.892183780670166" lon="-5.326309204101563">
        <ele>21.7669677734375</ele>
        <time>2011-04-16T07:15:03Z</time>
      </trkpt>
      <trkpt lat="35.891806511208415" lon="-5.325357941910625">
        <ele>21.286376953125</ele>
        <time>2011-04-16T07:15:13Z</time>
      </trkpt>
      <trkpt lat="35.891702575609088" lon="-5.324955862015486">
        <ele>14.5570068359375</ele>
        <time>2011-04-16T07:15:17Z</time>
      </trkpt>
      <trkpt lat="35.891079464927316" lon="-5.32399931922555">
        <ele>9.7506103515625</ele>
        <time>2011-04-16T07:15:27Z</time>
      </trkpt>
      <trkpt lat="35.890478231012821" lon="-5.323144784197211">
        <ele>13.5958251953125</ele>
        <time>2011-04-16T07:15:38Z</time>
      </trkpt>
      <trkpt lat="35.890319226309657" lon="-5.322936326265335">
        <ele>13.5958251953125</ele>
        <time>2011-04-16T07:15:44Z</time>
      </trkpt>
      <trkpt lat="35.890234233811498" lon="-5.322816297411919">
        <ele>13.1151123046875</ele>
        <time>2011-04-16T07:15:58Z</time>
      </trkpt>
      <trkpt lat="35.890023931860924" lon="-5.322511699050665">
        <ele>13.5958251953125</ele>
        <time>2011-04-16T07:16:04Z</time>
      </trkpt>
      <trkpt lat="35.889547755941749" lon="-5.321711478754878">
        <ele>15.0377197265625</ele>
        <time>2011-04-16T07:16:14Z</time>
      </trkpt>
      <trkpt lat="35.889428816735744" lon="-5.321505954489112">
        <ele>15.0377197265625</ele>
        <time>2011-04-16T07:16:20Z</time>
      </trkpt>
      <trkpt lat="35.889089601114392" lon="-5.32154593616724">
        <ele>17.9217529296875</ele>
        <time>2011-04-16T07:16:31Z</time>
      </trkpt>
      <trkpt lat="35.888536563143134" lon="-5.321972155943513">
        <ele>20.8056640625</ele>
        <time>2011-04-16T07:16:40Z</time>
      </trkpt>
      <trkpt lat="35.888129705563188" lon="-5.322282621636987">
        <ele>23.6895751953125</ele>
        <time>2011-04-16T07:16:47Z</time>
      </trkpt>
      <trkpt lat="35.887476168572903" lon="-5.322736417874694">
        <ele>28.0155029296875</ele>
        <time>2011-04-16T07:16:56Z</time>
      </trkpt>
      <trkpt lat="35.886828834190965" lon="-5.323226004838944">
        <ele>29.45751953125</ele>
        <time>2011-04-16T07:17:06Z</time>
      </trkpt>
      <trkpt lat="35.886536473408341" lon="-5.323536386713386">
        <ele>31.380126953125</ele>
        <time>2011-04-16T07:17:13Z</time>
      </trkpt>
      <trkpt lat="35.886140344664454" lon="-5.324134351685643">
        <ele>35.7060546875</ele>
        <time>2011-04-16T07:17:22Z</time>
      </trkpt>
      <trkpt lat="35.885770199820399" lon="-5.324729885905981">
        <ele>40.5128173828125</ele>
        <time>2011-04-16T07:17:30Z</time>
      </trkpt>
      <trkpt lat="35.885394020006061" lon="-5.325513845309615">
        <ele>46.76123046875</ele>
        <time>2011-04-16T07:17:39Z</time>
      </trkpt>
      <trkpt lat="35.885089337825775" lon="-5.326142907142639">
        <ele>55.893798828125</ele>
        <time>2011-04-16T07:17:47Z</time>
      </trkpt>
      <trkpt lat="35.885026222094893" lon="-5.326236113905907">
        <ele>65.0263671875</ele>
        <time>2011-04-16T07:18:00Z</time>
      </trkpt>
      <trkpt lat="35.884745847433805" lon="-5.3266232740134">
        <ele>62.142333984375</ele>
        <time>2011-04-16T07:18:07Z</time>
      </trkpt>
      <trkpt lat="35.884378384798765" lon="-5.32701219432056">
        <ele>62.142333984375</ele>
        <time>2011-04-16T07:18:14Z</time>
      </trkpt>
      <trkpt lat="35.88404294103384" lon="-5.327440844848752">
        <ele>63.1036376953125</ele>
        <time>2011-04-16T07:18:22Z</time>
      </trkpt>
      <trkpt lat="35.883957697078586" lon="-5.327554754912853">
        <ele>63.1036376953125</ele>
        <time>2011-04-16T07:18:29Z</time>
      </trkpt>
      <trkpt lat="35.883732726797462" lon="-5.32797971740365">
        <ele>64.0650634765625</ele>
        <time>2011-04-16T07:18:37Z</time>
      </trkpt>
      <trkpt lat="35.883109867572784" lon="-5.328246848657727">
        <ele>60.2197265625</ele>
        <time>2011-04-16T07:18:46Z</time>
      </trkpt>
      <trkpt lat="35.882745422422886" lon="-5.328724198043346">
        <ele>53.97119140625</ele>
        <time>2011-04-16T07:18:53Z</time>
      </trkpt>
      <trkpt lat="35.882246950641274" lon="-5.329538248479366">
        <ele>46.76123046875</ele>
        <time>2011-04-16T07:19:02Z</time>
      </trkpt>
      <trkpt lat="35.881954170763493" lon="-5.33034760504961">
        <ele>42.4354248046875</ele>
        <time>2011-04-16T07:19:10Z</time>
      </trkpt>
      <trkpt lat="35.881715873256326" lon="-5.330688245594502">
        <ele>38.590087890625</ele>
        <time>2011-04-16T07:19:15Z</time>
      </trkpt>
      <trkpt lat="35.881504733115435" lon="-5.330833420157433">
        <ele>36.186767578125</ele>
        <time>2011-04-16T07:19:20Z</time>
      </trkpt>
      <trkpt lat="35.881303483620286" lon="-5.330988317728043">
        <ele>34.744873046875</ele>
        <time>2011-04-16T07:19:24Z</time>
      </trkpt>
      <trkpt lat="35.881164679303765" lon="-5.331469271332026">
        <ele>31.8607177734375</ele>
        <time>2011-04-16T07:19:30Z</time>
      </trkpt>
      <trkpt lat="35.881409347057343" lon="-5.331523418426514">
        <ele>29.9381103515625</ele>
        <time>2011-04-16T07:19:34Z</time>
      </trkpt>
      <trkpt lat="35.881996499374509" lon="-5.331394672393799">
        <ele>25.6123046875</ele>
        <time>2011-04-16T07:19:41Z</time>
      </trkpt>
      <trkpt lat="35.882229516282678" lon="-5.331553174182773">
        <ele>23.6895751953125</ele>
        <time>2011-04-16T07:19:46Z</time>
      </trkpt>
      <trkpt lat="35.88221887126565" lon="-5.331815192475915">
        <ele>23.6895751953125</ele>
        <time>2011-04-16T07:19:50Z</time>
      </trkpt>
      <trkpt lat="35.882078222930431" lon="-5.332007138058543">
        <ele>23.6895751953125</ele>
        <time>2011-04-16T07:19:53Z</time>
      </trkpt>
      <trkpt lat="35.881833806633949" lon="-5.332178128883243">
        <ele>22.728271484375</ele>
        <time>2011-04-16T07:19:57Z</time>
      </trkpt>
      <trkpt lat="35.880916826426983" lon="-5.332626141607761">
        <ele>21.286376953125</ele>
        <time>2011-04-16T07:20:09Z</time>
      </trkpt>
      <trkpt lat="35.880583561956882" lon="-5.333051607012749">
        <ele>17.441162109375</ele>
        <time>2011-04-16T07:20:15Z</time>
      </trkpt>
      <trkpt lat="35.880532264709473" lon="-5.333249587565661">
        <ele>16.96044921875</ele>
        <time>2011-04-16T07:20:17Z</time>
      </trkpt>
      <trkpt lat="35.88055120781064" lon="-5.333766415715218">
        <ele>14.076416015625</ele>
        <time>2011-04-16T07:20:22Z</time>
      </trkpt>
      <trkpt lat="35.880729323253036" lon="-5.334221469238401">
        <ele>10.7117919921875</ele>
        <time>2011-04-16T07:20:27Z</time>
      </trkpt>
      <trkpt lat="35.880684480071068" lon="-5.334654226899147">
        <ele>6.866455078125</ele>
        <time>2011-04-16T07:20:33Z</time>
      </trkpt>
      <trkpt lat="35.880107888951898" lon="-5.334983635693789">
        <ele>3.021240234375</ele>
        <time>2011-04-16T07:20:43Z</time>
      </trkpt>
      <trkpt lat="35.880013927817345" lon="-5.334997046738863">
        <ele>2.5406494140625</ele>
        <time>2011-04-16T07:20:48Z</time>
      </trkpt>
      <trkpt lat="35.879710838198662" lon="-5.335656702518463">
        <ele>2.5406494140625</ele>
        <time>2011-04-16T07:21:05Z</time>
      </trkpt>
      <trkpt lat="35.87926659733057" lon="-5.336641995236278">
        <ele>3.501953125</ele>
        <time>2011-04-16T07:21:16Z</time>
      </trkpt>
      <trkpt lat="35.878655556589365" lon="-5.337795177474618">
        <ele>3.982666015625</ele>
        <time>2011-04-16T07:21:27Z</time>
      </trkpt>
      <trkpt lat="35.877738576382399" lon="-5.33891424536705">
        <ele>3.982666015625</ele>
        <time>2011-04-16T07:21:38Z</time>
      </trkpt>
      <trkpt lat="35.876753870397806" lon="-5.340065499767661">
        <ele>3.501953125</ele>
        <time>2011-04-16T07:21:50Z</time>
      </trkpt>
      <trkpt lat="35.875915428623557" lon="-5.340876867994666">
        <ele>3.501953125</ele>
        <time>2011-04-16T07:22:00Z</time>
      </trkpt>
      <trkpt lat="35.874898787587881" lon="-5.341669376939535">
        <ele>3.021240234375</ele>
        <time>2011-04-16T07:22:12Z</time>
      </trkpt>
      <trkpt lat="35.874052634462714" lon="-5.342332720756531">
        <ele>2.5406494140625</ele>
        <time>2011-04-16T07:22:24Z</time>
      </trkpt>
      <trkpt lat="35.873756418004632" lon="-5.342558613047004">
        <ele>1.579345703125</ele>
        <time>2011-04-16T07:22:32Z</time>
      </trkpt>
      <trkpt lat="35.873748790472746" lon="-5.342429531738162">
        <ele>1.579345703125</ele>
        <time>2011-04-16T07:22:52Z</time>
      </trkpt>
      <trkpt lat="35.873892959207296" lon="-5.342270443215966">
        <ele>7.827880859375</ele>
        <time>2011-04-16T07:25:40Z</time>
      </trkpt>
      <trkpt lat="35.873977616429329" lon="-5.342356776818633">
        <ele>6.3858642578125</ele>
        <time>2011-04-16T07:25:47Z</time>
      </trkpt>
      <trkpt lat="35.873865131288767" lon="-5.342476973310113">
        <ele>7.827880859375</ele>
        <time>2011-04-16T07:26:00Z</time>
      </trkpt>
      <trkpt lat="35.873331371694803" lon="-5.342879807576537">
        <ele>7.827880859375</ele>
        <time>2011-04-16T07:26:08Z</time>
      </trkpt>
      <trkpt lat="35.873047728091478" lon="-5.343086337670684">
        <ele>7.34716796875</ele>
        <time>2011-04-16T07:26:14Z</time>
      </trkpt>
      <trkpt lat="35.872752852737904" lon="-5.343530746176839">
        <ele>4.94384765625</ele>
        <time>2011-04-16T07:26:23Z</time>
      </trkpt>
      <trkpt lat="35.872477004304528" lon="-5.343704838305712">
        <ele>2.06005859375</ele>
        <time>2011-04-16T07:26:31Z</time>
      </trkpt>
      <trkpt lat="35.872174333781004" lon="-5.343998959288001">
        <ele>1.579345703125</ele>
        <time>2011-04-16T07:26:40Z</time>
      </trkpt>
      <trkpt lat="35.872050197795033" lon="-5.344096943736076">
        <ele>1.579345703125</ele>
        <time>2011-04-16T07:26:46Z</time>
      </trkpt>
      <trkpt lat="35.871950117871165" lon="-5.344182522967458">
        <ele>5.424560546875</ele>
        <time>2011-04-16T07:27:10Z</time>
      </trkpt>
      <trkpt lat="35.871775019913912" lon="-5.344292661175132">
        <ele>-9.475830078125</ele>
        <time>2011-04-16T07:27:33Z</time>
      </trkpt>
      <trkpt lat="35.871603777632117" lon="-5.344402883201838">
        <ele>-9.475830078125</ele>
        <time>2011-04-16T07:27:42Z</time>
      </trkpt>
      <trkpt lat="35.871280571445823" lon="-5.344570437446237">
        <ele>-8.5146484375</ele>
        <time>2011-04-16T07:27:49Z</time>
      </trkpt>
      <trkpt lat="35.871121566742659" lon="-5.34461259841919">
        <ele>-7.072509765625</ele>
        <time>2011-04-16T07:27:56Z</time>
      </trkpt>
      <trkpt lat="35.870861392468214" lon="-5.344622153788805">
        <ele>-5.14990234375</ele>
        <time>2011-04-16T07:28:04Z</time>
      </trkpt>
      <trkpt lat="35.870597865432501" lon="-5.344701278954744">
        <ele>-4.6693115234375</ele>
        <time>2011-04-16T07:28:10Z</time>
      </trkpt>
      <trkpt lat="35.870383623987436" lon="-5.344783840700984">
        <ele>-4.6693115234375</ele>
        <time>2011-04-16T07:28:14Z</time>
      </trkpt>
      <trkpt lat="35.869870986789465" lon="-5.345045356079936">
        <ele>-1.7852783203125</ele>
        <time>2011-04-16T07:28:24Z</time>
      </trkpt>
      <trkpt lat="35.869766883552074" lon="-5.345069160684943">
        <ele>-1.7852783203125</ele>
        <time>2011-04-16T07:28:27Z</time>
      </trkpt>
      <trkpt lat="35.869471002370119" lon="-5.345135545358062">
        <ele>-0.8240966796875</ele>
        <time>2011-04-16T07:28:36Z</time>
      </trkpt>
      <trkpt lat="35.86931417696178" lon="-5.345174269750714">
        <ele>0.137451171875</ele>
        <time>2011-04-16T07:28:46Z</time>
      </trkpt>
      <trkpt lat="35.869168918579817" lon="-5.345206540077925">
        <ele>-19.0889892578125</ele>
        <time>2011-04-16T07:44:56Z</time>
      </trkpt>
      <trkpt lat="35.869063977152109" lon="-5.345225818455219">
        <ele>-20.531005859375</ele>
        <time>2011-04-16T07:46:23Z</time>
      </trkpt>
      <trkpt lat="35.868926430121064" lon="-5.345248701050878">
        <ele>-21.0115966796875</ele>
        <time>2011-04-16T07:50:08Z</time>
      </trkpt>
      <trkpt lat="35.868754265829921" lon="-5.345298405736685">
        <ele>-21.0115966796875</ele>
        <time>2011-04-16T07:50:20Z</time>
      </trkpt>
      <trkpt lat="35.868650414049625" lon="-5.345319611951709">
        <ele>0.6180419921875</ele>
        <time>2011-04-16T08:59:38Z</time>
      </trkpt>
      <trkpt lat="35.86849476210773" lon="-5.345333525910974">
        <ele>-21.9730224609375</ele>
        <time>2011-04-16T09:04:19Z</time>
      </trkpt>
      <trkpt lat="35.868255458772182" lon="-5.345320701599121">
        <ele>-5.6304931640625</ele>
        <time>2011-04-16T09:06:09Z</time>
      </trkpt>
      <trkpt lat="35.868134256452322" lon="-5.345330256968737">
        <ele>6.866455078125</ele>
        <time>2011-04-16T09:07:04Z</time>
      </trkpt>
      <trkpt lat="35.867927558720112" lon="-5.345398737117648">
        <ele>7.34716796875</ele>
        <time>2011-04-16T09:07:16Z</time>
      </trkpt>
      <trkpt lat="35.867436630651355" lon="-5.34522095695138">
        <ele>7.34716796875</ele>
        <time>2011-04-16T09:07:26Z</time>
      </trkpt>
      <trkpt lat="35.866906139999628" lon="-5.345138227567077">
        <ele>7.827880859375</ele>
        <time>2011-04-16T09:07:36Z</time>
      </trkpt>
      <trkpt lat="35.866754092276096" lon="-5.345114171504974">
        <ele>8.30859375</ele>
        <time>2011-04-16T09:07:39Z</time>
      </trkpt>
      <trkpt lat="35.866483775898814" lon="-5.345057342201471">
        <ele>8.30859375</ele>
        <time>2011-04-16T09:07:44Z</time>
      </trkpt>
      <trkpt lat="35.866349330171943" lon="-5.345035381615162">
        <ele>8.30859375</ele>
        <time>2011-04-16T09:07:51Z</time>
      </trkpt>
      <trkpt lat="35.866189319640398" lon="-5.345019372180104">
        <ele>9.2698974609375</ele>
        <time>2011-04-16T09:09:09Z</time>
      </trkpt>
      <trkpt lat="35.865795537829399" lon="-5.345017779618502">
        <ele>9.7506103515625</ele>
        <time>2011-04-16T09:09:15Z</time>
      </trkpt>
      <trkpt lat="35.865195812657475" lon="-5.345107633620501">
        <ele>9.7506103515625</ele>
        <time>2011-04-16T09:09:21Z</time>
      </trkpt>
      <trkpt lat="35.864334823563695" lon="-5.345538798719645">
        <ele>9.7506103515625</ele>
        <time>2011-04-16T09:09:28Z</time>
      </trkpt>
      <trkpt lat="35.863303681835532" lon="-5.345917074009776">
        <ele>9.7506103515625</ele>
        <time>2011-04-16T09:09:35Z</time>
      </trkpt>
      <trkpt lat="35.862073553726077" lon="-5.345967030152679">
        <ele>9.2698974609375</ele>
        <time>2011-04-16T09:09:43Z</time>
      </trkpt>
      <trkpt lat="35.861092703416944" lon="-5.346184205263853">
        <ele>9.2698974609375</ele>
        <time>2011-04-16T09:09:50Z</time>
      </trkpt>
      <trkpt lat="35.859700804576278" lon="-5.346530210226774">
        <ele>8.7891845703125</ele>
        <time>2011-04-16T09:10:00Z</time>
      </trkpt>
      <trkpt lat="35.858529768884182" lon="-5.346799185499549">
        <ele>7.827880859375</ele>
        <time>2011-04-16T09:10:10Z</time>
      </trkpt>
      <trkpt lat="35.858268504962325" lon="-5.346884597092867">
        <ele>7.34716796875</ele>
        <time>2011-04-16T09:10:16Z</time>
      </trkpt>
      <trkpt lat="35.858112098649144" lon="-5.346960788592696">
        <ele>6.3858642578125</ele>
        <time>2011-04-16T09:10:25Z</time>
      </trkpt>
      <trkpt lat="35.85788712836802" lon="-5.347048966214061">
        <ele>6.866455078125</ele>
        <time>2011-04-16T09:10:32Z</time>
      </trkpt>
      <trkpt lat="35.857634665444493" lon="-5.347147453576326">
        <ele>6.3858642578125</ele>
        <time>2011-04-16T09:10:38Z</time>
      </trkpt>
      <trkpt lat="35.857465267181396" lon="-5.347208976745606">
        <ele>5.9052734375</ele>
        <time>2011-04-16T09:10:41Z</time>
      </trkpt>
      <trkpt lat="35.856797564774752" lon="-5.34733772277832">
        <ele>6.3858642578125</ele>
        <time>2011-04-16T09:10:48Z</time>
      </trkpt>
      <trkpt lat="35.855358056724072" lon="-5.347327664494515">
        <ele>6.3858642578125</ele>
        <time>2011-04-16T09:10:59Z</time>
      </trkpt>
      <trkpt lat="35.854459851980209" lon="-5.347577445209026">
        <ele>6.3858642578125</ele>
        <time>2011-04-16T09:11:06Z</time>
      </trkpt>
      <trkpt lat="35.853688884526491" lon="-5.348138697445393">
        <ele>5.9052734375</ele>
        <time>2011-04-16T09:11:12Z</time>
      </trkpt>
      <trkpt lat="35.852713566273451" lon="-5.349250975996256">
        <ele>6.866455078125</ele>
        <time>2011-04-16T09:11:20Z</time>
      </trkpt>
      <trkpt lat="35.851776972413063" lon="-5.350601049140096">
        <ele>6.3858642578125</ele>
        <time>2011-04-16T09:11:29Z</time>
      </trkpt>
      <trkpt lat="35.851314878091216" lon="-5.351340500637889">
        <ele>7.34716796875</ele>
        <time>2011-04-16T09:11:35Z</time>
      </trkpt>
      <trkpt lat="35.850967783480883" lon="-5.351753896102309">
        <ele>8.30859375</ele>
        <time>2011-04-16T09:11:42Z</time>
      </trkpt>
      <trkpt lat="35.850519016385078" lon="-5.352177266031504">
        <ele>7.827880859375</ele>
        <time>2011-04-16T09:11:49Z</time>
      </trkpt>
      <trkpt lat="35.849480414763093" lon="-5.352864498272538">
        <ele>7.827880859375</ele>
        <time>2011-04-16T09:12:01Z</time>
      </trkpt>
      <trkpt lat="35.848917737603188" lon="-5.353112854063511">
        <ele>7.827880859375</ele>
        <time>2011-04-16T09:12:08Z</time>
      </trkpt>
      <trkpt lat="35.847967648878694" lon="-5.353373782709241">
        <ele>7.34716796875</ele>
        <time>2011-04-16T09:12:17Z</time>
      </trkpt>
      <trkpt lat="35.846938770264387" lon="-5.353600429370999">
        <ele>7.34716796875</ele>
        <time>2011-04-16T09:12:25Z</time>
      </trkpt>
      <trkpt lat="35.846368717029691" lon="-5.35387896001339">
        <ele>6.3858642578125</ele>
        <time>2011-04-16T09:12:31Z</time>
      </trkpt>
      <trkpt lat="35.84617274813354" lon="-5.353980297222734">
        <ele>5.9052734375</ele>
        <time>2011-04-16T09:12:35Z</time>
      </trkpt>
      <trkpt lat="35.845823138952255" lon="-5.354113653302193">
        <ele>6.3858642578125</ele>
        <time>2011-04-16T09:12:43Z</time>
      </trkpt>
      <trkpt lat="35.845118639990687" lon="-5.354161262512207">
        <ele>5.424560546875</ele>
        <time>2011-04-16T09:12:51Z</time>
      </trkpt>
      <trkpt lat="35.844212723895907" lon="-5.354016926139593">
        <ele>4.94384765625</ele>
        <time>2011-04-16T09:12:59Z</time>
      </trkpt>
      <trkpt lat="35.843989932909608" lon="-5.353977279737592">
        <ele>4.94384765625</ele>
        <time>2011-04-16T09:13:01Z</time>
      </trkpt>
      <trkpt lat="35.843460699543357" lon="-5.354039641097188">
        <ele>5.424560546875</ele>
        <time>2011-04-16T09:13:07Z</time>
      </trkpt>
      <trkpt lat="35.843212008476257" lon="-5.354134608060122">
        <ele>5.424560546875</ele>
        <time>2011-04-16T09:13:10Z</time>
      </trkpt>
      <trkpt lat="35.842840438708663" lon="-5.354329906404018">
        <ele>5.9052734375</ele>
        <time>2011-04-16T09:13:14Z</time>
      </trkpt>
      <trkpt lat="35.842572553083301" lon="-5.354473069310188">
        <ele>5.424560546875</ele>
        <time>2011-04-16T09:13:17Z</time>
      </trkpt>
      <trkpt lat="35.842009456828237" lon="-5.3547487501055">
        <ele>5.9052734375</ele>
        <time>2011-04-16T09:13:24Z</time>
      </trkpt>
      <trkpt lat="35.841607628390193" lon="-5.354925775900483">
        <ele>6.866455078125</ele>
        <time>2011-04-16T09:13:31Z</time>
      </trkpt>
      <trkpt lat="35.841084262356162" lon="-5.355202211067081">
        <ele>10.231201171875</ele>
        <time>2011-04-16T09:13:40Z</time>
      </trkpt>
      <trkpt lat="35.84085208363831" lon="-5.355330621823669">
        <ele>12.15380859375</ele>
        <time>2011-04-16T09:13:45Z</time>
      </trkpt>
      <trkpt lat="35.840546479448676" lon="-5.355476047843695">
        <ele>14.076416015625</ele>
        <time>2011-04-16T09:13:51Z</time>
      </trkpt>
      <trkpt lat="35.839866623282433" lon="-5.355836721137166">
        <ele>19.8443603515625</ele>
        <time>2011-04-16T09:13:58Z</time>
      </trkpt>
      <trkpt lat="35.839525312185287" lon="-5.35600402392447">
        <ele>23.208984375</ele>
        <time>2011-04-16T09:14:01Z</time>
      </trkpt>
      <trkpt lat="35.838936232030392" lon="-5.356023050844669">
        <ele>28.0155029296875</ele>
        <time>2011-04-16T09:14:06Z</time>
      </trkpt>
      <trkpt lat="35.83738231100142" lon="-5.355524243786931">
        <ele>33.3028564453125</ele>
        <time>2011-04-16T09:14:19Z</time>
      </trkpt>
      <trkpt lat="35.837126243859529" lon="-5.355441933497787">
        <ele>32.822265625</ele>
        <time>2011-04-16T09:14:22Z</time>
      </trkpt>
      <trkpt lat="35.836757272481918" lon="-5.355333723127842">
        <ele>32.822265625</ele>
        <time>2011-04-16T09:14:28Z</time>
      </trkpt>
      <trkpt lat="35.836670352146029" lon="-5.3553048055619">
        <ele>33.3028564453125</ele>
        <time>2011-04-16T09:14:30Z</time>
      </trkpt>
      <trkpt lat="35.836161319166422" lon="-5.356192197650671">
        <ele>34.26416015625</ele>
        <time>2011-04-16T09:14:34Z</time>
      </trkpt>
      <trkpt lat="35.835307538509369" lon="-5.356709444895387">
        <ele>34.26416015625</ele>
        <time>2011-04-16T09:14:42Z</time>
      </trkpt>
      <trkpt lat="35.834773443639278" lon="-5.357195846736431">
        <ele>33.3028564453125</ele>
        <time>2011-04-16T09:14:48Z</time>
      </trkpt>
      <trkpt lat="35.834622150287032" lon="-5.357427187263966">
        <ele>33.3028564453125</ele>
        <time>2011-04-16T09:14:51Z</time>
      </trkpt>
      <trkpt lat="35.834244629368186" lon="-5.357648888602853">
        <ele>32.341552734375</ele>
        <time>2011-04-16T09:14:56Z</time>
      </trkpt>
      <trkpt lat="35.834152679890394" lon="-5.357712674885988">
        <ele>31.8607177734375</ele>
        <time>2011-04-16T09:14:57Z</time>
      </trkpt>
      <trkpt lat="35.833173170685768" lon="-5.35834014415741">
        <ele>28.4962158203125</ele>
        <time>2011-04-16T09:15:06Z</time>
      </trkpt>
      <trkpt lat="35.832156948745251" lon="-5.358707858249545">
        <ele>24.1702880859375</ele>
        <time>2011-04-16T09:15:14Z</time>
      </trkpt>
      <trkpt lat="35.831231586635113" lon="-5.359224267303944">
        <ele>21.7669677734375</ele>
        <time>2011-04-16T09:15:20Z</time>
      </trkpt>
      <trkpt lat="35.830408064648509" lon="-5.360057093203068">
        <ele>22.728271484375</ele>
        <time>2011-04-16T09:15:26Z</time>
      </trkpt>
      <trkpt lat="35.829999027773738" lon="-5.360631421208382">
        <ele>25.1317138671875</ele>
        <time>2011-04-16T09:15:31Z</time>
      </trkpt>
      <trkpt lat="35.829263096675277" lon="-5.361660299822688">
        <ele>30.4188232421875</ele>
        <time>2011-04-16T09:15:41Z</time>
      </trkpt>
      <trkpt lat="35.828789183869958" lon="-5.362321464344859">
        <ele>33.783447265625</ele>
        <time>2011-04-16T09:15:49Z</time>
      </trkpt>
      <trkpt lat="35.828678039833903" lon="-5.362658333033323">
        <ele>34.744873046875</ele>
        <time>2011-04-16T09:15:54Z</time>
      </trkpt>
      <trkpt lat="35.828429348766804" lon="-5.362886991351843">
        <ele>34.744873046875</ele>
        <time>2011-04-16T09:16:00Z</time>
      </trkpt>
      <trkpt lat="35.828216699883342" lon="-5.362996459007263">
        <ele>34.744873046875</ele>
        <time>2011-04-16T09:16:03Z</time>
      </trkpt>
      <trkpt lat="35.827270047739148" lon="-5.363842025399208">
        <ele>36.186767578125</ele>
        <time>2011-04-16T09:16:13Z</time>
      </trkpt>
      <trkpt lat="35.826396653428674" lon="-5.364620536565781">
        <ele>37.628662109375</ele>
        <time>2011-04-16T09:16:20Z</time>
      </trkpt>
      <trkpt lat="35.824767546728253" lon="-5.365934735164046">
        <ele>40.5128173828125</ele>
        <time>2011-04-16T09:16:31Z</time>
      </trkpt>
      <trkpt lat="35.823338180780411" lon="-5.366672426462174">
        <ele>43.3966064453125</ele>
        <time>2011-04-16T09:16:39Z</time>
      </trkpt>
      <trkpt lat="35.821726843714714" lon="-5.367106692865491">
        <ele>47.2418212890625</ele>
        <time>2011-04-16T09:16:47Z</time>
      </trkpt>
      <trkpt lat="35.819238759577274" lon="-5.367478094995022">
        <ele>51.56787109375</ele>
        <time>2011-04-16T09:16:59Z</time>
      </trkpt>
      <trkpt lat="35.816745981574059" lon="-5.367810940369964">
        <ele>52.048583984375</ele>
        <time>2011-04-16T09:17:10Z</time>
      </trkpt>
      <trkpt lat="35.814237529411912" lon="-5.367971369996667">
        <ele>47.7225341796875</ele>
        <time>2011-04-16T09:17:21Z</time>
      </trkpt>
      <trkpt lat="35.810637585818768" lon="-5.368028450757265">
        <ele>36.186767578125</ele>
        <time>2011-04-16T09:17:36Z</time>
      </trkpt>
      <trkpt lat="35.808900352567434" lon="-5.368292145431042">
        <ele>29.9381103515625</ele>
        <time>2011-04-16T09:17:43Z</time>
      </trkpt>
      <trkpt lat="35.807241071015596" lon="-5.368925733491778">
        <ele>24.1702880859375</ele>
        <time>2011-04-16T09:17:50Z</time>
      </trkpt>
      <trkpt lat="35.805729394778609" lon="-5.369893591850996">
        <ele>19.8443603515625</ele>
        <time>2011-04-16T09:17:57Z</time>
      </trkpt>
      <trkpt lat="35.804207157343626" lon="-5.371332261711359">
        <ele>17.441162109375</ele>
        <time>2011-04-16T09:18:05Z</time>
      </trkpt>
      <trkpt lat="35.802451064810157" lon="-5.373231181874871">
        <ele>14.076416015625</ele>
        <time>2011-04-16T09:18:15Z</time>
      </trkpt>
      <trkpt lat="35.800100024789572" lon="-5.3757094591856">
        <ele>12.6343994140625</ele>
        <time>2011-04-16T09:18:28Z</time>
      </trkpt>
      <trkpt lat="35.798463458195329" lon="-5.376979820430279">
        <ele>10.7117919921875</ele>
        <time>2011-04-16T09:18:36Z</time>
      </trkpt>
      <trkpt lat="35.796669479459524" lon="-5.377902835607529">
        <ele>8.7891845703125</ele>
        <time>2011-04-16T09:18:44Z</time>
      </trkpt>
      <trkpt lat="35.794710796326399" lon="-5.378460064530373">
        <ele>6.3858642578125</ele>
        <time>2011-04-16T09:18:52Z</time>
      </trkpt>
      <trkpt lat="35.792985968291759" lon="-5.378610854968429">
        <ele>5.424560546875</ele>
        <time>2011-04-16T09:18:59Z</time>
      </trkpt>
      <trkpt lat="35.791028374806046" lon="-5.378410695120692">
        <ele>5.424560546875</ele>
        <time>2011-04-16T09:19:07Z</time>
      </trkpt>
      <trkpt lat="35.789130963385105" lon="-5.377818765118718">
        <ele>6.866455078125</ele>
        <time>2011-04-16T09:19:15Z</time>
      </trkpt>
      <trkpt lat="35.787381241098046" lon="-5.376877980306745">
        <ele>10.231201171875</ele>
        <time>2011-04-16T09:19:23Z</time>
      </trkpt>
      <trkpt lat="35.785789852961898" lon="-5.375609798356891">
        <ele>14.5570068359375</ele>
        <time>2011-04-16T09:19:31Z</time>
      </trkpt>
      <trkpt lat="35.784337185323238" lon="-5.374005921185017">
        <ele>13.1151123046875</ele>
        <time>2011-04-16T09:19:39Z</time>
      </trkpt>
      <trkpt lat="35.781380049884319" lon="-5.370353842154145">
        <ele>7.827880859375</ele>
        <time>2011-04-16T09:19:56Z</time>
      </trkpt>
      <trkpt lat="35.778963044285774" lon="-5.367409447208047">
        <ele>12.15380859375</ele>
        <time>2011-04-16T09:20:10Z</time>
      </trkpt>
      <trkpt lat="35.777284819632769" lon="-5.365770366042852">
        <ele>16.96044921875</ele>
        <time>2011-04-16T09:20:19Z</time>
      </trkpt>
      <trkpt lat="35.775486649945378" lon="-5.364450886845589">
        <ele>26.5736083984375</ele>
        <time>2011-04-16T09:20:28Z</time>
      </trkpt>
      <trkpt lat="35.773609522730112" lon="-5.363435167819262">
        <ele>36.66748046875</ele>
        <time>2011-04-16T09:20:37Z</time>
      </trkpt>
      <trkpt lat="35.770926056429744" lon="-5.362331522628665">
        <ele>44.3580322265625</ele>
        <time>2011-04-16T09:20:50Z</time>
      </trkpt>
      <trkpt lat="35.767891723662615" lon="-5.361093766987324">
        <ele>48.6839599609375</ele>
        <time>2011-04-16T09:21:04Z</time>
      </trkpt>
      <trkpt lat="35.764626050367951" lon="-5.35974495112896">
        <ele>49.16455078125</ele>
        <time>2011-04-16T09:21:18Z</time>
      </trkpt>
      <trkpt lat="35.760323535650969" lon="-5.358045184984803">
        <ele>47.7225341796875</ele>
        <time>2011-04-16T09:21:36Z</time>
      </trkpt>
      <trkpt lat="35.757328849285841" lon="-5.3571214992553">
        <ele>45.3192138671875</ele>
        <time>2011-04-16T09:21:48Z</time>
      </trkpt>
      <trkpt lat="35.753398574888706" lon="-5.356011232361198">
        <ele>38.590087890625</ele>
        <time>2011-04-16T09:22:03Z</time>
      </trkpt>
      <trkpt lat="35.751148788258433" lon="-5.355374962091446">
        <ele>35.7060546875</ele>
        <time>2011-04-16T09:22:12Z</time>
      </trkpt>
      <trkpt lat="35.748475044965744" lon="-5.354616399854422">
        <ele>30.8995361328125</ele>
        <time>2011-04-16T09:22:24Z</time>
      </trkpt>
      <trkpt lat="35.746588194742799" lon="-5.35408079624176">
        <ele>28.0155029296875</ele>
        <time>2011-04-16T09:22:33Z</time>
      </trkpt>
      <trkpt lat="35.745301321148872" lon="-5.353737473487854">
        <ele>26.0928955078125</ele>
        <time>2011-04-16T09:22:41Z</time>
      </trkpt>
      <trkpt lat="35.744483666494489" lon="-5.353503953665495">
        <ele>25.6123046875</ele>
        <time>2011-04-16T09:22:48Z</time>
      </trkpt>
      <trkpt lat="35.744190970435739" lon="-5.353423235937953">
        <ele>25.6123046875</ele>
        <time>2011-04-16T09:22:53Z</time>
      </trkpt>
      <trkpt lat="35.744079574942589" lon="-5.353406136855483">
        <ele>26.0928955078125</ele>
        <time>2011-04-16T09:23:00Z</time>
      </trkpt>
      <trkpt lat="35.743963653221726" lon="-5.353383170440793">
        <ele>30.4188232421875</ele>
        <time>2011-04-16T09:23:15Z</time>
      </trkpt>
      <trkpt lat="35.743589987978339" lon="-5.353344278410077">
        <ele>29.9381103515625</ele>
        <time>2011-04-16T09:23:23Z</time>
      </trkpt>
      <trkpt lat="35.742956819012761" lon="-5.353287281468511">
        <ele>27.534912109375</ele>
        <time>2011-04-16T09:23:29Z</time>
      </trkpt>
      <trkpt lat="35.741777820512652" lon="-5.353139424696565">
        <ele>24.1702880859375</ele>
        <time>2011-04-16T09:23:37Z</time>
      </trkpt>
      <trkpt lat="35.74023362249136" lon="-5.353082679212093">
        <ele>21.286376953125</ele>
        <time>2011-04-16T09:23:45Z</time>
      </trkpt>
      <trkpt lat="35.738164130598307" lon="-5.353089887648821">
        <ele>18.883056640625</ele>
        <time>2011-04-16T09:23:54Z</time>
      </trkpt>
      <trkpt lat="35.735653499141335" lon="-5.353100365027785">
        <ele>16.479736328125</ele>
        <time>2011-04-16T09:24:04Z</time>
      </trkpt>
      <trkpt lat="35.732104852795601" lon="-5.353105645626783">
        <ele>19.8443603515625</ele>
        <time>2011-04-16T09:24:18Z</time>
      </trkpt>
      <trkpt lat="35.72850557975471" lon="-5.353106986731291">
        <ele>22.728271484375</ele>
        <time>2011-04-16T09:24:32Z</time>
      </trkpt>
      <trkpt lat="35.72445192374289" lon="-5.353115871548653">
        <ele>16.479736328125</ele>
        <time>2011-04-16T09:24:47Z</time>
      </trkpt>
      <trkpt lat="35.721064377576113" lon="-5.353130539879203">
        <ele>10.231201171875</ele>
        <time>2011-04-16T09:24:59Z</time>
      </trkpt>
      <trkpt lat="35.718361046165228" lon="-5.353702437132597">
        <ele>4.94384765625</ele>
        <time>2011-04-16T09:25:09Z</time>
      </trkpt>
      <trkpt lat="35.715812528505921" lon="-5.354459993541241">
        <ele>-0.3433837890625</ele>
        <time>2011-04-16T09:25:19Z</time>
      </trkpt>
      <trkpt lat="35.713310446590185" lon="-5.355355348438025">
        <ele>-4.1885986328125</ele>
        <time>2011-04-16T09:25:29Z</time>
      </trkpt>
      <trkpt lat="35.711615290492773" lon="-5.355712082237005">
        <ele>-3.7078857421875</ele>
        <time>2011-04-16T09:25:36Z</time>
      </trkpt>
      <trkpt lat="35.709433481097221" lon="-5.355844935402274">
        <ele>-2.2659912109375</ele>
        <time>2011-04-16T09:25:45Z</time>
      </trkpt>
      <trkpt lat="35.707209929823875" lon="-5.355609655380249">
        <ele>-2.2659912109375</ele>
        <time>2011-04-16T09:25:54Z</time>
      </trkpt>
      <trkpt lat="35.704958131536841" lon="-5.355033818632364">
        <ele>-3.227294921875</ele>
        <time>2011-04-16T09:26:03Z</time>
      </trkpt>
      <trkpt lat="35.702992659062147" lon="-5.354049364104867">
        <ele>-2.7467041015625</ele>
        <time>2011-04-16T09:26:12Z</time>
      </trkpt>
      <trkpt lat="35.70103875361383" lon="-5.352777326479554">
        <ele>-0.3433837890625</ele>
        <time>2011-04-16T09:26:21Z</time>
      </trkpt>
      <trkpt lat="35.698603224009275" lon="-5.351234637200832">
        <ele>4.4632568359375</ele>
        <time>2011-04-16T09:26:32Z</time>
      </trkpt>
      <trkpt lat="35.696703633293509" lon="-5.350473644211888">
        <ele>7.34716796875</ele>
        <time>2011-04-16T09:26:40Z</time>
      </trkpt>
      <trkpt lat="35.693953279405832" lon="-5.349920019507408">
        <ele>11.1925048828125</ele>
        <time>2011-04-16T09:26:51Z</time>
      </trkpt>
      <trkpt lat="35.689707510173321" lon="-5.348867839202285">
        <ele>25.1317138671875</ele>
        <time>2011-04-16T09:27:08Z</time>
      </trkpt>
      <trkpt lat="35.686716344207525" lon="-5.348406583070755">
        <ele>40.0321044921875</ele>
        <time>2011-04-16T09:27:20Z</time>
      </trkpt>
      <trkpt lat="35.683805644512177" lon="-5.348178092390299">
        <ele>57.8165283203125</ele>
        <time>2011-04-16T09:27:32Z</time>
      </trkpt>
      <trkpt lat="35.681715616956353" lon="-5.347775593400002">
        <ele>72.2362060546875</ele>
        <time>2011-04-16T09:27:41Z</time>
      </trkpt>
      <trkpt lat="35.679901270195842" lon="-5.347140999510884">
        <ele>81.3687744140625</ele>
        <time>2011-04-16T09:27:49Z</time>
      </trkpt>
      <trkpt lat="35.677587864920497" lon="-5.346050094813108">
        <ele>88.0980224609375</ele>
        <time>2011-04-16T09:27:59Z</time>
      </trkpt>
      <trkpt lat="35.67575566470623" lon="-5.345455566421151">
        <ele>89.059326171875</ele>
        <time>2011-04-16T09:28:06Z</time>
      </trkpt>
      <trkpt lat="35.674037123098969" lon="-5.345450956374407">
        <ele>87.1365966796875</ele>
        <time>2011-04-16T09:28:12Z</time>
      </trkpt>
      <trkpt lat="35.672254040837288" lon="-5.345781873911619">
        <ele>81.3687744140625</ele>
        <time>2011-04-16T09:28:18Z</time>
      </trkpt>
      <trkpt lat="35.669579794630408" lon="-5.346179511398077">
        <ele>68.87158203125</ele>
        <time>2011-04-16T09:28:27Z</time>
      </trkpt>
      <trkpt lat="35.668118074536324" lon="-5.346481762826443">
        <ele>61.1810302734375</ele>
        <time>2011-04-16T09:28:33Z</time>
      </trkpt>
      <trkpt lat="35.665384568274021" lon="-5.346925249323249">
        <ele>49.645263671875</ele>
        <time>2011-04-16T09:28:45Z</time>
      </trkpt>
      <trkpt lat="35.66374758258462" lon="-5.346840424463153">
        <ele>42.4354248046875</ele>
        <time>2011-04-16T09:28:52Z</time>
      </trkpt>
      <trkpt lat="35.662341266870499" lon="-5.346447397023439">
        <ele>36.186767578125</ele>
        <time>2011-04-16T09:28:58Z</time>
      </trkpt>
      <trkpt lat="35.661083478480577" lon="-5.345708951354027">
        <ele>30.4188232421875</ele>
        <time>2011-04-16T09:29:04Z</time>
      </trkpt>
      <trkpt lat="35.660007745027542" lon="-5.344733716920018">
        <ele>26.5736083984375</ele>
        <time>2011-04-16T09:29:10Z</time>
      </trkpt>
      <trkpt lat="35.659015830606222" lon="-5.343187842518091">
        <ele>23.208984375</ele>
        <time>2011-04-16T09:29:17Z</time>
      </trkpt>
      <trkpt lat="35.65826665610075" lon="-5.341478521004319">
        <ele>21.7669677734375</ele>
        <time>2011-04-16T09:29:24Z</time>
      </trkpt>
      <trkpt lat="35.657639605924487" lon="-5.339136533439159">
        <ele>19.8443603515625</ele>
        <time>2011-04-16T09:29:33Z</time>
      </trkpt>
      <trkpt lat="35.656642327085137" lon="-5.335749154910445">
        <ele>17.9217529296875</ele>
        <time>2011-04-16T09:29:46Z</time>
      </trkpt>
      <trkpt lat="35.655669523403049" lon="-5.333791142329574">
        <ele>15.5184326171875</ele>
        <time>2011-04-16T09:29:54Z</time>
      </trkpt>
      <trkpt lat="35.654550539329648" lon="-5.332171255722642">
        <ele>12.6343994140625</ele>
        <time>2011-04-16T09:30:01Z</time>
      </trkpt>
      <trkpt lat="35.652972813695669" lon="-5.33060266636312">
        <ele>8.30859375</ele>
        <time>2011-04-16T09:30:09Z</time>
      </trkpt>
      <trkpt lat="35.651407241821289" lon="-5.329549312591553">
        <ele>4.94384765625</ele>
        <time>2011-04-16T09:30:16Z</time>
      </trkpt>
      <trkpt lat="35.64972935244441" lon="-5.328763509169221">
        <ele>3.982666015625</ele>
        <time>2011-04-16T09:30:23Z</time>
      </trkpt>
      <trkpt lat="35.647999830543995" lon="-5.328342234715819">
        <ele>4.94384765625</ele>
        <time>2011-04-16T09:30:30Z</time>
      </trkpt>
      <trkpt lat="35.6460240483284" lon="-5.328343492001295">
        <ele>5.9052734375</ele>
        <time>2011-04-16T09:30:38Z</time>
      </trkpt>
      <trkpt lat="35.644047679379582" lon="-5.328729394823313">
        <ele>4.94384765625</ele>
        <time>2011-04-16T09:30:46Z</time>
      </trkpt>
      <trkpt lat="35.640468439087272" lon="-5.329731116071343">
        <ele>3.982666015625</ele>
        <time>2011-04-16T09:31:00Z</time>
      </trkpt>
      <trkpt lat="35.637673577293754" lon="-5.330504095181823">
        <ele>2.5406494140625</ele>
        <time>2011-04-16T09:31:11Z</time>
      </trkpt>
      <trkpt lat="35.633792337030172" lon="-5.331483101472259">
        <ele>4.94384765625</ele>
        <time>2011-04-16T09:31:26Z</time>
      </trkpt>
      <trkpt lat="35.631011640653014" lon="-5.331830028444529">
        <ele>11.6732177734375</ele>
        <time>2011-04-16T09:31:37Z</time>
      </trkpt>
      <trkpt lat="35.627880329266191" lon="-5.332206375896931">
        <ele>22.728271484375</ele>
        <time>2011-04-16T09:31:50Z</time>
      </trkpt>
      <trkpt lat="35.625547645613551" lon="-5.332842394709587">
        <ele>28.9769287109375</ele>
        <time>2011-04-16T09:32:00Z</time>
      </trkpt>
      <trkpt lat="35.623452421277761" lon="-5.333843780681491">
        <ele>28.0155029296875</ele>
        <time>2011-04-16T09:32:09Z</time>
      </trkpt>
      <trkpt lat="35.621187379583716" lon="-5.335318995639682">
        <ele>20.8056640625</ele>
        <time>2011-04-16T09:32:19Z</time>
      </trkpt>
      <trkpt lat="35.618523778393865" lon="-5.337064862251282">
        <ele>17.441162109375</ele>
        <time>2011-04-16T09:32:31Z</time>
      </trkpt>
      <trkpt lat="35.61688176356256" lon="-5.337962228804827">
        <ele>19.8443603515625</ele>
        <time>2011-04-16T09:32:39Z</time>
      </trkpt>
      <trkpt lat="35.615321053192019" lon="-5.338349808007479">
        <ele>22.728271484375</ele>
        <time>2011-04-16T09:32:46Z</time>
      </trkpt>
      <trkpt lat="35.613737124949694" lon="-5.33842951990664">
        <ele>24.1702880859375</ele>
        <time>2011-04-16T09:32:53Z</time>
      </trkpt>
      <trkpt lat="35.611908361315727" lon="-5.338185271248221">
        <ele>22.728271484375</ele>
        <time>2011-04-16T09:33:01Z</time>
      </trkpt>
      <trkpt lat="35.609072931110859" lon="-5.337753519415855">
        <ele>18.883056640625</ele>
        <time>2011-04-16T09:33:13Z</time>
      </trkpt>
      <trkpt lat="35.606618206948042" lon="-5.337807750329375">
        <ele>17.441162109375</ele>
        <time>2011-04-16T09:33:23Z</time>
      </trkpt>
      <trkpt lat="35.604365570470691" lon="-5.33819449134171">
        <ele>19.36376953125</ele>
        <time>2011-04-16T09:33:32Z</time>
      </trkpt>
      <trkpt lat="35.602011261507869" lon="-5.338889854028821">
        <ele>19.8443603515625</ele>
        <time>2011-04-16T09:33:42Z</time>
      </trkpt>
      <trkpt lat="35.600615506991744" lon="-5.339162349700928">
        <ele>17.9217529296875</ele>
        <time>2011-04-16T09:33:48Z</time>
      </trkpt>
      <trkpt lat="35.599497025832534" lon="-5.338999656960368">
        <ele>15.0377197265625</ele>
        <time>2011-04-16T09:33:53Z</time>
      </trkpt>
      <trkpt lat="35.597403142601252" lon="-5.338129447773099">
        <ele>9.2698974609375</ele>
        <time>2011-04-16T09:34:03Z</time>
      </trkpt>
      <trkpt lat="35.594988064840436" lon="-5.33724557608366">
        <ele>8.7891845703125</ele>
        <time>2011-04-16T09:34:15Z</time>
      </trkpt>
      <trkpt lat="35.593861788511276" lon="-5.336845424026251">
        <ele>11.6732177734375</ele>
        <time>2011-04-16T09:34:22Z</time>
      </trkpt>
      <trkpt lat="35.592549266293645" lon="-5.336359022185206">
        <ele>15.0377197265625</ele>
        <time>2011-04-16T09:34:32Z</time>
      </trkpt>
      <trkpt lat="35.591841163113713" lon="-5.336008239537478">
        <ele>14.076416015625</ele>
        <time>2011-04-16T09:34:40Z</time>
      </trkpt>
      <trkpt lat="35.591517621651292" lon="-5.335855772718787">
        <ele>14.5570068359375</ele>
        <time>2011-04-16T09:34:47Z</time>
      </trkpt>
      <trkpt lat="35.590791329741478" lon="-5.335483280941844">
        <ele>12.6343994140625</ele>
        <time>2011-04-16T09:34:55Z</time>
      </trkpt>
      <trkpt lat="35.589434970170259" lon="-5.334814069792628">
        <ele>7.34716796875</ele>
        <time>2011-04-16T09:35:06Z</time>
      </trkpt>
      <trkpt lat="35.588017338886857" lon="-5.334116192534566">
        <ele>5.424560546875</ele>
        <time>2011-04-16T09:35:17Z</time>
      </trkpt>
      <trkpt lat="35.587083678692579" lon="-5.33363364636898">
        <ele>4.4632568359375</ele>
        <time>2011-04-16T09:35:25Z</time>
      </trkpt>
      <trkpt lat="35.585490949451923" lon="-5.332815991714597">
        <ele>3.501953125</ele>
        <time>2011-04-16T09:35:37Z</time>
      </trkpt>
      <trkpt lat="35.584747642278671" lon="-5.332424892112613">
        <ele>3.501953125</ele>
        <time>2011-04-16T09:35:44Z</time>
      </trkpt>
      <trkpt lat="35.584373893216252" lon="-5.332232275977731">
        <ele>3.501953125</ele>
        <time>2011-04-16T09:35:50Z</time>
      </trkpt>
      <trkpt lat="35.584250763058662" lon="-5.332164969295263">
        <ele>3.501953125</ele>
        <time>2011-04-16T09:35:58Z</time>
      </trkpt>
      <trkpt lat="35.584013471379876" lon="-5.332498904317617">
        <ele>2.06005859375</ele>
        <time>2011-04-16T09:36:04Z</time>
      </trkpt>
      <trkpt lat="35.583877433091402" lon="-5.331953829154372">
        <ele>1.579345703125</ele>
        <time>2011-04-16T09:36:12Z</time>
      </trkpt>
      <trkpt lat="35.58372974395752" lon="-5.331888198852539">
        <ele>-1.3046875</ele>
        <time>2011-04-16T09:36:26Z</time>
      </trkpt>
      <trkpt lat="35.583425480872393" lon="-5.331876631826162">
        <ele>-1.7852783203125</ele>
        <time>2011-04-16T09:36:30Z</time>
      </trkpt>
      <trkpt lat="35.583264715969563" lon="-5.331660378724337">
        <ele>-1.7852783203125</ele>
        <time>2011-04-16T09:36:33Z</time>
      </trkpt>
      <trkpt lat="35.582645125687122" lon="-5.331336921080947">
        <ele>-3.227294921875</ele>
        <time>2011-04-16T09:36:40Z</time>
      </trkpt>
      <trkpt lat="35.581455230712891" lon="-5.330963842570782">
        <ele>-3.227294921875</ele>
        <time>2011-04-16T09:36:49Z</time>
      </trkpt>
      <trkpt lat="35.580400535836816" lon="-5.330956801772118">
        <ele>-3.227294921875</ele>
        <time>2011-04-16T09:36:56Z</time>
      </trkpt>
      <trkpt lat="35.579478023573756" lon="-5.331201637163758">
        <ele>-3.227294921875</ele>
        <time>2011-04-16T09:37:03Z</time>
      </trkpt>
      <trkpt lat="35.57842324487865" lon="-5.331834051758051">
        <ele>-3.7078857421875</ele>
        <time>2011-04-16T09:37:11Z</time>
      </trkpt>
      <trkpt lat="35.577715141698718" lon="-5.332567887380719">
        <ele>-4.1885986328125</ele>
        <time>2011-04-16T09:37:17Z</time>
      </trkpt>
      <trkpt lat="35.577052133157849" lon="-5.333559382706881">
        <ele>-4.6693115234375</ele>
        <time>2011-04-16T09:37:25Z</time>
      </trkpt>
      <trkpt lat="35.576551565900445" lon="-5.334700327366591">
        <ele>-3.7078857421875</ele>
        <time>2011-04-16T09:37:34Z</time>
      </trkpt>
      <trkpt lat="35.57598989456892" lon="-5.336039252579212">
        <ele>-3.227294921875</ele>
        <time>2011-04-16T09:37:42Z</time>
      </trkpt>
      <trkpt lat="35.575256058946252" lon="-5.337722925469279">
        <ele>-1.7852783203125</ele>
        <time>2011-04-16T09:37:50Z</time>
      </trkpt>
      <trkpt lat="35.574111761525273" lon="-5.340428268536925">
        <ele>-1.3046875</ele>
        <time>2011-04-16T09:38:03Z</time>
      </trkpt>
      <trkpt lat="35.573743628337979" lon="-5.34199601970613">
        <ele>-0.3433837890625</ele>
        <time>2011-04-16T09:38:10Z</time>
      </trkpt>
      <trkpt lat="35.573546150699258" lon="-5.344075402244926">
        <ele>0.137451171875</ele>
        <time>2011-04-16T09:38:19Z</time>
      </trkpt>
      <trkpt lat="35.573320090770721" lon="-5.34558892250061">
        <ele>2.06005859375</ele>
        <time>2011-04-16T09:38:26Z</time>
      </trkpt>
      <trkpt lat="35.57281038723886" lon="-5.346805304288864">
        <ele>2.06005859375</ele>
        <time>2011-04-16T09:38:32Z</time>
      </trkpt>
      <trkpt lat="35.572013687342405" lon="-5.347910709679127">
        <ele>1.0986328125</ele>
        <time>2011-04-16T09:38:38Z</time>
      </trkpt>
      <trkpt lat="35.570922447368503" lon="-5.349225327372551">
        <ele>0.137451171875</ele>
        <time>2011-04-16T09:38:46Z</time>
      </trkpt>
      <trkpt lat="35.569762475788593" lon="-5.350139625370503">
        <ele>0.6180419921875</ele>
        <time>2011-04-16T09:38:54Z</time>
      </trkpt>
      <trkpt lat="35.568125993013382" lon="-5.351420296356082">
        <ele>3.021240234375</ele>
        <time>2011-04-16T09:39:06Z</time>
      </trkpt>
      <trkpt lat="35.566624877974391" lon="-5.352527461946011">
        <ele>4.94384765625</ele>
        <time>2011-04-16T09:39:17Z</time>
      </trkpt>
      <trkpt lat="35.565413776785135" lon="-5.353426253423095">
        <ele>5.9052734375</ele>
        <time>2011-04-16T09:39:27Z</time>
      </trkpt>
      <trkpt lat="35.565046314150095" lon="-5.353721212595701">
        <ele>6.3858642578125</ele>
        <time>2011-04-16T09:39:32Z</time>
      </trkpt>
      <trkpt lat="35.564954280853271" lon="-5.353796482086182">
        <ele>5.424560546875</ele>
        <time>2011-04-16T09:39:36Z</time>
      </trkpt>
      <trkpt lat="35.564873060211539" lon="-5.354140559211373">
        <ele>3.501953125</ele>
        <time>2011-04-16T09:39:41Z</time>
      </trkpt>
      <trkpt lat="35.564899044111371" lon="-5.354387070983648">
        <ele>0.137451171875</ele>
        <time>2011-04-16T09:39:48Z</time>
      </trkpt>
      <trkpt lat="35.564922261983156" lon="-5.354602737352252">
        <ele>6.3858642578125</ele>
        <time>2011-04-16T09:45:05Z</time>
      </trkpt>
      <trkpt lat="35.56498060002923" lon="-5.35510984249413">
        <ele>3.021240234375</ele>
        <time>2011-04-16T09:45:16Z</time>
      </trkpt>
      <trkpt lat="35.565001806244254" lon="-5.355286449193955">
        <ele>3.501953125</ele>
        <time>2011-04-16T09:45:23Z</time>
      </trkpt>
      <trkpt lat="35.565017815679312" lon="-5.355420308187604">
        <ele>11.6732177734375</ele>
        <time>2011-04-16T09:45:39Z</time>
      </trkpt>
      <trkpt lat="35.565072214230895" lon="-5.35574845969677">
        <ele>32.822265625</ele>
        <time>2011-04-16T09:48:59Z</time>
      </trkpt>
      <trkpt lat="35.565149579197168" lon="-5.356122124940157">
        <ele>23.208984375</ele>
        <time>2011-04-16T09:49:08Z</time>
      </trkpt>
      <trkpt lat="35.565184950828552" lon="-5.356256738305092">
        <ele>8.30859375</ele>
        <time>2011-04-16T09:51:35Z</time>
      </trkpt>
      <trkpt lat="35.565026113763452" lon="-5.355472108349204">
        <ele>8.30859375</ele>
        <time>2011-04-16T09:51:48Z</time>
      </trkpt>
      <trkpt lat="35.564909102395177" lon="-5.354482959955931">
        <ele>6.3858642578125</ele>
        <time>2011-04-16T09:51:57Z</time>
      </trkpt>
      <trkpt lat="35.564876077696681" lon="-5.35416922532022">
        <ele>7.827880859375</ele>
        <time>2011-04-16T09:52:03Z</time>
      </trkpt>
      <trkpt lat="35.56468840688467" lon="-5.354052213951945">
        <ele>9.2698974609375</ele>
        <time>2011-04-16T09:52:09Z</time>
      </trkpt>
      <trkpt lat="35.564700057730079" lon="-5.353728840127587">
        <ele>9.2698974609375</ele>
        <time>2011-04-16T09:52:15Z</time>
      </trkpt>
      <trkpt lat="35.565033322200179" lon="-5.353731941431761">
        <ele>7.827880859375</ele>
        <time>2011-04-16T09:52:21Z</time>
      </trkpt>
      <trkpt lat="35.565040111541748" lon="-5.35334587097168">
        <ele>8.30859375</ele>
        <time>2011-04-16T09:52:25Z</time>
      </trkpt>
      <trkpt lat="35.565204564481974" lon="-5.353197595104575">
        <ele>-20.0504150390625</ele>
        <time>2011-04-16T09:58:54Z</time>
      </trkpt>
      <trkpt lat="35.565640004351735" lon="-5.353269008919597">
        <ele>-6.5919189453125</ele>
        <time>2011-04-16T09:59:30Z</time>
      </trkpt>
      <trkpt lat="35.566207459196448" lon="-5.352845806628466">
        <ele>-5.14990234375</ele>
        <time>2011-04-16T09:59:38Z</time>
      </trkpt>
      <trkpt lat="35.567558035254478" lon="-5.351837128400803">
        <ele>-2.7467041015625</ele>
        <time>2011-04-16T09:59:52Z</time>
      </trkpt>
      <trkpt lat="35.568004036322236" lon="-5.351514173671603">
        <ele>-2.2659912109375</ele>
        <time>2011-04-16T09:59:57Z</time>
      </trkpt>
      <trkpt lat="35.567967742681503" lon="-5.351092731580138">
        <ele>-2.7467041015625</ele>
        <time>2011-04-16T10:00:02Z</time>
      </trkpt>
      <trkpt lat="35.568034127354622" lon="-5.351491710171104">
        <ele>-2.7467041015625</ele>
        <time>2011-04-16T10:00:05Z</time>
      </trkpt>
      <trkpt lat="35.566980773583055" lon="-5.351017378270626">
        <ele>-1.7852783203125</ele>
        <time>2011-04-16T10:00:14Z</time>
      </trkpt>
      <trkpt lat="35.566223552450538" lon="-5.350790899246931">
        <ele>-1.3046875</ele>
        <time>2011-04-16T10:00:22Z</time>
      </trkpt>
      <trkpt lat="35.565337585285306" lon="-5.350497616454959">
        <ele>0.137451171875</ele>
        <time>2011-04-16T10:00:33Z</time>
      </trkpt>
      <trkpt lat="35.564852440729737" lon="-5.350511698052287">
        <ele>1.0986328125</ele>
        <time>2011-04-16T10:00:42Z</time>
      </trkpt>
      <trkpt lat="35.564753450453281" lon="-5.350509770214558">
        <ele>3.982666015625</ele>
        <time>2011-04-16T10:00:57Z</time>
      </trkpt>
      <trkpt lat="35.564687736332417" lon="-5.350348418578506">
        <ele>3.501953125</ele>
        <time>2011-04-16T10:01:03Z</time>
      </trkpt>
      <trkpt lat="35.564706679433584" lon="-5.350093021988869">
        <ele>2.5406494140625</ele>
        <time>2011-04-16T10:01:11Z</time>
      </trkpt>
      <trkpt lat="35.564715396612883" lon="-5.349902166053653">
        <ele>2.5406494140625</ele>
        <time>2011-04-16T10:01:20Z</time>
      </trkpt>
      <trkpt lat="35.564727718010545" lon="-5.349605781957507">
        <ele>2.06005859375</ele>
        <time>2011-04-16T10:01:30Z</time>
      </trkpt>
      <trkpt lat="35.56470206938684" lon="-5.349346613511443">
        <ele>2.5406494140625</ele>
        <time>2011-04-16T10:01:44Z</time>
      </trkpt>
      <trkpt lat="35.564727885648608" lon="-5.348758287727833">
        <ele>2.5406494140625</ele>
        <time>2011-04-16T10:01:52Z</time>
      </trkpt>
      <trkpt lat="35.564760742709041" lon="-5.348012465983629">
        <ele>3.501953125</ele>
        <time>2011-04-16T10:02:03Z</time>
      </trkpt>
      <trkpt lat="35.564838526770473" lon="-5.347287012264133">
        <ele>5.424560546875</ele>
        <time>2011-04-16T10:02:15Z</time>
      </trkpt>
      <trkpt lat="35.564916143193841" lon="-5.346568850800395">
        <ele>3.021240234375</ele>
        <time>2011-04-16T10:02:26Z</time>
      </trkpt>
      <trkpt lat="35.564942043274641" lon="-5.346329798921943">
        <ele>3.501953125</ele>
        <time>2011-04-16T10:02:30Z</time>
      </trkpt>
      <trkpt lat="35.565024688839912" lon="-5.345601495355368">
        <ele>2.5406494140625</ele>
        <time>2011-04-16T10:02:38Z</time>
      </trkpt>
      <trkpt lat="35.565360886976123" lon="-5.34450656734407">
        <ele>2.06005859375</ele>
        <time>2011-04-16T10:02:48Z</time>
      </trkpt>
      <trkpt lat="35.56571451947093" lon="-5.343354642391205">
        <ele>1.0986328125</ele>
        <time>2011-04-16T10:02:58Z</time>
      </trkpt>
      <trkpt lat="35.566065637394786" lon="-5.342175643891096">
        <ele>1.0986328125</ele>
        <time>2011-04-16T10:03:07Z</time>
      </trkpt>
      <trkpt lat="35.566545836627483" lon="-5.340554164722562">
        <ele>1.0986328125</ele>
        <time>2011-04-16T10:03:18Z</time>
      </trkpt>
      <trkpt lat="35.567043134942651" lon="-5.338875185698271">
        <ele>1.0986328125</ele>
        <time>2011-04-16T10:03:28Z</time>
      </trkpt>
      <trkpt lat="35.567516712471843" lon="-5.337276002392173">
        <ele>1.0986328125</ele>
        <time>2011-04-16T10:03:38Z</time>
      </trkpt>
      <trkpt lat="35.567776300013065" lon="-5.336456755176187">
        <ele>1.0986328125</ele>
        <time>2011-04-16T10:03:45Z</time>
      </trkpt>
      <trkpt lat="35.56803890503943" lon="-5.335652427747846">
        <ele>0.6180419921875</ele>
        <time>2011-04-16T10:03:52Z</time>
      </trkpt>
      <trkpt lat="35.568515080958605" lon="-5.334193892776966">
        <ele>1.0986328125</ele>
        <time>2011-04-16T10:04:02Z</time>
      </trkpt>
      <trkpt lat="35.569182699546218" lon="-5.332148876041174">
        <ele>1.579345703125</ele>
        <time>2011-04-16T10:04:14Z</time>
      </trkpt>
      <trkpt lat="35.569454189389944" lon="-5.331317223608494">
        <ele>1.579345703125</ele>
        <time>2011-04-16T10:04:20Z</time>
      </trkpt>
      <trkpt lat="35.569538343697786" lon="-5.331059396266937">
        <ele>1.579345703125</ele>
        <time>2011-04-16T10:04:25Z</time>
      </trkpt>
      <trkpt lat="35.569707490503788" lon="-5.330546088516712">
        <ele>2.06005859375</ele>
        <time>2011-04-16T10:04:31Z</time>
      </trkpt>
      <trkpt lat="35.570137314498425" lon="-5.329256532713771">
        <ele>2.06005859375</ele>
        <time>2011-04-16T10:04:42Z</time>
      </trkpt>
      <trkpt lat="35.570346107706428" lon="-5.328630320727825">
        <ele>2.06005859375</ele>
        <time>2011-04-16T10:04:48Z</time>
      </trkpt>
      <trkpt lat="35.57049572467804" lon="-5.328181302174926">
        <ele>1.579345703125</ele>
        <time>2011-04-16T10:04:55Z</time>
      </trkpt>
      <trkpt lat="35.57088565081358" lon="-5.327010098844767">
        <ele>1.579345703125</ele>
        <time>2011-04-16T10:05:06Z</time>
      </trkpt>
      <trkpt lat="35.571235176175833" lon="-5.325955152511597">
        <ele>2.06005859375</ele>
        <time>2011-04-16T10:05:14Z</time>
      </trkpt>
      <trkpt lat="35.571328299120069" lon="-5.325673939660192">
        <ele>2.06005859375</ele>
        <time>2011-04-16T10:05:19Z</time>
      </trkpt>
      <trkpt lat="35.571493422612548" lon="-5.32517546787858">
        <ele>2.06005859375</ele>
        <time>2011-04-16T10:05:27Z</time>
      </trkpt>
      <trkpt lat="35.57173490524292" lon="-5.32444640994072">
        <ele>2.06005859375</ele>
        <time>2011-04-16T10:05:38Z</time>
      </trkpt>
      <trkpt lat="35.571927018463612" lon="-5.323866549879313">
        <ele>2.06005859375</ele>
        <time>2011-04-16T10:05:51Z</time>
      </trkpt>
      <trkpt lat="35.572054842486978" lon="-5.323426416143775">
        <ele>2.06005859375</ele>
        <time>2011-04-16T10:05:59Z</time>
      </trkpt>
      <trkpt lat="35.572199849411845" lon="-5.322914030402899">
        <ele>2.5406494140625</ele>
        <time>2011-04-16T10:06:10Z</time>
      </trkpt>
      <trkpt lat="35.572289368137717" lon="-5.322597613558173">
        <ele>3.021240234375</ele>
        <time>2011-04-16T10:06:19Z</time>
      </trkpt>
      <trkpt lat="35.572464466094971" lon="-5.321978945285082">
        <ele>3.501953125</ele>
        <time>2011-04-16T10:06:28Z</time>
      </trkpt>
      <trkpt lat="35.572538813576102" lon="-5.321716340258718">
        <ele>3.501953125</ele>
        <time>2011-04-16T10:06:35Z</time>
      </trkpt>
      <trkpt lat="35.572665128856897" lon="-5.321270171552897">
        <ele>3.501953125</ele>
        <time>2011-04-16T10:06:44Z</time>
      </trkpt>
      <trkpt lat="35.572838634252548" lon="-5.320656867697835">
        <ele>3.982666015625</ele>
        <time>2011-04-16T10:06:54Z</time>
      </trkpt>
      <trkpt lat="35.573132168501616" lon="-5.319741312414408">
        <ele>3.982666015625</ele>
        <time>2011-04-16T10:07:07Z</time>
      </trkpt>
      <trkpt lat="35.57336401194334" lon="-5.319052068516612">
        <ele>3.982666015625</ele>
        <time>2011-04-16T10:07:13Z</time>
      </trkpt>
      <trkpt lat="35.573786459863186" lon="-5.317796124145389">
        <ele>4.4632568359375</ele>
        <time>2011-04-16T10:07:21Z</time>
      </trkpt>
      <trkpt lat="35.574725400656462" lon="-5.315004363656044">
        <ele>3.982666015625</ele>
        <time>2011-04-16T10:07:38Z</time>
      </trkpt>
      <trkpt lat="35.575211886316538" lon="-5.313558066263795">
        <ele>3.982666015625</ele>
        <time>2011-04-16T10:07:46Z</time>
      </trkpt>
      <trkpt lat="35.575888641178608" lon="-5.311441635712981">
        <ele>3.982666015625</ele>
        <time>2011-04-16T10:07:58Z</time>
      </trkpt>
      <trkpt lat="35.576112186536193" lon="-5.310736382380128">
        <ele>3.982666015625</ele>
        <time>2011-04-16T10:08:04Z</time>
      </trkpt>
      <trkpt lat="35.576494317501783" lon="-5.309530310332775">
        <ele>3.982666015625</ele>
        <time>2011-04-16T10:08:14Z</time>
      </trkpt>
      <trkpt lat="35.577028580009937" lon="-5.307844458147883">
        <ele>3.501953125</ele>
        <time>2011-04-16T10:08:26Z</time>
      </trkpt>
      <trkpt lat="35.577537277713418" lon="-5.30623915605247">
        <ele>3.021240234375</ele>
        <time>2011-04-16T10:08:38Z</time>
      </trkpt>
      <trkpt lat="35.577938938513398" lon="-5.304967453703284">
        <ele>3.021240234375</ele>
        <time>2011-04-16T10:08:47Z</time>
      </trkpt>
      <trkpt lat="35.578303299844265" lon="-5.3032829426229">
        <ele>3.501953125</ele>
        <time>2011-04-16T10:08:58Z</time>
      </trkpt>
      <trkpt lat="35.578605802729726" lon="-5.301884589716792">
        <ele>3.501953125</ele>
        <time>2011-04-16T10:09:08Z</time>
      </trkpt>
      <trkpt lat="35.578817278146744" lon="-5.300907008349896">
        <ele>3.982666015625</ele>
        <time>2011-04-16T10:09:16Z</time>
      </trkpt>
      <trkpt lat="35.579064795747399" lon="-5.299762710928917">
        <ele>4.4632568359375</ele>
        <time>2011-04-16T10:09:25Z</time>
      </trkpt>
      <trkpt lat="35.579261770471931" lon="-5.2986756619066">
        <ele>4.94384765625</ele>
        <time>2011-04-16T10:09:35Z</time>
      </trkpt>
      <trkpt lat="35.579354055225849" lon="-5.297272698953748">
        <ele>6.3858642578125</ele>
        <time>2011-04-16T10:09:45Z</time>
      </trkpt>
      <trkpt lat="35.579463858157396" lon="-5.295603945851326">
        <ele>7.34716796875</ele>
        <time>2011-04-16T10:09:55Z</time>
      </trkpt>
      <trkpt lat="35.579566285014153" lon="-5.294046755880117">
        <ele>11.1925048828125</ele>
        <time>2011-04-16T10:10:05Z</time>
      </trkpt>
      <trkpt lat="35.579748172312975" lon="-5.293530095368624">
        <ele>13.5958251953125</ele>
        <time>2011-04-16T10:10:11Z</time>
      </trkpt>
      <trkpt lat="35.580006837844849" lon="-5.292806904762983">
        <ele>15.5184326171875</ele>
        <time>2011-04-16T10:10:21Z</time>
      </trkpt>
      <trkpt lat="35.580192161723971" lon="-5.292288567870855">
        <ele>16.479736328125</ele>
        <time>2011-04-16T10:10:31Z</time>
      </trkpt>
      <trkpt lat="35.580380251631141" lon="-5.291762687265873">
        <ele>17.441162109375</ele>
        <time>2011-04-16T10:10:41Z</time>
      </trkpt>
      <trkpt lat="35.580579154193401" lon="-5.29120646417141">
        <ele>15.9990234375</ele>
        <time>2011-04-16T10:10:49Z</time>
      </trkpt>
      <trkpt lat="35.58074033819139" lon="-5.290511855855584">
        <ele>14.076416015625</ele>
        <time>2011-04-16T10:10:56Z</time>
      </trkpt>
      <trkpt lat="35.580795742571354" lon="-5.289441989734769">
        <ele>12.15380859375</ele>
        <time>2011-04-16T10:11:03Z</time>
      </trkpt>
      <trkpt lat="35.580818708986044" lon="-5.288998084142804">
        <ele>11.6732177734375</ele>
        <time>2011-04-16T10:11:06Z</time>
      </trkpt>
      <trkpt lat="35.580703038722277" lon="-5.287883961573243">
        <ele>11.1925048828125</ele>
        <time>2011-04-16T10:11:14Z</time>
      </trkpt>
      <trkpt lat="35.580249829217792" lon="-5.28661485761404">
        <ele>11.1925048828125</ele>
        <time>2011-04-16T10:11:24Z</time>
      </trkpt>
      <trkpt lat="35.58013834990561" lon="-5.285627469420433">
        <ele>12.15380859375</ele>
        <time>2011-04-16T10:11:31Z</time>
      </trkpt>
      <trkpt lat="35.580087807029486" lon="-5.285014417022467">
        <ele>12.6343994140625</ele>
        <time>2011-04-16T10:11:39Z</time>
      </trkpt>
      <trkpt lat="35.580068528652191" lon="-5.284779723733664">
        <ele>12.15380859375</ele>
        <time>2011-04-16T10:11:48Z</time>
      </trkpt>
      <trkpt lat="35.580049501731992" lon="-5.284549053758383">
        <ele>12.15380859375</ele>
        <time>2011-04-16T10:11:56Z</time>
      </trkpt>
      <trkpt lat="35.580030893906951" lon="-5.284323245286942">
        <ele>12.15380859375</ele>
        <time>2011-04-16T10:12:03Z</time>
      </trkpt>
      <trkpt lat="35.579980099573731" lon="-5.283706840127707">
        <ele>12.6343994140625</ele>
        <time>2011-04-16T10:12:11Z</time>
      </trkpt>
      <trkpt lat="35.579920588061213" lon="-5.282984739169478">
        <ele>13.5958251953125</ele>
        <time>2011-04-16T10:12:16Z</time>
      </trkpt>
      <trkpt lat="35.579458996653557" lon="-5.281441295519471">
        <ele>18.40234375</ele>
        <time>2011-04-16T10:12:26Z</time>
      </trkpt>
      <trkpt lat="35.579089187085629" lon="-5.280444351956248">
        <ele>21.7669677734375</ele>
        <time>2011-04-16T10:12:33Z</time>
      </trkpt>
      <trkpt lat="35.5788420047611" lon="-5.279669277369976">
        <ele>22.728271484375</ele>
        <time>2011-04-16T10:12:40Z</time>
      </trkpt>
      <trkpt lat="35.578645868226886" lon="-5.27878456749022">
        <ele>24.6510009765625</ele>
        <time>2011-04-16T10:12:46Z</time>
      </trkpt>
      <trkpt lat="35.578398853540421" lon="-5.277670612558723">
        <ele>27.534912109375</ele>
        <time>2011-04-16T10:12:53Z</time>
      </trkpt>
      <trkpt lat="35.578111270442605" lon="-5.276373345404863">
        <ele>29.9381103515625</ele>
        <time>2011-04-16T10:13:03Z</time>
      </trkpt>
      <trkpt lat="35.577811114490032" lon="-5.275354525074363">
        <ele>29.45751953125</ele>
        <time>2011-04-16T10:13:11Z</time>
      </trkpt>
      <trkpt lat="35.57702480815351" lon="-5.273915939033032">
        <ele>24.6510009765625</ele>
        <time>2011-04-16T10:13:23Z</time>
      </trkpt>
      <trkpt lat="35.576493311673403" lon="-5.272943554446101">
        <ele>20.8056640625</ele>
        <time>2011-04-16T10:13:30Z</time>
      </trkpt>
      <trkpt lat="35.57611889205873" lon="-5.272258585318923">
        <ele>19.8443603515625</ele>
        <time>2011-04-16T10:13:36Z</time>
      </trkpt>
      <trkpt lat="35.575665598735213" lon="-5.271363984793425">
        <ele>20.324951171875</ele>
        <time>2011-04-16T10:13:43Z</time>
      </trkpt>
      <trkpt lat="35.574939725920558" lon="-5.269912239164114">
        <ele>24.6510009765625</ele>
        <time>2011-04-16T10:13:54Z</time>
      </trkpt>
      <trkpt lat="35.574461705982685" lon="-5.268956115469337">
        <ele>26.5736083984375</ele>
        <time>2011-04-16T10:14:02Z</time>
      </trkpt>
      <trkpt lat="35.573929622769356" lon="-5.267892116680741">
        <ele>24.6510009765625</ele>
        <time>2011-04-16T10:14:11Z</time>
      </trkpt>
      <trkpt lat="35.573562411591411" lon="-5.266911936923862">
        <ele>24.1702880859375</ele>
        <time>2011-04-16T10:14:19Z</time>
      </trkpt>
      <trkpt lat="35.573147339746356" lon="-5.265598660334945">
        <ele>25.1317138671875</ele>
        <time>2011-04-16T10:14:29Z</time>
      </trkpt>
      <trkpt lat="35.572987161576748" lon="-5.265091806650162">
        <ele>25.1317138671875</ele>
        <time>2011-04-16T10:14:35Z</time>
      </trkpt>
      <trkpt lat="35.57289688847959" lon="-5.264806235209107">
        <ele>25.1317138671875</ele>
        <time>2011-04-16T10:14:39Z</time>
      </trkpt>
      <trkpt lat="35.572827318683267" lon="-5.264585958793759">
        <ele>24.6510009765625</ele>
        <time>2011-04-16T10:14:42Z</time>
      </trkpt>
      <trkpt lat="35.572581142187119" lon="-5.26380711235106">
        <ele>23.6895751953125</ele>
        <time>2011-04-16T10:14:49Z</time>
      </trkpt>
      <trkpt lat="35.572222899645567" lon="-5.262871775776148">
        <ele>25.6123046875</ele>
        <time>2011-04-16T10:14:58Z</time>
      </trkpt>
      <trkpt lat="35.571535332128406" lon="-5.261903833597899">
        <ele>25.6123046875</ele>
        <time>2011-04-16T10:15:08Z</time>
      </trkpt>
      <trkpt lat="35.570933846756816" lon="-5.26105709373951">
        <ele>23.6895751953125</ele>
        <time>2011-04-16T10:15:17Z</time>
      </trkpt>
      <trkpt lat="35.570873497053981" lon="-5.26097210124135">
        <ele>23.208984375</ele>
        <time>2011-04-16T10:15:18Z</time>
      </trkpt>
      <trkpt lat="35.57057149708271" lon="-5.260547054931521">
        <ele>21.7669677734375</ele>
        <time>2011-04-16T10:15:24Z</time>
      </trkpt>
      <trkpt lat="35.57004670612514" lon="-5.259786648675799">
        <ele>19.8443603515625</ele>
        <time>2011-04-16T10:15:30Z</time>
      </trkpt>
      <trkpt lat="35.569273559376597" lon="-5.258487369865179">
        <ele>17.441162109375</ele>
        <time>2011-04-16T10:15:38Z</time>
      </trkpt>
      <trkpt lat="35.568874580785632" lon="-5.257816901430488">
        <ele>16.96044921875</ele>
        <time>2011-04-16T10:15:43Z</time>
      </trkpt>
      <trkpt lat="35.568745080381632" lon="-5.257599223405123">
        <ele>16.479736328125</ele>
        <time>2011-04-16T10:15:45Z</time>
      </trkpt>
      <trkpt lat="35.568503681570292" lon="-5.257174512371421">
        <ele>14.5570068359375</ele>
        <time>2011-04-16T10:15:52Z</time>
      </trkpt>
      <trkpt lat="35.568023063242435" lon="-5.256248563528061">
        <ele>12.6343994140625</ele>
        <time>2011-04-16T10:16:02Z</time>
      </trkpt>
      <trkpt lat="35.56751411408186" lon="-5.255267797037959">
        <ele>10.231201171875</ele>
        <time>2011-04-16T10:16:12Z</time>
      </trkpt>
      <trkpt lat="35.566979432478547" lon="-5.254237577319145">
        <ele>7.827880859375</ele>
        <time>2011-04-16T10:16:22Z</time>
      </trkpt>
      <trkpt lat="35.566643988713622" lon="-5.253554368391633">
        <ele>4.94384765625</ele>
        <time>2011-04-16T10:16:31Z</time>
      </trkpt>
      <trkpt lat="35.56633654050529" lon="-5.25289798155427">
        <ele>3.021240234375</ele>
        <time>2011-04-16T10:16:39Z</time>
      </trkpt>
      <trkpt lat="35.56610930711031" lon="-5.252412836998701">
        <ele>1.579345703125</ele>
        <time>2011-04-16T10:16:46Z</time>
      </trkpt>
      <trkpt lat="35.565898502245545" lon="-5.252061635255814">
        <ele>1.579345703125</ele>
        <time>2011-04-16T10:16:54Z</time>
      </trkpt>
      <trkpt lat="35.565744442865252" lon="-5.25185133330524">
        <ele>1.579345703125</ele>
        <time>2011-04-16T10:16:57Z</time>
      </trkpt>
      <trkpt lat="35.565090989693999" lon="-5.250959163531661">
        <ele>2.5406494140625</ele>
        <time>2011-04-16T10:17:05Z</time>
      </trkpt>
      <trkpt lat="35.56411231867969" lon="-5.250071855261922">
        <ele>3.982666015625</ele>
        <time>2011-04-16T10:17:14Z</time>
      </trkpt>
      <trkpt lat="35.563413435593247" lon="-5.249510183930397">
        <ele>3.982666015625</ele>
        <time>2011-04-16T10:17:22Z</time>
      </trkpt>
      <trkpt lat="35.56289367377758" lon="-5.249092597514391">
        <ele>1.0986328125</ele>
        <time>2011-04-16T10:17:29Z</time>
      </trkpt>
      <trkpt lat="35.562808010727167" lon="-5.249023698270321">
        <ele>0.6180419921875</ele>
        <time>2011-04-16T10:17:30Z</time>
      </trkpt>
      <trkpt lat="35.562280789017677" lon="-5.248676938936114">
        <ele>0.137451171875</ele>
        <time>2011-04-16T10:17:36Z</time>
      </trkpt>
      <trkpt lat="35.561107993125916" lon="-5.247434321790934">
        <ele>1.579345703125</ele>
        <time>2011-04-16T10:17:46Z</time>
      </trkpt>
      <trkpt lat="35.559492213651538" lon="-5.247283279895783">
        <ele>2.06005859375</ele>
        <time>2011-04-16T10:17:57Z</time>
      </trkpt>
      <trkpt lat="35.558564253151417" lon="-5.246746502816677">
        <ele>2.5406494140625</ele>
        <time>2011-04-16T10:18:05Z</time>
      </trkpt>
      <trkpt lat="35.557186184450984" lon="-5.246110903099179">
        <ele>3.982666015625</ele>
        <time>2011-04-16T10:18:15Z</time>
      </trkpt>
      <trkpt lat="35.556671032682061" lon="-5.245898924767971">
        <ele>3.982666015625</ele>
        <time>2011-04-16T10:18:20Z</time>
      </trkpt>
      <trkpt lat="35.555872740224004" lon="-5.245570605620742">
        <ele>3.982666015625</ele>
        <time>2011-04-16T10:18:27Z</time>
      </trkpt>
      <trkpt lat="35.554903708398342" lon="-5.245121419429779">
        <ele>3.501953125</ele>
        <time>2011-04-16T10:18:36Z</time>
      </trkpt>
      <trkpt lat="35.554051185026765" lon="-5.24457760155201">
        <ele>3.982666015625</ele>
        <time>2011-04-16T10:18:45Z</time>
      </trkpt>
      <trkpt lat="35.553339729085565" lon="-5.244231093674898">
        <ele>3.501953125</ele>
        <time>2011-04-16T10:18:54Z</time>
      </trkpt>
      <trkpt lat="35.552624333649874" lon="-5.243870420381427">
        <ele>3.501953125</ele>
        <time>2011-04-16T10:19:03Z</time>
      </trkpt>
      <trkpt lat="35.551811875775456" lon="-5.24331109598279">
        <ele>2.5406494140625</ele>
        <time>2011-04-16T10:19:12Z</time>
      </trkpt>
      <trkpt lat="35.550710158422589" lon="-5.242552617564797">
        <ele>3.021240234375</ele>
        <time>2011-04-16T10:19:23Z</time>
      </trkpt>
      <trkpt lat="35.549612045288086" lon="-5.241783997043967">
        <ele>5.424560546875</ele>
        <time>2011-04-16T10:19:32Z</time>
      </trkpt>
      <trkpt lat="35.548196006566286" lon="-5.240733493119478">
        <ele>12.15380859375</ele>
        <time>2011-04-16T10:19:44Z</time>
      </trkpt>
      <trkpt lat="35.547888390719891" lon="-5.240505253896117">
        <ele>12.15380859375</ele>
        <time>2011-04-16T10:19:49Z</time>
      </trkpt>
      <trkpt lat="35.547645902261138" lon="-5.240037459880114">
        <ele>12.15380859375</ele>
        <time>2011-04-16T10:19:57Z</time>
      </trkpt>
      <trkpt lat="35.547240553423762" lon="-5.239171944558621">
        <ele>10.7117919921875</ele>
        <time>2011-04-16T10:20:06Z</time>
      </trkpt>
      <trkpt lat="35.547064114362001" lon="-5.238598790019751">
        <ele>9.2698974609375</ele>
        <time>2011-04-16T10:20:11Z</time>
      </trkpt>
      <trkpt lat="35.547097725793719" lon="-5.2374910376966">
        <ele>8.7891845703125</ele>
        <time>2011-04-16T10:20:20Z</time>
      </trkpt>
      <trkpt lat="35.547107364982367" lon="-5.237173531204462">
        <ele>8.30859375</ele>
        <time>2011-04-16T10:20:23Z</time>
      </trkpt>
      <trkpt lat="35.547072160989046" lon="-5.236446652561426">
        <ele>8.7891845703125</ele>
        <time>2011-04-16T10:20:30Z</time>
      </trkpt>
      <trkpt lat="35.54683243855834" lon="-5.23544417694211">
        <ele>7.34716796875</ele>
        <time>2011-04-16T10:20:38Z</time>
      </trkpt>
      <trkpt lat="35.546572180464864" lon="-5.234369952231646">
        <ele>10.7117919921875</ele>
        <time>2011-04-16T10:20:47Z</time>
      </trkpt>
      <trkpt lat="35.546480230987072" lon="-5.234002154320478">
        <ele>13.1151123046875</ele>
        <time>2011-04-16T10:20:51Z</time>
      </trkpt>
      <trkpt lat="35.546316280961037" lon="-5.233346521854401">
        <ele>17.441162109375</ele>
        <time>2011-04-16T10:20:57Z</time>
      </trkpt>
      <trkpt lat="35.546395909041166" lon="-5.232710335403681">
        <ele>20.8056640625</ele>
        <time>2011-04-16T10:21:02Z</time>
      </trkpt>
      <trkpt lat="35.546467322856188" lon="-5.232604639604688">
        <ele>21.286376953125</ele>
        <time>2011-04-16T10:21:03Z</time>
      </trkpt>
      <trkpt lat="35.546914497390389" lon="-5.231942133978009">
        <ele>27.534912109375</ele>
        <time>2011-04-16T10:21:10Z</time>
      </trkpt>
      <trkpt lat="35.546990940347314" lon="-5.23182881064713">
        <ele>28.4962158203125</ele>
        <time>2011-04-16T10:21:12Z</time>
      </trkpt>
      <trkpt lat="35.547224460169673" lon="-5.231482889503241">
        <ele>30.8995361328125</ele>
        <time>2011-04-16T10:21:17Z</time>
      </trkpt>
      <trkpt lat="35.547424200922251" lon="-5.231217015534639">
        <ele>33.3028564453125</ele>
        <time>2011-04-16T10:21:21Z</time>
      </trkpt>
      <trkpt lat="35.54755219258368" lon="-5.231115343049169">
        <ele>35.2254638671875</ele>
        <time>2011-04-16T10:21:23Z</time>
      </trkpt>
      <trkpt lat="35.548008168116212" lon="-5.230752825737">
        <ele>40.993408203125</ele>
        <time>2011-04-16T10:21:29Z</time>
      </trkpt>
      <trkpt lat="35.548266833648086" lon="-5.230479910969734">
        <ele>45.3192138671875</ele>
        <time>2011-04-16T10:21:33Z</time>
      </trkpt>
      <trkpt lat="35.548553997650743" lon="-5.229861997067928">
        <ele>51.56787109375</ele>
        <time>2011-04-16T10:21:40Z</time>
      </trkpt>
      <trkpt lat="35.548754744231701" lon="-5.229430245235562">
        <ele>55.4130859375</ele>
        <time>2011-04-16T10:21:45Z</time>
      </trkpt>
      <trkpt lat="35.548804868012667" lon="-5.229322286322713">
        <ele>55.893798828125</ele>
        <time>2011-04-16T10:21:46Z</time>
      </trkpt>
      <trkpt lat="35.54891006089747" lon="-5.229096058756113">
        <ele>57.8165283203125</ele>
        <time>2011-04-16T10:21:48Z</time>
      </trkpt>
      <trkpt lat="35.549044087529182" lon="-5.228426428511739">
        <ele>63.1036376953125</ele>
        <time>2011-04-16T10:21:54Z</time>
      </trkpt>
      <trkpt lat="35.549103012308478" lon="-5.228110179305077">
        <ele>65.9876708984375</ele>
        <time>2011-04-16T10:21:57Z</time>
      </trkpt>
      <trkpt lat="35.549176437780261" lon="-5.227680522948504">
        <ele>68.87158203125</ele>
        <time>2011-04-16T10:22:01Z</time>
      </trkpt>
      <trkpt lat="35.549236536026001" lon="-5.227215075865388">
        <ele>72.2362060546875</ele>
        <time>2011-04-16T10:22:06Z</time>
      </trkpt>
      <trkpt lat="35.549308452755213" lon="-5.226657679304481">
        <ele>76.5621337890625</ele>
        <time>2011-04-16T10:22:12Z</time>
      </trkpt>
      <trkpt lat="35.54926872253418" lon="-5.226389709860086">
        <ele>77.0428466796875</ele>
        <time>2011-04-16T10:22:15Z</time>
      </trkpt>
      <trkpt lat="35.548820039257407" lon="-5.225853938609362">
        <ele>77.0428466796875</ele>
        <time>2011-04-16T10:22:22Z</time>
      </trkpt>
      <trkpt lat="35.548584423959255" lon="-5.225572474300861">
        <ele>75.600830078125</ele>
        <time>2011-04-16T10:22:28Z</time>
      </trkpt>
      <trkpt lat="35.548303630203009" lon="-5.225502485409379">
        <ele>75.1202392578125</ele>
        <time>2011-04-16T10:22:31Z</time>
      </trkpt>
      <trkpt lat="35.547764170914888" lon="-5.225415229797363">
        <ele>70.794189453125</ele>
        <time>2011-04-16T10:22:37Z</time>
      </trkpt>
      <trkpt lat="35.547402743250132" lon="-5.225356724113226">
        <ele>66.948974609375</ele>
        <time>2011-04-16T10:22:41Z</time>
      </trkpt>
      <trkpt lat="35.546969315037131" lon="-5.225355718284845">
        <ele>61.6617431640625</ele>
        <time>2011-04-16T10:22:46Z</time>
      </trkpt>
      <trkpt lat="35.546201951801777" lon="-5.225633243098855">
        <ele>54.4517822265625</ele>
        <time>2011-04-16T10:22:56Z</time>
      </trkpt>
      <trkpt lat="35.5458830203861" lon="-5.225633578374982">
        <ele>52.048583984375</ele>
        <time>2011-04-16T10:23:01Z</time>
      </trkpt>
      <trkpt lat="35.545742958784103" lon="-5.22560759447515">
        <ele>50.6065673828125</ele>
        <time>2011-04-16T10:23:03Z</time>
      </trkpt>
      <trkpt lat="35.545328557491302" lon="-5.225530313327909">
        <ele>46.76123046875</ele>
        <time>2011-04-16T10:23:09Z</time>
      </trkpt>
      <trkpt lat="35.545044327154756" lon="-5.225477339699864">
        <ele>43.3966064453125</ele>
        <time>2011-04-16T10:23:14Z</time>
      </trkpt>
      <trkpt lat="35.544342426583171" lon="-5.225382205098867">
        <ele>36.66748046875</ele>
        <time>2011-04-16T10:23:24Z</time>
      </trkpt>
      <trkpt lat="35.544154169037938" lon="-5.225361082702875">
        <ele>35.2254638671875</ele>
        <time>2011-04-16T10:23:26Z</time>
      </trkpt>
      <trkpt lat="35.543458722531796" lon="-5.225282963365316">
        <ele>29.45751953125</ele>
        <time>2011-04-16T10:23:33Z</time>
      </trkpt>
      <trkpt lat="35.542631009593606" lon="-5.225315820425749">
        <ele>22.24755859375</ele>
        <time>2011-04-16T10:23:40Z</time>
      </trkpt>
      <trkpt lat="35.541736492887139" lon="-5.225450852885842">
        <ele>15.5184326171875</ele>
        <time>2011-04-16T10:23:48Z</time>
      </trkpt>
      <trkpt lat="35.540690179914236" lon="-5.225662663578987">
        <ele>12.15380859375</ele>
        <time>2011-04-16T10:23:57Z</time>
      </trkpt>
      <trkpt lat="35.539505649358034" lon="-5.226279487833381">
        <ele>11.6732177734375</ele>
        <time>2011-04-16T10:24:07Z</time>
      </trkpt>
      <trkpt lat="35.538476435467601" lon="-5.226815510541201">
        <ele>9.2698974609375</ele>
        <time>2011-04-16T10:24:16Z</time>
      </trkpt>
      <trkpt lat="35.537571860477328" lon="-5.227286657318473">
        <ele>8.7891845703125</ele>
        <time>2011-04-16T10:24:24Z</time>
      </trkpt>
      <trkpt lat="35.536682037636638" lon="-5.227749925106764">
        <ele>8.30859375</ele>
        <time>2011-04-16T10:24:32Z</time>
      </trkpt>
      <trkpt lat="35.534943463280797" lon="-5.228672102093697">
        <ele>9.2698974609375</ele>
        <time>2011-04-16T10:24:46Z</time>
      </trkpt>
      <trkpt lat="35.534047856926918" lon="-5.229211477562785">
        <ele>10.231201171875</ele>
        <time>2011-04-16T10:24:55Z</time>
      </trkpt>
      <trkpt lat="35.533344279974699" lon="-5.229635098949075">
        <ele>10.231201171875</ele>
        <time>2011-04-16T10:25:02Z</time>
      </trkpt>
      <trkpt lat="35.533140851184726" lon="-5.22975261323154">
        <ele>10.7117919921875</ele>
        <time>2011-04-16T10:25:04Z</time>
      </trkpt>
      <trkpt lat="35.532325208187103" lon="-5.229940870776773">
        <ele>11.1925048828125</ele>
        <time>2011-04-16T10:25:12Z</time>
      </trkpt>
      <trkpt lat="35.531375287100673" lon="-5.230169026181102">
        <ele>12.15380859375</ele>
        <time>2011-04-16T10:25:21Z</time>
      </trkpt>
      <trkpt lat="35.530618568882346" lon="-5.230408748611808">
        <ele>12.15380859375</ele>
        <time>2011-04-16T10:25:29Z</time>
      </trkpt>
      <trkpt lat="35.530254878103733" lon="-5.230523832142353">
        <ele>11.6732177734375</ele>
        <time>2011-04-16T10:25:35Z</time>
      </trkpt>
      <trkpt lat="35.530068883672357" lon="-5.230582840740681">
        <ele>11.6732177734375</ele>
        <time>2011-04-16T10:25:39Z</time>
      </trkpt>
      <trkpt lat="35.529850535094738" lon="-5.230651991441846">
        <ele>11.6732177734375</ele>
        <time>2011-04-16T10:25:44Z</time>
      </trkpt>
      <trkpt lat="35.529661690816283" lon="-5.230711838230491">
        <ele>11.6732177734375</ele>
        <time>2011-04-16T10:25:49Z</time>
      </trkpt>
      <trkpt lat="35.529512073844671" lon="-5.23075919598341">
        <ele>11.6732177734375</ele>
        <time>2011-04-16T10:25:53Z</time>
      </trkpt>
      <trkpt lat="35.529297832399607" lon="-5.230827005580068">
        <ele>11.6732177734375</ele>
        <time>2011-04-16T10:25:57Z</time>
      </trkpt>
      <trkpt lat="35.528528373688459" lon="-5.231070667505264">
        <ele>12.6343994140625</ele>
        <time>2011-04-16T10:26:05Z</time>
      </trkpt>
      <trkpt lat="35.527878189459443" lon="-5.231276527047157">
        <ele>13.1151123046875</ele>
        <time>2011-04-16T10:26:13Z</time>
      </trkpt>
      <trkpt lat="35.527017368003726" lon="-5.231306115165353">
        <ele>13.1151123046875</ele>
        <time>2011-04-16T10:26:21Z</time>
      </trkpt>
      <trkpt lat="35.526217985898256" lon="-5.231235539540649">
        <ele>14.5570068359375</ele>
        <time>2011-04-16T10:26:29Z</time>
      </trkpt>
      <trkpt lat="35.526123270392418" lon="-5.231208382174373">
        <ele>15.0377197265625</ele>
        <time>2011-04-16T10:26:31Z</time>
      </trkpt>
      <trkpt lat="35.525883045047522" lon="-5.23105968721211">
        <ele>15.5184326171875</ele>
        <time>2011-04-16T10:26:35Z</time>
      </trkpt>
      <trkpt lat="35.525398906320333" lon="-5.230759950354695">
        <ele>15.5184326171875</ele>
        <time>2011-04-16T10:26:41Z</time>
      </trkpt>
      <trkpt lat="35.525257587432861" lon="-5.230382094159722">
        <ele>14.5570068359375</ele>
        <time>2011-04-16T10:26:47Z</time>
      </trkpt>
      <trkpt lat="35.525257587432861" lon="-5.230044387280941">
        <ele>13.1151123046875</ele>
        <time>2011-04-16T10:26:51Z</time>
      </trkpt>
      <trkpt lat="35.525257587432861" lon="-5.229845317080617">
        <ele>12.6343994140625</ele>
        <time>2011-04-16T10:26:54Z</time>
      </trkpt>
      <trkpt lat="35.5253073759377" lon="-5.229174010455608">
        <ele>12.15380859375</ele>
        <time>2011-04-16T10:27:03Z</time>
      </trkpt>
      <trkpt lat="35.525727644562721" lon="-5.228480575606227">
        <ele>11.6732177734375</ele>
        <time>2011-04-16T10:27:12Z</time>
      </trkpt>
      <trkpt lat="35.526205664500594" lon="-5.227691838517785">
        <ele>11.1925048828125</ele>
        <time>2011-04-16T10:27:23Z</time>
      </trkpt>
      <trkpt lat="35.526805892586708" lon="-5.226701349020004">
        <ele>11.1925048828125</ele>
        <time>2011-04-16T10:27:32Z</time>
      </trkpt>
      <trkpt lat="35.527358595281839" lon="-5.225789565593004">
        <ele>11.1925048828125</ele>
        <time>2011-04-16T10:27:40Z</time>
      </trkpt>
      <trkpt lat="35.528664663434029" lon="-5.22408845834434">
        <ele>11.6732177734375</ele>
        <time>2011-04-16T10:27:54Z</time>
      </trkpt>
      <trkpt lat="35.529565047472715" lon="-5.223094029352069">
        <ele>11.1925048828125</ele>
        <time>2011-04-16T10:28:03Z</time>
      </trkpt>
      <trkpt lat="35.530413882806897" lon="-5.222156513482332">
        <ele>11.1925048828125</ele>
        <time>2011-04-16T10:28:12Z</time>
      </trkpt>
      <trkpt lat="35.531682735309005" lon="-5.2210115455091">
        <ele>10.231201171875</ele>
        <time>2011-04-16T10:28:25Z</time>
      </trkpt>
      <trkpt lat="35.532479267567396" lon="-5.220341244712472">
        <ele>11.1925048828125</ele>
        <time>2011-04-16T10:28:34Z</time>
      </trkpt>
      <trkpt lat="35.533330282196403" lon="-5.219625178724527">
        <ele>10.7117919921875</ele>
        <time>2011-04-16T10:28:42Z</time>
      </trkpt>
      <trkpt lat="35.533871920779347" lon="-5.219169454649091">
        <ele>10.7117919921875</ele>
        <time>2011-04-16T10:28:48Z</time>
      </trkpt>
      <trkpt lat="35.534572815522552" lon="-5.218343753367662">
        <ele>8.7891845703125</ele>
        <time>2011-04-16T10:28:57Z</time>
      </trkpt>
      <trkpt lat="35.535205062478781" lon="-5.217380672693253">
        <ele>8.7891845703125</ele>
        <time>2011-04-16T10:29:07Z</time>
      </trkpt>
      <trkpt lat="35.535758519545197" lon="-5.216537620872259">
        <ele>8.30859375</ele>
        <time>2011-04-16T10:29:16Z</time>
      </trkpt>
      <trkpt lat="35.536297140643001" lon="-5.215872349217534">
        <ele>10.7117919921875</ele>
        <time>2011-04-16T10:29:23Z</time>
      </trkpt>
      <trkpt lat="35.537009015679359" lon="-5.215279161930084">
        <ele>15.0377197265625</ele>
        <time>2011-04-16T10:29:29Z</time>
      </trkpt>
      <trkpt lat="35.537365665659308" lon="-5.214747749269009">
        <ele>20.324951171875</ele>
        <time>2011-04-16T10:29:34Z</time>
      </trkpt>
      <trkpt lat="35.537600107491016" lon="-5.214144755154848">
        <ele>24.6510009765625</ele>
        <time>2011-04-16T10:29:40Z</time>
      </trkpt>
      <trkpt lat="35.537675460800529" lon="-5.213951049372554">
        <ele>25.6123046875</ele>
        <time>2011-04-16T10:29:42Z</time>
      </trkpt>
      <trkpt lat="35.537518132477999" lon="-5.212750341743231">
        <ele>30.4188232421875</ele>
        <time>2011-04-16T10:29:50Z</time>
      </trkpt>
      <trkpt lat="35.537262903526425" lon="-5.211262386292219">
        <ele>32.341552734375</ele>
        <time>2011-04-16T10:29:58Z</time>
      </trkpt>
      <trkpt lat="35.537096355110407" lon="-5.21042981185019">
        <ele>31.380126953125</ele>
        <time>2011-04-16T10:30:03Z</time>
      </trkpt>
      <trkpt lat="35.537053439766169" lon="-5.209918599575758">
        <ele>28.9769287109375</ele>
        <time>2011-04-16T10:30:07Z</time>
      </trkpt>
      <trkpt lat="35.537129882723093" lon="-5.208847895264626">
        <ele>26.0928955078125</ele>
        <time>2011-04-16T10:30:14Z</time>
      </trkpt>
      <trkpt lat="35.537145137786865" lon="-5.208635330200195">
        <ele>26.0928955078125</ele>
        <time>2011-04-16T10:30:16Z</time>
      </trkpt>
      <trkpt lat="35.536888316273689" lon="-5.208398373797536">
        <ele>25.6123046875</ele>
        <time>2011-04-16T10:30:22Z</time>
      </trkpt>
      <trkpt lat="35.536741968244314" lon="-5.208263341337442">
        <ele>26.5736083984375</ele>
        <time>2011-04-16T10:30:24Z</time>
      </trkpt>
      <trkpt lat="35.536586316302419" lon="-5.208119591698051">
        <ele>28.0155029296875</ele>
        <time>2011-04-16T10:30:26Z</time>
      </trkpt>
      <trkpt lat="35.535776372998953" lon="-5.208021439611912">
        <ele>31.8607177734375</ele>
        <time>2011-04-16T10:30:34Z</time>
      </trkpt>
      <trkpt lat="35.535013284534216" lon="-5.208267280831933">
        <ele>37.1480712890625</ele>
        <time>2011-04-16T10:30:42Z</time>
      </trkpt>
      <trkpt lat="35.534696616232395" lon="-5.208441959694028">
        <ele>39.55126953125</ele>
        <time>2011-04-16T10:30:49Z</time>
      </trkpt>
      <trkpt lat="35.534198228269815" lon="-5.208716969937086">
        <ele>41.4739990234375</ele>
        <time>2011-04-16T10:30:58Z</time>
      </trkpt>
      <trkpt lat="35.534109547734261" lon="-5.208765836432576">
        <ele>41.9547119140625</ele>
        <time>2011-04-16T10:30:59Z</time>
      </trkpt>
      <trkpt lat="35.533840656280518" lon="-5.208914279937744">
        <ele>44.3580322265625</ele>
        <time>2011-04-16T10:31:05Z</time>
      </trkpt>
      <trkpt lat="35.533815510571003" lon="-5.208712611347437">
        <ele>45.3192138671875</ele>
        <time>2011-04-16T10:31:09Z</time>
      </trkpt>
      <trkpt lat="35.53377578034997" lon="-5.208394853398204">
        <ele>47.2418212890625</ele>
        <time>2011-04-16T10:31:13Z</time>
      </trkpt>
      <trkpt lat="35.533885667100549" lon="-5.207883222028613">
        <ele>48.6839599609375</ele>
        <time>2011-04-16T10:31:17Z</time>
      </trkpt>
      <trkpt lat="35.533989099785686" lon="-5.207611229270697">
        <ele>49.645263671875</ele>
        <time>2011-04-16T10:31:20Z</time>
      </trkpt>
      <trkpt lat="35.534119522199035" lon="-5.207267990335822">
        <ele>52.048583984375</ele>
        <time>2011-04-16T10:31:24Z</time>
      </trkpt>
      <trkpt lat="35.534192025661469" lon="-5.207094233483076">
        <ele>53.97119140625</ele>
        <time>2011-04-16T10:31:26Z</time>
      </trkpt>
      <trkpt lat="35.534429484978318" lon="-5.206607580184937">
        <ele>57.3358154296875</ele>
        <time>2011-04-16T10:31:32Z</time>
      </trkpt>
      <trkpt lat="35.534499892964959" lon="-5.206463159993291">
        <ele>59.2584228515625</ele>
        <time>2011-04-16T10:31:34Z</time>
      </trkpt>
      <trkpt lat="35.534402579069138" lon="-5.20542380400002">
        <ele>67.4296875</ele>
        <time>2011-04-16T10:31:42Z</time>
      </trkpt>
      <trkpt lat="35.53429126739502" lon="-5.204923152923584">
        <ele>72.2362060546875</ele>
        <time>2011-04-16T10:31:48Z</time>
      </trkpt>
      <trkpt lat="35.53450433537364" lon="-5.204923152923584">
        <ele>74.1588134765625</ele>
        <time>2011-04-16T10:31:52Z</time>
      </trkpt>
      <trkpt lat="35.534636937081814" lon="-5.204923152923584">
        <ele>74.6395263671875</ele>
        <time>2011-04-16T10:31:54Z</time>
      </trkpt>
      <trkpt lat="35.534848244860768" lon="-5.204923152923584">
        <ele>76.0814208984375</ele>
        <time>2011-04-16T10:31:57Z</time>
      </trkpt>
      <trkpt lat="35.535191986709833" lon="-5.204923152923584">
        <ele>76.5621337890625</ele>
        <time>2011-04-16T10:32:02Z</time>
      </trkpt>
      <trkpt lat="35.535248564556241" lon="-5.204812763258815">
        <ele>78.9654541015625</ele>
        <time>2011-04-16T10:32:06Z</time>
      </trkpt>
      <trkpt lat="35.535219898447394" lon="-5.2047064807266">
        <ele>79.9266357421875</ele>
        <time>2011-04-16T10:32:07Z</time>
      </trkpt>
      <trkpt lat="35.535161979496479" lon="-5.204492155462503">
        <ele>81.3687744140625</ele>
        <time>2011-04-16T10:32:09Z</time>
      </trkpt>
      <trkpt lat="35.535000711679459" lon="-5.203894274309278">
        <ele>85.2139892578125</ele>
        <time>2011-04-16T10:32:14Z</time>
      </trkpt>
      <trkpt lat="35.534905241802335" lon="-5.203359760344029">
        <ele>89.5399169921875</ele>
        <time>2011-04-16T10:32:18Z</time>
      </trkpt>
      <trkpt lat="35.534880431368947" lon="-5.202725501731038">
        <ele>95.7884521484375</ele>
        <time>2011-04-16T10:32:24Z</time>
      </trkpt>
      <trkpt lat="35.53503449074924" lon="-5.202506147325039">
        <ele>99.153076171875</ele>
        <time>2011-04-16T10:32:29Z</time>
      </trkpt>
      <trkpt lat="35.535223670303822" lon="-5.202540010213852">
        <ele>100.5950927734375</ele>
        <time>2011-04-16T10:32:31Z</time>
      </trkpt>
      <trkpt lat="35.535556767135859" lon="-5.20259952172637">
        <ele>102.5177001953125</ele>
        <time>2011-04-16T10:32:34Z</time>
      </trkpt>
      <trkpt lat="35.535957254469395" lon="-5.202671019360423">
        <ele>104.9210205078125</ele>
        <time>2011-04-16T10:32:38Z</time>
      </trkpt>
      <trkpt lat="35.536379115656018" lon="-5.202570352703333">
        <ele>107.8050537109375</ele>
        <time>2011-04-16T10:32:44Z</time>
      </trkpt>
      <trkpt lat="35.536911701783538" lon="-5.202359799295664">
        <ele>108.28564453125</ele>
        <time>2011-04-16T10:32:51Z</time>
      </trkpt>
      <trkpt lat="35.537239518016577" lon="-5.202359464019537">
        <ele>108.28564453125</ele>
        <time>2011-04-16T10:32:54Z</time>
      </trkpt>
      <trkpt lat="35.537633216008544" lon="-5.202412186190486">
        <ele>109.2469482421875</ele>
        <time>2011-04-16T10:32:58Z</time>
      </trkpt>
      <trkpt lat="35.538031188771129" lon="-5.202465578913689">
        <ele>112.1309814453125</ele>
        <time>2011-04-16T10:33:03Z</time>
      </trkpt>
      <trkpt lat="35.538790840655565" lon="-5.202567419037223">
        <ele>117.8988037109375</ele>
        <time>2011-04-16T10:33:10Z</time>
      </trkpt>
      <trkpt lat="35.539055708795786" lon="-5.202182857319713">
        <ele>119.3408203125</ele>
        <time>2011-04-16T10:33:12Z</time>
      </trkpt>
      <trkpt lat="35.539038861170411" lon="-5.201836852356792">
        <ele>122.2247314453125</ele>
        <time>2011-04-16T10:33:17Z</time>
      </trkpt>
      <trkpt lat="35.538868037983775" lon="-5.201637698337436">
        <ele>120.7828369140625</ele>
        <time>2011-04-16T10:33:22Z</time>
      </trkpt>
      <trkpt lat="35.538501413539052" lon="-5.201441813260317">
        <ele>118.37939453125</ele>
        <time>2011-04-16T10:33:27Z</time>
      </trkpt>
      <trkpt lat="35.538073014467955" lon="-5.201212903484702">
        <ele>116.456787109375</ele>
        <time>2011-04-16T10:33:32Z</time>
      </trkpt>
      <trkpt lat="35.537535399198532" lon="-5.200925739482045">
        <ele>112.611572265625</ele>
        <time>2011-04-16T10:33:37Z</time>
      </trkpt>
      <trkpt lat="35.537311853840947" lon="-5.200684005394578">
        <ele>111.1695556640625</ele>
        <time>2011-04-16T10:33:40Z</time>
      </trkpt>
      <trkpt lat="35.536915976554155" lon="-5.200160220265389">
        <ele>107.3243408203125</ele>
        <time>2011-04-16T10:33:46Z</time>
      </trkpt>
      <trkpt lat="35.536744231358171" lon="-5.199932986870408">
        <ele>105.4017333984375</ele>
        <time>2011-04-16T10:33:49Z</time>
      </trkpt>
      <trkpt lat="35.536657813936472" lon="-5.199818490073085">
        <ele>104.4404296875</ele>
        <time>2011-04-16T10:33:51Z</time>
      </trkpt>
      <trkpt lat="35.536452708765864" lon="-5.199547251686454">
        <ele>102.5177001953125</ele>
        <time>2011-04-16T10:33:56Z</time>
      </trkpt>
      <trkpt lat="35.536294290795922" lon="-5.199337620288134">
        <ele>101.07568359375</ele>
        <time>2011-04-16T10:33:59Z</time>
      </trkpt>
      <trkpt lat="35.535920457914472" lon="-5.199031429365277">
        <ele>100.114501953125</ele>
        <time>2011-04-16T10:34:03Z</time>
      </trkpt>
      <trkpt lat="35.535617871209979" lon="-5.19900661893189">
        <ele>99.153076171875</ele>
        <time>2011-04-16T10:34:07Z</time>
      </trkpt>
      <trkpt lat="35.535219060257077" lon="-5.198973929509521">
        <ele>97.711181640625</ele>
        <time>2011-04-16T10:34:12Z</time>
      </trkpt>
      <trkpt lat="35.534811448305845" lon="-5.198940569534898">
        <ele>96.7498779296875</ele>
        <time>2011-04-16T10:34:17Z</time>
      </trkpt>
      <trkpt lat="35.534496540203691" lon="-5.198936462402344">
        <ele>95.7884521484375</ele>
        <time>2011-04-16T10:34:21Z</time>
      </trkpt>
      <trkpt lat="35.534083480015397" lon="-5.198936462402344">
        <ele>93.3851318359375</ele>
        <time>2011-04-16T10:34:27Z</time>
      </trkpt>
      <trkpt lat="35.533948950469494" lon="-5.198936462402344">
        <ele>92.4239501953125</ele>
        <time>2011-04-16T10:34:29Z</time>
      </trkpt>
      <trkpt lat="35.533682908862829" lon="-5.198859935626388">
        <ele>90.5013427734375</ele>
        <time>2011-04-16T10:34:35Z</time>
      </trkpt>
      <trkpt lat="35.533475205302238" lon="-5.198544524610043">
        <ele>87.6171875</ele>
        <time>2011-04-16T10:34:39Z</time>
      </trkpt>
      <trkpt lat="35.533212264999747" lon="-5.198145294561982">
        <ele>83.2913818359375</ele>
        <time>2011-04-16T10:34:44Z</time>
      </trkpt>
      <trkpt lat="35.533093241974711" lon="-5.198050243780017">
        <ele>79.9266357421875</ele>
        <time>2011-04-16T10:34:49Z</time>
      </trkpt>
      <trkpt lat="35.5325239431113" lon="-5.197988636791706">
        <ele>76.0814208984375</ele>
        <time>2011-04-16T10:34:55Z</time>
      </trkpt>
      <trkpt lat="35.532245915383101" lon="-5.198269095271826">
        <ele>72.2362060546875</ele>
        <time>2011-04-16T10:35:00Z</time>
      </trkpt>
      <trkpt lat="35.532170394435525" lon="-5.198466153815389">
        <ele>70.794189453125</ele>
        <time>2011-04-16T10:35:02Z</time>
      </trkpt>
      <trkpt lat="35.531989680603147" lon="-5.198938054963946">
        <ele>67.4296875</ele>
        <time>2011-04-16T10:35:08Z</time>
      </trkpt>
      <trkpt lat="35.531725566834211" lon="-5.199345164000988">
        <ele>63.5843505859375</ele>
        <time>2011-04-16T10:35:14Z</time>
      </trkpt>
      <trkpt lat="35.531484419479966" lon="-5.199571056291461">
        <ele>61.1810302734375</ele>
        <time>2011-04-16T10:35:18Z</time>
      </trkpt>
      <trkpt lat="35.531374951824546" lon="-5.199558734893799">
        <ele>60.7003173828125</ele>
        <time>2011-04-16T10:35:19Z</time>
      </trkpt>
      <trkpt lat="35.531159536913037" lon="-5.199534511193633">
        <ele>58.7777099609375</ele>
        <time>2011-04-16T10:35:21Z</time>
      </trkpt>
      <trkpt lat="35.530720828101039" lon="-5.199485057964921">
        <ele>57.3358154296875</ele>
        <time>2011-04-16T10:35:26Z</time>
      </trkpt>
      <trkpt lat="35.530359987169504" lon="-5.199444405734539">
        <ele>53.490478515625</ele>
        <time>2011-04-16T10:35:32Z</time>
      </trkpt>
      <trkpt lat="35.530265439301729" lon="-5.199433760717511">
        <ele>52.5291748046875</ele>
        <time>2011-04-16T10:35:34Z</time>
      </trkpt>
      <trkpt lat="35.529906945303082" lon="-5.199364861473441">
        <ele>50.6065673828125</ele>
        <time>2011-04-16T10:35:40Z</time>
      </trkpt>
      <trkpt lat="35.529561778530478" lon="-5.199253801256418">
        <ele>49.645263671875</ele>
        <time>2011-04-16T10:35:44Z</time>
      </trkpt>
      <trkpt lat="35.529315685853362" lon="-5.199174592271447">
        <ele>48.203369140625</ele>
        <time>2011-04-16T10:35:47Z</time>
      </trkpt>
      <trkpt lat="35.528765665367246" lon="-5.198985496535897">
        <ele>44.838623046875</ele>
        <time>2011-04-16T10:35:53Z</time>
      </trkpt>
      <trkpt lat="35.528539102524519" lon="-5.198667487129569">
        <ele>42.4354248046875</ele>
        <time>2011-04-16T10:35:59Z</time>
      </trkpt>
      <trkpt lat="35.528468526899815" lon="-5.198568580672145">
        <ele>40.993408203125</ele>
        <time>2011-04-16T10:36:01Z</time>
      </trkpt>
      <trkpt lat="35.528191588819027" lon="-5.198179995641112">
        <ele>36.186767578125</ele>
        <time>2011-04-16T10:36:08Z</time>
      </trkpt>
      <trkpt lat="35.527747431769967" lon="-5.197556717321277">
        <ele>31.8607177734375</ele>
        <time>2011-04-16T10:36:16Z</time>
      </trkpt>
      <trkpt lat="35.527559593319893" lon="-5.197028322145343">
        <ele>27.534912109375</ele>
        <time>2011-04-16T10:36:21Z</time>
      </trkpt>
      <trkpt lat="35.527802836149931" lon="-5.196801256388426">
        <ele>26.5736083984375</ele>
        <time>2011-04-16T10:36:26Z</time>
      </trkpt>
      <trkpt lat="35.528090000152588" lon="-5.196533203125">
        <ele>26.5736083984375</ele>
        <time>2011-04-16T10:36:31Z</time>
      </trkpt>
      <trkpt lat="35.528269289061427" lon="-5.196621548384428">
        <ele>25.6123046875</ele>
        <time>2011-04-16T10:36:33Z</time>
      </trkpt>
      <trkpt lat="35.528911175206304" lon="-5.196938132867217">
        <ele>26.0928955078125</ele>
        <time>2011-04-16T10:36:41Z</time>
      </trkpt>
      <trkpt lat="35.529519282281399" lon="-5.197238037362695">
        <ele>28.4962158203125</ele>
        <time>2011-04-16T10:36:48Z</time>
      </trkpt>
      <trkpt lat="35.529972827062011" lon="-5.19714399240911">
        <ele>32.341552734375</ele>
        <time>2011-04-16T10:36:55Z</time>
      </trkpt>
      <trkpt lat="35.530291926115751" lon="-5.196980964392424">
        <ele>34.26416015625</ele>
        <time>2011-04-16T10:36:59Z</time>
      </trkpt>
      <trkpt lat="35.530741615220904" lon="-5.195628795772791">
        <ele>38.109375</ele>
        <time>2011-04-16T10:37:08Z</time>
      </trkpt>
      <trkpt lat="35.5308195669204" lon="-5.194669989868999">
        <ele>43.8773193359375</ele>
        <time>2011-04-16T10:37:15Z</time>
      </trkpt>
      <trkpt lat="35.530824596062303" lon="-5.194406965747476">
        <ele>44.838623046875</ele>
        <time>2011-04-16T10:37:17Z</time>
      </trkpt>
      <trkpt lat="35.53082937374711" lon="-5.194160956889391">
        <ele>46.76123046875</ele>
        <time>2011-04-16T10:37:19Z</time>
      </trkpt>
      <trkpt lat="35.530838929116726" lon="-5.193664161488414">
        <ele>51.087158203125</ele>
        <time>2011-04-16T10:37:23Z</time>
      </trkpt>
      <trkpt lat="35.530848987400532" lon="-5.193141298368573">
        <ele>56.37451171875</ele>
        <time>2011-04-16T10:37:27Z</time>
      </trkpt>
      <trkpt lat="35.530922245234251" lon="-5.192660680040717">
        <ele>61.6617431640625</ele>
        <time>2011-04-16T10:37:32Z</time>
      </trkpt>
      <trkpt lat="35.53103313781321" lon="-5.192642910405994">
        <ele>64.545654296875</ele>
        <time>2011-04-16T10:37:35Z</time>
      </trkpt>
      <trkpt lat="35.531343854963779" lon="-5.192593205720186">
        <ele>68.390869140625</ele>
        <time>2011-04-16T10:37:41Z</time>
      </trkpt>
      <trkpt lat="35.531467571854591" lon="-5.192573424428701">
        <ele>69.352294921875</ele>
        <time>2011-04-16T10:37:43Z</time>
      </trkpt>
      <trkpt lat="35.53184668533504" lon="-5.19251273944974">
        <ele>73.1976318359375</ele>
        <time>2011-04-16T10:37:49Z</time>
      </trkpt>
      <trkpt lat="35.532026812434196" lon="-5.191635908558965">
        <ele>77.5234375</ele>
        <time>2011-04-16T10:37:57Z</time>
      </trkpt>
      <trkpt lat="35.5321129783988" lon="-5.190413827076554">
        <ele>84.7333984375</ele>
        <time>2011-04-16T10:38:06Z</time>
      </trkpt>
      <trkpt lat="35.532132927328348" lon="-5.18995575606823">
        <ele>89.059326171875</ele>
        <time>2011-04-16T10:38:12Z</time>
      </trkpt>
      <trkpt lat="35.532138124108315" lon="-5.189835978671908">
        <ele>90.98193359375</ele>
        <time>2011-04-16T10:38:39Z</time>
      </trkpt>
      <trkpt lat="35.532151870429516" lon="-5.189519394189119">
        <ele>93.8658447265625</ele>
        <time>2011-04-16T10:38:44Z</time>
      </trkpt>
      <trkpt lat="35.531605873256922" lon="-5.188915561884642">
        <ele>101.556396484375</ele>
        <time>2011-04-16T10:38:52Z</time>
      </trkpt>
      <trkpt lat="35.53148559294641" lon="-5.188306532800198">
        <ele>104.9210205078125</ele>
        <time>2011-04-16T10:38:58Z</time>
      </trkpt>
      <trkpt lat="35.531889852136374" lon="-5.188121795654297">
        <ele>105.4017333984375</ele>
        <time>2011-04-16T10:39:02Z</time>
      </trkpt>
      <trkpt lat="35.532142482697964" lon="-5.188151719048619">
        <ele>105.4017333984375</ele>
        <time>2011-04-16T10:39:04Z</time>
      </trkpt>
      <trkpt lat="35.532382791861892" lon="-5.188196897506714">
        <ele>105.8824462890625</ele>
        <time>2011-04-16T10:39:06Z</time>
      </trkpt>
      <trkpt lat="35.532601978629827" lon="-5.187845276668668">
        <ele>108.7662353515625</ele>
        <time>2011-04-16T10:39:11Z</time>
      </trkpt>
      <trkpt lat="35.532670877873898" lon="-5.187634890899062">
        <ele>110.6888427734375</ele>
        <time>2011-04-16T10:39:13Z</time>
      </trkpt>
      <trkpt lat="35.532736172899604" lon="-5.187435569241643">
        <ele>112.611572265625</ele>
        <time>2011-04-16T10:39:15Z</time>
      </trkpt>
      <trkpt lat="35.532982349395752" lon="-5.186601066961885">
        <ele>118.860107421875</ele>
        <time>2011-04-16T10:39:23Z</time>
      </trkpt>
      <trkpt lat="35.532982349395752" lon="-5.186346676200628">
        <ele>120.3021240234375</ele>
        <time>2011-04-16T10:39:25Z</time>
      </trkpt>
      <trkpt lat="35.532982349395752" lon="-5.185995809733868">
        <ele>123.666748046875</ele>
        <time>2011-04-16T10:39:29Z</time>
      </trkpt>
      <trkpt lat="35.532351275905967" lon="-5.185325425118208">
        <ele>132.79931640625</ele>
        <time>2011-04-16T10:39:37Z</time>
      </trkpt>
      <trkpt lat="35.531976856291294" lon="-5.18483642488718">
        <ele>139.5284423828125</ele>
        <time>2011-04-16T10:39:43Z</time>
      </trkpt>
      <trkpt lat="35.532025555148721" lon="-5.184538196772337">
        <ele>142.4124755859375</ele>
        <time>2011-04-16T10:39:49Z</time>
      </trkpt>
      <trkpt lat="35.532318837940693" lon="-5.184301575645804">
        <ele>145.29638671875</ele>
        <time>2011-04-16T10:40:00Z</time>
      </trkpt>
      <trkpt lat="35.53238807246089" lon="-5.18421289511025">
        <ele>146.2578125</ele>
        <time>2011-04-16T10:40:03Z</time>
      </trkpt>
      <trkpt lat="35.532891154289246" lon="-5.183801427483559">
        <ele>147.69970703125</ele>
        <time>2011-04-16T10:40:07Z</time>
      </trkpt>
      <trkpt lat="35.532659981399775" lon="-5.182803813368082">
        <ele>153.4676513671875</ele>
        <time>2011-04-16T10:40:16Z</time>
      </trkpt>
      <trkpt lat="35.532342223450541" lon="-5.181432366371155">
        <ele>157.7935791015625</ele>
        <time>2011-04-16T10:40:26Z</time>
      </trkpt>
      <trkpt lat="35.53228598088026" lon="-5.181189458817244">
        <ele>157.3128662109375</ele>
        <time>2011-04-16T10:40:28Z</time>
      </trkpt>
      <trkpt lat="35.532137956470251" lon="-5.180590571835637">
        <ele>155.8709716796875</ele>
        <time>2011-04-16T10:40:33Z</time>
      </trkpt>
      <trkpt lat="35.532003426924348" lon="-5.180194191634655">
        <ele>153.4676513671875</ele>
        <time>2011-04-16T10:40:37Z</time>
      </trkpt>
      <trkpt lat="35.531819276511669" lon="-5.179651631042361">
        <ele>146.7384033203125</ele>
        <time>2011-04-16T10:40:47Z</time>
      </trkpt>
      <trkpt lat="35.531596569344401" lon="-5.178995579481125">
        <ele>141.4510498046875</ele>
        <time>2011-04-16T10:40:53Z</time>
      </trkpt>
      <trkpt lat="35.531396409496665" lon="-5.177833093330264">
        <ele>133.2799072265625</ele>
        <time>2011-04-16T10:41:01Z</time>
      </trkpt>
      <trkpt lat="35.531321475282311" lon="-5.177353899925947">
        <ele>131.3572998046875</ele>
        <time>2011-04-16T10:41:07Z</time>
      </trkpt>
      <trkpt lat="35.530740609392524" lon="-5.176980905234814">
        <ele>128.9541015625</ele>
        <time>2011-04-16T10:41:13Z</time>
      </trkpt>
      <trkpt lat="35.529960757121444" lon="-5.176480254158378">
        <ele>126.0699462890625</ele>
        <time>2011-04-16T10:41:22Z</time>
      </trkpt>
      <trkpt lat="35.529259359464049" lon="-5.17629861831665">
        <ele>122.7054443359375</ele>
        <time>2011-04-16T10:41:29Z</time>
      </trkpt>
      <trkpt lat="35.528862476348877" lon="-5.17629861831665">
        <ele>120.7828369140625</ele>
        <time>2011-04-16T10:41:34Z</time>
      </trkpt>
      <trkpt lat="35.528407590463758" lon="-5.176908737048507">
        <ele>118.37939453125</ele>
        <time>2011-04-16T10:41:39Z</time>
      </trkpt>
      <trkpt lat="35.528307342901826" lon="-5.177428498864174">
        <ele>114.0535888671875</ele>
        <time>2011-04-16T10:41:44Z</time>
      </trkpt>
      <trkpt lat="35.528091844171286" lon="-5.177491195499897">
        <ele>113.09228515625</ele>
        <time>2011-04-16T10:41:48Z</time>
      </trkpt>
      <trkpt lat="35.527987321838737" lon="-5.177345853298903">
        <ele>112.611572265625</ele>
        <time>2011-04-16T10:41:50Z</time>
      </trkpt>
      <trkpt lat="35.527598150074482" lon="-5.177004123106599">
        <ele>111.1695556640625</ele>
        <time>2011-04-16T10:41:56Z</time>
      </trkpt>
      <trkpt lat="35.527192549780011" lon="-5.176807064563036">
        <ele>106.363037109375</ele>
        <time>2011-04-16T10:42:03Z</time>
      </trkpt>
      <trkpt lat="35.527208056300879" lon="-5.176584525033832">
        <ele>104.9210205078125</ele>
        <time>2011-04-16T10:42:05Z</time>
      </trkpt>
      <trkpt lat="35.52730293944478" lon="-5.175852617248893">
        <ele>100.114501953125</ele>
        <time>2011-04-16T10:42:11Z</time>
      </trkpt>
      <trkpt lat="35.527135888114572" lon="-5.175328748300672">
        <ele>96.7498779296875</ele>
        <time>2011-04-16T10:42:17Z</time>
      </trkpt>
      <trkpt lat="35.52706447429955" lon="-5.175249623134732">
        <ele>96.269287109375</ele>
        <time>2011-04-16T10:42:18Z</time>
      </trkpt>
      <trkpt lat="35.526642529293895" lon="-5.174420652911067">
        <ele>93.8658447265625</ele>
        <time>2011-04-16T10:42:22Z</time>
      </trkpt>
      <trkpt lat="35.526610258966684" lon="-5.174234574660659">
        <ele>90.98193359375</ele>
        <time>2011-04-16T10:42:30Z</time>
      </trkpt>
      <trkpt lat="35.526398783549666" lon="-5.173781532794237">
        <ele>90.5013427734375</ele>
        <time>2011-04-16T10:42:36Z</time>
      </trkpt>
      <trkpt lat="35.526032075285912" lon="-5.173728223890066">
        <ele>89.059326171875</ele>
        <time>2011-04-16T10:42:41Z</time>
      </trkpt>
      <trkpt lat="35.525886733084917" lon="-5.173977334052324">
        <ele>88.0980224609375</ele>
        <time>2011-04-16T10:42:44Z</time>
      </trkpt>
      <trkpt lat="35.525721525773406" lon="-5.174727765843272">
        <ele>85.2139892578125</ele>
        <time>2011-04-16T10:42:49Z</time>
      </trkpt>
      <trkpt lat="35.525429919362068" lon="-5.174915604293346">
        <ele>83.2913818359375</ele>
        <time>2011-04-16T10:42:54Z</time>
      </trkpt>
      <trkpt lat="35.524883922189474" lon="-5.174399530515075">
        <ele>79.446044921875</ele>
        <time>2011-04-16T10:43:00Z</time>
      </trkpt>
      <trkpt lat="35.524379918351769" lon="-5.174288554117084">
        <ele>76.5621337890625</ele>
        <time>2011-04-16T10:43:06Z</time>
      </trkpt>
      <trkpt lat="35.524253854528069" lon="-5.174629194661975">
        <ele>73.1976318359375</ele>
        <time>2011-04-16T10:43:10Z</time>
      </trkpt>
      <trkpt lat="35.52428662776947" lon="-5.174845196306706">
        <ele>71.7554931640625</ele>
        <time>2011-04-16T10:43:12Z</time>
      </trkpt>
      <trkpt lat="35.524404561147094" lon="-5.175692439079285">
        <ele>68.390869140625</ele>
        <time>2011-04-16T10:43:18Z</time>
      </trkpt>
      <trkpt lat="35.524004325270653" lon="-5.175848426297307">
        <ele>67.4296875</ele>
        <time>2011-04-16T10:43:22Z</time>
      </trkpt>
      <trkpt lat="35.523711293935776" lon="-5.175877260044217">
        <ele>65.9876708984375</ele>
        <time>2011-04-16T10:43:25Z</time>
      </trkpt>
      <trkpt lat="35.523189101368189" lon="-5.175928641110659">
        <ele>61.1810302734375</ele>
        <time>2011-04-16T10:43:31Z</time>
      </trkpt>
      <trkpt lat="35.523048872128129" lon="-5.175717584788799">
        <ele>58.297119140625</ele>
        <time>2011-04-16T10:43:35Z</time>
      </trkpt>
      <trkpt lat="35.523141995072365" lon="-5.175933334976435">
        <ele>56.8551025390625</ele>
        <time>2011-04-16T10:43:37Z</time>
      </trkpt>
      <trkpt lat="35.523295970633626" lon="-5.175918163731694">
        <ele>53.490478515625</ele>
        <time>2011-04-16T10:43:40Z</time>
      </trkpt>
      <trkpt lat="35.523433769121766" lon="-5.176622159779072">
        <ele>50.1259765625</ele>
        <time>2011-04-16T10:43:46Z</time>
      </trkpt>
      <trkpt lat="35.523328240960836" lon="-5.176766747608781">
        <ele>49.645263671875</ele>
        <time>2011-04-16T10:43:51Z</time>
      </trkpt>
      <trkpt lat="35.523236878216267" lon="-5.176745289936662">
        <ele>48.6839599609375</ele>
        <time>2011-04-16T10:44:25Z</time>
      </trkpt>
      <trkpt lat="35.522992629557848" lon="-5.176646467298269">
        <ele>46.2806396484375</ele>
        <time>2011-04-16T10:44:30Z</time>
      </trkpt>
      <trkpt lat="35.522226858884096" lon="-5.176023272797465">
        <ele>39.0706787109375</ele>
        <time>2011-04-16T10:44:38Z</time>
      </trkpt>
      <trkpt lat="35.521731907501817" lon="-5.176072055473924">
        <ele>32.341552734375</ele>
        <time>2011-04-16T10:44:44Z</time>
      </trkpt>
      <trkpt lat="35.521545493975282" lon="-5.176158472895622">
        <ele>31.8607177734375</ele>
        <time>2011-04-16T10:44:45Z</time>
      </trkpt>
      <trkpt lat="35.521398978307843" lon="-5.176328038796783">
        <ele>31.380126953125</ele>
        <time>2011-04-16T10:44:47Z</time>
      </trkpt>
      <trkpt lat="35.521122291684151" lon="-5.176648562774062">
        <ele>28.9769287109375</ele>
        <time>2011-04-16T10:44:51Z</time>
      </trkpt>
      <trkpt lat="35.520841581746936" lon="-5.176973612979055">
        <ele>26.0928955078125</ele>
        <time>2011-04-16T10:44:55Z</time>
      </trkpt>
      <trkpt lat="35.520638069137931" lon="-5.177209228277206">
        <ele>22.24755859375</ele>
        <time>2011-04-16T10:45:00Z</time>
      </trkpt>
      <trkpt lat="35.519928289577365" lon="-5.177931329235435">
        <ele>18.40234375</ele>
        <time>2011-04-16T10:45:07Z</time>
      </trkpt>
      <trkpt lat="35.519593516364694" lon="-5.177878439426422">
        <ele>18.883056640625</ele>
        <time>2011-04-16T10:45:12Z</time>
      </trkpt>
      <trkpt lat="35.519537022337317" lon="-5.177541822195053">
        <ele>17.441162109375</ele>
        <time>2011-04-16T10:45:16Z</time>
      </trkpt>
      <trkpt lat="35.519579770043492" lon="-5.17744199372828">
        <ele>17.441162109375</ele>
        <time>2011-04-16T10:45:17Z</time>
      </trkpt>
      <trkpt lat="35.520312851294875" lon="-5.176466340199113">
        <ele>20.324951171875</ele>
        <time>2011-04-16T10:45:24Z</time>
      </trkpt>
      <trkpt lat="35.520294662564993" lon="-5.176211530342698">
        <ele>21.286376953125</ele>
        <time>2011-04-16T10:45:26Z</time>
      </trkpt>
      <trkpt lat="35.520625915378332" lon="-5.175141664221883">
        <ele>24.6510009765625</ele>
        <time>2011-04-16T10:45:33Z</time>
      </trkpt>
      <trkpt lat="35.52104945294559" lon="-5.174641432240605">
        <ele>28.0155029296875</ele>
        <time>2011-04-16T10:45:38Z</time>
      </trkpt>
      <trkpt lat="35.521179288625717" lon="-5.17409099265933">
        <ele>30.4188232421875</ele>
        <time>2011-04-16T10:45:42Z</time>
      </trkpt>
      <trkpt lat="35.521324798464775" lon="-5.173474252223969">
        <ele>32.822265625</ele>
        <time>2011-04-16T10:45:46Z</time>
      </trkpt>
      <trkpt lat="35.521463267505169" lon="-5.172848794609308">
        <ele>35.7060546875</ele>
        <time>2011-04-16T10:45:50Z</time>
      </trkpt>
      <trkpt lat="35.521554630249739" lon="-5.172320986166596">
        <ele>40.5128173828125</ele>
        <time>2011-04-16T10:45:54Z</time>
      </trkpt>
      <trkpt lat="35.521684885025024" lon="-5.171568039804697">
        <ele>50.1259765625</ele>
        <time>2011-04-16T10:46:00Z</time>
      </trkpt>
      <trkpt lat="35.521162357181311" lon="-5.171015337109566">
        <ele>53.009765625</ele>
        <time>2011-04-16T10:46:04Z</time>
      </trkpt>
      <trkpt lat="35.520494151860476" lon="-5.170244872570038">
        <ele>56.37451171875</ele>
        <time>2011-04-16T10:46:12Z</time>
      </trkpt>
      <trkpt lat="35.520447380840778" lon="-5.169782945886254">
        <ele>57.8165283203125</ele>
        <time>2011-04-16T10:46:17Z</time>
      </trkpt>
      <trkpt lat="35.520516028627753" lon="-5.169700970873237">
        <ele>58.297119140625</ele>
        <time>2011-04-16T10:46:18Z</time>
      </trkpt>
      <trkpt lat="35.521072838455439" lon="-5.168712493032217">
        <ele>65.507080078125</ele>
        <time>2011-04-16T10:46:26Z</time>
      </trkpt>
      <trkpt lat="35.520899752154946" lon="-5.168225336819887">
        <ele>70.794189453125</ele>
        <time>2011-04-16T10:46:31Z</time>
      </trkpt>
      <trkpt lat="35.520482249557972" lon="-5.167665341868997">
        <ele>76.0814208984375</ele>
        <time>2011-04-16T10:46:36Z</time>
      </trkpt>
      <trkpt lat="35.52024663425982" lon="-5.167349260300398">
        <ele>78.9654541015625</ele>
        <time>2011-04-16T10:46:39Z</time>
      </trkpt>
      <trkpt lat="35.519856121391058" lon="-5.166825475171208">
        <ele>81.849365234375</ele>
        <time>2011-04-16T10:46:46Z</time>
      </trkpt>
      <trkpt lat="35.519373072311282" lon="-5.166224827989936">
        <ele>90.5013427734375</ele>
        <time>2011-04-16T10:46:56Z</time>
      </trkpt>
      <trkpt lat="35.518884491175413" lon="-5.165824089199305">
        <ele>94.3465576171875</ele>
        <time>2011-04-16T10:47:03Z</time>
      </trkpt>
      <trkpt lat="35.518672512844205" lon="-5.165650164708495">
        <ele>94.3465576171875</ele>
        <time>2011-04-16T10:47:06Z</time>
      </trkpt>
      <trkpt lat="35.518041104078293" lon="-5.165132414549589">
        <ele>93.8658447265625</ele>
        <time>2011-04-16T10:47:15Z</time>
      </trkpt>
      <trkpt lat="35.517897270619869" lon="-5.165014397352934">
        <ele>93.3851318359375</ele>
        <time>2011-04-16T10:47:17Z</time>
      </trkpt>
      <trkpt lat="35.517299892380834" lon="-5.164378713816404">
        <ele>94.8271484375</ele>
        <time>2011-04-16T10:47:25Z</time>
      </trkpt>
      <trkpt lat="35.516576869413257" lon="-5.163372214883566">
        <ele>99.6337890625</ele>
        <time>2011-04-16T10:47:35Z</time>
      </trkpt>
      <trkpt lat="35.515532735735178" lon="-5.162800988182426">
        <ele>99.6337890625</ele>
        <time>2011-04-16T10:47:44Z</time>
      </trkpt>
      <trkpt lat="35.51523232832551" lon="-5.162668637931347">
        <ele>99.153076171875</ele>
        <time>2011-04-16T10:47:47Z</time>
      </trkpt>
      <trkpt lat="35.514781968668103" lon="-5.162299498915672">
        <ele>96.7498779296875</ele>
        <time>2011-04-16T10:47:53Z</time>
      </trkpt>
      <trkpt lat="35.514359939843416" lon="-5.161938993260264">
        <ele>96.269287109375</ele>
        <time>2011-04-16T10:48:00Z</time>
      </trkpt>
      <trkpt lat="35.514230942353606" lon="-5.161828687414527">
        <ele>97.23046875</ele>
        <time>2011-04-16T10:48:02Z</time>
      </trkpt>
      <trkpt lat="35.513618644326925" lon="-5.161166600883007">
        <ele>99.6337890625</ele>
        <time>2011-04-16T10:48:10Z</time>
      </trkpt>
      <trkpt lat="35.513303149491549" lon="-5.160786230117083">
        <ele>100.5950927734375</ele>
        <time>2011-04-16T10:48:14Z</time>
      </trkpt>
      <trkpt lat="35.512704933062196" lon="-5.160366464406252">
        <ele>102.037109375</ele>
        <time>2011-04-16T10:48:21Z</time>
      </trkpt>
      <trkpt lat="35.512617845088243" lon="-5.160306701436639">
        <ele>101.556396484375</ele>
        <time>2011-04-16T10:48:22Z</time>
      </trkpt>
      <trkpt lat="35.511914351955056" lon="-5.160062620416284">
        <ele>98.6724853515625</ele>
        <time>2011-04-16T10:48:30Z</time>
      </trkpt>
      <trkpt lat="35.511381262913346" lon="-5.160298151895404">
        <ele>94.3465576171875</ele>
        <time>2011-04-16T10:48:36Z</time>
      </trkpt>
      <trkpt lat="35.511202812194824" lon="-5.160377025604248">
        <ele>88.0980224609375</ele>
        <time>2011-04-16T10:48:40Z</time>
      </trkpt>
      <trkpt lat="35.511302221566439" lon="-5.160608952865005">
        <ele>81.3687744140625</ele>
        <time>2011-04-16T10:48:44Z</time>
      </trkpt>
      <trkpt lat="35.511435242369771" lon="-5.160919418558478">
        <ele>76.5621337890625</ele>
        <time>2011-04-16T10:48:47Z</time>
      </trkpt>
      <trkpt lat="35.511511601507664" lon="-5.161097701638937">
        <ele>73.67822265625</ele>
        <time>2011-04-16T10:48:49Z</time>
      </trkpt>
      <trkpt lat="35.511493664234877" lon="-5.161371203139424">
        <ele>65.9876708984375</ele>
        <time>2011-04-16T10:48:54Z</time>
      </trkpt>
      <trkpt lat="35.51145720295608" lon="-5.161657109856606">
        <ele>61.1810302734375</ele>
        <time>2011-04-16T10:48:58Z</time>
      </trkpt>
      <trkpt lat="35.511413868516684" lon="-5.161996241658926">
        <ele>58.297119140625</ele>
        <time>2011-04-16T10:49:02Z</time>
      </trkpt>
      <trkpt lat="35.51126366481185" lon="-5.162172513082624">
        <ele>55.893798828125</ele>
        <time>2011-04-16T10:49:04Z</time>
      </trkpt>
      <trkpt lat="35.51088304258883" lon="-5.162276364862919">
        <ele>49.645263671875</ele>
        <time>2011-04-16T10:49:09Z</time>
      </trkpt>
      <trkpt lat="35.510627059265971" lon="-5.162266977131367">
        <ele>36.66748046875</ele>
        <time>2011-04-16T10:49:13Z</time>
      </trkpt>
      <trkpt lat="35.510238725692034" lon="-5.161866154521704">
        <ele>41.9547119140625</ele>
        <time>2011-04-16T10:49:18Z</time>
      </trkpt>
      <trkpt lat="35.5099434312433" lon="-5.161648225039244">
        <ele>42.4354248046875</ele>
        <time>2011-04-16T10:49:21Z</time>
      </trkpt>
      <trkpt lat="35.509617039933801" lon="-5.161669934168458">
        <ele>45.3192138671875</ele>
        <time>2011-04-16T10:49:28Z</time>
      </trkpt>
      <trkpt lat="35.509378910064697" lon="-5.161685943603516">
        <ele>49.645263671875</ele>
        <time>2011-04-16T10:49:37Z</time>
      </trkpt>
      <trkpt lat="35.509270615875721" lon="-5.161916948854923">
        <ele>46.2806396484375</ele>
        <time>2011-04-16T10:49:44Z</time>
      </trkpt>
      <trkpt lat="35.509173050522804" lon="-5.162125071510673">
        <ele>43.3966064453125</ele>
        <time>2011-04-16T10:49:48Z</time>
      </trkpt>
      <trkpt lat="35.509047824889421" lon="-5.162392286583781">
        <ele>39.0706787109375</ele>
        <time>2011-04-16T10:49:52Z</time>
      </trkpt>
      <trkpt lat="35.508855544030666" lon="-5.162802496924996">
        <ele>33.3028564453125</ele>
        <time>2011-04-16T10:49:57Z</time>
      </trkpt>
      <trkpt lat="35.50872478634119" lon="-5.163090499117971">
        <ele>32.822265625</ele>
        <time>2011-04-16T10:50:02Z</time>
      </trkpt>
      <trkpt lat="35.50858405418694" lon="-5.163512695580721">
        <ele>28.9769287109375</ele>
        <time>2011-04-16T10:50:07Z</time>
      </trkpt>
      <trkpt lat="35.5085429828614" lon="-5.163635993376374">
        <ele>27.534912109375</ele>
        <time>2011-04-16T10:50:09Z</time>
      </trkpt>
      <trkpt lat="35.508471233770251" lon="-5.163851240649819">
        <ele>25.1317138671875</ele>
        <time>2011-04-16T10:50:13Z</time>
      </trkpt>
      <trkpt lat="35.508348941802979" lon="-5.164217948913574">
        <ele>9.2698974609375</ele>
        <time>2011-04-16T10:50:19Z</time>
      </trkpt>
      <trkpt lat="35.508341817185283" lon="-5.164632685482502">
        <ele>8.7891845703125</ele>
        <time>2011-04-16T10:50:24Z</time>
      </trkpt>
      <trkpt lat="35.508348941802979" lon="-5.164217948913574">
        <ele>11.6732177734375</ele>
        <time>2011-04-16T10:50:28Z</time>
      </trkpt>
      <trkpt lat="35.507750557735562" lon="-5.163148837164044">
        <ele>7.827880859375</ele>
        <time>2011-04-16T10:50:40Z</time>
      </trkpt>
      <trkpt lat="35.507782828062773" lon="-5.161806140094996">
        <ele>6.866455078125</ele>
        <time>2011-04-16T10:50:51Z</time>
      </trkpt>
      <trkpt lat="35.507812919095159" lon="-5.160566456615925">
        <ele>9.7506103515625</ele>
        <time>2011-04-16T10:51:00Z</time>
      </trkpt>
      <trkpt lat="35.507976617664099" lon="-5.159281929954886">
        <ele>12.15380859375</ele>
        <time>2011-04-16T10:51:09Z</time>
      </trkpt>
      <trkpt lat="35.508188344538212" lon="-5.157605968415737">
        <ele>15.9990234375</ele>
        <time>2011-04-16T10:51:21Z</time>
      </trkpt>
      <trkpt lat="35.508251963183284" lon="-5.157097270712256">
        <ele>17.9217529296875</ele>
        <time>2011-04-16T10:51:25Z</time>
      </trkpt>
      <trkpt lat="35.508221201598644" lon="-5.156628135591745">
        <ele>20.324951171875</ele>
        <time>2011-04-16T10:51:31Z</time>
      </trkpt>
      <trkpt lat="35.508079463616014" lon="-5.15656678006053">
        <ele>20.8056640625</ele>
        <time>2011-04-16T10:51:33Z</time>
      </trkpt>
      <trkpt lat="35.507619716227055" lon="-5.156367542222142">
        <ele>23.208984375</ele>
        <time>2011-04-16T10:51:38Z</time>
      </trkpt>
      <trkpt lat="35.507107330486178" lon="-5.156145505607128">
        <ele>22.728271484375</ele>
        <time>2011-04-16T10:51:44Z</time>
      </trkpt>
      <trkpt lat="35.506871463730931" lon="-5.156062943860889">
        <ele>16.96044921875</ele>
        <time>2011-04-16T10:51:47Z</time>
      </trkpt>
      <trkpt lat="35.506390426307917" lon="-5.155918523669243">
        <ele>20.324951171875</ele>
        <time>2011-04-16T10:51:53Z</time>
      </trkpt>
      <trkpt lat="35.506070405244827" lon="-5.15582263469696">
        <ele>22.728271484375</ele>
        <time>2011-04-16T10:51:58Z</time>
      </trkpt>
      <trkpt lat="35.505602108314633" lon="-5.155682153999806">
        <ele>23.6895751953125</ele>
        <time>2011-04-16T10:52:04Z</time>
      </trkpt>
      <trkpt lat="35.505228945985436" lon="-5.155304549261928">
        <ele>23.6895751953125</ele>
        <time>2011-04-16T10:52:11Z</time>
      </trkpt>
      <trkpt lat="35.505016716197133" lon="-5.155044961720705">
        <ele>24.6510009765625</ele>
        <time>2011-04-16T10:52:16Z</time>
      </trkpt>
      <trkpt lat="35.504851508885622" lon="-5.154842957854271">
        <ele>26.0928955078125</ele>
        <time>2011-04-16T10:52:20Z</time>
      </trkpt>
      <trkpt lat="35.504722762852907" lon="-5.154930464923382">
        <ele>26.0928955078125</ele>
        <time>2011-04-16T10:52:21Z</time>
      </trkpt>
      <trkpt lat="35.504595274105668" lon="-5.154529558494687">
        <ele>28.9769287109375</ele>
        <time>2011-04-16T10:52:27Z</time>
      </trkpt>
      <trkpt lat="35.50420643761754" lon="-5.154053885489702">
        <ele>32.822265625</ele>
        <time>2011-04-16T10:52:33Z</time>
      </trkpt>
      <trkpt lat="35.504097305238247" lon="-5.15392036177218">
        <ele>34.26416015625</ele>
        <time>2011-04-16T10:52:35Z</time>
      </trkpt>
      <trkpt lat="35.503988256677985" lon="-5.15378700569272">
        <ele>35.7060546875</ele>
        <time>2011-04-16T10:52:37Z</time>
      </trkpt>
      <trkpt lat="35.503681395202875" lon="-5.153411580249667">
        <ele>39.55126953125</ele>
        <time>2011-04-16T10:52:42Z</time>
      </trkpt>
      <trkpt lat="35.503470506519079" lon="-5.153153669089079">
        <ele>42.4354248046875</ele>
        <time>2011-04-16T10:52:45Z</time>
      </trkpt>
      <trkpt lat="35.50317982211709" lon="-5.152798192575574">
        <ele>45.3192138671875</ele>
        <time>2011-04-16T10:52:49Z</time>
      </trkpt>
      <trkpt lat="35.502401730045676" lon="-5.151935443282127">
        <ele>51.087158203125</ele>
        <time>2011-04-16T10:52:58Z</time>
      </trkpt>
      <trkpt lat="35.501562869176269" lon="-5.151014355942607">
        <ele>63.1036376953125</ele>
        <time>2011-04-16T10:53:10Z</time>
      </trkpt>
      <trkpt lat="35.500803720206022" lon="-5.15014473348856">
        <ele>67.9102783203125</ele>
        <time>2011-04-16T10:53:20Z</time>
      </trkpt>
      <trkpt lat="35.500324191525578" lon="-5.149475689977408">
        <ele>71.27490234375</ele>
        <time>2011-04-16T10:53:27Z</time>
      </trkpt>
      <trkpt lat="35.499900318682194" lon="-5.148885017260909">
        <ele>76.0814208984375</ele>
        <time>2011-04-16T10:53:33Z</time>
      </trkpt>
      <trkpt lat="35.499684400856495" lon="-5.148585280403495">
        <ele>78.9654541015625</ele>
        <time>2011-04-16T10:53:38Z</time>
      </trkpt>
      <trkpt lat="35.499301012605429" lon="-5.148053364828229">
        <ele>79.446044921875</ele>
        <time>2011-04-16T10:53:48Z</time>
      </trkpt>
      <trkpt lat="35.498991385102272" lon="-5.147623708471656">
        <ele>79.9266357421875</ele>
        <time>2011-04-16T10:53:57Z</time>
      </trkpt>
      <trkpt lat="35.498753171414137" lon="-5.147344842553139">
        <ele>79.9266357421875</ele>
        <time>2011-04-16T10:54:02Z</time>
      </trkpt>
      <trkpt lat="35.498493248596787" lon="-5.147052481770515">
        <ele>81.849365234375</ele>
        <time>2011-04-16T10:54:06Z</time>
      </trkpt>
      <trkpt lat="35.497878771275282" lon="-5.146380923688412">
        <ele>89.059326171875</ele>
        <time>2011-04-16T10:54:16Z</time>
      </trkpt>
      <trkpt lat="35.497455820441246" lon="-5.146105159074068">
        <ele>93.8658447265625</ele>
        <time>2011-04-16T10:54:23Z</time>
      </trkpt>
      <trkpt lat="35.497192125767469" lon="-5.145933078601956">
        <ele>96.269287109375</ele>
        <time>2011-04-16T10:54:27Z</time>
      </trkpt>
      <trkpt lat="35.496864896267653" lon="-5.145744485780597">
        <ele>99.6337890625</ele>
        <time>2011-04-16T10:54:32Z</time>
      </trkpt>
      <trkpt lat="35.496002146974206" lon="-5.145494118332863">
        <ele>110.6888427734375</ele>
        <time>2011-04-16T10:54:43Z</time>
      </trkpt>
      <trkpt lat="35.495549021288753" lon="-5.145437875762582">
        <ele>116.9375</ele>
        <time>2011-04-16T10:54:50Z</time>
      </trkpt>
      <trkpt lat="35.495295720174909" lon="-5.145718418061733">
        <ele>119.3408203125</ele>
        <time>2011-04-16T10:54:54Z</time>
      </trkpt>
      <trkpt lat="35.494994223117828" lon="-5.146055035293102">
        <ele>122.2247314453125</ele>
        <time>2011-04-16T10:54:59Z</time>
      </trkpt>
      <trkpt lat="35.494666071608663" lon="-5.146535653620958">
        <ele>125.1087646484375</ele>
        <time>2011-04-16T10:55:06Z</time>
      </trkpt>
      <trkpt lat="35.494605135172606" lon="-5.146624837070704">
        <ele>125.1087646484375</ele>
        <time>2011-04-16T10:55:10Z</time>
      </trkpt>
      <trkpt lat="35.494403801858425" lon="-5.146919712424278">
        <ele>125.58935546875</ele>
        <time>2011-04-16T10:55:16Z</time>
      </trkpt>
      <trkpt lat="35.49399652518332" lon="-5.147341070696712">
        <ele>128.473388671875</ele>
        <time>2011-04-16T10:55:25Z</time>
      </trkpt>
      <trkpt lat="35.493834083899856" lon="-5.147508708760142">
        <ele>123.1861572265625</ele>
        <time>2011-04-16T10:55:28Z</time>
      </trkpt>
      <trkpt lat="35.493330163881183" lon="-5.147644998505712">
        <ele>123.666748046875</ele>
        <time>2011-04-16T10:55:33Z</time>
      </trkpt>
      <trkpt lat="35.492942165583372" lon="-5.147779863327742">
        <ele>123.666748046875</ele>
        <time>2011-04-16T10:55:38Z</time>
      </trkpt>
      <trkpt lat="35.492496499791741" lon="-5.14794984832406">
        <ele>126.5506591796875</ele>
        <time>2011-04-16T10:55:44Z</time>
      </trkpt>
      <trkpt lat="35.492275217548013" lon="-5.147594623267651">
        <ele>132.79931640625</ele>
        <time>2011-04-16T10:55:48Z</time>
      </trkpt>
      <trkpt lat="35.492448806762695" lon="-5.146536827087402">
        <ele>139.0478515625</ele>
        <time>2011-04-16T10:55:55Z</time>
      </trkpt>
      <trkpt lat="35.492536230012774" lon="-5.146044809371233">
        <ele>140.970458984375</ele>
        <time>2011-04-16T10:56:00Z</time>
      </trkpt>
      <trkpt lat="35.492728594690561" lon="-5.145400241017342">
        <ele>140.0091552734375</ele>
        <time>2011-04-16T10:56:05Z</time>
      </trkpt>
      <trkpt lat="35.492854407057166" lon="-5.145201506093144">
        <ele>139.5284423828125</ele>
        <time>2011-04-16T10:56:07Z</time>
      </trkpt>
      <trkpt lat="35.493169398978353" lon="-5.144703621044755">
        <ele>139.5284423828125</ele>
        <time>2011-04-16T10:56:12Z</time>
      </trkpt>
      <trkpt lat="35.493242740631104" lon="-5.143060684204102">
        <ele>138.0865478515625</ele>
        <time>2011-04-16T10:56:23Z</time>
      </trkpt>
      <trkpt lat="35.493124220520258" lon="-5.142478896304965">
        <ele>140.0091552734375</ele>
        <time>2011-04-16T10:56:27Z</time>
      </trkpt>
      <trkpt lat="35.492991870269179" lon="-5.141828879714012">
        <ele>141.9317626953125</ele>
        <time>2011-04-16T10:56:31Z</time>
      </trkpt>
      <trkpt lat="35.492667239159346" lon="-5.140435807406902">
        <ele>145.29638671875</ele>
        <time>2011-04-16T10:56:40Z</time>
      </trkpt>
      <trkpt lat="35.492478730157018" lon="-5.139875477179885">
        <ele>146.2578125</ele>
        <time>2011-04-16T10:56:44Z</time>
      </trkpt>
      <trkpt lat="35.492293238639832" lon="-5.139323780313134">
        <ele>146.7384033203125</ele>
        <time>2011-04-16T10:56:48Z</time>
      </trkpt>
      <trkpt lat="35.491812620311975" lon="-5.138028943911195">
        <ele>151.544921875</ele>
        <time>2011-04-16T10:56:58Z</time>
      </trkpt>
      <trkpt lat="35.491580944508314" lon="-5.137529047206044">
        <ele>155.3902587890625</ele>
        <time>2011-04-16T10:57:02Z</time>
      </trkpt>
      <trkpt lat="35.490955989807844" lon="-5.13653252273798">
        <ele>159.7161865234375</ele>
        <time>2011-04-16T10:57:10Z</time>
      </trkpt>
      <trkpt lat="35.490539073944092" lon="-5.13587236404419">
        <ele>163.080810546875</ele>
        <time>2011-04-16T10:57:17Z</time>
      </trkpt>
      <trkpt lat="35.490447795018554" lon="-5.13512427918613">
        <ele>164.522705078125</ele>
        <time>2011-04-16T10:57:22Z</time>
      </trkpt>
      <trkpt lat="35.489779841154814" lon="-5.135538429021835">
        <ele>164.522705078125</ele>
        <time>2011-04-16T10:57:27Z</time>
      </trkpt>
      <trkpt lat="35.48944984562695" lon="-5.135405156761408">
        <ele>162.60009765625</ele>
        <time>2011-04-16T10:57:32Z</time>
      </trkpt>
      <trkpt lat="35.488961851224303" lon="-5.135555109009147">
        <ele>162.1195068359375</ele>
        <time>2011-04-16T10:57:37Z</time>
      </trkpt>
      <trkpt lat="35.488480813801289" lon="-5.135702714323998">
        <ele>162.60009765625</ele>
        <time>2011-04-16T10:57:42Z</time>
      </trkpt>
      <trkpt lat="35.488098682835698" lon="-5.135819977149367">
        <ele>164.0421142578125</ele>
        <time>2011-04-16T10:57:47Z</time>
      </trkpt>
      <trkpt lat="35.487649664282799" lon="-5.135957775637507">
        <ele>154.9095458984375</ele>
        <time>2011-04-16T10:57:51Z</time>
      </trkpt>
      <trkpt lat="35.487412540242076" lon="-5.136030530557036">
        <ele>153.9483642578125</ele>
        <time>2011-04-16T10:57:53Z</time>
      </trkpt>
      <trkpt lat="35.486487932503223" lon="-5.13644652441144">
        <ele>150.5836181640625</ele>
        <time>2011-04-16T10:58:01Z</time>
      </trkpt>
      <trkpt lat="35.485761053860188" lon="-5.13678808696568">
        <ele>150.10302734375</ele>
        <time>2011-04-16T10:58:08Z</time>
      </trkpt>
      <trkpt lat="35.485348412767053" lon="-5.136935524642468">
        <ele>143.3736572265625</ele>
        <time>2011-04-16T10:58:12Z</time>
      </trkpt>
      <trkpt lat="35.485142972320318" lon="-5.136975757777691">
        <ele>145.777099609375</ele>
        <time>2011-04-16T10:58:14Z</time>
      </trkpt>
      <trkpt lat="35.484603680670261" lon="-5.137081537395716">
        <ele>146.2578125</ele>
        <time>2011-04-16T10:58:20Z</time>
      </trkpt>
      <trkpt lat="35.484423637390137" lon="-5.1371169090271">
        <ele>147.218994140625</ele>
        <time>2011-04-16T10:58:24Z</time>
      </trkpt>
      <trkpt lat="35.483924746513367" lon="-5.136811221018434">
        <ele>137.125244140625</ele>
        <time>2011-04-16T10:58:32Z</time>
      </trkpt>
      <trkpt lat="35.483758449554443" lon="-5.136709213256836">
        <ele>138.5672607421875</ele>
        <time>2011-04-16T10:58:36Z</time>
      </trkpt>
      <trkpt lat="35.483776805922389" lon="-5.136550795286894">
        <ele>140.4898681640625</ele>
        <time>2011-04-16T10:58:39Z</time>
      </trkpt>
      <trkpt lat="35.483855763450265" lon="-5.13587236404419">
        <ele>149.1416015625</ele>
        <time>2011-04-16T10:58:44Z</time>
      </trkpt>
      <trkpt lat="35.484119541943073" lon="-5.135377580299974">
        <ele>153.4676513671875</ele>
        <time>2011-04-16T10:58:49Z</time>
      </trkpt>
      <trkpt lat="35.484240660443902" lon="-5.135182533413172">
        <ele>155.3902587890625</ele>
        <time>2011-04-16T10:58:51Z</time>
      </trkpt>
      <trkpt lat="35.484553640708327" lon="-5.134678361937404">
        <ele>159.7161865234375</ele>
        <time>2011-04-16T10:58:56Z</time>
      </trkpt>
      <trkpt lat="35.484696635976434" lon="-5.134159857407212">
        <ele>160.677490234375</ele>
        <time>2011-04-16T10:59:00Z</time>
      </trkpt>
      <trkpt lat="35.484795290976763" lon="-5.133514534682035">
        <ele>163.080810546875</ele>
        <time>2011-04-16T10:59:05Z</time>
      </trkpt>
      <trkpt lat="35.484897717833519" lon="-5.132844904437661">
        <ele>168.3680419921875</ele>
        <time>2011-04-16T10:59:11Z</time>
      </trkpt>
      <trkpt lat="35.485183289274573" lon="-5.132052814587951">
        <ele>172.2132568359375</ele>
        <time>2011-04-16T10:59:18Z</time>
      </trkpt>
      <trkpt lat="35.485478416085243" lon="-5.130708441138268">
        <ele>176.539306640625</ele>
        <time>2011-04-16T10:59:27Z</time>
      </trkpt>
      <trkpt lat="35.485555361956358" lon="-5.129774613305926">
        <ele>182.30712890625</ele>
        <time>2011-04-16T10:59:33Z</time>
      </trkpt>
      <trkpt lat="35.485533652827144" lon="-5.129616446793079">
        <ele>183.2684326171875</ele>
        <time>2011-04-16T10:59:34Z</time>
      </trkpt>
      <trkpt lat="35.485427873209119" lon="-5.128865763545036">
        <ele>192.401123046875</ele>
        <time>2011-04-16T10:59:39Z</time>
      </trkpt>
      <trkpt lat="35.485327709466219" lon="-5.128595950081945">
        <ele>195.284912109375</ele>
        <time>2011-04-16T10:59:41Z</time>
      </trkpt>
      <trkpt lat="35.485078347846866" lon="-5.128008797764778">
        <ele>202.0142822265625</ele>
        <time>2011-04-16T10:59:46Z</time>
      </trkpt>
      <trkpt lat="35.484808115288615" lon="-5.12758526019752">
        <ele>206.340087890625</ele>
        <time>2011-04-16T10:59:50Z</time>
      </trkpt>
      <trkpt lat="35.484598651528358" lon="-5.127256857231259">
        <ele>209.22412109375</ele>
        <time>2011-04-16T10:59:53Z</time>
      </trkpt>
      <trkpt lat="35.484349289909005" lon="-5.126865170896053">
        <ele>211.146728515625</ele>
        <time>2011-04-16T10:59:57Z</time>
      </trkpt>
      <trkpt lat="35.484236469492316" lon="-5.126678002998233">
        <ele>211.62744140625</ele>
        <time>2011-04-16T10:59:59Z</time>
      </trkpt>
      <trkpt lat="35.483951400965452" lon="-5.126205179840326">
        <ele>213.550048828125</ele>
        <time>2011-04-16T11:00:04Z</time>
      </trkpt>
      <trkpt lat="35.48342015594244" lon="-5.125335305929184">
        <ele>210.1854248046875</ele>
        <time>2011-04-16T11:00:12Z</time>
      </trkpt>
      <trkpt lat="35.482964934781194" lon="-5.124666765332222">
        <ele>210.666015625</ele>
        <time>2011-04-16T11:00:18Z</time>
      </trkpt>
      <trkpt lat="35.48265689983964" lon="-5.124362418428063">
        <ele>210.666015625</ele>
        <time>2011-04-16T11:00:21Z</time>
      </trkpt>
      <trkpt lat="35.482112327590585" lon="-5.124155972152948">
        <ele>209.704833984375</ele>
        <time>2011-04-16T11:00:26Z</time>
      </trkpt>
      <trkpt lat="35.481279166415334" lon="-5.123924631625414">
        <ele>204.41748046875</ele>
        <time>2011-04-16T11:00:34Z</time>
      </trkpt>
      <trkpt lat="35.480528650805354" lon="-5.123942149803042">
        <ele>199.130126953125</ele>
        <time>2011-04-16T11:00:42Z</time>
      </trkpt>
      <trkpt lat="35.479783499613404" lon="-5.12411255389452">
        <ele>193.843017578125</ele>
        <time>2011-04-16T11:00:50Z</time>
      </trkpt>
      <trkpt lat="35.479931440204382" lon="-5.123907784000039">
        <ele>192.8817138671875</ele>
        <time>2011-04-16T11:00:52Z</time>
      </trkpt>
      <trkpt lat="35.479231970384717" lon="-5.124113475903869">
        <ele>180.865234375</ele>
        <time>2011-04-16T11:00:57Z</time>
      </trkpt>
      <trkpt lat="35.47959566116333" lon="-5.123448371887207">
        <ele>176.539306640625</ele>
        <time>2011-04-16T11:01:01Z</time>
      </trkpt>
      <trkpt lat="35.479537909850478" lon="-5.123124914243817">
        <ele>170.2906494140625</ele>
        <time>2011-04-16T11:01:05Z</time>
      </trkpt>
      <trkpt lat="35.479844100773335" lon="-5.122403064742684">
        <ele>164.0421142578125</ele>
        <time>2011-04-16T11:01:13Z</time>
      </trkpt>
      <trkpt lat="35.480118272826076" lon="-5.121552972123027">
        <ele>166.4453125</ele>
        <time>2011-04-16T11:01:19Z</time>
      </trkpt>
      <trkpt lat="35.480147860944271" lon="-5.121001191437244">
        <ele>165.484130859375</ele>
        <time>2011-04-16T11:01:24Z</time>
      </trkpt>
      <trkpt lat="35.479808393865824" lon="-5.119786653667688">
        <ele>159.7161865234375</ele>
        <time>2011-04-16T11:01:34Z</time>
      </trkpt>
      <trkpt lat="35.4793312959373" lon="-5.11895751580596">
        <ele>155.8709716796875</ele>
        <time>2011-04-16T11:01:42Z</time>
      </trkpt>
      <trkpt lat="35.478752860799432" lon="-5.118156708776951">
        <ele>152.50634765625</ele>
        <time>2011-04-16T11:01:51Z</time>
      </trkpt>
      <trkpt lat="35.478394534438848" lon="-5.117682460695505">
        <ele>152.50634765625</ele>
        <time>2011-04-16T11:01:57Z</time>
      </trkpt>
      <trkpt lat="35.478203929960728" lon="-5.117517588660121">
        <ele>152.50634765625</ele>
        <time>2011-04-16T11:02:00Z</time>
      </trkpt>
      <trkpt lat="35.478010643273592" lon="-5.117350285872817">
        <ele>153.4676513671875</ele>
        <time>2011-04-16T11:02:03Z</time>
      </trkpt>
      <trkpt lat="35.477610575035214" lon="-5.117004197090864">
        <ele>152.50634765625</ele>
        <time>2011-04-16T11:02:08Z</time>
      </trkpt>
      <trkpt lat="35.477417958900332" lon="-5.116837397217751">
        <ele>152.50634765625</ele>
        <time>2011-04-16T11:02:10Z</time>
      </trkpt>
      <trkpt lat="35.476903226226568" lon="-5.116179501637816">
        <ele>151.064208984375</ele>
        <time>2011-04-16T11:02:16Z</time>
      </trkpt>
      <trkpt lat="35.475904019549489" lon="-5.114807048812509">
        <ele>146.2578125</ele>
        <time>2011-04-16T11:02:27Z</time>
      </trkpt>
      <trkpt lat="35.47480758279562" lon="-5.113069983199239">
        <ele>137.125244140625</ele>
        <time>2011-04-16T11:02:40Z</time>
      </trkpt>
      <trkpt lat="35.474429642781615" lon="-5.111714042723179">
        <ele>129.4346923828125</ele>
        <time>2011-04-16T11:02:50Z</time>
      </trkpt>
      <trkpt lat="35.474263513460755" lon="-5.110785998404026">
        <ele>124.6280517578125</ele>
        <time>2011-04-16T11:02:58Z</time>
      </trkpt>
      <trkpt lat="35.474170977249742" lon="-5.110006565228105">
        <ele>119.3408203125</ele>
        <time>2011-04-16T11:03:04Z</time>
      </trkpt>
      <trkpt lat="35.474247001111507" lon="-5.109446067363024">
        <ele>114.5341796875</ele>
        <time>2011-04-16T11:03:08Z</time>
      </trkpt>
      <trkpt lat="35.474322186782956" lon="-5.108891855925322">
        <ele>108.7662353515625</ele>
        <time>2011-04-16T11:03:13Z</time>
      </trkpt>
      <trkpt lat="35.474282624199986" lon="-5.108633441850543">
        <ele>103.47900390625</ele>
        <time>2011-04-16T11:03:18Z</time>
      </trkpt>
      <trkpt lat="35.474165780469775" lon="-5.108345272019506">
        <ele>101.556396484375</ele>
        <time>2011-04-16T11:03:21Z</time>
      </trkpt>
      <trkpt lat="35.473220469430089" lon="-5.107627864927054">
        <ele>96.269287109375</ele>
        <time>2011-04-16T11:03:32Z</time>
      </trkpt>
      <trkpt lat="35.472777737304568" lon="-5.107443379238248">
        <ele>94.3465576171875</ele>
        <time>2011-04-16T11:03:37Z</time>
      </trkpt>
      <trkpt lat="35.472022108733654" lon="-5.107128638774157">
        <ele>84.252685546875</ele>
        <time>2011-04-16T11:03:44Z</time>
      </trkpt>
      <trkpt lat="35.471076546236873" lon="-5.106874834746122">
        <ele>72.7169189453125</ele>
        <time>2011-04-16T11:03:51Z</time>
      </trkpt>
      <trkpt lat="35.470425188541412" lon="-5.10625172406435">
        <ele>69.352294921875</ele>
        <time>2011-04-16T11:03:58Z</time>
      </trkpt>
      <trkpt lat="35.469581969082355" lon="-5.10548260062933">
        <ele>63.5843505859375</ele>
        <time>2011-04-16T11:04:06Z</time>
      </trkpt>
      <trkpt lat="35.469195898622274" lon="-5.10524807497859">
        <ele>57.8165283203125</ele>
        <time>2011-04-16T11:04:11Z</time>
      </trkpt>
      <trkpt lat="35.469076288864017" lon="-5.105669684708118">
        <ele>54.4517822265625</ele>
        <time>2011-04-16T11:04:14Z</time>
      </trkpt>
      <trkpt lat="35.468811588361859" lon="-5.106026334688067">
        <ele>43.8773193359375</ele>
        <time>2011-04-16T11:04:20Z</time>
      </trkpt>
      <trkpt lat="35.468673706054688" lon="-5.105209350585938">
        <ele>42.916015625</ele>
        <time>2011-04-16T11:04:24Z</time>
      </trkpt>
      <trkpt lat="35.468426188454032" lon="-5.104945991188288">
        <ele>38.590087890625</ele>
        <time>2011-04-16T11:04:28Z</time>
      </trkpt>
      <trkpt lat="35.468110358342528" lon="-5.104610128328204">
        <ele>35.2254638671875</ele>
        <time>2011-04-16T11:04:32Z</time>
      </trkpt>
      <trkpt lat="35.467688413336873" lon="-5.104161277413368">
        <ele>32.341552734375</ele>
        <time>2011-04-16T11:04:38Z</time>
      </trkpt>
      <trkpt lat="35.467568803578615" lon="-5.104010822251439">
        <ele>30.4188232421875</ele>
        <time>2011-04-16T11:04:41Z</time>
      </trkpt>
      <trkpt lat="35.467338468879461" lon="-5.103710750117898">
        <ele>28.9769287109375</ele>
        <time>2011-04-16T11:04:47Z</time>
      </trkpt>
      <trkpt lat="35.466828094795346" lon="-5.103140445426107">
        <ele>25.1317138671875</ele>
        <time>2011-04-16T11:04:55Z</time>
      </trkpt>
      <trkpt lat="35.466733630746603" lon="-5.103086717426777">
        <ele>24.6510009765625</ele>
        <time>2011-04-16T11:04:56Z</time>
      </trkpt>
      <trkpt lat="35.465867863968015" lon="-5.102594615891576">
        <ele>19.8443603515625</ele>
        <time>2011-04-16T11:05:04Z</time>
      </trkpt>
      <trkpt lat="35.464607896283269" lon="-5.101890536025167">
        <ele>4.94384765625</ele>
        <time>2011-04-16T11:05:14Z</time>
      </trkpt>
      <trkpt lat="35.464249989017844" lon="-5.101699093356729">
        <ele>-1.7852783203125</ele>
        <time>2011-04-16T11:05:17Z</time>
      </trkpt>
      <trkpt lat="35.463935835286975" lon="-5.101458951830864">
        <ele>-6.5919189453125</ele>
        <time>2011-04-16T11:05:22Z</time>
      </trkpt>
      <trkpt lat="35.463867522776127" lon="-5.101135661825538">
        <ele>-8.5146484375</ele>
        <time>2011-04-16T11:05:25Z</time>
      </trkpt>
      <trkpt lat="35.463800970464945" lon="-5.10082108899951">
        <ele>-11.3984375</ele>
        <time>2011-04-16T11:05:28Z</time>
      </trkpt>
      <trkpt lat="35.463627716526389" lon="-5.100330915302038">
        <ele>-13.321044921875</ele>
        <time>2011-04-16T11:05:34Z</time>
      </trkpt>
      <trkpt lat="35.46291776932776" lon="-5.099673354998231">
        <ele>-13.321044921875</ele>
        <time>2011-04-16T11:05:41Z</time>
      </trkpt>
      <trkpt lat="35.461553279310465" lon="-5.098499385640025">
        <ele>-8.9952392578125</ele>
        <time>2011-04-16T11:05:53Z</time>
      </trkpt>
      <trkpt lat="35.460013942793012" lon="-5.097460113465786">
        <ele>-5.6304931640625</ele>
        <time>2011-04-16T11:06:05Z</time>
      </trkpt>
      <trkpt lat="35.458796722814441" lon="-5.096729882061482">
        <ele>-0.8240966796875</ele>
        <time>2011-04-16T11:06:15Z</time>
      </trkpt>
      <trkpt lat="35.457255793735385" lon="-5.095905186608434">
        <ele>3.021240234375</ele>
        <time>2011-04-16T11:06:27Z</time>
      </trkpt>
      <trkpt lat="35.456381142139435" lon="-5.095477122813463">
        <ele>4.94384765625</ele>
        <time>2011-04-16T11:06:35Z</time>
      </trkpt>
      <trkpt lat="35.455070463940501" lon="-5.094645721837878">
        <ele>6.3858642578125</ele>
        <time>2011-04-16T11:06:47Z</time>
      </trkpt>
      <trkpt lat="35.45377898029983" lon="-5.093883303925395">
        <ele>6.3858642578125</ele>
        <time>2011-04-16T11:06:58Z</time>
      </trkpt>
      <trkpt lat="35.452226065099239" lon="-5.093120969831944">
        <ele>5.424560546875</ele>
        <time>2011-04-16T11:07:11Z</time>
      </trkpt>
      <trkpt lat="35.45091756619513" lon="-5.092351008206606">
        <ele>4.4632568359375</ele>
        <time>2011-04-16T11:07:22Z</time>
      </trkpt>
      <trkpt lat="35.450412221252918" lon="-5.092038614675403">
        <ele>3.501953125</ele>
        <time>2011-04-16T11:07:28Z</time>
      </trkpt>
      <trkpt lat="35.449798665940762" lon="-5.091568725183606">
        <ele>1.579345703125</ele>
        <time>2011-04-16T11:07:38Z</time>
      </trkpt>
      <trkpt lat="35.449307821691036" lon="-5.091509129852057">
        <ele>0.6180419921875</ele>
        <time>2011-04-16T11:07:46Z</time>
      </trkpt>
      <trkpt lat="35.449129119515419" lon="-5.091689927503467">
        <ele>-3.227294921875</ele>
        <time>2011-04-16T11:07:54Z</time>
      </trkpt>
      <trkpt lat="35.448849834501743" lon="-5.092407502233982">
        <ele>-10.437255859375</ele>
        <time>2011-04-16T11:08:06Z</time>
      </trkpt>
      <trkpt lat="35.448574488982558" lon="-5.093085095286369">
        <ele>-16.685791015625</ele>
        <time>2011-04-16T11:08:17Z</time>
      </trkpt>
      <trkpt lat="35.448183892294765" lon="-5.093725807964802">
        <ele>-15.724365234375</ele>
        <time>2011-04-16T11:08:25Z</time>
      </trkpt>
      <trkpt lat="35.447826823219657" lon="-5.094347912818193">
        <ele>-14.282470703125</ele>
        <time>2011-04-16T11:08:35Z</time>
      </trkpt>
      <trkpt lat="35.44767502695322" lon="-5.094612361863256">
        <ele>-18.1278076171875</ele>
        <time>2011-04-16T11:08:42Z</time>
      </trkpt>
      <trkpt lat="35.447308234870434" lon="-5.095134805887938">
        <ele>-24.85693359375</ele>
        <time>2011-04-16T11:08:52Z</time>
      </trkpt>
      <trkpt lat="35.446736086159945" lon="-5.095585668459535">
        <ele>-15.724365234375</ele>
        <time>2011-04-16T11:09:00Z</time>
      </trkpt>
      <trkpt lat="35.44604298658669" lon="-5.095960926264525">
        <ele>-13.8017578125</ele>
        <time>2011-04-16T11:09:09Z</time>
      </trkpt>
      <trkpt lat="35.445143273100257" lon="-5.09648990817368">
        <ele>-10.9178466796875</ele>
        <time>2011-04-16T11:09:19Z</time>
      </trkpt>
      <trkpt lat="35.444501303136349" lon="-5.096876733005047">
        <ele>-8.9952392578125</ele>
        <time>2011-04-16T11:09:27Z</time>
      </trkpt>
      <trkpt lat="35.443694042041898" lon="-5.097640994936228">
        <ele>-6.1112060546875</ele>
        <time>2011-04-16T11:09:38Z</time>
      </trkpt>
      <trkpt lat="35.442814361304045" lon="-5.098685631528497">
        <ele>-7.5531005859375</ele>
        <time>2011-04-16T11:09:49Z</time>
      </trkpt>
      <trkpt lat="35.442094355821609" lon="-5.099683413282037">
        <ele>-4.6693115234375</ele>
        <time>2011-04-16T11:09:59Z</time>
      </trkpt>
      <trkpt lat="35.441775005310774" lon="-5.10019026696682">
        <ele>-5.14990234375</ele>
        <time>2011-04-16T11:10:06Z</time>
      </trkpt>
      <trkpt lat="35.441634776070714" lon="-5.100412806496024">
        <ele>-7.072509765625</ele>
        <time>2011-04-16T11:10:13Z</time>
      </trkpt>
      <trkpt lat="35.441282400861382" lon="-5.100971795618534">
        <ele>-4.1885986328125</ele>
        <time>2011-04-16T11:10:20Z</time>
      </trkpt>
      <trkpt lat="35.440623331815004" lon="-5.102001931518316">
        <ele>-4.6693115234375</ele>
        <time>2011-04-16T11:10:29Z</time>
      </trkpt>
      <trkpt lat="35.439903829246759" lon="-5.10309224948287">
        <ele>-8.9952392578125</ele>
        <time>2011-04-16T11:10:39Z</time>
      </trkpt>
      <trkpt lat="35.439527062699199" lon="-5.103663224726915">
        <ele>-9.475830078125</ele>
        <time>2011-04-16T11:10:47Z</time>
      </trkpt>
      <trkpt lat="35.439021466299891" lon="-5.104429582133889">
        <ele>-3.7078857421875</ele>
        <time>2011-04-16T11:10:56Z</time>
      </trkpt>
      <trkpt lat="35.438386118039489" lon="-5.105346143245697">
        <ele>0.6180419921875</ele>
        <time>2011-04-16T11:11:05Z</time>
      </trkpt>
      <trkpt lat="35.437853196635842" lon="-5.106088276952505">
        <ele>-0.3433837890625</ele>
        <time>2011-04-16T11:11:14Z</time>
      </trkpt>
      <trkpt lat="35.437354892492294" lon="-5.106782047078013">
        <ele>-3.227294921875</ele>
        <time>2011-04-16T11:11:21Z</time>
      </trkpt>
      <trkpt lat="35.437101507559419" lon="-5.107135009020567">
        <ele>-6.5919189453125</ele>
        <time>2011-04-16T11:11:26Z</time>
      </trkpt>
      <trkpt lat="35.436700936406851" lon="-5.107692824676633">
        <ele>-15.724365234375</ele>
        <time>2011-04-16T11:11:34Z</time>
      </trkpt>
      <trkpt lat="35.436177738010883" lon="-5.108415009453893">
        <ele>-21.4923095703125</ele>
        <time>2011-04-16T11:11:44Z</time>
      </trkpt>
      <trkpt lat="35.435806419700384" lon="-5.108923958614469">
        <ele>-21.9730224609375</ele>
        <time>2011-04-16T11:11:52Z</time>
      </trkpt>
      <trkpt lat="35.435272576287389" lon="-5.109655782580376">
        <ele>-22.45361328125</ele>
        <time>2011-04-16T11:12:00Z</time>
      </trkpt>
      <trkpt lat="35.434889607131481" lon="-5.110180573537946">
        <ele>-23.4149169921875</ele>
        <time>2011-04-16T11:12:07Z</time>
      </trkpt>
      <trkpt lat="35.434511750936508" lon="-5.110698658972979">
        <ele>-23.4149169921875</ele>
        <time>2011-04-16T11:12:14Z</time>
      </trkpt>
      <trkpt lat="35.433888472616673" lon="-5.111547159031034">
        <ele>-21.9730224609375</ele>
        <time>2011-04-16T11:12:24Z</time>
      </trkpt>
      <trkpt lat="35.433776071295142" lon="-5.111693842336536">
        <ele>-22.9342041015625</ele>
        <time>2011-04-16T11:12:26Z</time>
      </trkpt>
      <trkpt lat="35.433000661432743" lon="-5.112705873325467">
        <ele>-33.989501953125</ele>
        <time>2011-04-16T11:12:38Z</time>
      </trkpt>
      <trkpt lat="35.431930292397738" lon="-5.114102968946099">
        <ele>-42.16064453125</ele>
        <time>2011-04-16T11:12:51Z</time>
      </trkpt>
      <trkpt lat="35.430797059088945" lon="-5.115582207217813">
        <ele>-44.083251953125</ele>
        <time>2011-04-16T11:13:04Z</time>
      </trkpt>
      <trkpt lat="35.429883096367121" lon="-5.116818537935615">
        <ele>-35.912109375</ele>
        <time>2011-04-16T11:13:16Z</time>
      </trkpt>
      <trkpt lat="35.429305750876665" lon="-5.11760400608182">
        <ele>-41.199462890625</ele>
        <time>2011-04-16T11:13:25Z</time>
      </trkpt>
      <trkpt lat="35.428686663508415" lon="-5.118484944105148">
        <ele>-36.8734130859375</ele>
        <time>2011-04-16T11:13:36Z</time>
      </trkpt>
      <trkpt lat="35.428311824798584" lon="-5.118990540504456">
        <ele>-26.779541015625</ele>
        <time>2011-04-16T11:13:44Z</time>
      </trkpt>
      <trkpt lat="35.42816111817956" lon="-5.119178965687752">
        <ele>-27.740966796875</ele>
        <time>2011-04-16T11:13:48Z</time>
      </trkpt>
      <trkpt lat="35.427777646109462" lon="-5.119583643972874">
        <ele>-33.5089111328125</ele>
        <time>2011-04-16T11:13:56Z</time>
      </trkpt>
      <trkpt lat="35.427216058596969" lon="-5.119972815737128">
        <ele>-36.3927001953125</ele>
        <time>2011-04-16T11:14:06Z</time>
      </trkpt>
      <trkpt lat="35.426777433604002" lon="-5.120171383023262">
        <ele>-41.199462890625</ele>
        <time>2011-04-16T11:14:14Z</time>
      </trkpt>
      <trkpt lat="35.426565874367952" lon="-5.120263081043959">
        <ele>-34.4700927734375</ele>
        <time>2011-04-16T11:14:50Z</time>
      </trkpt>
      <trkpt lat="35.426049968227744" lon="-5.120486710220575">
        <ele>-40.71875</ele>
        <time>2011-04-16T11:15:00Z</time>
      </trkpt>
      <trkpt lat="35.425542192533612" lon="-5.120717883110046">
        <ele>-47.928466796875</ele>
        <time>2011-04-16T11:15:11Z</time>
      </trkpt>
      <trkpt lat="35.425401208922267" lon="-5.120785189792514">
        <ele>-50.8126220703125</ele>
        <time>2011-04-16T11:15:18Z</time>
      </trkpt>
      <trkpt lat="35.425127288326621" lon="-5.120915696024895">
        <ele>-46.486572265625</ele>
        <time>2011-04-16T11:15:27Z</time>
      </trkpt>
      <trkpt lat="35.424980185925961" lon="-5.120985852554441">
        <ele>-42.16064453125</ele>
        <time>2011-04-16T11:15:54Z</time>
      </trkpt>
      <trkpt lat="35.424747839570045" lon="-5.121096493676305">
        <ele>-36.3927001953125</ele>
        <time>2011-04-16T11:16:03Z</time>
      </trkpt>
      <trkpt lat="35.424524461850524" lon="-5.121203111484647">
        <ele>-42.16064453125</ele>
        <time>2011-04-16T11:16:14Z</time>
      </trkpt>
      <trkpt lat="35.424373000860214" lon="-5.121275279670954">
        <ele>-47.4478759765625</ele>
        <time>2011-04-16T11:16:26Z</time>
      </trkpt>
      <trkpt lat="35.424209721386433" lon="-5.121353063732386">
        <ele>-51.7738037109375</ele>
        <time>2011-04-16T11:16:43Z</time>
      </trkpt>
      <trkpt lat="35.423897914588451" lon="-5.121501674875617">
        <ele>-54.1771240234375</ele>
        <time>2011-04-16T11:17:14Z</time>
      </trkpt>
      <trkpt lat="35.423586778342724" lon="-5.121650034561753">
        <ele>-51.7738037109375</ele>
        <time>2011-04-16T11:17:44Z</time>
      </trkpt>
      <trkpt lat="35.423371447250247" lon="-5.121747348457575">
        <ele>-39.2767333984375</ele>
        <time>2011-04-16T11:17:55Z</time>
      </trkpt>
      <trkpt lat="35.423251502215862" lon="-5.12179990299046">
        <ele>-43.6026611328125</ele>
        <time>2011-04-16T11:18:12Z</time>
      </trkpt>
      <trkpt lat="35.423033405095339" lon="-5.121909119188786">
        <ele>-52.2545166015625</ele>
        <time>2011-04-16T11:18:29Z</time>
      </trkpt>
      <trkpt lat="35.422835843637586" lon="-5.122016910463572">
        <ele>-55.6190185546875</ele>
        <time>2011-04-16T11:18:39Z</time>
      </trkpt>
      <trkpt lat="35.422612130641937" lon="-5.122138950973749">
        <ele>-59.945068359375</ele>
        <time>2011-04-16T11:18:55Z</time>
      </trkpt>
      <trkpt lat="35.422480870038271" lon="-5.122210532426834">
        <ele>-46.005859375</ele>
        <time>2011-04-16T11:19:14Z</time>
      </trkpt>
      <trkpt lat="35.422249278053641" lon="-5.122368531301618">
        <ele>-33.989501953125</ele>
        <time>2011-04-16T11:19:43Z</time>
      </trkpt>
      <trkpt lat="35.422154814004898" lon="-5.122459894046187">
        <ele>-32.06689453125</ele>
        <time>2011-04-16T11:19:57Z</time>
      </trkpt>
      <trkpt lat="35.42205180041492" lon="-5.122562991455197">
        <ele>-17.6470947265625</ele>
        <time>2011-04-16T11:20:15Z</time>
      </trkpt>
      <trkpt lat="35.421808138489723" lon="-5.122846886515617">
        <ele>-19.5697021484375</ele>
        <time>2011-04-16T11:20:22Z</time>
      </trkpt>
      <trkpt lat="35.421281168237329" lon="-5.123598156496882">
        <ele>-25.337646484375</ele>
        <time>2011-04-16T11:20:32Z</time>
      </trkpt>
      <trkpt lat="35.420382963493466" lon="-5.124738765880466">
        <ele>-30.1441650390625</ele>
        <time>2011-04-16T11:20:44Z</time>
      </trkpt>
      <trkpt lat="35.42002790607512" lon="-5.125240674242377">
        <ele>-28.7021484375</ele>
        <time>2011-04-16T11:20:51Z</time>
      </trkpt>
      <trkpt lat="35.419935453683138" lon="-5.125399259850383">
        <ele>-29.182861328125</ele>
        <time>2011-04-16T11:21:07Z</time>
      </trkpt>
      <trkpt lat="35.419808300212026" lon="-5.125617189332843">
        <ele>-27.740966796875</ele>
        <time>2011-04-16T11:21:16Z</time>
      </trkpt>
      <trkpt lat="35.419472688809037" lon="-5.126130245625973">
        <ele>-29.182861328125</ele>
        <time>2011-04-16T11:21:25Z</time>
      </trkpt>
      <trkpt lat="35.418882435187697" lon="-5.126822590827942">
        <ele>-29.182861328125</ele>
        <time>2011-04-16T11:21:36Z</time>
      </trkpt>
      <trkpt lat="35.418512960895896" lon="-5.127402869984508">
        <ele>-27.740966796875</ele>
        <time>2011-04-16T11:21:45Z</time>
      </trkpt>
      <trkpt lat="35.418316656723619" lon="-5.127565478906035">
        <ele>-26.779541015625</ele>
        <time>2011-04-16T11:21:48Z</time>
      </trkpt>
      <trkpt lat="35.417724475264549" lon="-5.127818277105689">
        <ele>-26.779541015625</ele>
        <time>2011-04-16T11:21:56Z</time>
      </trkpt>
      <trkpt lat="35.416983515024185" lon="-5.127844512462616">
        <ele>-29.182861328125</ele>
        <time>2011-04-16T11:22:05Z</time>
      </trkpt>
      <trkpt lat="35.415935106575489" lon="-5.127926738932729">
        <ele>-32.06689453125</ele>
        <time>2011-04-16T11:22:14Z</time>
      </trkpt>
      <trkpt lat="35.414997842162848" lon="-5.128191607072949">
        <ele>-33.5089111328125</ele>
        <time>2011-04-16T11:22:22Z</time>
      </trkpt>
      <trkpt lat="35.414282782003284" lon="-5.1287174038589">
        <ele>-25.818359375</ele>
        <time>2011-04-16T11:22:29Z</time>
      </trkpt>
      <trkpt lat="35.413578869774938" lon="-5.129590881988406">
        <ele>-18.1278076171875</ele>
        <time>2011-04-16T11:22:37Z</time>
      </trkpt>
      <trkpt lat="35.413462528958917" lon="-5.13014811091125">
        <ele>-18.1278076171875</ele>
        <time>2011-04-16T11:22:41Z</time>
      </trkpt>
      <trkpt lat="35.413180058822036" lon="-5.131699936464429">
        <ele>-19.0889892578125</ele>
        <time>2011-04-16T11:22:51Z</time>
      </trkpt>
      <trkpt lat="35.412983754649758" lon="-5.132105620577931">
        <ele>-19.0889892578125</ele>
        <time>2011-04-16T11:22:54Z</time>
      </trkpt>
      <trkpt lat="35.412540435791016" lon="-5.132589340209961">
        <ele>-20.0504150390625</ele>
        <time>2011-04-16T11:22:59Z</time>
      </trkpt>
      <trkpt lat="35.412182360887527" lon="-5.132755637168884">
        <ele>-21.4923095703125</ele>
        <time>2011-04-16T11:23:02Z</time>
      </trkpt>
      <trkpt lat="35.410642521455884" lon="-5.133283361792564">
        <ele>-26.779541015625</ele>
        <time>2011-04-16T11:23:14Z</time>
      </trkpt>
      <trkpt lat="35.409150961786509" lon="-5.133847212418914">
        <ele>-29.66357421875</ele>
        <time>2011-04-16T11:23:25Z</time>
      </trkpt>
      <trkpt lat="35.408680066466331" lon="-5.134113756939769">
        <ele>-28.2215576171875</ele>
        <time>2011-04-16T11:23:29Z</time>
      </trkpt>
      <trkpt lat="35.408295672386885" lon="-5.134644750505686">
        <ele>-27.740966796875</ele>
        <time>2011-04-16T11:23:34Z</time>
      </trkpt>
      <trkpt lat="35.407863250002265" lon="-5.135608166456223">
        <ele>-26.779541015625</ele>
        <time>2011-04-16T11:23:41Z</time>
      </trkpt>
      <trkpt lat="35.407022461295128" lon="-5.137299802154303">
        <ele>-22.9342041015625</ele>
        <time>2011-04-16T11:23:53Z</time>
      </trkpt>
      <trkpt lat="35.406639575958252" lon="-5.138297080993652">
        <ele>-19.0889892578125</ele>
        <time>2011-04-16T11:24:01Z</time>
      </trkpt>
      <trkpt lat="35.406624488532543" lon="-5.1385847479105">
        <ele>-18.6083984375</ele>
        <time>2011-04-16T11:24:05Z</time>
      </trkpt>
      <trkpt lat="35.406646365299821" lon="-5.138836540281773">
        <ele>-17.6470947265625</ele>
        <time>2011-04-16T11:24:10Z</time>
      </trkpt>
      <trkpt lat="35.406805537641048" lon="-5.139240128919482">
        <ele>-16.685791015625</ele>
        <time>2011-04-16T11:24:15Z</time>
      </trkpt>
      <trkpt lat="35.407299986109138" lon="-5.140157695859671">
        <ele>-15.24365234375</ele>
        <time>2011-04-16T11:24:23Z</time>
      </trkpt>
      <trkpt lat="35.407424541190267" lon="-5.140900416299701">
        <ele>-14.282470703125</ele>
        <time>2011-04-16T11:24:28Z</time>
      </trkpt>
      <trkpt lat="35.407143495976925" lon="-5.141516318544745">
        <ele>-13.321044921875</ele>
        <time>2011-04-16T11:24:32Z</time>
      </trkpt>
      <trkpt lat="35.405918648466468" lon="-5.143187334761024">
        <ele>-9.95654296875</ele>
        <time>2011-04-16T11:24:43Z</time>
      </trkpt>
      <trkpt lat="35.405211048200727" lon="-5.144152343273163">
        <ele>-8.033935546875</ele>
        <time>2011-04-16T11:24:50Z</time>
      </trkpt>
      <trkpt lat="35.40415920317173" lon="-5.145385405048728">
        <ele>-9.95654296875</ele>
        <time>2011-04-16T11:25:01Z</time>
      </trkpt>
      <trkpt lat="35.403323024511337" lon="-5.146138519048691">
        <ele>-10.437255859375</ele>
        <time>2011-04-16T11:25:09Z</time>
      </trkpt>
      <trkpt lat="35.402059536427259" lon="-5.147001519799233">
        <ele>-10.9178466796875</ele>
        <time>2011-04-16T11:25:20Z</time>
      </trkpt>
      <trkpt lat="35.400574430823326" lon="-5.148045653477311">
        <ele>-12.35986328125</ele>
        <time>2011-04-16T11:25:32Z</time>
      </trkpt>
      <trkpt lat="35.399426948279142" lon="-5.148793905973434">
        <ele>-14.7630615234375</ele>
        <time>2011-04-16T11:25:43Z</time>
      </trkpt>
      <trkpt lat="35.398283321410418" lon="-5.149563867598772">
        <ele>-16.2052001953125</ele>
        <time>2011-04-16T11:25:54Z</time>
      </trkpt>
      <trkpt lat="35.397292580455542" lon="-5.150230983272195">
        <ele>-16.2052001953125</ele>
        <time>2011-04-16T11:26:05Z</time>
      </trkpt>
      <trkpt lat="35.396285746246576" lon="-5.150931961834431">
        <ele>-18.6083984375</ele>
        <time>2011-04-16T11:26:14Z</time>
      </trkpt>
      <trkpt lat="35.395175395533442" lon="-5.15168247744441">
        <ele>-18.6083984375</ele>
        <time>2011-04-16T11:26:23Z</time>
      </trkpt>
      <trkpt lat="35.394801143556833" lon="-5.151920607313514">
        <ele>-19.0889892578125</ele>
        <time>2011-04-16T11:26:27Z</time>
      </trkpt>
      <trkpt lat="35.394264701753855" lon="-5.152262002229691">
        <ele>-19.5697021484375</ele>
        <time>2011-04-16T11:26:36Z</time>
      </trkpt>
      <trkpt lat="35.393428523093462" lon="-5.152904391288757">
        <ele>-18.6083984375</ele>
        <time>2011-04-16T11:26:47Z</time>
      </trkpt>
      <trkpt lat="35.393308326601982" lon="-5.153037998825312">
        <ele>-18.6083984375</ele>
        <time>2011-04-16T11:26:49Z</time>
      </trkpt>
      <trkpt lat="35.393015295267105" lon="-5.153691032901406">
        <ele>-16.2052001953125</ele>
        <time>2011-04-16T11:26:56Z</time>
      </trkpt>
      <trkpt lat="35.392842292785645" lon="-5.154105518013239">
        <ele>-16.2052001953125</ele>
        <time>2011-04-16T11:27:01Z</time>
      </trkpt>
      <trkpt lat="35.392864253371954" lon="-5.155021995306015">
        <ele>-15.724365234375</ele>
        <time>2011-04-16T11:27:11Z</time>
      </trkpt>
      <trkpt lat="35.39288068190217" lon="-5.15531737357378">
        <ele>-15.724365234375</ele>
        <time>2011-04-16T11:27:14Z</time>
      </trkpt>
      <trkpt lat="35.39296617731452" lon="-5.155966049060226">
        <ele>-13.8017578125</ele>
        <time>2011-04-16T11:27:20Z</time>
      </trkpt>
      <trkpt lat="35.393077991902828" lon="-5.15696257352829">
        <ele>-11.879150390625</ele>
        <time>2011-04-16T11:27:27Z</time>
      </trkpt>
      <trkpt lat="35.392915885895491" lon="-5.158341564238071">
        <ele>-11.3984375</ele>
        <time>2011-04-16T11:27:36Z</time>
      </trkpt>
      <trkpt lat="35.392530234530568" lon="-5.15905830077827">
        <ele>-10.9178466796875</ele>
        <time>2011-04-16T11:27:42Z</time>
      </trkpt>
      <trkpt lat="35.391814336180687" lon="-5.159781826660037">
        <ele>-9.475830078125</ele>
        <time>2011-04-16T11:27:48Z</time>
      </trkpt>
      <trkpt lat="35.390590578317642" lon="-5.160796204581857">
        <ele>-9.475830078125</ele>
        <time>2011-04-16T11:27:56Z</time>
      </trkpt>
      <trkpt lat="35.389900580048561" lon="-5.161311691626906">
        <ele>-9.475830078125</ele>
        <time>2011-04-16T11:28:01Z</time>
      </trkpt>
      <trkpt lat="35.389198176562786" lon="-5.161568094044924">
        <ele>-9.475830078125</ele>
        <time>2011-04-16T11:28:06Z</time>
      </trkpt>
      <trkpt lat="35.388887794688344" lon="-5.161641268059611">
        <ele>-9.475830078125</ele>
        <time>2011-04-16T11:28:08Z</time>
      </trkpt>
      <trkpt lat="35.388517733663321" lon="-5.162056256085634">
        <ele>-10.437255859375</ele>
        <time>2011-04-16T11:28:13Z</time>
      </trkpt>
      <trkpt lat="35.388417402282357" lon="-5.162290362641215">
        <ele>-10.9178466796875</ele>
        <time>2011-04-16T11:28:15Z</time>
      </trkpt>
      <trkpt lat="35.387976178899407" lon="-5.163410855457187">
        <ele>-12.8404541015625</ele>
        <time>2011-04-16T11:28:22Z</time>
      </trkpt>
      <trkpt lat="35.3872961550951" lon="-5.164676271378994">
        <ele>-12.35986328125</ele>
        <time>2011-04-16T11:28:30Z</time>
      </trkpt>
      <trkpt lat="35.386476321145892" lon="-5.165605656802654">
        <ele>-6.1112060546875</ele>
        <time>2011-04-16T11:28:38Z</time>
      </trkpt>
      <trkpt lat="35.3858507797122" lon="-5.166362710297108">
        <ele>1.0986328125</ele>
        <time>2011-04-16T11:28:45Z</time>
      </trkpt>
      <trkpt lat="35.385818844661117" lon="-5.167021276429296">
        <ele>4.94384765625</ele>
        <time>2011-04-16T11:28:50Z</time>
      </trkpt>
      <trkpt lat="35.385829070582986" lon="-5.167158655822277">
        <ele>5.9052734375</ele>
        <time>2011-04-16T11:28:51Z</time>
      </trkpt>
      <trkpt lat="35.385724296793342" lon="-5.167935155332089">
        <ele>10.231201171875</ele>
        <time>2011-04-16T11:28:57Z</time>
      </trkpt>
      <trkpt lat="35.385375022888184" lon="-5.167973041534424">
        <ele>12.6343994140625</ele>
        <time>2011-04-16T11:29:01Z</time>
      </trkpt>
      <trkpt lat="35.385123733431101" lon="-5.16778620891273">
        <ele>13.1151123046875</ele>
        <time>2011-04-16T11:29:04Z</time>
      </trkpt>
      <trkpt lat="35.384542616084218" lon="-5.167343895882368">
        <ele>14.5570068359375</ele>
        <time>2011-04-16T11:29:09Z</time>
      </trkpt>
      <trkpt lat="35.383943393826485" lon="-5.167195117101073">
        <ele>19.36376953125</ele>
        <time>2011-04-16T11:29:13Z</time>
      </trkpt>
      <trkpt lat="35.3831672295928" lon="-5.167242977768183">
        <ele>24.6510009765625</ele>
        <time>2011-04-16T11:29:18Z</time>
      </trkpt>
      <trkpt lat="35.382618885487318" lon="-5.167608261108398">
        <ele>27.0543212890625</ele>
        <time>2011-04-16T11:29:23Z</time>
      </trkpt>
      <trkpt lat="35.382410762831569" lon="-5.168070355430245">
        <ele>26.5736083984375</ele>
        <time>2011-04-16T11:29:27Z</time>
      </trkpt>
      <trkpt lat="35.382300037890673" lon="-5.168372942134738">
        <ele>25.6123046875</ele>
        <time>2011-04-16T11:29:29Z</time>
      </trkpt>
      <trkpt lat="35.382200879976153" lon="-5.170086454600096">
        <ele>19.8443603515625</ele>
        <time>2011-04-16T11:29:38Z</time>
      </trkpt>
      <trkpt lat="35.382049083709717" lon="-5.170996896922588">
        <ele>15.0377197265625</ele>
        <time>2011-04-16T11:29:44Z</time>
      </trkpt>
      <trkpt lat="35.38196811452508" lon="-5.171543648466468">
        <ele>12.15380859375</ele>
        <time>2011-04-16T11:29:48Z</time>
      </trkpt>
      <trkpt lat="35.381715064868331" lon="-5.171967018395662">
        <ele>10.231201171875</ele>
        <time>2011-04-16T11:29:53Z</time>
      </trkpt>
      <trkpt lat="35.381577014923096" lon="-5.172114372253418">
        <ele>9.7506103515625</ele>
        <time>2011-04-16T11:29:55Z</time>
      </trkpt>
      <trkpt lat="35.380581244826317" lon="-5.172400027513504">
        <ele>4.4632568359375</ele>
        <time>2011-04-16T11:30:04Z</time>
      </trkpt>
      <trkpt lat="35.379894599318504" lon="-5.172574874013662">
        <ele>2.06005859375</ele>
        <time>2011-04-16T11:30:11Z</time>
      </trkpt>
      <trkpt lat="35.378949707373977" lon="-5.172895817086101">
        <ele>0.137451171875</ele>
        <time>2011-04-16T11:30:20Z</time>
      </trkpt>
      <trkpt lat="35.377636011689901" lon="-5.17329546622932">
        <ele>-0.8240966796875</ele>
        <time>2011-04-16T11:30:29Z</time>
      </trkpt>
      <trkpt lat="35.375827867537737" lon="-5.173738617449999">
        <ele>-0.8240966796875</ele>
        <time>2011-04-16T11:30:41Z</time>
      </trkpt>
      <trkpt lat="35.374313928186893" lon="-5.17417699098587">
        <ele>0.6180419921875</ele>
        <time>2011-04-16T11:30:51Z</time>
      </trkpt>
      <trkpt lat="35.372791606932878" lon="-5.174782751128078">
        <ele>0.137451171875</ele>
        <time>2011-04-16T11:31:01Z</time>
      </trkpt>
      <trkpt lat="35.371105335652828" lon="-5.175822777673602">
        <ele>1.0986328125</ele>
        <time>2011-04-16T11:31:11Z</time>
      </trkpt>
      <trkpt lat="35.36935125477612" lon="-5.176990460604429">
        <ele>10.7117919921875</ele>
        <time>2011-04-16T11:31:21Z</time>
      </trkpt>
      <trkpt lat="35.368501162156463" lon="-5.177314588800073">
        <ele>18.40234375</ele>
        <time>2011-04-16T11:31:26Z</time>
      </trkpt>
      <trkpt lat="35.367688536643982" lon="-5.177473928779364">
        <ele>24.1702880859375</ele>
        <time>2011-04-16T11:31:31Z</time>
      </trkpt>
      <trkpt lat="35.36685579456389" lon="-5.177584737539291">
        <ele>29.9381103515625</ele>
        <time>2011-04-16T11:31:37Z</time>
      </trkpt>
      <trkpt lat="35.36673316732049" lon="-5.177601668983698">
        <ele>30.8995361328125</ele>
        <time>2011-04-16T11:31:38Z</time>
      </trkpt>
      <trkpt lat="35.366173004731536" lon="-5.177586078643799">
        <ele>34.744873046875</ele>
        <time>2011-04-16T11:31:43Z</time>
      </trkpt>
      <trkpt lat="35.365822976455092" lon="-5.177595801651478">
        <ele>36.66748046875</ele>
        <time>2011-04-16T11:31:46Z</time>
      </trkpt>
      <trkpt lat="35.365155441686511" lon="-5.177828567102552">
        <ele>38.590087890625</ele>
        <time>2011-04-16T11:31:52Z</time>
      </trkpt>
      <trkpt lat="35.36500439979136" lon="-5.177979608997703">
        <ele>39.0706787109375</ele>
        <time>2011-04-16T11:31:54Z</time>
      </trkpt>
      <trkpt lat="35.364405680447817" lon="-5.178396021947265">
        <ele>35.2254638671875</ele>
        <time>2011-04-16T11:32:01Z</time>
      </trkpt>
      <trkpt lat="35.363960266113281" lon="-5.178422927856445">
        <ele>31.380126953125</ele>
        <time>2011-04-16T11:32:06Z</time>
      </trkpt>
      <trkpt lat="35.363874435424805" lon="-5.178381772711873">
        <ele>30.8995361328125</ele>
        <time>2011-04-16T11:32:07Z</time>
      </trkpt>
      <trkpt lat="35.363093325868249" lon="-5.178154204040766">
        <ele>26.5736083984375</ele>
        <time>2011-04-16T11:32:13Z</time>
      </trkpt>
      <trkpt lat="35.362515896558762" lon="-5.178216900676489">
        <ele>24.6510009765625</ele>
        <time>2011-04-16T11:32:17Z</time>
      </trkpt>
      <trkpt lat="35.361127853393555" lon="-5.178637504577637">
        <ele>20.324951171875</ele>
        <time>2011-04-16T11:32:27Z</time>
      </trkpt>
      <trkpt lat="35.360423773527145" lon="-5.179185094311833">
        <ele>16.479736328125</ele>
        <time>2011-04-16T11:32:33Z</time>
      </trkpt>
      <trkpt lat="35.35943110473454" lon="-5.180084891617298">
        <ele>8.30859375</ele>
        <time>2011-04-16T11:32:41Z</time>
      </trkpt>
      <trkpt lat="35.358517477288842" lon="-5.180257391184568">
        <ele>4.94384765625</ele>
        <time>2011-04-16T11:32:47Z</time>
      </trkpt>
      <trkpt lat="35.356893735006452" lon="-5.1803835388273">
        <ele>4.94384765625</ele>
        <time>2011-04-16T11:32:57Z</time>
      </trkpt>
      <trkpt lat="35.356069710105658" lon="-5.180868851020932">
        <ele>4.94384765625</ele>
        <time>2011-04-16T11:33:03Z</time>
      </trkpt>
      <trkpt lat="35.355037227272987" lon="-5.18180544488132">
        <ele>4.4632568359375</ele>
        <time>2011-04-16T11:33:11Z</time>
      </trkpt>
      <trkpt lat="35.354402549564838" lon="-5.182506507262588">
        <ele>5.424560546875</ele>
        <time>2011-04-16T11:33:17Z</time>
      </trkpt>
      <trkpt lat="35.354298949241638" lon="-5.18257062882185">
        <ele>5.424560546875</ele>
        <time>2011-04-16T11:33:18Z</time>
      </trkpt>
      <trkpt lat="35.353597551584244" lon="-5.182921411469579">
        <ele>6.3858642578125</ele>
        <time>2011-04-16T11:33:25Z</time>
      </trkpt>
      <trkpt lat="35.352382007986307" lon="-5.183355677872896">
        <ele>7.34716796875</ele>
        <time>2011-04-16T11:33:34Z</time>
      </trkpt>
      <trkpt lat="35.351132266223431" lon="-5.183771084994078">
        <ele>8.30859375</ele>
        <time>2011-04-16T11:33:43Z</time>
      </trkpt>
      <trkpt lat="35.350346378982067" lon="-5.183504540473223">
        <ele>9.2698974609375</ele>
        <time>2011-04-16T11:33:49Z</time>
      </trkpt>
      <trkpt lat="35.349957039579749" lon="-5.183179993182421">
        <ele>10.7117919921875</ele>
        <time>2011-04-16T11:33:53Z</time>
      </trkpt>
      <trkpt lat="35.348982475697994" lon="-5.18242796882987">
        <ele>10.7117919921875</ele>
        <time>2011-04-16T11:34:01Z</time>
      </trkpt>
      <trkpt lat="35.347651178017259" lon="-5.181538816541433">
        <ele>14.076416015625</ele>
        <time>2011-04-16T11:34:11Z</time>
      </trkpt>
      <trkpt lat="35.347125045955181" lon="-5.181491374969482">
        <ele>16.96044921875</ele>
        <time>2011-04-16T11:34:15Z</time>
      </trkpt>
      <trkpt lat="35.346052581444383" lon="-5.181518532335758">
        <ele>23.6895751953125</ele>
        <time>2011-04-16T11:34:22Z</time>
      </trkpt>
      <trkpt lat="35.345174074172974" lon="-5.181331112980843">
        <ele>30.4188232421875</ele>
        <time>2011-04-16T11:34:28Z</time>
      </trkpt>
      <trkpt lat="35.344633692875504" lon="-5.181372184306383">
        <ele>33.783447265625</ele>
        <time>2011-04-16T11:34:32Z</time>
      </trkpt>
      <trkpt lat="35.343742528930306" lon="-5.181512078270316">
        <ele>36.186767578125</ele>
        <time>2011-04-16T11:34:38Z</time>
      </trkpt>
      <trkpt lat="35.34277617931366" lon="-5.181313259527087">
        <ele>33.3028564453125</ele>
        <time>2011-04-16T11:34:44Z</time>
      </trkpt>
      <trkpt lat="35.340720266103745" lon="-5.180629044771195">
        <ele>31.380126953125</ele>
        <time>2011-04-16T11:34:57Z</time>
      </trkpt>
      <trkpt lat="35.339693482965231" lon="-5.180262923240662">
        <ele>43.8773193359375</ele>
        <time>2011-04-16T11:35:06Z</time>
      </trkpt>
      <trkpt lat="35.338770383968949" lon="-5.180129902437329">
        <ele>54.4517822265625</ele>
        <time>2011-04-16T11:35:15Z</time>
      </trkpt>
      <trkpt lat="35.338478442281485" lon="-5.180106265470386">
        <ele>58.7777099609375</ele>
        <time>2011-04-16T11:35:20Z</time>
      </trkpt>
      <trkpt lat="35.337962871417403" lon="-5.180083885788918">
        <ele>64.0650634765625</ele>
        <time>2011-04-16T11:35:27Z</time>
      </trkpt>
      <trkpt lat="35.337022673338652" lon="-5.18001414835453">
        <ele>73.1976318359375</ele>
        <time>2011-04-16T11:35:36Z</time>
      </trkpt>
      <trkpt lat="35.336300740018487" lon="-5.180042227730155">
        <ele>80.407470703125</ele>
        <time>2011-04-16T11:35:42Z</time>
      </trkpt>
      <trkpt lat="35.335405636578798" lon="-5.180361913517118">
        <ele>90.0206298828125</ele>
        <time>2011-04-16T11:35:49Z</time>
      </trkpt>
      <trkpt lat="35.334888640791178" lon="-5.180313298478723">
        <ele>96.269287109375</ele>
        <time>2011-04-16T11:35:53Z</time>
      </trkpt>
      <trkpt lat="35.33370922319591" lon="-5.179993696510792">
        <ele>108.7662353515625</ele>
        <time>2011-04-16T11:36:02Z</time>
      </trkpt>
      <trkpt lat="35.333182755857706" lon="-5.180092435330153">
        <ele>114.0535888671875</ele>
        <time>2011-04-16T11:36:06Z</time>
      </trkpt>
      <trkpt lat="35.332663413137197" lon="-5.180553691461682">
        <ele>122.2247314453125</ele>
        <time>2011-04-16T11:36:12Z</time>
      </trkpt>
      <trkpt lat="35.33249887637794" lon="-5.180757623165846">
        <ele>124.6280517578125</ele>
        <time>2011-04-16T11:36:14Z</time>
      </trkpt>
      <trkpt lat="35.332344733178616" lon="-5.180933810770512">
        <ele>126.0699462890625</ele>
        <time>2011-04-16T11:36:16Z</time>
      </trkpt>
      <trkpt lat="35.331843830645084" lon="-5.181185519322753">
        <ele>130.876708984375</ele>
        <time>2011-04-16T11:36:21Z</time>
      </trkpt>
      <trkpt lat="35.33172681927681" lon="-5.181217370554805">
        <ele>132.318603515625</ele>
        <time>2011-04-16T11:36:22Z</time>
      </trkpt>
      <trkpt lat="35.331486342474818" lon="-5.181283000856638">
        <ele>135.2025146484375</ele>
        <time>2011-04-16T11:36:24Z</time>
      </trkpt>
      <trkpt lat="35.331058194860816" lon="-5.181571422144771">
        <ele>140.4898681640625</ele>
        <time>2011-04-16T11:36:28Z</time>
      </trkpt>
      <trkpt lat="35.329722790047526" lon="-5.182271897792816">
        <ele>155.8709716796875</ele>
        <time>2011-04-16T11:36:38Z</time>
      </trkpt>
      <trkpt lat="35.328867500647902" lon="-5.182349681854248">
        <ele>163.080810546875</ele>
        <time>2011-04-16T11:36:44Z</time>
      </trkpt>
      <trkpt lat="35.327667212113738" lon="-5.182120017707348">
        <ele>170.2906494140625</ele>
        <time>2011-04-16T11:36:52Z</time>
      </trkpt>
      <trkpt lat="35.32615109346807" lon="-5.181469330564141">
        <ele>175.577880859375</ele>
        <time>2011-04-16T11:37:03Z</time>
      </trkpt>
      <trkpt lat="35.325120035558939" lon="-5.180634828284383">
        <ele>181.3458251953125</ele>
        <time>2011-04-16T11:37:11Z</time>
      </trkpt>
      <trkpt lat="35.324141616001725" lon="-5.180145911872387">
        <ele>187.11376953125</ele>
        <time>2011-04-16T11:37:19Z</time>
      </trkpt>
      <trkpt lat="35.323454383760691" lon="-5.180210620164871">
        <ele>193.843017578125</ele>
        <time>2011-04-16T11:37:25Z</time>
      </trkpt>
      <trkpt lat="35.323122460395098" lon="-5.180344395339489">
        <ele>197.20751953125</ele>
        <time>2011-04-16T11:37:28Z</time>
      </trkpt>
      <trkpt lat="35.322529776021838" lon="-5.180597277358174">
        <ele>202.494873046875</ele>
        <time>2011-04-16T11:37:33Z</time>
      </trkpt>
      <trkpt lat="35.322038931772113" lon="-5.180657627061009">
        <ele>207.3013916015625</ele>
        <time>2011-04-16T11:37:37Z</time>
      </trkpt>
      <trkpt lat="35.321096554398537" lon="-5.180930625647306">
        <ele>217.3953857421875</ele>
        <time>2011-04-16T11:37:45Z</time>
      </trkpt>
      <trkpt lat="35.320454500615597" lon="-5.181323233991861">
        <ele>225.0859375</ele>
        <time>2011-04-16T11:37:53Z</time>
      </trkpt>
      <trkpt lat="35.319889057427645" lon="-5.181767391040921">
        <ele>232.2957763671875</ele>
        <time>2011-04-16T11:38:01Z</time>
      </trkpt>
      <trkpt lat="35.319435596466064" lon="-5.182349681854248">
        <ele>239.9862060546875</ele>
        <time>2011-04-16T11:38:07Z</time>
      </trkpt>
      <trkpt lat="35.319005269557238" lon="-5.183232380077243">
        <ele>249.5994873046875</ele>
        <time>2011-04-16T11:38:15Z</time>
      </trkpt>
      <trkpt lat="35.318358773365617" lon="-5.184368379414082">
        <ele>259.693359375</ele>
        <time>2011-04-16T11:38:26Z</time>
      </trkpt>
      <trkpt lat="35.317875137552619" lon="-5.184847572818399">
        <ele>266.9031982421875</ele>
        <time>2011-04-16T11:38:33Z</time>
      </trkpt>
      <trkpt lat="35.317183965817094" lon="-5.185437994077802">
        <ele>276.516357421875</ele>
        <time>2011-04-16T11:38:42Z</time>
      </trkpt>
      <trkpt lat="35.316547695547342" lon="-5.186089100316167">
        <ele>286.1295166015625</ele>
        <time>2011-04-16T11:38:49Z</time>
      </trkpt>
      <trkpt lat="35.315624177455902" lon="-5.187193164601922">
        <ele>301.9913330078125</ele>
        <time>2011-04-16T11:38:58Z</time>
      </trkpt>
      <trkpt lat="35.314756063744426" lon="-5.188089273869991">
        <ele>301.0299072265625</ele>
        <time>2011-04-16T11:39:06Z</time>
      </trkpt>
      <trkpt lat="35.313813015818596" lon="-5.188729483634234">
        <ele>306.3172607421875</ele>
        <time>2011-04-16T11:39:13Z</time>
      </trkpt>
      <trkpt lat="35.312366047874093" lon="-5.18958879634738">
        <ele>319.2950439453125</ele>
        <time>2011-04-16T11:39:23Z</time>
      </trkpt>
      <trkpt lat="35.311163663864136" lon="-5.19041458144784">
        <ele>334.6761474609375</ele>
        <time>2011-04-16T11:39:32Z</time>
      </trkpt>
      <trkpt lat="35.309703536331654" lon="-5.191738419234753">
        <ele>358.708984375</ele>
        <time>2011-04-16T11:39:44Z</time>
      </trkpt>
      <trkpt lat="35.309073217213154" lon="-5.192798059433699">
        <ele>369.7642822265625</ele>
        <time>2011-04-16T11:39:52Z</time>
      </trkpt>
      <trkpt lat="35.308457314968109" lon="-5.193824926391244">
        <ele>372.648193359375</ele>
        <time>2011-04-16T11:40:00Z</time>
      </trkpt>
      <trkpt lat="35.30755827203393" lon="-5.195063855499029">
        <ele>369.28369140625</ele>
        <time>2011-04-16T11:40:10Z</time>
      </trkpt>
      <trkpt lat="35.306907249614596" lon="-5.19541279412806">
        <ele>367.3609619140625</ele>
        <time>2011-04-16T11:40:16Z</time>
      </trkpt>
      <trkpt lat="35.305690867826343" lon="-5.195965496823192">
        <ele>360.151123046875</ele>
        <time>2011-04-16T11:40:25Z</time>
      </trkpt>
      <trkpt lat="35.303405290469527" lon="-5.196864623576403">
        <ele>350.0572509765625</ele>
        <time>2011-04-16T11:40:40Z</time>
      </trkpt>
      <trkpt lat="35.301621202379465" lon="-5.197521848604083">
        <ele>343.80859375</ele>
        <time>2011-04-16T11:40:52Z</time>
      </trkpt>
      <trkpt lat="35.3008474688977" lon="-5.198230538517237">
        <ele>336.598876953125</ele>
        <time>2011-04-16T11:40:58Z</time>
      </trkpt>
      <trkpt lat="35.300154536962509" lon="-5.199090605601668">
        <ele>330.3502197265625</ele>
        <time>2011-04-16T11:41:05Z</time>
      </trkpt>
      <trkpt lat="35.30009058304131" lon="-5.199198899790645">
        <ele>330.3502197265625</ele>
        <time>2011-04-16T11:41:06Z</time>
      </trkpt>
      <trkpt lat="35.299905091524124" lon="-5.199768114835024">
        <ele>328.9083251953125</ele>
        <time>2011-04-16T11:41:11Z</time>
      </trkpt>
      <trkpt lat="35.299906097352505" lon="-5.200611921027303">
        <ele>319.775634765625</ele>
        <time>2011-04-16T11:41:17Z</time>
      </trkpt>
      <trkpt lat="35.30014531686902" lon="-5.200985921546817">
        <ele>314.9691162109375</ele>
        <time>2011-04-16T11:41:20Z</time>
      </trkpt>
      <trkpt lat="35.30105902813375" lon="-5.20250229164958">
        <ele>295.74267578125</ele>
        <time>2011-04-16T11:41:30Z</time>
      </trkpt>
      <trkpt lat="35.301149804145098" lon="-5.202659200876951">
        <ele>293.820068359375</ele>
        <time>2011-04-16T11:41:31Z</time>
      </trkpt>
      <trkpt lat="35.301278633996844" lon="-5.203803665935993">
        <ele>284.6876220703125</ele>
        <time>2011-04-16T11:41:37Z</time>
      </trkpt>
      <trkpt lat="35.301040671765804" lon="-5.204488718882203">
        <ele>279.4002685546875</ele>
        <time>2011-04-16T11:41:41Z</time>
      </trkpt>
      <trkpt lat="35.300333742052317" lon="-5.205378541722894">
        <ele>271.709716796875</ele>
        <time>2011-04-16T11:41:48Z</time>
      </trkpt>
      <trkpt lat="35.30006468296051" lon="-5.205666795372963">
        <ele>269.3065185546875</ele>
        <time>2011-04-16T11:41:51Z</time>
      </trkpt>
      <trkpt lat="35.299777518957853" lon="-5.206503896042705">
        <ele>263.057861328125</ele>
        <time>2011-04-16T11:41:57Z</time>
      </trkpt>
      <trkpt lat="35.299869803711772" lon="-5.20710127428174">
        <ele>256.809326171875</ele>
        <time>2011-04-16T11:42:02Z</time>
      </trkpt>
      <trkpt lat="35.299992430955172" lon="-5.207278551533818">
        <ele>254.8865966796875</ele>
        <time>2011-04-16T11:42:04Z</time>
      </trkpt>
      <trkpt lat="35.300393588840961" lon="-5.207576528191567">
        <ele>247.6767578125</ele>
        <time>2011-04-16T11:42:09Z</time>
      </trkpt>
      <trkpt lat="35.300577152520418" lon="-5.207638554275036">
        <ele>245.2734375</ele>
        <time>2011-04-16T11:42:11Z</time>
      </trkpt>
      <trkpt lat="35.300960456952453" lon="-5.20768322981894">
        <ele>238.5443115234375</ele>
        <time>2011-04-16T11:42:16Z</time>
      </trkpt>
      <trkpt lat="35.301318867132068" lon="-5.207727318629623">
        <ele>236.1409912109375</ele>
        <time>2011-04-16T11:42:22Z</time>
      </trkpt>
      <trkpt lat="35.301844999194145" lon="-5.208569029346108">
        <ele>235.6602783203125</ele>
        <time>2011-04-16T11:42:31Z</time>
      </trkpt>
      <trkpt lat="35.302095534279943" lon="-5.209375033155084">
        <ele>233.7376708984375</ele>
        <time>2011-04-16T11:42:38Z</time>
      </trkpt>
      <trkpt lat="35.302107520401478" lon="-5.210524024441838">
        <ele>227.008544921875</ele>
        <time>2011-04-16T11:42:46Z</time>
      </trkpt>
      <trkpt lat="35.301997968927026" lon="-5.211933525279164">
        <ele>217.3953857421875</ele>
        <time>2011-04-16T11:42:55Z</time>
      </trkpt>
      <trkpt lat="35.301883639767766" lon="-5.213519046083093">
        <ele>205.3787841796875</ele>
        <time>2011-04-16T11:43:05Z</time>
      </trkpt>
      <trkpt lat="35.301966033875942" lon="-5.214051213115454">
        <ele>201.5335693359375</ele>
        <time>2011-04-16T11:43:09Z</time>
      </trkpt>
      <trkpt lat="35.302092097699642" lon="-5.214447258040309">
        <ele>198.6495361328125</ele>
        <time>2011-04-16T11:43:12Z</time>
      </trkpt>
      <trkpt lat="35.302189746871591" lon="-5.215011946856976">
        <ele>195.284912109375</ele>
        <time>2011-04-16T11:43:17Z</time>
      </trkpt>
      <trkpt lat="35.302103413268924" lon="-5.215233145281673">
        <ele>193.843017578125</ele>
        <time>2011-04-16T11:43:19Z</time>
      </trkpt>
      <trkpt lat="35.30172941274941" lon="-5.216167308390141">
        <ele>182.30712890625</ele>
        <time>2011-04-16T11:43:26Z</time>
      </trkpt>
      <trkpt lat="35.301560768857598" lon="-5.216849176213145">
        <ele>173.6552734375</ele>
        <time>2011-04-16T11:43:30Z</time>
      </trkpt>
      <trkpt lat="35.301037067547441" lon="-5.217040535062552">
        <ele>165.00341796875</ele>
        <time>2011-04-16T11:43:35Z</time>
      </trkpt>
      <trkpt lat="35.300800111144781" lon="-5.216741804033518">
        <ele>156.8321533203125</ele>
        <time>2011-04-16T11:43:39Z</time>
      </trkpt>
      <trkpt lat="35.300646722316742" lon="-5.216457657516003">
        <ele>150.10302734375</ele>
        <time>2011-04-16T11:43:42Z</time>
      </trkpt>
      <trkpt lat="35.300494758412242" lon="-5.214870041236281">
        <ele>130.39599609375</ele>
        <time>2011-04-16T11:43:52Z</time>
      </trkpt>
      <trkpt lat="35.300488974899054" lon="-5.214424291625619">
        <ele>126.5506591796875</ele>
        <time>2011-04-16T11:43:55Z</time>
      </trkpt>
      <trkpt lat="35.300265178084373" lon="-5.214012572541833">
        <ele>121.744140625</ele>
        <time>2011-04-16T11:44:00Z</time>
      </trkpt>
      <trkpt lat="35.299816746264696" lon="-5.213975608348846">
        <ele>116.456787109375</ele>
        <time>2011-04-16T11:44:05Z</time>
      </trkpt>
      <trkpt lat="35.299474932253361" lon="-5.214250283315778">
        <ele>108.7662353515625</ele>
        <time>2011-04-16T11:44:09Z</time>
      </trkpt>
      <trkpt lat="35.299351802095771" lon="-5.214436529204249">
        <ele>105.8824462890625</ele>
        <time>2011-04-16T11:44:11Z</time>
      </trkpt>
      <trkpt lat="35.298797255381942" lon="-5.216020541265607">
        <ele>94.8271484375</ele>
        <time>2011-04-16T11:44:21Z</time>
      </trkpt>
      <trkpt lat="35.29826458543539" lon="-5.21789163351059">
        <ele>100.5950927734375</ele>
        <time>2011-04-16T11:44:33Z</time>
      </trkpt>
      <trkpt lat="35.297948336228728" lon="-5.218731081113219">
        <ele>109.7276611328125</ele>
        <time>2011-04-16T11:44:39Z</time>
      </trkpt>
      <trkpt lat="35.297780949622393" lon="-5.219754092395306">
        <ele>120.3021240234375</ele>
        <time>2011-04-16T11:44:46Z</time>
      </trkpt>
      <trkpt lat="35.297751277685165" lon="-5.220190873369575">
        <ele>127.0313720703125</ele>
        <time>2011-04-16T11:44:49Z</time>
      </trkpt>
      <trkpt lat="35.297941546887159" lon="-5.220841476693749">
        <ele>135.68310546875</ele>
        <time>2011-04-16T11:44:55Z</time>
      </trkpt>
      <trkpt lat="35.298079680651426" lon="-5.221098549664021">
        <ele>139.0478515625</ele>
        <time>2011-04-16T11:44:58Z</time>
      </trkpt>
      <trkpt lat="35.29822058044374" lon="-5.221591321751475">
        <ele>145.29638671875</ele>
        <time>2011-04-16T11:45:03Z</time>
      </trkpt>
      <trkpt lat="35.298202224075794" lon="-5.222977101802826">
        <ele>160.1968994140625</ele>
        <time>2011-04-16T11:45:14Z</time>
      </trkpt>
      <trkpt lat="35.297943642362952" lon="-5.223935153335333">
        <ele>169.81005859375</ele>
        <time>2011-04-16T11:45:22Z</time>
      </trkpt>
      <trkpt lat="35.297504430636764" lon="-5.224768565967679">
        <ele>177.5006103515625</ele>
        <time>2011-04-16T11:45:30Z</time>
      </trkpt>
      <trkpt lat="35.297115929424763" lon="-5.225388575345278">
        <ele>186.1524658203125</ele>
        <time>2011-04-16T11:45:36Z</time>
      </trkpt>
      <trkpt lat="35.296885259449482" lon="-5.225914707407355">
        <ele>191.4395751953125</ele>
        <time>2011-04-16T11:45:40Z</time>
      </trkpt>
      <trkpt lat="35.296447640284896" lon="-5.226777037605643">
        <ele>199.130126953125</ele>
        <time>2011-04-16T11:45:47Z</time>
      </trkpt>
      <trkpt lat="35.296007003635168" lon="-5.22752788849175">
        <ele>204.8980712890625</ele>
        <time>2011-04-16T11:45:54Z</time>
      </trkpt>
      <trkpt lat="35.295790918171406" lon="-5.227831983938813">
        <ele>207.3013916015625</ele>
        <time>2011-04-16T11:45:58Z</time>
      </trkpt>
      <trkpt lat="35.295356148853898" lon="-5.22837764583528">
        <ele>208.743408203125</ele>
        <time>2011-04-16T11:46:05Z</time>
      </trkpt>
      <trkpt lat="35.29503227211535" lon="-5.228794310241938">
        <ele>206.340087890625</ele>
        <time>2011-04-16T11:46:12Z</time>
      </trkpt>
      <trkpt lat="35.294389463961124" lon="-5.229232013225555">
        <ele>198.6495361328125</ele>
        <time>2011-04-16T11:46:20Z</time>
      </trkpt>
      <trkpt lat="35.293720168992877" lon="-5.229674326255918">
        <ele>191.4395751953125</ele>
        <time>2011-04-16T11:46:27Z</time>
      </trkpt>
      <trkpt lat="35.293253716081381" lon="-5.230002645403147">
        <ele>185.191162109375</ele>
        <time>2011-04-16T11:46:33Z</time>
      </trkpt>
      <trkpt lat="35.292871333658695" lon="-5.230200039222837">
        <ele>180.865234375</ele>
        <time>2011-04-16T11:46:37Z</time>
      </trkpt>
      <trkpt lat="35.29220069758594" lon="-5.230401875451207">
        <ele>173.1746826171875</ele>
        <time>2011-04-16T11:46:43Z</time>
      </trkpt>
      <trkpt lat="35.291784787550569" lon="-5.230481252074242">
        <ele>170.2906494140625</ele>
        <time>2011-04-16T11:46:47Z</time>
      </trkpt>
      <trkpt lat="35.291291931644082" lon="-5.230558281764388">
        <ele>166.926025390625</ele>
        <time>2011-04-16T11:46:55Z</time>
      </trkpt>
      <trkpt lat="35.290863197296858" lon="-5.230616284534335">
        <ele>166.4453125</ele>
        <time>2011-04-16T11:47:02Z</time>
      </trkpt>
      <trkpt lat="35.290294736623764" lon="-5.2306819986552">
        <ele>163.5615234375</ele>
        <time>2011-04-16T11:47:08Z</time>
      </trkpt>
      <trkpt lat="35.290093151852489" lon="-5.230704378336668">
        <ele>162.1195068359375</ele>
        <time>2011-04-16T11:47:10Z</time>
      </trkpt>
      <trkpt lat="35.289154965430498" lon="-5.230841673910618">
        <ele>157.3128662109375</ele>
        <time>2011-04-16T11:47:18Z</time>
      </trkpt>
      <trkpt lat="35.288449125364423" lon="-5.231200084090233">
        <ele>155.3902587890625</ele>
        <time>2011-04-16T11:47:24Z</time>
      </trkpt>
      <trkpt lat="35.28764077462256" lon="-5.232214713469148">
        <ele>153.4676513671875</ele>
        <time>2011-04-16T11:47:33Z</time>
      </trkpt>
      <trkpt lat="35.286886738613248" lon="-5.233027758076787">
        <ele>151.544921875</ele>
        <time>2011-04-16T11:47:40Z</time>
      </trkpt>
      <trkpt lat="35.286385165527463" lon="-5.233364626765251">
        <ele>155.8709716796875</ele>
        <time>2011-04-16T11:47:45Z</time>
      </trkpt>
      <trkpt lat="35.28623747639358" lon="-5.233420031145215">
        <ele>155.3902587890625</ele>
        <time>2011-04-16T11:47:50Z</time>
      </trkpt>
      <trkpt lat="35.286098336800933" lon="-5.233472166582942">
        <ele>158.274169921875</ele>
        <time>2011-04-16T11:48:07Z</time>
      </trkpt>
      <trkpt lat="35.285427700728178" lon="-5.233584064990282">
        <ele>158.274169921875</ele>
        <time>2011-04-16T11:48:15Z</time>
      </trkpt>
      <trkpt lat="35.284580960869789" lon="-5.233413241803646">
        <ele>157.3128662109375</ele>
        <time>2011-04-16T11:48:23Z</time>
      </trkpt>
      <trkpt lat="35.284155160188675" lon="-5.233386671170592">
        <ele>156.8321533203125</ele>
        <time>2011-04-16T11:48:29Z</time>
      </trkpt>
      <trkpt lat="35.283691976219416" lon="-5.233423803001642">
        <ele>154.428955078125</ele>
        <time>2011-04-16T11:48:38Z</time>
      </trkpt>
      <trkpt lat="35.283201215788722" lon="-5.233503514900804">
        <ele>155.3902587890625</ele>
        <time>2011-04-16T11:48:45Z</time>
      </trkpt>
      <trkpt lat="35.282760243862867" lon="-5.23358347825706">
        <ele>156.8321533203125</ele>
        <time>2011-04-16T11:48:53Z</time>
      </trkpt>
      <trkpt lat="35.282398983836174" lon="-5.233631171286106">
        <ele>160.677490234375</ele>
        <time>2011-04-16T11:49:06Z</time>
      </trkpt>
      <trkpt lat="35.281828260049224" lon="-5.233614910393953">
        <ele>164.522705078125</ele>
        <time>2011-04-16T11:49:15Z</time>
      </trkpt>
      <trkpt lat="35.280882110819221" lon="-5.233593704178929">
        <ele>173.6552734375</ele>
        <time>2011-04-16T11:49:27Z</time>
      </trkpt>
      <trkpt lat="35.280447006225586" lon="-5.233622705563903">
        <ele>175.0972900390625</ele>
        <time>2011-04-16T11:49:33Z</time>
      </trkpt>
      <trkpt lat="35.280245589092374" lon="-5.233642822131515">
        <ele>175.0972900390625</ele>
        <time>2011-04-16T11:49:40Z</time>
      </trkpt>
      <trkpt lat="35.280104437842965" lon="-5.233653383329511">
        <ele>174.1358642578125</ele>
        <time>2011-04-16T11:54:12Z</time>
      </trkpt>
      <trkpt lat="35.279786679893732" lon="-5.233627986162901">
        <ele>172.6939697265625</ele>
        <time>2011-04-16T11:54:20Z</time>
      </trkpt>
      <trkpt lat="35.279632285237312" lon="-5.233615664765239">
        <ele>170.2906494140625</ele>
        <time>2011-04-16T11:55:08Z</time>
      </trkpt>
      <trkpt lat="35.279251914471388" lon="-5.233154827728868">
        <ele>162.1195068359375</ele>
        <time>2011-04-16T11:55:18Z</time>
      </trkpt>
      <trkpt lat="35.279188547283411" lon="-5.233053490519524">
        <ele>160.1968994140625</ele>
        <time>2011-04-16T11:55:25Z</time>
      </trkpt>
      <trkpt lat="35.278974138200283" lon="-5.232713855803013">
        <ele>154.428955078125</ele>
        <time>2011-04-16T11:55:35Z</time>
      </trkpt>
      <trkpt lat="35.278701893985271" lon="-5.233053490519524">
        <ele>149.622314453125</ele>
        <time>2011-04-16T11:55:43Z</time>
      </trkpt>
      <trkpt lat="35.278905909508467" lon="-5.233483146876097">
        <ele>143.3736572265625</ele>
        <time>2011-04-16T11:55:51Z</time>
      </trkpt>
      <trkpt lat="35.278850924223661" lon="-5.233832504600287">
        <ele>139.0478515625</ele>
        <time>2011-04-16T11:55:57Z</time>
      </trkpt>
      <trkpt lat="35.278704073280096" lon="-5.233905930072069">
        <ele>138.5672607421875</ele>
        <time>2011-04-16T11:56:01Z</time>
      </trkpt>
      <trkpt lat="35.278477929532528" lon="-5.23388640023768">
        <ele>140.970458984375</ele>
        <time>2011-04-16T11:56:06Z</time>
      </trkpt>
      <trkpt lat="35.277923131361604" lon="-5.233506448566914">
        <ele>148.6610107421875</ele>
        <time>2011-04-16T11:56:15Z</time>
      </trkpt>
      <trkpt lat="35.27767913416028" lon="-5.233458671718836">
        <ele>153.9483642578125</ele>
        <time>2011-04-16T11:56:21Z</time>
      </trkpt>
      <trkpt lat="35.277248723432422" lon="-5.233540646731854">
        <ele>155.3902587890625</ele>
        <time>2011-04-16T11:56:27Z</time>
      </trkpt>
      <trkpt lat="35.277030458673835" lon="-5.233557159081101">
        <ele>155.8709716796875</ele>
        <time>2011-04-16T11:56:29Z</time>
      </trkpt>
      <trkpt lat="35.276622762903571" lon="-5.233458504080772">
        <ele>159.7161865234375</ele>
        <time>2011-04-16T11:56:33Z</time>
      </trkpt>
      <trkpt lat="35.276148933917284" lon="-5.233278963714838">
        <ele>164.0421142578125</ele>
        <time>2011-04-16T11:56:38Z</time>
      </trkpt>
      <trkpt lat="35.275928406044841" lon="-5.233308635652065">
        <ele>165.00341796875</ele>
        <time>2011-04-16T11:56:42Z</time>
      </trkpt>
      <trkpt lat="35.27543974108994" lon="-5.233749523758888">
        <ele>162.60009765625</ele>
        <time>2011-04-16T11:56:50Z</time>
      </trkpt>
      <trkpt lat="35.275362711399794" lon="-5.233825463801622">
        <ele>162.1195068359375</ele>
        <time>2011-04-16T11:56:51Z</time>
      </trkpt>
      <trkpt lat="35.274805147200823" lon="-5.23446106351912">
        <ele>157.3128662109375</ele>
        <time>2011-04-16T11:56:58Z</time>
      </trkpt>
      <trkpt lat="35.274173570796847" lon="-5.234541110694408">
        <ele>159.7161865234375</ele>
        <time>2011-04-16T11:57:03Z</time>
      </trkpt>
      <trkpt lat="35.273894788697362" lon="-5.234490148723126">
        <ele>161.158203125</ele>
        <time>2011-04-16T11:57:05Z</time>
      </trkpt>
      <trkpt lat="35.272514540702105" lon="-5.233903918415308">
        <ele>172.2132568359375</ele>
        <time>2011-04-16T11:57:14Z</time>
      </trkpt>
      <trkpt lat="35.271653886884451" lon="-5.233536623418331">
        <ele>180.865234375</ele>
        <time>2011-04-16T11:57:20Z</time>
      </trkpt>
      <trkpt lat="35.271142506971955" lon="-5.233354903757572">
        <ele>184.2298583984375</ele>
        <time>2011-04-16T11:57:24Z</time>
      </trkpt>
      <trkpt lat="35.270275315269828" lon="-5.233248956501484">
        <ele>185.191162109375</ele>
        <time>2011-04-16T11:57:30Z</time>
      </trkpt>
      <trkpt lat="35.269760582596064" lon="-5.232965312898159">
        <ele>184.2298583984375</ele>
        <time>2011-04-16T11:57:34Z</time>
      </trkpt>
      <trkpt lat="35.268845530226827" lon="-5.232000891119242">
        <ele>184.7105712890625</ele>
        <time>2011-04-16T11:57:41Z</time>
      </trkpt>
      <trkpt lat="35.267803575843573" lon="-5.230748550966382">
        <ele>195.765625</ele>
        <time>2011-04-16T11:57:49Z</time>
      </trkpt>
      <trkpt lat="35.266904449090362" lon="-5.229549100622535">
        <ele>206.340087890625</ele>
        <time>2011-04-16T11:57:57Z</time>
      </trkpt>
      <trkpt lat="35.266659697517753" lon="-5.229051718488336">
        <ele>211.62744140625</ele>
        <time>2011-04-16T11:58:01Z</time>
      </trkpt>
      <trkpt lat="35.266444869339466" lon="-5.229012407362461">
        <ele>216.9146728515625</ele>
        <time>2011-04-16T11:58:06Z</time>
      </trkpt>
      <trkpt lat="35.26642357930541" lon="-5.22919949144125">
        <ele>219.798583984375</ele>
        <time>2011-04-16T11:58:10Z</time>
      </trkpt>
      <trkpt lat="35.266553917899728" lon="-5.230019995942712">
        <ele>227.9697265625</ele>
        <time>2011-04-16T11:58:17Z</time>
      </trkpt>
      <trkpt lat="35.266630779951811" lon="-5.230391398072243">
        <ele>230.853759765625</ele>
        <time>2011-04-16T11:58:20Z</time>
      </trkpt>
      <trkpt lat="35.266986843198538" lon="-5.231627644971013">
        <ele>242.3896484375</ele>
        <time>2011-04-16T11:58:29Z</time>
      </trkpt>
      <trkpt lat="35.267493277788162" lon="-5.232797339558601">
        <ele>254.406005859375</ele>
        <time>2011-04-16T11:58:37Z</time>
      </trkpt>
      <trkpt lat="35.267638703808188" lon="-5.233274437487125">
        <ele>258.73193359375</ele>
        <time>2011-04-16T11:58:40Z</time>
      </trkpt>
      <trkpt lat="35.267646498978138" lon="-5.23390157148242">
        <ele>265.4613037109375</ele>
        <time>2011-04-16T11:58:45Z</time>
      </trkpt>
      <trkpt lat="35.267432844266295" lon="-5.234121764078736">
        <ele>271.709716796875</ele>
        <time>2011-04-16T11:58:49Z</time>
      </trkpt>
      <trkpt lat="35.267012910917401" lon="-5.233589764684439">
        <ele>276.9970703125</ele>
        <time>2011-04-16T11:58:56Z</time>
      </trkpt>
      <trkpt lat="35.266737146303058" lon="-5.232885768637061">
        <ele>282.7650146484375</ele>
        <time>2011-04-16T11:59:01Z</time>
      </trkpt>
      <trkpt lat="35.266302293166518" lon="-5.232366090640426">
        <ele>289.0135498046875</ele>
        <time>2011-04-16T11:59:06Z</time>
      </trkpt>
      <trkpt lat="35.265986463055015" lon="-5.231665363535285">
        <ele>294.30078125</ele>
        <time>2011-04-16T11:59:12Z</time>
      </trkpt>
      <trkpt lat="35.265961065888405" lon="-5.231524463742971">
        <ele>294.7813720703125</ele>
        <time>2011-04-16T11:59:13Z</time>
      </trkpt>
      <trkpt lat="35.26588168926537" lon="-5.231092125177383">
        <ele>297.1846923828125</ele>
        <time>2011-04-16T11:59:16Z</time>
      </trkpt>
      <trkpt lat="35.265695191919804" lon="-5.230767661705613">
        <ele>301.0299072265625</ele>
        <time>2011-04-16T11:59:21Z</time>
      </trkpt>
      <trkpt lat="35.265429820865393" lon="-5.23094242438674">
        <ele>302.9525146484375</ele>
        <time>2011-04-16T11:59:26Z</time>
      </trkpt>
      <trkpt lat="35.265434263274074" lon="-5.231271162629128">
        <ele>304.3946533203125</ele>
        <time>2011-04-16T11:59:29Z</time>
      </trkpt>
      <trkpt lat="35.265455385670066" lon="-5.231503425166011">
        <ele>305.35595703125</ele>
        <time>2011-04-16T11:59:31Z</time>
      </trkpt>
      <trkpt lat="35.265515483915806" lon="-5.232090828940272">
        <ele>308.2398681640625</ele>
        <time>2011-04-16T11:59:36Z</time>
      </trkpt>
      <trkpt lat="35.265637272968888" lon="-5.232615200802684">
        <ele>311.6044921875</ele>
        <time>2011-04-16T11:59:41Z</time>
      </trkpt>
      <trkpt lat="35.265715811401606" lon="-5.23281142115593">
        <ele>313.0465087890625</ele>
        <time>2011-04-16T11:59:43Z</time>
      </trkpt>
      <trkpt lat="35.265861405059695" lon="-5.233240909874439">
        <ele>315.930419921875</ele>
        <time>2011-04-16T11:59:48Z</time>
      </trkpt>
      <trkpt lat="35.265816058963537" lon="-5.233345599845052">
        <ele>316.4110107421875</ele>
        <time>2011-04-16T11:59:49Z</time>
      </trkpt>
      <trkpt lat="35.265282467007637" lon="-5.234507415443659">
        <ele>324.582275390625</ele>
        <time>2011-04-16T11:59:58Z</time>
      </trkpt>
      <trkpt lat="35.265007540583611" lon="-5.235524475574493">
        <ele>333.7147216796875</ele>
        <time>2011-04-16T12:00:05Z</time>
      </trkpt>
      <trkpt lat="35.264796484261751" lon="-5.236131157726049">
        <ele>338.521484375</ele>
        <time>2011-04-16T12:00:10Z</time>
      </trkpt>
      <trkpt lat="35.264708306640387" lon="-5.236527286469936">
        <ele>341.4052734375</ele>
        <time>2011-04-16T12:00:13Z</time>
      </trkpt>
      <trkpt lat="35.264697074890137" lon="-5.237295152619481">
        <ele>349.0958251953125</ele>
        <time>2011-04-16T12:00:19Z</time>
      </trkpt>
      <trkpt lat="35.264697074890137" lon="-5.237410571426153">
        <ele>350.0572509765625</ele>
        <time>2011-04-16T12:00:20Z</time>
      </trkpt>
      <trkpt lat="35.264632198959589" lon="-5.2377207018435">
        <ele>354.3831787109375</ele>
        <time>2011-04-16T12:00:24Z</time>
      </trkpt>
      <trkpt lat="35.264564054086804" lon="-5.237866714596748">
        <ele>356.3057861328125</ele>
        <time>2011-04-16T12:00:26Z</time>
      </trkpt>
      <trkpt lat="35.264337072148919" lon="-5.238074166700244">
        <ele>360.6317138671875</ele>
        <time>2011-04-16T12:00:30Z</time>
      </trkpt>
      <trkpt lat="35.263571636751294" lon="-5.238540703430772">
        <ele>363.0350341796875</ele>
        <time>2011-04-16T12:00:39Z</time>
      </trkpt>
      <trkpt lat="35.263319844380021" lon="-5.238729799166322">
        <ele>362.5543212890625</ele>
        <time>2011-04-16T12:00:44Z</time>
      </trkpt>
      <trkpt lat="35.263040140271187" lon="-5.238942364230752">
        <ele>361.1124267578125</ele>
        <time>2011-04-16T12:00:52Z</time>
      </trkpt>
      <trkpt lat="35.262910388410091" lon="-5.239172447472811">
        <ele>359.189697265625</ele>
        <time>2011-04-16T12:00:58Z</time>
      </trkpt>
      <trkpt lat="35.262789353728294" lon="-5.239405045285821">
        <ele>358.2283935546875</ele>
        <time>2011-04-16T12:01:03Z</time>
      </trkpt>
      <trkpt lat="35.262555498629808" lon="-5.23979589343071">
        <ele>358.2283935546875</ele>
        <time>2011-04-16T12:01:11Z</time>
      </trkpt>
      <trkpt lat="35.262183342128992" lon="-5.240376088768244">
        <ele>356.3057861328125</ele>
        <time>2011-04-16T12:01:20Z</time>
      </trkpt>
      <trkpt lat="35.261687468737364" lon="-5.241143703460693">
        <ele>353.902587890625</ele>
        <time>2011-04-16T12:01:27Z</time>
      </trkpt>
      <trkpt lat="35.261049354448915" lon="-5.242441557347775">
        <ele>346.2120361328125</ele>
        <time>2011-04-16T12:01:37Z</time>
      </trkpt>
      <trkpt lat="35.260892948135734" lon="-5.242842379957438">
        <ele>342.36669921875</ele>
        <time>2011-04-16T12:01:42Z</time>
      </trkpt>
      <trkpt lat="35.26092940941453" lon="-5.243006162345409">
        <ele>340.444091796875</ele>
        <time>2011-04-16T12:01:48Z</time>
      </trkpt>
      <trkpt lat="35.261240294203162" lon="-5.243267007172108">
        <ele>337.0794677734375</ele>
        <time>2011-04-16T12:01:57Z</time>
      </trkpt>
      <trkpt lat="35.261677075177431" lon="-5.243298523128033">
        <ele>335.15673828125</ele>
        <time>2011-04-16T12:02:03Z</time>
      </trkpt>
      <trkpt lat="35.262160627171397" lon="-5.243388041853905">
        <ele>335.15673828125</ele>
        <time>2011-04-16T12:02:09Z</time>
      </trkpt>
      <trkpt lat="35.2626215480268" lon="-5.243542771786451">
        <ele>334.1954345703125</ele>
        <time>2011-04-16T12:02:14Z</time>
      </trkpt>
      <trkpt lat="35.263041732832789" lon="-5.243681743741036">
        <ele>330.8309326171875</ele>
        <time>2011-04-16T12:02:19Z</time>
      </trkpt>
      <trkpt lat="35.263551352545619" lon="-5.243795989081264">
        <ele>326.985595703125</ele>
        <time>2011-04-16T12:02:26Z</time>
      </trkpt>
      <trkpt lat="35.263801636174321" lon="-5.244003357365727">
        <ele>324.1015625</ele>
        <time>2011-04-16T12:02:33Z</time>
      </trkpt>
      <trkpt lat="35.264115035533905" lon="-5.244976077228785">
        <ele>319.2950439453125</ele>
        <time>2011-04-16T12:02:42Z</time>
      </trkpt>
      <trkpt lat="35.264305975288153" lon="-5.245744362473488">
        <ele>317.3724365234375</ele>
        <time>2011-04-16T12:02:48Z</time>
      </trkpt>
      <trkpt lat="35.264393230900168" lon="-5.246550450101495">
        <ele>314.4884033203125</ele>
        <time>2011-04-16T12:02:54Z</time>
      </trkpt>
      <trkpt lat="35.264369091019034" lon="-5.24671440012753">
        <ele>313.5272216796875</ele>
        <time>2011-04-16T12:02:55Z</time>
      </trkpt>
      <trkpt lat="35.264206063002348" lon="-5.247172890231013">
        <ele>310.64306640625</ele>
        <time>2011-04-16T12:02:58Z</time>
      </trkpt>
      <trkpt lat="35.264070108532906" lon="-5.247937319800258">
        <ele>308.2398681640625</ele>
        <time>2011-04-16T12:03:03Z</time>
      </trkpt>
      <trkpt lat="35.264077484607697" lon="-5.248104957863689">
        <ele>308.720458984375</ele>
        <time>2011-04-16T12:03:04Z</time>
      </trkpt>
      <trkpt lat="35.264094332233071" lon="-5.248576523736119">
        <ele>309.201171875</ele>
        <time>2011-04-16T12:03:07Z</time>
      </trkpt>
      <trkpt lat="35.263992408290505" lon="-5.249147079885006">
        <ele>308.720458984375</ele>
        <time>2011-04-16T12:03:11Z</time>
      </trkpt>
      <trkpt lat="35.263697365298867" lon="-5.249835485592485">
        <ele>305.836669921875</ele>
        <time>2011-04-16T12:03:16Z</time>
      </trkpt>
      <trkpt lat="35.263609439134598" lon="-5.250486675649881">
        <ele>302.471923828125</ele>
        <time>2011-04-16T12:03:20Z</time>
      </trkpt>
      <trkpt lat="35.263583874329925" lon="-5.251902462914586">
        <ele>294.7813720703125</ele>
        <time>2011-04-16T12:03:28Z</time>
      </trkpt>
      <trkpt lat="35.263438448309898" lon="-5.25255692191422">
        <ele>291.8974609375</ele>
        <time>2011-04-16T12:03:34Z</time>
      </trkpt>
      <trkpt lat="35.263144914060831" lon="-5.252955397590995">
        <ele>289.0135498046875</ele>
        <time>2011-04-16T12:03:42Z</time>
      </trkpt>
      <trkpt lat="35.262857247143984" lon="-5.25334901176393">
        <ele>285.6488037109375</ele>
        <time>2011-04-16T12:03:47Z</time>
      </trkpt>
      <trkpt lat="35.262410491704941" lon="-5.254204971715808">
        <ele>278.43896484375</ele>
        <time>2011-04-16T12:03:53Z</time>
      </trkpt>
      <trkpt lat="35.262205470353365" lon="-5.255107535049319">
        <ele>271.709716796875</ele>
        <time>2011-04-16T12:03:58Z</time>
      </trkpt>
      <trkpt lat="35.26227998547256" lon="-5.255921417847276">
        <ele>265.4613037109375</ele>
        <time>2011-04-16T12:04:03Z</time>
      </trkpt>
      <trkpt lat="35.262322733178735" lon="-5.2560755610466">
        <ele>264.4998779296875</ele>
        <time>2011-04-16T12:04:04Z</time>
      </trkpt>
      <trkpt lat="35.262636803090572" lon="-5.256848791614175">
        <ele>259.693359375</ele>
        <time>2011-04-16T12:04:09Z</time>
      </trkpt>
      <trkpt lat="35.262649543583393" lon="-5.25742270052433">
        <ele>255.8480224609375</ele>
        <time>2011-04-16T12:04:13Z</time>
      </trkpt>
      <trkpt lat="35.262639401480556" lon="-5.258100880309939">
        <ele>252.0028076171875</ele>
        <time>2011-04-16T12:04:18Z</time>
      </trkpt>
      <trkpt lat="35.262630516663194" lon="-5.258581330999732">
        <ele>248.63818359375</ele>
        <time>2011-04-16T12:04:24Z</time>
      </trkpt>
      <trkpt lat="35.262093404307961" lon="-5.259004198014736">
        <ele>242.8702392578125</ele>
        <time>2011-04-16T12:04:31Z</time>
      </trkpt>
      <trkpt lat="35.261069303378463" lon="-5.259348778054118">
        <ele>233.257080078125</ele>
        <time>2011-04-16T12:04:41Z</time>
      </trkpt>
      <trkpt lat="35.260633109137416" lon="-5.259459083899856">
        <ele>227.4891357421875</ele>
        <time>2011-04-16T12:04:47Z</time>
      </trkpt>
      <trkpt lat="35.260106390342116" lon="-5.259540053084493">
        <ele>222.2017822265625</ele>
        <time>2011-04-16T12:04:54Z</time>
      </trkpt>
      <trkpt lat="35.259887119755149" lon="-5.259740883484483">
        <ele>219.3179931640625</ele>
        <time>2011-04-16T12:05:00Z</time>
      </trkpt>
      <trkpt lat="35.259888125583529" lon="-5.260253939777613">
        <ele>219.798583984375</ele>
        <time>2011-04-16T12:05:06Z</time>
      </trkpt>
      <trkpt lat="35.260080490261316" lon="-5.26045560836792">
        <ele>220.2791748046875</ele>
        <time>2011-04-16T12:05:11Z</time>
      </trkpt>
      <trkpt lat="35.260529508814216" lon="-5.260535655543208">
        <ele>223.1632080078125</ele>
        <time>2011-04-16T12:05:19Z</time>
      </trkpt>
      <trkpt lat="35.260851122438908" lon="-5.260690888389945">
        <ele>226.047119140625</ele>
        <time>2011-04-16T12:05:24Z</time>
      </trkpt>
      <trkpt lat="35.261030662804842" lon="-5.26083187200129">
        <ele>227.008544921875</ele>
        <time>2011-04-16T12:05:27Z</time>
      </trkpt>
      <trkpt lat="35.261593759059906" lon="-5.260982662439346">
        <ele>233.257080078125</ele>
        <time>2011-04-16T12:05:33Z</time>
      </trkpt>
      <trkpt lat="35.261790147051215" lon="-5.26097109541297">
        <ele>235.6602783203125</ele>
        <time>2011-04-16T12:05:35Z</time>
      </trkpt>
      <trkpt lat="35.262299934402108" lon="-5.26121836155653">
        <ele>241.908935546875</ele>
        <time>2011-04-16T12:05:41Z</time>
      </trkpt>
      <trkpt lat="35.262269508093596" lon="-5.261524636298418">
        <ele>245.2734375</ele>
        <time>2011-04-16T12:05:45Z</time>
      </trkpt>
      <trkpt lat="35.261952420696616" lon="-5.261703254655004">
        <ele>248.1575927734375</ele>
        <time>2011-04-16T12:05:49Z</time>
      </trkpt>
      <trkpt lat="35.261118253692985" lon="-5.261806519702077">
        <ele>256.3287353515625</ele>
        <time>2011-04-16T12:05:57Z</time>
      </trkpt>
      <trkpt lat="35.260771829634905" lon="-5.261559253558517">
        <ele>261.615966796875</ele>
        <time>2011-04-16T12:06:02Z</time>
      </trkpt>
      <trkpt lat="35.260712737217546" lon="-5.26147392578423">
        <ele>262.5771484375</ele>
        <time>2011-04-16T12:06:03Z</time>
      </trkpt>
      <trkpt lat="35.260319709777832" lon="-5.261335372924805">
        <ele>266.9031982421875</ele>
        <time>2011-04-16T12:06:09Z</time>
      </trkpt>
      <trkpt lat="35.260197669267654" lon="-5.261457497254014">
        <ele>268.3450927734375</ele>
        <time>2011-04-16T12:06:11Z</time>
      </trkpt>
      <trkpt lat="35.259805899113417" lon="-5.261817248538137">
        <ele>271.709716796875</ele>
        <time>2011-04-16T12:06:16Z</time>
      </trkpt>
      <trkpt lat="35.259499540552497" lon="-5.262049175798893">
        <ele>275.5550537109375</ele>
        <time>2011-04-16T12:06:21Z</time>
      </trkpt>
      <trkpt lat="35.259102322161198" lon="-5.262191919609904">
        <ele>278.919677734375</ele>
        <time>2011-04-16T12:06:26Z</time>
      </trkpt>
      <trkpt lat="35.258832927793264" lon="-5.262586371973157">
        <ele>279.880859375</ele>
        <time>2011-04-16T12:06:32Z</time>
      </trkpt>
      <trkpt lat="35.258796215057373" lon="-5.262805391103029">
        <ele>280.3616943359375</ele>
        <time>2011-04-16T12:06:34Z</time>
      </trkpt>
      <trkpt lat="35.258750952780247" lon="-5.264064688235521">
        <ele>283.7261962890625</ele>
        <time>2011-04-16T12:06:43Z</time>
      </trkpt>
      <trkpt lat="35.258711893111467" lon="-5.264513874426484">
        <ele>284.6876220703125</ele>
        <time>2011-04-16T12:06:47Z</time>
      </trkpt>
      <trkpt lat="35.258671911433339" lon="-5.265019051730633">
        <ele>286.1295166015625</ele>
        <time>2011-04-16T12:06:52Z</time>
      </trkpt>
      <trkpt lat="35.258697224780917" lon="-5.265761855989695">
        <ele>289.974853515625</ele>
        <time>2011-04-16T12:06:58Z</time>
      </trkpt>
      <trkpt lat="35.258878776803613" lon="-5.266081877052784">
        <ele>291.416748046875</ele>
        <time>2011-04-16T12:07:01Z</time>
      </trkpt>
      <trkpt lat="35.259384540840983" lon="-5.266615720465779">
        <ele>294.30078125</ele>
        <time>2011-04-16T12:07:06Z</time>
      </trkpt>
      <trkpt lat="35.259687965735793" lon="-5.267349388450384">
        <ele>297.6654052734375</ele>
        <time>2011-04-16T12:07:11Z</time>
      </trkpt>
      <trkpt lat="35.25971369817853" lon="-5.26770293712616">
        <ele>299.1072998046875</ele>
        <time>2011-04-16T12:07:13Z</time>
      </trkpt>
      <trkpt lat="35.259627616032958" lon="-5.268762828782201">
        <ele>303.9139404296875</ele>
        <time>2011-04-16T12:07:20Z</time>
      </trkpt>
      <trkpt lat="35.259425947442651" lon="-5.26960956864059">
        <ele>305.836669921875</ele>
        <time>2011-04-16T12:07:27Z</time>
      </trkpt>
      <trkpt lat="35.259172897785902" lon="-5.270365113392472">
        <ele>306.3172607421875</ele>
        <time>2011-04-16T12:07:35Z</time>
      </trkpt>
      <trkpt lat="35.258827395737171" lon="-5.270752273499966">
        <ele>305.35595703125</ele>
        <time>2011-04-16T12:07:41Z</time>
      </trkpt>
      <trkpt lat="35.258745169267058" lon="-5.270810360088944">
        <ele>304.875244140625</ele>
        <time>2011-04-16T12:07:42Z</time>
      </trkpt>
      <trkpt lat="35.257453685626388" lon="-5.270819664001465">
        <ele>295.261962890625</ele>
        <time>2011-04-16T12:07:53Z</time>
      </trkpt>
      <trkpt lat="35.25642279535532" lon="-5.270745903253555">
        <ele>290.9361572265625</ele>
        <time>2011-04-16T12:08:00Z</time>
      </trkpt>
      <trkpt lat="35.255952905863523" lon="-5.270672896876931">
        <ele>290.9361572265625</ele>
        <time>2011-04-16T12:08:03Z</time>
      </trkpt>
      <trkpt lat="35.255332393571734" lon="-5.270950756967068">
        <ele>292.378173828125</ele>
        <time>2011-04-16T12:08:08Z</time>
      </trkpt>
      <trkpt lat="35.25490558706224" lon="-5.27163396589458">
        <ele>296.2235107421875</ele>
        <time>2011-04-16T12:08:13Z</time>
      </trkpt>
      <trkpt lat="35.254848757758737" lon="-5.271804537624121">
        <ele>297.6654052734375</ele>
        <time>2011-04-16T12:08:14Z</time>
      </trkpt>
      <trkpt lat="35.25475412607193" lon="-5.272351121529937">
        <ele>301.0299072265625</ele>
        <time>2011-04-16T12:08:17Z</time>
      </trkpt>
      <trkpt lat="35.254109473899007" lon="-5.273194257169962">
        <ele>308.720458984375</ele>
        <time>2011-04-16T12:08:23Z</time>
      </trkpt>
      <trkpt lat="35.253611672669649" lon="-5.273930104449391">
        <ele>314.4884033203125</ele>
        <time>2011-04-16T12:08:29Z</time>
      </trkpt>
      <trkpt lat="35.253494828939438" lon="-5.274187093600631">
        <ele>315.4498291015625</ele>
        <time>2011-04-16T12:08:31Z</time>
      </trkpt>
      <trkpt lat="35.253064837306738" lon="-5.275230137631297">
        <ele>312.5657958984375</ele>
        <time>2011-04-16T12:08:38Z</time>
      </trkpt>
      <trkpt lat="35.252759316936135" lon="-5.276526147499681">
        <ele>305.35595703125</ele>
        <time>2011-04-16T12:08:45Z</time>
      </trkpt>
      <trkpt lat="35.252202088013291" lon="-5.277701122686267">
        <ele>299.5880126953125</ele>
        <time>2011-04-16T12:08:52Z</time>
      </trkpt>
      <trkpt lat="35.251673441380262" lon="-5.278970478102565">
        <ele>291.8974609375</ele>
        <time>2011-04-16T12:08:59Z</time>
      </trkpt>
      <trkpt lat="35.251432880759239" lon="-5.279694003984332">
        <ele>287.5714111328125</ele>
        <time>2011-04-16T12:09:03Z</time>
      </trkpt>
      <trkpt lat="35.25126582942903" lon="-5.280488021671772">
        <ele>285.6488037109375</ele>
        <time>2011-04-16T12:09:08Z</time>
      </trkpt>
      <trkpt lat="35.251039518043399" lon="-5.281386561691761">
        <ele>284.6876220703125</ele>
        <time>2011-04-16T12:09:14Z</time>
      </trkpt>
      <trkpt lat="35.2507234364748" lon="-5.282249730080366">
        <ele>283.7261962890625</ele>
        <time>2011-04-16T12:09:21Z</time>
      </trkpt>
      <trkpt lat="35.250366870313883" lon="-5.282794637605548">
        <ele>283.24560546875</ele>
        <time>2011-04-16T12:09:25Z</time>
      </trkpt>
      <trkpt lat="35.24969631806016" lon="-5.283661326393485">
        <ele>282.2843017578125</ele>
        <time>2011-04-16T12:09:31Z</time>
      </trkpt>
      <trkpt lat="35.248805992305279" lon="-5.285092452540994">
        <ele>280.8424072265625</ele>
        <time>2011-04-16T12:09:40Z</time>
      </trkpt>
      <trkpt lat="35.248321853578091" lon="-5.286239180713892">
        <ele>280.8424072265625</ele>
        <time>2011-04-16T12:09:47Z</time>
      </trkpt>
      <trkpt lat="35.247643925249577" lon="-5.287194550037384">
        <ele>279.880859375</ele>
        <time>2011-04-16T12:09:54Z</time>
      </trkpt>
      <trkpt lat="35.247290460392833" lon="-5.287926625460386">
        <ele>277.958251953125</ele>
        <time>2011-04-16T12:10:00Z</time>
      </trkpt>
      <trkpt lat="35.247234301641583" lon="-5.288327112793922">
        <ele>275.5550537109375</ele>
        <time>2011-04-16T12:10:04Z</time>
      </trkpt>
      <trkpt lat="35.247279731556773" lon="-5.288771688938141">
        <ele>272.671142578125</ele>
        <time>2011-04-16T12:10:08Z</time>
      </trkpt>
      <trkpt lat="35.247546443715692" lon="-5.28927787207067">
        <ele>272.671142578125</ele>
        <time>2011-04-16T12:10:12Z</time>
      </trkpt>
      <trkpt lat="35.248331828042865" lon="-5.290463827550411">
        <ele>276.516357421875</ele>
        <time>2011-04-16T12:10:20Z</time>
      </trkpt>
      <trkpt lat="35.249142860993743" lon="-5.29198145493865">
        <ele>281.8035888671875</ele>
        <time>2011-04-16T12:10:28Z</time>
      </trkpt>
      <trkpt lat="35.250231921672821" lon="-5.293916752561927">
        <ele>289.0135498046875</ele>
        <time>2011-04-16T12:10:38Z</time>
      </trkpt>
      <trkpt lat="35.250532580539584" lon="-5.294376667588949">
        <ele>289.494140625</ele>
        <time>2011-04-16T12:10:41Z</time>
      </trkpt>
      <trkpt lat="35.250599384307861" lon="-5.295139504596591">
        <ele>288.532958984375</ele>
        <time>2011-04-16T12:10:46Z</time>
      </trkpt>
      <trkpt lat="35.25045127607882" lon="-5.295513169839978">
        <ele>289.0135498046875</ele>
        <time>2011-04-16T12:10:49Z</time>
      </trkpt>
      <trkpt lat="35.250166542828083" lon="-5.296082887798548">
        <ele>290.9361572265625</ele>
        <time>2011-04-16T12:10:53Z</time>
      </trkpt>
      <trkpt lat="35.249980380758643" lon="-5.296908421441913">
        <ele>291.8974609375</ele>
        <time>2011-04-16T12:10:58Z</time>
      </trkpt>
      <trkpt lat="35.250018266960979" lon="-5.297290552407503">
        <ele>292.378173828125</ele>
        <time>2011-04-16T12:11:00Z</time>
      </trkpt>
      <trkpt lat="35.250299898907542" lon="-5.298783201724291">
        <ele>291.8974609375</ele>
        <time>2011-04-16T12:11:08Z</time>
      </trkpt>
      <trkpt lat="35.250332001596689" lon="-5.298927454277873">
        <ele>291.416748046875</ele>
        <time>2011-04-16T12:11:09Z</time>
      </trkpt>
      <trkpt lat="35.250148857012391" lon="-5.299539836123586">
        <ele>288.05224609375</ele>
        <time>2011-04-16T12:11:14Z</time>
      </trkpt>
      <trkpt lat="35.249731354415417" lon="-5.299604712054133">
        <ele>285.168212890625</ele>
        <time>2011-04-16T12:11:18Z</time>
      </trkpt>
      <trkpt lat="35.24960202164948" lon="-5.29959230683744">
        <ele>284.2069091796875</ele>
        <time>2011-04-16T12:11:19Z</time>
      </trkpt>
      <trkpt lat="35.248260665684938" lon="-5.299291983246803">
        <ele>280.3616943359375</ele>
        <time>2011-04-16T12:11:28Z</time>
      </trkpt>
      <trkpt lat="35.247843498364091" lon="-5.299273040145636">
        <ele>279.880859375</ele>
        <time>2011-04-16T12:11:31Z</time>
      </trkpt>
      <trkpt lat="35.24726347066462" lon="-5.299579398706555">
        <ele>277.958251953125</ele>
        <time>2011-04-16T12:11:36Z</time>
      </trkpt>
      <trkpt lat="35.247059455141425" lon="-5.300110476091504">
        <ele>276.9970703125</ele>
        <time>2011-04-16T12:11:40Z</time>
      </trkpt>
      <trkpt lat="35.247021820396185" lon="-5.300267469137907">
        <ele>276.9970703125</ele>
        <time>2011-04-16T12:11:41Z</time>
      </trkpt>
      <trkpt lat="35.246728621423244" lon="-5.301736146211624">
        <ele>276.516357421875</ele>
        <time>2011-04-16T12:11:49Z</time>
      </trkpt>
      <trkpt lat="35.246432740241289" lon="-5.302980691194534">
        <ele>276.516357421875</ele>
        <time>2011-04-16T12:11:56Z</time>
      </trkpt>
      <trkpt lat="35.246042143553495" lon="-5.303677897900343">
        <ele>275.5550537109375</ele>
        <time>2011-04-16T12:12:02Z</time>
      </trkpt>
      <trkpt lat="35.245466893538833" lon="-5.303893480449915">
        <ele>275.074462890625</ele>
        <time>2011-04-16T12:12:07Z</time>
      </trkpt>
      <trkpt lat="35.245337644591928" lon="-5.303877219557762">
        <ele>275.074462890625</ele>
        <time>2011-04-16T12:12:08Z</time>
      </trkpt>
      <trkpt lat="35.243893777951598" lon="-5.303843021392822">
        <ele>281.322998046875</ele>
        <time>2011-04-16T12:12:18Z</time>
      </trkpt>
      <trkpt lat="35.242884932085872" lon="-5.303822569549084">
        <ele>282.7650146484375</ele>
        <time>2011-04-16T12:12:24Z</time>
      </trkpt>
      <trkpt lat="35.241943057626486" lon="-5.303535657003522">
        <ele>286.6102294921875</ele>
        <time>2011-04-16T12:12:30Z</time>
      </trkpt>
      <trkpt lat="35.241528321057558" lon="-5.303383441641927">
        <ele>288.05224609375</ele>
        <time>2011-04-16T12:12:33Z</time>
      </trkpt>
      <trkpt lat="35.240728855133057" lon="-5.303585529327393">
        <ele>288.532958984375</ele>
        <time>2011-04-16T12:12:39Z</time>
      </trkpt>
      <trkpt lat="35.240357369184494" lon="-5.303884763270617">
        <ele>289.0135498046875</ele>
        <time>2011-04-16T12:12:42Z</time>
      </trkpt>
      <trkpt lat="35.239334106445313" lon="-5.304765701293945">
        <ele>295.261962890625</ele>
        <time>2011-04-16T12:12:50Z</time>
      </trkpt>
      <trkpt lat="35.238470016047359" lon="-5.304935351014137">
        <ele>298.1461181640625</ele>
        <time>2011-04-16T12:12:56Z</time>
      </trkpt>
      <trkpt lat="35.237111561000347" lon="-5.30505420640111">
        <ele>301.5106201171875</ele>
        <time>2011-04-16T12:13:05Z</time>
      </trkpt>
      <trkpt lat="35.236218888312578" lon="-5.305231986567378">
        <ele>302.9525146484375</ele>
        <time>2011-04-16T12:13:12Z</time>
      </trkpt>
      <trkpt lat="35.234894547611475" lon="-5.305792819708586">
        <ele>302.471923828125</ele>
        <time>2011-04-16T12:13:22Z</time>
      </trkpt>
      <trkpt lat="35.233502481132746" lon="-5.306419534608722">
        <ele>301.9913330078125</ele>
        <time>2011-04-16T12:13:32Z</time>
      </trkpt>
      <trkpt lat="35.232351562008262" lon="-5.307220760732889">
        <ele>297.6654052734375</ele>
        <time>2011-04-16T12:13:41Z</time>
      </trkpt>
      <trkpt lat="35.231617726385593" lon="-5.308104967698455">
        <ele>298.626708984375</ele>
        <time>2011-04-16T12:13:48Z</time>
      </trkpt>
      <trkpt lat="35.230676019564271" lon="-5.309590073302388">
        <ele>297.6654052734375</ele>
        <time>2011-04-16T12:13:57Z</time>
      </trkpt>
      <trkpt lat="35.229811426252127" lon="-5.310829505324364">
        <ele>295.74267578125</ele>
        <time>2011-04-16T12:14:06Z</time>
      </trkpt>
      <trkpt lat="35.22911187261343" lon="-5.312012024223805">
        <ele>291.416748046875</ele>
        <time>2011-04-16T12:14:15Z</time>
      </trkpt>
      <trkpt lat="35.228822361677885" lon="-5.313127236440778">
        <ele>291.416748046875</ele>
        <time>2011-04-16T12:14:22Z</time>
      </trkpt>
      <trkpt lat="35.228737620636821" lon="-5.314757600426674">
        <ele>292.378173828125</ele>
        <time>2011-04-16T12:14:30Z</time>
      </trkpt>
      <trkpt lat="35.228618681430817" lon="-5.316386539489031">
        <ele>297.1846923828125</ele>
        <time>2011-04-16T12:14:38Z</time>
      </trkpt>
      <trkpt lat="35.228779949247837" lon="-5.317727476358414">
        <ele>293.820068359375</ele>
        <time>2011-04-16T12:14:45Z</time>
      </trkpt>
      <trkpt lat="35.2289994712919" lon="-5.318987527862191">
        <ele>287.5714111328125</ele>
        <time>2011-04-16T12:14:53Z</time>
      </trkpt>
      <trkpt lat="35.229112543165684" lon="-5.320345060899854">
        <ele>285.168212890625</ele>
        <time>2011-04-16T12:15:02Z</time>
      </trkpt>
      <trkpt lat="35.229103406891227" lon="-5.320961801335216">
        <ele>284.6876220703125</ele>
        <time>2011-04-16T12:15:08Z</time>
      </trkpt>
      <trkpt lat="35.22920373827219" lon="-5.321652553975582">
        <ele>284.2069091796875</ele>
        <time>2011-04-16T12:15:14Z</time>
      </trkpt>
      <trkpt lat="35.229470618069172" lon="-5.322374990209937">
        <ele>285.168212890625</ele>
        <time>2011-04-16T12:15:22Z</time>
      </trkpt>
      <trkpt lat="35.229473132640123" lon="-5.322560733184218">
        <ele>285.6488037109375</ele>
        <time>2011-04-16T12:15:29Z</time>
      </trkpt>
      <trkpt lat="35.229381183162332" lon="-5.322602894157171">
        <ele>285.168212890625</ele>
        <time>2011-04-16T12:15:38Z</time>
      </trkpt>
      <trkpt lat="35.228930488228798" lon="-5.322456546127796">
        <ele>284.6876220703125</ele>
        <time>2011-04-16T12:15:45Z</time>
      </trkpt>
      <trkpt lat="35.228124065324664" lon="-5.322269713506103">
        <ele>285.168212890625</ele>
        <time>2011-04-16T12:15:52Z</time>
      </trkpt>
      <trkpt lat="35.226730993017554" lon="-5.322056142613292">
        <ele>283.7261962890625</ele>
        <time>2011-04-16T12:16:01Z</time>
      </trkpt>
      <trkpt lat="35.225088642910123" lon="-5.321893533691764">
        <ele>282.7650146484375</ele>
        <time>2011-04-16T12:16:11Z</time>
      </trkpt>
      <trkpt lat="35.224553626030684" lon="-5.321674849838018">
        <ele>282.2843017578125</ele>
        <time>2011-04-16T12:16:15Z</time>
      </trkpt>
      <trkpt lat="35.224037552252412" lon="-5.321231614798307">
        <ele>281.322998046875</ele>
        <time>2011-04-16T12:16:20Z</time>
      </trkpt>
      <trkpt lat="35.223048906773329" lon="-5.319852204993367">
        <ele>279.880859375</ele>
        <time>2011-04-16T12:16:29Z</time>
      </trkpt>
      <trkpt lat="35.221947859972715" lon="-5.317611806094647">
        <ele>277.4776611328125</ele>
        <time>2011-04-16T12:16:41Z</time>
      </trkpt>
      <trkpt lat="35.220897942781448" lon="-5.31584607437253">
        <ele>277.958251953125</ele>
        <time>2011-04-16T12:16:52Z</time>
      </trkpt>
      <trkpt lat="35.220619747415185" lon="-5.315578272566199">
        <ele>277.958251953125</ele>
        <time>2011-04-16T12:16:55Z</time>
      </trkpt>
      <trkpt lat="35.220052627846599" lon="-5.315200248733163">
        <ele>277.958251953125</ele>
        <time>2011-04-16T12:17:00Z</time>
      </trkpt>
      <trkpt lat="35.219654571264982" lon="-5.315220700576901">
        <ele>276.03564453125</ele>
        <time>2011-04-16T12:17:04Z</time>
      </trkpt>
      <trkpt lat="35.21832830272615" lon="-5.315508535131812">
        <ele>270.2677001953125</ele>
        <time>2011-04-16T12:17:12Z</time>
      </trkpt>
      <trkpt lat="35.217003878206015" lon="-5.315802823752165">
        <ele>267.3839111328125</ele>
        <time>2011-04-16T12:17:19Z</time>
      </trkpt>
      <trkpt lat="35.214537754654884" lon="-5.316589884459972">
        <ele>266.4224853515625</ele>
        <time>2011-04-16T12:17:32Z</time>
      </trkpt>
      <trkpt lat="35.212396262213588" lon="-5.317172259092331">
        <ele>269.787109375</ele>
        <time>2011-04-16T12:17:43Z</time>
      </trkpt>
      <trkpt lat="35.2103959210217" lon="-5.317691685631871">
        <ele>270.2677001953125</ele>
        <time>2011-04-16T12:17:54Z</time>
      </trkpt>
      <trkpt lat="35.208503538742661" lon="-5.317879021167755">
        <ele>270.2677001953125</ele>
        <time>2011-04-16T12:18:05Z</time>
      </trkpt>
      <trkpt lat="35.208350988104939" lon="-5.317863766103983">
        <ele>270.2677001953125</ele>
        <time>2011-04-16T12:18:06Z</time>
      </trkpt>
      <trkpt lat="35.207880763337016" lon="-5.31777567230165">
        <ele>271.2291259765625</ele>
        <time>2011-04-16T12:18:10Z</time>
      </trkpt>
      <trkpt lat="35.206751385703683" lon="-5.317387506365776">
        <ele>270.7484130859375</ele>
        <time>2011-04-16T12:18:18Z</time>
      </trkpt>
      <trkpt lat="35.205324701964855" lon="-5.316141368821263">
        <ele>269.3065185546875</ele>
        <time>2011-04-16T12:18:28Z</time>
      </trkpt>
      <trkpt lat="35.204242765903473" lon="-5.315185748040676">
        <ele>269.787109375</ele>
        <time>2011-04-16T12:18:35Z</time>
      </trkpt>
      <trkpt lat="35.202423390001059" lon="-5.31368681229651">
        <ele>270.2677001953125</ele>
        <time>2011-04-16T12:18:46Z</time>
      </trkpt>
      <trkpt lat="35.201431810855865" lon="-5.313037969172001">
        <ele>270.7484130859375</ele>
        <time>2011-04-16T12:18:52Z</time>
      </trkpt>
      <trkpt lat="35.200434364378452" lon="-5.312539665028453">
        <ele>273.6324462890625</ele>
        <time>2011-04-16T12:18:58Z</time>
      </trkpt>
      <trkpt lat="35.19980882294476" lon="-5.312259793281555">
        <ele>275.074462890625</ele>
        <time>2011-04-16T12:19:02Z</time>
      </trkpt>
      <trkpt lat="35.198884718120098" lon="-5.311913369223476">
        <ele>275.074462890625</ele>
        <time>2011-04-16T12:19:08Z</time>
      </trkpt>
      <trkpt lat="35.197868663817644" lon="-5.311516067013145">
        <ele>276.9970703125</ele>
        <time>2011-04-16T12:19:14Z</time>
      </trkpt>
      <trkpt lat="35.196991832926869" lon="-5.311148352921009">
        <ele>275.5550537109375</ele>
        <time>2011-04-16T12:19:20Z</time>
      </trkpt>
      <trkpt lat="35.19644851796329" lon="-5.311009883880615">
        <ele>274.113037109375</ele>
        <time>2011-04-16T12:19:24Z</time>
      </trkpt>
      <trkpt lat="35.196026237681508" lon="-5.311003848910332">
        <ele>273.15185546875</ele>
        <time>2011-04-16T12:19:27Z</time>
      </trkpt>
      <trkpt lat="35.19509693607688" lon="-5.310614593327045">
        <ele>271.2291259765625</ele>
        <time>2011-04-16T12:19:34Z</time>
      </trkpt>
      <trkpt lat="35.19449251703918" lon="-5.310325752943754">
        <ele>270.2677001953125</ele>
        <time>2011-04-16T12:19:40Z</time>
      </trkpt>
      <trkpt lat="35.194293614476919" lon="-5.310265822336078">
        <ele>270.2677001953125</ele>
        <time>2011-04-16T12:19:43Z</time>
      </trkpt>
      <trkpt lat="35.194176519289613" lon="-5.310033895075321">
        <ele>270.7484130859375</ele>
        <time>2011-04-16T12:19:49Z</time>
      </trkpt>
      <trkpt lat="35.194272994995117" lon="-5.310258865356445">
        <ele>270.7484130859375</ele>
        <time>2011-04-16T12:19:50Z</time>
      </trkpt>
      <trkpt lat="35.194174256175756" lon="-5.31027864664793">
        <ele>277.958251953125</ele>
        <time>2011-04-16T13:04:09Z</time>
      </trkpt>
      <trkpt lat="35.193533040583134" lon="-5.310340588912368">
        <ele>280.3616943359375</ele>
        <time>2011-04-16T13:04:17Z</time>
      </trkpt>
      <trkpt lat="35.192498210817575" lon="-5.310502694919705">
        <ele>281.8035888671875</ele>
        <time>2011-04-16T13:04:26Z</time>
      </trkpt>
      <trkpt lat="35.190992234274745" lon="-5.31068759970367">
        <ele>282.2843017578125</ele>
        <time>2011-04-16T13:04:37Z</time>
      </trkpt>
      <trkpt lat="35.189303196966648" lon="-5.310973841696978">
        <ele>281.8035888671875</ele>
        <time>2011-04-16T13:04:48Z</time>
      </trkpt>
      <trkpt lat="35.189149640500546" lon="-5.311015248298645">
        <ele>281.8035888671875</ele>
        <time>2011-04-16T13:04:49Z</time>
      </trkpt>
      <trkpt lat="35.188261074945331" lon="-5.311663001775742">
        <ele>282.7650146484375</ele>
        <time>2011-04-16T13:04:56Z</time>
      </trkpt>
      <trkpt lat="35.186513364315033" lon="-5.313207032158971">
        <ele>286.6102294921875</ele>
        <time>2011-04-16T13:05:10Z</time>
      </trkpt>
      <trkpt lat="35.184646714478731" lon="-5.31482582911849">
        <ele>291.416748046875</ele>
        <time>2011-04-16T13:05:25Z</time>
      </trkpt>
      <trkpt lat="35.183309381827712" lon="-5.315993428230286">
        <ele>293.33935546875</ele>
        <time>2011-04-16T13:05:35Z</time>
      </trkpt>
      <trkpt lat="35.183034623041749" lon="-5.316080097109079">
        <ele>293.820068359375</ele>
        <time>2011-04-16T13:05:37Z</time>
      </trkpt>
      <trkpt lat="35.182324340566993" lon="-5.316155282780528">
        <ele>293.820068359375</ele>
        <time>2011-04-16T13:05:42Z</time>
      </trkpt>
      <trkpt lat="35.18044101074338" lon="-5.315626133233309">
        <ele>294.7813720703125</ele>
        <time>2011-04-16T13:05:53Z</time>
      </trkpt>
      <trkpt lat="35.179394613951445" lon="-5.315095810219646">
        <ele>293.820068359375</ele>
        <time>2011-04-16T13:06:00Z</time>
      </trkpt>
      <trkpt lat="35.178307900205255" lon="-5.314130131155253">
        <ele>292.378173828125</ele>
        <time>2011-04-16T13:06:09Z</time>
      </trkpt>
      <trkpt lat="35.177590660750866" lon="-5.313183479011059">
        <ele>291.8974609375</ele>
        <time>2011-04-16T13:06:16Z</time>
      </trkpt>
      <trkpt lat="35.176858501508832" lon="-5.312099615111947">
        <ele>289.494140625</ele>
        <time>2011-04-16T13:06:24Z</time>
      </trkpt>
      <trkpt lat="35.176266990602016" lon="-5.311742629855871">
        <ele>290.45556640625</ele>
        <time>2011-04-16T13:06:29Z</time>
      </trkpt>
      <trkpt lat="35.175666678696871" lon="-5.311850840225816">
        <ele>290.9361572265625</ele>
        <time>2011-04-16T13:06:33Z</time>
      </trkpt>
      <trkpt lat="35.17351278103888" lon="-5.313197476789355">
        <ele>290.45556640625</ele>
        <time>2011-04-16T13:06:47Z</time>
      </trkpt>
      <trkpt lat="35.171547224745154" lon="-5.314396005123854">
        <ele>293.33935546875</ele>
        <time>2011-04-16T13:07:01Z</time>
      </trkpt>
      <trkpt lat="35.17072219401598" lon="-5.314854746684432">
        <ele>295.261962890625</ele>
        <time>2011-04-16T13:07:08Z</time>
      </trkpt>
      <trkpt lat="35.169913591817021" lon="-5.314844353124499">
        <ele>295.261962890625</ele>
        <time>2011-04-16T13:07:15Z</time>
      </trkpt>
      <trkpt lat="35.168249448761344" lon="-5.314435064792633">
        <ele>296.2235107421875</ele>
        <time>2011-04-16T13:07:29Z</time>
      </trkpt>
      <trkpt lat="35.167088722810149" lon="-5.313964001834393">
        <ele>301.0299072265625</ele>
        <time>2011-04-16T13:07:39Z</time>
      </trkpt>
      <trkpt lat="35.166251454502344" lon="-5.313818911090493">
        <ele>303.4332275390625</ele>
        <time>2011-04-16T13:07:46Z</time>
      </trkpt>
      <trkpt lat="35.164443477988243" lon="-5.313689075410366">
        <ele>305.836669921875</ele>
        <time>2011-04-16T13:08:00Z</time>
      </trkpt>
      <trkpt lat="35.163970487192273" lon="-5.313467541709542">
        <ele>306.7978515625</ele>
        <time>2011-04-16T13:08:04Z</time>
      </trkpt>
      <trkpt lat="35.16349540092051" lon="-5.313232596963644">
        <ele>308.2398681640625</ele>
        <time>2011-04-16T13:08:08Z</time>
      </trkpt>
      <trkpt lat="35.162335261702538" lon="-5.312980134040117">
        <ele>312.085205078125</ele>
        <time>2011-04-16T13:08:17Z</time>
      </trkpt>
      <trkpt lat="35.161183169111609" lon="-5.312837054952979">
        <ele>315.4498291015625</ele>
        <time>2011-04-16T13:08:24Z</time>
      </trkpt>
      <trkpt lat="35.1607277803123" lon="-5.312714511528611">
        <ele>317.3724365234375</ele>
        <time>2011-04-16T13:08:27Z</time>
      </trkpt>
      <trkpt lat="35.160176921635866" lon="-5.312333386391401">
        <ele>318.8143310546875</ele>
        <time>2011-04-16T13:08:32Z</time>
      </trkpt>
      <trkpt lat="35.159798059612513" lon="-5.311875734478235">
        <ele>319.2950439453125</ele>
        <time>2011-04-16T13:08:36Z</time>
      </trkpt>
      <trkpt lat="35.159326074644923" lon="-5.311544397845864">
        <ele>320.25634765625</ele>
        <time>2011-04-16T13:08:40Z</time>
      </trkpt>
      <trkpt lat="35.158767336979508" lon="-5.311314985156059">
        <ele>321.2177734375</ele>
        <time>2011-04-16T13:08:44Z</time>
      </trkpt>
      <trkpt lat="35.158332148566842" lon="-5.310716601088643">
        <ele>321.6983642578125</ele>
        <time>2011-04-16T13:08:49Z</time>
      </trkpt>
      <trkpt lat="35.15824556350708" lon="-5.310406303033233">
        <ele>321.2177734375</ele>
        <time>2011-04-16T13:08:51Z</time>
      </trkpt>
      <trkpt lat="35.158071974292397" lon="-5.308662028983235">
        <ele>318.8143310546875</ele>
        <time>2011-04-16T13:09:00Z</time>
      </trkpt>
      <trkpt lat="35.157962925732136" lon="-5.307944286614656">
        <ele>317.85302734375</ele>
        <time>2011-04-16T13:09:04Z</time>
      </trkpt>
      <trkpt lat="35.157665871083736" lon="-5.307270381599665">
        <ele>317.3724365234375</ele>
        <time>2011-04-16T13:09:09Z</time>
      </trkpt>
      <trkpt lat="35.156902112066746" lon="-5.306211831048131">
        <ele>316.4110107421875</ele>
        <time>2011-04-16T13:09:17Z</time>
      </trkpt>
      <trkpt lat="35.156418140977621" lon="-5.30582039617002">
        <ele>315.4498291015625</ele>
        <time>2011-04-16T13:09:21Z</time>
      </trkpt>
      <trkpt lat="35.155564863234758" lon="-5.305498614907265">
        <ele>313.0465087890625</ele>
        <time>2011-04-16T13:09:27Z</time>
      </trkpt>
      <trkpt lat="35.154997073113918" lon="-5.305505739524961">
        <ele>311.6044921875</ele>
        <time>2011-04-16T13:09:31Z</time>
      </trkpt>
      <trkpt lat="35.154219483956695" lon="-5.305663570761681">
        <ele>308.2398681640625</ele>
        <time>2011-04-16T13:09:36Z</time>
      </trkpt>
      <trkpt lat="35.153546249493957" lon="-5.30539333820343">
        <ele>308.2398681640625</ele>
        <time>2011-04-16T13:09:41Z</time>
      </trkpt>
      <trkpt lat="35.153025649487972" lon="-5.304827643558383">
        <ele>308.2398681640625</ele>
        <time>2011-04-16T13:09:46Z</time>
      </trkpt>
      <trkpt lat="35.152736390009522" lon="-5.304133119061589">
        <ele>308.720458984375</ele>
        <time>2011-04-16T13:09:51Z</time>
      </trkpt>
      <trkpt lat="35.152701353654265" lon="-5.303969504311681">
        <ele>308.720458984375</ele>
        <time>2011-04-16T13:09:52Z</time>
      </trkpt>
      <trkpt lat="35.152432965114713" lon="-5.302524464204907">
        <ele>310.1624755859375</ele>
        <time>2011-04-16T13:10:00Z</time>
      </trkpt>
      <trkpt lat="35.151908425614238" lon="-5.300477771088481">
        <ele>311.6044921875</ele>
        <time>2011-04-16T13:10:10Z</time>
      </trkpt>
      <trkpt lat="35.151532916352153" lon="-5.299668163061142">
        <ele>311.6044921875</ele>
        <time>2011-04-16T13:10:14Z</time>
      </trkpt>
      <trkpt lat="35.150666646659374" lon="-5.298818070441485">
        <ele>312.5657958984375</ele>
        <time>2011-04-16T13:10:20Z</time>
      </trkpt>
      <trkpt lat="35.149145498871803" lon="-5.297866221517324">
        <ele>311.123779296875</ele>
        <time>2011-04-16T13:10:29Z</time>
      </trkpt>
      <trkpt lat="35.148243019357324" lon="-5.297620045021176">
        <ele>310.64306640625</ele>
        <time>2011-04-16T13:10:34Z</time>
      </trkpt>
      <trkpt lat="35.147208021953702" lon="-5.297314440831542">
        <ele>311.123779296875</ele>
        <time>2011-04-16T13:10:40Z</time>
      </trkpt>
      <trkpt lat="35.146371675655246" lon="-5.296709686517716">
        <ele>311.6044921875</ele>
        <time>2011-04-16T13:10:46Z</time>
      </trkpt>
      <trkpt lat="35.145823080092669" lon="-5.296674985438585">
        <ele>311.6044921875</ele>
        <time>2011-04-16T13:10:51Z</time>
      </trkpt>
      <trkpt lat="35.145623255521059" lon="-5.296883275732398">
        <ele>311.6044921875</ele>
        <time>2011-04-16T13:10:53Z</time>
      </trkpt>
      <trkpt lat="35.144677693024278" lon="-5.298027824610472">
        <ele>312.5657958984375</ele>
        <time>2011-04-16T13:11:01Z</time>
      </trkpt>
      <trkpt lat="35.143722156062722" lon="-5.299037341028452">
        <ele>314.9691162109375</ele>
        <time>2011-04-16T13:11:08Z</time>
      </trkpt>
      <trkpt lat="35.143294176086783" lon="-5.299384938552976">
        <ele>315.930419921875</ele>
        <time>2011-04-16T13:11:11Z</time>
      </trkpt>
      <trkpt lat="35.142463194206357" lon="-5.299551486968994">
        <ele>317.85302734375</ele>
        <time>2011-04-16T13:11:16Z</time>
      </trkpt>
      <trkpt lat="35.14089091680944" lon="-5.299377478659153">
        <ele>322.178955078125</ele>
        <time>2011-04-16T13:11:24Z</time>
      </trkpt>
      <trkpt lat="35.138934999704361" lon="-5.299201542511582">
        <ele>327.94677734375</ele>
        <time>2011-04-16T13:11:34Z</time>
      </trkpt>
      <trkpt lat="35.138066885992885" lon="-5.299315452575684">
        <ele>330.3502197265625</ele>
        <time>2011-04-16T13:11:39Z</time>
      </trkpt>
      <trkpt lat="35.137100201100111" lon="-5.299188802018762">
        <ele>332.7535400390625</ele>
        <time>2011-04-16T13:11:45Z</time>
      </trkpt>
      <trkpt lat="35.13577351346612" lon="-5.299069443717599">
        <ele>335.6373291015625</ele>
        <time>2011-04-16T13:11:54Z</time>
      </trkpt>
      <trkpt lat="35.134378764778376" lon="-5.298993084579706">
        <ele>338.040771484375</ele>
        <time>2011-04-16T13:12:04Z</time>
      </trkpt>
      <trkpt lat="35.133300181478262" lon="-5.298897447064519">
        <ele>338.521484375</ele>
        <time>2011-04-16T13:12:12Z</time>
      </trkpt>
      <trkpt lat="35.131821949034929" lon="-5.298489918932319">
        <ele>340.444091796875</ele>
        <time>2011-04-16T13:12:23Z</time>
      </trkpt>
      <trkpt lat="35.131039079278708" lon="-5.297961859032512">
        <ele>343.327880859375</ele>
        <time>2011-04-16T13:12:30Z</time>
      </trkpt>
      <trkpt lat="35.130479503422976" lon="-5.297406138852239">
        <ele>346.2120361328125</ele>
        <time>2011-04-16T13:12:36Z</time>
      </trkpt>
      <trkpt lat="35.12995638884604" lon="-5.296496618539095">
        <ele>351.4991455078125</ele>
        <time>2011-04-16T13:12:44Z</time>
      </trkpt>
      <trkpt lat="35.129877096042037" lon="-5.296417325735092">
        <ele>351.9798583984375</ele>
        <time>2011-04-16T13:12:45Z</time>
      </trkpt>
      <trkpt lat="35.129298325628042" lon="-5.296041145920754">
        <ele>353.421875</ele>
        <time>2011-04-16T13:12:51Z</time>
      </trkpt>
      <trkpt lat="35.12802486307919" lon="-5.295767728239298">
        <ele>354.86376953125</ele>
        <time>2011-04-16T13:13:01Z</time>
      </trkpt>
      <trkpt lat="35.127800814807415" lon="-5.295673180371523">
        <ele>354.86376953125</ele>
        <time>2011-04-16T13:13:03Z</time>
      </trkpt>
      <trkpt lat="35.127348192036152" lon="-5.295259617269039">
        <ele>355.344482421875</ele>
        <time>2011-04-16T13:13:08Z</time>
      </trkpt>
      <trkpt lat="35.126481419429183" lon="-5.294018592685461">
        <ele>355.344482421875</ele>
        <time>2011-04-16T13:13:18Z</time>
      </trkpt>
      <trkpt lat="35.125793935731053" lon="-5.293266903609037">
        <ele>358.2283935546875</ele>
        <time>2011-04-16T13:13:25Z</time>
      </trkpt>
      <trkpt lat="35.125691508874297" lon="-5.293197249993682">
        <ele>358.2283935546875</ele>
        <time>2011-04-16T13:13:26Z</time>
      </trkpt>
      <trkpt lat="35.125157833099365" lon="-5.293006896972656">
        <ele>359.67041015625</ele>
        <time>2011-04-16T13:13:31Z</time>
      </trkpt>
      <trkpt lat="35.124507145956159" lon="-5.292726773768663">
        <ele>361.1124267578125</ele>
        <time>2011-04-16T13:13:37Z</time>
      </trkpt>
      <trkpt lat="35.123289506882429" lon="-5.291825719177723">
        <ele>362.07373046875</ele>
        <time>2011-04-16T13:13:48Z</time>
      </trkpt>
      <trkpt lat="35.123178530484438" lon="-5.291751874610782">
        <ele>361.5931396484375</ele>
        <time>2011-04-16T13:13:49Z</time>
      </trkpt>
      <trkpt lat="35.122429691255093" lon="-5.291688088327646">
        <ele>360.6317138671875</ele>
        <time>2011-04-16T13:13:55Z</time>
      </trkpt>
      <trkpt lat="35.12229616753757" lon="-5.291729914024472">
        <ele>360.151123046875</ele>
        <time>2011-04-16T13:13:56Z</time>
      </trkpt>
      <trkpt lat="35.120884655043483" lon="-5.292363502085209">
        <ele>360.6317138671875</ele>
        <time>2011-04-16T13:14:07Z</time>
      </trkpt>
      <trkpt lat="35.120772421360016" lon="-5.292379595339298">
        <ele>360.6317138671875</ele>
        <time>2011-04-16T13:14:08Z</time>
      </trkpt>
      <trkpt lat="35.120274284854531" lon="-5.292107099667192">
        <ele>362.07373046875</ele>
        <time>2011-04-16T13:14:14Z</time>
      </trkpt>
      <trkpt lat="35.120087536051869" lon="-5.291949268430471">
        <ele>362.07373046875</ele>
        <time>2011-04-16T13:14:16Z</time>
      </trkpt>
      <trkpt lat="35.118867047131062" lon="-5.290761468932033">
        <ele>364.9576416015625</ele>
        <time>2011-04-16T13:14:28Z</time>
      </trkpt>
      <trkpt lat="35.118193477392197" lon="-5.290288059040904">
        <ele>364.9576416015625</ele>
        <time>2011-04-16T13:14:35Z</time>
      </trkpt>
      <trkpt lat="35.117756612598896" lon="-5.290029728785157">
        <ele>365.9189453125</ele>
        <time>2011-04-16T13:14:41Z</time>
      </trkpt>
      <trkpt lat="35.117495600134134" lon="-5.289873154833913">
        <ele>365.9189453125</ele>
        <time>2011-04-16T13:14:46Z</time>
      </trkpt>
      <trkpt lat="35.117237521335483" lon="-5.289709959179163">
        <ele>366.8802490234375</ele>
        <time>2011-04-16T13:14:51Z</time>
      </trkpt>
      <trkpt lat="35.116577446460724" lon="-5.289179887622595">
        <ele>368.322265625</ele>
        <time>2011-04-16T13:15:00Z</time>
      </trkpt>
      <trkpt lat="35.115954335778952" lon="-5.288649648427963">
        <ele>369.28369140625</ele>
        <time>2011-04-16T13:15:08Z</time>
      </trkpt>
      <trkpt lat="35.115138692781329" lon="-5.288201468065381">
        <ele>370.244873046875</ele>
        <time>2011-04-16T13:15:16Z</time>
      </trkpt>
      <trkpt lat="35.114033790305257" lon="-5.287760412320495">
        <ele>371.6868896484375</ele>
        <time>2011-04-16T13:15:26Z</time>
      </trkpt>
      <trkpt lat="35.112993344664574" lon="-5.287383394315839">
        <ele>374.090087890625</ele>
        <time>2011-04-16T13:15:35Z</time>
      </trkpt>
      <trkpt lat="35.112195303663611" lon="-5.287314662709832">
        <ele>375.5321044921875</ele>
        <time>2011-04-16T13:15:44Z</time>
      </trkpt>
      <trkpt lat="35.11155073530972" lon="-5.287227826192975">
        <ele>376.4935302734375</ele>
        <time>2011-04-16T13:15:54Z</time>
      </trkpt>
      <trkpt lat="35.110966432839632" lon="-5.287093799561262">
        <ele>377.9354248046875</ele>
        <time>2011-04-16T13:16:05Z</time>
      </trkpt>
      <trkpt lat="35.110781779512763" lon="-5.287051470950246">
        <ele>378.8968505859375</ele>
        <time>2011-04-16T13:16:09Z</time>
      </trkpt>
      <trkpt lat="35.11057885363698" lon="-5.287004867568612">
        <ele>379.37744140625</ele>
        <time>2011-04-16T13:16:14Z</time>
      </trkpt>
      <trkpt lat="35.110183646902442" lon="-5.286614606156945">
        <ele>379.37744140625</ele>
        <time>2011-04-16T13:16:24Z</time>
      </trkpt>
      <trkpt lat="35.109919533133507" lon="-5.286267092451453">
        <ele>379.8580322265625</ele>
        <time>2011-04-16T13:16:33Z</time>
      </trkpt>
      <trkpt lat="35.109491050243378" lon="-5.285746576264501">
        <ele>380.3387451171875</ele>
        <time>2011-04-16T13:16:40Z</time>
      </trkpt>
      <trkpt lat="35.108626959845424" lon="-5.284854238852859">
        <ele>381.300048828125</ele>
        <time>2011-04-16T13:16:48Z</time>
      </trkpt>
      <trkpt lat="35.107480064034462" lon="-5.283617908135057">
        <ele>385.6259765625</ele>
        <time>2011-04-16T13:16:57Z</time>
      </trkpt>
      <trkpt lat="35.106335431337357" lon="-5.282384259626269">
        <ele>386.106689453125</ele>
        <time>2011-04-16T13:17:06Z</time>
      </trkpt>
      <trkpt lat="35.105385007336736" lon="-5.281123872846365">
        <ele>386.58740234375</ele>
        <time>2011-04-16T13:17:15Z</time>
      </trkpt>
      <trkpt lat="35.104124788194895" lon="-5.279264263808727">
        <ele>388.029296875</ele>
        <time>2011-04-16T13:17:26Z</time>
      </trkpt>
      <trkpt lat="35.102930115535855" lon="-5.277732973918319">
        <ele>389.47119140625</ele>
        <time>2011-04-16T13:17:35Z</time>
      </trkpt>
      <trkpt lat="35.102104162797332" lon="-5.276740724220872">
        <ele>388.9906005859375</ele>
        <time>2011-04-16T13:17:41Z</time>
      </trkpt>
      <trkpt lat="35.101663693785667" lon="-5.276268571615219">
        <ele>389.47119140625</ele>
        <time>2011-04-16T13:17:44Z</time>
      </trkpt>
      <trkpt lat="35.10064696893096" lon="-5.275178337469697">
        <ele>392.3553466796875</ele>
        <time>2011-04-16T13:17:51Z</time>
      </trkpt>
      <trkpt lat="35.099532343447208" lon="-5.273185037076473">
        <ele>397.1617431640625</ele>
        <time>2011-04-16T13:18:01Z</time>
      </trkpt>
      <trkpt lat="35.098861120641232" lon="-5.271693477407098">
        <ele>398.1231689453125</ele>
        <time>2011-04-16T13:18:10Z</time>
      </trkpt>
      <trkpt lat="35.098551576957107" lon="-5.270373076200485">
        <ele>398.1231689453125</ele>
        <time>2011-04-16T13:18:18Z</time>
      </trkpt>
      <trkpt lat="35.098260557278991" lon="-5.268526962026954">
        <ele>399.5650634765625</ele>
        <time>2011-04-16T13:18:29Z</time>
      </trkpt>
      <trkpt lat="35.09814715012908" lon="-5.266769612208009">
        <ele>401.48779296875</ele>
        <time>2011-04-16T13:18:39Z</time>
      </trkpt>
      <trkpt lat="35.098080933094025" lon="-5.266452943906188">
        <ele>401.48779296875</ele>
        <time>2011-04-16T13:18:41Z</time>
      </trkpt>
      <trkpt lat="35.097804497927427" lon="-5.265347370877862">
        <ele>396.68115234375</ele>
        <time>2011-04-16T13:18:48Z</time>
      </trkpt>
      <trkpt lat="35.097706178203225" lon="-5.26461336761713">
        <ele>395.2391357421875</ele>
        <time>2011-04-16T13:18:53Z</time>
      </trkpt>
      <trkpt lat="35.097886975854635" lon="-5.262678489089012">
        <ele>395.7198486328125</ele>
        <time>2011-04-16T13:19:03Z</time>
      </trkpt>
      <trkpt lat="35.098219318315387" lon="-5.260713016614318">
        <ele>397.6424560546875</ele>
        <time>2011-04-16T13:19:11Z</time>
      </trkpt>
      <trkpt lat="35.098215714097023" lon="-5.25962496176362">
        <ele>399.5650634765625</ele>
        <time>2011-04-16T13:19:16Z</time>
      </trkpt>
      <trkpt lat="35.098145976662636" lon="-5.258800182491541">
        <ele>401.007080078125</ele>
        <time>2011-04-16T13:19:20Z</time>
      </trkpt>
      <trkpt lat="35.09769125841558" lon="-5.256404299288988">
        <ele>401.48779296875</ele>
        <time>2011-04-16T13:19:31Z</time>
      </trkpt>
      <trkpt lat="35.097505180165172" lon="-5.255007287487388">
        <ele>402.9296875</ele>
        <time>2011-04-16T13:19:37Z</time>
      </trkpt>
      <trkpt lat="35.097450446337461" lon="-5.253831725567579">
        <ele>404.852294921875</ele>
        <time>2011-04-16T13:19:42Z</time>
      </trkpt>
      <trkpt lat="35.097729228436947" lon="-5.252858670428395">
        <ele>407.255615234375</ele>
        <time>2011-04-16T13:19:47Z</time>
      </trkpt>
      <trkpt lat="35.097830230370164" lon="-5.252692038193345">
        <ele>407.736328125</ele>
        <time>2011-04-16T13:19:48Z</time>
      </trkpt>
      <trkpt lat="35.098394751548767" lon="-5.251647820696235">
        <ele>409.1783447265625</ele>
        <time>2011-04-16T13:19:54Z</time>
      </trkpt>
      <trkpt lat="35.098675796762109" lon="-5.250684572383761">
        <ele>410.6202392578125</ele>
        <time>2011-04-16T13:19:59Z</time>
      </trkpt>
      <trkpt lat="35.098660625517368" lon="-5.250252149999142">
        <ele>411.1009521484375</ele>
        <time>2011-04-16T13:20:01Z</time>
      </trkpt>
      <trkpt lat="35.098480749875307" lon="-5.247872695326805">
        <ele>414.4654541015625</ele>
        <time>2011-04-16T13:20:11Z</time>
      </trkpt>
      <trkpt lat="35.098362062126398" lon="-5.247236089780927">
        <ele>414.9461669921875</ele>
        <time>2011-04-16T13:20:14Z</time>
      </trkpt>
      <trkpt lat="35.098621733486652" lon="-5.246119452640414">
        <ele>417.8302001953125</ele>
        <time>2011-04-16T13:20:20Z</time>
      </trkpt>
      <trkpt lat="35.098629277199507" lon="-5.245947958901525">
        <ele>418.79150390625</ele>
        <time>2011-04-16T13:20:21Z</time>
      </trkpt>
      <trkpt lat="35.098527688533068" lon="-5.245203394442797">
        <ele>422.156005859375</ele>
        <time>2011-04-16T13:20:26Z</time>
      </trkpt>
      <trkpt lat="35.09842568077147" lon="-5.245109517127276">
        <ele>422.63671875</ele>
        <time>2011-04-16T13:20:27Z</time>
      </trkpt>
      <trkpt lat="35.097390934824944" lon="-5.244153225794435">
        <ele>426.9627685546875</ele>
        <time>2011-04-16T13:20:36Z</time>
      </trkpt>
      <trkpt lat="35.096594821661711" lon="-5.243394495919347">
        <ele>429.8465576171875</ele>
        <time>2011-04-16T13:20:42Z</time>
      </trkpt>
      <trkpt lat="35.096088722348213" lon="-5.242948578670621">
        <ele>431.28857421875</ele>
        <time>2011-04-16T13:20:46Z</time>
      </trkpt>
      <trkpt lat="35.094912489876151" lon="-5.242515150457621">
        <ele>435.1339111328125</ele>
        <time>2011-04-16T13:20:53Z</time>
      </trkpt>
      <trkpt lat="35.093968184664845" lon="-5.241824816912413">
        <ele>438.017822265625</ele>
        <time>2011-04-16T13:20:59Z</time>
      </trkpt>
      <trkpt lat="35.092359865084291" lon="-5.240673059597611">
        <ele>444.2664794921875</ele>
        <time>2011-04-16T13:21:08Z</time>
      </trkpt>
      <trkpt lat="35.091278180480003" lon="-5.239560194313526">
        <ele>452.918212890625</ele>
        <time>2011-04-16T13:21:15Z</time>
      </trkpt>
      <trkpt lat="35.090408138930798" lon="-5.238382453098893">
        <ele>461.5701904296875</ele>
        <time>2011-04-16T13:21:22Z</time>
      </trkpt>
      <trkpt lat="35.089109530672431" lon="-5.23724134080112">
        <ele>474.5479736328125</ele>
        <time>2011-04-16T13:21:31Z</time>
      </trkpt>
      <trkpt lat="35.088217779994011" lon="-5.236612614244223">
        <ele>481.7578125</ele>
        <time>2011-04-16T13:21:37Z</time>
      </trkpt>
      <trkpt lat="35.087526943534613" lon="-5.235984139144421">
        <ele>483.1998291015625</ele>
        <time>2011-04-16T13:21:43Z</time>
      </trkpt>
      <trkpt lat="35.087373722344637" lon="-5.235777609050274">
        <ele>483.680419921875</ele>
        <time>2011-04-16T13:21:45Z</time>
      </trkpt>
      <trkpt lat="35.087059484794736" lon="-5.235240664333105">
        <ele>485.60302734375</ele>
        <time>2011-04-16T13:21:50Z</time>
      </trkpt>
      <trkpt lat="35.086615495383739" lon="-5.234395768493414">
        <ele>491.3709716796875</ele>
        <time>2011-04-16T13:21:56Z</time>
      </trkpt>
      <trkpt lat="35.086281392723322" lon="-5.23396166972816">
        <ele>495.6968994140625</ele>
        <time>2011-04-16T13:22:00Z</time>
      </trkpt>
      <trkpt lat="35.08593924343586" lon="-5.233524972572923">
        <ele>498.5809326171875</ele>
        <time>2011-04-16T13:22:05Z</time>
      </trkpt>
      <trkpt lat="35.085741262882948" lon="-5.233232360333204">
        <ele>500.984130859375</ele>
        <time>2011-04-16T13:22:09Z</time>
      </trkpt>
      <trkpt lat="35.085204150527716" lon="-5.232634646818042">
        <ele>506.7520751953125</ele>
        <time>2011-04-16T13:22:19Z</time>
      </trkpt>
      <trkpt lat="35.084710121154785" lon="-5.232281684875488">
        <ele>511.5587158203125</ele>
        <time>2011-04-16T13:22:27Z</time>
      </trkpt>
      <trkpt lat="35.084569472819567" lon="-5.232253689318895">
        <ele>512.52001953125</ele>
        <time>2011-04-16T13:22:29Z</time>
      </trkpt>
      <trkpt lat="35.084135457873344" lon="-5.23216693662107">
        <ele>515.404052734375</ele>
        <time>2011-04-16T13:22:35Z</time>
      </trkpt>
      <trkpt lat="35.083785345777869" lon="-5.232080854475498">
        <ele>519.7298583984375</ele>
        <time>2011-04-16T13:22:43Z</time>
      </trkpt>
      <trkpt lat="35.083316629752517" lon="-5.23187424056232">
        <ele>524.0557861328125</ele>
        <time>2011-04-16T13:22:50Z</time>
      </trkpt>
      <trkpt lat="35.083086462691426" lon="-5.231772903352976">
        <ele>525.497802734375</ele>
        <time>2011-04-16T13:22:53Z</time>
      </trkpt>
      <trkpt lat="35.082370396703482" lon="-5.231374427676201">
        <ele>530.304443359375</ele>
        <time>2011-04-16T13:23:00Z</time>
      </trkpt>
      <trkpt lat="35.081800762563944" lon="-5.230904538184404">
        <ele>534.63037109375</ele>
        <time>2011-04-16T13:23:05Z</time>
      </trkpt>
      <trkpt lat="35.081385690718889" lon="-5.230741007253528">
        <ele>538.956298828125</ele>
        <time>2011-04-16T13:23:09Z</time>
      </trkpt>
      <trkpt lat="35.08017199113965" lon="-5.230456274002791">
        <ele>546.6468505859375</ele>
        <time>2011-04-16T13:23:17Z</time>
      </trkpt>
      <trkpt lat="35.079316617920995" lon="-5.230540428310633">
        <ele>551.93408203125</ele>
        <time>2011-04-16T13:23:22Z</time>
      </trkpt>
      <trkpt lat="35.078720916062593" lon="-5.230737905949354">
        <ele>555.779296875</ele>
        <time>2011-04-16T13:23:26Z</time>
      </trkpt>
      <trkpt lat="35.077264057472348" lon="-5.232032658532262">
        <ele>562.9892578125</ele>
        <time>2011-04-16T13:23:37Z</time>
      </trkpt>
      <trkpt lat="35.076930625364184" lon="-5.232515623793006">
        <ele>564.911865234375</ele>
        <time>2011-04-16T13:23:40Z</time>
      </trkpt>
      <trkpt lat="35.076358141377568" lon="-5.233402932062745">
        <ele>571.640869140625</ele>
        <time>2011-04-16T13:23:46Z</time>
      </trkpt>
      <trkpt lat="35.075851790606976" lon="-5.233912132680416">
        <ele>577.8896484375</ele>
        <time>2011-04-16T13:23:51Z</time>
      </trkpt>
      <trkpt lat="35.07556127384305" lon="-5.233831834048033">
        <ele>582.6962890625</ele>
        <time>2011-04-16T13:23:55Z</time>
      </trkpt>
      <trkpt lat="35.075209736824036" lon="-5.233540646731854">
        <ele>585.580078125</ele>
        <time>2011-04-16T13:23:58Z</time>
      </trkpt>
      <trkpt lat="35.074617387726903" lon="-5.233075954020023">
        <ele>590.867431640625</ele>
        <time>2011-04-16T13:24:03Z</time>
      </trkpt>
      <trkpt lat="35.074146492406726" lon="-5.232717208564282">
        <ele>596.635498046875</ele>
        <time>2011-04-16T13:24:08Z</time>
      </trkpt>
      <trkpt lat="35.073812138289213" lon="-5.233099004253745">
        <ele>599.519287109375</ele>
        <time>2011-04-16T13:24:12Z</time>
      </trkpt>
      <trkpt lat="35.073152650147676" lon="-5.234032077714801">
        <ele>605.287353515625</ele>
        <time>2011-04-16T13:24:19Z</time>
      </trkpt>
      <trkpt lat="35.072499699890614" lon="-5.23487588390708">
        <ele>608.65185546875</ele>
        <time>2011-04-16T13:24:25Z</time>
      </trkpt>
      <trkpt lat="35.071057509630919" lon="-5.235870312899351">
        <ele>616.34228515625</ele>
        <time>2011-04-16T13:24:34Z</time>
      </trkpt>
      <trkpt lat="35.070398189127445" lon="-5.236285133287311">
        <ele>620.66845703125</ele>
        <time>2011-04-16T13:24:39Z</time>
      </trkpt>
      <trkpt lat="35.070065343752503" lon="-5.236549163237214">
        <ele>621.629638671875</ele>
        <time>2011-04-16T13:24:43Z</time>
      </trkpt>
      <trkpt lat="35.069949086755514" lon="-5.236641280353069">
        <ele>621.629638671875</ele>
        <time>2011-04-16T13:24:45Z</time>
      </trkpt>
      <trkpt lat="35.069392193108797" lon="-5.236944621428847">
        <ele>623.552490234375</ele>
        <time>2011-04-16T13:24:51Z</time>
      </trkpt>
      <trkpt lat="35.069284904748201" lon="-5.236994912847877">
        <ele>624.032958984375</ele>
        <time>2011-04-16T13:24:52Z</time>
      </trkpt>
      <trkpt lat="35.06826407276094" lon="-5.237500593066216">
        <ele>627.878173828125</ele>
        <time>2011-04-16T13:25:00Z</time>
      </trkpt>
      <trkpt lat="35.067858640104532" lon="-5.237171184271574">
        <ele>631.723388671875</ele>
        <time>2011-04-16T13:25:05Z</time>
      </trkpt>
      <trkpt lat="35.067521771416068" lon="-5.236801290884614">
        <ele>634.126708984375</ele>
        <time>2011-04-16T13:25:09Z</time>
      </trkpt>
      <trkpt lat="35.06744809448719" lon="-5.236684950068593">
        <ele>634.607421875</ele>
        <time>2011-04-16T13:25:10Z</time>
      </trkpt>
      <trkpt lat="35.066909054294229" lon="-5.235734358429909">
        <ele>639.4140625</ele>
        <time>2011-04-16T13:25:19Z</time>
      </trkpt>
      <trkpt lat="35.066589619964361" lon="-5.23520328104496">
        <ele>642.77880859375</ele>
        <time>2011-04-16T13:25:26Z</time>
      </trkpt>
      <trkpt lat="35.066403541713953" lon="-5.235051065683365">
        <ele>644.701171875</ele>
        <time>2011-04-16T13:25:29Z</time>
      </trkpt>
      <trkpt lat="35.066053345799446" lon="-5.23476448841393">
        <ele>647.1044921875</ele>
        <time>2011-04-16T13:25:36Z</time>
      </trkpt>
      <trkpt lat="35.065779844298959" lon="-5.234540859237313">
        <ele>649.027099609375</ele>
        <time>2011-04-16T13:25:42Z</time>
      </trkpt>
      <trkpt lat="35.065455297008157" lon="-5.23449182510376">
        <ele>651.9111328125</ele>
        <time>2011-04-16T13:25:49Z</time>
      </trkpt>
      <trkpt lat="35.064601264894009" lon="-5.234497105702758">
        <ele>655.756591796875</ele>
        <time>2011-04-16T13:26:03Z</time>
      </trkpt>
      <trkpt lat="35.063889725133777" lon="-5.234653679654002">
        <ele>659.12109375</ele>
        <time>2011-04-16T13:26:10Z</time>
      </trkpt>
      <trkpt lat="35.062975930050015" lon="-5.23486515507102">
        <ele>664.408203125</ele>
        <time>2011-04-16T13:26:17Z</time>
      </trkpt>
      <trkpt lat="35.062704859301448" lon="-5.234929779544473">
        <ele>666.330810546875</ele>
        <time>2011-04-16T13:26:19Z</time>
      </trkpt>
      <trkpt lat="35.062175625935197" lon="-5.234882086515427">
        <ele>670.656982421875</ele>
        <time>2011-04-16T13:26:23Z</time>
      </trkpt>
      <trkpt lat="35.061475820839405" lon="-5.234793238341808">
        <ele>675.46337890625</ele>
        <time>2011-04-16T13:26:28Z</time>
      </trkpt>
      <trkpt lat="35.060668056830764" lon="-5.234461734071374">
        <ele>682.192626953125</ele>
        <time>2011-04-16T13:26:34Z</time>
      </trkpt>
      <trkpt lat="35.060291290283203" lon="-5.23407893255353">
        <ele>686.518798828125</ele>
        <time>2011-04-16T13:26:39Z</time>
      </trkpt>
      <trkpt lat="35.060291290283203" lon="-5.233504772186279">
        <ele>686.518798828125</ele>
        <time>2011-04-16T13:26:43Z</time>
      </trkpt>
      <trkpt lat="35.060674762353301" lon="-5.233244597911835">
        <ele>687.960693359375</ele>
        <time>2011-04-16T13:26:47Z</time>
      </trkpt>
      <trkpt lat="35.060909707099199" lon="-5.2330875210464">
        <ele>689.88330078125</ele>
        <time>2011-04-16T13:26:49Z</time>
      </trkpt>
      <trkpt lat="35.06187429651618" lon="-5.232449322938919">
        <ele>698.054443359375</ele>
        <time>2011-04-16T13:26:57Z</time>
      </trkpt>
      <trkpt lat="35.062072528526187" lon="-5.232272380962968">
        <ele>699.015625</ele>
        <time>2011-04-16T13:26:59Z</time>
      </trkpt>
      <trkpt lat="35.062285009771585" lon="-5.231887735426426">
        <ele>700.4580078125</ele>
        <time>2011-04-16T13:27:03Z</time>
      </trkpt>
      <trkpt lat="35.062442254275084" lon="-5.230997409671545">
        <ele>702.38037109375</ele>
        <time>2011-04-16T13:27:09Z</time>
      </trkpt>
      <trkpt lat="35.062409313395619" lon="-5.230049667879939">
        <ele>704.78369140625</ele>
        <time>2011-04-16T13:27:15Z</time>
      </trkpt>
      <trkpt lat="35.062381401658058" lon="-5.229247268289328">
        <ele>706.706298828125</ele>
        <time>2011-04-16T13:27:20Z</time>
      </trkpt>
      <trkpt lat="35.0624068826437" lon="-5.228528436273336">
        <ele>707.667724609375</ele>
        <time>2011-04-16T13:27:25Z</time>
      </trkpt>
      <trkpt lat="35.062561947852373" lon="-5.227695442736149">
        <ele>707.667724609375</ele>
        <time>2011-04-16T13:27:30Z</time>
      </trkpt>
      <trkpt lat="35.063039632514119" lon="-5.226984741166234">
        <ele>710.551513671875</ele>
        <time>2011-04-16T13:27:35Z</time>
      </trkpt>
      <trkpt lat="35.063292514532804" lon="-5.226408820599318">
        <ele>713.435546875</ele>
        <time>2011-04-16T13:27:39Z</time>
      </trkpt>
      <trkpt lat="35.063648829236627" lon="-5.225597117096186">
        <ele>717.761474609375</ele>
        <time>2011-04-16T13:27:45Z</time>
      </trkpt>
      <trkpt lat="35.063748154789209" lon="-5.224911812692881">
        <ele>721.126220703125</ele>
        <time>2011-04-16T13:27:49Z</time>
      </trkpt>
      <trkpt lat="35.063966419547796" lon="-5.224334634840488">
        <ele>724.971435546875</ele>
        <time>2011-04-16T13:27:54Z</time>
      </trkpt>
      <trkpt lat="35.06423631682992" lon="-5.224321223795414">
        <ele>726.413330078125</ele>
        <time>2011-04-16T13:27:56Z</time>
      </trkpt>
      <trkpt lat="35.065525118261576" lon="-5.224174959585071">
        <ele>729.297119140625</ele>
        <time>2011-04-16T13:28:04Z</time>
      </trkpt>
      <trkpt lat="35.06613465026021" lon="-5.223949234932661">
        <ele>730.7392578125</ele>
        <time>2011-04-16T13:28:08Z</time>
      </trkpt>
      <trkpt lat="35.066977785900235" lon="-5.2234170679003">
        <ele>731.700439453125</ele>
        <time>2011-04-16T13:28:14Z</time>
      </trkpt>
      <trkpt lat="35.067563764750957" lon="-5.22302077151835">
        <ele>734.584716796875</ele>
        <time>2011-04-16T13:28:18Z</time>
      </trkpt>
      <trkpt lat="35.067971376702189" lon="-5.222327671945095">
        <ele>739.39111328125</ele>
        <time>2011-04-16T13:28:23Z</time>
      </trkpt>
      <trkpt lat="35.068059386685491" lon="-5.221558045595884">
        <ele>743.236328125</ele>
        <time>2011-04-16T13:28:28Z</time>
      </trkpt>
      <trkpt lat="35.067966766655445" lon="-5.220954297110438">
        <ele>748.043212890625</ele>
        <time>2011-04-16T13:28:32Z</time>
      </trkpt>
      <trkpt lat="35.0669208727777" lon="-5.219744956120849">
        <ele>756.69482421875</ele>
        <time>2011-04-16T13:28:41Z</time>
      </trkpt>
      <trkpt lat="35.066792126744986" lon="-5.219655856490135">
        <ele>757.65625</ele>
        <time>2011-04-16T13:28:42Z</time>
      </trkpt>
      <trkpt lat="35.066020740196109" lon="-5.219121761620045">
        <ele>762.462646484375</ele>
        <time>2011-04-16T13:28:48Z</time>
      </trkpt>
      <trkpt lat="35.065751429647207" lon="-5.218935431912541">
        <ele>763.424072265625</ele>
        <time>2011-04-16T13:28:50Z</time>
      </trkpt>
      <trkpt lat="35.065112141892314" lon="-5.218481384217739">
        <ele>767.75</ele>
        <time>2011-04-16T13:28:55Z</time>
      </trkpt>
      <trkpt lat="35.063819317147136" lon="-5.217077247798443">
        <ele>776.40185546875</ele>
        <time>2011-04-16T13:29:05Z</time>
      </trkpt>
      <trkpt lat="35.063316822052002" lon="-5.216560671105981">
        <ele>780.247314453125</ele>
        <time>2011-04-16T13:29:09Z</time>
      </trkpt>
      <trkpt lat="35.06262045353651" lon="-5.215840497985482">
        <ele>787.937744140625</ele>
        <time>2011-04-16T13:29:16Z</time>
      </trkpt>
      <trkpt lat="35.062401182949543" lon="-5.215568337589502">
        <ele>790.341064453125</ele>
        <time>2011-04-16T13:29:19Z</time>
      </trkpt>
      <trkpt lat="35.062030451372266" lon="-5.215031560510397">
        <ele>793.224853515625</ele>
        <time>2011-04-16T13:29:25Z</time>
      </trkpt>
      <trkpt lat="35.06185962818563" lon="-5.214758142828941">
        <ele>795.628173828125</ele>
        <time>2011-04-16T13:29:28Z</time>
      </trkpt>
      <trkpt lat="35.061600208282471" lon="-5.213926741853356">
        <ele>799.4736328125</ele>
        <time>2011-04-16T13:29:34Z</time>
      </trkpt>
      <trkpt lat="35.061603728681803" lon="-5.21326775662601">
        <ele>804.2802734375</ele>
        <time>2011-04-16T13:29:39Z</time>
      </trkpt>
      <trkpt lat="35.061618061736226" lon="-5.212994003668428">
        <ele>805.72216796875</ele>
        <time>2011-04-16T13:29:41Z</time>
      </trkpt>
      <trkpt lat="35.061575816944242" lon="-5.212378688156605">
        <ele>808.60595703125</ele>
        <time>2011-04-16T13:29:46Z</time>
      </trkpt>
      <trkpt lat="35.061353109776974" lon="-5.211913995444775">
        <ele>811.00927734375</ele>
        <time>2011-04-16T13:29:50Z</time>
      </trkpt>
      <trkpt lat="35.061140125617385" lon="-5.211478220298886">
        <ele>813.412841796875</ele>
        <time>2011-04-16T13:29:54Z</time>
      </trkpt>
      <trkpt lat="35.060089873149991" lon="-5.210349597036839">
        <ele>820.141845703125</ele>
        <time>2011-04-16T13:30:06Z</time>
      </trkpt>
      <trkpt lat="35.059546390548348" lon="-5.209914827719331">
        <ele>823.987060546875</ele>
        <time>2011-04-16T13:30:12Z</time>
      </trkpt>
      <trkpt lat="35.059175491333008" lon="-5.209614671766758">
        <ele>826.87109375</ele>
        <time>2011-04-16T13:30:16Z</time>
      </trkpt>
      <trkpt lat="35.058644078671932" lon="-5.209168335422874">
        <ele>831.197265625</ele>
        <time>2011-04-16T13:30:22Z</time>
      </trkpt>
      <trkpt lat="35.058216350153089" lon="-5.208809087052941">
        <ele>835.04248046875</ele>
        <time>2011-04-16T13:30:27Z</time>
      </trkpt>
      <trkpt lat="35.058144265785813" lon="-5.208226041868329">
        <ele>837.92626953125</ele>
        <time>2011-04-16T13:30:32Z</time>
      </trkpt>
      <trkpt lat="35.058172512799501" lon="-5.207794038578868">
        <ele>838.8876953125</ele>
        <time>2011-04-16T13:30:36Z</time>
      </trkpt>
      <trkpt lat="35.058322213590145" lon="-5.207249550148845">
        <ele>839.848876953125</ele>
        <time>2011-04-16T13:30:41Z</time>
      </trkpt>
      <trkpt lat="35.05826429463923" lon="-5.206928607076407">
        <ele>841.771484375</ele>
        <time>2011-04-16T13:30:45Z</time>
      </trkpt>
      <trkpt lat="35.058215009048581" lon="-5.206834143027663">
        <ele>842.252197265625</ele>
        <time>2011-04-16T13:30:46Z</time>
      </trkpt>
      <trkpt lat="35.057900520041585" lon="-5.206232573837042">
        <ele>846.578369140625</ele>
        <time>2011-04-16T13:30:54Z</time>
      </trkpt>
      <trkpt lat="35.057806726545095" lon="-5.206079268828034">
        <ele>848.9814453125</ele>
        <time>2011-04-16T13:30:59Z</time>
      </trkpt>
      <trkpt lat="35.057186549529433" lon="-5.206112712621689">
        <ele>850.904052734375</ele>
        <time>2011-04-16T13:31:08Z</time>
      </trkpt>
      <trkpt lat="35.057229045778513" lon="-5.205958988517523">
        <ele>850.904052734375</ele>
        <time>2011-04-16T13:31:10Z</time>
      </trkpt>
      <trkpt lat="35.057373046875" lon="-5.205438137054443">
        <ele>850.423583984375</ele>
        <time>2011-04-16T13:31:19Z</time>
      </trkpt>
      <trkpt lat="35.057373046875" lon="-5.204844865947962">
        <ele>850.423583984375</ele>
        <time>2011-04-16T13:31:26Z</time>
      </trkpt>
      <trkpt lat="35.057373046875" lon="-5.203668968752027">
        <ele>849.94287109375</ele>
        <time>2011-04-16T13:31:37Z</time>
      </trkpt>
      <trkpt lat="35.057421494275331" lon="-5.20257018506527">
        <ele>850.423583984375</ele>
        <time>2011-04-16T13:31:46Z</time>
      </trkpt>
      <trkpt lat="35.057630371302366" lon="-5.201451955363154">
        <ele>849.462158203125</ele>
        <time>2011-04-16T13:31:55Z</time>
      </trkpt>
      <trkpt lat="35.057889958843589" lon="-5.200654920190573">
        <ele>848.500732421875</ele>
        <time>2011-04-16T13:32:03Z</time>
      </trkpt>
      <trkpt lat="35.058096656575799" lon="-5.200250577181578">
        <ele>847.53955078125</ele>
        <time>2011-04-16T13:32:09Z</time>
      </trkpt>
      <trkpt lat="35.058360854163766" lon="-5.199748501181603">
        <ele>846.578369140625</ele>
        <time>2011-04-16T13:32:15Z</time>
      </trkpt>
      <trkpt lat="35.058801742270589" lon="-5.198866976425052">
        <ele>847.53955078125</ele>
        <time>2011-04-16T13:32:22Z</time>
      </trkpt>
      <trkpt lat="35.058900397270918" lon="-5.198169769719243">
        <ele>849.462158203125</ele>
        <time>2011-04-16T13:32:27Z</time>
      </trkpt>
      <trkpt lat="35.058784391731024" lon="-5.197344655171037">
        <ele>851.865478515625</ele>
        <time>2011-04-16T13:32:33Z</time>
      </trkpt>
      <trkpt lat="35.05880719050765" lon="-5.197179699316621">
        <ele>852.345947265625</ele>
        <time>2011-04-16T13:32:34Z</time>
      </trkpt>
      <trkpt lat="35.058787744492292" lon="-5.19630454480648">
        <ele>853.7880859375</ele>
        <time>2011-04-16T13:32:40Z</time>
      </trkpt>
      <trkpt lat="35.058781625702977" lon="-5.195585461333394">
        <ele>854.749267578125</ele>
        <time>2011-04-16T13:32:46Z</time>
      </trkpt>
      <trkpt lat="35.059013050049543" lon="-5.194925637915731">
        <ele>856.671875</ele>
        <time>2011-04-16T13:32:51Z</time>
      </trkpt>
      <trkpt lat="35.059214299544692" lon="-5.194409983232617">
        <ele>857.63330078125</ele>
        <time>2011-04-16T13:32:57Z</time>
      </trkpt>
      <trkpt lat="35.059299878776073" lon="-5.194184593856335">
        <ele>858.594482421875</ele>
        <time>2011-04-16T13:33:00Z</time>
      </trkpt>
      <trkpt lat="35.059479167684913" lon="-5.193341206759214">
        <ele>858.114013671875</ele>
        <time>2011-04-16T13:33:07Z</time>
      </trkpt>
      <trkpt lat="35.05957430228591" lon="-5.192234124988318">
        <ele>857.63330078125</ele>
        <time>2011-04-16T13:33:15Z</time>
      </trkpt>
      <trkpt lat="35.059628868475556" lon="-5.191704472526908">
        <ele>857.63330078125</ele>
        <time>2011-04-16T13:33:19Z</time>
      </trkpt>
      <trkpt lat="35.059821400791407" lon="-5.191185045987368">
        <ele>857.152587890625</ele>
        <time>2011-04-16T13:33:24Z</time>
      </trkpt>
      <trkpt lat="35.060064056888223" lon="-5.190926296636462">
        <ele>858.114013671875</ele>
        <time>2011-04-16T13:33:27Z</time>
      </trkpt>
      <trkpt lat="35.060291038826108" lon="-5.190654136240482">
        <ele>859.0751953125</ele>
        <time>2011-04-16T13:33:30Z</time>
      </trkpt>
      <trkpt lat="35.060611059889197" lon="-5.19026362337172">
        <ele>860.517333984375</ele>
        <time>2011-04-16T13:33:34Z</time>
      </trkpt>
      <trkpt lat="35.061216820031404" lon="-5.189487794414163">
        <ele>864.362548828125</ele>
        <time>2011-04-16T13:33:41Z</time>
      </trkpt>
      <trkpt lat="35.061401138082147" lon="-5.188831156119704">
        <ele>866.765869140625</ele>
        <time>2011-04-16T13:33:46Z</time>
      </trkpt>
      <trkpt lat="35.061445645987988" lon="-5.188516918569803">
        <ele>867.72705078125</ele>
        <time>2011-04-16T13:33:48Z</time>
      </trkpt>
      <trkpt lat="35.061501553282142" lon="-5.187731198966503">
        <ele>870.611083984375</ele>
        <time>2011-04-16T13:33:53Z</time>
      </trkpt>
      <trkpt lat="35.061774970963597" lon="-5.187327694147825">
        <ele>873.014404296875</ele>
        <time>2011-04-16T13:33:58Z</time>
      </trkpt>
      <trkpt lat="35.061982255429029" lon="-5.187192326411605">
        <ele>873.4951171875</ele>
        <time>2011-04-16T13:34:00Z</time>
      </trkpt>
      <trkpt lat="35.062980372458696" lon="-5.186907509341836">
        <ele>873.014404296875</ele>
        <time>2011-04-16T13:34:07Z</time>
      </trkpt>
      <trkpt lat="35.06357230246067" lon="-5.186619674786925">
        <ele>872.052978515625</ele>
        <time>2011-04-16T13:34:12Z</time>
      </trkpt>
      <trkpt lat="35.063807582482696" lon="-5.186502328142524">
        <ele>871.572265625</ele>
        <time>2011-04-16T13:34:14Z</time>
      </trkpt>
      <trkpt lat="35.064693968743086" lon="-5.186111899092794">
        <ele>872.052978515625</ele>
        <time>2011-04-16T13:34:21Z</time>
      </trkpt>
      <trkpt lat="35.064946683123708" lon="-5.185669083148241">
        <ele>872.53369140625</ele>
        <time>2011-04-16T13:34:26Z</time>
      </trkpt>
      <trkpt lat="35.06497560068965" lon="-5.185531787574291">
        <ele>872.53369140625</ele>
        <time>2011-04-16T13:34:27Z</time>
      </trkpt>
      <trkpt lat="35.065041063353419" lon="-5.185089977458119">
        <ele>872.052978515625</ele>
        <time>2011-04-16T13:34:30Z</time>
      </trkpt>
      <trkpt lat="35.064891614019871" lon="-5.184056824073196">
        <ele>872.052978515625</ele>
        <time>2011-04-16T13:34:36Z</time>
      </trkpt>
      <trkpt lat="35.064596151933074" lon="-5.182976229116321">
        <ele>871.572265625</ele>
        <time>2011-04-16T13:34:42Z</time>
      </trkpt>
      <trkpt lat="35.064385011792183" lon="-5.182252116501331">
        <ele>872.052978515625</ele>
        <time>2011-04-16T13:34:46Z</time>
      </trkpt>
      <trkpt lat="35.064090052619576" lon="-5.181636800989509">
        <ele>872.052978515625</ele>
        <time>2011-04-16T13:34:50Z</time>
      </trkpt>
      <trkpt lat="35.063603650778532" lon="-5.181100275367498">
        <ele>872.53369140625</ele>
        <time>2011-04-16T13:34:55Z</time>
      </trkpt>
      <trkpt lat="35.063384464010596" lon="-5.180976977571845">
        <ele>872.052978515625</ele>
        <time>2011-04-16T13:34:57Z</time>
      </trkpt>
      <trkpt lat="35.062706870958209" lon="-5.180595852434635">
        <ele>872.53369140625</ele>
        <time>2011-04-16T13:35:03Z</time>
      </trkpt>
      <trkpt lat="35.06242792122066" lon="-5.180346071720123">
        <ele>872.53369140625</ele>
        <time>2011-04-16T13:35:06Z</time>
      </trkpt>
      <trkpt lat="35.062074456363916" lon="-5.179865369573236">
        <ele>872.53369140625</ele>
        <time>2011-04-16T13:35:10Z</time>
      </trkpt>
      <trkpt lat="35.06191679276526" lon="-5.179300848394632">
        <ele>872.53369140625</ele>
        <time>2011-04-16T13:35:14Z</time>
      </trkpt>
      <trkpt lat="35.061805984005332" lon="-5.178724676370621">
        <ele>871.091796875</ele>
        <time>2011-04-16T13:35:18Z</time>
      </trkpt>
      <trkpt lat="35.06177069619298" lon="-5.177797386422753">
        <ele>869.64990234375</ele>
        <time>2011-04-16T13:35:24Z</time>
      </trkpt>
      <trkpt lat="35.061754183843732" lon="-5.177170671522617">
        <ele>870.13037109375</ele>
        <time>2011-04-16T13:35:28Z</time>
      </trkpt>
      <trkpt lat="35.061750411987305" lon="-5.176459550857544">
        <ele>871.572265625</ele>
        <time>2011-04-16T13:35:34Z</time>
      </trkpt>
      <trkpt lat="35.061750411987305" lon="-5.17633281648159">
        <ele>871.572265625</ele>
        <time>2011-04-16T13:35:35Z</time>
      </trkpt>
      <trkpt lat="35.061809755861759" lon="-5.175605015829206">
        <ele>872.052978515625</ele>
        <time>2011-04-16T13:35:40Z</time>
      </trkpt>
      <trkpt lat="35.061905393376946" lon="-5.174971092492342">
        <ele>872.052978515625</ele>
        <time>2011-04-16T13:35:44Z</time>
      </trkpt>
      <trkpt lat="35.062144277617335" lon="-5.17380852252245">
        <ele>870.611083984375</ele>
        <time>2011-04-16T13:35:51Z</time>
      </trkpt>
      <trkpt lat="35.062282327562571" lon="-5.173154566437006">
        <ele>870.13037109375</ele>
        <time>2011-04-16T13:35:56Z</time>
      </trkpt>
      <trkpt lat="35.062334798276424" lon="-5.172790372744203">
        <ele>870.13037109375</ele>
        <time>2011-04-16T13:35:59Z</time>
      </trkpt>
      <trkpt lat="35.062361285090446" lon="-5.172061650082469">
        <ele>870.13037109375</ele>
        <time>2011-04-16T13:36:04Z</time>
      </trkpt>
      <trkpt lat="35.062367403879762" lon="-5.171893509104848">
        <ele>870.13037109375</ele>
        <time>2011-04-16T13:36:05Z</time>
      </trkpt>
      <trkpt lat="35.062194988131523" lon="-5.170150073245168">
        <ele>870.13037109375</ele>
        <time>2011-04-16T13:36:15Z</time>
      </trkpt>
      <trkpt lat="35.062130531296134" lon="-5.169570045545697">
        <ele>870.13037109375</ele>
        <time>2011-04-16T13:36:19Z</time>
      </trkpt>
      <trkpt lat="35.062027350068092" lon="-5.169079033657908">
        <ele>869.64990234375</ele>
        <time>2011-04-16T13:36:23Z</time>
      </trkpt>
      <trkpt lat="35.061868010088801" lon="-5.168694807216525">
        <ele>869.64990234375</ele>
        <time>2011-04-16T13:36:26Z</time>
      </trkpt>
      <trkpt lat="35.061453776434064" lon="-5.167696438729763">
        <ele>870.611083984375</ele>
        <time>2011-04-16T13:36:33Z</time>
      </trkpt>
      <trkpt lat="35.06139543838799" lon="-5.167555622756481">
        <ele>870.611083984375</ele>
        <time>2011-04-16T13:36:34Z</time>
      </trkpt>
      <trkpt lat="35.061194021254778" lon="-5.167070059105754">
        <ele>871.091796875</ele>
        <time>2011-04-16T13:36:38Z</time>
      </trkpt>
      <trkpt lat="35.060947760939598" lon="-5.166476452723146">
        <ele>871.572265625</ele>
        <time>2011-04-16T13:36:43Z</time>
      </trkpt>
      <trkpt lat="35.060775261372328" lon="-5.165689224377275">
        <ele>872.052978515625</ele>
        <time>2011-04-16T13:36:49Z</time>
      </trkpt>
      <trkpt lat="35.060685239732265" lon="-5.165186310186982">
        <ele>872.052978515625</ele>
        <time>2011-04-16T13:36:53Z</time>
      </trkpt>
      <trkpt lat="35.060600414872169" lon="-5.164712062105537">
        <ele>871.091796875</ele>
        <time>2011-04-16T13:36:57Z</time>
      </trkpt>
      <trkpt lat="35.06111397407949" lon="-5.163962887600064">
        <ele>870.13037109375</ele>
        <time>2011-04-16T13:37:01Z</time>
      </trkpt>
      <trkpt lat="35.060601085424423" lon="-5.163663988932967">
        <ele>869.64990234375</ele>
        <time>2011-04-16T13:37:03Z</time>
      </trkpt>
      <trkpt lat="35.060752043500543" lon="-5.163097120821476">
        <ele>869.169189453125</ele>
        <time>2011-04-16T13:37:09Z</time>
      </trkpt>
      <trkpt lat="35.061024790629745" lon="-5.162838706746697">
        <ele>867.72705078125</ele>
        <time>2011-04-16T13:37:12Z</time>
      </trkpt>
      <trkpt lat="35.062131537124515" lon="-5.161929270252585">
        <ele>868.6884765625</ele>
        <time>2011-04-16T13:37:22Z</time>
      </trkpt>
      <trkpt lat="35.062533365562558" lon="-5.161633221432567">
        <ele>870.13037109375</ele>
        <time>2011-04-16T13:37:26Z</time>
      </trkpt>
      <trkpt lat="35.062990766018629" lon="-5.161451920866966">
        <ele>871.572265625</ele>
        <time>2011-04-16T13:37:31Z</time>
      </trkpt>
      <trkpt lat="35.063501223921776" lon="-5.161344548687339">
        <ele>872.53369140625</ele>
        <time>2011-04-16T13:37:36Z</time>
      </trkpt>
      <trkpt lat="35.063701383769512" lon="-5.161302471533418">
        <ele>872.53369140625</ele>
        <time>2011-04-16T13:37:38Z</time>
      </trkpt>
      <trkpt lat="35.064171273261309" lon="-5.160999298095703">
        <ele>872.052978515625</ele>
        <time>2011-04-16T13:37:42Z</time>
      </trkpt>
      <trkpt lat="35.06467217579484" lon="-5.160490768030286">
        <ele>871.572265625</ele>
        <time>2011-04-16T13:37:47Z</time>
      </trkpt>
      <trkpt lat="35.064979875460267" lon="-5.160178290680051">
        <ele>872.052978515625</ele>
        <time>2011-04-16T13:37:50Z</time>
      </trkpt>
      <trkpt lat="35.065339207649231" lon="-5.159822227433324">
        <ele>873.4951171875</ele>
        <time>2011-04-16T13:37:54Z</time>
      </trkpt>
      <trkpt lat="35.066559780389071" lon="-5.158919580280781">
        <ele>878.3017578125</ele>
        <time>2011-04-16T13:38:05Z</time>
      </trkpt>
      <trkpt lat="35.066957753151655" lon="-5.158529989421368">
        <ele>879.74365234375</ele>
        <time>2011-04-16T13:38:09Z</time>
      </trkpt>
      <trkpt lat="35.06742219440639" lon="-5.158093795180321">
        <ele>881.666259765625</ele>
        <time>2011-04-16T13:38:13Z</time>
      </trkpt>
      <trkpt lat="35.067623527720571" lon="-5.157972006127238">
        <ele>882.14697265625</ele>
        <time>2011-04-16T13:38:15Z</time>
      </trkpt>
      <trkpt lat="35.068314783275127" lon="-5.157458614557982">
        <ele>883.108154296875</ele>
        <time>2011-04-16T13:38:22Z</time>
      </trkpt>
      <trkpt lat="35.06838477216661" lon="-5.157363815233111">
        <ele>883.5888671875</ele>
        <time>2011-04-16T13:38:23Z</time>
      </trkpt>
      <trkpt lat="35.068723652511835" lon="-5.15690540894866">
        <ele>882.627685546875</ele>
        <time>2011-04-16T13:38:28Z</time>
      </trkpt>
      <trkpt lat="35.068833120167255" lon="-5.156757216900587">
        <ele>881.185791015625</ele>
        <time>2011-04-16T13:38:30Z</time>
      </trkpt>
      <trkpt lat="35.068948036059737" lon="-5.156363770365715">
        <ele>880.705078125</ele>
        <time>2011-04-16T13:38:32Z</time>
      </trkpt>
      <trkpt lat="35.069054570049047" lon="-5.155396163463593">
        <ele>878.782470703125</ele>
        <time>2011-04-16T13:38:38Z</time>
      </trkpt>
      <trkpt lat="35.069140903651714" lon="-5.154067380353808">
        <ele>879.262939453125</ele>
        <time>2011-04-16T13:38:46Z</time>
      </trkpt>
      <trkpt lat="35.069097485393286" lon="-5.153763284906745">
        <ele>879.74365234375</ele>
        <time>2011-04-16T13:38:48Z</time>
      </trkpt>
      <trkpt lat="35.069005116820335" lon="-5.153116788715124">
        <ele>881.185791015625</ele>
        <time>2011-04-16T13:38:52Z</time>
      </trkpt>
      <trkpt lat="35.068907467648387" lon="-5.152370883151889">
        <ele>881.666259765625</ele>
        <time>2011-04-16T13:38:57Z</time>
      </trkpt>
      <trkpt lat="35.068847285583615" lon="-5.151568735018373">
        <ele>880.224365234375</ele>
        <time>2011-04-16T13:39:02Z</time>
      </trkpt>
      <trkpt lat="35.068730274215341" lon="-5.149852959439158">
        <ele>877.821044921875</ele>
        <time>2011-04-16T13:39:11Z</time>
      </trkpt>
      <trkpt lat="35.068832030519843" lon="-5.148619813844562">
        <ele>878.3017578125</ele>
        <time>2011-04-16T13:39:18Z</time>
      </trkpt>
      <trkpt lat="35.068856086581945" lon="-5.148328794166446">
        <ele>878.782470703125</ele>
        <time>2011-04-16T13:39:20Z</time>
      </trkpt>
      <trkpt lat="35.068917274475098" lon="-5.14758825302124">
        <ele>879.74365234375</ele>
        <time>2011-04-16T13:39:26Z</time>
      </trkpt>
      <trkpt lat="35.06876640021801" lon="-5.147252473980188">
        <ele>880.705078125</ele>
        <time>2011-04-16T13:39:31Z</time>
      </trkpt>
      <trkpt lat="35.068709654733539" lon="-5.147126242518425">
        <ele>880.705078125</ele>
        <time>2011-04-16T13:39:32Z</time>
      </trkpt>
      <trkpt lat="35.06824160926044" lon="-5.146085042506456">
        <ele>881.185791015625</ele>
        <time>2011-04-16T13:39:39Z</time>
      </trkpt>
      <trkpt lat="35.068022254854441" lon="-5.145370066165924">
        <ele>881.185791015625</ele>
        <time>2011-04-16T13:39:44Z</time>
      </trkpt>
      <trkpt lat="35.067989146336913" lon="-5.145091870799661">
        <ele>880.705078125</ele>
        <time>2011-04-16T13:39:47Z</time>
      </trkpt>
      <trkpt lat="35.067432671785355" lon="-5.144618544727564">
        <ele>879.74365234375</ele>
        <time>2011-04-16T13:39:52Z</time>
      </trkpt>
      <trkpt lat="35.067428564652801" lon="-5.144489631056786">
        <ele>879.74365234375</ele>
        <time>2011-04-16T13:39:53Z</time>
      </trkpt>
      <trkpt lat="35.067810444161296" lon="-5.143590420484543">
        <ele>882.627685546875</ele>
        <time>2011-04-16T13:39:59Z</time>
      </trkpt>
      <trkpt lat="35.067759733647108" lon="-5.143164452165365">
        <ele>882.627685546875</ele>
        <time>2011-04-16T13:40:02Z</time>
      </trkpt>
      <trkpt lat="35.067716063931584" lon="-5.142703698948026">
        <ele>882.627685546875</ele>
        <time>2011-04-16T13:40:05Z</time>
      </trkpt>
      <trkpt lat="35.067638447508216" lon="-5.141703654080629">
        <ele>888.3955078125</ele>
        <time>2011-04-16T13:40:12Z</time>
      </trkpt>
      <trkpt lat="35.067609278485179" lon="-5.141328480094671">
        <ele>890.798583984375</ele>
        <time>2011-04-16T13:40:15Z</time>
      </trkpt>
      <trkpt lat="35.067566195502877" lon="-5.140773598104715">
        <ele>895.60546875</ele>
        <time>2011-04-16T13:40:20Z</time>
      </trkpt>
      <trkpt lat="35.06744809448719" lon="-5.14009265229106">
        <ele>898.0087890625</ele>
        <time>2011-04-16T13:40:27Z</time>
      </trkpt>
      <trkpt lat="35.06734499707818" lon="-5.139502147212625">
        <ele>894.64404296875</ele>
        <time>2011-04-16T13:40:32Z</time>
      </trkpt>
      <trkpt lat="35.067203007638454" lon="-5.139186317101121">
        <ele>890.798583984375</ele>
        <time>2011-04-16T13:40:36Z</time>
      </trkpt>
      <trkpt lat="35.066936463117599" lon="-5.138708213344216">
        <ele>885.511474609375</ele>
        <time>2011-04-16T13:40:41Z</time>
      </trkpt>
      <trkpt lat="35.066803442314267" lon="-5.138634033501148">
        <ele>879.262939453125</ele>
        <time>2011-04-16T13:40:46Z</time>
      </trkpt>
      <trkpt lat="35.066909892484546" lon="-5.138660771772265">
        <ele>875.898193359375</ele>
        <time>2011-04-16T13:40:48Z</time>
      </trkpt>
      <trkpt lat="35.067029418423772" lon="-5.13887501321733">
        <ele>871.091796875</ele>
        <time>2011-04-16T13:40:52Z</time>
      </trkpt>
      <trkpt lat="35.066465819254518" lon="-5.139360493049026">
        <ele>868.207763671875</ele>
        <time>2011-04-16T13:40:57Z</time>
      </trkpt>
      <trkpt lat="35.066314274445176" lon="-5.139053966850042">
        <ele>865.8046875</ele>
        <time>2011-04-16T13:41:01Z</time>
      </trkpt>
      <trkpt lat="35.066189803183079" lon="-5.13769350014627">
        <ele>862.920654296875</ele>
        <time>2011-04-16T13:41:09Z</time>
      </trkpt>
      <trkpt lat="35.065662246197462" lon="-5.137002747505903">
        <ele>862.920654296875</ele>
        <time>2011-04-16T13:41:15Z</time>
      </trkpt>
      <trkpt lat="35.065353373065591" lon="-5.13648072257638">
        <ele>862.43994140625</ele>
        <time>2011-04-16T13:41:20Z</time>
      </trkpt>
      <trkpt lat="35.065259328112006" lon="-5.136321717873216">
        <ele>861.95947265625</ele>
        <time>2011-04-16T13:41:22Z</time>
      </trkpt>
      <trkpt lat="35.065126391127706" lon="-5.136096999049187">
        <ele>861.95947265625</ele>
        <time>2011-04-16T13:41:25Z</time>
      </trkpt>
      <trkpt lat="35.0648642051965" lon="-5.135652758181095">
        <ele>861.478759765625</ele>
        <time>2011-04-16T13:41:30Z</time>
      </trkpt>
      <trkpt lat="35.064768651500344" lon="-5.135488891974092">
        <ele>860.998046875</ele>
        <time>2011-04-16T13:41:32Z</time>
      </trkpt>
      <trkpt lat="35.06467167288065" lon="-5.135322846472263">
        <ele>860.998046875</ele>
        <time>2011-04-16T13:41:34Z</time>
      </trkpt>
      <trkpt lat="35.06436288356781" lon="-5.134793277829886">
        <ele>861.478759765625</ele>
        <time>2011-04-16T13:41:39Z</time>
      </trkpt>
      <trkpt lat="35.064290631562471" lon="-5.134669560939074">
        <ele>861.478759765625</ele>
        <time>2011-04-16T13:41:40Z</time>
      </trkpt>
      <trkpt lat="35.063625611364841" lon="-5.133529622107744">
        <ele>860.03662109375</ele>
        <time>2011-04-16T13:41:48Z</time>
      </trkpt>
      <trkpt lat="35.063280276954174" lon="-5.132958730682731">
        <ele>860.03662109375</ele>
        <time>2011-04-16T13:41:52Z</time>
      </trkpt>
      <trkpt lat="35.062838802114129" lon="-5.132278706878424">
        <ele>859.0751953125</ele>
        <time>2011-04-16T13:41:57Z</time>
      </trkpt>
      <trkpt lat="35.062749283388257" lon="-5.13214074075222">
        <ele>859.0751953125</ele>
        <time>2011-04-16T13:41:58Z</time>
      </trkpt>
      <trkpt lat="35.0625622831285" lon="-5.131864892318845">
        <ele>859.0751953125</ele>
        <time>2011-04-16T13:42:00Z</time>
      </trkpt>
      <trkpt lat="35.062088118866086" lon="-5.131258964538574">
        <ele>858.594482421875</ele>
        <time>2011-04-16T13:42:05Z</time>
      </trkpt>
      <trkpt lat="35.061836242675781" lon="-5.130937099456787">
        <ele>858.114013671875</ele>
        <time>2011-04-16T13:42:08Z</time>
      </trkpt>
      <trkpt lat="35.061405664309859" lon="-5.130463521927595">
        <ele>857.63330078125</ele>
        <time>2011-04-16T13:42:13Z</time>
      </trkpt>
      <trkpt lat="35.061145490035415" lon="-5.130177363753319">
        <ele>857.152587890625</ele>
        <time>2011-04-16T13:42:16Z</time>
      </trkpt>
      <trkpt lat="35.060760928317904" lon="-5.129949040710926">
        <ele>857.152587890625</ele>
        <time>2011-04-16T13:42:19Z</time>
      </trkpt>
      <trkpt lat="35.060203950852156" lon="-5.129836136475205">
        <ele>856.191162109375</ele>
        <time>2011-04-16T13:42:24Z</time>
      </trkpt>
      <trkpt lat="35.059991972520947" lon="-5.129793221130967">
        <ele>855.710693359375</ele>
        <time>2011-04-16T13:42:26Z</time>
      </trkpt>
      <trkpt lat="35.059550246223807" lon="-5.129703702405095">
        <ele>855.22998046875</ele>
        <time>2011-04-16T13:42:30Z</time>
      </trkpt>
      <trkpt lat="35.059329634532332" lon="-5.129633462056518">
        <ele>855.710693359375</ele>
        <time>2011-04-16T13:42:32Z</time>
      </trkpt>
      <trkpt lat="35.058960830792785" lon="-5.1294029597193">
        <ele>855.710693359375</ele>
        <time>2011-04-16T13:42:36Z</time>
      </trkpt>
      <trkpt lat="35.0586630217731" lon="-5.12921679764986">
        <ele>855.710693359375</ele>
        <time>2011-04-16T13:42:39Z</time>
      </trkpt>
      <trkpt lat="35.058043515309691" lon="-5.128822261467576">
        <ele>855.22998046875</ele>
        <time>2011-04-16T13:42:44Z</time>
      </trkpt>
      <trkpt lat="35.057431384921074" lon="-5.128409285098314">
        <ele>854.268798828125</ele>
        <time>2011-04-16T13:42:49Z</time>
      </trkpt>
      <trkpt lat="35.057059647515416" lon="-5.127883153036237">
        <ele>853.7880859375</ele>
        <time>2011-04-16T13:42:54Z</time>
      </trkpt>
      <trkpt lat="35.056984042748809" lon="-5.127776116132736">
        <ele>853.307373046875</ele>
        <time>2011-04-16T13:42:55Z</time>
      </trkpt>
      <trkpt lat="35.056288093328476" lon="-5.12626837939024">
        <ele>853.7880859375</ele>
        <time>2011-04-16T13:43:05Z</time>
      </trkpt>
      <trkpt lat="35.055994223803282" lon="-5.126011725515127">
        <ele>854.749267578125</ele>
        <time>2011-04-16T13:43:10Z</time>
      </trkpt>
      <trkpt lat="35.055780904367566" lon="-5.12593855150044">
        <ele>855.22998046875</ele>
        <time>2011-04-16T13:43:12Z</time>
      </trkpt>
      <trkpt lat="35.055450154468417" lon="-5.125421555712819">
        <ele>856.671875</ele>
        <time>2011-04-16T13:43:19Z</time>
      </trkpt>
      <trkpt lat="35.055417465046048" lon="-5.125240171328187">
        <ele>857.152587890625</ele>
        <time>2011-04-16T13:43:21Z</time>
      </trkpt>
      <trkpt lat="35.055387541651726" lon="-5.125074377283454">
        <ele>858.114013671875</ele>
        <time>2011-04-16T13:43:27Z</time>
      </trkpt>
      <trkpt lat="35.055335322394967" lon="-5.124784698709846">
        <ele>858.594482421875</ele>
        <time>2011-04-16T13:44:03Z</time>
      </trkpt>
      <trkpt lat="35.05530028603971" lon="-5.124590406194329">
        <ele>858.594482421875</ele>
        <time>2011-04-16T13:44:05Z</time>
      </trkpt>
      <trkpt lat="35.055430205538869" lon="-5.123960673809052">
        <ele>858.594482421875</ele>
        <time>2011-04-16T13:44:10Z</time>
      </trkpt>
      <trkpt lat="35.055483765900135" lon="-5.123735619708896">
        <ele>858.114013671875</ele>
        <time>2011-04-16T13:44:12Z</time>
      </trkpt>
      <trkpt lat="35.055621648207307" lon="-5.123102031648159">
        <ele>856.671875</ele>
        <time>2011-04-16T13:44:17Z</time>
      </trkpt>
      <trkpt lat="35.055827591568232" lon="-5.120966406539083">
        <ele>852.82666015625</ele>
        <time>2011-04-16T13:44:28Z</time>
      </trkpt>
      <trkpt lat="35.055895317345858" lon="-5.120395682752132">
        <ele>852.82666015625</ele>
        <time>2011-04-16T13:44:31Z</time>
      </trkpt>
      <trkpt lat="35.056072175502777" lon="-5.119643323123455">
        <ele>853.7880859375</ele>
        <time>2011-04-16T13:44:35Z</time>
      </trkpt>
      <trkpt lat="35.056177619844675" lon="-5.119323385879397">
        <ele>854.268798828125</ele>
        <time>2011-04-16T13:44:37Z</time>
      </trkpt>
      <trkpt lat="35.056370906531811" lon="-5.118737323209643">
        <ele>855.710693359375</ele>
        <time>2011-04-16T13:44:41Z</time>
      </trkpt>
      <trkpt lat="35.056468388065696" lon="-5.118441944941878">
        <ele>856.191162109375</ele>
        <time>2011-04-16T13:44:43Z</time>
      </trkpt>
      <trkpt lat="35.05673149600625" lon="-5.117560839280486">
        <ele>856.191162109375</ele>
        <time>2011-04-16T13:44:48Z</time>
      </trkpt>
      <trkpt lat="35.05677935667336" lon="-5.117385573685169">
        <ele>855.710693359375</ele>
        <time>2011-04-16T13:44:49Z</time>
      </trkpt>
      <trkpt lat="35.05692495033145" lon="-5.116856675595045">
        <ele>856.191162109375</ele>
        <time>2011-04-16T13:44:53Z</time>
      </trkpt>
      <trkpt lat="35.057302387431264" lon="-5.116227697581053">
        <ele>857.152587890625</ele>
        <time>2011-04-16T13:44:58Z</time>
      </trkpt>
      <trkpt lat="35.057550827041268" lon="-5.116086546331644">
        <ele>858.114013671875</ele>
        <time>2011-04-16T13:45:02Z</time>
      </trkpt>
      <trkpt lat="35.057846624404192" lon="-5.116047654300928">
        <ele>857.63330078125</ele>
        <time>2011-04-16T13:45:05Z</time>
      </trkpt>
      <trkpt lat="35.058591440320015" lon="-5.116002559661865">
        <ele>857.152587890625</ele>
        <time>2011-04-16T13:45:11Z</time>
      </trkpt>
      <trkpt lat="35.058732088655233" lon="-5.116002559661865">
        <ele>857.152587890625</ele>
        <time>2011-04-16T13:45:12Z</time>
      </trkpt>
      <trkpt lat="35.059368023648858" lon="-5.11605997569859">
        <ele>857.152587890625</ele>
        <time>2011-04-16T13:45:17Z</time>
      </trkpt>
      <trkpt lat="35.059976382181048" lon="-5.116150500252843">
        <ele>857.63330078125</ele>
        <time>2011-04-16T13:45:22Z</time>
      </trkpt>
      <trkpt lat="35.060111247003078" lon="-5.116157121956348">
        <ele>857.152587890625</ele>
        <time>2011-04-16T13:45:23Z</time>
      </trkpt>
      <trkpt lat="35.060585746541619" lon="-5.116174723953009">
        <ele>857.152587890625</ele>
        <time>2011-04-16T13:45:27Z</time>
      </trkpt>
      <trkpt lat="35.0610978808254" lon="-5.116193750873208">
        <ele>855.710693359375</ele>
        <time>2011-04-16T13:45:32Z</time>
      </trkpt>
      <trkpt lat="35.061245402321219" lon="-5.11609610170126">
        <ele>855.710693359375</ele>
        <time>2011-04-16T13:45:34Z</time>
      </trkpt>
      <trkpt lat="35.062165483832359" lon="-5.11513838544488">
        <ele>851.865478515625</ele>
        <time>2011-04-16T13:45:42Z</time>
      </trkpt>
      <trkpt lat="35.062391627579927" lon="-5.114861866459251">
        <ele>850.423583984375</ele>
        <time>2011-04-16T13:45:44Z</time>
      </trkpt>
      <trkpt lat="35.062753306701779" lon="-5.114407064393163">
        <ele>848.020263671875</ele>
        <time>2011-04-16T13:45:49Z</time>
      </trkpt>
      <trkpt lat="35.063123032450676" lon="-5.113890068605542">
        <ele>845.13623046875</ele>
        <time>2011-04-16T13:45:55Z</time>
      </trkpt>
      <trkpt lat="35.063191093504429" lon="-5.113783702254295">
        <ele>844.655517578125</ele>
        <time>2011-04-16T13:45:56Z</time>
      </trkpt>
      <trkpt lat="35.063739772886038" lon="-5.112828835844994">
        <ele>842.252197265625</ele>
        <time>2011-04-16T13:46:04Z</time>
      </trkpt>
      <trkpt lat="35.063953259959817" lon="-5.11228920891881">
        <ele>840.81005859375</ele>
        <time>2011-04-16T13:46:08Z</time>
      </trkpt>
      <trkpt lat="35.064306557178497" lon="-5.111396200954914">
        <ele>837.92626953125</ele>
        <time>2011-04-16T13:46:15Z</time>
      </trkpt>
      <trkpt lat="35.064564803615212" lon="-5.11076956987381">
        <ele>834.561767578125</ele>
        <time>2011-04-16T13:46:20Z</time>
      </trkpt>
      <trkpt lat="35.06466337479651" lon="-5.110537139698863">
        <ele>833.600341796875</ele>
        <time>2011-04-16T13:46:22Z</time>
      </trkpt>
      <trkpt lat="35.064826989546418" lon="-5.110225668177009">
        <ele>832.63916015625</ele>
        <time>2011-04-16T13:46:25Z</time>
      </trkpt>
      <trkpt lat="35.065044919028878" lon="-5.109852170571685">
        <ele>833.11962890625</ele>
        <time>2011-04-16T13:46:29Z</time>
      </trkpt>
      <trkpt lat="35.065291933715343" lon="-5.109428633004427">
        <ele>833.11962890625</ele>
        <time>2011-04-16T13:46:34Z</time>
      </trkpt>
      <trkpt lat="35.065517239272594" lon="-5.109042562544346">
        <ele>832.158447265625</ele>
        <time>2011-04-16T13:46:38Z</time>
      </trkpt>
      <trkpt lat="35.065818903967738" lon="-5.108260363340378">
        <ele>830.716552734375</ele>
        <time>2011-04-16T13:46:45Z</time>
      </trkpt>
      <trkpt lat="35.066048819571733" lon="-5.107570616528392">
        <ele>829.755126953125</ele>
        <time>2011-04-16T13:46:51Z</time>
      </trkpt>
      <trkpt lat="35.065987044945359" lon="-5.107233915477991">
        <ele>830.23583984375</ele>
        <time>2011-04-16T13:46:57Z</time>
      </trkpt>
      <trkpt lat="35.065929293632507" lon="-5.107012717053294">
        <ele>832.158447265625</ele>
        <time>2011-04-16T13:47:00Z</time>
      </trkpt>
      <trkpt lat="35.065677249804139" lon="-5.106192883104086">
        <ele>837.445556640625</ele>
        <time>2011-04-16T13:47:09Z</time>
      </trkpt>
      <trkpt lat="35.065483460202813" lon="-5.105670858174563">
        <ele>839.3681640625</ele>
        <time>2011-04-16T13:47:14Z</time>
      </trkpt>
      <trkpt lat="35.065277516841888" lon="-5.10511614382267">
        <ele>842.73291015625</ele>
        <time>2011-04-16T13:47:19Z</time>
      </trkpt>
      <trkpt lat="35.065180622041225" lon="-5.104855131357908">
        <ele>844.175048828125</ele>
        <time>2011-04-16T13:47:21Z</time>
      </trkpt>
      <trkpt lat="35.064972918480635" lon="-5.10396639816463">
        <ele>847.53955078125</ele>
        <time>2011-04-16T13:47:27Z</time>
      </trkpt>
      <trkpt lat="35.06494240835309" lon="-5.103718377649784">
        <ele>848.500732421875</ele>
        <time>2011-04-16T13:47:29Z</time>
      </trkpt>
      <trkpt lat="35.0648642051965" lon="-5.103083280846477">
        <ele>851.384765625</ele>
        <time>2011-04-16T13:47:34Z</time>
      </trkpt>
      <trkpt lat="35.06486177444458" lon="-5.102648260071874">
        <ele>853.7880859375</ele>
        <time>2011-04-16T13:47:38Z</time>
      </trkpt>
      <trkpt lat="35.06486177444458" lon="-5.102460589259863">
        <ele>855.22998046875</ele>
        <time>2011-04-16T13:47:40Z</time>
      </trkpt>
      <trkpt lat="35.064819026738405" lon="-5.101956333965063">
        <ele>856.191162109375</ele>
        <time>2011-04-16T13:47:46Z</time>
      </trkpt>
      <trkpt lat="35.064729591831565" lon="-5.101525420323014">
        <ele>855.710693359375</ele>
        <time>2011-04-16T13:47:50Z</time>
      </trkpt>
      <trkpt lat="35.064603192731738" lon="-5.100938603281975">
        <ele>858.114013671875</ele>
        <time>2011-04-16T13:47:56Z</time>
      </trkpt>
      <trkpt lat="35.064429016783834" lon="-5.10027090087533">
        <ele>861.478759765625</ele>
        <time>2011-04-16T13:48:01Z</time>
      </trkpt>
      <trkpt lat="35.064385430887341" lon="-5.100104101002216">
        <ele>861.95947265625</ele>
        <time>2011-04-16T13:48:02Z</time>
      </trkpt>
      <trkpt lat="35.064046382904053" lon="-5.098199062049389">
        <ele>870.13037109375</ele>
        <time>2011-04-16T13:48:12Z</time>
      </trkpt>
      <trkpt lat="35.064046382904053" lon="-5.097298929467797">
        <ele>873.9755859375</ele>
        <time>2011-04-16T13:48:17Z</time>
      </trkpt>
      <trkpt lat="35.064112348482013" lon="-5.09646937251091">
        <ele>875.898193359375</ele>
        <time>2011-04-16T13:48:22Z</time>
      </trkpt>
      <trkpt lat="35.064128525555134" lon="-5.096299471333623">
        <ele>876.85986328125</ele>
        <time>2011-04-16T13:48:23Z</time>
      </trkpt>
      <trkpt lat="35.064420970156789" lon="-5.094984350726008">
        <ele>880.224365234375</ele>
        <time>2011-04-16T13:48:30Z</time>
      </trkpt>
      <trkpt lat="35.064647197723389" lon="-5.0945651717484">
        <ele>881.185791015625</ele>
        <time>2011-04-16T13:48:34Z</time>
      </trkpt>
      <trkpt lat="35.064954310655594" lon="-5.093975504860282">
        <ele>883.5888671875</ele>
        <time>2011-04-16T13:48:40Z</time>
      </trkpt>
      <trkpt lat="35.064998986199498" lon="-5.093757910653949">
        <ele>884.55029296875</ele>
        <time>2011-04-16T13:48:42Z</time>
      </trkpt>
      <trkpt lat="35.065135108307004" lon="-5.093095572665334">
        <ele>886.472900390625</ele>
        <time>2011-04-16T13:48:47Z</time>
      </trkpt>
      <trkpt lat="35.06523066200316" lon="-5.092629957944155">
        <ele>888.3955078125</ele>
        <time>2011-04-16T13:48:50Z</time>
      </trkpt>
      <trkpt lat="35.065387738868594" lon="-5.091865360736847">
        <ele>891.279296875</ele>
        <time>2011-04-16T13:48:55Z</time>
      </trkpt>
      <trkpt lat="35.065443646162748" lon="-5.091587333008647">
        <ele>892.240966796875</ele>
        <time>2011-04-16T13:48:57Z</time>
      </trkpt>
      <trkpt lat="35.065524950623512" lon="-5.091011747717857">
        <ele>894.64404296875</ele>
        <time>2011-04-16T13:49:01Z</time>
      </trkpt>
      <trkpt lat="35.065566608682275" lon="-5.090716788545251">
        <ele>895.60546875</ele>
        <time>2011-04-16T13:49:03Z</time>
      </trkpt>
      <trkpt lat="35.065673477947712" lon="-5.08996082469821">
        <ele>898.0087890625</ele>
        <time>2011-04-16T13:49:08Z</time>
      </trkpt>
      <trkpt lat="35.065729385241866" lon="-5.089599145576358">
        <ele>899.45068359375</ele>
        <time>2011-04-16T13:49:11Z</time>
      </trkpt>
      <trkpt lat="35.06592158228159" lon="-5.088938316330314">
        <ele>901.373291015625</ele>
        <time>2011-04-16T13:49:17Z</time>
      </trkpt>
      <trkpt lat="35.066004730761051" lon="-5.088652744889259">
        <ele>901.85400390625</ele>
        <time>2011-04-16T13:49:19Z</time>
      </trkpt>
      <trkpt lat="35.066556511446834" lon="-5.087478356435895">
        <ele>905.69921875</ele>
        <time>2011-04-16T13:49:27Z</time>
      </trkpt>
      <trkpt lat="35.066834203898907" lon="-5.08683848194778">
        <ele>907.621826171875</ele>
        <time>2011-04-16T13:49:32Z</time>
      </trkpt>
      <trkpt lat="35.066806208342314" lon="-5.085395537316799">
        <ele>910.986572265625</ele>
        <time>2011-04-16T13:49:40Z</time>
      </trkpt>
      <trkpt lat="35.066845938563347" lon="-5.084576793015003">
        <ele>913.870361328125</ele>
        <time>2011-04-16T13:49:45Z</time>
      </trkpt>
      <trkpt lat="35.067193368449807" lon="-5.083655370399356">
        <ele>916.273681640625</ele>
        <time>2011-04-16T13:49:51Z</time>
      </trkpt>
      <trkpt lat="35.067536439746618" lon="-5.0833232793957">
        <ele>916.75439453125</ele>
        <time>2011-04-16T13:49:56Z</time>
      </trkpt>
      <trkpt lat="35.067765768617392" lon="-5.083245076239109">
        <ele>916.273681640625</ele>
        <time>2011-04-16T13:49:58Z</time>
      </trkpt>
      <trkpt lat="35.068107414990664" lon="-5.083128735423088">
        <ele>915.3125</ele>
        <time>2011-04-16T13:50:01Z</time>
      </trkpt>
      <trkpt lat="35.068346802145243" lon="-5.082878619432449">
        <ele>912.428466796875</ele>
        <time>2011-04-16T13:50:06Z</time>
      </trkpt>
      <trkpt lat="35.068504381924868" lon="-5.082596568390727">
        <ele>910.505859375</ele>
        <time>2011-04-16T13:50:08Z</time>
      </trkpt>
      <trkpt lat="35.069308876991272" lon="-5.081442715600133">
        <ele>904.73779296875</ele>
        <time>2011-04-16T13:50:17Z</time>
      </trkpt>
      <trkpt lat="35.069401329383254" lon="-5.081390999257565">
        <ele>904.73779296875</ele>
        <time>2011-04-16T13:50:18Z</time>
      </trkpt>
      <trkpt lat="35.06986141204834" lon="-5.081133842468262">
        <ele>905.218505859375</ele>
        <time>2011-04-16T13:50:23Z</time>
      </trkpt>
      <trkpt lat="35.070057464763522" lon="-5.081209447234869">
        <ele>903.776611328125</ele>
        <time>2011-04-16T13:50:26Z</time>
      </trkpt>
      <trkpt lat="35.070750480517745" lon="-5.081477332860231">
        <ele>902.33447265625</ele>
        <time>2011-04-16T13:50:31Z</time>
      </trkpt>
      <trkpt lat="35.071225566789508" lon="-5.081741698086262">
        <ele>899.45068359375</ele>
        <time>2011-04-16T13:50:35Z</time>
      </trkpt>
      <trkpt lat="35.071738203987479" lon="-5.082038501277566">
        <ele>896.56689453125</ele>
        <time>2011-04-16T13:50:40Z</time>
      </trkpt>
      <trkpt lat="35.071940459311008" lon="-5.082155680283904">
        <ele>895.60546875</ele>
        <time>2011-04-16T13:50:42Z</time>
      </trkpt>
      <trkpt lat="35.07244236767292" lon="-5.082444017753005">
        <ele>893.2021484375</ele>
        <time>2011-04-16T13:50:47Z</time>
      </trkpt>
      <trkpt lat="35.072631714865565" lon="-5.082486849278212">
        <ele>892.240966796875</ele>
        <time>2011-04-16T13:50:49Z</time>
      </trkpt>
      <trkpt lat="35.07310152053833" lon="-5.082592964172363">
        <ele>888.3955078125</ele>
        <time>2011-04-16T13:50:54Z</time>
      </trkpt>
      <trkpt lat="35.073462948203087" lon="-5.082431612536311">
        <ele>885.031005859375</ele>
        <time>2011-04-16T13:50:58Z</time>
      </trkpt>
      <trkpt lat="35.074039958417416" lon="-5.082173785194755">
        <ele>882.14697265625</ele>
        <time>2011-04-16T13:51:03Z</time>
      </trkpt>
      <trkpt lat="35.074871778488159" lon="-5.081623010337353">
        <ele>876.85986328125</ele>
        <time>2011-04-16T13:51:09Z</time>
      </trkpt>
      <trkpt lat="35.075241168960929" lon="-5.08140055462718">
        <ele>874.93701171875</ele>
        <time>2011-04-16T13:51:12Z</time>
      </trkpt>
      <trkpt lat="35.07566973567009" lon="-5.081175500527024">
        <ele>872.53369140625</ele>
        <time>2011-04-16T13:51:16Z</time>
      </trkpt>
      <trkpt lat="35.076002161949873" lon="-5.081040719524026">
        <ele>870.13037109375</ele>
        <time>2011-04-16T13:51:19Z</time>
      </trkpt>
      <trkpt lat="35.076480181887746" lon="-5.081001492217183">
        <ele>867.24658203125</ele>
        <time>2011-04-16T13:51:24Z</time>
      </trkpt>
      <trkpt lat="35.077028861269355" lon="-5.08095639757812">
        <ele>863.8818359375</ele>
        <time>2011-04-16T13:51:29Z</time>
      </trkpt>
      <trkpt lat="35.077152326703072" lon="-5.080946255475283">
        <ele>862.920654296875</ele>
        <time>2011-04-16T13:51:30Z</time>
      </trkpt>
      <trkpt lat="35.07821599021554" lon="-5.080967545509338">
        <ele>857.63330078125</ele>
        <time>2011-04-16T13:51:38Z</time>
      </trkpt>
      <trkpt lat="35.079117799177766" lon="-5.081133004277945">
        <ele>853.307373046875</ele>
        <time>2011-04-16T13:51:44Z</time>
      </trkpt>
      <trkpt lat="35.079995300620794" lon="-5.081544890999794">
        <ele>848.500732421875</ele>
        <time>2011-04-16T13:51:51Z</time>
      </trkpt>
      <trkpt lat="35.080413725227118" lon="-5.081898858770728">
        <ele>846.09765625</ele>
        <time>2011-04-16T13:51:55Z</time>
      </trkpt>
      <trkpt lat="35.081268092617393" lon="-5.082624480128288">
        <ele>839.848876953125</ele>
        <time>2011-04-16T13:52:02Z</time>
      </trkpt>
      <trkpt lat="35.082111395895481" lon="-5.083402907475829">
        <ele>835.04248046875</ele>
        <time>2011-04-16T13:52:09Z</time>
      </trkpt>
      <trkpt lat="35.082560749724507" lon="-5.083730136975646">
        <ele>834.0810546875</ele>
        <time>2011-04-16T13:52:14Z</time>
      </trkpt>
      <trkpt lat="35.082916561514139" lon="-5.083911018446088">
        <ele>834.0810546875</ele>
        <time>2011-04-16T13:52:18Z</time>
      </trkpt>
      <trkpt lat="35.08354838937521" lon="-5.084232380613685">
        <ele>834.561767578125</ele>
        <time>2011-04-16T13:52:25Z</time>
      </trkpt>
      <trkpt lat="35.083660203963518" lon="-5.084044206887484">
        <ele>834.0810546875</ele>
        <time>2011-04-16T13:52:29Z</time>
      </trkpt>
      <trkpt lat="35.083770174533129" lon="-5.083494773134589">
        <ele>831.677734375</ele>
        <time>2011-04-16T13:52:33Z</time>
      </trkpt>
      <trkpt lat="35.083797918632627" lon="-5.083356136456132">
        <ele>831.197265625</ele>
        <time>2011-04-16T13:52:34Z</time>
      </trkpt>
      <trkpt lat="35.083472700789571" lon="-5.082131456583738">
        <ele>832.63916015625</ele>
        <time>2011-04-16T13:52:41Z</time>
      </trkpt>
      <trkpt lat="35.083330627530813" lon="-5.081199640408158">
        <ele>834.561767578125</ele>
        <time>2011-04-16T13:52:47Z</time>
      </trkpt>
      <trkpt lat="35.083448644727468" lon="-5.080766882747412">
        <ele>836.484375</ele>
        <time>2011-04-16T13:52:50Z</time>
      </trkpt>
      <trkpt lat="35.083683924749494" lon="-5.080079650506377">
        <ele>842.252197265625</ele>
        <time>2011-04-16T13:52:55Z</time>
      </trkpt>
      <trkpt lat="35.083938064053655" lon="-5.079428795725107">
        <ele>847.058837890625</ele>
        <time>2011-04-16T13:53:00Z</time>
      </trkpt>
      <trkpt lat="35.083985589444637" lon="-5.078460266813636">
        <ele>851.384765625</ele>
        <time>2011-04-16T13:53:06Z</time>
      </trkpt>
      <trkpt lat="35.08401601575315" lon="-5.077996579930186">
        <ele>853.307373046875</ele>
        <time>2011-04-16T13:53:09Z</time>
      </trkpt>
      <trkpt lat="35.084049878641963" lon="-5.077480422332883">
        <ele>855.22998046875</ele>
        <time>2011-04-16T13:53:13Z</time>
      </trkpt>
      <trkpt lat="35.084064295515418" lon="-5.077260481193662">
        <ele>855.710693359375</ele>
        <time>2011-04-16T13:53:15Z</time>
      </trkpt>
      <trkpt lat="35.083920462056994" lon="-5.076874243095517">
        <ele>857.63330078125</ele>
        <time>2011-04-16T13:53:20Z</time>
      </trkpt>
      <trkpt lat="35.083867236971855" lon="-5.07674491032958">
        <ele>858.114013671875</ele>
        <time>2011-04-16T13:53:21Z</time>
      </trkpt>
      <trkpt lat="35.083436407148838" lon="-5.075891632586718">
        <ele>861.478759765625</ele>
        <time>2011-04-16T13:53:27Z</time>
      </trkpt>
      <trkpt lat="35.08290734142065" lon="-5.075175818055868">
        <ele>863.8818359375</ele>
        <time>2011-04-16T13:53:33Z</time>
      </trkpt>
      <trkpt lat="35.082761663943529" lon="-5.07466284558177">
        <ele>865.323974609375</ele>
        <time>2011-04-16T13:53:38Z</time>
      </trkpt>
      <trkpt lat="35.082687651738524" lon="-5.074375011026859">
        <ele>865.323974609375</ele>
        <time>2011-04-16T13:53:40Z</time>
      </trkpt>
      <trkpt lat="35.082462849095464" lon="-5.073500694707036">
        <ele>866.28515625</ele>
        <time>2011-04-16T13:53:45Z</time>
      </trkpt>
      <trkpt lat="35.082072587683797" lon="-5.071586016565561">
        <ele>870.13037109375</ele>
        <time>2011-04-16T13:53:55Z</time>
      </trkpt>
      <trkpt lat="35.082049369812012" lon="-5.071456432342529">
        <ele>870.611083984375</ele>
        <time>2011-04-16T13:53:56Z</time>
      </trkpt>
      <trkpt lat="35.081602446734905" lon="-5.070975311100483">
        <ele>871.091796875</ele>
        <time>2011-04-16T13:54:01Z</time>
      </trkpt>
      <trkpt lat="35.081125348806381" lon="-5.070805745199323">
        <ele>870.611083984375</ele>
        <time>2011-04-16T13:54:05Z</time>
      </trkpt>
      <trkpt lat="35.080297216773033" lon="-5.070726871490479">
        <ele>870.611083984375</ele>
        <time>2011-04-16T13:54:10Z</time>
      </trkpt>
      <trkpt lat="35.079032890498638" lon="-5.070726871490479">
        <ele>872.052978515625</ele>
        <time>2011-04-16T13:54:18Z</time>
      </trkpt>
      <trkpt lat="35.078502232208848" lon="-5.070721255615354">
        <ele>873.014404296875</ele>
        <time>2011-04-16T13:54:22Z</time>
      </trkpt>
      <trkpt lat="35.077754650264978" lon="-5.070681944489479">
        <ele>874.456298828125</ele>
        <time>2011-04-16T13:54:28Z</time>
      </trkpt>
      <trkpt lat="35.077446699142456" lon="-5.070485305041075">
        <ele>875.41748046875</ele>
        <time>2011-04-16T13:54:31Z</time>
      </trkpt>
      <trkpt lat="35.076985359191895" lon="-5.0701904296875">
        <ele>876.85986328125</ele>
        <time>2011-04-16T13:54:36Z</time>
      </trkpt>
      <trkpt lat="35.07679995149374" lon="-5.069871498271823">
        <ele>877.340576171875</ele>
        <time>2011-04-16T13:54:39Z</time>
      </trkpt>
      <trkpt lat="35.07664849050343" lon="-5.069611072540283">
        <ele>878.3017578125</ele>
        <time>2011-04-16T13:54:41Z</time>
      </trkpt>
      <trkpt lat="35.076150605455041" lon="-5.068754609674215">
        <ele>882.14697265625</ele>
        <time>2011-04-16T13:54:47Z</time>
      </trkpt>
      <trkpt lat="35.075949439778924" lon="-5.068101156502962">
        <ele>886.472900390625</ele>
        <time>2011-04-16T13:54:53Z</time>
      </trkpt>
      <trkpt lat="35.07600886747241" lon="-5.067708883434534">
        <ele>889.83740234375</ele>
        <time>2011-04-16T13:54:58Z</time>
      </trkpt>
      <trkpt lat="35.076036527752876" lon="-5.067525822669268">
        <ele>889.83740234375</ele>
        <time>2011-04-16T13:55:00Z</time>
      </trkpt>
      <trkpt lat="35.07606653496623" lon="-5.067328177392483">
        <ele>890.318115234375</ele>
        <time>2011-04-16T13:55:02Z</time>
      </trkpt>
      <trkpt lat="35.076145157217979" lon="-5.066888378933072">
        <ele>892.240966796875</ele>
        <time>2011-04-16T13:55:06Z</time>
      </trkpt>
      <trkpt lat="35.076398542150855" lon="-5.066320756450295">
        <ele>896.086181640625</ele>
        <time>2011-04-16T13:55:12Z</time>
      </trkpt>
      <trkpt lat="35.076442379504442" lon="-5.066222604364157">
        <ele>896.56689453125</ele>
        <time>2011-04-16T13:55:13Z</time>
      </trkpt>
      <trkpt lat="35.076530557125807" lon="-5.066025042906404">
        <ele>897.528076171875</ele>
        <time>2011-04-16T13:55:15Z</time>
      </trkpt>
      <trkpt lat="35.07672325707972" lon="-5.065482817590237">
        <ele>899.931396484375</ele>
        <time>2011-04-16T13:55:20Z</time>
      </trkpt>
      <trkpt lat="35.076759550720453" lon="-5.065334290266037">
        <ele>900.892578125</ele>
        <time>2011-04-16T13:55:21Z</time>
      </trkpt>
      <trkpt lat="35.076867593452334" lon="-5.064892144873738">
        <ele>902.815185546875</ele>
        <time>2011-04-16T13:55:24Z</time>
      </trkpt>
      <trkpt lat="35.07680531591177" lon="-5.06436794064939">
        <ele>906.1796875</ele>
        <time>2011-04-16T13:55:28Z</time>
      </trkpt>
      <trkpt lat="35.076647317036986" lon="-5.063708201050758">
        <ele>909.544677734375</ele>
        <time>2011-04-16T13:55:33Z</time>
      </trkpt>
      <trkpt lat="35.076587218791246" lon="-5.063457163050771">
        <ele>910.986572265625</ele>
        <time>2011-04-16T13:55:35Z</time>
      </trkpt>
      <trkpt lat="35.076255379244685" lon="-5.063138399273157">
        <ele>913.870361328125</ele>
        <time>2011-04-16T13:55:40Z</time>
      </trkpt>
      <trkpt lat="35.076128225773573" lon="-5.063093053176999">
        <ele>914.35107421875</ele>
        <time>2011-04-16T13:55:41Z</time>
      </trkpt>
      <trkpt lat="35.075633525848389" lon="-5.062916278839111">
        <ele>916.273681640625</ele>
        <time>2011-04-16T13:55:45Z</time>
      </trkpt>
      <trkpt lat="35.075068920850754" lon="-5.063139069825411">
        <ele>917.715576171875</ele>
        <time>2011-04-16T13:55:50Z</time>
      </trkpt>
      <trkpt lat="35.074546141549945" lon="-5.0634556543082">
        <ele>918.1962890625</ele>
        <time>2011-04-16T13:55:55Z</time>
      </trkpt>
      <trkpt lat="35.074353776872158" lon="-5.063609546050429">
        <ele>917.715576171875</ele>
        <time>2011-04-16T13:55:57Z</time>
      </trkpt>
      <trkpt lat="35.073814569041133" lon="-5.064040962606669">
        <ele>917.715576171875</ele>
        <time>2011-04-16T13:56:02Z</time>
      </trkpt>
      <trkpt lat="35.073498068377376" lon="-5.063969967886806">
        <ele>917.715576171875</ele>
        <time>2011-04-16T13:56:04Z</time>
      </trkpt>
      <trkpt lat="35.0732999201864" lon="-5.063859997317195">
        <ele>918.677001953125</ele>
        <time>2011-04-16T13:56:10Z</time>
      </trkpt>
      <trkpt lat="35.073058605194092" lon="-5.063731670379639">
        <ele>918.677001953125</ele>
        <time>2011-04-16T13:56:13Z</time>
      </trkpt>
      <trkpt lat="35.073050139471889" lon="-5.063597476109862">
        <ele>918.677001953125</ele>
        <time>2011-04-16T13:56:15Z</time>
      </trkpt>
      <trkpt lat="35.073018874973059" lon="-5.063105542212725">
        <ele>919.638427734375</ele>
        <time>2011-04-16T13:56:18Z</time>
      </trkpt>
      <trkpt lat="35.072986772283912" lon="-5.062599526718259">
        <ele>921.560791015625</ele>
        <time>2011-04-16T13:56:22Z</time>
      </trkpt>
      <trkpt lat="35.072972774505615" lon="-5.062068365514278">
        <ele>923.964111328125</ele>
        <time>2011-04-16T13:56:27Z</time>
      </trkpt>
      <trkpt lat="35.072972774505615" lon="-5.061807604506612">
        <ele>924.92578125</ele>
        <time>2011-04-16T13:56:29Z</time>
      </trkpt>
      <trkpt lat="35.072972774505615" lon="-5.061344169080257">
        <ele>926.848388671875</ele>
        <time>2011-04-16T13:56:33Z</time>
      </trkpt>
      <trkpt lat="35.072972774505615" lon="-5.06066414527595">
        <ele>929.25146484375</ele>
        <time>2011-04-16T13:56:39Z</time>
      </trkpt>
      <trkpt lat="35.072933295741677" lon="-5.060367928817868">
        <ele>930.212890625</ele>
        <time>2011-04-16T13:56:41Z</time>
      </trkpt>
      <trkpt lat="35.072805220261216" lon="-5.059689078480005">
        <ele>933.577392578125</ele>
        <time>2011-04-16T13:56:47Z</time>
      </trkpt>
      <trkpt lat="35.072523085400462" lon="-5.058638490736485">
        <ele>936.94189453125</ele>
        <time>2011-04-16T13:56:55Z</time>
      </trkpt>
      <trkpt lat="35.072309095412493" lon="-5.057909181341529">
        <ele>935.980712890625</ele>
        <time>2011-04-16T13:57:01Z</time>
      </trkpt>
      <trkpt lat="35.072045987471938" lon="-5.057882191613317">
        <ele>933.0966796875</ele>
        <time>2011-04-16T13:57:05Z</time>
      </trkpt>
      <trkpt lat="35.071764187887311" lon="-5.057942625135183">
        <ele>930.212890625</ele>
        <time>2011-04-16T13:57:08Z</time>
      </trkpt>
      <trkpt lat="35.071586407721043" lon="-5.057980678975582">
        <ele>928.290283203125</ele>
        <time>2011-04-16T13:57:10Z</time>
      </trkpt>
      <trkpt lat="35.071145100519061" lon="-5.058075310662389">
        <ele>924.445068359375</ele>
        <time>2011-04-16T13:57:15Z</time>
      </trkpt>
      <trkpt lat="35.071006212383509" lon="-5.057528978213668">
        <ele>919.638427734375</ele>
        <time>2011-04-16T13:57:23Z</time>
      </trkpt>
      <trkpt lat="35.070952316746116" lon="-5.057143829762936">
        <ele>920.118896484375</ele>
        <time>2011-04-16T13:57:26Z</time>
      </trkpt>
      <trkpt lat="35.070841088891029" lon="-5.056191897019744">
        <ele>925.40625</ele>
        <time>2011-04-16T13:57:33Z</time>
      </trkpt>
      <trkpt lat="35.070814015343785" lon="-5.055952593684197">
        <ele>927.3291015625</ele>
        <time>2011-04-16T13:57:35Z</time>
      </trkpt>
      <trkpt lat="35.070718713104725" lon="-5.055712116882205">
        <ele>929.732177734375</ele>
        <time>2011-04-16T13:57:39Z</time>
      </trkpt>
      <trkpt lat="35.070506818592548" lon="-5.055306768044829">
        <ele>932.6162109375</ele>
        <time>2011-04-16T13:57:44Z</time>
      </trkpt>
      <trkpt lat="35.070563061162829" lon="-5.054938551038504">
        <ele>935.01953125</ele>
        <time>2011-04-16T13:57:48Z</time>
      </trkpt>
      <trkpt lat="35.070194508880377" lon="-5.054950285702944">
        <ele>935.5</ele>
        <time>2011-04-16T13:57:50Z</time>
      </trkpt>
      <trkpt lat="35.069997366517782" lon="-5.054977526888251">
        <ele>935.01953125</ele>
        <time>2011-04-16T13:57:52Z</time>
      </trkpt>
      <trkpt lat="35.069472910836339" lon="-5.055050114169717">
        <ele>935.5</ele>
        <time>2011-04-16T13:57:56Z</time>
      </trkpt>
      <trkpt lat="35.06907376460731" lon="-5.055105434730649">
        <ele>936.94189453125</ele>
        <time>2011-04-16T13:57:59Z</time>
      </trkpt>
      <trkpt lat="35.068811746314168" lon="-5.054938299581409">
        <ele>939.34521484375</ele>
        <time>2011-04-16T13:58:04Z</time>
      </trkpt>
      <trkpt lat="35.068632792681456" lon="-5.054618110880256">
        <ele>940.787353515625</ele>
        <time>2011-04-16T13:58:08Z</time>
      </trkpt>
      <trkpt lat="35.068541010841727" lon="-5.053704986348748">
        <ele>945.11328125</ele>
        <time>2011-04-16T13:58:15Z</time>
      </trkpt>
      <trkpt lat="35.068598175421357" lon="-5.053161839023233">
        <ele>948.477783203125</ele>
        <time>2011-04-16T13:58:19Z</time>
      </trkpt>
      <trkpt lat="35.068638073280454" lon="-5.052907867357135">
        <ele>949.919921875</ele>
        <time>2011-04-16T13:58:21Z</time>
      </trkpt>
      <trkpt lat="35.068705631420016" lon="-5.052120722830296">
        <ele>953.76513671875</ele>
        <time>2011-04-16T13:58:26Z</time>
      </trkpt>
      <trkpt lat="35.068635893985629" lon="-5.051226206123829">
        <ele>958.09130859375</ele>
        <time>2011-04-16T13:58:32Z</time>
      </trkpt>
      <trkpt lat="35.068329954519868" lon="-5.050428165122867">
        <ele>961.455810546875</ele>
        <time>2011-04-16T13:58:38Z</time>
      </trkpt>
      <trkpt lat="35.067551443353295" lon="-5.049109272658825">
        <ele>967.2236328125</ele>
        <time>2011-04-16T13:58:48Z</time>
      </trkpt>
      <trkpt lat="35.067521519958973" lon="-5.048997290432453">
        <ele>968.184814453125</ele>
        <time>2011-04-16T13:58:49Z</time>
      </trkpt>
      <trkpt lat="35.067408364266157" lon="-5.048490352928639">
        <ele>970.588134765625</ele>
        <time>2011-04-16T13:58:54Z</time>
      </trkpt>
      <trkpt lat="35.067381374537945" lon="-5.048357751220465">
        <ele>970.588134765625</ele>
        <time>2011-04-16T13:58:55Z</time>
      </trkpt>
      <trkpt lat="35.06719789467752" lon="-5.047570774331689">
        <ele>972.99169921875</ele>
        <time>2011-04-16T13:59:00Z</time>
      </trkpt>
      <trkpt lat="35.067098569124937" lon="-5.047330213710666">
        <ele>974.43359375</ele>
        <time>2011-04-16T13:59:02Z</time>
      </trkpt>
      <trkpt lat="35.0668621994555" lon="-5.046758065000176">
        <ele>976.8369140625</ele>
        <time>2011-04-16T13:59:07Z</time>
      </trkpt>
      <trkpt lat="35.06677670404315" lon="-5.046161692589521">
        <ele>977.798095703125</ele>
        <time>2011-04-16T13:59:11Z</time>
      </trkpt>
      <trkpt lat="35.0666394084692" lon="-5.044925445690751">
        <ele>980.68212890625</ele>
        <time>2011-04-16T13:59:18Z</time>
      </trkpt>
      <trkpt lat="35.06659297272563" lon="-5.043886424973607">
        <ele>985.008056640625</ele>
        <time>2011-04-16T13:59:24Z</time>
      </trkpt>
      <trkpt lat="35.066607724875212" lon="-5.043392982333899">
        <ele>986.930419921875</ele>
        <time>2011-04-16T13:59:27Z</time>
      </trkpt>
      <trkpt lat="35.066615687683225" lon="-5.042750090360642">
        <ele>989.814697265625</ele>
        <time>2011-04-16T13:59:31Z</time>
      </trkpt>
      <trkpt lat="35.066394908353686" lon="-5.041116205975413">
        <ele>994.62109375</ele>
        <time>2011-04-16T13:59:42Z</time>
      </trkpt>
      <trkpt lat="35.066146468743682" lon="-5.040594516322017">
        <ele>995.101806640625</ele>
        <time>2011-04-16T13:59:47Z</time>
      </trkpt>
      <trkpt lat="35.065883612260222" lon="-5.039933519437909">
        <ele>998.46630859375</ele>
        <time>2011-04-16T13:59:53Z</time>
      </trkpt>
      <trkpt lat="35.065618744120002" lon="-5.038811517879367">
        <ele>1004.234619140625</ele>
        <time>2011-04-16T14:00:02Z</time>
      </trkpt>
      <trkpt lat="35.06545596756041" lon="-5.038460064679384">
        <ele>1006.6376953125</ele>
        <time>2011-04-16T14:00:06Z</time>
      </trkpt>
      <trkpt lat="35.064963866025209" lon="-5.037834690883756">
        <ele>1008.560302734375</ele>
        <time>2011-04-16T14:00:17Z</time>
      </trkpt>
      <trkpt lat="35.06480217911303" lon="-5.037629250437021">
        <ele>1010.002197265625</ele>
        <time>2011-04-16T14:00:25Z</time>
      </trkpt>
      <trkpt lat="35.064513254910707" lon="-5.03722264431417">
        <ele>1011.925048828125</ele>
        <time>2011-04-16T14:00:34Z</time>
      </trkpt>
      <trkpt lat="35.064229778945446" lon="-5.036446480080485">
        <ele>1014.328125</ele>
        <time>2011-04-16T14:00:45Z</time>
      </trkpt>
      <trkpt lat="35.063939597457647" lon="-5.035713398829103">
        <ele>1015.770263671875</ele>
        <time>2011-04-16T14:00:54Z</time>
      </trkpt>
      <trkpt lat="35.0637227576226" lon="-5.035245018079877">
        <ele>1017.212158203125</ele>
        <time>2011-04-16T14:01:01Z</time>
      </trkpt>
      <trkpt lat="35.063486555591226" lon="-5.034774793311954">
        <ele>1016.7314453125</ele>
        <time>2011-04-16T14:01:06Z</time>
      </trkpt>
      <trkpt lat="35.063155302777886" lon="-5.034624924883246">
        <ele>1016.250732421875</ele>
        <time>2011-04-16T14:01:10Z</time>
      </trkpt>
      <trkpt lat="35.062339408323169" lon="-5.034287888556719">
        <ele>1014.328125</ele>
        <time>2011-04-16T14:01:19Z</time>
      </trkpt>
      <trkpt lat="35.062153330072761" lon="-5.034225862473249">
        <ele>1014.328125</ele>
        <time>2011-04-16T14:01:21Z</time>
      </trkpt>
      <trkpt lat="35.061725098639727" lon="-5.034083118662238">
        <ele>1012.88623046875</ele>
        <time>2011-04-16T14:01:26Z</time>
      </trkpt>
      <trkpt lat="35.061225788667798" lon="-5.033812467008829">
        <ele>1013.366943359375</ele>
        <time>2011-04-16T14:01:32Z</time>
      </trkpt>
      <trkpt lat="35.061143478378654" lon="-5.033755302429199">
        <ele>1013.847412109375</ele>
        <time>2011-04-16T14:01:33Z</time>
      </trkpt>
      <trkpt lat="35.060770735144615" lon="-5.033496553078294">
        <ele>1016.7314453125</ele>
        <time>2011-04-16T14:01:38Z</time>
      </trkpt>
      <trkpt lat="35.060715414583683" lon="-5.033052647486329">
        <ele>1020.09619140625</ele>
        <time>2011-04-16T14:01:44Z</time>
      </trkpt>
      <trkpt lat="35.060678450390697" lon="-5.032357452437282">
        <ele>1026.3447265625</ele>
        <time>2011-04-16T14:01:52Z</time>
      </trkpt>
      <trkpt lat="35.060487175360322" lon="-5.031687486916781">
        <ele>1030.670654296875</ele>
        <time>2011-04-16T14:01:58Z</time>
      </trkpt>
      <trkpt lat="35.060249632224441" lon="-5.031404681503773">
        <ele>1033.554443359375</ele>
        <time>2011-04-16T14:02:02Z</time>
      </trkpt>
      <trkpt lat="35.059880660846829" lon="-5.030965469777584">
        <ele>1037.880615234375</ele>
        <time>2011-04-16T14:02:08Z</time>
      </trkpt>
      <trkpt lat="35.059690643101931" lon="-5.030782073736191">
        <ele>1038.842041015625</ele>
        <time>2011-04-16T14:02:11Z</time>
      </trkpt>
      <trkpt lat="35.059484364464879" lon="-5.030674366280437">
        <ele>1040.283935546875</ele>
        <time>2011-04-16T14:02:13Z</time>
      </trkpt>
      <trkpt lat="35.059052696451545" lon="-5.030448725447059">
        <ele>1043.6484375</ele>
        <time>2011-04-16T14:02:17Z</time>
      </trkpt>
      <trkpt lat="35.058848597109318" lon="-5.030342023819685">
        <ele>1044.609619140625</ele>
        <time>2011-04-16T14:02:19Z</time>
      </trkpt>
      <trkpt lat="35.058441320434213" lon="-5.030022002756596">
        <ele>1047.49365234375</ele>
        <time>2011-04-16T14:02:24Z</time>
      </trkpt>
      <trkpt lat="35.058052651584148" lon="-5.029658731073141">
        <ele>1050.377685546875</ele>
        <time>2011-04-16T14:02:29Z</time>
      </trkpt>
      <trkpt lat="35.057818377390504" lon="-5.029312977567315">
        <ele>1052.781005859375</ele>
        <time>2011-04-16T14:02:32Z</time>
      </trkpt>
      <trkpt lat="35.057602124288678" lon="-5.028771841898561">
        <ele>1055.6650390625</ele>
        <time>2011-04-16T14:02:36Z</time>
      </trkpt>
      <trkpt lat="35.057426355779171" lon="-5.027470383793116">
        <ele>1061.432861328125</ele>
        <time>2011-04-16T14:02:44Z</time>
      </trkpt>
      <trkpt lat="35.057267351076007" lon="-5.02653680741787">
        <ele>1066.719970703125</ele>
        <time>2011-04-16T14:02:51Z</time>
      </trkpt>
      <trkpt lat="35.056964345276356" lon="-5.026139840483666">
        <ele>1070.084716796875</ele>
        <time>2011-04-16T14:02:56Z</time>
      </trkpt>
      <trkpt lat="35.056777512654662" lon="-5.026002796366811">
        <ele>1071.046142578125</ele>
        <time>2011-04-16T14:02:58Z</time>
      </trkpt>
      <trkpt lat="35.056286500766873" lon="-5.025559728965163">
        <ele>1073.929931640625</ele>
        <time>2011-04-16T14:03:03Z</time>
      </trkpt>
      <trkpt lat="35.055856006219983" lon="-5.025197630748153">
        <ele>1077.294677734375</ele>
        <time>2011-04-16T14:03:07Z</time>
      </trkpt>
      <trkpt lat="35.055559538304806" lon="-5.024974001571536">
        <ele>1079.69775390625</ele>
        <time>2011-04-16T14:03:10Z</time>
      </trkpt>
      <trkpt lat="35.055160978808999" lon="-5.024673510342836">
        <ele>1083.062255859375</ele>
        <time>2011-04-16T14:03:14Z</time>
      </trkpt>
      <trkpt lat="35.05439780652523" lon="-5.024061212316155">
        <ele>1089.31103515625</ele>
        <time>2011-04-16T14:03:21Z</time>
      </trkpt>
      <trkpt lat="35.053732702508569" lon="-5.023420248180628">
        <ele>1095.078857421875</ele>
        <time>2011-04-16T14:03:28Z</time>
      </trkpt>
      <trkpt lat="35.053412765264511" lon="-5.023084720596671">
        <ele>1097.962890625</ele>
        <time>2011-04-16T14:03:32Z</time>
      </trkpt>
      <trkpt lat="35.053011607378721" lon="-5.022912640124559">
        <ele>1101.32763671875</ele>
        <time>2011-04-16T14:03:38Z</time>
      </trkpt>
      <trkpt lat="35.052552111446857" lon="-5.022949855774641">
        <ele>1104.211669921875</ele>
        <time>2011-04-16T14:03:45Z</time>
      </trkpt>
      <trkpt lat="35.052288752049208" lon="-5.023082792758942">
        <ele>1107.095458984375</ele>
        <time>2011-04-16T14:03:49Z</time>
      </trkpt>
      <trkpt lat="35.052097560837865" lon="-5.023210281506181">
        <ele>1108.056884765625</ele>
        <time>2011-04-16T14:03:52Z</time>
      </trkpt>
      <trkpt lat="35.051672765985131" lon="-5.02324104309082">
        <ele>1111.42138671875</ele>
        <time>2011-04-16T14:03:59Z</time>
      </trkpt>
      <trkpt lat="35.050923675298691" lon="-5.022958824411035">
        <ele>1116.22802734375</ele>
        <time>2011-04-16T14:04:11Z</time>
      </trkpt>
      <trkpt lat="35.050365189090371" lon="-5.022753132507205">
        <ele>1121.03466796875</ele>
        <time>2011-04-16T14:04:20Z</time>
      </trkpt>
      <trkpt lat="35.049775689840317" lon="-5.02240008674562">
        <ele>1126.32177734375</ele>
        <time>2011-04-16T14:04:30Z</time>
      </trkpt>
      <trkpt lat="35.049376040697098" lon="-5.022138487547636">
        <ele>1129.20556640625</ele>
        <time>2011-04-16T14:04:38Z</time>
      </trkpt>
      <trkpt lat="35.049009080976248" lon="-5.021892562508583">
        <ele>1131.60888671875</ele>
        <time>2011-04-16T14:04:45Z</time>
      </trkpt>
      <trkpt lat="35.048800706863403" lon="-5.021790806204081">
        <ele>1133.53173828125</ele>
        <time>2011-04-16T14:04:49Z</time>
      </trkpt>
      <trkpt lat="35.048699285835028" lon="-5.021741185337305">
        <ele>1134.4931640625</ele>
        <time>2011-04-16T14:04:51Z</time>
      </trkpt>
      <trkpt lat="35.048320004716516" lon="-5.021556029096246">
        <ele>1137.376953125</ele>
        <time>2011-04-16T14:04:57Z</time>
      </trkpt>
      <trkpt lat="35.047639142721891" lon="-5.021101729944348">
        <ele>1143.62548828125</ele>
        <time>2011-04-16T14:05:10Z</time>
      </trkpt>
      <trkpt lat="35.047557922080159" lon="-5.021043391898274">
        <ele>1144.586669921875</ele>
        <time>2011-04-16T14:05:16Z</time>
      </trkpt>
      <trkpt lat="35.047426074743271" lon="-5.020983042195439">
        <ele>1145.548095703125</ele>
        <time>2011-04-16T14:05:25Z</time>
      </trkpt>
      <trkpt lat="35.047285845503211" lon="-5.020970050245524">
        <ele>1146.509521484375</ele>
        <time>2011-04-16T14:05:34Z</time>
      </trkpt>
      <trkpt lat="35.047093480825424" lon="-5.020952196791768">
        <ele>1147.951416015625</ele>
        <time>2011-04-16T14:05:42Z</time>
      </trkpt>
      <trkpt lat="35.046679163351655" lon="-5.020913891494274">
        <ele>1149.874267578125</ele>
        <time>2011-04-16T14:05:51Z</time>
      </trkpt>
      <trkpt lat="35.046125538647175" lon="-5.020909532904625">
        <ele>1153.719482421875</ele>
        <time>2011-04-16T14:05:57Z</time>
      </trkpt>
      <trkpt lat="35.045781377702951" lon="-5.020960243418813">
        <ele>1156.12255859375</ele>
        <time>2011-04-16T14:06:00Z</time>
      </trkpt>
      <trkpt lat="35.045216185972095" lon="-5.021308679133654">
        <ele>1159.006591796875</ele>
        <time>2011-04-16T14:06:05Z</time>
      </trkpt>
      <trkpt lat="35.044166184961796" lon="-5.022212248295546">
        <ele>1168.13916015625</ele>
        <time>2011-04-16T14:06:15Z</time>
      </trkpt>
      <trkpt lat="35.043612141162157" lon="-5.022348202764988">
        <ele>1172.465087890625</ele>
        <time>2011-04-16T14:06:20Z</time>
      </trkpt>
      <trkpt lat="35.043291030451655" lon="-5.022429171949625">
        <ele>1174.868408203125</ele>
        <time>2011-04-16T14:06:23Z</time>
      </trkpt>
      <trkpt lat="35.042827343568206" lon="-5.022721281275153">
        <ele>1177.752197265625</ele>
        <time>2011-04-16T14:06:28Z</time>
      </trkpt>
      <trkpt lat="35.042789960280061" lon="-5.023109531030059">
        <ele>1181.1171875</ele>
        <time>2011-04-16T14:06:32Z</time>
      </trkpt>
      <trkpt lat="35.042819548398256" lon="-5.023239618167281">
        <ele>1182.078369140625</ele>
        <time>2011-04-16T14:06:33Z</time>
      </trkpt>
      <trkpt lat="35.042959610000253" lon="-5.023909416049719">
        <ele>1184.96240234375</ele>
        <time>2011-04-16T14:06:38Z</time>
      </trkpt>
      <trkpt lat="35.042964806780219" lon="-5.024627326056361">
        <ele>1189.2880859375</ele>
        <time>2011-04-16T14:06:44Z</time>
      </trkpt>
      <trkpt lat="35.042699100449681" lon="-5.024841567501426">
        <ele>1190.24951171875</ele>
        <time>2011-04-16T14:06:48Z</time>
      </trkpt>
      <trkpt lat="35.04239559173584" lon="-5.025086402893066">
        <ele>1191.69140625</ele>
        <time>2011-04-16T14:06:52Z</time>
      </trkpt>
      <trkpt lat="35.042087892070413" lon="-5.02493561245501">
        <ele>1193.614013671875</ele>
        <time>2011-04-16T14:06:55Z</time>
      </trkpt>
      <trkpt lat="35.041839787736535" lon="-5.024813991039991">
        <ele>1195.53662109375</ele>
        <time>2011-04-16T14:06:57Z</time>
      </trkpt>
      <trkpt lat="35.041289515793324" lon="-5.024512242525816">
        <ele>1199.382080078125</ele>
        <time>2011-04-16T14:07:02Z</time>
      </trkpt>
      <trkpt lat="35.040864888578653" lon="-5.023482190445066">
        <ele>1205.630615234375</ele>
        <time>2011-04-16T14:07:09Z</time>
      </trkpt>
      <trkpt lat="35.040551489219069" lon="-5.022943653166294">
        <ele>1209.475830078125</ele>
        <time>2011-04-16T14:07:13Z</time>
      </trkpt>
      <trkpt lat="35.040303720161319" lon="-5.022528078407049">
        <ele>1212.840576171875</ele>
        <time>2011-04-16T14:07:17Z</time>
      </trkpt>
      <trkpt lat="35.03994220867753" lon="-5.022031031548977">
        <ele>1216.205078125</ele>
        <time>2011-04-16T14:07:21Z</time>
      </trkpt>
      <trkpt lat="35.039433678612113" lon="-5.021818382665515">
        <ele>1220.05029296875</ele>
        <time>2011-04-16T14:07:26Z</time>
      </trkpt>
      <trkpt lat="35.038920789957047" lon="-5.021603889763355">
        <ele>1223.4150390625</ele>
        <time>2011-04-16T14:07:31Z</time>
      </trkpt>
      <trkpt lat="35.03860923461616" lon="-5.021501462906599">
        <ele>1225.33740234375</ele>
        <time>2011-04-16T14:07:34Z</time>
      </trkpt>
      <trkpt lat="35.037893587723374" lon="-5.021290993317962">
        <ele>1231.586181640625</ele>
        <time>2011-04-16T14:07:40Z</time>
      </trkpt>
      <trkpt lat="35.037566274404526" lon="-5.020833509042859">
        <ele>1235.912109375</ele>
        <time>2011-04-16T14:07:45Z</time>
      </trkpt>
      <trkpt lat="35.037379693239927" lon="-5.020389435812831">
        <ele>1238.796142578125</ele>
        <time>2011-04-16T14:07:48Z</time>
      </trkpt>
      <trkpt lat="35.037088254466653" lon="-5.019927090033889">
        <ele>1243.121826171875</ele>
        <time>2011-04-16T14:07:52Z</time>
      </trkpt>
      <trkpt lat="35.036691287532449" lon="-5.019440352916718">
        <ele>1248.4091796875</ele>
        <time>2011-04-16T14:07:57Z</time>
      </trkpt>
      <trkpt lat="35.036397501826286" lon="-5.019489303231239">
        <ele>1251.293212890625</ele>
        <time>2011-04-16T14:08:01Z</time>
      </trkpt>
      <trkpt lat="35.0362085737288" lon="-5.019599692896009">
        <ele>1253.2158203125</ele>
        <time>2011-04-16T14:08:03Z</time>
      </trkpt>
      <trkpt lat="35.03555528819561" lon="-5.019981740042567">
        <ele>1258.0224609375</ele>
        <time>2011-04-16T14:08:09Z</time>
      </trkpt>
      <trkpt lat="35.035035610198975" lon="-5.020202770829201">
        <ele>1260.906494140625</ele>
        <time>2011-04-16T14:08:13Z</time>
      </trkpt>
      <trkpt lat="35.033647734671831" lon="-5.020243842154741">
        <ele>1270.51953125</ele>
        <time>2011-04-16T14:08:21Z</time>
      </trkpt>
      <trkpt lat="35.032730000093579" lon="-5.020042089745402">
        <ele>1277.2490234375</ele>
        <time>2011-04-16T14:08:27Z</time>
      </trkpt>
      <trkpt lat="35.032274108380079" lon="-5.019840588793159">
        <ele>1281.09423828125</ele>
        <time>2011-04-16T14:08:31Z</time>
      </trkpt>
      <trkpt lat="35.031557623296976" lon="-5.019589886069298">
        <ele>1285.900634765625</ele>
        <time>2011-04-16T14:08:37Z</time>
      </trkpt>
      <trkpt lat="35.031200889497995" lon="-5.019649313762784">
        <ele>1288.78466796875</ele>
        <time>2011-04-16T14:08:40Z</time>
      </trkpt>
      <trkpt lat="35.030728066340089" lon="-5.019768085330725">
        <ele>1292.1494140625</ele>
        <time>2011-04-16T14:08:45Z</time>
      </trkpt>
      <trkpt lat="35.030645588412881" lon="-5.019869841635227">
        <ele>1292.630126953125</ele>
        <time>2011-04-16T14:08:46Z</time>
      </trkpt>
      <trkpt lat="35.030067740008235" lon="-5.020555816590786">
        <ele>1295.99462890625</ele>
        <time>2011-04-16T14:08:53Z</time>
      </trkpt>
      <trkpt lat="35.02998735755682" lon="-5.020615160465241">
        <ele>1296.955810546875</ele>
        <time>2011-04-16T14:08:54Z</time>
      </trkpt>
      <trkpt lat="35.029830113053322" lon="-5.02073141746223">
        <ele>1297.4365234375</ele>
        <time>2011-04-16T14:08:56Z</time>
      </trkpt>
      <trkpt lat="35.029454603791237" lon="-5.021009026095271">
        <ele>1299.359130859375</ele>
        <time>2011-04-16T14:09:00Z</time>
      </trkpt>
      <trkpt lat="35.029073562473059" lon="-5.021551502868533">
        <ele>1306.088134765625</ele>
        <time>2011-04-16T14:09:08Z</time>
      </trkpt>
      <trkpt lat="35.028980523347855" lon="-5.022016949951649">
        <ele>1309.93359375</ele>
        <time>2011-04-16T14:09:14Z</time>
      </trkpt>
      <trkpt lat="35.028819674625993" lon="-5.022600330412388">
        <ele>1313.29833984375</ele>
        <time>2011-04-16T14:09:21Z</time>
      </trkpt>
      <trkpt lat="35.02874918282032" lon="-5.022756149992347">
        <ele>1315.220947265625</ele>
        <time>2011-04-16T14:09:24Z</time>
      </trkpt>
      <trkpt lat="35.028536869212985" lon="-5.023225536569953">
        <ele>1319.546875</ele>
        <time>2011-04-16T14:09:30Z</time>
      </trkpt>
      <trkpt lat="35.028246017172933" lon="-5.023374231532216">
        <ele>1323.39208984375</ele>
        <time>2011-04-16T14:09:37Z</time>
      </trkpt>
      <trkpt lat="35.027868915349245" lon="-5.02344723790884">
        <ele>1325.314697265625</ele>
        <time>2011-04-16T14:09:42Z</time>
      </trkpt>
      <trkpt lat="35.027438336983323" lon="-5.023422092199326">
        <ele>1328.679443359375</ele>
        <time>2011-04-16T14:09:46Z</time>
      </trkpt>
      <trkpt lat="35.026673655956984" lon="-5.023355539888144">
        <ele>1333.005126953125</ele>
        <time>2011-04-16T14:09:52Z</time>
      </trkpt>
      <trkpt lat="35.026254979893565" lon="-5.023303991183639">
        <ele>1335.88916015625</ele>
        <time>2011-04-16T14:09:56Z</time>
      </trkpt>
      <trkpt lat="35.025696661323309" lon="-5.023162085562944">
        <ele>1340.69580078125</ele>
        <time>2011-04-16T14:10:02Z</time>
      </trkpt>
      <trkpt lat="35.025367923080921" lon="-5.023078517988324">
        <ele>1342.137939453125</ele>
        <time>2011-04-16T14:10:05Z</time>
      </trkpt>
      <trkpt lat="35.025184862315655" lon="-5.023031998425722">
        <ele>1343.579833984375</ele>
        <time>2011-04-16T14:10:07Z</time>
      </trkpt>
      <trkpt lat="35.024629980325699" lon="-5.022749695926905">
        <ele>1346.9443359375</ele>
        <time>2011-04-16T14:10:12Z</time>
      </trkpt>
      <trkpt lat="35.024292273446918" lon="-5.022557582706213">
        <ele>1349.34765625</ele>
        <time>2011-04-16T14:10:15Z</time>
      </trkpt>
      <trkpt lat="35.023872004821897" lon="-5.022321548312903">
        <ele>1352.2314453125</ele>
        <time>2011-04-16T14:10:19Z</time>
      </trkpt>
      <trkpt lat="35.023272363469005" lon="-5.021996414288878">
        <ele>1356.5576171875</ele>
        <time>2011-04-16T14:10:24Z</time>
      </trkpt>
      <trkpt lat="35.022513046860695" lon="-5.021545886993408">
        <ele>1362.80615234375</ele>
        <time>2011-04-16T14:10:30Z</time>
      </trkpt>
      <trkpt lat="35.021777870133519" lon="-5.020978432148695">
        <ele>1368.09326171875</ele>
        <time>2011-04-16T14:10:36Z</time>
      </trkpt>
      <trkpt lat="35.021561114117503" lon="-5.0207744166255">
        <ele>1370.49658203125</ele>
        <time>2011-04-16T14:10:38Z</time>
      </trkpt>
      <trkpt lat="35.021128859370947" lon="-5.020399494096637">
        <ele>1374.82275390625</ele>
        <time>2011-04-16T14:10:42Z</time>
      </trkpt>
      <trkpt lat="35.020498707890511" lon="-5.020109815523028">
        <ele>1380.590576171875</ele>
        <time>2011-04-16T14:10:48Z</time>
      </trkpt>
      <trkpt lat="35.020378343760967" lon="-5.020054411143065">
        <ele>1381.5517578125</ele>
        <time>2011-04-16T14:10:49Z</time>
      </trkpt>
      <trkpt lat="35.019369581714272" lon="-5.019936561584473">
        <ele>1388.761962890625</ele>
        <time>2011-04-16T14:10:56Z</time>
      </trkpt>
      <trkpt lat="35.01884856261313" lon="-5.019780825823546">
        <ele>1392.12646484375</ele>
        <time>2011-04-16T14:11:01Z</time>
      </trkpt>
      <trkpt lat="35.018371632322669" lon="-5.019500954076648">
        <ele>1395.01025390625</ele>
        <time>2011-04-16T14:11:06Z</time>
      </trkpt>
      <trkpt lat="35.018084971234202" lon="-5.019320156425238">
        <ele>1395.490966796875</ele>
        <time>2011-04-16T14:11:09Z</time>
      </trkpt>
      <trkpt lat="35.01788254827261" lon="-5.019141621887684">
        <ele>1395.01025390625</ele>
        <time>2011-04-16T14:11:11Z</time>
      </trkpt>
      <trkpt lat="35.017328169196844" lon="-5.018644323572516">
        <ele>1396.452392578125</ele>
        <time>2011-04-16T14:11:16Z</time>
      </trkpt>
      <trkpt lat="35.016795583069324" lon="-5.018111737444997">
        <ele>1397.894287109375</ele>
        <time>2011-04-16T14:11:21Z</time>
      </trkpt>
      <trkpt lat="35.015616333112121" lon="-5.016890410333872">
        <ele>1401.2587890625</ele>
        <time>2011-04-16T14:11:30Z</time>
      </trkpt>
      <trkpt lat="35.015580793842673" lon="-5.016740709543228">
        <ele>1402.219970703125</ele>
        <time>2011-04-16T14:11:31Z</time>
      </trkpt>
      <trkpt lat="35.015513487160206" lon="-5.016134865581989">
        <ele>1405.5849609375</ele>
        <time>2011-04-16T14:11:36Z</time>
      </trkpt>
      <trkpt lat="35.015809368342161" lon="-5.016017351299524">
        <ele>1407.02685546875</ele>
        <time>2011-04-16T14:11:40Z</time>
      </trkpt>
      <trkpt lat="35.016228212043643" lon="-5.015908218920231">
        <ele>1407.98828125</ele>
        <time>2011-04-16T14:11:43Z</time>
      </trkpt>
      <trkpt lat="35.01681050285697" lon="-5.015625581145287">
        <ele>1410.391357421875</ele>
        <time>2011-04-16T14:11:48Z</time>
      </trkpt>
      <trkpt lat="35.017284415662289" lon="-5.015293322503567">
        <ele>1412.794677734375</ele>
        <time>2011-04-16T14:11:53Z</time>
      </trkpt>
      <trkpt lat="35.01745842397213" lon="-5.015141107141972">
        <ele>1413.275390625</ele>
        <time>2011-04-16T14:11:55Z</time>
      </trkpt>
      <trkpt lat="35.018083211034536" lon="-5.014174254611135">
        <ele>1417.12060546875</ele>
        <time>2011-04-16T14:12:03Z</time>
      </trkpt>
      <trkpt lat="35.018346318975091" lon="-5.013050409033895">
        <ele>1417.12060546875</ele>
        <time>2011-04-16T14:12:11Z</time>
      </trkpt>
      <trkpt lat="35.018402393907309" lon="-5.01278487034142">
        <ele>1416.1591796875</ele>
        <time>2011-04-16T14:12:13Z</time>
      </trkpt>
      <trkpt lat="35.018434664234519" lon="-5.011936873197556">
        <ele>1414.236572265625</ele>
        <time>2011-04-16T14:12:19Z</time>
      </trkpt>
      <trkpt lat="35.018312791362405" lon="-5.011029364541173">
        <ele>1412.794677734375</ele>
        <time>2011-04-16T14:12:26Z</time>
      </trkpt>
      <trkpt lat="35.01833357848227" lon="-5.01018974930048">
        <ele>1410.8720703125</ele>
        <time>2011-04-16T14:12:33Z</time>
      </trkpt>
      <trkpt lat="35.018345480784774" lon="-5.009939381852746">
        <ele>1410.8720703125</ele>
        <time>2011-04-16T14:12:35Z</time>
      </trkpt>
      <trkpt lat="35.018267696723342" lon="-5.009432611986995">
        <ele>1409.91064453125</ele>
        <time>2011-04-16T14:12:40Z</time>
      </trkpt>
      <trkpt lat="35.017986400052905" lon="-5.00901946797967">
        <ele>1407.507568359375</ele>
        <time>2011-04-16T14:12:44Z</time>
      </trkpt>
      <trkpt lat="35.01724443398416" lon="-5.008070385083556">
        <ele>1403.181396484375</ele>
        <time>2011-04-16T14:12:52Z</time>
      </trkpt>
      <trkpt lat="35.016494672745466" lon="-5.007147202268243">
        <ele>1401.2587890625</ele>
        <time>2011-04-16T14:13:00Z</time>
      </trkpt>
      <trkpt lat="35.016168029978871" lon="-5.006696674972773">
        <ele>1402.219970703125</ele>
        <time>2011-04-16T14:13:05Z</time>
      </trkpt>
      <trkpt lat="35.016188649460673" lon="-5.006380006670952">
        <ele>1402.70068359375</ele>
        <time>2011-04-16T14:13:10Z</time>
      </trkpt>
      <trkpt lat="35.016259727999568" lon="-5.005798973143101">
        <ele>1402.219970703125</ele>
        <time>2011-04-16T14:13:15Z</time>
      </trkpt>
      <trkpt lat="35.016312031075358" lon="-5.005380716174841">
        <ele>1401.739501953125</ele>
        <time>2011-04-16T14:13:19Z</time>
      </trkpt>
      <trkpt lat="35.016451505944133" lon="-5.004900014027953">
        <ele>1400.778076171875</ele>
        <time>2011-04-16T14:13:23Z</time>
      </trkpt>
      <trkpt lat="35.016754427924752" lon="-5.003991331905127">
        <ele>1398.85546875</ele>
        <time>2011-04-16T14:13:31Z</time>
      </trkpt>
      <trkpt lat="35.016885604709387" lon="-5.003741886466742">
        <ele>1398.374755859375</ele>
        <time>2011-04-16T14:13:33Z</time>
      </trkpt>
      <trkpt lat="35.0173010956496" lon="-5.003381799906492">
        <ele>1399.336181640625</ele>
        <time>2011-04-16T14:13:38Z</time>
      </trkpt>
      <trkpt lat="35.017391704022884" lon="-5.003303345292807">
        <ele>1399.336181640625</ele>
        <time>2011-04-16T14:13:39Z</time>
      </trkpt>
      <trkpt lat="35.018212795257568" lon="-5.002834796905518">
        <ele>1401.739501953125</ele>
        <time>2011-04-16T14:13:48Z</time>
      </trkpt>
      <trkpt lat="35.018362244591117" lon="-5.002680402249098">
        <ele>1401.2587890625</ele>
        <time>2011-04-16T14:13:50Z</time>
      </trkpt>
      <trkpt lat="35.018830792978406" lon="-5.00219626352191">
        <ele>1399.81689453125</ele>
        <time>2011-04-16T14:13:56Z</time>
      </trkpt>
      <trkpt lat="35.019037239253521" lon="-5.001920415088534">
        <ele>1398.85546875</ele>
        <time>2011-04-16T14:13:59Z</time>
      </trkpt>
      <trkpt lat="35.019531520083547" lon="-5.001200912520289">
        <ele>1397.41357421875</ele>
        <time>2011-04-16T14:14:06Z</time>
      </trkpt>
      <trkpt lat="35.019587930291891" lon="-5.001082727685571">
        <ele>1396.932861328125</ele>
        <time>2011-04-16T14:14:07Z</time>
      </trkpt>
      <trkpt lat="35.020069302991033" lon="-5.000150911509991">
        <ele>1396.452392578125</ele>
        <time>2011-04-16T14:14:15Z</time>
      </trkpt>
      <trkpt lat="35.02078989520669" lon="-4.999054558575153">
        <ele>1396.452392578125</ele>
        <time>2011-04-16T14:14:24Z</time>
      </trkpt>
      <trkpt lat="35.021194824948907" lon="-4.99840596690774">
        <ele>1396.452392578125</ele>
        <time>2011-04-16T14:14:29Z</time>
      </trkpt>
      <trkpt lat="35.02131124958396" lon="-4.99781277962029">
        <ele>1395.490966796875</ele>
        <time>2011-04-16T14:14:33Z</time>
      </trkpt>
      <trkpt lat="35.021252660080791" lon="-4.996719527989626">
        <ele>1393.568359375</ele>
        <time>2011-04-16T14:14:41Z</time>
      </trkpt>
      <trkpt lat="35.021449970081449" lon="-4.995663659647107">
        <ele>1392.607177734375</ele>
        <time>2011-04-16T14:14:48Z</time>
      </trkpt>
      <trkpt lat="35.021840482950211" lon="-4.994566971436143">
        <ele>1392.12646484375</ele>
        <time>2011-04-16T14:14:56Z</time>
      </trkpt>
      <trkpt lat="35.021970486268401" lon="-4.994355998933315">
        <ele>1391.1650390625</ele>
        <time>2011-04-16T14:14:58Z</time>
      </trkpt>
      <trkpt lat="35.022190846502781" lon="-4.993468774482608">
        <ele>1389.242431640625</ele>
        <time>2011-04-16T14:15:04Z</time>
      </trkpt>
      <trkpt lat="35.022169472649693" lon="-4.993117656558752">
        <ele>1388.28125</ele>
        <time>2011-04-16T14:15:06Z</time>
      </trkpt>
      <trkpt lat="35.021911226212978" lon="-4.991001645103097">
        <ele>1382.032470703125</ele>
        <time>2011-04-16T14:15:20Z</time>
      </trkpt>
      <trkpt lat="35.021565221250057" lon="-4.99066025018692">
        <ele>1379.629150390625</ele>
        <time>2011-04-16T14:15:25Z</time>
      </trkpt>
      <trkpt lat="35.021111844107509" lon="-4.990196144208312">
        <ele>1376.2646484375</ele>
        <time>2011-04-16T14:15:31Z</time>
      </trkpt>
      <trkpt lat="35.02110849134624" lon="-4.989464739337564">
        <ele>1373.861328125</ele>
        <time>2011-04-16T14:15:36Z</time>
      </trkpt>
      <trkpt lat="35.021185437217355" lon="-4.989186879247427">
        <ele>1372.41943359375</ele>
        <time>2011-04-16T14:15:38Z</time>
      </trkpt>
      <trkpt lat="35.021431278437376" lon="-4.988542646169663">
        <ele>1369.535400390625</ele>
        <time>2011-04-16T14:15:43Z</time>
      </trkpt>
      <trkpt lat="35.021382495760918" lon="-4.987881733104587">
        <ele>1366.170654296875</ele>
        <time>2011-04-16T14:15:48Z</time>
      </trkpt>
      <trkpt lat="35.021319044753909" lon="-4.987761871889234">
        <ele>1365.20947265625</ele>
        <time>2011-04-16T14:15:49Z</time>
      </trkpt>
      <trkpt lat="35.020957784727216" lon="-4.986881772056222">
        <ele>1360.40283203125</ele>
        <time>2011-04-16T14:15:56Z</time>
      </trkpt>
      <trkpt lat="35.020530140027404" lon="-4.986388245597482">
        <ele>1356.076904296875</ele>
        <time>2011-04-16T14:16:01Z</time>
      </trkpt>
      <trkpt lat="35.019497741013765" lon="-4.985832273960114">
        <ele>1349.828369140625</ele>
        <time>2011-04-16T14:16:07Z</time>
      </trkpt>
      <trkpt lat="35.018247999250889" lon="-4.98514361679554">
        <ele>1340.69580078125</ele>
        <time>2011-04-16T14:16:14Z</time>
      </trkpt>
      <trkpt lat="35.018111877143383" lon="-4.985059043392539">
        <ele>1339.734375</ele>
        <time>2011-04-16T14:16:15Z</time>
      </trkpt>
      <trkpt lat="35.017674760892987" lon="-4.984457222744823">
        <ele>1335.408447265625</ele>
        <time>2011-04-16T14:16:20Z</time>
      </trkpt>
      <trkpt lat="35.017516845837235" lon="-4.983851881697774">
        <ele>1332.524658203125</ele>
        <time>2011-04-16T14:16:24Z</time>
      </trkpt>
      <trkpt lat="35.017112335190177" lon="-4.983509816229343">
        <ele>1328.679443359375</ele>
        <time>2011-04-16T14:16:29Z</time>
      </trkpt>
      <trkpt lat="35.016576731577516" lon="-4.983188537880778">
        <ele>1323.39208984375</ele>
        <time>2011-04-16T14:16:34Z</time>
      </trkpt>
      <trkpt lat="35.015960577875376" lon="-4.982593674212694">
        <ele>1319.066162109375</ele>
        <time>2011-04-16T14:16:41Z</time>
      </trkpt>
      <trkpt lat="35.015686741098762" lon="-4.982060333713889">
        <ele>1316.18212890625</ele>
        <time>2011-04-16T14:16:48Z</time>
      </trkpt>
      <trkpt lat="35.015639718621969" lon="-4.981954470276833">
        <ele>1315.220947265625</ele>
        <time>2011-04-16T14:16:56Z</time>
      </trkpt>
      <trkpt lat="35.01556403003633" lon="-4.981752717867494">
        <ele>1313.77880859375</ele>
        <time>2011-04-16T14:17:08Z</time>
      </trkpt>
      <trkpt lat="35.015435870736837" lon="-4.981372430920601">
        <ele>1317.1435546875</ele>
        <time>2011-04-16T14:17:30Z</time>
      </trkpt>
      <trkpt lat="35.015349285677075" lon="-4.98103623278439">
        <ele>1316.18212890625</ele>
        <time>2011-04-16T14:17:38Z</time>
      </trkpt>
      <trkpt lat="35.015411898493767" lon="-4.980705063790083">
        <ele>1314.259521484375</ele>
        <time>2011-04-16T14:17:44Z</time>
      </trkpt>
      <trkpt lat="35.015601497143507" lon="-4.980355370789766">
        <ele>1311.8564453125</ele>
        <time>2011-04-16T14:17:49Z</time>
      </trkpt>
      <trkpt lat="35.01613768748939" lon="-4.979836866259575">
        <ele>1308.01123046875</ele>
        <time>2011-04-16T14:17:58Z</time>
      </trkpt>
      <trkpt lat="35.016202479600906" lon="-4.979735193774104">
        <ele>1306.088134765625</ele>
        <time>2011-04-16T14:18:01Z</time>
      </trkpt>
      <trkpt lat="35.016153864562511" lon="-4.97945892624557">
        <ele>1304.646240234375</ele>
        <time>2011-04-16T14:18:05Z</time>
      </trkpt>
      <trkpt lat="35.015861671417952" lon="-4.978801952674985">
        <ele>1298.87841796875</ele>
        <time>2011-04-16T14:18:11Z</time>
      </trkpt>
      <trkpt lat="35.015759076923132" lon="-4.978281352669001">
        <ele>1295.513916015625</ele>
        <time>2011-04-16T14:18:15Z</time>
      </trkpt>
      <trkpt lat="35.015587164089084" lon="-4.977684477344155">
        <ele>1292.630126953125</ele>
        <time>2011-04-16T14:18:20Z</time>
      </trkpt>
      <trkpt lat="35.015344843268394" lon="-4.977322295308113">
        <ele>1289.26513671875</ele>
        <time>2011-04-16T14:18:24Z</time>
      </trkpt>
      <trkpt lat="35.015175277367234" lon="-4.976844862103462">
        <ele>1285.900634765625</ele>
        <time>2011-04-16T14:18:29Z</time>
      </trkpt>
      <trkpt lat="35.015255073085427" lon="-4.976334571838379">
        <ele>1280.1328125</ele>
        <time>2011-04-16T14:18:37Z</time>
      </trkpt>
      <trkpt lat="35.015292624011636" lon="-4.976054280996323">
        <ele>1277.7294921875</ele>
        <time>2011-04-16T14:18:40Z</time>
      </trkpt>
      <trkpt lat="35.015519270673394" lon="-4.975657146424055">
        <ele>1272.9228515625</ele>
        <time>2011-04-16T14:18:45Z</time>
      </trkpt>
      <trkpt lat="35.015658577904105" lon="-4.975521946325898">
        <ele>1271.480712890625</ele>
        <time>2011-04-16T14:18:47Z</time>
      </trkpt>
      <trkpt lat="35.015984466299415" lon="-4.974830271676183">
        <ele>1265.713134765625</ele>
        <time>2011-04-16T14:18:55Z</time>
      </trkpt>
      <trkpt lat="35.016120672225952" lon="-4.974486697465181">
        <ele>1263.309814453125</ele>
        <time>2011-04-16T14:19:01Z</time>
      </trkpt>
      <trkpt lat="35.016098544001579" lon="-4.974225349724293">
        <ele>1262.348388671875</ele>
        <time>2011-04-16T14:19:06Z</time>
      </trkpt>
      <trkpt lat="35.015853540971875" lon="-4.973884541541338">
        <ele>1258.983642578125</ele>
        <time>2011-04-16T14:19:11Z</time>
      </trkpt>
      <trkpt lat="35.015705265104771" lon="-4.973467290401459">
        <ele>1255.619140625</ele>
        <time>2011-04-16T14:19:15Z</time>
      </trkpt>
      <trkpt lat="35.015625050291419" lon="-4.972660196945071">
        <ele>1249.851318359375</ele>
        <time>2011-04-16T14:19:21Z</time>
      </trkpt>
      <trkpt lat="35.015422124415636" lon="-4.971446162089706">
        <ele>1246.48681640625</ele>
        <time>2011-04-16T14:19:28Z</time>
      </trkpt>
      <trkpt lat="35.015137391164899" lon="-4.970802683383226">
        <ele>1243.121826171875</ele>
        <time>2011-04-16T14:19:32Z</time>
      </trkpt>
      <trkpt lat="35.014752745628357" lon="-4.970383588224649">
        <ele>1240.238037109375</ele>
        <time>2011-04-16T14:19:36Z</time>
      </trkpt>
      <trkpt lat="35.014410763978958" lon="-4.969830131158233">
        <ele>1237.35400390625</ele>
        <time>2011-04-16T14:19:41Z</time>
      </trkpt>
      <trkpt lat="35.014275228604674" lon="-4.969348339363933">
        <ele>1235.912109375</ele>
        <time>2011-04-16T14:19:45Z</time>
      </trkpt>
      <trkpt lat="35.014357371255755" lon="-4.968841234222055">
        <ele>1232.06689453125</ele>
        <time>2011-04-16T14:19:50Z</time>
      </trkpt>
      <trkpt lat="35.014848299324512" lon="-4.967866083607078">
        <ele>1224.376220703125</ele>
        <time>2011-04-16T14:19:58Z</time>
      </trkpt>
      <trkpt lat="35.014957180246711" lon="-4.967256635427475">
        <ele>1220.05029296875</ele>
        <time>2011-04-16T14:20:02Z</time>
      </trkpt>
      <trkpt lat="35.014950977638364" lon="-4.966148631647229">
        <ele>1213.3212890625</ele>
        <time>2011-04-16T14:20:11Z</time>
      </trkpt>
      <trkpt lat="35.014949049800634" lon="-4.965692739933729">
        <ele>1209.956298828125</ele>
        <time>2011-04-16T14:20:18Z</time>
      </trkpt>
      <trkpt lat="35.014964556321502" lon="-4.965418819338083">
        <ele>1207.55322265625</ele>
        <time>2011-04-16T14:20:26Z</time>
      </trkpt>
      <trkpt lat="35.015023732557893" lon="-4.965178677812219">
        <ele>1205.14990234375</ele>
        <time>2011-04-16T14:20:34Z</time>
      </trkpt>
      <trkpt lat="35.014956593513489" lon="-4.964965358376503">
        <ele>1206.591796875</ele>
        <time>2011-04-16T14:20:38Z</time>
      </trkpt>
      <trkpt lat="35.014870427548885" lon="-4.964857064187527">
        <ele>1204.669189453125</ele>
        <time>2011-04-16T14:20:40Z</time>
      </trkpt>
      <trkpt lat="35.014750482514501" lon="-4.964607786387205">
        <ele>1201.3046875</ele>
        <time>2011-04-16T14:20:43Z</time>
      </trkpt>
      <trkpt lat="35.014407075941563" lon="-4.964236719533801">
        <ele>1197.45947265625</ele>
        <time>2011-04-16T14:20:48Z</time>
      </trkpt>
      <trkpt lat="35.014175651594996" lon="-4.963820138946176">
        <ele>1195.055908203125</ele>
        <time>2011-04-16T14:20:52Z</time>
      </trkpt>
      <trkpt lat="35.013718418776989" lon="-4.962652372196317">
        <ele>1188.8076171875</ele>
        <time>2011-04-16T14:21:01Z</time>
      </trkpt>
      <trkpt lat="35.013500321656466" lon="-4.962193546816707">
        <ele>1186.884765625</ele>
        <time>2011-04-16T14:21:06Z</time>
      </trkpt>
      <trkpt lat="35.013191867619753" lon="-4.961814433336258">
        <ele>1184.481689453125</ele>
        <time>2011-04-16T14:21:11Z</time>
      </trkpt>
      <trkpt lat="35.012981062754989" lon="-4.961182689294219">
        <ele>1182.55908203125</ele>
        <time>2011-04-16T14:21:17Z</time>
      </trkpt>
      <trkpt lat="35.012850472703576" lon="-4.960543233901262">
        <ele>1183.520263671875</ele>
        <time>2011-04-16T14:21:25Z</time>
      </trkpt>
      <trkpt lat="35.01264494843781" lon="-4.959895983338356">
        <ele>1183.520263671875</ele>
        <time>2011-04-16T14:21:32Z</time>
      </trkpt>
      <trkpt lat="35.012652324512601" lon="-4.959348561242223">
        <ele>1182.078369140625</ele>
        <time>2011-04-16T14:21:37Z</time>
      </trkpt>
      <trkpt lat="35.012841252610087" lon="-4.958508778363466">
        <ele>1179.194091796875</ele>
        <time>2011-04-16T14:21:45Z</time>
      </trkpt>
      <trkpt lat="35.013010064139962" lon="-4.957767650485039">
        <ele>1177.752197265625</ele>
        <time>2011-04-16T14:21:55Z</time>
      </trkpt>
      <trkpt lat="35.013154232874513" lon="-4.957135068252683">
        <ele>1174.868408203125</ele>
        <time>2011-04-16T14:22:06Z</time>
      </trkpt>
      <trkpt lat="35.013221371918917" lon="-4.956898782402277">
        <ele>1171.503662109375</ele>
        <time>2011-04-16T14:22:11Z</time>
      </trkpt>
      <trkpt lat="35.013168230652809" lon="-4.95633551850915">
        <ele>1173.426513671875</ele>
        <time>2011-04-16T14:22:17Z</time>
      </trkpt>
      <trkpt lat="35.012779561802745" lon="-4.955367743968964">
        <ele>1177.271728515625</ele>
        <time>2011-04-16T14:22:30Z</time>
      </trkpt>
      <trkpt lat="35.012561129406095" lon="-4.954767348244786">
        <ele>1182.55908203125</ele>
        <time>2011-04-16T14:22:41Z</time>
      </trkpt>
      <trkpt lat="35.012452583760023" lon="-4.954449674114585">
        <ele>1184.96240234375</ele>
        <time>2011-04-16T14:22:47Z</time>
      </trkpt>
      <trkpt lat="35.012323167175055" lon="-4.953772583976388">
        <ele>1194.5751953125</ele>
        <time>2011-04-16T14:23:00Z</time>
      </trkpt>
      <trkpt lat="35.012302380055189" lon="-4.952982757240534">
        <ele>1198.420654296875</ele>
        <time>2011-04-16T14:23:15Z</time>
      </trkpt>
      <trkpt lat="35.012251082807779" lon="-4.952302649617195">
        <ele>1196.498291015625</ele>
        <time>2011-04-16T14:23:27Z</time>
      </trkpt>
      <trkpt lat="35.012048576027155" lon="-4.951508967205882">
        <ele>1200.343505859375</ele>
        <time>2011-04-16T14:23:37Z</time>
      </trkpt>
      <trkpt lat="35.011903066188097" lon="-4.950531553477049">
        <ele>1197.45947265625</ele>
        <time>2011-04-16T14:23:48Z</time>
      </trkpt>
      <trkpt lat="35.011887643486261" lon="-4.950163085013628">
        <ele>1193.614013671875</ele>
        <time>2011-04-16T14:23:52Z</time>
      </trkpt>
      <trkpt lat="35.011577932164073" lon="-4.949422460049391">
        <ele>1189.768798828125</ele>
        <time>2011-04-16T14:24:00Z</time>
      </trkpt>
      <trkpt lat="35.011354386806488" lon="-4.948831368237734">
        <ele>1188.8076171875</ele>
        <time>2011-04-16T14:24:07Z</time>
      </trkpt>
      <trkpt lat="35.011006118729711" lon="-4.948434820398688">
        <ele>1186.404296875</ele>
        <time>2011-04-16T14:24:13Z</time>
      </trkpt>
      <trkpt lat="35.0105922203511" lon="-4.948471616953611">
        <ele>1188.326904296875</ele>
        <time>2011-04-16T14:24:18Z</time>
      </trkpt>
      <trkpt lat="35.010345038026571" lon="-4.948587790131569">
        <ele>1190.24951171875</ele>
        <time>2011-04-16T14:24:21Z</time>
      </trkpt>
      <trkpt lat="35.009503327310085" lon="-4.948629783466458">
        <ele>1192.172119140625</ele>
        <time>2011-04-16T14:24:30Z</time>
      </trkpt>
      <trkpt lat="35.009307945147157" lon="-4.948640093207359">
        <ele>1193.13330078125</ele>
        <time>2011-04-16T14:24:32Z</time>
      </trkpt>
      <trkpt lat="35.008820537477732" lon="-4.948453260585666">
        <ele>1195.055908203125</ele>
        <time>2011-04-16T14:24:37Z</time>
      </trkpt>
      <trkpt lat="35.008050156757236" lon="-4.947825456038117">
        <ele>1198.9013671875</ele>
        <time>2011-04-16T14:24:46Z</time>
      </trkpt>
      <trkpt lat="35.007817558944225" lon="-4.947226736694574">
        <ele>1200.823974609375</ele>
        <time>2011-04-16T14:24:52Z</time>
      </trkpt>
      <trkpt lat="35.007962565869093" lon="-4.946738826110959">
        <ele>1201.3046875</ele>
        <time>2011-04-16T14:24:57Z</time>
      </trkpt>
      <trkpt lat="35.008032135665417" lon="-4.946662466973066">
        <ele>1201.3046875</ele>
        <time>2011-04-16T14:24:58Z</time>
      </trkpt>
      <trkpt lat="35.008313683792949" lon="-4.946377146989107">
        <ele>1201.3046875</ele>
        <time>2011-04-16T14:25:02Z</time>
      </trkpt>
      <trkpt lat="35.008496325463057" lon="-4.945889571681619">
        <ele>1202.265869140625</ele>
        <time>2011-04-16T14:25:07Z</time>
      </trkpt>
      <trkpt lat="35.008529098704457" lon="-4.945281380787492">
        <ele>1203.227294921875</ele>
        <time>2011-04-16T14:25:13Z</time>
      </trkpt>
      <trkpt lat="35.008328519761562" lon="-4.944757260382175">
        <ele>1204.669189453125</ele>
        <time>2011-04-16T14:25:19Z</time>
      </trkpt>
      <trkpt lat="35.008187955245376" lon="-4.944564644247294">
        <ele>1205.14990234375</ele>
        <time>2011-04-16T14:25:22Z</time>
      </trkpt>
      <trkpt lat="35.008128276094794" lon="-4.944182094186544">
        <ele>1205.630615234375</ele>
        <time>2011-04-16T14:25:27Z</time>
      </trkpt>
      <trkpt lat="35.008206395432353" lon="-4.943681359291077">
        <ele>1205.630615234375</ele>
        <time>2011-04-16T14:25:33Z</time>
      </trkpt>
      <trkpt lat="35.008076224476099" lon="-4.943126393482089">
        <ele>1211.3984375</ele>
        <time>2011-04-16T14:25:39Z</time>
      </trkpt>
      <trkpt lat="35.007823426276445" lon="-4.942657258361578">
        <ele>1214.76318359375</ele>
        <time>2011-04-16T14:25:43Z</time>
      </trkpt>
      <trkpt lat="35.00718992203474" lon="-4.941971618682146">
        <ele>1224.376220703125</ele>
        <time>2011-04-16T14:25:49Z</time>
      </trkpt>
      <trkpt lat="35.0067222956568" lon="-4.94185796007514">
        <ele>1229.182861328125</ele>
        <time>2011-04-16T14:25:53Z</time>
      </trkpt>
      <trkpt lat="35.006153248250484" lon="-4.941705577075481">
        <ele>1233.5087890625</ele>
        <time>2011-04-16T14:25:59Z</time>
      </trkpt>
      <trkpt lat="35.00608803704381" lon="-4.941593427211046">
        <ele>1233.5087890625</ele>
        <time>2011-04-16T14:26:00Z</time>
      </trkpt>
      <trkpt lat="35.005691656842828" lon="-4.940936286002398">
        <ele>1233.989501953125</ele>
        <time>2011-04-16T14:26:05Z</time>
      </trkpt>
      <trkpt lat="35.005487725138664" lon="-4.940366484224796">
        <ele>1235.431396484375</ele>
        <time>2011-04-16T14:26:10Z</time>
      </trkpt>
      <trkpt lat="35.005496693775058" lon="-4.940009834244847">
        <ele>1239.276611328125</ele>
        <time>2011-04-16T14:26:13Z</time>
      </trkpt>
      <trkpt lat="35.005564587190747" lon="-4.939667517319322">
        <ele>1240.238037109375</ele>
        <time>2011-04-16T14:26:16Z</time>
      </trkpt>
      <trkpt lat="35.005484875291586" lon="-4.939191592857242">
        <ele>1240.238037109375</ele>
        <time>2011-04-16T14:26:20Z</time>
      </trkpt>
      <trkpt lat="35.005347160622478" lon="-4.938992438837886">
        <ele>1241.19921875</ele>
        <time>2011-04-16T14:26:22Z</time>
      </trkpt>
      <trkpt lat="35.005292678251863" lon="-4.938416853547096">
        <ele>1241.679931640625</ele>
        <time>2011-04-16T14:26:27Z</time>
      </trkpt>
      <trkpt lat="35.005339197814465" lon="-4.938289867714047">
        <ele>1242.16064453125</ele>
        <time>2011-04-16T14:26:28Z</time>
      </trkpt>
      <trkpt lat="35.005441540852189" lon="-4.938033046200872">
        <ele>1242.641357421875</ele>
        <time>2011-04-16T14:26:30Z</time>
      </trkpt>
      <trkpt lat="35.005498370155692" lon="-4.937464920803905">
        <ele>1244.08349609375</ele>
        <time>2011-04-16T14:26:34Z</time>
      </trkpt>
      <trkpt lat="35.005458053201437" lon="-4.937179181724787">
        <ele>1245.525390625</ele>
        <time>2011-04-16T14:26:36Z</time>
      </trkpt>
      <trkpt lat="35.00523735769093" lon="-4.936715327203274">
        <ele>1250.8125</ele>
        <time>2011-04-16T14:26:40Z</time>
      </trkpt>
      <trkpt lat="35.005108863115311" lon="-4.936188524588943">
        <ele>1257.06103515625</ele>
        <time>2011-04-16T14:26:45Z</time>
      </trkpt>
      <trkpt lat="35.005166027694941" lon="-4.935952238738537">
        <ele>1258.0224609375</ele>
        <time>2011-04-16T14:26:47Z</time>
      </trkpt>
      <trkpt lat="35.005288319662213" lon="-4.935555858537555">
        <ele>1258.983642578125</ele>
        <time>2011-04-16T14:26:50Z</time>
      </trkpt>
      <trkpt lat="35.005221934989095" lon="-4.934717332944274">
        <ele>1264.27099609375</ele>
        <time>2011-04-16T14:26:56Z</time>
      </trkpt>
      <trkpt lat="35.005148844793439" lon="-4.934605350717902">
        <ele>1264.751708984375</ele>
        <time>2011-04-16T14:26:57Z</time>
      </trkpt>
      <trkpt lat="35.004920186474919" lon="-4.934306954964995">
        <ele>1269.07763671875</ele>
        <time>2011-04-16T14:27:00Z</time>
      </trkpt>
      <trkpt lat="35.004743663594127" lon="-4.933509165421128">
        <ele>1276.28759765625</ele>
        <time>2011-04-16T14:27:06Z</time>
      </trkpt>
      <trkpt lat="35.00473796389997" lon="-4.933362398296595">
        <ele>1277.2490234375</ele>
        <time>2011-04-16T14:27:07Z</time>
      </trkpt>
      <trkpt lat="35.00483619980514" lon="-4.932589586824179">
        <ele>1279.17138671875</ele>
        <time>2011-04-16T14:27:13Z</time>
      </trkpt>
      <trkpt lat="35.004572253674269" lon="-4.932023389264941">
        <ele>1281.57470703125</ele>
        <time>2011-04-16T14:27:18Z</time>
      </trkpt>
      <trkpt lat="35.004090378060937" lon="-4.931887267157435">
        <ele>1284.458740234375</ele>
        <time>2011-04-16T14:27:22Z</time>
      </trkpt>
      <trkpt lat="35.003855852410197" lon="-4.93169205263257">
        <ele>1285.419921875</ele>
        <time>2011-04-16T14:27:24Z</time>
      </trkpt>
      <trkpt lat="35.002887155860662" lon="-4.930905494838953">
        <ele>1288.303955078125</ele>
        <time>2011-04-16T14:27:31Z</time>
      </trkpt>
      <trkpt lat="35.002753548324108" lon="-4.930827626958489">
        <ele>1288.303955078125</ele>
        <time>2011-04-16T14:27:32Z</time>
      </trkpt>
      <trkpt lat="35.002121971920133" lon="-4.930709358304739">
        <ele>1288.78466796875</ele>
        <time>2011-04-16T14:27:37Z</time>
      </trkpt>
      <trkpt lat="35.001688459888101" lon="-4.930374333634973">
        <ele>1288.78466796875</ele>
        <time>2011-04-16T14:27:41Z</time>
      </trkpt>
      <trkpt lat="35.001134583726525" lon="-4.929646952077746">
        <ele>1290.70703125</ele>
        <time>2011-04-16T14:27:46Z</time>
      </trkpt>
      <trkpt lat="35.000915145501494" lon="-4.929203968495131">
        <ele>1292.1494140625</ele>
        <time>2011-04-16T14:27:49Z</time>
      </trkpt>
      <trkpt lat="35.000448860228062" lon="-4.928688732907176">
        <ele>1295.513916015625</ele>
        <time>2011-04-16T14:27:54Z</time>
      </trkpt>
      <trkpt lat="35.000266553834081" lon="-4.92814508266747">
        <ele>1296.475341796875</ele>
        <time>2011-04-16T14:27:59Z</time>
      </trkpt>
      <trkpt lat="35.000302596017718" lon="-4.928005523979664">
        <ele>1295.513916015625</ele>
        <time>2011-04-16T14:28:00Z</time>
      </trkpt>
      <trkpt lat="35.000191954895854" lon="-4.927274873480201">
        <ele>1290.70703125</ele>
        <time>2011-04-16T14:28:06Z</time>
      </trkpt>
      <trkpt lat="35.000099670141935" lon="-4.927159287035465">
        <ele>1291.187744140625</ele>
        <time>2011-04-16T14:28:07Z</time>
      </trkpt>
      <trkpt lat="34.999910071492195" lon="-4.926894921809435">
        <ele>1293.59130859375</ele>
        <time>2011-04-16T14:28:09Z</time>
      </trkpt>
      <trkpt lat="34.999675462022424" lon="-4.926246916875243">
        <ele>1293.110595703125</ele>
        <time>2011-04-16T14:28:14Z</time>
      </trkpt>
      <trkpt lat="34.99964646063745" lon="-4.92429519072175">
        <ele>1282.5361328125</ele>
        <time>2011-04-16T14:28:24Z</time>
      </trkpt>
      <trkpt lat="34.9992985278368" lon="-4.922462152317166">
        <ele>1284.458740234375</ele>
        <time>2011-04-16T14:28:33Z</time>
      </trkpt>
      <trkpt lat="34.998997952789068" lon="-4.921382144093514">
        <ele>1284.939453125</ele>
        <time>2011-04-16T14:28:39Z</time>
      </trkpt>
      <trkpt lat="34.99895017594099" lon="-4.920324850827456">
        <ele>1279.17138671875</ele>
        <time>2011-04-16T14:28:45Z</time>
      </trkpt>
      <trkpt lat="34.998671058565378" lon="-4.919625716283917">
        <ele>1272.442138671875</ele>
        <time>2011-04-16T14:28:50Z</time>
      </trkpt>
      <trkpt lat="34.997831946238875" lon="-4.91878098808229">
        <ele>1264.751708984375</ele>
        <time>2011-04-16T14:28:57Z</time>
      </trkpt>
      <trkpt lat="34.997435230761766" lon="-4.917933996766806">
        <ele>1260.42578125</ele>
        <time>2011-04-16T14:29:03Z</time>
      </trkpt>
      <trkpt lat="34.997497592121363" lon="-4.91748028434813">
        <ele>1257.06103515625</ele>
        <time>2011-04-16T14:29:07Z</time>
      </trkpt>
      <trkpt lat="34.997645197436213" lon="-4.917299570515752">
        <ele>1255.138427734375</ele>
        <time>2011-04-16T14:29:09Z</time>
      </trkpt>
      <trkpt lat="34.997817277908325" lon="-4.917122963815928">
        <ele>1252.25439453125</ele>
        <time>2011-04-16T14:29:11Z</time>
      </trkpt>
      <trkpt lat="34.998007882386446" lon="-4.916581325232983">
        <ele>1250.33203125</ele>
        <time>2011-04-16T14:29:16Z</time>
      </trkpt>
      <trkpt lat="34.997955076396465" lon="-4.916331795975566">
        <ele>1251.293212890625</ele>
        <time>2011-04-16T14:29:18Z</time>
      </trkpt>
      <trkpt lat="34.997635390609503" lon="-4.915598966181278">
        <ele>1249.37060546875</ele>
        <time>2011-04-16T14:29:25Z</time>
      </trkpt>
      <trkpt lat="34.997538747265935" lon="-4.914781060069799">
        <ele>1249.37060546875</ele>
        <time>2011-04-16T14:29:31Z</time>
      </trkpt>
      <trkpt lat="34.997488539665937" lon="-4.914017971605063">
        <ele>1246.006103515625</ele>
        <time>2011-04-16T14:29:35Z</time>
      </trkpt>
      <trkpt lat="34.997159382328391" lon="-4.91324532777071">
        <ele>1244.56396484375</ele>
        <time>2011-04-16T14:29:40Z</time>
      </trkpt>
      <trkpt lat="34.996923180297017" lon="-4.913076683878899">
        <ele>1245.525390625</ele>
        <time>2011-04-16T14:29:42Z</time>
      </trkpt>
      <trkpt lat="34.996402245014906" lon="-4.912574188783765">
        <ele>1245.525390625</ele>
        <time>2011-04-16T14:29:48Z</time>
      </trkpt>
      <trkpt lat="34.996447674930096" lon="-4.912090552970767">
        <ele>1243.6025390625</ele>
        <time>2011-04-16T14:29:52Z</time>
      </trkpt>
      <trkpt lat="34.996595783159137" lon="-4.911843538284302">
        <ele>1242.641357421875</ele>
        <time>2011-04-16T14:29:54Z</time>
      </trkpt>
      <trkpt lat="34.996885964646935" lon="-4.911477416753769">
        <ele>1240.238037109375</ele>
        <time>2011-04-16T14:29:57Z</time>
      </trkpt>
      <trkpt lat="34.997111773118377" lon="-4.910735534504056">
        <ele>1236.873291015625</ele>
        <time>2011-04-16T14:30:02Z</time>
      </trkpt>
      <trkpt lat="34.997115796431899" lon="-4.910066490992904">
        <ele>1234.950927734375</ele>
        <time>2011-04-16T14:30:06Z</time>
      </trkpt>
      <trkpt lat="34.997380748391151" lon="-4.909259229898453">
        <ele>1236.873291015625</ele>
        <time>2011-04-16T14:30:11Z</time>
      </trkpt>
      <trkpt lat="34.997691549360752" lon="-4.908678699284792">
        <ele>1238.796142578125</ele>
        <time>2011-04-16T14:30:15Z</time>
      </trkpt>
      <trkpt lat="34.997855834662914" lon="-4.907770436257124">
        <ele>1238.796142578125</ele>
        <time>2011-04-16T14:30:21Z</time>
      </trkpt>
      <trkpt lat="34.997622147202492" lon="-4.907249333336949">
        <ele>1238.796142578125</ele>
        <time>2011-04-16T14:30:25Z</time>
      </trkpt>
      <trkpt lat="34.997500274330378" lon="-4.9071379378438">
        <ele>1239.276611328125</ele>
        <time>2011-04-16T14:30:26Z</time>
      </trkpt>
      <trkpt lat="34.997000964358449" lon="-4.906722363084555">
        <ele>1240.238037109375</ele>
        <time>2011-04-16T14:30:30Z</time>
      </trkpt>
      <trkpt lat="34.996603075414896" lon="-4.90608299151063">
        <ele>1238.796142578125</ele>
        <time>2011-04-16T14:30:35Z</time>
      </trkpt>
      <trkpt lat="34.99662377871573" lon="-4.905475554987788">
        <ele>1235.912109375</ele>
        <time>2011-04-16T14:30:39Z</time>
      </trkpt>
      <trkpt lat="34.996753698214889" lon="-4.905151762068272">
        <ele>1234.950927734375</ele>
        <time>2011-04-16T14:30:41Z</time>
      </trkpt>
      <trkpt lat="34.996886299923062" lon="-4.904840793460608">
        <ele>1233.989501953125</ele>
        <time>2011-04-16T14:30:43Z</time>
      </trkpt>
      <trkpt lat="34.997059721499681" lon="-4.90395407192409">
        <ele>1230.144287109375</ele>
        <time>2011-04-16T14:30:48Z</time>
      </trkpt>
      <trkpt lat="34.996900716796517" lon="-4.90276426076889">
        <ele>1228.702392578125</ele>
        <time>2011-04-16T14:30:54Z</time>
      </trkpt>
      <trkpt lat="34.996641464531422" lon="-4.90083365701139">
        <ele>1231.586181640625</ele>
        <time>2011-04-16T14:31:03Z</time>
      </trkpt>
      <trkpt lat="34.996610954403877" lon="-4.899473190307617">
        <ele>1231.586181640625</ele>
        <time>2011-04-16T14:31:10Z</time>
      </trkpt>
      <trkpt lat="34.996708016842604" lon="-4.898791741579771">
        <ele>1232.547607421875</ele>
        <time>2011-04-16T14:31:14Z</time>
      </trkpt>
      <trkpt lat="34.996657893061638" lon="-4.898035861551762">
        <ele>1233.989501953125</ele>
        <time>2011-04-16T14:31:19Z</time>
      </trkpt>
      <trkpt lat="34.996545659378171" lon="-4.89749195985496">
        <ele>1235.431396484375</ele>
        <time>2011-04-16T14:31:23Z</time>
      </trkpt>
      <trkpt lat="34.996583964675665" lon="-4.896871196106076">
        <ele>1231.586181640625</ele>
        <time>2011-04-16T14:31:30Z</time>
      </trkpt>
      <trkpt lat="34.996713297441602" lon="-4.896032754331827">
        <ele>1223.8955078125</ele>
        <time>2011-04-16T14:31:41Z</time>
      </trkpt>
      <trkpt lat="34.996933238580823" lon="-4.89505416713655">
        <ele>1221.01171875</ele>
        <time>2011-04-16T14:31:52Z</time>
      </trkpt>
      <trkpt lat="34.997193580493331" lon="-4.894341453909874">
        <ele>1220.05029296875</ele>
        <time>2011-04-16T14:32:02Z</time>
      </trkpt>
      <trkpt lat="34.997475799173117" lon="-4.894063426181674">
        <ele>1218.127685546875</ele>
        <time>2011-04-16T14:32:07Z</time>
      </trkpt>
      <trkpt lat="34.997752653434873" lon="-4.893903080374003">
        <ele>1217.64697265625</ele>
        <time>2011-04-16T14:32:12Z</time>
      </trkpt>
      <trkpt lat="34.997958177700639" lon="-4.893506364896894">
        <ele>1219.56982421875</ele>
        <time>2011-04-16T14:32:20Z</time>
      </trkpt>
      <trkpt lat="34.997964547947049" lon="-4.893335374072194">
        <ele>1221.972900390625</ele>
        <time>2011-04-16T14:32:23Z</time>
      </trkpt>
      <trkpt lat="34.997984329238534" lon="-4.892794992774725">
        <ele>1220.531005859375</ele>
        <time>2011-04-16T14:32:34Z</time>
      </trkpt>
      <trkpt lat="34.998156074434519" lon="-4.892558958381414">
        <ele>1222.45361328125</ele>
        <time>2011-04-16T14:32:39Z</time>
      </trkpt>
      <trkpt lat="34.998469725251198" lon="-4.892277074977756">
        <ele>1221.01171875</ele>
        <time>2011-04-16T14:32:49Z</time>
      </trkpt>
      <trkpt lat="34.998656641691923" lon="-4.89198312163353">
        <ele>1221.4921875</ele>
        <time>2011-04-16T14:32:59Z</time>
      </trkpt>
      <trkpt lat="34.99868824146688" lon="-4.891706937924027">
        <ele>1223.8955078125</ele>
        <time>2011-04-16T14:33:19Z</time>
      </trkpt>
      <trkpt lat="34.998680781573057" lon="-4.891450284048915">
        <ele>1215.243896484375</ele>
        <time>2011-04-16T14:33:30Z</time>
      </trkpt>
      <trkpt lat="34.998619174584746" lon="-4.891197066754103">
        <ele>1218.127685546875</ele>
        <time>2011-04-16T14:33:44Z</time>
      </trkpt>
      <trkpt lat="34.998533176258206" lon="-4.891000762581825">
        <ele>1220.05029296875</ele>
        <time>2011-04-16T14:33:56Z</time>
      </trkpt>
      <trkpt lat="34.998347852379084" lon="-4.890662133693695">
        <ele>1212.840576171875</ele>
        <time>2011-04-16T14:34:15Z</time>
      </trkpt>
      <trkpt lat="34.998168898746371" lon="-4.890373041853309">
        <ele>1212.35986328125</ele>
        <time>2011-04-16T14:34:26Z</time>
      </trkpt>
      <trkpt lat="34.997947281226516" lon="-4.890142790973187">
        <ele>1210.43701171875</ele>
        <time>2011-04-16T14:34:37Z</time>
      </trkpt>
      <trkpt lat="34.997822223231196" lon="-4.889958221465349">
        <ele>1209.475830078125</ele>
        <time>2011-04-16T14:34:49Z</time>
      </trkpt>
      <trkpt lat="34.997718539088964" lon="-4.889818578958511">
        <ele>1208.033935546875</ele>
        <time>2011-04-16T14:34:55Z</time>
      </trkpt>
      <trkpt lat="34.997646454721689" lon="-4.889717241749167">
        <ele>1205.630615234375</ele>
        <time>2011-04-16T14:35:03Z</time>
      </trkpt>
      <trkpt lat="34.997461549937725" lon="-4.889479279518127">
        <ele>1200.823974609375</ele>
        <time>2011-04-16T14:35:27Z</time>
      </trkpt>
      <trkpt lat="34.997339174151421" lon="-4.889109553769231">
        <ele>1200.823974609375</ele>
        <time>2011-04-16T14:35:35Z</time>
      </trkpt>
      <trkpt lat="34.99734696932137" lon="-4.888879973441362">
        <ele>1202.74658203125</ele>
        <time>2011-04-16T14:35:45Z</time>
      </trkpt>
      <trkpt lat="34.997418466955423" lon="-4.888685178011656">
        <ele>1204.188720703125</ele>
        <time>2011-04-16T14:35:54Z</time>
      </trkpt>
      <trkpt lat="34.997465740889311" lon="-4.888504547998309">
        <ele>1203.7080078125</ele>
        <time>2011-04-16T14:36:03Z</time>
      </trkpt>
      <trkpt lat="34.997428860515356" lon="-4.888166086748242">
        <ele>1206.111083984375</ele>
        <time>2011-04-16T14:36:13Z</time>
      </trkpt>
      <trkpt lat="34.99728586524725" lon="-4.887863164767623">
        <ele>1202.74658203125</ele>
        <time>2011-04-16T14:36:24Z</time>
      </trkpt>
      <trkpt lat="34.997191065922379" lon="-4.887504084035754">
        <ele>1197.45947265625</ele>
        <time>2011-04-16T14:36:33Z</time>
      </trkpt>
      <trkpt lat="34.997188886627555" lon="-4.887394448742271">
        <ele>1195.53662109375</ele>
        <time>2011-04-16T14:36:35Z</time>
      </trkpt>
      <trkpt lat="34.997254768386483" lon="-4.887016257271171">
        <ele>1198.9013671875</ele>
        <time>2011-04-16T14:36:41Z</time>
      </trkpt>
      <trkpt lat="34.997202968224883" lon="-4.886689446866512">
        <ele>1202.265869140625</ele>
        <time>2011-04-16T14:36:47Z</time>
      </trkpt>
      <trkpt lat="34.996798289939761" lon="-4.886129284277558">
        <ele>1207.55322265625</ele>
        <time>2011-04-16T14:37:00Z</time>
      </trkpt>
      <trkpt lat="34.99665655195713" lon="-4.885860979557037">
        <ele>1204.188720703125</ele>
        <time>2011-04-16T14:37:08Z</time>
      </trkpt>
      <trkpt lat="34.996635345742106" lon="-4.88558798097074">
        <ele>1200.823974609375</ele>
        <time>2011-04-16T14:37:17Z</time>
      </trkpt>
      <trkpt lat="34.996706089004874" lon="-4.885222362354398">
        <ele>1197.45947265625</ele>
        <time>2011-04-16T14:37:27Z</time>
      </trkpt>
      <trkpt lat="34.996871966868639" lon="-4.885027399286628">
        <ele>1198.420654296875</ele>
        <time>2011-04-16T14:37:33Z</time>
      </trkpt>
      <trkpt lat="34.99711386859417" lon="-4.884953889995813">
        <ele>1206.591796875</ele>
        <time>2011-04-16T14:37:42Z</time>
      </trkpt>
      <trkpt lat="34.997598174959421" lon="-4.884744426235557">
        <ele>1211.879150390625</ele>
        <time>2011-04-16T14:37:53Z</time>
      </trkpt>
      <trkpt lat="34.99769045971334" lon="-4.884655075147748">
        <ele>1213.3212890625</ele>
        <time>2011-04-16T14:37:55Z</time>
      </trkpt>
      <trkpt lat="34.997809566557407" lon="-4.884505793452263">
        <ele>1212.840576171875</ele>
        <time>2011-04-16T14:37:58Z</time>
      </trkpt>
      <trkpt lat="34.997913837432861" lon="-4.883992988616228">
        <ele>1223.4150390625</ele>
        <time>2011-04-16T14:38:06Z</time>
      </trkpt>
      <trkpt lat="34.997735638171434" lon="-4.883380774408579">
        <ele>1229.66357421875</ele>
        <time>2011-04-16T14:38:13Z</time>
      </trkpt>
      <trkpt lat="34.997716695070267" lon="-4.882911555469036">
        <ele>1229.66357421875</ele>
        <time>2011-04-16T14:38:17Z</time>
      </trkpt>
      <trkpt lat="34.997803531587124" lon="-4.88230487331748">
        <ele>1229.66357421875</ele>
        <time>2011-04-16T14:38:22Z</time>
      </trkpt>
      <trkpt lat="34.997747121378779" lon="-4.881765162572265">
        <ele>1229.66357421875</ele>
        <time>2011-04-16T14:38:26Z</time>
      </trkpt>
      <trkpt lat="34.997467584908009" lon="-4.880204955115914">
        <ele>1228.2216796875</ele>
        <time>2011-04-16T14:38:36Z</time>
      </trkpt>
      <trkpt lat="34.997247559949756" lon="-4.878993267193437">
        <ele>1231.105712890625</ele>
        <time>2011-04-16T14:38:45Z</time>
      </trkpt>
      <trkpt lat="34.997160220518708" lon="-4.878658745437861">
        <ele>1231.586181640625</ele>
        <time>2011-04-16T14:38:48Z</time>
      </trkpt>
      <trkpt lat="34.9967254512012" lon="-4.878126326948404">
        <ele>1229.66357421875</ele>
        <time>2011-04-16T14:38:55Z</time>
      </trkpt>
      <trkpt lat="34.996308283880353" lon="-4.877967154607177">
        <ele>1229.182861328125</ele>
        <time>2011-04-16T14:39:00Z</time>
      </trkpt>
      <trkpt lat="34.995344365015626" lon="-4.877864560112357">
        <ele>1228.702392578125</ele>
        <time>2011-04-16T14:39:10Z</time>
      </trkpt>
      <trkpt lat="34.994930969551206" lon="-4.877554094418883">
        <ele>1229.66357421875</ele>
        <time>2011-04-16T14:39:15Z</time>
      </trkpt>
      <trkpt lat="34.994440460577607" lon="-4.876594366505742">
        <ele>1230.625</ele>
        <time>2011-04-16T14:39:23Z</time>
      </trkpt>
      <trkpt lat="34.994360329583287" lon="-4.875782243907452">
        <ele>1230.625</ele>
        <time>2011-04-16T14:39:29Z</time>
      </trkpt>
      <trkpt lat="34.99456275254488" lon="-4.875430455431342">
        <ele>1229.182861328125</ele>
        <time>2011-04-16T14:39:32Z</time>
      </trkpt>
      <trkpt lat="34.995453916490078" lon="-4.87424542196095">
        <ele>1226.779541015625</ele>
        <time>2011-04-16T14:39:42Z</time>
      </trkpt>
      <trkpt lat="34.995992286130786" lon="-4.873153679072857">
        <ele>1226.779541015625</ele>
        <time>2011-04-16T14:39:50Z</time>
      </trkpt>
      <trkpt lat="34.996070070192218" lon="-4.872451359406114">
        <ele>1227.26025390625</ele>
        <time>2011-04-16T14:39:55Z</time>
      </trkpt>
      <trkpt lat="34.996104687452316" lon="-4.871671590954065">
        <ele>1228.2216796875</ele>
        <time>2011-04-16T14:40:00Z</time>
      </trkpt>
      <trkpt lat="34.996133521199226" lon="-4.870717898011208">
        <ele>1229.66357421875</ele>
        <time>2011-04-16T14:40:06Z</time>
      </trkpt>
      <trkpt lat="34.996123462915421" lon="-4.870244991034269">
        <ele>1230.625</ele>
        <time>2011-04-16T14:40:09Z</time>
      </trkpt>
      <trkpt lat="34.996347259730101" lon="-4.869555244222283">
        <ele>1234.47021484375</ele>
        <time>2011-04-16T14:40:14Z</time>
      </trkpt>
      <trkpt lat="34.996738946065307" lon="-4.868914699181914">
        <ele>1235.431396484375</ele>
        <time>2011-04-16T14:40:19Z</time>
      </trkpt>
      <trkpt lat="34.996898956596851" lon="-4.868168123066425">
        <ele>1236.873291015625</ele>
        <time>2011-04-16T14:40:24Z</time>
      </trkpt>
      <trkpt lat="34.996859980747104" lon="-4.867517352104187">
        <ele>1235.431396484375</ele>
        <time>2011-04-16T14:40:28Z</time>
      </trkpt>
      <trkpt lat="34.996987637132406" lon="-4.866885859519243">
        <ele>1236.873291015625</ele>
        <time>2011-04-16T14:40:32Z</time>
      </trkpt>
      <trkpt lat="34.997623153030872" lon="-4.865370998159051">
        <ele>1233.028076171875</ele>
        <time>2011-04-16T14:40:42Z</time>
      </trkpt>
      <trkpt lat="34.99821281991899" lon="-4.864515289664269">
        <ele>1227.74072265625</ele>
        <time>2011-04-16T14:40:49Z</time>
      </trkpt>
      <trkpt lat="34.999264497309923" lon="-4.863427486270666">
        <ele>1220.05029296875</ele>
        <time>2011-04-16T14:41:00Z</time>
      </trkpt>
      <trkpt lat="34.999960362911224" lon="-4.8627367336303">
        <ele>1213.3212890625</ele>
        <time>2011-04-16T14:41:09Z</time>
      </trkpt>
      <trkpt lat="35.000366298481822" lon="-4.862318728119135">
        <ele>1207.55322265625</ele>
        <time>2011-04-16T14:41:15Z</time>
      </trkpt>
      <trkpt lat="35.000559249892831" lon="-4.861775832250714">
        <ele>1210.917724609375</ele>
        <time>2011-04-16T14:41:21Z</time>
      </trkpt>
      <trkpt lat="35.000408878549933" lon="-4.861258333548904">
        <ele>1217.16650390625</ele>
        <time>2011-04-16T14:41:26Z</time>
      </trkpt>
      <trkpt lat="35.00018198043108" lon="-4.861004278063774">
        <ele>1221.4921875</ele>
        <time>2011-04-16T14:41:29Z</time>
      </trkpt>
      <trkpt lat="34.99908747151494" lon="-4.860423831269145">
        <ele>1233.989501953125</ele>
        <time>2011-04-16T14:41:39Z</time>
      </trkpt>
      <trkpt lat="34.998862333595753" lon="-4.860296593979001">
        <ele>1238.796142578125</ele>
        <time>2011-04-16T14:41:41Z</time>
      </trkpt>
      <trkpt lat="34.998336872085929" lon="-4.859649259597063">
        <ele>1246.96728515625</ele>
        <time>2011-04-16T14:41:47Z</time>
      </trkpt>
      <trkpt lat="34.998102094978094" lon="-4.859323035925627">
        <ele>1251.293212890625</ele>
        <time>2011-04-16T14:41:50Z</time>
      </trkpt>
      <trkpt lat="34.997739493846893" lon="-4.858996476978064">
        <ele>1258.0224609375</ele>
        <time>2011-04-16T14:41:54Z</time>
      </trkpt>
      <trkpt lat="34.997113365679979" lon="-4.858939563855529">
        <ele>1261.867919921875</ele>
        <time>2011-04-16T14:42:00Z</time>
      </trkpt>
      <trkpt lat="34.996766019612551" lon="-4.85902514308691">
        <ele>1265.232421875</ele>
        <time>2011-04-16T14:42:03Z</time>
      </trkpt>
      <trkpt lat="34.9958361312747" lon="-4.858869574964047">
        <ele>1268.1162109375</ele>
        <time>2011-04-16T14:42:11Z</time>
      </trkpt>
      <trkpt lat="34.995047142729163" lon="-4.858273034915328">
        <ele>1271.96142578125</ele>
        <time>2011-04-16T14:42:19Z</time>
      </trkpt>
      <trkpt lat="34.994332585483789" lon="-4.858069773763418">
        <ele>1276.28759765625</ele>
        <time>2011-04-16T14:42:25Z</time>
      </trkpt>
      <trkpt lat="34.993977444246411" lon="-4.8580033890903">
        <ele>1278.69091796875</ele>
        <time>2011-04-16T14:42:28Z</time>
      </trkpt>
      <trkpt lat="34.993477379903197" lon="-4.857673980295658">
        <ele>1282.055419921875</ele>
        <time>2011-04-16T14:42:33Z</time>
      </trkpt>
      <trkpt lat="34.993037497624755" lon="-4.857182130217552">
        <ele>1285.419921875</ele>
        <time>2011-04-16T14:42:38Z</time>
      </trkpt>
      <trkpt lat="34.992797523736954" lon="-4.856678796932101">
        <ele>1287.342529296875</ele>
        <time>2011-04-16T14:42:42Z</time>
      </trkpt>
      <trkpt lat="34.992708172649145" lon="-4.856409067288041">
        <ele>1288.303955078125</ele>
        <time>2011-04-16T14:42:44Z</time>
      </trkpt>
      <trkpt lat="34.992340877652168" lon="-4.855899699032307">
        <ele>1289.745849609375</ele>
        <time>2011-04-16T14:42:49Z</time>
      </trkpt>
      <trkpt lat="34.991957573220134" lon="-4.855582443997264">
        <ele>1289.745849609375</ele>
        <time>2011-04-16T14:42:55Z</time>
      </trkpt>
      <trkpt lat="34.991535376757383" lon="-4.855161923915148">
        <ele>1293.110595703125</ele>
        <time>2011-04-16T14:43:02Z</time>
      </trkpt>
      <trkpt lat="34.990883180871606" lon="-4.854518864303827">
        <ele>1295.513916015625</ele>
        <time>2011-04-16T14:43:10Z</time>
      </trkpt>
      <trkpt lat="34.990070890635252" lon="-4.85380413942039">
        <ele>1300.320556640625</ele>
        <time>2011-04-16T14:43:19Z</time>
      </trkpt>
      <trkpt lat="34.98985187150538" lon="-4.853515299037099">
        <ele>1302.7236328125</ele>
        <time>2011-04-16T14:43:22Z</time>
      </trkpt>
      <trkpt lat="34.989444259554148" lon="-4.853304075077176">
        <ele>1305.607666015625</ele>
        <time>2011-04-16T14:43:27Z</time>
      </trkpt>
      <trkpt lat="34.989276872947812" lon="-4.853276833891869">
        <ele>1306.56884765625</ele>
        <time>2011-04-16T14:43:29Z</time>
      </trkpt>
      <trkpt lat="34.988947045058012" lon="-4.853129982948303">
        <ele>1308.49169921875</ele>
        <time>2011-04-16T14:43:33Z</time>
      </trkpt>
      <trkpt lat="34.988777562975883" lon="-4.853020431473851">
        <ele>1309.453125</ele>
        <time>2011-04-16T14:43:35Z</time>
      </trkpt>
      <trkpt lat="34.988206252455711" lon="-4.852979192510247">
        <ele>1312.3369140625</ele>
        <time>2011-04-16T14:43:41Z</time>
      </trkpt>
      <trkpt lat="34.988034842535853" lon="-4.85302722081542">
        <ele>1314.259521484375</ele>
        <time>2011-04-16T14:43:43Z</time>
      </trkpt>
      <trkpt lat="34.987617675215006" lon="-4.852935522794724">
        <ele>1317.6240234375</ele>
        <time>2011-04-16T14:43:48Z</time>
      </trkpt>
      <trkpt lat="34.98728608712554" lon="-4.852688424289227">
        <ele>1319.066162109375</ele>
        <time>2011-04-16T14:43:52Z</time>
      </trkpt>
      <trkpt lat="34.986733552068472" lon="-4.852500753477216">
        <ele>1322.4306640625</ele>
        <time>2011-04-16T14:43:58Z</time>
      </trkpt>
      <trkpt lat="34.986280845478177" lon="-4.852076629176736">
        <ele>1324.834228515625</ele>
        <time>2011-04-16T14:44:04Z</time>
      </trkpt>
      <trkpt lat="34.985617753118277" lon="-4.850677689537406">
        <ele>1331.082763671875</ele>
        <time>2011-04-16T14:44:16Z</time>
      </trkpt>
      <trkpt lat="34.985449947416782" lon="-4.850142169743776">
        <ele>1334.447265625</ele>
        <time>2011-04-16T14:44:20Z</time>
      </trkpt>
      <trkpt lat="34.985424298793077" lon="-4.849255364388228">
        <ele>1337.3310546875</ele>
        <time>2011-04-16T14:44:27Z</time>
      </trkpt>
      <trkpt lat="34.985446594655514" lon="-4.84869453124702">
        <ele>1339.253662109375</ele>
        <time>2011-04-16T14:44:31Z</time>
      </trkpt>
      <trkpt lat="34.985735099762678" lon="-4.848154652863741">
        <ele>1341.176513671875</ele>
        <time>2011-04-16T14:44:37Z</time>
      </trkpt>
      <trkpt lat="34.986025281250477" lon="-4.84810084104538">
        <ele>1342.61865234375</ele>
        <time>2011-04-16T14:44:40Z</time>
      </trkpt>
      <trkpt lat="34.986681332811713" lon="-4.848219025880098">
        <ele>1345.50244140625</ele>
        <time>2011-04-16T14:44:46Z</time>
      </trkpt>
      <trkpt lat="34.987138146534562" lon="-4.848071085289121">
        <ele>1348.38623046875</ele>
        <time>2011-04-16T14:44:51Z</time>
      </trkpt>
      <trkpt lat="34.987297570332885" lon="-4.847943093627691">
        <ele>1349.828369140625</ele>
        <time>2011-04-16T14:44:53Z</time>
      </trkpt>
      <trkpt lat="34.987661680206656" lon="-4.847812922671437">
        <ele>1352.2314453125</ele>
        <time>2011-04-16T14:44:57Z</time>
      </trkpt>
      <trkpt lat="34.988540438935161" lon="-4.847767073661089">
        <ele>1357.038330078125</ele>
        <time>2011-04-16T14:45:05Z</time>
      </trkpt>
      <trkpt lat="34.989186935126781" lon="-4.847661629319191">
        <ele>1359.922119140625</ele>
        <time>2011-04-16T14:45:13Z</time>
      </trkpt>
      <trkpt lat="34.989912724122405" lon="-4.847359294071794">
        <ele>1359.441650390625</ele>
        <time>2011-04-16T14:45:23Z</time>
      </trkpt>
      <trkpt lat="34.990532482042909" lon="-4.847103729844093">
        <ele>1359.922119140625</ele>
        <time>2011-04-16T14:45:32Z</time>
      </trkpt>
      <trkpt lat="34.990846049040556" lon="-4.846968781203032">
        <ele>1360.40283203125</ele>
        <time>2011-04-16T14:45:37Z</time>
      </trkpt>
      <trkpt lat="34.991106893867254" lon="-4.846669631078839">
        <ele>1362.80615234375</ele>
        <time>2011-04-16T14:45:42Z</time>
      </trkpt>
      <trkpt lat="34.991393219679594" lon="-4.845804870128632">
        <ele>1367.612548828125</ele>
        <time>2011-04-16T14:45:51Z</time>
      </trkpt>
      <trkpt lat="34.991788091138005" lon="-4.845374962314963">
        <ele>1370.49658203125</ele>
        <time>2011-04-16T14:45:57Z</time>
      </trkpt>
      <trkpt lat="34.992832392454147" lon="-4.844831731170416">
        <ele>1374.82275390625</ele>
        <time>2011-04-16T14:46:09Z</time>
      </trkpt>
      <trkpt lat="34.993090219795704" lon="-4.844645485281944">
        <ele>1376.2646484375</ele>
        <time>2011-04-16T14:46:12Z</time>
      </trkpt>
      <trkpt lat="34.993720538914204" lon="-4.843832356855273">
        <ele>1379.629150390625</ele>
        <time>2011-04-16T14:46:21Z</time>
      </trkpt>
      <trkpt lat="34.994331076741219" lon="-4.843003218993545">
        <ele>1382.51318359375</ele>
        <time>2011-04-16T14:46:31Z</time>
      </trkpt>
      <trkpt lat="34.994577756151557" lon="-4.842567276209593">
        <ele>1382.51318359375</ele>
        <time>2011-04-16T14:46:37Z</time>
      </trkpt>
      <trkpt lat="34.994740784168243" lon="-4.84173889271915">
        <ele>1382.032470703125</ele>
        <time>2011-04-16T14:46:46Z</time>
      </trkpt>
      <trkpt lat="34.994728630408645" lon="-4.841103376820684">
        <ele>1382.032470703125</ele>
        <time>2011-04-16T14:46:52Z</time>
      </trkpt>
      <trkpt lat="34.994626957923174" lon="-4.840721162036061">
        <ele>1381.0712890625</ele>
        <time>2011-04-16T14:46:56Z</time>
      </trkpt>
      <trkpt lat="34.994255639612675" lon="-4.839668730273843">
        <ele>1373.380859375</ele>
        <time>2011-04-16T14:47:06Z</time>
      </trkpt>
      <trkpt lat="34.994030585512519" lon="-4.838355369865894">
        <ele>1369.535400390625</ele>
        <time>2011-04-16T14:47:17Z</time>
      </trkpt>
      <trkpt lat="34.993907120078802" lon="-4.837852874770761">
        <ele>1368.573974609375</ele>
        <time>2011-04-16T14:47:22Z</time>
      </trkpt>
      <trkpt lat="34.993925057351589" lon="-4.837438724935055">
        <ele>1367.132080078125</ele>
        <time>2011-04-16T14:47:26Z</time>
      </trkpt>
      <trkpt lat="34.993966966867447" lon="-4.837174024432898">
        <ele>1366.6513671875</ele>
        <time>2011-04-16T14:47:29Z</time>
      </trkpt>
      <trkpt lat="34.993933271616697" lon="-4.836859535425901">
        <ele>1365.690185546875</ele>
        <time>2011-04-16T14:47:33Z</time>
      </trkpt>
      <trkpt lat="34.993615681305528" lon="-4.835855048149824">
        <ele>1362.325439453125</ele>
        <time>2011-04-16T14:47:44Z</time>
      </trkpt>
      <trkpt lat="34.993353243917227" lon="-4.835364371538162">
        <ele>1359.922119140625</ele>
        <time>2011-04-16T14:47:51Z</time>
      </trkpt>
      <trkpt lat="34.993077982217073" lon="-4.83475299552083">
        <ele>1357.51904296875</ele>
        <time>2011-04-16T14:48:00Z</time>
      </trkpt>
      <trkpt lat="34.992996761575341" lon="-4.834314621984959">
        <ele>1356.076904296875</ele>
        <time>2011-04-16T14:48:06Z</time>
      </trkpt>
      <trkpt lat="34.993059458211064" lon="-4.833581456914544">
        <ele>1351.7509765625</ele>
        <time>2011-04-16T14:48:16Z</time>
      </trkpt>
      <trkpt lat="34.993301862850785" lon="-4.832888776436448">
        <ele>1350.30908203125</ele>
        <time>2011-04-16T14:48:26Z</time>
      </trkpt>
      <trkpt lat="34.993822798132896" lon="-4.832018818706274">
        <ele>1347.90576171875</ele>
        <time>2011-04-16T14:48:39Z</time>
      </trkpt>
      <trkpt lat="34.994282126426697" lon="-4.831439880654216">
        <ele>1346.4638671875</ele>
        <time>2011-04-16T14:48:49Z</time>
      </trkpt>
      <trkpt lat="34.99476308003068" lon="-4.831147519871593">
        <ele>1345.021728515625</ele>
        <time>2011-04-16T14:48:57Z</time>
      </trkpt>
      <trkpt lat="34.995039850473404" lon="-4.830963118001819">
        <ele>1343.09912109375</ele>
        <time>2011-04-16T14:49:02Z</time>
      </trkpt>
      <trkpt lat="34.995254594832659" lon="-4.830516949295998">
        <ele>1338.29248046875</ele>
        <time>2011-04-16T14:49:08Z</time>
      </trkpt>
      <trkpt lat="34.995285356417298" lon="-4.829771630465984">
        <ele>1340.69580078125</ele>
        <time>2011-04-16T14:49:17Z</time>
      </trkpt>
      <trkpt lat="34.995129285380244" lon="-4.829173078760505">
        <ele>1344.060546875</ele>
        <time>2011-04-16T14:49:25Z</time>
      </trkpt>
      <trkpt lat="34.995104977861047" lon="-4.82878097333014">
        <ele>1346.9443359375</ele>
        <time>2011-04-16T14:49:30Z</time>
      </trkpt>
      <trkpt lat="34.995188880711794" lon="-4.828183595091105">
        <ele>1349.828369140625</ele>
        <time>2011-04-16T14:49:38Z</time>
      </trkpt>
      <trkpt lat="34.995106989517808" lon="-4.827777491882443">
        <ele>1351.270263671875</ele>
        <time>2011-04-16T14:49:43Z</time>
      </trkpt>
      <trkpt lat="34.994861483573914" lon="-4.8273722268641">
        <ele>1354.634765625</ele>
        <time>2011-04-16T14:49:49Z</time>
      </trkpt>
      <trkpt lat="34.994576498866081" lon="-4.82719536870718">
        <ele>1357.51904296875</ele>
        <time>2011-04-16T14:49:54Z</time>
      </trkpt>
      <trkpt lat="34.99374576844275" lon="-4.826987916603684">
        <ele>1363.286865234375</ele>
        <time>2011-04-16T14:50:06Z</time>
      </trkpt>
      <trkpt lat="34.99332508072257" lon="-4.826666889712215">
        <ele>1365.20947265625</ele>
        <time>2011-04-16T14:50:15Z</time>
      </trkpt>
      <trkpt lat="34.992920318618417" lon="-4.826148971915245">
        <ele>1365.690185546875</ele>
        <time>2011-04-16T14:50:24Z</time>
      </trkpt>
      <trkpt lat="34.992611445486546" lon="-4.82566206716001">
        <ele>1365.690185546875</ele>
        <time>2011-04-16T14:50:33Z</time>
      </trkpt>
      <trkpt lat="34.992528883740306" lon="-4.824884729459882">
        <ele>1365.690185546875</ele>
        <time>2011-04-16T14:50:43Z</time>
      </trkpt>
      <trkpt lat="34.992608344182372" lon="-4.824440153315663">
        <ele>1366.6513671875</ele>
        <time>2011-04-16T14:50:50Z</time>
      </trkpt>
      <trkpt lat="34.99242989346385" lon="-4.823922654613853">
        <ele>1363.767333984375</ele>
        <time>2011-04-16T14:50:58Z</time>
      </trkpt>
      <trkpt lat="34.992316821590066" lon="-4.823818048462272">
        <ele>1362.325439453125</ele>
        <time>2011-04-16T14:51:00Z</time>
      </trkpt>
      <trkpt lat="34.992146752774715" lon="-4.823672119528055">
        <ele>1363.767333984375</ele>
        <time>2011-04-16T14:51:03Z</time>
      </trkpt>
      <trkpt lat="34.991972325369716" lon="-4.823412029072642">
        <ele>1364.248046875</ele>
        <time>2011-04-16T14:51:07Z</time>
      </trkpt>
      <trkpt lat="34.991876687854528" lon="-4.822900146245956">
        <ele>1361.844970703125</ele>
        <time>2011-04-16T14:51:15Z</time>
      </trkpt>
      <trkpt lat="34.992106687277555" lon="-4.822423299774528">
        <ele>1358.9609375</ele>
        <time>2011-04-16T14:51:23Z</time>
      </trkpt>
      <trkpt lat="34.992664083838463" lon="-4.821883924305439">
        <ele>1356.5576171875</ele>
        <time>2011-04-16T14:51:34Z</time>
      </trkpt>
      <trkpt lat="34.992801966145635" lon="-4.821552252396941">
        <ele>1356.076904296875</ele>
        <time>2011-04-16T14:51:39Z</time>
      </trkpt>
      <trkpt lat="34.992864159867167" lon="-4.821077585220337">
        <ele>1354.634765625</ele>
        <time>2011-04-16T14:51:45Z</time>
      </trkpt>
      <trkpt lat="34.992991648614407" lon="-4.820770975202322">
        <ele>1353.19287109375</ele>
        <time>2011-04-16T14:51:49Z</time>
      </trkpt>
      <trkpt lat="34.993188120424747" lon="-4.82040292583406">
        <ele>1351.7509765625</ele>
        <time>2011-04-16T14:51:54Z</time>
      </trkpt>
      <trkpt lat="34.993231873959303" lon="-4.819971676915884">
        <ele>1349.828369140625</ele>
        <time>2011-04-16T14:51:59Z</time>
      </trkpt>
      <trkpt lat="34.993195161223412" lon="-4.819788448512554">
        <ele>1349.828369140625</ele>
        <time>2011-04-16T14:52:01Z</time>
      </trkpt>
      <trkpt lat="34.992887042462826" lon="-4.819337921217084">
        <ele>1346.9443359375</ele>
        <time>2011-04-16T14:52:08Z</time>
      </trkpt>
      <trkpt lat="34.99255008995533" lon="-4.819195847958326">
        <ele>1344.541015625</ele>
        <time>2011-04-16T14:52:13Z</time>
      </trkpt>
      <trkpt lat="34.991896552965045" lon="-4.819077746942639">
        <ele>1336.850341796875</ele>
        <time>2011-04-16T14:52:23Z</time>
      </trkpt>
      <trkpt lat="34.991427082568407" lon="-4.818898625671864">
        <ele>1333.48583984375</ele>
        <time>2011-04-16T14:52:30Z</time>
      </trkpt>
      <trkpt lat="34.991073366254568" lon="-4.818541053682566">
        <ele>1332.524658203125</ele>
        <time>2011-04-16T14:52:36Z</time>
      </trkpt>
      <trkpt lat="34.990910338237882" lon="-4.81841859407723">
        <ele>1331.563232421875</ele>
        <time>2011-04-16T14:52:39Z</time>
      </trkpt>
      <trkpt lat="34.990645470097661" lon="-4.818302588537335">
        <ele>1329.640625</ele>
        <time>2011-04-16T14:52:43Z</time>
      </trkpt>
      <trkpt lat="34.990375237539411" lon="-4.817928085103631">
        <ele>1328.679443359375</ele>
        <time>2011-04-16T14:52:49Z</time>
      </trkpt>
      <trkpt lat="34.990309942513704" lon="-4.817635640501976">
        <ele>1328.679443359375</ele>
        <time>2011-04-16T14:52:53Z</time>
      </trkpt>
      <trkpt lat="34.990168120712042" lon="-4.817351661622524">
        <ele>1329.159912109375</ele>
        <time>2011-04-16T14:52:57Z</time>
      </trkpt>
      <trkpt lat="34.989446774125099" lon="-4.816647581756115">
        <ele>1330.121337890625</ele>
        <time>2011-04-16T14:53:09Z</time>
      </trkpt>
      <trkpt lat="34.988760380074382" lon="-4.8162891715765">
        <ele>1330.60205078125</ele>
        <time>2011-04-16T14:53:18Z</time>
      </trkpt>
      <trkpt lat="34.988322341814637" lon="-4.815808972343803">
        <ele>1332.524658203125</ele>
        <time>2011-04-16T14:53:25Z</time>
      </trkpt>
      <trkpt lat="34.988214466720819" lon="-4.815704952925444">
        <ele>1332.524658203125</ele>
        <time>2011-04-16T14:53:27Z</time>
      </trkpt>
      <trkpt lat="34.987961752340198" lon="-4.815594395622611">
        <ele>1333.005126953125</ele>
        <time>2011-04-16T14:53:31Z</time>
      </trkpt>
      <trkpt lat="34.987442325800657" lon="-4.815441258251667">
        <ele>1338.773193359375</ele>
        <time>2011-04-16T14:53:38Z</time>
      </trkpt>
      <trkpt lat="34.98726706020534" lon="-4.81516876257956">
        <ele>1338.29248046875</ele>
        <time>2011-04-16T14:53:42Z</time>
      </trkpt>
      <trkpt lat="34.986876295879483" lon="-4.814120521768928">
        <ele>1343.579833984375</ele>
        <time>2011-04-16T14:53:53Z</time>
      </trkpt>
      <trkpt lat="34.986700192093849" lon="-4.81373998336494">
        <ele>1345.50244140625</ele>
        <time>2011-04-16T14:54:00Z</time>
      </trkpt>
      <trkpt lat="34.986490644514561" lon="-4.813274536281824">
        <ele>1346.9443359375</ele>
        <time>2011-04-16T14:54:06Z</time>
      </trkpt>
      <trkpt lat="34.986378829926252" lon="-4.812993574887514">
        <ele>1347.425048828125</ele>
        <time>2011-04-16T14:54:09Z</time>
      </trkpt>
      <trkpt lat="34.986318731680512" lon="-4.812548747286201">
        <ele>1347.90576171875</ele>
        <time>2011-04-16T14:54:13Z</time>
      </trkpt>
      <trkpt lat="34.986311355605721" lon="-4.811993865296245">
        <ele>1347.90576171875</ele>
        <time>2011-04-16T14:54:18Z</time>
      </trkpt>
      <trkpt lat="34.986122595146298" lon="-4.811524730175734">
        <ele>1345.983154296875</ele>
        <time>2011-04-16T14:54:23Z</time>
      </trkpt>
      <trkpt lat="34.985619429498911" lon="-4.810762898996472">
        <ele>1345.50244140625</ele>
        <time>2011-04-16T14:54:31Z</time>
      </trkpt>
      <trkpt lat="34.985488252714276" lon="-4.809932168573141">
        <ele>1344.541015625</ele>
        <time>2011-04-16T14:54:38Z</time>
      </trkpt>
      <trkpt lat="34.985339138656855" lon="-4.80857715010643">
        <ele>1347.90576171875</ele>
        <time>2011-04-16T14:54:48Z</time>
      </trkpt>
      <trkpt lat="34.985264120623469" lon="-4.808089155703783">
        <ele>1349.828369140625</ele>
        <time>2011-04-16T14:54:52Z</time>
      </trkpt>
      <trkpt lat="34.984997324645519" lon="-4.807740719988942">
        <ele>1356.076904296875</ele>
        <time>2011-04-16T14:54:58Z</time>
      </trkpt>
      <trkpt lat="34.984818873926997" lon="-4.807702079415321">
        <ele>1357.038330078125</ele>
        <time>2011-04-16T14:55:00Z</time>
      </trkpt>
      <trkpt lat="34.984618378803134" lon="-4.807679364457727">
        <ele>1357.51904296875</ele>
        <time>2011-04-16T14:55:02Z</time>
      </trkpt>
      <trkpt lat="34.984245048835874" lon="-4.80740686878562">
        <ele>1357.038330078125</ele>
        <time>2011-04-16T14:55:07Z</time>
      </trkpt>
      <trkpt lat="34.984223172068596" lon="-4.806953659281135">
        <ele>1356.076904296875</ele>
        <time>2011-04-16T14:55:12Z</time>
      </trkpt>
      <trkpt lat="34.98430204577744" lon="-4.806797672063112">
        <ele>1355.115478515625</ele>
        <time>2011-04-16T14:55:14Z</time>
      </trkpt>
      <trkpt lat="34.984453590586782" lon="-4.806576054543257">
        <ele>1354.154296875</ele>
        <time>2011-04-16T14:55:17Z</time>
      </trkpt>
      <trkpt lat="34.984521484002471" lon="-4.806082025170326">
        <ele>1353.673583984375</ele>
        <time>2011-04-16T14:55:23Z</time>
      </trkpt>
      <trkpt lat="34.984316043555737" lon="-4.805812295526266">
        <ele>1355.59619140625</ele>
        <time>2011-04-16T14:55:28Z</time>
      </trkpt>
      <trkpt lat="34.984191488474607" lon="-4.805765692144632">
        <ele>1356.076904296875</ele>
        <time>2011-04-16T14:55:30Z</time>
      </trkpt>
      <trkpt lat="34.983470980077982" lon="-4.805452292785049">
        <ele>1358.9609375</ele>
        <time>2011-04-16T14:55:40Z</time>
      </trkpt>
      <trkpt lat="34.983334522694349" lon="-4.805347435176373">
        <ele>1358.9609375</ele>
        <time>2011-04-16T14:55:42Z</time>
      </trkpt>
      <trkpt lat="34.983060350641608" lon="-4.804800264537334">
        <ele>1359.441650390625</ele>
        <time>2011-04-16T14:55:48Z</time>
      </trkpt>
      <trkpt lat="34.982945434749126" lon="-4.804163994267583">
        <ele>1360.883544921875</ele>
        <time>2011-04-16T14:55:54Z</time>
      </trkpt>
      <trkpt lat="34.982750974595547" lon="-4.803729979321361">
        <ele>1360.40283203125</ele>
        <time>2011-04-16T14:55:59Z</time>
      </trkpt>
      <trkpt lat="34.982752399519086" lon="-4.803256988525391">
        <ele>1359.922119140625</ele>
        <time>2011-04-16T14:56:05Z</time>
      </trkpt>
      <trkpt lat="34.983020117506385" lon="-4.802978457883">
        <ele>1359.441650390625</ele>
        <time>2011-04-16T14:56:10Z</time>
      </trkpt>
      <trkpt lat="34.98347626067698" lon="-4.802875276654959">
        <ele>1360.883544921875</ele>
        <time>2011-04-16T14:56:16Z</time>
      </trkpt>
      <trkpt lat="34.983886638656259" lon="-4.802485350519419">
        <ele>1360.40283203125</ele>
        <time>2011-04-16T14:56:23Z</time>
      </trkpt>
      <trkpt lat="34.983926117420197" lon="-4.802082097157836">
        <ele>1359.922119140625</ele>
        <time>2011-04-16T14:56:27Z</time>
      </trkpt>
      <trkpt lat="34.983913963660598" lon="-4.801849583163858">
        <ele>1359.441650390625</ele>
        <time>2011-04-16T14:56:29Z</time>
      </trkpt>
      <trkpt lat="34.984137341380119" lon="-4.801283134147525">
        <ele>1358.9609375</ele>
        <time>2011-04-16T14:56:35Z</time>
      </trkpt>
      <trkpt lat="34.984214790165424" lon="-4.801224544644356">
        <ele>1358.9609375</ele>
        <time>2011-04-16T14:56:36Z</time>
      </trkpt>
      <trkpt lat="34.984774952754378" lon="-4.80087049305439">
        <ele>1357.999755859375</ele>
        <time>2011-04-16T14:56:43Z</time>
      </trkpt>
      <trkpt lat="34.984997743740678" lon="-4.800369339063764">
        <ele>1357.51904296875</ele>
        <time>2011-04-16T14:56:49Z</time>
      </trkpt>
      <trkpt lat="34.984971927478909" lon="-4.800052084028721">
        <ele>1357.51904296875</ele>
        <time>2011-04-16T14:56:52Z</time>
      </trkpt>
      <trkpt lat="34.984773192554712" lon="-4.799639023840427">
        <ele>1358.9609375</ele>
        <time>2011-04-16T14:56:57Z</time>
      </trkpt>
      <trkpt lat="34.984195092692971" lon="-4.799099396914244">
        <ele>1361.844970703125</ele>
        <time>2011-04-16T14:57:06Z</time>
      </trkpt>
      <trkpt lat="34.984007086604834" lon="-4.798719780519605">
        <ele>1362.80615234375</ele>
        <time>2011-04-16T14:57:10Z</time>
      </trkpt>
      <trkpt lat="34.983736351132393" lon="-4.797815876081586">
        <ele>1366.170654296875</ele>
        <time>2011-04-16T14:57:18Z</time>
      </trkpt>
      <trkpt lat="34.983273670077324" lon="-4.797146581113339">
        <ele>1370.977294921875</ele>
        <time>2011-04-16T14:57:26Z</time>
      </trkpt>
      <trkpt lat="34.982629353180528" lon="-4.796241922304034">
        <ele>1377.70654296875</ele>
        <time>2011-04-16T14:57:38Z</time>
      </trkpt>
      <trkpt lat="34.982551150023937" lon="-4.796076882630587">
        <ele>1378.66796875</ele>
        <time>2011-04-16T14:57:40Z</time>
      </trkpt>
      <trkpt lat="34.982427516952157" lon="-4.795259982347488">
        <ele>1382.51318359375</ele>
        <time>2011-04-16T14:57:48Z</time>
      </trkpt>
      <trkpt lat="34.982310673221946" lon="-4.794233869761229">
        <ele>1386.8388671875</ele>
        <time>2011-04-16T14:57:58Z</time>
      </trkpt>
      <trkpt lat="34.982009930536151" lon="-4.79387235827744">
        <ele>1390.203857421875</ele>
        <time>2011-04-16T14:58:04Z</time>
      </trkpt>
      <trkpt lat="34.981777081266046" lon="-4.793836148455739">
        <ele>1391.645751953125</ele>
        <time>2011-04-16T14:58:07Z</time>
      </trkpt>
      <trkpt lat="34.981290260329843" lon="-4.79358896613121">
        <ele>1395.9716796875</ele>
        <time>2011-04-16T14:58:14Z</time>
      </trkpt>
      <trkpt lat="34.981223456561565" lon="-4.793107090517879">
        <ele>1397.41357421875</ele>
        <time>2011-04-16T14:58:19Z</time>
      </trkpt>
      <trkpt lat="34.981493521481752" lon="-4.792121462523937">
        <ele>1400.297607421875</ele>
        <time>2011-04-16T14:58:29Z</time>
      </trkpt>
      <trkpt lat="34.981433339416981" lon="-4.791555684059858">
        <ele>1402.70068359375</ele>
        <time>2011-04-16T14:58:35Z</time>
      </trkpt>
      <trkpt lat="34.981225468218327" lon="-4.791349992156029">
        <ele>1405.104248046875</ele>
        <time>2011-04-16T14:58:38Z</time>
      </trkpt>
      <trkpt lat="34.980710316449404" lon="-4.790969621390104">
        <ele>1407.98828125</ele>
        <time>2011-04-16T14:58:44Z</time>
      </trkpt>
      <trkpt lat="34.980437820777297" lon="-4.790377356112003">
        <ele>1409.91064453125</ele>
        <time>2011-04-16T14:58:50Z</time>
      </trkpt>
      <trkpt lat="34.980485429987311" lon="-4.789936719462276">
        <ele>1410.391357421875</ele>
        <time>2011-04-16T14:58:54Z</time>
      </trkpt>
      <trkpt lat="34.980543348938227" lon="-4.789746031165123">
        <ele>1410.391357421875</ele>
        <time>2011-04-16T14:58:56Z</time>
      </trkpt>
      <trkpt lat="34.980605123564601" lon="-4.788708770647645">
        <ele>1413.275390625</ele>
        <time>2011-04-16T14:59:05Z</time>
      </trkpt>
      <trkpt lat="34.980636052787304" lon="-4.787824563682079">
        <ele>1416.639892578125</ele>
        <time>2011-04-16T14:59:13Z</time>
      </trkpt>
      <trkpt lat="34.980618618428707" lon="-4.787448216229677">
        <ele>1418.081787109375</ele>
        <time>2011-04-16T14:59:16Z</time>
      </trkpt>
      <trkpt lat="34.980321396142244" lon="-4.786538863554597">
        <ele>1423.849853515625</ele>
        <time>2011-04-16T14:59:24Z</time>
      </trkpt>
      <trkpt lat="34.980321060866117" lon="-4.785835118964315">
        <ele>1424.811279296875</ele>
        <time>2011-04-16T14:59:31Z</time>
      </trkpt>
      <trkpt lat="34.980775192379951" lon="-4.784874385222793">
        <ele>1427.695068359375</ele>
        <time>2011-04-16T14:59:42Z</time>
      </trkpt>
      <trkpt lat="34.980873260647058" lon="-4.784204168245196">
        <ele>1430.098388671875</ele>
        <time>2011-04-16T14:59:50Z</time>
      </trkpt>
      <trkpt lat="34.981100326403975" lon="-4.783672923222184">
        <ele>1432.982177734375</ele>
        <time>2011-04-16T14:59:56Z</time>
      </trkpt>
      <trkpt lat="34.981706338003278" lon="-4.782897848635912">
        <ele>1437.308349609375</ele>
        <time>2011-04-16T15:00:06Z</time>
      </trkpt>
      <trkpt lat="34.981927033513784" lon="-4.782554442062974">
        <ele>1439.23095703125</ele>
        <time>2011-04-16T15:00:10Z</time>
      </trkpt>
      <trkpt lat="34.982034573331475" lon="-4.78190777823329">
        <ele>1442.114990234375</ele>
        <time>2011-04-16T15:00:17Z</time>
      </trkpt>
      <trkpt lat="34.981994424015284" lon="-4.781737877056003">
        <ele>1443.076171875</ele>
        <time>2011-04-16T15:00:19Z</time>
      </trkpt>
      <trkpt lat="34.981816727668047" lon="-4.781084423884749">
        <ele>1447.402099609375</ele>
        <time>2011-04-16T15:00:26Z</time>
      </trkpt>
      <trkpt lat="34.981802562251687" lon="-4.780628951266408">
        <ele>1448.843994140625</ele>
        <time>2011-04-16T15:00:30Z</time>
      </trkpt>
      <trkpt lat="34.981600223109126" lon="-4.780104830861092">
        <ele>1453.170166015625</ele>
        <time>2011-04-16T15:00:37Z</time>
      </trkpt>
      <trkpt lat="34.981331583112478" lon="-4.779948089271784">
        <ele>1457.976806640625</ele>
        <time>2011-04-16T15:00:41Z</time>
      </trkpt>
      <trkpt lat="34.980571428313851" lon="-4.779719766229391">
        <ele>1463.263916015625</ele>
        <time>2011-04-16T15:00:50Z</time>
      </trkpt>
      <trkpt lat="34.980172282084823" lon="-4.779580375179648">
        <ele>1466.147705078125</ele>
        <time>2011-04-16T15:00:54Z</time>
      </trkpt>
      <trkpt lat="34.979820493608713" lon="-4.779134541749954">
        <ele>1469.031982421875</ele>
        <time>2011-04-16T15:00:59Z</time>
      </trkpt>
      <trkpt lat="34.979790234938264" lon="-4.779015267267823">
        <ele>1469.9931640625</ele>
        <time>2011-04-16T15:01:00Z</time>
      </trkpt>
      <trkpt lat="34.979468453675508" lon="-4.77759126573801">
        <ele>1476.722412109375</ele>
        <time>2011-04-16T15:01:12Z</time>
      </trkpt>
      <trkpt lat="34.979448253288865" lon="-4.777475092560053">
        <ele>1477.203125</ele>
        <time>2011-04-16T15:01:13Z</time>
      </trkpt>
      <trkpt lat="34.979454539716244" lon="-4.776970166712999">
        <ele>1478.64501953125</ele>
        <time>2011-04-16T15:01:17Z</time>
      </trkpt>
      <trkpt lat="34.979704739525914" lon="-4.775744816288352">
        <ele>1483.93212890625</ele>
        <time>2011-04-16T15:01:27Z</time>
      </trkpt>
      <trkpt lat="34.979853518307209" lon="-4.775371486321092">
        <ele>1486.335693359375</ele>
        <time>2011-04-16T15:01:33Z</time>
      </trkpt>
      <trkpt lat="34.979912023991346" lon="-4.774909727275372">
        <ele>1488.25830078125</ele>
        <time>2011-04-16T15:01:42Z</time>
      </trkpt>
      <trkpt lat="34.979889392852783" lon="-4.774429779499769">
        <ele>1490.180908203125</ele>
        <time>2011-04-16T15:01:50Z</time>
      </trkpt>
      <trkpt lat="34.979933397844434" lon="-4.773816391825676">
        <ele>1493.064697265625</ele>
        <time>2011-04-16T15:02:00Z</time>
      </trkpt>
      <trkpt lat="34.979873383417726" lon="-4.773242650553584">
        <ele>1495.94873046875</ele>
        <time>2011-04-16T15:02:10Z</time>
      </trkpt>
      <trkpt lat="34.979683784767985" lon="-4.772459445521236">
        <ele>1500.27490234375</ele>
        <time>2011-04-16T15:02:24Z</time>
      </trkpt>
      <trkpt lat="34.979545818641782" lon="-4.771956279873848">
        <ele>1501.716796875</ele>
        <time>2011-04-16T15:02:33Z</time>
      </trkpt>
      <trkpt lat="34.97932537458837" lon="-4.771483959630132">
        <ele>1503.15869140625</ele>
        <time>2011-04-16T15:02:43Z</time>
      </trkpt>
      <trkpt lat="34.97902974486351" lon="-4.770957324653864">
        <ele>1505.56201171875</ele>
        <time>2011-04-16T15:02:55Z</time>
      </trkpt>
      <trkpt lat="34.978863866999745" lon="-4.77075481787324">
        <ele>1508.926513671875</ele>
        <time>2011-04-16T15:03:02Z</time>
      </trkpt>
      <trkpt lat="34.978476790711284" lon="-4.770230278372765">
        <ele>1511.810546875</ele>
        <time>2011-04-16T15:03:10Z</time>
      </trkpt>
      <trkpt lat="34.978066999465227" lon="-4.769631223753095">
        <ele>1515.175048828125</ele>
        <time>2011-04-16T15:03:19Z</time>
      </trkpt>
      <trkpt lat="34.977686628699303" lon="-4.769059075042605">
        <ele>1517.097900390625</ele>
        <time>2011-04-16T15:03:31Z</time>
      </trkpt>
      <trkpt lat="34.977402733638883" lon="-4.76857602596283">
        <ele>1518.539794921875</ele>
        <time>2011-04-16T15:03:41Z</time>
      </trkpt>
      <trkpt lat="34.977246494963765" lon="-4.76785727776587">
        <ele>1522.86572265625</ele>
        <time>2011-04-16T15:03:54Z</time>
      </trkpt>
      <trkpt lat="34.977202825248241" lon="-4.767230646684766">
        <ele>1527.191650390625</ele>
        <time>2011-04-16T15:04:05Z</time>
      </trkpt>
      <trkpt lat="34.977160077542067" lon="-4.76658733561635">
        <ele>1531.517333984375</ele>
        <time>2011-04-16T15:04:16Z</time>
      </trkpt>
      <trkpt lat="34.977239957079291" lon="-4.765863390639424">
        <ele>1535.843505859375</ele>
        <time>2011-04-16T15:04:27Z</time>
      </trkpt>
      <trkpt lat="34.977400051429868" lon="-4.765056045725942">
        <ele>1539.688720703125</ele>
        <time>2011-04-16T15:04:41Z</time>
      </trkpt>
      <trkpt lat="34.977581771090627" lon="-4.764663353562355">
        <ele>1541.611328125</ele>
        <time>2011-04-16T15:04:47Z</time>
      </trkpt>
      <trkpt lat="34.977591158822179" lon="-4.764081398025155">
        <ele>1544.0146484375</ele>
        <time>2011-04-16T15:04:52Z</time>
      </trkpt>
      <trkpt lat="34.977373145520687" lon="-4.763438422232866">
        <ele>1548.340576171875</ele>
        <time>2011-04-16T15:04:57Z</time>
      </trkpt>
      <trkpt lat="34.977300558239222" lon="-4.762526722624898">
        <ele>1552.185791015625</ele>
        <time>2011-04-16T15:05:03Z</time>
      </trkpt>
      <trkpt lat="34.97703904286027" lon="-4.761975528672338">
        <ele>1555.550537109375</ele>
        <time>2011-04-16T15:05:08Z</time>
      </trkpt>
      <trkpt lat="34.975991137325764" lon="-4.760992750525475">
        <ele>1562.279541015625</ele>
        <time>2011-04-16T15:05:18Z</time>
      </trkpt>
      <trkpt lat="34.975868090987206" lon="-4.760892251506448">
        <ele>1563.240966796875</ele>
        <time>2011-04-16T15:05:19Z</time>
      </trkpt>
      <trkpt lat="34.975498365238309" lon="-4.76069737225771">
        <ele>1565.163818359375</ele>
        <time>2011-04-16T15:05:22Z</time>
      </trkpt>
      <trkpt lat="34.97498095035553" lon="-4.76017702370882">
        <ele>1568.5283203125</ele>
        <time>2011-04-16T15:05:27Z</time>
      </trkpt>
      <trkpt lat="34.974771235138178" lon="-4.759701685979962">
        <ele>1570.931640625</ele>
        <time>2011-04-16T15:05:30Z</time>
      </trkpt>
      <trkpt lat="34.974645674228668" lon="-4.759233640506864">
        <ele>1573.3349609375</ele>
        <time>2011-04-16T15:05:33Z</time>
      </trkpt>
      <trkpt lat="34.974225573241711" lon="-4.758849665522575">
        <ele>1577.18017578125</ele>
        <time>2011-04-16T15:05:38Z</time>
      </trkpt>
      <trkpt lat="34.97400077059865" lon="-4.758873721584678">
        <ele>1578.6220703125</ele>
        <time>2011-04-16T15:05:40Z</time>
      </trkpt>
      <trkpt lat="34.973791390657425" lon="-4.758910769596696">
        <ele>1581.025634765625</ele>
        <time>2011-04-16T15:05:42Z</time>
      </trkpt>
      <trkpt lat="34.973332146182656" lon="-4.758661072701216">
        <ele>1584.870849609375</ele>
        <time>2011-04-16T15:05:47Z</time>
      </trkpt>
      <trkpt lat="34.972802577540278" lon="-4.75796353071928">
        <ele>1589.196533203125</ele>
        <time>2011-04-16T15:05:53Z</time>
      </trkpt>
      <trkpt lat="34.972622785717249" lon="-4.757273280993104">
        <ele>1592.08056640625</ele>
        <time>2011-04-16T15:05:58Z</time>
      </trkpt>
      <trkpt lat="34.972616247832775" lon="-4.755660267546773">
        <ele>1594.483642578125</ele>
        <time>2011-04-16T15:06:06Z</time>
      </trkpt>
      <trkpt lat="34.972630497068167" lon="-4.755272520706058">
        <ele>1595.445068359375</ele>
        <time>2011-04-16T15:06:08Z</time>
      </trkpt>
      <trkpt lat="34.972941381856799" lon="-4.753910629078746">
        <ele>1599.29052734375</ele>
        <time>2011-04-16T15:06:16Z</time>
      </trkpt>
      <trkpt lat="34.973435578867793" lon="-4.753307048231363">
        <ele>1601.213134765625</ele>
        <time>2011-04-16T15:06:22Z</time>
      </trkpt>
      <trkpt lat="34.973562229424715" lon="-4.753262624144554">
        <ele>1601.69384765625</ele>
        <time>2011-04-16T15:06:23Z</time>
      </trkpt>
      <trkpt lat="34.973924998193979" lon="-4.75317595526576">
        <ele>1603.1357421875</ele>
        <time>2011-04-16T15:06:26Z</time>
      </trkpt>
      <trkpt lat="34.974561017006636" lon="-4.752648398280144">
        <ele>1606.01953125</ele>
        <time>2011-04-16T15:06:32Z</time>
      </trkpt>
      <trkpt lat="34.974741982296109" lon="-4.752431139349937">
        <ele>1606.98095703125</ele>
        <time>2011-04-16T15:06:34Z</time>
      </trkpt>
      <trkpt lat="34.974914398044348" lon="-4.751882376149297">
        <ele>1608.4228515625</ele>
        <time>2011-04-16T15:06:38Z</time>
      </trkpt>
      <trkpt lat="34.974966365844011" lon="-4.750338429585099">
        <ele>1609.86474609375</ele>
        <time>2011-04-16T15:06:46Z</time>
      </trkpt>
      <trkpt lat="34.975257636979222" lon="-4.749796371906996">
        <ele>1609.38427734375</ele>
        <time>2011-04-16T15:06:51Z</time>
      </trkpt>
      <trkpt lat="34.975366769358516" lon="-4.74973845295608">
        <ele>1608.4228515625</ele>
        <time>2011-04-16T15:06:52Z</time>
      </trkpt>
      <trkpt lat="34.975963057950139" lon="-4.74967097863555">
        <ele>1605.058349609375</ele>
        <time>2011-04-16T15:06:58Z</time>
      </trkpt>
      <trkpt lat="34.976573260501027" lon="-4.749636864289641">
        <ele>1600.732421875</ele>
        <time>2011-04-16T15:07:04Z</time>
      </trkpt>
      <trkpt lat="34.976843576878309" lon="-4.749117018654943">
        <ele>1598.809814453125</ele>
        <time>2011-04-16T15:07:09Z</time>
      </trkpt>
      <trkpt lat="34.976718267425895" lon="-4.748646374791861">
        <ele>1601.213134765625</ele>
        <time>2011-04-16T15:07:13Z</time>
      </trkpt>
      <trkpt lat="34.976655067875981" lon="-4.748542942106724">
        <ele>1602.17431640625</ele>
        <time>2011-04-16T15:07:14Z</time>
      </trkpt>
      <trkpt lat="34.976455327123404" lon="-4.748247480019927">
        <ele>1606.01953125</ele>
        <time>2011-04-16T15:07:17Z</time>
      </trkpt>
      <trkpt lat="34.97632565908134" lon="-4.747829893603921">
        <ele>1609.38427734375</ele>
        <time>2011-04-16T15:07:21Z</time>
      </trkpt>
      <trkpt lat="34.97633202932775" lon="-4.747311724349856">
        <ele>1611.306884765625</ele>
        <time>2011-04-16T15:07:25Z</time>
      </trkpt>
      <trkpt lat="34.976099682971835" lon="-4.746582247316837">
        <ele>1617.074951171875</ele>
        <time>2011-04-16T15:07:31Z</time>
      </trkpt>
      <trkpt lat="34.9757319688797" lon="-4.746173294261098">
        <ele>1619.478271484375</ele>
        <time>2011-04-16T15:07:35Z</time>
      </trkpt>
      <trkpt lat="34.975100727751851" lon="-4.745815554633737">
        <ele>1620.920166015625</ele>
        <time>2011-04-16T15:07:41Z</time>
      </trkpt>
      <trkpt lat="34.97479478828609" lon="-4.74539109505713">
        <ele>1623.803955078125</ele>
        <time>2011-04-16T15:07:46Z</time>
      </trkpt>
      <trkpt lat="34.974796632304788" lon="-4.745145589113236">
        <ele>1625.245849609375</ele>
        <time>2011-04-16T15:07:48Z</time>
      </trkpt>
      <trkpt lat="34.974898975342512" lon="-4.744407059624791">
        <ele>1629.09130859375</ele>
        <time>2011-04-16T15:07:53Z</time>
      </trkpt>
      <trkpt lat="34.975269120186567" lon="-4.743494521826506">
        <ele>1633.89794921875</ele>
        <time>2011-04-16T15:07:59Z</time>
      </trkpt>
      <trkpt lat="34.975343719124794" lon="-4.742908123880625">
        <ele>1637.7431640625</ele>
        <time>2011-04-16T15:08:03Z</time>
      </trkpt>
      <trkpt lat="34.975136099383235" lon="-4.741753935813904">
        <ele>1644.472412109375</ele>
        <time>2011-04-16T15:08:10Z</time>
      </trkpt>
      <trkpt lat="34.974995199590921" lon="-4.741326626390219">
        <ele>1646.875732421875</ele>
        <time>2011-04-16T15:08:13Z</time>
      </trkpt>
      <trkpt lat="34.974702084437013" lon="-4.740970730781555">
        <ele>1650.240478515625</ele>
        <time>2011-04-16T15:08:17Z</time>
      </trkpt>
      <trkpt lat="34.974505947902799" lon="-4.740840895101428">
        <ele>1652.162841796875</ele>
        <time>2011-04-16T15:08:19Z</time>
      </trkpt>
      <trkpt lat="34.974036728963256" lon="-4.740323396399617">
        <ele>1656.48876953125</ele>
        <time>2011-04-16T15:08:24Z</time>
      </trkpt>
      <trkpt lat="34.973272886127234" lon="-4.739776477217674">
        <ele>1663.21826171875</ele>
        <time>2011-04-16T15:08:31Z</time>
      </trkpt>
      <trkpt lat="34.972640052437782" lon="-4.739126292988658">
        <ele>1668.50537109375</ele>
        <time>2011-04-16T15:08:37Z</time>
      </trkpt>
      <trkpt lat="34.972078297287226" lon="-4.738376280292869">
        <ele>1673.31201171875</ele>
        <time>2011-04-16T15:08:43Z</time>
      </trkpt>
      <trkpt lat="34.971887860447168" lon="-4.737699860706925">
        <ele>1677.157470703125</ele>
        <time>2011-04-16T15:08:48Z</time>
      </trkpt>
      <trkpt lat="34.971859278157353" lon="-4.737278753891587">
        <ele>1679.560546875</ele>
        <time>2011-04-16T15:08:51Z</time>
      </trkpt>
      <trkpt lat="34.971576891839504" lon="-4.736752286553383">
        <ele>1682.444580078125</ele>
        <time>2011-04-16T15:08:56Z</time>
      </trkpt>
      <trkpt lat="34.970519263297319" lon="-4.735770933330059">
        <ele>1680.041259765625</ele>
        <time>2011-04-16T15:09:06Z</time>
      </trkpt>
      <trkpt lat="34.969914089888334" lon="-4.734062869101763">
        <ele>1670.90869140625</ele>
        <time>2011-04-16T15:09:19Z</time>
      </trkpt>
      <trkpt lat="34.969670930877328" lon="-4.733202299103141">
        <ele>1665.140869140625</ele>
        <time>2011-04-16T15:09:25Z</time>
      </trkpt>
      <trkpt lat="34.969386616721749" lon="-4.732770044356585">
        <ele>1661.295654296875</ele>
        <time>2011-04-16T15:09:29Z</time>
      </trkpt>
      <trkpt lat="34.968675160780549" lon="-4.731994718313217">
        <ele>1655.046875</ele>
        <time>2011-04-16T15:09:38Z</time>
      </trkpt>
      <trkpt lat="34.968290431424975" lon="-4.731193240731955">
        <ele>1652.6435546875</ele>
        <time>2011-04-16T15:09:45Z</time>
      </trkpt>
      <trkpt lat="34.96812991797924" lon="-4.730881182476878">
        <ele>1651.20166015625</ele>
        <time>2011-04-16T15:09:48Z</time>
      </trkpt>
      <trkpt lat="34.967824565246701" lon="-4.730615643784404">
        <ele>1648.79833984375</ele>
        <time>2011-04-16T15:09:52Z</time>
      </trkpt>
      <trkpt lat="34.967483254149556" lon="-4.73003544844687">
        <ele>1646.875732421875</ele>
        <time>2011-04-16T15:09:58Z</time>
      </trkpt>
      <trkpt lat="34.967461545020342" lon="-4.729911228641868">
        <ele>1646.875732421875</ele>
        <time>2011-04-16T15:09:59Z</time>
      </trkpt>
      <trkpt lat="34.967376049607992" lon="-4.729375876486301">
        <ele>1646.395263671875</ele>
        <time>2011-04-16T15:10:03Z</time>
      </trkpt>
      <trkpt lat="34.967588195577264" lon="-4.728360325098038">
        <ele>1645.433837890625</ele>
        <time>2011-04-16T15:10:10Z</time>
      </trkpt>
      <trkpt lat="34.967673942446709" lon="-4.727252740412951">
        <ele>1639.665771484375</ele>
        <time>2011-04-16T15:10:18Z</time>
      </trkpt>
      <trkpt lat="34.967427598312497" lon="-4.726628959178925">
        <ele>1635.33984375</ele>
        <time>2011-04-16T15:10:24Z</time>
      </trkpt>
      <trkpt lat="34.96734855696559" lon="-4.72654128447175">
        <ele>1634.378662109375</ele>
        <time>2011-04-16T15:10:25Z</time>
      </trkpt>
      <trkpt lat="34.967016465961933" lon="-4.726176839321852">
        <ele>1629.572021484375</ele>
        <time>2011-04-16T15:10:29Z</time>
      </trkpt>
      <trkpt lat="34.966852851212025" lon="-4.725567977875471">
        <ele>1623.803955078125</ele>
        <time>2011-04-16T15:10:35Z</time>
      </trkpt>
      <trkpt lat="34.966678423807025" lon="-4.724782258272171">
        <ele>1620.920166015625</ele>
        <time>2011-04-16T15:10:42Z</time>
      </trkpt>
      <trkpt lat="34.966491675004363" lon="-4.724336173385382">
        <ele>1618.516845703125</ele>
        <time>2011-04-16T15:10:46Z</time>
      </trkpt>
      <trkpt lat="34.966653948649764" lon="-4.723834851756692">
        <ele>1619.958740234375</ele>
        <time>2011-04-16T15:10:51Z</time>
      </trkpt>
      <trkpt lat="34.966794094070792" lon="-4.723706776276231">
        <ele>1620.920166015625</ele>
        <time>2011-04-16T15:10:53Z</time>
      </trkpt>
      <trkpt lat="34.967193491756916" lon="-4.723365548998117">
        <ele>1619.478271484375</ele>
        <time>2011-04-16T15:10:58Z</time>
      </trkpt>
      <trkpt lat="34.967433381825686" lon="-4.72278225235641">
        <ele>1618.0361328125</ele>
        <time>2011-04-16T15:11:04Z</time>
      </trkpt>
      <trkpt lat="34.967558942735195" lon="-4.722146149724722">
        <ele>1613.229736328125</ele>
        <time>2011-04-16T15:11:09Z</time>
      </trkpt>
      <trkpt lat="34.96789975091815" lon="-4.721499988809228">
        <ele>1607.461669921875</ele>
        <time>2011-04-16T15:11:15Z</time>
      </trkpt>
      <trkpt lat="34.968022629618645" lon="-4.72087612375617">
        <ele>1604.09716796875</ele>
        <time>2011-04-16T15:11:21Z</time>
      </trkpt>
      <trkpt lat="34.967771926894784" lon="-4.719783961772919">
        <ele>1596.88720703125</ele>
        <time>2011-04-16T15:11:31Z</time>
      </trkpt>
      <trkpt lat="34.967644941061735" lon="-4.719439297914505">
        <ele>1594.96435546875</ele>
        <time>2011-04-16T15:11:34Z</time>
      </trkpt>
      <trkpt lat="34.96748392470181" lon="-4.718540422618389">
        <ele>1590.157958984375</ele>
        <time>2011-04-16T15:11:41Z</time>
      </trkpt>
      <trkpt lat="34.967625495046377" lon="-4.717740537598729">
        <ele>1588.716064453125</ele>
        <time>2011-04-16T15:11:47Z</time>
      </trkpt>
      <trkpt lat="34.967521475628018" lon="-4.717033272609115">
        <ele>1585.351318359375</ele>
        <time>2011-04-16T15:11:53Z</time>
      </trkpt>
      <trkpt lat="34.96740622445941" lon="-4.716881979256868">
        <ele>1583.909423828125</ele>
        <time>2011-04-16T15:11:55Z</time>
      </trkpt>
      <trkpt lat="34.966701725497842" lon="-4.716215366497636">
        <ele>1578.6220703125</ele>
        <time>2011-04-16T15:12:04Z</time>
      </trkpt>
      <trkpt lat="34.966417159885168" lon="-4.715540539473295">
        <ele>1576.21875</ele>
        <time>2011-04-16T15:12:11Z</time>
      </trkpt>
      <trkpt lat="34.966166457161307" lon="-4.714066749438644">
        <ele>1568.047607421875</ele>
        <time>2011-04-16T15:12:23Z</time>
      </trkpt>
      <trkpt lat="34.965947773307562" lon="-4.713494349271059">
        <ele>1563.721435546875</ele>
        <time>2011-04-16T15:12:29Z</time>
      </trkpt>
      <trkpt lat="34.965585926547647" lon="-4.713149517774582">
        <ele>1559.395751953125</ele>
        <time>2011-04-16T15:12:34Z</time>
      </trkpt>
      <trkpt lat="34.965405464172363" lon="-4.712364720180631">
        <ele>1557.953857421875</ele>
        <time>2011-04-16T15:12:41Z</time>
      </trkpt>
      <trkpt lat="34.965505627915263" lon="-4.71169576048851">
        <ele>1558.9150390625</ele>
        <time>2011-04-16T15:12:46Z</time>
      </trkpt>
      <trkpt lat="34.96588122099638" lon="-4.711017496883869">
        <ele>1557.953857421875</ele>
        <time>2011-04-16T15:12:53Z</time>
      </trkpt>
      <trkpt lat="34.965948862954974" lon="-4.710320373997092">
        <ele>1559.395751953125</ele>
        <time>2011-04-16T15:13:00Z</time>
      </trkpt>
      <trkpt lat="34.965817518532276" lon="-4.709726767614484">
        <ele>1560.837646484375</ele>
        <time>2011-04-16T15:13:06Z</time>
      </trkpt>
      <trkpt lat="34.965837886556983" lon="-4.709313875064254">
        <ele>1562.279541015625</ele>
        <time>2011-04-16T15:13:10Z</time>
      </trkpt>
      <trkpt lat="34.966077692806721" lon="-4.708635192364454">
        <ele>1564.202392578125</ele>
        <time>2011-04-16T15:13:16Z</time>
      </trkpt>
      <trkpt lat="34.966109795495868" lon="-4.707525931298733">
        <ele>1568.047607421875</ele>
        <time>2011-04-16T15:13:24Z</time>
      </trkpt>
      <trkpt lat="34.96585481800139" lon="-4.706590594723821">
        <ele>1570.450927734375</ele>
        <time>2011-04-16T15:13:31Z</time>
      </trkpt>
      <trkpt lat="34.965802179649472" lon="-4.706489844247699">
        <ele>1570.931640625</ele>
        <time>2011-04-16T15:13:32Z</time>
      </trkpt>
      <trkpt lat="34.965400770306587" lon="-4.706154149025679">
        <ele>1573.8154296875</ele>
        <time>2011-04-16T15:13:38Z</time>
      </trkpt>
      <trkpt lat="34.965103296563029" lon="-4.706087931990624">
        <ele>1575.738037109375</ele>
        <time>2011-04-16T15:13:45Z</time>
      </trkpt>
      <trkpt lat="34.964954433962703" lon="-4.70597586594522">
        <ele>1576.21875</ele>
        <time>2011-04-16T15:14:47Z</time>
      </trkpt>
      <trkpt lat="34.964730469509959" lon="-4.705668753013015">
        <ele>1577.66064453125</ele>
        <time>2011-04-16T15:14:52Z</time>
      </trkpt>
      <trkpt lat="34.964636173099279" lon="-4.705283688381314">
        <ele>1578.6220703125</ele>
        <time>2011-04-16T15:14:56Z</time>
      </trkpt>
      <trkpt lat="34.964596191421151" lon="-4.704186916351318">
        <ele>1575.738037109375</ele>
        <time>2011-04-16T15:15:05Z</time>
      </trkpt>
      <trkpt lat="34.964553276076913" lon="-4.702859474346042">
        <ele>1575.738037109375</ele>
        <time>2011-04-16T15:15:14Z</time>
      </trkpt>
      <trkpt lat="34.964494770392776" lon="-4.701084271073341">
        <ele>1581.98681640625</ele>
        <time>2011-04-16T15:15:26Z</time>
      </trkpt>
      <trkpt lat="34.964497955515981" lon="-4.70077196136117">
        <ele>1582.947998046875</ele>
        <time>2011-04-16T15:15:28Z</time>
      </trkpt>
      <trkpt lat="34.964673221111298" lon="-4.700204338878393">
        <ele>1585.351318359375</ele>
        <time>2011-04-16T15:15:32Z</time>
      </trkpt>
      <trkpt lat="34.965591793879867" lon="-4.698604065924883">
        <ele>1588.716064453125</ele>
        <time>2011-04-16T15:15:43Z</time>
      </trkpt>
      <trkpt lat="34.966333843767643" lon="-4.697347367182374">
        <ele>1590.157958984375</ele>
        <time>2011-04-16T15:15:51Z</time>
      </trkpt>
      <trkpt lat="34.967014538124204" lon="-4.696575226262212">
        <ele>1590.638427734375</ele>
        <time>2011-04-16T15:15:57Z</time>
      </trkpt>
      <trkpt lat="34.967648293823004" lon="-4.695854550227523">
        <ele>1591.119140625</ele>
        <time>2011-04-16T15:16:03Z</time>
      </trkpt>
      <trkpt lat="34.968426385894418" lon="-4.694967744871974">
        <ele>1590.638427734375</ele>
        <time>2011-04-16T15:16:10Z</time>
      </trkpt>
      <trkpt lat="34.969102051109076" lon="-4.693958563730121">
        <ele>1594.483642578125</ele>
        <time>2011-04-16T15:16:17Z</time>
      </trkpt>
      <trkpt lat="34.969805628061295" lon="-4.69246432185173">
        <ele>1602.17431640625</ele>
        <time>2011-04-16T15:16:26Z</time>
      </trkpt>
      <trkpt lat="34.96975508518517" lon="-4.691693941131234">
        <ele>1603.1357421875</ele>
        <time>2011-04-16T15:16:31Z</time>
      </trkpt>
      <trkpt lat="34.969628769904375" lon="-4.69119094312191">
        <ele>1603.1357421875</ele>
        <time>2011-04-16T15:16:34Z</time>
      </trkpt>
      <trkpt lat="34.968997528776526" lon="-4.690253594890237">
        <ele>1601.213134765625</ele>
        <time>2011-04-16T15:16:41Z</time>
      </trkpt>
      <trkpt lat="34.968155063688755" lon="-4.689028076827526">
        <ele>1602.655029296875</ele>
        <time>2011-04-16T15:16:50Z</time>
      </trkpt>
      <trkpt lat="34.967302624136209" lon="-4.688156861811876">
        <ele>1598.809814453125</ele>
        <time>2011-04-16T15:16:58Z</time>
      </trkpt>
      <trkpt lat="34.966556383296847" lon="-4.687123289331794">
        <ele>1591.599853515625</ele>
        <time>2011-04-16T15:17:06Z</time>
      </trkpt>
      <trkpt lat="34.966105856001377" lon="-4.685869021341205">
        <ele>1589.196533203125</ele>
        <time>2011-04-16T15:17:14Z</time>
      </trkpt>
      <trkpt lat="34.965687934309244" lon="-4.685432324185967">
        <ele>1587.754638671875</ele>
        <time>2011-04-16T15:17:19Z</time>
      </trkpt>
      <trkpt lat="34.965469753369689" lon="-4.685376835986972">
        <ele>1587.754638671875</ele>
        <time>2011-04-16T15:17:21Z</time>
      </trkpt>
      <trkpt lat="34.964760895818472" lon="-4.685266362503171">
        <ele>1588.2353515625</ele>
        <time>2011-04-16T15:17:27Z</time>
      </trkpt>
      <trkpt lat="34.964119261130691" lon="-4.684737380594015">
        <ele>1588.716064453125</ele>
        <time>2011-04-16T15:17:34Z</time>
      </trkpt>
      <trkpt lat="34.964038040488958" lon="-4.68463352881372">
        <ele>1588.716064453125</ele>
        <time>2011-04-16T15:17:35Z</time>
      </trkpt>
      <trkpt lat="34.963196748867631" lon="-4.683979824185371">
        <ele>1593.5224609375</ele>
        <time>2011-04-16T15:17:44Z</time>
      </trkpt>
      <trkpt lat="34.963105218484998" lon="-4.68392794020474">
        <ele>1593.5224609375</ele>
        <time>2011-04-16T15:17:45Z</time>
      </trkpt>
      <trkpt lat="34.962447742000222" lon="-4.683675477281213">
        <ele>1595.92578125</ele>
        <time>2011-04-16T15:17:52Z</time>
      </trkpt>
      <trkpt lat="34.961682222783566" lon="-4.682983718812466">
        <ele>1594.96435546875</ele>
        <time>2011-04-16T15:18:00Z</time>
      </trkpt>
      <trkpt lat="34.961285255849361" lon="-4.682419616729021">
        <ele>1592.561279296875</ele>
        <time>2011-04-16T15:18:05Z</time>
      </trkpt>
      <trkpt lat="34.960689470171928" lon="-4.681528452783823">
        <ele>1589.196533203125</ele>
        <time>2011-04-16T15:18:13Z</time>
      </trkpt>
      <trkpt lat="34.960541781038046" lon="-4.680964769795537">
        <ele>1586.793212890625</ele>
        <time>2011-04-16T15:18:17Z</time>
      </trkpt>
      <trkpt lat="34.96063188649714" lon="-4.679762218147516">
        <ele>1583.4287109375</ele>
        <time>2011-04-16T15:18:25Z</time>
      </trkpt>
      <trkpt lat="34.960747556760907" lon="-4.678726717829704">
        <ele>1583.909423828125</ele>
        <time>2011-04-16T15:18:32Z</time>
      </trkpt>
      <trkpt lat="34.960954170674086" lon="-4.678151216357946">
        <ele>1588.716064453125</ele>
        <time>2011-04-16T15:18:36Z</time>
      </trkpt>
      <trkpt lat="34.960956517606974" lon="-4.677327275276184">
        <ele>1591.119140625</ele>
        <time>2011-04-16T15:18:42Z</time>
      </trkpt>
      <trkpt lat="34.960932293906808" lon="-4.677180759608746">
        <ele>1591.119140625</ele>
        <time>2011-04-16T15:18:43Z</time>
      </trkpt>
      <trkpt lat="34.960506241768599" lon="-4.676284063607454">
        <ele>1592.08056640625</ele>
        <time>2011-04-16T15:18:50Z</time>
      </trkpt>
      <trkpt lat="34.960282864049077" lon="-4.675953146070242">
        <ele>1593.041748046875</ele>
        <time>2011-04-16T15:18:53Z</time>
      </trkpt>
      <trkpt lat="34.960257466882467" lon="-4.675279827788472">
        <ele>1590.638427734375</ele>
        <time>2011-04-16T15:18:58Z</time>
      </trkpt>
      <trkpt lat="34.960600035265088" lon="-4.674657052382827">
        <ele>1590.638427734375</ele>
        <time>2011-04-16T15:19:03Z</time>
      </trkpt>
      <trkpt lat="34.960666168481112" lon="-4.673956157639623">
        <ele>1591.119140625</ele>
        <time>2011-04-16T15:19:08Z</time>
      </trkpt>
      <trkpt lat="34.960651667788625" lon="-4.672407517209649">
        <ele>1600.732421875</ele>
        <time>2011-04-16T15:19:18Z</time>
      </trkpt>
      <trkpt lat="34.960548738017678" lon="-4.671500260010362">
        <ele>1605.5390625</ele>
        <time>2011-04-16T15:19:24Z</time>
      </trkpt>
      <trkpt lat="34.960558628663421" lon="-4.670839766040444">
        <ele>1607.461669921875</ele>
        <time>2011-04-16T15:19:28Z</time>
      </trkpt>
      <trkpt lat="34.96095584705472" lon="-4.669887330383062">
        <ele>1611.78759765625</ele>
        <time>2011-04-16T15:19:34Z</time>
      </trkpt>
      <trkpt lat="34.961105464026332" lon="-4.669425822794437">
        <ele>1612.7490234375</ele>
        <time>2011-04-16T15:19:37Z</time>
      </trkpt>
      <trkpt lat="34.960961295291781" lon="-4.668773291632533">
        <ele>1617.074951171875</ele>
        <time>2011-04-16T15:19:42Z</time>
      </trkpt>
      <trkpt lat="34.960911758244038" lon="-4.668642617762089">
        <ele>1617.074951171875</ele>
        <time>2011-04-16T15:19:43Z</time>
      </trkpt>
      <trkpt lat="34.960688296705484" lon="-4.667594460770488">
        <ele>1620.920166015625</ele>
        <time>2011-04-16T15:19:50Z</time>
      </trkpt>
      <trkpt lat="34.960661390796304" lon="-4.667273350059986">
        <ele>1620.920166015625</ele>
        <time>2011-04-16T15:19:52Z</time>
      </trkpt>
      <trkpt lat="34.960952326655388" lon="-4.665964348241687">
        <ele>1624.765380859375</ele>
        <time>2011-04-16T15:20:00Z</time>
      </trkpt>
      <trkpt lat="34.961528750136495" lon="-4.664442781358957">
        <ele>1638.223876953125</ele>
        <time>2011-04-16T15:20:09Z</time>
      </trkpt>
      <trkpt lat="34.961554231122136" lon="-4.664265252649784">
        <ele>1639.665771484375</ele>
        <time>2011-04-16T15:20:10Z</time>
      </trkpt>
      <trkpt lat="34.961614580824971" lon="-4.662903780117631">
        <ele>1645.91455078125</ele>
        <time>2011-04-16T15:20:18Z</time>
      </trkpt>
      <trkpt lat="34.961913982406259" lon="-4.661522023379803">
        <ele>1648.317626953125</ele>
        <time>2011-04-16T15:20:25Z</time>
      </trkpt>
      <trkpt lat="34.961977349594235" lon="-4.661103850230575">
        <ele>1648.79833984375</ele>
        <time>2011-04-16T15:20:27Z</time>
      </trkpt>
      <trkpt lat="34.96192429214716" lon="-4.659855030477047">
        <ele>1649.279052734375</ele>
        <time>2011-04-16T15:20:33Z</time>
      </trkpt>
      <trkpt lat="34.962035436183214" lon="-4.658601433038712">
        <ele>1649.759765625</ele>
        <time>2011-04-16T15:20:39Z</time>
      </trkpt>
      <trkpt lat="34.961791019886732" lon="-4.657156057655811">
        <ele>1651.682373046875</ele>
        <time>2011-04-16T15:20:46Z</time>
      </trkpt>
      <trkpt lat="34.961312999948859" lon="-4.655377585440874">
        <ele>1652.6435546875</ele>
        <time>2011-04-16T15:20:54Z</time>
      </trkpt>
      <trkpt lat="34.96072911657393" lon="-4.654242340475321">
        <ele>1653.60498046875</ele>
        <time>2011-04-16T15:21:00Z</time>
      </trkpt>
      <trkpt lat="34.95988572947681" lon="-4.653063677251339">
        <ele>1655.527587890625</ele>
        <time>2011-04-16T15:21:07Z</time>
      </trkpt>
      <trkpt lat="34.959334535524249" lon="-4.651985261589289">
        <ele>1656.008056640625</ele>
        <time>2011-04-16T15:21:13Z</time>
      </trkpt>
      <trkpt lat="34.959165640175343" lon="-4.651644872501493">
        <ele>1656.48876953125</ele>
        <time>2011-04-16T15:21:15Z</time>
      </trkpt>
      <trkpt lat="34.958213539794087" lon="-4.65054189786315">
        <ele>1659.853271484375</ele>
        <time>2011-04-16T15:21:23Z</time>
      </trkpt>
      <trkpt lat="34.957716995850205" lon="-4.650009730830789">
        <ele>1662.2568359375</ele>
        <time>2011-04-16T15:21:29Z</time>
      </trkpt>
      <trkpt lat="34.956844272091985" lon="-4.649033825844526">
        <ele>1662.2568359375</ele>
        <time>2011-04-16T15:21:39Z</time>
      </trkpt>
      <trkpt lat="34.955888064578176" lon="-4.647979382425547">
        <ele>1662.737548828125</ele>
        <time>2011-04-16T15:21:48Z</time>
      </trkpt>
      <trkpt lat="34.955504089593887" lon="-4.647515444085002">
        <ele>1663.69873046875</ele>
        <time>2011-04-16T15:21:52Z</time>
      </trkpt>
      <trkpt lat="34.954931270331144" lon="-4.646333679556847">
        <ele>1662.2568359375</ele>
        <time>2011-04-16T15:22:00Z</time>
      </trkpt>
      <trkpt lat="34.954084698110819" lon="-4.645417872816324">
        <ele>1662.737548828125</ele>
        <time>2011-04-16T15:22:08Z</time>
      </trkpt>
      <trkpt lat="34.953108541667461" lon="-4.644362255930901">
        <ele>1662.2568359375</ele>
        <time>2011-04-16T15:22:16Z</time>
      </trkpt>
      <trkpt lat="34.952270686626434" lon="-4.644020022824407">
        <ele>1661.7763671875</ele>
        <time>2011-04-16T15:22:22Z</time>
      </trkpt>
      <trkpt lat="34.951703567057848" lon="-4.644265864044428">
        <ele>1659.372802734375</ele>
        <time>2011-04-16T15:22:27Z</time>
      </trkpt>
      <trkpt lat="34.951567025855184" lon="-4.644741117954254">
        <ele>1657.930908203125</ele>
        <time>2011-04-16T15:22:30Z</time>
      </trkpt>
      <trkpt lat="34.95151991955936" lon="-4.645081255584955">
        <ele>1657.930908203125</ele>
        <time>2011-04-16T15:22:32Z</time>
      </trkpt>
      <trkpt lat="34.95149209164083" lon="-4.645548462867737">
        <ele>1657.930908203125</ele>
        <time>2011-04-16T15:22:35Z</time>
      </trkpt>
      <trkpt lat="34.951131669804454" lon="-4.646164951846004">
        <ele>1654.085693359375</ele>
        <time>2011-04-16T15:22:40Z</time>
      </trkpt>
      <trkpt lat="34.950710898265243" lon="-4.646267630159855">
        <ele>1651.682373046875</ele>
        <time>2011-04-16T15:22:43Z</time>
      </trkpt>
      <trkpt lat="34.94960498996079" lon="-4.646507687866688">
        <ele>1651.20166015625</ele>
        <time>2011-04-16T15:22:50Z</time>
      </trkpt>
      <trkpt lat="34.948687171563506" lon="-4.646934494376183">
        <ele>1650.240478515625</ele>
        <time>2011-04-16T15:22:56Z</time>
      </trkpt>
      <trkpt lat="34.948455328121781" lon="-4.647129625082016">
        <ele>1650.240478515625</ele>
        <time>2011-04-16T15:22:58Z</time>
      </trkpt>
      <trkpt lat="34.947922490537167" lon="-4.647384267300367">
        <ele>1650.240478515625</ele>
        <time>2011-04-16T15:23:03Z</time>
      </trkpt>
      <trkpt lat="34.947482859715819" lon="-4.647188549861312">
        <ele>1648.317626953125</ele>
        <time>2011-04-16T15:23:08Z</time>
      </trkpt>
      <trkpt lat="34.947285549715161" lon="-4.646798875182867">
        <ele>1647.3564453125</ele>
        <time>2011-04-16T15:23:11Z</time>
      </trkpt>
      <trkpt lat="34.947046162560582" lon="-4.645641837269068">
        <ele>1646.395263671875</ele>
        <time>2011-04-16T15:23:18Z</time>
      </trkpt>
      <trkpt lat="34.946923116222024" lon="-4.644025219604373">
        <ele>1643.510986328125</ele>
        <time>2011-04-16T15:23:26Z</time>
      </trkpt>
      <trkpt lat="34.946663025766611" lon="-4.641528334468603">
        <ele>1640.626953125</ele>
        <time>2011-04-16T15:23:37Z</time>
      </trkpt>
      <trkpt lat="34.946327246725559" lon="-4.638971351087093">
        <ele>1646.875732421875</ele>
        <time>2011-04-16T15:23:48Z</time>
      </trkpt>
      <trkpt lat="34.946393379941583" lon="-4.637646675109863">
        <ele>1649.759765625</ele>
        <time>2011-04-16T15:23:54Z</time>
      </trkpt>
      <trkpt lat="34.946331521496177" lon="-4.636561218649149">
        <ele>1651.20166015625</ele>
        <time>2011-04-16T15:24:00Z</time>
      </trkpt>
      <trkpt lat="34.946197830140591" lon="-4.635787317529321">
        <ele>1654.085693359375</ele>
        <time>2011-04-16T15:24:06Z</time>
      </trkpt>
      <trkpt lat="34.946037149056792" lon="-4.634649557992816">
        <ele>1657.4501953125</ele>
        <time>2011-04-16T15:24:14Z</time>
      </trkpt>
      <trkpt lat="34.945830032229424" lon="-4.633022462949157">
        <ele>1660.334228515625</ele>
        <time>2011-04-16T15:24:23Z</time>
      </trkpt>
      <trkpt lat="34.9456119351089" lon="-4.631203254684806">
        <ele>1664.66015625</ele>
        <time>2011-04-16T15:24:33Z</time>
      </trkpt>
      <trkpt lat="34.945678822696209" lon="-4.629219090566039">
        <ele>1669.466796875</ele>
        <time>2011-04-16T15:24:43Z</time>
      </trkpt>
      <trkpt lat="34.94603362865746" lon="-4.627952668815851">
        <ele>1672.831298828125</ele>
        <time>2011-04-16T15:24:50Z</time>
      </trkpt>
      <trkpt lat="34.946112921461463" lon="-4.62758956477046">
        <ele>1673.31201171875</ele>
        <time>2011-04-16T15:24:52Z</time>
      </trkpt>
      <trkpt lat="34.946123231202364" lon="-4.626198252663016">
        <ele>1674.75390625</ele>
        <time>2011-04-16T15:25:00Z</time>
      </trkpt>
      <trkpt lat="34.946230854839087" lon="-4.625563323497772">
        <ele>1674.273193359375</ele>
        <time>2011-04-16T15:25:05Z</time>
      </trkpt>
      <trkpt lat="34.94615382514894" lon="-4.624836863949895">
        <ele>1673.31201171875</ele>
        <time>2011-04-16T15:25:11Z</time>
      </trkpt>
      <trkpt lat="34.945890968665481" lon="-4.624456241726875">
        <ele>1672.831298828125</ele>
        <time>2011-04-16T15:25:15Z</time>
      </trkpt>
      <trkpt lat="34.944980945438147" lon="-4.623724669218063">
        <ele>1669.466796875</ele>
        <time>2011-04-16T15:25:25Z</time>
      </trkpt>
      <trkpt lat="34.944216348230839" lon="-4.623145563527942">
        <ele>1666.10205078125</ele>
        <time>2011-04-16T15:25:32Z</time>
      </trkpt>
      <trkpt lat="34.943061741068959" lon="-4.62230259552598">
        <ele>1661.295654296875</ele>
        <time>2011-04-16T15:25:42Z</time>
      </trkpt>
      <trkpt lat="34.942126236855984" lon="-4.621314955875278">
        <ele>1656.969482421875</ele>
        <time>2011-04-16T15:25:50Z</time>
      </trkpt>
      <trkpt lat="34.941289890557528" lon="-4.6200583409518">
        <ele>1653.60498046875</ele>
        <time>2011-04-16T15:25:59Z</time>
      </trkpt>
      <trkpt lat="34.941037930548191" lon="-4.619047734886408">
        <ele>1649.759765625</ele>
        <time>2011-04-16T15:26:06Z</time>
      </trkpt>
      <trkpt lat="34.94083559140563" lon="-4.618072584271431">
        <ele>1645.91455078125</ele>
        <time>2011-04-16T15:26:13Z</time>
      </trkpt>
      <trkpt lat="34.94051062501967" lon="-4.616906493902206">
        <ele>1643.510986328125</ele>
        <time>2011-04-16T15:26:22Z</time>
      </trkpt>
      <trkpt lat="34.940052218735218" lon="-4.616080038249493">
        <ele>1642.069091796875</ele>
        <time>2011-04-16T15:26:29Z</time>
      </trkpt>
      <trkpt lat="34.93945668451488" lon="-4.615567987784743">
        <ele>1641.107666015625</ele>
        <time>2011-04-16T15:26:35Z</time>
      </trkpt>
      <trkpt lat="34.939033566042781" lon="-4.615275291725993">
        <ele>1641.107666015625</ele>
        <time>2011-04-16T15:26:39Z</time>
      </trkpt>
      <trkpt lat="34.938469044864178" lon="-4.61521158926189">
        <ele>1641.107666015625</ele>
        <time>2011-04-16T15:26:44Z</time>
      </trkpt>
      <trkpt lat="34.937632698565722" lon="-4.615544099360704">
        <ele>1641.58837890625</ele>
        <time>2011-04-16T15:26:51Z</time>
      </trkpt>
      <trkpt lat="34.937160378322005" lon="-4.615446953102946">
        <ele>1643.0302734375</ele>
        <time>2011-04-16T15:26:56Z</time>
      </trkpt>
      <trkpt lat="34.937087539583445" lon="-4.61538115516305">
        <ele>1643.510986328125</ele>
        <time>2011-04-16T15:26:57Z</time>
      </trkpt>
      <trkpt lat="34.936563167721033" lon="-4.614705489948392">
        <ele>1645.433837890625</ele>
        <time>2011-04-16T15:27:05Z</time>
      </trkpt>
      <trkpt lat="34.936501979827881" lon="-4.614595854654908">
        <ele>1645.91455078125</ele>
        <time>2011-04-16T15:27:06Z</time>
      </trkpt>
      <trkpt lat="34.936388740316033" lon="-4.614241467788816">
        <ele>1645.433837890625</ele>
        <time>2011-04-16T15:27:09Z</time>
      </trkpt>
      <trkpt lat="34.936106773093343" lon="-4.613838382065296">
        <ele>1645.91455078125</ele>
        <time>2011-04-16T15:27:14Z</time>
      </trkpt>
      <trkpt lat="34.93569815531373" lon="-4.613331779837608">
        <ele>1647.3564453125</ele>
        <time>2011-04-16T15:27:20Z</time>
      </trkpt>
      <trkpt lat="34.935729168355465" lon="-4.613082082942128">
        <ele>1647.3564453125</ele>
        <time>2011-04-16T15:27:22Z</time>
      </trkpt>
      <trkpt lat="34.93597618304193" lon="-4.612124869599938">
        <ele>1647.3564453125</ele>
        <time>2011-04-16T15:27:29Z</time>
      </trkpt>
      <trkpt lat="34.935885742306709" lon="-4.611416850239039">
        <ele>1648.317626953125</ele>
        <time>2011-04-16T15:27:34Z</time>
      </trkpt>
      <trkpt lat="34.935394143685699" lon="-4.610879821702838">
        <ele>1648.317626953125</ele>
        <time>2011-04-16T15:27:40Z</time>
      </trkpt>
      <trkpt lat="34.935168586671352" lon="-4.610881078988314">
        <ele>1647.837158203125</ele>
        <time>2011-04-16T15:27:42Z</time>
      </trkpt>
      <trkpt lat="34.93476876989007" lon="-4.610821483656764">
        <ele>1646.395263671875</ele>
        <time>2011-04-16T15:27:46Z</time>
      </trkpt>
      <trkpt lat="34.934508847072721" lon="-4.610257297754288">
        <ele>1644.953125</ele>
        <time>2011-04-16T15:27:51Z</time>
      </trkpt>
      <trkpt lat="34.934498788788915" lon="-4.610129054635763">
        <ele>1643.510986328125</ele>
        <time>2011-04-16T15:27:52Z</time>
      </trkpt>
      <trkpt lat="34.934182455763221" lon="-4.608732042834163">
        <ele>1639.665771484375</ele>
        <time>2011-04-16T15:28:03Z</time>
      </trkpt>
      <trkpt lat="34.933766545727849" lon="-4.608010444790125">
        <ele>1637.262451171875</ele>
        <time>2011-04-16T15:28:10Z</time>
      </trkpt>
      <trkpt lat="34.933366226032376" lon="-4.607766196131706">
        <ele>1634.859375</ele>
        <time>2011-04-16T15:28:14Z</time>
      </trkpt>
      <trkpt lat="34.932914944365621" lon="-4.607641389593482">
        <ele>1631.01416015625</ele>
        <time>2011-04-16T15:28:19Z</time>
      </trkpt>
      <trkpt lat="34.932394847273827" lon="-4.607307286933065">
        <ele>1628.130126953125</ele>
        <time>2011-04-16T15:28:25Z</time>
      </trkpt>
      <trkpt lat="34.932294934988022" lon="-4.607237046584487">
        <ele>1627.649169921875</ele>
        <time>2011-04-16T15:28:26Z</time>
      </trkpt>
      <trkpt lat="34.931592866778374" lon="-4.607122549787164">
        <ele>1625.7265625</ele>
        <time>2011-04-16T15:28:32Z</time>
      </trkpt>
      <trkpt lat="34.93121886625886" lon="-4.606834882870317">
        <ele>1621.400634765625</ele>
        <time>2011-04-16T15:28:37Z</time>
      </trkpt>
      <trkpt lat="34.931203024461865" lon="-4.60635325871408">
        <ele>1620.920166015625</ele>
        <time>2011-04-16T15:28:41Z</time>
      </trkpt>
      <trkpt lat="34.931306792423129" lon="-4.605975653976202">
        <ele>1617.555419921875</ele>
        <time>2011-04-16T15:28:44Z</time>
      </trkpt>
      <trkpt lat="34.931645840406418" lon="-4.60479355417192">
        <ele>1614.671630859375</ele>
        <time>2011-04-16T15:28:53Z</time>
      </trkpt>
      <trkpt lat="34.931688588112593" lon="-4.604661036282778">
        <ele>1615.633056640625</ele>
        <time>2011-04-16T15:28:54Z</time>
      </trkpt>
      <trkpt lat="34.931853795424104" lon="-4.603966427966952">
        <ele>1615.633056640625</ele>
        <time>2011-04-16T15:28:59Z</time>
      </trkpt>
      <trkpt lat="34.932215726003051" lon="-4.603279950097203">
        <ele>1616.113525390625</ele>
        <time>2011-04-16T15:29:05Z</time>
      </trkpt>
      <trkpt lat="34.932223940268159" lon="-4.602757170796394">
        <ele>1614.19091796875</ele>
        <time>2011-04-16T15:29:10Z</time>
      </trkpt>
      <trkpt lat="34.931868799030781" lon="-4.602498337626457">
        <ele>1613.710205078125</ele>
        <time>2011-04-16T15:29:14Z</time>
      </trkpt>
      <trkpt lat="34.93147493340075" lon="-4.602515436708927">
        <ele>1613.229736328125</ele>
        <time>2011-04-16T15:29:18Z</time>
      </trkpt>
      <trkpt lat="34.931252729147673" lon="-4.602608559653163">
        <ele>1613.229736328125</ele>
        <time>2011-04-16T15:29:21Z</time>
      </trkpt>
      <trkpt lat="34.93087193928659" lon="-4.602530943229795">
        <ele>1611.78759765625</ele>
        <time>2011-04-16T15:29:27Z</time>
      </trkpt>
      <trkpt lat="34.930594163015485" lon="-4.602210251614451">
        <ele>1611.78759765625</ele>
        <time>2011-04-16T15:29:34Z</time>
      </trkpt>
      <trkpt lat="34.930443959310651" lon="-4.601821079850197">
        <ele>1612.268310546875</ele>
        <time>2011-04-16T15:29:39Z</time>
      </trkpt>
      <trkpt lat="34.93026508949697" lon="-4.601136865094304">
        <ele>1615.633056640625</ele>
        <time>2011-04-16T15:29:48Z</time>
      </trkpt>
      <trkpt lat="34.929997371509671" lon="-4.600392132997513">
        <ele>1620.439453125</ele>
        <time>2011-04-16T15:29:58Z</time>
      </trkpt>
      <trkpt lat="34.929973734542727" lon="-4.600150482729077">
        <ele>1620.920166015625</ele>
        <time>2011-04-16T15:30:01Z</time>
      </trkpt>
      <trkpt lat="34.930022768676281" lon="-4.599830294027925">
        <ele>1622.362060546875</ele>
        <time>2011-04-16T15:30:05Z</time>
      </trkpt>
      <trkpt lat="34.93009208701551" lon="-4.599483869969845">
        <ele>1624.28466796875</ele>
        <time>2011-04-16T15:30:09Z</time>
      </trkpt>
      <trkpt lat="34.930048668757081" lon="-4.59922956302762">
        <ele>1626.68798828125</ele>
        <time>2011-04-16T15:30:13Z</time>
      </trkpt>
      <trkpt lat="34.929900476709008" lon="-4.598951283842325">
        <ele>1629.572021484375</ele>
        <time>2011-04-16T15:30:18Z</time>
      </trkpt>
      <trkpt lat="34.929469563066959" lon="-4.598358348011971">
        <ele>1632.4560546875</ele>
        <time>2011-04-16T15:30:27Z</time>
      </trkpt>
      <trkpt lat="34.929143842309713" lon="-4.598057940602303">
        <ele>1632.9365234375</ele>
        <time>2011-04-16T15:30:34Z</time>
      </trkpt>
      <trkpt lat="34.928926499560475" lon="-4.597743786871433">
        <ele>1632.9365234375</ele>
        <time>2011-04-16T15:30:38Z</time>
      </trkpt>
      <trkpt lat="34.928836897015572" lon="-4.597557876259089">
        <ele>1633.417236328125</ele>
        <time>2011-04-16T15:30:40Z</time>
      </trkpt>
      <trkpt lat="34.9284693505615" lon="-4.597353441640735">
        <ele>1634.378662109375</ele>
        <time>2011-04-16T15:30:46Z</time>
      </trkpt>
      <trkpt lat="34.928336245939136" lon="-4.597441451624036">
        <ele>1634.378662109375</ele>
        <time>2011-04-16T15:30:48Z</time>
      </trkpt>
      <trkpt lat="34.927740376442671" lon="-4.598063053563237">
        <ele>1634.378662109375</ele>
        <time>2011-04-16T15:30:56Z</time>
      </trkpt>
      <trkpt lat="34.927315078675747" lon="-4.598302356898785">
        <ele>1634.378662109375</ele>
        <time>2011-04-16T15:31:03Z</time>
      </trkpt>
      <trkpt lat="34.927144842222333" lon="-4.598199594765902">
        <ele>1633.89794921875</ele>
        <time>2011-04-16T15:31:06Z</time>
      </trkpt>
      <trkpt lat="34.926946191117167" lon="-4.598033465445042">
        <ele>1633.417236328125</ele>
        <time>2011-04-16T15:31:09Z</time>
      </trkpt>
      <trkpt lat="34.926619632169604" lon="-4.597946628928185">
        <ele>1634.859375</ele>
        <time>2011-04-16T15:31:14Z</time>
      </trkpt>
      <trkpt lat="34.926446629688144" lon="-4.597986862063408">
        <ele>1635.820556640625</ele>
        <time>2011-04-16T15:31:17Z</time>
      </trkpt>
      <trkpt lat="34.925958719104528" lon="-4.598310822620988">
        <ele>1638.70458984375</ele>
        <time>2011-04-16T15:31:29Z</time>
      </trkpt>
      <trkpt lat="34.925507018342614" lon="-4.598258519545198">
        <ele>1639.18505859375</ele>
        <time>2011-04-16T15:31:37Z</time>
      </trkpt>
      <trkpt lat="34.92496688850224" lon="-4.597651837393642">
        <ele>1638.70458984375</ele>
        <time>2011-04-16T15:31:48Z</time>
      </trkpt>
      <trkpt lat="34.924340257421136" lon="-4.596927640959621">
        <ele>1637.262451171875</ele>
        <time>2011-04-16T15:31:56Z</time>
      </trkpt>
      <trkpt lat="34.924041191115975" lon="-4.59662614390254">
        <ele>1636.78173828125</ele>
        <time>2011-04-16T15:31:59Z</time>
      </trkpt>
      <trkpt lat="34.923496367409825" lon="-4.59644484333694">
        <ele>1634.378662109375</ele>
        <time>2011-04-16T15:32:04Z</time>
      </trkpt>
      <trkpt lat="34.923277348279953" lon="-4.596520699560642">
        <ele>1633.417236328125</ele>
        <time>2011-04-16T15:32:06Z</time>
      </trkpt>
      <trkpt lat="34.922288032248616" lon="-4.596990840509534">
        <ele>1631.49462890625</ele>
        <time>2011-04-16T15:32:16Z</time>
      </trkpt>
      <trkpt lat="34.922085525467992" lon="-4.597045322880149">
        <ele>1631.01416015625</ele>
        <time>2011-04-16T15:32:18Z</time>
      </trkpt>
      <trkpt lat="34.921471551060677" lon="-4.596880450844765">
        <ele>1629.09130859375</ele>
        <time>2011-04-16T15:32:25Z</time>
      </trkpt>
      <trkpt lat="34.921111632138491" lon="-4.596535284072161">
        <ele>1627.649169921875</ele>
        <time>2011-04-16T15:32:30Z</time>
      </trkpt>
      <trkpt lat="34.920643754303455" lon="-4.59647904150188">
        <ele>1626.68798828125</ele>
        <time>2011-04-16T15:32:35Z</time>
      </trkpt>
      <trkpt lat="34.920217953622341" lon="-4.596613487228751">
        <ele>1624.765380859375</ele>
        <time>2011-04-16T15:32:39Z</time>
      </trkpt>
      <trkpt lat="34.91987437941134" lon="-4.596358928829432">
        <ele>1622.8427734375</ele>
        <time>2011-04-16T15:32:44Z</time>
      </trkpt>
      <trkpt lat="34.919668855145574" lon="-4.595334492623806">
        <ele>1626.207275390625</ele>
        <time>2011-04-16T15:32:54Z</time>
      </trkpt>
      <trkpt lat="34.919547149911523" lon="-4.594948925077915">
        <ele>1625.245849609375</ele>
        <time>2011-04-16T15:32:57Z</time>
      </trkpt>
      <trkpt lat="34.919145489111543" lon="-4.594510970637202">
        <ele>1625.245849609375</ele>
        <time>2011-04-16T15:33:02Z</time>
      </trkpt>
      <trkpt lat="34.919069297611713" lon="-4.59419128485024">
        <ele>1625.7265625</ele>
        <time>2011-04-16T15:33:05Z</time>
      </trkpt>
      <trkpt lat="34.918978353962302" lon="-4.593131728470326">
        <ele>1623.323486328125</ele>
        <time>2011-04-16T15:33:13Z</time>
      </trkpt>
      <trkpt lat="34.918808452785015" lon="-4.592620180919766">
        <ele>1620.920166015625</ele>
        <time>2011-04-16T15:33:17Z</time>
      </trkpt>
      <trkpt lat="34.918817253783345" lon="-4.591977624222636">
        <ele>1616.59423828125</ele>
        <time>2011-04-16T15:33:22Z</time>
      </trkpt>
      <trkpt lat="34.918946838006377" lon="-4.591211685910821">
        <ele>1614.671630859375</ele>
        <time>2011-04-16T15:33:28Z</time>
      </trkpt>
      <trkpt lat="34.918682975694537" lon="-4.590732660144568">
        <ele>1610.826171875</ele>
        <time>2011-04-16T15:33:32Z</time>
      </trkpt>
      <trkpt lat="34.917714446783066" lon="-4.589735381305218">
        <ele>1603.1357421875</ele>
        <time>2011-04-16T15:33:42Z</time>
      </trkpt>
      <trkpt lat="34.917034590616822" lon="-4.589504795148969">
        <ele>1597.8486328125</ele>
        <time>2011-04-16T15:33:48Z</time>
      </trkpt>
      <trkpt lat="34.91650527343154" lon="-4.589226683601737">
        <ele>1593.5224609375</ele>
        <time>2011-04-16T15:33:54Z</time>
      </trkpt>
      <trkpt lat="34.916547099128366" lon="-4.588674064725637">
        <ele>1585.351318359375</ele>
        <time>2011-04-16T15:33:59Z</time>
      </trkpt>
      <trkpt lat="34.916597725823522" lon="-4.588565686717629">
        <ele>1584.870849609375</ele>
        <time>2011-04-16T15:34:00Z</time>
      </trkpt>
      <trkpt lat="34.916834179311991" lon="-4.587794383987784">
        <ele>1581.025634765625</ele>
        <time>2011-04-16T15:34:08Z</time>
      </trkpt>
      <trkpt lat="34.916866198182106" lon="-4.587201699614525">
        <ele>1578.6220703125</ele>
        <time>2011-04-16T15:34:14Z</time>
      </trkpt>
      <trkpt lat="34.916605772450566" lon="-4.586778832599521">
        <ele>1578.6220703125</ele>
        <time>2011-04-16T15:34:19Z</time>
      </trkpt>
      <trkpt lat="34.916422627866268" lon="-4.586659139022231">
        <ele>1578.6220703125</ele>
        <time>2011-04-16T15:34:21Z</time>
      </trkpt>
      <trkpt lat="34.916261527687311" lon="-4.58650273270905">
        <ele>1578.141357421875</ele>
        <time>2011-04-16T15:34:23Z</time>
      </trkpt>
      <trkpt lat="34.916221462190151" lon="-4.585943073034287">
        <ele>1574.77685546875</ele>
        <time>2011-04-16T15:34:28Z</time>
      </trkpt>
      <trkpt lat="34.916517343372107" lon="-4.585603689774871">
        <ele>1573.3349609375</ele>
        <time>2011-04-16T15:34:32Z</time>
      </trkpt>
      <trkpt lat="34.916677856817842" lon="-4.585451642051339">
        <ele>1574.77685546875</ele>
        <time>2011-04-16T15:34:34Z</time>
      </trkpt>
      <trkpt lat="34.916868796572089" lon="-4.585015280172229">
        <ele>1573.3349609375</ele>
        <time>2011-04-16T15:34:38Z</time>
      </trkpt>
      <trkpt lat="34.916928140446544" lon="-4.584536589682102">
        <ele>1570.450927734375</ele>
        <time>2011-04-16T15:34:42Z</time>
      </trkpt>
      <trkpt lat="34.916914058849216" lon="-4.584285970777273">
        <ele>1569.48974609375</ele>
        <time>2011-04-16T15:34:44Z</time>
      </trkpt>
      <trkpt lat="34.916857229545712" lon="-4.583017872646451">
        <ele>1563.721435546875</ele>
        <time>2011-04-16T15:34:54Z</time>
      </trkpt>
      <trkpt lat="34.916833341121674" lon="-4.582771193236113">
        <ele>1561.318359375</ele>
        <time>2011-04-16T15:34:56Z</time>
      </trkpt>
      <trkpt lat="34.91670903749764" lon="-4.582252940163016">
        <ele>1557.953857421875</ele>
        <time>2011-04-16T15:35:00Z</time>
      </trkpt>
      <trkpt lat="34.916132194921374" lon="-4.581164382398129">
        <ele>1550.743896484375</ele>
        <time>2011-04-16T15:35:09Z</time>
      </trkpt>
      <trkpt lat="34.916070085018873" lon="-4.581061787903309">
        <ele>1549.78271484375</ele>
        <time>2011-04-16T15:35:10Z</time>
      </trkpt>
      <trkpt lat="34.91555443033576" lon="-4.580660127103329">
        <ele>1544.975830078125</ele>
        <time>2011-04-16T15:35:16Z</time>
      </trkpt>
      <trkpt lat="34.915331974625587" lon="-4.580625342205167">
        <ele>1544.0146484375</ele>
        <time>2011-04-16T15:35:18Z</time>
      </trkpt>
      <trkpt lat="34.914914974942803" lon="-4.580595334991813">
        <ele>1541.611328125</ele>
        <time>2011-04-16T15:35:22Z</time>
      </trkpt>
      <trkpt lat="34.914453299716115" lon="-4.580277074128389">
        <ele>1539.688720703125</ele>
        <time>2011-04-16T15:35:28Z</time>
      </trkpt>
      <trkpt lat="34.914477355778217" lon="-4.579786062240601">
        <ele>1534.401611328125</ele>
        <time>2011-04-16T15:35:32Z</time>
      </trkpt>
      <trkpt lat="34.914497891440988" lon="-4.579649521037936">
        <ele>1533.9208984375</ele>
        <time>2011-04-16T15:35:33Z</time>
      </trkpt>
      <trkpt lat="34.914606520906091" lon="-4.579125819727778">
        <ele>1531.998046875</ele>
        <time>2011-04-16T15:35:37Z</time>
      </trkpt>
      <trkpt lat="34.914596881717443" lon="-4.57809048704803">
        <ele>1529.5947265625</ele>
        <time>2011-04-16T15:35:45Z</time>
      </trkpt>
      <trkpt lat="34.91450535133481" lon="-4.576850887387991">
        <ele>1526.7109375</ele>
        <time>2011-04-16T15:35:55Z</time>
      </trkpt>
      <trkpt lat="34.914493197575212" lon="-4.576439671218395">
        <ele>1525.74951171875</ele>
        <time>2011-04-16T15:35:58Z</time>
      </trkpt>
      <trkpt lat="34.914690423756838" lon="-4.575680186972022">
        <ele>1520.46240234375</ele>
        <time>2011-04-16T15:36:04Z</time>
      </trkpt>
      <trkpt lat="34.915208173915744" lon="-4.574712831526995">
        <ele>1509.8876953125</ele>
        <time>2011-04-16T15:36:13Z</time>
      </trkpt>
      <trkpt lat="34.915912672877312" lon="-4.573468957096338">
        <ele>1501.716796875</ele>
        <time>2011-04-16T15:36:25Z</time>
      </trkpt>
      <trkpt lat="34.916492281481624" lon="-4.572403449565172">
        <ele>1496.429443359375</ele>
        <time>2011-04-16T15:36:36Z</time>
      </trkpt>
      <trkpt lat="34.916761089116335" lon="-4.571946049109101">
        <ele>1495.468017578125</ele>
        <time>2011-04-16T15:36:45Z</time>
      </trkpt>
      <trkpt lat="34.917119247838855" lon="-4.571367865428329">
        <ele>1494.9873046875</ele>
        <time>2011-04-16T15:36:55Z</time>
      </trkpt>
      <trkpt lat="34.917598022148013" lon="-4.570520790293813">
        <ele>1494.506591796875</ele>
        <time>2011-04-16T15:37:05Z</time>
      </trkpt>
      <trkpt lat="34.918053662404418" lon="-4.56966944038868">
        <ele>1493.064697265625</ele>
        <time>2011-04-16T15:37:13Z</time>
      </trkpt>
      <trkpt lat="34.918405869975686" lon="-4.569021183997393">
        <ele>1492.584228515625</ele>
        <time>2011-04-16T15:37:20Z</time>
      </trkpt>
      <trkpt lat="34.918878190219402" lon="-4.568163966760039">
        <ele>1492.584228515625</ele>
        <time>2011-04-16T15:37:29Z</time>
      </trkpt>
      <trkpt lat="34.919473472982645" lon="-4.567079683765769">
        <ele>1492.103515625</ele>
        <time>2011-04-16T15:37:40Z</time>
      </trkpt>
      <trkpt lat="34.920103959739208" lon="-4.565918622538447">
        <ele>1492.103515625</ele>
        <time>2011-04-16T15:37:50Z</time>
      </trkpt>
      <trkpt lat="34.920616680756211" lon="-4.564970629289746">
        <ele>1494.9873046875</ele>
        <time>2011-04-16T15:37:59Z</time>
      </trkpt>
      <trkpt lat="34.921102579683065" lon="-4.564042584970594">
        <ele>1495.94873046875</ele>
        <time>2011-04-16T15:38:08Z</time>
      </trkpt>
      <trkpt lat="34.921383373439312" lon="-4.562929887324572">
        <ele>1494.506591796875</ele>
        <time>2011-04-16T15:38:17Z</time>
      </trkpt>
      <trkpt lat="34.921465935185552" lon="-4.561837976798415">
        <ele>1490.180908203125</ele>
        <time>2011-04-16T15:38:25Z</time>
      </trkpt>
      <trkpt lat="34.92154405452311" lon="-4.5603156555444">
        <ele>1488.25830078125</ele>
        <time>2011-04-16T15:38:37Z</time>
      </trkpt>
      <trkpt lat="34.921620916575193" lon="-4.558923756703734">
        <ele>1487.777587890625</ele>
        <time>2011-04-16T15:38:49Z</time>
      </trkpt>
      <trkpt lat="34.921720745041966" lon="-4.557032464072108">
        <ele>1487.296875</ele>
        <time>2011-04-16T15:39:03Z</time>
      </trkpt>
      <trkpt lat="34.921811269596219" lon="-4.555244268849492">
        <ele>1487.777587890625</ele>
        <time>2011-04-16T15:39:16Z</time>
      </trkpt>
      <trkpt lat="34.9218640755862" lon="-4.554215641692281">
        <ele>1489.7001953125</ele>
        <time>2011-04-16T15:39:25Z</time>
      </trkpt>
      <trkpt lat="34.921894753351808" lon="-4.553008479997516">
        <ele>1493.064697265625</ele>
        <time>2011-04-16T15:39:36Z</time>
      </trkpt>
      <trkpt lat="34.921856783330441" lon="-4.551696795970202">
        <ele>1496.429443359375</ele>
        <time>2011-04-16T15:39:46Z</time>
      </trkpt>
      <trkpt lat="34.921806491911411" lon="-4.550227867439389">
        <ele>1503.15869140625</ele>
        <time>2011-04-16T15:39:58Z</time>
      </trkpt>
      <trkpt lat="34.921772796660662" lon="-4.54910259693861">
        <ele>1505.081298828125</ele>
        <time>2011-04-16T15:40:06Z</time>
      </trkpt>
      <trkpt lat="34.921730635687709" lon="-4.547336446121335">
        <ele>1506.523193359375</ele>
        <time>2011-04-16T15:40:16Z</time>
      </trkpt>
      <trkpt lat="34.921677578240633" lon="-4.544964618980885">
        <ele>1509.4072265625</ele>
        <time>2011-04-16T15:40:28Z</time>
      </trkpt>
      <trkpt lat="34.921823171898723" lon="-4.544045962393284">
        <ele>1509.4072265625</ele>
        <time>2011-04-16T15:40:33Z</time>
      </trkpt>
      <trkpt lat="34.921953845769167" lon="-4.543498372659087">
        <ele>1510.368408203125</ele>
        <time>2011-04-16T15:40:36Z</time>
      </trkpt>
      <trkpt lat="34.921980751678348" lon="-4.542803764343262">
        <ele>1510.368408203125</ele>
        <time>2011-04-16T15:40:40Z</time>
      </trkpt>
      <trkpt lat="34.921797942370176" lon="-4.54092345200479">
        <ele>1513.25244140625</ele>
        <time>2011-04-16T15:40:51Z</time>
      </trkpt>
      <trkpt lat="34.921998856589198" lon="-4.539527529850602">
        <ele>1515.175048828125</ele>
        <time>2011-04-16T15:40:59Z</time>
      </trkpt>
      <trkpt lat="34.922067420557141" lon="-4.538843063637614">
        <ele>1518.05908203125</ele>
        <time>2011-04-16T15:41:03Z</time>
      </trkpt>
      <trkpt lat="34.921819232404232" lon="-4.538003280758858">
        <ele>1522.86572265625</ele>
        <time>2011-04-16T15:41:09Z</time>
      </trkpt>
      <trkpt lat="34.921632232144475" lon="-4.537800773978233">
        <ele>1524.788330078125</ele>
        <time>2011-04-16T15:41:11Z</time>
      </trkpt>
      <trkpt lat="34.921111967414618" lon="-4.537345385178924">
        <ele>1528.15283203125</ele>
        <time>2011-04-16T15:41:16Z</time>
      </trkpt>
      <trkpt lat="34.920754060149193" lon="-4.536541476845741">
        <ele>1531.517333984375</ele>
        <time>2011-04-16T15:41:22Z</time>
      </trkpt>
      <trkpt lat="34.920185348019004" lon="-4.535737568512559">
        <ele>1536.32421875</ele>
        <time>2011-04-16T15:41:29Z</time>
      </trkpt>
      <trkpt lat="34.919324778020382" lon="-4.53491136431694">
        <ele>1542.57275390625</ele>
        <time>2011-04-16T15:41:38Z</time>
      </trkpt>
      <trkpt lat="34.918795377016068" lon="-4.534526970237494">
        <ele>1544.975830078125</ele>
        <time>2011-04-16T15:41:43Z</time>
      </trkpt>
      <trkpt lat="34.918549871072173" lon="-4.533932358026505">
        <ele>1547.379150390625</ele>
        <time>2011-04-16T15:41:48Z</time>
      </trkpt>
      <trkpt lat="34.918564120307565" lon="-4.533787351101637">
        <ele>1547.85986328125</ele>
        <time>2011-04-16T15:41:49Z</time>
      </trkpt>
      <trkpt lat="34.918670486658812" lon="-4.532726621255279">
        <ele>1552.66650390625</ele>
        <time>2011-04-16T15:41:56Z</time>
      </trkpt>
      <trkpt lat="34.91839287802577" lon="-4.531957749277353">
        <ele>1557.953857421875</ele>
        <time>2011-04-16T15:42:02Z</time>
      </trkpt>
      <trkpt lat="34.917875966057181" lon="-4.531449554488063">
        <ele>1561.799072265625</ele>
        <time>2011-04-16T15:42:07Z</time>
      </trkpt>
      <trkpt lat="34.917381098493934" lon="-4.531443268060684">
        <ele>1565.64453125</ele>
        <time>2011-04-16T15:42:11Z</time>
      </trkpt>
      <trkpt lat="34.917273558676243" lon="-4.531498337164521">
        <ele>1566.125</ele>
        <time>2011-04-16T15:42:12Z</time>
      </trkpt>
      <trkpt lat="34.91694406606257" lon="-4.531696569174528">
        <ele>1568.5283203125</ele>
        <time>2011-04-16T15:42:15Z</time>
      </trkpt>
      <trkpt lat="34.91656637750566" lon="-4.532055230811238">
        <ele>1569.48974609375</ele>
        <time>2011-04-16T15:42:19Z</time>
      </trkpt>
      <trkpt lat="34.916005879640579" lon="-4.532280620187521">
        <ele>1570.931640625</ele>
        <time>2011-04-16T15:42:24Z</time>
      </trkpt>
      <trkpt lat="34.915642188861966" lon="-4.532033773139119">
        <ele>1571.412109375</ele>
        <time>2011-04-16T15:42:28Z</time>
      </trkpt>
      <trkpt lat="34.915432725101709" lon="-4.531540665775538">
        <ele>1570.450927734375</ele>
        <time>2011-04-16T15:42:32Z</time>
      </trkpt>
      <trkpt lat="34.915558872744441" lon="-4.531004978343844">
        <ele>1570.450927734375</ele>
        <time>2011-04-16T15:42:36Z</time>
      </trkpt>
      <trkpt lat="34.915807647630572" lon="-4.530667774379253">
        <ele>1571.412109375</ele>
        <time>2011-04-16T15:42:39Z</time>
      </trkpt>
      <trkpt lat="34.916103444993496" lon="-4.530384549871087">
        <ele>1569.009033203125</ele>
        <time>2011-04-16T15:42:42Z</time>
      </trkpt>
      <trkpt lat="34.916317099705338" lon="-4.529755488038063">
        <ele>1565.163818359375</ele>
        <time>2011-04-16T15:42:47Z</time>
      </trkpt>
      <trkpt lat="34.916375186294317" lon="-4.529088623821735">
        <ele>1560.837646484375</ele>
        <time>2011-04-16T15:42:54Z</time>
      </trkpt>
      <trkpt lat="34.916705265641212" lon="-4.528746977448463">
        <ele>1558.434326171875</ele>
        <time>2011-04-16T15:43:00Z</time>
      </trkpt>
      <trkpt lat="34.91693333722651" lon="-4.528720825910568">
        <ele>1557.47314453125</ele>
        <time>2011-04-16T15:43:03Z</time>
      </trkpt>
      <trkpt lat="34.917573379352689" lon="-4.528538687154651">
        <ele>1555.550537109375</ele>
        <time>2011-04-16T15:43:11Z</time>
      </trkpt>
      <trkpt lat="34.918434787541628" lon="-4.527891436591744">
        <ele>1553.6279296875</ele>
        <time>2011-04-16T15:43:23Z</time>
      </trkpt>
      <trkpt lat="34.919048175215721" lon="-4.527240162715316">
        <ele>1551.224609375</ele>
        <time>2011-04-16T15:43:32Z</time>
      </trkpt>
      <trkpt lat="34.919260991737247" lon="-4.526942353695631">
        <ele>1549.78271484375</ele>
        <time>2011-04-16T15:43:35Z</time>
      </trkpt>
      <trkpt lat="34.919360484927893" lon="-4.526364672929049">
        <ele>1546.41796875</ele>
        <time>2011-04-16T15:43:40Z</time>
      </trkpt>
      <trkpt lat="34.919329639524221" lon="-4.52624598518014">
        <ele>1545.45654296875</ele>
        <time>2011-04-16T15:43:41Z</time>
      </trkpt>
      <trkpt lat="34.919297872111201" lon="-4.525568224489689">
        <ele>1542.092041015625</ele>
        <time>2011-04-16T15:43:47Z</time>
      </trkpt>
      <trkpt lat="34.91942485794425" lon="-4.525373429059982">
        <ele>1541.130615234375</ele>
        <time>2011-04-16T15:43:49Z</time>
      </trkpt>
      <trkpt lat="34.91969701834023" lon="-4.524737326428294">
        <ele>1538.246826171875</ele>
        <time>2011-04-16T15:43:55Z</time>
      </trkpt>
      <trkpt lat="34.919817550107837" lon="-4.523818669840694">
        <ele>1534.88232421875</ele>
        <time>2011-04-16T15:44:04Z</time>
      </trkpt>
      <trkpt lat="34.920060038566589" lon="-4.522758442908526">
        <ele>1531.517333984375</ele>
        <time>2011-04-16T15:44:15Z</time>
      </trkpt>
      <trkpt lat="34.920131955295801" lon="-4.521945230662823">
        <ele>1528.633544921875</ele>
        <time>2011-04-16T15:44:24Z</time>
      </trkpt>
      <trkpt lat="34.920072359964252" lon="-4.5214525423944">
        <ele>1526.7109375</ele>
        <time>2011-04-16T15:44:29Z</time>
      </trkpt>
      <trkpt lat="34.920093566179276" lon="-4.520917274057865">
        <ele>1524.3076171875</ele>
        <time>2011-04-16T15:44:34Z</time>
      </trkpt>
      <trkpt lat="34.919961299747229" lon="-4.520022170618177">
        <ele>1521.423583984375</ele>
        <time>2011-04-16T15:44:42Z</time>
      </trkpt>
      <trkpt lat="34.919723086059093" lon="-4.519249359145761">
        <ele>1519.501220703125</ele>
        <time>2011-04-16T15:44:50Z</time>
      </trkpt>
      <trkpt lat="34.919610349461436" lon="-4.519058084115386">
        <ele>1518.539794921875</ele>
        <time>2011-04-16T15:44:52Z</time>
      </trkpt>
      <trkpt lat="34.919459894299507" lon="-4.518504124134779">
        <ele>1516.136474609375</ele>
        <time>2011-04-16T15:44:57Z</time>
      </trkpt>
      <trkpt lat="34.919445980340242" lon="-4.517411543056369">
        <ele>1511.329833984375</ele>
        <time>2011-04-16T15:45:07Z</time>
      </trkpt>
      <trkpt lat="34.919282281771302" lon="-4.516929164528847">
        <ele>1508.926513671875</ele>
        <time>2011-04-16T15:45:13Z</time>
      </trkpt>
      <trkpt lat="34.91879646666348" lon="-4.516144031658769">
        <ele>1506.523193359375</ele>
        <time>2011-04-16T15:45:23Z</time>
      </trkpt>
      <trkpt lat="34.918638132512569" lon="-4.51542628929019">
        <ele>1504.1201171875</ele>
        <time>2011-04-16T15:45:30Z</time>
      </trkpt>
      <trkpt lat="34.918371252715588" lon="-4.515062933787704">
        <ele>1503.15869140625</ele>
        <time>2011-04-16T15:45:36Z</time>
      </trkpt>
      <trkpt lat="34.9178905505687" lon="-4.514823881909251">
        <ele>1501.716796875</ele>
        <time>2011-04-16T15:45:44Z</time>
      </trkpt>
      <trkpt lat="34.917664742097259" lon="-4.514705780893564">
        <ele>1501.236083984375</ele>
        <time>2011-04-16T15:45:47Z</time>
      </trkpt>
      <trkpt lat="34.917412027716637" lon="-4.514395399019122">
        <ele>1499.313232421875</ele>
        <time>2011-04-16T15:45:53Z</time>
      </trkpt>
      <trkpt lat="34.917429964989424" lon="-4.514072695747018">
        <ele>1496.909912109375</ele>
        <time>2011-04-16T15:45:59Z</time>
      </trkpt>
      <trkpt lat="34.917781837284565" lon="-4.513546731323004">
        <ele>1495.94873046875</ele>
        <time>2011-04-16T15:46:15Z</time>
      </trkpt>
      <trkpt lat="34.917929861694574" lon="-4.513346068561077">
        <ele>1495.468017578125</ele>
        <time>2011-04-16T15:46:18Z</time>
      </trkpt>
      <trkpt lat="34.918366642668843" lon="-4.513134257867932">
        <ele>1496.909912109375</ele>
        <time>2011-04-16T15:46:24Z</time>
      </trkpt>
      <trkpt lat="34.918659925460815" lon="-4.513269374147058">
        <ele>1497.390625</ele>
        <time>2011-04-16T15:46:28Z</time>
      </trkpt>
      <trkpt lat="34.919394934549928" lon="-4.513846216723323">
        <ele>1502.197265625</ele>
        <time>2011-04-16T15:46:39Z</time>
      </trkpt>
      <trkpt lat="34.920047298073769" lon="-4.514091471210122">
        <ele>1507.00390625</ele>
        <time>2011-04-16T15:46:49Z</time>
      </trkpt>
      <trkpt lat="34.920419622212648" lon="-4.513939255848527">
        <ele>1512.291015625</ele>
        <time>2011-04-16T15:46:55Z</time>
      </trkpt>
      <trkpt lat="34.920520037412643" lon="-4.513815958052874">
        <ele>1512.291015625</ele>
        <time>2011-04-16T15:46:57Z</time>
      </trkpt>
      <trkpt lat="34.92069823667407" lon="-4.513528291136026">
        <ele>1514.213623046875</ele>
        <time>2011-04-16T15:47:01Z</time>
      </trkpt>
      <trkpt lat="34.921115236356854" lon="-4.513357887044549">
        <ele>1516.6171875</ele>
        <time>2011-04-16T15:47:07Z</time>
      </trkpt>
      <trkpt lat="34.921963065862656" lon="-4.513833643868566">
        <ele>1519.981689453125</ele>
        <time>2011-04-16T15:47:20Z</time>
      </trkpt>
      <trkpt lat="34.92242893204093" lon="-4.51382358558476">
        <ele>1522.385009765625</ele>
        <time>2011-04-16T15:47:27Z</time>
      </trkpt>
      <trkpt lat="34.923043241724372" lon="-4.513877062126994">
        <ele>1525.74951171875</ele>
        <time>2011-04-16T15:47:36Z</time>
      </trkpt>
      <trkpt lat="34.923405339941382" lon="-4.514150228351355">
        <ele>1527.191650390625</ele>
        <time>2011-04-16T15:47:42Z</time>
      </trkpt>
      <trkpt lat="34.923638524487615" lon="-4.514536466449499">
        <ele>1528.15283203125</ele>
        <time>2011-04-16T15:47:48Z</time>
      </trkpt>
      <trkpt lat="34.92386014200747" lon="-4.514711145311594">
        <ele>1529.114013671875</ele>
        <time>2011-04-16T15:47:52Z</time>
      </trkpt>
      <trkpt lat="34.924062229692936" lon="-4.514923291280866">
        <ele>1530.075439453125</ele>
        <time>2011-04-16T15:47:56Z</time>
      </trkpt>
      <trkpt lat="34.924170942977071" lon="-4.515150943771005">
        <ele>1530.55615234375</ele>
        <time>2011-04-16T15:48:03Z</time>
      </trkpt>
      <trkpt lat="34.92445576004684" lon="-4.515253370627761">
        <ele>1531.036865234375</ele>
        <time>2011-04-16T15:48:10Z</time>
      </trkpt>
      <trkpt lat="34.92461996152997" lon="-4.515029154717922">
        <ele>1531.036865234375</ele>
        <time>2011-04-16T15:48:14Z</time>
      </trkpt>
      <trkpt lat="34.924970995634794" lon="-4.514308730140328">
        <ele>1534.88232421875</ele>
        <time>2011-04-16T15:48:24Z</time>
      </trkpt>
      <trkpt lat="34.925387240946293" lon="-4.514160118997097">
        <ele>1537.76611328125</ele>
        <time>2011-04-16T15:48:31Z</time>
      </trkpt>
      <trkpt lat="34.925680439919233" lon="-4.514388274401426">
        <ele>1539.688720703125</ele>
        <time>2011-04-16T15:48:36Z</time>
      </trkpt>
      <trkpt lat="34.925828464329243" lon="-4.514579465612769">
        <ele>1541.130615234375</ele>
        <time>2011-04-16T15:48:39Z</time>
      </trkpt>
      <trkpt lat="34.926155358552933" lon="-4.514703936874867">
        <ele>1543.05322265625</ele>
        <time>2011-04-16T15:48:44Z</time>
      </trkpt>
      <trkpt lat="34.926455598324537" lon="-4.51466747559607">
        <ele>1545.45654296875</ele>
        <time>2011-04-16T15:48:49Z</time>
      </trkpt>
      <trkpt lat="34.926752988249063" lon="-4.514781134203076">
        <ele>1546.41796875</ele>
        <time>2011-04-16T15:48:54Z</time>
      </trkpt>
      <trkpt lat="34.926897240802646" lon="-4.514905689284205">
        <ele>1546.8984375</ele>
        <time>2011-04-16T15:48:57Z</time>
      </trkpt>
      <trkpt lat="34.927296554669738" lon="-4.514905521646142">
        <ele>1547.379150390625</ele>
        <time>2011-04-16T15:49:04Z</time>
      </trkpt>
      <trkpt lat="34.927668627351522" lon="-4.514583824202418">
        <ele>1547.379150390625</ele>
        <time>2011-04-16T15:49:10Z</time>
      </trkpt>
      <trkpt lat="34.92787423543632" lon="-4.514201190322638">
        <ele>1548.340576171875</ele>
        <time>2011-04-16T15:49:15Z</time>
      </trkpt>
      <trkpt lat="34.927905332297087" lon="-4.513771282508969">
        <ele>1550.263427734375</ele>
        <time>2011-04-16T15:49:20Z</time>
      </trkpt>
      <trkpt lat="34.927716236561537" lon="-4.513051277026534">
        <ele>1554.108642578125</ele>
        <time>2011-04-16T15:49:29Z</time>
      </trkpt>
      <trkpt lat="34.927298231050372" lon="-4.512423975393176">
        <ele>1557.953857421875</ele>
        <time>2011-04-16T15:49:39Z</time>
      </trkpt>
      <trkpt lat="34.927152134478092" lon="-4.512155670672655">
        <ele>1560.35693359375</ele>
        <time>2011-04-16T15:49:44Z</time>
      </trkpt>
      <trkpt lat="34.927193038165569" lon="-4.511628448963165">
        <ele>1563.721435546875</ele>
        <time>2011-04-16T15:49:52Z</time>
      </trkpt>
      <trkpt lat="34.92753753438592" lon="-4.510798389092088">
        <ele>1567.56689453125</ele>
        <time>2011-04-16T15:50:04Z</time>
      </trkpt>
      <trkpt lat="34.927603164687753" lon="-4.509901190176606">
        <ele>1568.5283203125</ele>
        <time>2011-04-16T15:50:13Z</time>
      </trkpt>
      <trkpt lat="34.927721517160535" lon="-4.508756138384342">
        <ele>1569.97021484375</ele>
        <time>2011-04-16T15:50:25Z</time>
      </trkpt>
      <trkpt lat="34.928124519065022" lon="-4.507742850109935">
        <ele>1573.3349609375</ele>
        <time>2011-04-16T15:50:34Z</time>
      </trkpt>
      <trkpt lat="34.928187550976872" lon="-4.507639920338988">
        <ele>1573.8154296875</ele>
        <time>2011-04-16T15:50:35Z</time>
      </trkpt>
      <trkpt lat="34.928548224270344" lon="-4.507184028625488">
        <ele>1573.8154296875</ele>
        <time>2011-04-16T15:50:40Z</time>
      </trkpt>
      <trkpt lat="34.928702535107732" lon="-4.506710199639201">
        <ele>1574.296142578125</ele>
        <time>2011-04-16T15:50:45Z</time>
      </trkpt>
      <trkpt lat="34.928624331951141" lon="-4.505269937217236">
        <ele>1577.66064453125</ele>
        <time>2011-04-16T15:50:58Z</time>
      </trkpt>
      <trkpt lat="34.928488880395889" lon="-4.503788435831666">
        <ele>1582.467529296875</ele>
        <time>2011-04-16T15:51:11Z</time>
      </trkpt>
      <trkpt lat="34.928092248737812" lon="-4.502644389867783">
        <ele>1583.4287109375</ele>
        <time>2011-04-16T15:51:21Z</time>
      </trkpt>
      <trkpt lat="34.927967358380556" lon="-4.502205178141594">
        <ele>1584.870849609375</ele>
        <time>2011-04-16T15:51:25Z</time>
      </trkpt>
      <trkpt lat="34.927975740283728" lon="-4.50135818682611">
        <ele>1587.27392578125</ele>
        <time>2011-04-16T15:51:33Z</time>
      </trkpt>
      <trkpt lat="34.928045058622956" lon="-4.499785155057907">
        <ele>1592.561279296875</ele>
        <time>2011-04-16T15:51:47Z</time>
      </trkpt>
      <trkpt lat="34.927932489663363" lon="-4.49918719008565">
        <ele>1594.003173828125</ele>
        <time>2011-04-16T15:51:54Z</time>
      </trkpt>
      <trkpt lat="34.927887059748173" lon="-4.49888083152473">
        <ele>1594.003173828125</ele>
        <time>2011-04-16T15:51:58Z</time>
      </trkpt>
      <trkpt lat="34.927985547110438" lon="-4.498337265104055">
        <ele>1594.483642578125</ele>
        <time>2011-04-16T15:52:03Z</time>
      </trkpt>
      <trkpt lat="34.928323170170188" lon="-4.497311320155859">
        <ele>1596.88720703125</ele>
        <time>2011-04-16T15:52:13Z</time>
      </trkpt>
      <trkpt lat="34.928385363891721" lon="-4.496166687458754">
        <ele>1600.251953125</ele>
        <time>2011-04-16T15:52:24Z</time>
      </trkpt>
      <trkpt lat="34.928357619792223" lon="-4.495154740288854">
        <ele>1603.616455078125</ele>
        <time>2011-04-16T15:52:33Z</time>
      </trkpt>
      <trkpt lat="34.928421741351485" lon="-4.4946204777807">
        <ele>1606.01953125</ele>
        <time>2011-04-16T15:52:40Z</time>
      </trkpt>
      <trkpt lat="34.928408330306411" lon="-4.494209680706263">
        <ele>1607.461669921875</ele>
        <time>2011-04-16T15:52:48Z</time>
      </trkpt>
      <trkpt lat="34.928444540128112" lon="-4.493552288040519">
        <ele>1607.461669921875</ele>
        <time>2011-04-16T15:52:54Z</time>
      </trkpt>
      <trkpt lat="34.928533136844635" lon="-4.492916520684958">
        <ele>1608.903564453125</ele>
        <time>2011-04-16T15:53:00Z</time>
      </trkpt>
      <trkpt lat="34.928609998896718" lon="-4.492035917937756">
        <ele>1612.268310546875</ele>
        <time>2011-04-16T15:53:11Z</time>
      </trkpt>
      <trkpt lat="34.928556941449642" lon="-4.491738528013229">
        <ele>1612.268310546875</ele>
        <time>2011-04-16T15:53:14Z</time>
      </trkpt>
      <trkpt lat="34.928190233185887" lon="-4.491173839196563">
        <ele>1611.78759765625</ele>
        <time>2011-04-16T15:53:21Z</time>
      </trkpt>
      <trkpt lat="34.927691174671054" lon="-4.490847699344158">
        <ele>1610.826171875</ele>
        <time>2011-04-16T15:53:27Z</time>
      </trkpt>
      <trkpt lat="34.927414990961552" lon="-4.490518290549517">
        <ele>1609.86474609375</ele>
        <time>2011-04-16T15:53:31Z</time>
      </trkpt>
      <trkpt lat="34.927131682634354" lon="-4.49000297114253">
        <ele>1608.903564453125</ele>
        <time>2011-04-16T15:53:36Z</time>
      </trkpt>
      <trkpt lat="34.92701374925673" lon="-4.489564765244722">
        <ele>1607.461669921875</ele>
        <time>2011-04-16T15:53:40Z</time>
      </trkpt>
      <trkpt lat="34.926962284371257" lon="-4.489080794155598">
        <ele>1606.98095703125</ele>
        <time>2011-04-16T15:53:44Z</time>
      </trkpt>
      <trkpt lat="34.926731782034039" lon="-4.488592967391014">
        <ele>1605.058349609375</ele>
        <time>2011-04-16T15:53:49Z</time>
      </trkpt>
      <trkpt lat="34.926102384924889" lon="-4.487915877252817">
        <ele>1601.213134765625</ele>
        <time>2011-04-16T15:53:57Z</time>
      </trkpt>
      <trkpt lat="34.925883868709207" lon="-4.487254293635488">
        <ele>1599.29052734375</ele>
        <time>2011-04-16T15:54:03Z</time>
      </trkpt>
      <trkpt lat="34.925906164571643" lon="-4.486813740804792">
        <ele>1597.8486328125</ele>
        <time>2011-04-16T15:54:07Z</time>
      </trkpt>
      <trkpt lat="34.926102971658111" lon="-4.485593922436237">
        <ele>1595.445068359375</ele>
        <time>2011-04-16T15:54:17Z</time>
      </trkpt>
      <trkpt lat="34.92613079957664" lon="-4.484245022758842">
        <ele>1594.483642578125</ele>
        <time>2011-04-16T15:54:28Z</time>
      </trkpt>
      <trkpt lat="34.926127782091498" lon="-4.484118623659015">
        <ele>1594.483642578125</ele>
        <time>2011-04-16T15:54:29Z</time>
      </trkpt>
      <trkpt lat="34.926226437091827" lon="-4.483519988134503">
        <ele>1594.003173828125</ele>
        <time>2011-04-16T15:54:34Z</time>
      </trkpt>
      <trkpt lat="34.926611166447401" lon="-4.48292906396091">
        <ele>1593.5224609375</ele>
        <time>2011-04-16T15:54:40Z</time>
      </trkpt>
      <trkpt lat="34.92699027992785" lon="-4.482632428407669">
        <ele>1592.561279296875</ele>
        <time>2011-04-16T15:54:44Z</time>
      </trkpt>
      <trkpt lat="34.927267553284764" lon="-4.482180392369628">
        <ele>1591.599853515625</ele>
        <time>2011-04-16T15:54:48Z</time>
      </trkpt>
      <trkpt lat="34.927646331489086" lon="-4.481300795450807">
        <ele>1589.67724609375</ele>
        <time>2011-04-16T15:54:55Z</time>
      </trkpt>
      <trkpt lat="34.927767869085073" lon="-4.480314161628485">
        <ele>1590.638427734375</ele>
        <time>2011-04-16T15:55:02Z</time>
      </trkpt>
      <trkpt lat="34.927808018401265" lon="-4.479972934350371">
        <ele>1591.119140625</ele>
        <time>2011-04-16T15:55:05Z</time>
      </trkpt>
      <trkpt lat="34.928144970908761" lon="-4.479604968801141">
        <ele>1591.599853515625</ele>
        <time>2011-04-16T15:55:11Z</time>
      </trkpt>
      <trkpt lat="34.928599437698722" lon="-4.479715945199132">
        <ele>1593.5224609375</ele>
        <time>2011-04-16T15:55:16Z</time>
      </trkpt>
      <trkpt lat="34.928762633353472" lon="-4.479827927425504">
        <ele>1594.003173828125</ele>
        <time>2011-04-16T15:55:18Z</time>
      </trkpt>
      <trkpt lat="34.92930443957448" lon="-4.479791969060898">
        <ele>1594.003173828125</ele>
        <time>2011-04-16T15:55:24Z</time>
      </trkpt>
      <trkpt lat="34.929470233619213" lon="-4.479615949094296">
        <ele>1593.5224609375</ele>
        <time>2011-04-16T15:55:26Z</time>
      </trkpt>
      <trkpt lat="34.929787153378129" lon="-4.479211773723364">
        <ele>1591.599853515625</ele>
        <time>2011-04-16T15:55:30Z</time>
      </trkpt>
      <trkpt lat="34.93026559241116" lon="-4.479005159810185">
        <ele>1589.196533203125</ele>
        <time>2011-04-16T15:55:36Z</time>
      </trkpt>
      <trkpt lat="34.930604472756386" lon="-4.479007255285978">
        <ele>1588.716064453125</ele>
        <time>2011-04-16T15:55:40Z</time>
      </trkpt>
      <trkpt lat="34.930940335616469" lon="-4.478704836219549">
        <ele>1586.312744140625</ele>
        <time>2011-04-16T15:55:45Z</time>
      </trkpt>
      <trkpt lat="34.930986938998103" lon="-4.478590590879321">
        <ele>1586.793212890625</ele>
        <time>2011-04-16T15:55:46Z</time>
      </trkpt>
      <trkpt lat="34.931448278948665" lon="-4.477443862706423">
        <ele>1582.947998046875</ele>
        <time>2011-04-16T15:55:55Z</time>
      </trkpt>
      <trkpt lat="34.932097792625427" lon="-4.476722180843353">
        <ele>1583.4287109375</ele>
        <time>2011-04-16T15:56:04Z</time>
      </trkpt>
      <trkpt lat="34.932166943326592" lon="-4.476641463115811">
        <ele>1583.909423828125</ele>
        <time>2011-04-16T15:56:05Z</time>
      </trkpt>
      <trkpt lat="34.932369198650122" lon="-4.476226391270757">
        <ele>1584.870849609375</ele>
        <time>2011-04-16T15:56:09Z</time>
      </trkpt>
      <trkpt lat="34.932480677962303" lon="-4.47584149427712">
        <ele>1584.870849609375</ele>
        <time>2011-04-16T15:56:12Z</time>
      </trkpt>
      <trkpt lat="34.932774296030402" lon="-4.475344698876143">
        <ele>1584.39013671875</ele>
        <time>2011-04-16T15:56:17Z</time>
      </trkpt>
      <trkpt lat="34.933079145848751" lon="-4.475068431347609">
        <ele>1584.39013671875</ele>
        <time>2011-04-16T15:56:24Z</time>
      </trkpt>
      <trkpt lat="34.933489859104156" lon="-4.474675236269832">
        <ele>1584.870849609375</ele>
        <time>2011-04-16T15:56:31Z</time>
      </trkpt>
      <trkpt lat="34.933841982856393" lon="-4.474188247695565">
        <ele>1583.909423828125</ele>
        <time>2011-04-16T15:56:39Z</time>
      </trkpt>
      <trkpt lat="34.93405831977725" lon="-4.473722297698259">
        <ele>1583.909423828125</ele>
        <time>2011-04-16T15:56:46Z</time>
      </trkpt>
      <trkpt lat="34.93438228033483" lon="-4.472942529246211">
        <ele>1583.4287109375</ele>
        <time>2011-04-16T15:56:54Z</time>
      </trkpt>
      <trkpt lat="34.934697272256017" lon="-4.472153121605516">
        <ele>1581.506103515625</ele>
        <time>2011-04-16T15:57:03Z</time>
      </trkpt>
      <trkpt lat="34.935021484270692" lon="-4.470934141427279">
        <ele>1576.699462890625</ele>
        <time>2011-04-16T15:57:12Z</time>
      </trkpt>
      <trkpt lat="34.935377631336451" lon="-4.469879195094109">
        <ele>1570.450927734375</ele>
        <time>2011-04-16T15:57:18Z</time>
      </trkpt>
      <trkpt lat="34.935490870848298" lon="-4.468717463314533">
        <ele>1567.56689453125</ele>
        <time>2011-04-16T15:57:24Z</time>
      </trkpt>
      <trkpt lat="34.935632357373834" lon="-4.468120168894529">
        <ele>1567.08642578125</ele>
        <time>2011-04-16T15:57:27Z</time>
      </trkpt>
      <trkpt lat="34.936260916292667" lon="-4.466934381052852">
        <ele>1566.605712890625</ele>
        <time>2011-04-16T15:57:34Z</time>
      </trkpt>
      <trkpt lat="34.936431152746081" lon="-4.466633470728993">
        <ele>1566.605712890625</ele>
        <time>2011-04-16T15:57:36Z</time>
      </trkpt>
      <trkpt lat="34.936352865770459" lon="-4.46596585214138">
        <ele>1564.68310546875</ele>
        <time>2011-04-16T15:57:41Z</time>
      </trkpt>
      <trkpt lat="34.936240464448929" lon="-4.4658456556499">
        <ele>1564.202392578125</ele>
        <time>2011-04-16T15:57:42Z</time>
      </trkpt>
      <trkpt lat="34.93526766076684" lon="-4.464713092893362">
        <ele>1560.35693359375</ele>
        <time>2011-04-16T15:57:50Z</time>
      </trkpt>
      <trkpt lat="34.935072446241975" lon="-4.463859060779214">
        <ele>1559.395751953125</ele>
        <time>2011-04-16T15:57:55Z</time>
      </trkpt>
      <trkpt lat="34.935091976076365" lon="-4.463458741083741">
        <ele>1558.9150390625</ele>
        <time>2011-04-16T15:57:57Z</time>
      </trkpt>
      <trkpt lat="34.935471173375845" lon="-4.462343025952578">
        <ele>1557.953857421875</ele>
        <time>2011-04-16T15:58:03Z</time>
      </trkpt>
      <trkpt lat="34.936363929882646" lon="-4.461150448769331">
        <ele>1560.35693359375</ele>
        <time>2011-04-16T15:58:11Z</time>
      </trkpt>
      <trkpt lat="34.936527544632554" lon="-4.4604233186692">
        <ele>1561.318359375</ele>
        <time>2011-04-16T15:58:16Z</time>
      </trkpt>
      <trkpt lat="34.936464847996831" lon="-4.460100783035159">
        <ele>1561.318359375</ele>
        <time>2011-04-16T15:58:18Z</time>
      </trkpt>
      <trkpt lat="34.93670079857111" lon="-4.45946509949863">
        <ele>1562.76025390625</ele>
        <time>2011-04-16T15:58:23Z</time>
      </trkpt>
      <trkpt lat="34.937237743288279" lon="-4.459324199706316">
        <ele>1562.279541015625</ele>
        <time>2011-04-16T15:58:27Z</time>
      </trkpt>
      <trkpt lat="34.937683241441846" lon="-4.459510026499629">
        <ele>1561.318359375</ele>
        <time>2011-04-16T15:58:30Z</time>
      </trkpt>
      <trkpt lat="34.938125135377049" lon="-4.459812864661217">
        <ele>1560.35693359375</ele>
        <time>2011-04-16T15:58:33Z</time>
      </trkpt>
      <trkpt lat="34.938760651275516" lon="-4.459796184673905">
        <ele>1560.837646484375</ele>
        <time>2011-04-16T15:58:38Z</time>
      </trkpt>
      <trkpt lat="34.938862575218081" lon="-4.459687387570739">
        <ele>1560.837646484375</ele>
        <time>2011-04-16T15:58:39Z</time>
      </trkpt>
      <trkpt lat="34.939762372523546" lon="-4.45901608094573">
        <ele>1568.5283203125</ele>
        <time>2011-04-16T15:58:46Z</time>
      </trkpt>
      <trkpt lat="34.940169481560588" lon="-4.458858417347074">
        <ele>1571.412109375</ele>
        <time>2011-04-16T15:58:49Z</time>
      </trkpt>
      <trkpt lat="34.940685220062733" lon="-4.458395065739751">
        <ele>1574.296142578125</ele>
        <time>2011-04-16T15:58:54Z</time>
      </trkpt>
      <trkpt lat="34.94075546041131" lon="-4.457754017785192">
        <ele>1575.25732421875</ele>
        <time>2011-04-16T15:58:58Z</time>
      </trkpt>
      <trkpt lat="34.940551361069083" lon="-4.457368534058332">
        <ele>1576.699462890625</ele>
        <time>2011-04-16T15:59:01Z</time>
      </trkpt>
      <trkpt lat="34.940185323357582" lon="-4.456486674025655">
        <ele>1578.141357421875</ele>
        <time>2011-04-16T15:59:08Z</time>
      </trkpt>
      <trkpt lat="34.940171744674444" lon="-4.456349797546864">
        <ele>1578.141357421875</ele>
        <time>2011-04-16T15:59:09Z</time>
      </trkpt>
      <trkpt lat="34.94036159478128" lon="-4.455699948593974">
        <ele>1577.66064453125</ele>
        <time>2011-04-16T15:59:14Z</time>
      </trkpt>
      <trkpt lat="34.940564436838031" lon="-4.455479253083468">
        <ele>1577.66064453125</ele>
        <time>2011-04-16T15:59:16Z</time>
      </trkpt>
      <trkpt lat="34.941039271652699" lon="-4.455054039135575">
        <ele>1577.66064453125</ele>
        <time>2011-04-16T15:59:20Z</time>
      </trkpt>
      <trkpt lat="34.941584262996912" lon="-4.45481875911355">
        <ele>1576.699462890625</ele>
        <time>2011-04-16T15:59:24Z</time>
      </trkpt>
      <trkpt lat="34.942154567688704" lon="-4.454701831564307">
        <ele>1577.66064453125</ele>
        <time>2011-04-16T15:59:28Z</time>
      </trkpt>
      <trkpt lat="34.942655637860298" lon="-4.454160863533616">
        <ele>1578.6220703125</ele>
        <time>2011-04-16T15:59:33Z</time>
      </trkpt>
      <trkpt lat="34.943052856251597" lon="-4.452902739867568">
        <ele>1582.467529296875</ele>
        <time>2011-04-16T15:59:42Z</time>
      </trkpt>
      <trkpt lat="34.943510424345732" lon="-4.452113667502999">
        <ele>1583.4287109375</ele>
        <time>2011-04-16T15:59:48Z</time>
      </trkpt>
      <trkpt lat="34.943879060447216" lon="-4.451185455545783">
        <ele>1586.312744140625</ele>
        <time>2011-04-16T15:59:54Z</time>
      </trkpt>
      <trkpt lat="34.944406365975738" lon="-4.450393365696073">
        <ele>1589.196533203125</ele>
        <time>2011-04-16T16:00:00Z</time>
      </trkpt>
      <trkpt lat="34.94486577808857" lon="-4.450069740414619">
        <ele>1590.157958984375</ele>
        <time>2011-04-16T16:00:04Z</time>
      </trkpt>
      <trkpt lat="34.945483859628439" lon="-4.449347890913487">
        <ele>1594.483642578125</ele>
        <time>2011-04-16T16:00:11Z</time>
      </trkpt>
      <trkpt lat="34.945991467684507" lon="-4.448723522946239">
        <ele>1596.88720703125</ele>
        <time>2011-04-16T16:00:18Z</time>
      </trkpt>
      <trkpt lat="34.946634443476796" lon="-4.448516322299838">
        <ele>1595.92578125</ele>
        <time>2011-04-16T16:00:24Z</time>
      </trkpt>
      <trkpt lat="34.947786116972566" lon="-4.448634423315525">
        <ele>1592.08056640625</ele>
        <time>2011-04-16T16:00:32Z</time>
      </trkpt>
      <trkpt lat="34.948402857407928" lon="-4.448414398357272">
        <ele>1591.119140625</ele>
        <time>2011-04-16T16:00:37Z</time>
      </trkpt>
      <trkpt lat="34.948684237897396" lon="-4.448076942935586">
        <ele>1590.638427734375</ele>
        <time>2011-04-16T16:00:40Z</time>
      </trkpt>
      <trkpt lat="34.949387647211552" lon="-4.447007495909929">
        <ele>1588.716064453125</ele>
        <time>2011-04-16T16:00:48Z</time>
      </trkpt>
      <trkpt lat="34.94991822168231" lon="-4.446845138445497">
        <ele>1587.754638671875</ele>
        <time>2011-04-16T16:00:53Z</time>
      </trkpt>
      <trkpt lat="34.950205385684967" lon="-4.447119226679206">
        <ele>1587.27392578125</ele>
        <time>2011-04-16T16:00:56Z</time>
      </trkpt>
      <trkpt lat="34.950775019824505" lon="-4.448341140523553">
        <ele>1582.467529296875</ele>
        <time>2011-04-16T16:01:06Z</time>
      </trkpt>
      <trkpt lat="34.951259745284915" lon="-4.44929282180965">
        <ele>1582.947998046875</ele>
        <time>2011-04-16T16:01:13Z</time>
      </trkpt>
      <trkpt lat="34.95187371969223" lon="-4.449720634147525">
        <ele>1583.4287109375</ele>
        <time>2011-04-16T16:01:19Z</time>
      </trkpt>
      <trkpt lat="34.952314356341958" lon="-4.449532628059387">
        <ele>1584.39013671875</ele>
        <time>2011-04-16T16:01:23Z</time>
      </trkpt>
      <trkpt lat="34.953211890533566" lon="-4.448837684467435">
        <ele>1585.351318359375</ele>
        <time>2011-04-16T16:01:31Z</time>
      </trkpt>
      <trkpt lat="34.953522775322199" lon="-4.448337368667126">
        <ele>1584.39013671875</ele>
        <time>2011-04-16T16:01:35Z</time>
      </trkpt>
      <trkpt lat="34.953382797539234" lon="-4.447753317654133">
        <ele>1584.39013671875</ele>
        <time>2011-04-16T16:01:39Z</time>
      </trkpt>
      <trkpt lat="34.953328231349587" lon="-4.4469278678298">
        <ele>1583.4287109375</ele>
        <time>2011-04-16T16:01:44Z</time>
      </trkpt>
      <trkpt lat="34.953345917165279" lon="-4.446755535900593">
        <ele>1582.947998046875</ele>
        <time>2011-04-16T16:01:45Z</time>
      </trkpt>
      <trkpt lat="34.953765431419015" lon="-4.444488817825913">
        <ele>1580.064208984375</ele>
        <time>2011-04-16T16:01:58Z</time>
      </trkpt>
      <trkpt lat="34.953831061720848" lon="-4.443205799907446">
        <ele>1578.141357421875</ele>
        <time>2011-04-16T16:02:05Z</time>
      </trkpt>
      <trkpt lat="34.953833241015673" lon="-4.441487593576312">
        <ele>1576.699462890625</ele>
        <time>2011-04-16T16:02:14Z</time>
      </trkpt>
      <trkpt lat="34.954211097210646" lon="-4.440901447087526">
        <ele>1576.21875</ele>
        <time>2011-04-16T16:02:19Z</time>
      </trkpt>
      <trkpt lat="34.954624325037003" lon="-4.440859453752637">
        <ele>1574.77685546875</ele>
        <time>2011-04-16T16:02:22Z</time>
      </trkpt>
      <trkpt lat="34.955330081284046" lon="-4.440926844254136">
        <ele>1574.296142578125</ele>
        <time>2011-04-16T16:02:27Z</time>
      </trkpt>
      <trkpt lat="34.955849088728428" lon="-4.440652839839459">
        <ele>1574.296142578125</ele>
        <time>2011-04-16T16:02:32Z</time>
      </trkpt>
      <trkpt lat="34.956011697649956" lon="-4.440425941720605">
        <ele>1574.296142578125</ele>
        <time>2011-04-16T16:02:34Z</time>
      </trkpt>
      <trkpt lat="34.956447556614876" lon="-4.440069459378719">
        <ele>1573.8154296875</ele>
        <time>2011-04-16T16:02:38Z</time>
      </trkpt>
      <trkpt lat="34.95705314911902" lon="-4.439367977902293">
        <ele>1573.3349609375</ele>
        <time>2011-04-16T16:02:44Z</time>
      </trkpt>
      <trkpt lat="34.957516081631184" lon="-4.439025241881609">
        <ele>1572.37353515625</ele>
        <time>2011-04-16T16:02:48Z</time>
      </trkpt>
      <trkpt lat="34.95818286202848" lon="-4.438811670988798">
        <ele>1569.48974609375</ele>
        <time>2011-04-16T16:02:53Z</time>
      </trkpt>
      <trkpt lat="34.958660798147321" lon="-4.438460972160101">
        <ele>1567.56689453125</ele>
        <time>2011-04-16T16:02:57Z</time>
      </trkpt>
      <trkpt lat="34.959418186917901" lon="-4.437649352476001">
        <ele>1565.163818359375</ele>
        <time>2011-04-16T16:03:04Z</time>
      </trkpt>
      <trkpt lat="34.960374562069774" lon="-4.437072593718767">
        <ele>1562.279541015625</ele>
        <time>2011-04-16T16:03:11Z</time>
      </trkpt>
      <trkpt lat="34.961323561146855" lon="-4.436757182702422">
        <ele>1560.837646484375</ele>
        <time>2011-04-16T16:03:17Z</time>
      </trkpt>
      <trkpt lat="34.961853632703424" lon="-4.437123471871018">
        <ele>1560.837646484375</ele>
        <time>2011-04-16T16:03:22Z</time>
      </trkpt>
      <trkpt lat="34.96190769597888" lon="-4.437439888715744">
        <ele>1557.47314453125</ele>
        <time>2011-04-16T16:03:24Z</time>
      </trkpt>
      <trkpt lat="34.962269375100732" lon="-4.439323721453548">
        <ele>1555.550537109375</ele>
        <time>2011-04-16T16:03:35Z</time>
      </trkpt>
      <trkpt lat="34.962671119719744" lon="-4.439671989530325">
        <ele>1552.185791015625</ele>
        <time>2011-04-16T16:03:40Z</time>
      </trkpt>
      <trkpt lat="34.963036235421896" lon="-4.439292037859559">
        <ele>1551.705322265625</ele>
        <time>2011-04-16T16:03:44Z</time>
      </trkpt>
      <trkpt lat="34.963102955371141" lon="-4.439156837761402">
        <ele>1552.185791015625</ele>
        <time>2011-04-16T16:03:45Z</time>
      </trkpt>
      <trkpt lat="34.963360782712698" lon="-4.438625676557422">
        <ele>1552.66650390625</ele>
        <time>2011-04-16T16:03:49Z</time>
      </trkpt>
      <trkpt lat="34.963734447956085" lon="-4.43824103102088">
        <ele>1550.743896484375</ele>
        <time>2011-04-16T16:03:53Z</time>
      </trkpt>
      <trkpt lat="34.964327299967408" lon="-4.437847668305039">
        <ele>1547.85986328125</ele>
        <time>2011-04-16T16:03:58Z</time>
      </trkpt>
      <trkpt lat="34.964893497526646" lon="-4.437755635008216">
        <ele>1546.8984375</ele>
        <time>2011-04-16T16:04:03Z</time>
      </trkpt>
      <trkpt lat="34.964993577450514" lon="-4.437801986932755">
        <ele>1546.41796875</ele>
        <time>2011-04-16T16:04:04Z</time>
      </trkpt>
      <trkpt lat="34.965195078402758" lon="-4.437907263636589">
        <ele>1545.937255859375</ele>
        <time>2011-04-16T16:04:06Z</time>
      </trkpt>
      <trkpt lat="34.965623980388045" lon="-4.43778614513576">
        <ele>1545.45654296875</ele>
        <time>2011-04-16T16:04:11Z</time>
      </trkpt>
      <trkpt lat="34.965657340362668" lon="-4.437292451038957">
        <ele>1545.45654296875</ele>
        <time>2011-04-16T16:04:15Z</time>
      </trkpt>
      <trkpt lat="34.965610150247812" lon="-4.437167728319764">
        <ele>1545.45654296875</ele>
        <time>2011-04-16T16:04:16Z</time>
      </trkpt>
      <trkpt lat="34.96528023853898" lon="-4.436383349820972">
        <ele>1545.45654296875</ele>
        <time>2011-04-16T16:04:22Z</time>
      </trkpt>
      <trkpt lat="34.965332122519612" lon="-4.435689244419336">
        <ele>1544.4951171875</ele>
        <time>2011-04-16T16:04:27Z</time>
      </trkpt>
      <trkpt lat="34.965474866330624" lon="-4.435402750968933">
        <ele>1545.45654296875</ele>
        <time>2011-04-16T16:04:29Z</time>
      </trkpt>
      <trkpt lat="34.965804694220424" lon="-4.434818029403687">
        <ele>1545.45654296875</ele>
        <time>2011-04-16T16:04:33Z</time>
      </trkpt>
      <trkpt lat="34.965882143005729" lon="-4.434029459953308">
        <ele>1544.4951171875</ele>
        <time>2011-04-16T16:04:38Z</time>
      </trkpt>
      <trkpt lat="34.965442344546318" lon="-4.433055566623807">
        <ele>1540.64990234375</ele>
        <time>2011-04-16T16:04:44Z</time>
      </trkpt>
      <trkpt lat="34.96520983055234" lon="-4.432223578915">
        <ele>1536.32421875</ele>
        <time>2011-04-16T16:04:49Z</time>
      </trkpt>
      <trkpt lat="34.965182170271873" lon="-4.43087887018919">
        <ele>1532.47900390625</ele>
        <time>2011-04-16T16:04:56Z</time>
      </trkpt>
      <trkpt lat="34.965103128924966" lon="-4.430206893011928">
        <ele>1531.517333984375</ele>
        <time>2011-04-16T16:05:00Z</time>
      </trkpt>
      <trkpt lat="34.965317789465189" lon="-4.429649328812957">
        <ele>1531.036865234375</ele>
        <time>2011-04-16T16:05:05Z</time>
      </trkpt>
      <trkpt lat="34.965689443051815" lon="-4.429533323273063">
        <ele>1529.5947265625</ele>
        <time>2011-04-16T16:05:08Z</time>
      </trkpt>
      <trkpt lat="34.966234182938933" lon="-4.429539861157537">
        <ele>1528.15283203125</ele>
        <time>2011-04-16T16:05:12Z</time>
      </trkpt>
      <trkpt lat="34.966600220650434" lon="-4.429653268307447">
        <ele>1527.672119140625</ele>
        <time>2011-04-16T16:05:15Z</time>
      </trkpt>
      <trkpt lat="34.967123921960592" lon="-4.429521420970559">
        <ele>1527.672119140625</ele>
        <time>2011-04-16T16:05:20Z</time>
      </trkpt>
      <trkpt lat="34.967209249734879" lon="-4.429152281954885">
        <ele>1527.672119140625</ele>
        <time>2011-04-16T16:05:23Z</time>
      </trkpt>
      <trkpt lat="34.967060387134552" lon="-4.428778449073434">
        <ele>1527.672119140625</ele>
        <time>2011-04-16T16:05:26Z</time>
      </trkpt>
      <trkpt lat="34.966717399656773" lon="-4.428184675052762">
        <ele>1527.672119140625</ele>
        <time>2011-04-16T16:05:31Z</time>
      </trkpt>
      <trkpt lat="34.966710023581982" lon="-4.427514877170324">
        <ele>1526.230224609375</ele>
        <time>2011-04-16T16:05:36Z</time>
      </trkpt>
      <trkpt lat="34.966967767104506" lon="-4.427177337929606">
        <ele>1525.74951171875</ele>
        <time>2011-04-16T16:05:39Z</time>
      </trkpt>
      <trkpt lat="34.967279992997646" lon="-4.426864860579372">
        <ele>1526.230224609375</ele>
        <time>2011-04-16T16:05:42Z</time>
      </trkpt>
      <trkpt lat="34.967562044039369" lon="-4.426327580586076">
        <ele>1527.191650390625</ele>
        <time>2011-04-16T16:05:46Z</time>
      </trkpt>
      <trkpt lat="34.967971919104457" lon="-4.4255112670362">
        <ele>1528.633544921875</ele>
        <time>2011-04-16T16:05:52Z</time>
      </trkpt>
      <trkpt lat="34.967919867485762" lon="-4.424908943474293">
        <ele>1527.672119140625</ele>
        <time>2011-04-16T16:05:57Z</time>
      </trkpt>
      <trkpt lat="34.967832192778587" lon="-4.424823867157102">
        <ele>1527.191650390625</ele>
        <time>2011-04-16T16:05:58Z</time>
      </trkpt>
      <trkpt lat="34.967657765373588" lon="-4.424682632088661">
        <ele>1527.191650390625</ele>
        <time>2011-04-16T16:06:00Z</time>
      </trkpt>
      <trkpt lat="34.96735006570816" lon="-4.424151638522744">
        <ele>1524.3076171875</ele>
        <time>2011-04-16T16:06:05Z</time>
      </trkpt>
      <trkpt lat="34.966965420171618" lon="-4.423701195046306">
        <ele>1522.385009765625</ele>
        <time>2011-04-16T16:06:10Z</time>
      </trkpt>
      <trkpt lat="34.966315655037761" lon="-4.423275562003255">
        <ele>1523.346435546875</ele>
        <time>2011-04-16T16:06:17Z</time>
      </trkpt>
      <trkpt lat="34.966056235134602" lon="-4.422811539843679">
        <ele>1524.3076171875</ele>
        <time>2011-04-16T16:06:22Z</time>
      </trkpt>
      <trkpt lat="34.966090684756637" lon="-4.422557987272739">
        <ele>1523.826904296875</ele>
        <time>2011-04-16T16:06:24Z</time>
      </trkpt>
      <trkpt lat="34.966349182650447" lon="-4.421710493043065">
        <ele>1523.346435546875</ele>
        <time>2011-04-16T16:06:30Z</time>
      </trkpt>
      <trkpt lat="34.966854359954596" lon="-4.421025440096855">
        <ele>1521.904296875</ele>
        <time>2011-04-16T16:06:36Z</time>
      </trkpt>
      <trkpt lat="34.96734419837594" lon="-4.42091672681272">
        <ele>1519.981689453125</ele>
        <time>2011-04-16T16:06:40Z</time>
      </trkpt>
      <trkpt lat="34.968071579933167" lon="-4.420650517567992">
        <ele>1517.097900390625</ele>
        <time>2011-04-16T16:06:46Z</time>
      </trkpt>
      <trkpt lat="34.968806672841311" lon="-4.419951885938644">
        <ele>1516.136474609375</ele>
        <time>2011-04-16T16:06:53Z</time>
      </trkpt>
      <trkpt lat="34.969497174024582" lon="-4.419371271505952">
        <ele>1511.810546875</ele>
        <time>2011-04-16T16:07:00Z</time>
      </trkpt>
      <trkpt lat="34.969841251149774" lon="-4.419223750010133">
        <ele>1508.926513671875</ele>
        <time>2011-04-16T16:07:03Z</time>
      </trkpt>
      <trkpt lat="34.970487160608172" lon="-4.418642465025187">
        <ele>1504.1201171875</ele>
        <time>2011-04-16T16:07:10Z</time>
      </trkpt>
      <trkpt lat="34.971159975975752" lon="-4.417963698506355">
        <ele>1498.83251953125</ele>
        <time>2011-04-16T16:07:17Z</time>
      </trkpt>
      <trkpt lat="34.971587788313627" lon="-4.417529599741101">
        <ele>1496.909912109375</ele>
        <time>2011-04-16T16:07:23Z</time>
      </trkpt>
      <trkpt lat="34.972236296162009" lon="-4.416838679462671">
        <ele>1498.351806640625</ele>
        <time>2011-04-16T16:07:33Z</time>
      </trkpt>
      <trkpt lat="34.972717585042119" lon="-4.416256975382567">
        <ele>1500.75537109375</ele>
        <time>2011-04-16T16:07:40Z</time>
      </trkpt>
      <trkpt lat="34.972856137901545" lon="-4.416117751970887">
        <ele>1500.75537109375</ele>
        <time>2011-04-16T16:07:42Z</time>
      </trkpt>
      <trkpt lat="34.973280597478151" lon="-4.415863696485758">
        <ele>1499.313232421875</ele>
        <time>2011-04-16T16:07:47Z</time>
      </trkpt>
      <trkpt lat="34.973710756748915" lon="-4.41530043259263">
        <ele>1498.351806640625</ele>
        <time>2011-04-16T16:07:53Z</time>
      </trkpt>
      <trkpt lat="34.97404376976192" lon="-4.414784358814359">
        <ele>1497.871337890625</ele>
        <time>2011-04-16T16:07:58Z</time>
      </trkpt>
      <trkpt lat="34.974718345329165" lon="-4.414168456569314">
        <ele>1495.94873046875</ele>
        <time>2011-04-16T16:08:06Z</time>
      </trkpt>
      <trkpt lat="34.97493308968842" lon="-4.413649281486869">
        <ele>1495.468017578125</ele>
        <time>2011-04-16T16:08:12Z</time>
      </trkpt>
      <trkpt lat="34.974858155474067" lon="-4.413428250700235">
        <ele>1495.468017578125</ele>
        <time>2011-04-16T16:08:15Z</time>
      </trkpt>
      <trkpt lat="34.974490441381931" lon="-4.412765745073557">
        <ele>1494.026123046875</ele>
        <time>2011-04-16T16:08:22Z</time>
      </trkpt>
      <trkpt lat="34.974186178296804" lon="-4.412230141460896">
        <ele>1491.14208984375</ele>
        <time>2011-04-16T16:08:27Z</time>
      </trkpt>
      <trkpt lat="34.973871689289808" lon="-4.411950688809156">
        <ele>1488.739013671875</ele>
        <time>2011-04-16T16:08:31Z</time>
      </trkpt>
      <trkpt lat="34.973162077367306" lon="-4.41152723506093">
        <ele>1487.296875</ele>
        <time>2011-04-16T16:08:41Z</time>
      </trkpt>
      <trkpt lat="34.972726218402386" lon="-4.411259517073631">
        <ele>1486.816162109375</ele>
        <time>2011-04-16T16:08:47Z</time>
      </trkpt>
      <trkpt lat="34.972388846799731" lon="-4.410875122994185">
        <ele>1485.374267578125</ele>
        <time>2011-04-16T16:08:52Z</time>
      </trkpt>
      <trkpt lat="34.971877885982394" lon="-4.410502882674336">
        <ele>1484.893798828125</ele>
        <time>2011-04-16T16:09:00Z</time>
      </trkpt>
      <trkpt lat="34.971514279022813" lon="-4.41009309142828">
        <ele>1483.451416015625</ele>
        <time>2011-04-16T16:09:07Z</time>
      </trkpt>
      <trkpt lat="34.971189480274916" lon="-4.409743817523122">
        <ele>1481.52880859375</ele>
        <time>2011-04-16T16:09:11Z</time>
      </trkpt>
      <trkpt lat="34.97084129601717" lon="-4.409581460058689">
        <ele>1479.606201171875</ele>
        <time>2011-04-16T16:09:15Z</time>
      </trkpt>
      <trkpt lat="34.970181724056602" lon="-4.409475680440664">
        <ele>1477.68359375</ele>
        <time>2011-04-16T16:09:24Z</time>
      </trkpt>
      <trkpt lat="34.969664476811886" lon="-4.40937384031713">
        <ele>1479.12548828125</ele>
        <time>2011-04-16T16:09:32Z</time>
      </trkpt>
      <trkpt lat="34.969175979495049" lon="-4.408984333276749">
        <ele>1478.164306640625</ele>
        <time>2011-04-16T16:09:38Z</time>
      </trkpt>
      <trkpt lat="34.968891581520438" lon="-4.408614942803979">
        <ele>1476.722412109375</ele>
        <time>2011-04-16T16:09:42Z</time>
      </trkpt>
      <trkpt lat="34.968538619577885" lon="-4.408395672217012">
        <ele>1476.24169921875</ele>
        <time>2011-04-16T16:09:48Z</time>
      </trkpt>
      <trkpt lat="34.968219855800271" lon="-4.408467756584287">
        <ele>1476.722412109375</ele>
        <time>2011-04-16T16:09:53Z</time>
      </trkpt>
      <trkpt lat="34.967465233057737" lon="-4.408964719623327">
        <ele>1478.164306640625</ele>
        <time>2011-04-16T16:10:03Z</time>
      </trkpt>
      <trkpt lat="34.966847319155931" lon="-4.409353723749518">
        <ele>1480.567626953125</ele>
        <time>2011-04-16T16:10:11Z</time>
      </trkpt>
      <trkpt lat="34.966583456844091" lon="-4.409490516409278">
        <ele>1482.009521484375</ele>
        <time>2011-04-16T16:10:15Z</time>
      </trkpt>
      <trkpt lat="34.966147178784013" lon="-4.409376019611955">
        <ele>1484.4130859375</ele>
        <time>2011-04-16T16:10:22Z</time>
      </trkpt>
      <trkpt lat="34.966022120788693" lon="-4.409008221700788">
        <ele>1483.451416015625</ele>
        <time>2011-04-16T16:10:26Z</time>
      </trkpt>
      <trkpt lat="34.96598239056766" lon="-4.408697672188282">
        <ele>1482.970703125</ele>
        <time>2011-04-16T16:10:29Z</time>
      </trkpt>
      <trkpt lat="34.965678881853819" lon="-4.408279331400991">
        <ele>1484.4130859375</ele>
        <time>2011-04-16T16:10:35Z</time>
      </trkpt>
      <trkpt lat="34.965496072545648" lon="-4.408252760767937">
        <ele>1484.4130859375</ele>
        <time>2011-04-16T16:10:37Z</time>
      </trkpt>
      <trkpt lat="34.964509690180421" lon="-4.408226944506168">
        <ele>1482.009521484375</ele>
        <time>2011-04-16T16:10:45Z</time>
      </trkpt>
      <trkpt lat="34.964063689112663" lon="-4.408184448257089">
        <ele>1480.567626953125</ele>
        <time>2011-04-16T16:10:48Z</time>
      </trkpt>
      <trkpt lat="34.963545938953757" lon="-4.407761916518211">
        <ele>1478.64501953125</ele>
        <time>2011-04-16T16:10:53Z</time>
      </trkpt>
      <trkpt lat="34.963511573150754" lon="-4.407168226316571">
        <ele>1478.64501953125</ele>
        <time>2011-04-16T16:10:57Z</time>
      </trkpt>
      <trkpt lat="34.963594973087311" lon="-4.406877374276519">
        <ele>1478.64501953125</ele>
        <time>2011-04-16T16:10:59Z</time>
      </trkpt>
      <trkpt lat="34.963601930066943" lon="-4.406075729057193">
        <ele>1479.12548828125</ele>
        <time>2011-04-16T16:11:05Z</time>
      </trkpt>
      <trkpt lat="34.963416438549757" lon="-4.405917143449187">
        <ele>1479.12548828125</ele>
        <time>2011-04-16T16:11:07Z</time>
      </trkpt>
      <trkpt lat="34.963206639513373" lon="-4.405777752399445">
        <ele>1478.64501953125</ele>
        <time>2011-04-16T16:11:09Z</time>
      </trkpt>
      <trkpt lat="34.962758542969823" lon="-4.405096555128694">
        <ele>1475.760986328125</ele>
        <time>2011-04-16T16:11:15Z</time>
      </trkpt>
      <trkpt lat="34.962865831330419" lon="-4.404584672302008">
        <ele>1472.877197265625</ele>
        <time>2011-04-16T16:11:19Z</time>
      </trkpt>
      <trkpt lat="34.963229689747095" lon="-4.404154261574149">
        <ele>1469.9931640625</ele>
        <time>2011-04-16T16:11:24Z</time>
      </trkpt>
      <trkpt lat="34.963322728872299" lon="-4.403711529448628">
        <ele>1469.031982421875</ele>
        <time>2011-04-16T16:11:28Z</time>
      </trkpt>
      <trkpt lat="34.963308898732066" lon="-4.403575826436281">
        <ele>1468.55126953125</ele>
        <time>2011-04-16T16:11:29Z</time>
      </trkpt>
      <trkpt lat="34.963477039709687" lon="-4.402833273634315">
        <ele>1466.62841796875</ele>
        <time>2011-04-16T16:11:35Z</time>
      </trkpt>
      <trkpt lat="34.963568234816194" lon="-4.402737217023969">
        <ele>1466.147705078125</ele>
        <time>2011-04-16T16:11:36Z</time>
      </trkpt>
      <trkpt lat="34.96375716291368" lon="-4.402555581182241">
        <ele>1465.667236328125</ele>
        <time>2011-04-16T16:11:38Z</time>
      </trkpt>
      <trkpt lat="34.963958580046892" lon="-4.402094827964902">
        <ele>1465.1865234375</ele>
        <time>2011-04-16T16:11:43Z</time>
      </trkpt>
      <trkpt lat="34.96390569023788" lon="-4.401366440579295">
        <ele>1464.705810546875</ele>
        <time>2011-04-16T16:11:50Z</time>
      </trkpt>
      <trkpt lat="34.963680217042565" lon="-4.400850534439087">
        <ele>1465.1865234375</ele>
        <time>2011-04-16T16:11:56Z</time>
      </trkpt>
      <trkpt lat="34.963509142398834" lon="-4.400653643533588">
        <ele>1465.667236328125</ele>
        <time>2011-04-16T16:11:59Z</time>
      </trkpt>
      <trkpt lat="34.96337846852839" lon="-4.400206552818418">
        <ele>1466.147705078125</ele>
        <time>2011-04-16T16:12:04Z</time>
      </trkpt>
      <trkpt lat="34.963130699470639" lon="-4.399458635598421">
        <ele>1464.22509765625</ele>
        <time>2011-04-16T16:12:11Z</time>
      </trkpt>
      <trkpt lat="34.962873375043273" lon="-4.398831585422158">
        <ele>1460.860595703125</ele>
        <time>2011-04-16T16:12:16Z</time>
      </trkpt>
      <trkpt lat="34.962558299303055" lon="-4.398143095895648">
        <ele>1456.53466796875</ele>
        <time>2011-04-16T16:12:22Z</time>
      </trkpt>
      <trkpt lat="34.962274739518762" lon="-4.39811434596777">
        <ele>1456.053955078125</ele>
        <time>2011-04-16T16:12:25Z</time>
      </trkpt>
      <trkpt lat="34.962024791166186" lon="-4.39817595295608">
        <ele>1456.053955078125</ele>
        <time>2011-04-16T16:12:28Z</time>
      </trkpt>
      <trkpt lat="34.961657663807273" lon="-4.39814074896276">
        <ele>1455.573486328125</ele>
        <time>2011-04-16T16:12:32Z</time>
      </trkpt>
      <trkpt lat="34.961146870627999" lon="-4.398115519434214">
        <ele>1454.612060546875</ele>
        <time>2011-04-16T16:12:37Z</time>
      </trkpt>
      <trkpt lat="34.960683770477772" lon="-4.397922568023205">
        <ele>1452.689453125</ele>
        <time>2011-04-16T16:12:42Z</time>
      </trkpt>
      <trkpt lat="34.960587043315172" lon="-4.397462233901024">
        <ele>1450.2861328125</ele>
        <time>2011-04-16T16:12:46Z</time>
      </trkpt>
      <trkpt lat="34.96062844991684" lon="-4.397271042689681">
        <ele>1448.843994140625</ele>
        <time>2011-04-16T16:12:48Z</time>
      </trkpt>
      <trkpt lat="34.96070615015924" lon="-4.397008353844285">
        <ele>1447.402099609375</ele>
        <time>2011-04-16T16:12:51Z</time>
      </trkpt>
      <trkpt lat="34.960603890940547" lon="-4.396463362500072">
        <ele>1445.960205078125</ele>
        <time>2011-04-16T16:12:58Z</time>
      </trkpt>
      <trkpt lat="34.960180940106511" lon="-4.396072262898088">
        <ele>1445.4794921875</ele>
        <time>2011-04-16T16:13:05Z</time>
      </trkpt>
      <trkpt lat="34.959886986762285" lon="-4.395972182974219">
        <ele>1445.960205078125</ele>
        <time>2011-04-16T16:13:09Z</time>
      </trkpt>
      <trkpt lat="34.959652461111546" lon="-4.395611090585589">
        <ele>1445.4794921875</ele>
        <time>2011-04-16T16:13:14Z</time>
      </trkpt>
      <trkpt lat="34.959758659824729" lon="-4.395186882466078">
        <ele>1442.595703125</ele>
        <time>2011-04-16T16:13:18Z</time>
      </trkpt>
      <trkpt lat="34.96013886295259" lon="-4.394225561991334">
        <ele>1439.23095703125</ele>
        <time>2011-04-16T16:13:28Z</time>
      </trkpt>
      <trkpt lat="34.960175240412354" lon="-4.393517794087529">
        <ele>1436.34716796875</ele>
        <time>2011-04-16T16:13:35Z</time>
      </trkpt>
      <trkpt lat="34.959885561838746" lon="-4.392938353121281">
        <ele>1433.943603515625</ele>
        <time>2011-04-16T16:13:42Z</time>
      </trkpt>
      <trkpt lat="34.959658160805702" lon="-4.392783455550671">
        <ele>1432.982177734375</ele>
        <time>2011-04-16T16:13:45Z</time>
      </trkpt>
      <trkpt lat="34.959319699555635" lon="-4.392175683751702">
        <ele>1430.5791015625</ele>
        <time>2011-04-16T16:13:51Z</time>
      </trkpt>
      <trkpt lat="34.959404272958636" lon="-4.39160194247961">
        <ele>1428.17578125</ele>
        <time>2011-04-16T16:13:56Z</time>
      </trkpt>
      <trkpt lat="34.959896793588996" lon="-4.390829131007195">
        <ele>1424.33056640625</ele>
        <time>2011-04-16T16:14:05Z</time>
      </trkpt>
      <trkpt lat="34.960038280114532" lon="-4.390076687559485">
        <ele>1421.446533203125</ele>
        <time>2011-04-16T16:14:13Z</time>
      </trkpt>
      <trkpt lat="34.960200889036059" lon="-4.389381157234311">
        <ele>1419.043212890625</ele>
        <time>2011-04-16T16:14:21Z</time>
      </trkpt>
      <trkpt lat="34.960198542103171" lon="-4.388741534203291">
        <ele>1415.6787109375</ele>
        <time>2011-04-16T16:14:27Z</time>
      </trkpt>
      <trkpt lat="34.960478246212006" lon="-4.387883059680462">
        <ele>1412.794677734375</ele>
        <time>2011-04-16T16:14:35Z</time>
      </trkpt>
      <trkpt lat="34.960528956726193" lon="-4.387770239263773">
        <ele>1412.794677734375</ele>
        <time>2011-04-16T16:14:36Z</time>
      </trkpt>
      <trkpt lat="34.960854845121503" lon="-4.387488691136241">
        <ele>1410.391357421875</ele>
        <time>2011-04-16T16:14:41Z</time>
      </trkpt>
      <trkpt lat="34.961271760985255" lon="-4.387646690011025">
        <ele>1407.507568359375</ele>
        <time>2011-04-16T16:14:47Z</time>
      </trkpt>
      <trkpt lat="34.961835443973541" lon="-4.38842386007309">
        <ele>1402.70068359375</ele>
        <time>2011-04-16T16:14:57Z</time>
      </trkpt>
      <trkpt lat="34.962264765053988" lon="-4.388621337711811">
        <ele>1400.778076171875</ele>
        <time>2011-04-16T16:15:03Z</time>
      </trkpt>
      <trkpt lat="34.962492669001222" lon="-4.388573141768575">
        <ele>1399.81689453125</ele>
        <time>2011-04-16T16:15:06Z</time>
      </trkpt>
      <trkpt lat="34.963026344776154" lon="-4.388780761510134">
        <ele>1396.452392578125</ele>
        <time>2011-04-16T16:15:13Z</time>
      </trkpt>
      <trkpt lat="34.963579131290317" lon="-4.389558518305421">
        <ele>1390.684326171875</ele>
        <time>2011-04-16T16:15:22Z</time>
      </trkpt>
      <trkpt lat="34.963676948100328" lon="-4.389720959588885">
        <ele>1389.72314453125</ele>
        <time>2011-04-16T16:15:24Z</time>
      </trkpt>
      <trkpt lat="34.964061425998807" lon="-4.390112143009901">
        <ele>1386.3583984375</ele>
        <time>2011-04-16T16:15:30Z</time>
      </trkpt>
      <trkpt lat="34.964327635243535" lon="-4.390452867373824">
        <ele>1383.955078125</ele>
        <time>2011-04-16T16:15:34Z</time>
      </trkpt>
      <trkpt lat="34.964784784242511" lon="-4.390573566779494">
        <ele>1381.0712890625</ele>
        <time>2011-04-16T16:15:40Z</time>
      </trkpt>
      <trkpt lat="34.965024758130312" lon="-4.390334682539105">
        <ele>1381.0712890625</ele>
        <time>2011-04-16T16:15:45Z</time>
      </trkpt>
      <trkpt lat="34.965075217187405" lon="-4.390194872394204">
        <ele>1381.0712890625</ele>
        <time>2011-04-16T16:15:47Z</time>
      </trkpt>
      <trkpt lat="34.965198682621121" lon="-4.389711320400238">
        <ele>1382.032470703125</ele>
        <time>2011-04-16T16:15:52Z</time>
      </trkpt>
      <trkpt lat="34.96540236286819" lon="-4.389292057603598">
        <ele>1381.0712890625</ele>
        <time>2011-04-16T16:15:56Z</time>
      </trkpt>
      <trkpt lat="34.965513842180371" lon="-4.388860389590263">
        <ele>1379.629150390625</ele>
        <time>2011-04-16T16:16:00Z</time>
      </trkpt>
      <trkpt lat="34.965681983157992" lon="-4.387593884021044">
        <ele>1373.861328125</ele>
        <time>2011-04-16T16:16:12Z</time>
      </trkpt>
      <trkpt lat="34.965613754466176" lon="-4.38689885661006">
        <ele>1370.015869140625</ele>
        <time>2011-04-16T16:16:19Z</time>
      </trkpt>
      <trkpt lat="34.965518871322274" lon="-4.386740271002054">
        <ele>1369.0546875</ele>
        <time>2011-04-16T16:16:21Z</time>
      </trkpt>
      <trkpt lat="34.965353747829795" lon="-4.38651136122644">
        <ele>1366.6513671875</ele>
        <time>2011-04-16T16:16:24Z</time>
      </trkpt>
      <trkpt lat="34.965242687612772" lon="-4.386066365987063">
        <ele>1364.248046875</ele>
        <time>2011-04-16T16:16:28Z</time>
      </trkpt>
      <trkpt lat="34.96527629904449" lon="-4.385051066055894">
        <ele>1361.3642578125</ele>
        <time>2011-04-16T16:16:38Z</time>
      </trkpt>
      <trkpt lat="34.965311419218779" lon="-4.384347321465612">
        <ele>1359.441650390625</ele>
        <time>2011-04-16T16:16:44Z</time>
      </trkpt>
      <trkpt lat="34.965572264045477" lon="-4.383895453065634">
        <ele>1357.038330078125</ele>
        <time>2011-04-16T16:16:49Z</time>
      </trkpt>
      <trkpt lat="34.966013319790363" lon="-4.383826470002532">
        <ele>1355.115478515625</ele>
        <time>2011-04-16T16:16:54Z</time>
      </trkpt>
      <trkpt lat="34.966954439878464" lon="-4.384333994239569">
        <ele>1349.828369140625</ele>
        <time>2011-04-16T16:17:06Z</time>
      </trkpt>
      <trkpt lat="34.967459533363581" lon="-4.384697768837214">
        <ele>1346.9443359375</ele>
        <time>2011-04-16T16:17:13Z</time>
      </trkpt>
      <trkpt lat="34.967683665454388" lon="-4.384970096871257">
        <ele>1345.50244140625</ele>
        <time>2011-04-16T16:17:17Z</time>
      </trkpt>
      <trkpt lat="34.967940738424659" lon="-4.385586082935333">
        <ele>1344.060546875</ele>
        <time>2011-04-16T16:17:24Z</time>
      </trkpt>
      <trkpt lat="34.968302417546511" lon="-4.385859668254852">
        <ele>1341.176513671875</ele>
        <time>2011-04-16T16:17:30Z</time>
      </trkpt>
      <trkpt lat="34.968644063919783" lon="-4.385695047676563">
        <ele>1339.253662109375</ele>
        <time>2011-04-16T16:17:35Z</time>
      </trkpt>
      <trkpt lat="34.968781527131796" lon="-4.385351138189435">
        <ele>1337.811767578125</ele>
        <time>2011-04-16T16:17:39Z</time>
      </trkpt>
      <trkpt lat="34.968884875997901" lon="-4.384888038039208">
        <ele>1336.369873046875</ele>
        <time>2011-04-16T16:17:44Z</time>
      </trkpt>
      <trkpt lat="34.969160221517086" lon="-4.384499620646238">
        <ele>1334.927978515625</ele>
        <time>2011-04-16T16:17:49Z</time>
      </trkpt>
      <trkpt lat="34.969289470463991" lon="-4.384408174082637">
        <ele>1334.927978515625</ele>
        <time>2011-04-16T16:17:51Z</time>
      </trkpt>
      <trkpt lat="34.969455348327756" lon="-4.384031491354108">
        <ele>1334.927978515625</ele>
        <time>2011-04-16T16:17:57Z</time>
      </trkpt>
      <trkpt lat="34.96929869055748" lon="-4.383675260469317">
        <ele>1334.447265625</ele>
        <time>2011-04-16T16:18:02Z</time>
      </trkpt>
      <trkpt lat="34.968993673101068" lon="-4.383310060948134">
        <ele>1333.48583984375</ele>
        <time>2011-04-16T16:18:07Z</time>
      </trkpt>
      <trkpt lat="34.968856377527118" lon="-4.382923990488052">
        <ele>1332.524658203125</ele>
        <time>2011-04-16T16:18:11Z</time>
      </trkpt>
      <trkpt lat="34.96876903809607" lon="-4.38218604773283">
        <ele>1330.121337890625</ele>
        <time>2011-04-16T16:18:19Z</time>
      </trkpt>
      <trkpt lat="34.968637442216277" lon="-4.381882455199957">
        <ele>1329.159912109375</ele>
        <time>2011-04-16T16:18:23Z</time>
      </trkpt>
      <trkpt lat="34.968064036220312" lon="-4.380931863561273">
        <ele>1324.353515625</ele>
        <time>2011-04-16T16:18:35Z</time>
      </trkpt>
      <trkpt lat="34.96793202124536" lon="-4.380655596032739">
        <ele>1322.911376953125</ele>
        <time>2011-04-16T16:18:38Z</time>
      </trkpt>
      <trkpt lat="34.967638570815325" lon="-4.380305148661137">
        <ele>1321.46923828125</ele>
        <time>2011-04-16T16:18:43Z</time>
      </trkpt>
      <trkpt lat="34.967086454853415" lon="-4.379741549491882">
        <ele>1318.104736328125</ele>
        <time>2011-04-16T16:18:52Z</time>
      </trkpt>
      <trkpt lat="34.966719578951597" lon="-4.379316084086895">
        <ele>1315.70166015625</ele>
        <time>2011-04-16T16:18:59Z</time>
      </trkpt>
      <trkpt lat="34.966159416362643" lon="-4.378764051944017">
        <ele>1312.3369140625</ele>
        <time>2011-04-16T16:19:08Z</time>
      </trkpt>
      <trkpt lat="34.966041566804051" lon="-4.37856531701982">
        <ele>1311.375732421875</ele>
        <time>2011-04-16T16:19:10Z</time>
      </trkpt>
      <trkpt lat="34.96589245274663" lon="-4.378112778067589">
        <ele>1309.453125</ele>
        <time>2011-04-16T16:19:14Z</time>
      </trkpt>
      <trkpt lat="34.965820871293545" lon="-4.377065794542432">
        <ele>1304.165771484375</ele>
        <time>2011-04-16T16:19:23Z</time>
      </trkpt>
      <trkpt lat="34.965737471356988" lon="-4.376513678580523">
        <ele>1302.242919921875</ele>
        <time>2011-04-16T16:19:30Z</time>
      </trkpt>
      <trkpt lat="34.965544436126947" lon="-4.375551771372557">
        <ele>1299.83984375</ele>
        <time>2011-04-16T16:19:40Z</time>
      </trkpt>
      <trkpt lat="34.965750128030777" lon="-4.374989094212651">
        <ele>1297.4365234375</ele>
        <time>2011-04-16T16:19:46Z</time>
      </trkpt>
      <trkpt lat="34.966129744425416" lon="-4.374934360384941">
        <ele>1294.552490234375</ele>
        <time>2011-04-16T16:19:50Z</time>
      </trkpt>
      <trkpt lat="34.966227058321238" lon="-4.374960763379931">
        <ele>1294.072021484375</ele>
        <time>2011-04-16T16:19:51Z</time>
      </trkpt>
      <trkpt lat="34.967243866994977" lon="-4.375354461371899">
        <ele>1287.8232421875</ele>
        <time>2011-04-16T16:20:03Z</time>
      </trkpt>
      <trkpt lat="34.968046266585588" lon="-4.37578059732914">
        <ele>1283.97802734375</ele>
        <time>2011-04-16T16:20:15Z</time>
      </trkpt>
      <trkpt lat="34.968294370919466" lon="-4.376192316412926">
        <ele>1281.57470703125</ele>
        <time>2011-04-16T16:20:20Z</time>
      </trkpt>
      <trkpt lat="34.968598298728466" lon="-4.377570133656263">
        <ele>1275.806640625</ele>
        <time>2011-04-16T16:20:35Z</time>
      </trkpt>
      <trkpt lat="34.968611458316445" lon="-4.37778839841485">
        <ele>1274.845458984375</ele>
        <time>2011-04-16T16:20:37Z</time>
      </trkpt>
      <trkpt lat="34.968867190182209" lon="-4.378290977329016">
        <ele>1271.96142578125</ele>
        <time>2011-04-16T16:20:43Z</time>
      </trkpt>
      <trkpt lat="34.96938711963594" lon="-4.378522736951709">
        <ele>1269.558349609375</ele>
        <time>2011-04-16T16:20:50Z</time>
      </trkpt>
      <trkpt lat="34.969774866476655" lon="-4.378515193238854">
        <ele>1268.1162109375</ele>
        <time>2011-04-16T16:20:55Z</time>
      </trkpt>
      <trkpt lat="34.969958597794175" lon="-4.378256192430854">
        <ele>1267.635498046875</ele>
        <time>2011-04-16T16:20:59Z</time>
      </trkpt>
      <trkpt lat="34.970375262200832" lon="-4.377394448965788">
        <ele>1266.67431640625</ele>
        <time>2011-04-16T16:21:09Z</time>
      </trkpt>
      <trkpt lat="34.970578774809837" lon="-4.377024471759796">
        <ele>1265.713134765625</ele>
        <time>2011-04-16T16:21:13Z</time>
      </trkpt>
      <trkpt lat="34.970983620733023" lon="-4.376747366040945">
        <ele>1264.27099609375</ele>
        <time>2011-04-16T16:21:19Z</time>
      </trkpt>
      <trkpt lat="34.971126783639193" lon="-4.376768488436937">
        <ele>1263.309814453125</ele>
        <time>2011-04-16T16:21:21Z</time>
      </trkpt>
      <trkpt lat="34.971563899889588" lon="-4.376868568360806">
        <ele>1262.348388671875</ele>
        <time>2011-04-16T16:21:27Z</time>
      </trkpt>
      <trkpt lat="34.971953658387065" lon="-4.37674225308001">
        <ele>1262.348388671875</ele>
        <time>2011-04-16T16:21:33Z</time>
      </trkpt>
      <trkpt lat="34.972064131870866" lon="-4.376656170934439">
        <ele>1262.348388671875</ele>
        <time>2011-04-16T16:21:35Z</time>
      </trkpt>
      <trkpt lat="34.972495548427105" lon="-4.376670084893704">
        <ele>1261.38720703125</ele>
        <time>2011-04-16T16:21:41Z</time>
      </trkpt>
      <trkpt lat="34.972719680517912" lon="-4.376980466768146">
        <ele>1258.983642578125</ele>
        <time>2011-04-16T16:21:45Z</time>
      </trkpt>
      <trkpt lat="34.972809618338943" lon="-4.377156235277653">
        <ele>1258.0224609375</ele>
        <time>2011-04-16T16:21:47Z</time>
      </trkpt>
      <trkpt lat="34.973207088187337" lon="-4.377378020435572">
        <ele>1255.619140625</ele>
        <time>2011-04-16T16:21:53Z</time>
      </trkpt>
      <trkpt lat="34.973496431484818" lon="-4.377183727920055">
        <ele>1254.65771484375</ele>
        <time>2011-04-16T16:21:58Z</time>
      </trkpt>
      <trkpt lat="34.973593996837735" lon="-4.376990776509047">
        <ele>1254.65771484375</ele>
        <time>2011-04-16T16:22:01Z</time>
      </trkpt>
      <trkpt lat="34.973740596324205" lon="-4.376568496227264">
        <ele>1254.65771484375</ele>
        <time>2011-04-16T16:22:06Z</time>
      </trkpt>
      <trkpt lat="34.974112333729863" lon="-4.376229867339134">
        <ele>1254.17724609375</ele>
        <time>2011-04-16T16:22:12Z</time>
      </trkpt>
      <trkpt lat="34.974285084754229" lon="-4.37624285928905">
        <ele>1253.2158203125</ele>
        <time>2011-04-16T16:22:14Z</time>
      </trkpt>
      <trkpt lat="34.974453980103135" lon="-4.376280158758164">
        <ele>1252.735107421875</ele>
        <time>2011-04-16T16:22:16Z</time>
      </trkpt>
      <trkpt lat="34.97484365478158" lon="-4.37610799446702">
        <ele>1252.25439453125</ele>
        <time>2011-04-16T16:22:22Z</time>
      </trkpt>
      <trkpt lat="34.974912218749523" lon="-4.375637099146843">
        <ele>1252.25439453125</ele>
        <time>2011-04-16T16:22:28Z</time>
      </trkpt>
      <trkpt lat="34.974642237648368" lon="-4.37531347386539">
        <ele>1250.8125</ele>
        <time>2011-04-16T16:22:33Z</time>
      </trkpt>
      <trkpt lat="34.973878730088472" lon="-4.374715592712164">
        <ele>1248.4091796875</ele>
        <time>2011-04-16T16:22:42Z</time>
      </trkpt>
      <trkpt lat="34.973510093986988" lon="-4.374122489243746">
        <ele>1246.96728515625</ele>
        <time>2011-04-16T16:22:49Z</time>
      </trkpt>
      <trkpt lat="34.973398949950933" lon="-4.373925933614373">
        <ele>1246.48681640625</ele>
        <time>2011-04-16T16:22:51Z</time>
      </trkpt>
      <trkpt lat="34.972820933908224" lon="-4.373284047469497">
        <ele>1243.6025390625</ele>
        <time>2011-04-16T16:23:00Z</time>
      </trkpt>
      <trkpt lat="34.972258256748319" lon="-4.372394643723965">
        <ele>1240.238037109375</ele>
        <time>2011-04-16T16:23:11Z</time>
      </trkpt>
      <trkpt lat="34.971879981458187" lon="-4.371599117293954">
        <ele>1239.276611328125</ele>
        <time>2011-04-16T16:23:19Z</time>
      </trkpt>
      <trkpt lat="34.971827426925302" lon="-4.371397197246552">
        <ele>1238.796142578125</ele>
        <time>2011-04-16T16:23:21Z</time>
      </trkpt>
      <trkpt lat="34.971815859898925" lon="-4.370850697159767">
        <ele>1235.912109375</ele>
        <time>2011-04-16T16:23:26Z</time>
      </trkpt>
      <trkpt lat="34.971936643123627" lon="-4.370076628401876">
        <ele>1232.547607421875</ele>
        <time>2011-04-16T16:23:35Z</time>
      </trkpt>
      <trkpt lat="34.972094893455505" lon="-4.369045319035649">
        <ele>1230.625</ele>
        <time>2011-04-16T16:23:44Z</time>
      </trkpt>
      <trkpt lat="34.972204193472862" lon="-4.368233783170581">
        <ele>1228.2216796875</ele>
        <time>2011-04-16T16:23:52Z</time>
      </trkpt>
      <trkpt lat="34.97199053876102" lon="-4.36781644821167">
        <ele>1224.85693359375</ele>
        <time>2011-04-16T16:24:01Z</time>
      </trkpt>
      <trkpt lat="34.971683090552688" lon="-4.367761127650738">
        <ele>1222.934326171875</ele>
        <time>2011-04-16T16:24:08Z</time>
      </trkpt>
      <trkpt lat="34.971436662599444" lon="-4.36791074462235">
        <ele>1220.05029296875</ele>
        <time>2011-04-16T16:24:14Z</time>
      </trkpt>
      <trkpt lat="34.971116557717323" lon="-4.368250630795956">
        <ele>1219.089111328125</ele>
        <time>2011-04-16T16:24:24Z</time>
      </trkpt>
      <trkpt lat="34.970905166119337" lon="-4.368484821170569">
        <ele>1218.127685546875</ele>
        <time>2011-04-16T16:24:31Z</time>
      </trkpt>
      <trkpt lat="34.970603585243225" lon="-4.368793861940503">
        <ele>1218.127685546875</ele>
        <time>2011-04-16T16:24:37Z</time>
      </trkpt>
      <trkpt lat="34.970102850347757" lon="-4.368990752846003">
        <ele>1219.56982421875</ele>
        <time>2011-04-16T16:24:43Z</time>
      </trkpt>
      <trkpt lat="34.969289554283023" lon="-4.368929984048009">
        <ele>1221.972900390625</ele>
        <time>2011-04-16T16:24:51Z</time>
      </trkpt>
      <trkpt lat="34.969195341691375" lon="-4.368891678750515">
        <ele>1222.45361328125</ele>
        <time>2011-04-16T16:24:52Z</time>
      </trkpt>
      <trkpt lat="34.968290347605944" lon="-4.36827233992517">
        <ele>1223.8955078125</ele>
        <time>2011-04-16T16:25:02Z</time>
      </trkpt>
      <trkpt lat="34.967487445101142" lon="-4.367613438516855">
        <ele>1223.8955078125</ele>
        <time>2011-04-16T16:25:10Z</time>
      </trkpt>
      <trkpt lat="34.967083353549242" lon="-4.367191325873137">
        <ele>1223.4150390625</ele>
        <time>2011-04-16T16:25:14Z</time>
      </trkpt>
      <trkpt lat="34.966588737443089" lon="-4.366348190233111">
        <ele>1223.4150390625</ele>
        <time>2011-04-16T16:25:21Z</time>
      </trkpt>
      <trkpt lat="34.966083141043782" lon="-4.365928173065186">
        <ele>1223.8955078125</ele>
        <time>2011-04-16T16:25:27Z</time>
      </trkpt>
      <trkpt lat="34.965982558205724" lon="-4.365903781726956">
        <ele>1224.376220703125</ele>
        <time>2011-04-16T16:25:28Z</time>
      </trkpt>
      <trkpt lat="34.965567151084542" lon="-4.365824069827795">
        <ele>1225.33740234375</ele>
        <time>2011-04-16T16:25:32Z</time>
      </trkpt>
      <trkpt lat="34.965105224400759" lon="-4.365500779822469">
        <ele>1226.779541015625</ele>
        <time>2011-04-16T16:25:37Z</time>
      </trkpt>
      <trkpt lat="34.964515138417482" lon="-4.36474003829062">
        <ele>1226.779541015625</ele>
        <time>2011-04-16T16:25:45Z</time>
      </trkpt>
      <trkpt lat="34.964076178148389" lon="-4.364567957818508">
        <ele>1226.779541015625</ele>
        <time>2011-04-16T16:25:50Z</time>
      </trkpt>
      <trkpt lat="34.96377082541585" lon="-4.364928882569075">
        <ele>1227.74072265625</ele>
        <time>2011-04-16T16:25:54Z</time>
      </trkpt>
      <trkpt lat="34.963647192344069" lon="-4.365152176469564">
        <ele>1228.702392578125</ele>
        <time>2011-04-16T16:25:56Z</time>
      </trkpt>
      <trkpt lat="34.963215021416545" lon="-4.365401789546013">
        <ele>1227.74072265625</ele>
        <time>2011-04-16T16:26:01Z</time>
      </trkpt>
      <trkpt lat="34.962803972885013" lon="-4.365029716864228">
        <ele>1225.818115234375</ele>
        <time>2011-04-16T16:26:05Z</time>
      </trkpt>
      <trkpt lat="34.962136521935463" lon="-4.364668959751725">
        <ele>1224.85693359375</ele>
        <time>2011-04-16T16:26:11Z</time>
      </trkpt>
      <trkpt lat="34.961894787847996" lon="-4.364832993596792">
        <ele>1226.779541015625</ele>
        <time>2011-04-16T16:26:13Z</time>
      </trkpt>
      <trkpt lat="34.961137399077415" lon="-4.365345546975732">
        <ele>1228.702392578125</ele>
        <time>2011-04-16T16:26:19Z</time>
      </trkpt>
      <trkpt lat="34.960476569831371" lon="-4.365216549485922">
        <ele>1229.182861328125</ele>
        <time>2011-04-16T16:26:24Z</time>
      </trkpt>
      <trkpt lat="34.959604348987341" lon="-4.364806674420834">
        <ele>1227.26025390625</ele>
        <time>2011-04-16T16:26:30Z</time>
      </trkpt>
      <trkpt lat="34.959330931305885" lon="-4.364693937823176">
        <ele>1226.298828125</ele>
        <time>2011-04-16T16:26:32Z</time>
      </trkpt>
      <trkpt lat="34.958968162536621" lon="-4.364013159647584">
        <ele>1226.779541015625</ele>
        <time>2011-04-16T16:26:37Z</time>
      </trkpt>
      <trkpt lat="34.95851662941277" lon="-4.362871795892716">
        <ele>1228.2216796875</ele>
        <time>2011-04-16T16:26:44Z</time>
      </trkpt>
      <trkpt lat="34.958348488435149" lon="-4.362577926367521">
        <ele>1228.2216796875</ele>
        <time>2011-04-16T16:26:46Z</time>
      </trkpt>
      <trkpt lat="34.958236254751682" lon="-4.361760690808296">
        <ele>1227.74072265625</ele>
        <time>2011-04-16T16:26:51Z</time>
      </trkpt>
      <trkpt lat="34.958356451243162" lon="-4.361413428559899">
        <ele>1228.2216796875</ele>
        <time>2011-04-16T16:26:53Z</time>
      </trkpt>
      <trkpt lat="34.958888869732618" lon="-4.360221941024065">
        <ele>1228.702392578125</ele>
        <time>2011-04-16T16:27:00Z</time>
      </trkpt>
      <trkpt lat="34.959314335137606" lon="-4.359768480062485">
        <ele>1227.74072265625</ele>
        <time>2011-04-16T16:27:04Z</time>
      </trkpt>
      <trkpt lat="34.959583478048444" lon="-4.359150230884552">
        <ele>1228.2216796875</ele>
        <time>2011-04-16T16:27:08Z</time>
      </trkpt>
      <trkpt lat="34.959558667615056" lon="-4.358962140977383">
        <ele>1227.74072265625</ele>
        <time>2011-04-16T16:27:09Z</time>
      </trkpt>
      <trkpt lat="34.959602253511548" lon="-4.358075419440866">
        <ele>1231.105712890625</ele>
        <time>2011-04-16T16:27:14Z</time>
      </trkpt>
      <trkpt lat="34.960020175203681" lon="-4.357544677332044">
        <ele>1233.989501953125</ele>
        <time>2011-04-16T16:27:19Z</time>
      </trkpt>
      <trkpt lat="34.960293928161263" lon="-4.357430767267942">
        <ele>1233.989501953125</ele>
        <time>2011-04-16T16:27:21Z</time>
      </trkpt>
      <trkpt lat="34.961350550875068" lon="-4.357156679034233">
        <ele>1235.912109375</ele>
        <time>2011-04-16T16:27:28Z</time>
      </trkpt>
      <trkpt lat="34.961787331849337" lon="-4.356702798977494">
        <ele>1238.3154296875</ele>
        <time>2011-04-16T16:27:33Z</time>
      </trkpt>
      <trkpt lat="34.961799988523126" lon="-4.356396356597543">
        <ele>1240.238037109375</ele>
        <time>2011-04-16T16:27:35Z</time>
      </trkpt>
      <trkpt lat="34.96175916865468" lon="-4.356070971116424">
        <ele>1240.238037109375</ele>
        <time>2011-04-16T16:27:37Z</time>
      </trkpt>
      <trkpt lat="34.961529755964875" lon="-4.355438053607941">
        <ele>1241.19921875</ele>
        <time>2011-04-16T16:27:41Z</time>
      </trkpt>
      <trkpt lat="34.961343593895435" lon="-4.355151895433664">
        <ele>1240.238037109375</ele>
        <time>2011-04-16T16:27:43Z</time>
      </trkpt>
      <trkpt lat="34.961273856461048" lon="-4.354328876361251">
        <ele>1240.718505859375</ele>
        <time>2011-04-16T16:27:48Z</time>
      </trkpt>
      <trkpt lat="34.961339654400945" lon="-4.354156041517854">
        <ele>1241.19921875</ele>
        <time>2011-04-16T16:27:49Z</time>
      </trkpt>
      <trkpt lat="34.961620448157191" lon="-4.353500157594681">
        <ele>1242.16064453125</ele>
        <time>2011-04-16T16:27:53Z</time>
      </trkpt>
      <trkpt lat="34.961966620758176" lon="-4.353001266717911">
        <ele>1242.641357421875</ele>
        <time>2011-04-16T16:27:57Z</time>
      </trkpt>
      <trkpt lat="34.962029065936804" lon="-4.352355441078544">
        <ele>1242.641357421875</ele>
        <time>2011-04-16T16:28:02Z</time>
      </trkpt>
      <trkpt lat="34.961713152006269" lon="-4.352076994255185">
        <ele>1242.16064453125</ele>
        <time>2011-04-16T16:28:05Z</time>
      </trkpt>
      <trkpt lat="34.96131207793951" lon="-4.351991917937994">
        <ele>1241.679931640625</ele>
        <time>2011-04-16T16:28:08Z</time>
      </trkpt>
      <trkpt lat="34.959808951243758" lon="-4.351783292368054">
        <ele>1239.75732421875</ele>
        <time>2011-04-16T16:28:18Z</time>
      </trkpt>
      <trkpt lat="34.959520027041435" lon="-4.351705592125654">
        <ele>1239.276611328125</ele>
        <time>2011-04-16T16:28:20Z</time>
      </trkpt>
      <trkpt lat="34.959193132817745" lon="-4.351138724014163">
        <ele>1238.796142578125</ele>
        <time>2011-04-16T16:28:25Z</time>
      </trkpt>
      <trkpt lat="34.959301762282848" lon="-4.350606724619865">
        <ele>1237.35400390625</ele>
        <time>2011-04-16T16:28:28Z</time>
      </trkpt>
      <trkpt lat="34.959639552980661" lon="-4.349321443587542">
        <ele>1232.06689453125</ele>
        <time>2011-04-16T16:28:36Z</time>
      </trkpt>
      <trkpt lat="34.959699399769306" lon="-4.349083648994565">
        <ele>1231.586181640625</ele>
        <time>2011-04-16T16:28:41Z</time>
      </trkpt>
      <trkpt lat="34.959744662046432" lon="-4.348906287923455">
        <ele>1232.06689453125</ele>
        <time>2011-04-16T16:28:50Z</time>
      </trkpt>
      <trkpt lat="34.95984666980803" lon="-4.348484091460705">
        <ele>1230.625</ele>
        <time>2011-04-16T16:28:57Z</time>
      </trkpt>
      <trkpt lat="34.96013542637229" lon="-4.347614636644721">
        <ele>1228.2216796875</ele>
        <time>2011-04-16T16:29:05Z</time>
      </trkpt>
      <trkpt lat="34.960738085210323" lon="-4.346690028905869">
        <ele>1223.4150390625</ele>
        <time>2011-04-16T16:29:12Z</time>
      </trkpt>
      <trkpt lat="34.961710553616285" lon="-4.345689062029123">
        <ele>1216.205078125</ele>
        <time>2011-04-16T16:29:21Z</time>
      </trkpt>
      <trkpt lat="34.96208212338388" lon="-4.345458894968033">
        <ele>1213.3212890625</ele>
        <time>2011-04-16T16:29:24Z</time>
      </trkpt>
      <trkpt lat="34.962620995938778" lon="-4.345350684598088">
        <ele>1209.956298828125</ele>
        <time>2011-04-16T16:29:28Z</time>
      </trkpt>
      <trkpt lat="34.964113980531693" lon="-4.345327466726303">
        <ele>1201.3046875</ele>
        <time>2011-04-16T16:29:39Z</time>
      </trkpt>
      <trkpt lat="34.964733654633164" lon="-4.345277594402432">
        <ele>1197.45947265625</ele>
        <time>2011-04-16T16:29:44Z</time>
      </trkpt>
      <trkpt lat="34.965119892731309" lon="-4.344824636355043">
        <ele>1195.53662109375</ele>
        <time>2011-04-16T16:29:49Z</time>
      </trkpt>
      <trkpt lat="34.965014783665538" lon="-4.344237484037876">
        <ele>1193.614013671875</ele>
        <time>2011-04-16T16:29:53Z</time>
      </trkpt>
      <trkpt lat="34.964636424556375" lon="-4.342921860516071">
        <ele>1187.84619140625</ele>
        <time>2011-04-16T16:30:01Z</time>
      </trkpt>
      <trkpt lat="34.964489573612809" lon="-4.34138503856957">
        <ele>1180.636474609375</ele>
        <time>2011-04-16T16:30:10Z</time>
      </trkpt>
      <trkpt lat="34.964796183630824" lon="-4.339858861640096">
        <ele>1173.906982421875</ele>
        <time>2011-04-16T16:30:19Z</time>
      </trkpt>
      <trkpt lat="34.965172279626131" lon="-4.338920172303915">
        <ele>1169.1005859375</ele>
        <time>2011-04-16T16:30:26Z</time>
      </trkpt>
      <trkpt lat="34.965865965932608" lon="-4.3373494874686">
        <ele>1161.409912109375</ele>
        <time>2011-04-16T16:30:38Z</time>
      </trkpt>
      <trkpt lat="34.966272655874491" lon="-4.336282555013895">
        <ele>1156.603271484375</ele>
        <time>2011-04-16T16:30:47Z</time>
      </trkpt>
      <trkpt lat="34.966602567583323" lon="-4.334994675591588">
        <ele>1150.35498046875</ele>
        <time>2011-04-16T16:30:57Z</time>
      </trkpt>
      <trkpt lat="34.967055777087808" lon="-4.333396079018712">
        <ele>1142.664306640625</ele>
        <time>2011-04-16T16:31:10Z</time>
      </trkpt>
      <trkpt lat="34.967129370197654" lon="-4.333136156201363">
        <ele>1141.22216796875</ele>
        <time>2011-04-16T16:31:12Z</time>
      </trkpt>
      <trkpt lat="34.967084862291813" lon="-4.332493264228106">
        <ele>1138.819091796875</ele>
        <time>2011-04-16T16:31:18Z</time>
      </trkpt>
      <trkpt lat="34.96678764000535" lon="-4.332236358895898">
        <ele>1137.857666015625</ele>
        <time>2011-04-16T16:31:23Z</time>
      </trkpt>
      <trkpt lat="34.965782985091209" lon="-4.331958582624793">
        <ele>1138.819091796875</ele>
        <time>2011-04-16T16:31:36Z</time>
      </trkpt>
      <trkpt lat="34.965001037344337" lon="-4.331726152449846">
        <ele>1140.741455078125</ele>
        <time>2011-04-16T16:31:46Z</time>
      </trkpt>
      <trkpt lat="34.96406645514071" lon="-4.331465056166053">
        <ele>1140.260986328125</ele>
        <time>2011-04-16T16:31:57Z</time>
      </trkpt>
      <trkpt lat="34.963808543980122" lon="-4.331413423642516">
        <ele>1139.7802734375</ele>
        <time>2011-04-16T16:32:00Z</time>
      </trkpt>
      <trkpt lat="34.963291632011533" lon="-4.331523058936">
        <ele>1138.819091796875</ele>
        <time>2011-04-16T16:32:05Z</time>
      </trkpt>
      <trkpt lat="34.962455788627267" lon="-4.33197601698339">
        <ele>1138.819091796875</ele>
        <time>2011-04-16T16:32:15Z</time>
      </trkpt>
      <trkpt lat="34.961440740153193" lon="-4.332519080489874">
        <ele>1138.819091796875</ele>
        <time>2011-04-16T16:32:27Z</time>
      </trkpt>
      <trkpt lat="34.960712185129523" lon="-4.332728963345289">
        <ele>1138.33837890625</ele>
        <time>2011-04-16T16:32:34Z</time>
      </trkpt>
      <trkpt lat="34.959541233256459" lon="-4.332811944186688">
        <ele>1138.33837890625</ele>
        <time>2011-04-16T16:32:44Z</time>
      </trkpt>
      <trkpt lat="34.958592737093568" lon="-4.332870030775666">
        <ele>1137.376953125</ele>
        <time>2011-04-16T16:32:53Z</time>
      </trkpt>
      <trkpt lat="34.957694951444864" lon="-4.332927195355296">
        <ele>1136.415771484375</ele>
        <time>2011-04-16T16:33:03Z</time>
      </trkpt>
      <trkpt lat="34.95675316080451" lon="-4.333008667454124">
        <ele>1134.973876953125</ele>
        <time>2011-04-16T16:33:12Z</time>
      </trkpt>
      <trkpt lat="34.956368682906032" lon="-4.333346374332905">
        <ele>1134.012451171875</ele>
        <time>2011-04-16T16:33:18Z</time>
      </trkpt>
      <trkpt lat="34.956388296559453" lon="-4.333787430077791">
        <ele>1134.4931640625</ele>
        <time>2011-04-16T16:33:23Z</time>
      </trkpt>
      <trkpt lat="34.956829184666276" lon="-4.334829468280077">
        <ele>1137.376953125</ele>
        <time>2011-04-16T16:33:34Z</time>
      </trkpt>
      <trkpt lat="34.957222882658243" lon="-4.335779473185539">
        <ele>1141.22216796875</ele>
        <time>2011-04-16T16:33:45Z</time>
      </trkpt>
      <trkpt lat="34.9572510458529" lon="-4.33588357642293">
        <ele>1141.702880859375</ele>
        <time>2011-04-16T16:33:46Z</time>
      </trkpt>
      <trkpt lat="34.957367638126016" lon="-4.337009266018868">
        <ele>1142.664306640625</ele>
        <time>2011-04-16T16:33:55Z</time>
      </trkpt>
      <trkpt lat="34.957377780228853" lon="-4.33734118938446">
        <ele>1144.106201171875</ele>
        <time>2011-04-16T16:33:58Z</time>
      </trkpt>
      <trkpt lat="34.957153145223856" lon="-4.337874362245202">
        <ele>1146.02880859375</ele>
        <time>2011-04-16T16:34:05Z</time>
      </trkpt>
      <trkpt lat="34.956777719780803" lon="-4.337989445775747">
        <ele>1146.02880859375</ele>
        <time>2011-04-16T16:34:09Z</time>
      </trkpt>
      <trkpt lat="34.956571441143751" lon="-4.337965389713645">
        <ele>1145.548095703125</ele>
        <time>2011-04-16T16:34:11Z</time>
      </trkpt>
      <trkpt lat="34.95556678622961" lon="-4.337751651182771">
        <ele>1146.989990234375</ele>
        <time>2011-04-16T16:34:21Z</time>
      </trkpt>
      <trkpt lat="34.954893048852682" lon="-4.337903447449207">
        <ele>1147.470703125</ele>
        <time>2011-04-16T16:34:28Z</time>
      </trkpt>
      <trkpt lat="34.954222664237022" lon="-4.337898921221495">
        <ele>1145.0673828125</ele>
        <time>2011-04-16T16:34:35Z</time>
      </trkpt>
      <trkpt lat="34.953789319843054" lon="-4.338064631447196">
        <ele>1144.586669921875</ele>
        <time>2011-04-16T16:34:40Z</time>
      </trkpt>
      <trkpt lat="34.953205939382315" lon="-4.338548770174384">
        <ele>1142.18359375</ele>
        <time>2011-04-16T16:34:48Z</time>
      </trkpt>
      <trkpt lat="34.952644435688853" lon="-4.338604928925633">
        <ele>1141.702880859375</ele>
        <time>2011-04-16T16:34:54Z</time>
      </trkpt>
      <trkpt lat="34.951867768540978" lon="-4.338456820696592">
        <ele>1141.702880859375</ele>
        <time>2011-04-16T16:35:03Z</time>
      </trkpt>
      <trkpt lat="34.951116750016809" lon="-4.338479451835156">
        <ele>1141.22216796875</ele>
        <time>2011-04-16T16:35:12Z</time>
      </trkpt>
      <trkpt lat="34.95060863904655" lon="-4.338791845366359">
        <ele>1140.741455078125</ele>
        <time>2011-04-16T16:35:19Z</time>
      </trkpt>
      <trkpt lat="34.950236398726702" lon="-4.339485028758645">
        <ele>1139.7802734375</ele>
        <time>2011-04-16T16:35:28Z</time>
      </trkpt>
      <trkpt lat="34.949731137603521" lon="-4.339857688173652">
        <ele>1140.260986328125</ele>
        <time>2011-04-16T16:35:35Z</time>
      </trkpt>
      <trkpt lat="34.948841147124767" lon="-4.33976573869586">
        <ele>1139.299560546875</ele>
        <time>2011-04-16T16:35:45Z</time>
      </trkpt>
      <trkpt lat="34.947975967079401" lon="-4.339169366285205">
        <ele>1133.53173828125</ele>
        <time>2011-04-16T16:35:55Z</time>
      </trkpt>
      <trkpt lat="34.947703387588263" lon="-4.338578525930643">
        <ele>1131.60888671875</ele>
        <time>2011-04-16T16:36:01Z</time>
      </trkpt>
      <trkpt lat="34.94781126268208" lon="-4.338130597025156">
        <ele>1129.686279296875</ele>
        <time>2011-04-16T16:36:05Z</time>
      </trkpt>
      <trkpt lat="34.947877982631326" lon="-4.338040491566062">
        <ele>1128.72509765625</ele>
        <time>2011-04-16T16:36:06Z</time>
      </trkpt>
      <trkpt lat="34.948010668158531" lon="-4.337860196828842">
        <ele>1127.763671875</ele>
        <time>2011-04-16T16:36:08Z</time>
      </trkpt>
      <trkpt lat="34.948200266808271" lon="-4.337291065603495">
        <ele>1125.3603515625</ele>
        <time>2011-04-16T16:36:13Z</time>
      </trkpt>
      <trkpt lat="34.948281738907099" lon="-4.336728556081653">
        <ele>1124.399169921875</ele>
        <time>2011-04-16T16:36:18Z</time>
      </trkpt>
      <trkpt lat="34.948607543483377" lon="-4.33628766797483">
        <ele>1122.957275390625</ele>
        <time>2011-04-16T16:36:24Z</time>
      </trkpt>
      <trkpt lat="34.948976766318083" lon="-4.336107540875673">
        <ele>1121.51513671875</ele>
        <time>2011-04-16T16:36:28Z</time>
      </trkpt>
      <trkpt lat="34.949712445959449" lon="-4.335896149277687">
        <ele>1119.5927734375</ele>
        <time>2011-04-16T16:36:36Z</time>
      </trkpt>
      <trkpt lat="34.950388027355075" lon="-4.335362892597914">
        <ele>1119.5927734375</ele>
        <time>2011-04-16T16:36:46Z</time>
      </trkpt>
      <trkpt lat="34.950549630448222" lon="-4.334811195731163">
        <ele>1117.669921875</ele>
        <time>2011-04-16T16:36:52Z</time>
      </trkpt>
      <trkpt lat="34.950290797278285" lon="-4.334499388933182">
        <ele>1117.189453125</ele>
        <time>2011-04-16T16:36:57Z</time>
      </trkpt>
      <trkpt lat="34.950133049860597" lon="-4.334445241838694">
        <ele>1116.708740234375</ele>
        <time>2011-04-16T16:36:59Z</time>
      </trkpt>
      <trkpt lat="34.949411367997527" lon="-4.33426477946341">
        <ele>1117.669921875</ele>
        <time>2011-04-16T16:37:08Z</time>
      </trkpt>
      <trkpt lat="34.949039546772838" lon="-4.333827747032046">
        <ele>1117.189453125</ele>
        <time>2011-04-16T16:37:14Z</time>
      </trkpt>
      <trkpt lat="34.948984896764159" lon="-4.333603866398335">
        <ele>1116.22802734375</ele>
        <time>2011-04-16T16:37:16Z</time>
      </trkpt>
      <trkpt lat="34.948910884559155" lon="-4.332304252311587">
        <ele>1113.343994140625</ele>
        <time>2011-04-16T16:37:26Z</time>
      </trkpt>
      <trkpt lat="34.948901161551476" lon="-4.331932934001088">
        <ele>1113.824462890625</ele>
        <time>2011-04-16T16:37:29Z</time>
      </trkpt>
      <trkpt lat="34.948652135208249" lon="-4.331503780558705">
        <ele>1114.30517578125</ele>
        <time>2011-04-16T16:37:34Z</time>
      </trkpt>
      <trkpt lat="34.94836388155818" lon="-4.331441670656204">
        <ele>1114.785888671875</ele>
        <time>2011-04-16T16:37:37Z</time>
      </trkpt>
      <trkpt lat="34.948071353137493" lon="-4.331426499411464">
        <ele>1115.2666015625</ele>
        <time>2011-04-16T16:37:40Z</time>
      </trkpt>
      <trkpt lat="34.947541365399957" lon="-4.331123577430844">
        <ele>1114.30517578125</ele>
        <time>2011-04-16T16:37:46Z</time>
      </trkpt>
      <trkpt lat="34.946969384327531" lon="-4.330304833129048">
        <ele>1110.940673828125</ele>
        <time>2011-04-16T16:37:55Z</time>
      </trkpt>
      <trkpt lat="34.946633437648416" lon="-4.329710891470313">
        <ele>1108.056884765625</ele>
        <time>2011-04-16T16:38:01Z</time>
      </trkpt>
      <trkpt lat="34.946478372439742" lon="-4.328985940665007">
        <ele>1104.692138671875</ele>
        <time>2011-04-16T16:38:07Z</time>
      </trkpt>
      <trkpt lat="34.94610839523375" lon="-4.328439775854349">
        <ele>1100.366455078125</ele>
        <time>2011-04-16T16:38:13Z</time>
      </trkpt>
      <trkpt lat="34.945905636996031" lon="-4.32836702093482">
        <ele>1098.924072265625</ele>
        <time>2011-04-16T16:38:15Z</time>
      </trkpt>
      <trkpt lat="34.945069877430797" lon="-4.328193180263042">
        <ele>1093.636962890625</ele>
        <time>2011-04-16T16:38:23Z</time>
      </trkpt>
      <trkpt lat="34.944773577153683" lon="-4.327983381226659">
        <ele>1092.195068359375</ele>
        <time>2011-04-16T16:38:27Z</time>
      </trkpt>
      <trkpt lat="34.94436445645988" lon="-4.327434869483113">
        <ele>1090.2724609375</ele>
        <time>2011-04-16T16:38:34Z</time>
      </trkpt>
      <trkpt lat="34.944000598043203" lon="-4.326408840715885">
        <ele>1085.946533203125</ele>
        <time>2011-04-16T16:38:43Z</time>
      </trkpt>
      <trkpt lat="34.943898590281606" lon="-4.325534775853157">
        <ele>1081.139892578125</ele>
        <time>2011-04-16T16:38:50Z</time>
      </trkpt>
      <trkpt lat="34.943883921951056" lon="-4.323653960600495">
        <ele>1072.488037109375</ele>
        <time>2011-04-16T16:39:04Z</time>
      </trkpt>
      <trkpt lat="34.943953743204474" lon="-4.3218042422086">
        <ele>1071.526611328125</ele>
        <time>2011-04-16T16:39:17Z</time>
      </trkpt>
      <trkpt lat="34.944145185872912" lon="-4.320329446345568">
        <ele>1067.68115234375</ele>
        <time>2011-04-16T16:39:26Z</time>
      </trkpt>
      <trkpt lat="34.944339729845524" lon="-4.31908305734396">
        <ele>1066.2392578125</ele>
        <time>2011-04-16T16:39:34Z</time>
      </trkpt>
      <trkpt lat="34.944563275203109" lon="-4.318594643846154">
        <ele>1065.278076171875</ele>
        <time>2011-04-16T16:39:38Z</time>
      </trkpt>
      <trkpt lat="34.945087982341647" lon="-4.317601639777422">
        <ele>1062.39404296875</ele>
        <time>2011-04-16T16:39:47Z</time>
      </trkpt>
      <trkpt lat="34.945223182439804" lon="-4.317001579329372">
        <ele>1062.39404296875</ele>
        <time>2011-04-16T16:39:51Z</time>
      </trkpt>
      <trkpt lat="34.945169538259506" lon="-4.315543128177524">
        <ele>1063.35546875</ele>
        <time>2011-04-16T16:40:00Z</time>
      </trkpt>
      <trkpt lat="34.945166939869523" lon="-4.314110996201634">
        <ele>1064.316650390625</ele>
        <time>2011-04-16T16:40:09Z</time>
      </trkpt>
      <trkpt lat="34.94524983689189" lon="-4.313598359003663">
        <ele>1064.79736328125</ele>
        <time>2011-04-16T16:40:12Z</time>
      </trkpt>
      <trkpt lat="34.945510933175683" lon="-4.313052445650101">
        <ele>1063.8359375</ele>
        <time>2011-04-16T16:40:16Z</time>
      </trkpt>
      <trkpt lat="34.946360690519214" lon="-4.31196715682745">
        <ele>1063.35546875</ele>
        <time>2011-04-16T16:40:26Z</time>
      </trkpt>
      <trkpt lat="34.946505445986986" lon="-4.311773953959346">
        <ele>1063.8359375</ele>
        <time>2011-04-16T16:40:28Z</time>
      </trkpt>
      <trkpt lat="34.947106093168259" lon="-4.311484945937991">
        <ele>1062.874755859375</ele>
        <time>2011-04-16T16:40:34Z</time>
      </trkpt>
      <trkpt lat="34.948116783052683" lon="-4.311454687267542">
        <ele>1060.9521484375</ele>
        <time>2011-04-16T16:40:42Z</time>
      </trkpt>
      <trkpt lat="34.94855691678822" lon="-4.310975577682257">
        <ele>1060.471435546875</ele>
        <time>2011-04-16T16:40:47Z</time>
      </trkpt>
      <trkpt lat="34.948453232645988" lon="-4.310599733144045">
        <ele>1059.99072265625</ele>
        <time>2011-04-16T16:40:50Z</time>
      </trkpt>
      <trkpt lat="34.948291126638651" lon="-4.310391778126359">
        <ele>1060.471435546875</ele>
        <time>2011-04-16T16:40:52Z</time>
      </trkpt>
      <trkpt lat="34.947944367304444" lon="-4.309966983273625">
        <ele>1063.35546875</ele>
        <time>2011-04-16T16:40:56Z</time>
      </trkpt>
      <trkpt lat="34.947623759508133" lon="-4.309097277000547">
        <ele>1067.20068359375</ele>
        <time>2011-04-16T16:41:02Z</time>
      </trkpt>
      <trkpt lat="34.947577826678753" lon="-4.307880392298102">
        <ele>1070.084716796875</ele>
        <time>2011-04-16T16:41:09Z</time>
      </trkpt>
      <trkpt lat="34.947783350944519" lon="-4.306635344401002">
        <ele>1071.046142578125</ele>
        <time>2011-04-16T16:41:16Z</time>
      </trkpt>
      <trkpt lat="34.947994574904442" lon="-4.305403120815754">
        <ele>1070.5654296875</ele>
        <time>2011-04-16T16:41:24Z</time>
      </trkpt>
      <trkpt lat="34.948284672573209" lon="-4.30403427220881">
        <ele>1072.96875</ele>
        <time>2011-04-16T16:41:34Z</time>
      </trkpt>
      <trkpt lat="34.948355918750167" lon="-4.303775019943714">
        <ele>1073.449462890625</ele>
        <time>2011-04-16T16:41:36Z</time>
      </trkpt>
      <trkpt lat="34.94825885631144" lon="-4.303163895383477">
        <ele>1075.371826171875</ele>
        <time>2011-04-16T16:41:41Z</time>
      </trkpt>
      <trkpt lat="34.948054924607277" lon="-4.303032383322716">
        <ele>1075.8525390625</ele>
        <time>2011-04-16T16:41:43Z</time>
      </trkpt>
      <trkpt lat="34.947721157222986" lon="-4.302863655611873">
        <ele>1077.294677734375</ele>
        <time>2011-04-16T16:41:46Z</time>
      </trkpt>
      <trkpt lat="34.947357717901468" lon="-4.302376918494701">
        <ele>1079.217041015625</ele>
        <time>2011-04-16T16:41:51Z</time>
      </trkpt>
      <trkpt lat="34.947459055110812" lon="-4.301781132817268">
        <ele>1079.69775390625</ele>
        <time>2011-04-16T16:41:55Z</time>
      </trkpt>
      <trkpt lat="34.947713781148195" lon="-4.301365222781897">
        <ele>1080.6591796875</ele>
        <time>2011-04-16T16:41:58Z</time>
      </trkpt>
      <trkpt lat="34.94868298061192" lon="-4.300059573724866">
        <ele>1084.02392578125</ele>
        <time>2011-04-16T16:42:08Z</time>
      </trkpt>
      <trkpt lat="34.949015574529767" lon="-4.298893231898546">
        <ele>1086.42724609375</ele>
        <time>2011-04-16T16:42:15Z</time>
      </trkpt>
      <trkpt lat="34.949348419904709" lon="-4.298272887244821">
        <ele>1087.388427734375</ele>
        <time>2011-04-16T16:42:19Z</time>
      </trkpt>
      <trkpt lat="34.949547993019223" lon="-4.297986226156354">
        <ele>1087.388427734375</ele>
        <time>2011-04-16T16:42:21Z</time>
      </trkpt>
      <trkpt lat="34.950070520862937" lon="-4.296646630391479">
        <ele>1086.42724609375</ele>
        <time>2011-04-16T16:42:28Z</time>
      </trkpt>
      <trkpt lat="34.95093896985054" lon="-4.294180674478412">
        <ele>1088.83056640625</ele>
        <time>2011-04-16T16:42:40Z</time>
      </trkpt>
      <trkpt lat="34.95156635530293" lon="-4.292490463703871">
        <ele>1088.83056640625</ele>
        <time>2011-04-16T16:42:49Z</time>
      </trkpt>
      <trkpt lat="34.952075639739633" lon="-4.290986331179738">
        <ele>1086.90771484375</ele>
        <time>2011-04-16T16:42:57Z</time>
      </trkpt>
      <trkpt lat="34.952118471264839" lon="-4.290829421952367">
        <ele>1086.42724609375</ele>
        <time>2011-04-16T16:42:58Z</time>
      </trkpt>
      <trkpt lat="34.951943540945649" lon="-4.290174040943384">
        <ele>1084.504638671875</ele>
        <time>2011-04-16T16:43:03Z</time>
      </trkpt>
      <trkpt lat="34.95148379355669" lon="-4.289265191182494">
        <ele>1084.02392578125</ele>
        <time>2011-04-16T16:43:09Z</time>
      </trkpt>
      <trkpt lat="34.951412379741669" lon="-4.288468491286039">
        <ele>1084.02392578125</ele>
        <time>2011-04-16T16:43:13Z</time>
      </trkpt>
      <trkpt lat="34.951632739976048" lon="-4.287526868283749">
        <ele>1084.02392578125</ele>
        <time>2011-04-16T16:43:18Z</time>
      </trkpt>
      <trkpt lat="34.95172955095768" lon="-4.287365097552538">
        <ele>1083.062255859375</ele>
        <time>2011-04-16T16:43:19Z</time>
      </trkpt>
      <trkpt lat="34.952646363526583" lon="-4.286197833716869">
        <ele>1082.10107421875</ele>
        <time>2011-04-16T16:43:27Z</time>
      </trkpt>
      <trkpt lat="34.952899497002363" lon="-4.286001781001687">
        <ele>1082.10107421875</ele>
        <time>2011-04-16T16:43:29Z</time>
      </trkpt>
      <trkpt lat="34.954093247652054" lon="-4.285574052482843">
        <ele>1083.54296875</ele>
        <time>2011-04-16T16:43:37Z</time>
      </trkpt>
      <trkpt lat="34.954945687204599" lon="-4.285512445494533">
        <ele>1087.388427734375</ele>
        <time>2011-04-16T16:43:43Z</time>
      </trkpt>
      <trkpt lat="34.955575754866004" lon="-4.285786952823401">
        <ele>1087.388427734375</ele>
        <time>2011-04-16T16:43:48Z</time>
      </trkpt>
      <trkpt lat="34.956152094528079" lon="-4.285758957266808">
        <ele>1087.388427734375</ele>
        <time>2011-04-16T16:43:53Z</time>
      </trkpt>
      <trkpt lat="34.956370275467634" lon="-4.285231148824096">
        <ele>1087.869140625</ele>
        <time>2011-04-16T16:43:57Z</time>
      </trkpt>
      <trkpt lat="34.95635393075645" lon="-4.285069461911917">
        <ele>1087.388427734375</ele>
        <time>2011-04-16T16:43:58Z</time>
      </trkpt>
      <trkpt lat="34.956129379570484" lon="-4.28323089145124">
        <ele>1089.791748046875</ele>
        <time>2011-04-16T16:44:08Z</time>
      </trkpt>
      <trkpt lat="34.956232979893684" lon="-4.2825145740062">
        <ele>1091.233642578125</ele>
        <time>2011-04-16T16:44:12Z</time>
      </trkpt>
      <trkpt lat="34.956691386178136" lon="-4.281531544402242">
        <ele>1093.15625</ele>
        <time>2011-04-16T16:44:18Z</time>
      </trkpt>
      <trkpt lat="34.957200335338712" lon="-4.281132062897086">
        <ele>1094.11767578125</ele>
        <time>2011-04-16T16:44:22Z</time>
      </trkpt>
      <trkpt lat="34.957493785768747" lon="-4.281010525301099">
        <ele>1095.078857421875</ele>
        <time>2011-04-16T16:44:24Z</time>
      </trkpt>
      <trkpt lat="34.958177665248513" lon="-4.281029971316457">
        <ele>1097.00146484375</ele>
        <time>2011-04-16T16:44:29Z</time>
      </trkpt>
      <trkpt lat="34.958621487021446" lon="-4.281301042065024">
        <ele>1097.00146484375</ele>
        <time>2011-04-16T16:44:33Z</time>
      </trkpt>
      <trkpt lat="34.958927594125271" lon="-4.281112281605601">
        <ele>1097.962890625</ele>
        <time>2011-04-16T16:44:36Z</time>
      </trkpt>
      <trkpt lat="34.959017699584365" lon="-4.280993929132819">
        <ele>1098.924072265625</ele>
        <time>2011-04-16T16:44:37Z</time>
      </trkpt>
      <trkpt lat="34.959184164181352" lon="-4.280749680474401">
        <ele>1100.366455078125</ele>
        <time>2011-04-16T16:44:39Z</time>
      </trkpt>
      <trkpt lat="34.959754552692175" lon="-4.280493948608637">
        <ele>1100.846923828125</ele>
        <time>2011-04-16T16:44:44Z</time>
      </trkpt>
      <trkpt lat="34.96035335585475" lon="-4.280537450686097">
        <ele>1100.846923828125</ele>
        <time>2011-04-16T16:44:48Z</time>
      </trkpt>
      <trkpt lat="34.960980825126171" lon="-4.280218351632357">
        <ele>1099.40478515625</ele>
        <time>2011-04-16T16:44:53Z</time>
      </trkpt>
      <trkpt lat="34.961021728813648" lon="-4.279663553461433">
        <ele>1097.482177734375</ele>
        <time>2011-04-16T16:44:57Z</time>
      </trkpt>
      <trkpt lat="34.960724171251059" lon="-4.279302377253771">
        <ele>1097.962890625</ele>
        <time>2011-04-16T16:45:01Z</time>
      </trkpt>
      <trkpt lat="34.960145317018032" lon="-4.278987888246775">
        <ele>1100.366455078125</ele>
        <time>2011-04-16T16:45:06Z</time>
      </trkpt>
      <trkpt lat="34.959506196901202" lon="-4.278229828923941">
        <ele>1103.250244140625</ele>
        <time>2011-04-16T16:45:12Z</time>
      </trkpt>
      <trkpt lat="34.958682926371694" lon="-4.276597453281283">
        <ele>1104.211669921875</ele>
        <time>2011-04-16T16:45:21Z</time>
      </trkpt>
      <trkpt lat="34.958591479808092" lon="-4.27643752656877">
        <ele>1104.211669921875</ele>
        <time>2011-04-16T16:45:22Z</time>
      </trkpt>
      <trkpt lat="34.95814966969192" lon="-4.275914747267962">
        <ele>1105.1728515625</ele>
        <time>2011-04-16T16:45:26Z</time>
      </trkpt>
      <trkpt lat="34.957786817103624" lon="-4.275193568319082">
        <ele>1105.653564453125</ele>
        <time>2011-04-16T16:45:31Z</time>
      </trkpt>
      <trkpt lat="34.957818752154708" lon="-4.274705993011594">
        <ele>1106.134033203125</ele>
        <time>2011-04-16T16:45:34Z</time>
      </trkpt>
      <trkpt lat="34.958115974441171" lon="-4.273523138836026">
        <ele>1110.4599609375</ele>
        <time>2011-04-16T16:45:41Z</time>
      </trkpt>
      <trkpt lat="34.958550157025456" lon="-4.272732473909855">
        <ele>1113.343994140625</ele>
        <time>2011-04-16T16:45:47Z</time>
      </trkpt>
      <trkpt lat="34.958645794540644" lon="-4.272079691290855">
        <ele>1114.785888671875</ele>
        <time>2011-04-16T16:45:51Z</time>
      </trkpt>
      <trkpt lat="34.958556862547994" lon="-4.271574849262834">
        <ele>1115.747314453125</ele>
        <time>2011-04-16T16:45:54Z</time>
      </trkpt>
      <trkpt lat="34.958528699353337" lon="-4.270637584850192">
        <ele>1114.785888671875</ele>
        <time>2011-04-16T16:46:00Z</time>
      </trkpt>
      <trkpt lat="34.958885684609413" lon="-4.269570233300328">
        <ele>1114.30517578125</ele>
        <time>2011-04-16T16:46:06Z</time>
      </trkpt>
      <trkpt lat="34.959489768370986" lon="-4.268560549244285">
        <ele>1112.86328125</ele>
        <time>2011-04-16T16:46:13Z</time>
      </trkpt>
      <trkpt lat="34.959924872964621" lon="-4.267521444708109">
        <ele>1111.42138671875</ele>
        <time>2011-04-16T16:46:19Z</time>
      </trkpt>
      <trkpt lat="34.960223687812686" lon="-4.265969451516867">
        <ele>1111.42138671875</ele>
        <time>2011-04-16T16:46:27Z</time>
      </trkpt>
      <trkpt lat="34.96026199311018" lon="-4.264848874881864">
        <ele>1111.902099609375</ele>
        <time>2011-04-16T16:46:33Z</time>
      </trkpt>
      <trkpt lat="34.96012712828815" lon="-4.264231128618121">
        <ele>1111.902099609375</ele>
        <time>2011-04-16T16:46:37Z</time>
      </trkpt>
      <trkpt lat="34.959957143291831" lon="-4.263816978782415">
        <ele>1112.382568359375</ele>
        <time>2011-04-16T16:46:40Z</time>
      </trkpt>
      <trkpt lat="34.959949934855103" lon="-4.263149527832866">
        <ele>1113.343994140625</ele>
        <time>2011-04-16T16:46:45Z</time>
      </trkpt>
      <trkpt lat="34.960111370310187" lon="-4.262926233932376">
        <ele>1112.86328125</ele>
        <time>2011-04-16T16:46:47Z</time>
      </trkpt>
      <trkpt lat="34.961102362722158" lon="-4.261809261515737">
        <ele>1114.785888671875</ele>
        <time>2011-04-16T16:46:56Z</time>
      </trkpt>
      <trkpt lat="34.962193854153156" lon="-4.260842744261026">
        <ele>1118.150634765625</ele>
        <time>2011-04-16T16:47:04Z</time>
      </trkpt>
      <trkpt lat="34.962997678667307" lon="-4.260275792330504">
        <ele>1120.553955078125</ele>
        <time>2011-04-16T16:47:10Z</time>
      </trkpt>
      <trkpt lat="34.9632812384516" lon="-4.26014713011682">
        <ele>1121.03466796875</ele>
        <time>2011-04-16T16:47:12Z</time>
      </trkpt>
      <trkpt lat="34.96369756758213" lon="-4.259492754936218">
        <ele>1121.995849609375</ele>
        <time>2011-04-16T16:47:17Z</time>
      </trkpt>
      <trkpt lat="34.963724054396152" lon="-4.259312460198999">
        <ele>1122.4765625</ele>
        <time>2011-04-16T16:47:18Z</time>
      </trkpt>
      <trkpt lat="34.963838132098317" lon="-4.258587593212724">
        <ele>1122.4765625</ele>
        <time>2011-04-16T16:47:22Z</time>
      </trkpt>
      <trkpt lat="34.964365353807807" lon="-4.257683185860515">
        <ele>1121.995849609375</ele>
        <time>2011-04-16T16:47:28Z</time>
      </trkpt>
      <trkpt lat="34.965176554396749" lon="-4.256351636722684">
        <ele>1121.995849609375</ele>
        <time>2011-04-16T16:47:36Z</time>
      </trkpt>
      <trkpt lat="34.965789522975683" lon="-4.255099631845951">
        <ele>1121.03466796875</ele>
        <time>2011-04-16T16:47:43Z</time>
      </trkpt>
      <trkpt lat="34.966560993343592" lon="-4.253882160410285">
        <ele>1120.0732421875</ele>
        <time>2011-04-16T16:47:50Z</time>
      </trkpt>
      <trkpt lat="34.966677417978644" lon="-4.253164334222674">
        <ele>1119.5927734375</ele>
        <time>2011-04-16T16:47:54Z</time>
      </trkpt>
      <trkpt lat="34.966849163174629" lon="-4.252379452809691">
        <ele>1119.5927734375</ele>
        <time>2011-04-16T16:48:00Z</time>
      </trkpt>
      <trkpt lat="34.96734419837594" lon="-4.252304518595338">
        <ele>1118.150634765625</ele>
        <time>2011-04-16T16:48:04Z</time>
      </trkpt>
      <trkpt lat="34.968003686517477" lon="-4.252356737852097">
        <ele>1119.112060546875</ele>
        <time>2011-04-16T16:48:08Z</time>
      </trkpt>
      <trkpt lat="34.968610620126128" lon="-4.252180717885494">
        <ele>1120.553955078125</ele>
        <time>2011-04-16T16:48:12Z</time>
      </trkpt>
      <trkpt lat="34.969472447410226" lon="-4.251655843108892">
        <ele>1119.5927734375</ele>
        <time>2011-04-16T16:48:18Z</time>
      </trkpt>
      <trkpt lat="34.969861786812544" lon="-4.251175560057163">
        <ele>1116.708740234375</ele>
        <time>2011-04-16T16:48:22Z</time>
      </trkpt>
      <trkpt lat="34.970083571970463" lon="-4.250706173479557">
        <ele>1115.2666015625</ele>
        <time>2011-04-16T16:48:25Z</time>
      </trkpt>
      <trkpt lat="34.970621690154076" lon="-4.250137461349368">
        <ele>1112.382568359375</ele>
        <time>2011-04-16T16:48:30Z</time>
      </trkpt>
      <trkpt lat="34.971699770539999" lon="-4.249407397583127">
        <ele>1106.61474609375</ele>
        <time>2011-04-16T16:48:38Z</time>
      </trkpt>
      <trkpt lat="34.97181317768991" lon="-4.249311843886972">
        <ele>1106.134033203125</ele>
        <time>2011-04-16T16:48:39Z</time>
      </trkpt>
      <trkpt lat="34.972150633111596" lon="-4.248682782053947">
        <ele>1102.288818359375</ele>
        <time>2011-04-16T16:48:44Z</time>
      </trkpt>
      <trkpt lat="34.972138227894902" lon="-4.248350858688355">
        <ele>1100.846923828125</ele>
        <time>2011-04-16T16:48:46Z</time>
      </trkpt>
      <trkpt lat="34.972081398591399" lon="-4.248023126274347">
        <ele>1100.366455078125</ele>
        <time>2011-04-16T16:48:48Z</time>
      </trkpt>
      <trkpt lat="34.972125152125955" lon="-4.247333463281393">
        <ele>1098.443359375</ele>
        <time>2011-04-16T16:48:52Z</time>
      </trkpt>
      <trkpt lat="34.972589258104563" lon="-4.246013145893812">
        <ele>1095.5595703125</ele>
        <time>2011-04-16T16:49:00Z</time>
      </trkpt>
      <trkpt lat="34.973010029643774" lon="-4.244895335286856">
        <ele>1093.636962890625</ele>
        <time>2011-04-16T16:49:08Z</time>
      </trkpt>
      <trkpt lat="34.97303668409586" lon="-4.24407659098506">
        <ele>1092.67578125</ele>
        <time>2011-04-16T16:49:13Z</time>
      </trkpt>
      <trkpt lat="34.973347233608365" lon="-4.24356303177774">
        <ele>1090.7529296875</ele>
        <time>2011-04-16T16:49:18Z</time>
      </trkpt>
      <trkpt lat="34.973809998482466" lon="-4.2435547336936">
        <ele>1087.869140625</ele>
        <time>2011-04-16T16:49:22Z</time>
      </trkpt>
      <trkpt lat="34.974180227145553" lon="-4.243287853896618">
        <ele>1084.504638671875</ele>
        <time>2011-04-16T16:49:26Z</time>
      </trkpt>
      <trkpt lat="34.974554227665067" lon="-4.242662647739053">
        <ele>1081.139892578125</ele>
        <time>2011-04-16T16:49:31Z</time>
      </trkpt>
      <trkpt lat="34.975029481574893" lon="-4.242376573383808">
        <ele>1077.775146484375</ele>
        <time>2011-04-16T16:49:36Z</time>
      </trkpt>
      <trkpt lat="34.975522169843316" lon="-4.242662647739053">
        <ele>1077.294677734375</ele>
        <time>2011-04-16T16:49:40Z</time>
      </trkpt>
      <trkpt lat="34.976253993809223" lon="-4.242944363504648">
        <ele>1075.8525390625</ele>
        <time>2011-04-16T16:49:46Z</time>
      </trkpt>
      <trkpt lat="34.976372346282005" lon="-4.242895748466253">
        <ele>1076.333251953125</ele>
        <time>2011-04-16T16:49:47Z</time>
      </trkpt>
      <trkpt lat="34.977556960657239" lon="-4.242573464289308">
        <ele>1078.736572265625</ele>
        <time>2011-04-16T16:49:56Z</time>
      </trkpt>
      <trkpt lat="34.977840688079596" lon="-4.242553347721696">
        <ele>1078.736572265625</ele>
        <time>2011-04-16T16:49:58Z</time>
      </trkpt>
      <trkpt lat="34.978835452347994" lon="-4.242776390165091">
        <ele>1077.775146484375</ele>
        <time>2011-04-16T16:50:05Z</time>
      </trkpt>
      <trkpt lat="34.979253876954317" lon="-4.242866579443216">
        <ele>1077.294677734375</ele>
        <time>2011-04-16T16:50:08Z</time>
      </trkpt>
      <trkpt lat="34.980017049238086" lon="-4.242713777348399">
        <ele>1075.8525390625</ele>
        <time>2011-04-16T16:50:14Z</time>
      </trkpt>
      <trkpt lat="34.98065834864974" lon="-4.242781167849898">
        <ele>1073.449462890625</ele>
        <time>2011-04-16T16:50:19Z</time>
      </trkpt>
      <trkpt lat="34.982138173654675" lon="-4.243438644334674">
        <ele>1066.719970703125</ele>
        <time>2011-04-16T16:50:30Z</time>
      </trkpt>
      <trkpt lat="34.982780646532774" lon="-4.243657076731324">
        <ele>1063.8359375</ele>
        <time>2011-04-16T16:50:35Z</time>
      </trkpt>
      <trkpt lat="34.983249446377158" lon="-4.243531599640846">
        <ele>1062.39404296875</ele>
        <time>2011-04-16T16:50:40Z</time>
      </trkpt>
      <trkpt lat="34.98329202644527" lon="-4.243018794804812">
        <ele>1063.35546875</ele>
        <time>2011-04-16T16:50:44Z</time>
      </trkpt>
      <trkpt lat="34.982993295416236" lon="-4.24277194775641">
        <ele>1064.316650390625</ele>
        <time>2011-04-16T16:50:47Z</time>
      </trkpt>
      <trkpt lat="34.982419135048985" lon="-4.24233466386795">
        <ele>1067.68115234375</ele>
        <time>2011-04-16T16:50:52Z</time>
      </trkpt>
      <trkpt lat="34.98186525888741" lon="-4.241189025342464">
        <ele>1071.526611328125</ele>
        <time>2011-04-16T16:50:59Z</time>
      </trkpt>
      <trkpt lat="34.981325548142195" lon="-4.240131732076407">
        <ele>1073.929931640625</ele>
        <time>2011-04-16T16:51:05Z</time>
      </trkpt>
      <trkpt lat="34.980756165459752" lon="-4.239679779857397">
        <ele>1074.891357421875</ele>
        <time>2011-04-16T16:51:10Z</time>
      </trkpt>
      <trkpt lat="34.980572853237391" lon="-4.239184577018023">
        <ele>1076.333251953125</ele>
        <time>2011-04-16T16:51:14Z</time>
      </trkpt>
      <trkpt lat="34.980730516836047" lon="-4.238751316443086">
        <ele>1076.81396484375</ele>
        <time>2011-04-16T16:51:17Z</time>
      </trkpt>
      <trkpt lat="34.980772677809" lon="-4.23801857046783">
        <ele>1077.294677734375</ele>
        <time>2011-04-16T16:51:23Z</time>
      </trkpt>
      <trkpt lat="34.980585845187306" lon="-4.237860068678856">
        <ele>1077.294677734375</ele>
        <time>2011-04-16T16:51:25Z</time>
      </trkpt>
      <trkpt lat="34.980160044506192" lon="-4.23718398436904">
        <ele>1079.217041015625</ele>
        <time>2011-04-16T16:51:31Z</time>
      </trkpt>
      <trkpt lat="34.979837089776993" lon="-4.236693726852536">
        <ele>1080.6591796875</ele>
        <time>2011-04-16T16:51:36Z</time>
      </trkpt>
      <trkpt lat="34.979361919686198" lon="-4.236756088212133">
        <ele>1084.02392578125</ele>
        <time>2011-04-16T16:51:40Z</time>
      </trkpt>
      <trkpt lat="34.978949865326285" lon="-4.236460877582431">
        <ele>1086.90771484375</ele>
        <time>2011-04-16T16:51:44Z</time>
      </trkpt>
      <trkpt lat="34.978864956647158" lon="-4.236331293359399">
        <ele>1087.869140625</ele>
        <time>2011-04-16T16:51:45Z</time>
      </trkpt>
      <trkpt lat="34.978628922253847" lon="-4.235933823511004">
        <ele>1090.2724609375</ele>
        <time>2011-04-16T16:51:48Z</time>
      </trkpt>
      <trkpt lat="34.978493135422468" lon="-4.235156318172813">
        <ele>1092.195068359375</ele>
        <time>2011-04-16T16:51:53Z</time>
      </trkpt>
      <trkpt lat="34.978525573387742" lon="-4.234979879111052">
        <ele>1092.67578125</ele>
        <time>2011-04-16T16:51:54Z</time>
      </trkpt>
      <trkpt lat="34.978821454569697" lon="-4.233698369935155">
        <ele>1098.443359375</ele>
        <time>2011-04-16T16:52:01Z</time>
      </trkpt>
      <trkpt lat="34.978800248354673" lon="-4.232978532090783">
        <ele>1101.32763671875</ele>
        <time>2011-04-16T16:52:05Z</time>
      </trkpt>
      <trkpt lat="34.978510066866875" lon="-4.2319415230304">
        <ele>1105.653564453125</ele>
        <time>2011-04-16T16:52:11Z</time>
      </trkpt>
      <trkpt lat="34.978593718260527" lon="-4.231147337704897">
        <ele>1106.134033203125</ele>
        <time>2011-04-16T16:52:16Z</time>
      </trkpt>
      <trkpt lat="34.978663874790072" lon="-4.231000151485205">
        <ele>1105.1728515625</ele>
        <time>2011-04-16T16:52:17Z</time>
      </trkpt>
      <trkpt lat="34.978996468707919" lon="-4.230424482375383">
        <ele>1102.288818359375</ele>
        <time>2011-04-16T16:52:21Z</time>
      </trkpt>
      <trkpt lat="34.979759892448783" lon="-4.229820482432842">
        <ele>1099.40478515625</ele>
        <time>2011-04-16T16:52:27Z</time>
      </trkpt>
      <trkpt lat="34.980451986193657" lon="-4.229330979287624">
        <ele>1099.885498046875</ele>
        <time>2011-04-16T16:52:32Z</time>
      </trkpt>
      <trkpt lat="34.981013992801309" lon="-4.228519527241588">
        <ele>1101.32763671875</ele>
        <time>2011-04-16T16:52:38Z</time>
      </trkpt>
      <trkpt lat="34.981106864288449" lon="-4.227882837876678">
        <ele>1103.73095703125</ele>
        <time>2011-04-16T16:52:43Z</time>
      </trkpt>
      <trkpt lat="34.980692379176617" lon="-4.227601122111082">
        <ele>1104.692138671875</ele>
        <time>2011-04-16T16:52:47Z</time>
      </trkpt>
      <trkpt lat="34.979852680116892" lon="-4.227333152666688">
        <ele>1106.61474609375</ele>
        <time>2011-04-16T16:52:53Z</time>
      </trkpt>
      <trkpt lat="34.97934146784246" lon="-4.226804254576564">
        <ele>1108.056884765625</ele>
        <time>2011-04-16T16:52:58Z</time>
      </trkpt>
      <trkpt lat="34.979350436478853" lon="-4.226129930466414">
        <ele>1108.056884765625</ele>
        <time>2011-04-16T16:53:02Z</time>
      </trkpt>
      <trkpt lat="34.979480523616076" lon="-4.225827343761921">
        <ele>1107.576171875</ele>
        <time>2011-04-16T16:53:04Z</time>
      </trkpt>
      <trkpt lat="34.979974217712879" lon="-4.224803494289517">
        <ele>1109.01806640625</ele>
        <time>2011-04-16T16:53:10Z</time>
      </trkpt>
      <trkpt lat="34.980654157698154" lon="-4.223800767213106">
        <ele>1111.902099609375</ele>
        <time>2011-04-16T16:53:17Z</time>
      </trkpt>
      <trkpt lat="34.980848450213671" lon="-4.223552159965038">
        <ele>1112.86328125</ele>
        <time>2011-04-16T16:53:19Z</time>
      </trkpt>
      <trkpt lat="34.981592679396272" lon="-4.223169442266226">
        <ele>1112.382568359375</ele>
        <time>2011-04-16T16:53:25Z</time>
      </trkpt>
      <trkpt lat="34.98186718672514" lon="-4.223049078136683">
        <ele>1112.382568359375</ele>
        <time>2011-04-16T16:53:27Z</time>
      </trkpt>
      <trkpt lat="34.982511335983872" lon="-4.22242789529264">
        <ele>1112.86328125</ele>
        <time>2011-04-16T16:53:33Z</time>
      </trkpt>
      <trkpt lat="34.983213320374489" lon="-4.221662878990173">
        <ele>1114.785888671875</ele>
        <time>2011-04-16T16:53:40Z</time>
      </trkpt>
      <trkpt lat="34.98382268473506" lon="-4.221465988084674">
        <ele>1118.150634765625</ele>
        <time>2011-04-16T16:53:45Z</time>
      </trkpt>
      <trkpt lat="34.984054276719689" lon="-4.221579898148775">
        <ele>1119.112060546875</ele>
        <time>2011-04-16T16:53:47Z</time>
      </trkpt>
      <trkpt lat="34.984604548662901" lon="-4.221766898408532">
        <ele>1121.03466796875</ele>
        <time>2011-04-16T16:53:52Z</time>
      </trkpt>
      <trkpt lat="34.98559788800776" lon="-4.221935039386153">
        <ele>1122.4765625</ele>
        <time>2011-04-16T16:54:00Z</time>
      </trkpt>
      <trkpt lat="34.986226363107562" lon="-4.22189136967063">
        <ele>1125.3603515625</ele>
        <time>2011-04-16T16:54:05Z</time>
      </trkpt>
      <trkpt lat="34.987155161798" lon="-4.221442518755794">
        <ele>1129.686279296875</ele>
        <time>2011-04-16T16:54:13Z</time>
      </trkpt>
      <trkpt lat="34.98767995275557" lon="-4.221428940072656">
        <ele>1132.570556640625</ele>
        <time>2011-04-16T16:54:17Z</time>
      </trkpt>
      <trkpt lat="34.988227039575577" lon="-4.221555842086673">
        <ele>1133.53173828125</ele>
        <time>2011-04-16T16:54:21Z</time>
      </trkpt>
      <trkpt lat="34.988758871331811" lon="-4.221338583156467">
        <ele>1133.53173828125</ele>
        <time>2011-04-16T16:54:26Z</time>
      </trkpt>
      <trkpt lat="34.989461190998554" lon="-4.2203732393682">
        <ele>1135.93505859375</ele>
        <time>2011-04-16T16:54:34Z</time>
      </trkpt>
      <trkpt lat="34.990015486255288" lon="-4.220078364014626">
        <ele>1138.33837890625</ele>
        <time>2011-04-16T16:54:39Z</time>
      </trkpt>
      <trkpt lat="34.990147417411208" lon="-4.220093786716461">
        <ele>1138.819091796875</ele>
        <time>2011-04-16T16:54:40Z</time>
      </trkpt>
      <trkpt lat="34.990407172590494" lon="-4.220144832506776">
        <ele>1139.7802734375</ele>
        <time>2011-04-16T16:54:42Z</time>
      </trkpt>
      <trkpt lat="34.990863483399153" lon="-4.220068976283073">
        <ele>1140.741455078125</ele>
        <time>2011-04-16T16:54:46Z</time>
      </trkpt>
      <trkpt lat="34.991173781454563" lon="-4.219884993508458">
        <ele>1141.22216796875</ele>
        <time>2011-04-16T16:54:49Z</time>
      </trkpt>
      <trkpt lat="34.991645766422153" lon="-4.219755660742521">
        <ele>1143.144775390625</ele>
        <time>2011-04-16T16:54:53Z</time>
      </trkpt>
      <trkpt lat="34.992188746109605" lon="-4.219781393185258">
        <ele>1145.548095703125</ele>
        <time>2011-04-16T16:54:57Z</time>
      </trkpt>
      <trkpt lat="34.992688726633787" lon="-4.219959089532495">
        <ele>1146.02880859375</ele>
        <time>2011-04-16T16:55:01Z</time>
      </trkpt>
      <trkpt lat="34.993390962481499" lon="-4.219881389290094">
        <ele>1146.989990234375</ele>
        <time>2011-04-16T16:55:07Z</time>
      </trkpt>
      <trkpt lat="34.99382246285677" lon="-4.219413595274091">
        <ele>1146.509521484375</ele>
        <time>2011-04-16T16:55:12Z</time>
      </trkpt>
      <trkpt lat="34.994190763682127" lon="-4.218639358878136">
        <ele>1146.989990234375</ele>
        <time>2011-04-16T16:55:18Z</time>
      </trkpt>
      <trkpt lat="34.994226973503828" lon="-4.217952461913228">
        <ele>1148.912841796875</ele>
        <time>2011-04-16T16:55:23Z</time>
      </trkpt>
      <trkpt lat="34.993856158107519" lon="-4.21712089329958">
        <ele>1152.758056640625</ele>
        <time>2011-04-16T16:55:29Z</time>
      </trkpt>
      <trkpt lat="34.993833526968956" lon="-4.216417232528329">
        <ele>1155.64208984375</ele>
        <time>2011-04-16T16:55:34Z</time>
      </trkpt>
      <trkpt lat="34.994081128388643" lon="-4.21550938859582">
        <ele>1155.161376953125</ele>
        <time>2011-04-16T16:55:40Z</time>
      </trkpt>
      <trkpt lat="34.993967469781637" lon="-4.214477743953466">
        <ele>1156.12255859375</ele>
        <time>2011-04-16T16:55:47Z</time>
      </trkpt>
      <trkpt lat="34.994028825312853" lon="-4.213899141177535">
        <ele>1156.12255859375</ele>
        <time>2011-04-16T16:55:51Z</time>
      </trkpt>
      <trkpt lat="34.99436192214489" lon="-4.21287277713418">
        <ele>1156.603271484375</ele>
        <time>2011-04-16T16:55:58Z</time>
      </trkpt>
      <trkpt lat="34.994753440842032" lon="-4.212439935654402">
        <ele>1154.6806640625</ele>
        <time>2011-04-16T16:56:03Z</time>
      </trkpt>
      <trkpt lat="34.995089638978243" lon="-4.21230155043304">
        <ele>1153.719482421875</ele>
        <time>2011-04-16T16:56:06Z</time>
      </trkpt>
      <trkpt lat="34.995462549850345" lon="-4.211914474144578">
        <ele>1154.2001953125</ele>
        <time>2011-04-16T16:56:11Z</time>
      </trkpt>
      <trkpt lat="34.99563287012279" lon="-4.211009731516242">
        <ele>1158.04541015625</ele>
        <time>2011-04-16T16:56:18Z</time>
      </trkpt>
      <trkpt lat="34.995936462655663" lon="-4.210475720465183">
        <ele>1158.52587890625</ele>
        <time>2011-04-16T16:56:23Z</time>
      </trkpt>
      <trkpt lat="34.996156068518758" lon="-4.210229376330972">
        <ele>1158.04541015625</ele>
        <time>2011-04-16T16:56:26Z</time>
      </trkpt>
      <trkpt lat="34.996413979679346" lon="-4.209557650610805">
        <ele>1158.52587890625</ele>
        <time>2011-04-16T16:56:32Z</time>
      </trkpt>
      <trkpt lat="34.996299482882023" lon="-4.208909645676613">
        <ele>1160.92919921875</ele>
        <time>2011-04-16T16:56:38Z</time>
      </trkpt>
      <trkpt lat="34.995839651674032" lon="-4.207894261926413">
        <ele>1165.25537109375</ele>
        <time>2011-04-16T16:56:48Z</time>
      </trkpt>
      <trkpt lat="34.995792545378208" lon="-4.207783788442612">
        <ele>1165.736083984375</ele>
        <time>2011-04-16T16:56:49Z</time>
      </trkpt>
      <trkpt lat="34.995762538164854" lon="-4.207086665555835">
        <ele>1167.658447265625</ele>
        <time>2011-04-16T16:56:55Z</time>
      </trkpt>
      <trkpt lat="34.995801262557507" lon="-4.206977365538478">
        <ele>1167.658447265625</ele>
        <time>2011-04-16T16:56:56Z</time>
      </trkpt>
      <trkpt lat="34.996317839249969" lon="-4.205875648185611">
        <ele>1164.2939453125</ele>
        <time>2011-04-16T16:57:06Z</time>
      </trkpt>
      <trkpt lat="34.996788566932082" lon="-4.205512963235378">
        <ele>1163.33251953125</ele>
        <time>2011-04-16T16:57:12Z</time>
      </trkpt>
      <trkpt lat="34.996878169476986" lon="-4.20548714697361">
        <ele>1163.33251953125</ele>
        <time>2011-04-16T16:57:13Z</time>
      </trkpt>
      <trkpt lat="34.997456939890981" lon="-4.205279694870114">
        <ele>1163.81298828125</ele>
        <time>2011-04-16T16:57:21Z</time>
      </trkpt>
      <trkpt lat="34.997706636786461" lon="-4.204978281632066">
        <ele>1164.2939453125</ele>
        <time>2011-04-16T16:57:26Z</time>
      </trkpt>
      <trkpt lat="34.997839825227857" lon="-4.204717772081494">
        <ele>1164.774658203125</ele>
        <time>2011-04-16T16:57:29Z</time>
      </trkpt>
      <trkpt lat="34.998179292306304" lon="-4.204403953626752">
        <ele>1165.25537109375</ele>
        <time>2011-04-16T16:57:33Z</time>
      </trkpt>
      <trkpt lat="34.998538875952363" lon="-4.204294988885522">
        <ele>1165.25537109375</ele>
        <time>2011-04-16T16:57:36Z</time>
      </trkpt>
      <trkpt lat="34.999266425147653" lon="-4.204459358006716">
        <ele>1167.177978515625</ele>
        <time>2011-04-16T16:57:42Z</time>
      </trkpt>
      <trkpt lat="35.00004225410521" lon="-4.204622972756624">
        <ele>1166.697265625</ele>
        <time>2011-04-16T16:57:49Z</time>
      </trkpt>
      <trkpt lat="35.000913050025702" lon="-4.204408060759306">
        <ele>1166.216552734375</ele>
        <time>2011-04-16T16:57:57Z</time>
      </trkpt>
      <trkpt lat="35.001591062173247" lon="-4.204211756587029">
        <ele>1164.774658203125</ele>
        <time>2011-04-16T16:58:04Z</time>
      </trkpt>
      <trkpt lat="35.001953663304448" lon="-4.203855525702238">
        <ele>1162.851806640625</ele>
        <time>2011-04-16T16:58:09Z</time>
      </trkpt>
      <trkpt lat="35.002013761550188" lon="-4.203638937324286">
        <ele>1162.37109375</ele>
        <time>2011-04-16T16:58:11Z</time>
      </trkpt>
      <trkpt lat="35.002292040735483" lon="-4.202200267463923">
        <ele>1165.736083984375</ele>
        <time>2011-04-16T16:58:24Z</time>
      </trkpt>
      <trkpt lat="35.002529248595238" lon="-4.20110366307199">
        <ele>1170.061767578125</ele>
        <time>2011-04-16T16:58:34Z</time>
      </trkpt>
      <trkpt lat="35.00281473621726" lon="-4.200601251795888">
        <ele>1170.061767578125</ele>
        <time>2011-04-16T16:58:39Z</time>
      </trkpt>
      <trkpt lat="35.0031269621104" lon="-4.200268741697073">
        <ele>1169.581298828125</ele>
        <time>2011-04-16T16:58:43Z</time>
      </trkpt>
      <trkpt lat="35.003868173807859" lon="-4.199920557439327">
        <ele>1168.619873046875</ele>
        <time>2011-04-16T16:58:51Z</time>
      </trkpt>
      <trkpt lat="35.003954758867621" lon="-4.19987378641963">
        <ele>1168.619873046875</ele>
        <time>2011-04-16T16:58:52Z</time>
      </trkpt>
      <trkpt lat="35.004319371655583" lon="-4.19947849586606">
        <ele>1169.1005859375</ele>
        <time>2011-04-16T16:58:57Z</time>
      </trkpt>
      <trkpt lat="35.004639895632863" lon="-4.198877094313502">
        <ele>1170.54248046875</ele>
        <time>2011-04-16T16:59:03Z</time>
      </trkpt>
      <trkpt lat="35.004949020221829" lon="-4.198608873412013">
        <ele>1171.023193359375</ele>
        <time>2011-04-16T16:59:07Z</time>
      </trkpt>
      <trkpt lat="35.005876729264855" lon="-4.198319530114532">
        <ele>1170.061767578125</ele>
        <time>2011-04-16T16:59:16Z</time>
      </trkpt>
      <trkpt lat="35.006309067830443" lon="-4.198205033317208">
        <ele>1169.581298828125</ele>
        <time>2011-04-16T16:59:20Z</time>
      </trkpt>
      <trkpt lat="35.006670160219073" lon="-4.197843940928578">
        <ele>1169.581298828125</ele>
        <time>2011-04-16T16:59:25Z</time>
      </trkpt>
      <trkpt lat="35.006845341995358" lon="-4.197403974831104">
        <ele>1169.581298828125</ele>
        <time>2011-04-16T16:59:29Z</time>
      </trkpt>
      <trkpt lat="35.006863866001368" lon="-4.196951519697905">
        <ele>1168.13916015625</ele>
        <time>2011-04-16T16:59:33Z</time>
      </trkpt>
      <trkpt lat="35.006548287346959" lon="-4.196001347154379">
        <ele>1167.177978515625</ele>
        <time>2011-04-16T16:59:42Z</time>
      </trkpt>
      <trkpt lat="35.006352653726935" lon="-4.195294249802828">
        <ele>1168.13916015625</ele>
        <time>2011-04-16T16:59:49Z</time>
      </trkpt>
      <trkpt lat="35.0064149312675" lon="-4.194378694519401">
        <ele>1168.619873046875</ele>
        <time>2011-04-16T16:59:57Z</time>
      </trkpt>
      <trkpt lat="35.006442172452807" lon="-4.194262940436602">
        <ele>1168.619873046875</ele>
        <time>2011-04-16T16:59:58Z</time>
      </trkpt>
      <trkpt lat="35.00664995983243" lon="-4.193837475031614">
        <ele>1169.1005859375</ele>
        <time>2011-04-16T17:00:02Z</time>
      </trkpt>
      <trkpt lat="35.007558139041066" lon="-4.192882440984249">
        <ele>1170.061767578125</ele>
        <time>2011-04-16T17:00:13Z</time>
      </trkpt>
      <trkpt lat="35.008411249145865" lon="-4.192128824070096">
        <ele>1170.54248046875</ele>
        <time>2011-04-16T17:00:23Z</time>
      </trkpt>
      <trkpt lat="35.008838726207614" lon="-4.191184854134917">
        <ele>1169.581298828125</ele>
        <time>2011-04-16T17:00:31Z</time>
      </trkpt>
      <trkpt lat="35.009430823847651" lon="-4.190157148987055">
        <ele>1169.1005859375</ele>
        <time>2011-04-16T17:00:40Z</time>
      </trkpt>
      <trkpt lat="35.009565940126777" lon="-4.189940476790071">
        <ele>1169.1005859375</ele>
        <time>2011-04-16T17:00:42Z</time>
      </trkpt>
      <trkpt lat="35.009646154940128" lon="-4.189326083287597">
        <ele>1169.581298828125</ele>
        <time>2011-04-16T17:00:47Z</time>
      </trkpt>
      <trkpt lat="35.00921867787838" lon="-4.188193855807185">
        <ele>1169.1005859375</ele>
        <time>2011-04-16T17:00:56Z</time>
      </trkpt>
      <trkpt lat="35.008785920217633" lon="-4.18691192753613">
        <ele>1169.581298828125</ele>
        <time>2011-04-16T17:01:06Z</time>
      </trkpt>
      <trkpt lat="35.008659353479743" lon="-4.185972651466727">
        <ele>1170.061767578125</ele>
        <time>2011-04-16T17:01:13Z</time>
      </trkpt>
      <trkpt lat="35.008704280480742" lon="-4.185430845245719">
        <ele>1170.061767578125</ele>
        <time>2011-04-16T17:01:17Z</time>
      </trkpt>
      <trkpt lat="35.008591376245022" lon="-4.184807566925883">
        <ele>1169.581298828125</ele>
        <time>2011-04-16T17:01:22Z</time>
      </trkpt>
      <trkpt lat="35.007912693545222" lon="-4.183922270312905">
        <ele>1169.1005859375</ele>
        <time>2011-04-16T17:01:31Z</time>
      </trkpt>
      <trkpt lat="35.007669785991311" lon="-4.183387421071529">
        <ele>1169.1005859375</ele>
        <time>2011-04-16T17:01:36Z</time>
      </trkpt>
      <trkpt lat="35.007675737142563" lon="-4.183120792731643">
        <ele>1169.1005859375</ele>
        <time>2011-04-16T17:01:38Z</time>
      </trkpt>
      <trkpt lat="35.007682023569942" lon="-4.181555472314358">
        <ele>1169.1005859375</ele>
        <time>2011-04-16T17:01:49Z</time>
      </trkpt>
      <trkpt lat="35.007449174299836" lon="-4.180434057489038">
        <ele>1167.177978515625</ele>
        <time>2011-04-16T17:01:57Z</time>
      </trkpt>
      <trkpt lat="35.007410869002342" lon="-4.180296678096056">
        <ele>1166.697265625</ele>
        <time>2011-04-16T17:01:58Z</time>
      </trkpt>
      <trkpt lat="35.007471721619368" lon="-4.179484136402607">
        <ele>1164.774658203125</ele>
        <time>2011-04-16T17:02:04Z</time>
      </trkpt>
      <trkpt lat="35.007798532024026" lon="-4.179168725386262">
        <ele>1163.33251953125</ele>
        <time>2011-04-16T17:02:08Z</time>
      </trkpt>
      <trkpt lat="35.008151829242706" lon="-4.179206527769566">
        <ele>1160.92919921875</ele>
        <time>2011-04-16T17:02:11Z</time>
      </trkpt>
      <trkpt lat="35.009272824972868" lon="-4.179519843310118">
        <ele>1155.161376953125</ele>
        <time>2011-04-16T17:02:19Z</time>
      </trkpt>
      <trkpt lat="35.009798035025597" lon="-4.179356899112463">
        <ele>1152.27734375</ele>
        <time>2011-04-16T17:02:23Z</time>
      </trkpt>
      <trkpt lat="35.010206988081336" lon="-4.179016090929508">
        <ele>1149.874267578125</ele>
        <time>2011-04-16T17:02:27Z</time>
      </trkpt>
      <trkpt lat="35.010725827887654" lon="-4.178959093987942">
        <ele>1146.509521484375</ele>
        <time>2011-04-16T17:02:32Z</time>
      </trkpt>
      <trkpt lat="35.01147567294538" lon="-4.179052552208304">
        <ele>1141.702880859375</ele>
        <time>2011-04-16T17:02:39Z</time>
      </trkpt>
      <trkpt lat="35.012429030612111" lon="-4.179011145606637">
        <ele>1136.896240234375</ele>
        <time>2011-04-16T17:02:48Z</time>
      </trkpt>
      <trkpt lat="35.012620138004422" lon="-4.178998824208975">
        <ele>1136.415771484375</ele>
        <time>2011-04-16T17:02:50Z</time>
      </trkpt>
      <trkpt lat="35.013151131570339" lon="-4.178659440949559">
        <ele>1133.53173828125</ele>
        <time>2011-04-16T17:02:56Z</time>
      </trkpt>
      <trkpt lat="35.013379119336605" lon="-4.17820849455893">
        <ele>1131.60888671875</ele>
        <time>2011-04-16T17:03:00Z</time>
      </trkpt>
      <trkpt lat="35.013450784608722" lon="-4.177962988615036">
        <ele>1130.1669921875</ele>
        <time>2011-04-16T17:03:02Z</time>
      </trkpt>
      <trkpt lat="35.013415748253465" lon="-4.177020862698555">
        <ele>1125.841064453125</ele>
        <time>2011-04-16T17:03:09Z</time>
      </trkpt>
      <trkpt lat="35.013084495440125" lon="-4.176466399803758">
        <ele>1122.4765625</ele>
        <time>2011-04-16T17:03:14Z</time>
      </trkpt>
      <trkpt lat="35.012990450486541" lon="-4.176388531923294">
        <ele>1121.995849609375</ele>
        <time>2011-04-16T17:03:15Z</time>
      </trkpt>
      <trkpt lat="35.012702951207757" lon="-4.176170350983739">
        <ele>1120.553955078125</ele>
        <time>2011-04-16T17:03:18Z</time>
      </trkpt>
      <trkpt lat="35.012480579316616" lon="-4.175641369074583">
        <ele>1117.669921875</ele>
        <time>2011-04-16T17:03:23Z</time>
      </trkpt>
      <trkpt lat="35.012711836025119" lon="-4.17526837438345">
        <ele>1116.708740234375</ele>
        <time>2011-04-16T17:03:27Z</time>
      </trkpt>
      <trkpt lat="35.012903781607747" lon="-4.175202492624521">
        <ele>1116.22802734375</ele>
        <time>2011-04-16T17:03:29Z</time>
      </trkpt>
      <trkpt lat="35.013443240895867" lon="-4.175086487084627">
        <ele>1114.785888671875</ele>
        <time>2011-04-16T17:03:34Z</time>
      </trkpt>
      <trkpt lat="35.014142459258437" lon="-4.174541495740414">
        <ele>1112.382568359375</ele>
        <time>2011-04-16T17:03:41Z</time>
      </trkpt>
      <trkpt lat="35.014232648536563" lon="-4.174453737214208">
        <ele>1111.902099609375</ele>
        <time>2011-04-16T17:03:42Z</time>
      </trkpt>
      <trkpt lat="35.014452757313848" lon="-4.173866752535105">
        <ele>1109.01806640625</ele>
        <time>2011-04-16T17:03:47Z</time>
      </trkpt>
      <trkpt lat="35.014465665444732" lon="-4.173015067353845">
        <ele>1105.1728515625</ele>
        <time>2011-04-16T17:03:53Z</time>
      </trkpt>
      <trkpt lat="35.014717960730195" lon="-4.172489941120148">
        <ele>1101.808349609375</ele>
        <time>2011-04-16T17:03:58Z</time>
      </trkpt>
      <trkpt lat="35.015124566853046" lon="-4.172504944726825">
        <ele>1098.924072265625</ele>
        <time>2011-04-16T17:04:02Z</time>
      </trkpt>
      <trkpt lat="35.015220791101456" lon="-4.172572754323483">
        <ele>1098.443359375</ele>
        <time>2011-04-16T17:04:03Z</time>
      </trkpt>
      <trkpt lat="35.015604430809617" lon="-4.17285555973649">
        <ele>1095.5595703125</ele>
        <time>2011-04-16T17:04:07Z</time>
      </trkpt>
      <trkpt lat="35.016082869842649" lon="-4.173039039596915">
        <ele>1092.195068359375</ele>
        <time>2011-04-16T17:04:11Z</time>
      </trkpt>
      <trkpt lat="35.01650657504797" lon="-4.17351228184998">
        <ele>1088.349853515625</ele>
        <time>2011-04-16T17:04:16Z</time>
      </trkpt>
      <trkpt lat="35.016605062410235" lon="-4.17378343641758">
        <ele>1088.349853515625</ele>
        <time>2011-04-16T17:04:18Z</time>
      </trkpt>
      <trkpt lat="35.017187353223562" lon="-4.174448624253273">
        <ele>1084.02392578125</ele>
        <time>2011-04-16T17:04:25Z</time>
      </trkpt>
      <trkpt lat="35.017592199146748" lon="-4.174377042800188">
        <ele>1082.10107421875</ele>
        <time>2011-04-16T17:04:29Z</time>
      </trkpt>
      <trkpt lat="35.017974246293306" lon="-4.173884689807892">
        <ele>1079.217041015625</ele>
        <time>2011-04-16T17:04:34Z</time>
      </trkpt>
      <trkpt lat="35.017998218536377" lon="-4.173610517755151">
        <ele>1077.775146484375</ele>
        <time>2011-04-16T17:04:36Z</time>
      </trkpt>
      <trkpt lat="35.018122773617506" lon="-4.172867378219962">
        <ele>1073.929931640625</ele>
        <time>2011-04-16T17:04:41Z</time>
      </trkpt>
      <trkpt lat="35.018388563767076" lon="-4.172288440167904">
        <ele>1072.00732421875</ele>
        <time>2011-04-16T17:04:45Z</time>
      </trkpt>
      <trkpt lat="35.018792068585753" lon="-4.171990882605314">
        <ele>1069.604248046875</ele>
        <time>2011-04-16T17:04:49Z</time>
      </trkpt>
      <trkpt lat="35.0192248262465" lon="-4.172253487631679">
        <ele>1067.68115234375</ele>
        <time>2011-04-16T17:04:53Z</time>
      </trkpt>
      <trkpt lat="35.019313171505928" lon="-4.17237619869411">
        <ele>1066.719970703125</ele>
        <time>2011-04-16T17:04:54Z</time>
      </trkpt>
      <trkpt lat="35.019580135121942" lon="-4.1727514564991">
        <ele>1064.316650390625</ele>
        <time>2011-04-16T17:04:57Z</time>
      </trkpt>
      <trkpt lat="35.020039547234774" lon="-4.173101652413607">
        <ele>1061.432861328125</ele>
        <time>2011-04-16T17:05:01Z</time>
      </trkpt>
      <trkpt lat="35.021608136594296" lon="-4.173543881624937">
        <ele>1054.70361328125</ele>
        <time>2011-04-16T17:05:12Z</time>
      </trkpt>
      <trkpt lat="35.022305343300104" lon="-4.173649493604899">
        <ele>1051.819580078125</ele>
        <time>2011-04-16T17:05:17Z</time>
      </trkpt>
      <trkpt lat="35.022951336577535" lon="-4.173483951017261">
        <ele>1048.454833984375</ele>
        <time>2011-04-16T17:05:22Z</time>
      </trkpt>
      <trkpt lat="35.023435978218913" lon="-4.172977181151509">
        <ele>1043.6484375</ele>
        <time>2011-04-16T17:05:27Z</time>
      </trkpt>
      <trkpt lat="35.023878375068307" lon="-4.172134632244706">
        <ele>1039.80322265625</ele>
        <time>2011-04-16T17:05:33Z</time>
      </trkpt>
      <trkpt lat="35.023990273475647" lon="-4.171408424153924">
        <ele>1036.919189453125</ele>
        <time>2011-04-16T17:05:38Z</time>
      </trkpt>
      <trkpt lat="35.023911399766803" lon="-4.170676851645112">
        <ele>1034.03515625</ele>
        <time>2011-04-16T17:05:43Z</time>
      </trkpt>
      <trkpt lat="35.023643849417567" lon="-4.170208470895886">
        <ele>1031.1513671875</ele>
        <time>2011-04-16T17:05:47Z</time>
      </trkpt>
      <trkpt lat="35.022531738504767" lon="-4.169249078258872">
        <ele>1023.94140625</ele>
        <time>2011-04-16T17:05:57Z</time>
      </trkpt>
      <trkpt lat="35.022365441545844" lon="-4.168637953698635">
        <ele>1021.5380859375</ele>
        <time>2011-04-16T17:06:02Z</time>
      </trkpt>
      <trkpt lat="35.02248446457088" lon="-4.168351460248232">
        <ele>1020.576904296875</ele>
        <time>2011-04-16T17:06:04Z</time>
      </trkpt>
      <trkpt lat="35.022625951096416" lon="-4.168055662885308">
        <ele>1020.09619140625</ele>
        <time>2011-04-16T17:06:06Z</time>
      </trkpt>
      <trkpt lat="35.023140851408243" lon="-4.167579235509038">
        <ele>1020.09619140625</ele>
        <time>2011-04-16T17:06:11Z</time>
      </trkpt>
      <trkpt lat="35.023487526923418" lon="-4.167418135330081">
        <ele>1019.134765625</ele>
        <time>2011-04-16T17:06:14Z</time>
      </trkpt>
      <trkpt lat="35.024490673094988" lon="-4.166457653045654">
        <ele>1013.847412109375</ele>
        <time>2011-04-16T17:06:24Z</time>
      </trkpt>
      <trkpt lat="35.024666525423527" lon="-4.166219523176551">
        <ele>1012.405517578125</ele>
        <time>2011-04-16T17:06:26Z</time>
      </trkpt>
      <trkpt lat="35.025190142914653" lon="-4.16603771969676">
        <ele>1009.041015625</ele>
        <time>2011-04-16T17:06:31Z</time>
      </trkpt>
      <trkpt lat="35.025404971092939" lon="-4.166183397173882">
        <ele>1007.118408203125</ele>
        <time>2011-04-16T17:06:33Z</time>
      </trkpt>
      <trkpt lat="35.02648145891726" lon="-4.167202217504382">
        <ele>1003.27294921875</ele>
        <time>2011-04-16T17:06:42Z</time>
      </trkpt>
      <trkpt lat="35.026922263205051" lon="-4.167588790878654">
        <ele>1002.3115234375</ele>
        <time>2011-04-16T17:06:46Z</time>
      </trkpt>
      <trkpt lat="35.027629360556602" lon="-4.167807474732399">
        <ele>1002.3115234375</ele>
        <time>2011-04-16T17:06:52Z</time>
      </trkpt>
      <trkpt lat="35.027765734121203" lon="-4.167796159163117">
        <ele>1001.8310546875</ele>
        <time>2011-04-16T17:06:53Z</time>
      </trkpt>
      <trkpt lat="35.028685564175248" lon="-4.167573619633913">
        <ele>997.505126953125</ele>
        <time>2011-04-16T17:07:00Z</time>
      </trkpt>
      <trkpt lat="35.029128547757864" lon="-4.167280085384846">
        <ele>995.101806640625</ele>
        <time>2011-04-16T17:07:04Z</time>
      </trkpt>
      <trkpt lat="35.030532935634255" lon="-4.165978878736496">
        <ele>985.96923828125</ele>
        <time>2011-04-16T17:07:17Z</time>
      </trkpt>
      <trkpt lat="35.030759079381824" lon="-4.16533263400197">
        <ele>984.52734375</ele>
        <time>2011-04-16T17:07:22Z</time>
      </trkpt>
      <trkpt lat="35.030499827116728" lon="-4.1645781788975">
        <ele>981.162841796875</ele>
        <time>2011-04-16T17:07:27Z</time>
      </trkpt>
      <trkpt lat="35.030309138819575" lon="-4.164335858076811">
        <ele>979.720703125</ele>
        <time>2011-04-16T17:07:29Z</time>
      </trkpt>
      <trkpt lat="35.029014218598604" lon="-4.162926357239485">
        <ele>970.588134765625</ele>
        <time>2011-04-16T17:07:41Z</time>
      </trkpt>
      <trkpt lat="35.028143087401986" lon="-4.162293523550034">
        <ele>965.301025390625</ele>
        <time>2011-04-16T17:07:48Z</time>
      </trkpt>
      <trkpt lat="35.027757436037064" lon="-4.162047598510981">
        <ele>963.85888671875</ele>
        <time>2011-04-16T17:07:51Z</time>
      </trkpt>
      <trkpt lat="35.027056960389018" lon="-4.161219298839569">
        <ele>960.97509765625</ele>
        <time>2011-04-16T17:07:58Z</time>
      </trkpt>
      <trkpt lat="35.026372242718935" lon="-4.160747984424233">
        <ele>959.533203125</ele>
        <time>2011-04-16T17:08:04Z</time>
      </trkpt>
      <trkpt lat="35.025822222232819" lon="-4.160780757665634">
        <ele>959.052490234375</ele>
        <time>2011-04-16T17:08:09Z</time>
      </trkpt>
      <trkpt lat="35.025476636365056" lon="-4.161048391833901">
        <ele>958.09130859375</ele>
        <time>2011-04-16T17:08:12Z</time>
      </trkpt>
      <trkpt lat="35.024933321401477" lon="-4.161050571128726">
        <ele>955.687744140625</ele>
        <time>2011-04-16T17:08:17Z</time>
      </trkpt>
      <trkpt lat="35.024776663631201" lon="-4.160556122660637">
        <ele>954.726318359375</ele>
        <time>2011-04-16T17:08:21Z</time>
      </trkpt>
      <trkpt lat="35.024701897054911" lon="-4.159889928996563">
        <ele>951.36181640625</ele>
        <time>2011-04-16T17:08:26Z</time>
      </trkpt>
      <trkpt lat="35.024679098278284" lon="-4.159253071993589">
        <ele>948.95849609375</ele>
        <time>2011-04-16T17:08:31Z</time>
      </trkpt>
      <trkpt lat="35.024840533733368" lon="-4.159044194966555">
        <ele>947.5166015625</ele>
        <time>2011-04-16T17:08:33Z</time>
      </trkpt>
      <trkpt lat="35.02503122203052" lon="-4.158849399536848">
        <ele>946.555419921875</ele>
        <time>2011-04-16T17:08:35Z</time>
      </trkpt>
      <trkpt lat="35.025280751287937" lon="-4.158177673816681">
        <ele>943.67138671875</ele>
        <time>2011-04-16T17:08:40Z</time>
      </trkpt>
      <trkpt lat="35.025601945817471" lon="-4.157056845724583">
        <ele>937.9033203125</ele>
        <time>2011-04-16T17:08:47Z</time>
      </trkpt>
      <trkpt lat="35.025865137577057" lon="-4.156303899362683">
        <ele>934.05810546875</ele>
        <time>2011-04-16T17:08:52Z</time>
      </trkpt>
      <trkpt lat="35.02577536739409" lon="-4.15563334710896">
        <ele>930.212890625</ele>
        <time>2011-04-16T17:08:57Z</time>
      </trkpt>
      <trkpt lat="35.025456771254539" lon="-4.155383482575417">
        <ele>927.8095703125</ele>
        <time>2011-04-16T17:09:00Z</time>
      </trkpt>
      <trkpt lat="35.024232594296336" lon="-4.155051140114665">
        <ele>920.118896484375</ele>
        <time>2011-04-16T17:09:09Z</time>
      </trkpt>
      <trkpt lat="35.023968480527401" lon="-4.155014762654901">
        <ele>919.15771484375</ele>
        <time>2011-04-16T17:09:11Z</time>
      </trkpt>
      <trkpt lat="35.023492053151131" lon="-4.154643947258592">
        <ele>916.75439453125</ele>
        <time>2011-04-16T17:09:16Z</time>
      </trkpt>
      <trkpt lat="35.023501692339778" lon="-4.154214877635241">
        <ele>916.75439453125</ele>
        <time>2011-04-16T17:09:19Z</time>
      </trkpt>
      <trkpt lat="35.02362247556448" lon="-4.153930563479662">
        <ele>917.235107421875</ele>
        <time>2011-04-16T17:09:21Z</time>
      </trkpt>
      <trkpt lat="35.024039978161454" lon="-4.152654083445668">
        <ele>914.35107421875</ele>
        <time>2011-04-16T17:09:29Z</time>
      </trkpt>
      <trkpt lat="35.024184565991163" lon="-4.150985162705183">
        <ele>907.14111328125</ele>
        <time>2011-04-16T17:09:38Z</time>
      </trkpt>
      <trkpt lat="35.024242317304015" lon="-4.150230539962649">
        <ele>903.776611328125</ele>
        <time>2011-04-16T17:09:42Z</time>
      </trkpt>
      <trkpt lat="35.024184482172132" lon="-4.149484634399414">
        <ele>900.412109375</ele>
        <time>2011-04-16T17:09:46Z</time>
      </trkpt>
      <trkpt lat="35.024221865460277" lon="-4.148339834064245">
        <ele>894.64404296875</ele>
        <time>2011-04-16T17:09:52Z</time>
      </trkpt>
      <trkpt lat="35.023907879367471" lon="-4.146435465663672">
        <ele>885.031005859375</ele>
        <time>2011-04-16T17:10:02Z</time>
      </trkpt>
      <trkpt lat="35.023677460849285" lon="-4.144934937357903">
        <ele>877.340576171875</ele>
        <time>2011-04-16T17:10:11Z</time>
      </trkpt>
      <trkpt lat="35.023591294884682" lon="-4.144526738673449">
        <ele>874.93701171875</ele>
        <time>2011-04-16T17:10:14Z</time>
      </trkpt>
      <trkpt lat="35.023356517776847" lon="-4.14412465877831">
        <ele>873.014404296875</ele>
        <time>2011-04-16T17:10:18Z</time>
      </trkpt>
      <trkpt lat="35.023005483672023" lon="-4.143611267209053">
        <ele>870.13037109375</ele>
        <time>2011-04-16T17:10:26Z</time>
      </trkpt>
      <trkpt lat="35.022774478420615" lon="-4.143077591434121">
        <ele>867.72705078125</ele>
        <time>2011-04-16T17:10:34Z</time>
      </trkpt>
      <trkpt lat="35.022482369095087" lon="-4.142394969239831">
        <ele>865.8046875</ele>
        <time>2011-04-16T17:10:43Z</time>
      </trkpt>
      <trkpt lat="35.02232076600194" lon="-4.14192633703351">
        <ele>865.323974609375</ele>
        <time>2011-04-16T17:10:52Z</time>
      </trkpt>
      <trkpt lat="35.022210963070393" lon="-4.141510762274265">
        <ele>865.323974609375</ele>
        <time>2011-04-16T17:11:03Z</time>
      </trkpt>
      <trkpt lat="35.022132089361548" lon="-4.140974739566445">
        <ele>866.765869140625</ele>
        <time>2011-04-16T17:11:12Z</time>
      </trkpt>
      <trkpt lat="35.022023459896445" lon="-4.140707859769464">
        <ele>867.24658203125</ele>
        <time>2011-04-16T17:11:20Z</time>
      </trkpt>
      <trkpt lat="35.021933689713478" lon="-4.140585232526064">
        <ele>888.876220703125</ele>
        <time>2011-04-16T17:26:52Z</time>
      </trkpt>
      <trkpt lat="35.021964451298118" lon="-4.140695789828897">
        <ele>866.28515625</ele>
        <time>2011-04-16T17:28:30Z</time>
      </trkpt>
      <trkpt lat="35.021995380520821" lon="-4.140383647754788">
        <ele>878.3017578125</ele>
        <time>2011-04-16T17:36:57Z</time>
      </trkpt>
      <trkpt lat="35.021950369700789" lon="-4.139878721907735">
        <ele>876.85986328125</ele>
        <time>2011-04-16T17:37:07Z</time>
      </trkpt>
      <trkpt lat="35.021907370537519" lon="-4.139607651159167">
        <ele>875.898193359375</ele>
        <time>2011-04-16T17:37:14Z</time>
      </trkpt>
      <trkpt lat="35.021890942007303" lon="-4.139255695044994">
        <ele>875.41748046875</ele>
        <time>2011-04-16T17:37:20Z</time>
      </trkpt>
      <trkpt lat="35.02169924788177" lon="-4.138465281575918">
        <ele>871.572265625</ele>
        <time>2011-04-16T17:37:29Z</time>
      </trkpt>
      <trkpt lat="35.02141484990716" lon="-4.136984618380666">
        <ele>869.64990234375</ele>
        <time>2011-04-16T17:37:42Z</time>
      </trkpt>
      <trkpt lat="35.021513337269425" lon="-4.135886169970036">
        <ele>871.572265625</ele>
        <time>2011-04-16T17:37:50Z</time>
      </trkpt>
      <trkpt lat="35.021684663370252" lon="-4.134270725771785">
        <ele>868.6884765625</ele>
        <time>2011-04-16T17:38:03Z</time>
      </trkpt>
      <trkpt lat="35.021687429398298" lon="-4.133446197956801">
        <ele>868.6884765625</ele>
        <time>2011-04-16T17:38:09Z</time>
      </trkpt>
      <trkpt lat="35.021360786631703" lon="-4.132767179980874">
        <ele>866.765869140625</ele>
        <time>2011-04-16T17:38:15Z</time>
      </trkpt>
      <trkpt lat="35.02084169536829" lon="-4.132200898602605">
        <ele>863.4013671875</ele>
        <time>2011-04-16T17:38:23Z</time>
      </trkpt>
      <trkpt lat="35.020511280745268" lon="-4.131502769887447">
        <ele>862.43994140625</ele>
        <time>2011-04-16T17:38:31Z</time>
      </trkpt>
      <trkpt lat="35.020080953836441" lon="-4.130164682865143">
        <ele>859.0751953125</ele>
        <time>2011-04-16T17:38:45Z</time>
      </trkpt>
      <trkpt lat="35.01985908485949" lon="-4.129428248852491">
        <ele>858.114013671875</ele>
        <time>2011-04-16T17:38:52Z</time>
      </trkpt>
      <trkpt lat="35.019932258874178" lon="-4.128863392397761">
        <ele>858.114013671875</ele>
        <time>2011-04-16T17:38:58Z</time>
      </trkpt>
      <trkpt lat="35.020158067345619" lon="-4.128657197579742">
        <ele>857.63330078125</ele>
        <time>2011-04-16T17:39:01Z</time>
      </trkpt>
      <trkpt lat="35.02128979191184" lon="-4.128042468801141">
        <ele>858.114013671875</ele>
        <time>2011-04-16T17:39:12Z</time>
      </trkpt>
      <trkpt lat="35.021963194012642" lon="-4.127380382269621">
        <ele>856.671875</ele>
        <time>2011-04-16T17:39:19Z</time>
      </trkpt>
      <trkpt lat="35.022505670785904" lon="-4.126632297411561">
        <ele>856.671875</ele>
        <time>2011-04-16T17:39:27Z</time>
      </trkpt>
      <trkpt lat="35.022819824516773" lon="-4.125537453219295">
        <ele>856.191162109375</ele>
        <time>2011-04-16T17:39:36Z</time>
      </trkpt>
      <trkpt lat="35.02325258217752" lon="-4.124337080866098">
        <ele>860.03662109375</ele>
        <time>2011-04-16T17:39:45Z</time>
      </trkpt>
      <trkpt lat="35.024322280660272" lon="-4.122183183208108">
        <ele>875.41748046875</ele>
        <time>2011-04-16T17:40:01Z</time>
      </trkpt>
      <trkpt lat="35.025300364941359" lon="-4.120238916948438">
        <ele>884.55029296875</ele>
        <time>2011-04-16T17:40:15Z</time>
      </trkpt>
      <trkpt lat="35.025781150907278" lon="-4.118784740567207">
        <ele>882.14697265625</ele>
        <time>2011-04-16T17:40:24Z</time>
      </trkpt>
      <trkpt lat="35.026298649609089" lon="-4.117043735459447">
        <ele>873.4951171875</ele>
        <time>2011-04-16T17:40:33Z</time>
      </trkpt>
      <trkpt lat="35.027114124968648" lon="-4.114862261340022">
        <ele>868.6884765625</ele>
        <time>2011-04-16T17:40:44Z</time>
      </trkpt>
      <trkpt lat="35.02791459672153" lon="-4.112826464697719">
        <ele>862.920654296875</ele>
        <time>2011-04-16T17:40:55Z</time>
      </trkpt>
      <trkpt lat="35.029040537774563" lon="-4.109968990087509">
        <ele>848.500732421875</ele>
        <time>2011-04-16T17:41:10Z</time>
      </trkpt>
      <trkpt lat="35.029394924640656" lon="-4.109009765088558">
        <ele>843.694091796875</ele>
        <time>2011-04-16T17:41:15Z</time>
      </trkpt>
      <trkpt lat="35.029424848034978" lon="-4.108197977766395">
        <ele>843.694091796875</ele>
        <time>2011-04-16T17:41:19Z</time>
      </trkpt>
      <trkpt lat="35.02927447669208" lon="-4.107223162427545">
        <ele>844.175048828125</ele>
        <time>2011-04-16T17:41:24Z</time>
      </trkpt>
      <trkpt lat="35.029409592971206" lon="-4.10652469843626">
        <ele>843.694091796875</ele>
        <time>2011-04-16T17:41:29Z</time>
      </trkpt>
      <trkpt lat="35.029765656217933" lon="-4.106380278244615">
        <ele>840.81005859375</ele>
        <time>2011-04-16T17:41:32Z</time>
      </trkpt>
      <trkpt lat="35.03031668253243" lon="-4.106345493346453">
        <ele>838.406982421875</ele>
        <time>2011-04-16T17:41:36Z</time>
      </trkpt>
      <trkpt lat="35.030769556760788" lon="-4.106088085100055">
        <ele>836.484375</ele>
        <time>2011-04-16T17:41:40Z</time>
      </trkpt>
      <trkpt lat="35.03147229552269" lon="-4.105827827006578">
        <ele>834.0810546875</ele>
        <time>2011-04-16T17:41:46Z</time>
      </trkpt>
      <trkpt lat="35.031836489215493" lon="-4.105716766789556">
        <ele>833.11962890625</ele>
        <time>2011-04-16T17:41:49Z</time>
      </trkpt>
      <trkpt lat="35.032506538555026" lon="-4.105729423463345">
        <ele>833.600341796875</ele>
        <time>2011-04-16T17:41:55Z</time>
      </trkpt>
      <trkpt lat="35.032598152756691" lon="-4.105811649933457">
        <ele>834.0810546875</ele>
        <time>2011-04-16T17:41:56Z</time>
      </trkpt>
      <trkpt lat="35.033317655324936" lon="-4.106251280754805">
        <ele>832.63916015625</ele>
        <time>2011-04-16T17:42:03Z</time>
      </trkpt>
      <trkpt lat="35.033893240615726" lon="-4.106160420924425">
        <ele>828.7939453125</ele>
        <time>2011-04-16T17:42:08Z</time>
      </trkpt>
      <trkpt lat="35.034073535352945" lon="-4.105757419019938">
        <ele>826.390380859375</ele>
        <time>2011-04-16T17:42:12Z</time>
      </trkpt>
      <trkpt lat="35.03407085314393" lon="-4.105620793998241">
        <ele>825.90966796875</ele>
        <time>2011-04-16T17:42:13Z</time>
      </trkpt>
      <trkpt lat="35.03389198333025" lon="-4.104385720565915">
        <ele>825.90966796875</ele>
        <time>2011-04-16T17:42:21Z</time>
      </trkpt>
      <trkpt lat="35.033809253945947" lon="-4.104105262085795">
        <ele>826.390380859375</ele>
        <time>2011-04-16T17:42:23Z</time>
      </trkpt>
      <trkpt lat="35.033889468759298" lon="-4.103421717882156">
        <ele>826.87109375</ele>
        <time>2011-04-16T17:42:28Z</time>
      </trkpt>
      <trkpt lat="35.034165820106864" lon="-4.103108150884509">
        <ele>826.87109375</ele>
        <time>2011-04-16T17:42:31Z</time>
      </trkpt>
      <trkpt lat="35.034501347690821" lon="-4.102824172005057">
        <ele>824.948486328125</ele>
        <time>2011-04-16T17:42:34Z</time>
      </trkpt>
      <trkpt lat="35.035061677917838" lon="-4.102590065449476">
        <ele>823.987060546875</ele>
        <time>2011-04-16T17:42:38Z</time>
      </trkpt>
      <trkpt lat="35.035785119980574" lon="-4.102364173159003">
        <ele>821.583740234375</ele>
        <time>2011-04-16T17:42:43Z</time>
      </trkpt>
      <trkpt lat="35.036224080249667" lon="-4.101958740502596">
        <ele>820.141845703125</ele>
        <time>2011-04-16T17:42:47Z</time>
      </trkpt>
      <trkpt lat="35.036390125751495" lon="-4.101721197366715">
        <ele>819.1806640625</ele>
        <time>2011-04-16T17:42:49Z</time>
      </trkpt>
      <trkpt lat="35.036913827061653" lon="-4.101457418873906">
        <ele>817.738525390625</ele>
        <time>2011-04-16T17:42:54Z</time>
      </trkpt>
      <trkpt lat="35.037049446254969" lon="-4.101474937051535">
        <ele>818.21923828125</ele>
        <time>2011-04-16T17:42:55Z</time>
      </trkpt>
      <trkpt lat="35.037615727633238" lon="-4.101572167128325">
        <ele>818.699951171875</ele>
        <time>2011-04-16T17:42:59Z</time>
      </trkpt>
      <trkpt lat="35.038154516369104" lon="-4.101399164646864">
        <ele>816.77734375</ele>
        <time>2011-04-16T17:43:04Z</time>
      </trkpt>
      <trkpt lat="35.038290889933705" lon="-4.101200345903635">
        <ele>816.296630859375</ele>
        <time>2011-04-16T17:43:06Z</time>
      </trkpt>
      <trkpt lat="35.038895225152373" lon="-4.100103825330734">
        <ele>813.412841796875</ele>
        <time>2011-04-16T17:43:15Z</time>
      </trkpt>
      <trkpt lat="35.038948031142354" lon="-4.0995201934129">
        <ele>811.489990234375</ele>
        <time>2011-04-16T17:43:20Z</time>
      </trkpt>
      <trkpt lat="35.038855830207467" lon="-4.0992870926857">
        <ele>811.00927734375</ele>
        <time>2011-04-16T17:43:22Z</time>
      </trkpt>
      <trkpt lat="35.03866882994771" lon="-4.0989157743752">
        <ele>810.528564453125</ele>
        <time>2011-04-16T17:43:25Z</time>
      </trkpt>
      <trkpt lat="35.038640247657895" lon="-4.098131060600281">
        <ele>809.5673828125</ele>
        <time>2011-04-16T17:43:30Z</time>
      </trkpt>
      <trkpt lat="35.039120363071561" lon="-4.096439424902201">
        <ele>807.1640625</ele>
        <time>2011-04-16T17:43:40Z</time>
      </trkpt>
      <trkpt lat="35.039047859609127" lon="-4.095541471615434">
        <ele>806.683349609375</ele>
        <time>2011-04-16T17:43:45Z</time>
      </trkpt>
      <trkpt lat="35.038811070844531" lon="-4.094844851642847">
        <ele>807.1640625</ele>
        <time>2011-04-16T17:43:49Z</time>
      </trkpt>
      <trkpt lat="35.038294997066259" lon="-4.094284940510988">
        <ele>807.644775390625</ele>
        <time>2011-04-16T17:43:54Z</time>
      </trkpt>
      <trkpt lat="35.037258826196194" lon="-4.093782193958759">
        <ele>806.683349609375</ele>
        <time>2011-04-16T17:44:01Z</time>
      </trkpt>
      <trkpt lat="35.036536138504744" lon="-4.093680940568447">
        <ele>805.72216796875</ele>
        <time>2011-04-16T17:44:06Z</time>
      </trkpt>
      <trkpt lat="35.036051496863365" lon="-4.093307945877314">
        <ele>805.241455078125</ele>
        <time>2011-04-16T17:44:11Z</time>
      </trkpt>
      <trkpt lat="35.036119557917118" lon="-4.092838140204549">
        <ele>805.72216796875</ele>
        <time>2011-04-16T17:44:14Z</time>
      </trkpt>
      <trkpt lat="35.036302283406258" lon="-4.0925816539675">
        <ele>804.7607421875</ele>
        <time>2011-04-16T17:44:16Z</time>
      </trkpt>
      <trkpt lat="35.037607345730066" lon="-4.091127477586269">
        <ele>799.4736328125</ele>
        <time>2011-04-16T17:44:28Z</time>
      </trkpt>
      <trkpt lat="35.037708934396505" lon="-4.091014657169581">
        <ele>798.992919921875</ele>
        <time>2011-04-16T17:44:29Z</time>
      </trkpt>
      <trkpt lat="35.038306647911668" lon="-4.090770576149225">
        <ele>796.109130859375</ele>
        <time>2011-04-16T17:44:34Z</time>
      </trkpt>
      <trkpt lat="35.038436399772763" lon="-4.090818520635366">
        <ele>795.628173828125</ele>
        <time>2011-04-16T17:44:35Z</time>
      </trkpt>
      <trkpt lat="35.038987174630165" lon="-4.091062685474753">
        <ele>791.30224609375</ele>
        <time>2011-04-16T17:44:39Z</time>
      </trkpt>
      <trkpt lat="35.040269354358315" lon="-4.091155640780926">
        <ele>785.053955078125</ele>
        <time>2011-04-16T17:44:47Z</time>
      </trkpt>
      <trkpt lat="35.041490932926536" lon="-4.091088334098458">
        <ele>780.247314453125</ele>
        <time>2011-04-16T17:44:55Z</time>
      </trkpt>
      <trkpt lat="35.0427205581218" lon="-4.090552562847734">
        <ele>776.40185546875</ele>
        <time>2011-04-16T17:45:03Z</time>
      </trkpt>
      <trkpt lat="35.043500494211912" lon="-4.090369334444404">
        <ele>774.479248046875</ele>
        <time>2011-04-16T17:45:08Z</time>
      </trkpt>
      <trkpt lat="35.044101141393185" lon="-4.090603524819017">
        <ele>772.556640625</ele>
        <time>2011-04-16T17:45:13Z</time>
      </trkpt>
      <trkpt lat="35.044501461088657" lon="-4.091080287471414">
        <ele>771.59521484375</ele>
        <time>2011-04-16T17:45:17Z</time>
      </trkpt>
      <trkpt lat="35.044736489653587" lon="-4.091693591326475">
        <ele>772.556640625</ele>
        <time>2011-04-16T17:45:21Z</time>
      </trkpt>
      <trkpt lat="35.045072520151734" lon="-4.093086998909712">
        <ele>770.1533203125</ele>
        <time>2011-04-16T17:45:29Z</time>
      </trkpt>
      <trkpt lat="35.045435791835189" lon="-4.093864085152745">
        <ele>767.75</ele>
        <time>2011-04-16T17:45:34Z</time>
      </trkpt>
      <trkpt lat="35.046162167564034" lon="-4.094442771747708">
        <ele>764.385498046875</ele>
        <time>2011-04-16T17:45:40Z</time>
      </trkpt>
      <trkpt lat="35.046775387600064" lon="-4.094376638531685">
        <ele>761.020751953125</ele>
        <time>2011-04-16T17:45:44Z</time>
      </trkpt>
      <trkpt lat="35.047067329287529" lon="-4.094240516424179">
        <ele>759.578857421875</ele>
        <time>2011-04-16T17:45:46Z</time>
      </trkpt>
      <trkpt lat="35.047764033079147" lon="-4.094098526984453">
        <ele>758.136962890625</ele>
        <time>2011-04-16T17:45:52Z</time>
      </trkpt>
      <trkpt lat="35.047850282862782" lon="-4.094199445098639">
        <ele>758.617431640625</ele>
        <time>2011-04-16T17:45:53Z</time>
      </trkpt>
      <trkpt lat="35.048506082966924" lon="-4.094578390941024">
        <ele>761.50146484375</ele>
        <time>2011-04-16T17:45:59Z</time>
      </trkpt>
      <trkpt lat="35.050055645406246" lon="-4.094544695690274">
        <ele>763.904541015625</ele>
        <time>2011-04-16T17:46:09Z</time>
      </trkpt>
      <trkpt lat="35.050346497446299" lon="-4.094493733718991">
        <ele>763.904541015625</ele>
        <time>2011-04-16T17:46:11Z</time>
      </trkpt>
      <trkpt lat="35.05130278877914" lon="-4.093971122056246">
        <ele>762.462646484375</ele>
        <time>2011-04-16T17:46:18Z</time>
      </trkpt>
      <trkpt lat="35.051788939163089" lon="-4.093656716868281">
        <ele>761.50146484375</ele>
        <time>2011-04-16T17:46:22Z</time>
      </trkpt>
      <trkpt lat="35.052094962447882" lon="-4.093207363039255">
        <ele>760.5400390625</ele>
        <time>2011-04-16T17:46:27Z</time>
      </trkpt>
      <trkpt lat="35.052109630778432" lon="-4.09308054484427">
        <ele>760.059326171875</ele>
        <time>2011-04-16T17:46:28Z</time>
      </trkpt>
      <trkpt lat="35.052185151726007" lon="-4.091931553557515">
        <ele>758.136962890625</ele>
        <time>2011-04-16T17:46:35Z</time>
      </trkpt>
      <trkpt lat="35.052554961293936" lon="-4.091155556961894">
        <ele>755.2529296875</ele>
        <time>2011-04-16T17:46:40Z</time>
      </trkpt>
      <trkpt lat="35.053909225389361" lon="-4.089900786057115">
        <ele>747.08154296875</ele>
        <time>2011-04-16T17:46:51Z</time>
      </trkpt>
      <trkpt lat="35.054016597568989" lon="-4.089814284816384">
        <ele>746.60107421875</ele>
        <time>2011-04-16T17:46:52Z</time>
      </trkpt>
      <trkpt lat="35.054299822077155" lon="-4.089280189946294">
        <ele>744.19775390625</ele>
        <time>2011-04-16T17:46:57Z</time>
      </trkpt>
      <trkpt lat="35.05419353954494" lon="-4.088859250769019">
        <ele>744.19775390625</ele>
        <time>2011-04-16T17:47:00Z</time>
      </trkpt>
      <trkpt lat="35.05346255376935" lon="-4.087529378011823">
        <ele>741.79443359375</ele>
        <time>2011-04-16T17:47:09Z</time>
      </trkpt>
      <trkpt lat="35.053002974018455" lon="-4.086660258471966">
        <ele>739.39111328125</ele>
        <time>2011-04-16T17:47:15Z</time>
      </trkpt>
      <trkpt lat="35.052974727004766" lon="-4.085952071473002">
        <ele>737.468505859375</ele>
        <time>2011-04-16T17:47:20Z</time>
      </trkpt>
      <trkpt lat="35.052982857450843" lon="-4.08516526222229">
        <ele>734.584716796875</ele>
        <time>2011-04-16T17:47:26Z</time>
      </trkpt>
      <trkpt lat="35.052973972633481" lon="-4.084328832104802">
        <ele>732.662109375</ele>
        <time>2011-04-16T17:47:32Z</time>
      </trkpt>
      <trkpt lat="35.053327353671193" lon="-4.084065640345216">
        <ele>731.700439453125</ele>
        <time>2011-04-16T17:47:35Z</time>
      </trkpt>
      <trkpt lat="35.054654544219375" lon="-4.083460299298167">
        <ele>724.971435546875</ele>
        <time>2011-04-16T17:47:44Z</time>
      </trkpt>
      <trkpt lat="35.054948329925537" lon="-4.083361392840743">
        <ele>723.529541015625</ele>
        <time>2011-04-16T17:47:46Z</time>
      </trkpt>
      <trkpt lat="35.055431630462408" lon="-4.082975741475821">
        <ele>721.606689453125</ele>
        <time>2011-04-16T17:47:50Z</time>
      </trkpt>
      <trkpt lat="35.055646961554885" lon="-4.082721685990691">
        <ele>720.164794921875</ele>
        <time>2011-04-16T17:47:52Z</time>
      </trkpt>
      <trkpt lat="35.056359590962529" lon="-4.082332095131278">
        <ele>716.80029296875</ele>
        <time>2011-04-16T17:47:57Z</time>
      </trkpt>
      <trkpt lat="35.05668506026268" lon="-4.082308625802398">
        <ele>715.358154296875</ele>
        <time>2011-04-16T17:47:59Z</time>
      </trkpt>
      <trkpt lat="35.057445550337434" lon="-4.082567291334271">
        <ele>711.0322265625</ele>
        <time>2011-04-16T17:48:04Z</time>
      </trkpt>
      <trkpt lat="35.057705221697688" lon="-4.082693941891193">
        <ele>709.59033203125</ele>
        <time>2011-04-16T17:48:06Z</time>
      </trkpt>
      <trkpt lat="35.058214589953423" lon="-4.082531332969666">
        <ele>707.667724609375</ele>
        <time>2011-04-16T17:48:11Z</time>
      </trkpt>
      <trkpt lat="35.058277454227209" lon="-4.08196228556335">
        <ele>705.7451171875</ele>
        <time>2011-04-16T17:48:15Z</time>
      </trkpt>
      <trkpt lat="35.057933125644922" lon="-4.080291520804167">
        <ele>704.78369140625</ele>
        <time>2011-04-16T17:48:24Z</time>
      </trkpt>
      <trkpt lat="35.057671442627907" lon="-4.079381329938769">
        <ele>706.706298828125</ele>
        <time>2011-04-16T17:48:29Z</time>
      </trkpt>
      <trkpt lat="35.057398527860641" lon="-4.077461790293455">
        <ele>710.551513671875</ele>
        <time>2011-04-16T17:48:39Z</time>
      </trkpt>
      <trkpt lat="35.05731051787734" lon="-4.076927527785301">
        <ele>710.551513671875</ele>
        <time>2011-04-16T17:48:42Z</time>
      </trkpt>
      <trkpt lat="35.056904666125774" lon="-4.076356468722224">
        <ele>711.0322265625</ele>
        <time>2011-04-16T17:48:47Z</time>
      </trkpt>
      <trkpt lat="35.056409379467368" lon="-4.076028987765312">
        <ele>710.551513671875</ele>
        <time>2011-04-16T17:48:51Z</time>
      </trkpt>
      <trkpt lat="35.056049292907119" lon="-4.075483493506908">
        <ele>707.667724609375</ele>
        <time>2011-04-16T17:48:55Z</time>
      </trkpt>
      <trkpt lat="35.0557825807482" lon="-4.074849653989077">
        <ele>703.822509765625</ele>
        <time>2011-04-16T17:48:59Z</time>
      </trkpt>
      <trkpt lat="35.055266423150897" lon="-4.074360318481922">
        <ele>700.9384765625</ele>
        <time>2011-04-16T17:49:04Z</time>
      </trkpt>
      <trkpt lat="35.055134324356914" lon="-4.07432452775538">
        <ele>699.97705078125</ele>
        <time>2011-04-16T17:49:05Z</time>
      </trkpt>
      <trkpt lat="35.054861577227712" lon="-4.074263339862227">
        <ele>698.534912109375</ele>
        <time>2011-04-16T17:49:07Z</time>
      </trkpt>
      <trkpt lat="35.054386574774981" lon="-4.073932254686952">
        <ele>695.651123046875</ele>
        <time>2011-04-16T17:49:11Z</time>
      </trkpt>
      <trkpt lat="35.053732367232442" lon="-4.073259690776467">
        <ele>692.767333984375</ele>
        <time>2011-04-16T17:49:17Z</time>
      </trkpt>
      <trkpt lat="35.053274044767022" lon="-4.072520155459642">
        <ele>688.44140625</ele>
        <time>2011-04-16T17:49:23Z</time>
      </trkpt>
      <trkpt lat="35.052900463342667" lon="-4.072120757773519">
        <ele>686.999267578125</ele>
        <time>2011-04-16T17:49:27Z</time>
      </trkpt>
      <trkpt lat="35.052617574110627" lon="-4.071679534390569">
        <ele>684.115478515625</ele>
        <time>2011-04-16T17:49:31Z</time>
      </trkpt>
      <trkpt lat="35.05232747644186" lon="-4.071171339601278">
        <ele>681.2314453125</ele>
        <time>2011-04-16T17:49:36Z</time>
      </trkpt>
      <trkpt lat="35.052204262465239" lon="-4.070586953312159">
        <ele>678.828125</ele>
        <time>2011-04-16T17:49:42Z</time>
      </trkpt>
      <trkpt lat="35.052507016807795" lon="-4.070081943646073">
        <ele>675.944091796875</ele>
        <time>2011-04-16T17:49:47Z</time>
      </trkpt>
      <trkpt lat="35.053193243220448" lon="-4.069165466353297">
        <ele>669.215087890625</ele>
        <time>2011-04-16T17:49:56Z</time>
      </trkpt>
      <trkpt lat="35.053825825452805" lon="-4.06816734932363">
        <ele>663.447021484375</ele>
        <time>2011-04-16T17:50:04Z</time>
      </trkpt>
      <trkpt lat="35.054131764918566" lon="-4.06786048784852">
        <ele>661.5244140625</ele>
        <time>2011-04-16T17:50:07Z</time>
      </trkpt>
      <trkpt lat="35.054441057145596" lon="-4.067261097952724">
        <ele>656.237060546875</ele>
        <time>2011-04-16T17:50:12Z</time>
      </trkpt>
      <trkpt lat="35.054264031350613" lon="-4.066852061077952">
        <ele>654.795166015625</ele>
        <time>2011-04-16T17:50:15Z</time>
      </trkpt>
      <trkpt lat="35.054168980568647" lon="-4.066729685291648">
        <ele>654.795166015625</ele>
        <time>2011-04-16T17:50:16Z</time>
      </trkpt>
      <trkpt lat="35.053888354450464" lon="-4.066353673115373">
        <ele>654.314697265625</ele>
        <time>2011-04-16T17:50:19Z</time>
      </trkpt>
      <trkpt lat="35.053645195439458" lon="-4.065702818334103">
        <ele>652.87255859375</ele>
        <time>2011-04-16T17:50:23Z</time>
      </trkpt>
      <trkpt lat="35.053096935153008" lon="-4.063804233446717">
        <ele>649.027099609375</ele>
        <time>2011-04-16T17:50:33Z</time>
      </trkpt>
      <trkpt lat="35.05303155630827" lon="-4.063636930659413">
        <ele>648.54638671875</ele>
        <time>2011-04-16T17:50:34Z</time>
      </trkpt>
      <trkpt lat="35.052500562742352" lon="-4.06322923488915">
        <ele>647.585205078125</ele>
        <time>2011-04-16T17:50:39Z</time>
      </trkpt>
      <trkpt lat="35.051842667162418" lon="-4.063097471371293">
        <ele>647.1044921875</ele>
        <time>2011-04-16T17:50:44Z</time>
      </trkpt>
      <trkpt lat="35.051370766013861" lon="-4.062698828056455">
        <ele>645.181884765625</ele>
        <time>2011-04-16T17:50:49Z</time>
      </trkpt>
      <trkpt lat="35.051423069089651" lon="-4.062106143683195">
        <ele>642.298095703125</ele>
        <time>2011-04-16T17:50:53Z</time>
      </trkpt>
      <trkpt lat="35.051724147051573" lon="-4.061383791267872">
        <ele>637.97216796875</ele>
        <time>2011-04-16T17:50:58Z</time>
      </trkpt>
      <trkpt lat="35.051871920004487" lon="-4.060726817697287">
        <ele>638.93359375</ele>
        <time>2011-04-16T17:51:04Z</time>
      </trkpt>
      <trkpt lat="35.051827160641551" lon="-4.06034586019814">
        <ele>640.85595703125</ele>
        <time>2011-04-16T17:51:10Z</time>
      </trkpt>
      <trkpt lat="35.051808636635542" lon="-4.060203870758414">
        <ele>643.25927734375</ele>
        <time>2011-04-16T17:51:50Z</time>
      </trkpt>
      <trkpt lat="35.051660360768437" lon="-4.059468442574143">
        <ele>644.220703125</ele>
        <time>2011-04-16T17:51:57Z</time>
      </trkpt>
      <trkpt lat="35.051449136808515" lon="-4.058349877595902">
        <ele>645.181884765625</ele>
        <time>2011-04-16T17:52:04Z</time>
      </trkpt>
      <trkpt lat="35.05106876604259" lon="-4.056485826149583">
        <ele>644.701171875</ele>
        <time>2011-04-16T17:52:14Z</time>
      </trkpt>
      <trkpt lat="35.050984863191843" lon="-4.055256368592382">
        <ele>643.739990234375</ele>
        <time>2011-04-16T17:52:20Z</time>
      </trkpt>
      <trkpt lat="35.051094749942422" lon="-4.053189475089312">
        <ele>637.0107421875</ele>
        <time>2011-04-16T17:52:29Z</time>
      </trkpt>
      <trkpt lat="35.051315361633897" lon="-4.050862239673734">
        <ele>623.552490234375</ele>
        <time>2011-04-16T17:52:39Z</time>
      </trkpt>
      <trkpt lat="35.051891449838877" lon="-4.049074882641435">
        <ele>617.7841796875</ele>
        <time>2011-04-16T17:52:48Z</time>
      </trkpt>
      <trkpt lat="35.052128992974758" lon="-4.047949863597751">
        <ele>617.3037109375</ele>
        <time>2011-04-16T17:52:54Z</time>
      </trkpt>
      <trkpt lat="35.052237622439861" lon="-4.045952120795846">
        <ele>616.34228515625</ele>
        <time>2011-04-16T17:53:04Z</time>
      </trkpt>
      <trkpt lat="35.052466532215476" lon="-4.044797932729125">
        <ele>609.132568359375</ele>
        <time>2011-04-16T17:53:10Z</time>
      </trkpt>
      <trkpt lat="35.052776075899601" lon="-4.043576354160905">
        <ele>601.922607421875</ele>
        <time>2011-04-16T17:53:16Z</time>
      </trkpt>
      <trkpt lat="35.053216964006424" lon="-4.042943688109517">
        <ele>597.115966796875</ele>
        <time>2011-04-16T17:53:21Z</time>
      </trkpt>
      <trkpt lat="35.053616780787706" lon="-4.042787281796336">
        <ele>594.712646484375</ele>
        <time>2011-04-16T17:53:24Z</time>
      </trkpt>
      <trkpt lat="35.05528662353754" lon="-4.042389392852783">
        <ele>582.6962890625</ele>
        <time>2011-04-16T17:53:35Z</time>
      </trkpt>
      <trkpt lat="35.055843349546194" lon="-4.041924616321921">
        <ele>578.370361328125</ele>
        <time>2011-04-16T17:53:40Z</time>
      </trkpt>
      <trkpt lat="35.056011155247688" lon="-4.041226152330637">
        <ele>574.525146484375</ele>
        <time>2011-04-16T17:53:44Z</time>
      </trkpt>
      <trkpt lat="35.055923731997609" lon="-4.04083052650094">
        <ele>574.04443359375</ele>
        <time>2011-04-16T17:53:46Z</time>
      </trkpt>
      <trkpt lat="35.055596167221665" lon="-4.039660328999162">
        <ele>574.04443359375</ele>
        <time>2011-04-16T17:53:52Z</time>
      </trkpt>
      <trkpt lat="35.055628689005971" lon="-4.03899128548801">
        <ele>570.6796875</ele>
        <time>2011-04-16T17:53:56Z</time>
      </trkpt>
      <trkpt lat="35.055913170799613" lon="-4.038121830672026">
        <ele>564.911865234375</ele>
        <time>2011-04-16T17:54:01Z</time>
      </trkpt>
      <trkpt lat="35.056275185197592" lon="-4.03747315518558">
        <ele>558.663330078125</ele>
        <time>2011-04-16T17:54:05Z</time>
      </trkpt>
      <trkpt lat="35.057061826810241" lon="-4.036349644884467">
        <ele>550.4921875</ele>
        <time>2011-04-16T17:54:12Z</time>
      </trkpt>
      <trkpt lat="35.057780994102359" lon="-4.035146590322256">
        <ele>542.3209228515625</ele>
        <time>2011-04-16T17:54:19Z</time>
      </trkpt>
      <trkpt lat="35.058517260476947" lon="-4.034303370863199">
        <ele>535.591552734375</ele>
        <time>2011-04-16T17:54:25Z</time>
      </trkpt>
      <trkpt lat="35.059379590675235" lon="-4.033620497211814">
        <ele>529.82373046875</ele>
        <time>2011-04-16T17:54:31Z</time>
      </trkpt>
      <trkpt lat="35.06031408905983" lon="-4.032753640785813">
        <ele>520.6912841796875</ele>
        <time>2011-04-16T17:54:38Z</time>
      </trkpt>
      <trkpt lat="35.060803340747952" lon="-4.03222331777215">
        <ele>517.32666015625</ele>
        <time>2011-04-16T17:54:42Z</time>
      </trkpt>
      <trkpt lat="35.061347493901849" lon="-4.031924083828926">
        <ele>511.5587158203125</ele>
        <time>2011-04-16T17:54:46Z</time>
      </trkpt>
      <trkpt lat="35.061820987612009" lon="-4.031443046405911">
        <ele>505.7908935546875</ele>
        <time>2011-04-16T17:54:51Z</time>
      </trkpt>
      <trkpt lat="35.062427753582597" lon="-4.030169919133186">
        <ele>493.7742919921875</ele>
        <time>2011-04-16T17:54:59Z</time>
      </trkpt>
      <trkpt lat="35.062777195125818" lon="-4.029662562534213">
        <ele>488.4871826171875</ele>
        <time>2011-04-16T17:55:03Z</time>
      </trkpt>
      <trkpt lat="35.06299177184701" lon="-4.029480339959264">
        <ele>485.60302734375</ele>
        <time>2011-04-16T17:55:05Z</time>
      </trkpt>
      <trkpt lat="35.063595687970519" lon="-4.028622787445784">
        <ele>475.50927734375</ele>
        <time>2011-04-16T17:55:12Z</time>
      </trkpt>
      <trkpt lat="35.063777742907405" lon="-4.028390776365995">
        <ele>472.6253662109375</ele>
        <time>2011-04-16T17:55:14Z</time>
      </trkpt>
      <trkpt lat="35.063887964934111" lon="-4.027856262400746">
        <ele>464.934814453125</ele>
        <time>2011-04-16T17:55:19Z</time>
      </trkpt>
      <trkpt lat="35.063569536432624" lon="-4.027398023754358">
        <ele>461.0894775390625</ele>
        <time>2011-04-16T17:55:23Z</time>
      </trkpt>
      <trkpt lat="35.063154380768538" lon="-4.027022682130337">
        <ele>459.1668701171875</ele>
        <time>2011-04-16T17:55:27Z</time>
      </trkpt>
      <trkpt lat="35.062884148210287" lon="-4.026618925854564">
        <ele>456.7635498046875</ele>
        <time>2011-04-16T17:55:31Z</time>
      </trkpt>
      <trkpt lat="35.062512997537851" lon="-4.026384735479951">
        <ele>452.918212890625</ele>
        <time>2011-04-16T17:55:37Z</time>
      </trkpt>
      <trkpt lat="35.061916625127196" lon="-4.026643736287952">
        <ele>448.11181640625</ele>
        <time>2011-04-16T17:55:46Z</time>
      </trkpt>
      <trkpt lat="35.061329556629062" lon="-4.026690255850554">
        <ele>441.3824462890625</ele>
        <time>2011-04-16T17:55:55Z</time>
      </trkpt>
      <trkpt lat="35.060664033517241" lon="-4.026585146784782">
        <ele>431.28857421875</ele>
        <time>2011-04-16T17:56:02Z</time>
      </trkpt>
      <trkpt lat="35.059684524312615" lon="-4.026482636108995">
        <ele>418.310791015625</ele>
        <time>2011-04-16T17:56:10Z</time>
      </trkpt>
      <trkpt lat="35.058854296803474" lon="-4.025983242318034">
        <ele>407.736328125</ele>
        <time>2011-04-16T17:56:17Z</time>
      </trkpt>
      <trkpt lat="35.057897921651602" lon="-4.025166844949126">
        <ele>393.3165283203125</ele>
        <time>2011-04-16T17:56:26Z</time>
      </trkpt>
      <trkpt lat="35.057595921680331" lon="-4.024867275729775">
        <ele>388.510009765625</ele>
        <time>2011-04-16T17:56:32Z</time>
      </trkpt>
      <trkpt lat="35.057146567851305" lon="-4.024410881102085">
        <ele>381.7806396484375</ele>
        <time>2011-04-16T17:56:40Z</time>
      </trkpt>
      <trkpt lat="35.056987982243299" lon="-4.024257743731141">
        <ele>378.8968505859375</ele>
        <time>2011-04-16T17:56:43Z</time>
      </trkpt>
      <trkpt lat="35.056765777990222" lon="-4.023867482319474">
        <ele>376.0128173828125</ele>
        <time>2011-04-16T17:56:50Z</time>
      </trkpt>
      <trkpt lat="35.05655606277287" lon="-4.023373033851385">
        <ele>369.28369140625</ele>
        <time>2011-04-16T17:56:55Z</time>
      </trkpt>
      <trkpt lat="35.056268479675055" lon="-4.022702146321535">
        <ele>360.6317138671875</ele>
        <time>2011-04-16T17:57:01Z</time>
      </trkpt>
      <trkpt lat="35.056184325367212" lon="-4.022234436124563">
        <ele>356.786376953125</ele>
        <time>2011-04-16T17:57:05Z</time>
      </trkpt>
      <trkpt lat="35.055899675935507" lon="-4.021699586883187">
        <ele>349.5765380859375</ele>
        <time>2011-04-16T17:57:11Z</time>
      </trkpt>
      <trkpt lat="35.055404054000974" lon="-4.021438155323267">
        <ele>345.7313232421875</ele>
        <time>2011-04-16T17:57:16Z</time>
      </trkpt>
      <trkpt lat="35.054978588595986" lon="-4.021607972681522">
        <ele>342.8472900390625</ele>
        <time>2011-04-16T17:57:20Z</time>
      </trkpt>
      <trkpt lat="35.05445446819067" lon="-4.021982224658132">
        <ele>340.444091796875</ele>
        <time>2011-04-16T17:57:26Z</time>
      </trkpt>
      <trkpt lat="35.053930096328259" lon="-4.021949032321572">
        <ele>340.444091796875</ele>
        <time>2011-04-16T17:57:32Z</time>
      </trkpt>
      <trkpt lat="35.053699593991041" lon="-4.021669747307897">
        <ele>337.0794677734375</ele>
        <time>2011-04-16T17:57:35Z</time>
      </trkpt>
      <trkpt lat="35.053228447213769" lon="-4.020633827894926">
        <ele>322.65966796875</ele>
        <time>2011-04-16T17:57:43Z</time>
      </trkpt>
      <trkpt lat="35.053265243768692" lon="-4.020008035004139">
        <ele>314.4884033203125</ele>
        <time>2011-04-16T17:57:48Z</time>
      </trkpt>
      <trkpt lat="35.053320396691561" lon="-4.019894124940038">
        <ele>313.0465087890625</ele>
        <time>2011-04-16T17:57:49Z</time>
      </trkpt>
      <trkpt lat="35.053672688081861" lon="-4.01934158988297">
        <ele>304.875244140625</ele>
        <time>2011-04-16T17:57:54Z</time>
      </trkpt>
      <trkpt lat="35.053846696391702" lon="-4.018657375127077">
        <ele>298.1461181640625</ele>
        <time>2011-04-16T17:58:00Z</time>
      </trkpt>
      <trkpt lat="35.053826831281185" lon="-4.018185725435615">
        <ele>293.33935546875</ele>
        <time>2011-04-16T17:58:04Z</time>
      </trkpt>
      <trkpt lat="35.053963959217072" lon="-4.017944578081369">
        <ele>288.532958984375</ele>
        <time>2011-04-16T17:58:09Z</time>
      </trkpt>
      <trkpt lat="35.054113073274493" lon="-4.01808824390173">
        <ele>284.6876220703125</ele>
        <time>2011-04-16T17:58:13Z</time>
      </trkpt>
      <trkpt lat="35.054240394383669" lon="-4.018303155899048">
        <ele>282.7650146484375</ele>
        <time>2011-04-16T17:58:17Z</time>
      </trkpt>
      <trkpt lat="35.054681282490492" lon="-4.018641449511051">
        <ele>280.3616943359375</ele>
        <time>2011-04-16T17:58:24Z</time>
      </trkpt>
      <trkpt lat="35.05500708706677" lon="-4.018781678751111">
        <ele>277.958251953125</ele>
        <time>2011-04-16T17:58:28Z</time>
      </trkpt>
      <trkpt lat="35.055350493639708" lon="-4.018630888313055">
        <ele>274.59375</ele>
        <time>2011-04-16T17:58:34Z</time>
      </trkpt>
      <trkpt lat="35.055217053741217" lon="-4.018287984654307">
        <ele>271.709716796875</ele>
        <time>2011-04-16T17:58:38Z</time>
      </trkpt>
      <trkpt lat="35.055158799514174" lon="-4.018079861998558">
        <ele>269.3065185546875</ele>
        <time>2011-04-16T17:58:40Z</time>
      </trkpt>
      <trkpt lat="35.054923770949244" lon="-4.017394473776221">
        <ele>262.0965576171875</ele>
        <time>2011-04-16T17:58:46Z</time>
      </trkpt>
      <trkpt lat="35.054565947502851" lon="-4.016895582899451">
        <ele>256.3287353515625</ele>
        <time>2011-04-16T17:58:51Z</time>
      </trkpt>
      <trkpt lat="35.054504759609699" lon="-4.016388896852732">
        <ele>249.5994873046875</ele>
        <time>2011-04-16T17:58:56Z</time>
      </trkpt>
      <trkpt lat="35.054658651351929" lon="-4.016113970428705">
        <ele>246.23486328125</ele>
        <time>2011-04-16T17:58:59Z</time>
      </trkpt>
      <trkpt lat="35.05492209456861" lon="-4.015779448673129">
        <ele>241.908935546875</ele>
        <time>2011-04-16T17:59:03Z</time>
      </trkpt>
      <trkpt lat="35.055022425949574" lon="-4.015372674912214">
        <ele>238.0635986328125</ele>
        <time>2011-04-16T17:59:07Z</time>
      </trkpt>
      <trkpt lat="35.055018570274115" lon="-4.015143429860473">
        <ele>236.6217041015625</ele>
        <time>2011-04-16T17:59:09Z</time>
      </trkpt>
      <trkpt lat="35.055097863078117" lon="-4.014713019132614">
        <ele>232.7764892578125</ele>
        <time>2011-04-16T17:59:13Z</time>
      </trkpt>
      <trkpt lat="35.055259969085455" lon="-4.014215134084225">
        <ele>228.450439453125</ele>
        <time>2011-04-16T17:59:18Z</time>
      </trkpt>
      <trkpt lat="35.055280588567257" lon="-4.01390022598207">
        <ele>226.047119140625</ele>
        <time>2011-04-16T17:59:22Z</time>
      </trkpt>
      <trkpt lat="35.055313277989626" lon="-4.013667544350028">
        <ele>224.605224609375</ele>
        <time>2011-04-16T17:59:26Z</time>
      </trkpt>
      <trkpt lat="35.055221999064088" lon="-4.013168821111321">
        <ele>223.643798828125</ele>
        <time>2011-04-16T17:59:33Z</time>
      </trkpt>
      <trkpt lat="35.055126445367932" lon="-4.013038231059909">
        <ele>223.643798828125</ele>
        <time>2011-04-16T17:59:35Z</time>
      </trkpt>
      <trkpt lat="35.055017899721861" lon="-4.01284284889698">
        <ele>223.643798828125</ele>
        <time>2011-04-16T17:59:38Z</time>
      </trkpt>
      <trkpt lat="35.054523786529899" lon="-4.012456946074963">
        <ele>224.605224609375</ele>
        <time>2011-04-16T17:59:46Z</time>
      </trkpt>
      <trkpt lat="35.054291691631079" lon="-4.01226231828332">
        <ele>225.0859375</ele>
        <time>2011-04-16T17:59:51Z</time>
      </trkpt>
      <trkpt lat="35.054085748270154" lon="-4.012117395177484">
        <ele>226.047119140625</ele>
        <time>2011-04-16T17:59:55Z</time>
      </trkpt>
      <trkpt lat="35.053846864029765" lon="-4.011919666081667">
        <ele>227.008544921875</ele>
        <time>2011-04-16T18:00:01Z</time>
      </trkpt>
      <trkpt lat="35.05394484847784" lon="-4.011822352185845">
        <ele>226.047119140625</ele>
        <time>2011-04-16T18:00:08Z</time>
      </trkpt>
      <trkpt lat="35.054044844582677" lon="-4.011811623349786">
        <ele>225.0859375</ele>
        <time>2011-04-16T18:00:11Z</time>
      </trkpt>
      <trkpt lat="35.054271658882499" lon="-4.011781364679337">
        <ele>223.643798828125</ele>
        <time>2011-04-16T18:00:19Z</time>
      </trkpt>
      <trkpt lat="35.05440074019134" lon="-4.01176443323493">
        <ele>223.643798828125</ele>
        <time>2011-04-16T18:00:22Z</time>
      </trkpt>
      <trkpt lat="35.054763676598668" lon="-4.01185336522758">
        <ele>222.6824951171875</ele>
        <time>2011-04-16T18:00:29Z</time>
      </trkpt>
      <trkpt lat="35.054825451225042" lon="-4.011716321110725">
        <ele>222.6824951171875</ele>
        <time>2011-04-16T18:00:33Z</time>
      </trkpt>
      <trkpt lat="35.054893596097827" lon="-4.011146519333124">
        <ele>224.605224609375</ele>
        <time>2011-04-16T18:00:41Z</time>
      </trkpt>
      <trkpt lat="35.054714642465115" lon="-4.01064544916153">
        <ele>227.008544921875</ele>
        <time>2011-04-16T18:00:48Z</time>
      </trkpt>
      <trkpt lat="35.05457173101604" lon="-4.010510751977563">
        <ele>227.9697265625</ele>
        <time>2011-04-16T18:00:50Z</time>
      </trkpt>
      <trkpt lat="35.054354555904865" lon="-4.010343449190259">
        <ele>229.4117431640625</ele>
        <time>2011-04-16T18:00:53Z</time>
      </trkpt>
      <trkpt lat="35.054231090471148" lon="-4.010260049253702">
        <ele>230.373046875</ele>
        <time>2011-04-16T18:00:55Z</time>
      </trkpt>
      <trkpt lat="35.053610494360328" lon="-4.009747160598636">
        <ele>236.1409912109375</ele>
        <time>2011-04-16T18:01:03Z</time>
      </trkpt>
      <trkpt lat="35.053392397239804" lon="-4.009524956345558">
        <ele>238.5443115234375</ele>
        <time>2011-04-16T18:01:06Z</time>
      </trkpt>
      <trkpt lat="35.053096767514944" lon="-4.008742673322558">
        <ele>245.2734375</ele>
        <time>2011-04-16T18:01:13Z</time>
      </trkpt>
      <trkpt lat="35.053194081410766" lon="-4.008290972560644">
        <ele>248.63818359375</ele>
        <time>2011-04-16T18:01:17Z</time>
      </trkpt>
      <trkpt lat="35.053270272910595" lon="-4.008212517946959">
        <ele>249.1187744140625</ele>
        <time>2011-04-16T18:01:18Z</time>
      </trkpt>
      <trkpt lat="35.053757764399052" lon="-4.007661575451493">
        <ele>254.406005859375</ele>
        <time>2011-04-16T18:01:24Z</time>
      </trkpt>
      <trkpt lat="35.053928168490529" lon="-4.007169222459197">
        <ele>259.212646484375</ele>
        <time>2011-04-16T18:01:28Z</time>
      </trkpt>
      <trkpt lat="35.053961528465152" lon="-4.00690745562315">
        <ele>261.13525390625</ele>
        <time>2011-04-16T18:01:30Z</time>
      </trkpt>
      <trkpt lat="35.054163448512554" lon="-4.006512248888612">
        <ele>264.9805908203125</ele>
        <time>2011-04-16T18:01:34Z</time>
      </trkpt>
      <trkpt lat="35.054251123219728" lon="-4.006024422124028">
        <ele>269.3065185546875</ele>
        <time>2011-04-16T18:01:40Z</time>
      </trkpt>
      <trkpt lat="35.054191024973989" lon="-4.005801295861602">
        <ele>270.7484130859375</ele>
        <time>2011-04-16T18:01:43Z</time>
      </trkpt>
      <trkpt lat="35.054020453244448" lon="-4.005577163770795">
        <ele>273.15185546875</ele>
        <time>2011-04-16T18:01:47Z</time>
      </trkpt>
      <trkpt lat="35.053885336965322" lon="-4.005479598417878">
        <ele>274.59375</ele>
        <time>2011-04-16T18:01:49Z</time>
      </trkpt>
      <trkpt lat="35.053786933422089" lon="-4.005060754716396">
        <ele>279.4002685546875</ele>
        <time>2011-04-16T18:01:54Z</time>
      </trkpt>
      <trkpt lat="35.053850552067161" lon="-4.004508135840297">
        <ele>285.168212890625</ele>
        <time>2011-04-16T18:01:59Z</time>
      </trkpt>
      <trkpt lat="35.053932359442115" lon="-4.003912685438991">
        <ele>289.0135498046875</ele>
        <time>2011-04-16T18:02:05Z</time>
      </trkpt>
      <trkpt lat="35.05384954623878" lon="-4.003732977434993">
        <ele>289.974853515625</ele>
        <time>2011-04-16T18:02:07Z</time>
      </trkpt>
      <trkpt lat="35.05378995090723" lon="-4.003146830946207">
        <ele>294.30078125</ele>
        <time>2011-04-16T18:02:13Z</time>
      </trkpt>
      <trkpt lat="35.054041156545281" lon="-4.003037363290787">
        <ele>295.261962890625</ele>
        <time>2011-04-16T18:02:16Z</time>
      </trkpt>
      <trkpt lat="35.054268976673484" lon="-4.002723293378949">
        <ele>298.1461181640625</ele>
        <time>2011-04-16T18:02:22Z</time>
      </trkpt>
      <trkpt lat="35.054117180407047" lon="-4.002451216802001">
        <ele>299.1072998046875</ele>
        <time>2011-04-16T18:02:25Z</time>
      </trkpt>
      <trkpt lat="35.054060351103544" lon="-4.001913936808705">
        <ele>300.0687255859375</ele>
        <time>2011-04-16T18:02:30Z</time>
      </trkpt>
      <trkpt lat="35.054287416860461" lon="-4.001700198277831">
        <ele>301.9913330078125</ele>
        <time>2011-04-16T18:02:33Z</time>
      </trkpt>
      <trkpt lat="35.054530575871468" lon="-4.001249168068171">
        <ele>304.875244140625</ele>
        <time>2011-04-16T18:02:39Z</time>
      </trkpt>
      <trkpt lat="35.054607773199677" lon="-4.000603761523962">
        <ele>308.720458984375</ele>
        <time>2011-04-16T18:02:45Z</time>
      </trkpt>
      <trkpt lat="35.055078836157918" lon="-4.000311652198434">
        <ele>313.5272216796875</ele>
        <time>2011-04-16T18:02:50Z</time>
      </trkpt>
      <trkpt lat="35.055459039285779" lon="-3.99993714876473">
        <ele>317.3724365234375</ele>
        <time>2011-04-16T18:02:56Z</time>
      </trkpt>
      <trkpt lat="35.055311769247055" lon="-3.999629784375429">
        <ele>318.8143310546875</ele>
        <time>2011-04-16T18:02:59Z</time>
      </trkpt>
      <trkpt lat="35.054787565022707" lon="-3.998892931267619">
        <ele>324.582275390625</ele>
        <time>2011-04-16T18:03:06Z</time>
      </trkpt>
      <trkpt lat="35.054535521194339" lon="-3.998089525848627">
        <ele>330.8309326171875</ele>
        <time>2011-04-16T18:03:12Z</time>
      </trkpt>
      <trkpt lat="35.054559158161283" lon="-3.997552245855331">
        <ele>336.1181640625</ele>
        <time>2011-04-16T18:03:16Z</time>
      </trkpt>
      <trkpt lat="35.054968949407339" lon="-3.99673325009644">
        <ele>345.7313232421875</ele>
        <time>2011-04-16T18:03:23Z</time>
      </trkpt>
      <trkpt lat="35.055066766217351" lon="-3.996077533811331">
        <ele>351.4991455078125</ele>
        <time>2011-04-16T18:03:28Z</time>
      </trkpt>
      <trkpt lat="35.054989736527205" lon="-3.995806043967605">
        <ele>352.4605712890625</ele>
        <time>2011-04-16T18:03:30Z</time>
      </trkpt>
      <trkpt lat="35.055153267458081" lon="-3.995202295482159">
        <ele>353.902587890625</ele>
        <time>2011-04-16T18:03:35Z</time>
      </trkpt>
      <trkpt lat="35.055247060954571" lon="-3.995103137567639">
        <ele>353.421875</ele>
        <time>2011-04-16T18:03:36Z</time>
      </trkpt>
      <trkpt lat="35.055422829464078" lon="-3.99491504766047">
        <ele>352.4605712890625</ele>
        <time>2011-04-16T18:03:38Z</time>
      </trkpt>
      <trkpt lat="35.055477898567915" lon="-3.994376175105572">
        <ele>349.0958251953125</ele>
        <time>2011-04-16T18:03:43Z</time>
      </trkpt>
      <trkpt lat="35.055325096473098" lon="-3.994191940873861">
        <ele>349.0958251953125</ele>
        <time>2011-04-16T18:03:45Z</time>
      </trkpt>
      <trkpt lat="35.054745320230722" lon="-3.993536895141006">
        <ele>355.8251953125</ele>
        <time>2011-04-16T18:03:52Z</time>
      </trkpt>
      <trkpt lat="35.054660076275468" lon="-3.992973798885942">
        <ele>359.67041015625</ele>
        <time>2011-04-16T18:03:57Z</time>
      </trkpt>
      <trkpt lat="35.054824277758598" lon="-3.992115324363112">
        <ele>366.3995361328125</ele>
        <time>2011-04-16T18:04:03Z</time>
      </trkpt>
      <trkpt lat="35.055339764803648" lon="-3.99112232029438">
        <ele>375.051513671875</ele>
        <time>2011-04-16T18:04:10Z</time>
      </trkpt>
      <trkpt lat="35.056158090010285" lon="-3.990095285698772">
        <ele>385.1453857421875</ele>
        <time>2011-04-16T18:04:19Z</time>
      </trkpt>
      <trkpt lat="35.056248027831316" lon="-3.990009287372232">
        <ele>386.106689453125</ele>
        <time>2011-04-16T18:04:20Z</time>
      </trkpt>
      <trkpt lat="35.056457156315446" lon="-3.989542163908482">
        <ele>388.029296875</ele>
        <time>2011-04-16T18:04:24Z</time>
      </trkpt>
      <trkpt lat="35.056525636464357" lon="-3.98912969045341">
        <ele>389.951904296875</ele>
        <time>2011-04-16T18:04:27Z</time>
      </trkpt>
      <trkpt lat="35.056422371417284" lon="-3.988488977774978">
        <ele>392.8359375</ele>
        <time>2011-04-16T18:04:32Z</time>
      </trkpt>
      <trkpt lat="35.055761123076081" lon="-3.987316349521279">
        <ele>399.5650634765625</ele>
        <time>2011-04-16T18:04:42Z</time>
      </trkpt>
      <trkpt lat="35.055639585480094" lon="-3.986344719305635">
        <ele>400.0458984375</ele>
        <time>2011-04-16T18:04:49Z</time>
      </trkpt>
      <trkpt lat="35.055894646793604" lon="-3.985662516206503">
        <ele>396.2005615234375</ele>
        <time>2011-04-16T18:04:54Z</time>
      </trkpt>
      <trkpt lat="35.056071169674397" lon="-3.985413238406181">
        <ele>394.2779541015625</ele>
        <time>2011-04-16T18:04:56Z</time>
      </trkpt>
      <trkpt lat="35.056784050539136" lon="-3.984558787196875">
        <ele>387.0679931640625</ele>
        <time>2011-04-16T18:05:05Z</time>
      </trkpt>
      <trkpt lat="35.057420572265983" lon="-3.983777090907097">
        <ele>381.300048828125</ele>
        <time>2011-04-16T18:05:12Z</time>
      </trkpt>
      <trkpt lat="35.058727227151394" lon="-3.982371194288135">
        <ele>372.16748046875</ele>
        <time>2011-04-16T18:05:23Z</time>
      </trkpt>
      <trkpt lat="35.059932293370366" lon="-3.98125003091991">
        <ele>368.322265625</ele>
        <time>2011-04-16T18:05:32Z</time>
      </trkpt>
      <trkpt lat="35.061314217746258" lon="-3.980244286358357">
        <ele>369.28369140625</ele>
        <time>2011-04-16T18:05:42Z</time>
      </trkpt>
      <trkpt lat="35.062590530142188" lon="-3.979215491563082">
        <ele>366.8802490234375</ele>
        <time>2011-04-16T18:05:53Z</time>
      </trkpt>
      <trkpt lat="35.063331071287394" lon="-3.978402530774474">
        <ele>365.9189453125</ele>
        <time>2011-04-16T18:06:01Z</time>
      </trkpt>
      <trkpt lat="35.06360943429172" lon="-3.978016460314393">
        <ele>365.4383544921875</ele>
        <time>2011-04-16T18:06:05Z</time>
      </trkpt>
      <trkpt lat="35.064022494480014" lon="-3.976746266707778">
        <ele>363.996337890625</ele>
        <time>2011-04-16T18:06:15Z</time>
      </trkpt>
      <trkpt lat="35.064361458644271" lon="-3.975347327068448">
        <ele>366.3995361328125</ele>
        <time>2011-04-16T18:06:24Z</time>
      </trkpt>
      <trkpt lat="35.064537227153778" lon="-3.974799234420061">
        <ele>368.322265625</ele>
        <time>2011-04-16T18:06:28Z</time>
      </trkpt>
      <trkpt lat="35.064922878518701" lon="-3.974257679656148">
        <ele>370.244873046875</ele>
        <time>2011-04-16T18:06:33Z</time>
      </trkpt>
      <trkpt lat="35.065723685547709" lon="-3.973579248413444">
        <ele>368.802978515625</ele>
        <time>2011-04-16T18:06:41Z</time>
      </trkpt>
      <trkpt lat="35.066469591110945" lon="-3.97296242415905">
        <ele>365.9189453125</ele>
        <time>2011-04-16T18:06:49Z</time>
      </trkpt>
      <trkpt lat="35.067708436399698" lon="-3.971917787566781">
        <ele>360.6317138671875</ele>
        <time>2011-04-16T18:07:00Z</time>
      </trkpt>
      <trkpt lat="35.068706134334207" lon="-3.971041543409228">
        <ele>354.86376953125</ele>
        <time>2011-04-16T18:07:09Z</time>
      </trkpt>
      <trkpt lat="35.070047657936811" lon="-3.969835722818971">
        <ele>341.4052734375</ele>
        <time>2011-04-16T18:07:21Z</time>
      </trkpt>
      <trkpt lat="35.07059876807034" lon="-3.968935338780284">
        <ele>333.7147216796875</ele>
        <time>2011-04-16T18:07:27Z</time>
      </trkpt>
      <trkpt lat="35.071145854890347" lon="-3.96750689484179">
        <ele>322.65966796875</ele>
        <time>2011-04-16T18:07:35Z</time>
      </trkpt>
      <trkpt lat="35.071269823238254" lon="-3.966140644624829">
        <ele>312.5657958984375</ele>
        <time>2011-04-16T18:07:42Z</time>
      </trkpt>
      <trkpt lat="35.071445591747761" lon="-3.965133391320705">
        <ele>304.3946533203125</ele>
        <time>2011-04-16T18:07:48Z</time>
      </trkpt>
      <trkpt lat="35.071519436314702" lon="-3.96488637663424">
        <ele>302.471923828125</ele>
        <time>2011-04-16T18:07:50Z</time>
      </trkpt>
      <trkpt lat="35.071885893121362" lon="-3.96441045217216">
        <ele>296.2235107421875</ele>
        <time>2011-04-16T18:07:56Z</time>
      </trkpt>
      <trkpt lat="35.07256843149662" lon="-3.963979622349143">
        <ele>291.416748046875</ele>
        <time>2011-04-16T18:08:04Z</time>
      </trkpt>
      <trkpt lat="35.072849225252867" lon="-3.963432786986232">
        <ele>287.5714111328125</ele>
        <time>2011-04-16T18:08:10Z</time>
      </trkpt>
      <trkpt lat="35.072811674326658" lon="-3.963070521131158">
        <ele>284.6876220703125</ele>
        <time>2011-04-16T18:08:14Z</time>
      </trkpt>
      <trkpt lat="35.072738751769066" lon="-3.962618736550212">
        <ele>283.7261962890625</ele>
        <time>2011-04-16T18:08:21Z</time>
      </trkpt>
      <trkpt lat="35.07284302264452" lon="-3.962289830669761">
        <ele>286.1295166015625</ele>
        <time>2011-04-16T18:08:27Z</time>
      </trkpt>
      <trkpt lat="35.073310565203428" lon="-3.961812816560268">
        <ele>291.8974609375</ele>
        <time>2011-04-16T18:08:36Z</time>
      </trkpt>
      <trkpt lat="35.073545845225453" lon="-3.961529927328229">
        <ele>294.30078125</ele>
        <time>2011-04-16T18:08:43Z</time>
      </trkpt>
      <trkpt lat="35.073597561568022" lon="-3.961373856291175">
        <ele>294.7813720703125</ele>
        <time>2011-04-16T18:08:49Z</time>
      </trkpt>
      <trkpt lat="35.073598483577371" lon="-3.961074454709888">
        <ele>294.30078125</ele>
        <time>2011-04-16T18:08:56Z</time>
      </trkpt>
      <trkpt lat="35.073505863547325" lon="-3.960466096177697">
        <ele>287.5714111328125</ele>
        <time>2011-04-16T18:09:07Z</time>
      </trkpt>
      <trkpt lat="35.073516257107258" lon="-3.960071057081223">
        <ele>289.0135498046875</ele>
        <time>2011-04-16T18:09:13Z</time>
      </trkpt>
      <trkpt lat="35.073771066963673" lon="-3.959782719612122">
        <ele>290.45556640625</ele>
        <time>2011-04-16T18:09:19Z</time>
      </trkpt>
      <trkpt lat="35.074145821854472" lon="-3.959679873660207">
        <ele>292.8587646484375</ele>
        <time>2011-04-16T18:09:23Z</time>
      </trkpt>
      <trkpt lat="35.074629290029407" lon="-3.959322888404131">
        <ele>297.6654052734375</ele>
        <time>2011-04-16T18:09:28Z</time>
      </trkpt>
      <trkpt lat="35.075561190024018" lon="-3.958136178553104">
        <ele>298.626708984375</ele>
        <time>2011-04-16T18:09:40Z</time>
      </trkpt>
      <trkpt lat="35.076147839426994" lon="-3.957441821694374">
        <ele>293.33935546875</ele>
        <time>2011-04-16T18:09:48Z</time>
      </trkpt>
      <trkpt lat="35.076386639848351" lon="-3.957064636051655">
        <ele>291.8974609375</ele>
        <time>2011-04-16T18:09:54Z</time>
      </trkpt>
      <trkpt lat="35.076918723061681" lon="-3.956192834302783">
        <ele>291.416748046875</ele>
        <time>2011-04-16T18:10:02Z</time>
      </trkpt>
      <trkpt lat="35.077074123546481" lon="-3.955870885401964">
        <ele>290.9361572265625</ele>
        <time>2011-04-16T18:10:05Z</time>
      </trkpt>
      <trkpt lat="35.077057024464011" lon="-3.955154567956924">
        <ele>287.5714111328125</ele>
        <time>2011-04-16T18:10:11Z</time>
      </trkpt>
      <trkpt lat="35.077012097463012" lon="-3.955032443627715">
        <ele>286.6102294921875</ele>
        <time>2011-04-16T18:10:12Z</time>
      </trkpt>
      <trkpt lat="35.0768624804914" lon="-3.954671435058117">
        <ele>283.7261962890625</ele>
        <time>2011-04-16T18:10:15Z</time>
      </trkpt>
      <trkpt lat="35.076828533783555" lon="-3.954055281355977">
        <ele>279.4002685546875</ele>
        <time>2011-04-16T18:10:20Z</time>
      </trkpt>
      <trkpt lat="35.076992148533463" lon="-3.953796364367008">
        <ele>277.958251953125</ele>
        <time>2011-04-16T18:10:23Z</time>
      </trkpt>
      <trkpt lat="35.077185686677694" lon="-3.953605927526951">
        <ele>277.958251953125</ele>
        <time>2011-04-16T18:10:26Z</time>
      </trkpt>
      <trkpt lat="35.077316025272012" lon="-3.953150790184736">
        <ele>279.880859375</ele>
        <time>2011-04-16T18:10:31Z</time>
      </trkpt>
      <trkpt lat="35.077231619507074" lon="-3.952929759398103">
        <ele>280.8424072265625</ele>
        <time>2011-04-16T18:10:33Z</time>
      </trkpt>
      <trkpt lat="35.076588056981564" lon="-3.951804069802165">
        <ele>285.168212890625</ele>
        <time>2011-04-16T18:10:42Z</time>
      </trkpt>
      <trkpt lat="35.076056057587266" lon="-3.951084148138762">
        <ele>286.1295166015625</ele>
        <time>2011-04-16T18:10:48Z</time>
      </trkpt>
      <trkpt lat="35.075826896354556" lon="-3.95053144544363">
        <ele>287.0908203125</ele>
        <time>2011-04-16T18:10:52Z</time>
      </trkpt>
      <trkpt lat="35.075517520308495" lon="-3.948958832770586">
        <ele>287.5714111328125</ele>
        <time>2011-04-16T18:11:01Z</time>
      </trkpt>
      <trkpt lat="35.075019132345915" lon="-3.947574980556965">
        <ele>287.5714111328125</ele>
        <time>2011-04-16T18:11:09Z</time>
      </trkpt>
      <trkpt lat="35.074801035225391" lon="-3.946702424436808">
        <ele>289.494140625</ele>
        <time>2011-04-16T18:11:14Z</time>
      </trkpt>
      <trkpt lat="35.074940593913198" lon="-3.945546559989452">
        <ele>295.74267578125</ele>
        <time>2011-04-16T18:11:21Z</time>
      </trkpt>
      <trkpt lat="35.075275199487805" lon="-3.944046786054969">
        <ele>301.5106201171875</ele>
        <time>2011-04-16T18:11:30Z</time>
      </trkpt>
      <trkpt lat="35.075354492291808" lon="-3.943527862429619">
        <ele>304.875244140625</ele>
        <time>2011-04-16T18:11:33Z</time>
      </trkpt>
      <trkpt lat="35.075655234977603" lon="-3.942761169746518">
        <ele>309.201171875</ele>
        <time>2011-04-16T18:11:38Z</time>
      </trkpt>
      <trkpt lat="35.076623763889074" lon="-3.941086465492845">
        <ele>323.6209716796875</ele>
        <time>2011-04-16T18:11:49Z</time>
      </trkpt>
      <trkpt lat="35.077171185985208" lon="-3.939820798113942">
        <ele>333.7147216796875</ele>
        <time>2011-04-16T18:11:57Z</time>
      </trkpt>
      <trkpt lat="35.077876690775156" lon="-3.938960731029511">
        <ele>337.0794677734375</ele>
        <time>2011-04-16T18:12:04Z</time>
      </trkpt>
      <trkpt lat="35.078355632722378" lon="-3.938011564314365">
        <ele>337.56005859375</ele>
        <time>2011-04-16T18:12:11Z</time>
      </trkpt>
      <trkpt lat="35.078811524435878" lon="-3.936881348490715">
        <ele>338.040771484375</ele>
        <time>2011-04-16T18:12:19Z</time>
      </trkpt>
      <trkpt lat="35.079664466902614" lon="-3.935250649228692">
        <ele>342.36669921875</ele>
        <time>2011-04-16T18:12:31Z</time>
      </trkpt>
      <trkpt lat="35.080201076343656" lon="-3.934055976569653">
        <ele>346.2120361328125</ele>
        <time>2011-04-16T18:12:39Z</time>
      </trkpt>
      <trkpt lat="35.080540124326944" lon="-3.932338943704963">
        <ele>351.9798583984375</ele>
        <time>2011-04-16T18:12:48Z</time>
      </trkpt>
      <trkpt lat="35.081047732383013" lon="-3.930436670780182">
        <ele>363.0350341796875</ele>
        <time>2011-04-16T18:12:58Z</time>
      </trkpt>
      <trkpt lat="35.081574032083154" lon="-3.929136469960213">
        <ele>366.3995361328125</ele>
        <time>2011-04-16T18:13:06Z</time>
      </trkpt>
      <trkpt lat="35.0821000803262" lon="-3.928582258522511">
        <ele>366.3995361328125</ele>
        <time>2011-04-16T18:13:11Z</time>
      </trkpt>
      <trkpt lat="35.083510419353843" lon="-3.92778723500669">
        <ele>365.9189453125</ele>
        <time>2011-04-16T18:13:20Z</time>
      </trkpt>
      <trkpt lat="35.085126282647252" lon="-3.926876960322261">
        <ele>367.3609619140625</ele>
        <time>2011-04-16T18:13:30Z</time>
      </trkpt>
      <trkpt lat="35.085279671475291" lon="-3.926832536235452">
        <ele>366.8802490234375</ele>
        <time>2011-04-16T18:13:31Z</time>
      </trkpt>
      <trkpt lat="35.085993139073253" lon="-3.926798673346639">
        <ele>365.9189453125</ele>
        <time>2011-04-16T18:13:36Z</time>
      </trkpt>
      <trkpt lat="35.086517594754696" lon="-3.926485190168023">
        <ele>364.4769287109375</ele>
        <time>2011-04-16T18:13:41Z</time>
      </trkpt>
      <trkpt lat="35.086706019937992" lon="-3.926273295655847">
        <ele>363.996337890625</ele>
        <time>2011-04-16T18:13:43Z</time>
      </trkpt>
      <trkpt lat="35.087357126176357" lon="-3.925994597375393">
        <ele>362.5543212890625</ele>
        <time>2011-04-16T18:13:48Z</time>
      </trkpt>
      <trkpt lat="35.087819723412395" lon="-3.925985880196095">
        <ele>361.5931396484375</ele>
        <time>2011-04-16T18:13:51Z</time>
      </trkpt>
      <trkpt lat="35.088510559871793" lon="-3.926221076399088">
        <ele>359.67041015625</ele>
        <time>2011-04-16T18:13:56Z</time>
      </trkpt>
      <trkpt lat="35.089016491547227" lon="-3.926784675568342">
        <ele>355.344482421875</ele>
        <time>2011-04-16T18:14:02Z</time>
      </trkpt>
      <trkpt lat="35.089063933119178" lon="-3.926914930343628">
        <ele>354.3831787109375</ele>
        <time>2011-04-16T18:14:03Z</time>
      </trkpt>
      <trkpt lat="35.089198378846049" lon="-3.927327319979668">
        <ele>351.0184326171875</ele>
        <time>2011-04-16T18:14:06Z</time>
      </trkpt>
      <trkpt lat="35.089533738791943" lon="-3.927798550575972">
        <ele>345.7313232421875</ele>
        <time>2011-04-16T18:14:10Z</time>
      </trkpt>
      <trkpt lat="35.0903803948313" lon="-3.928640261292458">
        <ele>334.6761474609375</ele>
        <time>2011-04-16T18:14:18Z</time>
      </trkpt>
      <trkpt lat="35.090900240465999" lon="-3.928824746981263">
        <ele>330.3502197265625</ele>
        <time>2011-04-16T18:14:23Z</time>
      </trkpt>
      <trkpt lat="35.091254040598869" lon="-3.928726678714156">
        <ele>328.4276123046875</ele>
        <time>2011-04-16T18:14:26Z</time>
      </trkpt>
      <trkpt lat="35.092077478766441" lon="-3.928743693977594">
        <ele>321.2177734375</ele>
        <time>2011-04-16T18:14:32Z</time>
      </trkpt>
      <trkpt lat="35.093138376250863" lon="-3.928887443616986">
        <ele>311.6044921875</ele>
        <time>2011-04-16T18:14:39Z</time>
      </trkpt>
      <trkpt lat="35.093732066452503" lon="-3.928627772256732">
        <ele>304.875244140625</ele>
        <time>2011-04-16T18:14:44Z</time>
      </trkpt>
      <trkpt lat="35.093833822757006" lon="-3.928511096164584">
        <ele>303.4332275390625</ele>
        <time>2011-04-16T18:14:45Z</time>
      </trkpt>
      <trkpt lat="35.094861863180995" lon="-3.927137721329927">
        <ele>285.168212890625</ele>
        <time>2011-04-16T18:14:55Z</time>
      </trkpt>
      <trkpt lat="35.095171323046088" lon="-3.92620506696403">
        <ele>274.113037109375</ele>
        <time>2011-04-16T18:15:00Z</time>
      </trkpt>
      <trkpt lat="35.095300823450089" lon="-3.924602530896664">
        <ele>259.693359375</ele>
        <time>2011-04-16T18:15:07Z</time>
      </trkpt>
      <trkpt lat="35.095393443480134" lon="-3.923327391967177">
        <ele>252.0028076171875</ele>
        <time>2011-04-16T18:15:13Z</time>
      </trkpt>
      <trkpt lat="35.095848077908158" lon="-3.922200864180923">
        <ele>245.2734375</ele>
        <time>2011-04-16T18:15:20Z</time>
      </trkpt>
      <trkpt lat="35.096033066511154" lon="-3.92192074097693">
        <ele>243.350830078125</ele>
        <time>2011-04-16T18:15:22Z</time>
      </trkpt>
      <trkpt lat="35.096629438921809" lon="-3.921487899497151">
        <ele>237.5828857421875</ele>
        <time>2011-04-16T18:15:27Z</time>
      </trkpt>
      <trkpt lat="35.097175352275372" lon="-3.921306682750583">
        <ele>232.7764892578125</ele>
        <time>2011-04-16T18:15:31Z</time>
      </trkpt>
      <trkpt lat="35.097978673875332" lon="-3.92139988951385">
        <ele>227.4891357421875</ele>
        <time>2011-04-16T18:15:37Z</time>
      </trkpt>
      <trkpt lat="35.098694320768118" lon="-3.921536933630705">
        <ele>229.4117431640625</ele>
        <time>2011-04-16T18:15:42Z</time>
      </trkpt>
      <trkpt lat="35.099316174164414" lon="-3.921271897852421">
        <ele>234.6990966796875</ele>
        <time>2011-04-16T18:15:48Z</time>
      </trkpt>
      <trkpt lat="35.099600991234183" lon="-3.920684074983001">
        <ele>238.5443115234375</ele>
        <time>2011-04-16T18:15:53Z</time>
      </trkpt>
      <trkpt lat="35.099618341773748" lon="-3.920235224068165">
        <ele>241.42822265625</ele>
        <time>2011-04-16T18:15:56Z</time>
      </trkpt>
      <trkpt lat="35.099447434768081" lon="-3.918465217575431">
        <ele>251.5220947265625</ele>
        <time>2011-04-16T18:16:06Z</time>
      </trkpt>
      <trkpt lat="35.099255153909326" lon="-3.916696133092046">
        <ele>249.1187744140625</ele>
        <time>2011-04-16T18:16:16Z</time>
      </trkpt>
      <trkpt lat="35.099249286577106" lon="-3.916558753699064">
        <ele>249.1187744140625</ele>
        <time>2011-04-16T18:16:17Z</time>
      </trkpt>
      <trkpt lat="35.099453050643206" lon="-3.915919465944171">
        <ele>247.6767578125</ele>
        <time>2011-04-16T18:16:22Z</time>
      </trkpt>
      <trkpt lat="35.099654719233513" lon="-3.915722072124481">
        <ele>247.196044921875</ele>
        <time>2011-04-16T18:16:24Z</time>
      </trkpt>
      <trkpt lat="35.099875833839178" lon="-3.915547896176577">
        <ele>247.196044921875</ele>
        <time>2011-04-16T18:16:26Z</time>
      </trkpt>
      <trkpt lat="35.100158471614122" lon="-3.915042299777269">
        <ele>250.0802001953125</ele>
        <time>2011-04-16T18:16:30Z</time>
      </trkpt>
      <trkpt lat="35.100580919533968" lon="-3.913164921104908">
        <ele>262.0965576171875</ele>
        <time>2011-04-16T18:16:41Z</time>
      </trkpt>
      <trkpt lat="35.100712850689888" lon="-3.911882992833853">
        <ele>268.8258056640625</ele>
        <time>2011-04-16T18:16:48Z</time>
      </trkpt>
      <trkpt lat="35.100814774632454" lon="-3.910878673195839">
        <ele>272.671142578125</ele>
        <time>2011-04-16T18:16:55Z</time>
      </trkpt>
      <trkpt lat="35.101105291396379" lon="-3.909986251965165">
        <ele>275.074462890625</ele>
        <time>2011-04-16T18:17:02Z</time>
      </trkpt>
      <trkpt lat="35.101633938029408" lon="-3.909375965595245">
        <ele>271.2291259765625</ele>
        <time>2011-04-16T18:17:08Z</time>
      </trkpt>
      <trkpt lat="35.102007938548923" lon="-3.909257696941495">
        <ele>266.9031982421875</ele>
        <time>2011-04-16T18:17:11Z</time>
      </trkpt>
      <trkpt lat="35.102996835485101" lon="-3.909244956448674">
        <ele>254.406005859375</ele>
        <time>2011-04-16T18:17:19Z</time>
      </trkpt>
      <trkpt lat="35.104415724053979" lon="-3.90944947488606">
        <ele>239.9862060546875</ele>
        <time>2011-04-16T18:17:28Z</time>
      </trkpt>
      <trkpt lat="35.104684447869658" lon="-3.909482583403587">
        <ele>238.0635986328125</ele>
        <time>2011-04-16T18:17:30Z</time>
      </trkpt>
      <trkpt lat="35.105170262977481" lon="-3.909232132136822">
        <ele>234.6990966796875</ele>
        <time>2011-04-16T18:17:35Z</time>
      </trkpt>
      <trkpt lat="35.105812735855579" lon="-3.908335352316499">
        <ele>237.102294921875</ele>
        <time>2011-04-16T18:17:42Z</time>
      </trkpt>
      <trkpt lat="35.106019182130694" lon="-3.907784996554256">
        <ele>239.9862060546875</ele>
        <time>2011-04-16T18:17:46Z</time>
      </trkpt>
      <trkpt lat="35.106319254264235" lon="-3.906225040555">
        <ele>238.0635986328125</ele>
        <time>2011-04-16T18:17:56Z</time>
      </trkpt>
      <trkpt lat="35.106415562331676" lon="-3.905774261802435">
        <ele>234.2183837890625</ele>
        <time>2011-04-16T18:17:59Z</time>
      </trkpt>
      <trkpt lat="35.106807164847851" lon="-3.90506892465055">
        <ele>226.52783203125</ele>
        <time>2011-04-16T18:18:04Z</time>
      </trkpt>
      <trkpt lat="35.107765970751643" lon="-3.9038644451648">
        <ele>225.0859375</ele>
        <time>2011-04-16T18:18:13Z</time>
      </trkpt>
      <trkpt lat="35.108272572979331" lon="-3.902539182454348">
        <ele>227.9697265625</ele>
        <time>2011-04-16T18:18:21Z</time>
      </trkpt>
      <trkpt lat="35.108502740040421" lon="-3.902086224406958">
        <ele>229.892333984375</ele>
        <time>2011-04-16T18:18:24Z</time>
      </trkpt>
      <trkpt lat="35.108693428337574" lon="-3.901426317170262">
        <ele>231.81494140625</ele>
        <time>2011-04-16T18:18:28Z</time>
      </trkpt>
      <trkpt lat="35.108864586800337" lon="-3.899924028664827">
        <ele>234.2183837890625</ele>
        <time>2011-04-16T18:18:37Z</time>
      </trkpt>
      <trkpt lat="35.108988136053085" lon="-3.898787945508957">
        <ele>237.5828857421875</ele>
        <time>2011-04-16T18:18:46Z</time>
      </trkpt>
      <trkpt lat="35.108923595398664" lon="-3.897964423522353">
        <ele>235.6602783203125</ele>
        <time>2011-04-16T18:18:52Z</time>
      </trkpt>
      <trkpt lat="35.108867436647415" lon="-3.896452244371176">
        <ele>229.4117431640625</ele>
        <time>2011-04-16T18:19:01Z</time>
      </trkpt>
      <trkpt lat="35.108904233202338" lon="-3.894683076068759">
        <ele>219.3179931640625</ele>
        <time>2011-04-16T18:19:11Z</time>
      </trkpt>
      <trkpt lat="35.109139680862427" lon="-3.894067257642746">
        <ele>214.51123046875</ele>
        <time>2011-04-16T18:19:15Z</time>
      </trkpt>
      <trkpt lat="35.110141821205616" lon="-3.892381237819791">
        <ele>202.0142822265625</ele>
        <time>2011-04-16T18:19:26Z</time>
      </trkpt>
      <trkpt lat="35.110235447064042" lon="-3.892059540376067">
        <ele>200.0916748046875</ele>
        <time>2011-04-16T18:19:28Z</time>
      </trkpt>
      <trkpt lat="35.110221952199936" lon="-3.891269043087959">
        <ele>194.8043212890625</ele>
        <time>2011-04-16T18:19:33Z</time>
      </trkpt>
      <trkpt lat="35.110161770135164" lon="-3.890993362292647">
        <ele>192.401123046875</ele>
        <time>2011-04-16T18:19:35Z</time>
      </trkpt>
      <trkpt lat="35.110225137323141" lon="-3.890219461172819">
        <ele>187.11376953125</ele>
        <time>2011-04-16T18:19:41Z</time>
      </trkpt>
      <trkpt lat="35.110617745667696" lon="-3.889673966914415">
        <ele>181.3458251953125</ele>
        <time>2011-04-16T18:19:46Z</time>
      </trkpt>
      <trkpt lat="35.111007839441299" lon="-3.88952761888504">
        <ele>177.981201171875</ele>
        <time>2011-04-16T18:19:49Z</time>
      </trkpt>
      <trkpt lat="35.112124057486653" lon="-3.889171052724123">
        <ele>173.1746826171875</ele>
        <time>2011-04-16T18:19:57Z</time>
      </trkpt>
      <trkpt lat="35.113040031865239" lon="-3.88852053321898">
        <ele>169.3294677734375</ele>
        <time>2011-04-16T18:20:04Z</time>
      </trkpt>
      <trkpt lat="35.114117944613099" lon="-3.887395178899169">
        <ele>166.926025390625</ele>
        <time>2011-04-16T18:20:13Z</time>
      </trkpt>
      <trkpt lat="35.115272970870137" lon="-3.885904960334301">
        <ele>165.00341796875</ele>
        <time>2011-04-16T18:20:23Z</time>
      </trkpt>
      <trkpt lat="35.115915359929204" lon="-3.88524086214602">
        <ele>164.522705078125</ele>
        <time>2011-04-16T18:20:29Z</time>
      </trkpt>
      <trkpt lat="35.116459177806973" lon="-3.884601825848222">
        <ele>164.522705078125</ele>
        <time>2011-04-16T18:20:36Z</time>
      </trkpt>
      <trkpt lat="35.116785820573568" lon="-3.883790038526058">
        <ele>161.638916015625</ele>
        <time>2011-04-16T18:20:43Z</time>
      </trkpt>
      <trkpt lat="35.117145152762532" lon="-3.882695194333792">
        <ele>164.0421142578125</ele>
        <time>2011-04-16T18:20:52Z</time>
      </trkpt>
      <trkpt lat="35.11766248382628" lon="-3.881836133077741">
        <ele>171.732666015625</ele>
        <time>2011-04-16T18:20:59Z</time>
      </trkpt>
      <trkpt lat="35.118460776284337" lon="-3.880731565877795">
        <ele>179.90380859375</ele>
        <time>2011-04-16T18:21:08Z</time>
      </trkpt>
      <trkpt lat="35.119145242497325" lon="-3.879816681146622">
        <ele>180.865234375</ele>
        <time>2011-04-16T18:21:17Z</time>
      </trkpt>
      <trkpt lat="35.119934231042862" lon="-3.878772128373385">
        <ele>174.1358642578125</ele>
        <time>2011-04-16T18:21:26Z</time>
      </trkpt>
      <trkpt lat="35.120172780007124" lon="-3.878227137029171">
        <ele>168.8487548828125</ele>
        <time>2011-04-16T18:21:30Z</time>
      </trkpt>
      <trkpt lat="35.120259867981076" lon="-3.877048641443253">
        <ele>157.7935791015625</ele>
        <time>2011-04-16T18:21:37Z</time>
      </trkpt>
      <trkpt lat="35.120300017297268" lon="-3.876594342291355">
        <ele>153.9483642578125</ele>
        <time>2011-04-16T18:21:40Z</time>
      </trkpt>
      <trkpt lat="35.120673347264528" lon="-3.875682139769197">
        <ele>145.29638671875</ele>
        <time>2011-04-16T18:21:46Z</time>
      </trkpt>
      <trkpt lat="35.121537270024419" lon="-3.873858992010355">
        <ele>145.29638671875</ele>
        <time>2011-04-16T18:21:57Z</time>
      </trkpt>
      <trkpt lat="35.122146466746926" lon="-3.872558372095227">
        <ele>146.2578125</ele>
        <time>2011-04-16T18:22:06Z</time>
      </trkpt>
      <trkpt lat="35.122732194140553" lon="-3.870832538232207">
        <ele>139.5284423828125</ele>
        <time>2011-04-16T18:22:17Z</time>
      </trkpt>
      <trkpt lat="35.122830597683787" lon="-3.870540848001838">
        <ele>140.0091552734375</ele>
        <time>2011-04-16T18:22:19Z</time>
      </trkpt>
      <trkpt lat="35.123311299830675" lon="-3.869846742600203">
        <ele>140.970458984375</ele>
        <time>2011-04-16T18:22:25Z</time>
      </trkpt>
      <trkpt lat="35.124474791809916" lon="-3.868763968348503">
        <ele>135.2025146484375</ele>
        <time>2011-04-16T18:22:36Z</time>
      </trkpt>
      <trkpt lat="35.125940032303333" lon="-3.867632830515504">
        <ele>128.9541015625</ele>
        <time>2011-04-16T18:22:48Z</time>
      </trkpt>
      <trkpt lat="35.127128334715962" lon="-3.866943754255772">
        <ele>133.2799072265625</ele>
        <time>2011-04-16T18:22:57Z</time>
      </trkpt>
      <trkpt lat="35.127835348248482" lon="-3.866461543366313">
        <ele>134.721923828125</ele>
        <time>2011-04-16T18:23:04Z</time>
      </trkpt>
      <trkpt lat="35.128271458670497" lon="-3.866000035777688">
        <ele>132.79931640625</ele>
        <time>2011-04-16T18:23:11Z</time>
      </trkpt>
      <trkpt lat="35.128389727324247" lon="-3.865874223411083">
        <ele>131.837890625</ele>
        <time>2011-04-16T18:23:13Z</time>
      </trkpt>
      <trkpt lat="35.128624923527241" lon="-3.865447752177715">
        <ele>127.9925537109375</ele>
        <time>2011-04-16T18:23:18Z</time>
      </trkpt>
      <trkpt lat="35.128802536055446" lon="-3.865225380286574">
        <ele>127.511962890625</ele>
        <time>2011-04-16T18:23:21Z</time>
      </trkpt>
      <trkpt lat="35.12898157350719" lon="-3.864821456372738">
        <ele>126.5506591796875</ele>
        <time>2011-04-16T18:23:26Z</time>
      </trkpt>
      <trkpt lat="35.12915357016027" lon="-3.863877486437559">
        <ele>124.6280517578125</ele>
        <time>2011-04-16T18:23:34Z</time>
      </trkpt>
      <trkpt lat="35.12965246103704" lon="-3.863228559494019">
        <ele>123.666748046875</ele>
        <time>2011-04-16T18:23:41Z</time>
      </trkpt>
      <trkpt lat="35.129754217341542" lon="-3.863167455419898">
        <ele>123.666748046875</ele>
        <time>2011-04-16T18:23:42Z</time>
      </trkpt>
      <trkpt lat="35.131042851135135" lon="-3.862453233450651">
        <ele>119.8214111328125</ele>
        <time>2011-04-16T18:23:55Z</time>
      </trkpt>
      <trkpt lat="35.13213518075645" lon="-3.861704729497433">
        <ele>116.9375</ele>
        <time>2011-04-16T18:24:07Z</time>
      </trkpt>
      <trkpt lat="35.133570078760386" lon="-3.860872238874435">
        <ele>111.1695556640625</ele>
        <time>2011-04-16T18:24:22Z</time>
      </trkpt>
      <trkpt lat="35.134327299892902" lon="-3.860247367992997">
        <ele>109.2469482421875</ele>
        <time>2011-04-16T18:24:31Z</time>
      </trkpt>
      <trkpt lat="35.135159371420741" lon="-3.859449326992035">
        <ele>104.9210205078125</ele>
        <time>2011-04-16T18:24:42Z</time>
      </trkpt>
      <trkpt lat="35.13618154451251" lon="-3.858411898836494">
        <ele>98.6724853515625</ele>
        <time>2011-04-16T18:24:56Z</time>
      </trkpt>
      <trkpt lat="35.136754866689444" lon="-3.857840588316321">
        <ele>95.7884521484375</ele>
        <time>2011-04-16T18:25:05Z</time>
      </trkpt>
      <trkpt lat="35.137132555246353" lon="-3.857542527839541">
        <ele>96.7498779296875</ele>
        <time>2011-04-16T18:25:11Z</time>
      </trkpt>
      <trkpt lat="35.137388119474053" lon="-3.857445046305656">
        <ele>98.6724853515625</ele>
        <time>2011-04-16T18:25:15Z</time>
      </trkpt>
      <trkpt lat="35.138300489634275" lon="-3.857347732409835">
        <ele>100.114501953125</ele>
        <time>2011-04-16T18:25:27Z</time>
      </trkpt>
      <trkpt lat="35.138864256441593" lon="-3.857012540102005">
        <ele>97.23046875</ele>
        <time>2011-04-16T18:25:35Z</time>
      </trkpt>
      <trkpt lat="35.139450738206506" lon="-3.856356320902705">
        <ele>93.3851318359375</ele>
        <time>2011-04-16T18:25:45Z</time>
      </trkpt>
      <trkpt lat="35.139951640740037" lon="-3.855780735611916">
        <ele>91.9432373046875</ele>
        <time>2011-04-16T18:25:55Z</time>
      </trkpt>
      <trkpt lat="35.140370652079582" lon="-3.855260973796248">
        <ele>89.059326171875</ele>
        <time>2011-04-16T18:26:06Z</time>
      </trkpt>
      <trkpt lat="35.140826627612114" lon="-3.854774739593267">
        <ele>87.6171875</ele>
        <time>2011-04-16T18:26:17Z</time>
      </trkpt>
      <trkpt lat="35.141376396641135" lon="-3.854243159294128">
        <ele>86.17529296875</ele>
        <time>2011-04-16T18:26:28Z</time>
      </trkpt>
      <trkpt lat="35.141505394130945" lon="-3.854130757972598">
        <ele>86.656005859375</ele>
        <time>2011-04-16T18:26:32Z</time>
      </trkpt>
      <trkpt lat="35.141860619187355" lon="-3.853760361671448">
        <ele>86.656005859375</ele>
        <time>2011-04-16T18:26:40Z</time>
      </trkpt>
      <trkpt lat="35.142284743487835" lon="-3.853333052247763">
        <ele>84.7333984375</ele>
        <time>2011-04-16T18:26:50Z</time>
      </trkpt>
      <trkpt lat="35.142736192792654" lon="-3.852979419752955">
        <ele>83.77197265625</ele>
        <time>2011-04-16T18:26:59Z</time>
      </trkpt>
      <trkpt lat="35.142827974632382" lon="-3.85291513055563">
        <ele>83.77197265625</ele>
        <time>2011-04-16T18:27:01Z</time>
      </trkpt>
      <trkpt lat="35.143300630152225" lon="-3.852566359564662">
        <ele>82.810791015625</ele>
        <time>2011-04-16T18:27:10Z</time>
      </trkpt>
      <trkpt lat="35.143655855208635" lon="-3.852314064279199">
        <ele>82.810791015625</ele>
        <time>2011-04-16T18:27:19Z</time>
      </trkpt>
      <trkpt lat="35.143837155774236" lon="-3.852163441479206">
        <ele>81.3687744140625</ele>
        <time>2011-04-16T18:27:29Z</time>
      </trkpt>
      <trkpt lat="35.14425708912313" lon="-3.851834367960692">
        <ele>80.407470703125</ele>
        <time>2011-04-16T18:27:38Z</time>
      </trkpt>
      <trkpt lat="35.144743658602238" lon="-3.851368082687259">
        <ele>79.446044921875</ele>
        <time>2011-04-16T18:27:48Z</time>
      </trkpt>
      <trkpt lat="35.14521287754178" lon="-3.850892577320337">
        <ele>77.5234375</ele>
        <time>2011-04-16T18:27:59Z</time>
      </trkpt>
      <trkpt lat="35.14546156860888" lon="-3.850657381117344">
        <ele>78.4847412109375</ele>
        <time>2011-04-16T18:28:08Z</time>
      </trkpt>
      <trkpt lat="35.145634235814214" lon="-3.850530982017517">
        <ele>78.4847412109375</ele>
        <time>2011-04-16T18:28:12Z</time>
      </trkpt>
      <trkpt lat="35.14596339315176" lon="-3.850288828834891">
        <ele>79.446044921875</ele>
        <time>2011-04-16T18:28:20Z</time>
      </trkpt>
      <trkpt lat="35.146051738411188" lon="-3.850212972611189">
        <ele>78.9654541015625</ele>
        <time>2011-04-16T18:28:43Z</time>
      </trkpt>
      <trkpt lat="35.146238319575787" lon="-3.850032426416874">
        <ele>76.0814208984375</ele>
        <time>2011-04-16T18:28:57Z</time>
      </trkpt>
      <trkpt lat="35.146176042035222" lon="-3.849853556603193">
        <ele>74.1588134765625</ele>
        <time>2011-04-16T18:29:04Z</time>
      </trkpt>
      <trkpt lat="35.145858870819211" lon="-3.849462540820241">
        <ele>74.1588134765625</ele>
        <time>2011-04-16T18:29:13Z</time>
      </trkpt>
      <trkpt lat="35.145719228312373" lon="-3.849384756758809">
        <ele>71.7554931640625</ele>
        <time>2011-04-16T18:29:17Z</time>
      </trkpt>
      <trkpt lat="35.145539352670312" lon="-3.849355587735772">
        <ele>75.600830078125</ele>
        <time>2011-04-16T18:29:21Z</time>
      </trkpt>
      <trkpt lat="35.14473837800324" lon="-3.849483327940106">
        <ele>87.1365966796875</ele>
        <time>2011-04-16T18:29:31Z</time>
      </trkpt>
      <trkpt lat="35.14451852068305" lon="-3.849513335153461">
        <ele>88.0980224609375</ele>
        <time>2011-04-16T18:29:34Z</time>
      </trkpt>
      <trkpt lat="35.144237978383899" lon="-3.849433790892363">
        <ele>88.0980224609375</ele>
        <time>2011-04-16T18:29:39Z</time>
      </trkpt>
      <trkpt lat="35.143806142732501" lon="-3.848939929157496">
        <ele>90.98193359375</ele>
        <time>2011-04-16T18:29:50Z</time>
      </trkpt>
      <trkpt lat="35.143620986491442" lon="-3.84879064746201">
        <ele>82.810791015625</ele>
        <time>2011-04-16T18:30:00Z</time>
      </trkpt>
      <trkpt lat="35.143414624035358" lon="-3.848671624436975">
        <ele>81.3687744140625</ele>
        <time>2011-04-16T18:30:09Z</time>
      </trkpt>
      <trkpt lat="35.143256122246385" lon="-3.848583865910769">
        <ele>79.446044921875</ele>
        <time>2011-04-16T18:30:18Z</time>
      </trkpt>
      <trkpt lat="35.143038025125861" lon="-3.848512368276715">
        <ele>83.77197265625</ele>
        <time>2011-04-16T18:30:27Z</time>
      </trkpt>
      <trkpt lat="35.142824621871114" lon="-3.848435170948505">
        <ele>83.77197265625</ele>
        <time>2011-04-16T18:30:36Z</time>
      </trkpt>
      <trkpt lat="35.142194889485836" lon="-3.848279686644673">
        <ele>80.407470703125</ele>
        <time>2011-04-16T18:30:46Z</time>
      </trkpt>
      <trkpt lat="35.141424424946308" lon="-3.848158149048686">
        <ele>79.9266357421875</ele>
        <time>2011-04-16T18:30:54Z</time>
      </trkpt>
      <trkpt lat="35.140367969870567" lon="-3.847926389425993">
        <ele>79.9266357421875</ele>
        <time>2011-04-16T18:31:04Z</time>
      </trkpt>
      <trkpt lat="35.13944705016911" lon="-3.847752464935184">
        <ele>80.88818359375</ele>
        <time>2011-04-16T18:31:12Z</time>
      </trkpt>
      <trkpt lat="35.137702943757176" lon="-3.847381481900811">
        <ele>82.330078125</ele>
        <time>2011-04-16T18:31:26Z</time>
      </trkpt>
      <trkpt lat="35.136479269713163" lon="-3.847100771963596">
        <ele>83.2913818359375</ele>
        <time>2011-04-16T18:31:37Z</time>
      </trkpt>
      <trkpt lat="35.135083263739944" lon="-3.846789635717869">
        <ele>85.2139892578125</ele>
        <time>2011-04-16T18:31:49Z</time>
      </trkpt>
      <trkpt lat="35.133771579712629" lon="-3.846507919952273">
        <ele>85.2139892578125</ele>
        <time>2011-04-16T18:31:59Z</time>
      </trkpt>
      <trkpt lat="35.132501218467951" lon="-3.846225449815393">
        <ele>90.5013427734375</ele>
        <time>2011-04-16T18:32:09Z</time>
      </trkpt>
      <trkpt lat="35.131427580490708" lon="-3.846025289967656">
        <ele>92.904541015625</ele>
        <time>2011-04-16T18:32:19Z</time>
      </trkpt>
      <trkpt lat="35.129928728565574" lon="-3.84588765911758">
        <ele>91.9432373046875</ele>
        <time>2011-04-16T18:32:33Z</time>
      </trkpt>
      <trkpt lat="35.128566082566977" lon="-3.845741897821426">
        <ele>98.6724853515625</ele>
        <time>2011-04-16T18:32:45Z</time>
      </trkpt>
      <trkpt lat="35.126921972259879" lon="-3.84563066996634">
        <ele>88.5787353515625</ele>
        <time>2011-04-16T18:32:58Z</time>
      </trkpt>
      <trkpt lat="35.12553334236145" lon="-3.845504689961672">
        <ele>93.3851318359375</ele>
        <time>2011-04-16T18:33:09Z</time>
      </trkpt>
      <trkpt lat="35.124262645840645" lon="-3.845311319455504">
        <ele>99.153076171875</ele>
        <time>2011-04-16T18:33:20Z</time>
      </trkpt>
      <trkpt lat="35.123117761686444" lon="-3.844741266220808">
        <ele>104.4404296875</ele>
        <time>2011-04-16T18:33:29Z</time>
      </trkpt>
      <trkpt lat="35.121616562828422" lon="-3.843951439484954">
        <ele>114.0535888671875</ele>
        <time>2011-04-16T18:33:40Z</time>
      </trkpt>
      <trkpt lat="35.120433792471886" lon="-3.843346182256937">
        <ele>119.3408203125</ele>
        <time>2011-04-16T18:33:49Z</time>
      </trkpt>
      <trkpt lat="35.118889342993498" lon="-3.842549230903387">
        <ele>126.0699462890625</ele>
        <time>2011-04-16T18:34:02Z</time>
      </trkpt>
      <trkpt lat="35.117775555700064" lon="-3.842025361955166">
        <ele>130.39599609375</ele>
        <time>2011-04-16T18:34:12Z</time>
      </trkpt>
      <trkpt lat="35.116578871384263" lon="-3.841889575123787">
        <ele>127.9925537109375</ele>
        <time>2011-04-16T18:34:22Z</time>
      </trkpt>
      <trkpt lat="35.1148328371346" lon="-3.841774575412273">
        <ele>126.0699462890625</ele>
        <time>2011-04-16T18:34:36Z</time>
      </trkpt>
      <trkpt lat="35.113034667447209" lon="-3.8416488468647">
        <ele>114.0535888671875</ele>
        <time>2011-04-16T18:34:50Z</time>
      </trkpt>
      <trkpt lat="35.110854869708419" lon="-3.841517250984907">
        <ele>116.9375</ele>
        <time>2011-04-16T18:35:07Z</time>
      </trkpt>
      <trkpt lat="35.109335398301482" lon="-3.84139227680862">
        <ele>119.3408203125</ele>
        <time>2011-04-16T18:35:20Z</time>
      </trkpt>
      <trkpt lat="35.108522521331906" lon="-3.841294962912798">
        <ele>119.3408203125</ele>
        <time>2011-04-16T18:35:28Z</time>
      </trkpt>
      <trkpt lat="35.107442596927285" lon="-3.841239642351866">
        <ele>121.744140625</ele>
        <time>2011-04-16T18:35:37Z</time>
      </trkpt>
      <trkpt lat="35.106677077710629" lon="-3.841180969029665">
        <ele>122.7054443359375</ele>
        <time>2011-04-16T18:35:45Z</time>
      </trkpt>
      <trkpt lat="35.105609893798828" lon="-3.841087929904461">
        <ele>132.79931640625</ele>
        <time>2011-04-16T18:35:57Z</time>
      </trkpt>
      <trkpt lat="35.104748485609889" lon="-3.841008134186268">
        <ele>145.29638671875</ele>
        <time>2011-04-16T18:36:07Z</time>
      </trkpt>
      <trkpt lat="35.103774759918451" lon="-3.840926662087441">
        <ele>140.4898681640625</ele>
        <time>2011-04-16T18:36:18Z</time>
      </trkpt>
      <trkpt lat="35.103157265111804" lon="-3.8408821541816">
        <ele>137.125244140625</ele>
        <time>2011-04-16T18:36:27Z</time>
      </trkpt>
      <trkpt lat="35.103060454130173" lon="-3.840866731479764">
        <ele>132.79931640625</ele>
        <time>2011-04-16T18:36:33Z</time>
      </trkpt>
      <trkpt lat="35.102731799706817" lon="-3.840840328484774">
        <ele>130.39599609375</ele>
        <time>2011-04-16T18:36:39Z</time>
      </trkpt>
      <trkpt lat="35.102147245779634" lon="-3.840804118663073">
        <ele>128.9541015625</ele>
        <time>2011-04-16T18:36:49Z</time>
      </trkpt>
      <trkpt lat="35.101423384621739" lon="-3.84070135653019">
        <ele>128.473388671875</ele>
        <time>2011-04-16T18:37:00Z</time>
      </trkpt>
      <trkpt lat="35.10051503777504" lon="-3.840377144515514">
        <ele>128.9541015625</ele>
        <time>2011-04-16T18:37:10Z</time>
      </trkpt>
      <trkpt lat="35.099135292693973" lon="-3.839742466807365">
        <ele>133.2799072265625</ele>
        <time>2011-04-16T18:37:23Z</time>
      </trkpt>
      <trkpt lat="35.097565446048975" lon="-3.839001590386033">
        <ele>129.915283203125</ele>
        <time>2011-04-16T18:37:37Z</time>
      </trkpt>
      <trkpt lat="35.095842462033033" lon="-3.838189719244838">
        <ele>129.4346923828125</ele>
        <time>2011-04-16T18:37:51Z</time>
      </trkpt>
      <trkpt lat="35.094542261213064" lon="-3.837565435096622">
        <ele>136.1639404296875</ele>
        <time>2011-04-16T18:38:03Z</time>
      </trkpt>
      <trkpt lat="35.093457475304604" lon="-3.837069561704993">
        <ele>140.0091552734375</ele>
        <time>2011-04-16T18:38:13Z</time>
      </trkpt>
      <trkpt lat="35.092756999656558" lon="-3.836718946695328">
        <ele>142.89306640625</ele>
        <time>2011-04-16T18:38:20Z</time>
      </trkpt>
      <trkpt lat="35.092427423223853" lon="-3.836411330848932">
        <ele>144.8157958984375</ele>
        <time>2011-04-16T18:38:24Z</time>
      </trkpt>
      <trkpt lat="35.091758295893669" lon="-3.835387816652656">
        <ele>147.69970703125</ele>
        <time>2011-04-16T18:38:34Z</time>
      </trkpt>
      <trkpt lat="35.091326460242271" lon="-3.8346550706774">
        <ele>149.622314453125</ele>
        <time>2011-04-16T18:38:41Z</time>
      </trkpt>
      <trkpt lat="35.090609639883041" lon="-3.833857281133533">
        <ele>150.10302734375</ele>
        <time>2011-04-16T18:38:49Z</time>
      </trkpt>
      <trkpt lat="35.08994503878057" lon="-3.833032920956612">
        <ele>144.335205078125</ele>
        <time>2011-04-16T18:38:56Z</time>
      </trkpt>
      <trkpt lat="35.089021855965257" lon="-3.831524597480893">
        <ele>138.0865478515625</ele>
        <time>2011-04-16T18:39:07Z</time>
      </trkpt>
      <trkpt lat="35.088888835161924" lon="-3.831234583631158">
        <ele>137.125244140625</ele>
        <time>2011-04-16T18:39:09Z</time>
      </trkpt>
      <trkpt lat="35.088696386665106" lon="-3.829946536570787">
        <ele>135.68310546875</ele>
        <time>2011-04-16T18:39:17Z</time>
      </trkpt>
      <trkpt lat="35.088573591783643" lon="-3.828975493088365">
        <ele>135.2025146484375</ele>
        <time>2011-04-16T18:39:23Z</time>
      </trkpt>
      <trkpt lat="35.088223228231072" lon="-3.828407870605588">
        <ele>136.6446533203125</ele>
        <time>2011-04-16T18:39:28Z</time>
      </trkpt>
      <trkpt lat="35.08715302683413" lon="-3.827647548168898">
        <ele>140.0091552734375</ele>
        <time>2011-04-16T18:39:38Z</time>
      </trkpt>
      <trkpt lat="35.085760373622179" lon="-3.827057546004653">
        <ele>136.1639404296875</ele>
        <time>2011-04-16T18:39:48Z</time>
      </trkpt>
      <trkpt lat="35.08468396961689" lon="-3.826607186347246">
        <ele>133.2799072265625</ele>
        <time>2011-04-16T18:39:57Z</time>
      </trkpt>
      <trkpt lat="35.083704628050327" lon="-3.826395124197006">
        <ele>132.79931640625</ele>
        <time>2011-04-16T18:40:06Z</time>
      </trkpt>
      <trkpt lat="35.082072922959924" lon="-3.826604252681136">
        <ele>137.6058349609375</ele>
        <time>2011-04-16T18:40:19Z</time>
      </trkpt>
      <trkpt lat="35.080421520397067" lon="-3.826855458319187">
        <ele>150.10302734375</ele>
        <time>2011-04-16T18:40:31Z</time>
      </trkpt>
      <trkpt lat="35.078550595790148" lon="-3.827118650078774">
        <ele>169.81005859375</ele>
        <time>2011-04-16T18:40:44Z</time>
      </trkpt>
      <trkpt lat="35.076852757483721" lon="-3.827286288142204">
        <ele>171.2520751953125</ele>
        <time>2011-04-16T18:40:56Z</time>
      </trkpt>
      <trkpt lat="35.074938330799341" lon="-3.827456021681428">
        <ele>161.638916015625</ele>
        <time>2011-04-16T18:41:10Z</time>
      </trkpt>
      <trkpt lat="35.07381247356534" lon="-3.827556939795613">
        <ele>157.7935791015625</ele>
        <time>2011-04-16T18:41:18Z</time>
      </trkpt>
      <trkpt lat="35.071706268936396" lon="-3.827742263674736">
        <ele>162.1195068359375</ele>
        <time>2011-04-16T18:41:32Z</time>
      </trkpt>
      <trkpt lat="35.069531667977571" lon="-3.827934376895428">
        <ele>168.3680419921875</ele>
        <time>2011-04-16T18:41:46Z</time>
      </trkpt>
      <trkpt lat="35.068639665842056" lon="-3.828017357736826">
        <ele>167.8873291015625</ele>
        <time>2011-04-16T18:41:53Z</time>
      </trkpt>
      <trkpt lat="35.067028244957328" lon="-3.828166387975216">
        <ele>169.3294677734375</ele>
        <time>2011-04-16T18:42:06Z</time>
      </trkpt>
      <trkpt lat="35.065126977860928" lon="-3.82832488976419">
        <ele>176.539306640625</ele>
        <time>2011-04-16T18:42:19Z</time>
      </trkpt>
      <trkpt lat="35.063929874449968" lon="-3.828427819535136">
        <ele>182.30712890625</ele>
        <time>2011-04-16T18:42:28Z</time>
      </trkpt>
      <trkpt lat="35.06218702532351" lon="-3.828514320775867">
        <ele>191.4395751953125</ele>
        <time>2011-04-16T18:42:42Z</time>
      </trkpt>
      <trkpt lat="35.061576319858432" lon="-3.828353555873036">
        <ele>186.6331787109375</ele>
        <time>2011-04-16T18:42:48Z</time>
      </trkpt>
      <trkpt lat="35.060879532247782" lon="-3.828143170103431">
        <ele>185.191162109375</ele>
        <time>2011-04-16T18:42:57Z</time>
      </trkpt>
      <trkpt lat="35.060053747147322" lon="-3.827915266156197">
        <ele>184.7105712890625</ele>
        <time>2011-04-16T18:43:06Z</time>
      </trkpt>
      <trkpt lat="35.058791432529688" lon="-3.827567836269736">
        <ele>185.6717529296875</ele>
        <time>2011-04-16T18:43:17Z</time>
      </trkpt>
      <trkpt lat="35.057382686063647" lon="-3.827173048630357">
        <ele>183.2684326171875</ele>
        <time>2011-04-16T18:43:29Z</time>
      </trkpt>
      <trkpt lat="35.055374717339873" lon="-3.826610539108515">
        <ele>180.865234375</ele>
        <time>2011-04-16T18:43:45Z</time>
      </trkpt>
      <trkpt lat="35.053664054721594" lon="-3.82612707093358">
        <ele>189.9976806640625</ele>
        <time>2011-04-16T18:43:59Z</time>
      </trkpt>
      <trkpt lat="35.052913036197424" lon="-3.82560814730823">
        <ele>192.401123046875</ele>
        <time>2011-04-16T18:44:06Z</time>
      </trkpt>
      <trkpt lat="35.052463850006461" lon="-3.825293742120266">
        <ele>191.4395751953125</ele>
        <time>2011-04-16T18:44:10Z</time>
      </trkpt>
      <trkpt lat="35.051505295559764" lon="-3.825127193704248">
        <ele>186.6331787109375</ele>
        <time>2011-04-16T18:44:17Z</time>
      </trkpt>
      <trkpt lat="35.050697531551123" lon="-3.825433468446136">
        <ele>183.2684326171875</ele>
        <time>2011-04-16T18:44:23Z</time>
      </trkpt>
      <trkpt lat="35.04983059130609" lon="-3.825446041300893">
        <ele>176.05859375</ele>
        <time>2011-04-16T18:44:29Z</time>
      </trkpt>
      <trkpt lat="35.048074582591653" lon="-3.825234482064843">
        <ele>175.0972900390625</ele>
        <time>2011-04-16T18:44:40Z</time>
      </trkpt>
      <trkpt lat="35.046181948855519" lon="-3.824986964464188">
        <ele>183.7490234375</ele>
        <time>2011-04-16T18:44:52Z</time>
      </trkpt>
      <trkpt lat="35.04532934166491" lon="-3.824607850983739">
        <ele>186.6331787109375</ele>
        <time>2011-04-16T18:44:58Z</time>
      </trkpt>
      <trkpt lat="35.043697049841285" lon="-3.823542762547731">
        <ele>186.1524658203125</ele>
        <time>2011-04-16T18:45:09Z</time>
      </trkpt>
      <trkpt lat="35.041436953470111" lon="-3.822086155414581">
        <ele>178.942626953125</ele>
        <time>2011-04-16T18:45:24Z</time>
      </trkpt>
      <trkpt lat="35.040292488411069" lon="-3.82136782631278">
        <ele>178.4619140625</ele>
        <time>2011-04-16T18:45:32Z</time>
      </trkpt>
      <trkpt lat="35.039455136284232" lon="-3.821308733895421">
        <ele>177.5006103515625</ele>
        <time>2011-04-16T18:45:38Z</time>
      </trkpt>
      <trkpt lat="35.038088299334049" lon="-3.821309823542833">
        <ele>185.6717529296875</ele>
        <time>2011-04-16T18:45:47Z</time>
      </trkpt>
      <trkpt lat="35.037523359060287" lon="-3.821154842153192">
        <ele>189.036376953125</ele>
        <time>2011-04-16T18:45:51Z</time>
      </trkpt>
      <trkpt lat="35.036531444638968" lon="-3.821270344778895">
        <ele>196.7269287109375</ele>
        <time>2011-04-16T18:45:58Z</time>
      </trkpt>
      <trkpt lat="35.034915329888463" lon="-3.821631772443652">
        <ele>196.7269287109375</ele>
        <time>2011-04-16T18:46:10Z</time>
      </trkpt>
      <trkpt lat="35.033878991380334" lon="-3.821836542338133">
        <ele>192.8817138671875</ele>
        <time>2011-04-16T18:46:18Z</time>
      </trkpt>
      <trkpt lat="35.033384039998055" lon="-3.822169220075011">
        <ele>188.0750732421875</ele>
        <time>2011-04-16T18:46:23Z</time>
      </trkpt>
      <trkpt lat="35.033069299533963" lon="-3.822579933330417">
        <ele>188.0750732421875</ele>
        <time>2011-04-16T18:46:27Z</time>
      </trkpt>
      <trkpt lat="35.032577952370048" lon="-3.822873467579484">
        <ele>187.5943603515625</ele>
        <time>2011-04-16T18:46:32Z</time>
      </trkpt>
      <trkpt lat="35.032005468383431" lon="-3.822987880557776">
        <ele>189.036376953125</ele>
        <time>2011-04-16T18:46:37Z</time>
      </trkpt>
      <trkpt lat="35.031489478424191" lon="-3.822780260816217">
        <ele>187.11376953125</ele>
        <time>2011-04-16T18:46:42Z</time>
      </trkpt>
      <trkpt lat="35.031361654400826" lon="-3.822300732135773">
        <ele>189.9976806640625</ele>
        <time>2011-04-16T18:46:46Z</time>
      </trkpt>
      <trkpt lat="35.031387554481626" lon="-3.822181625291705">
        <ele>190.4783935546875</ele>
        <time>2011-04-16T18:46:47Z</time>
      </trkpt>
      <trkpt lat="35.031291916966438" lon="-3.821467151865363">
        <ele>193.3623046875</ele>
        <time>2011-04-16T18:46:54Z</time>
      </trkpt>
      <trkpt lat="35.031109862029552" lon="-3.821325581520796">
        <ele>196.246337890625</ele>
        <time>2011-04-16T18:46:56Z</time>
      </trkpt>
      <trkpt lat="35.030253566801548" lon="-3.820923669263721">
        <ele>201.5335693359375</ele>
        <time>2011-04-16T18:47:03Z</time>
      </trkpt>
      <trkpt lat="35.028920257464051" lon="-3.820602642372251">
        <ele>202.0142822265625</ele>
        <time>2011-04-16T18:47:13Z</time>
      </trkpt>
      <trkpt lat="35.028803832828999" lon="-3.820586297661066">
        <ele>201.5335693359375</ele>
        <time>2011-04-16T18:47:14Z</time>
      </trkpt>
      <trkpt lat="35.027985088527203" lon="-3.820730298757553">
        <ele>198.1689453125</ele>
        <time>2011-04-16T18:47:21Z</time>
      </trkpt>
      <trkpt lat="35.027583176270127" lon="-3.821081332862377">
        <ele>198.6495361328125</ele>
        <time>2011-04-16T18:47:26Z</time>
      </trkpt>
      <trkpt lat="35.027200374752283" lon="-3.821511240676045">
        <ele>198.1689453125</ele>
        <time>2011-04-16T18:47:31Z</time>
      </trkpt>
      <trkpt lat="35.02660701982677" lon="-3.821847019717097">
        <ele>203.4561767578125</ele>
        <time>2011-04-16T18:47:37Z</time>
      </trkpt>
      <trkpt lat="35.026204939931631" lon="-3.821893539279699">
        <ele>203.9368896484375</ele>
        <time>2011-04-16T18:47:41Z</time>
      </trkpt>
      <trkpt lat="35.026026573032141" lon="-3.821823550388217">
        <ele>199.61083984375</ele>
        <time>2011-04-16T18:47:43Z</time>
      </trkpt>
      <trkpt lat="35.025462973862886" lon="-3.821908375248313">
        <ele>193.3623046875</ele>
        <time>2011-04-16T18:47:49Z</time>
      </trkpt>
      <trkpt lat="35.025189388543367" lon="-3.822108199819922">
        <ele>193.843017578125</ele>
        <time>2011-04-16T18:47:52Z</time>
      </trkpt>
      <trkpt lat="35.024913037195802" lon="-3.822333673015237">
        <ele>192.401123046875</ele>
        <time>2011-04-16T18:47:55Z</time>
      </trkpt>
      <trkpt lat="35.024490673094988" lon="-3.822445822879672">
        <ele>189.036376953125</ele>
        <time>2011-04-16T18:47:59Z</time>
      </trkpt>
      <trkpt lat="35.023807883262634" lon="-3.822403745725751">
        <ele>193.843017578125</ele>
        <time>2011-04-16T18:48:05Z</time>
      </trkpt>
      <trkpt lat="35.023239841684699" lon="-3.822243986651301">
        <ele>197.688232421875</ele>
        <time>2011-04-16T18:48:10Z</time>
      </trkpt>
      <trkpt lat="35.022511454299092" lon="-3.821607297286391">
        <ele>206.340087890625</ele>
        <time>2011-04-16T18:48:18Z</time>
      </trkpt>
      <trkpt lat="35.022300481796265" lon="-3.821329353377223">
        <ele>207.3013916015625</ele>
        <time>2011-04-16T18:48:21Z</time>
      </trkpt>
      <trkpt lat="35.022073248401284" lon="-3.820730969309807">
        <ele>211.62744140625</ele>
        <time>2011-04-16T18:48:26Z</time>
      </trkpt>
      <trkpt lat="35.022003930062056" lon="-3.820366691797972">
        <ele>212.588623046875</ele>
        <time>2011-04-16T18:48:29Z</time>
      </trkpt>
      <trkpt lat="35.021711820736527" lon="-3.819830752909184">
        <ele>213.0693359375</ele>
        <time>2011-04-16T18:48:35Z</time>
      </trkpt>
      <trkpt lat="35.021197255700827" lon="-3.819266399368644">
        <ele>211.146728515625</ele>
        <time>2011-04-16T18:48:43Z</time>
      </trkpt>
      <trkpt lat="35.020805234089494" lon="-3.819146957248449">
        <ele>207.3013916015625</ele>
        <time>2011-04-16T18:48:48Z</time>
      </trkpt>
      <trkpt lat="35.020413128659129" lon="-3.819466894492507">
        <ele>214.0306396484375</ele>
        <time>2011-04-16T18:48:53Z</time>
      </trkpt>
      <trkpt lat="35.020233923569322" lon="-3.819817844778299">
        <ele>218.3565673828125</ele>
        <time>2011-04-16T18:48:57Z</time>
      </trkpt>
      <trkpt lat="35.020080953836441" lon="-3.820234341546893">
        <ele>219.798583984375</ele>
        <time>2011-04-16T18:49:01Z</time>
      </trkpt>
      <trkpt lat="35.019636964425445" lon="-3.820649581030011">
        <ele>224.605224609375</ele>
        <time>2011-04-16T18:49:07Z</time>
      </trkpt>
      <trkpt lat="35.019226837903261" lon="-3.820650083944202">
        <ele>228.450439453125</ele>
        <time>2011-04-16T18:49:12Z</time>
      </trkpt>
      <trkpt lat="35.018299883231521" lon="-3.82030114531517">
        <ele>231.81494140625</ele>
        <time>2011-04-16T18:49:23Z</time>
      </trkpt>
      <trkpt lat="35.01783175393939" lon="-3.820095369592309">
        <ele>235.1796875</ele>
        <time>2011-04-16T18:49:31Z</time>
      </trkpt>
      <trkpt lat="35.01774332486093" lon="-3.820027895271778">
        <ele>235.1796875</ele>
        <time>2011-04-16T18:49:35Z</time>
      </trkpt>
      <trkpt lat="35.017826473340392" lon="-3.819960169494152">
        <ele>230.853759765625</ele>
        <time>2011-04-16T18:49:41Z</time>
      </trkpt>
      <trkpt lat="35.017919763922691" lon="-3.820153372362256">
        <ele>223.1632080078125</ele>
        <time>2011-04-16T18:49:51Z</time>
      </trkpt>
      <trkpt lat="35.018035685643554" lon="-3.820359231904149">
        <ele>217.8759765625</ele>
        <time>2011-04-16T18:50:12Z</time>
      </trkpt>
      <trkpt lat="35.018199635669589" lon="-3.8206294644624">
        <ele>220.2791748046875</ele>
        <time>2011-04-16T18:50:25Z</time>
      </trkpt>
      <trkpt lat="35.018357383087277" lon="-3.820964824408293">
        <ele>224.605224609375</ele>
        <time>2011-04-16T18:50:38Z</time>
      </trkpt>
      <trkpt lat="35.018425360321999" lon="-3.821323569864035">
        <ele>229.4117431640625</ele>
        <time>2011-04-16T18:50:50Z</time>
      </trkpt>
      <trkpt lat="35.018445057794452" lon="-3.821628838777542">
        <ele>231.81494140625</ele>
        <time>2011-04-16T18:50:59Z</time>
      </trkpt>
      <trkpt lat="35.018397532403469" lon="-3.822097554802895">
        <ele>233.7376708984375</ele>
        <time>2011-04-16T18:51:10Z</time>
      </trkpt>
      <trkpt lat="35.018340786918998" lon="-3.82240223698318">
        <ele>235.1796875</ele>
        <time>2011-04-16T18:51:17Z</time>
      </trkpt>
      <trkpt lat="35.018200222402811" lon="-3.823027946054936">
        <ele>236.6217041015625</ele>
        <time>2011-04-16T18:51:30Z</time>
      </trkpt>
      <trkpt lat="35.018109949305654" lon="-3.823518035933375">
        <ele>238.5443115234375</ele>
        <time>2011-04-16T18:51:41Z</time>
      </trkpt>
      <trkpt lat="35.018106093630195" lon="-3.823827328160405">
        <ele>239.5054931640625</ele>
        <time>2011-04-16T18:51:47Z</time>
      </trkpt>
      <trkpt lat="35.018025375902653" lon="-3.824524870142341">
        <ele>241.908935546875</ele>
        <time>2011-04-16T18:52:01Z</time>
      </trkpt>
      <trkpt lat="35.01798422075808" lon="-3.824769537895918">
        <ele>243.350830078125</ele>
        <time>2011-04-16T18:52:06Z</time>
      </trkpt>
      <trkpt lat="35.018087988719344" lon="-3.825240181759">
        <ele>245.754150390625</ele>
        <time>2011-04-16T18:52:16Z</time>
      </trkpt>
      <trkpt lat="35.018177088350058" lon="-3.8256252463907">
        <ele>248.1575927734375</ele>
        <time>2011-04-16T18:52:27Z</time>
      </trkpt>
      <trkpt lat="35.018179938197136" lon="-3.826005449518561">
        <ele>250.560791015625</ele>
        <time>2011-04-16T18:52:37Z</time>
      </trkpt>
      <trkpt lat="35.018262332305312" lon="-3.826434938237071">
        <ele>252.4833984375</ele>
        <time>2011-04-16T18:52:48Z</time>
      </trkpt>
      <trkpt lat="35.01832083798945" lon="-3.826626129448414">
        <ele>253.9254150390625</ele>
        <time>2011-04-16T18:52:58Z</time>
      </trkpt>
      <trkpt lat="35.018378170207143" lon="-3.826807262375951">
        <ele>254.8865966796875</ele>
        <time>2011-04-16T18:53:14Z</time>
      </trkpt>
      <trkpt lat="35.018467772752047" lon="-3.826965093612671">
        <ele>254.8865966796875</ele>
        <time>2011-04-16T18:53:24Z</time>
      </trkpt>
      <trkpt lat="35.018618395552039" lon="-3.827395923435688">
        <ele>257.2900390625</ele>
        <time>2011-04-16T18:54:40Z</time>
      </trkpt>
      <trkpt lat="35.018720487132668" lon="-3.827670346945524">
        <ele>258.73193359375</ele>
        <time>2011-04-16T18:54:49Z</time>
      </trkpt>
      <trkpt lat="35.018749237060547" lon="-3.828137889504433">
        <ele>260.1739501953125</ele>
        <time>2011-04-16T18:55:00Z</time>
      </trkpt>
      <trkpt lat="35.018693832680583" lon="-3.828512979671359">
        <ele>262.0965576171875</ele>
        <time>2011-04-16T18:55:08Z</time>
      </trkpt>
      <trkpt lat="35.018683942034841" lon="-3.828652035444975">
        <ele>262.0965576171875</ele>
        <time>2011-04-16T18:55:11Z</time>
      </trkpt>
      <trkpt lat="35.018780417740345" lon="-3.829170372337103">
        <ele>263.53857421875</ele>
        <time>2011-04-16T18:55:20Z</time>
      </trkpt>
      <trkpt lat="35.018753344193101" lon="-3.829773617908359">
        <ele>266.9031982421875</ele>
        <time>2011-04-16T18:55:32Z</time>
      </trkpt>
      <trkpt lat="35.018768934533" lon="-3.830147450789809">
        <ele>268.3450927734375</ele>
        <time>2011-04-16T18:55:42Z</time>
      </trkpt>
      <trkpt lat="35.018657958135009" lon="-3.83056428283453">
        <ele>269.787109375</ele>
        <time>2011-04-16T18:55:52Z</time>
      </trkpt>
      <trkpt lat="35.018494259566069" lon="-3.830904252827168">
        <ele>270.7484130859375</ele>
        <time>2011-04-16T18:56:01Z</time>
      </trkpt>
      <trkpt lat="35.018409350886941" lon="-3.831208935007453">
        <ele>271.709716796875</ele>
        <time>2011-04-16T18:56:10Z</time>
      </trkpt>
      <trkpt lat="35.018253196030855" lon="-3.831324018537998">
        <ele>272.671142578125</ele>
        <time>2011-04-16T18:56:17Z</time>
      </trkpt>
      <trkpt lat="35.018132496625185" lon="-3.831406999379396">
        <ele>272.671142578125</ele>
        <time>2011-04-16T18:56:27Z</time>
      </trkpt>
      <trkpt lat="35.018060160800815" lon="-3.831483693793416">
        <ele>273.15185546875</ele>
        <time>2011-04-16T18:57:10Z</time>
      </trkpt>
      <trkpt lat="35.018128221854568" lon="-3.831557538360357">
        <ele>274.113037109375</ele>
        <time>2011-04-16T19:04:20Z</time>
      </trkpt>
      <trkpt lat="35.0183389429003" lon="-3.83157673291862">
        <ele>272.671142578125</ele>
        <time>2011-04-16T19:04:36Z</time>
      </trkpt>
      <trkpt lat="35.01842544414103" lon="-3.831745460629463">
        <ele>274.113037109375</ele>
        <time>2011-04-16T19:04:54Z</time>
      </trkpt>
      <trkpt lat="35.018575061112642" lon="-3.831578157842159">
        <ele>272.1904296875</ele>
        <time>2011-04-16T19:05:05Z</time>
      </trkpt>
      <trkpt lat="35.018641278147697" lon="-3.831601962447166">
        <ele>271.2291259765625</ele>
        <time>2011-04-16T19:05:13Z</time>
      </trkpt>
    </trkseg>
  </trk>

  <trk>
    <name>110417</name>
    <extensions>
      <gpxx:TrackExtension xmlns:gpxx="http://www.garmin.com/xmlschemas/GpxExtensions/v3">
        <gpxx:DisplayColor>Magenta</gpxx:DisplayColor>
      </gpxx:TrackExtension>
    </extensions>
    <trkseg>
      <trkpt lat="35.01874596811831" lon="-3.831711765378714">
        <ele>272.1904296875</ele>
        <time>2011-04-17T07:32:40Z</time>
      </trkpt>
      <trkpt lat="35.018582940101624" lon="-3.831626856699586">
        <ele>261.13525390625</ele>
        <time>2011-04-17T07:43:33Z</time>
      </trkpt>
      <trkpt lat="35.018669692799449" lon="-3.831593496724963">
        <ele>266.4224853515625</ele>
        <time>2011-04-17T08:24:43Z</time>
      </trkpt>
      <trkpt lat="35.01843323931098" lon="-3.83166566491127">
        <ele>271.709716796875</ele>
        <time>2011-04-17T08:39:59Z</time>
      </trkpt>
      <trkpt lat="35.018373392522335" lon="-3.831580337136984">
        <ele>266.4224853515625</ele>
        <time>2011-04-17T08:40:11Z</time>
      </trkpt>
      <trkpt lat="35.018379343673587" lon="-3.831451758742333">
        <ele>266.9031982421875</ele>
        <time>2011-04-17T08:40:22Z</time>
      </trkpt>
      <trkpt lat="35.018374565988779" lon="-3.831331562250853">
        <ele>271.709716796875</ele>
        <time>2011-04-17T08:41:11Z</time>
      </trkpt>
      <trkpt lat="35.018418487161398" lon="-3.831168282777071">
        <ele>271.709716796875</ele>
        <time>2011-04-17T08:42:54Z</time>
      </trkpt>
      <trkpt lat="35.018434831872582" lon="-3.83096007630229">
        <ele>271.2291259765625</ele>
        <time>2011-04-17T08:43:05Z</time>
      </trkpt>
      <trkpt lat="35.018577156588435" lon="-3.830783218145371">
        <ele>270.7484130859375</ele>
        <time>2011-04-17T08:43:12Z</time>
      </trkpt>
      <trkpt lat="35.01865167170763" lon="-3.830567887052894">
        <ele>270.7484130859375</ele>
        <time>2011-04-17T08:43:28Z</time>
      </trkpt>
      <trkpt lat="35.018772119656205" lon="-3.830119119957089">
        <ele>268.3450927734375</ele>
        <time>2011-04-17T08:43:38Z</time>
      </trkpt>
      <trkpt lat="35.018752589821815" lon="-3.829823574051261">
        <ele>266.4224853515625</ele>
        <time>2011-04-17T08:43:47Z</time>
      </trkpt>
      <trkpt lat="35.018769856542349" lon="-3.829340357333422">
        <ele>263.057861328125</ele>
        <time>2011-04-17T08:43:59Z</time>
      </trkpt>
      <trkpt lat="35.018727360293269" lon="-3.828894775360823">
        <ele>261.13525390625</ele>
        <time>2011-04-17T08:44:09Z</time>
      </trkpt>
      <trkpt lat="35.018676649779081" lon="-3.828654130920768">
        <ele>260.1739501953125</ele>
        <time>2011-04-17T08:44:14Z</time>
      </trkpt>
      <trkpt lat="35.018682265654206" lon="-3.828468387946487">
        <ele>259.212646484375</ele>
        <time>2011-04-17T08:44:18Z</time>
      </trkpt>
      <trkpt lat="35.018738592043519" lon="-3.828107798472047">
        <ele>258.73193359375</ele>
        <time>2011-04-17T08:44:26Z</time>
      </trkpt>
      <trkpt lat="35.018647983670235" lon="-3.827443281188607">
        <ele>254.8865966796875</ele>
        <time>2011-04-17T08:44:40Z</time>
      </trkpt>
      <trkpt lat="35.018530134111643" lon="-3.827129798009992">
        <ele>253.4447021484375</ele>
        <time>2011-04-17T08:44:47Z</time>
      </trkpt>
      <trkpt lat="35.018327292054892" lon="-3.826710786670446">
        <ele>251.0413818359375</ele>
        <time>2011-04-17T08:44:57Z</time>
      </trkpt>
      <trkpt lat="35.018184799700975" lon="-3.82616713643074">
        <ele>248.1575927734375</ele>
        <time>2011-04-17T08:45:08Z</time>
      </trkpt>
      <trkpt lat="35.018153199926019" lon="-3.825903944671154">
        <ele>247.196044921875</ele>
        <time>2011-04-17T08:45:13Z</time>
      </trkpt>
      <trkpt lat="35.018134089186788" lon="-3.825436821207404">
        <ele>245.754150390625</ele>
        <time>2011-04-17T08:45:23Z</time>
      </trkpt>
      <trkpt lat="35.018027722835541" lon="-3.825033232569695">
        <ele>243.83154296875</ele>
        <time>2011-04-17T08:45:32Z</time>
      </trkpt>
      <trkpt lat="35.017961421981454" lon="-3.824596451595426">
        <ele>242.3896484375</ele>
        <time>2011-04-17T08:45:42Z</time>
      </trkpt>
      <trkpt lat="35.018075834959745" lon="-3.824258660897613">
        <ele>241.908935546875</ele>
        <time>2011-04-17T08:45:50Z</time>
      </trkpt>
      <trkpt lat="35.018085557967424" lon="-3.823672765865922">
        <ele>239.9862060546875</ele>
        <time>2011-04-17T08:46:01Z</time>
      </trkpt>
      <trkpt lat="35.018104081973433" lon="-3.823456931859255">
        <ele>239.5054931640625</ele>
        <time>2011-04-17T08:46:05Z</time>
      </trkpt>
      <trkpt lat="35.018260069191456" lon="-3.822805490344763">
        <ele>237.5828857421875</ele>
        <time>2011-04-17T08:46:16Z</time>
      </trkpt>
      <trkpt lat="35.018331483006477" lon="-3.822416150942445">
        <ele>236.6217041015625</ele>
        <time>2011-04-17T08:46:23Z</time>
      </trkpt>
      <trkpt lat="35.018370542675257" lon="-3.822267036885023">
        <ele>236.1409912109375</ele>
        <time>2011-04-17T08:46:26Z</time>
      </trkpt>
      <trkpt lat="35.018460061401129" lon="-3.821709556505084">
        <ele>234.6990966796875</ele>
        <time>2011-04-17T08:46:35Z</time>
      </trkpt>
      <trkpt lat="35.018465174362063" lon="-3.821356846019626">
        <ele>233.7376708984375</ele>
        <time>2011-04-17T08:46:43Z</time>
      </trkpt>
      <trkpt lat="35.018409853801131" lon="-3.821071023121476">
        <ele>231.81494140625</ele>
        <time>2011-04-17T08:46:51Z</time>
      </trkpt>
      <trkpt lat="35.018415553495288" lon="-3.820757288485766">
        <ele>230.373046875</ele>
        <time>2011-04-17T08:46:59Z</time>
      </trkpt>
      <trkpt lat="35.018274234607816" lon="-3.820373229682446">
        <ele>231.81494140625</ele>
        <time>2011-04-17T08:47:08Z</time>
      </trkpt>
      <trkpt lat="35.018237438052893" lon="-3.820245824754238">
        <ele>229.892333984375</ele>
        <time>2011-04-17T08:47:18Z</time>
      </trkpt>
      <trkpt lat="35.017981873825192" lon="-3.820108864456415">
        <ele>227.9697265625</ele>
        <time>2011-04-17T08:47:26Z</time>
      </trkpt>
      <trkpt lat="35.017170170322061" lon="-3.819969054311514">
        <ele>226.52783203125</ele>
        <time>2011-04-17T08:47:34Z</time>
      </trkpt>
      <trkpt lat="35.01669374294579" lon="-3.819908453151584">
        <ele>227.4891357421875</ele>
        <time>2011-04-17T08:47:38Z</time>
      </trkpt>
      <trkpt lat="35.01610541716218" lon="-3.819504026323557">
        <ele>227.4891357421875</ele>
        <time>2011-04-17T08:47:44Z</time>
      </trkpt>
      <trkpt lat="35.015165386721492" lon="-3.818153198808432">
        <ele>226.52783203125</ele>
        <time>2011-04-17T08:47:54Z</time>
      </trkpt>
      <trkpt lat="35.014438675716519" lon="-3.817187687382102">
        <ele>226.52783203125</ele>
        <time>2011-04-17T08:48:01Z</time>
      </trkpt>
      <trkpt lat="35.013926792889833" lon="-3.816841850057244">
        <ele>227.008544921875</ele>
        <time>2011-04-17T08:48:05Z</time>
      </trkpt>
      <trkpt lat="35.013240650296211" lon="-3.816818464547396">
        <ele>228.450439453125</ele>
        <time>2011-04-17T08:48:10Z</time>
      </trkpt>
      <trkpt lat="35.012257788330317" lon="-3.817219790071249">
        <ele>232.7764892578125</ele>
        <time>2011-04-17T08:48:17Z</time>
      </trkpt>
      <trkpt lat="35.0116818677634" lon="-3.817245857790113">
        <ele>234.2183837890625</ele>
        <time>2011-04-17T08:48:21Z</time>
      </trkpt>
      <trkpt lat="35.01094208098948" lon="-3.817093893885613">
        <ele>234.6990966796875</ele>
        <time>2011-04-17T08:48:26Z</time>
      </trkpt>
      <trkpt lat="35.010407734662294" lon="-3.816797425970435">
        <ele>234.6990966796875</ele>
        <time>2011-04-17T08:48:30Z</time>
      </trkpt>
      <trkpt lat="35.009822677820921" lon="-3.816237933933735">
        <ele>234.6990966796875</ele>
        <time>2011-04-17T08:48:35Z</time>
      </trkpt>
      <trkpt lat="35.009051458910108" lon="-3.81573929451406">
        <ele>234.2183837890625</ele>
        <time>2011-04-17T08:48:41Z</time>
      </trkpt>
      <trkpt lat="35.008524572476745" lon="-3.814886519685388">
        <ele>235.6602783203125</ele>
        <time>2011-04-17T08:48:47Z</time>
      </trkpt>
      <trkpt lat="35.00848182477057" lon="-3.814705638214946">
        <ele>236.1409912109375</ele>
        <time>2011-04-17T08:48:48Z</time>
      </trkpt>
      <trkpt lat="35.008139675483108" lon="-3.81267512217164">
        <ele>246.7154541015625</ele>
        <time>2011-04-17T08:48:59Z</time>
      </trkpt>
      <trkpt lat="35.007802220061421" lon="-3.812111942097545">
        <ele>249.5994873046875</ele>
        <time>2011-04-17T08:49:04Z</time>
      </trkpt>
      <trkpt lat="35.007282458245754" lon="-3.812026279047132">
        <ele>249.5994873046875</ele>
        <time>2011-04-17T08:49:08Z</time>
      </trkpt>
      <trkpt lat="35.005985023453832" lon="-3.812144128605723">
        <ele>249.5994873046875</ele>
        <time>2011-04-17T08:49:16Z</time>
      </trkpt>
      <trkpt lat="35.005813697353005" lon="-3.812158042564988">
        <ele>249.5994873046875</ele>
        <time>2011-04-17T08:49:17Z</time>
      </trkpt>
      <trkpt lat="35.00483469106257" lon="-3.812041282653809">
        <ele>249.5994873046875</ele>
        <time>2011-04-17T08:49:23Z</time>
      </trkpt>
      <trkpt lat="35.004292130470276" lon="-3.812194671481848">
        <ele>250.560791015625</ele>
        <time>2011-04-17T08:49:27Z</time>
      </trkpt>
      <trkpt lat="35.003525940701365" lon="-3.812426095828414">
        <ele>251.5220947265625</ele>
        <time>2011-04-17T08:49:33Z</time>
      </trkpt>
      <trkpt lat="35.003256630152464" lon="-3.812485942617059">
        <ele>251.5220947265625</ele>
        <time>2011-04-17T08:49:35Z</time>
      </trkpt>
      <trkpt lat="35.002977848052979" lon="-3.812582837417722">
        <ele>251.5220947265625</ele>
        <time>2011-04-17T08:49:37Z</time>
      </trkpt>
      <trkpt lat="35.002550119534135" lon="-3.812644863501191">
        <ele>251.0413818359375</ele>
        <time>2011-04-17T08:49:40Z</time>
      </trkpt>
      <trkpt lat="35.001958524808288" lon="-3.813068317249417">
        <ele>250.0802001953125</ele>
        <time>2011-04-17T08:49:45Z</time>
      </trkpt>
      <trkpt lat="35.001840172335505" lon="-3.813167894259095">
        <ele>250.0802001953125</ele>
        <time>2011-04-17T08:49:46Z</time>
      </trkpt>
      <trkpt lat="35.001009441912174" lon="-3.813396720215678">
        <ele>249.1187744140625</ele>
        <time>2011-04-17T08:49:52Z</time>
      </trkpt>
      <trkpt lat="35.000580372288823" lon="-3.813259089365602">
        <ele>248.63818359375</ele>
        <time>2011-04-17T08:49:55Z</time>
      </trkpt>
      <trkpt lat="34.99977009370923" lon="-3.812767826020718">
        <ele>249.5994873046875</ele>
        <time>2011-04-17T08:50:01Z</time>
      </trkpt>
      <trkpt lat="34.999271370470524" lon="-3.812224343419075">
        <ele>250.560791015625</ele>
        <time>2011-04-17T08:50:06Z</time>
      </trkpt>
      <trkpt lat="34.998828554525971" lon="-3.812194839119911">
        <ele>251.5220947265625</ele>
        <time>2011-04-17T08:50:11Z</time>
      </trkpt>
      <trkpt lat="34.998729228973389" lon="-3.812557943165302">
        <ele>253.9254150390625</ele>
        <time>2011-04-17T08:50:14Z</time>
      </trkpt>
      <trkpt lat="34.99851674772799" lon="-3.813486658036709">
        <ele>251.5220947265625</ele>
        <time>2011-04-17T08:50:20Z</time>
      </trkpt>
      <trkpt lat="34.99811508692801" lon="-3.814162742346525">
        <ele>253.9254150390625</ele>
        <time>2011-04-17T08:50:25Z</time>
      </trkpt>
      <trkpt lat="34.997864970937371" lon="-3.814318645745516">
        <ele>255.3673095703125</ele>
        <time>2011-04-17T08:50:27Z</time>
      </trkpt>
      <trkpt lat="34.997600438073277" lon="-3.814432974904776">
        <ele>254.8865966796875</ele>
        <time>2011-04-17T08:50:29Z</time>
      </trkpt>
      <trkpt lat="34.997074138373137" lon="-3.814414786174893">
        <ele>255.3673095703125</ele>
        <time>2011-04-17T08:50:33Z</time>
      </trkpt>
      <trkpt lat="34.996677339076996" lon="-3.81425779312849">
        <ele>256.3287353515625</ele>
        <time>2011-04-17T08:50:36Z</time>
      </trkpt>
      <trkpt lat="34.996240474283695" lon="-3.813839368522167">
        <ele>255.3673095703125</ele>
        <time>2011-04-17T08:50:40Z</time>
      </trkpt>
      <trkpt lat="34.995176559314132" lon="-3.812360968440771">
        <ele>252.4833984375</ele>
        <time>2011-04-17T08:50:50Z</time>
      </trkpt>
      <trkpt lat="34.994559064507484" lon="-3.811578098684549">
        <ele>255.3673095703125</ele>
        <time>2011-04-17T08:50:56Z</time>
      </trkpt>
      <trkpt lat="34.993945173919201" lon="-3.811364443972707">
        <ele>256.3287353515625</ele>
        <time>2011-04-17T08:51:01Z</time>
      </trkpt>
      <trkpt lat="34.993378138169646" lon="-3.811411634087563">
        <ele>258.2513427734375</ele>
        <time>2011-04-17T08:51:05Z</time>
      </trkpt>
      <trkpt lat="34.99283155426383" lon="-3.811305854469538">
        <ele>259.693359375</ele>
        <time>2011-04-17T08:51:09Z</time>
      </trkpt>
      <trkpt lat="34.991582734510303" lon="-3.810890447348356">
        <ele>266.4224853515625</ele>
        <time>2011-04-17T08:51:18Z</time>
      </trkpt>
      <trkpt lat="34.99060096219182" lon="-3.810983067378402">
        <ele>274.113037109375</ele>
        <time>2011-04-17T08:51:26Z</time>
      </trkpt>
      <trkpt lat="34.990230817347765" lon="-3.810857338830829">
        <ele>276.516357421875</ele>
        <time>2011-04-17T08:51:30Z</time>
      </trkpt>
      <trkpt lat="34.989709630608559" lon="-3.810758348554373">
        <ele>279.880859375</ele>
        <time>2011-04-17T08:51:36Z</time>
      </trkpt>
      <trkpt lat="34.989624973386526" lon="-3.810829175636172">
        <ele>279.880859375</ele>
        <time>2011-04-17T08:51:37Z</time>
      </trkpt>
      <trkpt lat="34.989029942080379" lon="-3.811019361019135">
        <ele>283.7261962890625</ele>
        <time>2011-04-17T08:51:43Z</time>
      </trkpt>
      <trkpt lat="34.98852526769042" lon="-3.811151878908277">
        <ele>286.6102294921875</ele>
        <time>2011-04-17T08:51:48Z</time>
      </trkpt>
      <trkpt lat="34.988011540845037" lon="-3.811226645484567">
        <ele>289.974853515625</ele>
        <time>2011-04-17T08:51:53Z</time>
      </trkpt>
      <trkpt lat="34.987830994650722" lon="-3.811067724600434">
        <ele>290.45556640625</ele>
        <time>2011-04-17T08:51:55Z</time>
      </trkpt>
      <trkpt lat="34.987662518396974" lon="-3.810873432084918">
        <ele>291.8974609375</ele>
        <time>2011-04-17T08:51:57Z</time>
      </trkpt>
      <trkpt lat="34.987142588943243" lon="-3.810632117092609">
        <ele>295.261962890625</ele>
        <time>2011-04-17T08:52:02Z</time>
      </trkpt>
      <trkpt lat="34.985429830849171" lon="-3.810744434595108">
        <ele>303.4332275390625</ele>
        <time>2011-04-17T08:52:16Z</time>
      </trkpt>
      <trkpt lat="34.984721057116985" lon="-3.810977786779404">
        <ele>304.3946533203125</ele>
        <time>2011-04-17T08:52:22Z</time>
      </trkpt>
      <trkpt lat="34.984255274757743" lon="-3.811457650735974">
        <ele>308.2398681640625</ele>
        <time>2011-04-17T08:52:27Z</time>
      </trkpt>
      <trkpt lat="34.983787061646581" lon="-3.811715142801404">
        <ele>309.681884765625</ele>
        <time>2011-04-17T08:52:31Z</time>
      </trkpt>
      <trkpt lat="34.983238717541099" lon="-3.811833746731281">
        <ele>310.64306640625</ele>
        <time>2011-04-17T08:52:35Z</time>
      </trkpt>
      <trkpt lat="34.982737647369504" lon="-3.812110098078847">
        <ele>314.9691162109375</ele>
        <time>2011-04-17T08:52:39Z</time>
      </trkpt>
      <trkpt lat="34.982075896114111" lon="-3.812123173847795">
        <ele>318.8143310546875</ele>
        <time>2011-04-17T08:52:44Z</time>
      </trkpt>
      <trkpt lat="34.98137466609478" lon="-3.811963247135282">
        <ele>323.140380859375</ele>
        <time>2011-04-17T08:52:49Z</time>
      </trkpt>
      <trkpt lat="34.980850126594305" lon="-3.811606932431459">
        <ele>324.1015625</ele>
        <time>2011-04-17T08:52:53Z</time>
      </trkpt>
      <trkpt lat="34.980507725849748" lon="-3.811241146177054">
        <ele>323.6209716796875</ele>
        <time>2011-04-17T08:52:56Z</time>
      </trkpt>
      <trkpt lat="34.97977145947516" lon="-3.810895727947354">
        <ele>320.737060546875</ele>
        <time>2011-04-17T08:53:01Z</time>
      </trkpt>
      <trkpt lat="34.978340920060873" lon="-3.810629267245531">
        <ele>314.0078125</ele>
        <time>2011-04-17T08:53:10Z</time>
      </trkpt>
      <trkpt lat="34.978046966716647" lon="-3.810680061578751">
        <ele>312.5657958984375</ele>
        <time>2011-04-17T08:53:12Z</time>
      </trkpt>
      <trkpt lat="34.977239370346069" lon="-3.811177695170045">
        <ele>304.875244140625</ele>
        <time>2011-04-17T08:53:18Z</time>
      </trkpt>
      <trkpt lat="34.976844163611531" lon="-3.811493776738644">
        <ele>301.9913330078125</ele>
        <time>2011-04-17T08:53:21Z</time>
      </trkpt>
      <trkpt lat="34.976618522778153" lon="-3.811743892729282">
        <ele>301.0299072265625</ele>
        <time>2011-04-17T08:53:23Z</time>
      </trkpt>
      <trkpt lat="34.975831545889378" lon="-3.81223632954061">
        <ele>298.626708984375</ele>
        <time>2011-04-17T08:53:29Z</time>
      </trkpt>
      <trkpt lat="34.975560894235969" lon="-3.812393825501204">
        <ele>298.1461181640625</ele>
        <time>2011-04-17T08:53:31Z</time>
      </trkpt>
      <trkpt lat="34.974998636171222" lon="-3.812540424987674">
        <ele>298.626708984375</ele>
        <time>2011-04-17T08:53:35Z</time>
      </trkpt>
      <trkpt lat="34.974722117185593" lon="-3.812546627596021">
        <ele>298.626708984375</ele>
        <time>2011-04-17T08:53:37Z</time>
      </trkpt>
      <trkpt lat="34.974164636805654" lon="-3.812893470749259">
        <ele>298.626708984375</ele>
        <time>2011-04-17T08:53:42Z</time>
      </trkpt>
      <trkpt lat="34.974030777812004" lon="-3.813171498477459">
        <ele>298.626708984375</ele>
        <time>2011-04-17T08:53:44Z</time>
      </trkpt>
      <trkpt lat="34.973477488383651" lon="-3.813897119835019">
        <ele>298.1461181640625</ele>
        <time>2011-04-17T08:53:50Z</time>
      </trkpt>
      <trkpt lat="34.973190659657121" lon="-3.813992589712143">
        <ele>296.7041015625</ele>
        <time>2011-04-17T08:53:52Z</time>
      </trkpt>
      <trkpt lat="34.972045524045825" lon="-3.814243795350194">
        <ele>295.74267578125</ele>
        <time>2011-04-17T08:53:59Z</time>
      </trkpt>
      <trkpt lat="34.971446134150028" lon="-3.814113037660718">
        <ele>296.7041015625</ele>
        <time>2011-04-17T08:54:03Z</time>
      </trkpt>
      <trkpt lat="34.97072302736342" lon="-3.813848840072751">
        <ele>298.626708984375</ele>
        <time>2011-04-17T08:54:08Z</time>
      </trkpt>
      <trkpt lat="34.968798123300076" lon="-3.81378186866641">
        <ele>303.9139404296875</ele>
        <time>2011-04-17T08:54:20Z</time>
      </trkpt>
      <trkpt lat="34.966986961662769" lon="-3.813751861453056">
        <ele>302.9525146484375</ele>
        <time>2011-04-17T08:54:31Z</time>
      </trkpt>
      <trkpt lat="34.966132761910558" lon="-3.813896868377924">
        <ele>299.5880126953125</ele>
        <time>2011-04-17T08:54:37Z</time>
      </trkpt>
      <trkpt lat="34.965788098052144" lon="-3.81399342790246">
        <ele>297.1846923828125</ele>
        <time>2011-04-17T08:54:40Z</time>
      </trkpt>
      <trkpt lat="34.965150570496917" lon="-3.81381263025105">
        <ele>294.30078125</ele>
        <time>2011-04-17T08:54:46Z</time>
      </trkpt>
      <trkpt lat="34.965048562735319" lon="-3.813705928623676">
        <ele>293.820068359375</ele>
        <time>2011-04-17T08:54:47Z</time>
      </trkpt>
      <trkpt lat="34.964073663577437" lon="-3.812598595395684">
        <ele>292.378173828125</ele>
        <time>2011-04-17T08:54:56Z</time>
      </trkpt>
      <trkpt lat="34.963418282568455" lon="-3.812347389757633">
        <ele>294.7813720703125</ele>
        <time>2011-04-17T08:55:01Z</time>
      </trkpt>
      <trkpt lat="34.962489986792207" lon="-3.812393322587013">
        <ele>298.1461181640625</ele>
        <time>2011-04-17T08:55:07Z</time>
      </trkpt>
      <trkpt lat="34.961941475048661" lon="-3.812085958197713">
        <ele>301.9913330078125</ele>
        <time>2011-04-17T08:55:12Z</time>
      </trkpt>
      <trkpt lat="34.961613323539495" lon="-3.811645824462175">
        <ele>306.7978515625</ele>
        <time>2011-04-17T08:55:16Z</time>
      </trkpt>
      <trkpt lat="34.960981830954552" lon="-3.811388164758682">
        <ele>309.681884765625</ele>
        <time>2011-04-17T08:55:22Z</time>
      </trkpt>
      <trkpt lat="34.96014665812254" lon="-3.811239637434483">
        <ele>312.5657958984375</ele>
        <time>2011-04-17T08:55:28Z</time>
      </trkpt>
      <trkpt lat="34.959477698430419" lon="-3.810890028253198">
        <ele>315.930419921875</ele>
        <time>2011-04-17T08:55:34Z</time>
      </trkpt>
      <trkpt lat="34.959099842235446" lon="-3.810750972479582">
        <ele>316.8917236328125</ele>
        <time>2011-04-17T08:55:37Z</time>
      </trkpt>
      <trkpt lat="34.958298364654183" lon="-3.810319388285279">
        <ele>318.8143310546875</ele>
        <time>2011-04-17T08:55:43Z</time>
      </trkpt>
      <trkpt lat="34.957429831847548" lon="-3.81023095920682">
        <ele>323.140380859375</ele>
        <time>2011-04-17T08:55:49Z</time>
      </trkpt>
      <trkpt lat="34.957281723618507" lon="-3.810231126844883">
        <ele>324.582275390625</ele>
        <time>2011-04-17T08:55:50Z</time>
      </trkpt>
      <trkpt lat="34.956331048160791" lon="-3.809930132701993">
        <ele>334.6761474609375</ele>
        <time>2011-04-17T08:55:57Z</time>
      </trkpt>
      <trkpt lat="34.955560080707073" lon="-3.809614051133394">
        <ele>341.885986328125</ele>
        <time>2011-04-17T08:56:04Z</time>
      </trkpt>
      <trkpt lat="34.955237964168191" lon="-3.809279780834913">
        <ele>346.2120361328125</ele>
        <time>2011-04-17T08:56:08Z</time>
      </trkpt>
      <trkpt lat="34.955122293904424" lon="-3.809059420600534">
        <ele>349.0958251953125</ele>
        <time>2011-04-17T08:56:10Z</time>
      </trkpt>
      <trkpt lat="34.954679980874062" lon="-3.808795558288693">
        <ele>356.3057861328125</ele>
        <time>2011-04-17T08:56:15Z</time>
      </trkpt>
      <trkpt lat="34.953250279650092" lon="-3.808926064521074">
        <ele>375.051513671875</ele>
        <time>2011-04-17T08:56:27Z</time>
      </trkpt>
      <trkpt lat="34.953141650184989" lon="-3.80893075838685">
        <ele>375.5321044921875</ele>
        <time>2011-04-17T08:56:28Z</time>
      </trkpt>
      <trkpt lat="34.952686261385679" lon="-3.808725317940116">
        <ele>379.8580322265625</ele>
        <time>2011-04-17T08:56:33Z</time>
      </trkpt>
      <trkpt lat="34.952616859227419" lon="-3.80862582474947">
        <ele>380.8194580078125</ele>
        <time>2011-04-17T08:56:34Z</time>
      </trkpt>
      <trkpt lat="34.952187538146973" lon="-3.80798033438623">
        <ele>388.510009765625</ele>
        <time>2011-04-17T08:56:40Z</time>
      </trkpt>
      <trkpt lat="34.951666351407766" lon="-3.807755950838327">
        <ele>396.2005615234375</ele>
        <time>2011-04-17T08:56:45Z</time>
      </trkpt>
      <trkpt lat="34.950967552140355" lon="-3.807768523693085">
        <ele>404.852294921875</ele>
        <time>2011-04-17T08:56:51Z</time>
      </trkpt>
      <trkpt lat="34.950546193867922" lon="-3.808127352967858">
        <ele>411.5816650390625</ele>
        <time>2011-04-17T08:56:56Z</time>
      </trkpt>
      <trkpt lat="34.95022558607161" lon="-3.808572599664331">
        <ele>418.310791015625</ele>
        <time>2011-04-17T08:57:00Z</time>
      </trkpt>
      <trkpt lat="34.949682522565126" lon="-3.80872062407434">
        <ele>423.117431640625</ele>
        <time>2011-04-17T08:57:05Z</time>
      </trkpt>
      <trkpt lat="34.949321262538433" lon="-3.808328518643975">
        <ele>424.0787353515625</ele>
        <time>2011-04-17T08:57:09Z</time>
      </trkpt>
      <trkpt lat="34.949219841510057" lon="-3.808018555864692">
        <ele>423.5980224609375</ele>
        <time>2011-04-17T08:57:11Z</time>
      </trkpt>
      <trkpt lat="34.948806278407574" lon="-3.806422641500831">
        <ele>424.0787353515625</ele>
        <time>2011-04-17T08:57:21Z</time>
      </trkpt>
      <trkpt lat="34.948717430233955" lon="-3.806152995675802">
        <ele>424.0787353515625</ele>
        <time>2011-04-17T08:57:23Z</time>
      </trkpt>
      <trkpt lat="34.948454573750496" lon="-3.805827191099525">
        <ele>423.5980224609375</ele>
        <time>2011-04-17T08:57:28Z</time>
      </trkpt>
      <trkpt lat="34.948231028392911" lon="-3.805856024846435">
        <ele>422.63671875</ele>
        <time>2011-04-17T08:57:31Z</time>
      </trkpt>
      <trkpt lat="34.94805651716888" lon="-3.805922660976648">
        <ele>423.117431640625</ele>
        <time>2011-04-17T08:57:33Z</time>
      </trkpt>
      <trkpt lat="34.947528624907136" lon="-3.805960966274142">
        <ele>426.9627685546875</ele>
        <time>2011-04-17T08:57:38Z</time>
      </trkpt>
      <trkpt lat="34.947223188355565" lon="-3.806273443624377">
        <ele>430.3272705078125</ele>
        <time>2011-04-17T08:57:43Z</time>
      </trkpt>
      <trkpt lat="34.946851031854749" lon="-3.80691952072084">
        <ele>437.0565185546875</ele>
        <time>2011-04-17T08:57:49Z</time>
      </trkpt>
      <trkpt lat="34.946488430723548" lon="-3.807068634778261">
        <ele>442.3438720703125</ele>
        <time>2011-04-17T08:57:52Z</time>
      </trkpt>
      <trkpt lat="34.946243846789002" lon="-3.807126637548208">
        <ele>445.2276611328125</ele>
        <time>2011-04-17T08:57:54Z</time>
      </trkpt>
      <trkpt lat="34.94570623151958" lon="-3.807409526780248">
        <ele>452.918212890625</ele>
        <time>2011-04-17T08:57:59Z</time>
      </trkpt>
      <trkpt lat="34.944931659847498" lon="-3.807512456551194">
        <ele>459.6475830078125</ele>
        <time>2011-04-17T08:58:05Z</time>
      </trkpt>
      <trkpt lat="34.94429362937808" lon="-3.807268375530839">
        <ele>461.0894775390625</ele>
        <time>2011-04-17T08:58:10Z</time>
      </trkpt>
      <trkpt lat="34.943614527583122" lon="-3.807091433554888">
        <ele>456.282958984375</ele>
        <time>2011-04-17T08:58:15Z</time>
      </trkpt>
      <trkpt lat="34.943142123520374" lon="-3.807346662506461">
        <ele>454.8408203125</ele>
        <time>2011-04-17T08:58:20Z</time>
      </trkpt>
      <trkpt lat="34.943108344450593" lon="-3.807940520346165">
        <ele>458.20556640625</ele>
        <time>2011-04-17T08:58:24Z</time>
      </trkpt>
      <trkpt lat="34.943158468231559" lon="-3.808236066251993">
        <ele>461.0894775390625</ele>
        <time>2011-04-17T08:58:26Z</time>
      </trkpt>
      <trkpt lat="34.943053526803851" lon="-3.808917431160808">
        <ele>467.8187255859375</ele>
        <time>2011-04-17T08:58:32Z</time>
      </trkpt>
      <trkpt lat="34.942709198221564" lon="-3.808953138068318">
        <ele>470.221923828125</ele>
        <time>2011-04-17T08:58:35Z</time>
      </trkpt>
      <trkpt lat="34.942583218216896" lon="-3.808915335685015">
        <ele>470.70263671875</ele>
        <time>2011-04-17T08:58:36Z</time>
      </trkpt>
      <trkpt lat="34.941334566101432" lon="-3.808396244421601">
        <ele>475.9898681640625</ele>
        <time>2011-04-17T08:58:45Z</time>
      </trkpt>
      <trkpt lat="34.940180126577616" lon="-3.808089466765523">
        <ele>474.0672607421875</ele>
        <time>2011-04-17T08:58:53Z</time>
      </trkpt>
      <trkpt lat="34.939346797764301" lon="-3.808042192831636">
        <ele>469.2607421875</ele>
        <time>2011-04-17T08:58:59Z</time>
      </trkpt>
      <trkpt lat="34.938821168616414" lon="-3.808356346562505">
        <ele>468.29931640625</ele>
        <time>2011-04-17T08:59:04Z</time>
      </trkpt>
      <trkpt lat="34.93855562992394" lon="-3.809145335108042">
        <ele>474.0672607421875</ele>
        <time>2011-04-17T08:59:10Z</time>
      </trkpt>
      <trkpt lat="34.938600137829781" lon="-3.809280283749104">
        <ele>475.0286865234375</ele>
        <time>2011-04-17T08:59:11Z</time>
      </trkpt>
      <trkpt lat="34.938555797562003" lon="-3.810004061087966">
        <ele>480.31591796875</ele>
        <time>2011-04-17T08:59:17Z</time>
      </trkpt>
      <trkpt lat="34.938065791502595" lon="-3.810396334156394">
        <ele>487.0450439453125</ele>
        <time>2011-04-17T08:59:22Z</time>
      </trkpt>
      <trkpt lat="34.937697155401111" lon="-3.810222828760743">
        <ele>488.9677734375</ele>
        <time>2011-04-17T08:59:25Z</time>
      </trkpt>
      <trkpt lat="34.937368584796786" lon="-3.809940358623862">
        <ele>489.9290771484375</ele>
        <time>2011-04-17T08:59:28Z</time>
      </trkpt>
      <trkpt lat="34.936857288703322" lon="-3.809848157688975">
        <ele>489.9290771484375</ele>
        <time>2011-04-17T08:59:33Z</time>
      </trkpt>
      <trkpt lat="34.936680430546403" lon="-3.810028368607163">
        <ele>488.4871826171875</ele>
        <time>2011-04-17T08:59:35Z</time>
      </trkpt>
      <trkpt lat="34.935952462255955" lon="-3.810743847861886">
        <ele>488.9677734375</ele>
        <time>2011-04-17T08:59:42Z</time>
      </trkpt>
      <trkpt lat="34.935467820614576" lon="-3.810879550874233">
        <ele>488.0064697265625</ele>
        <time>2011-04-17T08:59:46Z</time>
      </trkpt>
      <trkpt lat="34.934832137078047" lon="-3.811109131202102">
        <ele>487.0450439453125</ele>
        <time>2011-04-17T08:59:52Z</time>
      </trkpt>
      <trkpt lat="34.934743121266365" lon="-3.811218263581395">
        <ele>487.0450439453125</ele>
        <time>2011-04-17T08:59:53Z</time>
      </trkpt>
      <trkpt lat="34.934486886486411" lon="-3.811585642397404">
        <ele>485.1224365234375</ele>
        <time>2011-04-17T08:59:56Z</time>
      </trkpt>
      <trkpt lat="34.93431338109076" lon="-3.812014879658818">
        <ele>483.680419921875</ele>
        <time>2011-04-17T08:59:59Z</time>
      </trkpt>
      <trkpt lat="34.933908535167575" lon="-3.81262038834393">
        <ele>481.2772216796875</ele>
        <time>2011-04-17T09:00:04Z</time>
      </trkpt>
      <trkpt lat="34.933481980115175" lon="-3.812976367771626">
        <ele>477.9124755859375</ele>
        <time>2011-04-17T09:00:08Z</time>
      </trkpt>
      <trkpt lat="34.933044780045748" lon="-3.812973350286484">
        <ele>472.1446533203125</ele>
        <time>2011-04-17T09:00:13Z</time>
      </trkpt>
      <trkpt lat="34.932858617976308" lon="-3.812641594558954">
        <ele>469.7413330078125</ele>
        <time>2011-04-17T09:00:16Z</time>
      </trkpt>
      <trkpt lat="34.932752251625061" lon="-3.812384689226747">
        <ele>468.29931640625</ele>
        <time>2011-04-17T09:00:18Z</time>
      </trkpt>
      <trkpt lat="34.93228605017066" lon="-3.812111439183354">
        <ele>464.4541015625</ele>
        <time>2011-04-17T09:00:23Z</time>
      </trkpt>
      <trkpt lat="34.932001987472177" lon="-3.812334230169654">
        <ele>461.0894775390625</ele>
        <time>2011-04-17T09:00:26Z</time>
      </trkpt>
      <trkpt lat="34.931621868163347" lon="-3.81269222125411">
        <ele>457.2442626953125</ele>
        <time>2011-04-17T09:00:30Z</time>
      </trkpt>
      <trkpt lat="34.931136388331652" lon="-3.812781823799014">
        <ele>452.918212890625</ele>
        <time>2011-04-17T09:00:35Z</time>
      </trkpt>
      <trkpt lat="34.930940922349691" lon="-3.812523493543267">
        <ele>450.5150146484375</ele>
        <time>2011-04-17T09:00:38Z</time>
      </trkpt>
      <trkpt lat="34.930783761665225" lon="-3.812191318720579">
        <ele>448.5924072265625</ele>
        <time>2011-04-17T09:00:41Z</time>
      </trkpt>
      <trkpt lat="34.930409425869584" lon="-3.812040025368333">
        <ele>447.1502685546875</ele>
        <time>2011-04-17T09:00:46Z</time>
      </trkpt>
      <trkpt lat="34.930103318765759" lon="-3.812394496053457">
        <ele>447.1502685546875</ele>
        <time>2011-04-17T09:00:50Z</time>
      </trkpt>
      <trkpt lat="34.929675841704011" lon="-3.812502538785338">
        <ele>442.3438720703125</ele>
        <time>2011-04-17T09:00:54Z</time>
      </trkpt>
      <trkpt lat="34.92936797440052" lon="-3.812209172174335">
        <ele>443.3050537109375</ele>
        <time>2011-04-17T09:00:58Z</time>
      </trkpt>
      <trkpt lat="34.929054575040936" lon="-3.81172763183713">
        <ele>446.669677734375</ele>
        <time>2011-04-17T09:01:03Z</time>
      </trkpt>
      <trkpt lat="34.928473038598895" lon="-3.811536189168692">
        <ele>452.4376220703125</ele>
        <time>2011-04-17T09:01:08Z</time>
      </trkpt>
      <trkpt lat="34.927610624581575" lon="-3.811166547238827">
        <ele>462.05078125</ele>
        <time>2011-04-17T09:01:16Z</time>
      </trkpt>
      <trkpt lat="34.927512221038342" lon="-3.811098653823137">
        <ele>462.5313720703125</ele>
        <time>2011-04-17T09:01:17Z</time>
      </trkpt>
      <trkpt lat="34.927233355119824" lon="-3.810618035495281">
        <ele>466.376708984375</ele>
        <time>2011-04-17T09:01:22Z</time>
      </trkpt>
      <trkpt lat="34.926920039579272" lon="-3.810098273679614">
        <ele>469.7413330078125</ele>
        <time>2011-04-17T09:01:28Z</time>
      </trkpt>
      <trkpt lat="34.92671225219965" lon="-3.810070026665926">
        <ele>472.1446533203125</ele>
        <time>2011-04-17T09:01:30Z</time>
      </trkpt>
      <trkpt lat="34.926078831776977" lon="-3.81005167029798">
        <ele>477.431884765625</ele>
        <time>2011-04-17T09:01:36Z</time>
      </trkpt>
      <trkpt lat="34.925729390233755" lon="-3.809750843793154">
        <ele>478.3931884765625</ele>
        <time>2011-04-17T09:01:41Z</time>
      </trkpt>
      <trkpt lat="34.925705920904875" lon="-3.809190848842263">
        <ele>477.431884765625</ele>
        <time>2011-04-17T09:01:45Z</time>
      </trkpt>
      <trkpt lat="34.925992581993341" lon="-3.807773971930146">
        <ele>477.431884765625</ele>
        <time>2011-04-17T09:01:52Z</time>
      </trkpt>
      <trkpt lat="34.926162399351597" lon="-3.806648030877113">
        <ele>479.3544921875</ele>
        <time>2011-04-17T09:01:57Z</time>
      </trkpt>
      <trkpt lat="34.926042119041085" lon="-3.806072194129229">
        <ele>483.1998291015625</ele>
        <time>2011-04-17T09:02:01Z</time>
      </trkpt>
      <trkpt lat="34.925956455990672" lon="-3.805957697331905">
        <ele>484.641845703125</ele>
        <time>2011-04-17T09:02:02Z</time>
      </trkpt>
      <trkpt lat="34.924933360889554" lon="-3.804444679990411">
        <ele>500.02294921875</ele>
        <time>2011-04-17T09:02:14Z</time>
      </trkpt>
      <trkpt lat="34.92478852160275" lon="-3.804080737754703">
        <ele>501.945556640625</ele>
        <time>2011-04-17T09:02:17Z</time>
      </trkpt>
      <trkpt lat="34.924486521631479" lon="-3.803765242919326">
        <ele>506.271484375</ele>
        <time>2011-04-17T09:02:23Z</time>
      </trkpt>
      <trkpt lat="34.924080418422818" lon="-3.803802123293281">
        <ele>509.6361083984375</ele>
        <time>2011-04-17T09:02:28Z</time>
      </trkpt>
      <trkpt lat="34.923830637708306" lon="-3.804067829623818">
        <ele>510.5972900390625</ele>
        <time>2011-04-17T09:02:31Z</time>
      </trkpt>
      <trkpt lat="34.923355299979448" lon="-3.804446440190077">
        <ele>512.52001953125</ele>
        <time>2011-04-17T09:02:36Z</time>
      </trkpt>
      <trkpt lat="34.921471467241645" lon="-3.804816082119942">
        <ele>524.5364990234375</ele>
        <time>2011-04-17T09:02:50Z</time>
      </trkpt>
      <trkpt lat="34.92077543400228" lon="-3.804943487048149">
        <ele>525.497802734375</ele>
        <time>2011-04-17T09:02:55Z</time>
      </trkpt>
      <trkpt lat="34.920333120971918" lon="-3.805315056815743">
        <ele>526.9398193359375</ele>
        <time>2011-04-17T09:03:00Z</time>
      </trkpt>
      <trkpt lat="34.920315518975258" lon="-3.805898688733578">
        <ele>528.3818359375</ele>
        <time>2011-04-17T09:03:04Z</time>
      </trkpt>
      <trkpt lat="34.920115023851395" lon="-3.806668482720852">
        <ele>530.78515625</ele>
        <time>2011-04-17T09:03:09Z</time>
      </trkpt>
      <trkpt lat="34.919679248705506" lon="-3.807111298665404">
        <ele>534.149658203125</ele>
        <time>2011-04-17T09:03:13Z</time>
      </trkpt>
      <trkpt lat="34.919225284829736" lon="-3.807204337790608">
        <ele>534.63037109375</ele>
        <time>2011-04-17T09:03:16Z</time>
      </trkpt>
      <trkpt lat="34.918546518310905" lon="-3.807187573984265">
        <ele>534.63037109375</ele>
        <time>2011-04-17T09:03:20Z</time>
      </trkpt>
      <trkpt lat="34.917592238634825" lon="-3.807606669142842">
        <ele>536.0723876953125</ele>
        <time>2011-04-17T09:03:26Z</time>
      </trkpt>
      <trkpt lat="34.917221255600452" lon="-3.808008497580886">
        <ele>536.5531005859375</ele>
        <time>2011-04-17T09:03:29Z</time>
      </trkpt>
      <trkpt lat="34.916280219331384" lon="-3.809562083333731">
        <ele>537.9949951171875</ele>
        <time>2011-04-17T09:03:38Z</time>
      </trkpt>
      <trkpt lat="34.915446387603879" lon="-3.810491720214486">
        <ele>540.87890625</ele>
        <time>2011-04-17T09:03:44Z</time>
      </trkpt>
      <trkpt lat="34.914485486224294" lon="-3.810864463448525">
        <ele>547.12744140625</ele>
        <time>2011-04-17T09:03:50Z</time>
      </trkpt>
      <trkpt lat="34.913713093847036" lon="-3.811047859489918">
        <ele>551.93408203125</ele>
        <time>2011-04-17T09:03:55Z</time>
      </trkpt>
      <trkpt lat="34.913139017298818" lon="-3.811596455052495">
        <ele>555.779296875</ele>
        <time>2011-04-17T09:04:00Z</time>
      </trkpt>
      <trkpt lat="34.912968529388309" lon="-3.812319478020072">
        <ele>560.5859375</ele>
        <time>2011-04-17T09:04:04Z</time>
      </trkpt>
      <trkpt lat="34.913125354796648" lon="-3.812879472970963">
        <ele>563.950439453125</ele>
        <time>2011-04-17T09:04:07Z</time>
      </trkpt>
      <trkpt lat="34.91336147300899" lon="-3.813373083248735">
        <ele>568.2763671875</ele>
        <time>2011-04-17T09:04:10Z</time>
      </trkpt>
      <trkpt lat="34.913390725851059" lon="-3.814046736806631">
        <ele>575.967041015625</ele>
        <time>2011-04-17T09:04:15Z</time>
      </trkpt>
      <trkpt lat="34.913076069205999" lon="-3.814115049317479">
        <ele>581.25439453125</ele>
        <time>2011-04-17T09:04:18Z</time>
      </trkpt>
      <trkpt lat="34.912809021770954" lon="-3.813868789002299">
        <ele>586.54150390625</ele>
        <time>2011-04-17T09:04:21Z</time>
      </trkpt>
      <trkpt lat="34.912594947963953" lon="-3.813317846506834">
        <ele>592.3095703125</ele>
        <time>2011-04-17T09:04:26Z</time>
      </trkpt>
      <trkpt lat="34.912584722042084" lon="-3.813081476837397">
        <ele>594.712646484375</ele>
        <time>2011-04-17T09:04:28Z</time>
      </trkpt>
      <trkpt lat="34.912307448685169" lon="-3.812569929286838">
        <ele>599.03857421875</ele>
        <time>2011-04-17T09:04:33Z</time>
      </trkpt>
      <trkpt lat="34.911936046555638" lon="-3.812360884621739">
        <ele>602.8837890625</ele>
        <time>2011-04-17T09:04:37Z</time>
      </trkpt>
      <trkpt lat="34.911503456532955" lon="-3.811891749501228">
        <ele>607.690673828125</ele>
        <time>2011-04-17T09:04:43Z</time>
      </trkpt>
      <trkpt lat="34.911519968882203" lon="-3.811623947694898">
        <ele>608.65185546875</ele>
        <time>2011-04-17T09:04:45Z</time>
      </trkpt>
      <trkpt lat="34.911844180896878" lon="-3.810973344370723">
        <ele>611.05517578125</ele>
        <time>2011-04-17T09:04:51Z</time>
      </trkpt>
      <trkpt lat="34.912112569436431" lon="-3.810592470690608">
        <ele>613.93896484375</ele>
        <time>2011-04-17T09:04:57Z</time>
      </trkpt>
      <trkpt lat="34.912092871963978" lon="-3.810468083247542">
        <ele>614.900390625</ele>
        <time>2011-04-17T09:04:59Z</time>
      </trkpt>
      <trkpt lat="34.911950631067157" lon="-3.809967264533043">
        <ele>618.74560546875</ele>
        <time>2011-04-17T09:05:05Z</time>
      </trkpt>
      <trkpt lat="34.911538492888212" lon="-3.809478431940079">
        <ele>624.032958984375</ele>
        <time>2011-04-17T09:05:11Z</time>
      </trkpt>
      <trkpt lat="34.91138057783246" lon="-3.809019355103374">
        <ele>627.878173828125</ele>
        <time>2011-04-17T09:05:16Z</time>
      </trkpt>
      <trkpt lat="34.911610577255487" lon="-3.808822967112064">
        <ele>628.35888671875</ele>
        <time>2011-04-17T09:05:19Z</time>
      </trkpt>
      <trkpt lat="34.911808138713241" lon="-3.808788182213903">
        <ele>628.35888671875</ele>
        <time>2011-04-17T09:05:21Z</time>
      </trkpt>
      <trkpt lat="34.912231089547276" lon="-3.808524319902062">
        <ele>631.723388671875</ele>
        <time>2011-04-17T09:05:27Z</time>
      </trkpt>
      <trkpt lat="34.912165123969316" lon="-3.80813087336719">
        <ele>635.568603515625</ele>
        <time>2011-04-17T09:05:31Z</time>
      </trkpt>
      <trkpt lat="34.912096057087183" lon="-3.807811522856355">
        <ele>638.452880859375</ele>
        <time>2011-04-17T09:05:34Z</time>
      </trkpt>
      <trkpt lat="34.912235448136926" lon="-3.807283798232675">
        <ele>643.25927734375</ele>
        <time>2011-04-17T09:05:39Z</time>
      </trkpt>
      <trkpt lat="34.912330750375986" lon="-3.807218419387937">
        <ele>644.220703125</ele>
        <time>2011-04-17T09:05:40Z</time>
      </trkpt>
      <trkpt lat="34.912646664306521" lon="-3.806694382801652">
        <ele>650.46923828125</ele>
        <time>2011-04-17T09:05:46Z</time>
      </trkpt>
      <trkpt lat="34.912517499178648" lon="-3.806476872414351">
        <ele>652.391845703125</ele>
        <time>2011-04-17T09:05:48Z</time>
      </trkpt>
      <trkpt lat="34.912326140329242" lon="-3.806116618216038">
        <ele>654.795166015625</ele>
        <time>2011-04-17T09:05:51Z</time>
      </trkpt>
      <trkpt lat="34.9119483679533" lon="-3.805747227743268">
        <ele>659.12109375</ele>
        <time>2011-04-17T09:05:55Z</time>
      </trkpt>
      <trkpt lat="34.911588868126273" lon="-3.805535584688187">
        <ele>662.005126953125</ele>
        <time>2011-04-17T09:05:58Z</time>
      </trkpt>
      <trkpt lat="34.910865258425474" lon="-3.805365180596709">
        <ele>668.253662109375</ele>
        <time>2011-04-17T09:06:04Z</time>
      </trkpt>
      <trkpt lat="34.910400984808803" lon="-3.804899733513594">
        <ele>672.57958984375</ele>
        <time>2011-04-17T09:06:09Z</time>
      </trkpt>
      <trkpt lat="34.910299982875586" lon="-3.804234880954027">
        <ele>675.46337890625</ele>
        <time>2011-04-17T09:06:14Z</time>
      </trkpt>
      <trkpt lat="34.910732069984078" lon="-3.804034637287259">
        <ele>677.86669921875</ele>
        <time>2011-04-17T09:06:18Z</time>
      </trkpt>
      <trkpt lat="34.911228781566024" lon="-3.803965151309967">
        <ele>682.192626953125</ele>
        <time>2011-04-17T09:06:22Z</time>
      </trkpt>
      <trkpt lat="34.91167813539505" lon="-3.803694918751717">
        <ele>686.999267578125</ele>
        <time>2011-04-17T09:06:26Z</time>
      </trkpt>
      <trkpt lat="34.911808725446463" lon="-3.803707072511315">
        <ele>688.922119140625</ele>
        <time>2011-04-17T09:06:27Z</time>
      </trkpt>
      <trkpt lat="34.912480534985662" lon="-3.803588468581438">
        <ele>695.651123046875</ele>
        <time>2011-04-17T09:06:32Z</time>
      </trkpt>
      <trkpt lat="34.912747666239738" lon="-3.803521748632193">
        <ele>698.534912109375</ele>
        <time>2011-04-17T09:06:34Z</time>
      </trkpt>
      <trkpt lat="34.913159217685461" lon="-3.80316786468029">
        <ele>704.30322265625</ele>
        <time>2011-04-17T09:06:39Z</time>
      </trkpt>
      <trkpt lat="34.913562973961234" lon="-3.802826553583145">
        <ele>709.109619140625</ele>
        <time>2011-04-17T09:06:44Z</time>
      </trkpt>
      <trkpt lat="34.914160184562206" lon="-3.802383150905371">
        <ele>712.954833984375</ele>
        <time>2011-04-17T09:06:50Z</time>
      </trkpt>
      <trkpt lat="34.914350118488073" lon="-3.80215784534812">
        <ele>713.916015625</ele>
        <time>2011-04-17T09:06:52Z</time>
      </trkpt>
      <trkpt lat="34.914500489830971" lon="-3.80151336081326">
        <ele>715.8388671875</ele>
        <time>2011-04-17T09:06:57Z</time>
      </trkpt>
      <trkpt lat="34.914194298908114" lon="-3.801353937014937">
        <ele>718.2421875</ele>
        <time>2011-04-17T09:07:00Z</time>
      </trkpt>
      <trkpt lat="34.913957845419645" lon="-3.80131253041327">
        <ele>720.6455078125</ele>
        <time>2011-04-17T09:07:02Z</time>
      </trkpt>
      <trkpt lat="34.913461720570922" lon="-3.801191747188568">
        <ele>725.451904296875</ele>
        <time>2011-04-17T09:07:06Z</time>
      </trkpt>
      <trkpt lat="34.912614226341248" lon="-3.800786146894097">
        <ele>732.662109375</ele>
        <time>2011-04-17T09:07:13Z</time>
      </trkpt>
      <trkpt lat="34.912504758685827" lon="-3.800734598189592">
        <ele>733.142578125</ele>
        <time>2011-04-17T09:07:14Z</time>
      </trkpt>
      <trkpt lat="34.912218684330583" lon="-3.800276694819331">
        <ele>737.468505859375</ele>
        <time>2011-04-17T09:07:19Z</time>
      </trkpt>
      <trkpt lat="34.912487743422389" lon="-3.79983002319932">
        <ele>739.39111328125</ele>
        <time>2011-04-17T09:07:23Z</time>
      </trkpt>
      <trkpt lat="34.913033237680793" lon="-3.799801943823695">
        <ele>742.755859375</ele>
        <time>2011-04-17T09:07:27Z</time>
      </trkpt>
      <trkpt lat="34.913731534034014" lon="-3.79972642287612">
        <ele>750.927001953125</ele>
        <time>2011-04-17T09:07:32Z</time>
      </trkpt>
      <trkpt lat="34.914112659171224" lon="-3.799536153674126">
        <ele>754.772216796875</ele>
        <time>2011-04-17T09:07:35Z</time>
      </trkpt>
      <trkpt lat="34.914680952206254" lon="-3.799048746004701">
        <ele>761.50146484375</ele>
        <time>2011-04-17T09:07:41Z</time>
      </trkpt>
      <trkpt lat="34.915145728737116" lon="-3.799231387674809">
        <ele>765.346923828125</ele>
        <time>2011-04-17T09:07:45Z</time>
      </trkpt>
      <trkpt lat="34.915739921852946" lon="-3.799344962462783">
        <ele>772.556640625</ele>
        <time>2011-04-17T09:07:50Z</time>
      </trkpt>
      <trkpt lat="34.916101517155766" lon="-3.798916395753622">
        <ele>773.51806640625</ele>
        <time>2011-04-17T09:07:54Z</time>
      </trkpt>
      <trkpt lat="34.916002945974469" lon="-3.798415828496218">
        <ele>774.9599609375</ele>
        <time>2011-04-17T09:07:58Z</time>
      </trkpt>
      <trkpt lat="34.915773952379823" lon="-3.798279454931617">
        <ele>777.36328125</ele>
        <time>2011-04-17T09:08:00Z</time>
      </trkpt>
      <trkpt lat="34.915413782000542" lon="-3.798082144930959">
        <ele>781.208740234375</ele>
        <time>2011-04-17T09:08:03Z</time>
      </trkpt>
      <trkpt lat="34.914629990234971" lon="-3.797219563275576">
        <ele>790.821533203125</ele>
        <time>2011-04-17T09:08:11Z</time>
      </trkpt>
      <trkpt lat="34.914212319999933" lon="-3.797117723152041">
        <ele>795.1474609375</ele>
        <time>2011-04-17T09:08:16Z</time>
      </trkpt>
      <trkpt lat="34.913391228765249" lon="-3.797414191067219">
        <ele>804.7607421875</ele>
        <time>2011-04-17T09:08:23Z</time>
      </trkpt>
      <trkpt lat="34.912668121978641" lon="-3.797549558803439">
        <ele>811.970703125</ele>
        <time>2011-04-17T09:08:28Z</time>
      </trkpt>
      <trkpt lat="34.911830686032772" lon="-3.797367922961712">
        <ele>820.62255859375</ele>
        <time>2011-04-17T09:08:34Z</time>
      </trkpt>
      <trkpt lat="34.911202881485224" lon="-3.796825865283608">
        <ele>827.832275390625</ele>
        <time>2011-04-17T09:08:40Z</time>
      </trkpt>
      <trkpt lat="34.91065101698041" lon="-3.796398639678955">
        <ele>834.0810546875</ele>
        <time>2011-04-17T09:08:47Z</time>
      </trkpt>
      <trkpt lat="34.909938722848892" lon="-3.796154474839568">
        <ele>841.290771484375</ele>
        <time>2011-04-17T09:08:53Z</time>
      </trkpt>
      <trkpt lat="34.90899751894176" lon="-3.795853480696678">
        <ele>850.904052734375</ele>
        <time>2011-04-17T09:09:00Z</time>
      </trkpt>
      <trkpt lat="34.907977860420942" lon="-3.795052170753479">
        <ele>861.95947265625</ele>
        <time>2011-04-17T09:09:08Z</time>
      </trkpt>
      <trkpt lat="34.907599333673716" lon="-3.794768443331122">
        <ele>866.28515625</ele>
        <time>2011-04-17T09:09:11Z</time>
      </trkpt>
      <trkpt lat="34.906923584640026" lon="-3.79459292627871">
        <ele>873.014404296875</ele>
        <time>2011-04-17T09:09:16Z</time>
      </trkpt>
      <trkpt lat="34.906353950500488" lon="-3.79422303289175">
        <ele>879.262939453125</ele>
        <time>2011-04-17T09:09:21Z</time>
      </trkpt>
      <trkpt lat="34.905748944729567" lon="-3.793301358819008">
        <ele>889.356689453125</ele>
        <time>2011-04-17T09:09:28Z</time>
      </trkpt>
      <trkpt lat="34.905303446575999" lon="-3.792418660596013">
        <ele>898.0087890625</ele>
        <time>2011-04-17T09:09:34Z</time>
      </trkpt>
      <trkpt lat="34.904795419424772" lon="-3.792112050577998">
        <ele>904.25732421875</ele>
        <time>2011-04-17T09:09:39Z</time>
      </trkpt>
      <trkpt lat="34.904546393081546" lon="-3.792131077498198">
        <ele>906.1796875</ele>
        <time>2011-04-17T09:09:41Z</time>
      </trkpt>
      <trkpt lat="34.904001150280237" lon="-3.792514633387327">
        <ele>911.947998046875</ele>
        <time>2011-04-17T09:09:46Z</time>
      </trkpt>
      <trkpt lat="34.903461020439863" lon="-3.792625525966287">
        <ele>916.75439453125</ele>
        <time>2011-04-17T09:09:51Z</time>
      </trkpt>
      <trkpt lat="34.903211994096637" lon="-3.792345989495516">
        <ele>919.15771484375</ele>
        <time>2011-04-17T09:09:54Z</time>
      </trkpt>
      <trkpt lat="34.902460472658277" lon="-3.791326079517603">
        <ele>928.290283203125</ele>
        <time>2011-04-17T09:10:02Z</time>
      </trkpt>
      <trkpt lat="34.90211958065629" lon="-3.790949061512947">
        <ele>931.65478515625</ele>
        <time>2011-04-17T09:10:05Z</time>
      </trkpt>
      <trkpt lat="34.901866866275668" lon="-3.790135681629181">
        <ele>935.980712890625</ele>
        <time>2011-04-17T09:10:10Z</time>
      </trkpt>
      <trkpt lat="34.901876337826252" lon="-3.789949435740709">
        <ele>937.422607421875</ele>
        <time>2011-04-17T09:10:11Z</time>
      </trkpt>
      <trkpt lat="34.901980692520738" lon="-3.788622580468655">
        <ele>946.555419921875</ele>
        <time>2011-04-17T09:10:18Z</time>
      </trkpt>
      <trkpt lat="34.902087477967143" lon="-3.788154870271683">
        <ele>949.439208984375</ele>
        <time>2011-04-17T09:10:21Z</time>
      </trkpt>
      <trkpt lat="34.901930317282677" lon="-3.787738457322121">
        <ele>951.842529296875</ele>
        <time>2011-04-17T09:10:26Z</time>
      </trkpt>
      <trkpt lat="34.901631250977516" lon="-3.787182988598943">
        <ele>951.36181640625</ele>
        <time>2011-04-17T09:10:32Z</time>
      </trkpt>
      <trkpt lat="34.901665365323424" lon="-3.787040077149868">
        <ele>950.881103515625</ele>
        <time>2011-04-17T09:10:33Z</time>
      </trkpt>
      <trkpt lat="34.901746418327093" lon="-3.786764647811651">
        <ele>951.36181640625</ele>
        <time>2011-04-17T09:10:35Z</time>
      </trkpt>
      <trkpt lat="34.901661593466997" lon="-3.786399196833372">
        <ele>950.400634765625</ele>
        <time>2011-04-17T09:10:39Z</time>
      </trkpt>
      <trkpt lat="34.901458583772182" lon="-3.786375978961587">
        <ele>949.919921875</ele>
        <time>2011-04-17T09:10:41Z</time>
      </trkpt>
      <trkpt lat="34.900591894984245" lon="-3.786366675049067">
        <ele>948.95849609375</ele>
        <time>2011-04-17T09:10:48Z</time>
      </trkpt>
      <trkpt lat="34.90002921782434" lon="-3.785986723378301">
        <ele>948.95849609375</ele>
        <time>2011-04-17T09:10:53Z</time>
      </trkpt>
      <trkpt lat="34.899762673303485" lon="-3.785385992377996">
        <ele>949.439208984375</ele>
        <time>2011-04-17T09:10:57Z</time>
      </trkpt>
      <trkpt lat="34.89949319511652" lon="-3.784582251682878">
        <ele>950.400634765625</ele>
        <time>2011-04-17T09:11:02Z</time>
      </trkpt>
      <trkpt lat="34.899128247052431" lon="-3.784219566732645">
        <ele>950.881103515625</ele>
        <time>2011-04-17T09:11:06Z</time>
      </trkpt>
      <trkpt lat="34.89832584746182" lon="-3.783580865710974">
        <ele>949.919921875</ele>
        <time>2011-04-17T09:11:13Z</time>
      </trkpt>
      <trkpt lat="34.898136332631111" lon="-3.783368216827512">
        <ele>949.439208984375</ele>
        <time>2011-04-17T09:11:15Z</time>
      </trkpt>
      <trkpt lat="34.897961318492889" lon="-3.782712249085307">
        <ele>947.035888671875</ele>
        <time>2011-04-17T09:11:20Z</time>
      </trkpt>
      <trkpt lat="34.898003647103906" lon="-3.782562799751759">
        <ele>946.555419921875</ele>
        <time>2011-04-17T09:11:21Z</time>
      </trkpt>
      <trkpt lat="34.898514524102211" lon="-3.781039221212268">
        <ele>941.748779296875</ele>
        <time>2011-04-17T09:11:30Z</time>
      </trkpt>
      <trkpt lat="34.898638995364308" lon="-3.780555836856365">
        <ele>940.787353515625</ele>
        <time>2011-04-17T09:11:33Z</time>
      </trkpt>
      <trkpt lat="34.898534137755632" lon="-3.780023669824004">
        <ele>938.86474609375</ele>
        <time>2011-04-17T09:11:38Z</time>
      </trkpt>
      <trkpt lat="34.898436823859811" lon="-3.779951753094792">
        <ele>938.384033203125</ele>
        <time>2011-04-17T09:11:39Z</time>
      </trkpt>
      <trkpt lat="34.897925779223442" lon="-3.779531484469771">
        <ele>934.538818359375</ele>
        <time>2011-04-17T09:11:44Z</time>
      </trkpt>
      <trkpt lat="34.897840367630124" lon="-3.779020188376308">
        <ele>930.212890625</ele>
        <time>2011-04-17T09:11:49Z</time>
      </trkpt>
      <trkpt lat="34.897989230230451" lon="-3.77860888838768">
        <ele>926.36767578125</ele>
        <time>2011-04-17T09:11:53Z</time>
      </trkpt>
      <trkpt lat="34.897875152528286" lon="-3.778390288352966">
        <ele>923.964111328125</ele>
        <time>2011-04-17T09:11:55Z</time>
      </trkpt>
      <trkpt lat="34.897709945216775" lon="-3.778162468224764">
        <ele>922.04150390625</ele>
        <time>2011-04-17T09:11:57Z</time>
      </trkpt>
      <trkpt lat="34.897167971357703" lon="-3.777895169332624">
        <ele>919.638427734375</ele>
        <time>2011-04-17T09:12:02Z</time>
      </trkpt>
      <trkpt lat="34.896835377439857" lon="-3.777719233185053">
        <ele>920.118896484375</ele>
        <time>2011-04-17T09:12:05Z</time>
      </trkpt>
      <trkpt lat="34.896517032757401" lon="-3.777140798047185">
        <ele>921.560791015625</ele>
        <time>2011-04-17T09:12:11Z</time>
      </trkpt>
      <trkpt lat="34.896533964201808" lon="-3.777009788900614">
        <ele>921.560791015625</ele>
        <time>2011-04-17T09:12:12Z</time>
      </trkpt>
      <trkpt lat="34.896668745204806" lon="-3.776435796171427">
        <ele>922.04150390625</ele>
        <time>2011-04-17T09:12:16Z</time>
      </trkpt>
      <trkpt lat="34.897074345499277" lon="-3.775977725163102">
        <ele>920.599609375</ele>
        <time>2011-04-17T09:12:21Z</time>
      </trkpt>
      <trkpt lat="34.897200241684914" lon="-3.77593707293272">
        <ele>920.118896484375</ele>
        <time>2011-04-17T09:12:22Z</time>
      </trkpt>
      <trkpt lat="34.897569883614779" lon="-3.775840764865279">
        <ele>918.677001953125</ele>
        <time>2011-04-17T09:12:25Z</time>
      </trkpt>
      <trkpt lat="34.89781329408288" lon="-3.775456622242928">
        <ele>918.677001953125</ele>
        <time>2011-04-17T09:12:30Z</time>
      </trkpt>
      <trkpt lat="34.897713968530297" lon="-3.77521438524127">
        <ele>918.1962890625</ele>
        <time>2011-04-17T09:12:32Z</time>
      </trkpt>
      <trkpt lat="34.897076357156038" lon="-3.774195984005928">
        <ele>914.35107421875</ele>
        <time>2011-04-17T09:12:39Z</time>
      </trkpt>
      <trkpt lat="34.896542597562075" lon="-3.773456197232008">
        <ele>913.870361328125</ele>
        <time>2011-04-17T09:12:45Z</time>
      </trkpt>
      <trkpt lat="34.896373450756073" lon="-3.7729471642524">
        <ele>912.428466796875</ele>
        <time>2011-04-17T09:12:49Z</time>
      </trkpt>
      <trkpt lat="34.896366661414504" lon="-3.772643823176622">
        <ele>910.986572265625</ele>
        <time>2011-04-17T09:12:51Z</time>
      </trkpt>
      <trkpt lat="34.896197598427534" lon="-3.772058263421059">
        <ele>909.06396484375</ele>
        <time>2011-04-17T09:12:55Z</time>
      </trkpt>
      <trkpt lat="34.895935747772455" lon="-3.771497178822756">
        <ele>907.14111328125</ele>
        <time>2011-04-17T09:12:59Z</time>
      </trkpt>
      <trkpt lat="34.895695270970464" lon="-3.7702083773911">
        <ele>899.931396484375</ele>
        <time>2011-04-17T09:13:07Z</time>
      </trkpt>
      <trkpt lat="34.895538780838251" lon="-3.76933422870934">
        <ele>893.2021484375</ele>
        <time>2011-04-17T09:13:12Z</time>
      </trkpt>
      <trkpt lat="34.895074591040611" lon="-3.76837944611907">
        <ele>884.069580078125</ele>
        <time>2011-04-17T09:13:18Z</time>
      </trkpt>
      <trkpt lat="34.893904393538833" lon="-3.766348091885448">
        <ele>866.765869140625</ele>
        <time>2011-04-17T09:13:29Z</time>
      </trkpt>
      <trkpt lat="34.892787672579288" lon="-3.764760391786695">
        <ele>854.268798828125</ele>
        <time>2011-04-17T09:13:37Z</time>
      </trkpt>
      <trkpt lat="34.891706323251128" lon="-3.763346699997783">
        <ele>844.655517578125</ele>
        <time>2011-04-17T09:13:45Z</time>
      </trkpt>
      <trkpt lat="34.891385631635785" lon="-3.762951660901308">
        <ele>842.252197265625</ele>
        <time>2011-04-17T09:13:48Z</time>
      </trkpt>
      <trkpt lat="34.890760257840157" lon="-3.762891227379441">
        <ele>839.3681640625</ele>
        <time>2011-04-17T09:13:53Z</time>
      </trkpt>
      <trkpt lat="34.890323393046856" lon="-3.763200519606471">
        <ele>838.406982421875</ele>
        <time>2011-04-17T09:13:57Z</time>
      </trkpt>
      <trkpt lat="34.890070427209139" lon="-3.7630660738796">
        <ele>836.96484375</ele>
        <time>2011-04-17T09:14:00Z</time>
      </trkpt>
      <trkpt lat="34.88995567895472" lon="-3.762804223224521">
        <ele>835.52294921875</ele>
        <time>2011-04-17T09:14:02Z</time>
      </trkpt>
      <trkpt lat="34.889462068676949" lon="-3.761316183954477">
        <ele>829.755126953125</ele>
        <time>2011-04-17T09:14:11Z</time>
      </trkpt>
      <trkpt lat="34.88961705006659" lon="-3.760674381628633">
        <ele>824.948486328125</ele>
        <time>2011-04-17T09:14:16Z</time>
      </trkpt>
      <trkpt lat="34.890074282884598" lon="-3.760502049699426">
        <ele>821.583740234375</ele>
        <time>2011-04-17T09:14:20Z</time>
      </trkpt>
      <trkpt lat="34.890607036650181" lon="-3.760413788259029">
        <ele>817.738525390625</ele>
        <time>2011-04-17T09:14:25Z</time>
      </trkpt>
      <trkpt lat="34.890695968642831" lon="-3.760305158793926">
        <ele>816.77734375</ele>
        <time>2011-04-17T09:14:26Z</time>
      </trkpt>
      <trkpt lat="34.890947928652167" lon="-3.75995353795588">
        <ele>813.412841796875</ele>
        <time>2011-04-17T09:14:29Z</time>
      </trkpt>
      <trkpt lat="34.891012385487556" lon="-3.759323386475444">
        <ele>808.60595703125</ele>
        <time>2011-04-17T09:14:34Z</time>
      </trkpt>
      <trkpt lat="34.890567474067211" lon="-3.758669598028064">
        <ele>804.2802734375</ele>
        <time>2011-04-17T09:14:40Z</time>
      </trkpt>
      <trkpt lat="34.889341033995152" lon="-3.757943557575345">
        <ele>796.109130859375</ele>
        <time>2011-04-17T09:14:50Z</time>
      </trkpt>
      <trkpt lat="34.888914730399847" lon="-3.757538627833128">
        <ele>793.70556640625</ele>
        <time>2011-04-17T09:14:54Z</time>
      </trkpt>
      <trkpt lat="34.888696046546102" lon="-3.756916522979736">
        <ele>790.341064453125</ele>
        <time>2011-04-17T09:14:59Z</time>
      </trkpt>
      <trkpt lat="34.888835353776813" lon="-3.756351582705975">
        <ele>787.45703125</ele>
        <time>2011-04-17T09:15:03Z</time>
      </trkpt>
      <trkpt lat="34.888756982982159" lon="-3.756040027365089">
        <ele>785.534423828125</ele>
        <time>2011-04-17T09:15:05Z</time>
      </trkpt>
      <trkpt lat="34.888367978855968" lon="-3.754234816879034">
        <ele>782.169921875</ele>
        <time>2011-04-17T09:15:15Z</time>
      </trkpt>
      <trkpt lat="34.888499574735761" lon="-3.752717524766922">
        <ele>774.479248046875</ele>
        <time>2011-04-17T09:15:23Z</time>
      </trkpt>
      <trkpt lat="34.888965440914035" lon="-3.751340294256806">
        <ele>765.82763671875</ele>
        <time>2011-04-17T09:15:30Z</time>
      </trkpt>
      <trkpt lat="34.889027466997504" lon="-3.751145079731941">
        <ele>765.346923828125</ele>
        <time>2011-04-17T09:15:31Z</time>
      </trkpt>
      <trkpt lat="34.889173731207848" lon="-3.74972996301949">
        <ele>757.65625</ele>
        <time>2011-04-17T09:15:38Z</time>
      </trkpt>
      <trkpt lat="34.889202062040567" lon="-3.74940793029964">
        <ele>756.69482421875</ele>
        <time>2011-04-17T09:15:40Z</time>
      </trkpt>
      <trkpt lat="34.889501631259918" lon="-3.748866878449917">
        <ele>753.330322265625</ele>
        <time>2011-04-17T09:15:45Z</time>
      </trkpt>
      <trkpt lat="34.889965318143368" lon="-3.748432863503695">
        <ele>754.291748046875</ele>
        <time>2011-04-17T09:15:50Z</time>
      </trkpt>
      <trkpt lat="34.890012172982097" lon="-3.747947635129094">
        <ele>756.214111328125</ele>
        <time>2011-04-17T09:15:53Z</time>
      </trkpt>
      <trkpt lat="34.889987949281931" lon="-3.747041886672378">
        <ele>756.69482421875</ele>
        <time>2011-04-17T09:15:58Z</time>
      </trkpt>
      <trkpt lat="34.890321884304285" lon="-3.746028346940875">
        <ele>753.81103515625</ele>
        <time>2011-04-17T09:16:04Z</time>
      </trkpt>
      <trkpt lat="34.890642492100596" lon="-3.745626518502832">
        <ele>753.330322265625</ele>
        <time>2011-04-17T09:16:07Z</time>
      </trkpt>
      <trkpt lat="34.890974499285221" lon="-3.74527464620769">
        <ele>753.330322265625</ele>
        <time>2011-04-17T09:16:10Z</time>
      </trkpt>
      <trkpt lat="34.891719566658139" lon="-3.743902444839478">
        <ele>752.368896484375</ele>
        <time>2011-04-17T09:16:19Z</time>
      </trkpt>
      <trkpt lat="34.891787124797702" lon="-3.743745367974043">
        <ele>751.888427734375</ele>
        <time>2011-04-17T09:16:20Z</time>
      </trkpt>
      <trkpt lat="34.891894077882171" lon="-3.742907345294952">
        <ele>751.40771484375</ele>
        <time>2011-04-17T09:16:25Z</time>
      </trkpt>
      <trkpt lat="34.891790645197034" lon="-3.742167223244906">
        <ele>749.9658203125</ele>
        <time>2011-04-17T09:16:29Z</time>
      </trkpt>
      <trkpt lat="34.891447238624096" lon="-3.741585854440928">
        <ele>746.60107421875</ele>
        <time>2011-04-17T09:16:33Z</time>
      </trkpt>
      <trkpt lat="34.890104876831174" lon="-3.740300070494413">
        <ele>735.5458984375</ele>
        <time>2011-04-17T09:16:43Z</time>
      </trkpt>
      <trkpt lat="34.889619899913669" lon="-3.739287536591291">
        <ele>731.219970703125</ele>
        <time>2011-04-17T09:16:49Z</time>
      </trkpt>
      <trkpt lat="34.889693325385451" lon="-3.738576248288155">
        <ele>729.77783203125</ele>
        <time>2011-04-17T09:16:53Z</time>
      </trkpt>
      <trkpt lat="34.889993062242866" lon="-3.737129447981715">
        <ele>724.49072265625</ele>
        <time>2011-04-17T09:17:00Z</time>
      </trkpt>
      <trkpt lat="34.890225995332003" lon="-3.735150145366788">
        <ele>719.684326171875</ele>
        <time>2011-04-17T09:17:09Z</time>
      </trkpt>
      <trkpt lat="34.890589769929647" lon="-3.733797390013933">
        <ele>719.20361328125</ele>
        <time>2011-04-17T09:17:16Z</time>
      </trkpt>
      <trkpt lat="34.890754725784063" lon="-3.733052155002952">
        <ele>720.164794921875</ele>
        <time>2011-04-17T09:17:20Z</time>
      </trkpt>
      <trkpt lat="34.890649616718292" lon="-3.732535243034363">
        <ele>718.2421875</ele>
        <time>2011-04-17T09:17:24Z</time>
      </trkpt>
      <trkpt lat="34.890266647562385" lon="-3.731509884819388">
        <ele>710.551513671875</ele>
        <time>2011-04-17T09:17:33Z</time>
      </trkpt>
      <trkpt lat="34.890099428594112" lon="-3.730321917682886">
        <ele>710.551513671875</ele>
        <time>2011-04-17T09:17:44Z</time>
      </trkpt>
      <trkpt lat="34.890045616775751" lon="-3.729714481160045">
        <ele>710.07080078125</ele>
        <time>2011-04-17T09:17:52Z</time>
      </trkpt>
      <trkpt lat="34.890027847141027" lon="-3.729134621098638">
        <ele>709.109619140625</ele>
        <time>2011-04-17T09:18:04Z</time>
      </trkpt>
      <trkpt lat="34.890035893768072" lon="-3.728780569508672">
        <ele>709.59033203125</ele>
        <time>2011-04-17T09:18:16Z</time>
      </trkpt>
      <trkpt lat="34.890069421380758" lon="-3.728455435484648">
        <ele>710.551513671875</ele>
        <time>2011-04-17T09:18:26Z</time>
      </trkpt>
      <trkpt lat="34.890040587633848" lon="-3.727931482717395">
        <ele>711.0322265625</ele>
        <time>2011-04-17T09:18:36Z</time>
      </trkpt>
      <trkpt lat="34.890068583190441" lon="-3.727436196058989">
        <ele>711.512939453125</ele>
        <time>2011-04-17T09:18:42Z</time>
      </trkpt>
      <trkpt lat="34.890254493802786" lon="-3.726631281897426">
        <ele>712.954833984375</ele>
        <time>2011-04-17T09:18:50Z</time>
      </trkpt>
      <trkpt lat="34.890443170443177" lon="-3.726207157596946">
        <ele>714.396728515625</ele>
        <time>2011-04-17T09:18:57Z</time>
      </trkpt>
      <trkpt lat="34.890462784096599" lon="-3.726100120693445">
        <ele>715.358154296875</ele>
        <time>2011-04-17T09:19:05Z</time>
      </trkpt>
      <trkpt lat="34.890568228438497" lon="-3.725933572277427">
        <ele>714.396728515625</ele>
        <time>2011-04-17T09:19:10Z</time>
      </trkpt>
      <trkpt lat="34.890816668048501" lon="-3.725287243723869">
        <ele>715.358154296875</ele>
        <time>2011-04-17T09:19:19Z</time>
      </trkpt>
      <trkpt lat="34.890848770737648" lon="-3.725183978676796">
        <ele>715.358154296875</ele>
        <time>2011-04-17T09:19:20Z</time>
      </trkpt>
      <trkpt lat="34.890880873426795" lon="-3.724181670695543">
        <ele>714.396728515625</ele>
        <time>2011-04-17T09:19:28Z</time>
      </trkpt>
      <trkpt lat="34.890858074650168" lon="-3.723201993852854">
        <ele>713.435546875</ele>
        <time>2011-04-17T09:19:37Z</time>
      </trkpt>
      <trkpt lat="34.890945665538311" lon="-3.722172947600484">
        <ele>711.99365234375</ele>
        <time>2011-04-17T09:19:45Z</time>
      </trkpt>
      <trkpt lat="34.891030574217439" lon="-3.721648156642914">
        <ele>711.0322265625</ele>
        <time>2011-04-17T09:19:51Z</time>
      </trkpt>
      <trkpt lat="34.891086565330625" lon="-3.721320759505034">
        <ele>710.551513671875</ele>
        <time>2011-04-17T09:20:01Z</time>
      </trkpt>
      <trkpt lat="34.891105927526951" lon="-3.72109092772007">
        <ele>708.1484375</ele>
        <time>2011-04-17T09:20:39Z</time>
      </trkpt>
      <trkpt lat="34.891155045479536" lon="-3.720774594694376">
        <ele>707.18701171875</ele>
        <time>2011-04-17T09:20:44Z</time>
      </trkpt>
      <trkpt lat="34.891180358827114" lon="-3.71999834664166">
        <ele>705.264404296875</ele>
        <time>2011-04-17T09:20:52Z</time>
      </trkpt>
      <trkpt lat="34.891237355768681" lon="-3.718767380341888">
        <ele>702.861083984375</ele>
        <time>2011-04-17T09:21:00Z</time>
      </trkpt>
      <trkpt lat="34.891298543661833" lon="-3.71745209209621">
        <ele>699.015625</ele>
        <time>2011-04-17T09:21:07Z</time>
      </trkpt>
      <trkpt lat="34.891442628577352" lon="-3.714456986635923">
        <ele>686.999267578125</ele>
        <time>2011-04-17T09:21:21Z</time>
      </trkpt>
      <trkpt lat="34.891638429835439" lon="-3.710366785526276">
        <ele>672.57958984375</ele>
        <time>2011-04-17T09:21:40Z</time>
      </trkpt>
      <trkpt lat="34.891775222495198" lon="-3.707600338384509">
        <ele>664.408203125</ele>
        <time>2011-04-17T09:21:52Z</time>
      </trkpt>
      <trkpt lat="34.891944956034422" lon="-3.704075831919909">
        <ele>648.54638671875</ele>
        <time>2011-04-17T09:22:07Z</time>
      </trkpt>
      <trkpt lat="34.892127178609371" lon="-3.700379077345133">
        <ele>635.568603515625</ele>
        <time>2011-04-17T09:22:23Z</time>
      </trkpt>
      <trkpt lat="34.892242094501853" lon="-3.697800552472472">
        <ele>626.436279296875</ele>
        <time>2011-04-17T09:22:35Z</time>
      </trkpt>
      <trkpt lat="34.89237486384809" lon="-3.695167629048228">
        <ele>619.226318359375</ele>
        <time>2011-04-17T09:22:48Z</time>
      </trkpt>
      <trkpt lat="34.892494892701507" lon="-3.692631265148521">
        <ele>613.93896484375</ele>
        <time>2011-04-17T09:23:00Z</time>
      </trkpt>
      <trkpt lat="34.89264358766377" lon="-3.689603889361024">
        <ele>608.65185546875</ele>
        <time>2011-04-17T09:23:15Z</time>
      </trkpt>
      <trkpt lat="34.892758671194315" lon="-3.686973983421922">
        <ele>605.287353515625</ele>
        <time>2011-04-17T09:23:29Z</time>
      </trkpt>
      <trkpt lat="34.892867049202323" lon="-3.684801226481795">
        <ele>603.364501953125</ele>
        <time>2011-04-17T09:23:40Z</time>
      </trkpt>
      <trkpt lat="34.893022533506155" lon="-3.681472940370441">
        <ele>601.44189453125</ele>
        <time>2011-04-17T09:23:56Z</time>
      </trkpt>
      <trkpt lat="34.893164187669754" lon="-3.678615381941199">
        <ele>598.077392578125</ele>
        <time>2011-04-17T09:24:10Z</time>
      </trkpt>
      <trkpt lat="34.893271224573255" lon="-3.676422173157334">
        <ele>596.15478515625</ele>
        <time>2011-04-17T09:24:21Z</time>
      </trkpt>
      <trkpt lat="34.893362419679761" lon="-3.674492659047246">
        <ele>594.712646484375</ele>
        <time>2011-04-17T09:24:32Z</time>
      </trkpt>
      <trkpt lat="34.893444059416652" lon="-3.673156667500734">
        <ele>593.75146484375</ele>
        <time>2011-04-17T09:24:40Z</time>
      </trkpt>
      <trkpt lat="34.893745388835669" lon="-3.672360889613628">
        <ele>592.790283203125</ele>
        <time>2011-04-17T09:24:46Z</time>
      </trkpt>
      <trkpt lat="34.894502442330122" lon="-3.671479197219014">
        <ele>589.425537109375</ele>
        <time>2011-04-17T09:24:55Z</time>
      </trkpt>
      <trkpt lat="34.89533987827599" lon="-3.670548051595688">
        <ele>588.945068359375</ele>
        <time>2011-04-17T09:25:06Z</time>
      </trkpt>
      <trkpt lat="34.896280243992805" lon="-3.669506935402751">
        <ele>589.90625</ele>
        <time>2011-04-17T09:25:16Z</time>
      </trkpt>
      <trkpt lat="34.897380536422133" lon="-3.668266665190458">
        <ele>590.386962890625</ele>
        <time>2011-04-17T09:25:26Z</time>
      </trkpt>
      <trkpt lat="34.898258959874511" lon="-3.667335687205195">
        <ele>591.828857421875</ele>
        <time>2011-04-17T09:25:34Z</time>
      </trkpt>
      <trkpt lat="34.899089857935905" lon="-3.666907120496035">
        <ele>591.828857421875</ele>
        <time>2011-04-17T09:25:40Z</time>
      </trkpt>
      <trkpt lat="34.90084913559258" lon="-3.666200023144484">
        <ele>593.270751953125</ele>
        <time>2011-04-17T09:25:52Z</time>
      </trkpt>
      <trkpt lat="34.902191078290343" lon="-3.665762655436993">
        <ele>594.712646484375</ele>
        <time>2011-04-17T09:26:01Z</time>
      </trkpt>
      <trkpt lat="34.903471246361732" lon="-3.665695264935494">
        <ele>599.03857421875</ele>
        <time>2011-04-17T09:26:09Z</time>
      </trkpt>
      <trkpt lat="34.904571790248156" lon="-3.665599459782243">
        <ele>604.806640625</ele>
        <time>2011-04-17T09:26:16Z</time>
      </trkpt>
      <trkpt lat="34.905344266444445" lon="-3.665108699351549">
        <ele>610.09375</ele>
        <time>2011-04-17T09:26:22Z</time>
      </trkpt>
      <trkpt lat="34.905450046062469" lon="-3.664985066279769">
        <ele>610.574462890625</ele>
        <time>2011-04-17T09:26:23Z</time>
      </trkpt>
      <trkpt lat="34.906377084553242" lon="-3.663817970082164">
        <ele>618.264892578125</ele>
        <time>2011-04-17T09:26:32Z</time>
      </trkpt>
      <trkpt lat="34.906645640730858" lon="-3.663076339289546">
        <ele>620.66845703125</ele>
        <time>2011-04-17T09:26:37Z</time>
      </trkpt>
      <trkpt lat="34.906509686261415" lon="-3.662431854754686">
        <ele>620.66845703125</ele>
        <time>2011-04-17T09:26:41Z</time>
      </trkpt>
      <trkpt lat="34.905528919771314" lon="-3.660503178834915">
        <ele>617.3037109375</ele>
        <time>2011-04-17T09:26:52Z</time>
      </trkpt>
      <trkpt lat="34.905260782688856" lon="-3.659966485574842">
        <ele>616.34228515625</ele>
        <time>2011-04-17T09:26:55Z</time>
      </trkpt>
      <trkpt lat="34.905111249536276" lon="-3.658974738791585">
        <ele>614.419677734375</ele>
        <time>2011-04-17T09:27:00Z</time>
      </trkpt>
      <trkpt lat="34.90524971857667" lon="-3.656869120895863">
        <ele>608.65185546875</ele>
        <time>2011-04-17T09:27:10Z</time>
      </trkpt>
      <trkpt lat="34.905265141278505" lon="-3.656449187546969">
        <ele>607.2099609375</ele>
        <time>2011-04-17T09:27:12Z</time>
      </trkpt>
      <trkpt lat="34.905121643096209" lon="-3.655641926452518">
        <ele>605.287353515625</ele>
        <time>2011-04-17T09:27:16Z</time>
      </trkpt>
      <trkpt lat="34.904526360332966" lon="-3.654125640168786">
        <ele>601.44189453125</ele>
        <time>2011-04-17T09:27:24Z</time>
      </trkpt>
      <trkpt lat="34.904445726424456" lon="-3.652865923941135">
        <ele>598.077392578125</ele>
        <time>2011-04-17T09:27:30Z</time>
      </trkpt>
      <trkpt lat="34.904461652040482" lon="-3.650787882506847">
        <ele>593.75146484375</ele>
        <time>2011-04-17T09:27:39Z</time>
      </trkpt>
      <trkpt lat="34.904038617387414" lon="-3.649220718070865">
        <ele>591.34814453125</ele>
        <time>2011-04-17T09:27:46Z</time>
      </trkpt>
      <trkpt lat="34.903990840539336" lon="-3.64777659997344">
        <ele>588.945068359375</ele>
        <time>2011-04-17T09:27:52Z</time>
      </trkpt>
      <trkpt lat="34.904120424762368" lon="-3.645849265158176">
        <ele>585.099609375</ele>
        <time>2011-04-17T09:28:00Z</time>
      </trkpt>
      <trkpt lat="34.904403733089566" lon="-3.645067485049367">
        <ele>582.6962890625</ele>
        <time>2011-04-17T09:28:04Z</time>
      </trkpt>
      <trkpt lat="34.904613364487886" lon="-3.644730448722839">
        <ele>581.73486328125</ele>
        <time>2011-04-17T09:28:06Z</time>
      </trkpt>
      <trkpt lat="34.904825845733285" lon="-3.644003653898835">
        <ele>582.215576171875</ele>
        <time>2011-04-17T09:28:10Z</time>
      </trkpt>
      <trkpt lat="34.904843447729945" lon="-3.643623869866133">
        <ele>583.657470703125</ele>
        <time>2011-04-17T09:28:12Z</time>
      </trkpt>
      <trkpt lat="34.905187524855137" lon="-3.642848376184702">
        <ele>584.13818359375</ele>
        <time>2011-04-17T09:28:17Z</time>
      </trkpt>
      <trkpt lat="34.905702592805028" lon="-3.642369182780385">
        <ele>583.657470703125</ele>
        <time>2011-04-17T09:28:21Z</time>
      </trkpt>
      <trkpt lat="34.906121268868446" lon="-3.641698127612472">
        <ele>582.6962890625</ele>
        <time>2011-04-17T09:28:25Z</time>
      </trkpt>
      <trkpt lat="34.907041769474745" lon="-3.639367036521435">
        <ele>583.1767578125</ele>
        <time>2011-04-17T09:28:37Z</time>
      </trkpt>
      <trkpt lat="34.907244695350528" lon="-3.638825230300427">
        <ele>582.215576171875</ele>
        <time>2011-04-17T09:28:40Z</time>
      </trkpt>
      <trkpt lat="34.907296830788255" lon="-3.637937754392624">
        <ele>580.773681640625</ele>
        <time>2011-04-17T09:28:45Z</time>
      </trkpt>
      <trkpt lat="34.907170264050364" lon="-3.637559395283461">
        <ele>580.29296875</ele>
        <time>2011-04-17T09:28:47Z</time>
      </trkpt>
      <trkpt lat="34.906029319390655" lon="-3.635124955326319">
        <ele>575.486328125</ele>
        <time>2011-04-17T09:29:00Z</time>
      </trkpt>
      <trkpt lat="34.905732683837414" lon="-3.634469322860241">
        <ele>575.005859375</ele>
        <time>2011-04-17T09:29:04Z</time>
      </trkpt>
      <trkpt lat="34.905735533684492" lon="-3.633641442283988">
        <ele>571.160400390625</ele>
        <time>2011-04-17T09:29:09Z</time>
      </trkpt>
      <trkpt lat="34.905809042975307" lon="-3.633465841412544">
        <ele>570.198974609375</ele>
        <time>2011-04-17T09:29:10Z</time>
      </trkpt>
      <trkpt lat="34.906735830008984" lon="-3.631613189354539">
        <ele>557.7021484375</ele>
        <time>2011-04-17T09:29:20Z</time>
      </trkpt>
      <trkpt lat="34.907019138336182" lon="-3.630479034036398">
        <ele>554.33740234375</ele>
        <time>2011-04-17T09:29:25Z</time>
      </trkpt>
      <trkpt lat="34.907269338145852" lon="-3.62798566929996">
        <ele>548.5693359375</ele>
        <time>2011-04-17T09:29:35Z</time>
      </trkpt>
      <trkpt lat="34.907276630401611" lon="-3.627511253580451">
        <ele>547.608154296875</ele>
        <time>2011-04-17T09:29:37Z</time>
      </trkpt>
      <trkpt lat="34.90712508559227" lon="-3.626607852056623">
        <ele>544.7242431640625</ele>
        <time>2011-04-17T09:29:41Z</time>
      </trkpt>
      <trkpt lat="34.906292930245399" lon="-3.624237030744553">
        <ele>537.9949951171875</ele>
        <time>2011-04-17T09:29:52Z</time>
      </trkpt>
      <trkpt lat="34.905774593353271" lon="-3.622322184965015">
        <ele>531.2657470703125</ele>
        <time>2011-04-17T09:30:01Z</time>
      </trkpt>
      <trkpt lat="34.90575497969985" lon="-3.621642496436834">
        <ele>529.82373046875</ele>
        <time>2011-04-17T09:30:04Z</time>
      </trkpt>
      <trkpt lat="34.905545432120562" lon="-3.620770191773772">
        <ele>528.3818359375</ele>
        <time>2011-04-17T09:30:08Z</time>
      </trkpt>
      <trkpt lat="34.904460646212101" lon="-3.618253860622644">
        <ele>525.0172119140625</ele>
        <time>2011-04-17T09:30:20Z</time>
      </trkpt>
      <trkpt lat="34.903410980477929" lon="-3.615854792296886">
        <ele>519.7298583984375</ele>
        <time>2011-04-17T09:30:32Z</time>
      </trkpt>
      <trkpt lat="34.902652753517032" lon="-3.614093251526356">
        <ele>511.0780029296875</ele>
        <time>2011-04-17T09:30:42Z</time>
      </trkpt>
      <trkpt lat="34.902341198176146" lon="-3.613406354561448">
        <ele>510.5972900390625</ele>
        <time>2011-04-17T09:30:48Z</time>
      </trkpt>
      <trkpt lat="34.901890251785517" lon="-3.612381499260664">
        <ele>510.5972900390625</ele>
        <time>2011-04-17T09:30:58Z</time>
      </trkpt>
      <trkpt lat="34.901839541271329" lon="-3.612238923087716">
        <ele>510.5972900390625</ele>
        <time>2011-04-17T09:30:59Z</time>
      </trkpt>
      <trkpt lat="34.90167148411274" lon="-3.610970741137862">
        <ele>504.348876953125</ele>
        <time>2011-04-17T09:31:06Z</time>
      </trkpt>
      <trkpt lat="34.901404771953821" lon="-3.608058532699943">
        <ele>490.890380859375</ele>
        <time>2011-04-17T09:31:21Z</time>
      </trkpt>
      <trkpt lat="34.900986682623625" lon="-3.606501091271639">
        <ele>485.60302734375</ele>
        <time>2011-04-17T09:31:29Z</time>
      </trkpt>
      <trkpt lat="34.900141786783934" lon="-3.604212580248714">
        <ele>479.3544921875</ele>
        <time>2011-04-17T09:31:41Z</time>
      </trkpt>
      <trkpt lat="34.899728642776608" lon="-3.602427653968334">
        <ele>475.0286865234375</ele>
        <time>2011-04-17T09:31:49Z</time>
      </trkpt>
      <trkpt lat="34.899103855714202" lon="-3.599680652841926">
        <ele>471.6639404296875</ele>
        <time>2011-04-17T09:32:01Z</time>
      </trkpt>
      <trkpt lat="34.898870419710875" lon="-3.598157241940498">
        <ele>467.8187255859375</ele>
        <time>2011-04-17T09:32:08Z</time>
      </trkpt>
      <trkpt lat="34.898774698376656" lon="-3.595755575224757">
        <ele>462.05078125</ele>
        <time>2011-04-17T09:32:19Z</time>
      </trkpt>
      <trkpt lat="34.898655842989683" lon="-3.593557253479958">
        <ele>455.321533203125</ele>
        <time>2011-04-17T09:32:30Z</time>
      </trkpt>
      <trkpt lat="34.89853497594595" lon="-3.591236975044012">
        <ele>447.6309814453125</ele>
        <time>2011-04-17T09:32:42Z</time>
      </trkpt>
      <trkpt lat="34.898537658154964" lon="-3.591050393879414">
        <ele>446.669677734375</ele>
        <time>2011-04-17T09:32:43Z</time>
      </trkpt>
      <trkpt lat="34.898801185190678" lon="-3.590186219662428">
        <ele>444.7470703125</ele>
        <time>2011-04-17T09:32:48Z</time>
      </trkpt>
      <trkpt lat="34.900026451796293" lon="-3.588270954787731">
        <ele>443.3050537109375</ele>
        <time>2011-04-17T09:32:59Z</time>
      </trkpt>
      <trkpt lat="34.90154106169939" lon="-3.585882782936096">
        <ele>442.824462890625</ele>
        <time>2011-04-17T09:33:13Z</time>
      </trkpt>
      <trkpt lat="34.902176074683666" lon="-3.584546120837331">
        <ele>442.3438720703125</ele>
        <time>2011-04-17T09:33:20Z</time>
      </trkpt>
      <trkpt lat="34.902507495135069" lon="-3.583737434819341">
        <ele>443.3050537109375</ele>
        <time>2011-04-17T09:33:25Z</time>
      </trkpt>
      <trkpt lat="34.903078889474273" lon="-3.582351570948958">
        <ele>443.7857666015625</ele>
        <time>2011-04-17T09:33:34Z</time>
      </trkpt>
      <trkpt lat="34.903621030971408" lon="-3.581059919670224">
        <ele>443.7857666015625</ele>
        <time>2011-04-17T09:33:42Z</time>
      </trkpt>
      <trkpt lat="34.90428663790226" lon="-3.5803756210953">
        <ele>443.3050537109375</ele>
        <time>2011-04-17T09:33:48Z</time>
      </trkpt>
      <trkpt lat="34.904686873778701" lon="-3.580197254195809">
        <ele>444.2664794921875</ele>
        <time>2011-04-17T09:33:51Z</time>
      </trkpt>
      <trkpt lat="34.905252819880843" lon="-3.579599456861615">
        <ele>446.1890869140625</ele>
        <time>2011-04-17T09:33:57Z</time>
      </trkpt>
      <trkpt lat="34.905310738831758" lon="-3.579448498785496">
        <ele>445.7083740234375</ele>
        <time>2011-04-17T09:33:58Z</time>
      </trkpt>
      <trkpt lat="34.905793871730566" lon="-3.578043775632978">
        <ele>441.8631591796875</ele>
        <time>2011-04-17T09:34:06Z</time>
      </trkpt>
      <trkpt lat="34.905890179798007" lon="-3.577286722138524">
        <ele>439.9404296875</ele>
        <time>2011-04-17T09:34:10Z</time>
      </trkpt>
      <trkpt lat="34.905881881713867" lon="-3.576569817960262">
        <ele>437.537109375</ele>
        <time>2011-04-17T09:34:14Z</time>
      </trkpt>
      <trkpt lat="34.906066786497831" lon="-3.575940923765302">
        <ele>436.575927734375</ele>
        <time>2011-04-17T09:34:18Z</time>
      </trkpt>
      <trkpt lat="34.906944874674082" lon="-3.574299495667219">
        <ele>433.69189453125</ele>
        <time>2011-04-17T09:34:28Z</time>
      </trkpt>
      <trkpt lat="34.907342595979571" lon="-3.572929222136736">
        <ele>432.25</ele>
        <time>2011-04-17T09:34:34Z</time>
      </trkpt>
      <trkpt lat="34.908108282834291" lon="-3.570430744439364">
        <ele>429.8465576171875</ele>
        <time>2011-04-17T09:34:44Z</time>
      </trkpt>
      <trkpt lat="34.908829126507044" lon="-3.568063862621784">
        <ele>425.520751953125</ele>
        <time>2011-04-17T09:34:54Z</time>
      </trkpt>
      <trkpt lat="34.909045044332743" lon="-3.567474782466888">
        <ele>425.520751953125</ele>
        <time>2011-04-17T09:34:57Z</time>
      </trkpt>
      <trkpt lat="34.909828081727028" lon="-3.566572135314345">
        <ele>424.0787353515625</ele>
        <time>2011-04-17T09:35:03Z</time>
      </trkpt>
      <trkpt lat="34.911268427968025" lon="-3.565199431031942">
        <ele>423.5980224609375</ele>
        <time>2011-04-17T09:35:12Z</time>
      </trkpt>
      <trkpt lat="34.913333645090461" lon="-3.563189953565598">
        <ele>422.63671875</ele>
        <time>2011-04-17T09:35:24Z</time>
      </trkpt>
      <trkpt lat="34.914417341351509" lon="-3.562156716361642">
        <ele>422.63671875</ele>
        <time>2011-04-17T09:35:31Z</time>
      </trkpt>
      <trkpt lat="34.915678147226572" lon="-3.561048628762364">
        <ele>424.0787353515625</ele>
        <time>2011-04-17T09:35:40Z</time>
      </trkpt>
      <trkpt lat="34.916515499353409" lon="-3.560108095407486">
        <ele>422.63671875</ele>
        <time>2011-04-17T09:35:47Z</time>
      </trkpt>
      <trkpt lat="34.917742777615786" lon="-3.558342196047306">
        <ele>420.2333984375</ele>
        <time>2011-04-17T09:35:57Z</time>
      </trkpt>
      <trkpt lat="34.919195026159286" lon="-3.556177150458098">
        <ele>417.8302001953125</ele>
        <time>2011-04-17T09:36:08Z</time>
      </trkpt>
      <trkpt lat="34.920511655509472" lon="-3.554334556683898">
        <ele>414.9461669921875</ele>
        <time>2011-04-17T09:36:18Z</time>
      </trkpt>
      <trkpt lat="34.922108072787523" lon="-3.552409317344427">
        <ele>410.1396484375</ele>
        <time>2011-04-17T09:36:29Z</time>
      </trkpt>
      <trkpt lat="34.922909466549754" lon="-3.551401561126113">
        <ele>408.217041015625</ele>
        <time>2011-04-17T09:36:36Z</time>
      </trkpt>
      <trkpt lat="34.923445070162416" lon="-3.550486424937844">
        <ele>407.255615234375</ele>
        <time>2011-04-17T09:36:43Z</time>
      </trkpt>
      <trkpt lat="34.924203967675567" lon="-3.549170047044754">
        <ele>407.255615234375</ele>
        <time>2011-04-17T09:36:52Z</time>
      </trkpt>
      <trkpt lat="34.92466052994132" lon="-3.54836898855865">
        <ele>407.255615234375</ele>
        <time>2011-04-17T09:36:57Z</time>
      </trkpt>
      <trkpt lat="34.925473993644118" lon="-3.54761746712029">
        <ele>406.2943115234375</ele>
        <time>2011-04-17T09:37:03Z</time>
      </trkpt>
      <trkpt lat="34.927318682894111" lon="-3.546155327931047">
        <ele>401.48779296875</ele>
        <time>2011-04-17T09:37:15Z</time>
      </trkpt>
      <trkpt lat="34.928474295884371" lon="-3.545113541185856">
        <ele>399.5650634765625</ele>
        <time>2011-04-17T09:37:24Z</time>
      </trkpt>
      <trkpt lat="34.929884299635887" lon="-3.543820045888424">
        <ele>397.1617431640625</ele>
        <time>2011-04-17T09:37:37Z</time>
      </trkpt>
      <trkpt lat="34.93150276131928" lon="-3.542549349367619">
        <ele>395.7198486328125</ele>
        <time>2011-04-17T09:37:50Z</time>
      </trkpt>
      <trkpt lat="34.932835148647428" lon="-3.541494319215417">
        <ele>394.2779541015625</ele>
        <time>2011-04-17T09:38:01Z</time>
      </trkpt>
      <trkpt lat="34.934092685580254" lon="-3.540135445073247">
        <ele>392.3553466796875</ele>
        <time>2011-04-17T09:38:13Z</time>
      </trkpt>
      <trkpt lat="34.934464171528816" lon="-3.53973101824522">
        <ele>392.3553466796875</ele>
        <time>2011-04-17T09:38:18Z</time>
      </trkpt>
      <trkpt lat="34.934836076572537" lon="-3.539346372708678">
        <ele>391.87451171875</ele>
        <time>2011-04-17T09:38:24Z</time>
      </trkpt>
      <trkpt lat="34.935487769544125" lon="-3.538608932867646">
        <ele>391.393798828125</ele>
        <time>2011-04-17T09:38:31Z</time>
      </trkpt>
      <trkpt lat="34.936325624585152" lon="-3.53767141699791">
        <ele>391.393798828125</ele>
        <time>2011-04-17T09:38:40Z</time>
      </trkpt>
      <trkpt lat="34.936512457206845" lon="-3.537429682910442">
        <ele>391.393798828125</ele>
        <time>2011-04-17T09:38:43Z</time>
      </trkpt>
      <trkpt lat="34.93707756511867" lon="-3.536838926374912">
        <ele>390.4326171875</ele>
        <time>2011-04-17T09:38:50Z</time>
      </trkpt>
      <trkpt lat="34.938270142301917" lon="-3.535546017810702">
        <ele>389.951904296875</ele>
        <time>2011-04-17T09:39:02Z</time>
      </trkpt>
      <trkpt lat="34.938896773383021" lon="-3.534844955429435">
        <ele>390.4326171875</ele>
        <time>2011-04-17T09:39:10Z</time>
      </trkpt>
      <trkpt lat="34.939161976799369" lon="-3.534602718427777">
        <ele>390.4326171875</ele>
        <time>2011-04-17T09:39:14Z</time>
      </trkpt>
      <trkpt lat="34.939595656469464" lon="-3.534460226073861">
        <ele>389.951904296875</ele>
        <time>2011-04-17T09:39:19Z</time>
      </trkpt>
      <trkpt lat="34.94072905741632" lon="-3.534389566630125">
        <ele>387.548583984375</ele>
        <time>2011-04-17T09:39:32Z</time>
      </trkpt>
      <trkpt lat="34.941760953515768" lon="-3.534284792840481">
        <ele>385.6259765625</ele>
        <time>2011-04-17T09:39:42Z</time>
      </trkpt>
      <trkpt lat="34.94331588037312" lon="-3.534098630771041">
        <ele>382.2613525390625</ele>
        <time>2011-04-17T09:39:55Z</time>
      </trkpt>
      <trkpt lat="34.944744324311614" lon="-3.53395588696003">
        <ele>380.3387451171875</ele>
        <time>2011-04-17T09:40:07Z</time>
      </trkpt>
      <trkpt lat="34.945065854117274" lon="-3.533888161182404">
        <ele>379.8580322265625</ele>
        <time>2011-04-17T09:40:10Z</time>
      </trkpt>
      <trkpt lat="34.945638841018081" lon="-3.53339153341949">
        <ele>380.8194580078125</ele>
        <time>2011-04-17T09:40:16Z</time>
      </trkpt>
      <trkpt lat="34.945704974234104" lon="-3.533259686082602">
        <ele>380.8194580078125</ele>
        <time>2011-04-17T09:40:17Z</time>
      </trkpt>
      <trkpt lat="34.946415172889829" lon="-3.531438549980521">
        <ele>380.8194580078125</ele>
        <time>2011-04-17T09:40:30Z</time>
      </trkpt>
      <trkpt lat="34.946975922212005" lon="-3.530356027185917">
        <ele>380.3387451171875</ele>
        <time>2011-04-17T09:40:38Z</time>
      </trkpt>
      <trkpt lat="34.948192471638322" lon="-3.5287163592875">
        <ele>377.9354248046875</ele>
        <time>2011-04-17T09:40:50Z</time>
      </trkpt>
      <trkpt lat="34.949597278609872" lon="-3.526927661150694">
        <ele>376.0128173828125</ele>
        <time>2011-04-17T09:41:03Z</time>
      </trkpt>
      <trkpt lat="34.951029494404793" lon="-3.52508339099586">
        <ele>374.090087890625</ele>
        <time>2011-04-17T09:41:15Z</time>
      </trkpt>
      <trkpt lat="34.952600682154298" lon="-3.523011971265078">
        <ele>370.244873046875</ele>
        <time>2011-04-17T09:41:27Z</time>
      </trkpt>
      <trkpt lat="34.954259963706136" lon="-3.520836867392063">
        <ele>367.841552734375</ele>
        <time>2011-04-17T09:41:39Z</time>
      </trkpt>
      <trkpt lat="34.956318978220224" lon="-3.518164549022913">
        <ele>363.5157470703125</ele>
        <time>2011-04-17T09:41:53Z</time>
      </trkpt>
      <trkpt lat="34.95829869993031" lon="-3.515597674995661">
        <ele>362.07373046875</ele>
        <time>2011-04-17T09:42:06Z</time>
      </trkpt>
      <trkpt lat="34.960063174366951" lon="-3.513304218649864">
        <ele>360.6317138671875</ele>
        <time>2011-04-17T09:42:17Z</time>
      </trkpt>
      <trkpt lat="34.962206846103072" lon="-3.510529724881053">
        <ele>357.26708984375</ele>
        <time>2011-04-17T09:42:30Z</time>
      </trkpt>
      <trkpt lat="34.964425787329674" lon="-3.507672250270844">
        <ele>355.8251953125</ele>
        <time>2011-04-17T09:42:44Z</time>
      </trkpt>
      <trkpt lat="34.966426379978657" lon="-3.505052234977484">
        <ele>354.86376953125</ele>
        <time>2011-04-17T09:42:57Z</time>
      </trkpt>
      <trkpt lat="34.968767277896404" lon="-3.501974819228053">
        <ele>353.902587890625</ele>
        <time>2011-04-17T09:43:12Z</time>
      </trkpt>
      <trkpt lat="34.97052856720984" lon="-3.49968496710062">
        <ele>353.902587890625</ele>
        <time>2011-04-17T09:43:23Z</time>
      </trkpt>
      <trkpt lat="34.972489178180695" lon="-3.497126055881381">
        <ele>354.3831787109375</ele>
        <time>2011-04-17T09:43:35Z</time>
      </trkpt>
      <trkpt lat="34.974751118570566" lon="-3.494184594601393">
        <ele>353.902587890625</ele>
        <time>2011-04-17T09:43:48Z</time>
      </trkpt>
      <trkpt lat="34.977154042571783" lon="-3.491055462509394">
        <ele>353.902587890625</ele>
        <time>2011-04-17T09:44:02Z</time>
      </trkpt>
      <trkpt lat="34.979610778391361" lon="-3.487856341525912">
        <ele>352.4605712890625</ele>
        <time>2011-04-17T09:44:17Z</time>
      </trkpt>
      <trkpt lat="34.981856290251017" lon="-3.484960561618209">
        <ele>351.9798583984375</ele>
        <time>2011-04-17T09:44:31Z</time>
      </trkpt>
      <trkpt lat="34.983694776892662" lon="-3.482535677030683">
        <ele>351.0184326171875</ele>
        <time>2011-04-17T09:44:43Z</time>
      </trkpt>
      <trkpt lat="34.983812626451254" lon="-3.482334259897471">
        <ele>351.0184326171875</ele>
        <time>2011-04-17T09:44:44Z</time>
      </trkpt>
      <trkpt lat="34.984156619757414" lon="-3.481184095144272">
        <ele>351.0184326171875</ele>
        <time>2011-04-17T09:44:49Z</time>
      </trkpt>
      <trkpt lat="34.98439634218812" lon="-3.479730589315295">
        <ele>349.5765380859375</ele>
        <time>2011-04-17T09:44:55Z</time>
      </trkpt>
      <trkpt lat="34.984319228678942" lon="-3.478812854737043">
        <ele>348.1346435546875</ele>
        <time>2011-04-17T09:44:59Z</time>
      </trkpt>
      <trkpt lat="34.983697878196836" lon="-3.476342121139169">
        <ele>345.2506103515625</ele>
        <time>2011-04-17T09:45:09Z</time>
      </trkpt>
      <trkpt lat="34.983052974566817" lon="-3.473709281533957">
        <ele>345.2506103515625</ele>
        <time>2011-04-17T09:45:20Z</time>
      </trkpt>
      <trkpt lat="34.982548216357827" lon="-3.471608692780137">
        <ele>347.1732177734375</ele>
        <time>2011-04-17T09:45:30Z</time>
      </trkpt>
      <trkpt lat="34.981997441500425" lon="-3.469312135130167">
        <ele>349.0958251953125</ele>
        <time>2011-04-17T09:45:41Z</time>
      </trkpt>
      <trkpt lat="34.98164732940495" lon="-3.467809092253447">
        <ele>350.537841796875</ele>
        <time>2011-04-17T09:45:50Z</time>
      </trkpt>
      <trkpt lat="34.981436859816313" lon="-3.466911558061838">
        <ele>350.0572509765625</ele>
        <time>2011-04-17T09:45:57Z</time>
      </trkpt>
      <trkpt lat="34.98115137219429" lon="-3.465686039999127">
        <ele>344.77001953125</ele>
        <time>2011-04-17T09:46:07Z</time>
      </trkpt>
      <trkpt lat="34.980859598144889" lon="-3.46440939232707">
        <ele>343.327880859375</ele>
        <time>2011-04-17T09:46:15Z</time>
      </trkpt>
      <trkpt lat="34.980544773861766" lon="-3.463054960593581">
        <ele>344.77001953125</ele>
        <time>2011-04-17T09:46:24Z</time>
      </trkpt>
      <trkpt lat="34.980294825509191" lon="-3.461975958198309">
        <ele>343.327880859375</ele>
        <time>2011-04-17T09:46:30Z</time>
      </trkpt>
      <trkpt lat="34.979827366769314" lon="-3.45998777076602">
        <ele>338.521484375</ele>
        <time>2011-04-17T09:46:40Z</time>
      </trkpt>
      <trkpt lat="34.979255888611078" lon="-3.457512091845274">
        <ele>335.15673828125</ele>
        <time>2011-04-17T09:46:52Z</time>
      </trkpt>
      <trkpt lat="34.978752136230469" lon="-3.455334892496467">
        <ele>329.388916015625</ele>
        <time>2011-04-17T09:47:02Z</time>
      </trkpt>
      <trkpt lat="34.978202953934669" lon="-3.452978152781725">
        <ele>323.140380859375</ele>
        <time>2011-04-17T09:47:13Z</time>
      </trkpt>
      <trkpt lat="34.977482277899981" lon="-3.449880788102746">
        <ele>319.2950439453125</ele>
        <time>2011-04-17T09:47:28Z</time>
      </trkpt>
      <trkpt lat="34.976805858314037" lon="-3.446994982659817">
        <ele>317.3724365234375</ele>
        <time>2011-04-17T09:47:43Z</time>
      </trkpt>
      <trkpt lat="34.976331694051623" lon="-3.444928172975779">
        <ele>316.4110107421875</ele>
        <time>2011-04-17T09:47:54Z</time>
      </trkpt>
      <trkpt lat="34.975886782631278" lon="-3.443009639158845">
        <ele>314.4884033203125</ele>
        <time>2011-04-17T09:48:04Z</time>
      </trkpt>
      <trkpt lat="34.975575478747487" lon="-3.441658727824688">
        <ele>314.0078125</ele>
        <time>2011-04-17T09:48:12Z</time>
      </trkpt>
      <trkpt lat="34.975291499868035" lon="-3.440411249175668">
        <ele>313.5272216796875</ele>
        <time>2011-04-17T09:48:21Z</time>
      </trkpt>
      <trkpt lat="34.97503031976521" lon="-3.439392847940326">
        <ele>313.5272216796875</ele>
        <time>2011-04-17T09:48:29Z</time>
      </trkpt>
      <trkpt lat="34.97480358928442" lon="-3.438357766717672">
        <ele>313.0465087890625</ele>
        <time>2011-04-17T09:48:36Z</time>
      </trkpt>
      <trkpt lat="34.974417770281434" lon="-3.436726648360491">
        <ele>313.0465087890625</ele>
        <time>2011-04-17T09:48:45Z</time>
      </trkpt>
      <trkpt lat="34.974081655964255" lon="-3.435280099511147">
        <ele>313.5272216796875</ele>
        <time>2011-04-17T09:48:54Z</time>
      </trkpt>
      <trkpt lat="34.973714528605342" lon="-3.433679239824414">
        <ele>313.0465087890625</ele>
        <time>2011-04-17T09:49:04Z</time>
      </trkpt>
      <trkpt lat="34.973133830353618" lon="-3.431215044111013">
        <ele>313.5272216796875</ele>
        <time>2011-04-17T09:49:18Z</time>
      </trkpt>
      <trkpt lat="34.972636364400387" lon="-3.429037844762206">
        <ele>313.0465087890625</ele>
        <time>2011-04-17T09:49:30Z</time>
      </trkpt>
      <trkpt lat="34.972621696069837" lon="-3.427788270637393">
        <ele>312.5657958984375</ele>
        <time>2011-04-17T09:49:36Z</time>
      </trkpt>
      <trkpt lat="34.97280023060739" lon="-3.425776278600097">
        <ele>311.123779296875</ele>
        <time>2011-04-17T09:49:46Z</time>
      </trkpt>
      <trkpt lat="34.973019836470485" lon="-3.423246620222926">
        <ele>309.681884765625</ele>
        <time>2011-04-17T09:49:58Z</time>
      </trkpt>
      <trkpt lat="34.973235838115215" lon="-3.420785022899509">
        <ele>309.681884765625</ele>
        <time>2011-04-17T09:50:10Z</time>
      </trkpt>
      <trkpt lat="34.973417557775974" lon="-3.418938824906945">
        <ele>308.720458984375</ele>
        <time>2011-04-17T09:50:19Z</time>
      </trkpt>
      <trkpt lat="34.973548818379641" lon="-3.417154317721725">
        <ele>306.7978515625</ele>
        <time>2011-04-17T09:50:27Z</time>
      </trkpt>
      <trkpt lat="34.973663063719869" lon="-3.415732830762863">
        <ele>306.7978515625</ele>
        <time>2011-04-17T09:50:35Z</time>
      </trkpt>
      <trkpt lat="34.973814943805337" lon="-3.414157954975963">
        <ele>305.836669921875</ele>
        <time>2011-04-17T09:50:44Z</time>
      </trkpt>
      <trkpt lat="34.973989119753242" lon="-3.412215365096927">
        <ele>305.35595703125</ele>
        <time>2011-04-17T09:50:53Z</time>
      </trkpt>
      <trkpt lat="34.974157931283116" lon="-3.410226758569479">
        <ele>305.35595703125</ele>
        <time>2011-04-17T09:51:01Z</time>
      </trkpt>
      <trkpt lat="34.97426706366241" lon="-3.408717261627317">
        <ele>304.875244140625</ele>
        <time>2011-04-17T09:51:08Z</time>
      </trkpt>
      <trkpt lat="34.974447777494788" lon="-3.406519945710897">
        <ele>304.3946533203125</ele>
        <time>2011-04-17T09:51:20Z</time>
      </trkpt>
      <trkpt lat="34.974603429436684" lon="-3.40480106882751">
        <ele>302.9525146484375</ele>
        <time>2011-04-17T09:51:30Z</time>
      </trkpt>
      <trkpt lat="34.974739132449031" lon="-3.403179170563817">
        <ele>301.0299072265625</ele>
        <time>2011-04-17T09:51:40Z</time>
      </trkpt>
      <trkpt lat="34.974910458549857" lon="-3.401253428310156">
        <ele>299.1072998046875</ele>
        <time>2011-04-17T09:51:52Z</time>
      </trkpt>
      <trkpt lat="34.975053621456027" lon="-3.399496246129274">
        <ele>299.1072998046875</ele>
        <time>2011-04-17T09:52:03Z</time>
      </trkpt>
      <trkpt lat="34.975239867344499" lon="-3.397437399253249">
        <ele>298.626708984375</ele>
        <time>2011-04-17T09:52:16Z</time>
      </trkpt>
      <trkpt lat="34.975359728559852" lon="-3.395891860127449">
        <ele>299.1072998046875</ele>
        <time>2011-04-17T09:52:26Z</time>
      </trkpt>
      <trkpt lat="34.975495850667357" lon="-3.394252695143223">
        <ele>298.626708984375</ele>
        <time>2011-04-17T09:52:37Z</time>
      </trkpt>
      <trkpt lat="34.975630547851324" lon="-3.392729619517922">
        <ele>297.6654052734375</ele>
        <time>2011-04-17T09:52:48Z</time>
      </trkpt>
      <trkpt lat="34.975732136517763" lon="-3.391442243009806">
        <ele>296.2235107421875</ele>
        <time>2011-04-17T09:52:59Z</time>
      </trkpt>
      <trkpt lat="34.975736495107412" lon="-3.390838243067265">
        <ele>295.261962890625</ele>
        <time>2011-04-17T09:53:04Z</time>
      </trkpt>
      <trkpt lat="34.975455785170197" lon="-3.389909779652953">
        <ele>296.7041015625</ele>
        <time>2011-04-17T09:53:12Z</time>
      </trkpt>
      <trkpt lat="34.975309520959854" lon="-3.389339055866003">
        <ele>296.7041015625</ele>
        <time>2011-04-17T09:53:16Z</time>
      </trkpt>
      <trkpt lat="34.975418988615274" lon="-3.388093169778585">
        <ele>295.74267578125</ele>
        <time>2011-04-17T09:53:24Z</time>
      </trkpt>
      <trkpt lat="34.975435584783554" lon="-3.386829849332571">
        <ele>294.30078125</ele>
        <time>2011-04-17T09:53:32Z</time>
      </trkpt>
      <trkpt lat="34.975240286439657" lon="-3.386353254318237">
        <ele>294.30078125</ele>
        <time>2011-04-17T09:53:36Z</time>
      </trkpt>
      <trkpt lat="34.975145654752851" lon="-3.385986378416419">
        <ele>292.8587646484375</ele>
        <time>2011-04-17T09:53:40Z</time>
      </trkpt>
      <trkpt lat="34.974904088303447" lon="-3.385425545275211">
        <ele>292.8587646484375</ele>
        <time>2011-04-17T09:53:45Z</time>
      </trkpt>
      <trkpt lat="34.974113591015339" lon="-3.384435977786779">
        <ele>291.8974609375</ele>
        <time>2011-04-17T09:53:53Z</time>
      </trkpt>
      <trkpt lat="34.973204657435417" lon="-3.383612288162112">
        <ele>289.494140625</ele>
        <time>2011-04-17T09:54:01Z</time>
      </trkpt>
      <trkpt lat="34.972178963944316" lon="-3.383200066164136">
        <ele>288.05224609375</ele>
        <time>2011-04-17T09:54:08Z</time>
      </trkpt>
      <trkpt lat="34.970472240820527" lon="-3.382609896361828">
        <ele>288.05224609375</ele>
        <time>2011-04-17T09:54:19Z</time>
      </trkpt>
      <trkpt lat="34.969651065766811" lon="-3.381976978853345">
        <ele>287.0908203125</ele>
        <time>2011-04-17T09:54:25Z</time>
      </trkpt>
      <trkpt lat="34.96907589957118" lon="-3.381000068038702">
        <ele>285.168212890625</ele>
        <time>2011-04-17T09:54:31Z</time>
      </trkpt>
      <trkpt lat="34.968827627599239" lon="-3.379889549687505">
        <ele>284.6876220703125</ele>
        <time>2011-04-17T09:54:37Z</time>
      </trkpt>
      <trkpt lat="34.968818491324782" lon="-3.379346989095211">
        <ele>283.24560546875</ele>
        <time>2011-04-17T09:54:40Z</time>
      </trkpt>
      <trkpt lat="34.969144547358155" lon="-3.377807149663568">
        <ele>282.2843017578125</ele>
        <time>2011-04-17T09:54:49Z</time>
      </trkpt>
      <trkpt lat="34.969363482668996" lon="-3.376399492844939">
        <ele>280.3616943359375</ele>
        <time>2011-04-17T09:54:57Z</time>
      </trkpt>
      <trkpt lat="34.969187881797552" lon="-3.374754628166556">
        <ele>280.3616943359375</ele>
        <time>2011-04-17T09:55:05Z</time>
      </trkpt>
      <trkpt lat="34.969133147969842" lon="-3.374031437560916">
        <ele>280.8424072265625</ele>
        <time>2011-04-17T09:55:10Z</time>
      </trkpt>
      <trkpt lat="34.969101883471012" lon="-3.373808227479458">
        <ele>281.8035888671875</ele>
        <time>2011-04-17T09:55:15Z</time>
      </trkpt>
      <trkpt lat="34.969032816588879" lon="-3.373111775144935">
        <ele>280.3616943359375</ele>
        <time>2011-04-17T09:55:25Z</time>
      </trkpt>
      <trkpt lat="34.968956625089049" lon="-3.371989438310266">
        <ele>280.3616943359375</ele>
        <time>2011-04-17T09:55:34Z</time>
      </trkpt>
      <trkpt lat="34.968890156596899" lon="-3.370647579431534">
        <ele>281.322998046875</ele>
        <time>2011-04-17T09:55:42Z</time>
      </trkpt>
      <trkpt lat="34.969219565391541" lon="-3.369083683937788">
        <ele>280.8424072265625</ele>
        <time>2011-04-17T09:55:50Z</time>
      </trkpt>
      <trkpt lat="34.969845358282328" lon="-3.36674815043807">
        <ele>283.24560546875</ele>
        <time>2011-04-17T09:56:01Z</time>
      </trkpt>
      <trkpt lat="34.970642477273941" lon="-3.365232786163688">
        <ele>282.7650146484375</ele>
        <time>2011-04-17T09:56:09Z</time>
      </trkpt>
      <trkpt lat="34.971845867112279" lon="-3.362850230187178">
        <ele>279.4002685546875</ele>
        <time>2011-04-17T09:56:21Z</time>
      </trkpt>
      <trkpt lat="34.972071843221784" lon="-3.361698975786567">
        <ele>276.516357421875</ele>
        <time>2011-04-17T09:56:26Z</time>
      </trkpt>
      <trkpt lat="34.972413489595056" lon="-3.359835427254438">
        <ele>274.59375</ele>
        <time>2011-04-17T09:56:34Z</time>
      </trkpt>
      <trkpt lat="34.973151264712214" lon="-3.357900884002447">
        <ele>276.9970703125</ele>
        <time>2011-04-17T09:56:43Z</time>
      </trkpt>
      <trkpt lat="34.973829779773951" lon="-3.355567697435617">
        <ele>275.5550537109375</ele>
        <time>2011-04-17T09:56:53Z</time>
      </trkpt>
      <trkpt lat="34.974638130515814" lon="-3.352857576683164">
        <ele>274.59375</ele>
        <time>2011-04-17T09:57:04Z</time>
      </trkpt>
      <trkpt lat="34.975769268348813" lon="-3.349159145727754">
        <ele>271.2291259765625</ele>
        <time>2011-04-17T09:57:19Z</time>
      </trkpt>
      <trkpt lat="34.976435545831919" lon="-3.347107926383615">
        <ele>268.3450927734375</ele>
        <time>2011-04-17T09:57:28Z</time>
      </trkpt>
      <trkpt lat="34.976894622668624" lon="-3.345224680379033">
        <ele>267.3839111328125</ele>
        <time>2011-04-17T09:57:37Z</time>
      </trkpt>
      <trkpt lat="34.976935191079974" lon="-3.343398934230208">
        <ele>267.864501953125</ele>
        <time>2011-04-17T09:57:45Z</time>
      </trkpt>
      <trkpt lat="34.976991768926382" lon="-3.340624775737524">
        <ele>265.4613037109375</ele>
        <time>2011-04-17T09:57:56Z</time>
      </trkpt>
      <trkpt lat="34.977079527452588" lon="-3.336617387831211">
        <ele>265.4613037109375</ele>
        <time>2011-04-17T09:58:11Z</time>
      </trkpt>
      <trkpt lat="34.977218583226204" lon="-3.333032028749585">
        <ele>269.3065185546875</ele>
        <time>2011-04-17T09:58:25Z</time>
      </trkpt>
      <trkpt lat="34.97760096564889" lon="-3.33191036246717">
        <ele>273.6324462890625</ele>
        <time>2011-04-17T09:58:30Z</time>
      </trkpt>
      <trkpt lat="34.978747190907598" lon="-3.328963620588183">
        <ele>278.43896484375</ele>
        <time>2011-04-17T09:58:43Z</time>
      </trkpt>
      <trkpt lat="34.979173578321934" lon="-3.327808091416955">
        <ele>278.919677734375</ele>
        <time>2011-04-17T09:58:48Z</time>
      </trkpt>
      <trkpt lat="34.979365356266499" lon="-3.326071193441749">
        <ele>277.4776611328125</ele>
        <time>2011-04-17T09:58:55Z</time>
      </trkpt>
      <trkpt lat="34.979454874992371" lon="-3.324828324839473">
        <ele>276.9970703125</ele>
        <time>2011-04-17T09:59:00Z</time>
      </trkpt>
      <trkpt lat="34.979172488674521" lon="-3.323710262775421">
        <ele>276.03564453125</ele>
        <time>2011-04-17T09:59:05Z</time>
      </trkpt>
      <trkpt lat="34.978338573127985" lon="-3.321377662941814">
        <ele>273.6324462890625</ele>
        <time>2011-04-17T09:59:15Z</time>
      </trkpt>
      <trkpt lat="34.977547572925687" lon="-3.319127624854446">
        <ele>271.2291259765625</ele>
        <time>2011-04-17T09:59:24Z</time>
      </trkpt>
      <trkpt lat="34.97660762630403" lon="-3.316497467458248">
        <ele>269.787109375</ele>
        <time>2011-04-17T09:59:35Z</time>
      </trkpt>
      <trkpt lat="34.976539397612214" lon="-3.316267635673285">
        <ele>269.787109375</ele>
        <time>2011-04-17T09:59:36Z</time>
      </trkpt>
      <trkpt lat="34.976456668227911" lon="-3.314808094874024">
        <ele>268.8258056640625</ele>
        <time>2011-04-17T09:59:42Z</time>
      </trkpt>
      <trkpt lat="34.976473180577159" lon="-3.312044078484178">
        <ele>269.3065185546875</ele>
        <time>2011-04-17T09:59:52Z</time>
      </trkpt>
      <trkpt lat="34.976487848907709" lon="-3.308883346617222">
        <ele>268.8258056640625</ele>
        <time>2011-04-17T10:00:03Z</time>
      </trkpt>
      <trkpt lat="34.976516263559461" lon="-3.305325480177999">
        <ele>267.864501953125</ele>
        <time>2011-04-17T10:00:16Z</time>
      </trkpt>
      <trkpt lat="34.976543756201863" lon="-3.301864759996533">
        <ele>266.9031982421875</ele>
        <time>2011-04-17T10:00:29Z</time>
      </trkpt>
      <trkpt lat="34.976594047620893" lon="-3.298982223495841">
        <ele>264.9805908203125</ele>
        <time>2011-04-17T10:00:39Z</time>
      </trkpt>
      <trkpt lat="34.976593963801861" lon="-3.29573574475944">
        <ele>263.057861328125</ele>
        <time>2011-04-17T10:00:49Z</time>
      </trkpt>
      <trkpt lat="34.9766178522259" lon="-3.291287971660495">
        <ele>262.5771484375</ele>
        <time>2011-04-17T10:01:02Z</time>
      </trkpt>
      <trkpt lat="34.976659426465631" lon="-3.285127691924572">
        <ele>261.615966796875</ele>
        <time>2011-04-17T10:01:20Z</time>
      </trkpt>
      <trkpt lat="34.976677028462291" lon="-3.279277542605996">
        <ele>257.770751953125</ele>
        <time>2011-04-17T10:01:37Z</time>
      </trkpt>
      <trkpt lat="34.976706616580486" lon="-3.275693189352751">
        <ele>254.8865966796875</ele>
        <time>2011-04-17T10:01:48Z</time>
      </trkpt>
      <trkpt lat="34.976704018190503" lon="-3.272335147485137">
        <ele>252.0028076171875</ele>
        <time>2011-04-17T10:01:59Z</time>
      </trkpt>
      <trkpt lat="34.976714160293341" lon="-3.26773876324296">
        <ele>248.63818359375</ele>
        <time>2011-04-17T10:02:15Z</time>
      </trkpt>
      <trkpt lat="34.976729163900018" lon="-3.264352139085531">
        <ele>244.7928466796875</ele>
        <time>2011-04-17T10:02:27Z</time>
      </trkpt>
      <trkpt lat="34.976747771725059" lon="-3.260857136920095">
        <ele>243.83154296875</ele>
        <time>2011-04-17T10:02:39Z</time>
      </trkpt>
      <trkpt lat="34.97677375562489" lon="-3.256797445937991">
        <ele>241.908935546875</ele>
        <time>2011-04-17T10:02:53Z</time>
      </trkpt>
      <trkpt lat="34.97679328545928" lon="-3.252287646755576">
        <ele>241.42822265625</ele>
        <time>2011-04-17T10:03:09Z</time>
      </trkpt>
      <trkpt lat="34.976808037608862" lon="-3.249024571850896">
        <ele>240.467041015625</ele>
        <time>2011-04-17T10:03:21Z</time>
      </trkpt>
      <trkpt lat="34.976830584928393" lon="-3.244595658034086">
        <ele>237.102294921875</ele>
        <time>2011-04-17T10:03:37Z</time>
      </trkpt>
      <trkpt lat="34.976822789758444" lon="-3.240669155493379">
        <ele>230.373046875</ele>
        <time>2011-04-17T10:03:51Z</time>
      </trkpt>
      <trkpt lat="34.976577535271645" lon="-3.238517185673118">
        <ele>227.9697265625</ele>
        <time>2011-04-17T10:03:59Z</time>
      </trkpt>
      <trkpt lat="34.976167324930429" lon="-3.236209396272898">
        <ele>231.81494140625</ele>
        <time>2011-04-17T10:04:08Z</time>
      </trkpt>
      <trkpt lat="34.976137988269329" lon="-3.234473336488009">
        <ele>232.2957763671875</ele>
        <time>2011-04-17T10:04:15Z</time>
      </trkpt>
      <trkpt lat="34.976168582215905" lon="-3.231343198567629">
        <ele>229.4117431640625</ele>
        <time>2011-04-17T10:04:27Z</time>
      </trkpt>
      <trkpt lat="34.976206552237272" lon="-3.227667650207877">
        <ele>227.008544921875</ele>
        <time>2011-04-17T10:04:40Z</time>
      </trkpt>
      <trkpt lat="34.976237146183848" lon="-3.223437471315265">
        <ele>223.1632080078125</ele>
        <time>2011-04-17T10:04:54Z</time>
      </trkpt>
      <trkpt lat="34.97629095800221" lon="-3.218407239764929">
        <ele>218.3565673828125</ele>
        <time>2011-04-17T10:05:10Z</time>
      </trkpt>
      <trkpt lat="34.976326832547784" lon="-3.214190555736423">
        <ele>215.47265625</ele>
        <time>2011-04-17T10:05:24Z</time>
      </trkpt>
      <trkpt lat="34.976369831711054" lon="-3.209265852347016">
        <ele>213.0693359375</ele>
        <time>2011-04-17T10:05:40Z</time>
      </trkpt>
      <trkpt lat="34.976404616609216" lon="-3.205163916572928">
        <ele>211.62744140625</ele>
        <time>2011-04-17T10:05:53Z</time>
      </trkpt>
      <trkpt lat="34.976421045139432" lon="-3.202168140560389">
        <ele>209.704833984375</ele>
        <time>2011-04-17T10:06:03Z</time>
      </trkpt>
      <trkpt lat="34.976456332951784" lon="-3.197921281680465">
        <ele>207.3013916015625</ele>
        <time>2011-04-17T10:06:17Z</time>
      </trkpt>
      <trkpt lat="34.976495644077659" lon="-3.193266056478024">
        <ele>205.3787841796875</ele>
        <time>2011-04-17T10:06:32Z</time>
      </trkpt>
      <trkpt lat="34.976531099528074" lon="-3.189689582213759">
        <ele>204.8980712890625</ele>
        <time>2011-04-17T10:06:44Z</time>
      </trkpt>
      <trkpt lat="34.976568147540092" lon="-3.185078194364905">
        <ele>203.9368896484375</ele>
        <time>2011-04-17T10:07:00Z</time>
      </trkpt>
      <trkpt lat="34.976597651839256" lon="-3.181670531630516">
        <ele>203.4561767578125</ele>
        <time>2011-04-17T10:07:12Z</time>
      </trkpt>
      <trkpt lat="34.976629838347435" lon="-3.178337384015322">
        <ele>204.41748046875</ele>
        <time>2011-04-17T10:07:25Z</time>
      </trkpt>
      <trkpt lat="34.976651128381491" lon="-3.175640841946006">
        <ele>207.7821044921875</ele>
        <time>2011-04-17T10:07:36Z</time>
      </trkpt>
      <trkpt lat="34.976668562740088" lon="-3.173952894285321">
        <ele>210.666015625</ele>
        <time>2011-04-17T10:07:45Z</time>
      </trkpt>
      <trkpt lat="34.976562028750777" lon="-3.17308746278286">
        <ele>212.588623046875</ele>
        <time>2011-04-17T10:07:51Z</time>
      </trkpt>
      <trkpt lat="34.976398749276996" lon="-3.172651352360845">
        <ele>213.550048828125</ele>
        <time>2011-04-17T10:07:54Z</time>
      </trkpt>
      <trkpt lat="34.975593918934464" lon="-3.171487944200635">
        <ele>212.588623046875</ele>
        <time>2011-04-17T10:08:02Z</time>
      </trkpt>
      <trkpt lat="34.974635867401958" lon="-3.16992019303143">
        <ele>214.0306396484375</ele>
        <time>2011-04-17T10:08:11Z</time>
      </trkpt>
      <trkpt lat="34.973770771175623" lon="-3.167880373075604">
        <ele>216.4339599609375</ele>
        <time>2011-04-17T10:08:21Z</time>
      </trkpt>
      <trkpt lat="34.97311145067215" lon="-3.166300719603896">
        <ele>217.3953857421875</ele>
        <time>2011-04-17T10:08:29Z</time>
      </trkpt>
      <trkpt lat="34.972210647538304" lon="-3.164611766114831">
        <ele>219.798583984375</ele>
        <time>2011-04-17T10:08:39Z</time>
      </trkpt>
      <trkpt lat="34.971422161906958" lon="-3.163751950487495">
        <ele>216.4339599609375</ele>
        <time>2011-04-17T10:08:45Z</time>
      </trkpt>
      <trkpt lat="34.970144256949425" lon="-3.162467340007424">
        <ele>211.146728515625</ele>
        <time>2011-04-17T10:08:54Z</time>
      </trkpt>
      <trkpt lat="34.969731029123068" lon="-3.161520771682262">
        <ele>208.2628173828125</ele>
        <time>2011-04-17T10:09:00Z</time>
      </trkpt>
      <trkpt lat="34.96977997943759" lon="-3.1607745308429">
        <ele>205.3787841796875</ele>
        <time>2011-04-17T10:09:04Z</time>
      </trkpt>
      <trkpt lat="34.970432929694653" lon="-3.158357441425324">
        <ele>199.61083984375</ele>
        <time>2011-04-17T10:09:17Z</time>
      </trkpt>
      <trkpt lat="34.970980435609818" lon="-3.156257439404726">
        <ele>198.6495361328125</ele>
        <time>2011-04-17T10:09:29Z</time>
      </trkpt>
      <trkpt lat="34.971450157463551" lon="-3.154410487040877">
        <ele>199.61083984375</ele>
        <time>2011-04-17T10:09:40Z</time>
      </trkpt>
      <trkpt lat="34.971840670332313" lon="-3.152909958735108">
        <ele>200.0916748046875</ele>
        <time>2011-04-17T10:09:51Z</time>
      </trkpt>
      <trkpt lat="34.972019288688898" lon="-3.152223564684391">
        <ele>201.0528564453125</ele>
        <time>2011-04-17T10:09:58Z</time>
      </trkpt>
      <trkpt lat="34.972253981977701" lon="-3.151265848428011">
        <ele>202.0142822265625</ele>
        <time>2011-04-17T10:10:07Z</time>
      </trkpt>
      <trkpt lat="34.972679950296879" lon="-3.149601789191365">
        <ele>202.9754638671875</ele>
        <time>2011-04-17T10:10:20Z</time>
      </trkpt>
      <trkpt lat="34.973095525056124" lon="-3.147890875115991">
        <ele>203.9368896484375</ele>
        <time>2011-04-17T10:10:31Z</time>
      </trkpt>
      <trkpt lat="34.973493749275804" lon="-3.146235784515739">
        <ele>203.4561767578125</ele>
        <time>2011-04-17T10:10:40Z</time>
      </trkpt>
      <trkpt lat="34.973688796162605" lon="-3.144559990614653">
        <ele>201.5335693359375</ele>
        <time>2011-04-17T10:10:48Z</time>
      </trkpt>
      <trkpt lat="34.973896248266101" lon="-3.143236320465803">
        <ele>200.0916748046875</ele>
        <time>2011-04-17T10:10:54Z</time>
      </trkpt>
      <trkpt lat="34.974526483565569" lon="-3.14120345748961">
        <ele>198.6495361328125</ele>
        <time>2011-04-17T10:11:03Z</time>
      </trkpt>
      <trkpt lat="34.975696178153157" lon="-3.137353397905827">
        <ele>198.6495361328125</ele>
        <time>2011-04-17T10:11:19Z</time>
      </trkpt>
      <trkpt lat="34.976392462849617" lon="-3.134619053453207">
        <ele>198.6495361328125</ele>
        <time>2011-04-17T10:11:29Z</time>
      </trkpt>
      <trkpt lat="34.977344982326031" lon="-3.130807047709823">
        <ele>198.6495361328125</ele>
        <time>2011-04-17T10:11:43Z</time>
      </trkpt>
      <trkpt lat="34.978452567011118" lon="-3.126402692869306">
        <ele>198.6495361328125</ele>
        <time>2011-04-17T10:11:59Z</time>
      </trkpt>
      <trkpt lat="34.979431238025427" lon="-3.122547185048461">
        <ele>198.6495361328125</ele>
        <time>2011-04-17T10:12:13Z</time>
      </trkpt>
      <trkpt lat="34.980331538245082" lon="-3.118986636400223">
        <ele>198.6495361328125</ele>
        <time>2011-04-17T10:12:25Z</time>
      </trkpt>
      <trkpt lat="34.981271652504802" lon="-3.115292647853494">
        <ele>197.20751953125</ele>
        <time>2011-04-17T10:12:37Z</time>
      </trkpt>
      <trkpt lat="34.982602866366506" lon="-3.110129982233048">
        <ele>196.246337890625</ele>
        <time>2011-04-17T10:12:54Z</time>
      </trkpt>
      <trkpt lat="34.983609952032566" lon="-3.106214627623558">
        <ele>195.765625</ele>
        <time>2011-04-17T10:13:07Z</time>
      </trkpt>
      <trkpt lat="34.984551155939698" lon="-3.102535139769316">
        <ele>195.765625</ele>
        <time>2011-04-17T10:13:19Z</time>
      </trkpt>
      <trkpt lat="34.985906844958663" lon="-3.09729234315455">
        <ele>194.8043212890625</ele>
        <time>2011-04-17T10:13:36Z</time>
      </trkpt>
      <trkpt lat="34.987080059945583" lon="-3.09275446459651">
        <ele>194.32373046875</ele>
        <time>2011-04-17T10:13:51Z</time>
      </trkpt>
      <trkpt lat="34.988380763679743" lon="-3.087725071236491">
        <ele>194.32373046875</ele>
        <time>2011-04-17T10:14:08Z</time>
      </trkpt>
      <trkpt lat="34.989101942628622" lon="-3.084949571639299">
        <ele>193.843017578125</ele>
        <time>2011-04-17T10:14:18Z</time>
      </trkpt>
      <trkpt lat="34.989364463835955" lon="-3.083933852612972">
        <ele>193.843017578125</ele>
        <time>2011-04-17T10:14:23Z</time>
      </trkpt>
      <trkpt lat="34.989666379988194" lon="-3.082747394219041">
        <ele>192.8817138671875</ele>
        <time>2011-04-17T10:14:31Z</time>
      </trkpt>
      <trkpt lat="34.989686999469995" lon="-3.082543294876814">
        <ele>192.8817138671875</ele>
        <time>2011-04-17T10:14:33Z</time>
      </trkpt>
      <trkpt lat="34.989660764113069" lon="-3.082285299897194">
        <ele>193.3623046875</ele>
        <time>2011-04-17T10:14:36Z</time>
      </trkpt>
      <trkpt lat="34.989750785753131" lon="-3.081961087882519">
        <ele>194.32373046875</ele>
        <time>2011-04-17T10:14:40Z</time>
      </trkpt>
      <trkpt lat="34.990079356357455" lon="-3.081138487905264">
        <ele>194.32373046875</ele>
        <time>2011-04-17T10:14:47Z</time>
      </trkpt>
      <trkpt lat="34.990406753495336" lon="-3.079892098903656">
        <ele>194.32373046875</ele>
        <time>2011-04-17T10:14:54Z</time>
      </trkpt>
      <trkpt lat="34.991175122559071" lon="-3.076920127496123">
        <ele>193.843017578125</ele>
        <time>2011-04-17T10:15:09Z</time>
      </trkpt>
      <trkpt lat="34.991966374218464" lon="-3.073854446411133">
        <ele>193.843017578125</ele>
        <time>2011-04-17T10:15:23Z</time>
      </trkpt>
      <trkpt lat="34.992698365822434" lon="-3.070997474715114">
        <ele>193.3623046875</ele>
        <time>2011-04-17T10:15:36Z</time>
      </trkpt>
      <trkpt lat="34.993332792073488" lon="-3.06853411719203">
        <ele>193.843017578125</ele>
        <time>2011-04-17T10:15:47Z</time>
      </trkpt>
      <trkpt lat="34.994302578270435" lon="-3.064762847498059">
        <ele>194.8043212890625</ele>
        <time>2011-04-17T10:16:03Z</time>
      </trkpt>
      <trkpt lat="34.9951212387532" lon="-3.06157554499805">
        <ele>194.32373046875</ele>
        <time>2011-04-17T10:16:16Z</time>
      </trkpt>
      <trkpt lat="34.995869575068355" lon="-3.058637855574489">
        <ele>193.843017578125</ele>
        <time>2011-04-17T10:16:27Z</time>
      </trkpt>
      <trkpt lat="34.996854616329074" lon="-3.054767679423094">
        <ele>191.4395751953125</ele>
        <time>2011-04-17T10:16:42Z</time>
      </trkpt>
      <trkpt lat="34.997459119185805" lon="-3.052408341318369">
        <ele>190.4783935546875</ele>
        <time>2011-04-17T10:16:52Z</time>
      </trkpt>
      <trkpt lat="34.998273672536016" lon="-3.049240736290813">
        <ele>189.9976806640625</ele>
        <time>2011-04-17T10:17:06Z</time>
      </trkpt>
      <trkpt lat="34.999019075185061" lon="-3.046313524246216">
        <ele>188.5557861328125</ele>
        <time>2011-04-17T10:17:19Z</time>
      </trkpt>
      <trkpt lat="34.999605976045132" lon="-3.044027695432305">
        <ele>188.5557861328125</ele>
        <time>2011-04-17T10:17:30Z</time>
      </trkpt>
      <trkpt lat="34.999981569126248" lon="-3.042595228180289">
        <ele>188.5557861328125</ele>
        <time>2011-04-17T10:17:39Z</time>
      </trkpt>
      <trkpt lat="35.00050057657063" lon="-3.04071793332696">
        <ele>187.5943603515625</ele>
        <time>2011-04-17T10:17:51Z</time>
      </trkpt>
      <trkpt lat="35.000884551554918" lon="-3.038968546316028">
        <ele>187.11376953125</ele>
        <time>2011-04-17T10:18:02Z</time>
      </trkpt>
      <trkpt lat="35.001244470477104" lon="-3.037329046055675">
        <ele>186.6331787109375</ele>
        <time>2011-04-17T10:18:13Z</time>
      </trkpt>
      <trkpt lat="35.00156482681632" lon="-3.036039993166924">
        <ele>185.6717529296875</ele>
        <time>2011-04-17T10:18:22Z</time>
      </trkpt>
      <trkpt lat="35.001694997772574" lon="-3.03554872982204">
        <ele>185.191162109375</ele>
        <time>2011-04-17T10:18:27Z</time>
      </trkpt>
      <trkpt lat="35.001732045784593" lon="-3.03540900349617">
        <ele>185.191162109375</ele>
        <time>2011-04-17T10:18:29Z</time>
      </trkpt>
      <trkpt lat="35.001829359680414" lon="-3.035041792318225">
        <ele>185.191162109375</ele>
        <time>2011-04-17T10:18:33Z</time>
      </trkpt>
      <trkpt lat="35.0021340418607" lon="-3.033892381936312">
        <ele>184.7105712890625</ele>
        <time>2011-04-17T10:18:41Z</time>
      </trkpt>
      <trkpt lat="35.002594962716103" lon="-3.032153388485313">
        <ele>185.191162109375</ele>
        <time>2011-04-17T10:18:52Z</time>
      </trkpt>
      <trkpt lat="35.003159902989864" lon="-3.030022205784917">
        <ele>184.2298583984375</ele>
        <time>2011-04-17T10:19:05Z</time>
      </trkpt>
      <trkpt lat="35.003815619274974" lon="-3.027440076693893">
        <ele>182.787841796875</ele>
        <time>2011-04-17T10:19:20Z</time>
      </trkpt>
      <trkpt lat="35.004424396902323" lon="-3.02502952516079">
        <ele>182.30712890625</ele>
        <time>2011-04-17T10:19:35Z</time>
      </trkpt>
      <trkpt lat="35.004884647205472" lon="-3.023214591667056">
        <ele>182.787841796875</ele>
        <time>2011-04-17T10:19:47Z</time>
      </trkpt>
      <trkpt lat="35.005460316315293" lon="-3.02100419998169">
        <ele>181.826416015625</ele>
        <time>2011-04-17T10:20:00Z</time>
      </trkpt>
      <trkpt lat="35.005931630730629" lon="-3.019193960353732">
        <ele>180.865234375</ele>
        <time>2011-04-17T10:20:11Z</time>
      </trkpt>
      <trkpt lat="35.006504282355309" lon="-3.017005613073707">
        <ele>179.90380859375</ele>
        <time>2011-04-17T10:20:24Z</time>
      </trkpt>
      <trkpt lat="35.006968807429075" lon="-3.015290508046746">
        <ele>182.30712890625</ele>
        <time>2011-04-17T10:20:35Z</time>
      </trkpt>
      <trkpt lat="35.007202746346593" lon="-3.014426836743951">
        <ele>180.865234375</ele>
        <time>2011-04-17T10:20:42Z</time>
      </trkpt>
      <trkpt lat="35.007268209010363" lon="-3.014185018837452">
        <ele>181.3458251953125</ele>
        <time>2011-04-17T10:20:48Z</time>
      </trkpt>
      <trkpt lat="35.007440792396665" lon="-3.013860052451491">
        <ele>179.4232177734375</ele>
        <time>2011-04-17T10:20:56Z</time>
      </trkpt>
      <trkpt lat="35.007835999131203" lon="-3.013121103867889">
        <ele>180.384521484375</ele>
        <time>2011-04-17T10:21:07Z</time>
      </trkpt>
      <trkpt lat="35.008034147322178" lon="-3.012750456109643">
        <ele>179.90380859375</ele>
        <time>2011-04-17T10:21:16Z</time>
      </trkpt>
      <trkpt lat="35.008123749867082" lon="-3.012582818046212">
        <ele>179.4232177734375</ele>
        <time>2011-04-17T10:21:28Z</time>
      </trkpt>
      <trkpt lat="35.008260207250714" lon="-3.012327756732702">
        <ele>177.5006103515625</ele>
        <time>2011-04-17T10:21:35Z</time>
      </trkpt>
      <trkpt lat="35.008600009605289" lon="-3.011692240834236">
        <ele>180.384521484375</ele>
        <time>2011-04-17T10:21:43Z</time>
      </trkpt>
      <trkpt lat="35.009259833022952" lon="-3.010747600346804">
        <ele>182.30712890625</ele>
        <time>2011-04-17T10:21:53Z</time>
      </trkpt>
      <trkpt lat="35.0099584646523" lon="-3.010038826614618">
        <ele>181.3458251953125</ele>
        <time>2011-04-17T10:22:03Z</time>
      </trkpt>
      <trkpt lat="35.010395580902696" lon="-3.009595340117812">
        <ele>180.384521484375</ele>
        <time>2011-04-17T10:22:12Z</time>
      </trkpt>
      <trkpt lat="35.010678302496672" lon="-3.008881621062756">
        <ele>181.826416015625</ele>
        <time>2011-04-17T10:22:23Z</time>
      </trkpt>
      <trkpt lat="35.010936465114355" lon="-3.008220540359616">
        <ele>179.90380859375</ele>
        <time>2011-04-17T10:22:31Z</time>
      </trkpt>
      <trkpt lat="35.011049536988139" lon="-3.007930777966976">
        <ele>178.4619140625</ele>
        <time>2011-04-17T10:22:37Z</time>
      </trkpt>
      <trkpt lat="35.011159339919686" lon="-3.007649732753635">
        <ele>176.539306640625</ele>
        <time>2011-04-17T10:22:48Z</time>
      </trkpt>
      <trkpt lat="35.011250535026193" lon="-3.007416296750307">
        <ele>173.1746826171875</ele>
        <time>2011-04-17T10:23:07Z</time>
      </trkpt>
      <trkpt lat="35.011309375986457" lon="-3.007188308984041">
        <ele>174.1358642578125</ele>
        <time>2011-04-17T10:23:15Z</time>
      </trkpt>
      <trkpt lat="35.011363690719008" lon="-3.006896115839481">
        <ele>174.6165771484375</ele>
        <time>2011-04-17T10:23:20Z</time>
      </trkpt>
      <trkpt lat="35.0115005671978" lon="-3.006159346550703">
        <ele>174.1358642578125</ele>
        <time>2011-04-17T10:23:27Z</time>
      </trkpt>
      <trkpt lat="35.011726459488273" lon="-3.004943551495671">
        <ele>173.6552734375</ele>
        <time>2011-04-17T10:23:38Z</time>
      </trkpt>
      <trkpt lat="35.011905832216144" lon="-3.00397795625031">
        <ele>173.1746826171875</ele>
        <time>2011-04-17T10:23:49Z</time>
      </trkpt>
      <trkpt lat="35.012030052021146" lon="-3.003324838355184">
        <ele>172.6939697265625</ele>
        <time>2011-04-17T10:23:58Z</time>
      </trkpt>
      <trkpt lat="35.012176064774394" lon="-3.002661410719156">
        <ele>172.2132568359375</ele>
        <time>2011-04-17T10:24:10Z</time>
      </trkpt>
      <trkpt lat="35.012247730046511" lon="-3.002335857599974">
        <ele>171.732666015625</ele>
        <time>2011-04-17T10:24:24Z</time>
      </trkpt>
      <trkpt lat="35.012386450544" lon="-3.001705873757601">
        <ele>170.2906494140625</ele>
        <time>2011-04-17T10:24:31Z</time>
      </trkpt>
      <trkpt lat="35.012694988399744" lon="-3.000304000452161">
        <ele>167.40673828125</ele>
        <time>2011-04-17T10:24:43Z</time>
      </trkpt>
      <trkpt lat="35.013135289773345" lon="-2.99904428422451">
        <ele>165.9647216796875</ele>
        <time>2011-04-17T10:24:53Z</time>
      </trkpt>
      <trkpt lat="35.013567041605711" lon="-2.998293181881309">
        <ele>163.5615234375</ele>
        <time>2011-04-17T10:24:59Z</time>
      </trkpt>
      <trkpt lat="35.014669261872768" lon="-2.997202277183533">
        <ele>163.080810546875</ele>
        <time>2011-04-17T10:25:08Z</time>
      </trkpt>
      <trkpt lat="35.01603894867003" lon="-2.995513742789626">
        <ele>161.158203125</ele>
        <time>2011-04-17T10:25:20Z</time>
      </trkpt>
      <trkpt lat="35.016472544521093" lon="-2.994427364319563">
        <ele>161.638916015625</ele>
        <time>2011-04-17T10:25:26Z</time>
      </trkpt>
      <trkpt lat="35.017007393762469" lon="-2.992772441357374">
        <ele>159.7161865234375</ele>
        <time>2011-04-17T10:25:36Z</time>
      </trkpt>
      <trkpt lat="35.017538303509355" lon="-2.991285743191838">
        <ele>157.7935791015625</ele>
        <time>2011-04-17T10:25:45Z</time>
      </trkpt>
      <trkpt lat="35.018324609845877" lon="-2.9902602173388">
        <ele>157.3128662109375</ele>
        <time>2011-04-17T10:25:52Z</time>
      </trkpt>
      <trkpt lat="35.0191954895854" lon="-2.989468462765217">
        <ele>156.3515625</ele>
        <time>2011-04-17T10:25:58Z</time>
      </trkpt>
      <trkpt lat="35.020498540252447" lon="-2.988710068166256">
        <ele>154.428955078125</ele>
        <time>2011-04-17T10:26:06Z</time>
      </trkpt>
      <trkpt lat="35.022252453491092" lon="-2.987869530916214">
        <ele>152.9869384765625</ele>
        <time>2011-04-17T10:26:16Z</time>
      </trkpt>
      <trkpt lat="35.024494864046574" lon="-2.98641812056303">
        <ele>151.064208984375</ele>
        <time>2011-04-17T10:26:28Z</time>
      </trkpt>
      <trkpt lat="35.026019951328635" lon="-2.985350852832198">
        <ele>148.6610107421875</ele>
        <time>2011-04-17T10:26:37Z</time>
      </trkpt>
      <trkpt lat="35.028005875647068" lon="-2.983787292614579">
        <ele>145.777099609375</ele>
        <time>2011-04-17T10:26:49Z</time>
      </trkpt>
      <trkpt lat="35.029249750077724" lon="-2.982590608298779">
        <ele>143.3736572265625</ele>
        <time>2011-04-17T10:26:57Z</time>
      </trkpt>
      <trkpt lat="35.030907858163118" lon="-2.980637038126588">
        <ele>140.0091552734375</ele>
        <time>2011-04-17T10:27:09Z</time>
      </trkpt>
      <trkpt lat="35.031952243298292" lon="-2.979259891435504">
        <ele>139.0478515625</ele>
        <time>2011-04-17T10:27:18Z</time>
      </trkpt>
      <trkpt lat="35.032883053645492" lon="-2.978006461635232">
        <ele>136.6446533203125</ele>
        <time>2011-04-17T10:27:27Z</time>
      </trkpt>
      <trkpt lat="35.034097842872143" lon="-2.976574162021279">
        <ele>134.721923828125</ele>
        <time>2011-04-17T10:27:36Z</time>
      </trkpt>
      <trkpt lat="35.035508014261723" lon="-2.974893171340227">
        <ele>132.79931640625</ele>
        <time>2011-04-17T10:27:46Z</time>
      </trkpt>
      <trkpt lat="35.036852555349469" lon="-2.973172618076205">
        <ele>130.39599609375</ele>
        <time>2011-04-17T10:27:56Z</time>
      </trkpt>
      <trkpt lat="35.038679223507643" lon="-2.97062954865396">
        <ele>127.9925537109375</ele>
        <time>2011-04-17T10:28:10Z</time>
      </trkpt>
      <trkpt lat="35.040462389588356" lon="-2.96803736127913">
        <ele>124.6280517578125</ele>
        <time>2011-04-17T10:28:24Z</time>
      </trkpt>
      <trkpt lat="35.042297020554543" lon="-2.965477025136352">
        <ele>121.2635498046875</ele>
        <time>2011-04-17T10:28:38Z</time>
      </trkpt>
      <trkpt lat="35.043670479208231" lon="-2.963614817708731">
        <ele>119.3408203125</ele>
        <time>2011-04-17T10:28:49Z</time>
      </trkpt>
      <trkpt lat="35.044508166611195" lon="-2.962494073435664">
        <ele>117.8988037109375</ele>
        <time>2011-04-17T10:28:57Z</time>
      </trkpt>
      <trkpt lat="35.045480886474252" lon="-2.961254892870784">
        <ele>115.9761962890625</ele>
        <time>2011-04-17T10:29:08Z</time>
      </trkpt>
      <trkpt lat="35.045705772936344" lon="-2.960968315601349">
        <ele>115.9761962890625</ele>
        <time>2011-04-17T10:29:13Z</time>
      </trkpt>
      <trkpt lat="35.045799314975739" lon="-2.96084912493825">
        <ele>115.49560546875</ele>
        <time>2011-04-17T10:29:18Z</time>
      </trkpt>
      <trkpt lat="35.045966785401106" lon="-2.960576293990016">
        <ele>114.5341796875</ele>
        <time>2011-04-17T10:29:22Z</time>
      </trkpt>
      <trkpt lat="35.046465843915939" lon="-2.95972041785717">
        <ele>114.0535888671875</ele>
        <time>2011-04-17T10:29:30Z</time>
      </trkpt>
      <trkpt lat="35.047106724232435" lon="-2.958842748776078">
        <ele>112.1309814453125</ele>
        <time>2011-04-17T10:29:36Z</time>
      </trkpt>
      <trkpt lat="35.048213470727205" lon="-2.9574463237077">
        <ele>109.7276611328125</ele>
        <time>2011-04-17T10:29:44Z</time>
      </trkpt>
      <trkpt lat="35.049768732860684" lon="-2.955412706360221">
        <ele>106.8436279296875</ele>
        <time>2011-04-17T10:29:55Z</time>
      </trkpt>
      <trkpt lat="35.051428684964776" lon="-2.953310022130609">
        <ele>104.4404296875</ele>
        <time>2011-04-17T10:30:08Z</time>
      </trkpt>
      <trkpt lat="35.052856542170048" lon="-2.951598102226853">
        <ele>102.5177001953125</ele>
        <time>2011-04-17T10:30:19Z</time>
      </trkpt>
      <trkpt lat="35.054306779056787" lon="-2.949912250041962">
        <ele>100.5950927734375</ele>
        <time>2011-04-17T10:30:30Z</time>
      </trkpt>
      <trkpt lat="35.055767074227333" lon="-2.948196139186621">
        <ele>100.5950927734375</ele>
        <time>2011-04-17T10:30:41Z</time>
      </trkpt>
      <trkpt lat="35.056508872658014" lon="-2.947046393528581">
        <ele>102.037109375</ele>
        <time>2011-04-17T10:30:48Z</time>
      </trkpt>
      <trkpt lat="35.057142712175846" lon="-2.945794304832816">
        <ele>102.037109375</ele>
        <time>2011-04-17T10:30:57Z</time>
      </trkpt>
      <trkpt lat="35.057593239471316" lon="-2.94468772597611">
        <ele>101.556396484375</ele>
        <time>2011-04-17T10:31:05Z</time>
      </trkpt>
      <trkpt lat="35.057767583057284" lon="-2.944240299984813">
        <ele>102.037109375</ele>
        <time>2011-04-17T10:31:10Z</time>
      </trkpt>
      <trkpt lat="35.058047538623214" lon="-2.943500345572829">
        <ele>101.07568359375</ele>
        <time>2011-04-17T10:31:16Z</time>
      </trkpt>
      <trkpt lat="35.058432938531041" lon="-2.942476244643331">
        <ele>100.114501953125</ele>
        <time>2011-04-17T10:31:22Z</time>
      </trkpt>
      <trkpt lat="35.059036016464233" lon="-2.940886616706848">
        <ele>99.6337890625</ele>
        <time>2011-04-17T10:31:30Z</time>
      </trkpt>
      <trkpt lat="35.060349125415087" lon="-2.937273178249598">
        <ele>97.23046875</ele>
        <time>2011-04-17T10:31:47Z</time>
      </trkpt>
      <trkpt lat="35.061482023447752" lon="-2.934381337836385">
        <ele>93.8658447265625</ele>
        <time>2011-04-17T10:32:01Z</time>
      </trkpt>
      <trkpt lat="35.062178056687117" lon="-2.933116760104895">
        <ele>94.3465576171875</ele>
        <time>2011-04-17T10:32:08Z</time>
      </trkpt>
      <trkpt lat="35.063037369400263" lon="-2.931854110211134">
        <ele>93.8658447265625</ele>
        <time>2011-04-17T10:32:16Z</time>
      </trkpt>
      <trkpt lat="35.063952086493373" lon="-2.931118179112673">
        <ele>92.4239501953125</ele>
        <time>2011-04-17T10:32:23Z</time>
      </trkpt>
      <trkpt lat="35.065052211284637" lon="-2.930554915219545">
        <ele>87.6171875</ele>
        <time>2011-04-17T10:32:32Z</time>
      </trkpt>
      <trkpt lat="35.065878164023161" lon="-2.930302787572146">
        <ele>84.7333984375</ele>
        <time>2011-04-17T10:32:39Z</time>
      </trkpt>
      <trkpt lat="35.066507309675217" lon="-2.930164905264974">
        <ele>83.77197265625</ele>
        <time>2011-04-17T10:32:46Z</time>
      </trkpt>
      <trkpt lat="35.066730184480548" lon="-2.930125594139099">
        <ele>84.252685546875</ele>
        <time>2011-04-17T10:32:53Z</time>
      </trkpt>
      <trkpt lat="35.066941240802407" lon="-2.930088294669986">
        <ele>84.7333984375</ele>
        <time>2011-04-17T10:33:00Z</time>
      </trkpt>
      <trkpt lat="35.066847447305918" lon="-2.929738936945796">
        <ele>84.252685546875</ele>
        <time>2011-04-17T10:33:06Z</time>
      </trkpt>
      <trkpt lat="35.066504795104265" lon="-2.928584916517139">
        <ele>83.2913818359375</ele>
        <time>2011-04-17T10:33:15Z</time>
      </trkpt>
      <trkpt lat="35.06584832444787" lon="-2.927044155076146">
        <ele>81.3687744140625</ele>
        <time>2011-04-17T10:33:25Z</time>
      </trkpt>
      <trkpt lat="35.065264441072941" lon="-2.925673462450504">
        <ele>80.407470703125</ele>
        <time>2011-04-17T10:33:34Z</time>
      </trkpt>
      <trkpt lat="35.064600761979818" lon="-2.924208557233214">
        <ele>78.9654541015625</ele>
        <time>2011-04-17T10:33:44Z</time>
      </trkpt>
      <trkpt lat="35.06388402543962" lon="-2.922680117189884">
        <ele>77.5234375</ele>
        <time>2011-04-17T10:33:54Z</time>
      </trkpt>
      <trkpt lat="35.063288155943155" lon="-2.921409420669079">
        <ele>78.4847412109375</ele>
        <time>2011-04-17T10:34:03Z</time>
      </trkpt>
      <trkpt lat="35.062705529853702" lon="-2.920230086892843">
        <ele>79.9266357421875</ele>
        <time>2011-04-17T10:34:13Z</time>
      </trkpt>
      <trkpt lat="35.062277298420668" lon="-2.919366331771016">
        <ele>81.3687744140625</ele>
        <time>2011-04-17T10:34:21Z</time>
      </trkpt>
      <trkpt lat="35.061728032305837" lon="-2.918258160352707">
        <ele>79.9266357421875</ele>
        <time>2011-04-17T10:34:30Z</time>
      </trkpt>
      <trkpt lat="35.0610685441643" lon="-2.916927952319384">
        <ele>79.446044921875</ele>
        <time>2011-04-17T10:34:39Z</time>
      </trkpt>
      <trkpt lat="35.06029992364347" lon="-2.915245452895761">
        <ele>79.9266357421875</ele>
        <time>2011-04-17T10:34:50Z</time>
      </trkpt>
      <trkpt lat="35.059453099966049" lon="-2.913295906037092">
        <ele>80.407470703125</ele>
        <time>2011-04-17T10:35:03Z</time>
      </trkpt>
      <trkpt lat="35.05873485468328" lon="-2.911642324179411">
        <ele>79.446044921875</ele>
        <time>2011-04-17T10:35:14Z</time>
      </trkpt>
      <trkpt lat="35.058403685688972" lon="-2.910859035328031">
        <ele>81.3687744140625</ele>
        <time>2011-04-17T10:35:21Z</time>
      </trkpt>
      <trkpt lat="35.058004539459944" lon="-2.909912215545774">
        <ele>81.849365234375</ele>
        <time>2011-04-17T10:35:30Z</time>
      </trkpt>
      <trkpt lat="35.05754261277616" lon="-2.908816616982222">
        <ele>85.2139892578125</ele>
        <time>2011-04-17T10:35:39Z</time>
      </trkpt>
      <trkpt lat="35.057237595319748" lon="-2.908093091100454">
        <ele>87.6171875</ele>
        <time>2011-04-17T10:35:47Z</time>
      </trkpt>
      <trkpt lat="35.057073058560491" lon="-2.907702829688788">
        <ele>88.0980224609375</ele>
        <time>2011-04-17T10:35:54Z</time>
      </trkpt>
      <trkpt lat="35.05688245408237" lon="-2.907250542193651">
        <ele>88.5787353515625</ele>
        <time>2011-04-17T10:36:01Z</time>
      </trkpt>
      <trkpt lat="35.056443074718118" lon="-2.90641687810421">
        <ele>87.6171875</ele>
        <time>2011-04-17T10:36:08Z</time>
      </trkpt>
      <trkpt lat="35.055840667337179" lon="-2.905290685594082">
        <ele>83.2913818359375</ele>
        <time>2011-04-17T10:36:15Z</time>
      </trkpt>
      <trkpt lat="35.054673906415701" lon="-2.903109295293689">
        <ele>74.6395263671875</ele>
        <time>2011-04-17T10:36:27Z</time>
      </trkpt>
      <trkpt lat="35.053611835464835" lon="-2.901094118133187">
        <ele>76.5621337890625</ele>
        <time>2011-04-17T10:36:38Z</time>
      </trkpt>
      <trkpt lat="35.053108753636479" lon="-2.900101449340582">
        <ele>82.330078125</ele>
        <time>2011-04-17T10:36:45Z</time>
      </trkpt>
      <trkpt lat="35.052868444472551" lon="-2.899627201259136">
        <ele>86.17529296875</ele>
        <time>2011-04-17T10:36:51Z</time>
      </trkpt>
      <trkpt lat="35.052501987665892" lon="-2.898904262110591">
        <ele>87.1365966796875</ele>
        <time>2011-04-17T10:36:58Z</time>
      </trkpt>
      <trkpt lat="35.051958421245217" lon="-2.897831713780761">
        <ele>87.1365966796875</ele>
        <time>2011-04-17T10:37:05Z</time>
      </trkpt>
      <trkpt lat="35.051260041072965" lon="-2.896349206566811">
        <ele>87.6171875</ele>
        <time>2011-04-17T10:37:14Z</time>
      </trkpt>
      <trkpt lat="35.05046141333878" lon="-2.894416758790612">
        <ele>88.5787353515625</ele>
        <time>2011-04-17T10:37:24Z</time>
      </trkpt>
      <trkpt lat="35.049325414001942" lon="-2.891853824257851">
        <ele>89.059326171875</ele>
        <time>2011-04-17T10:37:37Z</time>
      </trkpt>
      <trkpt lat="35.048064943403006" lon="-2.889348473399878">
        <ele>88.5787353515625</ele>
        <time>2011-04-17T10:37:50Z</time>
      </trkpt>
      <trkpt lat="35.047000776976347" lon="-2.887049233540893">
        <ele>84.252685546875</ele>
        <time>2011-04-17T10:38:01Z</time>
      </trkpt>
      <trkpt lat="35.045790178701282" lon="-2.88458202034235">
        <ele>82.330078125</ele>
        <time>2011-04-17T10:38:13Z</time>
      </trkpt>
      <trkpt lat="35.044768089428544" lon="-2.88272769190371">
        <ele>86.656005859375</ele>
        <time>2011-04-17T10:38:22Z</time>
      </trkpt>
      <trkpt lat="35.04365086555481" lon="-2.880701450631023">
        <ele>89.059326171875</ele>
        <time>2011-04-17T10:38:33Z</time>
      </trkpt>
      <trkpt lat="35.043468475341797" lon="-2.880370616912842">
        <ele>89.059326171875</ele>
        <time>2011-04-17T10:38:35Z</time>
      </trkpt>
      <trkpt lat="35.04293798469007" lon="-2.879892261698842">
        <ele>88.5787353515625</ele>
        <time>2011-04-17T10:38:39Z</time>
      </trkpt>
      <trkpt lat="35.041274009272456" lon="-2.87873120047152">
        <ele>83.2913818359375</ele>
        <time>2011-04-17T10:38:49Z</time>
      </trkpt>
      <trkpt lat="35.039105443283916" lon="-2.877049203962088">
        <ele>78.4847412109375</ele>
        <time>2011-04-17T10:39:02Z</time>
      </trkpt>
      <trkpt lat="35.037098731845617" lon="-2.875505089759827">
        <ele>80.407470703125</ele>
        <time>2011-04-17T10:39:14Z</time>
      </trkpt>
      <trkpt lat="35.035692248493433" lon="-2.87496579810977">
        <ele>82.810791015625</ele>
        <time>2011-04-17T10:39:22Z</time>
      </trkpt>
      <trkpt lat="35.033425698056817" lon="-2.874435810372233">
        <ele>87.6171875</ele>
        <time>2011-04-17T10:39:34Z</time>
      </trkpt>
      <trkpt lat="35.03188032656908" lon="-2.873793672770262">
        <ele>93.3851318359375</ele>
        <time>2011-04-17T10:39:43Z</time>
      </trkpt>
      <trkpt lat="35.031093936413527" lon="-2.873017257079482">
        <ele>99.6337890625</ele>
        <time>2011-04-17T10:39:49Z</time>
      </trkpt>
      <trkpt lat="35.030377954244614" lon="-2.871908918023109">
        <ele>105.8824462890625</ele>
        <time>2011-04-17T10:39:56Z</time>
      </trkpt>
      <trkpt lat="35.029905717819929" lon="-2.870748192071915">
        <ele>109.7276611328125</ele>
        <time>2011-04-17T10:40:02Z</time>
      </trkpt>
      <trkpt lat="35.029851403087378" lon="-2.869639098644257">
        <ele>115.014892578125</ele>
        <time>2011-04-17T10:40:07Z</time>
      </trkpt>
      <trkpt lat="35.02961796708405" lon="-2.867115056142211">
        <ele>126.0699462890625</ele>
        <time>2011-04-17T10:40:18Z</time>
      </trkpt>
      <trkpt lat="35.029372377321124" lon="-2.866220539435744">
        <ele>130.39599609375</ele>
        <time>2011-04-17T10:40:22Z</time>
      </trkpt>
      <trkpt lat="35.02868372015655" lon="-2.864810284227133">
        <ele>137.6058349609375</ele>
        <time>2011-04-17T10:40:29Z</time>
      </trkpt>
      <trkpt lat="35.028054574504495" lon="-2.863513771444559">
        <ele>140.0091552734375</ele>
        <time>2011-04-17T10:40:35Z</time>
      </trkpt>
      <trkpt lat="35.027280086651444" lon="-2.861801851540804">
        <ele>138.0865478515625</ele>
        <time>2011-04-17T10:40:42Z</time>
      </trkpt>
      <trkpt lat="35.026038810610771" lon="-2.858655704185367">
        <ele>138.0865478515625</ele>
        <time>2011-04-17T10:40:54Z</time>
      </trkpt>
      <trkpt lat="35.025377310812473" lon="-2.85763462074101">
        <ele>141.9317626953125</ele>
        <time>2011-04-17T10:40:59Z</time>
      </trkpt>
      <trkpt lat="35.023922547698021" lon="-2.8562899120152">
        <ele>148.6610107421875</ele>
        <time>2011-04-17T10:41:07Z</time>
      </trkpt>
      <trkpt lat="35.021749623119831" lon="-2.854225197806954">
        <ele>156.8321533203125</ele>
        <time>2011-04-17T10:41:20Z</time>
      </trkpt>
      <trkpt lat="35.020118253305554" lon="-2.85233348608017">
        <ele>161.638916015625</ele>
        <time>2011-04-17T10:41:31Z</time>
      </trkpt>
      <trkpt lat="35.019665211439133" lon="-2.851161528378725">
        <ele>164.0421142578125</ele>
        <time>2011-04-17T10:41:36Z</time>
      </trkpt>
      <trkpt lat="35.018740436062217" lon="-2.848886009305716">
        <ele>162.1195068359375</ele>
        <time>2011-04-17T10:41:45Z</time>
      </trkpt>
      <trkpt lat="35.017899563536048" lon="-2.846968648955226">
        <ele>160.677490234375</ele>
        <time>2011-04-17T10:41:52Z</time>
      </trkpt>
      <trkpt lat="35.016947211697698" lon="-2.844962272793055">
        <ele>167.40673828125</ele>
        <time>2011-04-17T10:42:00Z</time>
      </trkpt>
      <trkpt lat="35.015468811616302" lon="-2.842698153108358">
        <ele>176.05859375</ele>
        <time>2011-04-17T10:42:11Z</time>
      </trkpt>
      <trkpt lat="35.014390060678124" lon="-2.8410330042243">
        <ele>181.3458251953125</ele>
        <time>2011-04-17T10:42:19Z</time>
      </trkpt>
      <trkpt lat="35.013326229527593" lon="-2.839391576126218">
        <ele>185.6717529296875</ele>
        <time>2011-04-17T10:42:27Z</time>
      </trkpt>
      <trkpt lat="35.01213482581079" lon="-2.838976169005036">
        <ele>190.4783935546875</ele>
        <time>2011-04-17T10:42:32Z</time>
      </trkpt>
      <trkpt lat="35.011488916352391" lon="-2.837203983217478">
        <ele>197.688232421875</ele>
        <time>2011-04-17T10:42:39Z</time>
      </trkpt>
      <trkpt lat="35.010493230074644" lon="-2.836369229480624">
        <ele>202.494873046875</ele>
        <time>2011-04-17T10:42:45Z</time>
      </trkpt>
      <trkpt lat="35.009055649861693" lon="-2.835139017552137">
        <ele>208.2628173828125</ele>
        <time>2011-04-17T10:42:53Z</time>
      </trkpt>
      <trkpt lat="35.007433667778969" lon="-2.833728427067399">
        <ele>209.22412109375</ele>
        <time>2011-04-17T10:43:02Z</time>
      </trkpt>
      <trkpt lat="35.005502142012119" lon="-2.832712205126882">
        <ele>207.7821044921875</ele>
        <time>2011-04-17T10:43:12Z</time>
      </trkpt>
      <trkpt lat="35.004053665325046" lon="-2.831839313730598">
        <ele>199.130126953125</ele>
        <time>2011-04-17T10:43:21Z</time>
      </trkpt>
      <trkpt lat="35.003143139183521" lon="-2.831290634348989">
        <ele>198.1689453125</ele>
        <time>2011-04-17T10:43:28Z</time>
      </trkpt>
      <trkpt lat="35.002661095932126" lon="-2.831000285223126">
        <ele>200.0916748046875</ele>
        <time>2011-04-17T10:43:34Z</time>
      </trkpt>
      <trkpt lat="35.002101687714458" lon="-2.830767016857863">
        <ele>202.9754638671875</ele>
        <time>2011-04-17T10:43:43Z</time>
      </trkpt>
      <trkpt lat="35.001350166276097" lon="-2.830543974414468">
        <ele>204.8980712890625</ele>
        <time>2011-04-17T10:43:50Z</time>
      </trkpt>
      <trkpt lat="34.999995231628418" lon="-2.830331325531006">
        <ele>206.8206787109375</ele>
        <time>2011-04-17T10:44:00Z</time>
      </trkpt>
      <trkpt lat="34.99839898198843" lon="-2.830138122662902">
        <ele>210.1854248046875</ele>
        <time>2011-04-17T10:44:10Z</time>
      </trkpt>
      <trkpt lat="34.996564602479339" lon="-2.829915834590793">
        <ele>217.3953857421875</ele>
        <time>2011-04-17T10:44:23Z</time>
      </trkpt>
      <trkpt lat="34.995668912306428" lon="-2.829807288944721">
        <ele>224.12451171875</ele>
        <time>2011-04-17T10:44:31Z</time>
      </trkpt>
      <trkpt lat="34.994792081415653" lon="-2.829701090231538">
        <ele>224.605224609375</ele>
        <time>2011-04-17T10:44:39Z</time>
      </trkpt>
      <trkpt lat="34.993422981351614" lon="-2.829535212367773">
        <ele>222.6824951171875</ele>
        <time>2011-04-17T10:44:49Z</time>
      </trkpt>
      <trkpt lat="34.992264518514276" lon="-2.829394899308682">
        <ele>225.0859375</ele>
        <time>2011-04-17T10:44:56Z</time>
      </trkpt>
      <trkpt lat="34.990792153403163" lon="-2.829216532409191">
        <ele>233.7376708984375</ele>
        <time>2011-04-17T10:45:05Z</time>
      </trkpt>
      <trkpt lat="34.98971851542592" lon="-2.829086445271969">
        <ele>250.560791015625</ele>
        <time>2011-04-17T10:45:12Z</time>
      </trkpt>
      <trkpt lat="34.988793069496751" lon="-2.828974295407534">
        <ele>260.1739501953125</ele>
        <time>2011-04-17T10:45:20Z</time>
      </trkpt>
      <trkpt lat="34.987484319135547" lon="-2.828815877437592">
        <ele>269.787109375</ele>
        <time>2011-04-17T10:45:30Z</time>
      </trkpt>
      <trkpt lat="34.986421996727586" lon="-2.828687047585845">
        <ele>284.6876220703125</ele>
        <time>2011-04-17T10:45:38Z</time>
      </trkpt>
      <trkpt lat="34.985688077285886" lon="-2.828598199412227">
        <ele>294.7813720703125</ele>
        <time>2011-04-17T10:45:45Z</time>
      </trkpt>
      <trkpt lat="34.984482256695628" lon="-2.828452102839947">
        <ele>304.875244140625</ele>
        <time>2011-04-17T10:45:56Z</time>
      </trkpt>
      <trkpt lat="34.983491264283657" lon="-2.828332157805562">
        <ele>308.2398681640625</ele>
        <time>2011-04-17T10:46:04Z</time>
      </trkpt>
      <trkpt lat="34.982148986309767" lon="-2.828169465065002">
        <ele>304.3946533203125</ele>
        <time>2011-04-17T10:46:13Z</time>
      </trkpt>
      <trkpt lat="34.98007396236062" lon="-2.827902417629957">
        <ele>293.820068359375</ele>
        <time>2011-04-17T10:46:25Z</time>
      </trkpt>
      <trkpt lat="34.978762529790401" lon="-2.827696641907096">
        <ele>285.6488037109375</ele>
        <time>2011-04-17T10:46:31Z</time>
      </trkpt>
      <trkpt lat="34.976202109828591" lon="-2.827438144013286">
        <ele>272.671142578125</ele>
        <time>2011-04-17T10:46:42Z</time>
      </trkpt>
      <trkpt lat="34.974779114127159" lon="-2.826985856518149">
        <ele>269.3065185546875</ele>
        <time>2011-04-17T10:46:49Z</time>
      </trkpt>
      <trkpt lat="34.97377697378397" lon="-2.826468609273434">
        <ele>264.019287109375</ele>
        <time>2011-04-17T10:46:54Z</time>
      </trkpt>
      <trkpt lat="34.97280802577734" lon="-2.825753046199679">
        <ele>256.809326171875</ele>
        <time>2011-04-17T10:46:59Z</time>
      </trkpt>
      <trkpt lat="34.971279166638851" lon="-2.824217481538653">
        <ele>255.3673095703125</ele>
        <time>2011-04-17T10:47:08Z</time>
      </trkpt>
      <trkpt lat="34.970052223652601" lon="-2.823645668104291">
        <ele>259.212646484375</ele>
        <time>2011-04-17T10:47:14Z</time>
      </trkpt>
      <trkpt lat="34.967930177226663" lon="-2.822878472507">
        <ele>267.864501953125</ele>
        <time>2011-04-17T10:47:24Z</time>
      </trkpt>
      <trkpt lat="34.966587396338582" lon="-2.822552416473627">
        <ele>266.4224853515625</ele>
        <time>2011-04-17T10:47:30Z</time>
      </trkpt>
      <trkpt lat="34.964363425970078" lon="-2.822252344340086">
        <ele>256.809326171875</ele>
        <time>2011-04-17T10:47:39Z</time>
      </trkpt>
      <trkpt lat="34.962525526061654" lon="-2.821926455944777">
        <ele>258.2513427734375</ele>
        <time>2011-04-17T10:47:47Z</time>
      </trkpt>
      <trkpt lat="34.962175749242306" lon="-2.821662677451968">
        <ele>259.212646484375</ele>
        <time>2011-04-17T10:47:49Z</time>
      </trkpt>
      <trkpt lat="34.961333870887756" lon="-2.820972008630633">
        <ele>260.654541015625</ele>
        <time>2011-04-17T10:47:54Z</time>
      </trkpt>
      <trkpt lat="34.960434073582292" lon="-2.819802397862077">
        <ele>263.057861328125</ele>
        <time>2011-04-17T10:48:00Z</time>
      </trkpt>
      <trkpt lat="34.959164969623089" lon="-2.817185316234827">
        <ele>266.4224853515625</ele>
        <time>2011-04-17T10:48:11Z</time>
      </trkpt>
      <trkpt lat="34.958353601396084" lon="-2.814821703359485">
        <ele>261.615966796875</ele>
        <time>2011-04-17T10:48:20Z</time>
      </trkpt>
      <trkpt lat="34.958043470978737" lon="-2.813236601650715">
        <ele>257.2900390625</ele>
        <time>2011-04-17T10:48:26Z</time>
      </trkpt>
      <trkpt lat="34.958090158179402" lon="-2.812106888741255">
        <ele>255.8480224609375</ele>
        <time>2011-04-17T10:48:30Z</time>
      </trkpt>
      <trkpt lat="34.958499362692237" lon="-2.810504101216793">
        <ele>255.8480224609375</ele>
        <time>2011-04-17T10:48:36Z</time>
      </trkpt>
      <trkpt lat="34.959635864943266" lon="-2.807638663798571">
        <ele>256.3287353515625</ele>
        <time>2011-04-17T10:48:47Z</time>
      </trkpt>
      <trkpt lat="34.960487969219685" lon="-2.805081848055124">
        <ele>257.2900390625</ele>
        <time>2011-04-17T10:48:57Z</time>
      </trkpt>
      <trkpt lat="34.960764488205314" lon="-2.803406808525324">
        <ele>258.73193359375</ele>
        <time>2011-04-17T10:49:03Z</time>
      </trkpt>
      <trkpt lat="34.960792064666748" lon="-2.800819482654333">
        <ele>258.2513427734375</ele>
        <time>2011-04-17T10:49:12Z</time>
      </trkpt>
      <trkpt lat="34.960518479347229" lon="-2.799099935218692">
        <ele>255.3673095703125</ele>
        <time>2011-04-17T10:49:18Z</time>
      </trkpt>
      <trkpt lat="34.96009536087513" lon="-2.795567717403173">
        <ele>258.2513427734375</ele>
        <time>2011-04-17T10:49:30Z</time>
      </trkpt>
      <trkpt lat="34.95961700566113" lon="-2.792167011648417">
        <ele>262.0965576171875</ele>
        <time>2011-04-17T10:49:42Z</time>
      </trkpt>
      <trkpt lat="34.959004791453481" lon="-2.78893637470901">
        <ele>268.3450927734375</ele>
        <time>2011-04-17T10:49:54Z</time>
      </trkpt>
      <trkpt lat="34.958193255588412" lon="-2.78638961724937">
        <ele>268.3450927734375</ele>
        <time>2011-04-17T10:50:05Z</time>
      </trkpt>
      <trkpt lat="34.957684222608805" lon="-2.785325786098838">
        <ele>265.94189453125</ele>
        <time>2011-04-17T10:50:10Z</time>
      </trkpt>
      <trkpt lat="34.956914428621531" lon="-2.784305373206735">
        <ele>263.057861328125</ele>
        <time>2011-04-17T10:50:15Z</time>
      </trkpt>
      <trkpt lat="34.95568941347301" lon="-2.782360939309001">
        <ele>258.2513427734375</ele>
        <time>2011-04-17T10:50:24Z</time>
      </trkpt>
      <trkpt lat="34.955065716058016" lon="-2.781273135915399">
        <ele>255.3673095703125</ele>
        <time>2011-04-17T10:50:29Z</time>
      </trkpt>
      <trkpt lat="34.954893467947841" lon="-2.779943682253361">
        <ele>254.8865966796875</ele>
        <time>2011-04-17T10:50:34Z</time>
      </trkpt>
      <trkpt lat="34.954548804089427" lon="-2.776540461927652">
        <ele>255.3673095703125</ele>
        <time>2011-04-17T10:50:47Z</time>
      </trkpt>
      <trkpt lat="34.954262394458055" lon="-2.774805743247271">
        <ele>257.2900390625</ele>
        <time>2011-04-17T10:50:54Z</time>
      </trkpt>
      <trkpt lat="34.953927034512162" lon="-2.773006064817309">
        <ele>260.1739501953125</ele>
        <time>2011-04-17T10:51:02Z</time>
      </trkpt>
      <trkpt lat="34.95336988940835" lon="-2.770779747515917">
        <ele>265.94189453125</ele>
        <time>2011-04-17T10:51:12Z</time>
      </trkpt>
      <trkpt lat="34.95295163244009" lon="-2.769185258075595">
        <ele>264.4998779296875</ele>
        <time>2011-04-17T10:51:20Z</time>
      </trkpt>
      <trkpt lat="34.952480401843786" lon="-2.767643490806222">
        <ele>258.2513427734375</ele>
        <time>2011-04-17T10:51:29Z</time>
      </trkpt>
      <trkpt lat="34.951947145164013" lon="-2.766046905890107">
        <ele>249.1187744140625</ele>
        <time>2011-04-17T10:51:38Z</time>
      </trkpt>
      <trkpt lat="34.951406931504607" lon="-2.764577977359295">
        <ele>243.350830078125</ele>
        <time>2011-04-17T10:51:46Z</time>
      </trkpt>
      <trkpt lat="34.950562957674265" lon="-2.762502366676927">
        <ele>241.908935546875</ele>
        <time>2011-04-17T10:51:58Z</time>
      </trkpt>
      <trkpt lat="34.949458725750446" lon="-2.760323490947485">
        <ele>236.1409912109375</ele>
        <time>2011-04-17T10:52:11Z</time>
      </trkpt>
      <trkpt lat="34.948503943160176" lon="-2.758477041497827">
        <ele>229.4117431640625</ele>
        <time>2011-04-17T10:52:21Z</time>
      </trkpt>
      <trkpt lat="34.947537090629339" lon="-2.75661843828857">
        <ele>227.9697265625</ele>
        <time>2011-04-17T10:52:31Z</time>
      </trkpt>
      <trkpt lat="34.946644082665443" lon="-2.754901656880975">
        <ele>223.1632080078125</ele>
        <time>2011-04-17T10:52:42Z</time>
      </trkpt>
      <trkpt lat="34.945743279531598" lon="-2.753048166632652">
        <ele>215.9532470703125</ele>
        <time>2011-04-17T10:52:54Z</time>
      </trkpt>
      <trkpt lat="34.945118073374033" lon="-2.751742769032717">
        <ele>210.666015625</ele>
        <time>2011-04-17T10:53:03Z</time>
      </trkpt>
      <trkpt lat="34.944387590512633" lon="-2.750217597931624">
        <ele>207.7821044921875</ele>
        <time>2011-04-17T10:53:13Z</time>
      </trkpt>
      <trkpt lat="34.943673787638545" lon="-2.748727379366756">
        <ele>208.2628173828125</ele>
        <time>2011-04-17T10:53:24Z</time>
      </trkpt>
      <trkpt lat="34.943279838189483" lon="-2.747904527932406">
        <ele>207.7821044921875</ele>
        <time>2011-04-17T10:53:32Z</time>
      </trkpt>
      <trkpt lat="34.942779522389174" lon="-2.746855029836297">
        <ele>205.8594970703125</ele>
        <time>2011-04-17T10:53:41Z</time>
      </trkpt>
      <trkpt lat="34.941997909918427" lon="-2.745215613394976">
        <ele>200.572265625</ele>
        <time>2011-04-17T10:53:53Z</time>
      </trkpt>
      <trkpt lat="34.941217387095094" lon="-2.743578543886542">
        <ele>197.20751953125</ele>
        <time>2011-04-17T10:54:05Z</time>
      </trkpt>
      <trkpt lat="34.94062545709312" lon="-2.742336848750711">
        <ele>193.843017578125</ele>
        <time>2011-04-17T10:54:15Z</time>
      </trkpt>
      <trkpt lat="34.939981643110514" lon="-2.740986440330744">
        <ele>190.958984375</ele>
        <time>2011-04-17T10:54:27Z</time>
      </trkpt>
      <trkpt lat="34.939298434183002" lon="-2.739619603380561">
        <ele>188.5557861328125</ele>
        <time>2011-04-17T10:54:40Z</time>
      </trkpt>
      <trkpt lat="34.938527382910252" lon="-2.738107508048415">
        <ele>185.6717529296875</ele>
        <time>2011-04-17T10:54:53Z</time>
      </trkpt>
      <trkpt lat="34.93770687840879" lon="-2.73649818263948">
        <ele>181.826416015625</ele>
        <time>2011-04-17T10:55:05Z</time>
      </trkpt>
      <trkpt lat="34.936704989522696" lon="-2.734452746808529">
        <ele>176.05859375</ele>
        <time>2011-04-17T10:55:19Z</time>
      </trkpt>
      <trkpt lat="34.93585305288434" lon="-2.732562460005283">
        <ele>175.577880859375</ele>
        <time>2011-04-17T10:55:32Z</time>
      </trkpt>
      <trkpt lat="34.935123659670353" lon="-2.730943830683827">
        <ele>172.6939697265625</ele>
        <time>2011-04-17T10:55:44Z</time>
      </trkpt>
      <trkpt lat="34.934571878984571" lon="-2.729719653725624">
        <ele>170.2906494140625</ele>
        <time>2011-04-17T10:55:54Z</time>
      </trkpt>
      <trkpt lat="34.933906188234687" lon="-2.728262962773442">
        <ele>166.926025390625</ele>
        <time>2011-04-17T10:56:05Z</time>
      </trkpt>
      <trkpt lat="34.933128096163273" lon="-2.726629497483373">
        <ele>161.638916015625</ele>
        <time>2011-04-17T10:56:18Z</time>
      </trkpt>
      <trkpt lat="34.93239744566381" lon="-2.725095860660076">
        <ele>157.3128662109375</ele>
        <time>2011-04-17T10:56:30Z</time>
      </trkpt>
      <trkpt lat="34.931801743805408" lon="-2.723845280706883">
        <ele>153.4676513671875</ele>
        <time>2011-04-17T10:56:38Z</time>
      </trkpt>
      <trkpt lat="34.931116439402103" lon="-2.722406778484583">
        <ele>149.1416015625</ele>
        <time>2011-04-17T10:56:46Z</time>
      </trkpt>
      <trkpt lat="34.930212534964085" lon="-2.72050928324461">
        <ele>142.89306640625</ele>
        <time>2011-04-17T10:56:56Z</time>
      </trkpt>
      <trkpt lat="34.929151553660631" lon="-2.7182821277529">
        <ele>136.1639404296875</ele>
        <time>2011-04-17T10:57:07Z</time>
      </trkpt>
      <trkpt lat="34.928192915394902" lon="-2.716296538710594">
        <ele>131.3572998046875</ele>
        <time>2011-04-17T10:57:16Z</time>
      </trkpt>
      <trkpt lat="34.927132772281766" lon="-2.714112047106028">
        <ele>125.58935546875</ele>
        <time>2011-04-17T10:57:26Z</time>
      </trkpt>
      <trkpt lat="34.925900716334581" lon="-2.711573503911495">
        <ele>117.8988037109375</ele>
        <time>2011-04-17T10:57:37Z</time>
      </trkpt>
      <trkpt lat="34.924913076683879" lon="-2.709538461640477">
        <ele>115.49560546875</ele>
        <time>2011-04-17T10:57:46Z</time>
      </trkpt>
      <trkpt lat="34.92377364076674" lon="-2.707121791318059">
        <ele>112.1309814453125</ele>
        <time>2011-04-17T10:57:57Z</time>
      </trkpt>
      <trkpt lat="34.922940311953425" lon="-2.705289339646697">
        <ele>108.7662353515625</ele>
        <time>2011-04-17T10:58:05Z</time>
      </trkpt>
      <trkpt lat="34.921992570161819" lon="-2.703205430880189">
        <ele>105.8824462890625</ele>
        <time>2011-04-17T10:58:15Z</time>
      </trkpt>
      <trkpt lat="34.920901749283075" lon="-2.700806697830558">
        <ele>103.959716796875</ele>
        <time>2011-04-17T10:58:26Z</time>
      </trkpt>
      <trkpt lat="34.920026762410998" lon="-2.698902916163206">
        <ele>101.556396484375</ele>
        <time>2011-04-17T10:58:34Z</time>
      </trkpt>
      <trkpt lat="34.918912388384342" lon="-2.69654056057334">
        <ele>95.7884521484375</ele>
        <time>2011-04-17T10:58:43Z</time>
      </trkpt>
      <trkpt lat="34.917396353557706" lon="-2.693327190354466">
        <ele>90.98193359375</ele>
        <time>2011-04-17T10:58:56Z</time>
      </trkpt>
      <trkpt lat="34.915894400328398" lon="-2.690143492072821">
        <ele>88.5787353515625</ele>
        <time>2011-04-17T10:59:08Z</time>
      </trkpt>
      <trkpt lat="34.914244674146175" lon="-2.686646394431591">
        <ele>85.2139892578125</ele>
        <time>2011-04-17T10:59:21Z</time>
      </trkpt>
      <trkpt lat="34.912465699017048" lon="-2.683711471036077">
        <ele>85.2139892578125</ele>
        <time>2011-04-17T10:59:33Z</time>
      </trkpt>
      <trkpt lat="34.91164050064981" lon="-2.682600114494562">
        <ele>88.5787353515625</ele>
        <time>2011-04-17T10:59:38Z</time>
      </trkpt>
      <trkpt lat="34.90961174480617" lon="-2.680078586563468">
        <ele>95.7884521484375</ele>
        <time>2011-04-17T10:59:50Z</time>
      </trkpt>
      <trkpt lat="34.907068843021989" lon="-2.677871128544211">
        <ele>91.4625244140625</ele>
        <time>2011-04-17T11:00:02Z</time>
      </trkpt>
      <trkpt lat="34.905196912586689" lon="-2.675982350483537">
        <ele>91.4625244140625</ele>
        <time>2011-04-17T11:00:12Z</time>
      </trkpt>
      <trkpt lat="34.904453018680215" lon="-2.674881806597114">
        <ele>92.4239501953125</ele>
        <time>2011-04-17T11:00:17Z</time>
      </trkpt>
      <trkpt lat="34.904053453356028" lon="-2.673541205003858">
        <ele>93.3851318359375</ele>
        <time>2011-04-17T11:00:22Z</time>
      </trkpt>
      <trkpt lat="34.902951484546065" lon="-2.66957120038569">
        <ele>91.9432373046875</ele>
        <time>2011-04-17T11:00:36Z</time>
      </trkpt>
      <trkpt lat="34.902319740504026" lon="-2.66520188190043">
        <ele>89.5399169921875</ele>
        <time>2011-04-17T11:00:50Z</time>
      </trkpt>
      <trkpt lat="34.902167608961463" lon="-2.663452075794339">
        <ele>89.059326171875</ele>
        <time>2011-04-17T11:00:56Z</time>
      </trkpt>
      <trkpt lat="34.902211613953114" lon="-2.661985913291574">
        <ele>88.5787353515625</ele>
        <time>2011-04-17T11:01:01Z</time>
      </trkpt>
      <trkpt lat="34.902788372710347" lon="-2.659819778054953">
        <ele>87.6171875</ele>
        <time>2011-04-17T11:01:08Z</time>
      </trkpt>
      <trkpt lat="34.904122604057193" lon="-2.656381940469146">
        <ele>87.6171875</ele>
        <time>2011-04-17T11:01:19Z</time>
      </trkpt>
      <trkpt lat="34.90571684204042" lon="-2.651364533230662">
        <ele>85.694580078125</ele>
        <time>2011-04-17T11:01:34Z</time>
      </trkpt>
      <trkpt lat="34.907181914895773" lon="-2.646391382440925">
        <ele>84.252685546875</ele>
        <time>2011-04-17T11:01:49Z</time>
      </trkpt>
      <trkpt lat="34.907741574570537" lon="-2.644289704039693">
        <ele>82.330078125</ele>
        <time>2011-04-17T11:01:56Z</time>
      </trkpt>
      <trkpt lat="34.908113479614258" lon="-2.64301372691989">
        <ele>78.9654541015625</ele>
        <time>2011-04-17T11:02:01Z</time>
      </trkpt>
      <trkpt lat="34.907692959532142" lon="-2.641382357105613">
        <ele>74.6395263671875</ele>
        <time>2011-04-17T11:02:06Z</time>
      </trkpt>
      <trkpt lat="34.907074626535177" lon="-2.640008060261607">
        <ele>70.794189453125</ele>
        <time>2011-04-17T11:02:11Z</time>
      </trkpt>
      <trkpt lat="34.906442295759916" lon="-2.63898697681725">
        <ele>66.948974609375</ele>
        <time>2011-04-17T11:02:16Z</time>
      </trkpt>
      <trkpt lat="34.90589763969183" lon="-2.638125149533153">
        <ele>64.0650634765625</ele>
        <time>2011-04-17T11:02:22Z</time>
      </trkpt>
      <trkpt lat="34.905227087438107" lon="-2.637033490464091">
        <ele>63.1036376953125</ele>
        <time>2011-04-17T11:02:32Z</time>
      </trkpt>
      <trkpt lat="34.904820146039128" lon="-2.636365368962288">
        <ele>62.6229248046875</ele>
        <time>2011-04-17T11:02:39Z</time>
      </trkpt>
      <trkpt lat="34.90470489487052" lon="-2.63617342337966">
        <ele>62.6229248046875</ele>
        <time>2011-04-17T11:02:44Z</time>
      </trkpt>
      <trkpt lat="34.904551086947322" lon="-2.635927330702543">
        <ele>63.1036376953125</ele>
        <time>2011-04-17T11:02:49Z</time>
      </trkpt>
      <trkpt lat="34.904260654002428" lon="-2.635314026847482">
        <ele>63.1036376953125</ele>
        <time>2011-04-17T11:02:55Z</time>
      </trkpt>
      <trkpt lat="34.903989331796765" lon="-2.634350527077913">
        <ele>63.1036376953125</ele>
        <time>2011-04-17T11:03:01Z</time>
      </trkpt>
      <trkpt lat="34.903915654867887" lon="-2.633086871355772">
        <ele>63.5843505859375</ele>
        <time>2011-04-17T11:03:07Z</time>
      </trkpt>
      <trkpt lat="34.903879361227155" lon="-2.630432154983282">
        <ele>67.9102783203125</ele>
        <time>2011-04-17T11:03:18Z</time>
      </trkpt>
      <trkpt lat="34.903801158070564" lon="-2.626990796998143">
        <ele>69.8328857421875</ele>
        <time>2011-04-17T11:03:31Z</time>
      </trkpt>
      <trkpt lat="34.904021685943007" lon="-2.623309046030045">
        <ele>74.1588134765625</ele>
        <time>2011-04-17T11:03:47Z</time>
      </trkpt>
      <trkpt lat="34.903679033741355" lon="-2.619776828214526">
        <ele>74.6395263671875</ele>
        <time>2011-04-17T11:03:59Z</time>
      </trkpt>
      <trkpt lat="34.903719685971737" lon="-2.61698205024004">
        <ele>74.1588134765625</ele>
        <time>2011-04-17T11:04:11Z</time>
      </trkpt>
      <trkpt lat="34.903749274089932" lon="-2.614192552864552">
        <ele>74.6395263671875</ele>
        <time>2011-04-17T11:04:23Z</time>
      </trkpt>
      <trkpt lat="34.903671238571405" lon="-2.612354485318065">
        <ele>77.0428466796875</ele>
        <time>2011-04-17T11:04:30Z</time>
      </trkpt>
      <trkpt lat="34.903040835633874" lon="-2.610062286257744">
        <ele>78.0040283203125</ele>
        <time>2011-04-17T11:04:39Z</time>
      </trkpt>
      <trkpt lat="34.902462400496006" lon="-2.607918111607432">
        <ele>78.4847412109375</ele>
        <time>2011-04-17T11:04:48Z</time>
      </trkpt>
      <trkpt lat="34.901694534346461" lon="-2.60514747351408">
        <ele>80.88818359375</ele>
        <time>2011-04-17T11:04:59Z</time>
      </trkpt>
      <trkpt lat="34.900846788659692" lon="-2.602163851261139">
        <ele>82.330078125</ele>
        <time>2011-04-17T11:05:11Z</time>
      </trkpt>
      <trkpt lat="34.899809276685119" lon="-2.598688881844282">
        <ele>88.0980224609375</ele>
        <time>2011-04-17T11:05:25Z</time>
      </trkpt>
      <trkpt lat="34.899013917893171" lon="-2.59605897590518">
        <ele>88.5787353515625</ele>
        <time>2011-04-17T11:05:35Z</time>
      </trkpt>
      <trkpt lat="34.897704245522618" lon="-2.591731231659651">
        <ele>87.6171875</ele>
        <time>2011-04-17T11:05:50Z</time>
      </trkpt>
      <trkpt lat="34.89680184982717" lon="-2.588723301887512">
        <ele>90.98193359375</ele>
        <time>2011-04-17T11:06:00Z</time>
      </trkpt>
      <trkpt lat="34.896249901503325" lon="-2.58687031455338">
        <ele>93.3851318359375</ele>
        <time>2011-04-17T11:06:07Z</time>
      </trkpt>
      <trkpt lat="34.895561831071973" lon="-2.584590939804912">
        <ele>95.7884521484375</ele>
        <time>2011-04-17T11:06:17Z</time>
      </trkpt>
      <trkpt lat="34.894360033795238" lon="-2.580713052302599">
        <ele>97.711181640625</ele>
        <time>2011-04-17T11:06:34Z</time>
      </trkpt>
      <trkpt lat="34.893408184871078" lon="-2.577641839161515">
        <ele>97.711181640625</ele>
        <time>2011-04-17T11:06:46Z</time>
      </trkpt>
      <trkpt lat="34.892523223534226" lon="-2.574777826666832">
        <ele>99.153076171875</ele>
        <time>2011-04-17T11:06:57Z</time>
      </trkpt>
      <trkpt lat="34.891535583883524" lon="-2.571440069004893">
        <ele>100.114501953125</ele>
        <time>2011-04-17T11:07:11Z</time>
      </trkpt>
      <trkpt lat="34.890947174280882" lon="-2.569451462477446">
        <ele>100.5950927734375</ele>
        <time>2011-04-17T11:07:21Z</time>
      </trkpt>
      <trkpt lat="34.890358932316303" lon="-2.567463358864188">
        <ele>100.114501953125</ele>
        <time>2011-04-17T11:07:31Z</time>
      </trkpt>
      <trkpt lat="34.889788879081607" lon="-2.565536443144083">
        <ele>99.6337890625</ele>
        <time>2011-04-17T11:07:41Z</time>
      </trkpt>
      <trkpt lat="34.889258556067944" lon="-2.563744224607945">
        <ele>99.153076171875</ele>
        <time>2011-04-17T11:07:51Z</time>
      </trkpt>
      <trkpt lat="34.888669056817889" lon="-2.561774393543601">
        <ele>99.153076171875</ele>
        <time>2011-04-17T11:08:02Z</time>
      </trkpt>
      <trkpt lat="34.887968078255653" lon="-2.559435926377773">
        <ele>97.23046875</ele>
        <time>2011-04-17T11:08:14Z</time>
      </trkpt>
      <trkpt lat="34.887216975912452" lon="-2.556930240243673">
        <ele>97.23046875</ele>
        <time>2011-04-17T11:08:27Z</time>
      </trkpt>
      <trkpt lat="34.886359674856067" lon="-2.554118363186717">
        <ele>95.7884521484375</ele>
        <time>2011-04-17T11:08:42Z</time>
      </trkpt>
      <trkpt lat="34.885696331039071" lon="-2.552057923749089">
        <ele>95.3077392578125</ele>
        <time>2011-04-17T11:08:52Z</time>
      </trkpt>
      <trkpt lat="34.884906252846122" lon="-2.549587357789278">
        <ele>94.3465576171875</ele>
        <time>2011-04-17T11:09:03Z</time>
      </trkpt>
      <trkpt lat="34.884118940681219" lon="-2.546913279220462">
        <ele>94.8271484375</ele>
        <time>2011-04-17T11:09:14Z</time>
      </trkpt>
      <trkpt lat="34.883188465610147" lon="-2.543752966448665">
        <ele>97.23046875</ele>
        <time>2011-04-17T11:09:27Z</time>
      </trkpt>
      <trkpt lat="34.882406098768115" lon="-2.541095735505223">
        <ele>100.5950927734375</ele>
        <time>2011-04-17T11:09:37Z</time>
      </trkpt>
      <trkpt lat="34.881986500695348" lon="-2.539670476689935">
        <ele>102.998291015625</ele>
        <time>2011-04-17T11:09:43Z</time>
      </trkpt>
      <trkpt lat="34.881164822727442" lon="-2.536882655695081">
        <ele>105.8824462890625</ele>
        <time>2011-04-17T11:09:56Z</time>
      </trkpt>
      <trkpt lat="34.88045428879559" lon="-2.534506134688854">
        <ele>107.8050537109375</ele>
        <time>2011-04-17T11:10:07Z</time>
      </trkpt>
      <trkpt lat="34.879744006320834" lon="-2.532130368053913">
        <ele>110.6888427734375</ele>
        <time>2011-04-17T11:10:17Z</time>
      </trkpt>
      <trkpt lat="34.87886524759233" lon="-2.529191337525845">
        <ele>114.5341796875</ele>
        <time>2011-04-17T11:10:28Z</time>
      </trkpt>
      <trkpt lat="34.877640483900905" lon="-2.525094766169787">
        <ele>121.2635498046875</ele>
        <time>2011-04-17T11:10:43Z</time>
      </trkpt>
      <trkpt lat="34.876273227855563" lon="-2.52052185125649">
        <ele>130.39599609375</ele>
        <time>2011-04-17T11:11:00Z</time>
      </trkpt>
      <trkpt lat="34.875363456085324" lon="-2.517478801310062">
        <ele>135.68310546875</ele>
        <time>2011-04-17T11:11:11Z</time>
      </trkpt>
      <trkpt lat="34.874393586069345" lon="-2.514234920963645">
        <ele>140.970458984375</ele>
        <time>2011-04-17T11:11:23Z</time>
      </trkpt>
      <trkpt lat="34.873362109065056" lon="-2.510768920183182">
        <ele>146.2578125</ele>
        <time>2011-04-17T11:11:36Z</time>
      </trkpt>
      <trkpt lat="34.872672697529197" lon="-2.508430285379291">
        <ele>150.10302734375</ele>
        <time>2011-04-17T11:11:45Z</time>
      </trkpt>
      <trkpt lat="34.871717663481832" lon="-2.505190763622522">
        <ele>152.9869384765625</ele>
        <time>2011-04-17T11:11:58Z</time>
      </trkpt>
      <trkpt lat="34.870917275547981" lon="-2.502475697547197">
        <ele>155.3902587890625</ele>
        <time>2011-04-17T11:12:09Z</time>
      </trkpt>
      <trkpt lat="34.870061734691262" lon="-2.49962811358273">
        <ele>158.274169921875</ele>
        <time>2011-04-17T11:12:21Z</time>
      </trkpt>
      <trkpt lat="34.869143664836884" lon="-2.496726298704743">
        <ele>161.158203125</ele>
        <time>2011-04-17T11:12:33Z</time>
      </trkpt>
      <trkpt lat="34.86823221668601" lon="-2.493845522403717">
        <ele>165.9647216796875</ele>
        <time>2011-04-17T11:12:45Z</time>
      </trkpt>
      <trkpt lat="34.867264274507761" lon="-2.490789731964469">
        <ele>174.1358642578125</ele>
        <time>2011-04-17T11:12:58Z</time>
      </trkpt>
      <trkpt lat="34.86644871532917" lon="-2.488171560689807">
        <ele>181.3458251953125</ele>
        <time>2011-04-17T11:13:09Z</time>
      </trkpt>
      <trkpt lat="34.865489741787314" lon="-2.484966404736042">
        <ele>189.5169677734375</ele>
        <time>2011-04-17T11:13:22Z</time>
      </trkpt>
      <trkpt lat="34.864811226725578" lon="-2.482478572055697">
        <ele>195.765625</ele>
        <time>2011-04-17T11:13:32Z</time>
      </trkpt>
      <trkpt lat="34.863791903480887" lon="-2.478740913793445">
        <ele>205.8594970703125</ele>
        <time>2011-04-17T11:13:47Z</time>
      </trkpt>
      <trkpt lat="34.862863859161735" lon="-2.475235937163234">
        <ele>210.1854248046875</ele>
        <time>2011-04-17T11:14:01Z</time>
      </trkpt>
      <trkpt lat="34.862589351832867" lon="-2.473423182964325">
        <ele>212.588623046875</ele>
        <time>2011-04-17T11:14:08Z</time>
      </trkpt>
      <trkpt lat="34.862555237486959" lon="-2.471185885369778">
        <ele>214.0306396484375</ele>
        <time>2011-04-17T11:14:17Z</time>
      </trkpt>
      <trkpt lat="34.862608127295971" lon="-2.469527693465352">
        <ele>212.588623046875</ele>
        <time>2011-04-17T11:14:24Z</time>
      </trkpt>
      <trkpt lat="34.862869894132018" lon="-2.467730026692152">
        <ele>209.22412109375</ele>
        <time>2011-04-17T11:14:31Z</time>
      </trkpt>
      <trkpt lat="34.863325618207455" lon="-2.465664222836494">
        <ele>205.8594970703125</ele>
        <time>2011-04-17T11:14:40Z</time>
      </trkpt>
      <trkpt lat="34.863988375291228" lon="-2.463514767587185">
        <ele>204.41748046875</ele>
        <time>2011-04-17T11:14:50Z</time>
      </trkpt>
      <trkpt lat="34.864686923101544" lon="-2.461404874920845">
        <ele>202.9754638671875</ele>
        <time>2011-04-17T11:14:59Z</time>
      </trkpt>
      <trkpt lat="34.865362672135234" lon="-2.459442587569356">
        <ele>199.61083984375</ele>
        <time>2011-04-17T11:15:07Z</time>
      </trkpt>
      <trkpt lat="34.866039091721177" lon="-2.45755766518414">
        <ele>199.130126953125</ele>
        <time>2011-04-17T11:15:14Z</time>
      </trkpt>
      <trkpt lat="34.86668131314218" lon="-2.455694116652012">
        <ele>199.130126953125</ele>
        <time>2011-04-17T11:15:22Z</time>
      </trkpt>
      <trkpt lat="34.867369718849659" lon="-2.453628899529576">
        <ele>201.0528564453125</ele>
        <time>2011-04-17T11:15:30Z</time>
      </trkpt>
      <trkpt lat="34.868639828637242" lon="-2.451399229466915">
        <ele>204.41748046875</ele>
        <time>2011-04-17T11:15:40Z</time>
      </trkpt>
      <trkpt lat="34.869481874629855" lon="-2.449935497716069">
        <ele>204.8980712890625</ele>
        <time>2011-04-17T11:15:47Z</time>
      </trkpt>
      <trkpt lat="34.870860949158669" lon="-2.447653692215681">
        <ele>207.7821044921875</ele>
        <time>2011-04-17T11:15:57Z</time>
      </trkpt>
      <trkpt lat="34.872419061139226" lon="-2.445208355784416">
        <ele>212.588623046875</ele>
        <time>2011-04-17T11:16:07Z</time>
      </trkpt>
      <trkpt lat="34.874231396242976" lon="-2.442363454028964">
        <ele>215.47265625</ele>
        <time>2011-04-17T11:16:18Z</time>
      </trkpt>
      <trkpt lat="34.876595931127667" lon="-2.438611295074225">
        <ele>219.798583984375</ele>
        <time>2011-04-17T11:16:32Z</time>
      </trkpt>
      <trkpt lat="34.878093777224422" lon="-2.436042996123433">
        <ele>225.5665283203125</ele>
        <time>2011-04-17T11:16:42Z</time>
      </trkpt>
      <trkpt lat="34.878635834902525" lon="-2.434766432270408">
        <ele>227.9697265625</ele>
        <time>2011-04-17T11:16:47Z</time>
      </trkpt>
      <trkpt lat="34.879793459549546" lon="-2.431586589664221">
        <ele>231.81494140625</ele>
        <time>2011-04-17T11:16:59Z</time>
      </trkpt>
      <trkpt lat="34.880110463127494" lon="-2.430071560665965">
        <ele>232.2957763671875</ele>
        <time>2011-04-17T11:17:05Z</time>
      </trkpt>
      <trkpt lat="34.880044916644692" lon="-2.428808743134141">
        <ele>230.373046875</ele>
        <time>2011-04-17T11:17:10Z</time>
      </trkpt>
      <trkpt lat="34.879504200071096" lon="-2.427248116582632">
        <ele>230.853759765625</ele>
        <time>2011-04-17T11:17:17Z</time>
      </trkpt>
      <trkpt lat="34.879674017429352" lon="-2.426046403124929">
        <ele>231.81494140625</ele>
        <time>2011-04-17T11:17:24Z</time>
      </trkpt>
      <trkpt lat="34.880002504214644" lon="-2.424737066030502">
        <ele>232.2957763671875</ele>
        <time>2011-04-17T11:17:33Z</time>
      </trkpt>
      <trkpt lat="34.880189336836338" lon="-2.424223255366087">
        <ele>232.2957763671875</ele>
        <time>2011-04-17T11:17:36Z</time>
      </trkpt>
      <trkpt lat="34.880649419501424" lon="-2.423120448365808">
        <ele>232.2957763671875</ele>
        <time>2011-04-17T11:17:42Z</time>
      </trkpt>
      <trkpt lat="34.881437821313739" lon="-2.421409031376243">
        <ele>232.7764892578125</ele>
        <time>2011-04-17T11:17:51Z</time>
      </trkpt>
      <trkpt lat="34.882667362689972" lon="-2.418739730492234">
        <ele>238.0635986328125</ele>
        <time>2011-04-17T11:18:04Z</time>
      </trkpt>
      <trkpt lat="34.883579565212131" lon="-2.416737293824554">
        <ele>238.0635986328125</ele>
        <time>2011-04-17T11:18:13Z</time>
      </trkpt>
      <trkpt lat="34.884798126295209" lon="-2.414068328216672">
        <ele>237.5828857421875</ele>
        <time>2011-04-17T11:18:24Z</time>
      </trkpt>
      <trkpt lat="34.885692307725549" lon="-2.412212826311588">
        <ele>237.102294921875</ele>
        <time>2011-04-17T11:18:32Z</time>
      </trkpt>
      <trkpt lat="34.886978678405285" lon="-2.409543273970485">
        <ele>231.3343505859375</ele>
        <time>2011-04-17T11:18:44Z</time>
      </trkpt>
      <trkpt lat="34.88788828253746" lon="-2.407644605264068">
        <ele>222.6824951171875</ele>
        <time>2011-04-17T11:18:52Z</time>
      </trkpt>
      <trkpt lat="34.888810208067298" lon="-2.40570243448019">
        <ele>213.550048828125</ele>
        <time>2011-04-17T11:19:00Z</time>
      </trkpt>
      <trkpt lat="34.890287350863218" lon="-2.403140841051936">
        <ele>209.22412109375</ele>
        <time>2011-04-17T11:19:11Z</time>
      </trkpt>
      <trkpt lat="34.890665793791413" lon="-2.401811387389898">
        <ele>208.2628173828125</ele>
        <time>2011-04-17T11:19:16Z</time>
      </trkpt>
      <trkpt lat="34.89128714427352" lon="-2.398736989125609">
        <ele>204.41748046875</ele>
        <time>2011-04-17T11:19:27Z</time>
      </trkpt>
      <trkpt lat="34.891639184206724" lon="-2.394819287583232">
        <ele>207.7821044921875</ele>
        <time>2011-04-17T11:19:40Z</time>
      </trkpt>
      <trkpt lat="34.892346784472466" lon="-2.391374073922634">
        <ele>209.704833984375</ele>
        <time>2011-04-17T11:19:53Z</time>
      </trkpt>
      <trkpt lat="34.892868055030704" lon="-2.388489777222276">
        <ele>211.62744140625</ele>
        <time>2011-04-17T11:20:04Z</time>
      </trkpt>
      <trkpt lat="34.893351523205638" lon="-2.385224606841803">
        <ele>214.0306396484375</ele>
        <time>2011-04-17T11:20:16Z</time>
      </trkpt>
      <trkpt lat="34.893933059647679" lon="-2.381598930805922">
        <ele>213.550048828125</ele>
        <time>2011-04-17T11:20:29Z</time>
      </trkpt>
      <trkpt lat="34.894570838660002" lon="-2.37805045209825">
        <ele>206.8206787109375</ele>
        <time>2011-04-17T11:20:42Z</time>
      </trkpt>
      <trkpt lat="34.895194368436933" lon="-2.374963313341141">
        <ele>189.9976806640625</ele>
        <time>2011-04-17T11:20:53Z</time>
      </trkpt>
      <trkpt lat="34.89529243670404" lon="-2.372756944969297">
        <ele>186.6331787109375</ele>
        <time>2011-04-17T11:21:01Z</time>
      </trkpt>
      <trkpt lat="34.895420093089342" lon="-2.372087147086859">
        <ele>186.1524658203125</ele>
        <time>2011-04-17T11:21:04Z</time>
      </trkpt>
      <trkpt lat="34.895693929865956" lon="-2.37147493287921">
        <ele>186.1524658203125</ele>
        <time>2011-04-17T11:21:08Z</time>
      </trkpt>
      <trkpt lat="34.897516574710608" lon="-2.369834929704666">
        <ele>174.6165771484375</ele>
        <time>2011-04-17T11:21:23Z</time>
      </trkpt>
      <trkpt lat="34.898466328158975" lon="-2.367998873814941">
        <ele>163.080810546875</ele>
        <time>2011-04-17T11:21:35Z</time>
      </trkpt>
      <trkpt lat="34.899508450180292" lon="-2.366496669128537">
        <ele>149.622314453125</ele>
        <time>2011-04-17T11:21:47Z</time>
      </trkpt>
      <trkpt lat="34.900884255766869" lon="-2.364619709551334">
        <ele>141.9317626953125</ele>
        <time>2011-04-17T11:22:02Z</time>
      </trkpt>
      <trkpt lat="34.902121676132083" lon="-2.362925140187144">
        <ele>137.125244140625</ele>
        <time>2011-04-17T11:22:15Z</time>
      </trkpt>
      <trkpt lat="34.903012169525027" lon="-2.361689647659659">
        <ele>138.5672607421875</ele>
        <time>2011-04-17T11:22:25Z</time>
      </trkpt>
      <trkpt lat="34.903975753113627" lon="-2.360352734103799">
        <ele>140.4898681640625</ele>
        <time>2011-04-17T11:22:37Z</time>
      </trkpt>
      <trkpt lat="34.904695590957999" lon="-2.359354197978973">
        <ele>137.6058349609375</ele>
        <time>2011-04-17T11:22:48Z</time>
      </trkpt>
      <trkpt lat="34.905332867056131" lon="-2.358469907194376">
        <ele>139.0478515625</ele>
        <time>2011-04-17T11:22:59Z</time>
      </trkpt>
      <trkpt lat="34.905889257788658" lon="-2.357697850093246">
        <ele>137.125244140625</ele>
        <time>2011-04-17T11:23:06Z</time>
      </trkpt>
      <trkpt lat="34.907065993174911" lon="-2.356010070070624">
        <ele>132.79931640625</ele>
        <time>2011-04-17T11:23:20Z</time>
      </trkpt>
      <trkpt lat="34.907875265926123" lon="-2.354847332462668">
        <ele>128.473388671875</ele>
        <time>2011-04-17T11:23:30Z</time>
      </trkpt>
      <trkpt lat="34.90847515873611" lon="-2.353985588997603">
        <ele>127.0313720703125</ele>
        <time>2011-04-17T11:23:39Z</time>
      </trkpt>
      <trkpt lat="34.909134143963456" lon="-2.353038685396314">
        <ele>126.0699462890625</ele>
        <time>2011-04-17T11:23:48Z</time>
      </trkpt>
      <trkpt lat="34.909611912444234" lon="-2.352352291345596">
        <ele>123.666748046875</ele>
        <time>2011-04-17T11:23:54Z</time>
      </trkpt>
      <trkpt lat="34.91046535782516" lon="-2.351126102730632">
        <ele>122.2247314453125</ele>
        <time>2011-04-17T11:24:03Z</time>
      </trkpt>
      <trkpt lat="34.911720128729939" lon="-2.3493767157197">
        <ele>138.5672607421875</ele>
        <time>2011-04-17T11:24:17Z</time>
      </trkpt>
      <trkpt lat="34.912463938817382" lon="-2.348385052755475">
        <ele>145.29638671875</ele>
        <time>2011-04-17T11:24:26Z</time>
      </trkpt>
      <trkpt lat="34.912986299023032" lon="-2.347726989537478">
        <ele>147.69970703125</ele>
        <time>2011-04-17T11:24:34Z</time>
      </trkpt>
      <trkpt lat="34.913070201873779" lon="-2.347628669813275">
        <ele>147.69970703125</ele>
        <time>2011-04-17T11:24:39Z</time>
      </trkpt>
      <trkpt lat="34.91326130926609" lon="-2.347404705360532">
        <ele>144.8157958984375</ele>
        <time>2011-04-17T11:24:45Z</time>
      </trkpt>
      <trkpt lat="34.913697252050042" lon="-2.346893828362227">
        <ele>143.8543701171875</ele>
        <time>2011-04-17T11:24:52Z</time>
      </trkpt>
      <trkpt lat="34.914559833705425" lon="-2.345942817628384">
        <ele>147.69970703125</ele>
        <time>2011-04-17T11:25:04Z</time>
      </trkpt>
      <trkpt lat="34.914827216416597" lon="-2.345666047185659">
        <ele>148.180419921875</ele>
        <time>2011-04-17T11:25:07Z</time>
      </trkpt>
      <trkpt lat="34.915633806958795" lon="-2.344831041991711">
        <ele>145.29638671875</ele>
        <time>2011-04-17T11:25:16Z</time>
      </trkpt>
      <trkpt lat="34.916594373062253" lon="-2.343867709860206">
        <ele>140.970458984375</ele>
        <time>2011-04-17T11:25:27Z</time>
      </trkpt>
      <trkpt lat="34.916946161538363" lon="-2.343520447611809">
        <ele>140.970458984375</ele>
        <time>2011-04-17T11:25:33Z</time>
      </trkpt>
      <trkpt lat="34.917032578960061" lon="-2.343435119837523">
        <ele>140.0091552734375</ele>
        <time>2011-04-17T11:25:39Z</time>
      </trkpt>
      <trkpt lat="34.917169958353043" lon="-2.343299584463239">
        <ele>138.5672607421875</ele>
        <time>2011-04-17T11:25:54Z</time>
      </trkpt>
      <trkpt lat="34.917563572525978" lon="-2.342910915613174">
        <ele>139.0478515625</ele>
        <time>2011-04-17T11:26:00Z</time>
      </trkpt>
      <trkpt lat="34.918120130896568" lon="-2.342322506010532">
        <ele>140.4898681640625</ele>
        <time>2011-04-17T11:26:07Z</time>
      </trkpt>
      <trkpt lat="34.918533945456147" lon="-2.341881617903709">
        <ele>140.4898681640625</ele>
        <time>2011-04-17T11:26:15Z</time>
      </trkpt>
      <trkpt lat="34.918720861896873" lon="-2.341682547703385">
        <ele>140.4898681640625</ele>
        <time>2011-04-17T11:26:22Z</time>
      </trkpt>
      <trkpt lat="34.919031243771315" lon="-2.341351881623268">
        <ele>139.0478515625</ele>
        <time>2011-04-17T11:26:37Z</time>
      </trkpt>
      <trkpt lat="34.91941848769784" lon="-2.340939408168197">
        <ele>137.6058349609375</ele>
        <time>2011-04-17T11:26:49Z</time>
      </trkpt>
      <trkpt lat="34.919813275337219" lon="-2.340518888086081">
        <ele>137.6058349609375</ele>
        <time>2011-04-17T11:26:55Z</time>
      </trkpt>
      <trkpt lat="34.920562114566565" lon="-2.339721266180277">
        <ele>138.0865478515625</ele>
        <time>2011-04-17T11:27:06Z</time>
      </trkpt>
      <trkpt lat="34.921048851683736" lon="-2.339146267622709">
        <ele>135.68310546875</ele>
        <time>2011-04-17T11:27:15Z</time>
      </trkpt>
      <trkpt lat="34.921502731740475" lon="-2.338608065620065">
        <ele>132.79931640625</ele>
        <time>2011-04-17T11:27:23Z</time>
      </trkpt>
      <trkpt lat="34.922039257362485" lon="-2.337971879169345">
        <ele>131.837890625</ele>
        <time>2011-04-17T11:27:33Z</time>
      </trkpt>
      <trkpt lat="34.922360619530082" lon="-2.337555550038815">
        <ele>130.39599609375</ele>
        <time>2011-04-17T11:27:42Z</time>
      </trkpt>
      <trkpt lat="34.922767393290997" lon="-2.337021706625819">
        <ele>127.9925537109375</ele>
        <time>2011-04-17T11:28:07Z</time>
      </trkpt>
      <trkpt lat="34.922906700521708" lon="-2.336838813498616">
        <ele>126.5506591796875</ele>
        <time>2011-04-17T11:28:15Z</time>
      </trkpt>
      <trkpt lat="34.923055227845907" lon="-2.33664401806891">
        <ele>127.0313720703125</ele>
        <time>2011-04-17T11:28:42Z</time>
      </trkpt>
      <trkpt lat="34.923164276406169" lon="-2.33650085516274">
        <ele>127.511962890625</ele>
        <time>2011-04-17T11:28:48Z</time>
      </trkpt>
      <trkpt lat="34.923569457605481" lon="-2.335961312055588">
        <ele>128.473388671875</ele>
        <time>2011-04-17T11:28:59Z</time>
      </trkpt>
      <trkpt lat="34.924014871940017" lon="-2.335346750915051">
        <ele>130.39599609375</ele>
        <time>2011-04-17T11:29:08Z</time>
      </trkpt>
      <trkpt lat="34.924339167773724" lon="-2.334899241104722">
        <ele>132.79931640625</ele>
        <time>2011-04-17T11:29:16Z</time>
      </trkpt>
      <trkpt lat="34.924575621262193" lon="-2.334573185071349">
        <ele>133.2799072265625</ele>
        <time>2011-04-17T11:29:25Z</time>
      </trkpt>
      <trkpt lat="34.92476848885417" lon="-2.334307059645653">
        <ele>134.2412109375</ele>
        <time>2011-04-17T11:29:33Z</time>
      </trkpt>
      <trkpt lat="34.924549637362361" lon="-2.334608975797892">
        <ele>195.765625</ele>
        <time>2011-04-17T11:33:27Z</time>
      </trkpt>
      <trkpt lat="34.924362553283572" lon="-2.334337821230292">
        <ele>177.02001953125</ele>
        <time>2011-04-17T11:33:37Z</time>
      </trkpt>
      <trkpt lat="34.924687352031469" lon="-2.334418958052993">
        <ele>151.064208984375</ele>
        <time>2011-04-17T11:33:52Z</time>
      </trkpt>
      <trkpt lat="34.925175765529275" lon="-2.333746897056699">
        <ele>144.335205078125</ele>
        <time>2011-04-17T11:34:04Z</time>
      </trkpt>
      <trkpt lat="34.925638614222407" lon="-2.333143902942538">
        <ele>139.5284423828125</ele>
        <time>2011-04-17T11:34:13Z</time>
      </trkpt>
      <trkpt lat="34.926089225336909" lon="-2.332556750625372">
        <ele>138.0865478515625</ele>
        <time>2011-04-17T11:34:22Z</time>
      </trkpt>
      <trkpt lat="34.926351075991988" lon="-2.332215523347259">
        <ele>160.1968994140625</ele>
        <time>2011-04-17T11:35:10Z</time>
      </trkpt>
      <trkpt lat="34.926714347675443" lon="-2.331737587228417">
        <ele>152.50634765625</ele>
        <time>2011-04-17T11:35:20Z</time>
      </trkpt>
      <trkpt lat="34.927079547196627" lon="-2.331250766292214">
        <ele>143.3736572265625</ele>
        <time>2011-04-17T11:35:31Z</time>
      </trkpt>
      <trkpt lat="34.927490511909127" lon="-2.330702925100923">
        <ele>137.125244140625</ele>
        <time>2011-04-17T11:35:40Z</time>
      </trkpt>
      <trkpt lat="34.927661921828985" lon="-2.330366056412458">
        <ele>136.1639404296875</ele>
        <time>2011-04-17T11:35:46Z</time>
      </trkpt>
      <trkpt lat="34.927708022296429" lon="-2.330227755010128">
        <ele>136.1639404296875</ele>
        <time>2011-04-17T11:35:52Z</time>
      </trkpt>
      <trkpt lat="34.927867949008942" lon="-2.329748058691621">
        <ele>137.125244140625</ele>
        <time>2011-04-17T11:35:59Z</time>
      </trkpt>
      <trkpt lat="34.92807649075985" lon="-2.329122517257929">
        <ele>138.0865478515625</ele>
        <time>2011-04-17T11:36:08Z</time>
      </trkpt>
      <trkpt lat="34.928203141316772" lon="-2.328742565587163">
        <ele>138.0865478515625</ele>
        <time>2011-04-17T11:36:14Z</time>
      </trkpt>
      <trkpt lat="34.9282499961555" lon="-2.328601917251945">
        <ele>138.0865478515625</ele>
        <time>2011-04-17T11:36:18Z</time>
      </trkpt>
      <trkpt lat="34.927209299057722" lon="-2.327688960358501">
        <ele>137.6058349609375</ele>
        <time>2011-04-17T11:36:29Z</time>
      </trkpt>
      <trkpt lat="34.926510164514184" lon="-2.326775584369898">
        <ele>140.0091552734375</ele>
        <time>2011-04-17T11:36:42Z</time>
      </trkpt>
      <trkpt lat="34.926027618348598" lon="-2.326009646058083">
        <ele>140.4898681640625</ele>
        <time>2011-04-17T11:36:52Z</time>
      </trkpt>
      <trkpt lat="34.925846653059125" lon="-2.325743855908513">
        <ele>141.4510498046875</ele>
        <time>2011-04-17T11:36:56Z</time>
      </trkpt>
      <trkpt lat="34.925641296431422" lon="-2.325763469561935">
        <ele>140.970458984375</ele>
        <time>2011-04-17T11:37:01Z</time>
      </trkpt>
      <trkpt lat="34.925102926790714" lon="-2.326250458136201">
        <ele>142.4124755859375</ele>
        <time>2011-04-17T11:37:11Z</time>
      </trkpt>
      <trkpt lat="34.924728590995073" lon="-2.326703751459718">
        <ele>141.4510498046875</ele>
        <time>2011-04-17T11:37:18Z</time>
      </trkpt>
      <trkpt lat="34.924350148066878" lon="-2.327199960127473">
        <ele>139.5284423828125</ele>
        <time>2011-04-17T11:37:26Z</time>
      </trkpt>
      <trkpt lat="34.923925856128335" lon="-2.327817706391215">
        <ele>139.5284423828125</ele>
        <time>2011-04-17T11:37:37Z</time>
      </trkpt>
      <trkpt lat="34.923982685431838" lon="-2.328093890100718">
        <ele>139.5284423828125</ele>
        <time>2011-04-17T11:37:47Z</time>
      </trkpt>
      <trkpt lat="34.923182968050241" lon="-2.328807441517711">
        <ele>136.6446533203125</ele>
        <time>2011-04-17T11:37:57Z</time>
      </trkpt>
      <trkpt lat="34.922995464876294" lon="-2.329097874462605">
        <ele>135.68310546875</ele>
        <time>2011-04-17T11:38:04Z</time>
      </trkpt>
      <trkpt lat="34.922531861811876" lon="-2.329776221886277">
        <ele>132.318603515625</ele>
        <time>2011-04-17T11:38:15Z</time>
      </trkpt>
      <trkpt lat="34.922356177121401" lon="-2.330016950145364">
        <ele>134.721923828125</ele>
        <time>2011-04-17T11:38:22Z</time>
      </trkpt>
      <trkpt lat="34.922069599851966" lon="-2.33040226623416">
        <ele>132.318603515625</ele>
        <time>2011-04-17T11:38:31Z</time>
      </trkpt>
      <trkpt lat="34.922248721122742" lon="-2.330735195428133">
        <ele>130.39599609375</ele>
        <time>2011-04-17T11:38:41Z</time>
      </trkpt>
      <trkpt lat="34.923023292794824" lon="-2.330876681953669">
        <ele>129.4346923828125</ele>
        <time>2011-04-17T11:38:51Z</time>
      </trkpt>
      <trkpt lat="34.923380864784122" lon="-2.331365346908569">
        <ele>128.9541015625</ele>
        <time>2011-04-17T11:39:00Z</time>
      </trkpt>
      <trkpt lat="34.923721924424171" lon="-2.33183154836297">
        <ele>141.4510498046875</ele>
        <time>2011-04-17T11:39:10Z</time>
      </trkpt>
      <trkpt lat="34.923892999067903" lon="-2.332065319642425">
        <ele>140.4898681640625</ele>
        <time>2011-04-17T11:39:16Z</time>
      </trkpt>
      <trkpt lat="34.924142109230161" lon="-2.332405792549253">
        <ele>132.79931640625</ele>
        <time>2011-04-17T11:39:24Z</time>
      </trkpt>
      <trkpt lat="34.924344699829817" lon="-2.332682562991977">
        <ele>132.318603515625</ele>
        <time>2011-04-17T11:39:31Z</time>
      </trkpt>
      <trkpt lat="34.924479816108942" lon="-2.332867300137878">
        <ele>132.79931640625</ele>
        <time>2011-04-17T11:39:40Z</time>
      </trkpt>
      <trkpt lat="34.92466346360743" lon="-2.333118254318833">
        <ele>148.6610107421875</ele>
        <time>2011-04-17T11:46:19Z</time>
      </trkpt>
      <trkpt lat="34.924928583204746" lon="-2.333705322816968">
        <ele>151.544921875</ele>
        <time>2011-04-17T11:46:28Z</time>
      </trkpt>
      <trkpt lat="34.925688905641437" lon="-2.333078272640705">
        <ele>152.50634765625</ele>
        <time>2011-04-17T11:46:38Z</time>
      </trkpt>
      <trkpt lat="34.926172709092498" lon="-2.332447869703174">
        <ele>156.3515625</ele>
        <time>2011-04-17T11:46:49Z</time>
      </trkpt>
      <trkpt lat="34.926519216969609" lon="-2.331996420398355">
        <ele>157.3128662109375</ele>
        <time>2011-04-17T11:46:58Z</time>
      </trkpt>
      <trkpt lat="34.92697318084538" lon="-2.331392588093877">
        <ele>157.3128662109375</ele>
        <time>2011-04-17T11:47:07Z</time>
      </trkpt>
      <trkpt lat="34.927481962367892" lon="-2.330714156851172">
        <ele>154.428955078125</ele>
        <time>2011-04-17T11:47:19Z</time>
      </trkpt>
      <trkpt lat="34.927945146337152" lon="-2.32951638288796">
        <ele>153.4676513671875</ele>
        <time>2011-04-17T11:47:33Z</time>
      </trkpt>
      <trkpt lat="34.928000718355179" lon="-2.329349750652909">
        <ele>153.4676513671875</ele>
        <time>2011-04-17T11:47:38Z</time>
      </trkpt>
      <trkpt lat="34.928054446354508" lon="-2.329188399016857">
        <ele>152.9869384765625</ele>
        <time>2011-04-17T11:47:43Z</time>
      </trkpt>
      <trkpt lat="34.928133906796575" lon="-2.328950269147754">
        <ele>152.50634765625</ele>
        <time>2011-04-17T11:47:47Z</time>
      </trkpt>
      <trkpt lat="34.928350076079369" lon="-2.328129429370165">
        <ele>152.9869384765625</ele>
        <time>2011-04-17T11:47:55Z</time>
      </trkpt>
      <trkpt lat="34.928541518747807" lon="-2.326820679008961">
        <ele>153.4676513671875</ele>
        <time>2011-04-17T11:48:04Z</time>
      </trkpt>
      <trkpt lat="34.928703876212239" lon="-2.325711585581303">
        <ele>155.3902587890625</ele>
        <time>2011-04-17T11:48:12Z</time>
      </trkpt>
      <trkpt lat="34.928886266425252" lon="-2.324238717556">
        <ele>158.7547607421875</ele>
        <time>2011-04-17T11:48:22Z</time>
      </trkpt>
      <trkpt lat="34.929032530635595" lon="-2.32273961417377">
        <ele>161.158203125</ele>
        <time>2011-04-17T11:48:33Z</time>
      </trkpt>
      <trkpt lat="34.929180135950446" lon="-2.321226932108402">
        <ele>163.080810546875</ele>
        <time>2011-04-17T11:48:44Z</time>
      </trkpt>
      <trkpt lat="34.929313492029905" lon="-2.319615511223674">
        <ele>165.00341796875</ele>
        <time>2011-04-17T11:48:57Z</time>
      </trkpt>
      <trkpt lat="34.929356072098017" lon="-2.319016791880131">
        <ele>166.926025390625</ele>
        <time>2011-04-17T11:49:04Z</time>
      </trkpt>
      <trkpt lat="34.929420361295342" lon="-2.318113222718239">
        <ele>168.3680419921875</ele>
        <time>2011-04-17T11:49:11Z</time>
      </trkpt>
      <trkpt lat="34.929529242217541" lon="-2.316583441570401">
        <ele>170.7713623046875</ele>
        <time>2011-04-17T11:49:22Z</time>
      </trkpt>
      <trkpt lat="34.929610127583146" lon="-2.315446687862277">
        <ele>172.6939697265625</ele>
        <time>2011-04-17T11:49:31Z</time>
      </trkpt>
      <trkpt lat="34.929754715412855" lon="-2.314005000516772">
        <ele>174.1358642578125</ele>
        <time>2011-04-17T11:49:44Z</time>
      </trkpt>
      <trkpt lat="34.929772736504674" lon="-2.313840547576547">
        <ele>174.1358642578125</ele>
        <time>2011-04-17T11:49:46Z</time>
      </trkpt>
      <trkpt lat="34.929798636585474" lon="-2.31360518373549">
        <ele>175.577880859375</ele>
        <time>2011-04-17T11:49:50Z</time>
      </trkpt>
      <trkpt lat="34.929607948288321" lon="-2.313349870964885">
        <ele>174.6165771484375</ele>
        <time>2011-04-17T11:49:59Z</time>
      </trkpt>
      <trkpt lat="34.929503761231899" lon="-2.313180388882756">
        <ele>174.1358642578125</ele>
        <time>2011-04-17T11:50:08Z</time>
      </trkpt>
      <trkpt lat="34.929603757336736" lon="-2.313138647004962">
        <ele>171.732666015625</ele>
        <time>2011-04-17T11:50:41Z</time>
      </trkpt>
      <trkpt lat="34.929739041253924" lon="-2.313202768564224">
        <ele>166.926025390625</ele>
        <time>2011-04-17T11:51:39Z</time>
      </trkpt>
      <trkpt lat="34.9295848980546" lon="-2.313117692247033">
        <ele>161.638916015625</ele>
        <time>2011-04-17T11:52:29Z</time>
      </trkpt>
      <trkpt lat="34.929675338789821" lon="-2.313140574842691">
        <ele>170.7713623046875</ele>
        <time>2011-04-17T11:54:09Z</time>
      </trkpt>
      <trkpt lat="34.929707273840904" lon="-2.31293085962534">
        <ele>166.926025390625</ele>
        <time>2011-04-17T11:56:49Z</time>
      </trkpt>
      <trkpt lat="34.929856220260262" lon="-2.312756683677435">
        <ele>166.4453125</ele>
        <time>2011-04-17T11:57:11Z</time>
      </trkpt>
      <trkpt lat="34.929865775629878" lon="-2.312167268246412">
        <ele>165.00341796875</ele>
        <time>2011-04-17T11:57:17Z</time>
      </trkpt>
      <trkpt lat="34.929884886369109" lon="-2.310991119593382">
        <ele>164.0421142578125</ele>
        <time>2011-04-17T11:57:25Z</time>
      </trkpt>
      <trkpt lat="34.929923107847571" lon="-2.309057079255581">
        <ele>165.484130859375</ele>
        <time>2011-04-17T11:57:36Z</time>
      </trkpt>
      <trkpt lat="34.930112706497312" lon="-2.306650551036">
        <ele>171.2520751953125</ele>
        <time>2011-04-17T11:57:51Z</time>
      </trkpt>
      <trkpt lat="34.930468769744039" lon="-2.304889596998692">
        <ele>177.5006103515625</ele>
        <time>2011-04-17T11:58:04Z</time>
      </trkpt>
      <trkpt lat="34.930968247354031" lon="-2.30354773811996">
        <ele>181.3458251953125</ele>
        <time>2011-04-17T11:58:13Z</time>
      </trkpt>
      <trkpt lat="34.93144023232162" lon="-2.302263798192143">
        <ele>182.787841796875</ele>
        <time>2011-04-17T11:58:21Z</time>
      </trkpt>
      <trkpt lat="34.932011123746634" lon="-2.300680037587881">
        <ele>180.865234375</ele>
        <time>2011-04-17T11:58:31Z</time>
      </trkpt>
      <trkpt lat="34.93255821056664" lon="-2.298979433253408">
        <ele>180.865234375</ele>
        <time>2011-04-17T11:58:42Z</time>
      </trkpt>
      <trkpt lat="34.933162545785308" lon="-2.296944307163358">
        <ele>181.826416015625</ele>
        <time>2011-04-17T11:58:53Z</time>
      </trkpt>
      <trkpt lat="34.933652384206653" lon="-2.295107413083315">
        <ele>183.2684326171875</ele>
        <time>2011-04-17T11:59:02Z</time>
      </trkpt>
      <trkpt lat="34.934196956455708" lon="-2.292941026389599">
        <ele>185.191162109375</ele>
        <time>2011-04-17T11:59:13Z</time>
      </trkpt>
      <trkpt lat="34.934570789337158" lon="-2.291049147024751">
        <ele>182.787841796875</ele>
        <time>2011-04-17T11:59:22Z</time>
      </trkpt>
      <trkpt lat="34.934570789337158" lon="-2.288634236901999">
        <ele>183.7490234375</ele>
        <time>2011-04-17T11:59:33Z</time>
      </trkpt>
      <trkpt lat="34.934570789337158" lon="-2.287892606109381">
        <ele>184.7105712890625</ele>
        <time>2011-04-17T11:59:38Z</time>
      </trkpt>
      <trkpt lat="34.934548661112785" lon="-2.286297529935837">
        <ele>187.5943603515625</ele>
        <time>2011-04-17T11:59:50Z</time>
      </trkpt>
      <trkpt lat="34.934424441307783" lon="-2.284783339127898">
        <ele>190.958984375</ele>
        <time>2011-04-17T12:00:00Z</time>
      </trkpt>
      <trkpt lat="34.934270130470395" lon="-2.283714981749654">
        <ele>192.8817138671875</ele>
        <time>2011-04-17T12:00:06Z</time>
      </trkpt>
      <trkpt lat="34.933872325345874" lon="-2.282176986336708">
        <ele>197.688232421875</ele>
        <time>2011-04-17T12:00:14Z</time>
      </trkpt>
      <trkpt lat="34.933511149138212" lon="-2.280170610174537">
        <ele>202.494873046875</ele>
        <time>2011-04-17T12:00:24Z</time>
      </trkpt>
      <trkpt lat="34.933398328721523" lon="-2.278364896774292">
        <ele>204.8980712890625</ele>
        <time>2011-04-17T12:00:32Z</time>
      </trkpt>
      <trkpt lat="34.93341526016593" lon="-2.275199973955751">
        <ele>206.8206787109375</ele>
        <time>2011-04-17T12:00:45Z</time>
      </trkpt>
      <trkpt lat="34.93339229375124" lon="-2.27099385112524">
        <ele>211.146728515625</ele>
        <time>2011-04-17T12:01:02Z</time>
      </trkpt>
      <trkpt lat="34.933285256847739" lon="-2.267173379659653">
        <ele>212.588623046875</ele>
        <time>2011-04-17T12:01:17Z</time>
      </trkpt>
      <trkpt lat="34.933261871337891" lon="-2.263218043372035">
        <ele>212.1080322265625</ele>
        <time>2011-04-17T12:01:32Z</time>
      </trkpt>
      <trkpt lat="34.933234797790647" lon="-2.261833185330033">
        <ele>211.62744140625</ele>
        <time>2011-04-17T12:01:38Z</time>
      </trkpt>
      <trkpt lat="34.933091634884477" lon="-2.259531011804938">
        <ele>210.1854248046875</ele>
        <time>2011-04-17T12:01:49Z</time>
      </trkpt>
      <trkpt lat="34.932925254106522" lon="-2.258410770446062">
        <ele>210.1854248046875</ele>
        <time>2011-04-17T12:01:56Z</time>
      </trkpt>
      <trkpt lat="34.93245268240571" lon="-2.257012920454145">
        <ele>213.0693359375</ele>
        <time>2011-04-17T12:02:06Z</time>
      </trkpt>
      <trkpt lat="34.931891849264503" lon="-2.255501160398126">
        <ele>215.9532470703125</ele>
        <time>2011-04-17T12:02:17Z</time>
      </trkpt>
      <trkpt lat="34.931761678308249" lon="-2.254941752180457">
        <ele>215.9532470703125</ele>
        <time>2011-04-17T12:02:23Z</time>
      </trkpt>
      <trkpt lat="34.93164743296802" lon="-2.254101717844605">
        <ele>213.0693359375</ele>
        <time>2011-04-17T12:02:30Z</time>
      </trkpt>
      <trkpt lat="34.931504437699914" lon="-2.253049369901419">
        <ele>211.146728515625</ele>
        <time>2011-04-17T12:02:37Z</time>
      </trkpt>
      <trkpt lat="34.931538300588727" lon="-2.251048861071467">
        <ele>211.146728515625</ele>
        <time>2011-04-17T12:02:49Z</time>
      </trkpt>
      <trkpt lat="34.931502342224121" lon="-2.249983856454492">
        <ele>210.666015625</ele>
        <time>2011-04-17T12:02:55Z</time>
      </trkpt>
      <trkpt lat="34.931477783247828" lon="-2.248472096398473">
        <ele>210.666015625</ele>
        <time>2011-04-17T12:03:04Z</time>
      </trkpt>
      <trkpt lat="34.930924493819475" lon="-2.246045619249344">
        <ele>210.1854248046875</ele>
        <time>2011-04-17T12:03:19Z</time>
      </trkpt>
      <trkpt lat="34.930572286248207" lon="-2.244914649054408">
        <ele>211.62744140625</ele>
        <time>2011-04-17T12:03:28Z</time>
      </trkpt>
      <trkpt lat="34.930316470563412" lon="-2.244114093482494">
        <ele>215.47265625</ele>
        <time>2011-04-17T12:03:36Z</time>
      </trkpt>
      <trkpt lat="34.929923610761762" lon="-2.243188144639134">
        <ele>219.3179931640625</ele>
        <time>2011-04-17T12:03:45Z</time>
      </trkpt>
      <trkpt lat="34.929476687684655" lon="-2.242062455043197">
        <ele>221.72119140625</ele>
        <time>2011-04-17T12:03:55Z</time>
      </trkpt>
      <trkpt lat="34.929359341040254" lon="-2.240814808756113">
        <ele>219.798583984375</ele>
        <time>2011-04-17T12:04:04Z</time>
      </trkpt>
      <trkpt lat="34.929282730445266" lon="-2.240000087767839">
        <ele>219.3179931640625</ele>
        <time>2011-04-17T12:04:12Z</time>
      </trkpt>
      <trkpt lat="34.929404770955443" lon="-2.239057710394263">
        <ele>217.3953857421875</ele>
        <time>2011-04-17T12:04:20Z</time>
      </trkpt>
      <trkpt lat="34.92970559746027" lon="-2.237922884523869">
        <ele>214.51123046875</ele>
        <time>2011-04-17T12:04:30Z</time>
      </trkpt>
      <trkpt lat="34.930002233013511" lon="-2.237135739997029">
        <ele>214.51123046875</ele>
        <time>2011-04-17T12:04:38Z</time>
      </trkpt>
      <trkpt lat="34.9303930811584" lon="-2.235801760107279">
        <ele>214.51123046875</ele>
        <time>2011-04-17T12:04:49Z</time>
      </trkpt>
      <trkpt lat="34.930712431669235" lon="-2.234256723895669">
        <ele>214.991943359375</ele>
        <time>2011-04-17T12:04:59Z</time>
      </trkpt>
      <trkpt lat="34.930992387235165" lon="-2.232418823987246">
        <ele>216.9146728515625</ele>
        <time>2011-04-17T12:05:10Z</time>
      </trkpt>
      <trkpt lat="34.931093975901604" lon="-2.231227001175284">
        <ele>218.3565673828125</ele>
        <time>2011-04-17T12:05:19Z</time>
      </trkpt>
      <trkpt lat="34.931253315880895" lon="-2.229385329410434">
        <ele>219.3179931640625</ele>
        <time>2011-04-17T12:05:31Z</time>
      </trkpt>
      <trkpt lat="34.931441321969032" lon="-2.22735196352005">
        <ele>219.3179931640625</ele>
        <time>2011-04-17T12:05:43Z</time>
      </trkpt>
      <trkpt lat="34.931585239246488" lon="-2.22577172331512">
        <ele>218.8372802734375</ele>
        <time>2011-04-17T12:05:53Z</time>
      </trkpt>
      <trkpt lat="34.931708872318268" lon="-2.224240014329553">
        <ele>217.3953857421875</ele>
        <time>2011-04-17T12:06:01Z</time>
      </trkpt>
      <trkpt lat="34.93192202411592" lon="-2.221525618806481">
        <ele>216.9146728515625</ele>
        <time>2011-04-17T12:06:13Z</time>
      </trkpt>
      <trkpt lat="34.932215139269829" lon="-2.219632817432284">
        <ele>217.3953857421875</ele>
        <time>2011-04-17T12:06:22Z</time>
      </trkpt>
      <trkpt lat="34.932503141462803" lon="-2.218124745413661">
        <ele>217.3953857421875</ele>
        <time>2011-04-17T12:06:31Z</time>
      </trkpt>
      <trkpt lat="34.932812014594674" lon="-2.216827729716897">
        <ele>216.4339599609375</ele>
        <time>2011-04-17T12:06:41Z</time>
      </trkpt>
      <trkpt lat="34.93306003510952" lon="-2.215785775333643">
        <ele>214.0306396484375</ele>
        <time>2011-04-17T12:06:50Z</time>
      </trkpt>
      <trkpt lat="34.933424396440387" lon="-2.214237134903669">
        <ele>212.588623046875</ele>
        <time>2011-04-17T12:07:02Z</time>
      </trkpt>
      <trkpt lat="34.93361852131784" lon="-2.213410511612892">
        <ele>213.550048828125</ele>
        <time>2011-04-17T12:07:09Z</time>
      </trkpt>
      <trkpt lat="34.93384282104671" lon="-2.212521694600582">
        <ele>211.62744140625</ele>
        <time>2011-04-17T12:07:17Z</time>
      </trkpt>
      <trkpt lat="34.934144904837012" lon="-2.21153799444437">
        <ele>209.704833984375</ele>
        <time>2011-04-17T12:07:27Z</time>
      </trkpt>
      <trkpt lat="34.934504153206944" lon="-2.21036821603775">
        <ele>207.3013916015625</ele>
        <time>2011-04-17T12:07:37Z</time>
      </trkpt>
      <trkpt lat="34.934655614197254" lon="-2.208780348300934">
        <ele>206.8206787109375</ele>
        <time>2011-04-17T12:07:48Z</time>
      </trkpt>
      <trkpt lat="34.934650417417288" lon="-2.20712517388165">
        <ele>213.0693359375</ele>
        <time>2011-04-17T12:07:57Z</time>
      </trkpt>
      <trkpt lat="34.934541704133153" lon="-2.205268247053027">
        <ele>217.8759765625</ele>
        <time>2011-04-17T12:08:07Z</time>
      </trkpt>
      <trkpt lat="34.934424189850688" lon="-2.204390661790967">
        <ele>222.6824951171875</ele>
        <time>2011-04-17T12:08:13Z</time>
      </trkpt>
      <trkpt lat="34.934398038312793" lon="-2.204195195809007">
        <ele>224.12451171875</ele>
        <time>2011-04-17T12:08:18Z</time>
      </trkpt>
      <trkpt lat="34.934340119361877" lon="-2.203763108700514">
        <ele>226.52783203125</ele>
        <time>2011-04-17T12:08:25Z</time>
      </trkpt>
      <trkpt lat="34.934167871251702" lon="-2.202931456267834">
        <ele>229.892333984375</ele>
        <time>2011-04-17T12:08:32Z</time>
      </trkpt>
      <trkpt lat="34.933970645070076" lon="-2.202181778848171">
        <ele>232.2957763671875</ele>
        <time>2011-04-17T12:08:39Z</time>
      </trkpt>
      <trkpt lat="34.93386335670948" lon="-2.201406201347709">
        <ele>232.7764892578125</ele>
        <time>2011-04-17T12:08:47Z</time>
      </trkpt>
      <trkpt lat="34.933632351458073" lon="-2.19973174855113">
        <ele>238.0635986328125</ele>
        <time>2011-04-17T12:09:00Z</time>
      </trkpt>
      <trkpt lat="34.933168329298496" lon="-2.198047237470746">
        <ele>241.908935546875</ele>
        <time>2011-04-17T12:09:11Z</time>
      </trkpt>
      <trkpt lat="34.93300043977797" lon="-2.196742594242096">
        <ele>244.312255859375</ele>
        <time>2011-04-17T12:09:19Z</time>
      </trkpt>
      <trkpt lat="34.932924164459109" lon="-2.19580608420074">
        <ele>246.7154541015625</ele>
        <time>2011-04-17T12:09:26Z</time>
      </trkpt>
      <trkpt lat="34.932931205257773" lon="-2.195433676242828">
        <ele>246.23486328125</ele>
        <time>2011-04-17T12:09:32Z</time>
      </trkpt>
      <trkpt lat="34.932942939922214" lon="-2.194810314103961">
        <ele>245.2734375</ele>
        <time>2011-04-17T12:09:38Z</time>
      </trkpt>
      <trkpt lat="34.932989710941911" lon="-2.193666016682982">
        <ele>244.7928466796875</ele>
        <time>2011-04-17T12:09:47Z</time>
      </trkpt>
      <trkpt lat="34.933128179982305" lon="-2.192433541640639">
        <ele>244.7928466796875</ele>
        <time>2011-04-17T12:09:56Z</time>
      </trkpt>
      <trkpt lat="34.932976635172963" lon="-2.190935024991632">
        <ele>245.754150390625</ele>
        <time>2011-04-17T12:10:08Z</time>
      </trkpt>
      <trkpt lat="34.932764740660787" lon="-2.189921149984002">
        <ele>246.7154541015625</ele>
        <time>2011-04-17T12:10:17Z</time>
      </trkpt>
      <trkpt lat="34.932614704594016" lon="-2.189262164756656">
        <ele>246.7154541015625</ele>
        <time>2011-04-17T12:10:26Z</time>
      </trkpt>
      <trkpt lat="34.932435918599367" lon="-2.188476528972387">
        <ele>248.1575927734375</ele>
        <time>2011-04-17T12:10:32Z</time>
      </trkpt>
      <trkpt lat="34.931957228109241" lon="-2.187036518007517">
        <ele>253.4447021484375</ele>
        <time>2011-04-17T12:10:43Z</time>
      </trkpt>
      <trkpt lat="34.931811382994056" lon="-2.186635611578822">
        <ele>255.3673095703125</ele>
        <time>2011-04-17T12:10:48Z</time>
      </trkpt>
      <trkpt lat="34.931578449904919" lon="-2.185995066538453">
        <ele>257.770751953125</ele>
        <time>2011-04-17T12:10:56Z</time>
      </trkpt>
      <trkpt lat="34.931128257885575" lon="-2.184841381385922">
        <ele>261.615966796875</ele>
        <time>2011-04-17T12:11:06Z</time>
      </trkpt>
      <trkpt lat="34.930767249315977" lon="-2.183954576030374">
        <ele>264.019287109375</ele>
        <time>2011-04-17T12:11:15Z</time>
      </trkpt>
      <trkpt lat="34.930352177470922" lon="-2.182719586417079">
        <ele>267.3839111328125</ele>
        <time>2011-04-17T12:11:25Z</time>
      </trkpt>
      <trkpt lat="34.930037772282958" lon="-2.181731527671218">
        <ele>269.3065185546875</ele>
        <time>2011-04-17T12:11:33Z</time>
      </trkpt>
      <trkpt lat="34.929535696282983" lon="-2.180205686017871">
        <ele>272.671142578125</ele>
        <time>2011-04-17T12:11:45Z</time>
      </trkpt>
      <trkpt lat="34.929320951923728" lon="-2.17967351898551">
        <ele>274.59375</ele>
        <time>2011-04-17T12:11:51Z</time>
      </trkpt>
      <trkpt lat="34.929029764607549" lon="-2.178951753303409">
        <ele>277.4776611328125</ele>
        <time>2011-04-17T12:12:00Z</time>
      </trkpt>
      <trkpt lat="34.928744528442621" lon="-2.178244907408953">
        <ele>279.880859375</ele>
        <time>2011-04-17T12:12:07Z</time>
      </trkpt>
      <trkpt lat="34.928341442719102" lon="-2.177228853106499">
        <ele>284.6876220703125</ele>
        <time>2011-04-17T12:12:15Z</time>
      </trkpt>
      <trkpt lat="34.92794749327004" lon="-2.176228640601039">
        <ele>289.974853515625</ele>
        <time>2011-04-17T12:12:24Z</time>
      </trkpt>
      <trkpt lat="34.927560081705451" lon="-2.175245527178049">
        <ele>293.33935546875</ele>
        <time>2011-04-17T12:12:34Z</time>
      </trkpt>
      <trkpt lat="34.927319018170238" lon="-2.174487803131342">
        <ele>295.261962890625</ele>
        <time>2011-04-17T12:12:43Z</time>
      </trkpt>
      <trkpt lat="34.92712615057826" lon="-2.173852371051908">
        <ele>296.7041015625</ele>
        <time>2011-04-17T12:12:49Z</time>
      </trkpt>
      <trkpt lat="34.926807805895805" lon="-2.172803292050958">
        <ele>300.54931640625</ele>
        <time>2011-04-17T12:12:59Z</time>
      </trkpt>
      <trkpt lat="34.926570095121861" lon="-2.171800313517451">
        <ele>302.471923828125</ele>
        <time>2011-04-17T12:13:07Z</time>
      </trkpt>
      <trkpt lat="34.926586020737886" lon="-2.170720053836703">
        <ele>303.4332275390625</ele>
        <time>2011-04-17T12:13:14Z</time>
      </trkpt>
      <trkpt lat="34.926599431782961" lon="-2.16980860568583">
        <ele>304.875244140625</ele>
        <time>2011-04-17T12:13:22Z</time>
      </trkpt>
      <trkpt lat="34.926637066528201" lon="-2.168987179175019">
        <ele>307.278564453125</ele>
        <time>2011-04-17T12:13:29Z</time>
      </trkpt>
      <trkpt lat="34.926861533895135" lon="-2.168121580034494">
        <ele>308.720458984375</ele>
        <time>2011-04-17T12:13:37Z</time>
      </trkpt>
      <trkpt lat="34.927203767001629" lon="-2.166801514104009">
        <ele>308.2398681640625</ele>
        <time>2011-04-17T12:13:48Z</time>
      </trkpt>
      <trkpt lat="34.927525632083416" lon="-2.165584629401565">
        <ele>305.836669921875</ele>
        <time>2011-04-17T12:13:57Z</time>
      </trkpt>
      <trkpt lat="34.928068527951837" lon="-2.164420383051038">
        <ele>301.5106201171875</ele>
        <time>2011-04-17T12:14:04Z</time>
      </trkpt>
      <trkpt lat="34.92867018096149" lon="-2.163130072876811">
        <ele>297.1846923828125</ele>
        <time>2011-04-17T12:14:10Z</time>
      </trkpt>
      <trkpt lat="34.92955656722188" lon="-2.160979695618153">
        <ele>290.45556640625</ele>
        <time>2011-04-17T12:14:19Z</time>
      </trkpt>
      <trkpt lat="34.930557701736689" lon="-2.157824244350195">
        <ele>284.2069091796875</ele>
        <time>2011-04-17T12:14:31Z</time>
      </trkpt>
      <trkpt lat="34.930908065289259" lon="-2.156212739646435">
        <ele>281.8035888671875</ele>
        <time>2011-04-17T12:14:37Z</time>
      </trkpt>
      <trkpt lat="34.931270917877555" lon="-2.153581827878952">
        <ele>277.958251953125</ele>
        <time>2011-04-17T12:14:47Z</time>
      </trkpt>
      <trkpt lat="34.931464623659849" lon="-2.15164233930409">
        <ele>274.59375</ele>
        <time>2011-04-17T12:14:55Z</time>
      </trkpt>
      <trkpt lat="34.931781543418765" lon="-2.15006947517395">
        <ele>270.2677001953125</ele>
        <time>2011-04-17T12:15:04Z</time>
      </trkpt>
      <trkpt lat="34.93214288726449" lon="-2.148452522233129">
        <ele>268.8258056640625</ele>
        <time>2011-04-17T12:15:13Z</time>
      </trkpt>
      <trkpt lat="34.93268963880837" lon="-2.146665584295988">
        <ele>267.3839111328125</ele>
        <time>2011-04-17T12:15:22Z</time>
      </trkpt>
      <trkpt lat="34.933351390063763" lon="-2.145112501457334">
        <ele>267.3839111328125</ele>
        <time>2011-04-17T12:15:30Z</time>
      </trkpt>
      <trkpt lat="34.934280775487423" lon="-2.143361354246736">
        <ele>265.4613037109375</ele>
        <time>2011-04-17T12:15:40Z</time>
      </trkpt>
      <trkpt lat="34.93509516119957" lon="-2.141697714105249">
        <ele>260.1739501953125</ele>
        <time>2011-04-17T12:15:50Z</time>
      </trkpt>
      <trkpt lat="34.935830924659967" lon="-2.139990236610174">
        <ele>253.9254150390625</ele>
        <time>2011-04-17T12:15:59Z</time>
      </trkpt>
      <trkpt lat="34.93665486574173" lon="-2.137883780524135">
        <ele>251.0413818359375</ele>
        <time>2011-04-17T12:16:08Z</time>
      </trkpt>
      <trkpt lat="34.937474867329001" lon="-2.13587966747582">
        <ele>247.196044921875</ele>
        <time>2011-04-17T12:16:16Z</time>
      </trkpt>
      <trkpt lat="34.938188083469868" lon="-2.134100776165724">
        <ele>244.312255859375</ele>
        <time>2011-04-17T12:16:24Z</time>
      </trkpt>
      <trkpt lat="34.938731482252479" lon="-2.132583735510707">
        <ele>241.908935546875</ele>
        <time>2011-04-17T12:16:32Z</time>
      </trkpt>
      <trkpt lat="34.939372027292848" lon="-2.130203023552895">
        <ele>239.5054931640625</ele>
        <time>2011-04-17T12:16:44Z</time>
      </trkpt>
      <trkpt lat="34.939834792166948" lon="-2.128756809979677">
        <ele>240.9476318359375</ele>
        <time>2011-04-17T12:16:51Z</time>
      </trkpt>
      <trkpt lat="34.940493442118168" lon="-2.127369269728661">
        <ele>242.3896484375</ele>
        <time>2011-04-17T12:16:59Z</time>
      </trkpt>
      <trkpt lat="34.941411009058356" lon="-2.125306315720081">
        <ele>241.908935546875</ele>
        <time>2011-04-17T12:17:10Z</time>
      </trkpt>
      <trkpt lat="34.942177031189203" lon="-2.123163985088468">
        <ele>240.9476318359375</ele>
        <time>2011-04-17T12:17:20Z</time>
      </trkpt>
      <trkpt lat="34.942648932337761" lon="-2.121746856719255">
        <ele>241.42822265625</ele>
        <time>2011-04-17T12:17:28Z</time>
      </trkpt>
      <trkpt lat="34.943200880661607" lon="-2.119867634028196">
        <ele>242.8702392578125</ele>
        <time>2011-04-17T12:17:39Z</time>
      </trkpt>
      <trkpt lat="34.943887861445546" lon="-2.117391703650355">
        <ele>245.754150390625</ele>
        <time>2011-04-17T12:17:52Z</time>
      </trkpt>
      <trkpt lat="34.944355236366391" lon="-2.115672323852778">
        <ele>248.1575927734375</ele>
        <time>2011-04-17T12:18:00Z</time>
      </trkpt>
      <trkpt lat="34.944898467510939" lon="-2.113385573029518">
        <ele>251.5220947265625</ele>
        <time>2011-04-17T12:18:10Z</time>
      </trkpt>
      <trkpt lat="34.94572089985013" lon="-2.10977615788579">
        <ele>256.809326171875</ele>
        <time>2011-04-17T12:18:24Z</time>
      </trkpt>
      <trkpt lat="34.946236805990338" lon="-2.108184937387705">
        <ele>257.770751953125</ele>
        <time>2011-04-17T12:18:31Z</time>
      </trkpt>
      <trkpt lat="34.946531765162945" lon="-2.107417155057192">
        <ele>257.2900390625</ele>
        <time>2011-04-17T12:18:36Z</time>
      </trkpt>
      <trkpt lat="34.946879027411342" lon="-2.106133215129376">
        <ele>257.770751953125</ele>
        <time>2011-04-17T12:18:45Z</time>
      </trkpt>
      <trkpt lat="34.947065943852067" lon="-2.104875845834613">
        <ele>258.73193359375</ele>
        <time>2011-04-17T12:18:56Z</time>
      </trkpt>
      <trkpt lat="34.94710760191083" lon="-2.104530846700072">
        <ele>259.693359375</ele>
        <time>2011-04-17T12:19:02Z</time>
      </trkpt>
      <trkpt lat="34.947136184200644" lon="-2.104006223380566">
        <ele>260.1739501953125</ele>
        <time>2011-04-17T12:19:09Z</time>
      </trkpt>
      <trkpt lat="34.947173399850726" lon="-2.102999137714505">
        <ele>260.654541015625</ele>
        <time>2011-04-17T12:19:16Z</time>
      </trkpt>
      <trkpt lat="34.947200557217002" lon="-2.101234411820769">
        <ele>263.53857421875</ele>
        <time>2011-04-17T12:19:26Z</time>
      </trkpt>
      <trkpt lat="34.947073655202985" lon="-2.100014677271247">
        <ele>263.057861328125</ele>
        <time>2011-04-17T12:19:34Z</time>
      </trkpt>
      <trkpt lat="34.946944070979953" lon="-2.099395422264934">
        <ele>262.0965576171875</ele>
        <time>2011-04-17T12:19:41Z</time>
      </trkpt>
      <trkpt lat="34.946839883923531" lon="-2.098897788673639">
        <ele>260.654541015625</ele>
        <time>2011-04-17T12:19:48Z</time>
      </trkpt>
      <trkpt lat="34.94672991335392" lon="-2.098468970507383">
        <ele>259.693359375</ele>
        <time>2011-04-17T12:19:52Z</time>
      </trkpt>
      <trkpt lat="34.946538470685482" lon="-2.097752569243312">
        <ele>260.654541015625</ele>
        <time>2011-04-17T12:20:00Z</time>
      </trkpt>
      <trkpt lat="34.946305705234408" lon="-2.096881773322821">
        <ele>261.615966796875</ele>
        <time>2011-04-17T12:20:07Z</time>
      </trkpt>
      <trkpt lat="34.94584646075964" lon="-2.095245374366641">
        <ele>262.0965576171875</ele>
        <time>2011-04-17T12:20:18Z</time>
      </trkpt>
      <trkpt lat="34.945360226556659" lon="-2.093554073944688">
        <ele>263.057861328125</ele>
        <time>2011-04-17T12:20:29Z</time>
      </trkpt>
      <trkpt lat="34.945166688412428" lon="-2.092882348224521">
        <ele>264.019287109375</ele>
        <time>2011-04-17T12:20:35Z</time>
      </trkpt>
      <trkpt lat="34.945024279877543" lon="-2.092438023537397">
        <ele>264.4998779296875</ele>
        <time>2011-04-17T12:20:42Z</time>
      </trkpt>
      <trkpt lat="34.944883966818452" lon="-2.092000404372811">
        <ele>264.9805908203125</ele>
        <time>2011-04-17T12:20:50Z</time>
      </trkpt>
      <trkpt lat="34.944683387875557" lon="-2.091374527662993">
        <ele>264.9805908203125</ele>
        <time>2011-04-17T12:20:56Z</time>
      </trkpt>
      <trkpt lat="34.944337299093604" lon="-2.090294687077403">
        <ele>264.9805908203125</ele>
        <time>2011-04-17T12:21:04Z</time>
      </trkpt>
      <trkpt lat="34.943521237000823" lon="-2.088534403592348">
        <ele>266.9031982421875</ele>
        <time>2011-04-17T12:21:17Z</time>
      </trkpt>
      <trkpt lat="34.942835932597518" lon="-2.08733000792563">
        <ele>266.9031982421875</ele>
        <time>2011-04-17T12:21:25Z</time>
      </trkpt>
      <trkpt lat="34.941668417304754" lon="-2.085383730009198">
        <ele>269.3065185546875</ele>
        <time>2011-04-17T12:21:37Z</time>
      </trkpt>
      <trkpt lat="34.940325049683452" lon="-2.083488162606955">
        <ele>272.1904296875</ele>
        <time>2011-04-17T12:21:49Z</time>
      </trkpt>
      <trkpt lat="34.938808176666498" lon="-2.0814273878932">
        <ele>276.516357421875</ele>
        <time>2011-04-17T12:22:01Z</time>
      </trkpt>
      <trkpt lat="34.937587855383754" lon="-2.079840106889606">
        <ele>279.4002685546875</ele>
        <time>2011-04-17T12:22:10Z</time>
      </trkpt>
      <trkpt lat="34.937051329761744" lon="-2.079221773892641">
        <ele>280.8424072265625</ele>
        <time>2011-04-17T12:22:15Z</time>
      </trkpt>
      <trkpt lat="34.93644867092371" lon="-2.078527584671974">
        <ele>281.322998046875</ele>
        <time>2011-04-17T12:22:23Z</time>
      </trkpt>
      <trkpt lat="34.935846598818898" lon="-2.077835574746132">
        <ele>278.919677734375</ele>
        <time>2011-04-17T12:22:34Z</time>
      </trkpt>
      <trkpt lat="34.935718774795532" lon="-2.077692663297057">
        <ele>277.4776611328125</ele>
        <time>2011-04-17T12:22:39Z</time>
      </trkpt>
      <trkpt lat="34.935564631596208" lon="-2.077520415186882">
        <ele>274.113037109375</ele>
        <time>2011-04-17T12:22:50Z</time>
      </trkpt>
      <trkpt lat="34.935495229437947" lon="-2.077442714944482">
        <ele>269.3065185546875</ele>
        <time>2011-04-17T12:23:01Z</time>
      </trkpt>
      <trkpt lat="34.935303702950478" lon="-2.077228557318449">
        <ele>268.3450927734375</ele>
        <time>2011-04-17T12:23:07Z</time>
      </trkpt>
      <trkpt lat="34.934929199516773" lon="-2.076809797435999">
        <ele>268.3450927734375</ele>
        <time>2011-04-17T12:23:13Z</time>
      </trkpt>
      <trkpt lat="34.934311285614967" lon="-2.076118877157569">
        <ele>268.8258056640625</ele>
        <time>2011-04-17T12:23:20Z</time>
      </trkpt>
      <trkpt lat="34.93332440033555" lon="-2.075019339099526">
        <ele>274.59375</ele>
        <time>2011-04-17T12:23:29Z</time>
      </trkpt>
      <trkpt lat="34.932163255289197" lon="-2.073742020875216">
        <ele>283.24560546875</ele>
        <time>2011-04-17T12:23:39Z</time>
      </trkpt>
      <trkpt lat="34.931705268099904" lon="-2.072579534724355">
        <ele>289.0135498046875</ele>
        <time>2011-04-17T12:23:46Z</time>
      </trkpt>
      <trkpt lat="34.931331351399422" lon="-2.071429705247283">
        <ele>293.820068359375</ele>
        <time>2011-04-17T12:23:52Z</time>
      </trkpt>
      <trkpt lat="34.931126497685909" lon="-2.070255735889077">
        <ele>297.6654052734375</ele>
        <time>2011-04-17T12:23:59Z</time>
      </trkpt>
      <trkpt lat="34.9310302734375" lon="-2.068830309435725">
        <ele>303.4332275390625</ele>
        <time>2011-04-17T12:24:07Z</time>
      </trkpt>
      <trkpt lat="34.9310302734375" lon="-2.06717312335968">
        <ele>313.0465087890625</ele>
        <time>2011-04-17T12:24:16Z</time>
      </trkpt>
      <trkpt lat="34.930655686184764" lon="-2.065789187327027">
        <ele>321.6983642578125</ele>
        <time>2011-04-17T12:24:24Z</time>
      </trkpt>
      <trkpt lat="34.930344969034195" lon="-2.064734492450953">
        <ele>329.8695068359375</ele>
        <time>2011-04-17T12:24:30Z</time>
      </trkpt>
      <trkpt lat="34.929624544456601" lon="-2.063942654058337">
        <ele>335.15673828125</ele>
        <time>2011-04-17T12:24:36Z</time>
      </trkpt>
      <trkpt lat="34.928681664168835" lon="-2.063188869506121">
        <ele>339.0020751953125</ele>
        <time>2011-04-17T12:24:43Z</time>
      </trkpt>
      <trkpt lat="34.928538836538792" lon="-2.063082419335842">
        <ele>339.96337890625</ele>
        <time>2011-04-17T12:24:44Z</time>
      </trkpt>
      <trkpt lat="34.927649097517133" lon="-2.062418907880783">
        <ele>348.615234375</ele>
        <time>2011-04-17T12:24:50Z</time>
      </trkpt>
      <trkpt lat="34.92668098770082" lon="-2.061464292928577">
        <ele>362.5543212890625</ele>
        <time>2011-04-17T12:24:57Z</time>
      </trkpt>
      <trkpt lat="34.926581243053079" lon="-2.061316352337599">
        <ele>363.996337890625</ele>
        <time>2011-04-17T12:24:58Z</time>
      </trkpt>
      <trkpt lat="34.925925359129906" lon="-2.060917457565665">
        <ele>370.7255859375</ele>
        <time>2011-04-17T12:25:03Z</time>
      </trkpt>
      <trkpt lat="34.924961356446147" lon="-2.060820562765002">
        <ele>378.4161376953125</ele>
        <time>2011-04-17T12:25:10Z</time>
      </trkpt>
      <trkpt lat="34.923819322139025" lon="-2.060659294947982">
        <ele>384.664794921875</ele>
        <time>2011-04-17T12:25:19Z</time>
      </trkpt>
      <trkpt lat="34.923516232520342" lon="-2.060616463422775">
        <ele>385.6259765625</ele>
        <time>2011-04-17T12:25:21Z</time>
      </trkpt>
      <trkpt lat="34.922795305028558" lon="-2.060107765719295">
        <ele>389.47119140625</ele>
        <time>2011-04-17T12:25:27Z</time>
      </trkpt>
      <trkpt lat="34.922192059457302" lon="-2.059597810730338">
        <ele>400.0458984375</ele>
        <time>2011-04-17T12:25:32Z</time>
      </trkpt>
      <trkpt lat="34.921448584645987" lon="-2.058343375101686">
        <ele>415.4268798828125</ele>
        <time>2011-04-17T12:25:40Z</time>
      </trkpt>
      <trkpt lat="34.921390749514103" lon="-2.057461095973849">
        <ele>424.5594482421875</ele>
        <time>2011-04-17T12:25:45Z</time>
      </trkpt>
      <trkpt lat="34.921503067016602" lon="-2.05568790435791">
        <ele>440.90185546875</ele>
        <time>2011-04-17T12:25:54Z</time>
      </trkpt>
      <trkpt lat="34.921449674293399" lon="-2.05552764236927">
        <ele>442.824462890625</ele>
        <time>2011-04-17T12:25:55Z</time>
      </trkpt>
      <trkpt lat="34.921045331284404" lon="-2.054598424583674">
        <ele>454.8408203125</ele>
        <time>2011-04-17T12:26:01Z</time>
      </trkpt>
      <trkpt lat="34.920595809817314" lon="-2.053897026926279">
        <ele>463.973388671875</ele>
        <time>2011-04-17T12:26:06Z</time>
      </trkpt>
      <trkpt lat="34.919574558734894" lon="-2.052749376744032">
        <ele>476.4705810546875</ele>
        <time>2011-04-17T12:26:15Z</time>
      </trkpt>
      <trkpt lat="34.918803842738271" lon="-2.052028449252248">
        <ele>481.7578125</ele>
        <time>2011-04-17T12:26:21Z</time>
      </trkpt>
      <trkpt lat="34.917909577488899" lon="-2.050485424697399">
        <ele>489.9290771484375</ele>
        <time>2011-04-17T12:26:30Z</time>
      </trkpt>
      <trkpt lat="34.917851239442825" lon="-2.049599541351199">
        <ele>493.7742919921875</ele>
        <time>2011-04-17T12:26:35Z</time>
      </trkpt>
      <trkpt lat="34.917870769277215" lon="-2.049378510564566">
        <ele>494.735595703125</ele>
        <time>2011-04-17T12:26:36Z</time>
      </trkpt>
      <trkpt lat="34.918025750666857" lon="-2.047259146347642">
        <ele>503.8681640625</ele>
        <time>2011-04-17T12:26:45Z</time>
      </trkpt>
      <trkpt lat="34.917974201962352" lon="-2.045197114348412">
        <ele>513.000732421875</ele>
        <time>2011-04-17T12:26:54Z</time>
      </trkpt>
      <trkpt lat="34.917445974424481" lon="-2.043476728722453">
        <ele>520.6912841796875</ele>
        <time>2011-04-17T12:27:02Z</time>
      </trkpt>
      <trkpt lat="34.916874915361404" lon="-2.042065216228366">
        <ele>526.9398193359375</ele>
        <time>2011-04-17T12:27:09Z</time>
      </trkpt>
      <trkpt lat="34.916148371994495" lon="-2.040897617116571">
        <ele>531.2657470703125</ele>
        <time>2011-04-17T12:27:16Z</time>
      </trkpt>
      <trkpt lat="34.915821142494678" lon="-2.040135785937309">
        <ele>534.149658203125</ele>
        <time>2011-04-17T12:27:20Z</time>
      </trkpt>
      <trkpt lat="34.915422415360808" lon="-2.038937592878938">
        <ele>539.9176025390625</ele>
        <time>2011-04-17T12:27:26Z</time>
      </trkpt>
      <trkpt lat="34.915407244116068" lon="-2.038512630388141">
        <ele>541.3594970703125</ele>
        <time>2011-04-17T12:27:28Z</time>
      </trkpt>
      <trkpt lat="34.91533013060689" lon="-2.035733694210649">
        <ele>546.166259765625</ele>
        <time>2011-04-17T12:27:41Z</time>
      </trkpt>
      <trkpt lat="34.915292412042618" lon="-2.033191714435816">
        <ele>540.3983154296875</ele>
        <time>2011-04-17T12:27:52Z</time>
      </trkpt>
      <trkpt lat="34.915260979905725" lon="-2.031367225572467">
        <ele>535.1109619140625</ele>
        <time>2011-04-17T12:28:00Z</time>
      </trkpt>
      <trkpt lat="34.914831323549151" lon="-2.030295263975859">
        <ele>530.304443359375</ele>
        <time>2011-04-17T12:28:05Z</time>
      </trkpt>
      <trkpt lat="34.914088603109121" lon="-2.029428156092763">
        <ele>525.0172119140625</ele>
        <time>2011-04-17T12:28:10Z</time>
      </trkpt>
      <trkpt lat="34.91299350745976" lon="-2.02855090610683">
        <ele>521.1719970703125</ele>
        <time>2011-04-17T12:28:16Z</time>
      </trkpt>
      <trkpt lat="34.911252083256841" lon="-2.027580784633756">
        <ele>515.8846435546875</ele>
        <time>2011-04-17T12:28:25Z</time>
      </trkpt>
      <trkpt lat="34.91105804219842" lon="-2.027492858469486">
        <ele>515.404052734375</ele>
        <time>2011-04-17T12:28:26Z</time>
      </trkpt>
      <trkpt lat="34.909819699823856" lon="-2.027396969497204">
        <ele>508.6746826171875</ele>
        <time>2011-04-17T12:28:32Z</time>
      </trkpt>
      <trkpt lat="34.908993663266301" lon="-2.027155151590705">
        <ele>505.3101806640625</ele>
        <time>2011-04-17T12:28:36Z</time>
      </trkpt>
      <trkpt lat="34.908037120476365" lon="-2.02668584883213">
        <ele>501.945556640625</ele>
        <time>2011-04-17T12:28:41Z</time>
      </trkpt>
      <trkpt lat="34.906283123418689" lon="-2.025589663535357">
        <ele>496.6583251953125</ele>
        <time>2011-04-17T12:28:49Z</time>
      </trkpt>
      <trkpt lat="34.903886150568724" lon="-2.023945804685354">
        <ele>489.4483642578125</ele>
        <time>2011-04-17T12:29:00Z</time>
      </trkpt>
      <trkpt lat="34.901776928454638" lon="-2.022502860054374">
        <ele>484.1611328125</ele>
        <time>2011-04-17T12:29:10Z</time>
      </trkpt>
      <trkpt lat="34.899227907881141" lon="-2.020803513005376">
        <ele>478.8739013671875</ele>
        <time>2011-04-17T12:29:22Z</time>
      </trkpt>
      <trkpt lat="34.896531868726015" lon="-2.019006265327334">
        <ele>472.1446533203125</ele>
        <time>2011-04-17T12:29:34Z</time>
      </trkpt>
      <trkpt lat="34.894146881997585" lon="-2.017394676804543">
        <ele>465.8961181640625</ele>
        <time>2011-04-17T12:29:45Z</time>
      </trkpt>
      <trkpt lat="34.891960294917226" lon="-2.015885766595602">
        <ele>459.1668701171875</ele>
        <time>2011-04-17T12:29:55Z</time>
      </trkpt>
      <trkpt lat="34.888875251635909" lon="-2.013756930828095">
        <ele>455.80224609375</ele>
        <time>2011-04-17T12:30:09Z</time>
      </trkpt>
      <trkpt lat="34.886149875819683" lon="-2.011895058676601">
        <ele>454.8408203125</ele>
        <time>2011-04-17T12:30:21Z</time>
      </trkpt>
      <trkpt lat="34.883352164179087" lon="-2.009997647255659">
        <ele>456.282958984375</ele>
        <time>2011-04-17T12:30:33Z</time>
      </trkpt>
      <trkpt lat="34.881033813580871" lon="-2.008425369858742">
        <ele>452.4376220703125</ele>
        <time>2011-04-17T12:30:44Z</time>
      </trkpt>
      <trkpt lat="34.879369335249066" lon="-2.007296495139599">
        <ele>442.3438720703125</ele>
        <time>2011-04-17T12:30:54Z</time>
      </trkpt>
      <trkpt lat="34.878056729212403" lon="-2.00640625320375">
        <ele>434.172607421875</ele>
        <time>2011-04-17T12:31:03Z</time>
      </trkpt>
      <trkpt lat="34.876370122656226" lon="-2.005262542515993">
        <ele>428.8853759765625</ele>
        <time>2011-04-17T12:31:14Z</time>
      </trkpt>
      <trkpt lat="34.874621070921421" lon="-2.004076335579157">
        <ele>426.0013427734375</ele>
        <time>2011-04-17T12:31:24Z</time>
      </trkpt>
      <trkpt lat="34.872473124414682" lon="-2.002637917175889">
        <ele>424.0787353515625</ele>
        <time>2011-04-17T12:31:36Z</time>
      </trkpt>
      <trkpt lat="34.869849001988769" lon="-2.000907389447093">
        <ele>423.5980224609375</ele>
        <time>2011-04-17T12:31:50Z</time>
      </trkpt>
      <trkpt lat="34.868266666308045" lon="-1.99986107647419">
        <ele>423.5980224609375</ele>
        <time>2011-04-17T12:31:59Z</time>
      </trkpt>
      <trkpt lat="34.867160758003592" lon="-1.999117014929652">
        <ele>422.63671875</ele>
        <time>2011-04-17T12:32:07Z</time>
      </trkpt>
      <trkpt lat="34.865644555538893" lon="-1.998096518218517">
        <ele>425.520751953125</ele>
        <time>2011-04-17T12:32:18Z</time>
      </trkpt>
      <trkpt lat="34.863960295915604" lon="-1.996961859986186">
        <ele>425.520751953125</ele>
        <time>2011-04-17T12:32:30Z</time>
      </trkpt>
      <trkpt lat="34.862269414588809" lon="-1.995822507888079">
        <ele>426.4820556640625</ele>
        <time>2011-04-17T12:32:42Z</time>
      </trkpt>
      <trkpt lat="34.861230980604887" lon="-1.995122954249382">
        <ele>424.5594482421875</ele>
        <time>2011-04-17T12:32:51Z</time>
      </trkpt>
      <trkpt lat="34.860342917963862" lon="-1.994524486362934">
        <ele>423.117431640625</ele>
        <time>2011-04-17T12:33:00Z</time>
      </trkpt>
      <trkpt lat="34.859538590535522" lon="-1.993982596322894">
        <ele>425.0401611328125</ele>
        <time>2011-04-17T12:33:11Z</time>
      </trkpt>
      <trkpt lat="34.858770472928882" lon="-1.993465097621083">
        <ele>423.5980224609375</ele>
        <time>2011-04-17T12:33:21Z</time>
      </trkpt>
      <trkpt lat="34.857942592352629" lon="-1.992907365784049">
        <ele>424.0787353515625</ele>
        <time>2011-04-17T12:33:30Z</time>
      </trkpt>
      <trkpt lat="34.85697372816503" lon="-1.992253996431828">
        <ele>425.520751953125</ele>
        <time>2011-04-17T12:33:38Z</time>
      </trkpt>
      <trkpt lat="34.855331545695662" lon="-1.991136353462935">
        <ele>427.9239501953125</ele>
        <time>2011-04-17T12:33:50Z</time>
      </trkpt>
      <trkpt lat="34.853531280532479" lon="-1.989911086857319">
        <ele>431.28857421875</ele>
        <time>2011-04-17T12:34:03Z</time>
      </trkpt>
      <trkpt lat="34.851990016177297" lon="-1.988862007856369">
        <ele>433.2113037109375</ele>
        <time>2011-04-17T12:34:13Z</time>
      </trkpt>
      <trkpt lat="34.849869478493929" lon="-1.987418727949262">
        <ele>434.6533203125</ele>
        <time>2011-04-17T12:34:25Z</time>
      </trkpt>
      <trkpt lat="34.847549870610237" lon="-1.985869333148003">
        <ele>436.09521484375</ele>
        <time>2011-04-17T12:34:37Z</time>
      </trkpt>
      <trkpt lat="34.845087099820375" lon="-1.984249195083976">
        <ele>436.09521484375</ele>
        <time>2011-04-17T12:34:49Z</time>
      </trkpt>
      <trkpt lat="34.842613097280264" lon="-1.982621513307095">
        <ele>438.49853515625</ele>
        <time>2011-04-17T12:35:00Z</time>
      </trkpt>
      <trkpt lat="34.839596031233668" lon="-1.980615388602018">
        <ele>439.9404296875</ele>
        <time>2011-04-17T12:35:13Z</time>
      </trkpt>
      <trkpt lat="34.835023870691657" lon="-1.977556832134724">
        <ele>437.537109375</ele>
        <time>2011-04-17T12:35:33Z</time>
      </trkpt>
      <trkpt lat="34.831279423087835" lon="-1.975068161264062">
        <ele>436.575927734375</ele>
        <time>2011-04-17T12:35:49Z</time>
      </trkpt>
      <trkpt lat="34.828266212716699" lon="-1.973107298836112">
        <ele>436.575927734375</ele>
        <time>2011-04-17T12:36:02Z</time>
      </trkpt>
      <trkpt lat="34.826671807095408" lon="-1.972066853195429">
        <ele>436.09521484375</ele>
        <time>2011-04-17T12:36:10Z</time>
      </trkpt>
      <trkpt lat="34.825176978483796" lon="-1.971051301807165">
        <ele>437.0565185546875</ele>
        <time>2011-04-17T12:36:19Z</time>
      </trkpt>
      <trkpt lat="34.823049064725637" lon="-1.969605591148138">
        <ele>438.9791259765625</ele>
        <time>2011-04-17T12:36:31Z</time>
      </trkpt>
      <trkpt lat="34.820991223677993" lon="-1.968210423365235">
        <ele>440.4212646484375</ele>
        <time>2011-04-17T12:36:42Z</time>
      </trkpt>
      <trkpt lat="34.818938160315156" lon="-1.966854315251112">
        <ele>441.8631591796875</ele>
        <time>2011-04-17T12:36:52Z</time>
      </trkpt>
      <trkpt lat="34.817179050296545" lon="-1.965692332014442">
        <ele>442.824462890625</ele>
        <time>2011-04-17T12:37:01Z</time>
      </trkpt>
      <trkpt lat="34.815173093229532" lon="-1.96433681063354">
        <ele>443.7857666015625</ele>
        <time>2011-04-17T12:37:12Z</time>
      </trkpt>
      <trkpt lat="34.812893718481064" lon="-1.962777860462666">
        <ele>444.2664794921875</ele>
        <time>2011-04-17T12:37:23Z</time>
      </trkpt>
      <trkpt lat="34.810218466445804" lon="-1.960997544229031">
        <ele>445.2276611328125</ele>
        <time>2011-04-17T12:37:36Z</time>
      </trkpt>
      <trkpt lat="34.807647317647934" lon="-1.959372293204069">
        <ele>445.2276611328125</ele>
        <time>2011-04-17T12:37:49Z</time>
      </trkpt>
      <trkpt lat="34.805866498500109" lon="-1.958318017423153">
        <ele>444.7470703125</ele>
        <time>2011-04-17T12:37:58Z</time>
      </trkpt>
      <trkpt lat="34.803651496767998" lon="-1.957190986722708">
        <ele>444.7470703125</ele>
        <time>2011-04-17T12:38:10Z</time>
      </trkpt>
      <trkpt lat="34.801640342921019" lon="-1.956230001524091">
        <ele>444.2664794921875</ele>
        <time>2011-04-17T12:38:20Z</time>
      </trkpt>
      <trkpt lat="34.798697624355555" lon="-1.954888477921486">
        <ele>445.7083740234375</ele>
        <time>2011-04-17T12:38:34Z</time>
      </trkpt>
      <trkpt lat="34.79570503346622" lon="-1.953630773350596">
        <ele>451.95703125</ele>
        <time>2011-04-17T12:38:48Z</time>
      </trkpt>
      <trkpt lat="34.793115025386214" lon="-1.952473567798734">
        <ele>456.282958984375</ele>
        <time>2011-04-17T12:39:00Z</time>
      </trkpt>
      <trkpt lat="34.792303824797273" lon="-1.952111134305596">
        <ele>457.2442626953125</ele>
        <time>2011-04-17T12:39:05Z</time>
      </trkpt>
      <trkpt lat="34.790979903191328" lon="-1.951521215960383">
        <ele>460.128173828125</ele>
        <time>2011-04-17T12:39:15Z</time>
      </trkpt>
      <trkpt lat="34.789980193600059" lon="-1.951088039204478">
        <ele>461.0894775390625</ele>
        <time>2011-04-17T12:39:23Z</time>
      </trkpt>
      <trkpt lat="34.789675259962678" lon="-1.950955940410495">
        <ele>460.6087646484375</ele>
        <time>2011-04-17T12:39:26Z</time>
      </trkpt>
      <trkpt lat="34.789308048784733" lon="-1.950796768069267">
        <ele>460.128173828125</ele>
        <time>2011-04-17T12:39:30Z</time>
      </trkpt>
      <trkpt lat="34.78852023370564" lon="-1.950455373153091">
        <ele>459.1668701171875</ele>
        <time>2011-04-17T12:39:37Z</time>
      </trkpt>
      <trkpt lat="34.787422707304358" lon="-1.949979783967137">
        <ele>458.20556640625</ele>
        <time>2011-04-17T12:39:44Z</time>
      </trkpt>
      <trkpt lat="34.785737693309784" lon="-1.949249636381865">
        <ele>457.2442626953125</ele>
        <time>2011-04-17T12:39:54Z</time>
      </trkpt>
      <trkpt lat="34.783845730125904" lon="-1.948429802432656">
        <ele>457.2442626953125</ele>
        <time>2011-04-17T12:40:04Z</time>
      </trkpt>
      <trkpt lat="34.781953599303961" lon="-1.947605442255735">
        <ele>457.7249755859375</ele>
        <time>2011-04-17T12:40:14Z</time>
      </trkpt>
      <trkpt lat="34.779767515137792" lon="-1.946645965799689">
        <ele>458.6861572265625</ele>
        <time>2011-04-17T12:40:24Z</time>
      </trkpt>
      <trkpt lat="34.777334500104189" lon="-1.945578027516604">
        <ele>460.128173828125</ele>
        <time>2011-04-17T12:40:35Z</time>
      </trkpt>
      <trkpt lat="34.775320328772068" lon="-1.944694072008133">
        <ele>462.5313720703125</ele>
        <time>2011-04-17T12:40:45Z</time>
      </trkpt>
      <trkpt lat="34.773224601522088" lon="-1.943774158135057">
        <ele>462.5313720703125</ele>
        <time>2011-04-17T12:40:55Z</time>
      </trkpt>
      <trkpt lat="34.771155528724194" lon="-1.942778890952468">
        <ele>463.973388671875</ele>
        <time>2011-04-17T12:41:05Z</time>
      </trkpt>
      <trkpt lat="34.768673814833164" lon="-1.941665187478066">
        <ele>464.934814453125</ele>
        <time>2011-04-17T12:41:17Z</time>
      </trkpt>
      <trkpt lat="34.766066204756498" lon="-1.940494989976287">
        <ele>464.934814453125</ele>
        <time>2011-04-17T12:41:30Z</time>
      </trkpt>
      <trkpt lat="34.76381616666913" lon="-1.939485222101212">
        <ele>464.934814453125</ele>
        <time>2011-04-17T12:41:41Z</time>
      </trkpt>
      <trkpt lat="34.762195525690913" lon="-1.938757924363017">
        <ele>464.934814453125</ele>
        <time>2011-04-17T12:41:49Z</time>
      </trkpt>
      <trkpt lat="34.760405067354441" lon="-1.937954518944025">
        <ele>464.934814453125</ele>
        <time>2011-04-17T12:41:59Z</time>
      </trkpt>
      <trkpt lat="34.75931785069406" lon="-1.937466943636537">
        <ele>466.376708984375</ele>
        <time>2011-04-17T12:42:06Z</time>
      </trkpt>
      <trkpt lat="34.758849889039993" lon="-1.93725697696209">
        <ele>467.338134765625</ele>
        <time>2011-04-17T12:42:11Z</time>
      </trkpt>
      <trkpt lat="34.758514109998941" lon="-1.937106437981129">
        <ele>468.29931640625</ele>
        <time>2011-04-17T12:42:16Z</time>
      </trkpt>
      <trkpt lat="34.75787540897727" lon="-1.936821704730392">
        <ele>469.2607421875</ele>
        <time>2011-04-17T12:42:25Z</time>
      </trkpt>
      <trkpt lat="34.757088096812367" lon="-1.936473604291678">
        <ele>469.2607421875</ele>
        <time>2011-04-17T12:42:32Z</time>
      </trkpt>
      <trkpt lat="34.756026361137629" lon="-1.936004301533103">
        <ele>468.780029296875</ele>
        <time>2011-04-17T12:42:39Z</time>
      </trkpt>
      <trkpt lat="34.75437973625958" lon="-1.935276417061687">
        <ele>469.7413330078125</ele>
        <time>2011-04-17T12:42:49Z</time>
      </trkpt>
      <trkpt lat="34.752276381477714" lon="-1.934346612542868">
        <ele>473.586669921875</ele>
        <time>2011-04-17T12:43:02Z</time>
      </trkpt>
      <trkpt lat="34.750289367511868" lon="-1.93346818909049">
        <ele>477.9124755859375</ele>
        <time>2011-04-17T12:43:13Z</time>
      </trkpt>
      <trkpt lat="34.747404400259256" lon="-1.93221534602344">
        <ele>483.680419921875</ele>
        <time>2011-04-17T12:43:28Z</time>
      </trkpt>
      <trkpt lat="34.745034668594599" lon="-1.931239608675242">
        <ele>490.890380859375</ele>
        <time>2011-04-17T12:43:40Z</time>
      </trkpt>
      <trkpt lat="34.743087803944945" lon="-1.930752452462912">
        <ele>490.4097900390625</ele>
        <time>2011-04-17T12:43:50Z</time>
      </trkpt>
      <trkpt lat="34.740122286602855" lon="-1.930075781419873">
        <ele>493.2935791015625</ele>
        <time>2011-04-17T12:44:06Z</time>
      </trkpt>
      <trkpt lat="34.738746732473373" lon="-1.929782247170806">
        <ele>495.2161865234375</ele>
        <time>2011-04-17T12:44:15Z</time>
      </trkpt>
      <trkpt lat="34.737696060910821" lon="-1.929557947441936">
        <ele>496.6583251953125</ele>
        <time>2011-04-17T12:44:23Z</time>
      </trkpt>
      <trkpt lat="34.737430019304156" lon="-1.929604969918728">
        <ele>497.61962890625</ele>
        <time>2011-04-17T12:44:27Z</time>
      </trkpt>
      <trkpt lat="34.737113686278462" lon="-1.929381424561143">
        <ele>498.5809326171875</ele>
        <time>2011-04-17T12:44:31Z</time>
      </trkpt>
      <trkpt lat="34.736394351348281" lon="-1.929131727665663">
        <ele>500.5035400390625</ele>
        <time>2011-04-17T12:44:38Z</time>
      </trkpt>
      <trkpt lat="34.735127929598093" lon="-1.928692096844316">
        <ele>501.46484375</ele>
        <time>2011-04-17T12:44:48Z</time>
      </trkpt>
      <trkpt lat="34.733884641900659" lon="-1.927987262606621">
        <ele>503.387451171875</ele>
        <time>2011-04-17T12:44:57Z</time>
      </trkpt>
      <trkpt lat="34.732906138524413" lon="-1.927385944873095">
        <ele>507.2327880859375</ele>
        <time>2011-04-17T12:45:04Z</time>
      </trkpt>
      <trkpt lat="34.731828393414617" lon="-1.926723774522543">
        <ele>513.9620361328125</ele>
        <time>2011-04-17T12:45:12Z</time>
      </trkpt>
      <trkpt lat="34.730129968374968" lon="-1.925716437399387">
        <ele>523.5751953125</ele>
        <time>2011-04-17T12:45:24Z</time>
      </trkpt>
      <trkpt lat="34.72842525690794" lon="-1.924719912931323">
        <ele>527.9010009765625</ele>
        <time>2011-04-17T12:45:35Z</time>
      </trkpt>
      <trkpt lat="34.726730436086655" lon="-1.9236159324646">
        <ele>537.03369140625</ele>
        <time>2011-04-17T12:45:46Z</time>
      </trkpt>
      <trkpt lat="34.725350858643651" lon="-1.922589568421245">
        <ele>540.87890625</ele>
        <time>2011-04-17T12:45:56Z</time>
      </trkpt>
      <trkpt lat="34.724194156005979" lon="-1.922230990603566">
        <ele>537.9949951171875</ele>
        <time>2011-04-17T12:46:03Z</time>
      </trkpt>
      <trkpt lat="34.722341587767005" lon="-1.921873083338141">
        <ele>532.707763671875</ele>
        <time>2011-04-17T12:46:14Z</time>
      </trkpt>
      <trkpt lat="34.721665838733315" lon="-1.921792952343822">
        <ele>530.78515625</ele>
        <time>2011-04-17T12:46:19Z</time>
      </trkpt>
      <trkpt lat="34.721131240949035" lon="-1.921729752793908">
        <ele>528.862548828125</ele>
        <time>2011-04-17T12:46:25Z</time>
      </trkpt>
      <trkpt lat="34.720446774736047" lon="-1.921648699790239">
        <ele>525.497802734375</ele>
        <time>2011-04-17T12:46:36Z</time>
      </trkpt>
      <trkpt lat="34.720031283795834" lon="-1.921599581837654">
        <ele>524.0557861328125</ele>
        <time>2011-04-17T12:46:43Z</time>
      </trkpt>
      <trkpt lat="34.719188818708062" lon="-1.92150897346437">
        <ele>524.0557861328125</ele>
        <time>2011-04-17T12:46:50Z</time>
      </trkpt>
      <trkpt lat="34.717732965946198" lon="-1.92135700955987">
        <ele>524.0557861328125</ele>
        <time>2011-04-17T12:47:00Z</time>
      </trkpt>
      <trkpt lat="34.716735268011689" lon="-1.921252822503448">
        <ele>523.5751953125</ele>
        <time>2011-04-17T12:47:08Z</time>
      </trkpt>
      <trkpt lat="34.715058468282223" lon="-1.921077724546194">
        <ele>524.0557861328125</ele>
        <time>2011-04-17T12:47:20Z</time>
      </trkpt>
      <trkpt lat="34.713196847587824" lon="-1.920867506414652">
        <ele>524.0557861328125</ele>
        <time>2011-04-17T12:47:33Z</time>
      </trkpt>
      <trkpt lat="34.711431786417961" lon="-1.920661898329854">
        <ele>525.497802734375</ele>
        <time>2011-04-17T12:47:45Z</time>
      </trkpt>
      <trkpt lat="34.71104035153985" lon="-1.920616300776601">
        <ele>526.9398193359375</ele>
        <time>2011-04-17T12:47:50Z</time>
      </trkpt>
      <trkpt lat="34.710897859185934" lon="-1.92059962078929">
        <ele>527.42041015625</ele>
        <time>2011-04-17T12:47:57Z</time>
      </trkpt>
      <trkpt lat="34.710748493671417" lon="-1.920582354068756">
        <ele>528.862548828125</ele>
        <time>2011-04-17T12:48:13Z</time>
      </trkpt>
      <trkpt lat="34.71018279902637" lon="-1.920516388490796">
        <ele>532.707763671875</ele>
        <time>2011-04-17T12:48:21Z</time>
      </trkpt>
      <trkpt lat="34.709251904860139" lon="-1.920384457334876">
        <ele>537.9949951171875</ele>
        <time>2011-04-17T12:48:31Z</time>
      </trkpt>
      <trkpt lat="34.707991853356361" lon="-1.9202018994838">
        <ele>542.801513671875</ele>
        <time>2011-04-17T12:48:44Z</time>
      </trkpt>
      <trkpt lat="34.706807490438223" lon="-1.920030321925879">
        <ele>544.24365234375</ele>
        <time>2011-04-17T12:48:55Z</time>
      </trkpt>
      <trkpt lat="34.705443503335118" lon="-1.919836867600679">
        <ele>545.204833984375</ele>
        <time>2011-04-17T12:49:07Z</time>
      </trkpt>
      <trkpt lat="34.704207424074411" lon="-1.919771321117878">
        <ele>545.204833984375</ele>
        <time>2011-04-17T12:49:19Z</time>
      </trkpt>
      <trkpt lat="34.703734265640378" lon="-1.919746175408363">
        <ele>545.204833984375</ele>
        <time>2011-04-17T12:49:26Z</time>
      </trkpt>
      <trkpt lat="34.703511642292142" lon="-1.919734440743923">
        <ele>544.7242431640625</ele>
        <time>2011-04-17T12:49:34Z</time>
      </trkpt>
      <trkpt lat="34.703095564618707" lon="-1.91971231251955">
        <ele>545.204833984375</ele>
        <time>2011-04-17T12:49:41Z</time>
      </trkpt>
      <trkpt lat="34.702189145609736" lon="-1.919664284214377">
        <ele>546.166259765625</ele>
        <time>2011-04-17T12:49:52Z</time>
      </trkpt>
      <trkpt lat="34.701267722994089" lon="-1.919615333899856">
        <ele>547.12744140625</ele>
        <time>2011-04-17T12:50:01Z</time>
      </trkpt>
      <trkpt lat="34.699992081150413" lon="-1.919538723304868">
        <ele>548.5693359375</ele>
        <time>2011-04-17T12:50:13Z</time>
      </trkpt>
      <trkpt lat="34.698773520067334" lon="-1.919428333640099">
        <ele>549.050048828125</ele>
        <time>2011-04-17T12:50:24Z</time>
      </trkpt>
      <trkpt lat="34.697405342012644" lon="-1.919304449111223">
        <ele>550.4921875</ele>
        <time>2011-04-17T12:50:35Z</time>
      </trkpt>
      <trkpt lat="34.696568492799997" lon="-1.919228592887521">
        <ele>552.41455078125</ele>
        <time>2011-04-17T12:50:44Z</time>
      </trkpt>
      <trkpt lat="34.695499045774341" lon="-1.91913178190589">
        <ele>550.011474609375</ele>
        <time>2011-04-17T12:50:55Z</time>
      </trkpt>
      <trkpt lat="34.694209238514304" lon="-1.918952912092209">
        <ele>550.97265625</ele>
        <time>2011-04-17T12:51:07Z</time>
      </trkpt>
      <trkpt lat="34.693160830065608" lon="-1.918664155527949">
        <ele>553.3759765625</ele>
        <time>2011-04-17T12:51:17Z</time>
      </trkpt>
      <trkpt lat="34.693002747371793" lon="-1.918620653450489">
        <ele>553.856689453125</ele>
        <time>2011-04-17T12:51:22Z</time>
      </trkpt>
      <trkpt lat="34.692827481776476" lon="-1.918572373688221">
        <ele>554.81787109375</ele>
        <time>2011-04-17T12:51:41Z</time>
      </trkpt>
      <trkpt lat="34.692245442420244" lon="-1.918412111699581">
        <ele>554.81787109375</ele>
        <time>2011-04-17T12:51:51Z</time>
      </trkpt>
      <trkpt lat="34.691444048658013" lon="-1.918184878304601">
        <ele>557.7021484375</ele>
        <time>2011-04-17T12:52:00Z</time>
      </trkpt>
      <trkpt lat="34.690654641017318" lon="-1.917930655181408">
        <ele>558.663330078125</ele>
        <time>2011-04-17T12:52:09Z</time>
      </trkpt>
      <trkpt lat="34.690566463395953" lon="-1.917902324348688">
        <ele>558.663330078125</ele>
        <time>2011-04-17T12:52:14Z</time>
      </trkpt>
      <trkpt lat="34.690425395965576" lon="-1.917856810614467">
        <ele>559.14404296875</ele>
        <time>2011-04-17T12:52:24Z</time>
      </trkpt>
      <trkpt lat="34.689789125695825" lon="-1.917651956900954">
        <ele>561.066650390625</ele>
        <time>2011-04-17T12:52:37Z</time>
      </trkpt>
      <trkpt lat="34.689115723595023" lon="-1.917435117065907">
        <ele>562.9892578125</ele>
        <time>2011-04-17T12:52:47Z</time>
      </trkpt>
      <trkpt lat="34.688164880499244" lon="-1.917162705212832">
        <ele>562.9892578125</ele>
        <time>2011-04-17T12:53:00Z</time>
      </trkpt>
      <trkpt lat="34.687474211677909" lon="-1.916966568678618">
        <ele>563.469970703125</ele>
        <time>2011-04-17T12:53:08Z</time>
      </trkpt>
      <trkpt lat="34.686680780723691" lon="-1.916725002229214">
        <ele>562.508544921875</ele>
        <time>2011-04-17T12:53:18Z</time>
      </trkpt>
      <trkpt lat="34.686335446313024" lon="-1.91667060367763">
        <ele>561.066650390625</ele>
        <time>2011-04-17T12:53:26Z</time>
      </trkpt>
      <trkpt lat="34.685888774693012" lon="-1.916834469884634">
        <ele>559.14404296875</ele>
        <time>2011-04-17T12:53:35Z</time>
      </trkpt>
      <trkpt lat="34.685040861368179" lon="-1.917244847863913">
        <ele>559.14404296875</ele>
        <time>2011-04-17T12:53:45Z</time>
      </trkpt>
      <trkpt lat="34.683833532035351" lon="-1.917840465903282">
        <ele>560.105224609375</ele>
        <time>2011-04-17T12:53:58Z</time>
      </trkpt>
      <trkpt lat="34.682986373081803" lon="-1.918421415612102">
        <ele>562.028076171875</ele>
        <time>2011-04-17T12:54:07Z</time>
      </trkpt>
      <trkpt lat="34.682320347055793" lon="-1.91889432258904">
        <ele>562.9892578125</ele>
        <time>2011-04-17T12:54:16Z</time>
      </trkpt>
      <trkpt lat="34.681915082037449" lon="-1.919181905686855">
        <ele>563.950439453125</ele>
        <time>2011-04-17T12:54:23Z</time>
      </trkpt>
      <trkpt lat="34.681741995736957" lon="-1.919304868206382">
        <ele>562.9892578125</ele>
        <time>2011-04-17T12:54:39Z</time>
      </trkpt>
      <trkpt lat="34.681412503123283" lon="-1.919538723304868">
        <ele>564.911865234375</ele>
        <time>2011-04-17T12:54:46Z</time>
      </trkpt>
      <trkpt lat="34.681334132328629" lon="-1.919594379141927">
        <ele>575.005859375</ele>
        <time>2011-04-17T12:55:48Z</time>
      </trkpt>
      <trkpt lat="34.680944625288248" lon="-1.919870898127556">
        <ele>577.4091796875</ele>
        <time>2011-04-17T12:55:55Z</time>
      </trkpt>
      <trkpt lat="34.680546568706632" lon="-1.919685658067465">
        <ele>575.005859375</ele>
        <time>2011-04-17T12:55:59Z</time>
      </trkpt>
      <trkpt lat="34.679428171366453" lon="-1.919582057744265">
        <ele>577.4091796875</ele>
        <time>2011-04-17T12:56:12Z</time>
      </trkpt>
      <trkpt lat="34.679021397605538" lon="-1.919520366936922">
        <ele>580.773681640625</ele>
        <time>2011-04-17T12:56:18Z</time>
      </trkpt>
      <trkpt lat="34.678825261071324" lon="-1.919477535411716">
        <ele>586.060791015625</ele>
        <time>2011-04-17T12:56:22Z</time>
      </trkpt>
      <trkpt lat="34.678628873080015" lon="-1.919444594532251">
        <ele>587.9833984375</ele>
        <time>2011-04-17T12:56:27Z</time>
      </trkpt>
      <trkpt lat="34.678493337705731" lon="-1.91924124956131">
        <ele>583.1767578125</ele>
        <time>2011-04-17T12:56:32Z</time>
      </trkpt>
      <trkpt lat="34.678089497610927" lon="-1.91876289434731">
        <ele>581.25439453125</ele>
        <time>2011-04-17T12:56:41Z</time>
      </trkpt>
      <trkpt lat="34.677964858710766" lon="-1.918814359232783">
        <ele>580.29296875</ele>
        <time>2011-04-17T12:56:47Z</time>
      </trkpt>
      <trkpt lat="34.677655398845673" lon="-1.918263919651508">
        <ele>579.33154296875</ele>
        <time>2011-04-17T12:57:00Z</time>
      </trkpt>
      <trkpt lat="34.677316853776574" lon="-1.917814565822482">
        <ele>576.928466796875</ele>
        <time>2011-04-17T12:57:09Z</time>
      </trkpt>
      <trkpt lat="34.677017368376255" lon="-1.917408462613821">
        <ele>573.083251953125</ele>
        <time>2011-04-17T12:57:17Z</time>
      </trkpt>
      <trkpt lat="34.676824416965246" lon="-1.917381389066577">
        <ele>571.640869140625</ele>
        <time>2011-04-17T12:57:22Z</time>
      </trkpt>
      <trkpt lat="34.676421834155917" lon="-1.917634857818484">
        <ele>570.198974609375</ele>
        <time>2011-04-17T12:57:28Z</time>
      </trkpt>
      <trkpt lat="34.676075074821711" lon="-1.91768154501915">
        <ele>569.718505859375</ele>
        <time>2011-04-17T12:57:32Z</time>
      </trkpt>
      <trkpt lat="34.675015518441796" lon="-1.917574340477586">
        <ele>570.198974609375</ele>
        <time>2011-04-17T12:57:43Z</time>
      </trkpt>
      <trkpt lat="34.673979599028826" lon="-1.917496724054217">
        <ele>570.6796875</ele>
        <time>2011-04-17T12:57:54Z</time>
      </trkpt>
      <trkpt lat="34.673495963215828" lon="-1.917451629415155">
        <ele>571.640869140625</ele>
        <time>2011-04-17T12:58:02Z</time>
      </trkpt>
      <trkpt lat="34.67290872707963" lon="-1.917378539219499">
        <ele>575.967041015625</ele>
        <time>2011-04-17T12:58:11Z</time>
      </trkpt>
      <trkpt lat="34.672302715480328" lon="-1.917804088443518">
        <ele>579.33154296875</ele>
        <time>2011-04-17T12:58:20Z</time>
      </trkpt>
      <trkpt lat="34.671993842348456" lon="-1.917696967720985">
        <ele>579.812255859375</ele>
        <time>2011-04-17T12:58:27Z</time>
      </trkpt>
      <trkpt lat="34.671504171565175" lon="-1.91752715036273">
        <ele>582.6962890625</ele>
        <time>2011-04-17T12:58:33Z</time>
      </trkpt>
      <trkpt lat="34.670357778668404" lon="-1.917596887797117">
        <ele>583.657470703125</ele>
        <time>2011-04-17T12:58:44Z</time>
      </trkpt>
      <trkpt lat="34.669842459261417" lon="-1.917690597474575">
        <ele>584.13818359375</ele>
        <time>2011-04-17T12:58:51Z</time>
      </trkpt>
      <trkpt lat="34.669384220615029" lon="-1.917773829773068">
        <ele>582.215576171875</ele>
        <time>2011-04-17T12:59:01Z</time>
      </trkpt>
      <trkpt lat="34.669211385771632" lon="-1.917805345728993">
        <ele>581.73486328125</ele>
        <time>2011-04-17T12:59:08Z</time>
      </trkpt>
      <trkpt lat="34.668733365833759" lon="-1.917892266064882">
        <ele>582.215576171875</ele>
        <time>2011-04-17T12:59:16Z</time>
      </trkpt>
      <trkpt lat="34.668561117723584" lon="-1.917923530563712">
        <ele>580.773681640625</ele>
        <time>2011-04-17T12:59:22Z</time>
      </trkpt>
      <trkpt lat="34.668420888483524" lon="-1.917949011549354">
        <ele>573.56396484375</ele>
        <time>2011-04-17T12:59:39Z</time>
      </trkpt>
      <trkpt lat="34.667915543541312" lon="-1.918040961027145">
        <ele>575.005859375</ele>
        <time>2011-04-17T12:59:48Z</time>
      </trkpt>
      <trkpt lat="34.667125130072236" lon="-1.918184626847506">
        <ele>575.967041015625</ele>
        <time>2011-04-17T12:59:57Z</time>
      </trkpt>
      <trkpt lat="34.666247125715017" lon="-1.918517639860511">
        <ele>578.370361328125</ele>
        <time>2011-04-17T13:00:05Z</time>
      </trkpt>
      <trkpt lat="34.665065696462989" lon="-1.919006891548634">
        <ele>577.4091796875</ele>
        <time>2011-04-17T13:00:15Z</time>
      </trkpt>
      <trkpt lat="34.663916788995266" lon="-1.919482816010714">
        <ele>575.486328125</ele>
        <time>2011-04-17T13:00:26Z</time>
      </trkpt>
      <trkpt lat="34.662783220410347" lon="-1.919952286407352">
        <ele>574.04443359375</ele>
        <time>2011-04-17T13:00:37Z</time>
      </trkpt>
      <trkpt lat="34.662370160222054" lon="-1.920172227546573">
        <ele>574.525146484375</ele>
        <time>2011-04-17T13:00:43Z</time>
      </trkpt>
      <trkpt lat="34.662279887124896" lon="-1.92022142931819">
        <ele>577.4091796875</ele>
        <time>2011-04-17T13:00:48Z</time>
      </trkpt>
      <trkpt lat="34.661987274885178" lon="-1.920380685478449">
        <ele>578.370361328125</ele>
        <time>2011-04-17T13:00:54Z</time>
      </trkpt>
      <trkpt lat="34.661297108978033" lon="-1.920756613835692">
        <ele>581.25439453125</ele>
        <time>2011-04-17T13:01:02Z</time>
      </trkpt>
      <trkpt lat="34.660554472357035" lon="-1.921161124482751">
        <ele>584.618896484375</ele>
        <time>2011-04-17T13:01:11Z</time>
      </trkpt>
      <trkpt lat="34.659515786916018" lon="-1.920866668224335">
        <ele>585.099609375</ele>
        <time>2011-04-17T13:01:22Z</time>
      </trkpt>
      <trkpt lat="34.659056793898344" lon="-1.921087699010968">
        <ele>583.657470703125</ele>
        <time>2011-04-17T13:01:31Z</time>
      </trkpt>
      <trkpt lat="34.65860609896481" lon="-1.921295570209622">
        <ele>583.1767578125</ele>
        <time>2011-04-17T13:01:38Z</time>
      </trkpt>
      <trkpt lat="34.657638240605593" lon="-1.921837460249662">
        <ele>584.618896484375</ele>
        <time>2011-04-17T13:01:48Z</time>
      </trkpt>
      <trkpt lat="34.656755793839693" lon="-1.922434084117413">
        <ele>586.060791015625</ele>
        <time>2011-04-17T13:01:56Z</time>
      </trkpt>
      <trkpt lat="34.656129078939557" lon="-1.92288788035512">
        <ele>586.54150390625</ele>
        <time>2011-04-17T13:02:03Z</time>
      </trkpt>
      <trkpt lat="34.655351992696524" lon="-1.923394817858934">
        <ele>591.34814453125</ele>
        <time>2011-04-17T13:02:10Z</time>
      </trkpt>
      <trkpt lat="34.654402574524283" lon="-1.924051288515329">
        <ele>593.270751953125</ele>
        <time>2011-04-17T13:02:18Z</time>
      </trkpt>
      <trkpt lat="34.653096422553062" lon="-1.925112269818783">
        <ele>596.15478515625</ele>
        <time>2011-04-17T13:02:28Z</time>
      </trkpt>
      <trkpt lat="34.651522133499384" lon="-1.926473239436746">
        <ele>599.519287109375</ele>
        <time>2011-04-17T13:02:39Z</time>
      </trkpt>
      <trkpt lat="34.650534326210618" lon="-1.927816523239017">
        <ele>600.961181640625</ele>
        <time>2011-04-17T13:02:47Z</time>
      </trkpt>
      <trkpt lat="34.649050729349256" lon="-1.927910316735506">
        <ele>604.326171875</ele>
        <time>2011-04-17T13:02:55Z</time>
      </trkpt>
      <trkpt lat="34.648245815187693" lon="-1.929129380732775">
        <ele>607.690673828125</ele>
        <time>2011-04-17T13:03:03Z</time>
      </trkpt>
      <trkpt lat="34.647686909884214" lon="-1.929357703775168">
        <ele>608.17138671875</ele>
        <time>2011-04-17T13:03:09Z</time>
      </trkpt>
      <trkpt lat="34.646921139210463" lon="-1.929670516401529">
        <ele>607.690673828125</ele>
        <time>2011-04-17T13:03:18Z</time>
      </trkpt>
      <trkpt lat="34.646222591400146" lon="-1.92995592020452">
        <ele>607.2099609375</ele>
        <time>2011-04-17T13:03:25Z</time>
      </trkpt>
      <trkpt lat="34.645139817148447" lon="-1.930362777784467">
        <ele>607.690673828125</ele>
        <time>2011-04-17T13:03:35Z</time>
      </trkpt>
      <trkpt lat="34.644632125273347" lon="-1.929596420377493">
        <ele>607.2099609375</ele>
        <time>2011-04-17T13:03:38Z</time>
      </trkpt>
      <trkpt lat="34.64420716278255" lon="-1.929452335461974">
        <ele>605.287353515625</ele>
        <time>2011-04-17T13:03:43Z</time>
      </trkpt>
      <trkpt lat="34.64335598051548" lon="-1.929332977160811">
        <ele>602.8837890625</ele>
        <time>2011-04-17T13:03:53Z</time>
      </trkpt>
      <trkpt lat="34.642746783792973" lon="-1.929359883069992">
        <ele>603.84521484375</ele>
        <time>2011-04-17T13:04:01Z</time>
      </trkpt>
      <trkpt lat="34.642150243744254" lon="-1.929517546668649">
        <ele>606.729248046875</ele>
        <time>2011-04-17T13:04:09Z</time>
      </trkpt>
      <trkpt lat="34.641188587993383" lon="-1.929628271609545">
        <ele>610.09375</ele>
        <time>2011-04-17T13:04:19Z</time>
      </trkpt>
      <trkpt lat="34.640186363831162" lon="-1.929826838895679">
        <ele>612.4970703125</ele>
        <time>2011-04-17T13:04:29Z</time>
      </trkpt>
      <trkpt lat="34.639476835727692" lon="-1.92990755662322">
        <ele>614.900390625</ele>
        <time>2011-04-17T13:04:37Z</time>
      </trkpt>
      <trkpt lat="34.638544516637921" lon="-1.929685520008206">
        <ele>616.822998046875</ele>
        <time>2011-04-17T13:04:47Z</time>
      </trkpt>
      <trkpt lat="34.638291466981173" lon="-1.929604047909379">
        <ele>616.822998046875</ele>
        <time>2011-04-17T13:04:51Z</time>
      </trkpt>
      <trkpt lat="34.638018552213907" lon="-1.92944479174912">
        <ele>615.381103515625</ele>
        <time>2011-04-17T13:04:56Z</time>
      </trkpt>
      <trkpt lat="34.637651760131121" lon="-1.929400786757469">
        <ele>618.264892578125</ele>
        <time>2011-04-17T13:05:03Z</time>
      </trkpt>
      <trkpt lat="34.637289829552174" lon="-1.929301461204886">
        <ele>618.74560546875</ele>
        <time>2011-04-17T13:05:08Z</time>
      </trkpt>
      <trkpt lat="34.636665629222989" lon="-1.929109264165163">
        <ele>619.226318359375</ele>
        <time>2011-04-17T13:05:17Z</time>
      </trkpt>
      <trkpt lat="34.636489944532514" lon="-1.929043885320425">
        <ele>618.74560546875</ele>
        <time>2011-04-17T13:05:20Z</time>
      </trkpt>
      <trkpt lat="34.63627235032618" lon="-1.928836097940803">
        <ele>617.7841796875</ele>
        <time>2011-04-17T13:05:25Z</time>
      </trkpt>
      <trkpt lat="34.635914191603661" lon="-1.928523452952504">
        <ele>619.70703125</ele>
        <time>2011-04-17T13:05:35Z</time>
      </trkpt>
      <trkpt lat="34.635721826925874" lon="-1.928274426609278">
        <ele>620.66845703125</ele>
        <time>2011-04-17T13:05:45Z</time>
      </trkpt>
      <trkpt lat="34.635632643476129" lon="-1.928064543753862">
        <ele>622.1103515625</ele>
        <time>2011-04-17T13:05:53Z</time>
      </trkpt>
      <trkpt lat="34.635589895769954" lon="-1.927889194339514">
        <ele>623.07177734375</ele>
        <time>2011-04-17T13:06:02Z</time>
      </trkpt>
      <trkpt lat="34.635482020676136" lon="-1.92785675637424">
        <ele>602.403076171875</ele>
        <time>2011-04-17T13:15:38Z</time>
      </trkpt>
      <trkpt lat="34.635572461411357" lon="-1.927857846021652">
        <ele>615.381103515625</ele>
        <time>2011-04-17T13:27:10Z</time>
      </trkpt>
      <trkpt lat="34.635491827502847" lon="-1.927916016429663">
        <ele>608.17138671875</ele>
        <time>2011-04-17T14:09:04Z</time>
      </trkpt>
      <trkpt lat="34.63557749055326" lon="-1.92787729203701">
        <ele>621.629638671875</ele>
        <time>2011-04-17T14:34:36Z</time>
      </trkpt>
      <trkpt lat="34.635449750348926" lon="-1.927790120244026">
        <ele>586.060791015625</ele>
        <time>2011-04-17T14:42:48Z</time>
      </trkpt>
      <trkpt lat="34.63554966263473" lon="-1.927849799394608">
        <ele>608.65185546875</ele>
        <time>2011-04-17T14:44:17Z</time>
      </trkpt>
      <trkpt lat="34.635683689266443" lon="-1.927909730002284">
        <ele>624.032958984375</ele>
        <time>2011-04-17T14:48:25Z</time>
      </trkpt>
      <trkpt lat="34.63567472063005" lon="-1.928165126591921">
        <ele>622.1103515625</ele>
        <time>2011-04-17T14:48:36Z</time>
      </trkpt>
      <trkpt lat="34.635580088943243" lon="-1.928221033886075">
        <ele>622.1103515625</ele>
        <time>2011-04-17T14:48:47Z</time>
      </trkpt>
      <trkpt lat="34.635161831974983" lon="-1.927939569577575">
        <ele>625.95556640625</ele>
        <time>2011-04-17T14:48:56Z</time>
      </trkpt>
      <trkpt lat="34.63441994972527" lon="-1.92739742808044">
        <ele>631.242919921875</ele>
        <time>2011-04-17T14:49:10Z</time>
      </trkpt>
      <trkpt lat="34.633789295330644" lon="-1.926936423406005">
        <ele>634.126708984375</ele>
        <time>2011-04-17T14:49:22Z</time>
      </trkpt>
      <trkpt lat="34.633072391152382" lon="-1.926530320197344">
        <ele>635.088134765625</ele>
        <time>2011-04-17T14:49:34Z</time>
      </trkpt>
      <trkpt lat="34.63238725438714" lon="-1.92622329108417">
        <ele>635.568603515625</ele>
        <time>2011-04-17T14:49:44Z</time>
      </trkpt>
      <trkpt lat="34.631635481491685" lon="-1.925929756835103">
        <ele>637.0107421875</ele>
        <time>2011-04-17T14:49:53Z</time>
      </trkpt>
      <trkpt lat="34.630801230669022" lon="-1.925880638882518">
        <ele>637.0107421875</ele>
        <time>2011-04-17T14:50:02Z</time>
      </trkpt>
      <trkpt lat="34.63004719465971" lon="-1.92580352537334">
        <ele>638.452880859375</ele>
        <time>2011-04-17T14:50:11Z</time>
      </trkpt>
      <trkpt lat="34.629324087873101" lon="-1.925739319995046">
        <ele>641.336669921875</ele>
        <time>2011-04-17T14:50:21Z</time>
      </trkpt>
      <trkpt lat="34.628800386562943" lon="-1.925755832344294">
        <ele>644.220703125</ele>
        <time>2011-04-17T14:50:30Z</time>
      </trkpt>
      <trkpt lat="34.628080883994699" lon="-1.925736386328936">
        <ele>638.93359375</ele>
        <time>2011-04-17T14:50:40Z</time>
      </trkpt>
      <trkpt lat="34.62729281745851" lon="-1.925610490143299">
        <ele>633.165283203125</ele>
        <time>2011-04-17T14:50:52Z</time>
      </trkpt>
      <trkpt lat="34.626897526904941" lon="-1.925516948103905">
        <ele>631.242919921875</ele>
        <time>2011-04-17T14:51:02Z</time>
      </trkpt>
      <trkpt lat="34.626447921618819" lon="-1.925478642806411">
        <ele>628.35888671875</ele>
        <time>2011-04-17T14:51:13Z</time>
      </trkpt>
      <trkpt lat="34.626089679077268" lon="-1.925353836268187">
        <ele>626.436279296875</ele>
        <time>2011-04-17T14:51:23Z</time>
      </trkpt>
      <trkpt lat="34.625913575291634" lon="-1.925296168774366">
        <ele>626.9169921875</ele>
        <time>2011-04-17T14:51:27Z</time>
      </trkpt>
      <trkpt lat="34.625712661072612" lon="-1.925197178497911">
        <ele>626.436279296875</ele>
        <time>2011-04-17T14:51:31Z</time>
      </trkpt>
      <trkpt lat="34.625133639201522" lon="-1.925107659772039">
        <ele>627.397705078125</ele>
        <time>2011-04-17T14:51:40Z</time>
      </trkpt>
      <trkpt lat="34.624466439709067" lon="-1.925027864053845">
        <ele>625.95556640625</ele>
        <time>2011-04-17T14:51:50Z</time>
      </trkpt>
      <trkpt lat="34.623613581061363" lon="-1.924918564036489">
        <ele>625.95556640625</ele>
        <time>2011-04-17T14:52:01Z</time>
      </trkpt>
      <trkpt lat="34.622934143990278" lon="-1.924900291487575">
        <ele>625.474853515625</ele>
        <time>2011-04-17T14:52:11Z</time>
      </trkpt>
      <trkpt lat="34.622736666351557" lon="-1.924907164648175">
        <ele>625.474853515625</ele>
        <time>2011-04-17T14:52:14Z</time>
      </trkpt>
      <trkpt lat="34.622264932841063" lon="-1.924704154953361">
        <ele>625.95556640625</ele>
        <time>2011-04-17T14:52:22Z</time>
      </trkpt>
      <trkpt lat="34.621740477159619" lon="-1.92433862015605">
        <ele>627.397705078125</ele>
        <time>2011-04-17T14:52:31Z</time>
      </trkpt>
      <trkpt lat="34.621593542397022" lon="-1.924244742840529">
        <ele>628.35888671875</ele>
        <time>2011-04-17T14:52:34Z</time>
      </trkpt>
      <trkpt lat="34.621384078636765" lon="-1.924055395647883">
        <ele>629.320068359375</ele>
        <time>2011-04-17T14:52:39Z</time>
      </trkpt>
      <trkpt lat="34.620932377874851" lon="-1.923738056793809">
        <ele>629.320068359375</ele>
        <time>2011-04-17T14:52:48Z</time>
      </trkpt>
      <trkpt lat="34.620326450094581" lon="-1.92333203740418">
        <ele>629.80078125</ele>
        <time>2011-04-17T14:52:58Z</time>
      </trkpt>
      <trkpt lat="34.620004668831825" lon="-1.923074880614877">
        <ele>630.76220703125</ele>
        <time>2011-04-17T14:53:04Z</time>
      </trkpt>
      <trkpt lat="34.619460431858897" lon="-1.922763995826244">
        <ele>632.684814453125</ele>
        <time>2011-04-17T14:53:14Z</time>
      </trkpt>
      <trkpt lat="34.618788370862603" lon="-1.922309193760157">
        <ele>634.126708984375</ele>
        <time>2011-04-17T14:53:25Z</time>
      </trkpt>
      <trkpt lat="34.618091750890017" lon="-1.921735452488065">
        <ele>636.049560546875</ele>
        <time>2011-04-17T14:53:36Z</time>
      </trkpt>
      <trkpt lat="34.617562517523766" lon="-1.921296659857035">
        <ele>636.5302734375</ele>
        <time>2011-04-17T14:53:46Z</time>
      </trkpt>
      <trkpt lat="34.616899089887738" lon="-1.920812018215656">
        <ele>637.491455078125</ele>
        <time>2011-04-17T14:53:58Z</time>
      </trkpt>
      <trkpt lat="34.616428194567561" lon="-1.920217322185636">
        <ele>642.77880859375</ele>
        <time>2011-04-17T14:54:09Z</time>
      </trkpt>
      <trkpt lat="34.615843389183283" lon="-1.919745337218046">
        <ele>647.1044921875</ele>
        <time>2011-04-17T14:54:21Z</time>
      </trkpt>
      <trkpt lat="34.615220362320542" lon="-1.918937740847468">
        <ele>649.5078125</ele>
        <time>2011-04-17T14:54:35Z</time>
      </trkpt>
      <trkpt lat="34.614774864166975" lon="-1.918145483359695">
        <ele>651.430419921875</ele>
        <time>2011-04-17T14:54:46Z</time>
      </trkpt>
      <trkpt lat="34.614229621365666" lon="-1.917223641648889">
        <ele>650.46923828125</ele>
        <time>2011-04-17T14:54:59Z</time>
      </trkpt>
      <trkpt lat="34.613833576440811" lon="-1.916756266728044">
        <ele>651.430419921875</ele>
        <time>2011-04-17T14:55:07Z</time>
      </trkpt>
      <trkpt lat="34.613135196268559" lon="-1.916222171857953">
        <ele>655.756591796875</ele>
        <time>2011-04-17T14:55:18Z</time>
      </trkpt>
      <trkpt lat="34.612359786406159" lon="-1.915833586826921">
        <ele>658.159912109375</ele>
        <time>2011-04-17T14:55:30Z</time>
      </trkpt>
      <trkpt lat="34.6121521666646" lon="-1.915783043950796">
        <ele>658.640380859375</ele>
        <time>2011-04-17T14:55:33Z</time>
      </trkpt>
      <trkpt lat="34.611958879977465" lon="-1.915688831359148">
        <ele>659.601806640625</ele>
        <time>2011-04-17T14:55:36Z</time>
      </trkpt>
      <trkpt lat="34.611705578863621" lon="-1.91552915610373">
        <ele>660.56298828125</ele>
        <time>2011-04-17T14:55:40Z</time>
      </trkpt>
      <trkpt lat="34.611027482897043" lon="-1.915040072053671">
        <ele>661.043701171875</ele>
        <time>2011-04-17T14:55:50Z</time>
      </trkpt>
      <trkpt lat="34.610288953408599" lon="-1.914713345468044">
        <ele>664.888916015625</ele>
        <time>2011-04-17T14:56:00Z</time>
      </trkpt>
      <trkpt lat="34.609980080276728" lon="-1.914481334388256">
        <ele>665.36962890625</ele>
        <time>2011-04-17T14:56:05Z</time>
      </trkpt>
      <trkpt lat="34.609444392845035" lon="-1.914067436009646">
        <ele>666.8115234375</ele>
        <time>2011-04-17T14:56:14Z</time>
      </trkpt>
      <trkpt lat="34.608832262456417" lon="-1.91355069167912">
        <ele>669.69580078125</ele>
        <time>2011-04-17T14:56:25Z</time>
      </trkpt>
      <trkpt lat="34.608289785683155" lon="-1.912948116660118">
        <ele>673.060302734375</ele>
        <time>2011-04-17T14:56:35Z</time>
      </trkpt>
      <trkpt lat="34.60813413374126" lon="-1.912778718397021">
        <ele>674.502197265625</ele>
        <time>2011-04-17T14:56:38Z</time>
      </trkpt>
      <trkpt lat="34.607913438230753" lon="-1.912602530792356">
        <ele>675.46337890625</ele>
        <time>2011-04-17T14:56:43Z</time>
      </trkpt>
      <trkpt lat="34.607781758531928" lon="-1.912439335137606">
        <ele>676.4248046875</ele>
        <time>2011-04-17T14:56:46Z</time>
      </trkpt>
      <trkpt lat="34.607465425506234" lon="-1.912135658785701">
        <ele>678.347412109375</ele>
        <time>2011-04-17T14:56:53Z</time>
      </trkpt>
      <trkpt lat="34.607213968411088" lon="-1.911927871406078">
        <ele>679.789306640625</ele>
        <time>2011-04-17T14:56:58Z</time>
      </trkpt>
      <trkpt lat="34.607047168537974" lon="-1.911726789548993">
        <ele>680.750732421875</ele>
        <time>2011-04-17T14:57:02Z</time>
      </trkpt>
      <trkpt lat="34.606535118073225" lon="-1.911064870655537">
        <ele>683.634521484375</ele>
        <time>2011-04-17T14:57:13Z</time>
      </trkpt>
      <trkpt lat="34.606306795030832" lon="-1.910838978365064">
        <ele>684.115478515625</ele>
        <time>2011-04-17T14:57:17Z</time>
      </trkpt>
      <trkpt lat="34.60578627884388" lon="-1.910371771082282">
        <ele>689.88330078125</ele>
        <time>2011-04-17T14:57:27Z</time>
      </trkpt>
      <trkpt lat="34.60537338629365" lon="-1.909764586016536">
        <ele>698.054443359375</ele>
        <time>2011-04-17T14:57:37Z</time>
      </trkpt>
      <trkpt lat="34.605111787095666" lon="-1.909477841109037">
        <ele>701.419189453125</ele>
        <time>2011-04-17T14:57:42Z</time>
      </trkpt>
      <trkpt lat="34.605004163458943" lon="-1.909218840301037">
        <ele>705.7451171875</ele>
        <time>2011-04-17T14:57:47Z</time>
      </trkpt>
      <trkpt lat="34.604925625026226" lon="-1.909162094816566">
        <ele>709.59033203125</ele>
        <time>2011-04-17T14:58:02Z</time>
      </trkpt>
      <trkpt lat="34.604824371635914" lon="-1.909129321575165">
        <ele>710.551513671875</ele>
        <time>2011-04-17T14:58:05Z</time>
      </trkpt>
      <trkpt lat="34.604715574532747" lon="-1.909053884446621">
        <ele>711.512939453125</ele>
        <time>2011-04-17T14:58:08Z</time>
      </trkpt>
      <trkpt lat="34.604552965611219" lon="-1.908984147012234">
        <ele>711.99365234375</ele>
        <time>2011-04-17T14:58:12Z</time>
      </trkpt>
      <trkpt lat="34.604256497696042" lon="-1.908913068473339">
        <ele>713.435546875</ele>
        <time>2011-04-17T14:58:19Z</time>
      </trkpt>
      <trkpt lat="34.604067653417587" lon="-1.908887922763825">
        <ele>714.396728515625</ele>
        <time>2011-04-17T14:58:23Z</time>
      </trkpt>
      <trkpt lat="34.603976793587208" lon="-1.908861184492707">
        <ele>714.87744140625</ele>
        <time>2011-04-17T14:58:25Z</time>
      </trkpt>
      <trkpt lat="34.60378535091877" lon="-1.908839894458652">
        <ele>715.8388671875</ele>
        <time>2011-04-17T14:58:29Z</time>
      </trkpt>
      <trkpt lat="34.603093173354864" lon="-1.908711651340127">
        <ele>718.722900390625</ele>
        <time>2011-04-17T14:58:43Z</time>
      </trkpt>
      <trkpt lat="34.602459417656064" lon="-1.908660521730781">
        <ele>722.568115234375</ele>
        <time>2011-04-17T14:58:55Z</time>
      </trkpt>
      <trkpt lat="34.601971758529544" lon="-1.90855105407536">
        <ele>724.010009765625</ele>
        <time>2011-04-17T14:59:04Z</time>
      </trkpt>
      <trkpt lat="34.6017961576581" lon="-1.908538145944476">
        <ele>724.971435546875</ele>
        <time>2011-04-17T14:59:08Z</time>
      </trkpt>
      <trkpt lat="34.601576216518879" lon="-1.908464971929789">
        <ele>726.89404296875</ele>
        <time>2011-04-17T14:59:14Z</time>
      </trkpt>
      <trkpt lat="34.601232139393687" lon="-1.908168755471706">
        <ele>728.3359375</ele>
        <time>2011-04-17T14:59:23Z</time>
      </trkpt>
      <trkpt lat="34.600806590169668" lon="-1.908081918954849">
        <ele>729.297119140625</ele>
        <time>2011-04-17T14:59:33Z</time>
      </trkpt>
      <trkpt lat="34.600612046197057" lon="-1.90799499861896">
        <ele>729.77783203125</ele>
        <time>2011-04-17T14:59:38Z</time>
      </trkpt>
      <trkpt lat="34.60020761936903" lon="-1.90804872661829">
        <ele>732.662109375</ele>
        <time>2011-04-17T14:59:49Z</time>
      </trkpt>
      <trkpt lat="34.600008381530643" lon="-1.908077644184232">
        <ele>735.5458984375</ele>
        <time>2011-04-17T14:59:58Z</time>
      </trkpt>
      <trkpt lat="34.599626250565052" lon="-1.908120978623629">
        <ele>739.871826171875</ele>
        <time>2011-04-17T15:00:28Z</time>
      </trkpt>
      <trkpt lat="34.599472526460886" lon="-1.908166324719787">
        <ele>740.8330078125</ele>
        <time>2011-04-17T15:00:59Z</time>
      </trkpt>
      <trkpt lat="34.599383091554046" lon="-1.908186441287398">
        <ele>741.313720703125</ele>
        <time>2011-04-17T15:01:07Z</time>
      </trkpt>
      <trkpt lat="34.599231127649546" lon="-1.908218041062355">
        <ele>742.275146484375</ele>
        <time>2011-04-17T15:01:16Z</time>
      </trkpt>
      <trkpt lat="34.599344618618488" lon="-1.908188620582223">
        <ele>742.275146484375</ele>
        <time>2011-04-17T15:01:32Z</time>
      </trkpt>
      <trkpt lat="34.599365573376417" lon="-1.907992148771882">
        <ele>737.468505859375</ele>
        <time>2011-04-17T15:02:43Z</time>
      </trkpt>
      <trkpt lat="34.599289884790778" lon="-1.907881675288081">
        <ele>741.79443359375</ele>
        <time>2011-04-17T15:03:14Z</time>
      </trkpt>
      <trkpt lat="34.599302373826504" lon="-1.90774722956121">
        <ele>741.79443359375</ele>
        <time>2011-04-17T15:03:23Z</time>
      </trkpt>
      <trkpt lat="34.599397927522659" lon="-1.90762946382165">
        <ele>741.313720703125</ele>
        <time>2011-04-17T15:03:34Z</time>
      </trkpt>
      <trkpt lat="34.599657766520977" lon="-1.907427795231342">
        <ele>739.39111328125</ele>
        <time>2011-04-17T15:03:45Z</time>
      </trkpt>
      <trkpt lat="34.600047441199422" lon="-1.907054046168923">
        <ele>737.94921875</ele>
        <time>2011-04-17T15:04:00Z</time>
      </trkpt>
      <trkpt lat="34.600380370393395" lon="-1.906895125284791">
        <ele>735.5458984375</ele>
        <time>2011-04-17T15:04:10Z</time>
      </trkpt>
      <trkpt lat="34.600521856918931" lon="-1.906811390072107">
        <ele>735.0654296875</ele>
        <time>2011-04-17T15:04:19Z</time>
      </trkpt>
      <trkpt lat="34.600377269089222" lon="-1.906779455021024">
        <ele>734.584716796875</ele>
        <time>2011-04-17T15:05:01Z</time>
      </trkpt>
      <trkpt lat="34.600301580503583" lon="-1.906682727858424">
        <ele>732.181396484375</ele>
        <time>2011-04-17T15:06:56Z</time>
      </trkpt>
      <trkpt lat="34.600128242745996" lon="-1.906307386234403">
        <ele>741.313720703125</ele>
        <time>2011-04-17T15:07:07Z</time>
      </trkpt>
      <trkpt lat="34.600021122023463" lon="-1.906057437881827">
        <ele>746.60107421875</ele>
        <time>2011-04-17T15:07:16Z</time>
      </trkpt>
      <trkpt lat="34.600123548880219" lon="-1.906024748459458">
        <ele>744.67822265625</ele>
        <time>2011-04-17T15:08:21Z</time>
      </trkpt>
      <trkpt lat="34.60012698546052" lon="-1.906207222491503">
        <ele>744.19775390625</ele>
        <time>2011-04-17T15:08:29Z</time>
      </trkpt>
      <trkpt lat="34.60033024661243" lon="-1.906684152781963">
        <ele>742.275146484375</ele>
        <time>2011-04-17T15:08:44Z</time>
      </trkpt>
      <trkpt lat="34.600664684548974" lon="-1.907314723357558">
        <ele>738.429931640625</ele>
        <time>2011-04-17T15:08:58Z</time>
      </trkpt>
      <trkpt lat="34.600993422791362" lon="-1.907736919820309">
        <ele>734.10400390625</ele>
        <time>2011-04-17T15:09:10Z</time>
      </trkpt>
      <trkpt lat="34.601126359775662" lon="-1.907896427437663">
        <ele>731.700439453125</ele>
        <time>2011-04-17T15:09:26Z</time>
      </trkpt>
      <trkpt lat="34.601395921781659" lon="-1.907902797684073">
        <ele>728.3359375</ele>
        <time>2011-04-17T15:09:51Z</time>
      </trkpt>
      <trkpt lat="34.601500444114208" lon="-1.907931296154857">
        <ele>727.374755859375</ele>
        <time>2011-04-17T15:09:53Z</time>
      </trkpt>
      <trkpt lat="34.601749386638403" lon="-1.907860636711121">
        <ele>725.9326171875</ele>
        <time>2011-04-17T15:09:58Z</time>
      </trkpt>
      <trkpt lat="34.602086842060089" lon="-1.907599288970232">
        <ele>723.048828125</ele>
        <time>2011-04-17T15:10:08Z</time>
      </trkpt>
      <trkpt lat="34.602296054363251" lon="-1.907418239861727">
        <ele>721.126220703125</ele>
        <time>2011-04-17T15:10:18Z</time>
      </trkpt>
      <trkpt lat="34.602212319150567" lon="-1.907229898497462">
        <ele>722.568115234375</ele>
        <time>2011-04-17T15:11:18Z</time>
      </trkpt>
      <trkpt lat="34.601972429081798" lon="-1.9070103764534">
        <ele>725.9326171875</ele>
        <time>2011-04-17T15:11:27Z</time>
      </trkpt>
      <trkpt lat="34.601848544552922" lon="-1.906838295981288">
        <ele>727.855224609375</ele>
        <time>2011-04-17T15:11:34Z</time>
      </trkpt>
      <trkpt lat="34.601423749700189" lon="-1.906939968466759">
        <ele>732.181396484375</ele>
        <time>2011-04-17T15:11:50Z</time>
      </trkpt>
      <trkpt lat="34.601208250969648" lon="-1.906852629035711">
        <ele>734.584716796875</ele>
        <time>2011-04-17T15:12:01Z</time>
      </trkpt>
      <trkpt lat="34.601061567664146" lon="-1.906776018440723">
        <ele>736.026611328125</ele>
        <time>2011-04-17T15:12:13Z</time>
      </trkpt>
      <trkpt lat="34.600949250161648" lon="-1.906778952106834">
        <ele>736.98779296875</ele>
        <time>2011-04-17T15:12:21Z</time>
      </trkpt>
      <trkpt lat="34.600877920165658" lon="-1.906670825555921">
        <ele>736.98779296875</ele>
        <time>2011-04-17T15:12:45Z</time>
      </trkpt>
      <trkpt lat="34.601004235446453" lon="-1.906478377059102">
        <ele>731.219970703125</ele>
        <time>2011-04-17T15:13:23Z</time>
      </trkpt>
      <trkpt lat="34.601089898496866" lon="-1.906293891370297">
        <ele>727.855224609375</ele>
        <time>2011-04-17T15:13:34Z</time>
      </trkpt>
      <trkpt lat="34.600935755297542" lon="-1.90609565936029">
        <ele>733.623291015625</ele>
        <time>2011-04-17T15:13:43Z</time>
      </trkpt>
      <trkpt lat="34.600759986788034" lon="-1.905826767906547">
        <ele>738.91064453125</ele>
        <time>2011-04-17T15:13:50Z</time>
      </trkpt>
      <trkpt lat="34.600637694820762" lon="-1.905765160918236">
        <ele>740.8330078125</ele>
        <time>2011-04-17T15:13:53Z</time>
      </trkpt>
      <trkpt lat="34.60015288554132" lon="-1.905430220067501">
        <ele>746.120361328125</ele>
        <time>2011-04-17T15:14:05Z</time>
      </trkpt>
      <trkpt lat="34.599875696003437" lon="-1.905297618359327">
        <ele>749.485107421875</ele>
        <time>2011-04-17T15:14:12Z</time>
      </trkpt>
      <trkpt lat="34.599733455106616" lon="-1.905179098248482">
        <ele>751.40771484375</ele>
        <time>2011-04-17T15:14:16Z</time>
      </trkpt>
      <trkpt lat="34.599655587226152" lon="-1.90506468527019">
        <ele>753.330322265625</ele>
        <time>2011-04-17T15:14:19Z</time>
      </trkpt>
      <trkpt lat="34.599613174796104" lon="-1.904869973659515">
        <ele>754.772216796875</ele>
        <time>2011-04-17T15:14:23Z</time>
      </trkpt>
      <trkpt lat="34.599596746265888" lon="-1.904662437736988">
        <ele>755.2529296875</ele>
        <time>2011-04-17T15:14:31Z</time>
      </trkpt>
      <trkpt lat="34.599589537829161" lon="-1.904462361708283">
        <ele>756.69482421875</ele>
        <time>2011-04-17T15:14:38Z</time>
      </trkpt>
      <trkpt lat="34.599484177306294" lon="-1.904378458857536">
        <ele>758.617431640625</ele>
        <time>2011-04-17T15:14:46Z</time>
      </trkpt>
      <trkpt lat="34.599318634718657" lon="-1.904286090284586">
        <ele>761.020751953125</ele>
        <time>2011-04-17T15:15:04Z</time>
      </trkpt>
      <trkpt lat="34.599246717989445" lon="-1.904151979833841">
        <ele>761.982177734375</ele>
        <time>2011-04-17T15:15:08Z</time>
      </trkpt>
      <trkpt lat="34.599125767126679" lon="-1.904165558516979">
        <ele>765.82763671875</ele>
        <time>2011-04-17T15:15:24Z</time>
      </trkpt>
      <trkpt lat="34.599003726616502" lon="-1.903978977352381">
        <ele>768.71142578125</ele>
        <time>2011-04-17T15:15:30Z</time>
      </trkpt>
      <trkpt lat="34.598804991692305" lon="-1.903435494750738">
        <ele>772.075927734375</ele>
        <time>2011-04-17T15:15:40Z</time>
      </trkpt>
      <trkpt lat="34.598725028336048" lon="-1.903066355735064">
        <ele>773.037353515625</ele>
        <time>2011-04-17T15:15:50Z</time>
      </trkpt>
      <trkpt lat="34.598645148798823" lon="-1.902937525883317">
        <ele>772.075927734375</ele>
        <time>2011-04-17T15:15:58Z</time>
      </trkpt>
      <trkpt lat="34.598502237349749" lon="-1.902780281379819">
        <ele>770.1533203125</ele>
        <time>2011-04-17T15:16:09Z</time>
      </trkpt>
      <trkpt lat="34.598353961482644" lon="-1.902703586965799">
        <ele>769.6728515625</ele>
        <time>2011-04-17T15:16:27Z</time>
      </trkpt>
      <trkpt lat="34.598463596776128" lon="-1.902730576694012">
        <ele>755.733642578125</ele>
        <time>2011-04-17T15:20:45Z</time>
      </trkpt>
      <trkpt lat="34.598833238705993" lon="-1.902834931388497">
        <ele>759.09814453125</ele>
        <time>2011-04-17T15:22:41Z</time>
      </trkpt>
      <trkpt lat="34.598950082436204" lon="-1.902918498963118">
        <ele>756.69482421875</ele>
        <time>2011-04-17T15:23:26Z</time>
      </trkpt>
      <trkpt lat="34.599011773243546" lon="-1.903004497289658">
        <ele>756.214111328125</ele>
        <time>2011-04-17T15:23:35Z</time>
      </trkpt>
      <trkpt lat="34.599111350253224" lon="-1.903287637978792">
        <ele>753.81103515625</ele>
        <time>2011-04-17T15:23:46Z</time>
      </trkpt>
      <trkpt lat="34.599206568673253" lon="-1.903704386204481">
        <ele>750.927001953125</ele>
        <time>2011-04-17T15:23:57Z</time>
      </trkpt>
      <trkpt lat="34.599362472072244" lon="-1.904179891571403">
        <ele>747.562255859375</ele>
        <time>2011-04-17T15:24:08Z</time>
      </trkpt>
      <trkpt lat="34.599496833980083" lon="-1.904228758066893">
        <ele>747.562255859375</ele>
        <time>2011-04-17T15:24:18Z</time>
      </trkpt>
      <trkpt lat="34.599594566971064" lon="-1.904367059469223">
        <ele>747.562255859375</ele>
        <time>2011-04-17T15:24:23Z</time>
      </trkpt>
      <trkpt lat="34.599716188386083" lon="-1.90442992374301">
        <ele>747.562255859375</ele>
        <time>2011-04-17T15:24:30Z</time>
      </trkpt>
      <trkpt lat="34.599831691011786" lon="-1.904520951211453">
        <ele>746.120361328125</ele>
        <time>2011-04-17T15:24:42Z</time>
      </trkpt>
      <trkpt lat="34.599867146462202" lon="-1.904825046658516">
        <ele>742.755859375</ele>
        <time>2011-04-17T15:24:53Z</time>
      </trkpt>
      <trkpt lat="34.599876282736659" lon="-1.905060242861509">
        <ele>741.313720703125</ele>
        <time>2011-04-17T15:25:01Z</time>
      </trkpt>
      <trkpt lat="34.600082393735647" lon="-1.905333828181028">
        <ele>739.39111328125</ele>
        <time>2011-04-17T15:25:12Z</time>
      </trkpt>
      <trkpt lat="34.600334689021111" lon="-1.905438685789704">
        <ele>737.94921875</ele>
        <time>2011-04-17T15:25:20Z</time>
      </trkpt>
      <trkpt lat="34.60073484107852" lon="-1.905714366585016">
        <ele>734.10400390625</ele>
        <time>2011-04-17T15:25:31Z</time>
      </trkpt>
      <trkpt lat="34.601099286228418" lon="-1.905930871143937">
        <ele>731.700439453125</ele>
        <time>2011-04-17T15:25:42Z</time>
      </trkpt>
      <trkpt lat="34.601186374202371" lon="-1.905993148684502">
        <ele>731.219970703125</ele>
        <time>2011-04-17T15:25:50Z</time>
      </trkpt>
      <trkpt lat="34.601432885974646" lon="-1.905918130651116">
        <ele>733.142578125</ele>
        <time>2011-04-17T15:28:06Z</time>
      </trkpt>
      <trkpt lat="34.601586442440748" lon="-1.906014019623399">
        <ele>733.142578125</ele>
        <time>2011-04-17T15:28:12Z</time>
      </trkpt>
      <trkpt lat="34.601734299212694" lon="-1.905942186713219">
        <ele>734.584716796875</ele>
        <time>2011-04-17T15:28:21Z</time>
      </trkpt>
      <trkpt lat="34.601800683885813" lon="-1.906078141182661">
        <ele>732.181396484375</ele>
        <time>2011-04-17T15:28:30Z</time>
      </trkpt>
      <trkpt lat="34.601936638355255" lon="-1.906222980469465">
        <ele>727.855224609375</ele>
        <time>2011-04-17T15:28:40Z</time>
      </trkpt>
      <trkpt lat="34.60235707461834" lon="-1.905949395149946">
        <ele>727.374755859375</ele>
        <time>2011-04-17T15:28:52Z</time>
      </trkpt>
      <trkpt lat="34.602494454011321" lon="-1.905930368229747">
        <ele>726.89404296875</ele>
        <time>2011-04-17T15:29:00Z</time>
      </trkpt>
      <trkpt lat="34.602584391832352" lon="-1.905937241390348">
        <ele>726.89404296875</ele>
        <time>2011-04-17T15:29:33Z</time>
      </trkpt>
      <trkpt lat="34.602722274139524" lon="-1.905939588323236">
        <ele>725.9326171875</ele>
        <time>2011-04-17T15:30:53Z</time>
      </trkpt>
      <trkpt lat="34.602864431217313" lon="-1.905929865315557">
        <ele>724.49072265625</ele>
        <time>2011-04-17T15:30:56Z</time>
      </trkpt>
      <trkpt lat="34.60304556414485" lon="-1.905802125111222">
        <ele>723.529541015625</ele>
        <time>2011-04-17T15:31:00Z</time>
      </trkpt>
      <trkpt lat="34.60321513004601" lon="-1.905534574761987">
        <ele>722.568115234375</ele>
        <time>2011-04-17T15:31:05Z</time>
      </trkpt>
      <trkpt lat="34.603456696495414" lon="-1.905430220067501">
        <ele>720.6455078125</ele>
        <time>2011-04-17T15:31:10Z</time>
      </trkpt>
      <trkpt lat="34.603812927380204" lon="-1.905442792922258">
        <ele>716.80029296875</ele>
        <time>2011-04-17T15:31:16Z</time>
      </trkpt>
      <trkpt lat="34.604174522683024" lon="-1.905662231147289">
        <ele>714.87744140625</ele>
        <time>2011-04-17T15:31:23Z</time>
      </trkpt>
      <trkpt lat="34.604573752731085" lon="-1.905961129814386">
        <ele>711.99365234375</ele>
        <time>2011-04-17T15:31:33Z</time>
      </trkpt>
      <trkpt lat="34.604656733572483" lon="-1.9060277659446">
        <ele>710.07080078125</ele>
        <time>2011-04-17T15:31:36Z</time>
      </trkpt>
      <trkpt lat="34.605094771832228" lon="-1.90617042593658">
        <ele>706.2255859375</ele>
        <time>2011-04-17T15:31:45Z</time>
      </trkpt>
      <trkpt lat="34.605294093489647" lon="-1.906359270215035">
        <ele>704.78369140625</ele>
        <time>2011-04-17T15:31:52Z</time>
      </trkpt>
      <trkpt lat="34.605557033792138" lon="-1.906701335683465">
        <ele>707.18701171875</ele>
        <time>2011-04-17T15:32:01Z</time>
      </trkpt>
      <trkpt lat="34.605594836175442" lon="-1.906816083937883">
        <ele>707.667724609375</ele>
        <time>2011-04-17T15:32:03Z</time>
      </trkpt>
      <trkpt lat="34.6056142821908" lon="-1.907080868259072">
        <ele>708.1484375</ele>
        <time>2011-04-17T15:32:08Z</time>
      </trkpt>
      <trkpt lat="34.605631968006492" lon="-1.907484792172909">
        <ele>708.1484375</ele>
        <time>2011-04-17T15:32:17Z</time>
      </trkpt>
      <trkpt lat="34.605683265253901" lon="-1.907623680308461">
        <ele>708.62890625</ele>
        <time>2011-04-17T15:32:28Z</time>
      </trkpt>
      <trkpt lat="34.605841767042875" lon="-1.908214269205928">
        <ele>710.551513671875</ele>
        <time>2011-04-17T15:32:37Z</time>
      </trkpt>
      <trkpt lat="34.605868840590119" lon="-1.908398671075702">
        <ele>711.0322265625</ele>
        <time>2011-04-17T15:32:43Z</time>
      </trkpt>
      <trkpt lat="34.605848388746381" lon="-1.908226255327463">
        <ele>710.07080078125</ele>
        <time>2011-04-17T15:36:05Z</time>
      </trkpt>
      <trkpt lat="34.605738921090961" lon="-1.90780246630311">
        <ele>708.62890625</ele>
        <time>2011-04-17T15:36:12Z</time>
      </trkpt>
      <trkpt lat="34.605750069022179" lon="-1.907596774399281">
        <ele>707.667724609375</ele>
        <time>2011-04-17T15:36:16Z</time>
      </trkpt>
      <trkpt lat="34.605984259396791" lon="-1.907442966476083">
        <ele>706.706298828125</ele>
        <time>2011-04-17T15:36:21Z</time>
      </trkpt>
      <trkpt lat="34.606218198314309" lon="-1.907346993684769">
        <ele>705.7451171875</ele>
        <time>2011-04-17T15:36:25Z</time>
      </trkpt>
      <trkpt lat="34.606650033965707" lon="-1.907179523259401">
        <ele>703.341796875</ele>
        <time>2011-04-17T15:36:32Z</time>
      </trkpt>
      <trkpt lat="34.606896629557014" lon="-1.907106684520841">
        <ele>701.89990234375</ele>
        <time>2011-04-17T15:36:36Z</time>
      </trkpt>
      <trkpt lat="34.607031662017107" lon="-1.907040635123849">
        <ele>701.419189453125</ele>
        <time>2011-04-17T15:36:38Z</time>
      </trkpt>
      <trkpt lat="34.607316562905908" lon="-1.906961174681783">
        <ele>699.97705078125</ele>
        <time>2011-04-17T15:36:42Z</time>
      </trkpt>
      <trkpt lat="34.608092391863465" lon="-1.906676860526204">
        <ele>695.651123046875</ele>
        <time>2011-04-17T15:36:53Z</time>
      </trkpt>
      <trkpt lat="34.608969641849399" lon="-1.906349044293165">
        <ele>691.3251953125</ele>
        <time>2011-04-17T15:37:06Z</time>
      </trkpt>
      <trkpt lat="34.609391251578927" lon="-1.906174868345261">
        <ele>689.88330078125</ele>
        <time>2011-04-17T15:37:13Z</time>
      </trkpt>
      <trkpt lat="34.609580766409636" lon="-1.905983174219728">
        <ele>688.922119140625</ele>
        <time>2011-04-17T15:37:20Z</time>
      </trkpt>
      <trkpt lat="34.609571043401957" lon="-1.90572626888752">
        <ele>689.402587890625</ele>
        <time>2011-04-17T15:37:31Z</time>
      </trkpt>
      <trkpt lat="34.609479429200292" lon="-1.905324524268508">
        <ele>687.960693359375</ele>
        <time>2011-04-17T15:37:43Z</time>
      </trkpt>
      <trkpt lat="34.609566684812307" lon="-1.905119083821774">
        <ele>687.960693359375</ele>
        <time>2011-04-17T15:37:53Z</time>
      </trkpt>
      <trkpt lat="34.609563918784261" lon="-1.904864944517613">
        <ele>689.88330078125</ele>
        <time>2011-04-17T15:37:59Z</time>
      </trkpt>
      <trkpt lat="34.609434250742197" lon="-1.904268572106957">
        <ele>692.767333984375</ele>
        <time>2011-04-17T15:38:07Z</time>
      </trkpt>
      <trkpt lat="34.609260158613324" lon="-1.903308844193816">
        <ele>694.209228515625</ele>
        <time>2011-04-17T15:38:19Z</time>
      </trkpt>
      <trkpt lat="34.609249765053391" lon="-1.902947165071964">
        <ele>694.689697265625</ele>
        <time>2011-04-17T15:38:23Z</time>
      </trkpt>
      <trkpt lat="34.609343390911818" lon="-1.902169240638614">
        <ele>696.1318359375</ele>
        <time>2011-04-17T15:38:31Z</time>
      </trkpt>
      <trkpt lat="34.609443554654717" lon="-1.901636654511094">
        <ele>698.054443359375</ele>
        <time>2011-04-17T15:38:37Z</time>
      </trkpt>
      <trkpt lat="34.609455959871411" lon="-1.901426771655679">
        <ele>698.534912109375</ele>
        <time>2011-04-17T15:38:40Z</time>
      </trkpt>
      <trkpt lat="34.609458139166236" lon="-1.900623617693782">
        <ele>699.97705078125</ele>
        <time>2011-04-17T15:38:50Z</time>
      </trkpt>
      <trkpt lat="34.609673637896776" lon="-1.899955160915852">
        <ele>699.97705078125</ele>
        <time>2011-04-17T15:38:58Z</time>
      </trkpt>
      <trkpt lat="34.609810933470726" lon="-1.899611335247755">
        <ele>701.89990234375</ele>
        <time>2011-04-17T15:39:04Z</time>
      </trkpt>
      <trkpt lat="34.609841024503112" lon="-1.89945031888783">
        <ele>702.38037109375</ele>
        <time>2011-04-17T15:39:06Z</time>
      </trkpt>
      <trkpt lat="34.609879497438669" lon="-1.899296678602696">
        <ele>702.861083984375</ele>
        <time>2011-04-17T15:39:08Z</time>
      </trkpt>
      <trkpt lat="34.609919227659702" lon="-1.898838775232434">
        <ele>705.7451171875</ele>
        <time>2011-04-17T15:39:15Z</time>
      </trkpt>
      <trkpt lat="34.609920233488083" lon="-1.898623025044799">
        <ele>707.18701171875</ele>
        <time>2011-04-17T15:39:22Z</time>
      </trkpt>
      <trkpt lat="34.609862398356199" lon="-1.898011229932308">
        <ele>709.109619140625</ele>
        <time>2011-04-17T15:39:32Z</time>
      </trkpt>
      <trkpt lat="34.609904056414962" lon="-1.897704117000103">
        <ele>710.07080078125</ele>
        <time>2011-04-17T15:39:38Z</time>
      </trkpt>
      <trkpt lat="34.610043782740831" lon="-1.897509656846523">
        <ele>710.551513671875</ele>
        <time>2011-04-17T15:39:46Z</time>
      </trkpt>
      <trkpt lat="34.61006473749876" lon="-1.896882941946387">
        <ele>711.99365234375</ele>
        <time>2011-04-17T15:39:54Z</time>
      </trkpt>
      <trkpt lat="34.610042693093419" lon="-1.895611993968487">
        <ele>715.358154296875</ele>
        <time>2011-04-17T15:40:07Z</time>
      </trkpt>
      <trkpt lat="34.610194321721792" lon="-1.894495943561196">
        <ele>719.20361328125</ele>
        <time>2011-04-17T15:40:18Z</time>
      </trkpt>
      <trkpt lat="34.610416442155838" lon="-1.893641073256731">
        <ele>724.010009765625</ele>
        <time>2011-04-17T15:40:27Z</time>
      </trkpt>
      <trkpt lat="34.610581649467349" lon="-1.89288267865777">
        <ele>724.010009765625</ele>
        <time>2011-04-17T15:40:34Z</time>
      </trkpt>
      <trkpt lat="34.610684160143137" lon="-1.892556874081492">
        <ele>724.010009765625</ele>
        <time>2011-04-17T15:40:37Z</time>
      </trkpt>
      <trkpt lat="34.610764626413584" lon="-1.892092432826757">
        <ele>724.010009765625</ele>
        <time>2011-04-17T15:40:41Z</time>
      </trkpt>
      <trkpt lat="34.610917344689369" lon="-1.891296654939652">
        <ele>724.971435546875</ele>
        <time>2011-04-17T15:40:49Z</time>
      </trkpt>
      <trkpt lat="34.611056065186858" lon="-1.890333071351051">
        <ele>726.413330078125</ele>
        <time>2011-04-17T15:40:59Z</time>
      </trkpt>
      <trkpt lat="34.610998649150133" lon="-1.889468645676971">
        <ele>726.413330078125</ele>
        <time>2011-04-17T15:41:08Z</time>
      </trkpt>
      <trkpt lat="34.611031757667661" lon="-1.889210985973477">
        <ele>726.413330078125</ele>
        <time>2011-04-17T15:41:11Z</time>
      </trkpt>
      <trkpt lat="34.611053047701716" lon="-1.888975538313389">
        <ele>726.413330078125</ele>
        <time>2011-04-17T15:41:14Z</time>
      </trkpt>
      <trkpt lat="34.611138124018908" lon="-1.888213288038969">
        <ele>726.89404296875</ele>
        <time>2011-04-17T15:41:23Z</time>
      </trkpt>
      <trkpt lat="34.611255470663309" lon="-1.887622782960534">
        <ele>726.89404296875</ele>
        <time>2011-04-17T15:41:31Z</time>
      </trkpt>
      <trkpt lat="34.611393855884671" lon="-1.887068739160895">
        <ele>727.374755859375</ele>
        <time>2011-04-17T15:41:37Z</time>
      </trkpt>
      <trkpt lat="34.611418917775154" lon="-1.886737737804651">
        <ele>727.855224609375</ele>
        <time>2011-04-17T15:41:41Z</time>
      </trkpt>
      <trkpt lat="34.6115149743855" lon="-1.885902397334576">
        <ele>729.297119140625</ele>
        <time>2011-04-17T15:41:50Z</time>
      </trkpt>
      <trkpt lat="34.611484464257956" lon="-1.885191444307566">
        <ele>729.77783203125</ele>
        <time>2011-04-17T15:41:58Z</time>
      </trkpt>
      <trkpt lat="34.611487565562129" lon="-1.885001175105572">
        <ele>729.297119140625</ele>
        <time>2011-04-17T15:42:00Z</time>
      </trkpt>
      <trkpt lat="34.611332919448614" lon="-1.884222244843841">
        <ele>728.3359375</ele>
        <time>2011-04-17T15:42:08Z</time>
      </trkpt>
      <trkpt lat="34.611156145110726" lon="-1.883748332038522">
        <ele>729.297119140625</ele>
        <time>2011-04-17T15:42:15Z</time>
      </trkpt>
      <trkpt lat="34.610979119315743" lon="-1.883044587448239">
        <ele>731.700439453125</ele>
        <time>2011-04-17T15:42:23Z</time>
      </trkpt>
      <trkpt lat="34.610698660835624" lon="-1.88234587199986">
        <ele>733.142578125</ele>
        <time>2011-04-17T15:42:31Z</time>
      </trkpt>
      <trkpt lat="34.610449131578207" lon="-1.882053762674332">
        <ele>733.142578125</ele>
        <time>2011-04-17T15:42:37Z</time>
      </trkpt>
      <trkpt lat="34.610327677801251" lon="-1.881827786564827">
        <ele>733.623291015625</ele>
        <time>2011-04-17T15:42:41Z</time>
      </trkpt>
      <trkpt lat="34.610079992562532" lon="-1.881100153550506">
        <ele>732.662109375</ele>
        <time>2011-04-17T15:42:49Z</time>
      </trkpt>
      <trkpt lat="34.609791487455368" lon="-1.880314853042364">
        <ele>730.7392578125</ele>
        <time>2011-04-17T15:42:58Z</time>
      </trkpt>
      <trkpt lat="34.609689144417644" lon="-1.880126427859068">
        <ele>730.258544921875</ele>
        <time>2011-04-17T15:43:01Z</time>
      </trkpt>
      <trkpt lat="34.609512621536851" lon="-1.879678331315517">
        <ele>728.816650390625</ele>
        <time>2011-04-17T15:43:07Z</time>
      </trkpt>
      <trkpt lat="34.60925018414855" lon="-1.879399297758937">
        <ele>725.9326171875</ele>
        <time>2011-04-17T15:43:12Z</time>
      </trkpt>
      <trkpt lat="34.608934270218015" lon="-1.879135519266129">
        <ele>725.9326171875</ele>
        <time>2011-04-17T15:43:17Z</time>
      </trkpt>
      <trkpt lat="34.608660098165274" lon="-1.878697061911225">
        <ele>726.413330078125</ele>
        <time>2011-04-17T15:43:23Z</time>
      </trkpt>
      <trkpt lat="34.608192723244429" lon="-1.878320965915918">
        <ele>725.451904296875</ele>
        <time>2011-04-17T15:43:32Z</time>
      </trkpt>
      <trkpt lat="34.608107227832079" lon="-1.878080321475864">
        <ele>725.9326171875</ele>
        <time>2011-04-17T15:43:40Z</time>
      </trkpt>
      <trkpt lat="34.607908325269818" lon="-1.877609174698591">
        <ele>727.855224609375</ele>
        <time>2011-04-17T15:43:50Z</time>
      </trkpt>
      <trkpt lat="34.607855938374996" lon="-1.877392753958702">
        <ele>727.374755859375</ele>
        <time>2011-04-17T15:43:58Z</time>
      </trkpt>
      <trkpt lat="34.607778992503881" lon="-1.877163592725992">
        <ele>726.413330078125</ele>
        <time>2011-04-17T15:44:09Z</time>
      </trkpt>
      <trkpt lat="34.60769827477634" lon="-1.876802584156394">
        <ele>724.010009765625</ele>
        <time>2011-04-17T15:44:16Z</time>
      </trkpt>
      <trkpt lat="34.607697352766991" lon="-1.876172348856926">
        <ele>721.126220703125</ele>
        <time>2011-04-17T15:44:25Z</time>
      </trkpt>
      <trkpt lat="34.607635159045458" lon="-1.87572542577982">
        <ele>719.20361328125</ele>
        <time>2011-04-17T15:44:35Z</time>
      </trkpt>
      <trkpt lat="34.607582436874509" lon="-1.875202478840947">
        <ele>717.281005859375</ele>
        <time>2011-04-17T15:44:44Z</time>
      </trkpt>
      <trkpt lat="34.607515884563327" lon="-1.874866699799895">
        <ele>716.319580078125</ele>
        <time>2011-04-17T15:44:50Z</time>
      </trkpt>
      <trkpt lat="34.607541449368" lon="-1.874475348740816">
        <ele>714.396728515625</ele>
        <time>2011-04-17T15:44:57Z</time>
      </trkpt>
      <trkpt lat="34.607485877349973" lon="-1.874213330447674">
        <ele>712.954833984375</ele>
        <time>2011-04-17T15:45:01Z</time>
      </trkpt>
      <trkpt lat="34.607370290905237" lon="-1.87347337603569">
        <ele>713.435546875</ele>
        <time>2011-04-17T15:45:11Z</time>
      </trkpt>
      <trkpt lat="34.607241041958332" lon="-1.872956631705165">
        <ele>715.8388671875</ele>
        <time>2011-04-17T15:45:18Z</time>
      </trkpt>
      <trkpt lat="34.607044234871864" lon="-1.872108886018395">
        <ele>718.2421875</ele>
        <time>2011-04-17T15:45:28Z</time>
      </trkpt>
      <trkpt lat="34.6070044208318" lon="-1.871950970962644">
        <ele>718.722900390625</ele>
        <time>2011-04-17T15:45:30Z</time>
      </trkpt>
      <trkpt lat="34.606869891285896" lon="-1.87121344730258">
        <ele>717.761474609375</ele>
        <time>2011-04-17T15:45:38Z</time>
      </trkpt>
      <trkpt lat="34.60685052908957" lon="-1.870588744059205">
        <ele>718.2421875</ele>
        <time>2011-04-17T15:45:44Z</time>
      </trkpt>
      <trkpt lat="34.60674935951829" lon="-1.869967225939035">
        <ele>718.2421875</ele>
        <time>2011-04-17T15:45:52Z</time>
      </trkpt>
      <trkpt lat="34.6066780295223" lon="-1.869384096935391">
        <ele>718.2421875</ele>
        <time>2011-04-17T15:46:02Z</time>
      </trkpt>
      <trkpt lat="34.60661893710494" lon="-1.868831226602197">
        <ele>716.80029296875</ele>
        <time>2011-04-17T15:46:13Z</time>
      </trkpt>
      <trkpt lat="34.606561353430152" lon="-1.868306435644627">
        <ele>714.87744140625</ele>
        <time>2011-04-17T15:46:24Z</time>
      </trkpt>
      <trkpt lat="34.60654903203249" lon="-1.868092697113752">
        <ele>713.916015625</ele>
        <time>2011-04-17T15:46:30Z</time>
      </trkpt>
      <trkpt lat="34.606451382860541" lon="-1.868048692122102">
        <ele>713.916015625</ele>
        <time>2011-04-17T15:46:35Z</time>
      </trkpt>
      <trkpt lat="34.605957772582769" lon="-1.86805447563529">
        <ele>714.87744140625</ele>
        <time>2011-04-17T15:46:42Z</time>
      </trkpt>
      <trkpt lat="34.604925625026226" lon="-1.868083728477359">
        <ele>717.281005859375</ele>
        <time>2011-04-17T15:46:51Z</time>
      </trkpt>
      <trkpt lat="34.604064049199224" lon="-1.868334263563156">
        <ele>718.722900390625</ele>
        <time>2011-04-17T15:46:58Z</time>
      </trkpt>
      <trkpt lat="34.603179171681404" lon="-1.868920996785164">
        <ele>716.319580078125</ele>
        <time>2011-04-17T15:47:05Z</time>
      </trkpt>
      <trkpt lat="34.601748380810022" lon="-1.86995767056942">
        <ele>716.319580078125</ele>
        <time>2011-04-17T15:47:15Z</time>
      </trkpt>
      <trkpt lat="34.60021055303514" lon="-1.870979676023126">
        <ele>716.80029296875</ele>
        <time>2011-04-17T15:47:26Z</time>
      </trkpt>
      <trkpt lat="34.599107578396797" lon="-1.871328866109252">
        <ele>717.281005859375</ele>
        <time>2011-04-17T15:47:33Z</time>
      </trkpt>
      <trkpt lat="34.597729342058301" lon="-1.871562721207738">
        <ele>718.722900390625</ele>
        <time>2011-04-17T15:47:42Z</time>
      </trkpt>
      <trkpt lat="34.596625445410609" lon="-1.87142794020474">
        <ele>722.08740234375</ele>
        <time>2011-04-17T15:47:49Z</time>
      </trkpt>
      <trkpt lat="34.59492894820869" lon="-1.870818575844169">
        <ele>731.700439453125</ele>
        <time>2011-04-17T15:48:00Z</time>
      </trkpt>
      <trkpt lat="34.59326907992363" lon="-1.870274841785431">
        <ele>738.91064453125</ele>
        <time>2011-04-17T15:48:11Z</time>
      </trkpt>
      <trkpt lat="34.591989666223526" lon="-1.870050625875592">
        <ele>744.19775390625</ele>
        <time>2011-04-17T15:48:20Z</time>
      </trkpt>
      <trkpt lat="34.590975875034928" lon="-1.870349859818816">
        <ele>748.523681640625</ele>
        <time>2011-04-17T15:48:28Z</time>
      </trkpt>
      <trkpt lat="34.589552124962211" lon="-1.870823437348008">
        <ele>753.330322265625</ele>
        <time>2011-04-17T15:48:38Z</time>
      </trkpt>
      <trkpt lat="34.588112449273467" lon="-1.871471358463168">
        <ele>754.291748046875</ele>
        <time>2011-04-17T15:48:48Z</time>
      </trkpt>
      <trkpt lat="34.587068650871515" lon="-1.872254982590675">
        <ele>754.772216796875</ele>
        <time>2011-04-17T15:48:56Z</time>
      </trkpt>
      <trkpt lat="34.586061062291265" lon="-1.873003989458084">
        <ele>757.175537109375</ele>
        <time>2011-04-17T15:49:03Z</time>
      </trkpt>
      <trkpt lat="34.584608394652605" lon="-1.87367026694119">
        <ele>761.982177734375</ele>
        <time>2011-04-17T15:49:13Z</time>
      </trkpt>
      <trkpt lat="34.58318674005568" lon="-1.874348698183894">
        <ele>767.75</ele>
        <time>2011-04-17T15:49:24Z</time>
      </trkpt>
      <trkpt lat="34.58267955109477" lon="-1.874277619645">
        <ele>770.1533203125</ele>
        <time>2011-04-17T15:49:29Z</time>
      </trkpt>
      <trkpt lat="34.581775227561593" lon="-1.873607486486435">
        <ele>773.99853515625</ele>
        <time>2011-04-17T15:49:38Z</time>
      </trkpt>
      <trkpt lat="34.580525485798717" lon="-1.872800476849079">
        <ele>779.766357421875</ele>
        <time>2011-04-17T15:49:48Z</time>
      </trkpt>
      <trkpt lat="34.578753551468253" lon="-1.871853740885854">
        <ele>783.131103515625</ele>
        <time>2011-04-17T15:50:01Z</time>
      </trkpt>
      <trkpt lat="34.578042849898338" lon="-1.871524248272181">
        <ele>786.01513671875</ele>
        <time>2011-04-17T15:50:07Z</time>
      </trkpt>
      <trkpt lat="34.577184794470668" lon="-1.871407655999064">
        <ele>787.45703125</ele>
        <time>2011-04-17T15:50:14Z</time>
      </trkpt>
      <trkpt lat="34.575907392427325" lon="-1.87123884446919">
        <ele>788.899169921875</ele>
        <time>2011-04-17T15:50:23Z</time>
      </trkpt>
      <trkpt lat="34.574662679806352" lon="-1.870963079854846">
        <ele>794.186279296875</ele>
        <time>2011-04-17T15:50:31Z</time>
      </trkpt>
      <trkpt lat="34.573558028787374" lon="-1.871097022667527">
        <ele>798.992919921875</ele>
        <time>2011-04-17T15:50:38Z</time>
      </trkpt>
      <trkpt lat="34.571661790832877" lon="-1.871410422027111">
        <ele>803.799560546875</ele>
        <time>2011-04-17T15:50:49Z</time>
      </trkpt>
      <trkpt lat="34.569939477369189" lon="-1.871361220255494">
        <ele>808.12548828125</ele>
        <time>2011-04-17T15:50:59Z</time>
      </trkpt>
      <trkpt lat="34.568925937637687" lon="-1.871086126193404">
        <ele>807.1640625</ele>
        <time>2011-04-17T15:51:05Z</time>
      </trkpt>
      <trkpt lat="34.567511575296521" lon="-1.870406270027161">
        <ele>808.12548828125</ele>
        <time>2011-04-17T15:51:13Z</time>
      </trkpt>
      <trkpt lat="34.565828237682581" lon="-1.869442518800497">
        <ele>810.0478515625</ele>
        <time>2011-04-17T15:51:23Z</time>
      </trkpt>
      <trkpt lat="34.5648636482656" lon="-1.86844389885664">
        <ele>813.412841796875</ele>
        <time>2011-04-17T15:51:30Z</time>
      </trkpt>
      <trkpt lat="34.563716249540448" lon="-1.867216620594263">
        <ele>816.77734375</ele>
        <time>2011-04-17T15:51:39Z</time>
      </trkpt>
      <trkpt lat="34.563010074198246" lon="-1.866041645407677">
        <ele>816.77734375</ele>
        <time>2011-04-17T15:51:46Z</time>
      </trkpt>
      <trkpt lat="34.562112372368574" lon="-1.863695718348026">
        <ele>815.816162109375</ele>
        <time>2011-04-17T15:51:58Z</time>
      </trkpt>
      <trkpt lat="34.561526728793979" lon="-1.862692153081298">
        <ele>817.738525390625</ele>
        <time>2011-04-17T15:52:04Z</time>
      </trkpt>
      <trkpt lat="34.56050899811089" lon="-1.861577443778515">
        <ele>823.02587890625</ele>
        <time>2011-04-17T15:52:12Z</time>
      </trkpt>
      <trkpt lat="34.558697082102299" lon="-1.859824955463409">
        <ele>829.2744140625</ele>
        <time>2011-04-17T15:52:25Z</time>
      </trkpt>
      <trkpt lat="34.557149531319737" lon="-1.858334569260478">
        <ele>835.52294921875</ele>
        <time>2011-04-17T15:52:36Z</time>
      </trkpt>
      <trkpt lat="34.555778168141842" lon="-1.856582248583436">
        <ele>844.655517578125</ele>
        <time>2011-04-17T15:52:47Z</time>
      </trkpt>
      <trkpt lat="34.554710062220693" lon="-1.855131927877665">
        <ele>850.904052734375</ele>
        <time>2011-04-17T15:52:56Z</time>
      </trkpt>
      <trkpt lat="34.553735582157969" lon="-1.853447835892439">
        <ele>855.710693359375</ele>
        <time>2011-04-17T15:53:06Z</time>
      </trkpt>
      <trkpt lat="34.553096294403076" lon="-1.852155430242419">
        <ele>857.152587890625</ele>
        <time>2011-04-17T15:53:15Z</time>
      </trkpt>
      <trkpt lat="34.552243687212467" lon="-1.85057183727622">
        <ele>857.152587890625</ele>
        <time>2011-04-17T15:53:26Z</time>
      </trkpt>
      <trkpt lat="34.551629545167089" lon="-1.849516052752733">
        <ele>859.555908203125</ele>
        <time>2011-04-17T15:53:35Z</time>
      </trkpt>
      <trkpt lat="34.551422260701656" lon="-1.849144566804171">
        <ele>860.03662109375</ele>
        <time>2011-04-17T15:53:41Z</time>
      </trkpt>
      <trkpt lat="34.551335256546736" lon="-1.849064854905009">
        <ele>854.268798828125</ele>
        <time>2011-04-17T15:55:32Z</time>
      </trkpt>
      <trkpt lat="34.551704060286283" lon="-1.849594172090292">
        <ele>855.22998046875</ele>
        <time>2011-04-17T15:55:55Z</time>
      </trkpt>
      <trkpt lat="34.552186271175742" lon="-1.850400846451521">
        <ele>854.268798828125</ele>
        <time>2011-04-17T15:56:04Z</time>
      </trkpt>
      <trkpt lat="34.552835365757346" lon="-1.851577078923583">
        <ele>853.7880859375</ele>
        <time>2011-04-17T15:56:15Z</time>
      </trkpt>
      <trkpt lat="34.553512623533607" lon="-1.852914830669761">
        <ele>850.423583984375</ele>
        <time>2011-04-17T15:56:25Z</time>
      </trkpt>
      <trkpt lat="34.554262133315206" lon="-1.85436406172812">
        <ele>846.09765625</ele>
        <time>2011-04-17T15:56:36Z</time>
      </trkpt>
      <trkpt lat="34.554512416943908" lon="-1.85478282161057">
        <ele>844.175048828125</ele>
        <time>2011-04-17T15:56:42Z</time>
      </trkpt>
      <trkpt lat="34.554628757759929" lon="-1.854974934831262">
        <ele>843.21337890625</ele>
        <time>2011-04-17T15:56:49Z</time>
      </trkpt>
      <trkpt lat="34.554877365007997" lon="-1.855359831824899">
        <ele>841.771484375</ele>
        <time>2011-04-17T15:56:55Z</time>
      </trkpt>
      <trkpt lat="34.555317666381598" lon="-1.856028623878956">
        <ele>839.848876953125</ele>
        <time>2011-04-17T15:57:02Z</time>
      </trkpt>
      <trkpt lat="34.556127525866032" lon="-1.856974521651864">
        <ele>834.561767578125</ele>
        <time>2011-04-17T15:57:12Z</time>
      </trkpt>
      <trkpt lat="34.557025479152799" lon="-1.858306154608727">
        <ele>829.755126953125</ele>
        <time>2011-04-17T15:57:22Z</time>
      </trkpt>
      <trkpt lat="34.558293828740716" lon="-1.859409548342228">
        <ele>824.4677734375</ele>
        <time>2011-04-17T15:57:33Z</time>
      </trkpt>
      <trkpt lat="34.559554383158684" lon="-1.860640095546842">
        <ele>821.103271484375</ele>
        <time>2011-04-17T15:57:44Z</time>
      </trkpt>
      <trkpt lat="34.560093758627772" lon="-1.861157091334462">
        <ele>820.141845703125</ele>
        <time>2011-04-17T15:57:50Z</time>
      </trkpt>
      <trkpt lat="34.560181852430105" lon="-1.861380720511079">
        <ele>819.1806640625</ele>
        <time>2011-04-17T15:57:57Z</time>
      </trkpt>
      <trkpt lat="34.560131896287203" lon="-1.861759247258306">
        <ele>820.141845703125</ele>
        <time>2011-04-17T15:58:07Z</time>
      </trkpt>
      <trkpt lat="34.56001739948988" lon="-1.861789422109723">
        <ele>819.661376953125</ele>
        <time>2011-04-17T15:58:11Z</time>
      </trkpt>
      <trkpt lat="34.55943058244884" lon="-1.861738627776504">
        <ele>818.699951171875</ele>
        <time>2011-04-17T15:58:21Z</time>
      </trkpt>
      <trkpt lat="34.558851895853877" lon="-1.861905762925744">
        <ele>821.103271484375</ele>
        <time>2011-04-17T15:58:31Z</time>
      </trkpt>
      <trkpt lat="34.558259882032871" lon="-1.862075328826904">
        <ele>818.21923828125</ele>
        <time>2011-04-17T15:58:43Z</time>
      </trkpt>
      <trkpt lat="34.557867776602507" lon="-1.862217066809535">
        <ele>815.816162109375</ele>
        <time>2011-04-17T15:58:51Z</time>
      </trkpt>
      <trkpt lat="34.557612547650933" lon="-1.86212302185595">
        <ele>821.103271484375</ele>
        <time>2011-04-17T15:58:58Z</time>
      </trkpt>
      <trkpt lat="34.557442143559456" lon="-1.862017326056957">
        <ele>825.428955078125</ele>
        <time>2011-04-17T15:59:02Z</time>
      </trkpt>
      <trkpt lat="34.557193368673325" lon="-1.861974243074656">
        <ele>827.351806640625</ele>
        <time>2011-04-17T15:59:07Z</time>
      </trkpt>
      <trkpt lat="34.556714175269008" lon="-1.86197298578918">
        <ele>830.23583984375</ele>
        <time>2011-04-17T15:59:16Z</time>
      </trkpt>
      <trkpt lat="34.556221067905426" lon="-1.861891765147448">
        <ele>831.197265625</ele>
        <time>2011-04-17T15:59:27Z</time>
      </trkpt>
      <trkpt lat="34.555519418790936" lon="-1.861785147339106">
        <ele>838.8876953125</ele>
        <time>2011-04-17T15:59:41Z</time>
      </trkpt>
      <trkpt lat="34.555221358314157" lon="-1.861738124862313">
        <ele>840.81005859375</ele>
        <time>2011-04-17T15:59:47Z</time>
      </trkpt>
      <trkpt lat="34.555029580369592" lon="-1.86176679097116">
        <ele>840.32958984375</ele>
        <time>2011-04-17T15:59:51Z</time>
      </trkpt>
      <trkpt lat="34.554930087178946" lon="-1.861765617504716">
        <ele>840.32958984375</ele>
        <time>2011-04-17T15:59:53Z</time>
      </trkpt>
      <trkpt lat="34.554656837135553" lon="-1.861786739900708">
        <ele>840.81005859375</ele>
        <time>2011-04-17T15:59:58Z</time>
      </trkpt>
      <trkpt lat="34.554416527971625" lon="-1.861746171489358">
        <ele>842.252197265625</ele>
        <time>2011-04-17T16:00:02Z</time>
      </trkpt>
      <trkpt lat="34.554174542427063" lon="-1.861754469573498">
        <ele>841.290771484375</ele>
        <time>2011-04-17T16:00:06Z</time>
      </trkpt>
      <trkpt lat="34.554053423926234" lon="-1.861764779314399">
        <ele>840.81005859375</ele>
        <time>2011-04-17T16:00:08Z</time>
      </trkpt>
      <trkpt lat="34.553878074511886" lon="-1.861793277785182">
        <ele>840.81005859375</ele>
        <time>2011-04-17T16:00:11Z</time>
      </trkpt>
      <trkpt lat="34.553174832835793" lon="-1.861829152330756">
        <ele>841.290771484375</ele>
        <time>2011-04-17T16:00:22Z</time>
      </trkpt>
      <trkpt lat="34.55255507491529" lon="-1.862055296078324">
        <ele>840.81005859375</ele>
        <time>2011-04-17T16:00:33Z</time>
      </trkpt>
      <trkpt lat="34.551576739177108" lon="-1.862435918301344">
        <ele>842.73291015625</ele>
        <time>2011-04-17T16:00:49Z</time>
      </trkpt>
      <trkpt lat="34.551366940140724" lon="-1.862572124227881">
        <ele>842.252197265625</ele>
        <time>2011-04-17T16:00:53Z</time>
      </trkpt>
      <trkpt lat="34.551171977072954" lon="-1.862619146704674">
        <ele>843.694091796875</ele>
        <time>2011-04-17T16:00:57Z</time>
      </trkpt>
      <trkpt lat="34.550962932407856" lon="-1.862630546092987">
        <ele>851.384765625</ele>
        <time>2011-04-17T16:01:01Z</time>
      </trkpt>
      <trkpt lat="34.550405284389853" lon="-1.862819641828537">
        <ele>858.594482421875</ele>
        <time>2011-04-17T16:01:11Z</time>
      </trkpt>
      <trkpt lat="34.549576733261347" lon="-1.863068584352732">
        <ele>863.4013671875</ele>
        <time>2011-04-17T16:01:22Z</time>
      </trkpt>
      <trkpt lat="34.549194937571883" lon="-1.863337475806475">
        <ele>863.4013671875</ele>
        <time>2011-04-17T16:01:28Z</time>
      </trkpt>
      <trkpt lat="34.549001734703779" lon="-1.863487847149372">
        <ele>862.43994140625</ele>
        <time>2011-04-17T16:01:32Z</time>
      </trkpt>
      <trkpt lat="34.548662351444364" lon="-1.863504527136684">
        <ele>865.8046875</ele>
        <time>2011-04-17T16:01:38Z</time>
      </trkpt>
      <trkpt lat="34.54792432487011" lon="-1.863402351737022">
        <ele>871.572265625</ele>
        <time>2011-04-17T16:01:50Z</time>
      </trkpt>
      <trkpt lat="34.547363659366965" lon="-1.863468065857887">
        <ele>876.379150390625</ele>
        <time>2011-04-17T16:02:00Z</time>
      </trkpt>
      <trkpt lat="34.547106334939599" lon="-1.863420624285936">
        <ele>895.124755859375</ele>
        <time>2011-04-17T16:04:14Z</time>
      </trkpt>
      <trkpt lat="34.546926375478506" lon="-1.863280227407813">
        <ele>878.782470703125</ele>
        <time>2011-04-17T16:04:23Z</time>
      </trkpt>
      <trkpt lat="34.546812968328595" lon="-1.863103872165084">
        <ele>863.4013671875</ele>
        <time>2011-04-17T16:04:33Z</time>
      </trkpt>
      <trkpt lat="34.546650862321258" lon="-1.862825844436884">
        <ele>857.63330078125</ele>
        <time>2011-04-17T16:04:43Z</time>
      </trkpt>
      <trkpt lat="34.546410217881203" lon="-1.862489143386483">
        <ele>859.0751953125</ele>
        <time>2011-04-17T16:04:53Z</time>
      </trkpt>
      <trkpt lat="34.546102769672871" lon="-1.862268196418881">
        <ele>862.43994140625</ele>
        <time>2011-04-17T16:05:00Z</time>
      </trkpt>
      <trkpt lat="34.545835135504603" lon="-1.861830744892359">
        <ele>862.920654296875</ele>
        <time>2011-04-17T16:05:07Z</time>
      </trkpt>
      <trkpt lat="34.545561047270894" lon="-1.861576689407229">
        <ele>867.24658203125</ele>
        <time>2011-04-17T16:05:13Z</time>
      </trkpt>
      <trkpt lat="34.545372622087598" lon="-1.861499575898051">
        <ele>870.13037109375</ele>
        <time>2011-04-17T16:05:17Z</time>
      </trkpt>
      <trkpt lat="34.545254437252879" lon="-1.861496642231941">
        <ele>871.091796875</ele>
        <time>2011-04-17T16:05:19Z</time>
      </trkpt>
      <trkpt lat="34.544759234413505" lon="-1.861716751009226">
        <ele>874.456298828125</ele>
        <time>2011-04-17T16:05:27Z</time>
      </trkpt>
      <trkpt lat="34.544412055984139" lon="-1.861784895882011">
        <ele>876.85986328125</ele>
        <time>2011-04-17T16:05:33Z</time>
      </trkpt>
      <trkpt lat="34.544202089309692" lon="-1.861838288605213">
        <ele>877.821044921875</ele>
        <time>2011-04-17T16:05:37Z</time>
      </trkpt>
      <trkpt lat="34.54408273100853" lon="-1.861852370202541">
        <ele>878.3017578125</ele>
        <time>2011-04-17T16:05:39Z</time>
      </trkpt>
      <trkpt lat="34.543818533420563" lon="-1.861921856179833">
        <ele>879.262939453125</ele>
        <time>2011-04-17T16:05:45Z</time>
      </trkpt>
      <trkpt lat="34.543631281703711" lon="-1.861888160929084">
        <ele>881.666259765625</ele>
        <time>2011-04-17T16:05:49Z</time>
      </trkpt>
      <trkpt lat="34.543442772701383" lon="-1.861905679106712">
        <ele>883.5888671875</ele>
        <time>2011-04-17T16:05:53Z</time>
      </trkpt>
      <trkpt lat="34.543144963681698" lon="-1.862011458724737">
        <ele>885.511474609375</ele>
        <time>2011-04-17T16:05:58Z</time>
      </trkpt>
      <trkpt lat="34.542886381968856" lon="-1.862049177289009">
        <ele>889.83740234375</ele>
        <time>2011-04-17T16:06:03Z</time>
      </trkpt>
      <trkpt lat="34.542576922103763" lon="-1.861939541995525">
        <ele>889.83740234375</ele>
        <time>2011-04-17T16:06:09Z</time>
      </trkpt>
      <trkpt lat="34.542392687872052" lon="-1.86200768686831">
        <ele>889.83740234375</ele>
        <time>2011-04-17T16:06:14Z</time>
      </trkpt>
      <trkpt lat="34.54217174090445" lon="-1.862170966342092">
        <ele>891.760009765625</ele>
        <time>2011-04-17T16:06:19Z</time>
      </trkpt>
      <trkpt lat="34.541656756773591" lon="-1.862215222790837">
        <ele>894.64404296875</ele>
        <time>2011-04-17T16:06:27Z</time>
      </trkpt>
      <trkpt lat="34.541420890018344" lon="-1.862130733206868">
        <ele>893.682861328125</ele>
        <time>2011-04-17T16:06:33Z</time>
      </trkpt>
      <trkpt lat="34.541248558089137" lon="-1.862168619409204">
        <ele>894.16357421875</ele>
        <time>2011-04-17T16:06:38Z</time>
      </trkpt>
      <trkpt lat="34.541123080998659" lon="-1.862316560000181">
        <ele>896.56689453125</ele>
        <time>2011-04-17T16:06:42Z</time>
      </trkpt>
      <trkpt lat="34.540908252820373" lon="-1.862365761771798">
        <ele>898.4892578125</ele>
        <time>2011-04-17T16:06:47Z</time>
      </trkpt>
      <trkpt lat="34.540608264505863" lon="-1.862242966890335">
        <ele>897.528076171875</ele>
        <time>2011-04-17T16:06:53Z</time>
      </trkpt>
      <trkpt lat="34.540252285078168" lon="-1.861985139548779">
        <ele>898.0087890625</ele>
        <time>2011-04-17T16:07:00Z</time>
      </trkpt>
      <trkpt lat="34.540041144937277" lon="-1.861922359094024">
        <ele>900.412109375</ele>
        <time>2011-04-17T16:07:04Z</time>
      </trkpt>
      <trkpt lat="34.539380064234138" lon="-1.861531594768167">
        <ele>905.218505859375</ele>
        <time>2011-04-17T16:07:16Z</time>
      </trkpt>
      <trkpt lat="34.538897518068552" lon="-1.861342247575522">
        <ele>908.583251953125</ele>
        <time>2011-04-17T16:07:24Z</time>
      </trkpt>
      <trkpt lat="34.538486720994115" lon="-1.861100764945149">
        <ele>910.505859375</ele>
        <time>2011-04-17T16:07:33Z</time>
      </trkpt>
      <trkpt lat="34.538138872012496" lon="-1.860876465216279">
        <ele>912.428466796875</ele>
        <time>2011-04-17T16:07:45Z</time>
      </trkpt>
      <trkpt lat="34.538046838715672" lon="-1.860878560692072">
        <ele>915.793212890625</ele>
        <time>2011-04-17T16:08:11Z</time>
      </trkpt>
      <trkpt lat="34.538295529782772" lon="-1.860964978113771">
        <ele>913.389892578125</ele>
        <time>2011-04-17T16:08:37Z</time>
      </trkpt>
      <trkpt lat="34.538544472306967" lon="-1.861095735803247">
        <ele>915.793212890625</ele>
        <time>2011-04-17T16:08:47Z</time>
      </trkpt>
      <trkpt lat="34.538774220272899" lon="-1.861204197630286">
        <ele>916.75439453125</ele>
        <time>2011-04-17T16:08:56Z</time>
      </trkpt>
      <trkpt lat="34.539163392037153" lon="-1.861389521509409">
        <ele>915.793212890625</ele>
        <time>2011-04-17T16:09:05Z</time>
      </trkpt>
      <trkpt lat="34.539720369502902" lon="-1.861634021624923">
        <ele>911.46728515625</ele>
        <time>2011-04-17T16:09:16Z</time>
      </trkpt>
      <trkpt lat="34.54033937305212" lon="-1.861910792067647">
        <ele>905.218505859375</ele>
        <time>2011-04-17T16:09:29Z</time>
      </trkpt>
      <trkpt lat="34.540512375533581" lon="-1.861968459561467">
        <ele>902.815185546875</ele>
        <time>2011-04-17T16:09:36Z</time>
      </trkpt>
      <trkpt lat="34.540536347776651" lon="-1.862314632162452">
        <ele>900.892578125</ele>
        <time>2011-04-17T16:09:52Z</time>
      </trkpt>
      <trkpt lat="34.540366530418396" lon="-1.862532058730722">
        <ele>898.969970703125</ele>
        <time>2011-04-17T16:09:58Z</time>
      </trkpt>
      <trkpt lat="34.540190594270825" lon="-1.862616129219532">
        <ele>897.04736328125</ele>
        <time>2011-04-17T16:10:02Z</time>
      </trkpt>
      <trkpt lat="34.539704360067844" lon="-1.86301477253437">
        <ele>894.64404296875</ele>
        <time>2011-04-17T16:10:13Z</time>
      </trkpt>
      <trkpt lat="34.539155932143331" lon="-1.863503353670239">
        <ele>893.682861328125</ele>
        <time>2011-04-17T16:10:26Z</time>
      </trkpt>
      <trkpt lat="34.539066161960363" lon="-1.863623466342688">
        <ele>892.240966796875</ele>
        <time>2011-04-17T16:10:29Z</time>
      </trkpt>
      <trkpt lat="34.538995418697596" lon="-1.863838881254196">
        <ele>890.318115234375</ele>
        <time>2011-04-17T16:10:33Z</time>
      </trkpt>
      <trkpt lat="34.538903050124645" lon="-1.864124368876219">
        <ele>888.876220703125</ele>
        <time>2011-04-17T16:10:40Z</time>
      </trkpt>
      <trkpt lat="34.53871856443584" lon="-1.864489652216435">
        <ele>887.43408203125</ele>
        <time>2011-04-17T16:10:49Z</time>
      </trkpt>
      <trkpt lat="34.538554782047868" lon="-1.864674054086208">
        <ele>889.83740234375</ele>
        <time>2011-04-17T16:10:54Z</time>
      </trkpt>
      <trkpt lat="34.538408685475588" lon="-1.864764746278524">
        <ele>892.240966796875</ele>
        <time>2011-04-17T16:10:57Z</time>
      </trkpt>
      <trkpt lat="34.537783060222864" lon="-1.864955937489867">
        <ele>898.4892578125</ele>
        <time>2011-04-17T16:11:08Z</time>
      </trkpt>
      <trkpt lat="34.537502266466618" lon="-1.8650664947927">
        <ele>901.373291015625</ele>
        <time>2011-04-17T16:11:14Z</time>
      </trkpt>
      <trkpt lat="34.537343932315707" lon="-1.865173783153296">
        <ele>903.2958984375</ele>
        <time>2011-04-17T16:11:18Z</time>
      </trkpt>
      <trkpt lat="34.537133378908038" lon="-1.865250896662474">
        <ele>904.73779296875</ele>
        <time>2011-04-17T16:11:24Z</time>
      </trkpt>
      <trkpt lat="34.536531222984195" lon="-1.86555365100503">
        <ele>911.46728515625</ele>
        <time>2011-04-17T16:11:40Z</time>
      </trkpt>
      <trkpt lat="34.536179434508085" lon="-1.865700921043754">
        <ele>915.3125</ele>
        <time>2011-04-17T16:11:48Z</time>
      </trkpt>
      <trkpt lat="34.536255542188883" lon="-1.866054050624371">
        <ele>916.273681640625</ele>
        <time>2011-04-17T16:12:00Z</time>
      </trkpt>
      <trkpt lat="34.536305665969849" lon="-1.866224119439721">
        <ele>917.715576171875</ele>
        <time>2011-04-17T16:12:03Z</time>
      </trkpt>
      <trkpt lat="34.536289740353823" lon="-1.866520419716835">
        <ele>920.599609375</ele>
        <time>2011-04-17T16:12:08Z</time>
      </trkpt>
      <trkpt lat="34.536240287125111" lon="-1.866725943982601">
        <ele>922.04150390625</ele>
        <time>2011-04-17T16:12:13Z</time>
      </trkpt>
      <trkpt lat="34.536437764763832" lon="-1.866820491850376">
        <ele>923.483642578125</ele>
        <time>2011-04-17T16:12:20Z</time>
      </trkpt>
      <trkpt lat="34.536653598770499" lon="-1.867027943953872">
        <ele>924.92578125</ele>
        <time>2011-04-17T16:12:25Z</time>
      </trkpt>
      <trkpt lat="34.53667706809938" lon="-1.867262134328485">
        <ele>925.886962890625</ele>
        <time>2011-04-17T16:12:28Z</time>
      </trkpt>
      <trkpt lat="34.536680756136775" lon="-1.867585340514779">
        <ele>928.290283203125</ele>
        <time>2011-04-17T16:12:35Z</time>
      </trkpt>
      <trkpt lat="34.536875383928418" lon="-1.867808969691396">
        <ele>930.693603515625</ele>
        <time>2011-04-17T16:12:42Z</time>
      </trkpt>
      <trkpt lat="34.537286181002855" lon="-1.868044417351484">
        <ele>933.577392578125</ele>
        <time>2011-04-17T16:12:50Z</time>
      </trkpt>
      <trkpt lat="34.537389362230897" lon="-1.86811457388103">
        <ele>934.538818359375</ele>
        <time>2011-04-17T16:12:56Z</time>
      </trkpt>
      <trkpt lat="34.537483993917704" lon="-1.868225550279021">
        <ele>935.980712890625</ele>
        <time>2011-04-17T16:13:41Z</time>
      </trkpt>
      <trkpt lat="34.537813570350409" lon="-1.868468960747123">
        <ele>936.94189453125</ele>
        <time>2011-04-17T16:13:48Z</time>
      </trkpt>
      <trkpt lat="34.538105763494968" lon="-1.868802979588509">
        <ele>938.86474609375</ele>
        <time>2011-04-17T16:13:55Z</time>
      </trkpt>
      <trkpt lat="34.538272395730019" lon="-1.868936587125063">
        <ele>939.825927734375</ele>
        <time>2011-04-17T16:13:58Z</time>
      </trkpt>
      <trkpt lat="34.538565091788769" lon="-1.869087796658278">
        <ele>941.748779296875</ele>
        <time>2011-04-17T16:14:03Z</time>
      </trkpt>
      <trkpt lat="34.53905425965786" lon="-1.869550896808505">
        <ele>944.632568359375</ele>
        <time>2011-04-17T16:14:11Z</time>
      </trkpt>
      <trkpt lat="34.539660941809416" lon="-1.870019864290953">
        <ele>947.997314453125</ele>
        <time>2011-04-17T16:14:20Z</time>
      </trkpt>
      <trkpt lat="34.540487146005034" lon="-1.870453543961048">
        <ele>952.322998046875</ele>
        <time>2011-04-17T16:14:30Z</time>
      </trkpt>
      <trkpt lat="34.540997017174959" lon="-1.870993254706264">
        <ele>955.687744140625</ele>
        <time>2011-04-17T16:14:38Z</time>
      </trkpt>
      <trkpt lat="34.54125895164907" lon="-1.871624663472176">
        <ele>957.610595703125</ele>
        <time>2011-04-17T16:14:45Z</time>
      </trkpt>
      <trkpt lat="34.54132785089314" lon="-1.872623953968287">
        <ele>962.897705078125</ele>
        <time>2011-04-17T16:14:56Z</time>
      </trkpt>
      <trkpt lat="34.541207235306501" lon="-1.873181937262416">
        <ele>967.2236328125</ele>
        <time>2011-04-17T16:15:02Z</time>
      </trkpt>
      <trkpt lat="34.540823427960277" lon="-1.873569432646036">
        <ele>971.54931640625</ele>
        <time>2011-04-17T16:15:09Z</time>
      </trkpt>
      <trkpt lat="34.540072493255138" lon="-1.87397419475019">
        <ele>979.239990234375</ele>
        <time>2011-04-17T16:15:20Z</time>
      </trkpt>
      <trkpt lat="34.539735959842801" lon="-1.87407192774117">
        <ele>981.643310546875</ele>
        <time>2011-04-17T16:15:25Z</time>
      </trkpt>
      <trkpt lat="34.539239248260856" lon="-1.874014595523477">
        <ele>985.488525390625</ele>
        <time>2011-04-17T16:15:32Z</time>
      </trkpt>
      <trkpt lat="34.538463838398457" lon="-1.874020965769887">
        <ele>993.659912109375</ele>
        <time>2011-04-17T16:15:43Z</time>
      </trkpt>
      <trkpt lat="34.538311623036861" lon="-1.874013673514128">
        <ele>994.62109375</ele>
        <time>2011-04-17T16:15:45Z</time>
      </trkpt>
      <trkpt lat="34.537863442674279" lon="-1.873888783156872">
        <ele>998.947021484375</ele>
        <time>2011-04-17T16:15:51Z</time>
      </trkpt>
      <trkpt lat="34.53773645684123" lon="-1.874060947448015">
        <ele>1000.86962890625</ele>
        <time>2011-04-17T16:15:56Z</time>
      </trkpt>
      <trkpt lat="34.537868723273277" lon="-1.874367473646998">
        <ele>1002.792236328125</ele>
        <time>2011-04-17T16:16:00Z</time>
      </trkpt>
      <trkpt lat="34.53814348205924" lon="-1.874805176630616">
        <ele>1006.6376953125</ele>
        <time>2011-04-17T16:16:05Z</time>
      </trkpt>
      <trkpt lat="34.538222271949053" lon="-1.87520214356482">
        <ele>1010.48291015625</ele>
        <time>2011-04-17T16:16:10Z</time>
      </trkpt>
      <trkpt lat="34.538038540631533" lon="-1.87523927539587">
        <ele>1011.925048828125</ele>
        <time>2011-04-17T16:16:14Z</time>
      </trkpt>
      <trkpt lat="34.537520287558436" lon="-1.874810541048646">
        <ele>1014.328125</ele>
        <time>2011-04-17T16:16:24Z</time>
      </trkpt>
      <trkpt lat="34.537328677251935" lon="-1.874651284888387">
        <ele>1014.808837890625</ele>
        <time>2011-04-17T16:16:27Z</time>
      </trkpt>
      <trkpt lat="34.537103958427906" lon="-1.87431332655251">
        <ele>1016.7314453125</ele>
        <time>2011-04-17T16:16:33Z</time>
      </trkpt>
      <trkpt lat="34.536856692284346" lon="-1.87416672706604">
        <ele>1019.615478515625</ele>
        <time>2011-04-17T16:16:38Z</time>
      </trkpt>
      <trkpt lat="34.536223020404577" lon="-1.874181898310781">
        <ele>1026.825439453125</ele>
        <time>2011-04-17T16:16:48Z</time>
      </trkpt>
      <trkpt lat="34.535819431766868" lon="-1.874483898282051">
        <ele>1029.228515625</ele>
        <time>2011-04-17T16:16:55Z</time>
      </trkpt>
      <trkpt lat="34.53563779592514" lon="-1.874732589349151">
        <ele>1032.112548828125</ele>
        <time>2011-04-17T16:16:59Z</time>
      </trkpt>
      <trkpt lat="34.535380722954869" lon="-1.874784389510751">
        <ele>1034.03515625</ele>
        <time>2011-04-17T16:17:04Z</time>
      </trkpt>
      <trkpt lat="34.53522783704102" lon="-1.874675760045648">
        <ele>1034.99658203125</ele>
        <time>2011-04-17T16:17:07Z</time>
      </trkpt>
      <trkpt lat="34.53490337356925" lon="-1.874590096995235">
        <ele>1034.515869140625</ele>
        <time>2011-04-17T16:17:13Z</time>
      </trkpt>
      <trkpt lat="34.534493330866098" lon="-1.874757064506412">
        <ele>1032.112548828125</ele>
        <time>2011-04-17T16:17:21Z</time>
      </trkpt>
      <trkpt lat="34.533867035061121" lon="-1.874882960692048">
        <ele>1025.864013671875</ele>
        <time>2011-04-17T16:17:33Z</time>
      </trkpt>
      <trkpt lat="34.533445760607719" lon="-1.874928725883365">
        <ele>1021.5380859375</ele>
        <time>2011-04-17T16:17:43Z</time>
      </trkpt>
      <trkpt lat="34.53286967240274" lon="-1.8751703761518">
        <ele>1014.328125</ele>
        <time>2011-04-17T16:17:54Z</time>
      </trkpt>
      <trkpt lat="34.53231118619442" lon="-1.875584442168474">
        <ele>1007.118408203125</ele>
        <time>2011-04-17T16:18:05Z</time>
      </trkpt>
      <trkpt lat="34.531645579263568" lon="-1.876375777646899">
        <ele>998.947021484375</ele>
        <time>2011-04-17T16:18:20Z</time>
      </trkpt>
      <trkpt lat="34.531480958685279" lon="-1.8765898514539">
        <ele>996.5439453125</ele>
        <time>2011-04-17T16:18:24Z</time>
      </trkpt>
      <trkpt lat="34.531060438603163" lon="-1.876967120915651">
        <ele>993.659912109375</ele>
        <time>2011-04-17T16:18:32Z</time>
      </trkpt>
      <trkpt lat="34.530673278495669" lon="-1.877605067566037">
        <ele>986.930419921875</ele>
        <time>2011-04-17T16:18:43Z</time>
      </trkpt>
      <trkpt lat="34.530325178056955" lon="-1.878283582627773">
        <ele>979.720703125</ele>
        <time>2011-04-17T16:18:53Z</time>
      </trkpt>
      <trkpt lat="34.53006399795413" lon="-1.878639478236437">
        <ele>977.798095703125</ele>
        <time>2011-04-17T16:19:00Z</time>
      </trkpt>
      <trkpt lat="34.529792675748467" lon="-1.878684069961309">
        <ele>976.8369140625</ele>
        <time>2011-04-17T16:19:07Z</time>
      </trkpt>
      <trkpt lat="34.529278362169862" lon="-1.878929659724236">
        <ele>975.87548828125</ele>
        <time>2011-04-17T16:19:17Z</time>
      </trkpt>
      <trkpt lat="34.52816616743803" lon="-1.879183379933238">
        <ele>977.798095703125</ele>
        <time>2011-04-17T16:19:32Z</time>
      </trkpt>
      <trkpt lat="34.527786131948233" lon="-1.87924163416028">
        <ele>977.798095703125</ele>
        <time>2011-04-17T16:19:38Z</time>
      </trkpt>
      <trkpt lat="34.527330743148923" lon="-1.879191426560283">
        <ele>980.201416015625</ele>
        <time>2011-04-17T16:19:45Z</time>
      </trkpt>
      <trkpt lat="34.526864122599363" lon="-1.879303157329559">
        <ele>981.162841796875</ele>
        <time>2011-04-17T16:19:53Z</time>
      </trkpt>
      <trkpt lat="34.526199186220765" lon="-1.879588225856423">
        <ele>985.488525390625</ele>
        <time>2011-04-17T16:20:03Z</time>
      </trkpt>
      <trkpt lat="34.526091646403074" lon="-1.879716049879789">
        <ele>987.891845703125</ele>
        <time>2011-04-17T16:20:09Z</time>
      </trkpt>
      <trkpt lat="34.525987794622779" lon="-1.87993255443871">
        <ele>989.333984375</ele>
        <time>2011-04-17T16:20:15Z</time>
      </trkpt>
      <trkpt lat="34.525923924520612" lon="-1.880035987123847">
        <ele>990.29541015625</ele>
        <time>2011-04-17T16:20:17Z</time>
      </trkpt>
      <trkpt lat="34.525629468262196" lon="-1.880265651270747">
        <ele>994.140625</ele>
        <time>2011-04-17T16:20:24Z</time>
      </trkpt>
      <trkpt lat="34.525256892666221" lon="-1.880340250208974">
        <ele>997.0244140625</ele>
        <time>2011-04-17T16:20:30Z</time>
      </trkpt>
      <trkpt lat="34.52508338727057" lon="-1.880339328199625">
        <ele>998.947021484375</ele>
        <time>2011-04-17T16:20:33Z</time>
      </trkpt>
      <trkpt lat="34.524929579347372" lon="-1.880528423935175">
        <ele>1000.38916015625</ele>
        <time>2011-04-17T16:20:39Z</time>
      </trkpt>
      <trkpt lat="34.525079531595111" lon="-1.881329733878374">
        <ele>1005.19580078125</ele>
        <time>2011-04-17T16:20:51Z</time>
      </trkpt>
      <trkpt lat="34.525256641209126" lon="-1.881825942546129">
        <ele>1009.041015625</ele>
        <time>2011-04-17T16:21:00Z</time>
      </trkpt>
      <trkpt lat="34.525543637573719" lon="-1.882432289421558">
        <ele>1013.847412109375</ele>
        <time>2011-04-17T16:21:11Z</time>
      </trkpt>
      <trkpt lat="34.525693086907268" lon="-1.882744263857603">
        <ele>1016.7314453125</ele>
        <time>2011-04-17T16:21:16Z</time>
      </trkpt>
      <trkpt lat="34.525808757171035" lon="-1.883188169449568">
        <ele>1018.17333984375</ele>
        <time>2011-04-17T16:21:24Z</time>
      </trkpt>
      <trkpt lat="34.525682274252176" lon="-1.883380198851228">
        <ele>1019.615478515625</ele>
        <time>2011-04-17T16:21:30Z</time>
      </trkpt>
      <trkpt lat="34.525458980351686" lon="-1.883290261030197">
        <ele>1022.018798828125</ele>
        <time>2011-04-17T16:21:35Z</time>
      </trkpt>
      <trkpt lat="34.525299724191427" lon="-1.883133938536048">
        <ele>1023.4609375</ele>
        <time>2011-04-17T16:21:39Z</time>
      </trkpt>
      <trkpt lat="34.525122446939349" lon="-1.882924474775791">
        <ele>1024.422119140625</ele>
        <time>2011-04-17T16:21:44Z</time>
      </trkpt>
      <trkpt lat="34.524747440591455" lon="-1.882680058479309">
        <ele>1026.825439453125</ele>
        <time>2011-04-17T16:21:51Z</time>
      </trkpt>
      <trkpt lat="34.524526158347726" lon="-1.882652146741748">
        <ele>1028.748046875</ele>
        <time>2011-04-17T16:21:55Z</time>
      </trkpt>
      <trkpt lat="34.524187864735723" lon="-1.882672095671296">
        <ele>1031.1513671875</ele>
        <time>2011-04-17T16:22:01Z</time>
      </trkpt>
      <trkpt lat="34.523907238617539" lon="-1.882803859189153">
        <ele>1034.03515625</ele>
        <time>2011-04-17T16:22:06Z</time>
      </trkpt>
      <trkpt lat="34.523724764585495" lon="-1.882944339886308">
        <ele>1035.957763671875</ele>
        <time>2011-04-17T16:22:09Z</time>
      </trkpt>
      <trkpt lat="34.52307952567935" lon="-1.88311985693872">
        <ele>1041.2451171875</ele>
        <time>2011-04-17T16:22:18Z</time>
      </trkpt>
      <trkpt lat="34.522251896560192" lon="-1.883284728974104">
        <ele>1039.80322265625</ele>
        <time>2011-04-17T16:22:29Z</time>
      </trkpt>
      <trkpt lat="34.521856186911464" lon="-1.883408026769757">
        <ele>1039.322509765625</ele>
        <time>2011-04-17T16:22:34Z</time>
      </trkpt>
      <trkpt lat="34.52137908898294" lon="-1.883420683443546">
        <ele>1037.39990234375</ele>
        <time>2011-04-17T16:22:41Z</time>
      </trkpt>
      <trkpt lat="34.521131571382284" lon="-1.883172830566764">
        <ele>1034.99658203125</ele>
        <time>2011-04-17T16:22:48Z</time>
      </trkpt>
      <trkpt lat="34.521145652979612" lon="-1.882976023480296">
        <ele>1033.554443359375</ele>
        <time>2011-04-17T16:22:51Z</time>
      </trkpt>
      <trkpt lat="34.521003747358918" lon="-1.882209330797195">
        <ele>1029.228515625</ele>
        <time>2011-04-17T16:23:01Z</time>
      </trkpt>
      <trkpt lat="34.520819596946239" lon="-1.88175025396049">
        <ele>1027.30615234375</ele>
        <time>2011-04-17T16:23:07Z</time>
      </trkpt>
      <trkpt lat="34.520617257803679" lon="-1.881468957290053">
        <ele>1025.38330078125</ele>
        <time>2011-04-17T16:23:15Z</time>
      </trkpt>
      <trkpt lat="34.52050594612956" lon="-1.881595440208912">
        <ele>1023.4609375</ele>
        <time>2011-04-17T16:23:22Z</time>
      </trkpt>
      <trkpt lat="34.520112918689847" lon="-1.881937086582184">
        <ele>1017.692626953125</ele>
        <time>2011-04-17T16:28:56Z</time>
      </trkpt>
      <trkpt lat="34.519575722515583" lon="-1.881897691637278">
        <ele>1016.7314453125</ele>
        <time>2011-04-17T16:29:07Z</time>
      </trkpt>
      <trkpt lat="34.519435660913587" lon="-1.881830133497715">
        <ele>1017.212158203125</ele>
        <time>2011-04-17T16:29:10Z</time>
      </trkpt>
      <trkpt lat="34.519224772229791" lon="-1.881779842078686">
        <ele>1017.692626953125</ele>
        <time>2011-04-17T16:29:17Z</time>
      </trkpt>
      <trkpt lat="34.518778352066875" lon="-1.882306141778827">
        <ele>1014.328125</ele>
        <time>2011-04-17T16:29:27Z</time>
      </trkpt>
      <trkpt lat="34.518145266920328" lon="-1.882885750383139">
        <ele>1008.079833984375</ele>
        <time>2011-04-17T16:29:39Z</time>
      </trkpt>
      <trkpt lat="34.51726826839149" lon="-1.883471226319671">
        <ele>1000.86962890625</ele>
        <time>2011-04-17T16:29:52Z</time>
      </trkpt>
      <trkpt lat="34.516394957900047" lon="-1.883961483836174">
        <ele>993.17919921875</ele>
        <time>2011-04-17T16:30:05Z</time>
      </trkpt>
      <trkpt lat="34.515908388420939" lon="-1.884163822978735">
        <ele>987.891845703125</ele>
        <time>2011-04-17T16:30:12Z</time>
      </trkpt>
      <trkpt lat="34.515161896124482" lon="-1.884251246228814">
        <ele>980.201416015625</ele>
        <time>2011-04-17T16:30:23Z</time>
      </trkpt>
      <trkpt lat="34.515042873099446" lon="-1.884256945922971">
        <ele>978.759521484375</ele>
        <time>2011-04-17T16:30:25Z</time>
      </trkpt>
      <trkpt lat="34.514374583959579" lon="-1.884189052507281">
        <ele>974.914306640625</ele>
        <time>2011-04-17T16:30:35Z</time>
      </trkpt>
      <trkpt lat="34.513780977576971" lon="-1.884078159928322">
        <ele>973.472412109375</ele>
        <time>2011-04-17T16:30:45Z</time>
      </trkpt>
      <trkpt lat="34.513646028935909" lon="-1.884104562923312">
        <ele>973.952880859375</ele>
        <time>2011-04-17T16:30:50Z</time>
      </trkpt>
      <trkpt lat="34.513265825808048" lon="-1.884265830740333">
        <ele>971.06884765625</ele>
        <time>2011-04-17T16:31:00Z</time>
      </trkpt>
      <trkpt lat="34.513095337897539" lon="-1.884364066645503">
        <ele>970.107421875</ele>
        <time>2011-04-17T16:31:05Z</time>
      </trkpt>
      <trkpt lat="34.513037838041782" lon="-1.884451238438487">
        <ele>968.184814453125</ele>
        <time>2011-04-17T16:31:07Z</time>
      </trkpt>
      <trkpt lat="34.51293071731925" lon="-1.884717531502247">
        <ele>967.2236328125</ele>
        <time>2011-04-17T16:31:12Z</time>
      </trkpt>
      <trkpt lat="34.51297958381474" lon="-1.885100333020091">
        <ele>967.2236328125</ele>
        <time>2011-04-17T16:31:22Z</time>
      </trkpt>
      <trkpt lat="34.512883946299553" lon="-1.885772477835417">
        <ele>969.146240234375</ele>
        <time>2011-04-17T16:31:30Z</time>
      </trkpt>
      <trkpt lat="34.512751344591379" lon="-1.885776920244098">
        <ele>970.588134765625</ele>
        <time>2011-04-17T16:31:36Z</time>
      </trkpt>
      <trkpt lat="34.512635674327612" lon="-1.884863963350654">
        <ele>974.914306640625</ele>
        <time>2011-04-17T16:31:46Z</time>
      </trkpt>
      <trkpt lat="34.512227391824126" lon="-1.884583253413439">
        <ele>978.759521484375</ele>
        <time>2011-04-17T16:31:55Z</time>
      </trkpt>
      <trkpt lat="34.51210199855268" lon="-1.884497087448835">
        <ele>979.720703125</ele>
        <time>2011-04-17T16:31:58Z</time>
      </trkpt>
      <trkpt lat="34.511684328317642" lon="-1.884209923446178">
        <ele>982.604736328125</ele>
        <time>2011-04-17T16:32:08Z</time>
      </trkpt>
      <trkpt lat="34.511544350534678" lon="-1.884113699197769">
        <ele>983.085205078125</ele>
        <time>2011-04-17T16:32:11Z</time>
      </trkpt>
      <trkpt lat="34.510824680328369" lon="-1.883618831634522">
        <ele>986.449951171875</ele>
        <time>2011-04-17T16:32:24Z</time>
      </trkpt>
      <trkpt lat="34.510396029800177" lon="-1.883488493040204">
        <ele>989.333984375</ele>
        <time>2011-04-17T16:32:32Z</time>
      </trkpt>
      <trkpt lat="34.509892696514726" lon="-1.882258616387844">
        <ele>995.58251953125</ele>
        <time>2011-04-17T16:32:43Z</time>
      </trkpt>
      <trkpt lat="34.50934368185699" lon="-1.881917472928762">
        <ele>1003.753662109375</ele>
        <time>2011-04-17T16:32:51Z</time>
      </trkpt>
      <trkpt lat="34.508491745218635" lon="-1.881610946729779">
        <ele>1009.041015625</ele>
        <time>2011-04-17T16:33:02Z</time>
      </trkpt>
      <trkpt lat="34.50740234926343" lon="-1.881372230127454">
        <ele>1014.328125</ele>
        <time>2011-04-17T16:33:14Z</time>
      </trkpt>
      <trkpt lat="34.506464162841439" lon="-1.881232922896743">
        <ele>1019.134765625</ele>
        <time>2011-04-17T16:33:24Z</time>
      </trkpt>
      <trkpt lat="34.505681879818439" lon="-1.881057573482394">
        <ele>1021.5380859375</ele>
        <time>2011-04-17T16:33:33Z</time>
      </trkpt>
      <trkpt lat="34.505432937294245" lon="-1.881028823554516">
        <ele>1021.5380859375</ele>
        <time>2011-04-17T16:33:36Z</time>
      </trkpt>
      <trkpt lat="34.504916947335005" lon="-1.880891527980566">
        <ele>1023.4609375</ele>
        <time>2011-04-17T16:33:42Z</time>
      </trkpt>
      <trkpt lat="34.50444957241416" lon="-1.880576368421316">
        <ele>1025.38330078125</ele>
        <time>2011-04-17T16:33:48Z</time>
      </trkpt>
      <trkpt lat="34.50374255888164" lon="-1.88019834458828">
        <ele>1033.554443359375</ele>
        <time>2011-04-17T16:33:57Z</time>
      </trkpt>
      <trkpt lat="34.503072593361139" lon="-1.879879329353571">
        <ele>1042.687255859375</ele>
        <time>2011-04-17T16:34:06Z</time>
      </trkpt>
      <trkpt lat="34.502293998375535" lon="-1.8796032294631">
        <ele>1051.819580078125</ele>
        <time>2011-04-17T16:34:18Z</time>
      </trkpt>
      <trkpt lat="34.502191822975874" lon="-1.879581855610013">
        <ele>1052.781005859375</ele>
        <time>2011-04-17T16:34:20Z</time>
      </trkpt>
      <trkpt lat="34.501515487208962" lon="-1.87955386005342">
        <ele>1053.742431640625</ele>
        <time>2011-04-17T16:34:30Z</time>
      </trkpt>
      <trkpt lat="34.500767150893807" lon="-1.879524858668447">
        <ele>1059.029541015625</ele>
        <time>2011-04-17T16:34:41Z</time>
      </trkpt>
      <trkpt lat="34.500516029074788" lon="-1.879615969955921">
        <ele>1062.39404296875</ele>
        <time>2011-04-17T16:34:46Z</time>
      </trkpt>
      <trkpt lat="34.500058041885495" lon="-1.880347542464733">
        <ele>1060.9521484375</ele>
        <time>2011-04-17T16:34:54Z</time>
      </trkpt>
      <trkpt lat="34.499801890924573" lon="-1.87989542260766">
        <ele>1057.10693359375</ele>
        <time>2011-04-17T16:35:10Z</time>
      </trkpt>
      <trkpt lat="34.499649340286851" lon="-1.879863487556577">
        <ele>1055.6650390625</ele>
        <time>2011-04-17T16:35:18Z</time>
      </trkpt>
      <trkpt lat="34.499430824071169" lon="-1.879833899438381">
        <ele>1052.30029296875</ele>
        <time>2011-04-17T16:35:29Z</time>
      </trkpt>
      <trkpt lat="34.49931263923645" lon="-1.879822667688131">
        <ele>1051.819580078125</ele>
        <time>2011-04-17T16:35:38Z</time>
      </trkpt>
      <trkpt lat="34.499006783589721" lon="-1.87976835295558">
        <ele>1049.416259765625</ele>
        <time>2011-04-17T16:35:47Z</time>
      </trkpt>
      <trkpt lat="34.498604284599423" lon="-1.879636086523533">
        <ele>1046.532470703125</ele>
        <time>2011-04-17T16:35:59Z</time>
      </trkpt>
      <trkpt lat="34.498014030978084" lon="-1.879849657416344">
        <ele>1045.09033203125</ele>
        <time>2011-04-17T16:36:11Z</time>
      </trkpt>
      <trkpt lat="34.497415730729699" lon="-1.879703728482127">
        <ele>1041.725830078125</ele>
        <time>2011-04-17T16:36:23Z</time>
      </trkpt>
      <trkpt lat="34.497039215639234" lon="-1.879611862823367">
        <ele>1040.283935546875</ele>
        <time>2011-04-17T16:36:30Z</time>
      </trkpt>
      <trkpt lat="34.496710225939751" lon="-1.878729667514563">
        <ele>1037.880615234375</ele>
        <time>2011-04-17T16:36:38Z</time>
      </trkpt>
      <trkpt lat="34.496059371158481" lon="-1.878390116617084">
        <ele>1034.99658203125</ele>
        <time>2011-04-17T16:36:48Z</time>
      </trkpt>
      <trkpt lat="34.495087489485741" lon="-1.878018882125616">
        <ele>1030.18994140625</ele>
        <time>2011-04-17T16:36:59Z</time>
      </trkpt>
      <trkpt lat="34.493782762438059" lon="-1.877522924914956">
        <ele>1025.864013671875</ele>
        <time>2011-04-17T16:37:11Z</time>
      </trkpt>
      <trkpt lat="34.492425145581365" lon="-1.877623591572046">
        <ele>1022.49951171875</ele>
        <time>2011-04-17T16:37:22Z</time>
      </trkpt>
      <trkpt lat="34.491566168144345" lon="-1.877223523333669">
        <ele>1020.09619140625</ele>
        <time>2011-04-17T16:37:32Z</time>
      </trkpt>
      <trkpt lat="34.490667628124356" lon="-1.876932084560394">
        <ele>1018.17333984375</ele>
        <time>2011-04-17T16:37:41Z</time>
      </trkpt>
      <trkpt lat="34.489674204960465" lon="-1.876645423471928">
        <ele>1014.808837890625</ele>
        <time>2011-04-17T16:37:50Z</time>
      </trkpt>
      <trkpt lat="34.488700982183218" lon="-1.875898260623217">
        <ele>1012.88623046875</ele>
        <time>2011-04-17T16:38:01Z</time>
      </trkpt>
      <trkpt lat="34.488175939768553" lon="-1.875204658135772">
        <ele>1010.48291015625</ele>
        <time>2011-04-17T16:38:10Z</time>
      </trkpt>
      <trkpt lat="34.487649891525507" lon="-1.875395933166146">
        <ele>1010.002197265625</ele>
        <time>2011-04-17T16:38:16Z</time>
      </trkpt>
      <trkpt lat="34.487422490492463" lon="-1.875337259843946">
        <ele>1011.4443359375</ele>
        <time>2011-04-17T16:38:21Z</time>
      </trkpt>
      <trkpt lat="34.487286955118179" lon="-1.875258469954133">
        <ele>1014.328125</ele>
        <time>2011-04-17T16:38:38Z</time>
      </trkpt>
      <trkpt lat="34.487217217683792" lon="-1.875124862417579">
        <ele>1015.770263671875</ele>
        <time>2011-04-17T16:38:44Z</time>
      </trkpt>
      <trkpt lat="34.487079670652747" lon="-1.874979184940457">
        <ele>1017.212158203125</ele>
        <time>2011-04-17T16:38:53Z</time>
      </trkpt>
      <trkpt lat="34.48676316998899" lon="-1.874688835814595">
        <ele>1019.134765625</ele>
        <time>2011-04-17T16:39:01Z</time>
      </trkpt>
      <trkpt lat="34.486412890255451" lon="-1.874518347904086">
        <ele>1018.654052734375</ele>
        <time>2011-04-17T16:39:11Z</time>
      </trkpt>
      <trkpt lat="34.48624818585813" lon="-1.874560844153166">
        <ele>1019.134765625</ele>
        <time>2011-04-17T16:39:17Z</time>
      </trkpt>
      <trkpt lat="34.486238295212388" lon="-1.874389434233308">
        <ele>1015.28955078125</ele>
        <time>2011-04-17T16:39:44Z</time>
      </trkpt>
      <trkpt lat="34.48646167293191" lon="-1.874512732028961">
        <ele>1015.770263671875</ele>
        <time>2011-04-17T16:39:57Z</time>
      </trkpt>
      <trkpt lat="34.486820669844747" lon="-1.874734098091722">
        <ele>1015.28955078125</ele>
        <time>2011-04-17T16:40:05Z</time>
      </trkpt>
      <trkpt lat="34.486923348158598" lon="-1.874850522726774">
        <ele>1015.28955078125</ele>
        <time>2011-04-17T16:40:08Z</time>
      </trkpt>
      <trkpt lat="34.487076820805669" lon="-1.874074190855026">
        <ele>1015.28955078125</ele>
        <time>2011-04-17T16:40:17Z</time>
      </trkpt>
      <trkpt lat="34.486384056508541" lon="-1.873414115980268">
        <ele>1016.7314453125</ele>
        <time>2011-04-17T16:40:26Z</time>
      </trkpt>
      <trkpt lat="34.48564519174397" lon="-1.872709952294827">
        <ele>1017.212158203125</ele>
        <time>2011-04-17T16:40:35Z</time>
      </trkpt>
      <trkpt lat="34.484914038330317" lon="-1.872013248503208">
        <ele>1015.770263671875</ele>
        <time>2011-04-17T16:40:44Z</time>
      </trkpt>
      <trkpt lat="34.484755787998438" lon="-1.871862541884184">
        <ele>1014.808837890625</ele>
        <time>2011-04-17T16:40:46Z</time>
      </trkpt>
      <trkpt lat="34.483815841376781" lon="-1.87224542722106">
        <ele>1008.079833984375</ele>
        <time>2011-04-17T16:40:54Z</time>
      </trkpt>
      <trkpt lat="34.482841026037931" lon="-1.872591348364949">
        <ele>1006.156982421875</ele>
        <time>2011-04-17T16:41:01Z</time>
      </trkpt>
      <trkpt lat="34.482578840106726" lon="-1.872787736356258">
        <ele>1006.156982421875</ele>
        <time>2011-04-17T16:41:07Z</time>
      </trkpt>
      <trkpt lat="34.482463672757149" lon="-1.87287574633956">
        <ele>1006.6376953125</ele>
        <time>2011-04-17T16:41:14Z</time>
      </trkpt>
      <trkpt lat="34.482431234791875" lon="-1.872653542086482">
        <ele>1007.118408203125</ele>
        <time>2011-04-17T16:41:25Z</time>
      </trkpt>
      <trkpt lat="34.482814120128751" lon="-1.872035460546613">
        <ele>1005.19580078125</ele>
        <time>2011-04-17T16:41:35Z</time>
      </trkpt>
      <trkpt lat="34.482917385175824" lon="-1.871813256293535">
        <ele>1004.234619140625</ele>
        <time>2011-04-17T16:41:41Z</time>
      </trkpt>
      <trkpt lat="34.48302517645061" lon="-1.871667159721255">
        <ele>1002.792236328125</ele>
        <time>2011-04-17T16:41:53Z</time>
      </trkpt>
      <trkpt lat="34.482985194772482" lon="-1.871503293514252">
        <ele>1007.118408203125</ele>
        <time>2011-04-17T16:42:00Z</time>
      </trkpt>
      <trkpt lat="34.482558220624924" lon="-1.871319646015763">
        <ele>1011.4443359375</ele>
        <time>2011-04-17T16:42:12Z</time>
      </trkpt>
      <trkpt lat="34.482060167938471" lon="-1.871032062917948">
        <ele>1014.328125</ele>
        <time>2011-04-17T16:42:22Z</time>
      </trkpt>
      <trkpt lat="34.481306131929159" lon="-1.870551193132997">
        <ele>1014.328125</ele>
        <time>2011-04-17T16:42:35Z</time>
      </trkpt>
      <trkpt lat="34.480613535270095" lon="-1.870132349431515">
        <ele>1014.808837890625</ele>
        <time>2011-04-17T16:42:46Z</time>
      </trkpt>
      <trkpt lat="34.480399964377284" lon="-1.870024977251887">
        <ele>1015.28955078125</ele>
        <time>2011-04-17T16:42:50Z</time>
      </trkpt>
      <trkpt lat="34.479712145403028" lon="-1.869780644774437">
        <ele>1015.28955078125</ele>
        <time>2011-04-17T16:42:59Z</time>
      </trkpt>
      <trkpt lat="34.479233035817742" lon="-1.869613090530038">
        <ele>1015.770263671875</ele>
        <time>2011-04-17T16:43:07Z</time>
      </trkpt>
      <trkpt lat="34.478914858773351" lon="-1.869607390835881">
        <ele>1014.808837890625</ele>
        <time>2011-04-17T16:43:14Z</time>
      </trkpt>
      <trkpt lat="34.478517975658178" lon="-1.869240766391158">
        <ele>1015.28955078125</ele>
        <time>2011-04-17T16:43:22Z</time>
      </trkpt>
      <trkpt lat="34.4778036698699" lon="-1.868348177522421">
        <ele>1022.018798828125</ele>
        <time>2011-04-17T16:43:33Z</time>
      </trkpt>
      <trkpt lat="34.477187348529696" lon="-1.867592632770538">
        <ele>1028.267333984375</ele>
        <time>2011-04-17T16:43:43Z</time>
      </trkpt>
      <trkpt lat="34.47686992585659" lon="-1.86747008934617">
        <ele>1030.18994140625</ele>
        <time>2011-04-17T16:43:49Z</time>
      </trkpt>
      <trkpt lat="34.476598352193832" lon="-1.867644684389234">
        <ele>1031.6318359375</ele>
        <time>2011-04-17T16:43:55Z</time>
      </trkpt>
      <trkpt lat="34.476481257006526" lon="-1.867579389363527">
        <ele>1027.78662109375</ele>
        <time>2011-04-17T16:44:15Z</time>
      </trkpt>
      <trkpt lat="34.476469941437244" lon="-1.867413846775889">
        <ele>1026.825439453125</ele>
        <time>2011-04-17T16:44:19Z</time>
      </trkpt>
      <trkpt lat="34.476518975570798" lon="-1.866939347237349">
        <ele>1026.3447265625</ele>
        <time>2011-04-17T16:44:31Z</time>
      </trkpt>
      <trkpt lat="34.476489219814539" lon="-1.866702726110816">
        <ele>1026.825439453125</ele>
        <time>2011-04-17T16:44:40Z</time>
      </trkpt>
      <trkpt lat="34.476309679448605" lon="-1.866405671462417">
        <ele>1028.748046875</ele>
        <time>2011-04-17T16:44:50Z</time>
      </trkpt>
      <trkpt lat="34.476176742464304" lon="-1.86612194404006">
        <ele>1031.1513671875</ele>
        <time>2011-04-17T16:45:01Z</time>
      </trkpt>
      <trkpt lat="34.476217394694686" lon="-1.86601784080267">
        <ele>1032.112548828125</ele>
        <time>2011-04-17T16:45:26Z</time>
      </trkpt>
      <trkpt lat="34.47632459923625" lon="-1.865850370377302">
        <ele>1027.30615234375</ele>
        <time>2011-04-17T16:45:38Z</time>
      </trkpt>
      <trkpt lat="34.476385116577148" lon="-1.865557255223393">
        <ele>1029.228515625</ele>
        <time>2011-04-17T16:45:51Z</time>
      </trkpt>
      <trkpt lat="34.47625226341188" lon="-1.865423144772649">
        <ele>1031.1513671875</ele>
        <time>2011-04-17T16:45:59Z</time>
      </trkpt>
      <trkpt lat="34.476078758016229" lon="-1.865295991301537">
        <ele>1031.1513671875</ele>
        <time>2011-04-17T16:46:09Z</time>
      </trkpt>
      <trkpt lat="34.476105161011219" lon="-1.86515056528151">
        <ele>1030.670654296875</ele>
        <time>2011-04-17T16:46:25Z</time>
      </trkpt>
      <trkpt lat="34.476192919537425" lon="-1.86517939902842">
        <ele>1024.90283203125</ele>
        <time>2011-04-17T16:46:52Z</time>
      </trkpt>
      <trkpt lat="34.476381093263626" lon="-1.865273276343942">
        <ele>1024.90283203125</ele>
        <time>2011-04-17T16:47:00Z</time>
      </trkpt>
      <trkpt lat="34.476411268115044" lon="-1.865594889968634">
        <ele>1020.576904296875</ele>
        <time>2011-04-17T16:47:14Z</time>
      </trkpt>
      <trkpt lat="34.47637933306396" lon="-1.865848526358604">
        <ele>1017.692626953125</ele>
        <time>2011-04-17T16:47:23Z</time>
      </trkpt>
      <trkpt lat="34.476386876776814" lon="-1.8660525418818">
        <ele>1012.88623046875</ele>
        <time>2011-04-17T16:47:32Z</time>
      </trkpt>
      <trkpt lat="34.476364329457283" lon="-1.866386979818344">
        <ele>1011.925048828125</ele>
        <time>2011-04-17T16:47:44Z</time>
      </trkpt>
      <trkpt lat="34.476441191509366" lon="-1.866670036688447">
        <ele>1013.847412109375</ele>
        <time>2011-04-17T16:47:52Z</time>
      </trkpt>
      <trkpt lat="34.476591059938073" lon="-1.866850163787603">
        <ele>1013.847412109375</ele>
        <time>2011-04-17T16:48:00Z</time>
      </trkpt>
      <trkpt lat="34.476925916969776" lon="-1.867161551490426">
        <ele>1012.405517578125</ele>
        <time>2011-04-17T16:48:12Z</time>
      </trkpt>
      <trkpt lat="34.477097997441888" lon="-1.867389287799597">
        <ele>1010.48291015625</ele>
        <time>2011-04-17T16:48:21Z</time>
      </trkpt>
      <trkpt lat="34.477409468963742" lon="-1.867769658565521">
        <ele>1010.963623046875</ele>
        <time>2011-04-17T16:48:34Z</time>
      </trkpt>
      <trkpt lat="34.477700237184763" lon="-1.86809353530407">
        <ele>1009.521728515625</ele>
        <time>2011-04-17T16:48:43Z</time>
      </trkpt>
      <trkpt lat="34.478054875507951" lon="-1.868604579940438">
        <ele>1005.676513671875</ele>
        <time>2011-04-17T16:48:55Z</time>
      </trkpt>
      <trkpt lat="34.478470198810101" lon="-1.869113193824887">
        <ele>1004.234619140625</ele>
        <time>2011-04-17T16:49:06Z</time>
      </trkpt>
      <trkpt lat="34.478898430243134" lon="-1.869593225419521">
        <ele>1003.753662109375</ele>
        <time>2011-04-17T16:49:15Z</time>
      </trkpt>
      <trkpt lat="34.479172518476844" lon="-1.869680732488632">
        <ele>1003.753662109375</ele>
        <time>2011-04-17T16:49:22Z</time>
      </trkpt>
      <trkpt lat="34.479456078261137" lon="-1.869716858491302">
        <ele>1003.27294921875</ele>
        <time>2011-04-17T16:49:27Z</time>
      </trkpt>
      <trkpt lat="34.48026685975492" lon="-1.870018439367414">
        <ele>1003.27294921875</ele>
        <time>2011-04-17T16:49:37Z</time>
      </trkpt>
      <trkpt lat="34.480566261336207" lon="-1.87010913155973">
        <ele>1003.27294921875</ele>
        <time>2011-04-17T16:49:41Z</time>
      </trkpt>
      <trkpt lat="34.481017543002963" lon="-1.870351787656546">
        <ele>1002.792236328125</ele>
        <time>2011-04-17T16:49:48Z</time>
      </trkpt>
      <trkpt lat="34.482023874297738" lon="-1.870995098724961">
        <ele>1003.27294921875</ele>
        <time>2011-04-17T16:50:02Z</time>
      </trkpt>
      <trkpt lat="34.482648577541113" lon="-1.871366668492556">
        <ele>1002.792236328125</ele>
        <time>2011-04-17T16:50:12Z</time>
      </trkpt>
      <trkpt lat="34.483121316879988" lon="-1.871537743136287">
        <ele>1001.8310546875</ele>
        <time>2011-04-17T16:50:20Z</time>
      </trkpt>
      <trkpt lat="34.483235226944089" lon="-1.871639080345631">
        <ele>1001.350341796875</ele>
        <time>2011-04-17T16:50:24Z</time>
      </trkpt>
      <trkpt lat="34.483196586370468" lon="-1.87181543558836">
        <ele>1000.86962890625</ele>
        <time>2011-04-17T16:50:31Z</time>
      </trkpt>
      <trkpt lat="34.482721081003547" lon="-1.872505936771631">
        <ele>999.427734375</ele>
        <time>2011-04-17T16:50:40Z</time>
      </trkpt>
      <trkpt lat="34.482017755508423" lon="-1.873586280271411">
        <ele>999.427734375</ele>
        <time>2011-04-17T16:50:49Z</time>
      </trkpt>
      <trkpt lat="34.481227761134505" lon="-1.874822024255991">
        <ele>998.46630859375</ele>
        <time>2011-04-17T16:50:57Z</time>
      </trkpt>
      <trkpt lat="34.479884477332234" lon="-1.876852540299296">
        <ele>997.505126953125</ele>
        <time>2011-04-17T16:51:09Z</time>
      </trkpt>
      <trkpt lat="34.478952661156654" lon="-1.878209318965673">
        <ele>999.908447265625</ele>
        <time>2011-04-17T16:51:18Z</time>
      </trkpt>
      <trkpt lat="34.477805178612471" lon="-1.879877820611">
        <ele>987.891845703125</ele>
        <time>2011-04-17T16:51:29Z</time>
      </trkpt>
      <trkpt lat="34.476510174572468" lon="-1.881819991394877">
        <ele>975.394775390625</ele>
        <time>2011-04-17T16:51:40Z</time>
      </trkpt>
      <trkpt lat="34.475280717015266" lon="-1.88340618275106">
        <ele>968.184814453125</ele>
        <time>2011-04-17T16:51:49Z</time>
      </trkpt>
      <trkpt lat="34.473452121019363" lon="-1.88555764965713">
        <ele>960.494384765625</ele>
        <time>2011-04-17T16:52:01Z</time>
      </trkpt>
      <trkpt lat="34.47266086935997" lon="-1.886641345918179">
        <ele>959.052490234375</ele>
        <time>2011-04-17T16:52:07Z</time>
      </trkpt>
      <trkpt lat="34.471705332398415" lon="-1.888217059895396">
        <ele>954.726318359375</ele>
        <time>2011-04-17T16:52:17Z</time>
      </trkpt>
      <trkpt lat="34.470727583393455" lon="-1.889802748337388">
        <ele>951.36181640625</ele>
        <time>2011-04-17T16:52:28Z</time>
      </trkpt>
      <trkpt lat="34.469668446108699" lon="-1.891138991340995">
        <ele>949.919921875</ele>
        <time>2011-04-17T16:52:38Z</time>
      </trkpt>
      <trkpt lat="34.468254670500755" lon="-1.892701461911202">
        <ele>947.997314453125</ele>
        <time>2011-04-17T16:52:51Z</time>
      </trkpt>
      <trkpt lat="34.466939046978951" lon="-1.893994873389602">
        <ele>942.2294921875</ele>
        <time>2011-04-17T16:53:02Z</time>
      </trkpt>
      <trkpt lat="34.465558547526598" lon="-1.894874721765518">
        <ele>947.035888671875</ele>
        <time>2011-04-17T16:53:12Z</time>
      </trkpt>
      <trkpt lat="34.46394813247025" lon="-1.895519876852632">
        <ele>946.07470703125</ele>
        <time>2011-04-17T16:53:23Z</time>
      </trkpt>
      <trkpt lat="34.462262699380517" lon="-1.896160086616874">
        <ele>944.632568359375</ele>
        <time>2011-04-17T16:53:35Z</time>
      </trkpt>
      <trkpt lat="34.460727386176586" lon="-1.896728463470936">
        <ele>942.2294921875</ele>
        <time>2011-04-17T16:53:47Z</time>
      </trkpt>
      <trkpt lat="34.459633463993669" lon="-1.897162394598126">
        <ele>940.787353515625</ele>
        <time>2011-04-17T16:53:56Z</time>
      </trkpt>
      <trkpt lat="34.458668539300561" lon="-1.897521475329995">
        <ele>939.825927734375</ele>
        <time>2011-04-17T16:54:05Z</time>
      </trkpt>
      <trkpt lat="34.457355346530676" lon="-1.898006284609437">
        <ele>938.86474609375</ele>
        <time>2011-04-17T16:54:18Z</time>
      </trkpt>
      <trkpt lat="34.455957747995853" lon="-1.898636687546969">
        <ele>945.593994140625</ele>
        <time>2011-04-17T16:54:30Z</time>
      </trkpt>
      <trkpt lat="34.454410029575229" lon="-1.899285865947604">
        <ele>947.997314453125</ele>
        <time>2011-04-17T16:54:43Z</time>
      </trkpt>
      <trkpt lat="34.452839093282819" lon="-1.899903360754252">
        <ele>947.035888671875</ele>
        <time>2011-04-17T16:54:56Z</time>
      </trkpt>
      <trkpt lat="34.451792780309916" lon="-1.900284150615335">
        <ele>949.439208984375</ele>
        <time>2011-04-17T16:55:06Z</time>
      </trkpt>
      <trkpt lat="34.451632518321276" lon="-1.900301417335868">
        <ele>958.57177734375</ele>
        <time>2011-04-17T16:55:13Z</time>
      </trkpt>
      <trkpt lat="34.451524224132299" lon="-1.900238133966923">
        <ele>970.107421875</ele>
        <time>2011-04-17T16:55:51Z</time>
      </trkpt>
      <trkpt lat="34.451290620490909" lon="-1.899908892810345">
        <ele>969.146240234375</ele>
        <time>2011-04-17T16:56:05Z</time>
      </trkpt>
      <trkpt lat="34.450941178947687" lon="-1.89917866140604">
        <ele>968.184814453125</ele>
        <time>2011-04-17T16:56:15Z</time>
      </trkpt>
      <trkpt lat="34.450701624155045" lon="-1.898779347538948">
        <ele>966.742919921875</ele>
        <time>2011-04-17T16:56:21Z</time>
      </trkpt>
      <trkpt lat="34.450415465980768" lon="-1.898534093052149">
        <ele>966.26220703125</ele>
        <time>2011-04-17T16:56:26Z</time>
      </trkpt>
      <trkpt lat="34.450150597840548" lon="-1.898173084482551">
        <ele>965.301025390625</ele>
        <time>2011-04-17T16:56:31Z</time>
      </trkpt>
      <trkpt lat="34.449537629261613" lon="-1.896811528131366">
        <ele>964.8203125</ele>
        <time>2011-04-17T16:56:43Z</time>
      </trkpt>
      <trkpt lat="34.449163880199194" lon="-1.89597861841321">
        <ele>963.37841796875</ele>
        <time>2011-04-17T16:56:49Z</time>
      </trkpt>
      <trkpt lat="34.44878208450973" lon="-1.895779967308044">
        <ele>962.897705078125</ele>
        <time>2011-04-17T16:56:54Z</time>
      </trkpt>
      <trkpt lat="34.448531046509743" lon="-1.895925896242261">
        <ele>961.455810546875</ele>
        <time>2011-04-17T16:57:02Z</time>
      </trkpt>
      <trkpt lat="34.44844882003963" lon="-1.896000495180488">
        <ele>960.494384765625</ele>
        <time>2011-04-17T16:57:04Z</time>
      </trkpt>
      <trkpt lat="34.448321750387549" lon="-1.896439455449581">
        <ele>958.57177734375</ele>
        <time>2011-04-17T16:57:11Z</time>
      </trkpt>
      <trkpt lat="34.448350584134459" lon="-1.896653529256582">
        <ele>959.533203125</ele>
        <time>2011-04-17T16:57:14Z</time>
      </trkpt>
      <trkpt lat="34.448499362915754" lon="-1.896754195913672">
        <ele>960.97509765625</ele>
        <time>2011-04-17T16:57:20Z</time>
      </trkpt>
      <trkpt lat="34.448476647958159" lon="-1.896607847884297">
        <ele>960.494384765625</ele>
        <time>2011-04-17T16:57:24Z</time>
      </trkpt>
      <trkpt lat="34.448422836139798" lon="-1.89645797945559">
        <ele>960.013671875</ele>
        <time>2011-04-17T16:57:27Z</time>
      </trkpt>
      <trkpt lat="34.44849131628871" lon="-1.89593318849802">
        <ele>961.455810546875</ele>
        <time>2011-04-17T16:57:35Z</time>
      </trkpt>
      <trkpt lat="34.448567256331444" lon="-1.895859092473984">
        <ele>961.9365234375</ele>
        <time>2011-04-17T16:57:38Z</time>
      </trkpt>
      <trkpt lat="34.448804967105389" lon="-1.895747780799866">
        <ele>961.9365234375</ele>
        <time>2011-04-17T16:57:47Z</time>
      </trkpt>
      <trkpt lat="34.449116690084338" lon="-1.895877365022898">
        <ele>961.455810546875</ele>
        <time>2011-04-17T16:57:54Z</time>
      </trkpt>
      <trkpt lat="34.449171256273985" lon="-1.895992364734411">
        <ele>961.455810546875</ele>
        <time>2011-04-17T16:57:57Z</time>
      </trkpt>
      <trkpt lat="34.449214255437255" lon="-1.895874347537756">
        <ele>960.97509765625</ele>
        <time>2011-04-17T16:58:06Z</time>
      </trkpt>
      <trkpt lat="34.448956176638603" lon="-1.895415522158146">
        <ele>960.013671875</ele>
        <time>2011-04-17T16:58:15Z</time>
      </trkpt>
      <trkpt lat="34.448726596310735" lon="-1.894973879680038">
        <ele>959.533203125</ele>
        <time>2011-04-17T16:58:22Z</time>
      </trkpt>
      <trkpt lat="34.44862718693912" lon="-1.894742958247662">
        <ele>960.97509765625</ele>
        <time>2011-04-17T16:58:25Z</time>
      </trkpt>
      <trkpt lat="34.448575470596552" lon="-1.894397037103772">
        <ele>962.4169921875</ele>
        <time>2011-04-17T16:58:29Z</time>
      </trkpt>
      <trkpt lat="34.448315380141139" lon="-1.893827989697456">
        <ele>963.85888671875</ele>
        <time>2011-04-17T16:58:36Z</time>
      </trkpt>
      <trkpt lat="34.447945486754179" lon="-1.893401853740215">
        <ele>965.301025390625</ele>
        <time>2011-04-17T16:58:42Z</time>
      </trkpt>
      <trkpt lat="34.44764013402164" lon="-1.892666425555944">
        <ele>968.184814453125</ele>
        <time>2011-04-17T16:58:50Z</time>
      </trkpt>
      <trkpt lat="34.447323130443692" lon="-1.891831839457154">
        <ele>969.146240234375</ele>
        <time>2011-04-17T16:59:00Z</time>
      </trkpt>
      <trkpt lat="34.44715834222734" lon="-1.891464376822114">
        <ele>966.742919921875</ele>
        <time>2011-04-17T16:59:07Z</time>
      </trkpt>
      <trkpt lat="34.447069577872753" lon="-1.890840344130993">
        <ele>967.7041015625</ele>
        <time>2011-04-17T16:59:17Z</time>
      </trkpt>
      <trkpt lat="34.44699757732451" lon="-1.890445137396455">
        <ele>968.184814453125</ele>
        <time>2011-04-17T16:59:23Z</time>
      </trkpt>
      <trkpt lat="34.447046360000968" lon="-1.889671487733722">
        <ele>969.626953125</ele>
        <time>2011-04-17T16:59:35Z</time>
      </trkpt>
      <trkpt lat="34.44709338247776" lon="-1.889025075361133">
        <ele>972.0302734375</ele>
        <time>2011-04-17T16:59:46Z</time>
      </trkpt>
      <trkpt lat="34.447061782702804" lon="-1.889591440558434">
        <ele>969.626953125</ele>
        <time>2011-04-17T17:04:28Z</time>
      </trkpt>
      <trkpt lat="34.447026494890451" lon="-1.890465589240193">
        <ele>967.2236328125</ele>
        <time>2011-04-17T17:04:39Z</time>
      </trkpt>
      <trkpt lat="34.447149457409978" lon="-1.891252649948001">
        <ele>968.184814453125</ele>
        <time>2011-04-17T17:04:49Z</time>
      </trkpt>
      <trkpt lat="34.447251968085766" lon="-1.891629667952657">
        <ele>968.66552734375</ele>
        <time>2011-04-17T17:04:54Z</time>
      </trkpt>
      <trkpt lat="34.447614988312125" lon="-1.89255528151989">
        <ele>969.626953125</ele>
        <time>2011-04-17T17:05:07Z</time>
      </trkpt>
      <trkpt lat="34.447840042412281" lon="-1.89320957288146">
        <ele>970.107421875</ele>
        <time>2011-04-17T17:05:15Z</time>
      </trkpt>
      <trkpt lat="34.448021426796913" lon="-1.893530851230025">
        <ele>969.146240234375</ele>
        <time>2011-04-17T17:05:19Z</time>
      </trkpt>
      <trkpt lat="34.448375226929784" lon="-1.893952880054712">
        <ele>968.184814453125</ele>
        <time>2011-04-17T17:05:25Z</time>
      </trkpt>
      <trkpt lat="34.448578823357821" lon="-1.8944594822824">
        <ele>966.742919921875</ele>
        <time>2011-04-17T17:05:31Z</time>
      </trkpt>
      <trkpt lat="34.448607321828604" lon="-1.894717058166862">
        <ele>966.742919921875</ele>
        <time>2011-04-17T17:05:34Z</time>
      </trkpt>
      <trkpt lat="34.44872735068202" lon="-1.895034397020936">
        <ele>964.339599609375</ele>
        <time>2011-04-17T17:05:38Z</time>
      </trkpt>
      <trkpt lat="34.448850397020578" lon="-1.895255679264665">
        <ele>964.339599609375</ele>
        <time>2011-04-17T17:05:41Z</time>
      </trkpt>
      <trkpt lat="34.448920637369156" lon="-1.895412588492036">
        <ele>964.8203125</ele>
        <time>2011-04-17T17:05:43Z</time>
      </trkpt>
      <trkpt lat="34.449137141928077" lon="-1.895783571526408">
        <ele>965.78173828125</ele>
        <time>2011-04-17T17:05:48Z</time>
      </trkpt>
      <trkpt lat="34.44924384355545" lon="-1.896136282011867">
        <ele>967.2236328125</ele>
        <time>2011-04-17T17:05:52Z</time>
      </trkpt>
      <trkpt lat="34.449605690315366" lon="-1.897009843960404">
        <ele>969.626953125</ele>
        <time>2011-04-17T17:06:01Z</time>
      </trkpt>
      <trkpt lat="34.450211366638541" lon="-1.898339129984379">
        <ele>969.626953125</ele>
        <time>2011-04-17T17:06:16Z</time>
      </trkpt>
      <trkpt lat="34.450564999133348" lon="-1.898688655346632">
        <ele>970.107421875</ele>
        <time>2011-04-17T17:06:22Z</time>
      </trkpt>
      <trkpt lat="34.450926594436169" lon="-1.899222331121564">
        <ele>971.54931640625</ele>
        <time>2011-04-17T17:06:30Z</time>
      </trkpt>
      <trkpt lat="34.451365973800421" lon="-1.900066891685128">
        <ele>971.54931640625</ele>
        <time>2011-04-17T17:06:41Z</time>
      </trkpt>
      <trkpt lat="34.451603684574366" lon="-1.900292197242379">
        <ele>972.0302734375</ele>
        <time>2011-04-17T17:06:46Z</time>
      </trkpt>
      <trkpt lat="34.451736873015761" lon="-1.900351122021675">
        <ele>971.06884765625</ele>
        <time>2011-04-17T17:07:00Z</time>
      </trkpt>
      <trkpt lat="34.451921945437789" lon="-1.9003083743155">
        <ele>971.54931640625</ele>
        <time>2011-04-17T17:07:04Z</time>
      </trkpt>
      <trkpt lat="34.452661983668804" lon="-1.900008218362927">
        <ele>972.99169921875</ele>
        <time>2011-04-17T17:07:15Z</time>
      </trkpt>
      <trkpt lat="34.453675355762243" lon="-1.899618040770292">
        <ele>978.759521484375</ele>
        <time>2011-04-17T17:07:28Z</time>
      </trkpt>
      <trkpt lat="34.454489573836327" lon="-1.899301540106535">
        <ele>980.68212890625</ele>
        <time>2011-04-17T17:07:38Z</time>
      </trkpt>
      <trkpt lat="34.455500682815909" lon="-1.898915385827422">
        <ele>982.1240234375</ele>
        <time>2011-04-17T17:07:50Z</time>
      </trkpt>
      <trkpt lat="34.456451777368784" lon="-1.898540463298559">
        <ele>984.046630859375</ele>
        <time>2011-04-17T17:08:00Z</time>
      </trkpt>
      <trkpt lat="34.456704072654247" lon="-1.898444155231118">
        <ele>984.046630859375</ele>
        <time>2011-04-17T17:08:03Z</time>
      </trkpt>
      <trkpt lat="34.456843296065927" lon="-1.898553958162665">
        <ele>985.008056640625</ele>
        <time>2011-04-17T17:08:08Z</time>
      </trkpt>
      <trkpt lat="34.456790070980787" lon="-1.898682033643127">
        <ele>982.604736328125</ele>
        <time>2011-04-17T17:08:11Z</time>
      </trkpt>
      <trkpt lat="34.45646426640451" lon="-1.899297181516886">
        <ele>980.68212890625</ele>
        <time>2011-04-17T17:08:19Z</time>
      </trkpt>
      <trkpt lat="34.455951126292348" lon="-1.900264453142881">
        <ele>974.914306640625</ele>
        <time>2011-04-17T17:08:27Z</time>
      </trkpt>
      <trkpt lat="34.455141685903072" lon="-1.901845447719097">
        <ele>964.339599609375</ele>
        <time>2011-04-17T17:08:38Z</time>
      </trkpt>
      <trkpt lat="34.454545732587576" lon="-1.902649523690343">
        <ele>956.649169921875</ele>
        <time>2011-04-17T17:08:44Z</time>
      </trkpt>
      <trkpt lat="34.453359190374613" lon="-1.903783259913325">
        <ele>945.11328125</ele>
        <time>2011-04-17T17:08:53Z</time>
      </trkpt>
      <trkpt lat="34.452856443822384" lon="-1.904534194618464">
        <ele>942.2294921875</ele>
        <time>2011-04-17T17:08:58Z</time>
      </trkpt>
      <trkpt lat="34.452166864648461" lon="-1.906103538349271">
        <ele>938.86474609375</ele>
        <time>2011-04-17T17:09:06Z</time>
      </trkpt>
      <trkpt lat="34.451220547780395" lon="-1.908248551189899">
        <ele>938.384033203125</ele>
        <time>2011-04-17T17:09:16Z</time>
      </trkpt>
      <trkpt lat="34.450267525389791" lon="-1.910266242921352">
        <ele>937.422607421875</ele>
        <time>2011-04-17T17:09:26Z</time>
      </trkpt>
      <trkpt lat="34.450020845979452" lon="-1.911377431824803">
        <ele>936.94189453125</ele>
        <time>2011-04-17T17:09:31Z</time>
      </trkpt>
      <trkpt lat="34.449818423017859" lon="-1.913636354729533">
        <ele>938.86474609375</ele>
        <time>2011-04-17T17:09:40Z</time>
      </trkpt>
      <trkpt lat="34.449504939839244" lon="-1.9161506742239">
        <ele>936.94189453125</ele>
        <time>2011-04-17T17:09:50Z</time>
      </trkpt>
      <trkpt lat="34.449247950688004" lon="-1.917826887220144">
        <ele>935.01953125</ele>
        <time>2011-04-17T17:09:57Z</time>
      </trkpt>
      <trkpt lat="34.449453139677644" lon="-1.919228257611394">
        <ele>934.05810546875</ele>
        <time>2011-04-17T17:10:03Z</time>
      </trkpt>
      <trkpt lat="34.450378501787782" lon="-1.920544132590294">
        <ele>930.212890625</ele>
        <time>2011-04-17T17:10:09Z</time>
      </trkpt>
      <trkpt lat="34.451159946620464" lon="-1.922443890944123">
        <ele>934.05810546875</ele>
        <time>2011-04-17T17:10:18Z</time>
      </trkpt>
      <trkpt lat="34.451479045674205" lon="-1.923796143382788">
        <ele>936.94189453125</ele>
        <time>2011-04-17T17:10:25Z</time>
      </trkpt>
      <trkpt lat="34.451659675687551" lon="-1.924086241051555">
        <ele>937.9033203125</ele>
        <time>2011-04-17T17:10:27Z</time>
      </trkpt>
      <trkpt lat="34.451684150844812" lon="-1.924499636515975">
        <ele>935.01953125</ele>
        <time>2011-04-17T17:10:31Z</time>
      </trkpt>
      <trkpt lat="34.45138692855835" lon="-1.924559231847525">
        <ele>933.577392578125</ele>
        <time>2011-04-17T17:10:34Z</time>
      </trkpt>
      <trkpt lat="34.451169334352016" lon="-1.924522016197443">
        <ele>932.6162109375</ele>
        <time>2011-04-17T17:10:36Z</time>
      </trkpt>
      <trkpt lat="34.450126206502318" lon="-1.924184476956725">
        <ele>931.17431640625</ele>
        <time>2011-04-17T17:10:43Z</time>
      </trkpt>
      <trkpt lat="34.448855929076672" lon="-1.924400143325329">
        <ele>937.422607421875</ele>
        <time>2011-04-17T17:10:52Z</time>
      </trkpt>
      <trkpt lat="34.448045734316111" lon="-1.924178441986442">
        <ele>934.05810546875</ele>
        <time>2011-04-17T17:10:56Z</time>
      </trkpt>
      <trkpt lat="34.446809152141213" lon="-1.925134733319283">
        <ele>928.77099609375</ele>
        <time>2011-04-17T17:11:04Z</time>
      </trkpt>
      <trkpt lat="34.445999376475811" lon="-1.926114745438099">
        <ele>923.964111328125</ele>
        <time>2011-04-17T17:11:10Z</time>
      </trkpt>
      <trkpt lat="34.445540634915233" lon="-1.927745612338185">
        <ele>921.560791015625</ele>
        <time>2011-04-17T17:11:17Z</time>
      </trkpt>
      <trkpt lat="34.44534357637167" lon="-1.927984664216638">
        <ele>920.599609375</ele>
        <time>2011-04-17T17:11:19Z</time>
      </trkpt>
      <trkpt lat="34.444758770987391" lon="-1.928694108501077">
        <ele>916.75439453125</ele>
        <time>2011-04-17T17:11:25Z</time>
      </trkpt>
      <trkpt lat="34.443596787750721" lon="-1.930069578811526">
        <ele>912.9091796875</ele>
        <time>2011-04-17T17:11:35Z</time>
      </trkpt>
      <trkpt lat="34.442424410954118" lon="-1.931456699967384">
        <ele>908.102783203125</ele>
        <time>2011-04-17T17:11:45Z</time>
      </trkpt>
      <trkpt lat="34.441953180357814" lon="-1.932014180347323">
        <ele>904.25732421875</ele>
        <time>2011-04-17T17:11:50Z</time>
      </trkpt>
      <trkpt lat="34.440905274823308" lon="-1.931553594768047">
        <ele>902.815185546875</ele>
        <time>2011-04-17T17:11:54Z</time>
      </trkpt>
      <trkpt lat="34.440144952386618" lon="-1.931991465389729">
        <ele>899.45068359375</ele>
        <time>2011-04-17T17:11:59Z</time>
      </trkpt>
      <trkpt lat="34.440018050372601" lon="-1.932144183665514">
        <ele>898.969970703125</ele>
        <time>2011-04-17T17:12:00Z</time>
      </trkpt>
      <trkpt lat="34.439067374914885" lon="-1.933649741113186">
        <ele>896.086181640625</ele>
        <time>2011-04-17T17:12:08Z</time>
      </trkpt>
      <trkpt lat="34.437582939863205" lon="-1.936075380071998">
        <ele>894.16357421875</ele>
        <time>2011-04-17T17:12:20Z</time>
      </trkpt>
      <trkpt lat="34.436656488105655" lon="-1.937009124085307">
        <ele>893.682861328125</ele>
        <time>2011-04-17T17:12:26Z</time>
      </trkpt>
      <trkpt lat="34.436378376558423" lon="-1.937243565917015">
        <ele>893.682861328125</ele>
        <time>2011-04-17T17:12:28Z</time>
      </trkpt>
      <trkpt lat="34.435993395745754" lon="-1.937836417928338">
        <ele>893.682861328125</ele>
        <time>2011-04-17T17:12:32Z</time>
      </trkpt>
      <trkpt lat="34.435304068028927" lon="-1.939619751647115">
        <ele>895.124755859375</ele>
        <time>2011-04-17T17:12:41Z</time>
      </trkpt>
      <trkpt lat="34.434634353965521" lon="-1.941545242443681">
        <ele>892.7216796875</ele>
        <time>2011-04-17T17:12:51Z</time>
      </trkpt>
      <trkpt lat="34.434465123340487" lon="-1.942347222939134">
        <ele>891.760009765625</ele>
        <time>2011-04-17T17:12:55Z</time>
      </trkpt>
      <trkpt lat="34.43412221968174" lon="-1.942931190133095">
        <ele>891.279296875</ele>
        <time>2011-04-17T17:12:59Z</time>
      </trkpt>
      <trkpt lat="34.433752745389938" lon="-1.943312147632241">
        <ele>891.279296875</ele>
        <time>2011-04-17T17:13:02Z</time>
      </trkpt>
      <trkpt lat="34.433387462049723" lon="-1.943962583318353">
        <ele>891.279296875</ele>
        <time>2011-04-17T17:13:06Z</time>
      </trkpt>
      <trkpt lat="34.433089150115848" lon="-1.945088608190417">
        <ele>890.318115234375</ele>
        <time>2011-04-17T17:13:11Z</time>
      </trkpt>
      <trkpt lat="34.432601323351264" lon="-1.945283738896251">
        <ele>890.318115234375</ele>
        <time>2011-04-17T17:13:15Z</time>
      </trkpt>
      <trkpt lat="34.432343496009707" lon="-1.945386836305261">
        <ele>890.318115234375</ele>
        <time>2011-04-17T17:13:17Z</time>
      </trkpt>
      <trkpt lat="34.431119486689568" lon="-1.946106841787696">
        <ele>886.953369140625</ele>
        <time>2011-04-17T17:13:27Z</time>
      </trkpt>
      <trkpt lat="34.429941829293966" lon="-1.945906346663833">
        <ele>884.069580078125</ele>
        <time>2011-04-17T17:13:33Z</time>
      </trkpt>
      <trkpt lat="34.429451655596495" lon="-1.946587124839425">
        <ele>881.666259765625</ele>
        <time>2011-04-17T17:13:38Z</time>
      </trkpt>
      <trkpt lat="34.428856959566474" lon="-1.948456037789583">
        <ele>879.74365234375</ele>
        <time>2011-04-17T17:13:47Z</time>
      </trkpt>
      <trkpt lat="34.42794743925333" lon="-1.95117169059813">
        <ele>880.705078125</ele>
        <time>2011-04-17T17:13:59Z</time>
      </trkpt>
      <trkpt lat="34.427290884777904" lon="-1.953446455299854">
        <ele>879.74365234375</ele>
        <time>2011-04-17T17:14:09Z</time>
      </trkpt>
      <trkpt lat="34.426279440522194" lon="-1.95724094286561">
        <ele>874.93701171875</ele>
        <time>2011-04-17T17:14:25Z</time>
      </trkpt>
      <trkpt lat="34.425161629915237" lon="-1.961146993562579">
        <ele>871.572265625</ele>
        <time>2011-04-17T17:14:41Z</time>
      </trkpt>
      <trkpt lat="34.424999859184027" lon="-1.961856354027987">
        <ele>871.572265625</ele>
        <time>2011-04-17T17:14:44Z</time>
      </trkpt>
      <trkpt lat="34.425092730671167" lon="-1.963264178484678">
        <ele>871.572265625</ele>
        <time>2011-04-17T17:14:50Z</time>
      </trkpt>
      <trkpt lat="34.425362544134259" lon="-1.965726278722286">
        <ele>875.898193359375</ele>
        <time>2011-04-17T17:15:01Z</time>
      </trkpt>
      <trkpt lat="34.425379727035761" lon="-1.966384593397379">
        <ele>876.85986328125</ele>
        <time>2011-04-17T17:15:04Z</time>
      </trkpt>
      <trkpt lat="34.425075380131602" lon="-1.967340130358934">
        <ele>874.93701171875</ele>
        <time>2011-04-17T17:15:09Z</time>
      </trkpt>
      <trkpt lat="34.424534076824784" lon="-1.967857545241714">
        <ele>873.014404296875</ele>
        <time>2011-04-17T17:15:13Z</time>
      </trkpt>
      <trkpt lat="34.424200979992747" lon="-1.967985620722175">
        <ele>872.052978515625</ele>
        <time>2011-04-17T17:15:15Z</time>
      </trkpt>
      <trkpt lat="34.423540569841862" lon="-1.968201287090778">
        <ele>869.169189453125</ele>
        <time>2011-04-17T17:15:19Z</time>
      </trkpt>
      <trkpt lat="34.422767590731382" lon="-1.968923639506102">
        <ele>864.84326171875</ele>
        <time>2011-04-17T17:15:25Z</time>
      </trkpt>
      <trkpt lat="34.422489060088992" lon="-1.969699384644628">
        <ele>863.4013671875</ele>
        <time>2011-04-17T17:15:29Z</time>
      </trkpt>
      <trkpt lat="34.422318991273642" lon="-1.971375346183777">
        <ele>862.43994140625</ele>
        <time>2011-04-17T17:15:36Z</time>
      </trkpt>
      <trkpt lat="34.422417646273971" lon="-1.974005587399006">
        <ele>865.8046875</ele>
        <time>2011-04-17T17:15:46Z</time>
      </trkpt>
      <trkpt lat="34.422747557982802" lon="-1.976289236918092">
        <ele>873.9755859375</ele>
        <time>2011-04-17T17:15:55Z</time>
      </trkpt>
      <trkpt lat="34.423183333128691" lon="-1.979544684290886">
        <ele>887.914794921875</ele>
        <time>2011-04-17T17:16:08Z</time>
      </trkpt>
      <trkpt lat="34.423515340313315" lon="-1.982361925765872">
        <ele>893.682861328125</ele>
        <time>2011-04-17T17:16:19Z</time>
      </trkpt>
      <trkpt lat="34.424008531495929" lon="-1.984659405425191">
        <ele>900.412109375</ele>
        <time>2011-04-17T17:16:28Z</time>
      </trkpt>
      <trkpt lat="34.423986067995429" lon="-1.986134620383382">
        <ele>901.373291015625</ele>
        <time>2011-04-17T17:16:34Z</time>
      </trkpt>
      <trkpt lat="34.423947930335999" lon="-1.988640474155545">
        <ele>898.4892578125</ele>
        <time>2011-04-17T17:16:44Z</time>
      </trkpt>
      <trkpt lat="34.423916665837169" lon="-1.990696303546429">
        <ele>896.086181640625</ele>
        <time>2011-04-17T17:16:53Z</time>
      </trkpt>
      <trkpt lat="34.423893447965384" lon="-1.992220636457205">
        <ele>895.60546875</ele>
        <time>2011-04-17T17:17:00Z</time>
      </trkpt>
      <trkpt lat="34.423168580979109" lon="-1.994530940428376">
        <ele>895.124755859375</ele>
        <time>2011-04-17T17:17:10Z</time>
      </trkpt>
      <trkpt lat="34.423147039487958" lon="-1.994755491614342">
        <ele>895.124755859375</ele>
        <time>2011-04-17T17:17:11Z</time>
      </trkpt>
      <trkpt lat="34.42331911996007" lon="-1.996160885319114">
        <ele>896.086181640625</ele>
        <time>2011-04-17T17:17:17Z</time>
      </trkpt>
      <trkpt lat="34.424206847324967" lon="-1.998358871787787">
        <ele>895.124755859375</ele>
        <time>2011-04-17T17:17:26Z</time>
      </trkpt>
      <trkpt lat="34.424499459564686" lon="-2.000916106626391">
        <ele>891.760009765625</ele>
        <time>2011-04-17T17:17:37Z</time>
      </trkpt>
      <trkpt lat="34.424769943580031" lon="-2.002961877733469">
        <ele>893.682861328125</ele>
        <time>2011-04-17T17:17:47Z</time>
      </trkpt>
      <trkpt lat="34.425300601869822" lon="-2.005615085363388">
        <ele>894.16357421875</ele>
        <time>2011-04-17T17:17:59Z</time>
      </trkpt>
      <trkpt lat="34.425608050078154" lon="-2.007152158766985">
        <ele>894.16357421875</ele>
        <time>2011-04-17T17:18:06Z</time>
      </trkpt>
      <trkpt lat="34.425970651209354" lon="-2.008455125615001">
        <ele>893.682861328125</ele>
        <time>2011-04-17T17:18:12Z</time>
      </trkpt>
      <trkpt lat="34.426512205973268" lon="-2.010044502094388">
        <ele>893.2021484375</ele>
        <time>2011-04-17T17:18:20Z</time>
      </trkpt>
      <trkpt lat="34.426734745502472" lon="-2.010697619989514">
        <ele>892.240966796875</ele>
        <time>2011-04-17T17:18:24Z</time>
      </trkpt>
      <trkpt lat="34.427146716043353" lon="-2.011906709522009">
        <ele>890.798583984375</ele>
        <time>2011-04-17T17:18:31Z</time>
      </trkpt>
      <trkpt lat="34.42771140486002" lon="-2.01356029137969">
        <ele>887.914794921875</ele>
        <time>2011-04-17T17:18:40Z</time>
      </trkpt>
      <trkpt lat="34.428165033459663" lon="-2.014769883826375">
        <ele>883.5888671875</ele>
        <time>2011-04-17T17:18:47Z</time>
      </trkpt>
      <trkpt lat="34.428448174148798" lon="-2.015524925664067">
        <ele>885.031005859375</ele>
        <time>2011-04-17T17:18:51Z</time>
      </trkpt>
      <trkpt lat="34.429001295939088" lon="-2.016999972984195">
        <ele>885.511474609375</ele>
        <time>2011-04-17T17:18:59Z</time>
      </trkpt>
      <trkpt lat="34.429534468799829" lon="-2.018741900101304">
        <ele>883.5888671875</ele>
        <time>2011-04-17T17:19:08Z</time>
      </trkpt>
      <trkpt lat="34.429623987525702" lon="-2.019816795364022">
        <ele>882.14697265625</ele>
        <time>2011-04-17T17:19:14Z</time>
      </trkpt>
      <trkpt lat="34.429729515686631" lon="-2.021082546561956">
        <ele>878.782470703125</ele>
        <time>2011-04-17T17:19:22Z</time>
      </trkpt>
      <trkpt lat="34.429751224815845" lon="-2.021342888474464">
        <ele>875.898193359375</ele>
        <time>2011-04-17T17:19:26Z</time>
      </trkpt>
      <trkpt lat="34.429751057177782" lon="-2.021631812676787">
        <ele>874.456298828125</ele>
        <time>2011-04-17T17:19:33Z</time>
      </trkpt>
      <trkpt lat="34.429732197895646" lon="-2.022244110703468">
        <ele>878.782470703125</ele>
        <time>2011-04-17T17:19:39Z</time>
      </trkpt>
      <trkpt lat="34.429703615605831" lon="-2.023173328489065">
        <ele>883.108154296875</ele>
        <time>2011-04-17T17:19:46Z</time>
      </trkpt>
      <trkpt lat="34.42969917319715" lon="-2.023317581042647">
        <ele>883.5888671875</ele>
        <time>2011-04-17T17:19:47Z</time>
      </trkpt>
      <trkpt lat="34.429473532363772" lon="-2.024595066905022">
        <ele>878.782470703125</ele>
        <time>2011-04-17T17:19:55Z</time>
      </trkpt>
      <trkpt lat="34.42901847884059" lon="-2.025479776784778">
        <ele>879.74365234375</ele>
        <time>2011-04-17T17:20:03Z</time>
      </trkpt>
      <trkpt lat="34.428871711716056" lon="-2.025750344619155">
        <ele>880.705078125</ele>
        <time>2011-04-17T17:20:07Z</time>
      </trkpt>
      <trkpt lat="34.428793005645275" lon="-2.025860901921988">
        <ele>881.666259765625</ele>
        <time>2011-04-17T17:20:10Z</time>
      </trkpt>
      <trkpt lat="34.42910305224359" lon="-2.026691129431129">
        <ele>882.14697265625</ele>
        <time>2011-04-17T17:20:17Z</time>
      </trkpt>
      <trkpt lat="34.428873639553785" lon="-2.026750640943646">
        <ele>880.224365234375</ele>
        <time>2011-04-17T17:20:22Z</time>
      </trkpt>
      <trkpt lat="34.428265281021595" lon="-2.026908388361335">
        <ele>885.031005859375</ele>
        <time>2011-04-17T17:20:29Z</time>
      </trkpt>
      <trkpt lat="34.427200276404619" lon="-2.02712413854897">
        <ele>888.876220703125</ele>
        <time>2011-04-17T17:20:37Z</time>
      </trkpt>
      <trkpt lat="34.425811395049095" lon="-2.027465617284179">
        <ele>895.60546875</ele>
        <time>2011-04-17T17:20:46Z</time>
      </trkpt>
      <trkpt lat="34.424048596993089" lon="-2.027759235352278">
        <ele>898.4892578125</ele>
        <time>2011-04-17T17:20:57Z</time>
      </trkpt>
      <trkpt lat="34.423730587586761" lon="-2.02779988758266">
        <ele>898.4892578125</ele>
        <time>2011-04-17T17:20:59Z</time>
      </trkpt>
      <trkpt lat="34.422812266275287" lon="-2.027603331953287">
        <ele>898.4892578125</ele>
        <time>2011-04-17T17:21:05Z</time>
      </trkpt>
      <trkpt lat="34.42101426422596" lon="-2.026840914040804">
        <ele>900.892578125</ele>
        <time>2011-04-17T17:21:15Z</time>
      </trkpt>
      <trkpt lat="34.420493328943849" lon="-2.026830185204744">
        <ele>898.0087890625</ele>
        <time>2011-04-17T17:21:18Z</time>
      </trkpt>
      <trkpt lat="34.41935540176928" lon="-2.02689204365015">
        <ele>899.931396484375</ele>
        <time>2011-04-17T17:21:24Z</time>
      </trkpt>
      <trkpt lat="34.418241446837783" lon="-2.026974353939295">
        <ele>899.931396484375</ele>
        <time>2011-04-17T17:21:30Z</time>
      </trkpt>
      <trkpt lat="34.417520184069872" lon="-2.027035374194384">
        <ele>901.373291015625</ele>
        <time>2011-04-17T17:21:34Z</time>
      </trkpt>
      <trkpt lat="34.415140729397535" lon="-2.02802318148315">
        <ele>901.373291015625</ele>
        <time>2011-04-17T17:21:47Z</time>
      </trkpt>
      <trkpt lat="34.412586595863104" lon="-2.029281724244356">
        <ele>907.621826171875</ele>
        <time>2011-04-17T17:22:00Z</time>
      </trkpt>
      <trkpt lat="34.410195490345359" lon="-2.031099507585168">
        <ele>908.102783203125</ele>
        <time>2011-04-17T17:22:14Z</time>
      </trkpt>
      <trkpt lat="34.407802959904075" lon="-2.032746719196439">
        <ele>909.544677734375</ele>
        <time>2011-04-17T17:22:27Z</time>
      </trkpt>
      <trkpt lat="34.405453931540251" lon="-2.033962346613407">
        <ele>913.870361328125</ele>
        <time>2011-04-17T17:22:40Z</time>
      </trkpt>
      <trkpt lat="34.40432664938271" lon="-2.03438026830554">
        <ele>916.273681640625</ele>
        <time>2011-04-17T17:22:46Z</time>
      </trkpt>
      <trkpt lat="34.403370190411806" lon="-2.034668019041419">
        <ele>920.599609375</ele>
        <time>2011-04-17T17:22:51Z</time>
      </trkpt>
      <trkpt lat="34.401940573006868" lon="-2.035361202433705">
        <ele>925.886962890625</ele>
        <time>2011-04-17T17:22:59Z</time>
      </trkpt>
      <trkpt lat="34.399910308420658" lon="-2.036407012492418">
        <ele>933.577392578125</ele>
        <time>2011-04-17T17:23:10Z</time>
      </trkpt>
      <trkpt lat="34.398475745692849" lon="-2.037034230306745">
        <ele>937.422607421875</ele>
        <time>2011-04-17T17:23:18Z</time>
      </trkpt>
      <trkpt lat="34.397050067782402" lon="-2.037580730393529">
        <ele>942.2294921875</ele>
        <time>2011-04-17T17:23:26Z</time>
      </trkpt>
      <trkpt lat="34.394743200391531" lon="-2.038215156644583">
        <ele>949.439208984375</ele>
        <time>2011-04-17T17:23:38Z</time>
      </trkpt>
      <trkpt lat="34.393367143347859" lon="-2.038546744734049">
        <ele>955.20703125</ele>
        <time>2011-04-17T17:23:45Z</time>
      </trkpt>
      <trkpt lat="34.39220717176795" lon="-2.038859724998474">
        <ele>963.85888671875</ele>
        <time>2011-04-17T17:23:51Z</time>
      </trkpt>
      <trkpt lat="34.390383521094918" lon="-2.039382755756378">
        <ele>971.54931640625</ele>
        <time>2011-04-17T17:24:00Z</time>
      </trkpt>
      <trkpt lat="34.388390807434916" lon="-2.039878712967038">
        <ele>971.54931640625</ele>
        <time>2011-04-17T17:24:09Z</time>
      </trkpt>
      <trkpt lat="34.384853476658463" lon="-2.040834752842784">
        <ele>974.914306640625</ele>
        <time>2011-04-17T17:24:24Z</time>
      </trkpt>
      <trkpt lat="34.381601298227906" lon="-2.041944433003664">
        <ele>983.56591796875</ele>
        <time>2011-04-17T17:24:38Z</time>
      </trkpt>
      <trkpt lat="34.378109481185675" lon="-2.042964594438672">
        <ele>996.5439453125</ele>
        <time>2011-04-17T17:24:53Z</time>
      </trkpt>
      <trkpt lat="34.374613473191857" lon="-2.043601535260677">
        <ele>1012.88623046875</ele>
        <time>2011-04-17T17:25:08Z</time>
      </trkpt>
      <trkpt lat="34.372683288529515" lon="-2.043800354003906">
        <ele>1022.980224609375</ele>
        <time>2011-04-17T17:25:17Z</time>
      </trkpt>
      <trkpt lat="34.371658936142921" lon="-2.043617125600576">
        <ele>1025.864013671875</ele>
        <time>2011-04-17T17:25:22Z</time>
      </trkpt>
      <trkpt lat="34.369728080928326" lon="-2.043062159791589">
        <ele>1028.748046875</ele>
        <time>2011-04-17T17:25:31Z</time>
      </trkpt>
      <trkpt lat="34.367139833047986" lon="-2.043069452047348">
        <ele>1027.30615234375</ele>
        <time>2011-04-17T17:25:42Z</time>
      </trkpt>
      <trkpt lat="34.364720899611712" lon="-2.043339936062694">
        <ele>1030.670654296875</ele>
        <time>2011-04-17T17:25:52Z</time>
      </trkpt>
      <trkpt lat="34.361767871305346" lon="-2.044134624302387">
        <ele>1039.322509765625</ele>
        <time>2011-04-17T17:26:05Z</time>
      </trkpt>
      <trkpt lat="34.36093982309103" lon="-2.044393960386515">
        <ele>1042.687255859375</ele>
        <time>2011-04-17T17:26:09Z</time>
      </trkpt>
      <trkpt lat="34.360191989690065" lon="-2.044881200417876">
        <ele>1044.129150390625</ele>
        <time>2011-04-17T17:26:14Z</time>
      </trkpt>
      <trkpt lat="34.360043043270707" lon="-2.045011539012194">
        <ele>1044.609619140625</ele>
        <time>2011-04-17T17:26:15Z</time>
      </trkpt>
      <trkpt lat="34.358682660385966" lon="-2.046302519738674">
        <ele>1047.49365234375</ele>
        <time>2011-04-17T17:26:24Z</time>
      </trkpt>
      <trkpt lat="34.358414858579636" lon="-2.04660183750093">
        <ele>1048.454833984375</ele>
        <time>2011-04-17T17:26:26Z</time>
      </trkpt>
      <trkpt lat="34.357853271067142" lon="-2.04710902646184">
        <ele>1050.377685546875</ele>
        <time>2011-04-17T17:26:30Z</time>
      </trkpt>
      <trkpt lat="34.357106192037463" lon="-2.047342965379357">
        <ele>1052.781005859375</ele>
        <time>2011-04-17T17:26:34Z</time>
      </trkpt>
      <trkpt lat="34.356175381690264" lon="-2.047635577619076">
        <ele>1056.626220703125</ele>
        <time>2011-04-17T17:26:39Z</time>
      </trkpt>
      <trkpt lat="34.355097971856594" lon="-2.047994574531913">
        <ele>1062.39404296875</ele>
        <time>2011-04-17T17:26:45Z</time>
      </trkpt>
      <trkpt lat="34.354269253090024" lon="-2.048395397141576">
        <ele>1066.2392578125</ele>
        <time>2011-04-17T17:26:50Z</time>
      </trkpt>
      <trkpt lat="34.352909456938505" lon="-2.049103081226349">
        <ele>1070.084716796875</ele>
        <time>2011-04-17T17:26:58Z</time>
      </trkpt>
      <trkpt lat="34.352251477539539" lon="-2.049402398988605">
        <ele>1072.488037109375</ele>
        <time>2011-04-17T17:27:02Z</time>
      </trkpt>
      <trkpt lat="34.351620152592659" lon="-2.049684030935168">
        <ele>1075.8525390625</ele>
        <time>2011-04-17T17:27:06Z</time>
      </trkpt>
      <trkpt lat="34.350979439914227" lon="-2.049971362575889">
        <ele>1078.736572265625</ele>
        <time>2011-04-17T17:27:10Z</time>
      </trkpt>
      <trkpt lat="34.350132448598742" lon="-2.05035206861794">
        <ele>1083.54296875</ele>
        <time>2011-04-17T17:27:15Z</time>
      </trkpt>
      <trkpt lat="34.349299455061555" lon="-2.05083872191608">
        <ele>1087.869140625</ele>
        <time>2011-04-17T17:27:20Z</time>
      </trkpt>
      <trkpt lat="34.34878958389163" lon="-2.05131908878684">
        <ele>1089.791748046875</ele>
        <time>2011-04-17T17:27:24Z</time>
      </trkpt>
      <trkpt lat="34.34813286177814" lon="-2.05181211233139">
        <ele>1092.67578125</ele>
        <time>2011-04-17T17:27:29Z</time>
      </trkpt>
      <trkpt lat="34.347798675298691" lon="-2.051975894719362">
        <ele>1094.11767578125</ele>
        <time>2011-04-17T17:27:31Z</time>
      </trkpt>
      <trkpt lat="34.346944056451321" lon="-2.052320055663586">
        <ele>1099.40478515625</ele>
        <time>2011-04-17T17:27:36Z</time>
      </trkpt>
      <trkpt lat="34.346269480884075" lon="-2.052515689283609">
        <ele>1104.692138671875</ele>
        <time>2011-04-17T17:27:40Z</time>
      </trkpt>
      <trkpt lat="34.34527781791985" lon="-2.052803356200457">
        <ele>1111.902099609375</ele>
        <time>2011-04-17T17:27:46Z</time>
      </trkpt>
      <trkpt lat="34.344192361459136" lon="-2.05294425599277">
        <ele>1120.0732421875</ele>
        <time>2011-04-17T17:27:52Z</time>
      </trkpt>
      <trkpt lat="34.343122914433479" lon="-2.053049448877573">
        <ele>1127.763671875</ele>
        <time>2011-04-17T17:27:58Z</time>
      </trkpt>
      <trkpt lat="34.342062100768089" lon="-2.053120108321309">
        <ele>1134.012451171875</ele>
        <time>2011-04-17T17:28:04Z</time>
      </trkpt>
      <trkpt lat="34.341039257124066" lon="-2.053229408338666">
        <ele>1140.741455078125</ele>
        <time>2011-04-17T17:28:10Z</time>
      </trkpt>
      <trkpt lat="34.340330567210913" lon="-2.053484721109271">
        <ele>1145.548095703125</ele>
        <time>2011-04-17T17:28:15Z</time>
      </trkpt>
      <trkpt lat="34.340189667418599" lon="-2.053558817133308">
        <ele>1146.509521484375</ele>
        <time>2011-04-17T17:28:16Z</time>
      </trkpt>
      <trkpt lat="34.338961215689778" lon="-2.054293323308229">
        <ele>1154.2001953125</ele>
        <time>2011-04-17T17:28:25Z</time>
      </trkpt>
      <trkpt lat="34.338441537693143" lon="-2.054500272497535">
        <ele>1159.006591796875</ele>
        <time>2011-04-17T17:28:29Z</time>
      </trkpt>
      <trkpt lat="34.337518773972988" lon="-2.054562298581004">
        <ele>1163.33251953125</ele>
        <time>2011-04-17T17:28:34Z</time>
      </trkpt>
      <trkpt lat="34.33642191812396" lon="-2.05463589169085">
        <ele>1163.81298828125</ele>
        <time>2011-04-17T17:28:40Z</time>
      </trkpt>
      <trkpt lat="34.335057847201824" lon="-2.054841164499521">
        <ele>1160.448486328125</ele>
        <time>2011-04-17T17:28:48Z</time>
      </trkpt>
      <trkpt lat="34.333781031891704" lon="-2.055129837244749">
        <ele>1156.603271484375</ele>
        <time>2011-04-17T17:28:56Z</time>
      </trkpt>
      <trkpt lat="34.332784088328481" lon="-2.055285908281803">
        <ele>1153.23876953125</ele>
        <time>2011-04-17T17:29:03Z</time>
      </trkpt>
      <trkpt lat="34.331779852509499" lon="-2.055379282683134">
        <ele>1149.3935546875</ele>
        <time>2011-04-17T17:29:09Z</time>
      </trkpt>
      <trkpt lat="34.330181088298559" lon="-2.055408954620361">
        <ele>1144.106201171875</ele>
        <time>2011-04-17T17:29:17Z</time>
      </trkpt>
      <trkpt lat="34.32791973464191" lon="-2.055408954620361">
        <ele>1138.819091796875</ele>
        <time>2011-04-17T17:29:27Z</time>
      </trkpt>
      <trkpt lat="34.325409354642034" lon="-2.05539177171886">
        <ele>1134.012451171875</ele>
        <time>2011-04-17T17:29:37Z</time>
      </trkpt>
      <trkpt lat="34.32236990891397" lon="-2.055357405915856">
        <ele>1128.244384765625</ele>
        <time>2011-04-17T17:29:48Z</time>
      </trkpt>
      <trkpt lat="34.319056626409292" lon="-2.055297391489148">
        <ele>1120.0732421875</ele>
        <time>2011-04-17T17:30:00Z</time>
      </trkpt>
      <trkpt lat="34.316394114866853" lon="-2.05501307733357">
        <ele>1114.785888671875</ele>
        <time>2011-04-17T17:30:10Z</time>
      </trkpt>
      <trkpt lat="34.315126938745379" lon="-2.054789615795016">
        <ele>1112.86328125</ele>
        <time>2011-04-17T17:30:15Z</time>
      </trkpt>
      <trkpt lat="34.312550760805607" lon="-2.053594524040818">
        <ele>1107.095458984375</ele>
        <time>2011-04-17T17:30:26Z</time>
      </trkpt>
      <trkpt lat="34.310265518724918" lon="-2.052721381187439">
        <ele>1097.00146484375</ele>
        <time>2011-04-17T17:30:36Z</time>
      </trkpt>
      <trkpt lat="34.308870267122984" lon="-2.052308153361082">
        <ele>1094.11767578125</ele>
        <time>2011-04-17T17:30:42Z</time>
      </trkpt>
      <trkpt lat="34.30553225800395" lon="-2.051577586680651">
        <ele>1088.83056640625</ele>
        <time>2011-04-17T17:30:55Z</time>
      </trkpt>
      <trkpt lat="34.302685763686895" lon="-2.051218757405877">
        <ele>1082.581787109375</ele>
        <time>2011-04-17T17:31:06Z</time>
      </trkpt>
      <trkpt lat="34.300682824105024" lon="-2.051117420196533">
        <ele>1078.736572265625</ele>
        <time>2011-04-17T17:31:14Z</time>
      </trkpt>
      <trkpt lat="34.299706751480699" lon="-2.051117420196533">
        <ele>1076.333251953125</ele>
        <time>2011-04-17T17:31:18Z</time>
      </trkpt>
      <trkpt lat="34.297978822141886" lon="-2.051117420196533">
        <ele>1074.41064453125</ele>
        <time>2011-04-17T17:31:25Z</time>
      </trkpt>
      <trkpt lat="34.295293930917978" lon="-2.05196600407362">
        <ele>1068.642822265625</ele>
        <time>2011-04-17T17:31:36Z</time>
      </trkpt>
      <trkpt lat="34.292952865362167" lon="-2.053028075024486">
        <ele>1060.471435546875</ele>
        <time>2011-04-17T17:31:46Z</time>
      </trkpt>
      <trkpt lat="34.290587324649096" lon="-2.053263271227479">
        <ele>1054.22314453125</ele>
        <time>2011-04-17T17:31:55Z</time>
      </trkpt>
      <trkpt lat="34.289329452440143" lon="-2.054368844255805">
        <ele>1050.858154296875</ele>
        <time>2011-04-17T17:32:01Z</time>
      </trkpt>
      <trkpt lat="34.287545699626207" lon="-2.056249072775245">
        <ele>1046.0517578125</ele>
        <time>2011-04-17T17:32:10Z</time>
      </trkpt>
      <trkpt lat="34.286223286762834" lon="-2.057008305564523">
        <ele>1044.129150390625</ele>
        <time>2011-04-17T17:32:16Z</time>
      </trkpt>
      <trkpt lat="34.284570207819343" lon="-2.05779436044395">
        <ele>1042.687255859375</ele>
        <time>2011-04-17T17:32:23Z</time>
      </trkpt>
      <trkpt lat="34.283264558762312" lon="-2.058413280174136">
        <ele>1040.764404296875</ele>
        <time>2011-04-17T17:32:29Z</time>
      </trkpt>
      <trkpt lat="34.282033257186413" lon="-2.058510510250926">
        <ele>1039.322509765625</ele>
        <time>2011-04-17T17:32:34Z</time>
      </trkpt>
      <trkpt lat="34.278911082074046" lon="-2.058655517175794">
        <ele>1037.39990234375</ele>
        <time>2011-04-17T17:32:46Z</time>
      </trkpt>
      <trkpt lat="34.275451870635152" lon="-2.058608327060938">
        <ele>1048.935546875</ele>
        <time>2011-04-17T17:32:59Z</time>
      </trkpt>
      <trkpt lat="34.273003013804555" lon="-2.05835435539484">
        <ele>1060.9521484375</ele>
        <time>2011-04-17T17:33:09Z</time>
      </trkpt>
      <trkpt lat="34.271865338087082" lon="-2.058205073699355">
        <ele>1062.39404296875</ele>
        <time>2011-04-17T17:33:14Z</time>
      </trkpt>
      <trkpt lat="34.269046084955335" lon="-2.057306868955493">
        <ele>1055.6650390625</ele>
        <time>2011-04-17T17:33:26Z</time>
      </trkpt>
      <trkpt lat="34.267614372074604" lon="-2.056841170415282">
        <ele>1052.30029296875</ele>
        <time>2011-04-17T17:33:32Z</time>
      </trkpt>
      <trkpt lat="34.266497567296028" lon="-2.05647798255086">
        <ele>1047.49365234375</ele>
        <time>2011-04-17T17:33:37Z</time>
      </trkpt>
      <trkpt lat="34.265729282051325" lon="-2.05637832172215">
        <ele>1044.129150390625</ele>
        <time>2011-04-17T17:33:40Z</time>
      </trkpt>
      <trkpt lat="34.263979308307171" lon="-2.05617698840797">
        <ele>1037.39990234375</ele>
        <time>2011-04-17T17:33:47Z</time>
      </trkpt>
      <trkpt lat="34.261678056791425" lon="-2.056002728641033">
        <ele>1032.59326171875</ele>
        <time>2011-04-17T17:33:56Z</time>
      </trkpt>
      <trkpt lat="34.260187670588493" lon="-2.056115129962564">
        <ele>1023.94140625</ele>
        <time>2011-04-17T17:34:02Z</time>
      </trkpt>
      <trkpt lat="34.25919902510941" lon="-2.056650230661035">
        <ele>1016.7314453125</ele>
        <time>2011-04-17T17:34:07Z</time>
      </trkpt>
      <trkpt lat="34.256817977875471" lon="-2.058377237990499">
        <ele>1009.521728515625</ele>
        <time>2011-04-17T17:34:18Z</time>
      </trkpt>
      <trkpt lat="34.254877148196101" lon="-2.059588255360723">
        <ele>1008.079833984375</ele>
        <time>2011-04-17T17:34:27Z</time>
      </trkpt>
      <trkpt lat="34.253324652090669" lon="-2.060556868091226">
        <ele>1006.156982421875</ele>
        <time>2011-04-17T17:34:34Z</time>
      </trkpt>
      <trkpt lat="34.250639090314507" lon="-2.061907025054097">
        <ele>1001.350341796875</ele>
        <time>2011-04-17T17:34:45Z</time>
      </trkpt>
      <trkpt lat="34.247365202754736" lon="-2.063317112624645">
        <ele>999.427734375</ele>
        <time>2011-04-17T17:34:58Z</time>
      </trkpt>
      <trkpt lat="34.244048651307821" lon="-2.064743041992188">
        <ele>997.0244140625</ele>
        <time>2011-04-17T17:35:11Z</time>
      </trkpt>
      <trkpt lat="34.241010630503297" lon="-2.066045170649886">
        <ele>996.063232421875</ele>
        <time>2011-04-17T17:35:23Z</time>
      </trkpt>
      <trkpt lat="34.23834091052413" lon="-2.067198771983385">
        <ele>994.140625</ele>
        <time>2011-04-17T17:35:34Z</time>
      </trkpt>
      <trkpt lat="34.235789375379682" lon="-2.068351954221726">
        <ele>990.29541015625</ele>
        <time>2011-04-17T17:35:45Z</time>
      </trkpt>
      <trkpt lat="34.233079086989164" lon="-2.069576885551214">
        <ele>985.008056640625</ele>
        <time>2011-04-17T17:35:56Z</time>
      </trkpt>
      <trkpt lat="34.229797068983316" lon="-2.07108898088336">
        <ele>974.914306640625</ele>
        <time>2011-04-17T17:36:09Z</time>
      </trkpt>
      <trkpt lat="34.22603040933609" lon="-2.072840379551053">
        <ele>968.66552734375</ele>
        <time>2011-04-17T17:36:24Z</time>
      </trkpt>
      <trkpt lat="34.222443960607052" lon="-2.074155500158668">
        <ele>965.78173828125</ele>
        <time>2011-04-17T17:36:38Z</time>
      </trkpt>
      <trkpt lat="34.220888614654541" lon="-2.074377536773682">
        <ele>963.85888671875</ele>
        <time>2011-04-17T17:36:44Z</time>
      </trkpt>
      <trkpt lat="34.21920619904995" lon="-2.074189949780703">
        <ele>963.85888671875</ele>
        <time>2011-04-17T17:36:50Z</time>
      </trkpt>
      <trkpt lat="34.216455593705177" lon="-2.074014935642481">
        <ele>966.742919921875</ele>
        <time>2011-04-17T17:37:00Z</time>
      </trkpt>
      <trkpt lat="34.213667353615165" lon="-2.073467765003443">
        <ele>963.37841796875</ele>
        <time>2011-04-17T17:37:11Z</time>
      </trkpt>
      <trkpt lat="34.212134219706059" lon="-2.072933334857225">
        <ele>960.013671875</ele>
        <time>2011-04-17T17:37:17Z</time>
      </trkpt>
      <trkpt lat="34.209638927131891" lon="-2.071880400180817">
        <ele>951.36181640625</ele>
        <time>2011-04-17T17:37:27Z</time>
      </trkpt>
      <trkpt lat="34.206966944038868" lon="-2.07095998339355">
        <ele>946.07470703125</ele>
        <time>2011-04-17T17:37:38Z</time>
      </trkpt>
      <trkpt lat="34.20396538451314" lon="-2.070101425051689">
        <ele>938.384033203125</ele>
        <time>2011-04-17T17:37:50Z</time>
      </trkpt>
      <trkpt lat="34.200935242697597" lon="-2.069363985210657">
        <ele>939.825927734375</ele>
        <time>2011-04-17T17:38:02Z</time>
      </trkpt>
      <trkpt lat="34.197447197511792" lon="-2.068515066057444">
        <ele>938.86474609375</ele>
        <time>2011-04-17T17:38:15Z</time>
      </trkpt>
      <trkpt lat="34.194283364340663" lon="-2.06781861372292">
        <ele>938.384033203125</ele>
        <time>2011-04-17T17:38:27Z</time>
      </trkpt>
      <trkpt lat="34.190695993602276" lon="-2.067074971273542">
        <ele>934.538818359375</ele>
        <time>2011-04-17T17:38:41Z</time>
      </trkpt>
      <trkpt lat="34.187132930383086" lon="-2.06616067327559">
        <ele>931.65478515625</ele>
        <time>2011-04-17T17:38:55Z</time>
      </trkpt>
      <trkpt lat="34.183705905452371" lon="-2.065267078578472">
        <ele>930.212890625</ele>
        <time>2011-04-17T17:39:09Z</time>
      </trkpt>
      <trkpt lat="34.180875336751342" lon="-2.064480436965823">
        <ele>926.36767578125</ele>
        <time>2011-04-17T17:39:21Z</time>
      </trkpt>
      <trkpt lat="34.177673365920782" lon="-2.063499419018626">
        <ele>921.080322265625</ele>
        <time>2011-04-17T17:39:34Z</time>
      </trkpt>
      <trkpt lat="34.174442058429122" lon="-2.062509683892131">
        <ele>920.599609375</ele>
        <time>2011-04-17T17:39:47Z</time>
      </trkpt>
      <trkpt lat="34.17128543369472" lon="-2.061542747542262">
        <ele>924.92578125</ele>
        <time>2011-04-17T17:40:00Z</time>
      </trkpt>
      <trkpt lat="34.168226458132267" lon="-2.060724506154656">
        <ele>931.65478515625</ele>
        <time>2011-04-17T17:40:13Z</time>
      </trkpt>
      <trkpt lat="34.164173137396574" lon="-2.059649610891938">
        <ele>936.46142578125</ele>
        <time>2011-04-17T17:40:30Z</time>
      </trkpt>
      <trkpt lat="34.161010310053825" lon="-2.05862257629633">
        <ele>935.5</ele>
        <time>2011-04-17T17:40:43Z</time>
      </trkpt>
      <trkpt lat="34.159981431439519" lon="-2.058292245492339">
        <ele>935.980712890625</ele>
        <time>2011-04-17T17:40:48Z</time>
      </trkpt>
      <trkpt lat="34.159238710999489" lon="-2.058104826137424">
        <ele>936.46142578125</ele>
        <time>2011-04-17T17:40:54Z</time>
      </trkpt>
      <trkpt lat="34.158327430486679" lon="-2.05787499435246">
        <ele>936.46142578125</ele>
        <time>2011-04-17T17:41:00Z</time>
      </trkpt>
      <trkpt lat="34.156949613243341" lon="-2.057527313008905">
        <ele>935.01953125</ele>
        <time>2011-04-17T17:41:07Z</time>
      </trkpt>
      <trkpt lat="34.155108444392681" lon="-2.057052897289395">
        <ele>933.577392578125</ele>
        <time>2011-04-17T17:41:15Z</time>
      </trkpt>
      <trkpt lat="34.15257484652102" lon="-2.056436156854034">
        <ele>929.732177734375</ele>
        <time>2011-04-17T17:41:26Z</time>
      </trkpt>
      <trkpt lat="34.151275651529431" lon="-2.056564567610622">
        <ele>927.8095703125</ele>
        <time>2011-04-17T17:41:32Z</time>
      </trkpt>
      <trkpt lat="34.150058263912797" lon="-2.056833878159523">
        <ele>927.8095703125</ele>
        <time>2011-04-17T17:41:37Z</time>
      </trkpt>
      <trkpt lat="34.148820759728551" lon="-2.056854413822293">
        <ele>930.212890625</ele>
        <time>2011-04-17T17:41:42Z</time>
      </trkpt>
      <trkpt lat="34.147346131503582" lon="-2.056879056617618">
        <ele>929.25146484375</ele>
        <time>2011-04-17T17:41:48Z</time>
      </trkpt>
      <trkpt lat="34.144976818934083" lon="-2.056490471586585">
        <ele>927.3291015625</ele>
        <time>2011-04-17T17:41:57Z</time>
      </trkpt>
      <trkpt lat="34.141588099300861" lon="-2.05592829734087">
        <ele>926.36767578125</ele>
        <time>2011-04-17T17:42:09Z</time>
      </trkpt>
      <trkpt lat="34.137817583978176" lon="-2.055463353171945">
        <ele>926.36767578125</ele>
        <time>2011-04-17T17:42:23Z</time>
      </trkpt>
      <trkpt lat="34.13554223254323" lon="-2.054951637983322">
        <ele>927.3291015625</ele>
        <time>2011-04-17T17:42:32Z</time>
      </trkpt>
      <trkpt lat="34.133369140326977" lon="-2.05416776239872">
        <ele>927.8095703125</ele>
        <time>2011-04-17T17:42:41Z</time>
      </trkpt>
      <trkpt lat="34.130314020439982" lon="-2.052545277401805">
        <ele>930.693603515625</ele>
        <time>2011-04-17T17:42:54Z</time>
      </trkpt>
      <trkpt lat="34.126894036307931" lon="-2.050760099664331">
        <ele>930.212890625</ele>
        <time>2011-04-17T17:43:09Z</time>
      </trkpt>
      <trkpt lat="34.125543711706996" lon="-2.049859799444675">
        <ele>931.17431640625</ele>
        <time>2011-04-17T17:43:16Z</time>
      </trkpt>
      <trkpt lat="34.124493543058634" lon="-2.048797141760588">
        <ele>928.290283203125</ele>
        <time>2011-04-17T17:43:22Z</time>
      </trkpt>
      <trkpt lat="34.121716534718871" lon="-2.046418776735663">
        <ele>929.25146484375</ele>
        <time>2011-04-17T17:43:37Z</time>
      </trkpt>
      <trkpt lat="34.121535485610366" lon="-2.046260023489595">
        <ele>929.25146484375</ele>
        <time>2011-04-17T17:43:38Z</time>
      </trkpt>
      <trkpt lat="34.120827130973339" lon="-2.045741518959403">
        <ele>929.732177734375</ele>
        <time>2011-04-17T17:43:42Z</time>
      </trkpt>
      <trkpt lat="34.118902981281281" lon="-2.045372882857919">
        <ele>928.77099609375</ele>
        <time>2011-04-17T17:43:50Z</time>
      </trkpt>
      <trkpt lat="34.115979876369238" lon="-2.045104578137398">
        <ele>929.732177734375</ele>
        <time>2011-04-17T17:44:02Z</time>
      </trkpt>
      <trkpt lat="34.112457046285272" lon="-2.044881954789162">
        <ele>926.36767578125</ele>
        <time>2011-04-17T17:44:16Z</time>
      </trkpt>
      <trkpt lat="34.10908249206841" lon="-2.04465463757515">
        <ele>922.522216796875</ele>
        <time>2011-04-17T17:44:29Z</time>
      </trkpt>
      <trkpt lat="34.106412101536989" lon="-2.044465793296695">
        <ele>923.0029296875</ele>
        <time>2011-04-17T17:44:40Z</time>
      </trkpt>
      <trkpt lat="34.103936422616243" lon="-2.044290443882346">
        <ele>922.04150390625</ele>
        <time>2011-04-17T17:44:50Z</time>
      </trkpt>
      <trkpt lat="34.100922457873821" lon="-2.044075950980187">
        <ele>922.522216796875</ele>
        <time>2011-04-17T17:45:02Z</time>
      </trkpt>
      <trkpt lat="34.099701382219791" lon="-2.043988946825266">
        <ele>921.560791015625</ele>
        <time>2011-04-17T17:45:08Z</time>
      </trkpt>
      <trkpt lat="34.09788066521287" lon="-2.043841006234288">
        <ele>920.118896484375</ele>
        <time>2011-04-17T17:45:17Z</time>
      </trkpt>
      <trkpt lat="34.095583939924836" lon="-2.04363439232111">
        <ele>920.118896484375</ele>
        <time>2011-04-17T17:45:27Z</time>
      </trkpt>
      <trkpt lat="34.091736059635878" lon="-2.043371200561523">
        <ele>920.599609375</ele>
        <time>2011-04-17T17:45:43Z</time>
      </trkpt>
      <trkpt lat="34.089791290462017" lon="-2.043371200561523">
        <ele>921.080322265625</ele>
        <time>2011-04-17T17:45:51Z</time>
      </trkpt>
      <trkpt lat="34.086604155600071" lon="-2.043720642104745">
        <ele>919.15771484375</ele>
        <time>2011-04-17T17:46:04Z</time>
      </trkpt>
      <trkpt lat="34.085887083783746" lon="-2.043838491663337">
        <ele>918.677001953125</ele>
        <time>2011-04-17T17:46:07Z</time>
      </trkpt>
      <trkpt lat="34.085015533491969" lon="-2.044309303164482">
        <ele>918.677001953125</ele>
        <time>2011-04-17T17:46:11Z</time>
      </trkpt>
      <trkpt lat="34.08265108242631" lon="-2.045663315802813">
        <ele>919.638427734375</ele>
        <time>2011-04-17T17:46:22Z</time>
      </trkpt>
      <trkpt lat="34.081194475293159" lon="-2.046213336288929">
        <ele>919.15771484375</ele>
        <time>2011-04-17T17:46:28Z</time>
      </trkpt>
      <trkpt lat="34.078296683728695" lon="-2.047316310927272">
        <ele>918.1962890625</ele>
        <time>2011-04-17T17:46:40Z</time>
      </trkpt>
      <trkpt lat="34.075158750638366" lon="-2.048363126814365">
        <ele>919.638427734375</ele>
        <time>2011-04-17T17:46:53Z</time>
      </trkpt>
      <trkpt lat="34.07345412299037" lon="-2.048642914742231">
        <ele>923.0029296875</ele>
        <time>2011-04-17T17:47:01Z</time>
      </trkpt>
      <trkpt lat="34.072399009019136" lon="-2.048739558085799">
        <ele>920.118896484375</ele>
        <time>2011-04-17T17:47:06Z</time>
      </trkpt>
      <trkpt lat="34.069951241835952" lon="-2.048640232533217">
        <ele>918.1962890625</ele>
        <time>2011-04-17T17:47:17Z</time>
      </trkpt>
      <trkpt lat="34.068326829001307" lon="-2.048624977469444">
        <ele>917.715576171875</ele>
        <time>2011-04-17T17:47:25Z</time>
      </trkpt>
      <trkpt lat="34.066723538562655" lon="-2.048650374636054">
        <ele>917.715576171875</ele>
        <time>2011-04-17T17:47:34Z</time>
      </trkpt>
      <trkpt lat="34.064835431054235" lon="-2.048674765974283">
        <ele>918.677001953125</ele>
        <time>2011-04-17T17:47:43Z</time>
      </trkpt>
      <trkpt lat="34.062307365238667" lon="-2.048707455396652">
        <ele>918.677001953125</ele>
        <time>2011-04-17T17:47:55Z</time>
      </trkpt>
      <trkpt lat="34.059816766530275" lon="-2.04871416091919">
        <ele>919.638427734375</ele>
        <time>2011-04-17T17:48:07Z</time>
      </trkpt>
      <trkpt lat="34.057292388752103" lon="-2.04871416091919">
        <ele>922.522216796875</ele>
        <time>2011-04-17T17:48:19Z</time>
      </trkpt>
      <trkpt lat="34.055124158039689" lon="-2.048572422936559">
        <ele>924.92578125</ele>
        <time>2011-04-17T17:48:30Z</time>
      </trkpt>
      <trkpt lat="34.053720608353615" lon="-2.048341920599341">
        <ele>928.290283203125</ele>
        <time>2011-04-17T17:48:39Z</time>
      </trkpt>
      <trkpt lat="34.053576271981001" lon="-2.048257095739245">
        <ele>928.77099609375</ele>
        <time>2011-04-17T17:48:40Z</time>
      </trkpt>
      <trkpt lat="34.052487798035145" lon="-2.047617807984352">
        <ele>928.77099609375</ele>
        <time>2011-04-17T17:48:47Z</time>
      </trkpt>
      <trkpt lat="34.050657441839576" lon="-2.046543834730983">
        <ele>927.8095703125</ele>
        <time>2011-04-17T17:48:58Z</time>
      </trkpt>
      <trkpt lat="34.048478230834007" lon="-2.045269450172782">
        <ele>927.3291015625</ele>
        <time>2011-04-17T17:49:10Z</time>
      </trkpt>
      <trkpt lat="34.04592334292829" lon="-2.043775375932455">
        <ele>928.77099609375</ele>
        <time>2011-04-17T17:49:23Z</time>
      </trkpt>
      <trkpt lat="34.043304249644279" lon="-2.042217431589961">
        <ele>930.212890625</ele>
        <time>2011-04-17T17:49:36Z</time>
      </trkpt>
      <trkpt lat="34.040861930698156" lon="-2.040746659040451">
        <ele>933.0966796875</ele>
        <time>2011-04-17T17:49:49Z</time>
      </trkpt>
      <trkpt lat="34.039641609415412" lon="-2.039882903918624">
        <ele>935.5</ele>
        <time>2011-04-17T17:49:57Z</time>
      </trkpt>
      <trkpt lat="34.037910159677267" lon="-2.038653446361423">
        <ele>935.980712890625</ele>
        <time>2011-04-17T17:50:09Z</time>
      </trkpt>
      <trkpt lat="34.036612305790186" lon="-2.037647198885679">
        <ele>933.577392578125</ele>
        <time>2011-04-17T17:50:19Z</time>
      </trkpt>
      <trkpt lat="34.035221915692091" lon="-2.036463171243668">
        <ele>932.135498046875</ele>
        <time>2011-04-17T17:50:31Z</time>
      </trkpt>
      <trkpt lat="34.034092370420694" lon="-2.03552364371717">
        <ele>932.135498046875</ele>
        <time>2011-04-17T17:50:42Z</time>
      </trkpt>
      <trkpt lat="34.032922675833106" lon="-2.034598113968968">
        <ele>929.732177734375</ele>
        <time>2011-04-17T17:50:55Z</time>
      </trkpt>
      <trkpt lat="34.031966552138329" lon="-2.033851034939289">
        <ele>928.290283203125</ele>
        <time>2011-04-17T17:51:04Z</time>
      </trkpt>
      <trkpt lat="34.030578508973122" lon="-2.033191714435816">
        <ele>927.3291015625</ele>
        <time>2011-04-17T17:51:16Z</time>
      </trkpt>
      <trkpt lat="34.02901972644031" lon="-2.032352099195123">
        <ele>927.8095703125</ele>
        <time>2011-04-17T17:51:29Z</time>
      </trkpt>
      <trkpt lat="34.026979906484485" lon="-2.031222470104694">
        <ele>927.3291015625</ele>
        <time>2011-04-17T17:51:46Z</time>
      </trkpt>
      <trkpt lat="34.025781713426113" lon="-2.03058167360723">
        <ele>927.8095703125</ele>
        <time>2011-04-17T17:51:56Z</time>
      </trkpt>
      <trkpt lat="34.024959281086922" lon="-2.030162829905748">
        <ele>927.8095703125</ele>
        <time>2011-04-17T17:52:04Z</time>
      </trkpt>
      <trkpt lat="34.023904083296657" lon="-2.029625466093421">
        <ele>927.3291015625</ele>
        <time>2011-04-17T17:52:14Z</time>
      </trkpt>
      <trkpt lat="34.022643277421594" lon="-2.028982490301132">
        <ele>927.3291015625</ele>
        <time>2011-04-17T17:52:26Z</time>
      </trkpt>
      <trkpt lat="34.021496716886759" lon="-2.028390979394317">
        <ele>930.212890625</ele>
        <time>2011-04-17T17:52:37Z</time>
      </trkpt>
      <trkpt lat="34.020700771361589" lon="-2.027980349957943">
        <ele>931.65478515625</ele>
        <time>2011-04-17T17:52:47Z</time>
      </trkpt>
      <trkpt lat="34.019860401749611" lon="-2.027594782412052">
        <ele>931.65478515625</ele>
        <time>2011-04-17T17:52:56Z</time>
      </trkpt>
      <trkpt lat="34.018886676058173" lon="-2.027297560125589">
        <ele>931.65478515625</ele>
        <time>2011-04-17T17:53:06Z</time>
      </trkpt>
      <trkpt lat="34.01802065782249" lon="-2.027033194899559">
        <ele>932.135498046875</ele>
        <time>2011-04-17T17:53:16Z</time>
      </trkpt>
      <trkpt lat="34.017445240169764" lon="-2.026857594028115">
        <ele>932.135498046875</ele>
        <time>2011-04-17T17:53:24Z</time>
      </trkpt>
      <trkpt lat="34.017086746171117" lon="-2.026748294010758">
        <ele>934.05810546875</ele>
        <time>2011-04-17T17:53:32Z</time>
      </trkpt>
      <trkpt lat="34.016754236072302" lon="-2.026643604040146">
        <ele>929.25146484375</ele>
        <time>2011-04-17T17:53:41Z</time>
      </trkpt>
      <trkpt lat="34.01644142344594" lon="-2.026514438912273">
        <ele>929.25146484375</ele>
        <time>2011-04-17T17:53:49Z</time>
      </trkpt>
      <trkpt lat="34.016121821478009" lon="-2.026382423937321">
        <ele>927.8095703125</ele>
        <time>2011-04-17T17:53:57Z</time>
      </trkpt>
      <trkpt lat="34.015487981960177" lon="-2.026142617687583">
        <ele>925.886962890625</ele>
        <time>2011-04-17T17:54:05Z</time>
      </trkpt>
      <trkpt lat="34.014534624293447" lon="-2.025816980749369">
        <ele>925.40625</ele>
        <time>2011-04-17T17:54:14Z</time>
      </trkpt>
      <trkpt lat="34.012775681912899" lon="-2.025216082111001">
        <ele>924.445068359375</ele>
        <time>2011-04-17T17:54:30Z</time>
      </trkpt>
      <trkpt lat="34.011450419202447" lon="-2.024764800444245">
        <ele>927.3291015625</ele>
        <time>2011-04-17T17:54:41Z</time>
      </trkpt>
      <trkpt lat="34.010368818417192" lon="-2.02439708635211">
        <ele>927.3291015625</ele>
        <time>2011-04-17T17:54:51Z</time>
      </trkpt>
      <trkpt lat="34.009405905380845" lon="-2.024050997570157">
        <ele>928.290283203125</ele>
        <time>2011-04-17T17:55:01Z</time>
      </trkpt>
      <trkpt lat="34.008636195212603" lon="-2.023771125823259">
        <ele>929.25146484375</ele>
        <time>2011-04-17T17:55:11Z</time>
      </trkpt>
      <trkpt lat="34.00793144479394" lon="-2.02356300316751">
        <ele>927.8095703125</ele>
        <time>2011-04-17T17:55:23Z</time>
      </trkpt>
      <trkpt lat="34.007745701819658" lon="-2.023559231311083">
        <ele>927.3291015625</ele>
        <time>2011-04-17T17:55:26Z</time>
      </trkpt>
      <trkpt lat="34.007397014647722" lon="-2.023552274331451">
        <ele>926.848388671875</ele>
        <time>2011-04-17T17:55:32Z</time>
      </trkpt>
      <trkpt lat="34.007178749889135" lon="-2.02354783192277">
        <ele>927.3291015625</ele>
        <time>2011-04-17T17:55:35Z</time>
      </trkpt>
      <trkpt lat="34.006563350558281" lon="-2.023698538541794">
        <ele>926.36767578125</ele>
        <time>2011-04-17T17:55:42Z</time>
      </trkpt>
      <trkpt lat="34.005862371996045" lon="-2.023992156609893">
        <ele>926.36767578125</ele>
        <time>2011-04-17T17:55:48Z</time>
      </trkpt>
      <trkpt lat="34.00470164604485" lon="-2.023932645097375">
        <ele>926.36767578125</ele>
        <time>2011-04-17T17:55:54Z</time>
      </trkpt>
      <trkpt lat="34.003872340545058" lon="-2.024824479594827">
        <ele>928.77099609375</ele>
        <time>2011-04-17T17:56:01Z</time>
      </trkpt>
      <trkpt lat="34.003033144399524" lon="-2.026094757020474">
        <ele>932.6162109375</ele>
        <time>2011-04-17T17:56:09Z</time>
      </trkpt>
      <trkpt lat="34.002756038680673" lon="-2.027986384928227">
        <ele>935.01953125</ele>
        <time>2011-04-17T17:56:17Z</time>
      </trkpt>
      <trkpt lat="34.001802429556847" lon="-2.029252974316478">
        <ele>933.0966796875</ele>
        <time>2011-04-17T17:56:25Z</time>
      </trkpt>
      <trkpt lat="34.000691827386618" lon="-2.030581925064325">
        <ele>929.732177734375</ele>
        <time>2011-04-17T17:56:33Z</time>
      </trkpt>
      <trkpt lat="33.999556498602033" lon="-2.031737454235554">
        <ele>928.77099609375</ele>
        <time>2011-04-17T17:56:40Z</time>
      </trkpt>
      <trkpt lat="33.998219752684236" lon="-2.032739594578743">
        <ele>927.8095703125</ele>
        <time>2011-04-17T17:56:47Z</time>
      </trkpt>
      <trkpt lat="33.99635000154376" lon="-2.033110829070211">
        <ele>927.8095703125</ele>
        <time>2011-04-17T17:56:55Z</time>
      </trkpt>
      <trkpt lat="33.995189443230629" lon="-2.033087695017457">
        <ele>928.77099609375</ele>
        <time>2011-04-17T17:57:00Z</time>
      </trkpt>
      <trkpt lat="33.99334441870451" lon="-2.032766249030829">
        <ele>929.25146484375</ele>
        <time>2011-04-17T17:57:08Z</time>
      </trkpt>
      <trkpt lat="33.991742301732302" lon="-2.032273896038532">
        <ele>928.290283203125</ele>
        <time>2011-04-17T17:57:15Z</time>
      </trkpt>
      <trkpt lat="33.990100873634219" lon="-2.031486080959439">
        <ele>928.290283203125</ele>
        <time>2011-04-17T17:57:22Z</time>
      </trkpt>
      <trkpt lat="33.987784534692764" lon="-2.030352177098393">
        <ele>931.65478515625</ele>
        <time>2011-04-17T17:57:32Z</time>
      </trkpt>
      <trkpt lat="33.986339243128896" lon="-2.029783381149173">
        <ele>933.577392578125</ele>
        <time>2011-04-17T17:57:38Z</time>
      </trkpt>
      <trkpt lat="33.984207808971405" lon="-2.029052395373583">
        <ele>934.05810546875</ele>
        <time>2011-04-17T17:57:47Z</time>
      </trkpt>
      <trkpt lat="33.982617845758796" lon="-2.028499357402325">
        <ele>935.01953125</ele>
        <time>2011-04-17T17:57:54Z</time>
      </trkpt>
      <trkpt lat="33.979831701144576" lon="-2.027260176837444">
        <ele>933.577392578125</ele>
        <time>2011-04-17T17:58:06Z</time>
      </trkpt>
      <trkpt lat="33.976943716406822" lon="-2.025813544169068">
        <ele>931.65478515625</ele>
        <time>2011-04-17T17:58:19Z</time>
      </trkpt>
      <trkpt lat="33.973748199641705" lon="-2.02413029037416">
        <ele>930.693603515625</ele>
        <time>2011-04-17T17:58:33Z</time>
      </trkpt>
      <trkpt lat="33.969965698197484" lon="-2.02207513153553">
        <ele>929.732177734375</ele>
        <time>2011-04-17T17:58:49Z</time>
      </trkpt>
      <trkpt lat="33.967189863324165" lon="-2.02053545974195">
        <ele>932.6162109375</ele>
        <time>2011-04-17T17:59:01Z</time>
      </trkpt>
      <trkpt lat="33.964614858850837" lon="-2.019144399091601">
        <ele>938.384033203125</ele>
        <time>2011-04-17T17:59:13Z</time>
      </trkpt>
      <trkpt lat="33.961517997086048" lon="-2.017250759527087">
        <ele>942.2294921875</ele>
        <time>2011-04-17T17:59:28Z</time>
      </trkpt>
      <trkpt lat="33.959757126867771" lon="-2.016126746311784">
        <ele>940.787353515625</ele>
        <time>2011-04-17T17:59:36Z</time>
      </trkpt>
      <trkpt lat="33.956493129953742" lon="-2.014039987698197">
        <ele>940.306884765625</ele>
        <time>2011-04-17T17:59:50Z</time>
      </trkpt>
      <trkpt lat="33.953499617055058" lon="-2.012128159403801">
        <ele>942.710205078125</ele>
        <time>2011-04-17T18:00:03Z</time>
      </trkpt>
      <trkpt lat="33.950769631192088" lon="-2.010391764342785">
        <ele>943.67138671875</ele>
        <time>2011-04-17T18:00:15Z</time>
      </trkpt>
      <trkpt lat="33.949069697409868" lon="-2.010065456852317">
        <ele>943.67138671875</ele>
        <time>2011-04-17T18:00:22Z</time>
      </trkpt>
      <trkpt lat="33.947557434439659" lon="-2.009994713589549">
        <ele>944.152099609375</ele>
        <time>2011-04-17T18:00:28Z</time>
      </trkpt>
      <trkpt lat="33.946065623313189" lon="-2.010111138224602">
        <ele>945.593994140625</ele>
        <time>2011-04-17T18:00:34Z</time>
      </trkpt>
      <trkpt lat="33.94442293792963" lon="-2.010822677984834">
        <ele>947.5166015625</ele>
        <time>2011-04-17T18:00:41Z</time>
      </trkpt>
      <trkpt lat="33.942742953076959" lon="-2.011393737047911">
        <ele>946.555419921875</ele>
        <time>2011-04-17T18:00:48Z</time>
      </trkpt>
      <trkpt lat="33.939495133236051" lon="-2.013237839564681">
        <ele>947.997314453125</ele>
        <time>2011-04-17T18:01:02Z</time>
      </trkpt>
      <trkpt lat="33.936110939830542" lon="-2.015379751101136">
        <ele>948.477783203125</ele>
        <time>2011-04-17T18:01:17Z</time>
      </trkpt>
      <trkpt lat="33.933099741116166" lon="-2.017350420355797">
        <ele>946.555419921875</ele>
        <time>2011-04-17T18:01:30Z</time>
      </trkpt>
      <trkpt lat="33.931081211194396" lon="-2.018061624839902">
        <ele>946.555419921875</ele>
        <time>2011-04-17T18:01:38Z</time>
      </trkpt>
      <trkpt lat="33.929562494158745" lon="-2.018576022237539">
        <ele>946.07470703125</ele>
        <time>2011-04-17T18:01:44Z</time>
      </trkpt>
      <trkpt lat="33.92769324593246" lon="-2.018907861784101">
        <ele>945.11328125</ele>
        <time>2011-04-17T18:01:51Z</time>
      </trkpt>
      <trkpt lat="33.924002861604095" lon="-2.019164431840181">
        <ele>947.5166015625</ele>
        <time>2011-04-17T18:02:04Z</time>
      </trkpt>
      <trkpt lat="33.919931016862392" lon="-2.019257722422481">
        <ele>944.152099609375</ele>
        <time>2011-04-17T18:02:18Z</time>
      </trkpt>
      <trkpt lat="33.91617190092802" lon="-2.019314970821142">
        <ele>943.67138671875</ele>
        <time>2011-04-17T18:02:31Z</time>
      </trkpt>
      <trkpt lat="33.912155963480473" lon="-2.01935151591897">
        <ele>943.67138671875</ele>
        <time>2011-04-17T18:02:45Z</time>
      </trkpt>
      <trkpt lat="33.90911023132503" lon="-2.019360065460205">
        <ele>941.748779296875</ele>
        <time>2011-04-17T18:02:56Z</time>
      </trkpt>
      <trkpt lat="33.905658647418022" lon="-2.019360065460205">
        <ele>943.190673828125</ele>
        <time>2011-04-17T18:03:09Z</time>
      </trkpt>
      <trkpt lat="33.901757625862956" lon="-2.019327711313963">
        <ele>946.07470703125</ele>
        <time>2011-04-17T18:03:24Z</time>
      </trkpt>
      <trkpt lat="33.898097248747945" lon="-2.019198630005121">
        <ele>949.439208984375</ele>
        <time>2011-04-17T18:03:38Z</time>
      </trkpt>
      <trkpt lat="33.894493700936437" lon="-2.019071644172072">
        <ele>951.36181640625</ele>
        <time>2011-04-17T18:03:52Z</time>
      </trkpt>
      <trkpt lat="33.891372112557292" lon="-2.019027974456549">
        <ele>948.95849609375</ele>
        <time>2011-04-17T18:04:04Z</time>
      </trkpt>
      <trkpt lat="33.887774934992194" lon="-2.018912136554718">
        <ele>949.439208984375</ele>
        <time>2011-04-17T18:04:17Z</time>
      </trkpt>
      <trkpt lat="33.884474812075496" lon="-2.018526988103986">
        <ele>950.400634765625</ele>
        <time>2011-04-17T18:04:29Z</time>
      </trkpt>
      <trkpt lat="33.882852829992771" lon="-2.018264383077622">
        <ele>949.439208984375</ele>
        <time>2011-04-17T18:04:35Z</time>
      </trkpt>
      <trkpt lat="33.880378743633628" lon="-2.017601123079658">
        <ele>951.36181640625</ele>
        <time>2011-04-17T18:04:44Z</time>
      </trkpt>
      <trkpt lat="33.876553494483232" lon="-2.016433943063021">
        <ele>954.726318359375</ele>
        <time>2011-04-17T18:04:58Z</time>
      </trkpt>
      <trkpt lat="33.872786751016974" lon="-2.015001643449068">
        <ele>960.97509765625</ele>
        <time>2011-04-17T18:05:13Z</time>
      </trkpt>
      <trkpt lat="33.869211869314313" lon="-2.01359348371625">
        <ele>967.2236328125</ele>
        <time>2011-04-17T18:05:28Z</time>
      </trkpt>
      <trkpt lat="33.866633009165525" lon="-2.012864425778389">
        <ele>972.510986328125</ele>
        <time>2011-04-17T18:05:39Z</time>
      </trkpt>
      <trkpt lat="33.864234024658799" lon="-2.012480534613133">
        <ele>972.99169921875</ele>
        <time>2011-04-17T18:05:49Z</time>
      </trkpt>
      <trkpt lat="33.86101788841188" lon="-2.011994048953056">
        <ele>974.43359375</ele>
        <time>2011-04-17T18:06:02Z</time>
      </trkpt>
      <trkpt lat="33.857799991965294" lon="-2.011515526100993">
        <ele>972.510986328125</ele>
        <time>2011-04-17T18:06:14Z</time>
      </trkpt>
      <trkpt lat="33.853672072291374" lon="-2.011315450072289">
        <ele>977.798095703125</ele>
        <time>2011-04-17T18:06:29Z</time>
      </trkpt>
      <trkpt lat="33.850366920232773" lon="-2.011231295764446">
        <ele>984.52734375</ele>
        <time>2011-04-17T18:06:42Z</time>
      </trkpt>
      <trkpt lat="33.848655084148049" lon="-2.011275216937065">
        <ele>987.4111328125</ele>
        <time>2011-04-17T18:06:49Z</time>
      </trkpt>
      <trkpt lat="33.8455078471452" lon="-2.011418966576457">
        <ele>988.853515625</ele>
        <time>2011-04-17T18:07:01Z</time>
      </trkpt>
      <trkpt lat="33.840556405484676" lon="-2.011615857481957">
        <ele>1003.27294921875</ele>
        <time>2011-04-17T18:07:19Z</time>
      </trkpt>
      <trkpt lat="33.838430671021342" lon="-2.01149633154273">
        <ele>1010.48291015625</ele>
        <time>2011-04-17T18:07:27Z</time>
      </trkpt>
      <trkpt lat="33.836568547412753" lon="-2.011227104812861">
        <ele>1012.88623046875</ele>
        <time>2011-04-17T18:07:34Z</time>
      </trkpt>
      <trkpt lat="33.83342307060957" lon="-2.010628636926413">
        <ele>1013.847412109375</ele>
        <time>2011-04-17T18:07:46Z</time>
      </trkpt>
      <trkpt lat="33.830100568011403" lon="-2.009813915938139">
        <ele>1017.692626953125</ele>
        <time>2011-04-17T18:07:59Z</time>
      </trkpt>
      <trkpt lat="33.826989876106381" lon="-2.008914453908801">
        <ele>1025.864013671875</ele>
        <time>2011-04-17T18:08:12Z</time>
      </trkpt>
      <trkpt lat="33.823675503954291" lon="-2.008077437058091">
        <ele>1029.709228515625</ele>
        <time>2011-04-17T18:08:26Z</time>
      </trkpt>
      <trkpt lat="33.820288209244609" lon="-2.00686315074563">
        <ele>1034.99658203125</ele>
        <time>2011-04-17T18:08:40Z</time>
      </trkpt>
      <trkpt lat="33.818857753649354" lon="-2.00618103146553">
        <ele>1036.438720703125</ele>
        <time>2011-04-17T18:08:46Z</time>
      </trkpt>
      <trkpt lat="33.817854858934879" lon="-2.005342673510313">
        <ele>1036.438720703125</ele>
        <time>2011-04-17T18:08:51Z</time>
      </trkpt>
      <trkpt lat="33.816655660048127" lon="-2.003831164911389">
        <ele>1041.725830078125</ele>
        <time>2011-04-17T18:08:58Z</time>
      </trkpt>
      <trkpt lat="33.815944120287895" lon="-2.002345053479075">
        <ele>1047.012939453125</ele>
        <time>2011-04-17T18:09:04Z</time>
      </trkpt>
      <trkpt lat="33.814634280279279" lon="-1.999216759577394">
        <ele>1057.587646484375</ele>
        <time>2011-04-17T18:09:16Z</time>
      </trkpt>
      <trkpt lat="33.813655776903033" lon="-1.997514478862286">
        <ele>1059.51025390625</ele>
        <time>2011-04-17T18:09:23Z</time>
      </trkpt>
      <trkpt lat="33.81238566711545" lon="-1.996015543118119">
        <ele>1058.068359375</ele>
        <time>2011-04-17T18:09:30Z</time>
      </trkpt>
      <trkpt lat="33.811048921197653" lon="-1.994972079992294">
        <ele>1058.548828125</ele>
        <time>2011-04-17T18:09:36Z</time>
      </trkpt>
      <trkpt lat="33.80955602042377" lon="-1.994214691221714">
        <ele>1061.91357421875</ele>
        <time>2011-04-17T18:09:42Z</time>
      </trkpt>
      <trkpt lat="33.807985754683614" lon="-1.993779167532921">
        <ele>1062.874755859375</ele>
        <time>2011-04-17T18:09:48Z</time>
      </trkpt>
      <trkpt lat="33.804789651185274" lon="-1.993096545338631">
        <ele>1064.79736328125</ele>
        <time>2011-04-17T18:10:00Z</time>
      </trkpt>
      <trkpt lat="33.803120730444789" lon="-1.993097048252821">
        <ele>1067.68115234375</ele>
        <time>2011-04-17T18:10:06Z</time>
      </trkpt>
      <trkpt lat="33.801215859130025" lon="-1.993394773453474">
        <ele>1070.084716796875</ele>
        <time>2011-04-17T18:10:13Z</time>
      </trkpt>
      <trkpt lat="33.797854045405984" lon="-1.993895173072815">
        <ele>1074.41064453125</ele>
        <time>2011-04-17T18:10:26Z</time>
      </trkpt>
      <trkpt lat="33.794381758198142" lon="-1.994402781128883">
        <ele>1077.294677734375</ele>
        <time>2011-04-17T18:10:39Z</time>
      </trkpt>
      <trkpt lat="33.791221948340535" lon="-1.994861019775271">
        <ele>1079.217041015625</ele>
        <time>2011-04-17T18:10:51Z</time>
      </trkpt>
      <trkpt lat="33.787358896806836" lon="-1.995402155444026">
        <ele>1080.178466796875</ele>
        <time>2011-04-17T18:11:06Z</time>
      </trkpt>
      <trkpt lat="33.785448661074042" lon="-1.995395366102457">
        <ele>1081.139892578125</ele>
        <time>2011-04-17T18:11:13Z</time>
      </trkpt>
      <trkpt lat="33.781160898506641" lon="-1.995102167129517">
        <ele>1082.10107421875</ele>
        <time>2011-04-17T18:11:28Z</time>
      </trkpt>
      <trkpt lat="33.776633748784661" lon="-1.994814667850733">
        <ele>1083.54296875</ele>
        <time>2011-04-17T18:11:44Z</time>
      </trkpt>
      <trkpt lat="33.773148218169808" lon="-1.994609981775284">
        <ele>1085.946533203125</ele>
        <time>2011-04-17T18:11:57Z</time>
      </trkpt>
      <trkpt lat="33.768370617181063" lon="-1.994307143613696">
        <ele>1088.349853515625</ele>
        <time>2011-04-17T18:12:15Z</time>
      </trkpt>
      <trkpt lat="33.764077741652727" lon="-1.994038419798017">
        <ele>1090.7529296875</ele>
        <time>2011-04-17T18:12:31Z</time>
      </trkpt>
      <trkpt lat="33.760712826624513" lon="-1.993825687095523">
        <ele>1092.195068359375</ele>
        <time>2011-04-17T18:12:43Z</time>
      </trkpt>
      <trkpt lat="33.75656864605844" lon="-1.993566434830427">
        <ele>1092.67578125</ele>
        <time>2011-04-17T18:12:57Z</time>
      </trkpt>
      <trkpt lat="33.753672195598483" lon="-1.993283964693546">
        <ele>1093.15625</ele>
        <time>2011-04-17T18:13:07Z</time>
      </trkpt>
      <trkpt lat="33.751156786456704" lon="-1.992540573701263">
        <ele>1093.636962890625</ele>
        <time>2011-04-17T18:13:16Z</time>
      </trkpt>
      <trkpt lat="33.747617779299617" lon="-1.991476658731699">
        <ele>1093.636962890625</ele>
        <time>2011-04-17T18:13:29Z</time>
      </trkpt>
      <trkpt lat="33.743074955418706" lon="-1.990105463191867">
        <ele>1093.636962890625</ele>
        <time>2011-04-17T18:13:46Z</time>
      </trkpt>
      <trkpt lat="33.739054156467319" lon="-1.988872066140175">
        <ele>1094.11767578125</ele>
        <time>2011-04-17T18:14:01Z</time>
      </trkpt>
      <trkpt lat="33.735797870904207" lon="-1.987911248579621">
        <ele>1094.59814453125</ele>
        <time>2011-04-17T18:14:13Z</time>
      </trkpt>
      <trkpt lat="33.732127184048295" lon="-1.986808441579342">
        <ele>1095.078857421875</ele>
        <time>2011-04-17T18:14:27Z</time>
      </trkpt>
      <trkpt lat="33.728795126080513" lon="-1.985883582383394">
        <ele>1095.078857421875</ele>
        <time>2011-04-17T18:14:40Z</time>
      </trkpt>
      <trkpt lat="33.724842723459005" lon="-1.984890243038535">
        <ele>1095.078857421875</ele>
        <time>2011-04-17T18:14:55Z</time>
      </trkpt>
      <trkpt lat="33.721694396808743" lon="-1.984079461544752">
        <ele>1095.078857421875</ele>
        <time>2011-04-17T18:15:07Z</time>
      </trkpt>
      <trkpt lat="33.719124672934413" lon="-1.983245294541121">
        <ele>1096.040283203125</ele>
        <time>2011-04-17T18:15:17Z</time>
      </trkpt>
      <trkpt lat="33.715940220281482" lon="-1.98212094604969">
        <ele>1096.040283203125</ele>
        <time>2011-04-17T18:15:29Z</time>
      </trkpt>
      <trkpt lat="33.71261109597981" lon="-1.980987042188644">
        <ele>1096.52099609375</ele>
        <time>2011-04-17T18:15:41Z</time>
      </trkpt>
      <trkpt lat="33.709693942219019" lon="-1.980101829394698">
        <ele>1097.00146484375</ele>
        <time>2011-04-17T18:15:52Z</time>
      </trkpt>
      <trkpt lat="33.707757471129298" lon="-1.97951702401042">
        <ele>1097.482177734375</ele>
        <time>2011-04-17T18:16:00Z</time>
      </trkpt>
      <trkpt lat="33.705510618165135" lon="-1.978844963014126">
        <ele>1097.482177734375</ele>
        <time>2011-04-17T18:16:10Z</time>
      </trkpt>
      <trkpt lat="33.70359493419528" lon="-1.978443050757051">
        <ele>1096.52099609375</ele>
        <time>2011-04-17T18:16:18Z</time>
      </trkpt>
      <trkpt lat="33.701776983216405" lon="-1.978480098769069">
        <ele>1097.00146484375</ele>
        <time>2011-04-17T18:16:25Z</time>
      </trkpt>
      <trkpt lat="33.698254656046629" lon="-1.978698279708624">
        <ele>1099.885498046875</ele>
        <time>2011-04-17T18:16:39Z</time>
      </trkpt>
      <trkpt lat="33.696342827752233" lon="-1.978694256395102">
        <ele>1100.846923828125</ele>
        <time>2011-04-17T18:16:47Z</time>
      </trkpt>
      <trkpt lat="33.694613054394722" lon="-1.978265019133687">
        <ele>1100.366455078125</ele>
        <time>2011-04-17T18:16:54Z</time>
      </trkpt>
      <trkpt lat="33.691188963130116" lon="-1.977020390331745">
        <ele>1101.32763671875</ele>
        <time>2011-04-17T18:17:08Z</time>
      </trkpt>
      <trkpt lat="33.688430981710553" lon="-1.976000899448991">
        <ele>1101.32763671875</ele>
        <time>2011-04-17T18:17:19Z</time>
      </trkpt>
      <trkpt lat="33.684254279360175" lon="-1.97448855265975">
        <ele>1101.808349609375</ele>
        <time>2011-04-17T18:17:35Z</time>
      </trkpt>
      <trkpt lat="33.680289890617132" lon="-1.97305005043745">
        <ele>1102.288818359375</ele>
        <time>2011-04-17T18:17:50Z</time>
      </trkpt>
      <trkpt lat="33.676193319261074" lon="-1.971558658406138">
        <ele>1104.211669921875</ele>
        <time>2011-04-17T18:18:05Z</time>
      </trkpt>
      <trkpt lat="33.672303864732385" lon="-1.970044635236263">
        <ele>1105.1728515625</ele>
        <time>2011-04-17T18:18:19Z</time>
      </trkpt>
      <trkpt lat="33.670221883803606" lon="-1.96912145242095">
        <ele>1106.61474609375</ele>
        <time>2011-04-17T18:18:27Z</time>
      </trkpt>
      <trkpt lat="33.665706049650908" lon="-1.967119267210364">
        <ele>1108.056884765625</ele>
        <time>2011-04-17T18:18:45Z</time>
      </trkpt>
      <trkpt lat="33.662144830450416" lon="-1.965568782761693">
        <ele>1109.01806640625</ele>
        <time>2011-04-17T18:18:59Z</time>
      </trkpt>
      <trkpt lat="33.658250262960792" lon="-1.963912853971124">
        <ele>1109.979248046875</ele>
        <time>2011-04-17T18:19:15Z</time>
      </trkpt>
      <trkpt lat="33.655695542693138" lon="-1.962999394163489">
        <ele>1109.979248046875</ele>
        <time>2011-04-17T18:19:25Z</time>
      </trkpt>
      <trkpt lat="33.652388965710998" lon="-1.962338062003255">
        <ele>1109.979248046875</ele>
        <time>2011-04-17T18:19:37Z</time>
      </trkpt>
      <trkpt lat="33.64901508204639" lon="-1.961667258292437">
        <ele>1109.979248046875</ele>
        <time>2011-04-17T18:19:49Z</time>
      </trkpt>
      <trkpt lat="33.644204623997211" lon="-1.960712475702167">
        <ele>1109.01806640625</ele>
        <time>2011-04-17T18:20:07Z</time>
      </trkpt>
      <trkpt lat="33.640122385695577" lon="-1.959905633702874">
        <ele>1107.576171875</ele>
        <time>2011-04-17T18:20:22Z</time>
      </trkpt>
      <trkpt lat="33.637283351272345" lon="-1.959589635953307">
        <ele>1108.537353515625</ele>
        <time>2011-04-17T18:20:32Z</time>
      </trkpt>
      <trkpt lat="33.633594224229455" lon="-1.959264753386378">
        <ele>1109.979248046875</ele>
        <time>2011-04-17T18:20:45Z</time>
      </trkpt>
      <trkpt lat="33.630446484312415" lon="-1.958996448665857">
        <ele>1110.940673828125</ele>
        <time>2011-04-17T18:20:57Z</time>
      </trkpt>
      <trkpt lat="33.627223055809736" lon="-1.958724455907941">
        <ele>1112.382568359375</ele>
        <time>2011-04-17T18:21:10Z</time>
      </trkpt>
      <trkpt lat="33.623739033937454" lon="-1.958484398201108">
        <ele>1114.30517578125</ele>
        <time>2011-04-17T18:21:23Z</time>
      </trkpt>
      <trkpt lat="33.620405299589038" lon="-1.95825238712132">
        <ele>1115.2666015625</ele>
        <time>2011-04-17T18:21:35Z</time>
      </trkpt>
      <trkpt lat="33.616045620292425" lon="-1.957954661920667">
        <ele>1114.30517578125</ele>
        <time>2011-04-17T18:21:51Z</time>
      </trkpt>
      <trkpt lat="33.611623579636216" lon="-1.957637239247561">
        <ele>1113.824462890625</ele>
        <time>2011-04-17T18:22:07Z</time>
      </trkpt>
      <trkpt lat="33.606858719140291" lon="-1.957299616187811">
        <ele>1115.747314453125</ele>
        <time>2011-04-17T18:22:24Z</time>
      </trkpt>
      <trkpt lat="33.601571330800653" lon="-1.956878593191505">
        <ele>1125.841064453125</ele>
        <time>2011-04-17T18:22:43Z</time>
      </trkpt>
      <trkpt lat="33.599704764783382" lon="-1.956408619880676">
        <ele>1127.763671875</ele>
        <time>2011-04-17T18:22:50Z</time>
      </trkpt>
      <trkpt lat="33.595684133470058" lon="-1.955320481210947">
        <ele>1132.08984375</ele>
        <time>2011-04-17T18:23:05Z</time>
      </trkpt>
      <trkpt lat="33.591002421453595" lon="-1.954053891822696">
        <ele>1139.299560546875</ele>
        <time>2011-04-17T18:23:22Z</time>
      </trkpt>
      <trkpt lat="33.587262667715549" lon="-1.953068934381008">
        <ele>1143.62548828125</ele>
        <time>2011-04-17T18:23:35Z</time>
      </trkpt>
      <trkpt lat="33.582948921248317" lon="-1.951924134045839">
        <ele>1148.43212890625</ele>
        <time>2011-04-17T18:23:50Z</time>
      </trkpt>
      <trkpt lat="33.580118855461478" lon="-1.951169595122337">
        <ele>1149.874267578125</ele>
        <time>2011-04-17T18:24:01Z</time>
      </trkpt>
      <trkpt lat="33.575469916686416" lon="-1.949937790632248">
        <ele>1149.874267578125</ele>
        <time>2011-04-17T18:24:19Z</time>
      </trkpt>
      <trkpt lat="33.571704849600792" lon="-1.948940930888057">
        <ele>1147.951416015625</ele>
        <time>2011-04-17T18:24:33Z</time>
      </trkpt>
      <trkpt lat="33.567700060084462" lon="-1.947890175506473">
        <ele>1148.912841796875</ele>
        <time>2011-04-17T18:24:48Z</time>
      </trkpt>
      <trkpt lat="33.564024427905679" lon="-1.947032790631056">
        <ele>1150.83544921875</ele>
        <time>2011-04-17T18:25:02Z</time>
      </trkpt>
      <trkpt lat="33.560733441263437" lon="-1.946672955527902">
        <ele>1154.2001953125</ele>
        <time>2011-04-17T18:25:14Z</time>
      </trkpt>
      <trkpt lat="33.556453390046954" lon="-1.946233240887523">
        <ele>1159.006591796875</ele>
        <time>2011-04-17T18:25:29Z</time>
      </trkpt>
      <trkpt lat="33.55216059833765" lon="-1.945781456306577">
        <ele>1162.37109375</ele>
        <time>2011-04-17T18:25:44Z</time>
      </trkpt>
      <trkpt lat="33.548671044409275" lon="-1.945432098582387">
        <ele>1164.774658203125</ele>
        <time>2011-04-17T18:25:57Z</time>
      </trkpt>
      <trkpt lat="33.545517018064857" lon="-1.945088524371386">
        <ele>1166.697265625</ele>
        <time>2011-04-17T18:26:09Z</time>
      </trkpt>
      <trkpt lat="33.541178964078426" lon="-1.944628357887268">
        <ele>1169.581298828125</ele>
        <time>2011-04-17T18:26:25Z</time>
      </trkpt>
      <trkpt lat="33.539259675890207" lon="-1.944197695702314">
        <ele>1170.54248046875</ele>
        <time>2011-04-17T18:26:32Z</time>
      </trkpt>
      <trkpt lat="33.537252461537719" lon="-1.943633258342743">
        <ele>1173.426513671875</ele>
        <time>2011-04-17T18:26:40Z</time>
      </trkpt>
      <trkpt lat="33.533496949821711" lon="-1.942596836015582">
        <ele>1181.59765625</ele>
        <time>2011-04-17T18:26:55Z</time>
      </trkpt>
      <trkpt lat="33.529078848659992" lon="-1.941368551924825">
        <ele>1190.72998046875</ele>
        <time>2011-04-17T18:27:12Z</time>
      </trkpt>
      <trkpt lat="33.524722857400775" lon="-1.940170358866453">
        <ele>1199.382080078125</ele>
        <time>2011-04-17T18:27:28Z</time>
      </trkpt>
      <trkpt lat="33.5203542932868" lon="-1.938971662893891">
        <ele>1207.55322265625</ele>
        <time>2011-04-17T18:27:44Z</time>
      </trkpt>
      <trkpt lat="33.51612813770771" lon="-1.937813367694616">
        <ele>1216.205078125</ele>
        <time>2011-04-17T18:28:00Z</time>
      </trkpt>
      <trkpt lat="33.512433730065823" lon="-1.936821453273296">
        <ele>1221.01171875</ele>
        <time>2011-04-17T18:28:14Z</time>
      </trkpt>
      <trkpt lat="33.510663639754057" lon="-1.93667259067297">
        <ele>1221.972900390625</ele>
        <time>2011-04-17T18:28:21Z</time>
      </trkpt>
      <trkpt lat="33.508721552789211" lon="-1.936925472691655">
        <ele>1223.4150390625</ele>
        <time>2011-04-17T18:28:29Z</time>
      </trkpt>
      <trkpt lat="33.50593775510788" lon="-1.937355129048228">
        <ele>1225.818115234375</ele>
        <time>2011-04-17T18:28:40Z</time>
      </trkpt>
      <trkpt lat="33.502178387716413" lon="-1.937955189496279">
        <ele>1227.26025390625</ele>
        <time>2011-04-17T18:28:54Z</time>
      </trkpt>
      <trkpt lat="33.497691638767719" lon="-1.938948864117265">
        <ele>1229.66357421875</ele>
        <time>2011-04-17T18:29:10Z</time>
      </trkpt>
      <trkpt lat="33.493350818753242" lon="-1.939657051116228">
        <ele>1230.625</ele>
        <time>2011-04-17T18:29:25Z</time>
      </trkpt>
      <trkpt lat="33.489601844921708" lon="-1.940268930047751">
        <ele>1232.06689453125</ele>
        <time>2011-04-17T18:29:38Z</time>
      </trkpt>
      <trkpt lat="33.485021386295557" lon="-1.941121118143201">
        <ele>1237.834716796875</ele>
        <time>2011-04-17T18:29:54Z</time>
      </trkpt>
      <trkpt lat="33.481547338888049" lon="-1.941767446696758">
        <ele>1244.56396484375</ele>
        <time>2011-04-17T18:30:06Z</time>
      </trkpt>
      <trkpt lat="33.476623557507992" lon="-1.942730192095041">
        <ele>1253.2158203125</ele>
        <time>2011-04-17T18:30:23Z</time>
      </trkpt>
      <trkpt lat="33.472239403054118" lon="-1.943619595840573">
        <ele>1266.193603515625</ele>
        <time>2011-04-17T18:30:38Z</time>
      </trkpt>
      <trkpt lat="33.467956921085715" lon="-1.944543784484267">
        <ele>1278.210205078125</ele>
        <time>2011-04-17T18:30:53Z</time>
      </trkpt>
      <trkpt lat="33.465218637138605" lon="-1.945150634273887">
        <ele>1284.458740234375</ele>
        <time>2011-04-17T18:31:03Z</time>
      </trkpt>
      <trkpt lat="33.461055178195238" lon="-1.946077337488532">
        <ele>1292.630126953125</ele>
        <time>2011-04-17T18:31:18Z</time>
      </trkpt>
      <trkpt lat="33.457129010930657" lon="-1.946915863081813">
        <ele>1300.320556640625</ele>
        <time>2011-04-17T18:31:32Z</time>
      </trkpt>
      <trkpt lat="33.453064626082778" lon="-1.947837956249714">
        <ele>1307.049560546875</ele>
        <time>2011-04-17T18:31:47Z</time>
      </trkpt>
      <trkpt lat="33.44879949465394" lon="-1.948835654184222">
        <ele>1313.29833984375</ele>
        <time>2011-04-17T18:32:03Z</time>
      </trkpt>
      <trkpt lat="33.443940253928304" lon="-1.94992077536881">
        <ele>1319.546875</ele>
        <time>2011-04-17T18:32:21Z</time>
      </trkpt>
      <trkpt lat="33.440691344439983" lon="-1.95063172839582">
        <ele>1324.353515625</ele>
        <time>2011-04-17T18:32:33Z</time>
      </trkpt>
      <trkpt lat="33.437375295907259" lon="-1.951158363372088">
        <ele>1326.276123046875</ele>
        <time>2011-04-17T18:32:45Z</time>
      </trkpt>
      <trkpt lat="33.432323271408677" lon="-1.951920110732317">
        <ele>1325.79541015625</ele>
        <time>2011-04-17T18:33:03Z</time>
      </trkpt>
      <trkpt lat="33.427714733406901" lon="-1.952613042667508">
        <ele>1327.237548828125</ele>
        <time>2011-04-17T18:33:19Z</time>
      </trkpt>
      <trkpt lat="33.423660155385733" lon="-1.953222490847111">
        <ele>1327.237548828125</ele>
        <time>2011-04-17T18:33:33Z</time>
      </trkpt>
      <trkpt lat="33.420365145429969" lon="-1.953717777505517">
        <ele>1329.640625</ele>
        <time>2011-04-17T18:33:45Z</time>
      </trkpt>
      <trkpt lat="33.416581302881241" lon="-1.954264612868428">
        <ele>1333.48583984375</ele>
        <time>2011-04-17T18:33:58Z</time>
      </trkpt>
      <trkpt lat="33.413806557655334" lon="-1.954657137393951">
        <ele>1335.408447265625</ele>
        <time>2011-04-17T18:34:08Z</time>
      </trkpt>
      <trkpt lat="33.409761115908623" lon="-1.955203218385577">
        <ele>1336.850341796875</ele>
        <time>2011-04-17T18:34:23Z</time>
      </trkpt>
      <trkpt lat="33.404794251546264" lon="-1.955866981297731">
        <ele>1341.176513671875</ele>
        <time>2011-04-17T18:34:41Z</time>
      </trkpt>
      <trkpt lat="33.400044310837984" lon="-1.956525044515729">
        <ele>1343.579833984375</ele>
        <time>2011-04-17T18:34:58Z</time>
      </trkpt>
      <trkpt lat="33.39505422860384" lon="-1.957243792712688">
        <ele>1349.828369140625</ele>
        <time>2011-04-17T18:35:16Z</time>
      </trkpt>
      <trkpt lat="33.390541663393378" lon="-1.957900933921337">
        <ele>1346.4638671875</ele>
        <time>2011-04-17T18:35:33Z</time>
      </trkpt>
      <trkpt lat="33.386252811178565" lon="-1.958571821451187">
        <ele>1340.21533203125</ele>
        <time>2011-04-17T18:35:49Z</time>
      </trkpt>
      <trkpt lat="33.381582163274288" lon="-1.959308758378029">
        <ele>1322.4306640625</ele>
        <time>2011-04-17T18:36:06Z</time>
      </trkpt>
      <trkpt lat="33.379282839596272" lon="-1.959679489955306">
        <ele>1315.220947265625</ele>
        <time>2011-04-17T18:36:15Z</time>
      </trkpt>
      <trkpt lat="33.37719633243978" lon="-1.960017196834087">
        <ele>1308.49169921875</ele>
        <time>2011-04-17T18:36:24Z</time>
      </trkpt>
      <trkpt lat="33.376028146594763" lon="-1.960206292569637">
        <ele>1303.204345703125</ele>
        <time>2011-04-17T18:36:30Z</time>
      </trkpt>
      <trkpt lat="33.375206217169762" lon="-1.960339397192001">
        <ele>1296.475341796875</ele>
        <time>2011-04-17T18:36:36Z</time>
      </trkpt>
      <trkpt lat="33.37402462027967" lon="-1.960530588403344">
        <ele>1289.26513671875</ele>
        <time>2011-04-17T18:36:44Z</time>
      </trkpt>
      <trkpt lat="33.372500538825989" lon="-1.96075513958931">
        <ele>1289.745849609375</ele>
        <time>2011-04-17T18:36:52Z</time>
      </trkpt>
      <trkpt lat="33.369546504691243" lon="-1.961104581132531">
        <ele>1290.2265625</ele>
        <time>2011-04-17T18:37:06Z</time>
      </trkpt>
      <trkpt lat="33.367205020040274" lon="-1.961614536121488">
        <ele>1289.745849609375</ele>
        <time>2011-04-17T18:37:16Z</time>
      </trkpt>
      <trkpt lat="33.36369794793427" lon="-1.96237837895751">
        <ele>1284.458740234375</ele>
        <time>2011-04-17T18:37:30Z</time>
      </trkpt>
      <trkpt lat="33.360174363479018" lon="-1.963067622855306">
        <ele>1273.884033203125</ele>
        <time>2011-04-17T18:37:44Z</time>
      </trkpt>
      <trkpt lat="33.356417929753661" lon="-1.963768685236573">
        <ele>1265.232421875</ele>
        <time>2011-04-17T18:37:59Z</time>
      </trkpt>
      <trkpt lat="33.352648839354515" lon="-1.96466269902885">
        <ele>1260.42578125</ele>
        <time>2011-04-17T18:38:14Z</time>
      </trkpt>
      <trkpt lat="33.348870612680912" lon="-1.965585965663195">
        <ele>1258.0224609375</ele>
        <time>2011-04-17T18:38:29Z</time>
      </trkpt>
      <trkpt lat="33.345991596579552" lon="-1.966312425211072">
        <ele>1257.541748046875</ele>
        <time>2011-04-17T18:38:41Z</time>
      </trkpt>
      <trkpt lat="33.343409635126591" lon="-1.966979121789336">
        <ele>1258.5029296875</ele>
        <time>2011-04-17T18:38:52Z</time>
      </trkpt>
      <trkpt lat="33.340226272121072" lon="-1.967918397858739">
        <ele>1260.42578125</ele>
        <time>2011-04-17T18:39:05Z</time>
      </trkpt>
      <trkpt lat="33.338270438835025" lon="-1.968581238761544">
        <ele>1260.906494140625</ele>
        <time>2011-04-17T18:39:13Z</time>
      </trkpt>
      <trkpt lat="33.334314431995153" lon="-1.970018651336432">
        <ele>1263.309814453125</ele>
        <time>2011-04-17T18:39:29Z</time>
      </trkpt>
      <trkpt lat="33.330722786486149" lon="-1.970769166946411">
        <ele>1264.751708984375</ele>
        <time>2011-04-17T18:39:43Z</time>
      </trkpt>
      <trkpt lat="33.327605975791812" lon="-1.972374888136983">
        <ele>1263.309814453125</ele>
        <time>2011-04-17T18:39:56Z</time>
      </trkpt>
      <trkpt lat="33.325486108660698" lon="-1.972636235877872">
        <ele>1263.309814453125</ele>
        <time>2011-04-17T18:40:04Z</time>
      </trkpt>
      <trkpt lat="33.321269089356065" lon="-1.973086008802056">
        <ele>1258.0224609375</ele>
        <time>2011-04-17T18:40:20Z</time>
      </trkpt>
      <trkpt lat="33.317920099943876" lon="-1.973449448123574">
        <ele>1249.37060546875</ele>
        <time>2011-04-17T18:40:33Z</time>
      </trkpt>
      <trkpt lat="33.314142962917686" lon="-1.973854210227728">
        <ele>1255.138427734375</ele>
        <time>2011-04-17T18:40:47Z</time>
      </trkpt>
      <trkpt lat="33.310659695416689" lon="-1.974221337586641">
        <ele>1259.94482421875</ele>
        <time>2011-04-17T18:40:59Z</time>
      </trkpt>
      <trkpt lat="33.30760826356709" lon="-1.974547142162919">
        <ele>1263.790283203125</ele>
        <time>2011-04-17T18:41:10Z</time>
      </trkpt>
      <trkpt lat="33.303063260391355" lon="-1.975042931735516">
        <ele>1270.038818359375</ele>
        <time>2011-04-17T18:41:27Z</time>
      </trkpt>
      <trkpt lat="33.299369439482689" lon="-1.975445849820972">
        <ele>1272.9228515625</ele>
        <time>2011-04-17T18:41:41Z</time>
      </trkpt>
      <trkpt lat="33.294653864577413" lon="-1.976303067058325">
        <ele>1283.0166015625</ele>
        <time>2011-04-17T18:41:59Z</time>
      </trkpt>
      <trkpt lat="33.291175290942192" lon="-1.976952413097024">
        <ele>1290.70703125</ele>
        <time>2011-04-17T18:42:12Z</time>
      </trkpt>
      <trkpt lat="33.287108475342393" lon="-1.977717345580459">
        <ele>1296.475341796875</ele>
        <time>2011-04-17T18:42:27Z</time>
      </trkpt>
      <trkpt lat="33.28410423360765" lon="-1.978320758789778">
        <ele>1298.397705078125</ele>
        <time>2011-04-17T18:42:38Z</time>
      </trkpt>
      <trkpt lat="33.279897272586823" lon="-1.979166995733976">
        <ele>1300.320556640625</ele>
        <time>2011-04-17T18:42:54Z</time>
      </trkpt>
      <trkpt lat="33.276652386412024" lon="-1.979944165796042">
        <ele>1302.242919921875</ele>
        <time>2011-04-17T18:43:06Z</time>
      </trkpt>
      <trkpt lat="33.273506071418524" lon="-1.980987377464771">
        <ele>1306.088134765625</ele>
        <time>2011-04-17T18:43:18Z</time>
      </trkpt>
      <trkpt lat="33.272295473143458" lon="-1.981641920283437">
        <ele>1307.5302734375</ele>
        <time>2011-04-17T18:43:24Z</time>
      </trkpt>
      <trkpt lat="33.270558658987284" lon="-1.982022123411298">
        <ele>1308.49169921875</ele>
        <time>2011-04-17T18:43:31Z</time>
      </trkpt>
      <trkpt lat="33.268173253163695" lon="-1.984233940020204">
        <ele>1304.165771484375</ele>
        <time>2011-04-17T18:43:43Z</time>
      </trkpt>
      <trkpt lat="33.266478683799505" lon="-1.985833458602428">
        <ele>1300.320556640625</ele>
        <time>2011-04-17T18:43:52Z</time>
      </trkpt>
      <trkpt lat="33.263542335480452" lon="-1.988589428365231">
        <ele>1307.5302734375</ele>
        <time>2011-04-17T18:44:07Z</time>
      </trkpt>
      <trkpt lat="33.260315973311663" lon="-1.9915905687958">
        <ele>1315.220947265625</ele>
        <time>2011-04-17T18:44:23Z</time>
      </trkpt>
      <trkpt lat="33.257104447111487" lon="-1.994553320109844">
        <ele>1321.949951171875</ele>
        <time>2011-04-17T18:44:39Z</time>
      </trkpt>
      <trkpt lat="33.254322744905949" lon="-1.997110052034259">
        <ele>1325.314697265625</ele>
        <time>2011-04-17T18:44:53Z</time>
      </trkpt>
      <trkpt lat="33.251296877861023" lon="-1.999919917434454">
        <ele>1324.353515625</ele>
        <time>2011-04-17T18:45:08Z</time>
      </trkpt>
      <trkpt lat="33.248948939144611" lon="-2.002136930823326">
        <ele>1311.375732421875</ele>
        <time>2011-04-17T18:45:20Z</time>
      </trkpt>
      <trkpt lat="33.247236013412476" lon="-2.004053704440594">
        <ele>1296.955810546875</ele>
        <time>2011-04-17T18:45:30Z</time>
      </trkpt>
      <trkpt lat="33.245581593364477" lon="-2.005145195871592">
        <ele>1291.187744140625</ele>
        <time>2011-04-17T18:45:39Z</time>
      </trkpt>
      <trkpt lat="33.244093302637339" lon="-2.006080280989409">
        <ele>1286.38134765625</ele>
        <time>2011-04-17T18:45:48Z</time>
      </trkpt>
      <trkpt lat="33.242333354428411" lon="-2.007162552326918">
        <ele>1281.09423828125</ele>
        <time>2011-04-17T18:45:58Z</time>
      </trkpt>
      <trkpt lat="33.24016822502017" lon="-2.008454455062747">
        <ele>1274.845458984375</ele>
        <time>2011-04-17T18:46:09Z</time>
      </trkpt>
      <trkpt lat="33.237308235839009" lon="-2.010047184303403">
        <ele>1270.038818359375</ele>
        <time>2011-04-17T18:46:23Z</time>
      </trkpt>
      <trkpt lat="33.234668942168355" lon="-2.011605966836214">
        <ele>1267.635498046875</ele>
        <time>2011-04-17T18:46:35Z</time>
      </trkpt>
      <trkpt lat="33.231293549761176" lon="-2.013817364349961">
        <ele>1271.480712890625</ele>
        <time>2011-04-17T18:46:50Z</time>
      </trkpt>
      <trkpt lat="33.228249829262495" lon="-2.015729444101453">
        <ele>1275.325927734375</ele>
        <time>2011-04-17T18:47:04Z</time>
      </trkpt>
      <trkpt lat="33.226556098088622" lon="-2.016381891444325">
        <ele>1276.768310546875</ele>
        <time>2011-04-17T18:47:12Z</time>
      </trkpt>
      <trkpt lat="33.225250532850623" lon="-2.01678279787302">
        <ele>1276.28759765625</ele>
        <time>2011-04-17T18:47:19Z</time>
      </trkpt>
      <trkpt lat="33.223416237160563" lon="-2.017256543040276">
        <ele>1278.69091796875</ele>
        <time>2011-04-17T18:47:30Z</time>
      </trkpt>
      <trkpt lat="33.221260579302907" lon="-2.017781166359782">
        <ele>1281.57470703125</ele>
        <time>2011-04-17T18:47:42Z</time>
      </trkpt>
      <trkpt lat="33.218550710007548" lon="-2.018220210447907">
        <ele>1285.419921875</ele>
        <time>2011-04-17T18:47:56Z</time>
      </trkpt>
      <trkpt lat="33.215797170996666" lon="-2.018616674467921">
        <ele>1289.745849609375</ele>
        <time>2011-04-17T18:48:10Z</time>
      </trkpt>
      <trkpt lat="33.21291639469564" lon="-2.019131658598781">
        <ele>1289.26513671875</ele>
        <time>2011-04-17T18:48:24Z</time>
      </trkpt>
      <trkpt lat="33.210980677977204" lon="-2.019494511187077">
        <ele>1290.2265625</ele>
        <time>2011-04-17T18:48:34Z</time>
      </trkpt>
      <trkpt lat="33.209201954305172" lon="-2.019903548061848">
        <ele>1292.1494140625</ele>
        <time>2011-04-17T18:48:44Z</time>
      </trkpt>
      <trkpt lat="33.206959124654531" lon="-2.020419370383024">
        <ele>1296.475341796875</ele>
        <time>2011-04-17T18:48:55Z</time>
      </trkpt>
      <trkpt lat="33.203974412754178" lon="-2.021029489114881">
        <ele>1298.397705078125</ele>
        <time>2011-04-17T18:49:09Z</time>
      </trkpt>
      <trkpt lat="33.201073184609413" lon="-2.021322771906853">
        <ele>1298.87841796875</ele>
        <time>2011-04-17T18:49:22Z</time>
      </trkpt>
      <trkpt lat="33.199534518644214" lon="-2.021478256210685">
        <ele>1301.28173828125</ele>
        <time>2011-04-17T18:49:30Z</time>
      </trkpt>
      <trkpt lat="33.196919029578567" lon="-2.021742621436715">
        <ele>1303.204345703125</ele>
        <time>2011-04-17T18:49:45Z</time>
      </trkpt>
      <trkpt lat="33.195519419386983" lon="-2.021685373038054">
        <ele>1289.745849609375</ele>
        <time>2011-04-17T18:49:54Z</time>
      </trkpt>
      <trkpt lat="33.194105476140976" lon="-2.021593088284135">
        <ele>1283.497314453125</ele>
        <time>2011-04-17T18:50:04Z</time>
      </trkpt>
      <trkpt lat="33.192925471812487" lon="-2.02131723985076">
        <ele>1277.2490234375</ele>
        <time>2011-04-17T18:50:14Z</time>
      </trkpt>
      <trkpt lat="33.191961301490664" lon="-2.021022448316217">
        <ele>1273.403564453125</ele>
        <time>2011-04-17T18:50:25Z</time>
      </trkpt>
      <trkpt lat="33.191235680133104" lon="-2.020800579339266">
        <ele>1271.96142578125</ele>
        <time>2011-04-17T18:50:36Z</time>
      </trkpt>
      <trkpt lat="33.190321801230311" lon="-2.020527077838779">
        <ele>1270.51953125</ele>
        <time>2011-04-17T18:50:45Z</time>
      </trkpt>
      <trkpt lat="33.189059486612678" lon="-2.020259611308575">
        <ele>1270.51953125</ele>
        <time>2011-04-17T18:50:54Z</time>
      </trkpt>
      <trkpt lat="33.187706312164664" lon="-2.019972950220108">
        <ele>1268.596923828125</ele>
        <time>2011-04-17T18:51:04Z</time>
      </trkpt>
      <trkpt lat="33.186204778030515" lon="-2.019654856994748">
        <ele>1269.07763671875</ele>
        <time>2011-04-17T18:51:16Z</time>
      </trkpt>
      <trkpt lat="33.185798339545727" lon="-2.0194829441607">
        <ele>1270.51953125</ele>
        <time>2011-04-17T18:51:22Z</time>
      </trkpt>
      <trkpt lat="33.185503128916025" lon="-2.019309941679239">
        <ele>1271.000244140625</ele>
        <time>2011-04-17T18:51:26Z</time>
      </trkpt>
      <trkpt lat="33.184834420681" lon="-2.019883682951331">
        <ele>1271.000244140625</ele>
        <time>2011-04-17T18:51:33Z</time>
      </trkpt>
      <trkpt lat="33.184420019388199" lon="-2.020010920241475">
        <ele>1274.36474609375</ele>
        <time>2011-04-17T18:51:42Z</time>
      </trkpt>
      <trkpt lat="33.184313150122762" lon="-2.020268663764">
        <ele>1277.7294921875</ele>
        <time>2011-04-17T18:51:50Z</time>
      </trkpt>
      <trkpt lat="33.18427937105298" lon="-2.020605867728591">
        <ele>1273.884033203125</ele>
        <time>2011-04-17T18:51:58Z</time>
      </trkpt>
      <trkpt lat="33.184344246983528" lon="-2.021176340058446">
        <ele>1274.36474609375</ele>
        <time>2011-04-17T18:52:08Z</time>
      </trkpt>
      <trkpt lat="33.184489086270332" lon="-2.021784195676446">
        <ele>1273.403564453125</ele>
        <time>2011-04-17T18:52:18Z</time>
      </trkpt>
      <trkpt lat="33.184457737952471" lon="-2.022402863949537">
        <ele>1271.480712890625</ele>
        <time>2011-04-17T18:52:25Z</time>
      </trkpt>
      <trkpt lat="33.18459059111774" lon="-2.023041062057018">
        <ele>1271.000244140625</ele>
        <time>2011-04-17T18:52:31Z</time>
      </trkpt>
      <trkpt lat="33.184575084596872" lon="-2.023820662871003">
        <ele>1272.442138671875</ele>
        <time>2011-04-17T18:52:39Z</time>
      </trkpt>
      <trkpt lat="33.184632249176502" lon="-2.02414789237082">
        <ele>1271.480712890625</ele>
        <time>2011-04-17T18:52:43Z</time>
      </trkpt>
      <trkpt lat="33.184905583038926" lon="-2.025189846754074">
        <ele>1271.000244140625</ele>
        <time>2011-04-17T18:52:54Z</time>
      </trkpt>
      <trkpt lat="33.185258293524384" lon="-2.025734335184097">
        <ele>1271.480712890625</ele>
        <time>2011-04-17T18:53:01Z</time>
      </trkpt>
      <trkpt lat="33.185415035113692" lon="-2.0258585549891">
        <ele>1271.480712890625</ele>
        <time>2011-04-17T18:53:03Z</time>
      </trkpt>
      <trkpt lat="33.185621481388807" lon="-2.026188131421804">
        <ele>1271.480712890625</ele>
        <time>2011-04-17T18:53:07Z</time>
      </trkpt>
      <trkpt lat="33.185754083096981" lon="-2.026993297040463">
        <ele>1271.480712890625</ele>
        <time>2011-04-17T18:53:16Z</time>
      </trkpt>
      <trkpt lat="33.185801776126027" lon="-2.027879934757948">
        <ele>1272.442138671875</ele>
        <time>2011-04-17T18:53:26Z</time>
      </trkpt>
      <trkpt lat="33.1858791410923" lon="-2.028779732063413">
        <ele>1274.36474609375</ele>
        <time>2011-04-17T18:53:36Z</time>
      </trkpt>
      <trkpt lat="33.185995984822512" lon="-2.029436537995935">
        <ele>1276.28759765625</ele>
        <time>2011-04-17T18:53:43Z</time>
      </trkpt>
      <trkpt lat="33.186453133821487" lon="-2.030302556231618">
        <ele>1277.7294921875</ele>
        <time>2011-04-17T18:53:53Z</time>
      </trkpt>
      <trkpt lat="33.186573581770062" lon="-2.030656272545457">
        <ele>1277.2490234375</ele>
        <time>2011-04-17T18:53:57Z</time>
      </trkpt>
      <trkpt lat="33.186737280339003" lon="-2.031754218041897">
        <ele>1273.403564453125</ele>
        <time>2011-04-17T18:54:08Z</time>
      </trkpt>
      <trkpt lat="33.186833169311285" lon="-2.032726937904954">
        <ele>1273.403564453125</ele>
        <time>2011-04-17T18:54:17Z</time>
      </trkpt>
      <trkpt lat="33.186768125742674" lon="-2.034031245857477">
        <ele>1273.403564453125</ele>
        <time>2011-04-17T18:54:28Z</time>
      </trkpt>
      <trkpt lat="33.18670928478241" lon="-2.034773295745254">
        <ele>1273.403564453125</ele>
        <time>2011-04-17T18:54:36Z</time>
      </trkpt>
      <trkpt lat="33.186661340296268" lon="-2.035395819693804">
        <ele>1273.884033203125</ele>
        <time>2011-04-17T18:54:46Z</time>
      </trkpt>
      <trkpt lat="33.186537874862552" lon="-2.036321349442005">
        <ele>1274.36474609375</ele>
        <time>2011-04-17T18:54:56Z</time>
      </trkpt>
      <trkpt lat="33.18646939471364" lon="-2.036626785993576">
        <ele>1274.845458984375</ele>
        <time>2011-04-17T18:55:00Z</time>
      </trkpt>
      <trkpt lat="33.186478028073907" lon="-2.037134394049645">
        <ele>1276.28759765625</ele>
        <time>2011-04-17T18:55:08Z</time>
      </trkpt>
      <trkpt lat="33.186351880431175" lon="-2.037122072651982">
        <ele>1276.768310546875</ele>
        <time>2011-04-17T18:55:29Z</time>
      </trkpt>
      <trkpt lat="33.186232354491949" lon="-2.036686465144157">
        <ele>1283.0166015625</ele>
        <time>2011-04-17T18:55:42Z</time>
      </trkpt>
      <trkpt lat="33.1860725954175" lon="-2.036612872034311">
        <ele>1288.78466796875</ele>
        <time>2011-04-17T18:55:52Z</time>
      </trkpt>
      <trkpt lat="33.186047784984112" lon="-2.036461578682065">
        <ele>1291.66845703125</ele>
        <time>2011-04-17T18:55:58Z</time>
      </trkpt>
      <trkpt lat="33.186010653153062" lon="-2.036326378583908">
        <ele>1293.59130859375</ele>
        <time>2011-04-17T18:56:06Z</time>
      </trkpt>
      <trkpt lat="33.185899090021849" lon="-2.036343477666378">
        <ele>1304.165771484375</ele>
        <time>2011-04-17T18:56:36Z</time>
      </trkpt>
      <trkpt lat="33.185662049800158" lon="-2.036312045529485">
        <ele>1312.817626953125</ele>
        <time>2011-04-17T19:00:39Z</time>
      </trkpt>
      <trkpt lat="33.185874531045556" lon="-2.036296790465713">
        <ele>1304.646240234375</ele>
        <time>2011-04-17T19:00:44Z</time>
      </trkpt>
      <trkpt lat="33.185876877978444" lon="-2.036437774077058">
        <ele>1287.342529296875</ele>
        <time>2011-04-17T19:00:50Z</time>
      </trkpt>
      <trkpt lat="33.185942089185119" lon="-2.036360828205943">
        <ele>1265.713134765625</ele>
        <time>2011-04-17T19:09:12Z</time>
      </trkpt>
    </trkseg>
  </trk>

  <trk>
    <name>110418</name>
    <extensions>
      <gpxx:TrackExtension xmlns:gpxx="http://www.garmin.com/xmlschemas/GpxExtensions/v3">
        <gpxx:DisplayColor>Cyan</gpxx:DisplayColor>
      </gpxx:TrackExtension>
    </extensions>
    <trkseg>
      <trkpt lat="33.186221038922668" lon="-2.03632059507072">
        <ele>1274.845458984375</ele>
        <time>2011-04-18T07:23:21Z</time>
      </trkpt>
      <trkpt lat="33.185623828321695" lon="-2.036307938396931">
        <ele>1243.121826171875</ele>
        <time>2011-04-18T07:43:18Z</time>
      </trkpt>
      <trkpt lat="33.185538332909346" lon="-2.036352446302772">
        <ele>1242.641357421875</ele>
        <time>2011-04-18T07:43:26Z</time>
      </trkpt>
      <trkpt lat="33.185658361762762" lon="-2.036363426595926">
        <ele>1233.989501953125</ele>
        <time>2011-04-18T07:45:31Z</time>
      </trkpt>
      <trkpt lat="33.185298694297671" lon="-2.036005016416311">
        <ele>1233.989501953125</ele>
        <time>2011-04-18T07:45:41Z</time>
      </trkpt>
      <trkpt lat="33.184795780107379" lon="-2.035820782184601">
        <ele>1234.950927734375</ele>
        <time>2011-04-18T07:45:54Z</time>
      </trkpt>
      <trkpt lat="33.184520686045289" lon="-2.035837545990944">
        <ele>1234.950927734375</ele>
        <time>2011-04-18T07:46:03Z</time>
      </trkpt>
      <trkpt lat="33.184279622510076" lon="-2.035945588722825">
        <ele>1235.912109375</ele>
        <time>2011-04-18T07:46:10Z</time>
      </trkpt>
      <trkpt lat="33.183965720236301" lon="-2.035883646458387">
        <ele>1234.47021484375</ele>
        <time>2011-04-18T07:46:18Z</time>
      </trkpt>
      <trkpt lat="33.183823898434639" lon="-2.035793624818325">
        <ele>1234.950927734375</ele>
        <time>2011-04-18T07:46:22Z</time>
      </trkpt>
      <trkpt lat="33.183413436636329" lon="-2.035426665097475">
        <ele>1234.47021484375</ele>
        <time>2011-04-18T07:46:36Z</time>
      </trkpt>
      <trkpt lat="33.18279929459095" lon="-2.034976473078132">
        <ele>1235.431396484375</ele>
        <time>2011-04-18T07:46:50Z</time>
      </trkpt>
      <trkpt lat="33.182509448379278" lon="-2.034869687631726">
        <ele>1236.873291015625</ele>
        <time>2011-04-18T07:46:56Z</time>
      </trkpt>
      <trkpt lat="33.182297050952911" lon="-2.034890139475465">
        <ele>1236.873291015625</ele>
        <time>2011-04-18T07:47:00Z</time>
      </trkpt>
      <trkpt lat="33.181265657767653" lon="-2.035274533554912">
        <ele>1237.834716796875</ele>
        <time>2011-04-18T07:47:15Z</time>
      </trkpt>
      <trkpt lat="33.180147428065538" lon="-2.035683151334524">
        <ele>1242.641357421875</ele>
        <time>2011-04-18T07:47:27Z</time>
      </trkpt>
      <trkpt lat="33.179517947137356" lon="-2.035790272057056">
        <ele>1243.121826171875</ele>
        <time>2011-04-18T07:47:35Z</time>
      </trkpt>
      <trkpt lat="33.178698532283306" lon="-2.035710141062737">
        <ele>1246.48681640625</ele>
        <time>2011-04-18T07:47:45Z</time>
      </trkpt>
      <trkpt lat="33.177445270121098" lon="-2.035416522994638">
        <ele>1261.867919921875</ele>
        <time>2011-04-18T07:48:00Z</time>
      </trkpt>
      <trkpt lat="33.17636358551681" lon="-2.035186775028706">
        <ele>1277.2490234375</ele>
        <time>2011-04-18T07:48:12Z</time>
      </trkpt>
      <trkpt lat="33.174771526828408" lon="-2.034975383430719">
        <ele>1282.5361328125</ele>
        <time>2011-04-18T07:48:29Z</time>
      </trkpt>
      <trkpt lat="33.173713898286223" lon="-2.034855019301176">
        <ele>1282.055419921875</ele>
        <time>2011-04-18T07:48:41Z</time>
      </trkpt>
      <trkpt lat="33.173221126198769" lon="-2.034792322665453">
        <ele>1279.17138671875</ele>
        <time>2011-04-18T07:48:48Z</time>
      </trkpt>
      <trkpt lat="33.172232061624527" lon="-2.034696936607361">
        <ele>1280.1328125</ele>
        <time>2011-04-18T07:49:00Z</time>
      </trkpt>
      <trkpt lat="33.170899171382189" lon="-2.034575063735247">
        <ele>1276.28759765625</ele>
        <time>2011-04-18T07:49:16Z</time>
      </trkpt>
      <trkpt lat="33.169780019670725" lon="-2.034390494227409">
        <ele>1268.1162109375</ele>
        <time>2011-04-18T07:49:29Z</time>
      </trkpt>
      <trkpt lat="33.16898088902235" lon="-2.034158734604716">
        <ele>1264.751708984375</ele>
        <time>2011-04-18T07:49:38Z</time>
      </trkpt>
      <trkpt lat="33.167746737599373" lon="-2.034063851460815">
        <ele>1263.309814453125</ele>
        <time>2011-04-18T07:49:52Z</time>
      </trkpt>
      <trkpt lat="33.167482037097216" lon="-2.034073574468494">
        <ele>1263.790283203125</ele>
        <time>2011-04-18T07:49:55Z</time>
      </trkpt>
      <trkpt lat="33.166711069643497" lon="-2.03390333801508">
        <ele>1261.867919921875</ele>
        <time>2011-04-18T07:50:04Z</time>
      </trkpt>
      <trkpt lat="33.165508266538382" lon="-2.033628830686212">
        <ele>1257.541748046875</ele>
        <time>2011-04-18T07:50:17Z</time>
      </trkpt>
      <trkpt lat="33.164456086233258" lon="-2.033367147669196">
        <ele>1256.580322265625</ele>
        <time>2011-04-18T07:50:27Z</time>
      </trkpt>
      <trkpt lat="33.163313465192914" lon="-2.033149050548673">
        <ele>1255.619140625</ele>
        <time>2011-04-18T07:50:37Z</time>
      </trkpt>
      <trkpt lat="33.162054587155581" lon="-2.032900359481573">
        <ele>1254.65771484375</ele>
        <time>2011-04-18T07:50:48Z</time>
      </trkpt>
      <trkpt lat="33.160680793225765" lon="-2.032591989263892">
        <ele>1259.94482421875</ele>
        <time>2011-04-18T07:51:00Z</time>
      </trkpt>
      <trkpt lat="33.159784683957696" lon="-2.032517557963729">
        <ele>1262.348388671875</ele>
        <time>2011-04-18T07:51:08Z</time>
      </trkpt>
      <trkpt lat="33.158489093184471" lon="-2.032618643715978">
        <ele>1255.619140625</ele>
        <time>2011-04-18T07:51:18Z</time>
      </trkpt>
      <trkpt lat="33.157827174291015" lon="-2.032541697844863">
        <ele>1253.2158203125</ele>
        <time>2011-04-18T07:51:24Z</time>
      </trkpt>
      <trkpt lat="33.157566078007221" lon="-2.032540189102292">
        <ele>1252.735107421875</ele>
        <time>2011-04-18T07:51:28Z</time>
      </trkpt>
      <trkpt lat="33.1570197455585" lon="-2.03268276527524">
        <ele>1251.293212890625</ele>
        <time>2011-04-18T07:51:37Z</time>
      </trkpt>
      <trkpt lat="33.156885718926787" lon="-2.032714867964387">
        <ele>1250.8125</ele>
        <time>2011-04-18T07:51:39Z</time>
      </trkpt>
      <trkpt lat="33.156336368992925" lon="-2.033077469095588">
        <ele>1252.735107421875</ele>
        <time>2011-04-18T07:51:46Z</time>
      </trkpt>
      <trkpt lat="33.155690291896462" lon="-2.0336639508605">
        <ele>1256.099609375</ele>
        <time>2011-04-18T07:51:54Z</time>
      </trkpt>
      <trkpt lat="33.155063996091485" lon="-2.034261496737599">
        <ele>1258.983642578125</ele>
        <time>2011-04-18T07:52:02Z</time>
      </trkpt>
      <trkpt lat="33.154341727495193" lon="-2.034532818943262">
        <ele>1256.580322265625</ele>
        <time>2011-04-18T07:52:09Z</time>
      </trkpt>
      <trkpt lat="33.153889775276184" lon="-2.034535920247436">
        <ele>1256.580322265625</ele>
        <time>2011-04-18T07:52:13Z</time>
      </trkpt>
      <trkpt lat="33.153183264657855" lon="-2.034821324050427">
        <ele>1255.619140625</ele>
        <time>2011-04-18T07:52:20Z</time>
      </trkpt>
      <trkpt lat="33.152872966602445" lon="-2.034983932971954">
        <ele>1255.619140625</ele>
        <time>2011-04-18T07:52:27Z</time>
      </trkpt>
      <trkpt lat="33.152296291664243" lon="-2.034870777279139">
        <ele>1257.541748046875</ele>
        <time>2011-04-18T07:52:36Z</time>
      </trkpt>
      <trkpt lat="33.151248889043927" lon="-2.034739516675472">
        <ele>1261.38720703125</ele>
        <time>2011-04-18T07:52:45Z</time>
      </trkpt>
      <trkpt lat="33.150307852774858" lon="-2.03471789136529">
        <ele>1265.232421875</ele>
        <time>2011-04-18T07:52:53Z</time>
      </trkpt>
      <trkpt lat="33.149254499003291" lon="-2.034577829763293">
        <ele>1267.155029296875</ele>
        <time>2011-04-18T07:53:02Z</time>
      </trkpt>
      <trkpt lat="33.147997045889497" lon="-2.034381190314889">
        <ele>1269.07763671875</ele>
        <time>2011-04-18T07:53:12Z</time>
      </trkpt>
      <trkpt lat="33.147066570818424" lon="-2.034337185323238">
        <ele>1271.480712890625</ele>
        <time>2011-04-18T07:53:19Z</time>
      </trkpt>
      <trkpt lat="33.145707193762064" lon="-2.033975841477513">
        <ele>1274.845458984375</ele>
        <time>2011-04-18T07:53:29Z</time>
      </trkpt>
      <trkpt lat="33.144327029585838" lon="-2.033521290868521">
        <ele>1278.210205078125</ele>
        <time>2011-04-18T07:53:39Z</time>
      </trkpt>
      <trkpt lat="33.143102265894413" lon="-2.033243682235479">
        <ele>1280.613525390625</ele>
        <time>2011-04-18T07:53:48Z</time>
      </trkpt>
      <trkpt lat="33.142333393916488" lon="-2.032994069159031">
        <ele>1281.09423828125</ele>
        <time>2011-04-18T07:53:55Z</time>
      </trkpt>
      <trkpt lat="33.141597462818027" lon="-2.03292709775269">
        <ele>1280.613525390625</ele>
        <time>2011-04-18T07:54:01Z</time>
      </trkpt>
      <trkpt lat="33.140727588906884" lon="-2.033021226525307">
        <ele>1280.1328125</ele>
        <time>2011-04-18T07:54:08Z</time>
      </trkpt>
      <trkpt lat="33.139913454651833" lon="-2.033447027206421">
        <ele>1279.652099609375</ele>
        <time>2011-04-18T07:54:16Z</time>
      </trkpt>
      <trkpt lat="33.139710696414113" lon="-2.033567391335964">
        <ele>1279.652099609375</ele>
        <time>2011-04-18T07:54:18Z</time>
      </trkpt>
      <trkpt lat="33.139450857415795" lon="-2.033840054646134">
        <ele>1280.613525390625</ele>
        <time>2011-04-18T07:54:22Z</time>
      </trkpt>
      <trkpt lat="33.139259163290262" lon="-2.034081788733602">
        <ele>1280.1328125</ele>
        <time>2011-04-18T07:54:25Z</time>
      </trkpt>
      <trkpt lat="33.138602441176772" lon="-2.034429721534252">
        <ele>1276.768310546875</ele>
        <time>2011-04-18T07:54:32Z</time>
      </trkpt>
      <trkpt lat="33.137713791802526" lon="-2.034497447311878">
        <ele>1277.7294921875</ele>
        <time>2011-04-18T07:54:41Z</time>
      </trkpt>
      <trkpt lat="33.136991271749139" lon="-2.034413041546941">
        <ele>1279.17138671875</ele>
        <time>2011-04-18T07:54:49Z</time>
      </trkpt>
      <trkpt lat="33.136819694191217" lon="-2.034428967162967">
        <ele>1279.652099609375</ele>
        <time>2011-04-18T07:54:51Z</time>
      </trkpt>
      <trkpt lat="33.136481316760182" lon="-2.034673467278481">
        <ele>1280.1328125</ele>
        <time>2011-04-18T07:54:57Z</time>
      </trkpt>
      <trkpt lat="33.136410657316446" lon="-2.034862395375967">
        <ele>1282.055419921875</ele>
        <time>2011-04-18T07:55:00Z</time>
      </trkpt>
      <trkpt lat="33.13617923296988" lon="-2.035070518031716">
        <ele>1283.0166015625</ele>
        <time>2011-04-18T07:55:07Z</time>
      </trkpt>
      <trkpt lat="33.136053085327148" lon="-2.035132963210344">
        <ele>1275.325927734375</ele>
        <time>2011-04-18T07:55:54Z</time>
      </trkpt>
      <trkpt lat="33.1359519995749" lon="-2.035236395895481">
        <ele>1275.325927734375</ele>
        <time>2011-04-18T07:55:58Z</time>
      </trkpt>
      <trkpt lat="33.135790983214974" lon="-2.035623053088784">
        <ele>1281.09423828125</ele>
        <time>2011-04-18T07:56:08Z</time>
      </trkpt>
      <trkpt lat="33.1357257720083" lon="-2.035726988688111">
        <ele>1280.1328125</ele>
        <time>2011-04-18T07:56:21Z</time>
      </trkpt>
      <trkpt lat="33.135657124221325" lon="-2.035853639245033">
        <ele>1278.210205078125</ele>
        <time>2011-04-18T07:56:31Z</time>
      </trkpt>
      <trkpt lat="33.135570371523499" lon="-2.036131080240011">
        <ele>1277.7294921875</ele>
        <time>2011-04-18T07:56:41Z</time>
      </trkpt>
      <trkpt lat="33.135495185852051" lon="-2.036223532631993">
        <ele>1275.806640625</ele>
        <time>2011-04-18T07:56:46Z</time>
      </trkpt>
      <trkpt lat="33.135423688217998" lon="-2.036469457671046">
        <ele>1277.7294921875</ele>
        <time>2011-04-18T07:56:54Z</time>
      </trkpt>
      <trkpt lat="33.134649619460106" lon="-2.036409694701433">
        <ele>1277.7294921875</ele>
        <time>2011-04-18T07:57:01Z</time>
      </trkpt>
      <trkpt lat="33.134648697450757" lon="-2.036220515146852">
        <ele>1277.7294921875</ele>
        <time>2011-04-18T07:57:05Z</time>
      </trkpt>
      <trkpt lat="33.134081242606044" lon="-2.035530935972929">
        <ele>1279.652099609375</ele>
        <time>2011-04-18T07:57:18Z</time>
      </trkpt>
      <trkpt lat="33.133504986763" lon="-2.035139752551913">
        <ele>1281.09423828125</ele>
        <time>2011-04-18T07:57:26Z</time>
      </trkpt>
      <trkpt lat="33.133309436962008" lon="-2.035053838044405">
        <ele>1281.09423828125</ele>
        <time>2011-04-18T07:57:29Z</time>
      </trkpt>
      <trkpt lat="33.133072983473539" lon="-2.034902963787317">
        <ele>1281.57470703125</ele>
        <time>2011-04-18T07:57:33Z</time>
      </trkpt>
      <trkpt lat="33.13255263492465" lon="-2.03455813229084">
        <ele>1282.055419921875</ele>
        <time>2011-04-18T07:57:40Z</time>
      </trkpt>
      <trkpt lat="33.131593158468604" lon="-2.03393074683845">
        <ele>1284.458740234375</ele>
        <time>2011-04-18T07:57:49Z</time>
      </trkpt>
      <trkpt lat="33.130431845784187" lon="-2.033475274220109">
        <ele>1286.86181640625</ele>
        <time>2011-04-18T07:57:57Z</time>
      </trkpt>
      <trkpt lat="33.128724368289113" lon="-2.03282592818141">
        <ele>1289.26513671875</ele>
        <time>2011-04-18T07:58:07Z</time>
      </trkpt>
      <trkpt lat="33.126407023519278" lon="-2.031929651275277">
        <ele>1293.59130859375</ele>
        <time>2011-04-18T07:58:20Z</time>
      </trkpt>
      <trkpt lat="33.123499844223261" lon="-2.03073606826365">
        <ele>1299.83984375</ele>
        <time>2011-04-18T07:58:37Z</time>
      </trkpt>
      <trkpt lat="33.12279375270009" lon="-2.03011597506702">
        <ele>1299.83984375</ele>
        <time>2011-04-18T07:58:42Z</time>
      </trkpt>
      <trkpt lat="33.122287821024656" lon="-2.029251717031002">
        <ele>1299.83984375</ele>
        <time>2011-04-18T07:58:47Z</time>
      </trkpt>
      <trkpt lat="33.121834024786949" lon="-2.027805335819721">
        <ele>1300.320556640625</ele>
        <time>2011-04-18T07:58:54Z</time>
      </trkpt>
      <trkpt lat="33.121156180277467" lon="-2.025605672970414">
        <ele>1303.204345703125</ele>
        <time>2011-04-18T07:59:05Z</time>
      </trkpt>
      <trkpt lat="33.120805146172643" lon="-2.024547541514039">
        <ele>1303.68505859375</ele>
        <time>2011-04-18T07:59:11Z</time>
      </trkpt>
      <trkpt lat="33.12043416313827" lon="-2.023936836048961">
        <ele>1303.204345703125</ele>
        <time>2011-04-18T07:59:15Z</time>
      </trkpt>
      <trkpt lat="33.118926174938679" lon="-2.022219887003303">
        <ele>1305.126953125</ele>
        <time>2011-04-18T07:59:28Z</time>
      </trkpt>
      <trkpt lat="33.118158392608166" lon="-2.021334590390325">
        <ele>1306.088134765625</ele>
        <time>2011-04-18T07:59:34Z</time>
      </trkpt>
      <trkpt lat="33.117641480639577" lon="-2.021373650059104">
        <ele>1306.56884765625</ele>
        <time>2011-04-18T07:59:38Z</time>
      </trkpt>
      <trkpt lat="33.117521032691002" lon="-2.021382786333561">
        <ele>1306.56884765625</ele>
        <time>2011-04-18T07:59:39Z</time>
      </trkpt>
      <trkpt lat="33.116240361705422" lon="-2.022849787026644">
        <ele>1307.049560546875</ele>
        <time>2011-04-18T07:59:50Z</time>
      </trkpt>
      <trkpt lat="33.115422874689102" lon="-2.022926229983568">
        <ele>1309.93359375</ele>
        <time>2011-04-18T07:59:56Z</time>
      </trkpt>
      <trkpt lat="33.11399208381772" lon="-2.022695560008287">
        <ele>1319.546875</ele>
        <time>2011-04-18T08:00:06Z</time>
      </trkpt>
      <trkpt lat="33.113335277885199" lon="-2.022288450971246">
        <ele>1322.4306640625</ele>
        <time>2011-04-18T08:00:11Z</time>
      </trkpt>
      <trkpt lat="33.112662546336651" lon="-2.02150977216661">
        <ele>1324.353515625</ele>
        <time>2011-04-18T08:00:17Z</time>
      </trkpt>
      <trkpt lat="33.112271027639508" lon="-2.020404869690538">
        <ele>1325.314697265625</ele>
        <time>2011-04-18T08:00:24Z</time>
      </trkpt>
      <trkpt lat="33.111667530611157" lon="-2.018421124666929">
        <ele>1322.4306640625</ele>
        <time>2011-04-18T08:00:35Z</time>
      </trkpt>
      <trkpt lat="33.110870160162449" lon="-2.01607377268374">
        <ele>1325.314697265625</ele>
        <time>2011-04-18T08:00:48Z</time>
      </trkpt>
      <trkpt lat="33.110699253156781" lon="-2.015748135745525">
        <ele>1325.79541015625</ele>
        <time>2011-04-18T08:00:50Z</time>
      </trkpt>
      <trkpt lat="33.109980756416917" lon="-2.01501589268446">
        <ele>1326.276123046875</ele>
        <time>2011-04-18T08:00:56Z</time>
      </trkpt>
      <trkpt lat="33.108952548354864" lon="-2.014567125588656">
        <ele>1331.082763671875</ele>
        <time>2011-04-18T08:01:03Z</time>
      </trkpt>
      <trkpt lat="33.107655448839068" lon="-2.014002436771989">
        <ele>1342.61865234375</ele>
        <time>2011-04-18T08:01:12Z</time>
      </trkpt>
      <trkpt lat="33.106511319056153" lon="-2.012994177639484">
        <ele>1344.060546875</ele>
        <time>2011-04-18T08:01:20Z</time>
      </trkpt>
      <trkpt lat="33.105091927573085" lon="-2.011758768931031">
        <ele>1350.30908203125</ele>
        <time>2011-04-18T08:01:30Z</time>
      </trkpt>
      <trkpt lat="33.104065395891666" lon="-2.011140771210194">
        <ele>1358.480224609375</ele>
        <time>2011-04-18T08:01:37Z</time>
      </trkpt>
      <trkpt lat="33.103325525298715" lon="-2.01040081679821">
        <ele>1362.325439453125</ele>
        <time>2011-04-18T08:01:43Z</time>
      </trkpt>
      <trkpt lat="33.102064216509461" lon="-2.008950831368566">
        <ele>1364.248046875</ele>
        <time>2011-04-18T08:01:55Z</time>
      </trkpt>
      <trkpt lat="33.101793397217989" lon="-2.008682191371918">
        <ele>1363.767333984375</ele>
        <time>2011-04-18T08:01:58Z</time>
      </trkpt>
      <trkpt lat="33.10099745169282" lon="-2.008367786183953">
        <ele>1366.6513671875</ele>
        <time>2011-04-18T08:02:05Z</time>
      </trkpt>
      <trkpt lat="33.09942944906652" lon="-2.008011387661099">
        <ele>1375.30322265625</ele>
        <time>2011-04-18T08:02:18Z</time>
      </trkpt>
      <trkpt lat="33.099077325314283" lon="-2.007944416254759">
        <ele>1377.22607421875</ele>
        <time>2011-04-18T08:02:23Z</time>
      </trkpt>
      <trkpt lat="33.098894096910954" lon="-2.007949948310852">
        <ele>1370.49658203125</ele>
        <time>2011-04-18T08:02:56Z</time>
      </trkpt>
      <trkpt lat="33.098275260999799" lon="-2.00738936662674">
        <ele>1373.861328125</ele>
        <time>2011-04-18T08:03:03Z</time>
      </trkpt>
      <trkpt lat="33.097020573914051" lon="-2.007632944732904">
        <ele>1382.51318359375</ele>
        <time>2011-04-18T08:03:14Z</time>
      </trkpt>
      <trkpt lat="33.095502192154527" lon="-2.008286900818348">
        <ele>1389.72314453125</ele>
        <time>2011-04-18T08:03:27Z</time>
      </trkpt>
      <trkpt lat="33.094018176198006" lon="-2.008794592693448">
        <ele>1391.645751953125</ele>
        <time>2011-04-18T08:03:37Z</time>
      </trkpt>
      <trkpt lat="33.091437304392457" lon="-2.008995674550533">
        <ele>1393.087646484375</ele>
        <time>2011-04-18T08:03:53Z</time>
      </trkpt>
      <trkpt lat="33.090297868475318" lon="-2.008722759783268">
        <ele>1393.568359375</ele>
        <time>2011-04-18T08:04:00Z</time>
      </trkpt>
      <trkpt lat="33.086985340341926" lon="-2.007929664105177">
        <ele>1397.41357421875</ele>
        <time>2011-04-18T08:04:20Z</time>
      </trkpt>
      <trkpt lat="33.08452189899981" lon="-2.007339745759964">
        <ele>1401.2587890625</ele>
        <time>2011-04-18T08:04:35Z</time>
      </trkpt>
      <trkpt lat="33.082507057115436" lon="-2.00685728341341">
        <ele>1402.70068359375</ele>
        <time>2011-04-18T08:04:47Z</time>
      </trkpt>
      <trkpt lat="33.080216031521559" lon="-2.00630852021277">
        <ele>1405.5849609375</ele>
        <time>2011-04-18T08:05:01Z</time>
      </trkpt>
      <trkpt lat="33.077592747285962" lon="-2.005694126710296">
        <ele>1408.46875</ele>
        <time>2011-04-18T08:05:17Z</time>
      </trkpt>
      <trkpt lat="33.075512358918786" lon="-2.005219459533691">
        <ele>1413.275390625</ele>
        <time>2011-04-18T08:05:29Z</time>
      </trkpt>
      <trkpt lat="33.073242036625743" lon="-2.00470145791769">
        <ele>1417.60107421875</ele>
        <time>2011-04-18T08:05:42Z</time>
      </trkpt>
      <trkpt lat="33.072141911834478" lon="-2.004276914522052">
        <ele>1420.4853515625</ele>
        <time>2011-04-18T08:05:50Z</time>
      </trkpt>
      <trkpt lat="33.070969954133034" lon="-2.003809791058302">
        <ele>1420.4853515625</ele>
        <time>2011-04-18T08:06:01Z</time>
      </trkpt>
      <trkpt lat="33.070459915325046" lon="-2.00360644608736">
        <ele>1418.5625</ele>
        <time>2011-04-18T08:06:09Z</time>
      </trkpt>
      <trkpt lat="33.070188676938415" lon="-2.003498319536448">
        <ele>1417.60107421875</ele>
        <time>2011-04-18T08:06:14Z</time>
      </trkpt>
      <trkpt lat="33.07009220123291" lon="-2.003459930419922">
        <ele>1414.71728515625</ele>
        <time>2011-04-18T08:06:21Z</time>
      </trkpt>
      <trkpt lat="33.069408573210239" lon="-2.003391534090042">
        <ele>1411.83349609375</ele>
        <time>2011-04-18T08:06:31Z</time>
      </trkpt>
      <trkpt lat="33.068451024591923" lon="-2.003295728936791">
        <ele>1410.391357421875</ele>
        <time>2011-04-18T08:06:39Z</time>
      </trkpt>
      <trkpt lat="33.067063987255096" lon="-2.00315298512578">
        <ele>1414.71728515625</ele>
        <time>2011-04-18T08:06:48Z</time>
      </trkpt>
      <trkpt lat="33.064926769584417" lon="-2.002576226368547">
        <ele>1415.6787109375</ele>
        <time>2011-04-18T08:07:02Z</time>
      </trkpt>
      <trkpt lat="33.06282140314579" lon="-2.001989744603634">
        <ele>1421.92724609375</ele>
        <time>2011-04-18T08:07:15Z</time>
      </trkpt>
      <trkpt lat="33.06103496812284" lon="-2.001807689666748">
        <ele>1429.136962890625</ele>
        <time>2011-04-18T08:07:27Z</time>
      </trkpt>
      <trkpt lat="33.059779526665807" lon="-2.000991879031062">
        <ele>1430.5791015625</ele>
        <time>2011-04-18T08:07:35Z</time>
      </trkpt>
      <trkpt lat="33.058832958340645" lon="-2.001037895679474">
        <ele>1430.098388671875</ele>
        <time>2011-04-18T08:07:41Z</time>
      </trkpt>
      <trkpt lat="33.057960569858551" lon="-2.001908272504807">
        <ele>1429.61767578125</ele>
        <time>2011-04-18T08:07:48Z</time>
      </trkpt>
      <trkpt lat="33.057215586304665" lon="-2.001981865614653">
        <ele>1423.369384765625</ele>
        <time>2011-04-18T08:07:54Z</time>
      </trkpt>
      <trkpt lat="33.056864552199841" lon="-2.002016566693783">
        <ele>1420.4853515625</ele>
        <time>2011-04-18T08:07:59Z</time>
      </trkpt>
      <trkpt lat="33.056622985750437" lon="-2.002040538936853">
        <ele>1414.71728515625</ele>
        <time>2011-04-18T08:08:06Z</time>
      </trkpt>
      <trkpt lat="33.056515865027905" lon="-2.00205110013485">
        <ele>1407.02685546875</ele>
        <time>2011-04-18T08:08:13Z</time>
      </trkpt>
      <trkpt lat="33.056106241419911" lon="-2.002091500908136">
        <ele>1386.8388671875</ele>
        <time>2011-04-18T08:15:41Z</time>
      </trkpt>
      <trkpt lat="33.055677842348814" lon="-2.002133913338184">
        <ele>1390.203857421875</ele>
        <time>2011-04-18T08:15:51Z</time>
      </trkpt>
      <trkpt lat="33.055005110800266" lon="-2.002193760126829">
        <ele>1393.568359375</ele>
        <time>2011-04-18T08:16:00Z</time>
      </trkpt>
      <trkpt lat="33.053729049861431" lon="-2.002289649099112">
        <ele>1395.490966796875</ele>
        <time>2011-04-18T08:16:14Z</time>
      </trkpt>
      <trkpt lat="33.052141265943646" lon="-2.002409091219306">
        <ele>1396.452392578125</ele>
        <time>2011-04-18T08:16:31Z</time>
      </trkpt>
      <trkpt lat="33.051134431734681" lon="-2.002484779804945">
        <ele>1395.9716796875</ele>
        <time>2011-04-18T08:16:43Z</time>
      </trkpt>
      <trkpt lat="33.050918178632855" lon="-2.002500956878066">
        <ele>1393.568359375</ele>
        <time>2011-04-18T08:16:50Z</time>
      </trkpt>
      <trkpt lat="33.050766969099641" lon="-2.002512356266379">
        <ele>1408.949462890625</ele>
        <time>2011-04-18T08:18:07Z</time>
      </trkpt>
      <trkpt lat="33.050275789573789" lon="-2.002549236640334">
        <ele>1434.42431640625</ele>
        <time>2011-04-18T08:29:26Z</time>
      </trkpt>
      <trkpt lat="33.049802295863628" lon="-2.002584859728813">
        <ele>1435.8662109375</ele>
        <time>2011-04-18T08:29:36Z</time>
      </trkpt>
      <trkpt lat="33.04940365254879" lon="-2.002609418705106">
        <ele>1437.308349609375</ele>
        <time>2011-04-18T08:29:43Z</time>
      </trkpt>
      <trkpt lat="33.048710804432631" lon="-2.002639677375555">
        <ele>1437.7890625</ele>
        <time>2011-04-18T08:29:54Z</time>
      </trkpt>
      <trkpt lat="33.048419700935483" lon="-2.002652501687408">
        <ele>1438.75048828125</ele>
        <time>2011-04-18T08:30:03Z</time>
      </trkpt>
      <trkpt lat="33.048287434503436" lon="-2.002658285200596">
        <ele>1437.308349609375</ele>
        <time>2011-04-18T08:30:12Z</time>
      </trkpt>
      <trkpt lat="33.048179391771555" lon="-2.00296288356185">
        <ele>1438.269775390625</ele>
        <time>2011-04-18T08:30:18Z</time>
      </trkpt>
      <trkpt lat="33.048219876363873" lon="-2.003472838550806">
        <ele>1442.114990234375</ele>
        <time>2011-04-18T08:30:31Z</time>
      </trkpt>
      <trkpt lat="33.048252062872052" lon="-2.003607954829931">
        <ele>1444.51806640625</ele>
        <time>2011-04-18T08:30:38Z</time>
      </trkpt>
      <trkpt lat="33.048375779762864" lon="-2.003646763041616">
        <ele>1444.03759765625</ele>
        <time>2011-04-18T08:30:42Z</time>
      </trkpt>
      <trkpt lat="33.049116237089038" lon="-2.003587167710066">
        <ele>1442.595703125</ele>
        <time>2011-04-18T08:30:52Z</time>
      </trkpt>
      <trkpt lat="33.049710765480995" lon="-2.003549365326762">
        <ele>1442.114990234375</ele>
        <time>2011-04-18T08:31:02Z</time>
      </trkpt>
      <trkpt lat="33.050554487854242" lon="-2.003489183261991">
        <ele>1439.23095703125</ele>
        <time>2011-04-18T08:31:16Z</time>
      </trkpt>
      <trkpt lat="33.050672337412834" lon="-2.0033591799438">
        <ele>1438.75048828125</ele>
        <time>2011-04-18T08:31:21Z</time>
      </trkpt>
      <trkpt lat="33.050644928589463" lon="-2.002815948799253">
        <ele>1438.75048828125</ele>
        <time>2011-04-18T08:31:34Z</time>
      </trkpt>
      <trkpt lat="33.050679042935371" lon="-2.002557450905442">
        <ele>1436.34716796875</ele>
        <time>2011-04-18T08:31:43Z</time>
      </trkpt>
      <trkpt lat="33.050883980467916" lon="-2.002503555268049">
        <ele>1435.8662109375</ele>
        <time>2011-04-18T08:31:47Z</time>
      </trkpt>
      <trkpt lat="33.051700377836823" lon="-2.002442199736834">
        <ele>1434.42431640625</ele>
        <time>2011-04-18T08:31:57Z</time>
      </trkpt>
      <trkpt lat="33.052429854869843" lon="-2.002387382090092">
        <ele>1434.42431640625</ele>
        <time>2011-04-18T08:32:06Z</time>
      </trkpt>
      <trkpt lat="33.053294280543923" lon="-2.002322338521481">
        <ele>1432.501708984375</ele>
        <time>2011-04-18T08:32:17Z</time>
      </trkpt>
      <trkpt lat="33.053841115906835" lon="-2.00228126719594">
        <ele>1432.02099609375</ele>
        <time>2011-04-18T08:32:25Z</time>
      </trkpt>
      <trkpt lat="33.054046723991632" lon="-2.002265760675073">
        <ele>1432.501708984375</ele>
        <time>2011-04-18T08:32:33Z</time>
      </trkpt>
      <trkpt lat="33.054105397313833" lon="-2.001950852572918">
        <ele>1433.943603515625</ele>
        <time>2011-04-18T08:32:42Z</time>
      </trkpt>
      <trkpt lat="33.05424939841032" lon="-2.001969628036022">
        <ele>1454.131591796875</ele>
        <time>2011-04-18T08:33:14Z</time>
      </trkpt>
      <trkpt lat="33.054305389523506" lon="-2.002124525606632">
        <ele>1446.44091796875</ele>
        <time>2011-04-18T08:46:02Z</time>
      </trkpt>
      <trkpt lat="33.054260797798634" lon="-2.002256875857711">
        <ele>1446.92138671875</ele>
        <time>2011-04-18T08:46:11Z</time>
      </trkpt>
      <trkpt lat="33.053961480036378" lon="-2.002295516431332">
        <ele>1447.402099609375</ele>
        <time>2011-04-18T08:46:20Z</time>
      </trkpt>
      <trkpt lat="33.053402071818709" lon="-2.002314291894436">
        <ele>1448.843994140625</ele>
        <time>2011-04-18T08:46:33Z</time>
      </trkpt>
      <trkpt lat="33.052608389407396" lon="-2.002373971045017">
        <ele>1449.805419921875</ele>
        <time>2011-04-18T08:46:44Z</time>
      </trkpt>
      <trkpt lat="33.051668778061867" lon="-2.002444546669722">
        <ele>1449.32470703125</ele>
        <time>2011-04-18T08:46:57Z</time>
      </trkpt>
      <trkpt lat="33.050818182528019" lon="-2.002508584409952">
        <ele>1451.247314453125</ele>
        <time>2011-04-18T08:47:09Z</time>
      </trkpt>
      <trkpt lat="33.050495311617851" lon="-2.002532724291086">
        <ele>1450.7666015625</ele>
        <time>2011-04-18T08:47:19Z</time>
      </trkpt>
      <trkpt lat="33.050393471494317" lon="-2.002540435642004">
        <ele>1451.247314453125</ele>
        <time>2011-04-18T08:47:30Z</time>
      </trkpt>
      <trkpt lat="33.05068583227694" lon="-2.002518475055695">
        <ele>1451.247314453125</ele>
        <time>2011-04-18T09:13:55Z</time>
      </trkpt>
      <trkpt lat="33.050702093169093" lon="-2.002119664102793">
        <ele>1448.36328125</ele>
        <time>2011-04-18T09:14:05Z</time>
      </trkpt>
      <trkpt lat="33.050677953287959" lon="-2.001673579216003">
        <ele>1447.8828125</ele>
        <time>2011-04-18T09:14:15Z</time>
      </trkpt>
      <trkpt lat="33.050652388483286" lon="-2.001177873462439">
        <ele>1448.36328125</ele>
        <time>2011-04-18T09:14:24Z</time>
      </trkpt>
      <trkpt lat="33.050604946911335" lon="-2.000655429437757">
        <ele>1447.402099609375</ele>
        <time>2011-04-18T09:14:32Z</time>
      </trkpt>
      <trkpt lat="33.050737883895636" lon="-2.000489216297865">
        <ele>1446.44091796875</ele>
        <time>2011-04-18T09:14:37Z</time>
      </trkpt>
      <trkpt lat="33.051463589072227" lon="-2.000457532703877">
        <ele>1445.960205078125</ele>
        <time>2011-04-18T09:14:49Z</time>
      </trkpt>
      <trkpt lat="33.051795093342662" lon="-2.000419059768319">
        <ele>1445.960205078125</ele>
        <time>2011-04-18T09:14:57Z</time>
      </trkpt>
      <trkpt lat="33.051855443045497" lon="-2.000242872163653">
        <ele>1446.92138671875</ele>
        <time>2011-04-18T09:15:06Z</time>
      </trkpt>
      <trkpt lat="33.051838930696249" lon="-1.999658821150661">
        <ele>1444.51806640625</ele>
        <time>2011-04-18T09:15:15Z</time>
      </trkpt>
      <trkpt lat="33.051827028393745" lon="-1.999304769560695">
        <ele>1444.03759765625</ele>
        <time>2011-04-18T09:15:22Z</time>
      </trkpt>
      <trkpt lat="33.051801631227136" lon="-1.998648047447205">
        <ele>1443.076171875</ele>
        <time>2011-04-18T09:15:32Z</time>
      </trkpt>
      <trkpt lat="33.051764834672213" lon="-1.997848832979798">
        <ele>1444.998779296875</ele>
        <time>2011-04-18T09:15:39Z</time>
      </trkpt>
      <trkpt lat="33.051732564345002" lon="-1.996439332142472">
        <ele>1447.8828125</ele>
        <time>2011-04-18T09:15:53Z</time>
      </trkpt>
      <trkpt lat="33.051710687577724" lon="-1.995789483189583">
        <ele>1447.8828125</ele>
        <time>2011-04-18T09:16:01Z</time>
      </trkpt>
      <trkpt lat="33.051649583503604" lon="-1.994770662859082">
        <ele>1448.36328125</ele>
        <time>2011-04-18T09:16:10Z</time>
      </trkpt>
      <trkpt lat="33.051475239917636" lon="-1.994324158877134">
        <ele>1447.8828125</ele>
        <time>2011-04-18T09:16:15Z</time>
      </trkpt>
      <trkpt lat="33.051429139450192" lon="-1.994004221633077">
        <ele>1447.402099609375</ele>
        <time>2011-04-18T09:16:19Z</time>
      </trkpt>
      <trkpt lat="33.051430396735668" lon="-1.993841445073485">
        <ele>1447.402099609375</ele>
        <time>2011-04-18T09:16:22Z</time>
      </trkpt>
      <trkpt lat="33.05146224796772" lon="-1.993653941899538">
        <ele>1447.402099609375</ele>
        <time>2011-04-18T09:16:25Z</time>
      </trkpt>
      <trkpt lat="33.05141388438642" lon="-1.992821618914604">
        <ele>1446.44091796875</ele>
        <time>2011-04-18T09:16:34Z</time>
      </trkpt>
      <trkpt lat="33.05129318498075" lon="-1.99185979552567">
        <ele>1445.4794921875</ele>
        <time>2011-04-18T09:16:44Z</time>
      </trkpt>
      <trkpt lat="33.051255466416478" lon="-1.990720275789499">
        <ele>1444.998779296875</ele>
        <time>2011-04-18T09:16:55Z</time>
      </trkpt>
      <trkpt lat="33.05106989108026" lon="-1.989581678062677">
        <ele>1444.03759765625</ele>
        <time>2011-04-18T09:17:06Z</time>
      </trkpt>
      <trkpt lat="33.050563540309668" lon="-1.988704679533839">
        <ele>1445.4794921875</ele>
        <time>2011-04-18T09:17:16Z</time>
      </trkpt>
      <trkpt lat="33.049838840961456" lon="-1.98792583309114">
        <ele>1444.51806640625</ele>
        <time>2011-04-18T09:17:25Z</time>
      </trkpt>
      <trkpt lat="33.049364760518074" lon="-1.987569099292159">
        <ele>1443.556884765625</ele>
        <time>2011-04-18T09:17:30Z</time>
      </trkpt>
      <trkpt lat="33.049093019217253" lon="-1.987205576151609">
        <ele>1443.076171875</ele>
        <time>2011-04-18T09:17:34Z</time>
      </trkpt>
      <trkpt lat="33.048920519649982" lon="-1.986793018877506">
        <ele>1442.595703125</ele>
        <time>2011-04-18T09:17:38Z</time>
      </trkpt>
      <trkpt lat="33.048866791650653" lon="-1.986470986157656">
        <ele>1442.114990234375</ele>
        <time>2011-04-18T09:17:41Z</time>
      </trkpt>
      <trkpt lat="33.048621788620949" lon="-1.98561267927289">
        <ele>1439.23095703125</ele>
        <time>2011-04-18T09:17:49Z</time>
      </trkpt>
      <trkpt lat="33.048619525507092" lon="-1.984904576092959">
        <ele>1439.711669921875</ele>
        <time>2011-04-18T09:17:56Z</time>
      </trkpt>
      <trkpt lat="33.048602761700749" lon="-1.9842220377177">
        <ele>1441.63427734375</ele>
        <time>2011-04-18T09:18:02Z</time>
      </trkpt>
      <trkpt lat="33.048433195799589" lon="-1.983881145715714">
        <ele>1441.153564453125</ele>
        <time>2011-04-18T09:18:06Z</time>
      </trkpt>
      <trkpt lat="33.048137482255697" lon="-1.983080171048641">
        <ele>1441.63427734375</ele>
        <time>2011-04-18T09:18:14Z</time>
      </trkpt>
      <trkpt lat="33.047916032373905" lon="-1.982597373425961">
        <ele>1440.6728515625</ele>
        <time>2011-04-18T09:18:19Z</time>
      </trkpt>
      <trkpt lat="33.047511940822005" lon="-1.982143074274063">
        <ele>1439.711669921875</ele>
        <time>2011-04-18T09:18:26Z</time>
      </trkpt>
      <trkpt lat="33.047370789572597" lon="-1.981864962726831">
        <ele>1440.1923828125</ele>
        <time>2011-04-18T09:18:30Z</time>
      </trkpt>
      <trkpt lat="33.047383362427354" lon="-1.981448633596301">
        <ele>1441.153564453125</ele>
        <time>2011-04-18T09:18:35Z</time>
      </trkpt>
      <trkpt lat="33.047418817877769" lon="-1.981007242575288">
        <ele>1443.076171875</ele>
        <time>2011-04-18T09:18:40Z</time>
      </trkpt>
      <trkpt lat="33.047100640833378" lon="-1.980546489357948">
        <ele>1443.556884765625</ele>
        <time>2011-04-18T09:18:46Z</time>
      </trkpt>
      <trkpt lat="33.046789839863777" lon="-1.980129489675164">
        <ele>1443.556884765625</ele>
        <time>2011-04-18T09:18:52Z</time>
      </trkpt>
      <trkpt lat="33.046774920076132" lon="-1.979770241305232">
        <ele>1443.556884765625</ele>
        <time>2011-04-18T09:18:58Z</time>
      </trkpt>
      <trkpt lat="33.046913053840399" lon="-1.979446699842811">
        <ele>1443.076171875</ele>
        <time>2011-04-18T09:19:02Z</time>
      </trkpt>
      <trkpt lat="33.047249587252736" lon="-1.978632397949696">
        <ele>1441.153564453125</ele>
        <time>2011-04-18T09:19:10Z</time>
      </trkpt>
      <trkpt lat="33.047333238646388" lon="-1.978436596691608">
        <ele>1440.6728515625</ele>
        <time>2011-04-18T09:19:12Z</time>
      </trkpt>
      <trkpt lat="33.047500960528851" lon="-1.977767636999488">
        <ele>1439.23095703125</ele>
        <time>2011-04-18T09:19:19Z</time>
      </trkpt>
      <trkpt lat="33.047664826735854" lon="-1.977076046168804">
        <ele>1439.23095703125</ele>
        <time>2011-04-18T09:19:26Z</time>
      </trkpt>
      <trkpt lat="33.047851156443357" lon="-1.976677738130093">
        <ele>1438.75048828125</ele>
        <time>2011-04-18T09:19:31Z</time>
      </trkpt>
      <trkpt lat="33.047849982976913" lon="-1.976304994896054">
        <ele>1438.75048828125</ele>
        <time>2011-04-18T09:19:35Z</time>
      </trkpt>
      <trkpt lat="33.047952577471733" lon="-1.975992852821946">
        <ele>1439.23095703125</ele>
        <time>2011-04-18T09:19:39Z</time>
      </trkpt>
      <trkpt lat="33.048146618530154" lon="-1.975507037714124">
        <ele>1440.6728515625</ele>
        <time>2011-04-18T09:19:45Z</time>
      </trkpt>
      <trkpt lat="33.048206297680736" lon="-1.974913263693452">
        <ele>1442.595703125</ele>
        <time>2011-04-18T09:19:51Z</time>
      </trkpt>
      <trkpt lat="33.048318782821298" lon="-1.974590057507157">
        <ele>1443.076171875</ele>
        <time>2011-04-18T09:19:55Z</time>
      </trkpt>
      <trkpt lat="33.048464544117451" lon="-1.9742510933429">
        <ele>1443.556884765625</ele>
        <time>2011-04-18T09:19:59Z</time>
      </trkpt>
      <trkpt lat="33.048595888540149" lon="-1.973990080878139">
        <ele>1443.556884765625</ele>
        <time>2011-04-18T09:20:02Z</time>
      </trkpt>
      <trkpt lat="33.04874936118722" lon="-1.973601663485169">
        <ele>1443.076171875</ele>
        <time>2011-04-18T09:20:06Z</time>
      </trkpt>
      <trkpt lat="33.048792947083712" lon="-1.973399240523577">
        <ele>1443.076171875</ele>
        <time>2011-04-18T09:20:08Z</time>
      </trkpt>
      <trkpt lat="33.049089331179857" lon="-1.972923148423433">
        <ele>1443.556884765625</ele>
        <time>2011-04-18T09:20:14Z</time>
      </trkpt>
      <trkpt lat="33.049409687519073" lon="-1.97203173302114">
        <ele>1441.63427734375</ele>
        <time>2011-04-18T09:20:22Z</time>
      </trkpt>
      <trkpt lat="33.049928527325392" lon="-1.971178371459246">
        <ele>1439.711669921875</ele>
        <time>2011-04-18T09:20:31Z</time>
      </trkpt>
      <trkpt lat="33.049993067979813" lon="-1.971084997057915">
        <ele>1439.711669921875</ele>
        <time>2011-04-18T09:20:32Z</time>
      </trkpt>
      <trkpt lat="33.050320548936725" lon="-1.97016223333776">
        <ele>1437.7890625</ele>
        <time>2011-04-18T09:20:40Z</time>
      </trkpt>
      <trkpt lat="33.050402272492647" lon="-1.969923349097371">
        <ele>1437.308349609375</ele>
        <time>2011-04-18T09:20:42Z</time>
      </trkpt>
      <trkpt lat="33.050632858648896" lon="-1.969540044665337">
        <ele>1437.7890625</ele>
        <time>2011-04-18T09:20:46Z</time>
      </trkpt>
      <trkpt lat="33.050961261615157" lon="-1.968788020312786">
        <ele>1438.269775390625</ele>
        <time>2011-04-18T09:20:53Z</time>
      </trkpt>
      <trkpt lat="33.051149183884263" lon="-1.967985117807984">
        <ele>1435.8662109375</ele>
        <time>2011-04-18T09:21:00Z</time>
      </trkpt>
      <trkpt lat="33.051307685673237" lon="-1.96706285700202">
        <ele>1431.059814453125</ele>
        <time>2011-04-18T09:21:08Z</time>
      </trkpt>
      <trkpt lat="33.051404496654868" lon="-1.96613347157836">
        <ele>1430.098388671875</ele>
        <time>2011-04-18T09:21:16Z</time>
      </trkpt>
      <trkpt lat="33.051430648192763" lon="-1.965928617864847">
        <ele>1429.61767578125</ele>
        <time>2011-04-18T09:21:18Z</time>
      </trkpt>
      <trkpt lat="33.051441628485918" lon="-1.965715968981385">
        <ele>1429.61767578125</ele>
        <time>2011-04-18T09:21:20Z</time>
      </trkpt>
      <trkpt lat="33.051442969590425" lon="-1.96520559489727">
        <ele>1428.17578125</ele>
        <time>2011-04-18T09:21:25Z</time>
      </trkpt>
      <trkpt lat="33.051411453634501" lon="-1.965009961277247">
        <ele>1427.695068359375</ele>
        <time>2011-04-18T09:21:27Z</time>
      </trkpt>
      <trkpt lat="33.051533494144678" lon="-1.964467987418175">
        <ele>1425.7724609375</ele>
        <time>2011-04-18T09:21:33Z</time>
      </trkpt>
      <trkpt lat="33.051789393648505" lon="-1.964057693257928">
        <ele>1425.291748046875</ele>
        <time>2011-04-18T09:21:39Z</time>
      </trkpt>
      <trkpt lat="33.051869859918952" lon="-1.963867843151093">
        <ele>1425.291748046875</ele>
        <time>2011-04-18T09:21:42Z</time>
      </trkpt>
      <trkpt lat="33.051909757778049" lon="-1.963739264756441">
        <ele>1424.811279296875</ele>
        <time>2011-04-18T09:21:44Z</time>
      </trkpt>
      <trkpt lat="33.052062224596739" lon="-1.963401390239596">
        <ele>1423.369384765625</ele>
        <time>2011-04-18T09:21:49Z</time>
      </trkpt>
      <trkpt lat="33.052513925358653" lon="-1.962731173262">
        <ele>1422.407958984375</ele>
        <time>2011-04-18T09:21:58Z</time>
      </trkpt>
      <trkpt lat="33.052884321659803" lon="-1.962241921573877">
        <ele>1421.92724609375</ele>
        <time>2011-04-18T09:22:06Z</time>
      </trkpt>
      <trkpt lat="33.05303611792624" lon="-1.961774798110127">
        <ele>1419.043212890625</ele>
        <time>2011-04-18T09:22:12Z</time>
      </trkpt>
      <trkpt lat="33.053145334124565" lon="-1.961173480376601">
        <ele>1416.1591796875</ele>
        <time>2011-04-18T09:22:19Z</time>
      </trkpt>
      <trkpt lat="33.05328045040369" lon="-1.960936691612005">
        <ele>1416.1591796875</ele>
        <time>2011-04-18T09:22:23Z</time>
      </trkpt>
      <trkpt lat="33.053384721279144" lon="-1.960828648880124">
        <ele>1416.1591796875</ele>
        <time>2011-04-18T09:22:25Z</time>
      </trkpt>
      <trkpt lat="33.053569123148918" lon="-1.960214925929904">
        <ele>1414.71728515625</ele>
        <time>2011-04-18T09:22:32Z</time>
      </trkpt>
      <trkpt lat="33.053542720153928" lon="-1.959926756098867">
        <ele>1414.236572265625</ele>
        <time>2011-04-18T09:22:35Z</time>
      </trkpt>
      <trkpt lat="33.053715890273452" lon="-1.959528364241123">
        <ele>1413.275390625</ele>
        <time>2011-04-18T09:22:41Z</time>
      </trkpt>
      <trkpt lat="33.054032474756241" lon="-1.959291575476527">
        <ele>1412.31396484375</ele>
        <time>2011-04-18T09:22:46Z</time>
      </trkpt>
      <trkpt lat="33.054465735331178" lon="-1.958772484213114">
        <ele>1411.352783203125</ele>
        <time>2011-04-18T09:22:54Z</time>
      </trkpt>
      <trkpt lat="33.054726161062717" lon="-1.958331931382418">
        <ele>1409.43017578125</ele>
        <time>2011-04-18T09:23:01Z</time>
      </trkpt>
      <trkpt lat="33.05492615327239" lon="-1.958182062953711">
        <ele>1408.46875</ele>
        <time>2011-04-18T09:23:05Z</time>
      </trkpt>
      <trkpt lat="33.055057916790247" lon="-1.957828346639872">
        <ele>1407.507568359375</ele>
        <time>2011-04-18T09:23:11Z</time>
      </trkpt>
      <trkpt lat="33.055059760808945" lon="-1.957652997225523">
        <ele>1406.546142578125</ele>
        <time>2011-04-18T09:23:13Z</time>
      </trkpt>
      <trkpt lat="33.055138634517789" lon="-1.957097528502345">
        <ele>1404.14306640625</ele>
        <time>2011-04-18T09:23:19Z</time>
      </trkpt>
      <trkpt lat="33.055233098566532" lon="-1.956680445000529">
        <ele>1403.662109375</ele>
        <time>2011-04-18T09:23:26Z</time>
      </trkpt>
      <trkpt lat="33.055050792172551" lon="-1.956365620717406">
        <ele>1400.778076171875</ele>
        <time>2011-04-18T09:23:30Z</time>
      </trkpt>
      <trkpt lat="33.054894469678402" lon="-1.955906376242638">
        <ele>1398.374755859375</ele>
        <time>2011-04-18T09:23:35Z</time>
      </trkpt>
      <trkpt lat="33.054865887388587" lon="-1.955614183098078">
        <ele>1398.374755859375</ele>
        <time>2011-04-18T09:23:40Z</time>
      </trkpt>
      <trkpt lat="33.054856834933162" lon="-1.955483676865697">
        <ele>1398.374755859375</ele>
        <time>2011-04-18T09:23:42Z</time>
      </trkpt>
      <trkpt lat="33.054734878242016" lon="-1.955258455127478">
        <ele>1397.41357421875</ele>
        <time>2011-04-18T09:23:46Z</time>
      </trkpt>
      <trkpt lat="33.054540250450373" lon="-1.955096935853362">
        <ele>1397.41357421875</ele>
        <time>2011-04-18T09:23:49Z</time>
      </trkpt>
      <trkpt lat="33.054246297106147" lon="-1.954938434064388">
        <ele>1396.932861328125</ele>
        <time>2011-04-18T09:23:53Z</time>
      </trkpt>
      <trkpt lat="33.054098272696137" lon="-1.954899793490768">
        <ele>1395.9716796875</ele>
        <time>2011-04-18T09:23:55Z</time>
      </trkpt>
      <trkpt lat="33.053671382367611" lon="-1.95457985624671">
        <ele>1394.529541015625</ele>
        <time>2011-04-18T09:24:03Z</time>
      </trkpt>
      <trkpt lat="33.053130330517888" lon="-1.954257823526859">
        <ele>1393.568359375</ele>
        <time>2011-04-18T09:24:09Z</time>
      </trkpt>
      <trkpt lat="33.052907036617398" lon="-1.95410049520433">
        <ele>1393.087646484375</ele>
        <time>2011-04-18T09:24:12Z</time>
      </trkpt>
      <trkpt lat="33.052302366122603" lon="-1.95359037257731">
        <ele>1392.607177734375</ele>
        <time>2011-04-18T09:24:21Z</time>
      </trkpt>
      <trkpt lat="33.051918391138315" lon="-1.953292731195688">
        <ele>1392.12646484375</ele>
        <time>2011-04-18T09:24:26Z</time>
      </trkpt>
      <trkpt lat="33.051553443074226" lon="-1.953175636008382">
        <ele>1389.242431640625</ele>
        <time>2011-04-18T09:24:31Z</time>
      </trkpt>
      <trkpt lat="33.050553984940052" lon="-1.952726365998387">
        <ele>1386.3583984375</ele>
        <time>2011-04-18T09:24:43Z</time>
      </trkpt>
      <trkpt lat="33.050012346357107" lon="-1.952524948865175">
        <ele>1385.877685546875</ele>
        <time>2011-04-18T09:24:50Z</time>
      </trkpt>
      <trkpt lat="33.049568776041269" lon="-1.952281286939979">
        <ele>1385.877685546875</ele>
        <time>2011-04-18T09:24:56Z</time>
      </trkpt>
      <trkpt lat="33.0488470941782" lon="-1.951949363574386">
        <ele>1384.435791015625</ele>
        <time>2011-04-18T09:25:04Z</time>
      </trkpt>
      <trkpt lat="33.047809330746531" lon="-1.95128945633769">
        <ele>1383.474365234375</ele>
        <time>2011-04-18T09:25:15Z</time>
      </trkpt>
      <trkpt lat="33.046755474060774" lon="-1.950501054525375">
        <ele>1382.99365234375</ele>
        <time>2011-04-18T09:25:26Z</time>
      </trkpt>
      <trkpt lat="33.045691978186369" lon="-1.949802171438932">
        <ele>1382.032470703125</ele>
        <time>2011-04-18T09:25:37Z</time>
      </trkpt>
      <trkpt lat="33.044627727940679" lon="-1.949103623628616">
        <ele>1381.0712890625</ele>
        <time>2011-04-18T09:25:48Z</time>
      </trkpt>
      <trkpt lat="33.043566076084971" lon="-1.948478585109115">
        <ele>1381.5517578125</ele>
        <time>2011-04-18T09:25:59Z</time>
      </trkpt>
      <trkpt lat="33.042716570198536" lon="-1.947848182171583">
        <ele>1381.0712890625</ele>
        <time>2011-04-18T09:26:09Z</time>
      </trkpt>
      <trkpt lat="33.042568629607558" lon="-1.947726896032691">
        <ele>1380.590576171875</ele>
        <time>2011-04-18T09:26:11Z</time>
      </trkpt>
      <trkpt lat="33.042246429249644" lon="-1.947558335959911">
        <ele>1379.629150390625</ele>
        <time>2011-04-18T09:26:15Z</time>
      </trkpt>
      <trkpt lat="33.041984662413597" lon="-1.947420202195644">
        <ele>1379.1484375</ele>
        <time>2011-04-18T09:26:18Z</time>
      </trkpt>
      <trkpt lat="33.041641591116786" lon="-1.947108311578631">
        <ele>1378.187255859375</ele>
        <time>2011-04-18T09:26:24Z</time>
      </trkpt>
      <trkpt lat="33.041551988571882" lon="-1.947026923298836">
        <ele>1377.22607421875</ele>
        <time>2011-04-18T09:26:30Z</time>
      </trkpt>
      <trkpt lat="33.04143263027072" lon="-1.946918461471796">
        <ele>1376.745361328125</ele>
        <time>2011-04-18T09:26:40Z</time>
      </trkpt>
      <trkpt lat="33.041040524840355" lon="-1.94653163664043">
        <ele>1375.30322265625</ele>
        <time>2011-04-18T09:26:49Z</time>
      </trkpt>
      <trkpt lat="33.040790995582938" lon="-1.946183620020747">
        <ele>1373.861328125</ele>
        <time>2011-04-18T09:26:55Z</time>
      </trkpt>
      <trkpt lat="33.040645653381944" lon="-1.945980861783028">
        <ele>1373.380859375</ele>
        <time>2011-04-18T09:26:59Z</time>
      </trkpt>
      <trkpt lat="33.04046225734055" lon="-1.945725213736296">
        <ele>1373.380859375</ele>
        <time>2011-04-18T09:27:04Z</time>
      </trkpt>
      <trkpt lat="33.040109295397997" lon="-1.945943646132946">
        <ele>1373.380859375</ele>
        <time>2011-04-18T09:27:10Z</time>
      </trkpt>
      <trkpt lat="33.040363937616348" lon="-1.945588001981378">
        <ele>1373.380859375</ele>
        <time>2011-04-18T09:27:14Z</time>
      </trkpt>
      <trkpt lat="33.040257403627038" lon="-1.945434026420116">
        <ele>1371.9384765625</ele>
        <time>2011-04-18T09:27:18Z</time>
      </trkpt>
      <trkpt lat="33.040068475529552" lon="-1.945137223228812">
        <ele>1369.535400390625</ele>
        <time>2011-04-18T09:27:30Z</time>
      </trkpt>
      <trkpt lat="33.039939813315868" lon="-1.94490890018642">
        <ele>1367.132080078125</ele>
        <time>2011-04-18T09:27:40Z</time>
      </trkpt>
      <trkpt lat="33.039814755320549" lon="-1.944643529132009">
        <ele>1366.170654296875</ele>
        <time>2011-04-18T09:27:49Z</time>
      </trkpt>
      <trkpt lat="33.039866220206022" lon="-1.945000514388084">
        <ele>1366.6513671875</ele>
        <time>2011-04-18T09:27:57Z</time>
      </trkpt>
      <trkpt lat="33.039752058684826" lon="-1.94451067596674">
        <ele>1365.690185546875</ele>
        <time>2011-04-18T09:28:13Z</time>
      </trkpt>
      <trkpt lat="33.039949452504516" lon="-1.944294590502977">
        <ele>1366.6513671875</ele>
        <time>2011-04-18T09:28:19Z</time>
      </trkpt>
      <trkpt lat="33.040784457698464" lon="-1.944127287715673">
        <ele>1369.535400390625</ele>
        <time>2011-04-18T09:28:35Z</time>
      </trkpt>
      <trkpt lat="33.040923262014985" lon="-1.944099375978112">
        <ele>1370.015869140625</ele>
        <time>2011-04-18T09:28:41Z</time>
      </trkpt>
      <trkpt lat="33.04109743796289" lon="-1.944093843922019">
        <ele>1369.535400390625</ele>
        <time>2011-04-18T09:29:19Z</time>
      </trkpt>
      <trkpt lat="33.041370017454028" lon="-1.944017568603158">
        <ele>1373.380859375</ele>
        <time>2011-04-18T09:29:29Z</time>
      </trkpt>
      <trkpt lat="33.041564645245671" lon="-1.943982280790806">
        <ele>1377.70654296875</ele>
        <time>2011-04-18T09:29:53Z</time>
      </trkpt>
      <trkpt lat="33.041718872264028" lon="-1.944053024053574">
        <ele>1379.629150390625</ele>
        <time>2011-04-18T09:30:03Z</time>
      </trkpt>
      <trkpt lat="33.041817946359515" lon="-1.944027123972774">
        <ele>1388.761962890625</ele>
        <time>2011-04-18T09:30:47Z</time>
      </trkpt>
      <trkpt lat="33.041741168126464" lon="-1.944254357367754">
        <ele>1390.203857421875</ele>
        <time>2011-04-18T09:43:57Z</time>
      </trkpt>
      <trkpt lat="33.041634634137154" lon="-1.944437250494957">
        <ele>1388.761962890625</ele>
        <time>2011-04-18T09:44:05Z</time>
      </trkpt>
      <trkpt lat="33.041646452620625" lon="-1.944729946553707">
        <ele>1387.80029296875</ele>
        <time>2011-04-18T09:44:13Z</time>
      </trkpt>
      <trkpt lat="33.041475294157863" lon="-1.94493287242949">
        <ele>1388.761962890625</ele>
        <time>2011-04-18T09:44:21Z</time>
      </trkpt>
      <trkpt lat="33.041297346353531" lon="-1.945090536028147">
        <ele>1387.319580078125</ele>
        <time>2011-04-18T09:44:33Z</time>
      </trkpt>
      <trkpt lat="33.041212018579245" lon="-1.945158345624805">
        <ele>1385.877685546875</ele>
        <time>2011-04-18T09:44:51Z</time>
      </trkpt>
      <trkpt lat="33.041061563417315" lon="-1.94520553573966">
        <ele>1388.28125</ele>
        <time>2011-04-18T09:44:58Z</time>
      </trkpt>
      <trkpt lat="33.040969027206302" lon="-1.945226155221462">
        <ele>1392.12646484375</ele>
        <time>2011-04-18T09:45:04Z</time>
      </trkpt>
      <trkpt lat="33.040873892605305" lon="-1.945302095264196">
        <ele>1379.1484375</ele>
        <time>2011-04-18T09:48:59Z</time>
      </trkpt>
      <trkpt lat="33.039987087249756" lon="-1.945009231567383">
        <ele>1378.66796875</ele>
        <time>2011-04-18T09:49:07Z</time>
      </trkpt>
      <trkpt lat="33.039710316807032" lon="-1.944989366456866">
        <ele>1379.1484375</ele>
        <time>2011-04-18T09:49:15Z</time>
      </trkpt>
      <trkpt lat="33.039142191410065" lon="-1.944987773895264">
        <ele>1377.22607421875</ele>
        <time>2011-04-18T09:49:22Z</time>
      </trkpt>
      <trkpt lat="33.038599044084549" lon="-1.944987773895264">
        <ele>1376.2646484375</ele>
        <time>2011-04-18T09:49:29Z</time>
      </trkpt>
      <trkpt lat="33.038441464304924" lon="-1.944987773895264">
        <ele>1375.783935546875</ele>
        <time>2011-04-18T09:49:34Z</time>
      </trkpt>
      <trkpt lat="33.038362842053175" lon="-1.944928597658873">
        <ele>1376.745361328125</ele>
        <time>2011-04-18T09:49:48Z</time>
      </trkpt>
      <trkpt lat="33.038268545642495" lon="-1.94493287242949">
        <ele>1361.844970703125</ele>
        <time>2011-04-18T09:50:44Z</time>
      </trkpt>
      <trkpt lat="33.038034355267882" lon="-1.944967741146684">
        <ele>1362.80615234375</ele>
        <time>2011-04-18T09:50:49Z</time>
      </trkpt>
      <trkpt lat="33.037833021953702" lon="-1.944920131936669">
        <ele>1366.6513671875</ele>
        <time>2011-04-18T09:50:54Z</time>
      </trkpt>
      <trkpt lat="33.037662953138351" lon="-1.944778310135007">
        <ele>1368.573974609375</ele>
        <time>2011-04-18T09:51:01Z</time>
      </trkpt>
      <trkpt lat="33.037396911531687" lon="-1.944547221064568">
        <ele>1370.015869140625</ele>
        <time>2011-04-18T09:51:08Z</time>
      </trkpt>
      <trkpt lat="33.037277804687619" lon="-1.944457869976759">
        <ele>1370.49658203125</ele>
        <time>2011-04-18T09:51:10Z</time>
      </trkpt>
      <trkpt lat="33.036824008449912" lon="-1.944041289389134">
        <ele>1371.9384765625</ele>
        <time>2011-04-18T09:51:17Z</time>
      </trkpt>
      <trkpt lat="33.036118419840932" lon="-1.943407449871302">
        <ele>1375.783935546875</ele>
        <time>2011-04-18T09:51:28Z</time>
      </trkpt>
      <trkpt lat="33.035975424572825" lon="-1.943335952237248">
        <ele>1376.2646484375</ele>
        <time>2011-04-18T09:51:34Z</time>
      </trkpt>
      <trkpt lat="33.035789094865322" lon="-1.943282308056951">
        <ele>1374.82275390625</ele>
        <time>2011-04-18T09:51:49Z</time>
      </trkpt>
      <trkpt lat="33.035410987213254" lon="-1.94328767247498">
        <ele>1374.342041015625</ele>
        <time>2011-04-18T09:51:55Z</time>
      </trkpt>
      <trkpt lat="33.035116195678711" lon="-1.943292617797852">
        <ele>1373.861328125</ele>
        <time>2011-04-18T09:51:59Z</time>
      </trkpt>
      <trkpt lat="33.03396544419229" lon="-1.943667959421873">
        <ele>1375.783935546875</ele>
        <time>2011-04-18T09:52:12Z</time>
      </trkpt>
      <trkpt lat="33.033881457522511" lon="-1.943600904196501">
        <ele>1376.2646484375</ele>
        <time>2011-04-18T09:52:14Z</time>
      </trkpt>
      <trkpt lat="33.033337220549583" lon="-1.943378448486328">
        <ele>1375.783935546875</ele>
        <time>2011-04-18T09:52:23Z</time>
      </trkpt>
      <trkpt lat="33.033008314669132" lon="-1.943392781540752">
        <ele>1375.783935546875</ele>
        <time>2011-04-18T09:52:31Z</time>
      </trkpt>
      <trkpt lat="33.032860374078155" lon="-1.943425051867962">
        <ele>1376.745361328125</ele>
        <time>2011-04-18T09:52:38Z</time>
      </trkpt>
      <trkpt lat="33.032753169536591" lon="-1.943483389914036">
        <ele>1377.70654296875</ele>
        <time>2011-04-18T09:52:41Z</time>
      </trkpt>
      <trkpt lat="33.032509926706553" lon="-1.943683968856931">
        <ele>1378.187255859375</ele>
        <time>2011-04-18T09:52:46Z</time>
      </trkpt>
      <trkpt lat="33.032413618639112" lon="-1.943731997162104">
        <ele>1378.66796875</ele>
        <time>2011-04-18T09:52:48Z</time>
      </trkpt>
      <trkpt lat="33.032188480719924" lon="-1.943778097629547">
        <ele>1378.187255859375</ele>
        <time>2011-04-18T09:52:56Z</time>
      </trkpt>
      <trkpt lat="33.032047245651484" lon="-1.944377655163407">
        <ele>1378.187255859375</ele>
        <time>2011-04-18T09:53:01Z</time>
      </trkpt>
      <trkpt lat="33.032089741900563" lon="-1.944622825831175">
        <ele>1379.1484375</ele>
        <time>2011-04-18T09:53:07Z</time>
      </trkpt>
      <trkpt lat="33.032232820987701" lon="-1.944688456133008">
        <ele>1379.629150390625</ele>
        <time>2011-04-18T09:53:10Z</time>
      </trkpt>
      <trkpt lat="33.032507495954633" lon="-1.944744363427162">
        <ele>1379.629150390625</ele>
        <time>2011-04-18T09:53:15Z</time>
      </trkpt>
      <trkpt lat="33.032739171758294" lon="-1.945056254044175">
        <ele>1380.590576171875</ele>
        <time>2011-04-18T09:53:22Z</time>
      </trkpt>
      <trkpt lat="33.033122392371297" lon="-1.945681544020772">
        <ele>1382.032470703125</ele>
        <time>2011-04-18T09:53:33Z</time>
      </trkpt>
      <trkpt lat="33.033487675711513" lon="-1.946240281686187">
        <ele>1382.99365234375</ele>
        <time>2011-04-18T09:53:41Z</time>
      </trkpt>
      <trkpt lat="33.03358037956059" lon="-1.946408925577998">
        <ele>1383.474365234375</ele>
        <time>2011-04-18T09:53:45Z</time>
      </trkpt>
      <trkpt lat="33.033688254654408" lon="-1.946744788438082">
        <ele>1383.955078125</ele>
        <time>2011-04-18T09:53:51Z</time>
      </trkpt>
      <trkpt lat="33.033909369260073" lon="-1.947012087330222">
        <ele>1384.91650390625</ele>
        <time>2011-04-18T09:54:02Z</time>
      </trkpt>
      <trkpt lat="33.034263672307134" lon="-1.947299335151911">
        <ele>1384.91650390625</ele>
        <time>2011-04-18T09:54:09Z</time>
      </trkpt>
      <trkpt lat="33.034224193543196" lon="-1.947398325428367">
        <ele>1385.39697265625</ele>
        <time>2011-04-18T09:54:23Z</time>
      </trkpt>
      <trkpt lat="33.034131322056055" lon="-1.947255833074451">
        <ele>1384.91650390625</ele>
        <time>2011-04-18T09:54:26Z</time>
      </trkpt>
      <trkpt lat="33.033781880512834" lon="-1.946906894445419">
        <ele>1384.435791015625</ele>
        <time>2011-04-18T09:54:35Z</time>
      </trkpt>
      <trkpt lat="33.033679118379951" lon="-1.946771526709199">
        <ele>1384.435791015625</ele>
        <time>2011-04-18T09:54:39Z</time>
      </trkpt>
      <trkpt lat="33.033361863344908" lon="-1.946076164022088">
        <ele>1384.91650390625</ele>
        <time>2011-04-18T09:54:49Z</time>
      </trkpt>
      <trkpt lat="33.032814273610711" lon="-1.945214252918959">
        <ele>1383.955078125</ele>
        <time>2011-04-18T09:55:00Z</time>
      </trkpt>
      <trkpt lat="33.032405152916908" lon="-1.944564152508974">
        <ele>1383.474365234375</ele>
        <time>2011-04-18T09:55:09Z</time>
      </trkpt>
      <trkpt lat="33.032330637797713" lon="-1.944412188604474">
        <ele>1383.474365234375</ele>
        <time>2011-04-18T09:55:11Z</time>
      </trkpt>
      <trkpt lat="33.03228403441608" lon="-1.943770218640566">
        <ele>1382.032470703125</ele>
        <time>2011-04-18T09:55:19Z</time>
      </trkpt>
      <trkpt lat="33.032397190108895" lon="-1.943740211427212">
        <ele>1380.590576171875</ele>
        <time>2011-04-18T09:55:22Z</time>
      </trkpt>
      <trkpt lat="33.032757611945271" lon="-1.943481042981148">
        <ele>1378.187255859375</ele>
        <time>2011-04-18T09:55:32Z</time>
      </trkpt>
      <trkpt lat="33.032895745709538" lon="-1.943405689671636">
        <ele>1378.187255859375</ele>
        <time>2011-04-18T09:55:46Z</time>
      </trkpt>
      <trkpt lat="33.03339472040534" lon="-1.943378448486328">
        <ele>1379.1484375</ele>
        <time>2011-04-18T09:56:21Z</time>
      </trkpt>
      <trkpt lat="33.033550037071109" lon="-1.943312734365463">
        <ele>1379.629150390625</ele>
        <time>2011-04-18T09:56:27Z</time>
      </trkpt>
      <trkpt lat="33.033463954925537" lon="-1.943378448486328">
        <ele>1378.66796875</ele>
        <time>2011-04-18T09:56:30Z</time>
      </trkpt>
      <trkpt lat="33.033356331288815" lon="-1.943378448486328">
        <ele>1377.70654296875</ele>
        <time>2011-04-18T09:56:34Z</time>
      </trkpt>
      <trkpt lat="33.033262537792325" lon="-1.942723235115409">
        <ele>1377.22607421875</ele>
        <time>2011-04-18T09:56:38Z</time>
      </trkpt>
      <trkpt lat="33.033117027953267" lon="-1.941685974597931">
        <ele>1378.66796875</ele>
        <time>2011-04-18T09:56:48Z</time>
      </trkpt>
      <trkpt lat="33.033064138144255" lon="-1.941080130636692">
        <ele>1379.1484375</ele>
        <time>2011-04-18T09:56:55Z</time>
      </trkpt>
      <trkpt lat="33.032982582226396" lon="-1.940918443724513">
        <ele>1378.66796875</ele>
        <time>2011-04-18T09:57:00Z</time>
      </trkpt>
      <trkpt lat="33.032723078504205" lon="-1.940511837601662">
        <ele>1378.66796875</ele>
        <time>2011-04-18T09:57:08Z</time>
      </trkpt>
      <trkpt lat="33.032488888129592" lon="-1.940218638628721">
        <ele>1378.66796875</ele>
        <time>2011-04-18T09:57:13Z</time>
      </trkpt>
      <trkpt lat="33.032380091026425" lon="-1.94006365723908">
        <ele>1378.66796875</ele>
        <time>2011-04-18T09:57:16Z</time>
      </trkpt>
      <trkpt lat="33.031860329210758" lon="-1.939554372802377">
        <ele>1378.66796875</ele>
        <time>2011-04-18T09:57:26Z</time>
      </trkpt>
      <trkpt lat="33.031424973160028" lon="-1.938829170539975">
        <ele>1376.745361328125</ele>
        <time>2011-04-18T09:57:36Z</time>
      </trkpt>
      <trkpt lat="33.031003698706627" lon="-1.938224164769054">
        <ele>1373.861328125</ele>
        <time>2011-04-18T09:57:45Z</time>
      </trkpt>
      <trkpt lat="33.030547136440873" lon="-1.937261419370771">
        <ele>1369.535400390625</ele>
        <time>2011-04-18T09:57:56Z</time>
      </trkpt>
      <trkpt lat="33.030110271647573" lon="-1.936330692842603">
        <ele>1365.20947265625</ele>
        <time>2011-04-18T09:58:06Z</time>
      </trkpt>
      <trkpt lat="33.02987071685493" lon="-1.935886116698384">
        <ele>1363.767333984375</ele>
        <time>2011-04-18T09:58:12Z</time>
      </trkpt>
      <trkpt lat="33.029370568692684" lon="-1.935274070128799">
        <ele>1361.3642578125</ele>
        <time>2011-04-18T09:58:20Z</time>
      </trkpt>
      <trkpt lat="33.028751146048307" lon="-1.934434287250042">
        <ele>1362.80615234375</ele>
        <time>2011-04-18T09:58:31Z</time>
      </trkpt>
      <trkpt lat="33.028251165524125" lon="-1.93383707664907">
        <ele>1363.767333984375</ele>
        <time>2011-04-18T09:58:39Z</time>
      </trkpt>
      <trkpt lat="33.027785131707788" lon="-1.933249337598681">
        <ele>1364.248046875</ele>
        <time>2011-04-18T09:58:48Z</time>
      </trkpt>
      <trkpt lat="33.027599388733506" lon="-1.933016739785671">
        <ele>1364.728759765625</ele>
        <time>2011-04-18T09:58:52Z</time>
      </trkpt>
      <trkpt lat="33.027457986027002" lon="-1.93274449557066">
        <ele>1364.248046875</ele>
        <time>2011-04-18T09:58:56Z</time>
      </trkpt>
      <trkpt lat="33.027333933860064" lon="-1.932586245238781">
        <ele>1363.767333984375</ele>
        <time>2011-04-18T09:59:00Z</time>
      </trkpt>
      <trkpt lat="33.027156572788954" lon="-1.932490188628435">
        <ele>1363.767333984375</ele>
        <time>2011-04-18T09:59:04Z</time>
      </trkpt>
      <trkpt lat="33.027014918625355" lon="-1.93225977011025">
        <ele>1363.767333984375</ele>
        <time>2011-04-18T09:59:08Z</time>
      </trkpt>
      <trkpt lat="33.026904361322522" lon="-1.932065645232797">
        <ele>1363.767333984375</ele>
        <time>2011-04-18T09:59:11Z</time>
      </trkpt>
      <trkpt lat="33.026647455990314" lon="-1.93140858784318">
        <ele>1361.3642578125</ele>
        <time>2011-04-18T09:59:19Z</time>
      </trkpt>
      <trkpt lat="33.02603985182941" lon="-1.930782543495297">
        <ele>1360.883544921875</ele>
        <time>2011-04-18T09:59:28Z</time>
      </trkpt>
      <trkpt lat="33.025467367842793" lon="-1.930076535791159">
        <ele>1357.999755859375</ele>
        <time>2011-04-18T09:59:37Z</time>
      </trkpt>
      <trkpt lat="33.024768484756351" lon="-1.92948192358017">
        <ele>1355.115478515625</ele>
        <time>2011-04-18T09:59:46Z</time>
      </trkpt>
      <trkpt lat="33.02435752004385" lon="-1.929016727954149">
        <ele>1357.038330078125</ele>
        <time>2011-04-18T09:59:52Z</time>
      </trkpt>
      <trkpt lat="33.023886373266578" lon="-1.928798966109753">
        <ele>1359.441650390625</ele>
        <time>2011-04-18T09:59:58Z</time>
      </trkpt>
      <trkpt lat="33.023660816252232" lon="-1.928601656109095">
        <ele>1361.3642578125</ele>
        <time>2011-04-18T10:00:02Z</time>
      </trkpt>
      <trkpt lat="33.023484125733376" lon="-1.928377524018288">
        <ele>1362.80615234375</ele>
        <time>2011-04-18T10:00:06Z</time>
      </trkpt>
      <trkpt lat="33.023298550397158" lon="-1.928029758855701">
        <ele>1363.767333984375</ele>
        <time>2011-04-18T10:00:11Z</time>
      </trkpt>
      <trkpt lat="33.022771580144763" lon="-1.927449563518167">
        <ele>1366.170654296875</ele>
        <time>2011-04-18T10:00:20Z</time>
      </trkpt>
      <trkpt lat="33.022638475522399" lon="-1.927324337884784">
        <ele>1366.6513671875</ele>
        <time>2011-04-18T10:00:22Z</time>
      </trkpt>
      <trkpt lat="33.021993990987539" lon="-1.926603829488158">
        <ele>1367.612548828125</ele>
        <time>2011-04-18T10:00:32Z</time>
      </trkpt>
      <trkpt lat="33.021601550281048" lon="-1.926086498424411">
        <ele>1367.132080078125</ele>
        <time>2011-04-18T10:00:39Z</time>
      </trkpt>
      <trkpt lat="33.021529465913773" lon="-1.92601659335196">
        <ele>1367.132080078125</ele>
        <time>2011-04-18T10:00:40Z</time>
      </trkpt>
      <trkpt lat="33.021255293861032" lon="-1.925751138478518">
        <ele>1367.132080078125</ele>
        <time>2011-04-18T10:00:44Z</time>
      </trkpt>
      <trkpt lat="33.021105173975229" lon="-1.925410749390721">
        <ele>1366.6513671875</ele>
        <time>2011-04-18T10:00:48Z</time>
      </trkpt>
      <trkpt lat="33.020938457921147" lon="-1.924956282600761">
        <ele>1365.690185546875</ele>
        <time>2011-04-18T10:00:53Z</time>
      </trkpt>
      <trkpt lat="33.020425066351891" lon="-1.924140052869916">
        <ele>1364.728759765625</ele>
        <time>2011-04-18T10:01:03Z</time>
      </trkpt>
      <trkpt lat="33.020094484090805" lon="-1.923892786726356">
        <ele>1364.728759765625</ele>
        <time>2011-04-18T10:01:08Z</time>
      </trkpt>
      <trkpt lat="33.01994176581502" lon="-1.923855738714337">
        <ele>1364.728759765625</ele>
        <time>2011-04-18T10:01:10Z</time>
      </trkpt>
      <trkpt lat="33.019659882411361" lon="-1.923666056245565">
        <ele>1364.728759765625</ele>
        <time>2011-04-18T10:01:14Z</time>
      </trkpt>
      <trkpt lat="33.019541194662452" lon="-1.923527168110013">
        <ele>1364.728759765625</ele>
        <time>2011-04-18T10:01:16Z</time>
      </trkpt>
      <trkpt lat="33.019290994852781" lon="-1.923041185364127">
        <ele>1363.767333984375</ele>
        <time>2011-04-18T10:01:22Z</time>
      </trkpt>
      <trkpt lat="33.019069042056799" lon="-1.922769863158464">
        <ele>1363.286865234375</ele>
        <time>2011-04-18T10:01:26Z</time>
      </trkpt>
      <trkpt lat="33.01884432323277" lon="-1.92238069139421">
        <ele>1362.80615234375</ele>
        <time>2011-04-18T10:01:31Z</time>
      </trkpt>
      <trkpt lat="33.018533689901233" lon="-1.922099897637963">
        <ele>1362.325439453125</ele>
        <time>2011-04-18T10:01:36Z</time>
      </trkpt>
      <trkpt lat="33.018282987177372" lon="-1.922079278156161">
        <ele>1361.844970703125</ele>
        <time>2011-04-18T10:01:39Z</time>
      </trkpt>
      <trkpt lat="33.017691057175398" lon="-1.922010546550155">
        <ele>1360.883544921875</ele>
        <time>2011-04-18T10:01:46Z</time>
      </trkpt>
      <trkpt lat="33.017365671694279" lon="-1.922111548483372">
        <ele>1360.883544921875</ele>
        <time>2011-04-18T10:01:50Z</time>
      </trkpt>
      <trkpt lat="33.016880443319678" lon="-1.922104423865676">
        <ele>1360.40283203125</ele>
        <time>2011-04-18T10:01:56Z</time>
      </trkpt>
      <trkpt lat="33.016301253810525" lon="-1.921845925971866">
        <ele>1360.40283203125</ele>
        <time>2011-04-18T10:02:03Z</time>
      </trkpt>
      <trkpt lat="33.016053736209869" lon="-1.921631265431643">
        <ele>1359.922119140625</ele>
        <time>2011-04-18T10:02:06Z</time>
      </trkpt>
      <trkpt lat="33.015457028523088" lon="-1.920804725959897">
        <ele>1357.999755859375</ele>
        <time>2011-04-18T10:02:15Z</time>
      </trkpt>
      <trkpt lat="33.015332976356149" lon="-1.920619737356901">
        <ele>1357.51904296875</ele>
        <time>2011-04-18T10:02:17Z</time>
      </trkpt>
      <trkpt lat="33.015199452638626" lon="-1.920208018273115">
        <ele>1357.038330078125</ele>
        <time>2011-04-18T10:02:21Z</time>
      </trkpt>
      <trkpt lat="33.015078753232956" lon="-1.919763525947928">
        <ele>1356.5576171875</ele>
        <time>2011-04-18T10:02:26Z</time>
      </trkpt>
      <trkpt lat="33.014977835118771" lon="-1.919612735509872">
        <ele>1356.5576171875</ele>
        <time>2011-04-18T10:02:28Z</time>
      </trkpt>
      <trkpt lat="33.014741130173206" lon="-1.919155837967992">
        <ele>1356.076904296875</ele>
        <time>2011-04-18T10:02:33Z</time>
      </trkpt>
      <trkpt lat="33.014459833502769" lon="-1.918869344517589">
        <ele>1356.5576171875</ele>
        <time>2011-04-18T10:02:37Z</time>
      </trkpt>
      <trkpt lat="33.014219272881746" lon="-1.918676141649485">
        <ele>1357.038330078125</ele>
        <time>2011-04-18T10:02:40Z</time>
      </trkpt>
      <trkpt lat="33.01363262347877" lon="-1.917994022369385">
        <ele>1358.480224609375</ele>
        <time>2011-04-18T10:02:48Z</time>
      </trkpt>
      <trkpt lat="33.012587567791343" lon="-1.916938573122025">
        <ele>1358.9609375</ele>
        <time>2011-04-18T10:03:01Z</time>
      </trkpt>
      <trkpt lat="33.01177678629756" lon="-1.916147992014885">
        <ele>1359.441650390625</ele>
        <time>2011-04-18T10:03:10Z</time>
      </trkpt>
      <trkpt lat="33.010866679251194" lon="-1.91519639454782">
        <ele>1360.883544921875</ele>
        <time>2011-04-18T10:03:21Z</time>
      </trkpt>
      <trkpt lat="33.009869651868939" lon="-1.914464654400945">
        <ele>1362.80615234375</ele>
        <time>2011-04-18T10:03:31Z</time>
      </trkpt>
      <trkpt lat="33.009672844782472" lon="-1.914205653592944">
        <ele>1363.286865234375</ele>
        <time>2011-04-18T10:03:34Z</time>
      </trkpt>
      <trkpt lat="33.009100360795856" lon="-1.913721598684788">
        <ele>1364.248046875</ele>
        <time>2011-04-18T10:03:42Z</time>
      </trkpt>
      <trkpt lat="33.008351186290383" lon="-1.913256235420704">
        <ele>1364.248046875</ele>
        <time>2011-04-18T10:03:53Z</time>
      </trkpt>
      <trkpt lat="33.007685746997595" lon="-1.912793051451445">
        <ele>1363.767333984375</ele>
        <time>2011-04-18T10:04:01Z</time>
      </trkpt>
      <trkpt lat="33.00760293379426" lon="-1.91274493932724">
        <ele>1363.767333984375</ele>
        <time>2011-04-18T10:04:02Z</time>
      </trkpt>
      <trkpt lat="33.007335467264056" lon="-1.912644859403372">
        <ele>1362.325439453125</ele>
        <time>2011-04-18T10:04:05Z</time>
      </trkpt>
      <trkpt lat="33.006762228906155" lon="-1.912144795060158">
        <ele>1360.883544921875</ele>
        <time>2011-04-18T10:04:12Z</time>
      </trkpt>
      <trkpt lat="33.005895456299186" lon="-1.911482289433479">
        <ele>1359.441650390625</ele>
        <time>2011-04-18T10:04:21Z</time>
      </trkpt>
      <trkpt lat="33.004464749246836" lon="-1.910566817969084">
        <ele>1357.51904296875</ele>
        <time>2011-04-18T10:04:34Z</time>
      </trkpt>
      <trkpt lat="33.003313327208161" lon="-1.909932475537062">
        <ele>1357.038330078125</ele>
        <time>2011-04-18T10:04:44Z</time>
      </trkpt>
      <trkpt lat="33.001474840566516" lon="-1.908905943855643">
        <ele>1354.634765625</ele>
        <time>2011-04-18T10:05:00Z</time>
      </trkpt>
      <trkpt lat="33.000219985842705" lon="-1.908045876771212">
        <ele>1353.673583984375</ele>
        <time>2011-04-18T10:05:12Z</time>
      </trkpt>
      <trkpt lat="32.999190771952271" lon="-1.907195532694459">
        <ele>1351.270263671875</ele>
        <time>2011-04-18T10:05:22Z</time>
      </trkpt>
      <trkpt lat="32.997816558927298" lon="-1.906011337414384">
        <ele>1348.866943359375</ele>
        <time>2011-04-18T10:05:35Z</time>
      </trkpt>
      <trkpt lat="32.996787764132023" lon="-1.905287643894553">
        <ele>1348.38623046875</ele>
        <time>2011-04-18T10:05:44Z</time>
      </trkpt>
      <trkpt lat="32.995754946023226" lon="-1.904364544898272">
        <ele>1347.425048828125</ele>
        <time>2011-04-18T10:05:54Z</time>
      </trkpt>
      <trkpt lat="32.994832433760166" lon="-1.903465166687965">
        <ele>1345.983154296875</ele>
        <time>2011-04-18T10:06:04Z</time>
      </trkpt>
      <trkpt lat="32.994311498478055" lon="-1.902732085436583">
        <ele>1345.021728515625</ele>
        <time>2011-04-18T10:06:12Z</time>
      </trkpt>
      <trkpt lat="32.993975467979908" lon="-1.902484819293022">
        <ele>1343.09912109375</ele>
        <time>2011-04-18T10:06:19Z</time>
      </trkpt>
      <trkpt lat="32.993735745549202" lon="-1.902490854263306">
        <ele>1342.61865234375</ele>
        <time>2011-04-18T10:06:26Z</time>
      </trkpt>
      <trkpt lat="32.993551343679428" lon="-1.902223136276007">
        <ele>1343.09912109375</ele>
        <time>2011-04-18T10:06:31Z</time>
      </trkpt>
      <trkpt lat="32.993337940424681" lon="-1.901932032778859">
        <ele>1342.61865234375</ele>
        <time>2011-04-18T10:06:35Z</time>
      </trkpt>
      <trkpt lat="32.992806443944573" lon="-1.900963839143515">
        <ele>1342.137939453125</ele>
        <time>2011-04-18T10:06:46Z</time>
      </trkpt>
      <trkpt lat="32.992621371522546" lon="-1.900512389838696">
        <ele>1342.137939453125</ele>
        <time>2011-04-18T10:06:51Z</time>
      </trkpt>
      <trkpt lat="32.992403190582991" lon="-1.900199828669429">
        <ele>1341.176513671875</ele>
        <time>2011-04-18T10:06:58Z</time>
      </trkpt>
      <trkpt lat="32.991884937509894" lon="-1.900211898609996">
        <ele>1339.253662109375</ele>
        <time>2011-04-18T10:07:07Z</time>
      </trkpt>
      <trkpt lat="32.991801118478179" lon="-1.89997024834156">
        <ele>1339.253662109375</ele>
        <time>2011-04-18T10:07:10Z</time>
      </trkpt>
      <trkpt lat="32.991505572572351" lon="-1.898958049714565">
        <ele>1338.773193359375</ele>
        <time>2011-04-18T10:07:19Z</time>
      </trkpt>
      <trkpt lat="32.990937363356352" lon="-1.897923890501261">
        <ele>1337.811767578125</ele>
        <time>2011-04-18T10:07:28Z</time>
      </trkpt>
      <trkpt lat="32.990483734756708" lon="-1.89699593000114">
        <ele>1338.29248046875</ele>
        <time>2011-04-18T10:07:36Z</time>
      </trkpt>
      <trkpt lat="32.990269074216485" lon="-1.896877242252231">
        <ele>1336.369873046875</ele>
        <time>2011-04-18T10:07:42Z</time>
      </trkpt>
      <trkpt lat="32.990022897720337" lon="-1.897041443735361">
        <ele>1336.850341796875</ele>
        <time>2011-04-18T10:07:47Z</time>
      </trkpt>
      <trkpt lat="32.989743361249566" lon="-1.897105230018497">
        <ele>1338.29248046875</ele>
        <time>2011-04-18T10:07:52Z</time>
      </trkpt>
      <trkpt lat="32.989079346880317" lon="-1.897173542529345">
        <ele>1340.69580078125</ele>
        <time>2011-04-18T10:08:02Z</time>
      </trkpt>
      <trkpt lat="32.98824149183929" lon="-1.897399183362722">
        <ele>1342.137939453125</ele>
        <time>2011-04-18T10:08:12Z</time>
      </trkpt>
      <trkpt lat="32.987260892987251" lon="-1.897915592417121">
        <ele>1343.579833984375</ele>
        <time>2011-04-18T10:08:23Z</time>
      </trkpt>
      <trkpt lat="32.986644320189953" lon="-1.898551695048809">
        <ele>1344.541015625</ele>
        <time>2011-04-18T10:08:31Z</time>
      </trkpt>
      <trkpt lat="32.986190188676119" lon="-1.899062991142273">
        <ele>1345.50244140625</ele>
        <time>2011-04-18T10:08:37Z</time>
      </trkpt>
      <trkpt lat="32.985837059095502" lon="-1.899273376911879">
        <ele>1346.4638671875</ele>
        <time>2011-04-18T10:08:41Z</time>
      </trkpt>
      <trkpt lat="32.98484506085515" lon="-1.899778721854091">
        <ele>1348.866943359375</ele>
        <time>2011-04-18T10:08:51Z</time>
      </trkpt>
      <trkpt lat="32.983645694330335" lon="-1.900597047060728">
        <ele>1351.270263671875</ele>
        <time>2011-04-18T10:09:03Z</time>
      </trkpt>
      <trkpt lat="32.982918228954077" lon="-1.901319650933147">
        <ele>1353.19287109375</ele>
        <time>2011-04-18T10:09:11Z</time>
      </trkpt>
      <trkpt lat="32.982678338885307" lon="-1.901561385020614">
        <ele>1354.154296875</ele>
        <time>2011-04-18T10:09:14Z</time>
      </trkpt>
      <trkpt lat="32.982434425503016" lon="-1.90174637362361">
        <ele>1354.634765625</ele>
        <time>2011-04-18T10:09:17Z</time>
      </trkpt>
      <trkpt lat="32.98191667534411" lon="-1.90211777575314">
        <ele>1356.076904296875</ele>
        <time>2011-04-18T10:09:24Z</time>
      </trkpt>
      <trkpt lat="32.981817433610559" lon="-1.902140574529767">
        <ele>1356.076904296875</ele>
        <time>2011-04-18T10:09:25Z</time>
      </trkpt>
      <trkpt lat="32.980938758701086" lon="-1.902397563681006">
        <ele>1357.51904296875</ele>
        <time>2011-04-18T10:09:34Z</time>
      </trkpt>
      <trkpt lat="32.980256555601954" lon="-1.902358671650291">
        <ele>1357.999755859375</ele>
        <time>2011-04-18T10:09:41Z</time>
      </trkpt>
      <trkpt lat="32.979797478765249" lon="-1.902309050783515">
        <ele>1358.480224609375</ele>
        <time>2011-04-18T10:09:47Z</time>
      </trkpt>
      <trkpt lat="32.97955222427845" lon="-1.902154991403222">
        <ele>1358.9609375</ele>
        <time>2011-04-18T10:09:51Z</time>
      </trkpt>
      <trkpt lat="32.979317950084805" lon="-1.902139149606228">
        <ele>1359.922119140625</ele>
        <time>2011-04-18T10:09:54Z</time>
      </trkpt>
      <trkpt lat="32.979083424434066" lon="-1.902162535116077">
        <ele>1360.40283203125</ele>
        <time>2011-04-18T10:09:57Z</time>
      </trkpt>
      <trkpt lat="32.978758038952947" lon="-1.902045188471675">
        <ele>1360.883544921875</ele>
        <time>2011-04-18T10:10:01Z</time>
      </trkpt>
      <trkpt lat="32.978412033990026" lon="-1.9018729403615">
        <ele>1360.40283203125</ele>
        <time>2011-04-18T10:10:05Z</time>
      </trkpt>
      <trkpt lat="32.978062424808741" lon="-1.901814937591553">
        <ele>1360.40283203125</ele>
        <time>2011-04-18T10:10:09Z</time>
      </trkpt>
      <trkpt lat="32.977472338825464" lon="-1.901596924290061">
        <ele>1359.922119140625</ele>
        <time>2011-04-18T10:10:16Z</time>
      </trkpt>
      <trkpt lat="32.976933130994439" lon="-1.901454934850335">
        <ele>1358.9609375</ele>
        <time>2011-04-18T10:10:23Z</time>
      </trkpt>
      <trkpt lat="32.976794661954045" lon="-1.901332559064031">
        <ele>1358.480224609375</ele>
        <time>2011-04-18T10:10:25Z</time>
      </trkpt>
      <trkpt lat="32.976682344451547" lon="-1.901191994547844">
        <ele>1358.480224609375</ele>
        <time>2011-04-18T10:10:27Z</time>
      </trkpt>
      <trkpt lat="32.976343464106321" lon="-1.90103399567306">
        <ele>1357.999755859375</ele>
        <time>2011-04-18T10:10:32Z</time>
      </trkpt>
      <trkpt lat="32.975971391424537" lon="-1.900948081165552">
        <ele>1357.038330078125</ele>
        <time>2011-04-18T10:10:36Z</time>
      </trkpt>
      <trkpt lat="32.975160693749785" lon="-1.900675669312477">
        <ele>1356.076904296875</ele>
        <time>2011-04-18T10:10:45Z</time>
      </trkpt>
      <trkpt lat="32.97486967407167" lon="-1.900570644065738">
        <ele>1355.115478515625</ele>
        <time>2011-04-18T10:10:49Z</time>
      </trkpt>
      <trkpt lat="32.974732965230942" lon="-1.900558741763234">
        <ele>1355.115478515625</ele>
        <time>2011-04-18T10:10:51Z</time>
      </trkpt>
      <trkpt lat="32.974472120404243" lon="-1.900452626869083">
        <ele>1354.634765625</ele>
        <time>2011-04-18T10:10:55Z</time>
      </trkpt>
      <trkpt lat="32.974365754052997" lon="-1.900361934676766">
        <ele>1354.154296875</ele>
        <time>2011-04-18T10:10:57Z</time>
      </trkpt>
      <trkpt lat="32.974231475964189" lon="-1.900228662416339">
        <ele>1354.154296875</ele>
        <time>2011-04-18T10:11:03Z</time>
      </trkpt>
      <trkpt lat="32.974143549799919" lon="-1.900143753737211">
        <ele>1346.9443359375</ele>
        <time>2011-04-18T10:15:23Z</time>
      </trkpt>
      <trkpt lat="32.973624877631664" lon="-1.899999417364597">
        <ele>1346.4638671875</ele>
        <time>2011-04-18T10:15:32Z</time>
      </trkpt>
      <trkpt lat="32.972830273211002" lon="-1.89984267577529">
        <ele>1344.541015625</ele>
        <time>2011-04-18T10:15:42Z</time>
      </trkpt>
      <trkpt lat="32.972565740346909" lon="-1.899836640805006">
        <ele>1344.060546875</ele>
        <time>2011-04-18T10:15:47Z</time>
      </trkpt>
      <trkpt lat="32.972494577988982" lon="-1.899639582261443">
        <ele>1316.18212890625</ele>
        <time>2011-04-18T10:18:29Z</time>
      </trkpt>
      <trkpt lat="32.971972217783332" lon="-1.89964042045176">
        <ele>1316.18212890625</ele>
        <time>2011-04-18T10:18:37Z</time>
      </trkpt>
      <trkpt lat="32.971236957237124" lon="-1.899339091032744">
        <ele>1317.1435546875</ele>
        <time>2011-04-18T10:18:46Z</time>
      </trkpt>
      <trkpt lat="32.971049034968019" lon="-1.899169525131583">
        <ele>1317.1435546875</ele>
        <time>2011-04-18T10:18:49Z</time>
      </trkpt>
      <trkpt lat="32.970699174329638" lon="-1.89895536750555">
        <ele>1316.662841796875</ele>
        <time>2011-04-18T10:18:55Z</time>
      </trkpt>
      <trkpt lat="32.970459368079901" lon="-1.899038851261139">
        <ele>1317.1435546875</ele>
        <time>2011-04-18T10:19:00Z</time>
      </trkpt>
      <trkpt lat="32.970221573486924" lon="-1.898979088291526">
        <ele>1317.6240234375</ele>
        <time>2011-04-18T10:19:04Z</time>
      </trkpt>
      <trkpt lat="32.969583459198475" lon="-1.898471983149648">
        <ele>1320.508056640625</ele>
        <time>2011-04-18T10:19:13Z</time>
      </trkpt>
      <trkpt lat="32.968836380168796" lon="-1.898101670667529">
        <ele>1324.353515625</ele>
        <time>2011-04-18T10:19:22Z</time>
      </trkpt>
      <trkpt lat="32.968663796782494" lon="-1.898027155548334">
        <ele>1325.314697265625</ele>
        <time>2011-04-18T10:19:24Z</time>
      </trkpt>
      <trkpt lat="32.967927865684032" lon="-1.897377977147698">
        <ele>1327.718017578125</ele>
        <time>2011-04-18T10:19:33Z</time>
      </trkpt>
      <trkpt lat="32.967212218791246" lon="-1.89687816426158">
        <ele>1329.159912109375</ele>
        <time>2011-04-18T10:19:41Z</time>
      </trkpt>
      <trkpt lat="32.967122448608279" lon="-1.896833991631866">
        <ele>1329.159912109375</ele>
        <time>2011-04-18T10:19:42Z</time>
      </trkpt>
      <trkpt lat="32.966797817498446" lon="-1.896822424605489">
        <ele>1329.640625</ele>
        <time>2011-04-18T10:19:46Z</time>
      </trkpt>
      <trkpt lat="32.966671250760555" lon="-1.896876320242882">
        <ele>1330.121337890625</ele>
        <time>2011-04-18T10:19:48Z</time>
      </trkpt>
      <trkpt lat="32.966336477547884" lon="-1.896842541173101">
        <ele>1331.082763671875</ele>
        <time>2011-04-18T10:19:53Z</time>
      </trkpt>
      <trkpt lat="32.965469621121883" lon="-1.896364269778132">
        <ele>1333.48583984375</ele>
        <time>2011-04-18T10:20:03Z</time>
      </trkpt>
      <trkpt lat="32.964524896815419" lon="-1.896161679178476">
        <ele>1333.48583984375</ele>
        <time>2011-04-18T10:20:13Z</time>
      </trkpt>
      <trkpt lat="32.963898265734315" lon="-1.89577292650938">
        <ele>1333.966552734375</ele>
        <time>2011-04-18T10:20:20Z</time>
      </trkpt>
      <trkpt lat="32.963170297443867" lon="-1.89540596678853">
        <ele>1334.447265625</ele>
        <time>2011-04-18T10:20:28Z</time>
      </trkpt>
      <trkpt lat="32.96230947598815" lon="-1.895155096426606">
        <ele>1333.966552734375</ele>
        <time>2011-04-18T10:20:37Z</time>
      </trkpt>
      <trkpt lat="32.961759539321065" lon="-1.895042024552822">
        <ele>1333.005126953125</ele>
        <time>2011-04-18T10:20:43Z</time>
      </trkpt>
      <trkpt lat="32.961449576541781" lon="-1.894811354577541">
        <ele>1332.0439453125</ele>
        <time>2011-04-18T10:20:48Z</time>
      </trkpt>
      <trkpt lat="32.961179176345468" lon="-1.894255466759205">
        <ele>1331.563232421875</ele>
        <time>2011-04-18T10:20:55Z</time>
      </trkpt>
      <trkpt lat="32.960849432274699" lon="-1.893396070227027">
        <ele>1331.563232421875</ele>
        <time>2011-04-18T10:21:04Z</time>
      </trkpt>
      <trkpt lat="32.960771732032299" lon="-1.893192892894149">
        <ele>1331.563232421875</ele>
        <time>2011-04-18T10:21:06Z</time>
      </trkpt>
      <trkpt lat="32.960267225280404" lon="-1.89224942587316">
        <ele>1332.524658203125</ele>
        <time>2011-04-18T10:21:16Z</time>
      </trkpt>
      <trkpt lat="32.959632044658065" lon="-1.890669437125325">
        <ele>1334.447265625</ele>
        <time>2011-04-18T10:21:30Z</time>
      </trkpt>
      <trkpt lat="32.958983536809683" lon="-1.889302767813206">
        <ele>1334.927978515625</ele>
        <time>2011-04-18T10:21:41Z</time>
      </trkpt>
      <trkpt lat="32.958359839394689" lon="-1.88799443654716">
        <ele>1334.927978515625</ele>
        <time>2011-04-18T10:21:52Z</time>
      </trkpt>
      <trkpt lat="32.957758940756321" lon="-1.886997912079096">
        <ele>1332.524658203125</ele>
        <time>2011-04-18T10:22:00Z</time>
      </trkpt>
      <trkpt lat="32.95780235901475" lon="-1.886107083410025">
        <ele>1331.082763671875</ele>
        <time>2011-04-18T10:22:08Z</time>
      </trkpt>
      <trkpt lat="32.957881400361657" lon="-1.885306276381016">
        <ele>1330.121337890625</ele>
        <time>2011-04-18T10:22:14Z</time>
      </trkpt>
      <trkpt lat="32.957890033721924" lon="-1.884899251163006">
        <ele>1329.640625</ele>
        <time>2011-04-18T10:22:20Z</time>
      </trkpt>
      <trkpt lat="32.957617454230785" lon="-1.884925486519933">
        <ele>1328.19873046875</ele>
        <time>2011-04-18T10:22:24Z</time>
      </trkpt>
      <trkpt lat="32.957599433138967" lon="-1.884803781285882">
        <ele>1327.718017578125</ele>
        <time>2011-04-18T10:22:39Z</time>
      </trkpt>
      <trkpt lat="32.95788106508553" lon="-1.884452411904931">
        <ele>1328.19873046875</ele>
        <time>2011-04-18T10:22:45Z</time>
      </trkpt>
      <trkpt lat="32.957773692905903" lon="-1.884141946211457">
        <ele>1329.159912109375</ele>
        <time>2011-04-18T10:22:50Z</time>
      </trkpt>
      <trkpt lat="32.957549393177032" lon="-1.883131004869938">
        <ele>1329.640625</ele>
        <time>2011-04-18T10:23:00Z</time>
      </trkpt>
      <trkpt lat="32.957665231078863" lon="-1.882218634709716">
        <ele>1329.159912109375</ele>
        <time>2011-04-18T10:23:08Z</time>
      </trkpt>
      <trkpt lat="32.957987431436777" lon="-1.881012478843331">
        <ele>1329.159912109375</ele>
        <time>2011-04-18T10:23:17Z</time>
      </trkpt>
      <trkpt lat="32.958011152222753" lon="-1.880882978439331">
        <ele>1329.159912109375</ele>
        <time>2011-04-18T10:23:18Z</time>
      </trkpt>
      <trkpt lat="32.958054319024086" lon="-1.880255928263068">
        <ele>1328.679443359375</ele>
        <time>2011-04-18T10:23:23Z</time>
      </trkpt>
      <trkpt lat="32.957773944362998" lon="-1.879136776551604">
        <ele>1326.7568359375</ele>
        <time>2011-04-18T10:23:33Z</time>
      </trkpt>
      <trkpt lat="32.957332637161016" lon="-1.878506457433105">
        <ele>1325.79541015625</ele>
        <time>2011-04-18T10:23:42Z</time>
      </trkpt>
      <trkpt lat="32.956981100142002" lon="-1.878102952614427">
        <ele>1323.87255859375</ele>
        <time>2011-04-18T10:23:50Z</time>
      </trkpt>
      <trkpt lat="32.956843720749021" lon="-1.877982756122947">
        <ele>1323.87255859375</ele>
        <time>2011-04-18T10:23:55Z</time>
      </trkpt>
      <trkpt lat="32.956423284485936" lon="-1.877662399783731">
        <ele>1324.834228515625</ele>
        <time>2011-04-18T10:24:02Z</time>
      </trkpt>
      <trkpt lat="32.955677127465606" lon="-1.87697977758944">
        <ele>1323.39208984375</ele>
        <time>2011-04-18T10:24:12Z</time>
      </trkpt>
      <trkpt lat="32.95487891882658" lon="-1.876062462106347">
        <ele>1323.39208984375</ele>
        <time>2011-04-18T10:24:23Z</time>
      </trkpt>
      <trkpt lat="32.953930674120784" lon="-1.87656344845891">
        <ele>1322.911376953125</ele>
        <time>2011-04-18T10:24:28Z</time>
      </trkpt>
      <trkpt lat="32.95371844433248" lon="-1.876590522006154">
        <ele>1323.39208984375</ele>
        <time>2011-04-18T10:24:30Z</time>
      </trkpt>
      <trkpt lat="32.953327931463718" lon="-1.876516342163086">
        <ele>1323.39208984375</ele>
        <time>2011-04-18T10:24:34Z</time>
      </trkpt>
      <trkpt lat="32.953127436339855" lon="-1.876196656376123">
        <ele>1322.911376953125</ele>
        <time>2011-04-18T10:24:39Z</time>
      </trkpt>
      <trkpt lat="32.953150318935513" lon="-1.875963555648923">
        <ele>1322.4306640625</ele>
        <time>2011-04-18T10:24:42Z</time>
      </trkpt>
      <trkpt lat="32.953265234827995" lon="-1.875560889020562">
        <ele>1322.4306640625</ele>
        <time>2011-04-18T10:24:49Z</time>
      </trkpt>
      <trkpt lat="32.953199353069067" lon="-1.875397441908717">
        <ele>1322.911376953125</ele>
        <time>2011-04-18T10:24:54Z</time>
      </trkpt>
      <trkpt lat="32.95330404303968" lon="-1.874485826119781">
        <ele>1322.4306640625</ele>
        <time>2011-04-18T10:25:01Z</time>
      </trkpt>
      <trkpt lat="32.952667186036706" lon="-1.873858775943518">
        <ele>1322.911376953125</ele>
        <time>2011-04-18T10:25:11Z</time>
      </trkpt>
      <trkpt lat="32.952043991535902" lon="-1.872788490727544">
        <ele>1323.87255859375</ele>
        <time>2011-04-18T10:25:22Z</time>
      </trkpt>
      <trkpt lat="32.951653394848108" lon="-1.871683085337281">
        <ele>1320.98876953125</ele>
        <time>2011-04-18T10:25:31Z</time>
      </trkpt>
      <trkpt lat="32.951303198933601" lon="-1.871345462277532">
        <ele>1319.546875</ele>
        <time>2011-04-18T10:25:35Z</time>
      </trkpt>
      <trkpt lat="32.950714370235801" lon="-1.870876997709274">
        <ele>1317.6240234375</ele>
        <time>2011-04-18T10:25:42Z</time>
      </trkpt>
      <trkpt lat="32.950523011386395" lon="-1.870429823175073">
        <ele>1317.6240234375</ele>
        <time>2011-04-18T10:25:49Z</time>
      </trkpt>
      <trkpt lat="32.950311871245503" lon="-1.869883071631193">
        <ele>1317.1435546875</ele>
        <time>2011-04-18T10:25:57Z</time>
      </trkpt>
      <trkpt lat="32.95019393786788" lon="-1.869689784944058">
        <ele>1317.6240234375</ele>
        <time>2011-04-18T10:26:01Z</time>
      </trkpt>
      <trkpt lat="32.950029736384749" lon="-1.869527343660593">
        <ele>1317.6240234375</ele>
        <time>2011-04-18T10:26:05Z</time>
      </trkpt>
      <trkpt lat="32.949923537671566" lon="-1.869411421939731">
        <ele>1317.6240234375</ele>
        <time>2011-04-18T10:26:08Z</time>
      </trkpt>
      <trkpt lat="32.95040843077004" lon="-1.868326887488365">
        <ele>1317.6240234375</ele>
        <time>2011-04-18T10:26:16Z</time>
      </trkpt>
      <trkpt lat="32.950615296140313" lon="-1.867666225880384">
        <ele>1318.58544921875</ele>
        <time>2011-04-18T10:26:22Z</time>
      </trkpt>
      <trkpt lat="32.95060339383781" lon="-1.867097429931164">
        <ele>1320.508056640625</ele>
        <time>2011-04-18T10:26:27Z</time>
      </trkpt>
      <trkpt lat="32.950400719419122" lon="-1.865727994590998">
        <ele>1328.679443359375</ele>
        <time>2011-04-18T10:26:39Z</time>
      </trkpt>
      <trkpt lat="32.950363252311945" lon="-1.865457259118557">
        <ele>1330.121337890625</ele>
        <time>2011-04-18T10:26:42Z</time>
      </trkpt>
      <trkpt lat="32.950173569843173" lon="-1.865107482299209">
        <ele>1331.082763671875</ele>
        <time>2011-04-18T10:26:46Z</time>
      </trkpt>
      <trkpt lat="32.94980795122683" lon="-1.864724680781364">
        <ele>1330.60205078125</ele>
        <time>2011-04-18T10:26:51Z</time>
      </trkpt>
      <trkpt lat="32.949363626539707" lon="-1.863802671432495">
        <ele>1330.60205078125</ele>
        <time>2011-04-18T10:26:59Z</time>
      </trkpt>
      <trkpt lat="32.948686787858605" lon="-1.862138528376818">
        <ele>1330.60205078125</ele>
        <time>2011-04-18T10:27:11Z</time>
      </trkpt>
      <trkpt lat="32.948206337168813" lon="-1.860719555988908">
        <ele>1333.005126953125</ele>
        <time>2011-04-18T10:27:21Z</time>
      </trkpt>
      <trkpt lat="32.947541484609246" lon="-1.859378786757588">
        <ele>1335.408447265625</ele>
        <time>2011-04-18T10:27:31Z</time>
      </trkpt>
      <trkpt lat="32.946810750290751" lon="-1.857602074742317">
        <ele>1338.773193359375</ele>
        <time>2011-04-18T10:27:43Z</time>
      </trkpt>
      <trkpt lat="32.946207420900464" lon="-1.85620472766459">
        <ele>1340.21533203125</ele>
        <time>2011-04-18T10:27:54Z</time>
      </trkpt>
      <trkpt lat="32.945541646331549" lon="-1.854969738051295">
        <ele>1337.3310546875</ele>
        <time>2011-04-18T10:28:04Z</time>
      </trkpt>
      <trkpt lat="32.94484687037766" lon="-1.853795181959868">
        <ele>1333.966552734375</ele>
        <time>2011-04-18T10:28:16Z</time>
      </trkpt>
      <trkpt lat="32.944399025291204" lon="-1.853066459298134">
        <ele>1333.48583984375</ele>
        <time>2011-04-18T10:28:25Z</time>
      </trkpt>
      <trkpt lat="32.944127367809415" lon="-1.85269832611084">
        <ele>1333.005126953125</ele>
        <time>2011-04-18T10:28:31Z</time>
      </trkpt>
      <trkpt lat="32.943844981491566" lon="-1.852580392733216">
        <ele>1328.19873046875</ele>
        <time>2011-04-18T10:28:37Z</time>
      </trkpt>
      <trkpt lat="32.943657143041492" lon="-1.852600844576955">
        <ele>1326.276123046875</ele>
        <time>2011-04-18T10:28:42Z</time>
      </trkpt>
      <trkpt lat="32.943679019808769" lon="-1.852405881509185">
        <ele>1325.79541015625</ele>
        <time>2011-04-18T10:28:46Z</time>
      </trkpt>
      <trkpt lat="32.94369419105351" lon="-1.851997766643763">
        <ele>1326.276123046875</ele>
        <time>2011-04-18T10:28:53Z</time>
      </trkpt>
      <trkpt lat="32.943259086459875" lon="-1.851361831650138">
        <ele>1327.237548828125</ele>
        <time>2011-04-18T10:29:01Z</time>
      </trkpt>
      <trkpt lat="32.94260747730732" lon="-1.850341418758035">
        <ele>1328.679443359375</ele>
        <time>2011-04-18T10:29:11Z</time>
      </trkpt>
      <trkpt lat="32.941743470728397" lon="-1.849050857126713">
        <ele>1326.276123046875</ele>
        <time>2011-04-18T10:29:22Z</time>
      </trkpt>
      <trkpt lat="32.941010557115078" lon="-1.847975794225931">
        <ele>1323.39208984375</ele>
        <time>2011-04-18T10:29:32Z</time>
      </trkpt>
      <trkpt lat="32.940075639635324" lon="-1.846795370802283">
        <ele>1321.949951171875</ele>
        <time>2011-04-18T10:29:44Z</time>
      </trkpt>
      <trkpt lat="32.939545568078756" lon="-1.846023146063089">
        <ele>1320.02734375</ele>
        <time>2011-04-18T10:29:53Z</time>
      </trkpt>
      <trkpt lat="32.939396286383271" lon="-1.845803037285805">
        <ele>1319.546875</ele>
        <time>2011-04-18T10:29:57Z</time>
      </trkpt>
      <trkpt lat="32.939155893400311" lon="-1.845440436154604">
        <ele>1319.066162109375</ele>
        <time>2011-04-18T10:30:05Z</time>
      </trkpt>
      <trkpt lat="32.938649458810687" lon="-1.844862923026085">
        <ele>1320.98876953125</ele>
        <time>2011-04-18T10:30:13Z</time>
      </trkpt>
      <trkpt lat="32.938096839934587" lon="-1.844143252819777">
        <ele>1322.911376953125</ele>
        <time>2011-04-18T10:30:21Z</time>
      </trkpt>
      <trkpt lat="32.937723929062486" lon="-1.843886682763696">
        <ele>1320.508056640625</ele>
        <time>2011-04-18T10:30:26Z</time>
      </trkpt>
      <trkpt lat="32.937444979324937" lon="-1.843553334474564">
        <ele>1320.508056640625</ele>
        <time>2011-04-18T10:30:30Z</time>
      </trkpt>
      <trkpt lat="32.936470918357372" lon="-1.842159926891327">
        <ele>1320.98876953125</ele>
        <time>2011-04-18T10:30:44Z</time>
      </trkpt>
      <trkpt lat="32.935742782428861" lon="-1.841384349390864">
        <ele>1321.949951171875</ele>
        <time>2011-04-18T10:30:53Z</time>
      </trkpt>
      <trkpt lat="32.93530935421586" lon="-1.840886296704412">
        <ele>1322.4306640625</ele>
        <time>2011-04-18T10:31:00Z</time>
      </trkpt>
      <trkpt lat="32.934801829978824" lon="-1.8401132337749">
        <ele>1322.911376953125</ele>
        <time>2011-04-18T10:31:09Z</time>
      </trkpt>
      <trkpt lat="32.934216018766165" lon="-1.83918627910316">
        <ele>1324.353515625</ele>
        <time>2011-04-18T10:31:18Z</time>
      </trkpt>
      <trkpt lat="32.933645881712437" lon="-1.83801356703043">
        <ele>1321.949951171875</ele>
        <time>2011-04-18T10:31:28Z</time>
      </trkpt>
      <trkpt lat="32.933264840394258" lon="-1.836248422041535">
        <ele>1318.58544921875</ele>
        <time>2011-04-18T10:31:41Z</time>
      </trkpt>
      <trkpt lat="32.933120001107454" lon="-1.835238737985492">
        <ele>1318.58544921875</ele>
        <time>2011-04-18T10:31:49Z</time>
      </trkpt>
      <trkpt lat="32.932841302827001" lon="-1.83444807305932">
        <ele>1319.546875</ele>
        <time>2011-04-18T10:31:57Z</time>
      </trkpt>
      <trkpt lat="32.932743234559894" lon="-1.834269287064672">
        <ele>1319.066162109375</ele>
        <time>2011-04-18T10:31:59Z</time>
      </trkpt>
      <trkpt lat="32.932434612885118" lon="-1.833522710949183">
        <ele>1321.949951171875</ele>
        <time>2011-04-18T10:32:07Z</time>
      </trkpt>
      <trkpt lat="32.932121884077787" lon="-1.832553343847394">
        <ele>1324.353515625</ele>
        <time>2011-04-18T10:32:16Z</time>
      </trkpt>
      <trkpt lat="32.931455941870809" lon="-1.831412734463811">
        <ele>1322.911376953125</ele>
        <time>2011-04-18T10:32:26Z</time>
      </trkpt>
      <trkpt lat="32.931334236636758" lon="-1.831075446680188">
        <ele>1321.949951171875</ele>
        <time>2011-04-18T10:32:29Z</time>
      </trkpt>
      <trkpt lat="32.931049671024084" lon="-1.830665236338973">
        <ele>1320.98876953125</ele>
        <time>2011-04-18T10:32:33Z</time>
      </trkpt>
      <trkpt lat="32.930649016052485" lon="-1.829763427376747">
        <ele>1318.104736328125</ele>
        <time>2011-04-18T10:32:41Z</time>
      </trkpt>
      <trkpt lat="32.93005121871829" lon="-1.828809399157763">
        <ele>1315.70166015625</ele>
        <time>2011-04-18T10:32:50Z</time>
      </trkpt>
      <trkpt lat="32.92993881739676" lon="-1.82857763953507">
        <ele>1316.18212890625</ele>
        <time>2011-04-18T10:32:53Z</time>
      </trkpt>
      <trkpt lat="32.929899757727981" lon="-1.828382508829236">
        <ele>1316.18212890625</ele>
        <time>2011-04-18T10:32:57Z</time>
      </trkpt>
      <trkpt lat="32.929690042510629" lon="-1.827793763950467">
        <ele>1316.18212890625</ele>
        <time>2011-04-18T10:33:04Z</time>
      </trkpt>
      <trkpt lat="32.929101549088955" lon="-1.826530946418643">
        <ele>1316.662841796875</ele>
        <time>2011-04-18T10:33:16Z</time>
      </trkpt>
      <trkpt lat="32.928571393713355" lon="-1.825391259044409">
        <ele>1315.70166015625</ele>
        <time>2011-04-18T10:33:26Z</time>
      </trkpt>
      <trkpt lat="32.928272997960448" lon="-1.824632529169321">
        <ele>1313.29833984375</ele>
        <time>2011-04-18T10:33:34Z</time>
      </trkpt>
      <trkpt lat="32.928178030997515" lon="-1.824435470625758">
        <ele>1314.259521484375</ele>
        <time>2011-04-18T10:33:37Z</time>
      </trkpt>
      <trkpt lat="32.927847784012556" lon="-1.824015034362674">
        <ele>1312.817626953125</ele>
        <time>2011-04-18T10:33:44Z</time>
      </trkpt>
      <trkpt lat="32.927690874785185" lon="-1.823732564225793">
        <ele>1311.8564453125</ele>
        <time>2011-04-18T10:33:49Z</time>
      </trkpt>
      <trkpt lat="32.927510915324092" lon="-1.823080200701952">
        <ele>1314.740234375</ele>
        <time>2011-04-18T10:33:57Z</time>
      </trkpt>
      <trkpt lat="32.927374122664332" lon="-1.82269899174571">
        <ele>1317.1435546875</ele>
        <time>2011-04-18T10:34:01Z</time>
      </trkpt>
      <trkpt lat="32.926956284791231" lon="-1.8216806743294">
        <ele>1319.066162109375</ele>
        <time>2011-04-18T10:34:11Z</time>
      </trkpt>
      <trkpt lat="32.926445072516799" lon="-1.82040193118155">
        <ele>1318.58544921875</ele>
        <time>2011-04-18T10:34:22Z</time>
      </trkpt>
      <trkpt lat="32.92587049305439" lon="-1.81892579421401">
        <ele>1316.662841796875</ele>
        <time>2011-04-18T10:34:33Z</time>
      </trkpt>
      <trkpt lat="32.925460869446397" lon="-1.817921055480838">
        <ele>1315.220947265625</ele>
        <time>2011-04-18T10:34:41Z</time>
      </trkpt>
      <trkpt lat="32.925006905570626" lon="-1.816895194351673">
        <ele>1313.29833984375</ele>
        <time>2011-04-18T10:34:50Z</time>
      </trkpt>
      <trkpt lat="32.924821330234408" lon="-1.816308461129665">
        <ele>1311.8564453125</ele>
        <time>2011-04-18T10:34:55Z</time>
      </trkpt>
      <trkpt lat="32.924244990572333" lon="-1.815480832010508">
        <ele>1307.5302734375</ele>
        <time>2011-04-18T10:35:04Z</time>
      </trkpt>
      <trkpt lat="32.924175756052136" lon="-1.815400617197156">
        <ele>1307.049560546875</ele>
        <time>2011-04-18T10:35:05Z</time>
      </trkpt>
      <trkpt lat="32.923449380323291" lon="-1.814807513728738">
        <ele>1305.126953125</ele>
        <time>2011-04-18T10:35:14Z</time>
      </trkpt>
      <trkpt lat="32.923215357586741" lon="-1.814608024433255">
        <ele>1304.165771484375</ele>
        <time>2011-04-18T10:35:17Z</time>
      </trkpt>
      <trkpt lat="32.922987202182412" lon="-1.814345251768827">
        <ele>1303.68505859375</ele>
        <time>2011-04-18T10:35:21Z</time>
      </trkpt>
      <trkpt lat="32.922819145023823" lon="-1.814047275111079">
        <ele>1303.204345703125</ele>
        <time>2011-04-18T10:35:26Z</time>
      </trkpt>
      <trkpt lat="32.92271101847291" lon="-1.813749885186553">
        <ele>1302.242919921875</ele>
        <time>2011-04-18T10:35:31Z</time>
      </trkpt>
      <trkpt lat="32.922707162797451" lon="-1.813218053430319">
        <ele>1303.68505859375</ele>
        <time>2011-04-18T10:35:39Z</time>
      </trkpt>
      <trkpt lat="32.922426369041204" lon="-1.812649676576257">
        <ele>1302.7236328125</ele>
        <time>2011-04-18T10:35:46Z</time>
      </trkpt>
      <trkpt lat="32.922245068475604" lon="-1.812402242794633">
        <ele>1299.83984375</ele>
        <time>2011-04-18T10:35:50Z</time>
      </trkpt>
      <trkpt lat="32.921761097386479" lon="-1.811635550111532">
        <ele>1295.513916015625</ele>
        <time>2011-04-18T10:36:00Z</time>
      </trkpt>
      <trkpt lat="32.921136561781168" lon="-1.810742961242795">
        <ele>1294.072021484375</ele>
        <time>2011-04-18T10:36:10Z</time>
      </trkpt>
      <trkpt lat="32.92050339281559" lon="-1.809618109837174">
        <ele>1295.513916015625</ele>
        <time>2011-04-18T10:36:21Z</time>
      </trkpt>
      <trkpt lat="32.919923029839993" lon="-1.808628961443901">
        <ele>1300.320556640625</ele>
        <time>2011-04-18T10:36:31Z</time>
      </trkpt>
      <trkpt lat="32.919655479490757" lon="-1.808044910430908">
        <ele>1308.972412109375</ele>
        <time>2011-04-18T10:36:37Z</time>
      </trkpt>
      <trkpt lat="32.919028094038367" lon="-1.806649910286069">
        <ele>1320.02734375</ele>
        <time>2011-04-18T10:36:49Z</time>
      </trkpt>
      <trkpt lat="32.918673539534211" lon="-1.805988159030676">
        <ele>1328.19873046875</ele>
        <time>2011-04-18T10:36:56Z</time>
      </trkpt>
      <trkpt lat="32.918446054682136" lon="-1.805452890694141">
        <ele>1333.966552734375</ele>
        <time>2011-04-18T10:37:03Z</time>
      </trkpt>
      <trkpt lat="32.917989240959287" lon="-1.804388472810388">
        <ele>1337.3310546875</ele>
        <time>2011-04-18T10:37:12Z</time>
      </trkpt>
      <trkpt lat="32.917471658438444" lon="-1.803020713850856">
        <ele>1340.21533203125</ele>
        <time>2011-04-18T10:37:22Z</time>
      </trkpt>
      <trkpt lat="32.917264709249139" lon="-1.801905753090978">
        <ele>1341.176513671875</ele>
        <time>2011-04-18T10:37:30Z</time>
      </trkpt>
      <trkpt lat="32.9169334564358" lon="-1.801065718755126">
        <ele>1341.6572265625</ele>
        <time>2011-04-18T10:37:36Z</time>
      </trkpt>
      <trkpt lat="32.916200626641512" lon="-1.800032649189234">
        <ele>1343.09912109375</ele>
        <time>2011-04-18T10:37:45Z</time>
      </trkpt>
      <trkpt lat="32.915585646405816" lon="-1.799201834946871">
        <ele>1345.983154296875</ele>
        <time>2011-04-18T10:37:53Z</time>
      </trkpt>
      <trkpt lat="32.915235031396151" lon="-1.798310838639736">
        <ele>1349.34765625</ele>
        <time>2011-04-18T10:38:02Z</time>
      </trkpt>
      <trkpt lat="32.914823982864618" lon="-1.797422021627426">
        <ele>1350.30908203125</ele>
        <time>2011-04-18T10:38:11Z</time>
      </trkpt>
      <trkpt lat="32.914363984018564" lon="-1.79614931344986">
        <ele>1350.30908203125</ele>
        <time>2011-04-18T10:38:21Z</time>
      </trkpt>
      <trkpt lat="32.913850089535117" lon="-1.794823044911027">
        <ele>1350.78955078125</ele>
        <time>2011-04-18T10:38:31Z</time>
      </trkpt>
      <trkpt lat="32.913458403199911" lon="-1.793763488531113">
        <ele>1351.7509765625</ele>
        <time>2011-04-18T10:38:40Z</time>
      </trkpt>
      <trkpt lat="32.913028327748179" lon="-1.792796216905117">
        <ele>1348.866943359375</ele>
        <time>2011-04-18T10:38:49Z</time>
      </trkpt>
      <trkpt lat="32.912408234551549" lon="-1.792116276919842">
        <ele>1345.983154296875</ele>
        <time>2011-04-18T10:38:56Z</time>
      </trkpt>
      <trkpt lat="32.911520004272461" lon="-1.791436672210693">
        <ele>1344.060546875</ele>
        <time>2011-04-18T10:39:04Z</time>
      </trkpt>
      <trkpt lat="32.911186991259456" lon="-1.791267273947597">
        <ele>1344.060546875</ele>
        <time>2011-04-18T10:39:07Z</time>
      </trkpt>
      <trkpt lat="32.910651974380016" lon="-1.79102897644043">
        <ele>1333.48583984375</ele>
        <time>2011-04-18T10:39:15Z</time>
      </trkpt>
      <trkpt lat="32.910260120406747" lon="-1.790905091911554">
        <ele>1325.314697265625</ele>
        <time>2011-04-18T10:39:20Z</time>
      </trkpt>
      <trkpt lat="32.909919479861856" lon="-1.790770562365651">
        <ele>1321.46923828125</ele>
        <time>2011-04-18T10:39:24Z</time>
      </trkpt>
      <trkpt lat="32.909122025594115" lon="-1.790325148031116">
        <ele>1312.817626953125</ele>
        <time>2011-04-18T10:39:33Z</time>
      </trkpt>
      <trkpt lat="32.908478295430541" lon="-1.790041755884886">
        <ele>1307.049560546875</ele>
        <time>2011-04-18T10:39:40Z</time>
      </trkpt>
      <trkpt lat="32.907958282157779" lon="-1.789844194427133">
        <ele>1304.646240234375</ele>
        <time>2011-04-18T10:39:47Z</time>
      </trkpt>
      <trkpt lat="32.907862896099687" lon="-1.789810163900256">
        <ele>1304.646240234375</ele>
        <time>2011-04-18T10:39:48Z</time>
      </trkpt>
      <trkpt lat="32.907619485631585" lon="-1.78977956995368">
        <ele>1305.126953125</ele>
        <time>2011-04-18T10:39:51Z</time>
      </trkpt>
      <trkpt lat="32.907340032979846" lon="-1.789714274927974">
        <ele>1304.165771484375</ele>
        <time>2011-04-18T10:39:57Z</time>
      </trkpt>
      <trkpt lat="32.907242802903056" lon="-1.789661049842835">
        <ele>1304.165771484375</ele>
        <time>2011-04-18T10:40:01Z</time>
      </trkpt>
      <trkpt lat="32.906876262277365" lon="-1.789412861689925">
        <ele>1299.83984375</ele>
        <time>2011-04-18T10:40:09Z</time>
      </trkpt>
      <trkpt lat="32.906721699982882" lon="-1.789353433996439">
        <ele>1293.59130859375</ele>
        <time>2011-04-18T10:40:32Z</time>
      </trkpt>
      <trkpt lat="32.906332947313786" lon="-1.789333820343018">
        <ele>1294.072021484375</ele>
        <time>2011-04-18T10:40:37Z</time>
      </trkpt>
      <trkpt lat="32.906101439148188" lon="-1.789350919425488">
        <ele>1295.99462890625</ele>
        <time>2011-04-18T10:40:40Z</time>
      </trkpt>
      <trkpt lat="32.905869260430336" lon="-1.789366593584418">
        <ele>1296.475341796875</ele>
        <time>2011-04-18T10:40:44Z</time>
      </trkpt>
      <trkpt lat="32.905517974868417" lon="-1.789359636604786">
        <ele>1294.072021484375</ele>
        <time>2011-04-18T10:40:50Z</time>
      </trkpt>
      <trkpt lat="32.904775338247418" lon="-1.788820596411824">
        <ele>1293.110595703125</ele>
        <time>2011-04-18T10:40:59Z</time>
      </trkpt>
      <trkpt lat="32.904413156211376" lon="-1.788262194022536">
        <ele>1291.66845703125</ele>
        <time>2011-04-18T10:41:05Z</time>
      </trkpt>
      <trkpt lat="32.903861459344625" lon="-1.787547217682004">
        <ele>1291.187744140625</ele>
        <time>2011-04-18T10:41:13Z</time>
      </trkpt>
      <trkpt lat="32.903394671157002" lon="-1.786778345704079">
        <ele>1293.59130859375</ele>
        <time>2011-04-18T10:41:21Z</time>
      </trkpt>
      <trkpt lat="32.902808273211122" lon="-1.786093879491091">
        <ele>1292.630126953125</ele>
        <time>2011-04-18T10:41:29Z</time>
      </trkpt>
      <trkpt lat="32.901965556666255" lon="-1.785207325592637">
        <ele>1292.1494140625</ele>
        <time>2011-04-18T10:41:39Z</time>
      </trkpt>
      <trkpt lat="32.901876959949732" lon="-1.785140354186297">
        <ele>1291.66845703125</ele>
        <time>2011-04-18T10:41:40Z</time>
      </trkpt>
      <trkpt lat="32.900968696922064" lon="-1.784519506618381">
        <ele>1289.745849609375</ele>
        <time>2011-04-18T10:41:49Z</time>
      </trkpt>
      <trkpt lat="32.900354471057653" lon="-1.784075517207384">
        <ele>1288.303955078125</ele>
        <time>2011-04-18T10:41:55Z</time>
      </trkpt>
      <trkpt lat="32.89993554353714" lon="-1.783920871093869">
        <ele>1289.26513671875</ele>
        <time>2011-04-18T10:41:59Z</time>
      </trkpt>
      <trkpt lat="32.8996008541435" lon="-1.783894384279847">
        <ele>1290.2265625</ele>
        <time>2011-04-18T10:42:02Z</time>
      </trkpt>
      <trkpt lat="32.899020491167903" lon="-1.783514097332954">
        <ele>1291.66845703125</ele>
        <time>2011-04-18T10:42:08Z</time>
      </trkpt>
      <trkpt lat="32.898932816460729" lon="-1.783443437889218">
        <ele>1291.66845703125</ele>
        <time>2011-04-18T10:42:09Z</time>
      </trkpt>
      <trkpt lat="32.89839880540967" lon="-1.783024426549673">
        <ele>1292.1494140625</ele>
        <time>2011-04-18T10:42:15Z</time>
      </trkpt>
      <trkpt lat="32.897868733853102" lon="-1.782688144594431">
        <ele>1292.1494140625</ele>
        <time>2011-04-18T10:42:21Z</time>
      </trkpt>
      <trkpt lat="32.897237408906221" lon="-1.782209621742368">
        <ele>1291.187744140625</ele>
        <time>2011-04-18T10:42:29Z</time>
      </trkpt>
      <trkpt lat="32.896637264639139" lon="-1.781969983130693">
        <ele>1291.187744140625</ele>
        <time>2011-04-18T10:42:35Z</time>
      </trkpt>
      <trkpt lat="32.89613451808691" lon="-1.781748197972775">
        <ele>1291.66845703125</ele>
        <time>2011-04-18T10:42:40Z</time>
      </trkpt>
      <trkpt lat="32.895556166768074" lon="-1.781165404245257">
        <ele>1293.110595703125</ele>
        <time>2011-04-18T10:42:48Z</time>
      </trkpt>
      <trkpt lat="32.895125169306993" lon="-1.780844377353787">
        <ele>1294.552490234375</ele>
        <time>2011-04-18T10:42:53Z</time>
      </trkpt>
      <trkpt lat="32.894706074148417" lon="-1.7807936668396">
        <ele>1292.1494140625</ele>
        <time>2011-04-18T10:42:59Z</time>
      </trkpt>
      <trkpt lat="32.894292008131742" lon="-1.780858039855957">
        <ele>1289.745849609375</ele>
        <time>2011-04-18T10:43:04Z</time>
      </trkpt>
      <trkpt lat="32.893841061741114" lon="-1.780666261911392">
        <ele>1286.38134765625</ele>
        <time>2011-04-18T10:43:09Z</time>
      </trkpt>
      <trkpt lat="32.892926428467035" lon="-1.780396532267332">
        <ele>1288.303955078125</ele>
        <time>2011-04-18T10:43:18Z</time>
      </trkpt>
      <trkpt lat="32.892415802925825" lon="-1.780064273625612">
        <ele>1288.303955078125</ele>
        <time>2011-04-18T10:43:24Z</time>
      </trkpt>
      <trkpt lat="32.892302563413978" lon="-1.779982214793563">
        <ele>1288.303955078125</ele>
        <time>2011-04-18T10:43:26Z</time>
      </trkpt>
      <trkpt lat="32.892051860690117" lon="-1.779913902282715">
        <ele>1289.26513671875</ele>
        <time>2011-04-18T10:43:30Z</time>
      </trkpt>
      <trkpt lat="32.891916073858738" lon="-1.779913902282715">
        <ele>1290.70703125</ele>
        <time>2011-04-18T10:43:32Z</time>
      </trkpt>
      <trkpt lat="32.891305452212691" lon="-1.779882721602917">
        <ele>1295.513916015625</ele>
        <time>2011-04-18T10:43:39Z</time>
      </trkpt>
      <trkpt lat="32.890523336827755" lon="-1.77978515625">
        <ele>1299.359130859375</ele>
        <time>2011-04-18T10:43:47Z</time>
      </trkpt>
      <trkpt lat="32.890175404027104" lon="-1.77979446016252">
        <ele>1300.320556640625</ele>
        <time>2011-04-18T10:43:51Z</time>
      </trkpt>
      <trkpt lat="32.889848342165351" lon="-1.779996380209923">
        <ele>1301.762451171875</ele>
        <time>2011-04-18T10:43:55Z</time>
      </trkpt>
      <trkpt lat="32.888921638950706" lon="-1.780377756804228">
        <ele>1303.204345703125</ele>
        <time>2011-04-18T10:44:04Z</time>
      </trkpt>
      <trkpt lat="32.888391986489296" lon="-1.780251106247306">
        <ele>1303.68505859375</ele>
        <time>2011-04-18T10:44:10Z</time>
      </trkpt>
      <trkpt lat="32.887900387868285" lon="-1.780401142314076">
        <ele>1304.165771484375</ele>
        <time>2011-04-18T10:44:15Z</time>
      </trkpt>
      <trkpt lat="32.887715315446258" lon="-1.780370296910405">
        <ele>1304.646240234375</ele>
        <time>2011-04-18T10:44:17Z</time>
      </trkpt>
      <trkpt lat="32.887370986863971" lon="-1.780343055725098">
        <ele>1303.68505859375</ele>
        <time>2011-04-18T10:44:21Z</time>
      </trkpt>
      <trkpt lat="32.887044092640281" lon="-1.780319502577186">
        <ele>1303.204345703125</ele>
        <time>2011-04-18T10:44:25Z</time>
      </trkpt>
      <trkpt lat="32.886605802923441" lon="-1.779839722439647">
        <ele>1299.359130859375</ele>
        <time>2011-04-18T10:44:32Z</time>
      </trkpt>
      <trkpt lat="32.886518044397235" lon="-1.779712988063693">
        <ele>1299.359130859375</ele>
        <time>2011-04-18T10:44:34Z</time>
      </trkpt>
      <trkpt lat="32.886376893147826" lon="-1.779472762718797">
        <ele>1298.397705078125</ele>
        <time>2011-04-18T10:44:38Z</time>
      </trkpt>
      <trkpt lat="32.886197604238987" lon="-1.778981918469071">
        <ele>1295.99462890625</ele>
        <time>2011-04-18T10:44:45Z</time>
      </trkpt>
      <trkpt lat="32.886034408584237" lon="-1.778571624308825">
        <ele>1294.072021484375</ele>
        <time>2011-04-18T10:44:49Z</time>
      </trkpt>
      <trkpt lat="32.885735593736172" lon="-1.778368279337883">
        <ele>1293.110595703125</ele>
        <time>2011-04-18T10:44:53Z</time>
      </trkpt>
      <trkpt lat="32.88515355437994" lon="-1.778223775327206">
        <ele>1294.552490234375</ele>
        <time>2011-04-18T10:44:59Z</time>
      </trkpt>
      <trkpt lat="32.884918777272105" lon="-1.777810547500849">
        <ele>1293.110595703125</ele>
        <time>2011-04-18T10:45:05Z</time>
      </trkpt>
      <trkpt lat="32.884776284918189" lon="-1.777604687958956">
        <ele>1291.66845703125</ele>
        <time>2011-04-18T10:45:08Z</time>
      </trkpt>
      <trkpt lat="32.884315196424723" lon="-1.777345603331924">
        <ele>1291.187744140625</ele>
        <time>2011-04-18T10:45:14Z</time>
      </trkpt>
      <trkpt lat="32.883853437379003" lon="-1.77716220729053">
        <ele>1291.187744140625</ele>
        <time>2011-04-18T10:45:19Z</time>
      </trkpt>
      <trkpt lat="32.883401568979025" lon="-1.777298413217068">
        <ele>1291.66845703125</ele>
        <time>2011-04-18T10:45:24Z</time>
      </trkpt>
      <trkpt lat="32.882999237626791" lon="-1.777403019368649">
        <ele>1293.110595703125</ele>
        <time>2011-04-18T10:45:28Z</time>
      </trkpt>
      <trkpt lat="32.882592044770718" lon="-1.77746320143342">
        <ele>1294.552490234375</ele>
        <time>2011-04-18T10:45:32Z</time>
      </trkpt>
      <trkpt lat="32.881813701242208" lon="-1.777099259197712">
        <ele>1296.475341796875</ele>
        <time>2011-04-18T10:45:40Z</time>
      </trkpt>
      <trkpt lat="32.881674729287624" lon="-1.776776723563671">
        <ele>1294.552490234375</ele>
        <time>2011-04-18T10:45:46Z</time>
      </trkpt>
      <trkpt lat="32.881476078182459" lon="-1.776353772729635">
        <ele>1290.2265625</ele>
        <time>2011-04-18T10:45:52Z</time>
      </trkpt>
      <trkpt lat="32.881411788985133" lon="-1.775986980646849">
        <ele>1287.342529296875</ele>
        <time>2011-04-18T10:45:56Z</time>
      </trkpt>
      <trkpt lat="32.881146837025881" lon="-1.775608537718654">
        <ele>1285.419921875</ele>
        <time>2011-04-18T10:46:01Z</time>
      </trkpt>
      <trkpt lat="32.880408642813563" lon="-1.775209559127688">
        <ele>1281.09423828125</ele>
        <time>2011-04-18T10:46:11Z</time>
      </trkpt>
      <trkpt lat="32.880047215148807" lon="-1.774953491985798">
        <ele>1279.652099609375</ele>
        <time>2011-04-18T10:46:16Z</time>
      </trkpt>
      <trkpt lat="32.879721075296402" lon="-1.774557027965784">
        <ele>1277.7294921875</ele>
        <time>2011-04-18T10:46:22Z</time>
      </trkpt>
      <trkpt lat="32.879535164684057" lon="-1.773804249241948">
        <ele>1272.9228515625</ele>
        <time>2011-04-18T10:46:31Z</time>
      </trkpt>
      <trkpt lat="32.879478838294744" lon="-1.773526053875685">
        <ele>1273.403564453125</ele>
        <time>2011-04-18T10:46:34Z</time>
      </trkpt>
      <trkpt lat="32.87906032986939" lon="-1.773114250972867">
        <ele>1273.403564453125</ele>
        <time>2011-04-18T10:46:40Z</time>
      </trkpt>
      <trkpt lat="32.878961339592934" lon="-1.773080639541149">
        <ele>1273.403564453125</ele>
        <time>2011-04-18T10:46:41Z</time>
      </trkpt>
      <trkpt lat="32.878001695498824" lon="-1.772817028686404">
        <ele>1277.7294921875</ele>
        <time>2011-04-18T10:46:52Z</time>
      </trkpt>
      <trkpt lat="32.877387385815382" lon="-1.772643607109785">
        <ele>1280.1328125</ele>
        <time>2011-04-18T10:47:00Z</time>
      </trkpt>
      <trkpt lat="32.876922190189362" lon="-1.772446129471064">
        <ele>1281.57470703125</ele>
        <time>2011-04-18T10:47:07Z</time>
      </trkpt>
      <trkpt lat="32.876509549096227" lon="-1.772311348468065">
        <ele>1287.8232421875</ele>
        <time>2011-04-18T10:47:14Z</time>
      </trkpt>
      <trkpt lat="32.876208135858178" lon="-1.772202048450708">
        <ele>1324.353515625</ele>
        <time>2011-04-18T10:47:52Z</time>
      </trkpt>
      <trkpt lat="32.876006215810776" lon="-1.772034578025341">
        <ele>1328.19873046875</ele>
        <time>2011-04-18T10:47:57Z</time>
      </trkpt>
      <trkpt lat="32.875777557492256" lon="-1.771829137578607">
        <ele>1330.60205078125</ele>
        <time>2011-04-18T10:48:01Z</time>
      </trkpt>
      <trkpt lat="32.875656606629491" lon="-1.77179460413754">
        <ele>1329.640625</ele>
        <time>2011-04-18T10:48:03Z</time>
      </trkpt>
      <trkpt lat="32.875207168981433" lon="-1.77173157222569">
        <ele>1329.159912109375</ele>
        <time>2011-04-18T10:48:09Z</time>
      </trkpt>
      <trkpt lat="32.875032825395465" lon="-1.771677928045392">
        <ele>1328.679443359375</ele>
        <time>2011-04-18T10:48:11Z</time>
      </trkpt>
      <trkpt lat="32.874592859297991" lon="-1.771571394056082">
        <ele>1330.121337890625</ele>
        <time>2011-04-18T10:48:16Z</time>
      </trkpt>
      <trkpt lat="32.874284572899342" lon="-1.771575920283794">
        <ele>1331.563232421875</ele>
        <time>2011-04-18T10:48:20Z</time>
      </trkpt>
      <trkpt lat="32.874069157987833" lon="-1.771622942760587">
        <ele>1332.0439453125</ele>
        <time>2011-04-18T10:48:23Z</time>
      </trkpt>
      <trkpt lat="32.873736228793859" lon="-1.771842632442713">
        <ele>1332.0439453125</ele>
        <time>2011-04-18T10:48:28Z</time>
      </trkpt>
      <trkpt lat="32.873302213847637" lon="-1.772049497812986">
        <ele>1330.60205078125</ele>
        <time>2011-04-18T10:48:32Z</time>
      </trkpt>
      <trkpt lat="32.872812291607261" lon="-1.771806757897139">
        <ele>1330.60205078125</ele>
        <time>2011-04-18T10:48:38Z</time>
      </trkpt>
      <trkpt lat="32.872717827558517" lon="-1.771777672693133">
        <ele>1330.60205078125</ele>
        <time>2011-04-18T10:48:39Z</time>
      </trkpt>
      <trkpt lat="32.871941160410643" lon="-1.771215246990323">
        <ele>1332.0439453125</ele>
        <time>2011-04-18T10:48:48Z</time>
      </trkpt>
      <trkpt lat="32.871826831251383" lon="-1.771084656938911">
        <ele>1333.005126953125</ele>
        <time>2011-04-18T10:48:50Z</time>
      </trkpt>
      <trkpt lat="32.871508151292801" lon="-1.770758181810379">
        <ele>1331.563232421875</ele>
        <time>2011-04-18T10:48:57Z</time>
      </trkpt>
      <trkpt lat="32.871016301214695" lon="-1.770515441894531">
        <ele>1331.563232421875</ele>
        <time>2011-04-18T10:49:04Z</time>
      </trkpt>
      <trkpt lat="32.870710864663124" lon="-1.770515441894531">
        <ele>1332.524658203125</ele>
        <time>2011-04-18T10:49:08Z</time>
      </trkpt>
      <trkpt lat="32.870542053133249" lon="-1.770515441894531">
        <ele>1331.563232421875</ele>
        <time>2011-04-18T10:49:10Z</time>
      </trkpt>
      <trkpt lat="32.870143074542284" lon="-1.770292902365327">
        <ele>1331.082763671875</ele>
        <time>2011-04-18T10:49:15Z</time>
      </trkpt>
      <trkpt lat="32.869541924446821" lon="-1.76988260820508">
        <ele>1327.718017578125</ele>
        <time>2011-04-18T10:49:23Z</time>
      </trkpt>
      <trkpt lat="32.868933063000441" lon="-1.769328564405441">
        <ele>1325.79541015625</ele>
        <time>2011-04-18T10:49:33Z</time>
      </trkpt>
      <trkpt lat="32.868747906759381" lon="-1.769012147560716">
        <ele>1323.87255859375</ele>
        <time>2011-04-18T10:49:37Z</time>
      </trkpt>
      <trkpt lat="32.868355214595795" lon="-1.768529769033194">
        <ele>1319.066162109375</ele>
        <time>2011-04-18T10:49:43Z</time>
      </trkpt>
      <trkpt lat="32.868056735023856" lon="-1.768116457387805">
        <ele>1315.70166015625</ele>
        <time>2011-04-18T10:49:49Z</time>
      </trkpt>
      <trkpt lat="32.867949865758419" lon="-1.767956111580133">
        <ele>1314.740234375</ele>
        <time>2011-04-18T10:49:51Z</time>
      </trkpt>
      <trkpt lat="32.867319462820888" lon="-1.76698163151741">
        <ele>1311.375732421875</ele>
        <time>2011-04-18T10:50:01Z</time>
      </trkpt>
      <trkpt lat="32.866667099297047" lon="-1.765786204487085">
        <ele>1309.93359375</ele>
        <time>2011-04-18T10:50:11Z</time>
      </trkpt>
      <trkpt lat="32.866400554776192" lon="-1.765450090169907">
        <ele>1311.375732421875</ele>
        <time>2011-04-18T10:50:16Z</time>
      </trkpt>
      <trkpt lat="32.866331487894058" lon="-1.765367276966572">
        <ele>1309.453125</ele>
        <time>2011-04-18T10:50:33Z</time>
      </trkpt>
      <trkpt lat="32.866027224808931" lon="-1.765050273388624">
        <ele>1307.5302734375</ele>
        <time>2011-04-18T10:50:40Z</time>
      </trkpt>
      <trkpt lat="32.865413669496775" lon="-1.765041556209326">
        <ele>1308.49169921875</ele>
        <time>2011-04-18T10:50:47Z</time>
      </trkpt>
      <trkpt lat="32.864744290709496" lon="-1.764979362487793">
        <ele>1307.5302734375</ele>
        <time>2011-04-18T10:50:56Z</time>
      </trkpt>
      <trkpt lat="32.864480931311846" lon="-1.764839049428701">
        <ele>1307.049560546875</ele>
        <time>2011-04-18T10:51:01Z</time>
      </trkpt>
      <trkpt lat="32.864398956298828" lon="-1.76458633504808">
        <ele>1305.607666015625</ele>
        <time>2011-04-18T10:51:07Z</time>
      </trkpt>
      <trkpt lat="32.864386383444071" lon="-1.764194061979652">
        <ele>1304.165771484375</ele>
        <time>2011-04-18T10:51:11Z</time>
      </trkpt>
      <trkpt lat="32.864276664331555" lon="-1.763757281005383">
        <ele>1303.68505859375</ele>
        <time>2011-04-18T10:51:15Z</time>
      </trkpt>
      <trkpt lat="32.863906268030405" lon="-1.762927640229464">
        <ele>1295.99462890625</ele>
        <time>2011-04-18T10:51:23Z</time>
      </trkpt>
      <trkpt lat="32.863691607490182" lon="-1.762556070461869">
        <ele>1292.630126953125</ele>
        <time>2011-04-18T10:51:27Z</time>
      </trkpt>
      <trkpt lat="32.863550959154963" lon="-1.762202270328999">
        <ele>1288.303955078125</ele>
        <time>2011-04-18T10:51:31Z</time>
      </trkpt>
      <trkpt lat="32.863401509821415" lon="-1.761892139911652">
        <ele>1286.86181640625</ele>
        <time>2011-04-18T10:51:34Z</time>
      </trkpt>
      <trkpt lat="32.863088278099895" lon="-1.761359302327037">
        <ele>1282.5361328125</ele>
        <time>2011-04-18T10:51:41Z</time>
      </trkpt>
      <trkpt lat="32.862939918413758" lon="-1.760917995125055">
        <ele>1278.69091796875</ele>
        <time>2011-04-18T10:51:47Z</time>
      </trkpt>
      <trkpt lat="32.862587794661522" lon="-1.760385660454631">
        <ele>1273.403564453125</ele>
        <time>2011-04-18T10:51:54Z</time>
      </trkpt>
      <trkpt lat="32.862353436648846" lon="-1.760139567777515">
        <ele>1271.96142578125</ele>
        <time>2011-04-18T10:51:59Z</time>
      </trkpt>
      <trkpt lat="32.861656816676259" lon="-1.759498016908765">
        <ele>1264.751708984375</ele>
        <time>2011-04-18T10:52:09Z</time>
      </trkpt>
      <trkpt lat="32.861428074538708" lon="-1.759096356108785">
        <ele>1259.94482421875</ele>
        <time>2011-04-18T10:52:16Z</time>
      </trkpt>
      <trkpt lat="32.861416339874268" lon="-1.758774658665061">
        <ele>1254.65771484375</ele>
        <time>2011-04-18T10:52:22Z</time>
      </trkpt>
      <trkpt lat="32.861467637121677" lon="-1.758137298747897">
        <ele>1251.293212890625</ele>
        <time>2011-04-18T10:52:31Z</time>
      </trkpt>
      <trkpt lat="32.860931279137731" lon="-1.757924146950245">
        <ele>1250.8125</ele>
        <time>2011-04-18T10:52:33Z</time>
      </trkpt>
      <trkpt lat="32.861553886905313" lon="-1.757505219429731">
        <ele>1250.33203125</ele>
        <time>2011-04-18T10:52:37Z</time>
      </trkpt>
      <trkpt lat="32.861182652413845" lon="-1.756742717698216">
        <ele>1249.37060546875</ele>
        <time>2011-04-18T10:52:43Z</time>
      </trkpt>
      <trkpt lat="32.861049883067608" lon="-1.756488662213087">
        <ele>1247.9287109375</ele>
        <time>2011-04-18T10:52:47Z</time>
      </trkpt>
      <trkpt lat="32.860708823427558" lon="-1.755738817155361">
        <ele>1245.044677734375</ele>
        <time>2011-04-18T10:52:56Z</time>
      </trkpt>
      <trkpt lat="32.860565911978483" lon="-1.75561853684485">
        <ele>1245.044677734375</ele>
        <time>2011-04-18T10:52:58Z</time>
      </trkpt>
      <trkpt lat="32.860068026930094" lon="-1.755489036440849">
        <ele>1246.006103515625</ele>
        <time>2011-04-18T10:53:04Z</time>
      </trkpt>
      <trkpt lat="32.859778432175517" lon="-1.755666816607118">
        <ele>1246.006103515625</ele>
        <time>2011-04-18T10:53:10Z</time>
      </trkpt>
      <trkpt lat="32.859623115509748" lon="-1.755874855443835">
        <ele>1245.525390625</ele>
        <time>2011-04-18T10:53:13Z</time>
      </trkpt>
      <trkpt lat="32.859441479668021" lon="-1.756135951727629">
        <ele>1242.16064453125</ele>
        <time>2011-04-18T10:53:20Z</time>
      </trkpt>
      <trkpt lat="32.858972260728478" lon="-1.755847195163369">
        <ele>1233.028076171875</ele>
        <time>2011-04-18T10:53:35Z</time>
      </trkpt>
      <trkpt lat="32.858799425885081" lon="-1.755604622885585">
        <ele>1232.547607421875</ele>
        <time>2011-04-18T10:53:40Z</time>
      </trkpt>
      <trkpt lat="32.858084701001644" lon="-1.75557067617774">
        <ele>1233.5087890625</ele>
        <time>2011-04-18T10:53:47Z</time>
      </trkpt>
      <trkpt lat="32.858024016022682" lon="-1.755405720323324">
        <ele>1233.5087890625</ele>
        <time>2011-04-18T10:53:51Z</time>
      </trkpt>
      <trkpt lat="32.857955116778612" lon="-1.755283093079925">
        <ele>1231.586181640625</ele>
        <time>2011-04-18T10:53:57Z</time>
      </trkpt>
      <trkpt lat="32.857811786234379" lon="-1.755042197182775">
        <ele>1229.182861328125</ele>
        <time>2011-04-18T10:54:53Z</time>
      </trkpt>
      <trkpt lat="32.857507271692157" lon="-1.754718739539385">
        <ele>1226.779541015625</ele>
        <time>2011-04-18T10:55:01Z</time>
      </trkpt>
      <trkpt lat="32.857212731614709" lon="-1.754149692133069">
        <ele>1223.4150390625</ele>
        <time>2011-04-18T10:55:09Z</time>
      </trkpt>
      <trkpt lat="32.857150370255113" lon="-1.753833359107375">
        <ele>1221.4921875</ele>
        <time>2011-04-18T10:55:14Z</time>
      </trkpt>
      <trkpt lat="32.857124805450439" lon="-1.753250900655985">
        <ele>1217.64697265625</ele>
        <time>2011-04-18T10:55:22Z</time>
      </trkpt>
      <trkpt lat="32.856489289551973" lon="-1.752426875755191">
        <ele>1213.8017578125</ele>
        <time>2011-04-18T10:55:31Z</time>
      </trkpt>
      <trkpt lat="32.856337074190378" lon="-1.752004344016314">
        <ele>1212.35986328125</ele>
        <time>2011-04-18T10:55:36Z</time>
      </trkpt>
      <trkpt lat="32.856617867946625" lon="-1.751161543652415">
        <ele>1212.840576171875</ele>
        <time>2011-04-18T10:55:41Z</time>
      </trkpt>
      <trkpt lat="32.856245040893555" lon="-1.750860214233398">
        <ele>1212.35986328125</ele>
        <time>2011-04-18T10:55:46Z</time>
      </trkpt>
      <trkpt lat="32.85611629486084" lon="-1.750688552856445">
        <ele>1212.35986328125</ele>
        <time>2011-04-18T10:55:49Z</time>
      </trkpt>
      <trkpt lat="32.856074804440141" lon="-1.750553604215384">
        <ele>1211.879150390625</ele>
        <time>2011-04-18T10:55:52Z</time>
      </trkpt>
      <trkpt lat="32.856030464172363" lon="-1.750409603118897">
        <ele>1211.3984375</ele>
        <time>2011-04-18T10:55:57Z</time>
      </trkpt>
      <trkpt lat="32.85544004291296" lon="-1.749765537679195">
        <ele>1209.956298828125</ele>
        <time>2011-04-18T10:56:06Z</time>
      </trkpt>
      <trkpt lat="32.85550600849092" lon="-1.748601626604796">
        <ele>1210.917724609375</ele>
        <time>2011-04-18T10:56:14Z</time>
      </trkpt>
      <trkpt lat="32.855257987976074" lon="-1.74807071685791">
        <ele>1210.917724609375</ele>
        <time>2011-04-18T10:56:21Z</time>
      </trkpt>
      <trkpt lat="32.855177856981754" lon="-1.747688921168447">
        <ele>1208.514404296875</ele>
        <time>2011-04-18T10:56:26Z</time>
      </trkpt>
      <trkpt lat="32.855172157287598" lon="-1.747347190976143">
        <ele>1208.033935546875</ele>
        <time>2011-04-18T10:56:30Z</time>
      </trkpt>
      <trkpt lat="32.855074675753713" lon="-1.746893646195531">
        <ele>1209.475830078125</ele>
        <time>2011-04-18T10:56:33Z</time>
      </trkpt>
      <trkpt lat="32.854890525341034" lon="-1.746465498581529">
        <ele>1208.514404296875</ele>
        <time>2011-04-18T10:56:39Z</time>
      </trkpt>
      <trkpt lat="32.854769574478269" lon="-1.746246898546815">
        <ele>1208.033935546875</ele>
        <time>2011-04-18T10:56:41Z</time>
      </trkpt>
      <trkpt lat="32.854571342468262" lon="-1.746032238006592">
        <ele>1207.072509765625</ele>
        <time>2011-04-18T10:56:46Z</time>
      </trkpt>
      <trkpt lat="32.854497414082289" lon="-1.74571992829442">
        <ele>1208.9951171875</ele>
        <time>2011-04-18T10:57:04Z</time>
      </trkpt>
      <trkpt lat="32.85435676574707" lon="-1.745238304138184">
        <ele>1208.514404296875</ele>
        <time>2011-04-18T10:57:12Z</time>
      </trkpt>
      <trkpt lat="32.854022076353431" lon="-1.744351582601667">
        <ele>1207.072509765625</ele>
        <time>2011-04-18T10:57:20Z</time>
      </trkpt>
      <trkpt lat="32.85352268256247" lon="-1.743079964071512">
        <ele>1206.111083984375</ele>
        <time>2011-04-18T10:57:30Z</time>
      </trkpt>
      <trkpt lat="32.85296562127769" lon="-1.74248275347054">
        <ele>1205.630615234375</ele>
        <time>2011-04-18T10:57:38Z</time>
      </trkpt>
      <trkpt lat="32.852844670414925" lon="-1.742342440411449">
        <ele>1205.630615234375</ele>
        <time>2011-04-18T10:57:40Z</time>
      </trkpt>
      <trkpt lat="32.852367572486401" lon="-1.741939438506961">
        <ele>1205.630615234375</ele>
        <time>2011-04-18T10:57:49Z</time>
      </trkpt>
      <trkpt lat="32.852275623008609" lon="-1.741914292797446">
        <ele>1205.630615234375</ele>
        <time>2011-04-18T10:57:51Z</time>
      </trkpt>
      <trkpt lat="32.851868681609631" lon="-1.741606090217829">
        <ele>1207.072509765625</ele>
        <time>2011-04-18T10:57:57Z</time>
      </trkpt>
      <trkpt lat="32.851657960563898" lon="-1.741443984210491">
        <ele>1207.55322265625</ele>
        <time>2011-04-18T10:58:01Z</time>
      </trkpt>
      <trkpt lat="32.851423937827349" lon="-1.741419760510325">
        <ele>1206.111083984375</ele>
        <time>2011-04-18T10:58:04Z</time>
      </trkpt>
      <trkpt lat="32.850936446338892" lon="-1.741489497944713">
        <ele>1204.669189453125</ele>
        <time>2011-04-18T10:58:09Z</time>
      </trkpt>
      <trkpt lat="32.850231360644102" lon="-1.741606928408146">
        <ele>1203.227294921875</ele>
        <time>2011-04-18T10:58:16Z</time>
      </trkpt>
      <trkpt lat="32.850138824433088" lon="-1.741578346118331">
        <ele>1202.74658203125</ele>
        <time>2011-04-18T10:58:17Z</time>
      </trkpt>
      <trkpt lat="32.849678071215749" lon="-1.741256816312671">
        <ele>1200.343505859375</ele>
        <time>2011-04-18T10:58:24Z</time>
      </trkpt>
      <trkpt lat="32.849394427612424" lon="-1.740998653694987">
        <ele>1203.227294921875</ele>
        <time>2011-04-18T10:58:28Z</time>
      </trkpt>
      <trkpt lat="32.848817165941" lon="-1.741500394418836">
        <ele>1202.74658203125</ele>
        <time>2011-04-18T10:58:32Z</time>
      </trkpt>
      <trkpt lat="32.848728066310287" lon="-1.74152746796608">
        <ele>1202.265869140625</ele>
        <time>2011-04-18T10:58:36Z</time>
      </trkpt>
      <trkpt lat="32.848605941981077" lon="-1.74143266864121">
        <ele>1203.227294921875</ele>
        <time>2011-04-18T10:58:41Z</time>
      </trkpt>
      <trkpt lat="32.848355574533343" lon="-1.741263438016176">
        <ele>1203.227294921875</ele>
        <time>2011-04-18T10:58:46Z</time>
      </trkpt>
      <trkpt lat="32.848162539303303" lon="-1.740982057526708">
        <ele>1205.14990234375</ele>
        <time>2011-04-18T10:58:51Z</time>
      </trkpt>
      <trkpt lat="32.848104033619165" lon="-1.740641752257943">
        <ele>1206.591796875</ele>
        <time>2011-04-18T10:58:56Z</time>
      </trkpt>
      <trkpt lat="32.848129263147712" lon="-1.74051065929234">
        <ele>1208.033935546875</ele>
        <time>2011-04-18T10:58:58Z</time>
      </trkpt>
      <trkpt lat="32.848260272294283" lon="-1.740073626860976">
        <ele>1209.475830078125</ele>
        <time>2011-04-18T10:59:05Z</time>
      </trkpt>
      <trkpt lat="32.848258763551712" lon="-1.73996239900589">
        <ele>1209.956298828125</ele>
        <time>2011-04-18T10:59:07Z</time>
      </trkpt>
      <trkpt lat="32.848262786865234" lon="-1.739251613616943">
        <ele>1209.475830078125</ele>
        <time>2011-04-18T10:59:14Z</time>
      </trkpt>
      <trkpt lat="32.848153319209814" lon="-1.739142062142491">
        <ele>1208.9951171875</ele>
        <time>2011-04-18T10:59:17Z</time>
      </trkpt>
      <trkpt lat="32.847773870453238" lon="-1.739232754334807">
        <ele>1208.033935546875</ele>
        <time>2011-04-18T10:59:24Z</time>
      </trkpt>
      <trkpt lat="32.848002361133695" lon="-1.738812988623977">
        <ele>1207.55322265625</ele>
        <time>2011-04-18T10:59:30Z</time>
      </trkpt>
      <trkpt lat="32.847940251231194" lon="-1.738610984757543">
        <ele>1207.55322265625</ele>
        <time>2011-04-18T10:59:33Z</time>
      </trkpt>
      <trkpt lat="32.847683429718018" lon="-1.73783540725708">
        <ele>1206.111083984375</ele>
        <time>2011-04-18T10:59:44Z</time>
      </trkpt>
      <trkpt lat="32.847720980644226" lon="-1.737474231049418">
        <ele>1206.111083984375</ele>
        <time>2011-04-18T10:59:50Z</time>
      </trkpt>
      <trkpt lat="32.847778899595141" lon="-1.73733601346612">
        <ele>1206.111083984375</ele>
        <time>2011-04-18T10:59:53Z</time>
      </trkpt>
      <trkpt lat="32.84789901226759" lon="-1.736713740974665">
        <ele>1207.55322265625</ele>
        <time>2011-04-18T10:59:58Z</time>
      </trkpt>
      <trkpt lat="32.847599778324366" lon="-1.735746050253511">
        <ele>1207.072509765625</ele>
        <time>2011-04-18T11:00:08Z</time>
      </trkpt>
      <trkpt lat="32.847576141357422" lon="-1.735515715554357">
        <ele>1208.9951171875</ele>
        <time>2011-04-18T11:00:11Z</time>
      </trkpt>
      <trkpt lat="32.846930734813213" lon="-1.734874248504639">
        <ele>1210.917724609375</ele>
        <time>2011-04-18T11:00:17Z</time>
      </trkpt>
      <trkpt lat="32.846440225839615" lon="-1.734906351193786">
        <ele>1211.879150390625</ele>
        <time>2011-04-18T11:00:22Z</time>
      </trkpt>
      <trkpt lat="32.846058597788215" lon="-1.735006682574749">
        <ele>1212.35986328125</ele>
        <time>2011-04-18T11:00:26Z</time>
      </trkpt>
      <trkpt lat="32.845211606472731" lon="-1.73491288907826">
        <ele>1209.475830078125</ele>
        <time>2011-04-18T11:00:35Z</time>
      </trkpt>
      <trkpt lat="32.844959981739521" lon="-1.734628072008491">
        <ele>1208.514404296875</ele>
        <time>2011-04-18T11:00:40Z</time>
      </trkpt>
      <trkpt lat="32.844733754172921" lon="-1.734253484755755">
        <ele>1208.9951171875</ele>
        <time>2011-04-18T11:00:45Z</time>
      </trkpt>
      <trkpt lat="32.844550609588623" lon="-1.733887195587158">
        <ele>1209.475830078125</ele>
        <time>2011-04-18T11:00:49Z</time>
      </trkpt>
      <trkpt lat="32.844397388398647" lon="-1.73349249176681">
        <ele>1208.514404296875</ele>
        <time>2011-04-18T11:00:55Z</time>
      </trkpt>
      <trkpt lat="32.844185829162598" lon="-1.732900142669678">
        <ele>1207.55322265625</ele>
        <time>2011-04-18T11:00:59Z</time>
      </trkpt>
      <trkpt lat="32.844068147242069" lon="-1.732613649219275">
        <ele>1205.14990234375</ele>
        <time>2011-04-18T11:01:04Z</time>
      </trkpt>
      <trkpt lat="32.843971252441406" lon="-1.732326485216618">
        <ele>1203.227294921875</ele>
        <time>2011-04-18T11:01:09Z</time>
      </trkpt>
      <trkpt lat="32.843950465321541" lon="-1.731735058128834">
        <ele>1201.785400390625</ele>
        <time>2011-04-18T11:01:14Z</time>
      </trkpt>
      <trkpt lat="32.843394661322236" lon="-1.730661587789655">
        <ele>1200.823974609375</ele>
        <time>2011-04-18T11:01:24Z</time>
      </trkpt>
      <trkpt lat="32.843437492847443" lon="-1.729301959276199">
        <ele>1202.265869140625</ele>
        <time>2011-04-18T11:01:35Z</time>
      </trkpt>
      <trkpt lat="32.84333867020905" lon="-1.728871548548341">
        <ele>1202.265869140625</ele>
        <time>2011-04-18T11:01:39Z</time>
      </trkpt>
      <trkpt lat="32.843200117349625" lon="-1.727674193680286">
        <ele>1202.74658203125</ele>
        <time>2011-04-18T11:01:48Z</time>
      </trkpt>
      <trkpt lat="32.843147562816739" lon="-1.726202582940459">
        <ele>1204.669189453125</ele>
        <time>2011-04-18T11:01:58Z</time>
      </trkpt>
      <trkpt lat="32.843429949134588" lon="-1.724598370492458">
        <ele>1207.072509765625</ele>
        <time>2011-04-18T11:02:06Z</time>
      </trkpt>
      <trkpt lat="32.843181425705552" lon="-1.724379016086459">
        <ele>1207.55322265625</ele>
        <time>2011-04-18T11:02:11Z</time>
      </trkpt>
      <trkpt lat="32.84299953840673" lon="-1.724106185138226">
        <ele>1206.111083984375</ele>
        <time>2011-04-18T11:02:15Z</time>
      </trkpt>
      <trkpt lat="32.842802898958325" lon="-1.723599666729569">
        <ele>1207.072509765625</ele>
        <time>2011-04-18T11:02:21Z</time>
      </trkpt>
      <trkpt lat="32.842671889811754" lon="-1.723262630403042">
        <ele>1207.072509765625</ele>
        <time>2011-04-18T11:02:24Z</time>
      </trkpt>
      <trkpt lat="32.842393862083554" lon="-1.722569363191724">
        <ele>1207.072509765625</ele>
        <time>2011-04-18T11:02:31Z</time>
      </trkpt>
      <trkpt lat="32.842176435515285" lon="-1.721907360479236">
        <ele>1207.55322265625</ele>
        <time>2011-04-18T11:02:38Z</time>
      </trkpt>
      <trkpt lat="32.841958841308951" lon="-1.721053747460246">
        <ele>1207.55322265625</ele>
        <time>2011-04-18T11:02:45Z</time>
      </trkpt>
      <trkpt lat="32.841513594612479" lon="-1.720152944326401">
        <ele>1209.475830078125</ele>
        <time>2011-04-18T11:02:54Z</time>
      </trkpt>
      <trkpt lat="32.841428518295288" lon="-1.719929147511721">
        <ele>1209.475830078125</ele>
        <time>2011-04-18T11:02:57Z</time>
      </trkpt>
      <trkpt lat="32.840977488085628" lon="-1.719395639374852">
        <ele>1211.3984375</ele>
        <time>2011-04-18T11:03:08Z</time>
      </trkpt>
      <trkpt lat="32.840318586677313" lon="-1.719574090093374">
        <ele>1205.14990234375</ele>
        <time>2011-04-18T11:03:15Z</time>
      </trkpt>
      <trkpt lat="32.839756831526756" lon="-1.720011290162802">
        <ele>1198.9013671875</ele>
        <time>2011-04-18T11:03:23Z</time>
      </trkpt>
      <trkpt lat="32.839087368920445" lon="-1.720390990376473">
        <ele>1193.13330078125</ele>
        <time>2011-04-18T11:03:32Z</time>
      </trkpt>
      <trkpt lat="32.838894668966532" lon="-1.720589892938733">
        <ele>1191.210693359375</ele>
        <time>2011-04-18T11:03:35Z</time>
      </trkpt>
      <trkpt lat="32.838568277657032" lon="-1.720899688079953">
        <ele>1188.8076171875</ele>
        <time>2011-04-18T11:03:40Z</time>
      </trkpt>
      <trkpt lat="32.837892780080438" lon="-1.721542160958052">
        <ele>1184.0009765625</ele>
        <time>2011-04-18T11:03:50Z</time>
      </trkpt>
      <trkpt lat="32.837468571960926" lon="-1.722013894468546">
        <ele>1183.03955078125</ele>
        <time>2011-04-18T11:03:56Z</time>
      </trkpt>
      <trkpt lat="32.837239997461438" lon="-1.722488394007087">
        <ele>1183.520263671875</ele>
        <time>2011-04-18T11:04:01Z</time>
      </trkpt>
      <trkpt lat="32.837186185643077" lon="-1.722701797261834">
        <ele>1184.0009765625</ele>
        <time>2011-04-18T11:04:03Z</time>
      </trkpt>
      <trkpt lat="32.836803384125233" lon="-1.723163053393364">
        <ele>1183.03955078125</ele>
        <time>2011-04-18T11:04:09Z</time>
      </trkpt>
      <trkpt lat="32.836514879018068" lon="-1.723176464438438">
        <ele>1182.078369140625</ele>
        <time>2011-04-18T11:04:12Z</time>
      </trkpt>
      <trkpt lat="32.836125791072845" lon="-1.723094740882516">
        <ele>1184.0009765625</ele>
        <time>2011-04-18T11:04:16Z</time>
      </trkpt>
      <trkpt lat="32.835687417536974" lon="-1.722871866077185">
        <ele>1188.8076171875</ele>
        <time>2011-04-18T11:04:21Z</time>
      </trkpt>
      <trkpt lat="32.835248624905944" lon="-1.722849737852812">
        <ele>1192.65283203125</ele>
        <time>2011-04-18T11:04:26Z</time>
      </trkpt>
      <trkpt lat="32.83467429690063" lon="-1.722804643213749">
        <ele>1198.420654296875</ele>
        <time>2011-04-18T11:04:33Z</time>
      </trkpt>
      <trkpt lat="32.834379589185119" lon="-1.722471881657839">
        <ele>1200.343505859375</ele>
        <time>2011-04-18T11:04:39Z</time>
      </trkpt>
      <trkpt lat="32.834345223382115" lon="-1.722274236381054">
        <ele>1200.343505859375</ele>
        <time>2011-04-18T11:04:41Z</time>
      </trkpt>
      <trkpt lat="32.834205077961087" lon="-1.721153575927019">
        <ele>1201.785400390625</ele>
        <time>2011-04-18T11:04:51Z</time>
      </trkpt>
      <trkpt lat="32.834133496508002" lon="-1.720272051170468">
        <ele>1203.227294921875</ele>
        <time>2011-04-18T11:04:59Z</time>
      </trkpt>
      <trkpt lat="32.833921853452921" lon="-1.719689089804888">
        <ele>1204.188720703125</ele>
        <time>2011-04-18T11:05:05Z</time>
      </trkpt>
      <trkpt lat="32.83360811881721" lon="-1.7193862516433">
        <ele>1206.111083984375</ele>
        <time>2011-04-18T11:05:10Z</time>
      </trkpt>
      <trkpt lat="32.83337845467031" lon="-1.719301678240299">
        <ele>1206.591796875</ele>
        <time>2011-04-18T11:05:13Z</time>
      </trkpt>
      <trkpt lat="32.832413865253329" lon="-1.719161365181208">
        <ele>1206.111083984375</ele>
        <time>2011-04-18T11:05:23Z</time>
      </trkpt>
      <trkpt lat="32.831511050462723" lon="-1.719302348792553">
        <ele>1203.7080078125</ele>
        <time>2011-04-18T11:05:31Z</time>
      </trkpt>
      <trkpt lat="32.830708818510175" lon="-1.719146026298404">
        <ele>1200.823974609375</ele>
        <time>2011-04-18T11:05:38Z</time>
      </trkpt>
      <trkpt lat="32.830044804140925" lon="-1.719124149531126">
        <ele>1203.7080078125</ele>
        <time>2011-04-18T11:05:45Z</time>
      </trkpt>
      <trkpt lat="32.829866604879498" lon="-1.719036307185888">
        <ele>1206.591796875</ele>
        <time>2011-04-18T11:05:48Z</time>
      </trkpt>
      <trkpt lat="32.829733248800039" lon="-1.71885852701962">
        <ele>1209.475830078125</ele>
        <time>2011-04-18T11:05:53Z</time>
      </trkpt>
      <trkpt lat="32.829558486118913" lon="-1.71860103495419">
        <ele>1212.35986328125</ele>
        <time>2011-04-18T11:05:58Z</time>
      </trkpt>
      <trkpt lat="32.829275177791715" lon="-1.718386542052031">
        <ele>1211.879150390625</ele>
        <time>2011-04-18T11:06:03Z</time>
      </trkpt>
      <trkpt lat="32.829068647697568" lon="-1.718127625063062">
        <ele>1212.840576171875</ele>
        <time>2011-04-18T11:06:07Z</time>
      </trkpt>
      <trkpt lat="32.829014752060175" lon="-1.718011451885104">
        <ele>1212.840576171875</ele>
        <time>2011-04-18T11:06:09Z</time>
      </trkpt>
      <trkpt lat="32.82892657443881" lon="-1.717747421935201">
        <ele>1212.840576171875</ele>
        <time>2011-04-18T11:06:13Z</time>
      </trkpt>
      <trkpt lat="32.828515190631151" lon="-1.716907639056444">
        <ele>1213.8017578125</ele>
        <time>2011-04-18T11:06:20Z</time>
      </trkpt>
      <trkpt lat="32.828312013298273" lon="-1.716630030423403">
        <ele>1214.76318359375</ele>
        <time>2011-04-18T11:06:24Z</time>
      </trkpt>
      <trkpt lat="32.828097688034177" lon="-1.716103898361325">
        <ele>1214.282470703125</ele>
        <time>2011-04-18T11:06:29Z</time>
      </trkpt>
      <trkpt lat="32.827620171010494" lon="-1.715626213699579">
        <ele>1214.282470703125</ele>
        <time>2011-04-18T11:06:36Z</time>
      </trkpt>
      <trkpt lat="32.827499052509665" lon="-1.715464694425464">
        <ele>1213.8017578125</ele>
        <time>2011-04-18T11:06:38Z</time>
      </trkpt>
      <trkpt lat="32.827032515779138" lon="-1.714729182422161">
        <ele>1212.840576171875</ele>
        <time>2011-04-18T11:06:46Z</time>
      </trkpt>
      <trkpt lat="32.826988426968455" lon="-1.714627929031849">
        <ele>1213.8017578125</ele>
        <time>2011-04-18T11:06:47Z</time>
      </trkpt>
      <trkpt lat="32.826868230476975" lon="-1.714318636804819">
        <ele>1214.76318359375</ele>
        <time>2011-04-18T11:06:51Z</time>
      </trkpt>
      <trkpt lat="32.826719284057617" lon="-1.713802814483643">
        <ele>1214.282470703125</ele>
        <time>2011-04-18T11:06:57Z</time>
      </trkpt>
      <trkpt lat="32.826783657073975" lon="-1.713093621656299">
        <ele>1214.76318359375</ele>
        <time>2011-04-18T11:07:04Z</time>
      </trkpt>
      <trkpt lat="32.826725319027901" lon="-1.712647033855319">
        <ele>1215.243896484375</ele>
        <time>2011-04-18T11:07:07Z</time>
      </trkpt>
      <trkpt lat="32.826126683503389" lon="-1.712005818262696">
        <ele>1215.243896484375</ele>
        <time>2011-04-18T11:07:14Z</time>
      </trkpt>
      <trkpt lat="32.825900036841631" lon="-1.711855949833989">
        <ele>1215.243896484375</ele>
        <time>2011-04-18T11:07:17Z</time>
      </trkpt>
      <trkpt lat="32.82537717372179" lon="-1.711497791111469">
        <ele>1211.879150390625</ele>
        <time>2011-04-18T11:07:24Z</time>
      </trkpt>
      <trkpt lat="32.825175253674388" lon="-1.711448924615979">
        <ele>1210.43701171875</ele>
        <time>2011-04-18T11:07:27Z</time>
      </trkpt>
      <trkpt lat="32.824712237343192" lon="-1.711387233808637">
        <ele>1208.514404296875</ele>
        <time>2011-04-18T11:07:33Z</time>
      </trkpt>
      <trkpt lat="32.824284341186285" lon="-1.711523272097111">
        <ele>1208.9951171875</ele>
        <time>2011-04-18T11:07:39Z</time>
      </trkpt>
      <trkpt lat="32.824136568233371" lon="-1.711619412526488">
        <ele>1208.9951171875</ele>
        <time>2011-04-18T11:07:42Z</time>
      </trkpt>
      <trkpt lat="32.824026430025697" lon="-1.711746482178569">
        <ele>1208.033935546875</ele>
        <time>2011-04-18T11:07:46Z</time>
      </trkpt>
      <trkpt lat="32.823764411732554" lon="-1.712147388607264">
        <ele>1205.14990234375</ele>
        <time>2011-04-18T11:07:52Z</time>
      </trkpt>
      <trkpt lat="32.823630888015032" lon="-1.712341597303748">
        <ele>1203.7080078125</ele>
        <time>2011-04-18T11:07:56Z</time>
      </trkpt>
      <trkpt lat="32.823528796434402" lon="-1.712494567036629">
        <ele>1203.227294921875</ele>
        <time>2011-04-18T11:08:00Z</time>
      </trkpt>
      <trkpt lat="32.82329804264009" lon="-1.712836464866996">
        <ele>1199.86279296875</ele>
        <time>2011-04-18T11:08:08Z</time>
      </trkpt>
      <trkpt lat="32.823187485337257" lon="-1.71311273239553">
        <ele>1196.978759765625</ele>
        <time>2011-04-18T11:08:13Z</time>
      </trkpt>
      <trkpt lat="32.82311825081706" lon="-1.713258745148778">
        <ele>1196.017578125</ele>
        <time>2011-04-18T11:08:15Z</time>
      </trkpt>
      <trkpt lat="32.822685493156314" lon="-1.714029461145401">
        <ele>1193.614013671875</ele>
        <time>2011-04-18T11:08:24Z</time>
      </trkpt>
      <trkpt lat="32.822464965283871" lon="-1.71425954438746">
        <ele>1193.614013671875</ele>
        <time>2011-04-18T11:08:27Z</time>
      </trkpt>
      <trkpt lat="32.822037907317281" lon="-1.7142937425524">
        <ele>1193.13330078125</ele>
        <time>2011-04-18T11:08:33Z</time>
      </trkpt>
      <trkpt lat="32.821881920099258" lon="-1.71418234705925">
        <ele>1193.13330078125</ele>
        <time>2011-04-18T11:08:35Z</time>
      </trkpt>
      <trkpt lat="32.821204829961061" lon="-1.713931560516357">
        <ele>1197.940185546875</ele>
        <time>2011-04-18T11:08:41Z</time>
      </trkpt>
      <trkpt lat="32.820709459483624" lon="-1.713785799220204">
        <ele>1196.498291015625</ele>
        <time>2011-04-18T11:08:48Z</time>
      </trkpt>
      <trkpt lat="32.820074027404189" lon="-1.713984366506338">
        <ele>1196.017578125</ele>
        <time>2011-04-18T11:08:56Z</time>
      </trkpt>
      <trkpt lat="32.819877220317721" lon="-1.713995933532715">
        <ele>1196.017578125</ele>
        <time>2011-04-18T11:08:58Z</time>
      </trkpt>
      <trkpt lat="32.819481762126088" lon="-1.714120823889971">
        <ele>1196.017578125</ele>
        <time>2011-04-18T11:09:03Z</time>
      </trkpt>
      <trkpt lat="32.81919258646667" lon="-1.714091738685966">
        <ele>1196.017578125</ele>
        <time>2011-04-18T11:09:06Z</time>
      </trkpt>
      <trkpt lat="32.819011704996228" lon="-1.714035663753748">
        <ele>1195.53662109375</ele>
        <time>2011-04-18T11:09:12Z</time>
      </trkpt>
      <trkpt lat="32.818800313398242" lon="-1.713833073154092">
        <ele>1193.13330078125</ele>
        <time>2011-04-18T11:09:32Z</time>
      </trkpt>
      <trkpt lat="32.818285664543509" lon="-1.713708182796836">
        <ele>1195.055908203125</ele>
        <time>2011-04-18T11:09:39Z</time>
      </trkpt>
      <trkpt lat="32.818126492202282" lon="-1.713479859754443">
        <ele>1195.53662109375</ele>
        <time>2011-04-18T11:09:45Z</time>
      </trkpt>
      <trkpt lat="32.817926332354546" lon="-1.713432753458619">
        <ele>1194.5751953125</ele>
        <time>2011-04-18T11:09:48Z</time>
      </trkpt>
      <trkpt lat="32.817460047081113" lon="-1.71309370547533">
        <ele>1192.172119140625</ele>
        <time>2011-04-18T11:09:55Z</time>
      </trkpt>
      <trkpt lat="32.816763930022717" lon="-1.712810397148132">
        <ele>1191.69140625</ele>
        <time>2011-04-18T11:10:03Z</time>
      </trkpt>
      <trkpt lat="32.816665358841419" lon="-1.712690871208906">
        <ele>1192.65283203125</ele>
        <time>2011-04-18T11:10:05Z</time>
      </trkpt>
      <trkpt lat="32.816494787111878" lon="-1.712269093841314">
        <ele>1194.5751953125</ele>
        <time>2011-04-18T11:10:11Z</time>
      </trkpt>
      <trkpt lat="32.816278031095862" lon="-1.711938846856356">
        <ele>1195.53662109375</ele>
        <time>2011-04-18T11:10:13Z</time>
      </trkpt>
      <trkpt lat="32.816045098006725" lon="-1.711681857705116">
        <ele>1194.5751953125</ele>
        <time>2011-04-18T11:10:20Z</time>
      </trkpt>
      <trkpt lat="32.815922554582357" lon="-1.711471807211638">
        <ele>1193.13330078125</ele>
        <time>2011-04-18T11:10:24Z</time>
      </trkpt>
      <trkpt lat="32.815830186009407" lon="-1.711273742839694">
        <ele>1192.65283203125</ele>
        <time>2011-04-18T11:10:27Z</time>
      </trkpt>
      <trkpt lat="32.81541058793664" lon="-1.710658427327871">
        <ele>1191.69140625</ele>
        <time>2011-04-18T11:10:35Z</time>
      </trkpt>
      <trkpt lat="32.815285781398416" lon="-1.710419459268451">
        <ele>1192.172119140625</ele>
        <time>2011-04-18T11:10:38Z</time>
      </trkpt>
      <trkpt lat="32.815090483054519" lon="-1.709831384941936">
        <ele>1191.69140625</ele>
        <time>2011-04-18T11:10:46Z</time>
      </trkpt>
      <trkpt lat="32.815035413950682" lon="-1.709301648661494">
        <ele>1191.210693359375</ele>
        <time>2011-04-18T11:10:53Z</time>
      </trkpt>
      <trkpt lat="32.815089225769043" lon="-1.708996295928955">
        <ele>1191.69140625</ele>
        <time>2011-04-18T11:10:58Z</time>
      </trkpt>
      <trkpt lat="32.815196514129639" lon="-1.708803176879883">
        <ele>1191.69140625</ele>
        <time>2011-04-18T11:11:01Z</time>
      </trkpt>
      <trkpt lat="32.815498933196068" lon="-1.70808719471097">
        <ele>1193.13330078125</ele>
        <time>2011-04-18T11:11:10Z</time>
      </trkpt>
      <trkpt lat="32.815496167168021" lon="-1.707326453179121">
        <ele>1193.13330078125</ele>
        <time>2011-04-18T11:11:17Z</time>
      </trkpt>
      <trkpt lat="32.815160974860191" lon="-1.706610890105367">
        <ele>1192.65283203125</ele>
        <time>2011-04-18T11:11:24Z</time>
      </trkpt>
      <trkpt lat="32.815048489719629" lon="-1.706430511549115">
        <ele>1192.65283203125</ele>
        <time>2011-04-18T11:11:26Z</time>
      </trkpt>
      <trkpt lat="32.814878588542342" lon="-1.706141335889697">
        <ele>1192.65283203125</ele>
        <time>2011-04-18T11:11:29Z</time>
      </trkpt>
      <trkpt lat="32.814703993499279" lon="-1.705900942906737">
        <ele>1192.65283203125</ele>
        <time>2011-04-18T11:11:32Z</time>
      </trkpt>
      <trkpt lat="32.814546078443527" lon="-1.705629955977202">
        <ele>1192.172119140625</ele>
        <time>2011-04-18T11:11:35Z</time>
      </trkpt>
      <trkpt lat="32.814081804826856" lon="-1.705007096752524">
        <ele>1191.69140625</ele>
        <time>2011-04-18T11:11:43Z</time>
      </trkpt>
      <trkpt lat="32.813792377710342" lon="-1.705034086480737">
        <ele>1189.2880859375</ele>
        <time>2011-04-18T11:11:48Z</time>
      </trkpt>
      <trkpt lat="32.813377724960446" lon="-1.705038025975227">
        <ele>1186.404296875</ele>
        <time>2011-04-18T11:11:53Z</time>
      </trkpt>
      <trkpt lat="32.813416616991162" lon="-1.704737031832337">
        <ele>1184.0009765625</ele>
        <time>2011-04-18T11:12:00Z</time>
      </trkpt>
      <trkpt lat="32.813280075788498" lon="-1.704621445387602">
        <ele>1185.44287109375</ele>
        <time>2011-04-18T11:12:40Z</time>
      </trkpt>
      <trkpt lat="32.812863914296031" lon="-1.704415418207645">
        <ele>1180.15576171875</ele>
        <time>2011-04-18T11:12:49Z</time>
      </trkpt>
      <trkpt lat="32.812578678131104" lon="-1.704468727111816">
        <ele>1177.752197265625</ele>
        <time>2011-04-18T11:12:54Z</time>
      </trkpt>
      <trkpt lat="32.812415398657322" lon="-1.704534189775586">
        <ele>1176.310302734375</ele>
        <time>2011-04-18T11:12:57Z</time>
      </trkpt>
      <trkpt lat="32.811889182776213" lon="-1.704747676849365">
        <ele>1171.984375</ele>
        <time>2011-04-18T11:13:04Z</time>
      </trkpt>
      <trkpt lat="32.811551727354527" lon="-1.704557575285435">
        <ele>1168.619873046875</ele>
        <time>2011-04-18T11:13:10Z</time>
      </trkpt>
      <trkpt lat="32.811445612460375" lon="-1.703890040516853">
        <ele>1166.697265625</ele>
        <time>2011-04-18T11:13:21Z</time>
      </trkpt>
      <trkpt lat="32.811165153980255" lon="-1.7031364236027">
        <ele>1166.216552734375</ele>
        <time>2011-04-18T11:13:29Z</time>
      </trkpt>
      <trkpt lat="32.810733402147889" lon="-1.702391775324941">
        <ele>1166.216552734375</ele>
        <time>2011-04-18T11:13:39Z</time>
      </trkpt>
      <trkpt lat="32.810617899522185" lon="-1.701968489214778">
        <ele>1165.736083984375</ele>
        <time>2011-04-18T11:13:45Z</time>
      </trkpt>
      <trkpt lat="32.810631226748228" lon="-1.701728934422135">
        <ele>1164.774658203125</ele>
        <time>2011-04-18T11:13:49Z</time>
      </trkpt>
      <trkpt lat="32.810600968077779" lon="-1.701490888372064">
        <ele>1164.774658203125</ele>
        <time>2011-04-18T11:13:52Z</time>
      </trkpt>
      <trkpt lat="32.810516562312841" lon="-1.701252590864897">
        <ele>1164.2939453125</ele>
        <time>2011-04-18T11:13:56Z</time>
      </trkpt>
      <trkpt lat="32.810503235086799" lon="-1.70113742351532">
        <ele>1163.81298828125</ele>
        <time>2011-04-18T11:13:58Z</time>
      </trkpt>
      <trkpt lat="32.810380524024367" lon="-1.700381375849247">
        <ele>1163.33251953125</ele>
        <time>2011-04-18T11:14:09Z</time>
      </trkpt>
      <trkpt lat="32.810360407456756" lon="-1.700246091932058">
        <ele>1162.851806640625</ele>
        <time>2011-04-18T11:14:11Z</time>
      </trkpt>
      <trkpt lat="32.810213807970285" lon="-1.699823560193181">
        <ele>1161.409912109375</ele>
        <time>2011-04-18T11:14:17Z</time>
      </trkpt>
      <trkpt lat="32.810156475752592" lon="-1.699692467227578">
        <ele>1160.92919921875</ele>
        <time>2011-04-18T11:14:19Z</time>
      </trkpt>
      <trkpt lat="32.810012474656105" lon="-1.699379235506058">
        <ele>1160.448486328125</ele>
        <time>2011-04-18T11:14:27Z</time>
      </trkpt>
      <trkpt lat="32.809935193508863" lon="-1.699203886091709">
        <ele>1160.92919921875</ele>
        <time>2011-04-18T11:20:20Z</time>
      </trkpt>
      <trkpt lat="32.809896469116211" lon="-1.698674485087395">
        <ele>1162.37109375</ele>
        <time>2011-04-18T11:20:28Z</time>
      </trkpt>
      <trkpt lat="32.809896469116211" lon="-1.698009967803955">
        <ele>1164.774658203125</ele>
        <time>2011-04-18T11:20:37Z</time>
      </trkpt>
      <trkpt lat="32.809974085539579" lon="-1.697660693898797">
        <ele>1167.658447265625</ele>
        <time>2011-04-18T11:20:42Z</time>
      </trkpt>
      <trkpt lat="32.81035722233355" lon="-1.697039091959596">
        <ele>1171.023193359375</ele>
        <time>2011-04-18T11:20:52Z</time>
      </trkpt>
      <trkpt lat="32.810430815443397" lon="-1.696374993771315">
        <ele>1172.465087890625</ele>
        <time>2011-04-18T11:20:58Z</time>
      </trkpt>
      <trkpt lat="32.810340123251081" lon="-1.696203080937266">
        <ele>1172.465087890625</ele>
        <time>2011-04-18T11:21:00Z</time>
      </trkpt>
      <trkpt lat="32.810048768296838" lon="-1.695830086246133">
        <ele>1171.023193359375</ele>
        <time>2011-04-18T11:21:05Z</time>
      </trkpt>
      <trkpt lat="32.809954807162285" lon="-1.695711398497224">
        <ele>1169.581298828125</ele>
        <time>2011-04-18T11:21:08Z</time>
      </trkpt>
      <trkpt lat="32.80990619212389" lon="-1.695516938343644">
        <ele>1168.13916015625</ele>
        <time>2011-04-18T11:21:12Z</time>
      </trkpt>
      <trkpt lat="32.809896469116211" lon="-1.695249052718282">
        <ele>1167.177978515625</ele>
        <time>2011-04-18T11:21:18Z</time>
      </trkpt>
      <trkpt lat="32.809731848537922" lon="-1.694898437708616">
        <ele>1166.216552734375</ele>
        <time>2011-04-18T11:21:23Z</time>
      </trkpt>
      <trkpt lat="32.809256762266159" lon="-1.694397618994117">
        <ele>1161.409912109375</ele>
        <time>2011-04-18T11:21:31Z</time>
      </trkpt>
      <trkpt lat="32.809112425893545" lon="-1.694233920425177">
        <ele>1160.92919921875</ele>
        <time>2011-04-18T11:21:34Z</time>
      </trkpt>
      <trkpt lat="32.809015614911914" lon="-1.693920521065593">
        <ele>1160.448486328125</ele>
        <time>2011-04-18T11:21:40Z</time>
      </trkpt>
      <trkpt lat="32.809028523042798" lon="-1.693769982084632">
        <ele>1160.448486328125</ele>
        <time>2011-04-18T11:21:42Z</time>
      </trkpt>
      <trkpt lat="32.809073617681861" lon="-1.693356754258275">
        <ele>1158.04541015625</ele>
        <time>2011-04-18T11:21:48Z</time>
      </trkpt>
      <trkpt lat="32.809224240481853" lon="-1.692678490653634">
        <ele>1159.006591796875</ele>
        <time>2011-04-18T11:21:57Z</time>
      </trkpt>
      <trkpt lat="32.809375617653131" lon="-1.692406078800559">
        <ele>1159.9677734375</ele>
        <time>2011-04-18T11:22:02Z</time>
      </trkpt>
      <trkpt lat="32.809216612949967" lon="-1.691906433552504">
        <ele>1160.448486328125</ele>
        <time>2011-04-18T11:22:08Z</time>
      </trkpt>
      <trkpt lat="32.808924252167344" lon="-1.691725719720125">
        <ele>1159.006591796875</ele>
        <time>2011-04-18T11:22:12Z</time>
      </trkpt>
      <trkpt lat="32.808260656893253" lon="-1.691166898235679">
        <ele>1155.64208984375</ele>
        <time>2011-04-18T11:22:21Z</time>
      </trkpt>
      <trkpt lat="32.807444762438536" lon="-1.69070228934288">
        <ele>1153.719482421875</ele>
        <time>2011-04-18T11:22:32Z</time>
      </trkpt>
      <trkpt lat="32.807431938126683" lon="-1.690574130043387">
        <ele>1153.23876953125</ele>
        <time>2011-04-18T11:22:39Z</time>
      </trkpt>
      <trkpt lat="32.807447025552392" lon="-1.690388135612011">
        <ele>1166.697265625</ele>
        <time>2011-04-18T11:26:02Z</time>
      </trkpt>
      <trkpt lat="32.806733557954431" lon="-1.690080687403679">
        <ele>1167.177978515625</ele>
        <time>2011-04-18T11:26:10Z</time>
      </trkpt>
      <trkpt lat="32.806539516896009" lon="-1.690008686855435">
        <ele>1166.697265625</ele>
        <time>2011-04-18T11:26:13Z</time>
      </trkpt>
      <trkpt lat="32.805833341553807" lon="-1.69006023555994">
        <ele>1166.216552734375</ele>
        <time>2011-04-18T11:26:23Z</time>
      </trkpt>
      <trkpt lat="32.805076790973544" lon="-1.690351087599993">
        <ele>1171.984375</ele>
        <time>2011-04-18T11:26:32Z</time>
      </trkpt>
      <trkpt lat="32.803959148004651" lon="-1.691002696752548">
        <ele>1182.078369140625</ele>
        <time>2011-04-18T11:26:44Z</time>
      </trkpt>
      <trkpt lat="32.803426142781973" lon="-1.691548191010952">
        <ele>1187.84619140625</ele>
        <time>2011-04-18T11:26:51Z</time>
      </trkpt>
      <trkpt lat="32.802946195006371" lon="-1.692031743004918">
        <ele>1192.172119140625</ele>
        <time>2011-04-18T11:26:57Z</time>
      </trkpt>
      <trkpt lat="32.802430624142289" lon="-1.692257551476359">
        <ele>1196.498291015625</ele>
        <time>2011-04-18T11:27:02Z</time>
      </trkpt>
      <trkpt lat="32.801448348909616" lon="-1.692355871200562">
        <ele>1200.823974609375</ele>
        <time>2011-04-18T11:27:11Z</time>
      </trkpt>
      <trkpt lat="32.801025565713644" lon="-1.692696427926421">
        <ele>1205.630615234375</ele>
        <time>2011-04-18T11:27:18Z</time>
      </trkpt>
      <trkpt lat="32.800961276516318" lon="-1.692973533645272">
        <ele>1206.591796875</ele>
        <time>2011-04-18T11:27:21Z</time>
      </trkpt>
      <trkpt lat="32.800915595144033" lon="-1.693956144154072">
        <ele>1196.498291015625</ele>
        <time>2011-04-18T11:27:31Z</time>
      </trkpt>
      <trkpt lat="32.800888186320662" lon="-1.694199554622173">
        <ele>1195.055908203125</ele>
        <time>2011-04-18T11:27:33Z</time>
      </trkpt>
      <trkpt lat="32.801057081669569" lon="-1.695047132670879">
        <ele>1193.614013671875</ele>
        <time>2011-04-18T11:27:40Z</time>
      </trkpt>
      <trkpt lat="32.801146516576409" lon="-1.695515094324946">
        <ele>1193.614013671875</ele>
        <time>2011-04-18T11:27:44Z</time>
      </trkpt>
      <trkpt lat="32.801205776631832" lon="-1.696127895265818">
        <ele>1195.055908203125</ele>
        <time>2011-04-18T11:27:50Z</time>
      </trkpt>
      <trkpt lat="32.801285656169057" lon="-1.696392679587007">
        <ele>1195.53662109375</ele>
        <time>2011-04-18T11:27:53Z</time>
      </trkpt>
      <trkpt lat="32.801221869885921" lon="-1.696750922128558">
        <ele>1196.498291015625</ele>
        <time>2011-04-18T11:27:58Z</time>
      </trkpt>
      <trkpt lat="32.801000168547034" lon="-1.696756035089493">
        <ele>1193.614013671875</ele>
        <time>2011-04-18T11:28:03Z</time>
      </trkpt>
      <trkpt lat="32.80100092291832" lon="-1.696584122255445">
        <ele>1171.984375</ele>
        <time>2011-04-18T11:28:51Z</time>
      </trkpt>
      <trkpt lat="32.801238466054201" lon="-1.696528466418386">
        <ele>1170.54248046875</ele>
        <time>2011-04-18T11:29:01Z</time>
      </trkpt>
      <trkpt lat="32.80130778439343" lon="-1.696437522768974">
        <ele>1169.581298828125</ele>
        <time>2011-04-18T11:29:11Z</time>
      </trkpt>
      <trkpt lat="32.801264617592096" lon="-1.696256054565311">
        <ele>1169.1005859375</ele>
        <time>2011-04-18T11:29:37Z</time>
      </trkpt>
      <trkpt lat="32.801169147714972" lon="-1.695751128718257">
        <ele>1168.619873046875</ele>
        <time>2011-04-18T11:29:43Z</time>
      </trkpt>
      <trkpt lat="32.80101609416306" lon="-1.694978987798095">
        <ele>1169.1005859375</ele>
        <time>2011-04-18T11:29:50Z</time>
      </trkpt>
      <trkpt lat="32.800710657611489" lon="-1.694570789113641">
        <ele>1168.619873046875</ele>
        <time>2011-04-18T11:29:55Z</time>
      </trkpt>
      <trkpt lat="32.799684293568134" lon="-1.693938039243221">
        <ele>1167.658447265625</ele>
        <time>2011-04-18T11:30:05Z</time>
      </trkpt>
      <trkpt lat="32.799033857882023" lon="-1.69368683360517">
        <ele>1167.658447265625</ele>
        <time>2011-04-18T11:30:11Z</time>
      </trkpt>
      <trkpt lat="32.797817224636674" lon="-1.69274915009737">
        <ele>1167.177978515625</ele>
        <time>2011-04-18T11:30:23Z</time>
      </trkpt>
      <trkpt lat="32.797713121399283" lon="-1.692686788737774">
        <ele>1167.177978515625</ele>
        <time>2011-04-18T11:30:24Z</time>
      </trkpt>
      <trkpt lat="32.797006694599986" lon="-1.692573381587863">
        <ele>1167.177978515625</ele>
        <time>2011-04-18T11:30:30Z</time>
      </trkpt>
      <trkpt lat="32.796881133690476" lon="-1.692597856745124">
        <ele>1168.13916015625</ele>
        <time>2011-04-18T11:30:31Z</time>
      </trkpt>
      <trkpt lat="32.794931335374713" lon="-1.693320125341415">
        <ele>1173.906982421875</ele>
        <time>2011-04-18T11:30:46Z</time>
      </trkpt>
      <trkpt lat="32.793465089052916" lon="-1.693811556324363">
        <ele>1174.3876953125</ele>
        <time>2011-04-18T11:30:58Z</time>
      </trkpt>
      <trkpt lat="32.792687164619565" lon="-1.694237273186445">
        <ele>1176.791015625</ele>
        <time>2011-04-18T11:31:05Z</time>
      </trkpt>
      <trkpt lat="32.791187642142177" lon="-1.695511573925614">
        <ele>1183.03955078125</ele>
        <time>2011-04-18T11:31:20Z</time>
      </trkpt>
      <trkpt lat="32.790522370487452" lon="-1.695777364075184">
        <ele>1183.520263671875</ele>
        <time>2011-04-18T11:31:26Z</time>
      </trkpt>
      <trkpt lat="32.790195476263762" lon="-1.6958680562675">
        <ele>1183.03955078125</ele>
        <time>2011-04-18T11:31:29Z</time>
      </trkpt>
      <trkpt lat="32.789697172120214" lon="-1.69623208232224">
        <ele>1186.404296875</ele>
        <time>2011-04-18T11:31:34Z</time>
      </trkpt>
      <trkpt lat="32.788091450929642" lon="-1.698058331385255">
        <ele>1191.210693359375</ele>
        <time>2011-04-18T11:31:51Z</time>
      </trkpt>
      <trkpt lat="32.78756364248693" lon="-1.69893222860992">
        <ele>1193.13330078125</ele>
        <time>2011-04-18T11:31:58Z</time>
      </trkpt>
      <trkpt lat="32.786537362262607" lon="-1.701086796820164">
        <ele>1202.74658203125</ele>
        <time>2011-04-18T11:32:13Z</time>
      </trkpt>
      <trkpt lat="32.785763461142778" lon="-1.702440641820431">
        <ele>1202.74658203125</ele>
        <time>2011-04-18T11:32:24Z</time>
      </trkpt>
      <trkpt lat="32.785247387364507" lon="-1.702938862144947">
        <ele>1203.227294921875</ele>
        <time>2011-04-18T11:32:30Z</time>
      </trkpt>
      <trkpt lat="32.784562166780233" lon="-1.703626764938235">
        <ele>1200.823974609375</ele>
        <time>2011-04-18T11:32:38Z</time>
      </trkpt>
      <trkpt lat="32.784242397174239" lon="-1.704209055751562">
        <ele>1201.785400390625</ele>
        <time>2011-04-18T11:32:43Z</time>
      </trkpt>
      <trkpt lat="32.783758258447051" lon="-1.704901652410626">
        <ele>1199.86279296875</ele>
        <time>2011-04-18T11:32:51Z</time>
      </trkpt>
      <trkpt lat="32.783244363963604" lon="-1.705573294311762">
        <ele>1201.3046875</ele>
        <time>2011-04-18T11:33:01Z</time>
      </trkpt>
      <trkpt lat="32.782604489475489" lon="-1.70635499060154">
        <ele>1200.823974609375</ele>
        <time>2011-04-18T11:33:12Z</time>
      </trkpt>
      <trkpt lat="32.78247213922441" lon="-1.706455824896693">
        <ele>1201.3046875</ele>
        <time>2011-04-18T11:33:14Z</time>
      </trkpt>
      <trkpt lat="32.782336855307221" lon="-1.706534698605537">
        <ele>1201.785400390625</ele>
        <time>2011-04-18T11:33:16Z</time>
      </trkpt>
      <trkpt lat="32.782081626355648" lon="-1.707142051309347">
        <ele>1201.785400390625</ele>
        <time>2011-04-18T11:33:19Z</time>
      </trkpt>
      <trkpt lat="32.781483745202422" lon="-1.706986147910357">
        <ele>1203.227294921875</ele>
        <time>2011-04-18T11:33:30Z</time>
      </trkpt>
      <trkpt lat="32.781263971701264" lon="-1.706928815692663">
        <ele>1203.7080078125</ele>
        <time>2011-04-18T11:33:35Z</time>
      </trkpt>
      <trkpt lat="32.781004887074232" lon="-1.707673547789455">
        <ele>1204.188720703125</ele>
        <time>2011-04-18T11:33:38Z</time>
      </trkpt>
      <trkpt lat="32.780890390276909" lon="-1.707933386787772">
        <ele>1200.343505859375</ele>
        <time>2011-04-18T11:33:43Z</time>
      </trkpt>
      <trkpt lat="32.780836662277579" lon="-1.708548869937658">
        <ele>1193.614013671875</ele>
        <time>2011-04-18T11:33:51Z</time>
      </trkpt>
      <trkpt lat="32.780781341716647" lon="-1.709238197654486">
        <ele>1191.69140625</ele>
        <time>2011-04-18T11:33:59Z</time>
      </trkpt>
      <trkpt lat="32.780680255964398" lon="-1.709941690787673">
        <ele>1190.24951171875</ele>
        <time>2011-04-18T11:34:09Z</time>
      </trkpt>
      <trkpt lat="32.780614458024502" lon="-1.710364054888487">
        <ele>1189.768798828125</ele>
        <time>2011-04-18T11:34:14Z</time>
      </trkpt>
      <trkpt lat="32.780686626210809" lon="-1.711041983217001">
        <ele>1189.2880859375</ele>
        <time>2011-04-18T11:34:23Z</time>
      </trkpt>
      <trkpt lat="32.780627030879259" lon="-1.711582029238343">
        <ele>1187.84619140625</ele>
        <time>2011-04-18T11:34:31Z</time>
      </trkpt>
      <trkpt lat="32.780354535207152" lon="-1.712377639487386">
        <ele>1190.72998046875</ele>
        <time>2011-04-18T11:34:41Z</time>
      </trkpt>
      <trkpt lat="32.780470540747046" lon="-1.712775444611907">
        <ele>1189.768798828125</ele>
        <time>2011-04-18T11:34:47Z</time>
      </trkpt>
      <trkpt lat="32.780873542651534" lon="-1.712862029671669">
        <ele>1185.923583984375</ele>
        <time>2011-04-18T11:34:52Z</time>
      </trkpt>
      <trkpt lat="32.781303031370044" lon="-1.712661450728774">
        <ele>1181.59765625</ele>
        <time>2011-04-18T11:34:58Z</time>
      </trkpt>
      <trkpt lat="32.781465975567698" lon="-1.712298598140478">
        <ele>1178.713623046875</ele>
        <time>2011-04-18T11:35:03Z</time>
      </trkpt>
      <trkpt lat="32.781695639714599" lon="-1.711609773337841">
        <ele>1176.310302734375</ele>
        <time>2011-04-18T11:35:12Z</time>
      </trkpt>
      <trkpt lat="32.781770825386047" lon="-1.711083725094795">
        <ele>1173.426513671875</ele>
        <time>2011-04-18T11:35:19Z</time>
      </trkpt>
      <trkpt lat="32.781656580045819" lon="-1.710854228585959">
        <ele>1171.984375</ele>
        <time>2011-04-18T11:35:26Z</time>
      </trkpt>
      <trkpt lat="32.781550548970699" lon="-1.710922541096807">
        <ele>1173.906982421875</ele>
        <time>2011-04-18T11:35:29Z</time>
      </trkpt>
      <trkpt lat="32.781302444636822" lon="-1.711232671514154">
        <ele>1181.1171875</ele>
        <time>2011-04-18T11:35:37Z</time>
      </trkpt>
      <trkpt lat="32.781047467142344" lon="-1.711476249620318">
        <ele>1189.2880859375</ele>
        <time>2011-04-18T11:35:47Z</time>
      </trkpt>
      <trkpt lat="32.780872033908963" lon="-1.71137323603034">
        <ele>1187.84619140625</ele>
        <time>2011-04-18T11:35:57Z</time>
      </trkpt>
      <trkpt lat="32.780753429979086" lon="-1.711244070902467">
        <ele>1185.44287109375</ele>
        <time>2011-04-18T11:36:00Z</time>
      </trkpt>
      <trkpt lat="32.78063734062016" lon="-1.710945926606655">
        <ele>1181.59765625</ele>
        <time>2011-04-18T11:36:05Z</time>
      </trkpt>
      <trkpt lat="32.780581517145038" lon="-1.710501182824373">
        <ele>1177.271728515625</ele>
        <time>2011-04-18T11:36:11Z</time>
      </trkpt>
      <trkpt lat="32.780662151053548" lon="-1.709797438234091">
        <ele>1172.465087890625</ele>
        <time>2011-04-18T11:36:20Z</time>
      </trkpt>
      <trkpt lat="32.780756950378418" lon="-1.709031751379371">
        <ele>1170.54248046875</ele>
        <time>2011-04-18T11:36:28Z</time>
      </trkpt>
      <trkpt lat="32.780888546258211" lon="-1.708070179447532">
        <ele>1169.1005859375</ele>
        <time>2011-04-18T11:36:38Z</time>
      </trkpt>
      <trkpt lat="32.78090656735003" lon="-1.707607749849558">
        <ele>1168.619873046875</ele>
        <time>2011-04-18T11:36:44Z</time>
      </trkpt>
      <trkpt lat="32.781009497120976" lon="-1.707518398761749">
        <ele>1168.619873046875</ele>
        <time>2011-04-18T11:36:46Z</time>
      </trkpt>
      <trkpt lat="32.781282747164369" lon="-1.706933677196503">
        <ele>1168.619873046875</ele>
        <time>2011-04-18T11:36:51Z</time>
      </trkpt>
      <trkpt lat="32.78151199221611" lon="-1.706993523985148">
        <ele>1168.619873046875</ele>
        <time>2011-04-18T11:36:56Z</time>
      </trkpt>
      <trkpt lat="32.781688012182713" lon="-1.707039372995496">
        <ele>1169.1005859375</ele>
        <time>2011-04-18T11:36:59Z</time>
      </trkpt>
      <trkpt lat="32.782230656594038" lon="-1.706492286175489">
        <ele>1168.619873046875</ele>
        <time>2011-04-18T11:37:08Z</time>
      </trkpt>
      <trkpt lat="32.782570626586676" lon="-1.706257676705718">
        <ele>1168.619873046875</ele>
        <time>2011-04-18T11:37:13Z</time>
      </trkpt>
      <trkpt lat="32.783180577680469" lon="-1.705524176359177">
        <ele>1169.1005859375</ele>
        <time>2011-04-18T11:37:22Z</time>
      </trkpt>
      <trkpt lat="32.783807376399636" lon="-1.704704174771905">
        <ele>1169.1005859375</ele>
        <time>2011-04-18T11:37:32Z</time>
      </trkpt>
      <trkpt lat="32.784135947003961" lon="-1.704257838428021">
        <ele>1169.1005859375</ele>
        <time>2011-04-18T11:37:37Z</time>
      </trkpt>
      <trkpt lat="32.784735755994916" lon="-1.703246897086501">
        <ele>1168.13916015625</ele>
        <time>2011-04-18T11:37:46Z</time>
      </trkpt>
      <trkpt lat="32.785540753975511" lon="-1.702245427295566">
        <ele>1168.13916015625</ele>
        <time>2011-04-18T11:37:55Z</time>
      </trkpt>
      <trkpt lat="32.786913961172104" lon="-1.700232429429889">
        <ele>1161.890625</ele>
        <time>2011-04-18T11:38:10Z</time>
      </trkpt>
      <trkpt lat="32.787779895588756" lon="-1.698628971353173">
        <ele>1164.774658203125</ele>
        <time>2011-04-18T11:38:21Z</time>
      </trkpt>
      <trkpt lat="32.788537284359336" lon="-1.697508227080107">
        <ele>1166.216552734375</ele>
        <time>2011-04-18T11:38:29Z</time>
      </trkpt>
      <trkpt lat="32.790284743532538" lon="-1.695670746266842">
        <ele>1163.81298828125</ele>
        <time>2011-04-18T11:38:44Z</time>
      </trkpt>
      <trkpt lat="32.791689550504088" lon="-1.694767931476235">
        <ele>1168.13916015625</ele>
        <time>2011-04-18T11:38:54Z</time>
      </trkpt>
      <trkpt lat="32.793607581406832" lon="-1.693658921867609">
        <ele>1171.503662109375</ele>
        <time>2011-04-18T11:39:08Z</time>
      </trkpt>
      <trkpt lat="32.795167453587055" lon="-1.693168161436915">
        <ele>1171.984375</ele>
        <time>2011-04-18T11:39:19Z</time>
      </trkpt>
      <trkpt lat="32.797086825594306" lon="-1.692541865631938">
        <ele>1165.25537109375</ele>
        <time>2011-04-18T11:39:32Z</time>
      </trkpt>
      <trkpt lat="32.798582324758172" lon="-1.692199548706412">
        <ele>1159.4873046875</ele>
        <time>2011-04-18T11:39:42Z</time>
      </trkpt>
      <trkpt lat="32.798947524279356" lon="-1.692133750766516">
        <ele>1158.52587890625</ele>
        <time>2011-04-18T11:39:45Z</time>
      </trkpt>
      <trkpt lat="32.79973684810102" lon="-1.691911295056343">
        <ele>1158.04541015625</ele>
        <time>2011-04-18T11:39:54Z</time>
      </trkpt>
      <trkpt lat="32.800635136663914" lon="-1.691717086359859">
        <ele>1156.603271484375</ele>
        <time>2011-04-18T11:40:02Z</time>
      </trkpt>
      <trkpt lat="32.802329622209072" lon="-1.691294889897108">
        <ele>1155.161376953125</ele>
        <time>2011-04-18T11:40:15Z</time>
      </trkpt>
      <trkpt lat="32.804261986166239" lon="-1.690711593255401">
        <ele>1155.161376953125</ele>
        <time>2011-04-18T11:40:30Z</time>
      </trkpt>
      <trkpt lat="32.805412234738469" lon="-1.690247068181634">
        <ele>1155.64208984375</ele>
        <time>2011-04-18T11:40:40Z</time>
      </trkpt>
      <trkpt lat="32.806161744520068" lon="-1.690065683797002">
        <ele>1156.12255859375</ele>
        <time>2011-04-18T11:40:47Z</time>
      </trkpt>
      <trkpt lat="32.8069768846035" lon="-1.689964262768626">
        <ele>1156.603271484375</ele>
        <time>2011-04-18T11:40:56Z</time>
      </trkpt>
      <trkpt lat="32.80746353790164" lon="-1.690248241648078">
        <ele>1157.564697265625</ele>
        <time>2011-04-18T11:41:02Z</time>
      </trkpt>
      <trkpt lat="32.807436967268586" lon="-1.690473798662424">
        <ele>1158.04541015625</ele>
        <time>2011-04-18T11:41:05Z</time>
      </trkpt>
      <trkpt lat="32.80767023563385" lon="-1.690848888829351">
        <ele>1160.448486328125</ele>
        <time>2011-04-18T11:41:12Z</time>
      </trkpt>
      <trkpt lat="32.808449333533645" lon="-1.691300170496106">
        <ele>1162.851806640625</ele>
        <time>2011-04-18T11:41:22Z</time>
      </trkpt>
      <trkpt lat="32.809131117537618" lon="-1.691860416904092">
        <ele>1164.2939453125</ele>
        <time>2011-04-18T11:41:31Z</time>
      </trkpt>
      <trkpt lat="32.809352651238441" lon="-1.691986480727792">
        <ele>1164.774658203125</ele>
        <time>2011-04-18T11:41:34Z</time>
      </trkpt>
      <trkpt lat="32.809461029246449" lon="-1.692269369959831">
        <ele>1165.25537109375</ele>
        <time>2011-04-18T11:41:39Z</time>
      </trkpt>
      <trkpt lat="32.809142349287868" lon="-1.693054251372814">
        <ele>1163.81298828125</ele>
        <time>2011-04-18T11:41:49Z</time>
      </trkpt>
      <trkpt lat="32.809070097282529" lon="-1.693371925503016">
        <ele>1163.81298828125</ele>
        <time>2011-04-18T11:41:52Z</time>
      </trkpt>
      <trkpt lat="32.80902860686183" lon="-1.693769311532378">
        <ele>1165.25537109375</ele>
        <time>2011-04-18T11:41:56Z</time>
      </trkpt>
      <trkpt lat="32.809213846921921" lon="-1.69435084797442">
        <ele>1167.658447265625</ele>
        <time>2011-04-18T11:42:04Z</time>
      </trkpt>
      <trkpt lat="32.809321219101548" lon="-1.694468026980758">
        <ele>1168.13916015625</ele>
        <time>2011-04-18T11:42:06Z</time>
      </trkpt>
      <trkpt lat="32.809849279001355" lon="-1.695071356371045">
        <ele>1170.061767578125</ele>
        <time>2011-04-18T11:42:15Z</time>
      </trkpt>
      <trkpt lat="32.809905521571636" lon="-1.695514088496566">
        <ele>1171.503662109375</ele>
        <time>2011-04-18T11:42:21Z</time>
      </trkpt>
      <trkpt lat="32.809963691979647" lon="-1.695738472044468">
        <ele>1172.465087890625</ele>
        <time>2011-04-18T11:42:25Z</time>
      </trkpt>
      <trkpt lat="32.81014415435493" lon="-1.695932848379016">
        <ele>1173.906982421875</ele>
        <time>2011-04-18T11:42:29Z</time>
      </trkpt>
      <trkpt lat="32.810455793514848" lon="-1.696425033733249">
        <ele>1175.348876953125</ele>
        <time>2011-04-18T11:42:37Z</time>
      </trkpt>
      <trkpt lat="32.810445483773947" lon="-1.696869023144245">
        <ele>1175.82958984375</ele>
        <time>2011-04-18T11:42:43Z</time>
      </trkpt>
      <trkpt lat="32.810356300324202" lon="-1.697040684521198">
        <ele>1175.82958984375</ele>
        <time>2011-04-18T11:42:45Z</time>
      </trkpt>
      <trkpt lat="32.809955812990665" lon="-1.697743004187942">
        <ele>1176.310302734375</ele>
        <time>2011-04-18T11:42:53Z</time>
      </trkpt>
      <trkpt lat="32.809896469116211" lon="-1.698491843417287">
        <ele>1175.348876953125</ele>
        <time>2011-04-18T11:43:03Z</time>
      </trkpt>
      <trkpt lat="32.80994089320302" lon="-1.699236072599888">
        <ele>1173.426513671875</ele>
        <time>2011-04-18T11:43:13Z</time>
      </trkpt>
      <trkpt lat="32.81014172360301" lon="-1.69965885579586">
        <ele>1173.426513671875</ele>
        <time>2011-04-18T11:43:20Z</time>
      </trkpt>
      <trkpt lat="32.81023652292788" lon="-1.699873432517052">
        <ele>1172.94580078125</ele>
        <time>2011-04-18T11:43:24Z</time>
      </trkpt>
      <trkpt lat="32.810340039432049" lon="-1.70009764842689">
        <ele>1172.94580078125</ele>
        <time>2011-04-18T11:43:29Z</time>
      </trkpt>
      <trkpt lat="32.810395359992981" lon="-1.700448011979461">
        <ele>1176.310302734375</ele>
        <time>2011-04-18T11:43:36Z</time>
      </trkpt>
      <trkpt lat="32.810483621433377" lon="-1.700967773795128">
        <ele>1185.44287109375</ele>
        <time>2011-04-18T11:43:48Z</time>
      </trkpt>
      <trkpt lat="32.810499547049403" lon="-1.7011056561023">
        <ele>1189.768798828125</ele>
        <time>2011-04-18T11:44:03Z</time>
      </trkpt>
      <trkpt lat="32.809864534065127" lon="-1.701242364943028">
        <ele>1191.69140625</ele>
        <time>2011-04-18T11:44:13Z</time>
      </trkpt>
      <trkpt lat="32.809668648988008" lon="-1.701285028830171">
        <ele>1192.65283203125</ele>
        <time>2011-04-18T11:44:18Z</time>
      </trkpt>
      <trkpt lat="32.809520373120904" lon="-1.70135292224586">
        <ele>1193.13330078125</ele>
        <time>2011-04-18T11:44:22Z</time>
      </trkpt>
      <trkpt lat="32.809084597975016" lon="-1.701510585844517">
        <ele>1191.69140625</ele>
        <time>2011-04-18T11:44:34Z</time>
      </trkpt>
      <trkpt lat="32.808967586606741" lon="-1.701497845351696">
        <ele>1192.65283203125</ele>
        <time>2011-04-18T11:44:37Z</time>
      </trkpt>
      <trkpt lat="32.808805229142308" lon="-1.701536821201444">
        <ele>1192.172119140625</ele>
        <time>2011-04-18T11:44:41Z</time>
      </trkpt>
      <trkpt lat="32.808626443147659" lon="-1.701776040717959">
        <ele>1190.72998046875</ele>
        <time>2011-04-18T11:44:49Z</time>
      </trkpt>
      <trkpt lat="32.808228470385075" lon="-1.702143838629127">
        <ele>1187.365478515625</ele>
        <time>2011-04-18T11:45:02Z</time>
      </trkpt>
      <trkpt lat="32.808065861463547" lon="-1.702075190842152">
        <ele>1189.2880859375</ele>
        <time>2011-04-18T11:45:07Z</time>
      </trkpt>
      <trkpt lat="32.807663446292281" lon="-1.701933620497584">
        <ele>1192.172119140625</ele>
        <time>2011-04-18T11:45:17Z</time>
      </trkpt>
      <trkpt lat="32.807509386911988" lon="-1.702023558318615">
        <ele>1191.210693359375</ele>
        <time>2011-04-18T11:45:25Z</time>
      </trkpt>
      <trkpt lat="32.807388687506318" lon="-1.701994389295578">
        <ele>1232.547607421875</ele>
        <time>2011-04-18T11:47:27Z</time>
      </trkpt>
      <trkpt lat="32.807428333908319" lon="-1.701873857527971">
        <ele>1206.111083984375</ele>
        <time>2011-04-18T11:49:53Z</time>
      </trkpt>
      <trkpt lat="32.807720946148038" lon="-1.701825158670545">
        <ele>1196.498291015625</ele>
        <time>2011-04-18T11:50:07Z</time>
      </trkpt>
      <trkpt lat="32.807819182053208" lon="-1.701895566657186">
        <ele>1193.13330078125</ele>
        <time>2011-04-18T11:50:18Z</time>
      </trkpt>
      <trkpt lat="32.808029484003782" lon="-1.702013919129968">
        <ele>1179.194091796875</ele>
        <time>2011-04-18T11:50:42Z</time>
      </trkpt>
      <trkpt lat="32.808122020214796" lon="-1.702138977125287">
        <ele>1181.59765625</ele>
        <time>2011-04-18T11:50:47Z</time>
      </trkpt>
      <trkpt lat="32.808345565572381" lon="-1.702094720676541">
        <ele>1184.481689453125</ele>
        <time>2011-04-18T11:50:55Z</time>
      </trkpt>
      <trkpt lat="32.808656534180045" lon="-1.701756929978728">
        <ele>1184.0009765625</ele>
        <time>2011-04-18T11:51:07Z</time>
      </trkpt>
      <trkpt lat="32.808801541104913" lon="-1.701659448444843">
        <ele>1183.520263671875</ele>
        <time>2011-04-18T11:51:14Z</time>
      </trkpt>
      <trkpt lat="32.809048220515251" lon="-1.701687192544341">
        <ele>1184.481689453125</ele>
        <time>2011-04-18T11:51:23Z</time>
      </trkpt>
      <trkpt lat="32.809247961267829" lon="-1.701480159536004">
        <ele>1184.96240234375</ele>
        <time>2011-04-18T11:51:31Z</time>
      </trkpt>
      <trkpt lat="32.809330020099878" lon="-1.701380582526326">
        <ele>1184.96240234375</ele>
        <time>2011-04-18T11:51:34Z</time>
      </trkpt>
      <trkpt lat="32.809611735865474" lon="-1.701243622228503">
        <ele>1185.44287109375</ele>
        <time>2011-04-18T11:51:41Z</time>
      </trkpt>
      <trkpt lat="32.809964530169964" lon="-1.701103895902634">
        <ele>1187.365478515625</ele>
        <time>2011-04-18T11:51:51Z</time>
      </trkpt>
      <trkpt lat="32.810188578441739" lon="-1.701020747423172">
        <ele>1187.84619140625</ele>
        <time>2011-04-18T11:51:58Z</time>
      </trkpt>
      <trkpt lat="32.810299135744572" lon="-1.701040277257562">
        <ele>1188.326904296875</ele>
        <time>2011-04-18T11:52:05Z</time>
      </trkpt>
      <trkpt lat="32.810498876497149" lon="-1.701099537312985">
        <ele>1188.326904296875</ele>
        <time>2011-04-18T11:52:07Z</time>
      </trkpt>
      <trkpt lat="32.810546401888132" lon="-1.701345294713974">
        <ele>1188.8076171875</ele>
        <time>2011-04-18T11:52:12Z</time>
      </trkpt>
      <trkpt lat="32.810618402436376" lon="-1.701537407934666">
        <ele>1188.8076171875</ele>
        <time>2011-04-18T11:52:16Z</time>
      </trkpt>
      <trkpt lat="32.810605326667428" lon="-1.701910234987736">
        <ele>1188.8076171875</ele>
        <time>2011-04-18T11:52:20Z</time>
      </trkpt>
      <trkpt lat="32.810666598379612" lon="-1.702163452282548">
        <ele>1189.2880859375</ele>
        <time>2011-04-18T11:52:24Z</time>
      </trkpt>
      <trkpt lat="32.811004975810647" lon="-1.7029360961169">
        <ele>1190.72998046875</ele>
        <time>2011-04-18T11:52:35Z</time>
      </trkpt>
      <trkpt lat="32.81118837185204" lon="-1.703168610110879">
        <ele>1191.210693359375</ele>
        <time>2011-04-18T11:52:40Z</time>
      </trkpt>
      <trkpt lat="32.811435973271728" lon="-1.703868750482798">
        <ele>1188.8076171875</ele>
        <time>2011-04-18T11:52:52Z</time>
      </trkpt>
      <trkpt lat="32.811495149508119" lon="-1.704246522858739">
        <ele>1186.404296875</ele>
        <time>2011-04-18T11:53:02Z</time>
      </trkpt>
      <trkpt lat="32.811500765383244" lon="-1.704386416822672">
        <ele>1188.8076171875</ele>
        <time>2011-04-18T11:53:31Z</time>
      </trkpt>
      <trkpt lat="32.811505794525146" lon="-1.704511642456055">
        <ele>1188.326904296875</ele>
        <time>2011-04-18T11:53:45Z</time>
      </trkpt>
      <trkpt lat="32.81159489415586" lon="-1.704600742086768">
        <ele>1189.2880859375</ele>
        <time>2011-04-18T11:53:52Z</time>
      </trkpt>
      <trkpt lat="32.811998398974538" lon="-1.704747676849365">
        <ele>1193.614013671875</ele>
        <time>2011-04-18T11:54:05Z</time>
      </trkpt>
      <trkpt lat="32.812456972897053" lon="-1.704517509788275">
        <ele>1196.498291015625</ele>
        <time>2011-04-18T11:54:14Z</time>
      </trkpt>
      <trkpt lat="32.81264690682292" lon="-1.704455986618996">
        <ele>1197.940185546875</ele>
        <time>2011-04-18T11:54:18Z</time>
      </trkpt>
      <trkpt lat="32.812835080549121" lon="-1.704420782625675">
        <ele>1199.382080078125</ele>
        <time>2011-04-18T11:54:22Z</time>
      </trkpt>
      <trkpt lat="32.813031552359462" lon="-1.704463278874755">
        <ele>1200.343505859375</ele>
        <time>2011-04-18T11:54:26Z</time>
      </trkpt>
      <trkpt lat="32.813526587560773" lon="-1.704860581085086">
        <ele>1206.591796875</ele>
        <time>2011-04-18T11:54:38Z</time>
      </trkpt>
      <trkpt lat="32.813526084646583" lon="-1.704975999891758">
        <ele>1208.033935546875</ele>
        <time>2011-04-18T11:54:45Z</time>
      </trkpt>
      <trkpt lat="32.813657345250249" lon="-1.704936688765883">
        <ele>1207.072509765625</ele>
        <time>2011-04-18T11:57:14Z</time>
      </trkpt>
      <trkpt lat="32.813717527315021" lon="-1.704769553616643">
        <ele>1211.3984375</ele>
        <time>2011-04-18T11:57:24Z</time>
      </trkpt>
      <trkpt lat="32.813615184277296" lon="-1.704628653824329">
        <ele>1221.01171875</ele>
        <time>2011-04-18T11:57:51Z</time>
      </trkpt>
      <trkpt lat="32.813449474051595" lon="-1.704509546980262">
        <ele>1202.265869140625</ele>
        <time>2011-04-18T12:06:20Z</time>
      </trkpt>
      <trkpt lat="32.813605628907681" lon="-1.704611470922828">
        <ele>1180.15576171875</ele>
        <time>2011-04-18T12:17:25Z</time>
      </trkpt>
      <trkpt lat="32.813517870381474" lon="-1.704722447320819">
        <ele>1171.984375</ele>
        <time>2011-04-18T12:18:24Z</time>
      </trkpt>
      <trkpt lat="32.813783660531044" lon="-1.704694535583258">
        <ele>1183.03955078125</ele>
        <time>2011-04-18T13:53:56Z</time>
      </trkpt>
      <trkpt lat="32.813635552302003" lon="-1.704843649640679">
        <ele>1166.697265625</ele>
        <time>2011-04-18T14:24:27Z</time>
      </trkpt>
      <trkpt lat="32.813614346086979" lon="-1.704589258879423">
        <ele>1152.27734375</ele>
        <time>2011-04-18T14:31:24Z</time>
      </trkpt>
      <trkpt lat="32.813648041337729" lon="-1.704777432605624">
        <ele>1174.868408203125</ele>
        <time>2011-04-18T14:38:06Z</time>
      </trkpt>
      <trkpt lat="32.813737643882632" lon="-1.704960828647018">
        <ele>1176.791015625</ele>
        <time>2011-04-18T14:38:42Z</time>
      </trkpt>
      <trkpt lat="32.813640916720033" lon="-1.705004749819636">
        <ele>1171.503662109375</ele>
        <time>2011-04-18T14:38:54Z</time>
      </trkpt>
      <trkpt lat="32.813548380509019" lon="-1.705067194998264">
        <ele>1160.92919921875</ele>
        <time>2011-04-18T14:39:25Z</time>
      </trkpt>
      <trkpt lat="32.813294660300016" lon="-1.705008773133159">
        <ele>1153.23876953125</ele>
        <time>2011-04-18T14:39:47Z</time>
      </trkpt>
      <trkpt lat="32.813122831285" lon="-1.704669054597616">
        <ele>1150.83544921875</ele>
        <time>2011-04-18T14:39:59Z</time>
      </trkpt>
      <trkpt lat="32.812875732779503" lon="-1.704386919736862">
        <ele>1152.27734375</ele>
        <time>2011-04-18T14:40:10Z</time>
      </trkpt>
      <trkpt lat="32.812589490786195" lon="-1.704466799274087">
        <ele>1151.316162109375</ele>
        <time>2011-04-18T14:40:18Z</time>
      </trkpt>
      <trkpt lat="32.812190176919103" lon="-1.70465899631381">
        <ele>1150.83544921875</ele>
        <time>2011-04-18T14:40:28Z</time>
      </trkpt>
      <trkpt lat="32.811953974887729" lon="-1.704747676849365">
        <ele>1149.874267578125</ele>
        <time>2011-04-18T14:40:33Z</time>
      </trkpt>
      <trkpt lat="32.81176932156086" lon="-1.704747676849365">
        <ele>1149.3935546875</ele>
        <time>2011-04-18T14:40:37Z</time>
      </trkpt>
      <trkpt lat="32.811526246368885" lon="-1.704532010480762">
        <ele>1149.874267578125</ele>
        <time>2011-04-18T14:40:43Z</time>
      </trkpt>
      <trkpt lat="32.811477296054363" lon="-1.703959861770272">
        <ele>1151.316162109375</ele>
        <time>2011-04-18T14:40:50Z</time>
      </trkpt>
      <trkpt lat="32.811232879757881" lon="-1.703257793560624">
        <ele>1153.719482421875</ele>
        <time>2011-04-18T14:40:59Z</time>
      </trkpt>
      <trkpt lat="32.810760894790292" lon="-1.702452208846808">
        <ele>1153.719482421875</ele>
        <time>2011-04-18T14:41:10Z</time>
      </trkpt>
      <trkpt lat="32.810677662491798" lon="-1.702207708731294">
        <ele>1154.2001953125</ele>
        <time>2011-04-18T14:41:13Z</time>
      </trkpt>
      <trkpt lat="32.810615887865424" lon="-1.701836306601763">
        <ele>1155.64208984375</ele>
        <time>2011-04-18T14:41:18Z</time>
      </trkpt>
      <trkpt lat="32.810639692470431" lon="-1.701593985781074">
        <ele>1156.12255859375</ele>
        <time>2011-04-18T14:41:21Z</time>
      </trkpt>
      <trkpt lat="32.810486890375614" lon="-1.700996020808816">
        <ele>1157.083984375</ele>
        <time>2011-04-18T14:41:30Z</time>
      </trkpt>
      <trkpt lat="32.810367699712515" lon="-1.700319349765778">
        <ele>1159.006591796875</ele>
        <time>2011-04-18T14:41:39Z</time>
      </trkpt>
      <trkpt lat="32.810273738577962" lon="-1.69995398260653">
        <ele>1159.9677734375</ele>
        <time>2011-04-18T14:41:46Z</time>
      </trkpt>
      <trkpt lat="32.810180867090821" lon="-1.699748374521732">
        <ele>1159.006591796875</ele>
        <time>2011-04-18T14:41:49Z</time>
      </trkpt>
      <trkpt lat="32.809898983687162" lon="-1.698950584977865">
        <ele>1160.92919921875</ele>
        <time>2011-04-18T14:41:59Z</time>
      </trkpt>
      <trkpt lat="32.809899151325226" lon="-1.697998149320483">
        <ele>1159.4873046875</ele>
        <time>2011-04-18T14:42:10Z</time>
      </trkpt>
      <trkpt lat="32.810130743309855" lon="-1.697382079437375">
        <ele>1161.409912109375</ele>
        <time>2011-04-18T14:42:19Z</time>
      </trkpt>
      <trkpt lat="32.810454284772277" lon="-1.696851421147585">
        <ele>1163.33251953125</ele>
        <time>2011-04-18T14:42:28Z</time>
      </trkpt>
      <trkpt lat="32.810420840978622" lon="-1.696355128660798">
        <ele>1163.81298828125</ele>
        <time>2011-04-18T14:42:35Z</time>
      </trkpt>
      <trkpt lat="32.81012705527246" lon="-1.69591449201107">
        <ele>1158.52587890625</ele>
        <time>2011-04-18T14:42:42Z</time>
      </trkpt>
      <trkpt lat="32.809994118288159" lon="-1.695771245285869">
        <ele>1156.12255859375</ele>
        <time>2011-04-18T14:42:45Z</time>
      </trkpt>
      <trkpt lat="32.80992086045444" lon="-1.695575695484877">
        <ele>1153.719482421875</ele>
        <time>2011-04-18T14:42:48Z</time>
      </trkpt>
      <trkpt lat="32.809896469116211" lon="-1.695294231176376">
        <ele>1151.796875</ele>
        <time>2011-04-18T14:42:53Z</time>
      </trkpt>
      <trkpt lat="32.809849446639419" lon="-1.695071775466204">
        <ele>1153.23876953125</ele>
        <time>2011-04-18T14:42:57Z</time>
      </trkpt>
      <trkpt lat="32.809785241261125" lon="-1.694956691935659">
        <ele>1151.796875</ele>
        <time>2011-04-18T14:42:59Z</time>
      </trkpt>
      <trkpt lat="32.809305209666491" lon="-1.694450592622161">
        <ele>1147.951416015625</ele>
        <time>2011-04-18T14:43:07Z</time>
      </trkpt>
      <trkpt lat="32.809200352057815" lon="-1.694336263462901">
        <ele>1147.470703125</ele>
        <time>2011-04-18T14:43:09Z</time>
      </trkpt>
      <trkpt lat="32.809011256322265" lon="-1.693955473601818">
        <ele>1146.02880859375</ele>
        <time>2011-04-18T14:43:15Z</time>
      </trkpt>
      <trkpt lat="32.80903548002243" lon="-1.693687001243234">
        <ele>1145.548095703125</ele>
        <time>2011-04-18T14:43:18Z</time>
      </trkpt>
      <trkpt lat="32.80908283777535" lon="-1.69331593438983">
        <ele>1144.106201171875</ele>
        <time>2011-04-18T14:43:22Z</time>
      </trkpt>
      <trkpt lat="32.809262545779347" lon="-1.692593414336443">
        <ele>1144.586669921875</ele>
        <time>2011-04-18T14:43:30Z</time>
      </trkpt>
      <trkpt lat="32.809447534382343" lon="-1.692290995270014">
        <ele>1145.0673828125</ele>
        <time>2011-04-18T14:43:35Z</time>
      </trkpt>
      <trkpt lat="32.809360194951296" lon="-1.691991174593568">
        <ele>1146.509521484375</ele>
        <time>2011-04-18T14:43:40Z</time>
      </trkpt>
      <trkpt lat="32.808624766767025" lon="-1.691463198512793">
        <ele>1149.3935546875</ele>
        <time>2011-04-18T14:43:51Z</time>
      </trkpt>
      <trkpt lat="32.807877687737346" lon="-1.690956093370915">
        <ele>1150.83544921875</ele>
        <time>2011-04-18T14:44:01Z</time>
      </trkpt>
      <trkpt lat="32.807553559541702" lon="-1.690800189971924">
        <ele>1149.874267578125</ele>
        <time>2011-04-18T14:44:06Z</time>
      </trkpt>
      <trkpt lat="32.8074293397367" lon="-1.690538758412004">
        <ele>1147.951416015625</ele>
        <time>2011-04-18T14:44:12Z</time>
      </trkpt>
      <trkpt lat="32.807474182918668" lon="-1.6901676915586">
        <ele>1146.989990234375</ele>
        <time>2011-04-18T14:44:18Z</time>
      </trkpt>
      <trkpt lat="32.806723332032561" lon="-1.689449865370989">
        <ele>1145.0673828125</ele>
        <time>2011-04-18T14:44:26Z</time>
      </trkpt>
      <trkpt lat="32.806041045114398" lon="-1.688353344798088">
        <ele>1142.18359375</ele>
        <time>2011-04-18T14:44:36Z</time>
      </trkpt>
      <trkpt lat="32.805327326059341" lon="-1.68707418255508">
        <ele>1142.18359375</ele>
        <time>2011-04-18T14:44:46Z</time>
      </trkpt>
      <trkpt lat="32.804248826578259" lon="-1.684854570776224">
        <ele>1143.62548828125</ele>
        <time>2011-04-18T14:45:01Z</time>
      </trkpt>
      <trkpt lat="32.803254816681147" lon="-1.682634372264147">
        <ele>1143.62548828125</ele>
        <time>2011-04-18T14:45:16Z</time>
      </trkpt>
      <trkpt lat="32.80234613455832" lon="-1.681071817874908">
        <ele>1143.62548828125</ele>
        <time>2011-04-18T14:45:27Z</time>
      </trkpt>
      <trkpt lat="32.801524037495255" lon="-1.679824842140079">
        <ele>1144.106201171875</ele>
        <time>2011-04-18T14:45:36Z</time>
      </trkpt>
      <trkpt lat="32.80034763738513" lon="-1.677888371050358">
        <ele>1139.7802734375</ele>
        <time>2011-04-18T14:45:48Z</time>
      </trkpt>
      <trkpt lat="32.799228150397539" lon="-1.675843689590693">
        <ele>1135.93505859375</ele>
        <time>2011-04-18T14:46:00Z</time>
      </trkpt>
      <trkpt lat="32.798641668632627" lon="-1.67425305582583">
        <ele>1133.051025390625</ele>
        <time>2011-04-18T14:46:09Z</time>
      </trkpt>
      <trkpt lat="32.798109669238329" lon="-1.673289388418198">
        <ele>1131.12841796875</ele>
        <time>2011-04-18T14:46:16Z</time>
      </trkpt>
      <trkpt lat="32.797732064500451" lon="-1.672382298856974">
        <ele>1128.72509765625</ele>
        <time>2011-04-18T14:46:23Z</time>
      </trkpt>
      <trkpt lat="32.797606252133846" lon="-1.671229619532824">
        <ele>1131.12841796875</ele>
        <time>2011-04-18T14:46:32Z</time>
      </trkpt>
      <trkpt lat="32.797553278505802" lon="-1.670550936833024">
        <ele>1133.051025390625</ele>
        <time>2011-04-18T14:46:37Z</time>
      </trkpt>
      <trkpt lat="32.797174416482449" lon="-1.669343691319227">
        <ele>1138.819091796875</ele>
        <time>2011-04-18T14:46:46Z</time>
      </trkpt>
      <trkpt lat="32.797142313793302" lon="-1.668449761345983">
        <ele>1142.18359375</ele>
        <time>2011-04-18T14:46:52Z</time>
      </trkpt>
      <trkpt lat="32.796895550563931" lon="-1.667822459712625">
        <ele>1145.548095703125</ele>
        <time>2011-04-18T14:47:00Z</time>
      </trkpt>
      <trkpt lat="32.796762613579631" lon="-1.667438903823495">
        <ele>1145.0673828125</ele>
        <time>2011-04-18T14:47:05Z</time>
      </trkpt>
      <trkpt lat="32.796503193676472" lon="-1.667222902178764">
        <ele>1146.509521484375</ele>
        <time>2011-04-18T14:47:14Z</time>
      </trkpt>
      <trkpt lat="32.796113518998027" lon="-1.666801627725363">
        <ele>1150.83544921875</ele>
        <time>2011-04-18T14:47:23Z</time>
      </trkpt>
      <trkpt lat="32.796032885089517" lon="-1.666670618578792">
        <ele>1152.27734375</ele>
        <time>2011-04-18T14:47:26Z</time>
      </trkpt>
      <trkpt lat="32.796013355255127" lon="-1.66632897220552">
        <ele>1154.2001953125</ele>
        <time>2011-04-18T14:47:32Z</time>
      </trkpt>
      <trkpt lat="32.795931212604046" lon="-1.665943739935756">
        <ele>1155.161376953125</ele>
        <time>2011-04-18T14:47:37Z</time>
      </trkpt>
      <trkpt lat="32.795639019459486" lon="-1.665715081617236">
        <ele>1154.2001953125</ele>
        <time>2011-04-18T14:47:44Z</time>
      </trkpt>
      <trkpt lat="32.795515134930611" lon="-1.665624976158142">
        <ele>1156.603271484375</ele>
        <time>2011-04-18T14:47:46Z</time>
      </trkpt>
      <trkpt lat="32.795426622033119" lon="-1.665456332266331">
        <ele>1167.658447265625</ele>
        <time>2011-04-18T14:47:52Z</time>
      </trkpt>
      <trkpt lat="32.795691573992372" lon="-1.665753722190857">
        <ele>1176.310302734375</ele>
        <time>2011-04-18T14:48:06Z</time>
      </trkpt>
      <trkpt lat="32.795954765751958" lon="-1.666026134043932">
        <ele>1178.23291015625</ele>
        <time>2011-04-18T14:48:12Z</time>
      </trkpt>
      <trkpt lat="32.796013355255127" lon="-1.666264431551099">
        <ele>1178.713623046875</ele>
        <time>2011-04-18T14:48:15Z</time>
      </trkpt>
      <trkpt lat="32.796064149588346" lon="-1.666721412912011">
        <ele>1179.6748046875</ele>
        <time>2011-04-18T14:48:23Z</time>
      </trkpt>
      <trkpt lat="32.796456338837743" lon="-1.667186105623841">
        <ele>1180.15576171875</ele>
        <time>2011-04-18T14:48:33Z</time>
      </trkpt>
      <trkpt lat="32.796560944989324" lon="-1.667268248274922">
        <ele>1182.078369140625</ele>
        <time>2011-04-18T14:48:40Z</time>
      </trkpt>
      <trkpt lat="32.796485843136907" lon="-1.667384756729007">
        <ele>1183.520263671875</ele>
        <time>2011-04-18T14:48:57Z</time>
      </trkpt>
      <trkpt lat="32.79655683785677" lon="-1.667158277705312">
        <ele>1137.376953125</ele>
        <time>2011-04-18T14:50:51Z</time>
      </trkpt>
      <trkpt lat="32.796638058498502" lon="-1.667294735088944">
        <ele>1135.93505859375</ele>
        <time>2011-04-18T14:52:57Z</time>
      </trkpt>
      <trkpt lat="32.796671921387315" lon="-1.667417865246534">
        <ele>1168.619873046875</ele>
        <time>2011-04-18T14:56:00Z</time>
      </trkpt>
      <trkpt lat="32.796467989683151" lon="-1.66719532571733">
        <ele>1168.619873046875</ele>
        <time>2011-04-18T14:56:07Z</time>
      </trkpt>
      <trkpt lat="32.79613321647048" lon="-1.666833562776446">
        <ele>1169.581298828125</ele>
        <time>2011-04-18T14:56:16Z</time>
      </trkpt>
      <trkpt lat="32.796026514843106" lon="-1.666660225018859">
        <ele>1169.581298828125</ele>
        <time>2011-04-18T14:56:20Z</time>
      </trkpt>
      <trkpt lat="32.795958202332258" lon="-1.666038120165467">
        <ele>1169.1005859375</ele>
        <time>2011-04-18T14:56:29Z</time>
      </trkpt>
      <trkpt lat="32.795780841261148" lon="-1.665820777416229">
        <ele>1169.1005859375</ele>
        <time>2011-04-18T14:56:34Z</time>
      </trkpt>
      <trkpt lat="32.795548243448138" lon="-1.665648948401213">
        <ele>1169.581298828125</ele>
        <time>2011-04-18T14:56:38Z</time>
      </trkpt>
      <trkpt lat="32.795416731387377" lon="-1.665230188518763">
        <ele>1169.581298828125</ele>
        <time>2011-04-18T14:56:45Z</time>
      </trkpt>
      <trkpt lat="32.795466519892216" lon="-1.665064310654998">
        <ele>1170.061767578125</ele>
        <time>2011-04-18T14:56:48Z</time>
      </trkpt>
      <trkpt lat="32.795802131295204" lon="-1.664627529680729">
        <ele>1170.061767578125</ele>
        <time>2011-04-18T14:56:56Z</time>
      </trkpt>
      <trkpt lat="32.795870443806052" lon="-1.664525019004941">
        <ele>1170.061767578125</ele>
        <time>2011-04-18T14:56:58Z</time>
      </trkpt>
      <trkpt lat="32.796211168169975" lon="-1.664022775366902">
        <ele>1170.54248046875</ele>
        <time>2011-04-18T14:57:08Z</time>
      </trkpt>
      <trkpt lat="32.796764373779297" lon="-1.663742065429688">
        <ele>1169.581298828125</ele>
        <time>2011-04-18T14:57:19Z</time>
      </trkpt>
      <trkpt lat="32.796984063461423" lon="-1.663645589724183">
        <ele>1169.581298828125</ele>
        <time>2011-04-18T14:57:23Z</time>
      </trkpt>
      <trkpt lat="32.7971475943923" lon="-1.663533104583621">
        <ele>1170.061767578125</ele>
        <time>2011-04-18T14:57:27Z</time>
      </trkpt>
      <trkpt lat="32.79731472954154" lon="-1.663399580866098">
        <ele>1170.54248046875</ele>
        <time>2011-04-18T14:57:31Z</time>
      </trkpt>
      <trkpt lat="32.797570377588272" lon="-1.663214089348912">
        <ele>1171.503662109375</ele>
        <time>2011-04-18T14:57:40Z</time>
      </trkpt>
      <trkpt lat="32.79777254909277" lon="-1.662877220660448">
        <ele>1171.984375</ele>
        <time>2011-04-18T14:57:48Z</time>
      </trkpt>
      <trkpt lat="32.797880172729492" lon="-1.662593660876155">
        <ele>1172.465087890625</ele>
        <time>2011-04-18T14:57:54Z</time>
      </trkpt>
      <trkpt lat="32.797848070040345" lon="-1.662192419171333">
        <ele>1173.906982421875</ele>
        <time>2011-04-18T14:58:01Z</time>
      </trkpt>
      <trkpt lat="32.797743296250701" lon="-1.661932244896889">
        <ele>1174.3876953125</ele>
        <time>2011-04-18T14:58:06Z</time>
      </trkpt>
      <trkpt lat="32.7973772585392" lon="-1.661626808345318">
        <ele>1173.906982421875</ele>
        <time>2011-04-18T14:58:14Z</time>
      </trkpt>
      <trkpt lat="32.797196209430695" lon="-1.661229003220797">
        <ele>1173.426513671875</ele>
        <time>2011-04-18T14:58:21Z</time>
      </trkpt>
      <trkpt lat="32.797246668487787" lon="-1.660752240568399">
        <ele>1174.3876953125</ele>
        <time>2011-04-18T14:58:31Z</time>
      </trkpt>
      <trkpt lat="32.797282291576266" lon="-1.66049717925489">
        <ele>1174.3876953125</ele>
        <time>2011-04-18T14:58:36Z</time>
      </trkpt>
      <trkpt lat="32.797163520008326" lon="-1.659981524571776">
        <ele>1174.868408203125</ele>
        <time>2011-04-18T14:58:43Z</time>
      </trkpt>
      <trkpt lat="32.796863112598658" lon="-1.659716991707683">
        <ele>1177.271728515625</ele>
        <time>2011-04-18T14:58:48Z</time>
      </trkpt>
      <trkpt lat="32.7966243121773" lon="-1.659562764689326">
        <ele>1177.271728515625</ele>
        <time>2011-04-18T14:58:52Z</time>
      </trkpt>
      <trkpt lat="32.796317702159286" lon="-1.659186668694019">
        <ele>1177.271728515625</ele>
        <time>2011-04-18T14:59:00Z</time>
      </trkpt>
      <trkpt lat="32.796296244487166" lon="-1.659047193825245">
        <ele>1176.791015625</ele>
        <time>2011-04-18T14:59:02Z</time>
      </trkpt>
      <trkpt lat="32.796158781275153" lon="-1.658504465594888">
        <ele>1177.271728515625</ele>
        <time>2011-04-18T14:59:09Z</time>
      </trkpt>
      <trkpt lat="32.796148974448442" lon="-1.658188719302416">
        <ele>1177.752197265625</ele>
        <time>2011-04-18T14:59:13Z</time>
      </trkpt>
      <trkpt lat="32.796161295846105" lon="-1.658040527254343">
        <ele>1178.23291015625</ele>
        <time>2011-04-18T14:59:15Z</time>
      </trkpt>
      <trkpt lat="32.796249389648437" lon="-1.657309792935848">
        <ele>1178.713623046875</ele>
        <time>2011-04-18T14:59:25Z</time>
      </trkpt>
      <trkpt lat="32.796249389648437" lon="-1.656662793830037">
        <ele>1179.194091796875</ele>
        <time>2011-04-18T14:59:33Z</time>
      </trkpt>
      <trkpt lat="32.796057695522904" lon="-1.65618896484375">
        <ele>1181.1171875</ele>
        <time>2011-04-18T14:59:41Z</time>
      </trkpt>
      <trkpt lat="32.795916292816401" lon="-1.656186869367957">
        <ele>1181.1171875</ele>
        <time>2011-04-18T14:59:43Z</time>
      </trkpt>
      <trkpt lat="32.795679923146963" lon="-1.656134482473135">
        <ele>1181.1171875</ele>
        <time>2011-04-18T14:59:46Z</time>
      </trkpt>
      <trkpt lat="32.795325117185712" lon="-1.655698120594025">
        <ele>1183.03955078125</ele>
        <time>2011-04-18T14:59:53Z</time>
      </trkpt>
      <trkpt lat="32.795051950961351" lon="-1.655102502554655">
        <ele>1186.884765625</ele>
        <time>2011-04-18T15:00:01Z</time>
      </trkpt>
      <trkpt lat="32.795004257932305" lon="-1.654724730178714">
        <ele>1187.84619140625</ele>
        <time>2011-04-18T15:00:06Z</time>
      </trkpt>
      <trkpt lat="32.79504013247788" lon="-1.654177727177739">
        <ele>1189.768798828125</ele>
        <time>2011-04-18T15:00:13Z</time>
      </trkpt>
      <trkpt lat="32.795048262923956" lon="-1.653908668085933">
        <ele>1190.72998046875</ele>
        <time>2011-04-18T15:00:17Z</time>
      </trkpt>
      <trkpt lat="32.795065697282553" lon="-1.653699371963739">
        <ele>1191.69140625</ele>
        <time>2011-04-18T15:00:21Z</time>
      </trkpt>
      <trkpt lat="32.795160580426455" lon="-1.653519831597805">
        <ele>1192.65283203125</ele>
        <time>2011-04-18T15:00:25Z</time>
      </trkpt>
      <trkpt lat="32.795238196849823" lon="-1.653416901826859">
        <ele>1193.13330078125</ele>
        <time>2011-04-18T15:00:27Z</time>
      </trkpt>
      <trkpt lat="32.795340120792389" lon="-1.653193356469274">
        <ele>1194.5751953125</ele>
        <time>2011-04-18T15:00:31Z</time>
      </trkpt>
      <trkpt lat="32.79533333145082" lon="-1.652943324297667">
        <ele>1196.498291015625</ele>
        <time>2011-04-18T15:00:35Z</time>
      </trkpt>
      <trkpt lat="32.795208021998405" lon="-1.652786666527391">
        <ele>1198.420654296875</ele>
        <time>2011-04-18T15:00:42Z</time>
      </trkpt>
      <trkpt lat="32.794941728934646" lon="-1.65258533321321">
        <ele>1197.940185546875</ele>
        <time>2011-04-18T15:00:50Z</time>
      </trkpt>
      <trkpt lat="32.794835194945335" lon="-1.652253912761807">
        <ele>1199.382080078125</ele>
        <time>2011-04-18T15:01:00Z</time>
      </trkpt>
      <trkpt lat="32.7947455085814" lon="-1.652038162574172">
        <ele>1200.823974609375</ele>
        <time>2011-04-18T15:01:04Z</time>
      </trkpt>
      <trkpt lat="32.79468297958374" lon="-1.65169014595449">
        <ele>1205.14990234375</ele>
        <time>2011-04-18T15:01:09Z</time>
      </trkpt>
      <trkpt lat="32.794692199677229" lon="-1.651018084958196">
        <ele>1213.3212890625</ele>
        <time>2011-04-18T15:01:17Z</time>
      </trkpt>
      <trkpt lat="32.794618187472224" lon="-1.650824127718806">
        <ele>1214.76318359375</ele>
        <time>2011-04-18T15:01:19Z</time>
      </trkpt>
      <trkpt lat="32.794369915500283" lon="-1.650717258453369">
        <ele>1219.089111328125</ele>
        <time>2011-04-18T15:01:25Z</time>
      </trkpt>
      <trkpt lat="32.794120134785771" lon="-1.650631008669734">
        <ele>1221.4921875</ele>
        <time>2011-04-18T15:01:29Z</time>
      </trkpt>
      <trkpt lat="32.793843951076269" lon="-1.650431267917156">
        <ele>1225.33740234375</ele>
        <time>2011-04-18T15:01:34Z</time>
      </trkpt>
      <trkpt lat="32.793528875336051" lon="-1.650357590988278">
        <ele>1229.66357421875</ele>
        <time>2011-04-18T15:01:39Z</time>
      </trkpt>
      <trkpt lat="32.793287141248584" lon="-1.650234796106815">
        <ele>1232.06689453125</ele>
        <time>2011-04-18T15:01:42Z</time>
      </trkpt>
      <trkpt lat="32.793116569519043" lon="-1.650073528289795">
        <ele>1235.912109375</ele>
        <time>2011-04-18T15:01:48Z</time>
      </trkpt>
      <trkpt lat="32.79319116845727" lon="-1.649868423119187">
        <ele>1236.873291015625</ele>
        <time>2011-04-18T15:01:52Z</time>
      </trkpt>
      <trkpt lat="32.793251518160105" lon="-1.649763733148575">
        <ele>1236.392822265625</ele>
        <time>2011-04-18T15:01:54Z</time>
      </trkpt>
      <trkpt lat="32.793519739061594" lon="-1.649295184761286">
        <ele>1234.950927734375</ele>
        <time>2011-04-18T15:02:00Z</time>
      </trkpt>
      <trkpt lat="32.793636582791805" lon="-1.649014726281166">
        <ele>1235.431396484375</ele>
        <time>2011-04-18T15:02:03Z</time>
      </trkpt>
      <trkpt lat="32.793839005753398" lon="-1.648616753518581">
        <ele>1236.392822265625</ele>
        <time>2011-04-18T15:02:09Z</time>
      </trkpt>
      <trkpt lat="32.793941097334027" lon="-1.648480547592044">
        <ele>1235.912109375</ele>
        <time>2011-04-18T15:02:11Z</time>
      </trkpt>
      <trkpt lat="32.794396737590432" lon="-1.64796388708055">
        <ele>1238.3154296875</ele>
        <time>2011-04-18T15:02:18Z</time>
      </trkpt>
      <trkpt lat="32.794921696186066" lon="-1.647010445594788">
        <ele>1240.238037109375</ele>
        <time>2011-04-18T15:02:28Z</time>
      </trkpt>
      <trkpt lat="32.795540448278189" lon="-1.646172758191824">
        <ele>1237.35400390625</ele>
        <time>2011-04-18T15:02:38Z</time>
      </trkpt>
      <trkpt lat="32.795642875134945" lon="-1.645989613607526">
        <ele>1236.873291015625</ele>
        <time>2011-04-18T15:02:40Z</time>
      </trkpt>
      <trkpt lat="32.795783607289195" lon="-1.645664982497692">
        <ele>1236.392822265625</ele>
        <time>2011-04-18T15:02:44Z</time>
      </trkpt>
      <trkpt lat="32.795848902314901" lon="-1.64545526728034">
        <ele>1235.912109375</ele>
        <time>2011-04-18T15:02:47Z</time>
      </trkpt>
      <trkpt lat="32.795955436304212" lon="-1.645106161013246">
        <ele>1235.431396484375</ele>
        <time>2011-04-18T15:02:52Z</time>
      </trkpt>
      <trkpt lat="32.796013355255127" lon="-1.644816398620606">
        <ele>1231.586181640625</ele>
        <time>2011-04-18T15:02:58Z</time>
      </trkpt>
      <trkpt lat="32.795348083600402" lon="-1.644171662628651">
        <ele>1230.625</ele>
        <time>2011-04-18T15:03:04Z</time>
      </trkpt>
      <trkpt lat="32.79534749686718" lon="-1.643764972686768">
        <ele>1227.26025390625</ele>
        <time>2011-04-18T15:03:10Z</time>
      </trkpt>
      <trkpt lat="32.795444140210748" lon="-1.643619881942868">
        <ele>1227.26025390625</ele>
        <time>2011-04-18T15:03:12Z</time>
      </trkpt>
      <trkpt lat="32.795851249247789" lon="-1.643458362668753">
        <ele>1227.74072265625</ele>
        <time>2011-04-18T15:03:19Z</time>
      </trkpt>
      <trkpt lat="32.796102371066809" lon="-1.643511839210987">
        <ele>1226.298828125</ele>
        <time>2011-04-18T15:03:26Z</time>
      </trkpt>
      <trkpt lat="32.796429265290499" lon="-1.643511084839702">
        <ele>1224.376220703125</ele>
        <time>2011-04-18T15:03:28Z</time>
      </trkpt>
      <trkpt lat="32.796554574742913" lon="-1.643000626936555">
        <ele>1217.16650390625</ele>
        <time>2011-04-18T15:03:36Z</time>
      </trkpt>
      <trkpt lat="32.796849869191647" lon="-1.642495198175311">
        <ele>1213.8017578125</ele>
        <time>2011-04-18T15:03:43Z</time>
      </trkpt>
      <trkpt lat="32.797025805339217" lon="-1.64197375997901">
        <ele>1212.35986328125</ele>
        <time>2011-04-18T15:03:48Z</time>
      </trkpt>
      <trkpt lat="32.796935448423028" lon="-1.641445113345981">
        <ele>1210.917724609375</ele>
        <time>2011-04-18T15:03:53Z</time>
      </trkpt>
      <trkpt lat="32.796573853120208" lon="-1.6407810151577">
        <ele>1208.9951171875</ele>
        <time>2011-04-18T15:04:00Z</time>
      </trkpt>
      <trkpt lat="32.796561531722546" lon="-1.64027919061482">
        <ele>1207.072509765625</ele>
        <time>2011-04-18T15:04:07Z</time>
      </trkpt>
      <trkpt lat="32.796672424301505" lon="-1.639274703338742">
        <ele>1203.7080078125</ele>
        <time>2011-04-18T15:04:17Z</time>
      </trkpt>
      <trkpt lat="32.796900328248739" lon="-1.638581687584519">
        <ele>1201.3046875</ele>
        <time>2011-04-18T15:04:24Z</time>
      </trkpt>
      <trkpt lat="32.79697903431952" lon="-1.6381751652807">
        <ele>1200.343505859375</ele>
        <time>2011-04-18T15:04:28Z</time>
      </trkpt>
      <trkpt lat="32.797000408172607" lon="-1.637489106506109">
        <ele>1198.420654296875</ele>
        <time>2011-04-18T15:04:34Z</time>
      </trkpt>
      <trkpt lat="32.796921450644732" lon="-1.636811597272754">
        <ele>1197.940185546875</ele>
        <time>2011-04-18T15:04:40Z</time>
      </trkpt>
      <trkpt lat="32.796595059335232" lon="-1.635812222957611">
        <ele>1200.343505859375</ele>
        <time>2011-04-18T15:04:48Z</time>
      </trkpt>
      <trkpt lat="32.796571590006351" lon="-1.635667216032744">
        <ele>1200.343505859375</ele>
        <time>2011-04-18T15:04:49Z</time>
      </trkpt>
      <trkpt lat="32.796313092112541" lon="-1.634720982983708">
        <ele>1198.9013671875</ele>
        <time>2011-04-18T15:04:57Z</time>
      </trkpt>
      <trkpt lat="32.796091055497527" lon="-1.6342568770051">
        <ele>1199.86279296875</ele>
        <time>2011-04-18T15:05:03Z</time>
      </trkpt>
      <trkpt lat="32.795802718028426" lon="-1.633920427411795">
        <ele>1201.3046875</ele>
        <time>2011-04-18T15:05:07Z</time>
      </trkpt>
      <trkpt lat="32.795224534347653" lon="-1.633697971701622">
        <ele>1201.785400390625</ele>
        <time>2011-04-18T15:05:16Z</time>
      </trkpt>
      <trkpt lat="32.794719859957695" lon="-1.633543912321329">
        <ele>1200.823974609375</ele>
        <time>2011-04-18T15:05:22Z</time>
      </trkpt>
      <trkpt lat="32.79434728436172" lon="-1.633269488811493">
        <ele>1200.343505859375</ele>
        <time>2011-04-18T15:05:30Z</time>
      </trkpt>
      <trkpt lat="32.794184256345034" lon="-1.633172761648893">
        <ele>1200.823974609375</ele>
        <time>2011-04-18T15:05:33Z</time>
      </trkpt>
      <trkpt lat="32.793894913047552" lon="-1.633117524906993">
        <ele>1201.3046875</ele>
        <time>2011-04-18T15:05:39Z</time>
      </trkpt>
      <trkpt lat="32.793685114011168" lon="-1.633143424987793">
        <ele>1203.227294921875</ele>
        <time>2011-04-18T15:05:58Z</time>
      </trkpt>
      <trkpt lat="32.793447570875287" lon="-1.633115345612168">
        <ele>1207.55322265625</ele>
        <time>2011-04-18T15:06:07Z</time>
      </trkpt>
      <trkpt lat="32.793359393253922" lon="-1.633041752502322">
        <ele>1208.9951171875</ele>
        <time>2011-04-18T15:06:10Z</time>
      </trkpt>
      <trkpt lat="32.793070217594504" lon="-1.632756013423204">
        <ele>1211.879150390625</ele>
        <time>2011-04-18T15:06:17Z</time>
      </trkpt>
      <trkpt lat="32.792913056910038" lon="-1.632460635155439">
        <ele>1213.8017578125</ele>
        <time>2011-04-18T15:06:23Z</time>
      </trkpt>
      <trkpt lat="32.792901992797852" lon="-1.631967779248953">
        <ele>1213.8017578125</ele>
        <time>2011-04-18T15:06:29Z</time>
      </trkpt>
      <trkpt lat="32.793065775185823" lon="-1.630875198170543">
        <ele>1208.514404296875</ele>
        <time>2011-04-18T15:06:41Z</time>
      </trkpt>
      <trkpt lat="32.793074827641249" lon="-1.63048854097724">
        <ele>1207.55322265625</ele>
        <time>2011-04-18T15:06:45Z</time>
      </trkpt>
      <trkpt lat="32.793023698031902" lon="-1.630156366154552">
        <ele>1206.591796875</ele>
        <time>2011-04-18T15:06:50Z</time>
      </trkpt>
      <trkpt lat="32.793016070500016" lon="-1.630033403635025">
        <ele>1205.630615234375</ele>
        <time>2011-04-18T15:06:52Z</time>
      </trkpt>
      <trkpt lat="32.793081952258945" lon="-1.629808517172933">
        <ele>1204.188720703125</ele>
        <time>2011-04-18T15:06:56Z</time>
      </trkpt>
      <trkpt lat="32.793270042166114" lon="-1.629096558317542">
        <ele>1200.823974609375</ele>
        <time>2011-04-18T15:07:04Z</time>
      </trkpt>
      <trkpt lat="32.793190497905016" lon="-1.628787517547607">
        <ele>1199.382080078125</ele>
        <time>2011-04-18T15:07:08Z</time>
      </trkpt>
      <trkpt lat="32.793006096035242" lon="-1.628348557278514">
        <ele>1198.9013671875</ele>
        <time>2011-04-18T15:07:13Z</time>
      </trkpt>
      <trkpt lat="32.792982878163457" lon="-1.628032643347979">
        <ele>1198.9013671875</ele>
        <time>2011-04-18T15:07:17Z</time>
      </trkpt>
      <trkpt lat="32.792949434369802" lon="-1.627560574561358">
        <ele>1198.9013671875</ele>
        <time>2011-04-18T15:07:23Z</time>
      </trkpt>
      <trkpt lat="32.792594293132424" lon="-1.627301489934325">
        <ele>1200.343505859375</ele>
        <time>2011-04-18T15:07:29Z</time>
      </trkpt>
      <trkpt lat="32.792302099987864" lon="-1.627116082236171">
        <ele>1201.3046875</ele>
        <time>2011-04-18T15:07:33Z</time>
      </trkpt>
      <trkpt lat="32.792048966512084" lon="-1.627049446105957">
        <ele>1203.227294921875</ele>
        <time>2011-04-18T15:07:37Z</time>
      </trkpt>
      <trkpt lat="32.791284704580903" lon="-1.627049446105957">
        <ele>1205.630615234375</ele>
        <time>2011-04-18T15:07:46Z</time>
      </trkpt>
      <trkpt lat="32.791193006560206" lon="-1.627049446105957">
        <ele>1206.111083984375</ele>
        <time>2011-04-18T15:07:47Z</time>
      </trkpt>
      <trkpt lat="32.790608201175928" lon="-1.627082135528326">
        <ele>1208.9951171875</ele>
        <time>2011-04-18T15:07:54Z</time>
      </trkpt>
      <trkpt lat="32.790283234789968" lon="-1.62723820656538">
        <ele>1210.917724609375</ele>
        <time>2011-04-18T15:08:01Z</time>
      </trkpt>
      <trkpt lat="32.790090953931212" lon="-1.627317164093256">
        <ele>1210.917724609375</ele>
        <time>2011-04-18T15:08:05Z</time>
      </trkpt>
      <trkpt lat="32.789272964000702" lon="-1.627726787701249">
        <ele>1211.879150390625</ele>
        <time>2011-04-18T15:08:16Z</time>
      </trkpt>
      <trkpt lat="32.789171626791358" lon="-1.627777498215437">
        <ele>1211.879150390625</ele>
        <time>2011-04-18T15:08:18Z</time>
      </trkpt>
      <trkpt lat="32.788758566603065" lon="-1.62775419652462">
        <ele>1211.879150390625</ele>
        <time>2011-04-18T15:08:24Z</time>
      </trkpt>
      <trkpt lat="32.788670472800732" lon="-1.627715053036809">
        <ele>1211.879150390625</ele>
        <time>2011-04-18T15:08:25Z</time>
      </trkpt>
      <trkpt lat="32.787855500355363" lon="-1.627128403633833">
        <ele>1211.3984375</ele>
        <time>2011-04-18T15:08:36Z</time>
      </trkpt>
      <trkpt lat="32.787519637495279" lon="-1.626998484134674">
        <ele>1211.879150390625</ele>
        <time>2011-04-18T15:08:42Z</time>
      </trkpt>
      <trkpt lat="32.78707698918879" lon="-1.627025306224823">
        <ele>1212.35986328125</ele>
        <time>2011-04-18T15:08:50Z</time>
      </trkpt>
      <trkpt lat="32.786788232624531" lon="-1.627103928476572">
        <ele>1212.840576171875</ele>
        <time>2011-04-18T15:08:56Z</time>
      </trkpt>
      <trkpt lat="32.786525627598166" lon="-1.627206690609455">
        <ele>1213.3212890625</ele>
        <time>2011-04-18T15:09:01Z</time>
      </trkpt>
      <trkpt lat="32.786424793303013" lon="-1.627321941778064">
        <ele>1213.3212890625</ele>
        <time>2011-04-18T15:09:03Z</time>
      </trkpt>
      <trkpt lat="32.785829091444612" lon="-1.627500057220459">
        <ele>1214.282470703125</ele>
        <time>2011-04-18T15:09:12Z</time>
      </trkpt>
      <trkpt lat="32.785113612189889" lon="-1.62748496979475">
        <ele>1215.724609375</ele>
        <time>2011-04-18T15:09:21Z</time>
      </trkpt>
      <trkpt lat="32.784770792350173" lon="-1.627386482432485">
        <ele>1216.205078125</ele>
        <time>2011-04-18T15:09:26Z</time>
      </trkpt>
      <trkpt lat="32.78464749455452" lon="-1.627348596230149">
        <ele>1216.205078125</ele>
        <time>2011-04-18T15:09:28Z</time>
      </trkpt>
      <trkpt lat="32.784297466278076" lon="-1.627285480499268">
        <ele>1218.6083984375</ele>
        <time>2011-04-18T15:09:34Z</time>
      </trkpt>
      <trkpt lat="32.784124547615647" lon="-1.627612374722958">
        <ele>1217.64697265625</ele>
        <time>2011-04-18T15:09:40Z</time>
      </trkpt>
      <trkpt lat="32.784060006961226" lon="-1.627841871231794">
        <ele>1216.205078125</ele>
        <time>2011-04-18T15:09:43Z</time>
      </trkpt>
      <trkpt lat="32.783852471038699" lon="-1.628450145944953">
        <ele>1213.3212890625</ele>
        <time>2011-04-18T15:09:51Z</time>
      </trkpt>
      <trkpt lat="32.783749541267753" lon="-1.62876270711422">
        <ele>1211.879150390625</ele>
        <time>2011-04-18T15:09:56Z</time>
      </trkpt>
      <trkpt lat="32.783620962873101" lon="-1.629134612157941">
        <ele>1212.840576171875</ele>
        <time>2011-04-18T15:10:05Z</time>
      </trkpt>
      <trkpt lat="32.783480901271105" lon="-1.629299987107515">
        <ele>1213.8017578125</ele>
        <time>2011-04-18T15:10:09Z</time>
      </trkpt>
      <trkpt lat="32.783367829397321" lon="-1.629399983212352">
        <ele>1214.282470703125</ele>
        <time>2011-04-18T15:10:12Z</time>
      </trkpt>
      <trkpt lat="32.783204130828381" lon="-1.629568208009005">
        <ele>1213.3212890625</ele>
        <time>2011-04-18T15:10:16Z</time>
      </trkpt>
      <trkpt lat="32.783072032034397" lon="-1.629865095019341">
        <ele>1213.3212890625</ele>
        <time>2011-04-18T15:10:21Z</time>
      </trkpt>
      <trkpt lat="32.782967090606689" lon="-1.630160808563232">
        <ele>1212.840576171875</ele>
        <time>2011-04-18T15:10:28Z</time>
      </trkpt>
      <trkpt lat="32.782961223274469" lon="-1.630312688648701">
        <ele>1213.8017578125</ele>
        <time>2011-04-18T15:10:43Z</time>
      </trkpt>
      <trkpt lat="32.782778078690171" lon="-1.630537323653698">
        <ele>1214.282470703125</ele>
        <time>2011-04-18T15:10:51Z</time>
      </trkpt>
      <trkpt lat="32.782825687900186" lon="-1.630917778238654">
        <ele>1212.840576171875</ele>
        <time>2011-04-18T15:10:59Z</time>
      </trkpt>
      <trkpt lat="32.782907159999013" lon="-1.63114526309073">
        <ele>1212.35986328125</ele>
        <time>2011-04-18T15:11:07Z</time>
      </trkpt>
      <trkpt lat="32.783006150275469" lon="-1.631127577275038">
        <ele>1214.282470703125</ele>
        <time>2011-04-18T15:11:14Z</time>
      </trkpt>
      <trkpt lat="32.782856868579984" lon="-1.631082398816943">
        <ele>1218.127685546875</ele>
        <time>2011-04-18T15:11:23Z</time>
      </trkpt>
      <trkpt lat="32.782729547470808" lon="-1.631084075197578">
        <ele>1223.4150390625</ele>
        <time>2011-04-18T15:11:38Z</time>
      </trkpt>
      <trkpt lat="32.782344818115234" lon="-1.630611419677734">
        <ele>1224.85693359375</ele>
        <time>2011-04-18T15:11:46Z</time>
      </trkpt>
      <trkpt lat="32.782212467864156" lon="-1.630479069426656">
        <ele>1227.26025390625</ele>
        <time>2011-04-18T15:11:55Z</time>
      </trkpt>
      <trkpt lat="32.781728664413095" lon="-1.631193542852998">
        <ele>1229.66357421875</ele>
        <time>2011-04-18T15:11:58Z</time>
      </trkpt>
      <trkpt lat="32.781432699412107" lon="-1.63133192807436">
        <ele>1232.547607421875</ele>
        <time>2011-04-18T15:12:05Z</time>
      </trkpt>
      <trkpt lat="32.781343935057521" lon="-1.631299741566181">
        <ele>1233.5087890625</ele>
        <time>2011-04-18T15:12:07Z</time>
      </trkpt>
      <trkpt lat="32.781228935346007" lon="-1.631328072398901">
        <ele>1236.392822265625</ele>
        <time>2011-04-18T15:12:15Z</time>
      </trkpt>
      <trkpt lat="32.780978148803115" lon="-1.631223717704415">
        <ele>1237.35400390625</ele>
        <time>2011-04-18T15:12:28Z</time>
      </trkpt>
      <trkpt lat="32.780729122459888" lon="-1.630888022482395">
        <ele>1237.35400390625</ele>
        <time>2011-04-18T15:12:37Z</time>
      </trkpt>
      <trkpt lat="32.780534578487277" lon="-1.630636230111122">
        <ele>1240.238037109375</ele>
        <time>2011-04-18T15:12:44Z</time>
      </trkpt>
      <trkpt lat="32.78038127347827" lon="-1.630456270650029">
        <ele>1242.641357421875</ele>
        <time>2011-04-18T15:12:49Z</time>
      </trkpt>
      <trkpt lat="32.780233668163419" lon="-1.630048491060734">
        <ele>1240.238037109375</ele>
        <time>2011-04-18T15:12:59Z</time>
      </trkpt>
      <trkpt lat="32.780066784471273" lon="-1.629887642338872">
        <ele>1242.641357421875</ele>
        <time>2011-04-18T15:13:06Z</time>
      </trkpt>
      <trkpt lat="32.779792528599501" lon="-1.629613218829036">
        <ele>1244.56396484375</ele>
        <time>2011-04-18T15:13:17Z</time>
      </trkpt>
      <trkpt lat="32.77951056137681" lon="-1.62944876588881">
        <ele>1248.4091796875</ele>
        <time>2011-04-18T15:13:28Z</time>
      </trkpt>
      <trkpt lat="32.779129017144442" lon="-1.629328150302172">
        <ele>1251.293212890625</ele>
        <time>2011-04-18T15:13:40Z</time>
      </trkpt>
      <trkpt lat="32.778902957215905" lon="-1.62917903624475">
        <ele>1252.25439453125</ele>
        <time>2011-04-18T15:13:46Z</time>
      </trkpt>
      <trkpt lat="32.778776725754142" lon="-1.628933195024729">
        <ele>1250.8125</ele>
        <time>2011-04-18T15:13:54Z</time>
      </trkpt>
      <trkpt lat="32.778655858710408" lon="-1.628676373511553">
        <ele>1250.33203125</ele>
        <time>2011-04-18T15:14:00Z</time>
      </trkpt>
      <trkpt lat="32.778355032205582" lon="-1.628345539793372">
        <ele>1253.696533203125</ele>
        <time>2011-04-18T15:14:09Z</time>
      </trkpt>
      <trkpt lat="32.778194267302752" lon="-1.628202795982361">
        <ele>1254.65771484375</ele>
        <time>2011-04-18T15:14:16Z</time>
      </trkpt>
      <trkpt lat="32.778100725263357" lon="-1.628170944750309">
        <ele>1254.65771484375</ele>
        <time>2011-04-18T15:14:19Z</time>
      </trkpt>
      <trkpt lat="32.777989916503429" lon="-1.628099950030446">
        <ele>1254.65771484375</ele>
        <time>2011-04-18T15:14:22Z</time>
      </trkpt>
      <trkpt lat="32.777698645368218" lon="-1.627962067723274">
        <ele>1256.099609375</ele>
        <time>2011-04-18T15:14:30Z</time>
      </trkpt>
      <trkpt lat="32.777568893507123" lon="-1.627788646146655">
        <ele>1256.580322265625</ele>
        <time>2011-04-18T15:14:36Z</time>
      </trkpt>
      <trkpt lat="32.777300840243697" lon="-1.627464266493917">
        <ele>1258.983642578125</ele>
        <time>2011-04-18T15:14:46Z</time>
      </trkpt>
      <trkpt lat="32.777051981538534" lon="-1.627241726964712">
        <ele>1260.906494140625</ele>
        <time>2011-04-18T15:14:54Z</time>
      </trkpt>
      <trkpt lat="32.776938239112496" lon="-1.627085991203785">
        <ele>1261.38720703125</ele>
        <time>2011-04-18T15:14:59Z</time>
      </trkpt>
      <trkpt lat="32.776940166950226" lon="-1.626896224915981">
        <ele>1258.0224609375</ele>
        <time>2011-04-18T15:15:03Z</time>
      </trkpt>
      <trkpt lat="32.776790130883455" lon="-1.626394148916006">
        <ele>1254.17724609375</ele>
        <time>2011-04-18T15:15:14Z</time>
      </trkpt>
      <trkpt lat="32.776705389842391" lon="-1.626126347109675">
        <ele>1251.77392578125</ele>
        <time>2011-04-18T15:15:22Z</time>
      </trkpt>
      <trkpt lat="32.776675131171942" lon="-1.626002043485642">
        <ele>1249.851318359375</ele>
        <time>2011-04-18T15:15:25Z</time>
      </trkpt>
      <trkpt lat="32.776466505602002" lon="-1.625839602202177">
        <ele>1248.889892578125</ele>
        <time>2011-04-18T15:15:34Z</time>
      </trkpt>
      <trkpt lat="32.776752831414342" lon="-1.625868687406182">
        <ele>1204.669189453125</ele>
        <time>2011-04-18T15:18:55Z</time>
      </trkpt>
      <trkpt lat="32.776369526982307" lon="-1.625800793990493">
        <ele>1202.74658203125</ele>
        <time>2011-04-18T15:19:08Z</time>
      </trkpt>
      <trkpt lat="32.775938110426068" lon="-1.625691577792168">
        <ele>1202.265869140625</ele>
        <time>2011-04-18T15:19:17Z</time>
      </trkpt>
      <trkpt lat="32.775333439931273" lon="-1.625475659966469">
        <ele>1202.265869140625</ele>
        <time>2011-04-18T15:19:28Z</time>
      </trkpt>
      <trkpt lat="32.774833794683218" lon="-1.625172235071659">
        <ele>1202.265869140625</ele>
        <time>2011-04-18T15:19:36Z</time>
      </trkpt>
      <trkpt lat="32.774602118879557" lon="-1.62516301497817">
        <ele>1201.785400390625</ele>
        <time>2011-04-18T15:19:40Z</time>
      </trkpt>
      <trkpt lat="32.774177994579077" lon="-1.625160751864314">
        <ele>1201.785400390625</ele>
        <time>2011-04-18T15:19:46Z</time>
      </trkpt>
      <trkpt lat="32.773896027356386" lon="-1.624992191791534">
        <ele>1201.785400390625</ele>
        <time>2011-04-18T15:19:52Z</time>
      </trkpt>
      <trkpt lat="32.773745153099298" lon="-1.624768059700728">
        <ele>1202.265869140625</ele>
        <time>2011-04-18T15:19:58Z</time>
      </trkpt>
      <trkpt lat="32.773771388456225" lon="-1.624613665044308">
        <ele>1202.265869140625</ele>
        <time>2011-04-18T15:20:03Z</time>
      </trkpt>
      <trkpt lat="32.773746075108647" lon="-1.624151905998588">
        <ele>1202.265869140625</ele>
        <time>2011-04-18T15:20:10Z</time>
      </trkpt>
      <trkpt lat="32.77348036877811" lon="-1.623295191675425">
        <ele>1204.188720703125</ele>
        <time>2011-04-18T15:20:19Z</time>
      </trkpt>
      <trkpt lat="32.773436112329364" lon="-1.623036023229361">
        <ele>1203.7080078125</ele>
        <time>2011-04-18T15:20:22Z</time>
      </trkpt>
      <trkpt lat="32.773417169228196" lon="-1.622922029346228">
        <ele>1203.7080078125</ele>
        <time>2011-04-18T15:20:24Z</time>
      </trkpt>
      <trkpt lat="32.773395627737045" lon="-1.622797390446067">
        <ele>1203.7080078125</ele>
        <time>2011-04-18T15:20:26Z</time>
      </trkpt>
      <trkpt lat="32.77320384979248" lon="-1.622106805443764">
        <ele>1203.7080078125</ele>
        <time>2011-04-18T15:20:35Z</time>
      </trkpt>
      <trkpt lat="32.773226061835885" lon="-1.621841937303543">
        <ele>1203.7080078125</ele>
        <time>2011-04-18T15:20:39Z</time>
      </trkpt>
      <trkpt lat="32.773246765136719" lon="-1.62154421210289">
        <ele>1203.7080078125</ele>
        <time>2011-04-18T15:20:44Z</time>
      </trkpt>
      <trkpt lat="32.773190187290311" lon="-1.620935937389731">
        <ele>1203.7080078125</ele>
        <time>2011-04-18T15:20:51Z</time>
      </trkpt>
      <trkpt lat="32.77293118648231" lon="-1.620584484189749">
        <ele>1205.14990234375</ele>
        <time>2011-04-18T15:20:58Z</time>
      </trkpt>
      <trkpt lat="32.772761452943087" lon="-1.620545424520969">
        <ele>1204.669189453125</ele>
        <time>2011-04-18T15:21:01Z</time>
      </trkpt>
      <trkpt lat="32.772077741101384" lon="-1.620612144470215">
        <ele>1204.669189453125</ele>
        <time>2011-04-18T15:21:11Z</time>
      </trkpt>
      <trkpt lat="32.771881856024265" lon="-1.620612144470215">
        <ele>1205.14990234375</ele>
        <time>2011-04-18T15:21:14Z</time>
      </trkpt>
      <trkpt lat="32.771504921838641" lon="-1.620559757575393">
        <ele>1206.591796875</ele>
        <time>2011-04-18T15:21:20Z</time>
      </trkpt>
      <trkpt lat="32.771249357610941" lon="-1.620512399822474">
        <ele>1208.9951171875</ele>
        <time>2011-04-18T15:21:24Z</time>
      </trkpt>
      <trkpt lat="32.771032014861703" lon="-1.620398992672563">
        <ele>1210.917724609375</ele>
        <time>2011-04-18T15:21:28Z</time>
      </trkpt>
      <trkpt lat="32.77070352807641" lon="-1.620298074558377">
        <ele>1212.840576171875</ele>
        <time>2011-04-18T15:21:35Z</time>
      </trkpt>
      <trkpt lat="32.770275380462408" lon="-1.620073691010475">
        <ele>1214.282470703125</ele>
        <time>2011-04-18T15:21:43Z</time>
      </trkpt>
      <trkpt lat="32.770012021064758" lon="-1.619886523112655">
        <ele>1215.243896484375</ele>
        <time>2011-04-18T15:21:48Z</time>
      </trkpt>
      <trkpt lat="32.76959921233356" lon="-1.619564490392804">
        <ele>1216.685791015625</ele>
        <time>2011-04-18T15:21:56Z</time>
      </trkpt>
      <trkpt lat="32.769501311704516" lon="-1.619482850655913">
        <ele>1217.16650390625</ele>
        <time>2011-04-18T15:21:58Z</time>
      </trkpt>
      <trkpt lat="32.769301403313875" lon="-1.61934295669198">
        <ele>1217.64697265625</ele>
        <time>2011-04-18T15:22:02Z</time>
      </trkpt>
      <trkpt lat="32.768985573202372" lon="-1.619148580357432">
        <ele>1220.05029296875</ele>
        <time>2011-04-18T15:22:08Z</time>
      </trkpt>
      <trkpt lat="32.76861660182476" lon="-1.619154782965779">
        <ele>1220.531005859375</ele>
        <time>2011-04-18T15:22:15Z</time>
      </trkpt>
      <trkpt lat="32.767759719863534" lon="-1.619558539241552">
        <ele>1219.56982421875</ele>
        <time>2011-04-18T15:22:27Z</time>
      </trkpt>
      <trkpt lat="32.767356717959046" lon="-1.61973774433136">
        <ele>1220.531005859375</ele>
        <time>2011-04-18T15:22:32Z</time>
      </trkpt>
      <trkpt lat="32.767071230337024" lon="-1.619897251948714">
        <ele>1221.01171875</ele>
        <time>2011-04-18T15:22:37Z</time>
      </trkpt>
      <trkpt lat="32.766834190115333" lon="-1.620058519765735">
        <ele>1221.01171875</ele>
        <time>2011-04-18T15:22:41Z</time>
      </trkpt>
      <trkpt lat="32.766657499596477" lon="-1.620362866669893">
        <ele>1221.01171875</ele>
        <time>2011-04-18T15:22:45Z</time>
      </trkpt>
      <trkpt lat="32.76628484018147" lon="-1.62105018272996">
        <ele>1222.45361328125</ele>
        <time>2011-04-18T15:22:54Z</time>
      </trkpt>
      <trkpt lat="32.766121393069625" lon="-1.621447820216417">
        <ele>1223.4150390625</ele>
        <time>2011-04-18T15:22:59Z</time>
      </trkpt>
      <trkpt lat="32.76611091569066" lon="-1.621605399996042">
        <ele>1223.4150390625</ele>
        <time>2011-04-18T15:23:01Z</time>
      </trkpt>
      <trkpt lat="32.765996586531401" lon="-1.621889211237431">
        <ele>1223.8955078125</ele>
        <time>2011-04-18T15:23:05Z</time>
      </trkpt>
      <trkpt lat="32.765788044780493" lon="-1.622292632237077">
        <ele>1224.376220703125</ele>
        <time>2011-04-18T15:23:10Z</time>
      </trkpt>
      <trkpt lat="32.765580089762807" lon="-1.622777944430709">
        <ele>1225.33740234375</ele>
        <time>2011-04-18T15:23:16Z</time>
      </trkpt>
      <trkpt lat="32.765543460845947" lon="-1.623155381530523">
        <ele>1225.818115234375</ele>
        <time>2011-04-18T15:23:24Z</time>
      </trkpt>
      <trkpt lat="32.765543460845947" lon="-1.623366940766573">
        <ele>1224.85693359375</ele>
        <time>2011-04-18T15:23:29Z</time>
      </trkpt>
      <trkpt lat="32.765543460845947" lon="-1.623573889955878">
        <ele>1224.85693359375</ele>
        <time>2011-04-18T15:23:33Z</time>
      </trkpt>
      <trkpt lat="32.765403315424919" lon="-1.623956523835659">
        <ele>1224.376220703125</ele>
        <time>2011-04-18T15:23:38Z</time>
      </trkpt>
      <trkpt lat="32.765256045386195" lon="-1.6243533231318">
        <ele>1223.4150390625</ele>
        <time>2011-04-18T15:23:43Z</time>
      </trkpt>
      <trkpt lat="32.765373894944787" lon="-1.625130660831928">
        <ele>1221.4921875</ele>
        <time>2011-04-18T15:23:51Z</time>
      </trkpt>
      <trkpt lat="32.765313293784857" lon="-1.625647908076644">
        <ele>1221.4921875</ele>
        <time>2011-04-18T15:23:56Z</time>
      </trkpt>
      <trkpt lat="32.765079606324434" lon="-1.626600008457899">
        <ele>1220.531005859375</ele>
        <time>2011-04-18T15:24:04Z</time>
      </trkpt>
      <trkpt lat="32.764706863090396" lon="-1.627214401960373">
        <ele>1221.01171875</ele>
        <time>2011-04-18T15:24:10Z</time>
      </trkpt>
      <trkpt lat="32.764174696058035" lon="-1.627529142424464">
        <ele>1221.4921875</ele>
        <time>2011-04-18T15:24:15Z</time>
      </trkpt>
      <trkpt lat="32.763195689767599" lon="-1.627650260925293">
        <ele>1221.4921875</ele>
        <time>2011-04-18T15:24:24Z</time>
      </trkpt>
      <trkpt lat="32.7623494528234" lon="-1.627503074705601">
        <ele>1221.01171875</ele>
        <time>2011-04-18T15:24:33Z</time>
      </trkpt>
      <trkpt lat="32.761572701856494" lon="-1.627435684204102">
        <ele>1221.4921875</ele>
        <time>2011-04-18T15:24:41Z</time>
      </trkpt>
      <trkpt lat="32.760934252291918" lon="-1.627392768859863">
        <ele>1221.972900390625</ele>
        <time>2011-04-18T15:24:49Z</time>
      </trkpt>
      <trkpt lat="32.760776504874229" lon="-1.627392768859863">
        <ele>1222.45361328125</ele>
        <time>2011-04-18T15:24:51Z</time>
      </trkpt>
      <trkpt lat="32.760405773296952" lon="-1.627560239285231">
        <ele>1222.934326171875</ele>
        <time>2011-04-18T15:24:57Z</time>
      </trkpt>
      <trkpt lat="32.760071586817503" lon="-1.627746988087893">
        <ele>1223.8955078125</ele>
        <time>2011-04-18T15:25:02Z</time>
      </trkpt>
      <trkpt lat="32.759396843612194" lon="-1.627904484048486">
        <ele>1224.85693359375</ele>
        <time>2011-04-18T15:25:11Z</time>
      </trkpt>
      <trkpt lat="32.759108003228903" lon="-1.62808352150023">
        <ele>1225.818115234375</ele>
        <time>2011-04-18T15:25:16Z</time>
      </trkpt>
      <trkpt lat="32.758896360173821" lon="-1.628125766292214">
        <ele>1226.779541015625</ele>
        <time>2011-04-18T15:25:20Z</time>
      </trkpt>
      <trkpt lat="32.758757639676332" lon="-1.628126269206405">
        <ele>1226.779541015625</ele>
        <time>2011-04-18T15:25:22Z</time>
      </trkpt>
      <trkpt lat="32.758247768506408" lon="-1.627787556499243">
        <ele>1226.298828125</ele>
        <time>2011-04-18T15:25:30Z</time>
      </trkpt>
      <trkpt lat="32.758125392720103" lon="-1.62766476161778">
        <ele>1226.298828125</ele>
        <time>2011-04-18T15:25:32Z</time>
      </trkpt>
      <trkpt lat="32.757645528763533" lon="-1.627590581774712">
        <ele>1226.298828125</ele>
        <time>2011-04-18T15:25:38Z</time>
      </trkpt>
      <trkpt lat="32.75703658349812" lon="-1.627509361132979">
        <ele>1226.298828125</ele>
        <time>2011-04-18T15:25:46Z</time>
      </trkpt>
      <trkpt lat="32.756928373128176" lon="-1.627458399161696">
        <ele>1226.298828125</ele>
        <time>2011-04-18T15:25:48Z</time>
      </trkpt>
      <trkpt lat="32.756702061742544" lon="-1.627330742776394">
        <ele>1226.298828125</ele>
        <time>2011-04-18T15:25:52Z</time>
      </trkpt>
      <trkpt lat="32.756555210798979" lon="-1.627225885167718">
        <ele>1226.298828125</ele>
        <time>2011-04-18T15:25:55Z</time>
      </trkpt>
      <trkpt lat="32.756385896354914" lon="-1.627096217125654">
        <ele>1226.779541015625</ele>
        <time>2011-04-18T15:25:59Z</time>
      </trkpt>
      <trkpt lat="32.75626846589148" lon="-1.627002926543355">
        <ele>1226.779541015625</ele>
        <time>2011-04-18T15:26:03Z</time>
      </trkpt>
      <trkpt lat="32.755997562780976" lon="-1.626861104741693">
        <ele>1226.298828125</ele>
        <time>2011-04-18T15:26:08Z</time>
      </trkpt>
      <trkpt lat="32.7552105858922" lon="-1.626943917945027">
        <ele>1227.26025390625</ele>
        <time>2011-04-18T15:26:18Z</time>
      </trkpt>
      <trkpt lat="32.754503404721618" lon="-1.627264022827148">
        <ele>1227.74072265625</ele>
        <time>2011-04-18T15:26:26Z</time>
      </trkpt>
      <trkpt lat="32.754188664257526" lon="-1.627295287325978">
        <ele>1228.2216796875</ele>
        <time>2011-04-18T15:26:31Z</time>
      </trkpt>
      <trkpt lat="32.754081543534994" lon="-1.627318421378732">
        <ele>1228.2216796875</ele>
        <time>2011-04-18T15:26:33Z</time>
      </trkpt>
      <trkpt lat="32.753850454464555" lon="-1.627436857670546">
        <ele>1228.702392578125</ele>
        <time>2011-04-18T15:26:37Z</time>
      </trkpt>
      <trkpt lat="32.753039505332708" lon="-1.628234395757318">
        <ele>1229.182861328125</ele>
        <time>2011-04-18T15:26:48Z</time>
      </trkpt>
      <trkpt lat="32.752699619159102" lon="-1.628336403518915">
        <ele>1230.144287109375</ele>
        <time>2011-04-18T15:26:52Z</time>
      </trkpt>
      <trkpt lat="32.752312710508704" lon="-1.628579730167985">
        <ele>1230.625</ele>
        <time>2011-04-18T15:26:59Z</time>
      </trkpt>
      <trkpt lat="32.752117915078998" lon="-1.628850968554616">
        <ele>1231.105712890625</ele>
        <time>2011-04-18T15:27:07Z</time>
      </trkpt>
      <trkpt lat="32.751683983951807" lon="-1.629045009613037">
        <ele>1232.06689453125</ele>
        <time>2011-04-18T15:27:15Z</time>
      </trkpt>
      <trkpt lat="32.751112673431635" lon="-1.62899237126112">
        <ele>1233.028076171875</ele>
        <time>2011-04-18T15:27:22Z</time>
      </trkpt>
      <trkpt lat="32.750871442258358" lon="-1.629020366817713">
        <ele>1233.5087890625</ele>
        <time>2011-04-18T15:27:25Z</time>
      </trkpt>
      <trkpt lat="32.750536082312465" lon="-1.628971248865128">
        <ele>1234.47021484375</ele>
        <time>2011-04-18T15:27:29Z</time>
      </trkpt>
      <trkpt lat="32.750078598037362" lon="-1.628916263580322">
        <ele>1234.47021484375</ele>
        <time>2011-04-18T15:27:34Z</time>
      </trkpt>
      <trkpt lat="32.749533858150244" lon="-1.628866558894515">
        <ele>1234.950927734375</ele>
        <time>2011-04-18T15:27:40Z</time>
      </trkpt>
      <trkpt lat="32.74918575771153" lon="-1.628696573898196">
        <ele>1234.950927734375</ele>
        <time>2011-04-18T15:27:44Z</time>
      </trkpt>
      <trkpt lat="32.748448150232434" lon="-1.628337828442454">
        <ele>1234.950927734375</ele>
        <time>2011-04-18T15:27:52Z</time>
      </trkpt>
      <trkpt lat="32.748081022873521" lon="-1.628328943625093">
        <ele>1235.912109375</ele>
        <time>2011-04-18T15:27:57Z</time>
      </trkpt>
      <trkpt lat="32.747952109202743" lon="-1.628318969160318">
        <ele>1236.392822265625</ele>
        <time>2011-04-18T15:27:59Z</time>
      </trkpt>
      <trkpt lat="32.747706938534975" lon="-1.628030631691217">
        <ele>1236.873291015625</ele>
        <time>2011-04-18T15:28:05Z</time>
      </trkpt>
      <trkpt lat="32.747421534731984" lon="-1.627343064174056">
        <ele>1233.5087890625</ele>
        <time>2011-04-18T15:28:14Z</time>
      </trkpt>
      <trkpt lat="32.747199581936002" lon="-1.626903098076582">
        <ele>1232.547607421875</ele>
        <time>2011-04-18T15:28:20Z</time>
      </trkpt>
      <trkpt lat="32.746847374364734" lon="-1.626770496368408">
        <ele>1232.06689453125</ele>
        <time>2011-04-18T15:28:25Z</time>
      </trkpt>
      <trkpt lat="32.74668836966157" lon="-1.626828163862228">
        <ele>1232.06689453125</ele>
        <time>2011-04-18T15:28:27Z</time>
      </trkpt>
      <trkpt lat="32.745900303125381" lon="-1.627155561000109">
        <ele>1232.547607421875</ele>
        <time>2011-04-18T15:28:37Z</time>
      </trkpt>
      <trkpt lat="32.745500151067972" lon="-1.62722110748291">
        <ele>1233.028076171875</ele>
        <time>2011-04-18T15:28:42Z</time>
      </trkpt>
      <trkpt lat="32.745098071172833" lon="-1.627294952049851">
        <ele>1233.989501953125</ele>
        <time>2011-04-18T15:28:47Z</time>
      </trkpt>
      <trkpt lat="32.744837980717421" lon="-1.62734130397439">
        <ele>1233.989501953125</ele>
        <time>2011-04-18T15:28:50Z</time>
      </trkpt>
      <trkpt lat="32.744418885558844" lon="-1.62756166420877">
        <ele>1234.950927734375</ele>
        <time>2011-04-18T15:28:55Z</time>
      </trkpt>
      <trkpt lat="32.74354163557291" lon="-1.627807505428791">
        <ele>1234.950927734375</ele>
        <time>2011-04-18T15:29:04Z</time>
      </trkpt>
      <trkpt lat="32.743104267865419" lon="-1.627772469073534">
        <ele>1235.431396484375</ele>
        <time>2011-04-18T15:29:09Z</time>
      </trkpt>
      <trkpt lat="32.742831856012344" lon="-1.627862323075533">
        <ele>1235.912109375</ele>
        <time>2011-04-18T15:29:13Z</time>
      </trkpt>
      <trkpt lat="32.742707300931215" lon="-1.627930216491222">
        <ele>1235.912109375</ele>
        <time>2011-04-18T15:29:15Z</time>
      </trkpt>
      <trkpt lat="32.742505632340908" lon="-1.628114702180028">
        <ele>1236.873291015625</ele>
        <time>2011-04-18T15:29:19Z</time>
      </trkpt>
      <trkpt lat="32.742031384259462" lon="-1.628939062356949">
        <ele>1237.35400390625</ele>
        <time>2011-04-18T15:29:29Z</time>
      </trkpt>
      <trkpt lat="32.741648079827428" lon="-1.629482125863433">
        <ele>1237.834716796875</ele>
        <time>2011-04-18T15:29:36Z</time>
      </trkpt>
      <trkpt lat="32.741379607468843" lon="-1.629564268514514">
        <ele>1238.3154296875</ele>
        <time>2011-04-18T15:29:40Z</time>
      </trkpt>
      <trkpt lat="32.741159582510591" lon="-1.629588408395648">
        <ele>1237.834716796875</ele>
        <time>2011-04-18T15:29:43Z</time>
      </trkpt>
      <trkpt lat="32.740888008847833" lon="-1.629665521904826">
        <ele>1238.3154296875</ele>
        <time>2011-04-18T15:29:47Z</time>
      </trkpt>
      <trkpt lat="32.740631019696593" lon="-1.629836764186621">
        <ele>1238.796142578125</ele>
        <time>2011-04-18T15:29:51Z</time>
      </trkpt>
      <trkpt lat="32.740100361406803" lon="-1.629946231842041">
        <ele>1238.796142578125</ele>
        <time>2011-04-18T15:29:58Z</time>
      </trkpt>
      <trkpt lat="32.739769024774432" lon="-1.62969259545207">
        <ele>1237.35400390625</ele>
        <time>2011-04-18T15:30:05Z</time>
      </trkpt>
      <trkpt lat="32.739673890173435" lon="-1.629453292116523">
        <ele>1235.912109375</ele>
        <time>2011-04-18T15:30:09Z</time>
      </trkpt>
      <trkpt lat="32.73947574198246" lon="-1.629041153937578">
        <ele>1234.47021484375</ele>
        <time>2011-04-18T15:30:17Z</time>
      </trkpt>
      <trkpt lat="32.739050695672631" lon="-1.628545615822077">
        <ele>1233.989501953125</ele>
        <time>2011-04-18T15:30:25Z</time>
      </trkpt>
      <trkpt lat="32.738807201385498" lon="-1.628032140433788">
        <ele>1234.47021484375</ele>
        <time>2011-04-18T15:30:31Z</time>
      </trkpt>
      <trkpt lat="32.738807201385498" lon="-1.627921834588051">
        <ele>1234.47021484375</ele>
        <time>2011-04-18T15:30:32Z</time>
      </trkpt>
      <trkpt lat="32.738863276317716" lon="-1.627546409144998">
        <ele>1233.989501953125</ele>
        <time>2011-04-18T15:30:36Z</time>
      </trkpt>
      <trkpt lat="32.738935947418213" lon="-1.627220436930656">
        <ele>1233.5087890625</ele>
        <time>2011-04-18T15:30:40Z</time>
      </trkpt>
      <trkpt lat="32.738920524716377" lon="-1.626929584890604">
        <ele>1232.547607421875</ele>
        <time>2011-04-18T15:30:44Z</time>
      </trkpt>
      <trkpt lat="32.738668313249946" lon="-1.626704782247543">
        <ele>1231.586181640625</ele>
        <time>2011-04-18T15:30:50Z</time>
      </trkpt>
      <trkpt lat="32.737817550078034" lon="-1.626562625169754">
        <ele>1233.028076171875</ele>
        <time>2011-04-18T15:31:00Z</time>
      </trkpt>
      <trkpt lat="32.737529296427965" lon="-1.626588860526681">
        <ele>1233.5087890625</ele>
        <time>2011-04-18T15:31:03Z</time>
      </trkpt>
      <trkpt lat="32.737065693363547" lon="-1.626412505283952">
        <ele>1235.431396484375</ele>
        <time>2011-04-18T15:31:09Z</time>
      </trkpt>
      <trkpt lat="32.736993608996272" lon="-1.626031631603837">
        <ele>1237.834716796875</ele>
        <time>2011-04-18T15:31:15Z</time>
      </trkpt>
      <trkpt lat="32.737035937607288" lon="-1.625904645770788">
        <ele>1238.3154296875</ele>
        <time>2011-04-18T15:31:17Z</time>
      </trkpt>
      <trkpt lat="32.737037613987923" lon="-1.625132504850626">
        <ele>1242.16064453125</ele>
        <time>2011-04-18T15:31:27Z</time>
      </trkpt>
      <trkpt lat="32.736943736672401" lon="-1.624407386407256">
        <ele>1239.75732421875</ele>
        <time>2011-04-18T15:31:35Z</time>
      </trkpt>
      <trkpt lat="32.736854385584593" lon="-1.624170681461692">
        <ele>1239.276611328125</ele>
        <time>2011-04-18T15:31:38Z</time>
      </trkpt>
      <trkpt lat="32.736720526590943" lon="-1.623926348984242">
        <ele>1238.796142578125</ele>
        <time>2011-04-18T15:31:43Z</time>
      </trkpt>
      <trkpt lat="32.736285589635372" lon="-1.623656954616308">
        <ele>1241.19921875</ele>
        <time>2011-04-18T15:31:50Z</time>
      </trkpt>
      <trkpt lat="32.735986690968275" lon="-1.623578500002623">
        <ele>1242.16064453125</ele>
        <time>2011-04-18T15:31:54Z</time>
      </trkpt>
      <trkpt lat="32.735817041248083" lon="-1.623261915519834">
        <ele>1242.641357421875</ele>
        <time>2011-04-18T15:32:00Z</time>
      </trkpt>
      <trkpt lat="32.735697766765952" lon="-1.622853633016348">
        <ele>1241.19921875</ele>
        <time>2011-04-18T15:32:05Z</time>
      </trkpt>
      <trkpt lat="32.735775969922543" lon="-1.622414337471128">
        <ele>1238.796142578125</ele>
        <time>2011-04-18T15:32:12Z</time>
      </trkpt>
      <trkpt lat="32.73586917668581" lon="-1.62231182679534">
        <ele>1238.3154296875</ele>
        <time>2011-04-18T15:32:14Z</time>
      </trkpt>
      <trkpt lat="32.736071851104498" lon="-1.621848559007049">
        <ele>1236.873291015625</ele>
        <time>2011-04-18T15:32:21Z</time>
      </trkpt>
      <trkpt lat="32.736016446724534" lon="-1.621571369469166">
        <ele>1234.47021484375</ele>
        <time>2011-04-18T15:32:25Z</time>
      </trkpt>
      <trkpt lat="32.736027091741562" lon="-1.621060324832797">
        <ele>1231.586181640625</ele>
        <time>2011-04-18T15:32:31Z</time>
      </trkpt>
      <trkpt lat="32.736095068976283" lon="-1.620704848319292">
        <ele>1229.182861328125</ele>
        <time>2011-04-18T15:32:35Z</time>
      </trkpt>
      <trkpt lat="32.7362478710711" lon="-1.620229510590434">
        <ele>1227.26025390625</ele>
        <time>2011-04-18T15:32:40Z</time>
      </trkpt>
      <trkpt lat="32.73626446723938" lon="-1.619571363553405">
        <ele>1225.818115234375</ele>
        <time>2011-04-18T15:32:47Z</time>
      </trkpt>
      <trkpt lat="32.736018039286137" lon="-1.619231896474958">
        <ele>1227.26025390625</ele>
        <time>2011-04-18T15:32:51Z</time>
      </trkpt>
      <trkpt lat="32.735042721033096" lon="-1.618424048647285">
        <ele>1231.105712890625</ele>
        <time>2011-04-18T15:33:02Z</time>
      </trkpt>
      <trkpt lat="32.733976375311613" lon="-1.617488628253341">
        <ele>1234.47021484375</ele>
        <time>2011-04-18T15:33:14Z</time>
      </trkpt>
      <trkpt lat="32.733553256839514" lon="-1.617116052657366">
        <ele>1236.392822265625</ele>
        <time>2011-04-18T15:33:19Z</time>
      </trkpt>
      <trkpt lat="32.732939617708325" lon="-1.616916228085756">
        <ele>1237.834716796875</ele>
        <time>2011-04-18T15:33:27Z</time>
      </trkpt>
      <trkpt lat="32.73229924030602" lon="-1.616294961422682">
        <ele>1236.873291015625</ele>
        <time>2011-04-18T15:33:40Z</time>
      </trkpt>
      <trkpt lat="32.732131853699684" lon="-1.616078624501824">
        <ele>1236.873291015625</ele>
        <time>2011-04-18T15:33:44Z</time>
      </trkpt>
      <trkpt lat="32.731973016634583" lon="-1.615691380575299">
        <ele>1236.392822265625</ele>
        <time>2011-04-18T15:33:49Z</time>
      </trkpt>
      <trkpt lat="32.731743939220905" lon="-1.6154910530895">
        <ele>1236.392822265625</ele>
        <time>2011-04-18T15:33:53Z</time>
      </trkpt>
      <trkpt lat="32.731030052527785" lon="-1.614916389808059">
        <ele>1237.834716796875</ele>
        <time>2011-04-18T15:34:03Z</time>
      </trkpt>
      <trkpt lat="32.730758897960186" lon="-1.614736681804061">
        <ele>1237.834716796875</ele>
        <time>2011-04-18T15:34:07Z</time>
      </trkpt>
      <trkpt lat="32.730233017355204" lon="-1.614793762564659">
        <ele>1238.796142578125</ele>
        <time>2011-04-18T15:34:14Z</time>
      </trkpt>
      <trkpt lat="32.730148611590266" lon="-1.614842964336276">
        <ele>1238.3154296875</ele>
        <time>2011-04-18T15:34:15Z</time>
      </trkpt>
      <trkpt lat="32.729844516143203" lon="-1.615050248801708">
        <ele>1239.276611328125</ele>
        <time>2011-04-18T15:34:19Z</time>
      </trkpt>
      <trkpt lat="32.729627005755901" lon="-1.615352751687169">
        <ele>1239.276611328125</ele>
        <time>2011-04-18T15:34:23Z</time>
      </trkpt>
      <trkpt lat="32.729401113465428" lon="-1.615699091926217">
        <ele>1238.3154296875</ele>
        <time>2011-04-18T15:34:27Z</time>
      </trkpt>
      <trkpt lat="32.728930804878473" lon="-1.616166215389967">
        <ele>1239.276611328125</ele>
        <time>2011-04-18T15:34:34Z</time>
      </trkpt>
      <trkpt lat="32.728561917319894" lon="-1.616648845374584">
        <ele>1242.16064453125</ele>
        <time>2011-04-18T15:34:42Z</time>
      </trkpt>
      <trkpt lat="32.728292774409056" lon="-1.617093421518803">
        <ele>1243.6025390625</ele>
        <time>2011-04-18T15:34:49Z</time>
      </trkpt>
      <trkpt lat="32.727895472198725" lon="-1.617611506953836">
        <ele>1246.006103515625</ele>
        <time>2011-04-18T15:34:57Z</time>
      </trkpt>
      <trkpt lat="32.727512922137976" lon="-1.617629528045654">
        <ele>1247.9287109375</ele>
        <time>2011-04-18T15:35:04Z</time>
      </trkpt>
      <trkpt lat="32.727277306839824" lon="-1.617623995989561">
        <ele>1245.044677734375</ele>
        <time>2011-04-18T15:35:10Z</time>
      </trkpt>
      <trkpt lat="32.72698444314301" lon="-1.617649644613266">
        <ele>1246.006103515625</ele>
        <time>2011-04-18T15:35:15Z</time>
      </trkpt>
      <trkpt lat="32.726985113695264" lon="-1.617421740666032">
        <ele>1244.08349609375</ele>
        <time>2011-04-18T15:35:20Z</time>
      </trkpt>
      <trkpt lat="32.727306308224797" lon="-1.616569636389613">
        <ele>1237.834716796875</ele>
        <time>2011-04-18T15:35:34Z</time>
      </trkpt>
      <trkpt lat="32.727403622120619" lon="-1.616006037220359">
        <ele>1235.912109375</ele>
        <time>2011-04-18T15:35:40Z</time>
      </trkpt>
      <trkpt lat="32.727296836674213" lon="-1.615520641207695">
        <ele>1235.431396484375</ele>
        <time>2011-04-18T15:35:46Z</time>
      </trkpt>
      <trkpt lat="32.727043200284243" lon="-1.615309920161963">
        <ele>1235.431396484375</ele>
        <time>2011-04-18T15:35:51Z</time>
      </trkpt>
      <trkpt lat="32.726683197543025" lon="-1.615080172196031">
        <ele>1235.912109375</ele>
        <time>2011-04-18T15:35:56Z</time>
      </trkpt>
      <trkpt lat="32.726010382175446" lon="-1.614638781175017">
        <ele>1245.044677734375</ele>
        <time>2011-04-18T15:36:03Z</time>
      </trkpt>
      <trkpt lat="32.725564297288656" lon="-1.614231253042817">
        <ele>1251.77392578125</ele>
        <time>2011-04-18T15:36:09Z</time>
      </trkpt>
      <trkpt lat="32.725204546004534" lon="-1.613817773759365">
        <ele>1257.541748046875</ele>
        <time>2011-04-18T15:36:16Z</time>
      </trkpt>
      <trkpt lat="32.725005811080337" lon="-1.613494902849197">
        <ele>1261.38720703125</ele>
        <time>2011-04-18T15:36:21Z</time>
      </trkpt>
      <trkpt lat="32.724889637902379" lon="-1.613080250099301">
        <ele>1263.790283203125</ele>
        <time>2011-04-18T15:36:27Z</time>
      </trkpt>
      <trkpt lat="32.724768100306392" lon="-1.61254464648664">
        <ele>1264.751708984375</ele>
        <time>2011-04-18T15:36:34Z</time>
      </trkpt>
      <trkpt lat="32.724730549380183" lon="-1.612283550202847">
        <ele>1264.27099609375</ele>
        <time>2011-04-18T15:36:37Z</time>
      </trkpt>
      <trkpt lat="32.724717389792204" lon="-1.611624984070659">
        <ele>1264.27099609375</ele>
        <time>2011-04-18T15:36:47Z</time>
      </trkpt>
      <trkpt lat="32.724755946546793" lon="-1.61142373457551">
        <ele>1264.27099609375</ele>
        <time>2011-04-18T15:36:51Z</time>
      </trkpt>
      <trkpt lat="32.724809255450964" lon="-1.61081244237721">
        <ele>1264.751708984375</ele>
        <time>2011-04-18T15:36:59Z</time>
      </trkpt>
      <trkpt lat="32.724769609048963" lon="-1.61052561365068">
        <ele>1264.751708984375</ele>
        <time>2011-04-18T15:37:03Z</time>
      </trkpt>
      <trkpt lat="32.724625440314412" lon="-1.609637634828687">
        <ele>1266.193603515625</ele>
        <time>2011-04-18T15:37:13Z</time>
      </trkpt>
      <trkpt lat="32.724525695666671" lon="-1.608893405646086">
        <ele>1266.193603515625</ele>
        <time>2011-04-18T15:37:21Z</time>
      </trkpt>
      <trkpt lat="32.724200142547488" lon="-1.607916578650475">
        <ele>1267.155029296875</ele>
        <time>2011-04-18T15:37:31Z</time>
      </trkpt>
      <trkpt lat="32.724323272705078" lon="-1.607457920908928">
        <ele>1267.155029296875</ele>
        <time>2011-04-18T15:37:36Z</time>
      </trkpt>
      <trkpt lat="32.724179942160845" lon="-1.606991970911622">
        <ele>1267.635498046875</ele>
        <time>2011-04-18T15:37:40Z</time>
      </trkpt>
      <trkpt lat="32.724071061238647" lon="-1.606872109696269">
        <ele>1267.635498046875</ele>
        <time>2011-04-18T15:37:42Z</time>
      </trkpt>
      <trkpt lat="32.723937034606934" lon="-1.606437508016825">
        <ele>1269.558349609375</ele>
        <time>2011-04-18T15:37:49Z</time>
      </trkpt>
      <trkpt lat="32.723935693502426" lon="-1.606163755059242">
        <ele>1270.51953125</ele>
        <time>2011-04-18T15:37:56Z</time>
      </trkpt>
      <trkpt lat="32.723918175324798" lon="-1.605478702113032">
        <ele>1271.000244140625</ele>
        <time>2011-04-18T15:38:04Z</time>
      </trkpt>
      <trkpt lat="32.723979949951172" lon="-1.604475975036621">
        <ele>1271.480712890625</ele>
        <time>2011-04-18T15:38:14Z</time>
      </trkpt>
      <trkpt lat="32.724067373201251" lon="-1.604132233187556">
        <ele>1271.480712890625</ele>
        <time>2011-04-18T15:38:18Z</time>
      </trkpt>
      <trkpt lat="32.724126800894737" lon="-1.603478444740176">
        <ele>1274.845458984375</ele>
        <time>2011-04-18T15:38:26Z</time>
      </trkpt>
      <trkpt lat="32.724125627428293" lon="-1.603178791701794">
        <ele>1274.845458984375</ele>
        <time>2011-04-18T15:38:30Z</time>
      </trkpt>
      <trkpt lat="32.724052369594574" lon="-1.602752571925521">
        <ele>1274.845458984375</ele>
        <time>2011-04-18T15:38:35Z</time>
      </trkpt>
      <trkpt lat="32.723958240821958" lon="-1.602519638836384">
        <ele>1275.325927734375</ele>
        <time>2011-04-18T15:38:38Z</time>
      </trkpt>
      <trkpt lat="32.723769061267376" lon="-1.602352168411017">
        <ele>1271.000244140625</ele>
        <time>2011-04-18T15:38:44Z</time>
      </trkpt>
      <trkpt lat="32.723479550331831" lon="-1.602114289999008">
        <ele>1267.155029296875</ele>
        <time>2011-04-18T15:38:50Z</time>
      </trkpt>
      <trkpt lat="32.7233861759305" lon="-1.602094173431397">
        <ele>1266.193603515625</ele>
        <time>2011-04-18T15:38:52Z</time>
      </trkpt>
      <trkpt lat="32.723008068278432" lon="-1.602138848975301">
        <ele>1264.27099609375</ele>
        <time>2011-04-18T15:38:58Z</time>
      </trkpt>
      <trkpt lat="32.722382107749581" lon="-1.602180004119873">
        <ele>1265.713134765625</ele>
        <time>2011-04-18T15:39:07Z</time>
      </trkpt>
      <trkpt lat="32.722102906554937" lon="-1.60223800688982">
        <ele>1263.790283203125</ele>
        <time>2011-04-18T15:39:14Z</time>
      </trkpt>
      <trkpt lat="32.721273098140955" lon="-1.602087887004018">
        <ele>1262.8291015625</ele>
        <time>2011-04-18T15:39:22Z</time>
      </trkpt>
      <trkpt lat="32.721190452575684" lon="-1.601922512054443">
        <ele>1259.46435546875</ele>
        <time>2011-04-18T15:39:30Z</time>
      </trkpt>
      <trkpt lat="32.721385499462485" lon="-1.601578686386347">
        <ele>1255.138427734375</ele>
        <time>2011-04-18T15:39:42Z</time>
      </trkpt>
      <trkpt lat="32.721299333497882" lon="-1.60214027389884">
        <ele>1248.889892578125</ele>
        <time>2011-04-18T15:39:53Z</time>
      </trkpt>
      <trkpt lat="32.72138231433928" lon="-1.602306319400668">
        <ele>1246.96728515625</ele>
        <time>2011-04-18T15:40:02Z</time>
      </trkpt>
      <trkpt lat="32.721320874989033" lon="-1.602183440700173">
        <ele>1248.4091796875</ele>
        <time>2011-04-18T15:40:16Z</time>
      </trkpt>
      <trkpt lat="32.721101772040129" lon="-1.601898372173309">
        <ele>1248.4091796875</ele>
        <time>2011-04-18T15:40:21Z</time>
      </trkpt>
      <trkpt lat="32.720728190615773" lon="-1.60189594142139">
        <ele>1250.33203125</ele>
        <time>2011-04-18T15:40:28Z</time>
      </trkpt>
      <trkpt lat="32.720506237819791" lon="-1.601948412135243">
        <ele>1252.25439453125</ele>
        <time>2011-04-18T15:40:32Z</time>
      </trkpt>
      <trkpt lat="32.719894777983427" lon="-1.60216273739934">
        <ele>1251.77392578125</ele>
        <time>2011-04-18T15:40:41Z</time>
      </trkpt>
      <trkpt lat="32.719739126041532" lon="-1.602258291095495">
        <ele>1252.25439453125</ele>
        <time>2011-04-18T15:40:44Z</time>
      </trkpt>
      <trkpt lat="32.719572074711323" lon="-1.602406399324536">
        <ele>1253.2158203125</ele>
        <time>2011-04-18T15:40:48Z</time>
      </trkpt>
      <trkpt lat="32.719530165195465" lon="-1.602559955790639">
        <ele>1253.696533203125</ele>
        <time>2011-04-18T15:40:50Z</time>
      </trkpt>
      <trkpt lat="32.719248281791806" lon="-1.6028365585953">
        <ele>1255.138427734375</ele>
        <time>2011-04-18T15:40:54Z</time>
      </trkpt>
      <trkpt lat="32.718668002635241" lon="-1.603438798338175">
        <ele>1257.541748046875</ele>
        <time>2011-04-18T15:41:03Z</time>
      </trkpt>
      <trkpt lat="32.718483097851276" lon="-1.60364281386137">
        <ele>1258.5029296875</ele>
        <time>2011-04-18T15:41:06Z</time>
      </trkpt>
      <trkpt lat="32.71838603541255" lon="-1.603739960119128">
        <ele>1259.46435546875</ele>
        <time>2011-04-18T15:41:08Z</time>
      </trkpt>
      <trkpt lat="32.718143463134766" lon="-1.603789329528809">
        <ele>1261.867919921875</ele>
        <time>2011-04-18T15:41:13Z</time>
      </trkpt>
      <trkpt lat="32.717926790937781" lon="-1.603789329528809">
        <ele>1263.790283203125</ele>
        <time>2011-04-18T15:41:17Z</time>
      </trkpt>
      <trkpt lat="32.717782035470009" lon="-1.603854456916452">
        <ele>1264.751708984375</ele>
        <time>2011-04-18T15:41:19Z</time>
      </trkpt>
      <trkpt lat="32.717421278357506" lon="-1.603945568203926">
        <ele>1268.1162109375</ele>
        <time>2011-04-18T15:41:25Z</time>
      </trkpt>
      <trkpt lat="32.71717376075685" lon="-1.603960990905762">
        <ele>1271.000244140625</ele>
        <time>2011-04-18T15:41:32Z</time>
      </trkpt>
      <trkpt lat="32.716706385836005" lon="-1.604000050574541">
        <ele>1274.845458984375</ele>
        <time>2011-04-18T15:41:39Z</time>
      </trkpt>
      <trkpt lat="32.716408241540194" lon="-1.604163162410259">
        <ele>1278.210205078125</ele>
        <time>2011-04-18T15:41:45Z</time>
      </trkpt>
      <trkpt lat="32.716336157172918" lon="-1.604295428842306">
        <ele>1279.652099609375</ele>
        <time>2011-04-18T15:41:49Z</time>
      </trkpt>
      <trkpt lat="32.716231970116496" lon="-1.604413446038961">
        <ele>1280.613525390625</ele>
        <time>2011-04-18T15:41:51Z</time>
      </trkpt>
      <trkpt lat="32.715847156941891" lon="-1.604450410231948">
        <ele>1280.613525390625</ele>
        <time>2011-04-18T15:41:57Z</time>
      </trkpt>
      <trkpt lat="32.715618666261435" lon="-1.604248154908419">
        <ele>1274.845458984375</ele>
        <time>2011-04-18T15:42:02Z</time>
      </trkpt>
      <trkpt lat="32.715490506961942" lon="-1.603887816891074">
        <ele>1267.635498046875</ele>
        <time>2011-04-18T15:42:08Z</time>
      </trkpt>
      <trkpt lat="32.715336866676807" lon="-1.603770721703768">
        <ele>1265.713134765625</ele>
        <time>2011-04-18T15:42:11Z</time>
      </trkpt>
      <trkpt lat="32.715084319934249" lon="-1.603724956512451">
        <ele>1262.348388671875</ele>
        <time>2011-04-18T15:42:15Z</time>
      </trkpt>
      <trkpt lat="32.714865636080503" lon="-1.603953950107098">
        <ele>1260.42578125</ele>
        <time>2011-04-18T15:42:21Z</time>
      </trkpt>
      <trkpt lat="32.714682491496205" lon="-1.604194929823279">
        <ele>1258.5029296875</ele>
        <time>2011-04-18T15:42:24Z</time>
      </trkpt>
      <trkpt lat="32.714276053011417" lon="-1.604407578706741">
        <ele>1257.541748046875</ele>
        <time>2011-04-18T15:42:30Z</time>
      </trkpt>
      <trkpt lat="32.71405728533864" lon="-1.604204066097736">
        <ele>1257.541748046875</ele>
        <time>2011-04-18T15:42:36Z</time>
      </trkpt>
      <trkpt lat="32.713958295062184" lon="-1.604095185175538">
        <ele>1256.099609375</ele>
        <time>2011-04-18T15:42:38Z</time>
      </trkpt>
      <trkpt lat="32.713745227083564" lon="-1.603875663131475">
        <ele>1254.65771484375</ele>
        <time>2011-04-18T15:42:42Z</time>
      </trkpt>
      <trkpt lat="32.713397378101945" lon="-1.603870717808604">
        <ele>1253.696533203125</ele>
        <time>2011-04-18T15:42:47Z</time>
      </trkpt>
      <trkpt lat="32.713252454996109" lon="-1.604016479104757">
        <ele>1254.17724609375</ele>
        <time>2011-04-18T15:42:50Z</time>
      </trkpt>
      <trkpt lat="32.712920783087611" lon="-1.604387126863003">
        <ele>1253.2158203125</ele>
        <time>2011-04-18T15:42:56Z</time>
      </trkpt>
      <trkpt lat="32.712755743414164" lon="-1.604409087449312">
        <ele>1252.25439453125</ele>
        <time>2011-04-18T15:43:00Z</time>
      </trkpt>
      <trkpt lat="32.712587350979447" lon="-1.604452170431614">
        <ele>1252.735107421875</ele>
        <time>2011-04-18T15:43:03Z</time>
      </trkpt>
      <trkpt lat="32.712306641042233" lon="-1.604487374424934">
        <ele>1253.2158203125</ele>
        <time>2011-04-18T15:43:09Z</time>
      </trkpt>
      <trkpt lat="32.711468618363142" lon="-1.604485446587205">
        <ele>1254.65771484375</ele>
        <time>2011-04-18T15:43:19Z</time>
      </trkpt>
      <trkpt lat="32.711075590923429" lon="-1.604640763252974">
        <ele>1255.619140625</ele>
        <time>2011-04-18T15:43:24Z</time>
      </trkpt>
      <trkpt lat="32.710703685879707" lon="-1.604688623920083">
        <ele>1253.696533203125</ele>
        <time>2011-04-18T15:43:29Z</time>
      </trkpt>
      <trkpt lat="32.71046195179224" lon="-1.604523584246635">
        <ele>1252.735107421875</ele>
        <time>2011-04-18T15:43:35Z</time>
      </trkpt>
      <trkpt lat="32.710044952109456" lon="-1.60419543273747">
        <ele>1249.851318359375</ele>
        <time>2011-04-18T15:43:42Z</time>
      </trkpt>
      <trkpt lat="32.709689140319824" lon="-1.603789329528809">
        <ele>1249.37060546875</ele>
        <time>2011-04-18T15:43:48Z</time>
      </trkpt>
      <trkpt lat="32.709406670182943" lon="-1.603455897420645">
        <ele>1248.889892578125</ele>
        <time>2011-04-18T15:43:53Z</time>
      </trkpt>
      <trkpt lat="32.709243139252067" lon="-1.603335365653038">
        <ele>1248.889892578125</ele>
        <time>2011-04-18T15:43:56Z</time>
      </trkpt>
      <trkpt lat="32.708968464285135" lon="-1.603185497224331">
        <ele>1249.37060546875</ele>
        <time>2011-04-18T15:44:00Z</time>
      </trkpt>
      <trkpt lat="32.708435961976647" lon="-1.602979470044375">
        <ele>1248.889892578125</ele>
        <time>2011-04-18T15:44:07Z</time>
      </trkpt>
      <trkpt lat="32.708178050816059" lon="-1.603002939373255">
        <ele>1249.37060546875</ele>
        <time>2011-04-18T15:44:11Z</time>
      </trkpt>
      <trkpt lat="32.707829950377345" lon="-1.603295048698783">
        <ele>1252.25439453125</ele>
        <time>2011-04-18T15:44:19Z</time>
      </trkpt>
      <trkpt lat="32.707482688128948" lon="-1.60331784747541">
        <ele>1252.25439453125</ele>
        <time>2011-04-18T15:44:27Z</time>
      </trkpt>
      <trkpt lat="32.707372298464179" lon="-1.603189185261726">
        <ele>1250.33203125</ele>
        <time>2011-04-18T15:44:32Z</time>
      </trkpt>
      <trkpt lat="32.707074740901589" lon="-1.602853238582611">
        <ele>1247.9287109375</ele>
        <time>2011-04-18T15:44:38Z</time>
      </trkpt>
      <trkpt lat="32.706564953550696" lon="-1.6022287029773">
        <ele>1247.447998046875</ele>
        <time>2011-04-18T15:44:46Z</time>
      </trkpt>
      <trkpt lat="32.706317352131009" lon="-1.601968863978982">
        <ele>1247.447998046875</ele>
        <time>2011-04-18T15:44:50Z</time>
      </trkpt>
      <trkpt lat="32.706145606935024" lon="-1.601765854284167">
        <ele>1247.447998046875</ele>
        <time>2011-04-18T15:44:54Z</time>
      </trkpt>
      <trkpt lat="32.705736486241221" lon="-1.601161602884531">
        <ele>1246.006103515625</ele>
        <time>2011-04-18T15:45:02Z</time>
      </trkpt>
      <trkpt lat="32.705559711903334" lon="-1.600889777764678">
        <ele>1246.48681640625</ele>
        <time>2011-04-18T15:45:05Z</time>
      </trkpt>
      <trkpt lat="32.705376148223877" lon="-1.600332381203771">
        <ele>1246.006103515625</ele>
        <time>2011-04-18T15:45:11Z</time>
      </trkpt>
      <trkpt lat="32.705376148223877" lon="-1.60021067596972">
        <ele>1245.525390625</ele>
        <time>2011-04-18T15:45:12Z</time>
      </trkpt>
      <trkpt lat="32.70537338219583" lon="-1.599145922809839">
        <ele>1243.6025390625</ele>
        <time>2011-04-18T15:45:21Z</time>
      </trkpt>
      <trkpt lat="32.705354690551758" lon="-1.59883227199316">
        <ele>1243.121826171875</ele>
        <time>2011-04-18T15:45:24Z</time>
      </trkpt>
      <trkpt lat="32.705200212076306" lon="-1.5981809142977">
        <ele>1242.16064453125</ele>
        <time>2011-04-18T15:45:30Z</time>
      </trkpt>
      <trkpt lat="32.70505428314209" lon="-1.597734577953816">
        <ele>1242.16064453125</ele>
        <time>2011-04-18T15:45:35Z</time>
      </trkpt>
      <trkpt lat="32.70505428314209" lon="-1.597143067047">
        <ele>1241.679931640625</ele>
        <time>2011-04-18T15:45:41Z</time>
      </trkpt>
      <trkpt lat="32.70505428314209" lon="-1.596902925521135">
        <ele>1241.19921875</ele>
        <time>2011-04-18T15:45:43Z</time>
      </trkpt>
      <trkpt lat="32.704958813264966" lon="-1.596472011879087">
        <ele>1240.718505859375</ele>
        <time>2011-04-18T15:45:47Z</time>
      </trkpt>
      <trkpt lat="32.704878682270646" lon="-1.596261626109481">
        <ele>1240.238037109375</ele>
        <time>2011-04-18T15:45:49Z</time>
      </trkpt>
      <trkpt lat="32.704891422763467" lon="-1.595874717459083">
        <ele>1240.718505859375</ele>
        <time>2011-04-18T15:45:53Z</time>
      </trkpt>
      <trkpt lat="32.704904079437256" lon="-1.595585374161601">
        <ele>1240.718505859375</ele>
        <time>2011-04-18T15:45:56Z</time>
      </trkpt>
      <trkpt lat="32.704829061403871" lon="-1.595188910141587">
        <ele>1241.19921875</ele>
        <time>2011-04-18T15:46:01Z</time>
      </trkpt>
      <trkpt lat="32.704769214615226" lon="-1.594963353127241">
        <ele>1241.19921875</ele>
        <time>2011-04-18T15:46:04Z</time>
      </trkpt>
      <trkpt lat="32.704721773043275" lon="-1.59456211142242">
        <ele>1242.16064453125</ele>
        <time>2011-04-18T15:46:10Z</time>
      </trkpt>
      <trkpt lat="32.704846998676658" lon="-1.593915447592735">
        <ele>1243.6025390625</ele>
        <time>2011-04-18T15:46:18Z</time>
      </trkpt>
      <trkpt lat="32.704938445240259" lon="-1.593567179515958">
        <ele>1244.08349609375</ele>
        <time>2011-04-18T15:46:22Z</time>
      </trkpt>
      <trkpt lat="32.704963171854615" lon="-1.593212373554707">
        <ele>1243.6025390625</ele>
        <time>2011-04-18T15:46:26Z</time>
      </trkpt>
      <trkpt lat="32.704959735274315" lon="-1.592937195673585">
        <ele>1243.6025390625</ele>
        <time>2011-04-18T15:46:29Z</time>
      </trkpt>
      <trkpt lat="32.705011367797852" lon="-1.592576270923019">
        <ele>1243.121826171875</ele>
        <time>2011-04-18T15:46:33Z</time>
      </trkpt>
      <trkpt lat="32.705030059441924" lon="-1.591985346749425">
        <ele>1242.641357421875</ele>
        <time>2011-04-18T15:46:39Z</time>
      </trkpt>
      <trkpt lat="32.705020671710372" lon="-1.591801615431905">
        <ele>1242.16064453125</ele>
        <time>2011-04-18T15:46:42Z</time>
      </trkpt>
      <trkpt lat="32.705113124102354" lon="-1.591296102851629">
        <ele>1240.238037109375</ele>
        <time>2011-04-18T15:46:48Z</time>
      </trkpt>
      <trkpt lat="32.705262489616871" lon="-1.591040287166834">
        <ele>1241.19921875</ele>
        <time>2011-04-18T15:46:51Z</time>
      </trkpt>
      <trkpt lat="32.705225944519043" lon="-1.59076452255249">
        <ele>1241.679931640625</ele>
        <time>2011-04-18T15:46:57Z</time>
      </trkpt>
      <trkpt lat="32.704983707517385" lon="-1.590592861175537">
        <ele>1241.679931640625</ele>
        <time>2011-04-18T15:47:02Z</time>
      </trkpt>
      <trkpt lat="32.704833084717393" lon="-1.590592861175537">
        <ele>1241.679931640625</ele>
        <time>2011-04-18T15:47:04Z</time>
      </trkpt>
      <trkpt lat="32.704427316784859" lon="-1.590530583634973">
        <ele>1243.6025390625</ele>
        <time>2011-04-18T15:47:09Z</time>
      </trkpt>
      <trkpt lat="32.703484771773219" lon="-1.590134873986244">
        <ele>1242.16064453125</ele>
        <time>2011-04-18T15:47:19Z</time>
      </trkpt>
      <trkpt lat="32.702421275898814" lon="-1.589859696105123">
        <ele>1242.16064453125</ele>
        <time>2011-04-18T15:47:29Z</time>
      </trkpt>
      <trkpt lat="32.702321363613009" lon="-1.589853074401617">
        <ele>1242.16064453125</ele>
        <time>2011-04-18T15:47:30Z</time>
      </trkpt>
      <trkpt lat="32.701504128053784" lon="-1.589645873755217">
        <ele>1242.641357421875</ele>
        <time>2011-04-18T15:47:40Z</time>
      </trkpt>
      <trkpt lat="32.700802143663168" lon="-1.589434146881104">
        <ele>1244.08349609375</ele>
        <time>2011-04-18T15:47:50Z</time>
      </trkpt>
      <trkpt lat="32.700530653819442" lon="-1.589434146881104">
        <ele>1245.525390625</ele>
        <time>2011-04-18T15:47:55Z</time>
      </trkpt>
      <trkpt lat="32.700287997722626" lon="-1.589434146881104">
        <ele>1247.9287109375</ele>
        <time>2011-04-18T15:47:59Z</time>
      </trkpt>
      <trkpt lat="32.699604034423828" lon="-1.589305400848389">
        <ele>1251.293212890625</ele>
        <time>2011-04-18T15:48:09Z</time>
      </trkpt>
      <trkpt lat="32.699461542069912" lon="-1.589151006191969">
        <ele>1252.735107421875</ele>
        <time>2011-04-18T15:48:13Z</time>
      </trkpt>
      <trkpt lat="32.699189716950059" lon="-1.5888696257025">
        <ele>1252.25439453125</ele>
        <time>2011-04-18T15:48:18Z</time>
      </trkpt>
      <trkpt lat="32.698988299816847" lon="-1.58876895904541">
        <ele>1251.77392578125</ele>
        <time>2011-04-18T15:48:21Z</time>
      </trkpt>
      <trkpt lat="32.69871630705893" lon="-1.58873962238431">
        <ele>1252.735107421875</ele>
        <time>2011-04-18T15:48:26Z</time>
      </trkpt>
      <trkpt lat="32.698471220210195" lon="-1.588623113930225">
        <ele>1254.17724609375</ele>
        <time>2011-04-18T15:48:31Z</time>
      </trkpt>
      <trkpt lat="32.698280196636915" lon="-1.588436448946595">
        <ele>1254.17724609375</ele>
        <time>2011-04-18T15:48:35Z</time>
      </trkpt>
      <trkpt lat="32.698114151135087" lon="-1.588339805603027">
        <ele>1254.17724609375</ele>
        <time>2011-04-18T15:48:37Z</time>
      </trkpt>
      <trkpt lat="32.697777282446623" lon="-1.588360341265798">
        <ele>1254.65771484375</ele>
        <time>2011-04-18T15:48:42Z</time>
      </trkpt>
      <trkpt lat="32.697518365457654" lon="-1.588415578007698">
        <ele>1254.65771484375</ele>
        <time>2011-04-18T15:48:46Z</time>
      </trkpt>
      <trkpt lat="32.697301106527448" lon="-1.588515071198344">
        <ele>1255.619140625</ele>
        <time>2011-04-18T15:48:49Z</time>
      </trkpt>
      <trkpt lat="32.696843957528472" lon="-1.588772479444742">
        <ele>1257.541748046875</ele>
        <time>2011-04-18T15:48:54Z</time>
      </trkpt>
      <trkpt lat="32.696032924577594" lon="-1.588811874389648">
        <ele>1261.867919921875</ele>
        <time>2011-04-18T15:49:02Z</time>
      </trkpt>
      <trkpt lat="32.695632856339216" lon="-1.588875073939562">
        <ele>1265.232421875</ele>
        <time>2011-04-18T15:49:08Z</time>
      </trkpt>
      <trkpt lat="32.695375196635723" lon="-1.588919162750244">
        <ele>1267.635498046875</ele>
        <time>2011-04-18T15:49:12Z</time>
      </trkpt>
      <trkpt lat="32.69499390386045" lon="-1.588908517733216">
        <ele>1271.000244140625</ele>
        <time>2011-04-18T15:49:18Z</time>
      </trkpt>
      <trkpt lat="32.69485417753458" lon="-1.588826961815357">
        <ele>1273.403564453125</ele>
        <time>2011-04-18T15:49:22Z</time>
      </trkpt>
      <trkpt lat="32.694713193923235" lon="-1.588746830821037">
        <ele>1275.806640625</ele>
        <time>2011-04-18T15:49:30Z</time>
      </trkpt>
      <trkpt lat="32.694589393213391" lon="-1.588680781424046">
        <ele>1267.635498046875</ele>
        <time>2011-04-18T15:49:39Z</time>
      </trkpt>
      <trkpt lat="32.69434841349721" lon="-1.588614312931895">
        <ele>1261.38720703125</ele>
        <time>2011-04-18T15:49:55Z</time>
      </trkpt>
      <trkpt lat="32.694081114605069" lon="-1.588681619614363">
        <ele>1260.42578125</ele>
        <time>2011-04-18T15:50:05Z</time>
      </trkpt>
      <trkpt lat="32.693688757717609" lon="-1.588805839419365">
        <ele>1263.790283203125</ele>
        <time>2011-04-18T15:50:13Z</time>
      </trkpt>
      <trkpt lat="32.693523550406098" lon="-1.588790416717529">
        <ele>1266.67431640625</ele>
        <time>2011-04-18T15:50:17Z</time>
      </trkpt>
      <trkpt lat="32.693279553204775" lon="-1.588786477223039">
        <ele>1266.67431640625</ele>
        <time>2011-04-18T15:50:23Z</time>
      </trkpt>
      <trkpt lat="32.692795498296618" lon="-1.588701820001006">
        <ele>1263.309814453125</ele>
        <time>2011-04-18T15:50:32Z</time>
      </trkpt>
      <trkpt lat="32.692482937127352" lon="-1.588549856096506">
        <ele>1262.348388671875</ele>
        <time>2011-04-18T15:50:39Z</time>
      </trkpt>
      <trkpt lat="32.692340947687626" lon="-1.588350953534246">
        <ele>1262.8291015625</ele>
        <time>2011-04-18T15:50:43Z</time>
      </trkpt>
      <trkpt lat="32.691759327426553" lon="-1.588026573881507">
        <ele>1263.309814453125</ele>
        <time>2011-04-18T15:50:52Z</time>
      </trkpt>
      <trkpt lat="32.691440479829907" lon="-1.588068651035428">
        <ele>1264.27099609375</ele>
        <time>2011-04-18T15:50:57Z</time>
      </trkpt>
      <trkpt lat="32.691314080730081" lon="-1.588050546124578">
        <ele>1265.232421875</ele>
        <time>2011-04-18T15:50:59Z</time>
      </trkpt>
      <trkpt lat="32.690512603148818" lon="-1.587983574718237">
        <ele>1272.9228515625</ele>
        <time>2011-04-18T15:51:09Z</time>
      </trkpt>
      <trkpt lat="32.690172297880054" lon="-1.58800570294261">
        <ele>1274.845458984375</ele>
        <time>2011-04-18T15:51:13Z</time>
      </trkpt>
      <trkpt lat="32.689780360087752" lon="-1.58801794052124">
        <ele>1277.7294921875</ele>
        <time>2011-04-18T15:51:18Z</time>
      </trkpt>
      <trkpt lat="32.689480287954211" lon="-1.588086755946279">
        <ele>1279.652099609375</ele>
        <time>2011-04-18T15:51:23Z</time>
      </trkpt>
      <trkpt lat="32.689330168068409" lon="-1.588124139234424">
        <ele>1281.09423828125</ele>
        <time>2011-04-18T15:51:25Z</time>
      </trkpt>
      <trkpt lat="32.688918029889464" lon="-1.58829546533525">
        <ele>1284.458740234375</ele>
        <time>2011-04-18T15:51:30Z</time>
      </trkpt>
      <trkpt lat="32.688551740720868" lon="-1.588225727900863">
        <ele>1289.745849609375</ele>
        <time>2011-04-18T15:51:36Z</time>
      </trkpt>
      <trkpt lat="32.68794103525579" lon="-1.588160432875156">
        <ele>1290.70703125</ele>
        <time>2011-04-18T15:51:44Z</time>
      </trkpt>
      <trkpt lat="32.687127655372024" lon="-1.588385403156281">
        <ele>1295.99462890625</ele>
        <time>2011-04-18T15:51:54Z</time>
      </trkpt>
      <trkpt lat="32.686458611860871" lon="-1.588333016261458">
        <ele>1294.552490234375</ele>
        <time>2011-04-18T15:52:03Z</time>
      </trkpt>
      <trkpt lat="32.686348557472229" lon="-1.58823779784143">
        <ele>1290.70703125</ele>
        <time>2011-04-18T15:52:10Z</time>
      </trkpt>
      <trkpt lat="32.686268845573068" lon="-1.588158253580332">
        <ele>1283.0166015625</ele>
        <time>2011-04-18T15:52:19Z</time>
      </trkpt>
      <trkpt lat="32.686092825606465" lon="-1.588021460920572">
        <ele>1278.210205078125</ele>
        <time>2011-04-18T15:52:41Z</time>
      </trkpt>
      <trkpt lat="32.685999870300293" lon="-1.587975025177002">
        <ele>1277.2490234375</ele>
        <time>2011-04-18T15:52:51Z</time>
      </trkpt>
      <trkpt lat="32.685871040448546" lon="-1.587875867262483">
        <ele>1276.768310546875</ele>
        <time>2011-04-18T15:52:58Z</time>
      </trkpt>
      <trkpt lat="32.685699379071593" lon="-1.587962033227086">
        <ele>1277.7294921875</ele>
        <time>2011-04-18T15:53:05Z</time>
      </trkpt>
      <trkpt lat="32.685735924169421" lon="-1.588216759264469">
        <ele>1281.57470703125</ele>
        <time>2011-04-18T15:53:12Z</time>
      </trkpt>
      <trkpt lat="32.685622349381447" lon="-1.588324969634414">
        <ele>1289.26513671875</ele>
        <time>2011-04-18T15:53:31Z</time>
      </trkpt>
      <trkpt lat="32.685542805120349" lon="-1.588387163355947">
        <ele>1290.70703125</ele>
        <time>2011-04-18T15:53:33Z</time>
      </trkpt>
      <trkpt lat="32.685347842052579" lon="-1.588305104523897">
        <ele>1291.187744140625</ele>
        <time>2011-04-18T15:53:38Z</time>
      </trkpt>
      <trkpt lat="32.684856243431568" lon="-1.588000254705548">
        <ele>1292.630126953125</ele>
        <time>2011-04-18T15:53:47Z</time>
      </trkpt>
      <trkpt lat="32.684628339484334" lon="-1.587978964671493">
        <ele>1295.513916015625</ele>
        <time>2011-04-18T15:53:53Z</time>
      </trkpt>
      <trkpt lat="32.684438237920403" lon="-1.588095976039767">
        <ele>1294.072021484375</ele>
        <time>2011-04-18T15:53:59Z</time>
      </trkpt>
      <trkpt lat="32.683912189677358" lon="-1.588615821674466">
        <ele>1283.97802734375</ele>
        <time>2011-04-18T15:54:08Z</time>
      </trkpt>
      <trkpt lat="32.683671545237303" lon="-1.588739957660437">
        <ele>1280.613525390625</ele>
        <time>2011-04-18T15:54:11Z</time>
      </trkpt>
      <trkpt lat="32.68342268653214" lon="-1.588748591020703">
        <ele>1275.325927734375</ele>
        <time>2011-04-18T15:54:16Z</time>
      </trkpt>
      <trkpt lat="32.68311339430511" lon="-1.5886589884758">
        <ele>1271.96142578125</ele>
        <time>2011-04-18T15:54:22Z</time>
      </trkpt>
      <trkpt lat="32.682952880859375" lon="-1.588597297668457">
        <ele>1273.403564453125</ele>
        <time>2011-04-18T15:54:25Z</time>
      </trkpt>
      <trkpt lat="32.682560607790947" lon="-1.588374590501189">
        <ele>1274.845458984375</ele>
        <time>2011-04-18T15:54:31Z</time>
      </trkpt>
      <trkpt lat="32.681830795481801" lon="-1.587931104004383">
        <ele>1274.845458984375</ele>
        <time>2011-04-18T15:54:40Z</time>
      </trkpt>
      <trkpt lat="32.681638263165951" lon="-1.587901432067156">
        <ele>1273.884033203125</ele>
        <time>2011-04-18T15:54:42Z</time>
      </trkpt>
      <trkpt lat="32.680953629314899" lon="-1.587975025177002">
        <ele>1268.596923828125</ele>
        <time>2011-04-18T15:54:49Z</time>
      </trkpt>
      <trkpt lat="32.68062480725348" lon="-1.587938647717238">
        <ele>1265.232421875</ele>
        <time>2011-04-18T15:54:52Z</time>
      </trkpt>
      <trkpt lat="32.67996565438807" lon="-1.587855080142617">
        <ele>1258.983642578125</ele>
        <time>2011-04-18T15:54:58Z</time>
      </trkpt>
      <trkpt lat="32.679025707766414" lon="-1.587838986888528">
        <ele>1253.2158203125</ele>
        <time>2011-04-18T15:55:06Z</time>
      </trkpt>
      <trkpt lat="32.678127167746425" lon="-1.587446043267846">
        <ele>1246.96728515625</ele>
        <time>2011-04-18T15:55:14Z</time>
      </trkpt>
      <trkpt lat="32.677822569385171" lon="-1.587048405781388">
        <ele>1250.8125</ele>
        <time>2011-04-18T15:55:18Z</time>
      </trkpt>
      <trkpt lat="32.677157130092382" lon="-1.586292609572411">
        <ele>1254.17724609375</ele>
        <time>2011-04-18T15:55:25Z</time>
      </trkpt>
      <trkpt lat="32.676391275599599" lon="-1.585852392017841">
        <ele>1255.138427734375</ele>
        <time>2011-04-18T15:55:32Z</time>
      </trkpt>
      <trkpt lat="32.67536910250783" lon="-1.585743427276611">
        <ele>1257.06103515625</ele>
        <time>2011-04-18T15:55:40Z</time>
      </trkpt>
      <trkpt lat="32.674383390694857" lon="-1.585874268785119">
        <ele>1254.17724609375</ele>
        <time>2011-04-18T15:55:48Z</time>
      </trkpt>
      <trkpt lat="32.673507733270526" lon="-1.585851302370429">
        <ele>1251.293212890625</ele>
        <time>2011-04-18T15:55:55Z</time>
      </trkpt>
      <trkpt lat="32.673169691115618" lon="-1.585804028436542">
        <ele>1249.851318359375</ele>
        <time>2011-04-18T15:55:58Z</time>
      </trkpt>
      <trkpt lat="32.672803401947021" lon="-1.585721969604492">
        <ele>1248.889892578125</ele>
        <time>2011-04-18T15:56:02Z</time>
      </trkpt>
      <trkpt lat="32.672609947621822" lon="-1.58556355163455">
        <ele>1249.851318359375</ele>
        <time>2011-04-18T15:56:07Z</time>
      </trkpt>
      <trkpt lat="32.672505341470242" lon="-1.585495406761766">
        <ele>1250.33203125</ele>
        <time>2011-04-18T15:56:08Z</time>
      </trkpt>
      <trkpt lat="32.672046599909663" lon="-1.585267754271627">
        <ele>1249.37060546875</ele>
        <time>2011-04-18T15:56:14Z</time>
      </trkpt>
      <trkpt lat="32.671235902234912" lon="-1.584863159805536">
        <ele>1249.37060546875</ele>
        <time>2011-04-18T15:56:23Z</time>
      </trkpt>
      <trkpt lat="32.67054682597518" lon="-1.584403831511736">
        <ele>1248.4091796875</ele>
        <time>2011-04-18T15:56:32Z</time>
      </trkpt>
      <trkpt lat="32.670046426355839" lon="-1.584035865962505">
        <ele>1248.889892578125</ele>
        <time>2011-04-18T15:56:41Z</time>
      </trkpt>
      <trkpt lat="32.669828413054347" lon="-1.583688855171204">
        <ele>1248.4091796875</ele>
        <time>2011-04-18T15:56:47Z</time>
      </trkpt>
      <trkpt lat="32.669546445831656" lon="-1.583379730582237">
        <ele>1246.96728515625</ele>
        <time>2011-04-18T15:56:52Z</time>
      </trkpt>
      <trkpt lat="32.669225418940187" lon="-1.583288703113794">
        <ele>1246.48681640625</ele>
        <time>2011-04-18T15:56:56Z</time>
      </trkpt>
      <trkpt lat="32.66833920031786" lon="-1.582609601318836">
        <ele>1246.006103515625</ele>
        <time>2011-04-18T15:57:08Z</time>
      </trkpt>
      <trkpt lat="32.667973078787327" lon="-1.582445148378611">
        <ele>1246.006103515625</ele>
        <time>2011-04-18T15:57:12Z</time>
      </trkpt>
      <trkpt lat="32.667590025812387" lon="-1.582374572753906">
        <ele>1246.48681640625</ele>
        <time>2011-04-18T15:57:16Z</time>
      </trkpt>
      <trkpt lat="32.666326286271214" lon="-1.582093862816691">
        <ele>1249.851318359375</ele>
        <time>2011-04-18T15:57:27Z</time>
      </trkpt>
      <trkpt lat="32.665177043527365" lon="-1.581770656630397">
        <ele>1253.696533203125</ele>
        <time>2011-04-18T15:57:37Z</time>
      </trkpt>
      <trkpt lat="32.664681253954768" lon="-1.581376371905208">
        <ele>1255.138427734375</ele>
        <time>2011-04-18T15:57:43Z</time>
      </trkpt>
      <trkpt lat="32.664541527628899" lon="-1.581235723569989">
        <ele>1256.580322265625</ele>
        <time>2011-04-18T15:57:49Z</time>
      </trkpt>
      <trkpt lat="32.664384702220559" lon="-1.580879492685199">
        <ele>1253.696533203125</ele>
        <time>2011-04-18T15:57:56Z</time>
      </trkpt>
      <trkpt lat="32.664067531004548" lon="-1.580149848014116">
        <ele>1251.293212890625</ele>
        <time>2011-04-18T15:58:04Z</time>
      </trkpt>
      <trkpt lat="32.663946496322751" lon="-1.57997852191329">
        <ele>1251.293212890625</ele>
        <time>2011-04-18T15:58:06Z</time>
      </trkpt>
      <trkpt lat="32.663440061733127" lon="-1.579808788374066">
        <ele>1253.2158203125</ele>
        <time>2011-04-18T15:58:13Z</time>
      </trkpt>
      <trkpt lat="32.663149544969201" lon="-1.580055132508278">
        <ele>1258.983642578125</ele>
        <time>2011-04-18T15:58:18Z</time>
      </trkpt>
      <trkpt lat="32.662615785375237" lon="-1.580541785806418">
        <ele>1267.635498046875</ele>
        <time>2011-04-18T15:58:27Z</time>
      </trkpt>
      <trkpt lat="32.661648597568274" lon="-1.581266904249787">
        <ele>1274.845458984375</ele>
        <time>2011-04-18T15:58:38Z</time>
      </trkpt>
      <trkpt lat="32.66130443662405" lon="-1.581509308889508">
        <ele>1276.768310546875</ele>
        <time>2011-04-18T15:58:42Z</time>
      </trkpt>
      <trkpt lat="32.660348229110241" lon="-1.581880878657103">
        <ele>1280.613525390625</ele>
        <time>2011-04-18T15:58:51Z</time>
      </trkpt>
      <trkpt lat="32.659661499783397" lon="-1.581978695467114">
        <ele>1283.0166015625</ele>
        <time>2011-04-18T15:58:58Z</time>
      </trkpt>
      <trkpt lat="32.65890478156507" lon="-1.581881046295166">
        <ele>1284.458740234375</ele>
        <time>2011-04-18T15:59:05Z</time>
      </trkpt>
      <trkpt lat="32.65797346830368" lon="-1.582029489800334">
        <ele>1285.900634765625</ele>
        <time>2011-04-18T15:59:13Z</time>
      </trkpt>
      <trkpt lat="32.65736410394311" lon="-1.58207475207746">
        <ele>1287.342529296875</ele>
        <time>2011-04-18T15:59:22Z</time>
      </trkpt>
      <trkpt lat="32.656850544735789" lon="-1.581842824816704">
        <ele>1280.613525390625</ele>
        <time>2011-04-18T15:59:30Z</time>
      </trkpt>
      <trkpt lat="32.656580060720444" lon="-1.581468572840095">
        <ele>1278.210205078125</ele>
        <time>2011-04-18T15:59:35Z</time>
      </trkpt>
      <trkpt lat="32.655806830152869" lon="-1.580661730840802">
        <ele>1275.806640625</ele>
        <time>2011-04-18T15:59:45Z</time>
      </trkpt>
      <trkpt lat="32.655725358054042" lon="-1.580606997013092">
        <ele>1275.806640625</ele>
        <time>2011-04-18T15:59:46Z</time>
      </trkpt>
      <trkpt lat="32.655240884050727" lon="-1.580305751413107">
        <ele>1275.806640625</ele>
        <time>2011-04-18T15:59:52Z</time>
      </trkpt>
      <trkpt lat="32.654688097536564" lon="-1.57989788800478">
        <ele>1275.806640625</ele>
        <time>2011-04-18T16:00:00Z</time>
      </trkpt>
      <trkpt lat="32.654469162225723" lon="-1.57965992577374">
        <ele>1276.28759765625</ele>
        <time>2011-04-18T16:00:07Z</time>
      </trkpt>
      <trkpt lat="32.654365226626396" lon="-1.579538555815816">
        <ele>1278.69091796875</ele>
        <time>2011-04-18T16:00:15Z</time>
      </trkpt>
      <trkpt lat="32.654260033741593" lon="-1.579341245815158">
        <ele>1279.17138671875</ele>
        <time>2011-04-18T16:00:19Z</time>
      </trkpt>
      <trkpt lat="32.653874382376671" lon="-1.57855074852705">
        <ele>1281.09423828125</ele>
        <time>2011-04-18T16:00:31Z</time>
      </trkpt>
      <trkpt lat="32.653470039367676" lon="-1.577889919281006">
        <ele>1282.055419921875</ele>
        <time>2011-04-18T16:00:40Z</time>
      </trkpt>
      <trkpt lat="32.653289660811424" lon="-1.577684059739113">
        <ele>1282.055419921875</ele>
        <time>2011-04-18T16:00:44Z</time>
      </trkpt>
      <trkpt lat="32.653072653338313" lon="-1.577368481084704">
        <ele>1282.5361328125</ele>
        <time>2011-04-18T16:00:49Z</time>
      </trkpt>
      <trkpt lat="32.652976512908936" lon="-1.57661528326571">
        <ele>1284.458740234375</ele>
        <time>2011-04-18T16:00:58Z</time>
      </trkpt>
      <trkpt lat="32.652953797951341" lon="-1.576470108702779">
        <ele>1285.419921875</ele>
        <time>2011-04-18T16:01:03Z</time>
      </trkpt>
      <trkpt lat="32.652908535674214" lon="-1.576334070414305">
        <ele>1284.939453125</ele>
        <time>2011-04-18T16:03:50Z</time>
      </trkpt>
      <trkpt lat="32.652661353349686" lon="-1.576008349657059">
        <ele>1284.939453125</ele>
        <time>2011-04-18T16:03:57Z</time>
      </trkpt>
      <trkpt lat="32.652065819129348" lon="-1.575520941987634">
        <ele>1283.97802734375</ele>
        <time>2011-04-18T16:04:07Z</time>
      </trkpt>
      <trkpt lat="32.651699865236878" lon="-1.575141912326217">
        <ele>1283.0166015625</ele>
        <time>2011-04-18T16:04:13Z</time>
      </trkpt>
      <trkpt lat="32.651539100334048" lon="-1.574804792180657">
        <ele>1283.0166015625</ele>
        <time>2011-04-18T16:04:17Z</time>
      </trkpt>
      <trkpt lat="32.651227377355099" lon="-1.574005410075188">
        <ele>1283.497314453125</ele>
        <time>2011-04-18T16:04:26Z</time>
      </trkpt>
      <trkpt lat="32.651087734848261" lon="-1.573747834190726">
        <ele>1283.497314453125</ele>
        <time>2011-04-18T16:04:29Z</time>
      </trkpt>
      <trkpt lat="32.650836696848273" lon="-1.573454132303596">
        <ele>1282.5361328125</ele>
        <time>2011-04-18T16:04:33Z</time>
      </trkpt>
      <trkpt lat="32.650573253631592" lon="-1.573169231414795">
        <ele>1282.5361328125</ele>
        <time>2011-04-18T16:04:37Z</time>
      </trkpt>
      <trkpt lat="32.650124151259661" lon="-1.572893131524324">
        <ele>1281.09423828125</ele>
        <time>2011-04-18T16:04:43Z</time>
      </trkpt>
      <trkpt lat="32.64977035112679" lon="-1.572734462097287">
        <ele>1280.613525390625</ele>
        <time>2011-04-18T16:04:47Z</time>
      </trkpt>
      <trkpt lat="32.649415964260697" lon="-1.5726647246629">
        <ele>1280.1328125</ele>
        <time>2011-04-18T16:04:53Z</time>
      </trkpt>
      <trkpt lat="32.649191999807954" lon="-1.572572020813823">
        <ele>1279.17138671875</ele>
        <time>2011-04-18T16:04:58Z</time>
      </trkpt>
      <trkpt lat="32.649013297632337" lon="-1.572477472946048">
        <ele>1279.652099609375</ele>
        <time>2011-04-18T16:05:03Z</time>
      </trkpt>
      <trkpt lat="32.648783717304468" lon="-1.57242139801383">
        <ele>1279.652099609375</ele>
        <time>2011-04-18T16:05:07Z</time>
      </trkpt>
      <trkpt lat="32.647829605266452" lon="-1.572482585906982">
        <ele>1278.69091796875</ele>
        <time>2011-04-18T16:05:17Z</time>
      </trkpt>
      <trkpt lat="32.646879935637116" lon="-1.572773857042193">
        <ele>1275.325927734375</ele>
        <time>2011-04-18T16:05:27Z</time>
      </trkpt>
      <trkpt lat="32.646592352539301" lon="-1.572828171774745">
        <ele>1274.845458984375</ele>
        <time>2011-04-18T16:05:30Z</time>
      </trkpt>
      <trkpt lat="32.645768160000443" lon="-1.573050124570727">
        <ele>1273.403564453125</ele>
        <time>2011-04-18T16:05:38Z</time>
      </trkpt>
      <trkpt lat="32.644272241741419" lon="-1.573448181152344">
        <ele>1271.480712890625</ele>
        <time>2011-04-18T16:05:51Z</time>
      </trkpt>
      <trkpt lat="32.643943754956126" lon="-1.573442816734314">
        <ele>1271.96142578125</ele>
        <time>2011-04-18T16:05:54Z</time>
      </trkpt>
      <trkpt lat="32.643519463017583" lon="-1.573426723480225">
        <ele>1271.96142578125</ele>
        <time>2011-04-18T16:05:58Z</time>
      </trkpt>
      <trkpt lat="32.642437526956201" lon="-1.572818448767066">
        <ele>1271.96142578125</ele>
        <time>2011-04-18T16:06:08Z</time>
      </trkpt>
      <trkpt lat="32.642287407070398" lon="-1.572654582560062">
        <ele>1271.96142578125</ele>
        <time>2011-04-18T16:06:10Z</time>
      </trkpt>
      <trkpt lat="32.64204659499228" lon="-1.572279073297977">
        <ele>1271.96142578125</ele>
        <time>2011-04-18T16:06:15Z</time>
      </trkpt>
      <trkpt lat="32.64168550260365" lon="-1.571445409208536">
        <ele>1272.442138671875</ele>
        <time>2011-04-18T16:06:22Z</time>
      </trkpt>
      <trkpt lat="32.640960216522217" lon="-1.570336818695068">
        <ele>1274.845458984375</ele>
        <time>2011-04-18T16:06:32Z</time>
      </trkpt>
      <trkpt lat="32.640467109158635" lon="-1.570023251697421">
        <ele>1274.845458984375</ele>
        <time>2011-04-18T16:06:37Z</time>
      </trkpt>
      <trkpt lat="32.639286015182734" lon="-1.569725191220641">
        <ele>1274.845458984375</ele>
        <time>2011-04-18T16:06:47Z</time>
      </trkpt>
      <trkpt lat="32.638183543458581" lon="-1.569407684728503">
        <ele>1274.845458984375</ele>
        <time>2011-04-18T16:06:56Z</time>
      </trkpt>
      <trkpt lat="32.637363206595182" lon="-1.568963611498475">
        <ele>1276.768310546875</ele>
        <time>2011-04-18T16:07:04Z</time>
      </trkpt>
      <trkpt lat="32.636880073696375" lon="-1.568580223247409">
        <ele>1275.325927734375</ele>
        <time>2011-04-18T16:07:10Z</time>
      </trkpt>
      <trkpt lat="32.63592797331512" lon="-1.56821770593524">
        <ele>1272.9228515625</ele>
        <time>2011-04-18T16:07:20Z</time>
      </trkpt>
      <trkpt lat="32.635322380810976" lon="-1.567932302132249">
        <ele>1272.442138671875</ele>
        <time>2011-04-18T16:07:28Z</time>
      </trkpt>
      <trkpt lat="32.634770181030035" lon="-1.567829037085176">
        <ele>1272.442138671875</ele>
        <time>2011-04-18T16:07:34Z</time>
      </trkpt>
      <trkpt lat="32.634430713951588" lon="-1.567569952458143">
        <ele>1271.96142578125</ele>
        <time>2011-04-18T16:07:40Z</time>
      </trkpt>
      <trkpt lat="32.634301548823714" lon="-1.567470626905561">
        <ele>1271.96142578125</ele>
        <time>2011-04-18T16:07:42Z</time>
      </trkpt>
      <trkpt lat="32.634044978767633" lon="-1.567190000787377">
        <ele>1271.480712890625</ele>
        <time>2011-04-18T16:07:46Z</time>
      </trkpt>
      <trkpt lat="32.633442739024758" lon="-1.566498661413789">
        <ele>1270.038818359375</ele>
        <time>2011-04-18T16:07:55Z</time>
      </trkpt>
      <trkpt lat="32.632766654714942" lon="-1.56572719104588">
        <ele>1269.07763671875</ele>
        <time>2011-04-18T16:08:04Z</time>
      </trkpt>
      <trkpt lat="32.63208445161581" lon="-1.56475966796279">
        <ele>1267.155029296875</ele>
        <time>2011-04-18T16:08:14Z</time>
      </trkpt>
      <trkpt lat="32.631430244073272" lon="-1.563652837648988">
        <ele>1265.232421875</ele>
        <time>2011-04-18T16:08:24Z</time>
      </trkpt>
      <trkpt lat="32.630782993510365" lon="-1.562890838831663">
        <ele>1264.27099609375</ele>
        <time>2011-04-18T16:08:32Z</time>
      </trkpt>
      <trkpt lat="32.630320647731423" lon="-1.562469815835357">
        <ele>1263.790283203125</ele>
        <time>2011-04-18T16:08:37Z</time>
      </trkpt>
      <trkpt lat="32.629445493221283" lon="-1.561590135097504">
        <ele>1263.790283203125</ele>
        <time>2011-04-18T16:08:46Z</time>
      </trkpt>
      <trkpt lat="32.628295747563243" lon="-1.560569135472179">
        <ele>1263.309814453125</ele>
        <time>2011-04-18T16:08:56Z</time>
      </trkpt>
      <trkpt lat="32.627657130360603" lon="-1.559894979000092">
        <ele>1262.8291015625</ele>
        <time>2011-04-18T16:09:03Z</time>
      </trkpt>
      <trkpt lat="32.627014070749283" lon="-1.559426179155707">
        <ele>1261.867919921875</ele>
        <time>2011-04-18T16:09:11Z</time>
      </trkpt>
      <trkpt lat="32.62676328420639" lon="-1.559393405914307">
        <ele>1261.38720703125</ele>
        <time>2011-04-18T16:09:14Z</time>
      </trkpt>
      <trkpt lat="32.626214940100908" lon="-1.559454929083586">
        <ele>1259.46435546875</ele>
        <time>2011-04-18T16:09:20Z</time>
      </trkpt>
      <trkpt lat="32.625862313434482" lon="-1.559526929631829">
        <ele>1258.5029296875</ele>
        <time>2011-04-18T16:09:24Z</time>
      </trkpt>
      <trkpt lat="32.625559810549021" lon="-1.559486025944352">
        <ele>1257.541748046875</ele>
        <time>2011-04-18T16:09:28Z</time>
      </trkpt>
      <trkpt lat="32.625334169715643" lon="-1.559386784210801">
        <ele>1257.541748046875</ele>
        <time>2011-04-18T16:09:31Z</time>
      </trkpt>
      <trkpt lat="32.624811893329024" lon="-1.559329032897949">
        <ele>1256.580322265625</ele>
        <time>2011-04-18T16:09:37Z</time>
      </trkpt>
      <trkpt lat="32.624405790120363" lon="-1.559482673183084">
        <ele>1254.65771484375</ele>
        <time>2011-04-18T16:09:41Z</time>
      </trkpt>
      <trkpt lat="32.623977391049266" lon="-1.55952014029026">
        <ele>1253.696533203125</ele>
        <time>2011-04-18T16:09:45Z</time>
      </trkpt>
      <trkpt lat="32.623572377488017" lon="-1.559324841946363">
        <ele>1253.2158203125</ele>
        <time>2011-04-18T16:09:49Z</time>
      </trkpt>
      <trkpt lat="32.622897634282708" lon="-1.558926030993462">
        <ele>1252.25439453125</ele>
        <time>2011-04-18T16:09:57Z</time>
      </trkpt>
      <trkpt lat="32.622613906860352" lon="-1.558620929718018">
        <ele>1252.25439453125</ele>
        <time>2011-04-18T16:10:02Z</time>
      </trkpt>
      <trkpt lat="32.622459512203932" lon="-1.558264950290322">
        <ele>1251.77392578125</ele>
        <time>2011-04-18T16:10:08Z</time>
      </trkpt>
      <trkpt lat="32.622273098677397" lon="-1.558017767965794">
        <ele>1251.293212890625</ele>
        <time>2011-04-18T16:10:16Z</time>
      </trkpt>
      <trkpt lat="32.622138736769557" lon="-1.557910144329071">
        <ele>1251.293212890625</ele>
        <time>2011-04-18T16:10:22Z</time>
      </trkpt>
      <trkpt lat="32.62175970710814" lon="-1.557509237900376">
        <ele>1250.33203125</ele>
        <time>2011-04-18T16:10:29Z</time>
      </trkpt>
      <trkpt lat="32.620821269229054" lon="-1.556491255760193">
        <ele>1247.447998046875</ele>
        <time>2011-04-18T16:10:41Z</time>
      </trkpt>
      <trkpt lat="32.62050099670887" lon="-1.555666141211987">
        <ele>1246.006103515625</ele>
        <time>2011-04-18T16:10:48Z</time>
      </trkpt>
      <trkpt lat="32.620302261784673" lon="-1.554517652839422">
        <ele>1245.044677734375</ele>
        <time>2011-04-18T16:10:56Z</time>
      </trkpt>
      <trkpt lat="32.619705218821764" lon="-1.553039504215121">
        <ele>1244.08349609375</ele>
        <time>2011-04-18T16:11:07Z</time>
      </trkpt>
      <trkpt lat="32.619329122826457" lon="-1.552177593111992">
        <ele>1243.6025390625</ele>
        <time>2011-04-18T16:11:15Z</time>
      </trkpt>
      <trkpt lat="32.618899801746011" lon="-1.551652969792485">
        <ele>1240.718505859375</ele>
        <time>2011-04-18T16:11:22Z</time>
      </trkpt>
      <trkpt lat="32.618759656324983" lon="-1.551559595391154">
        <ele>1240.238037109375</ele>
        <time>2011-04-18T16:11:24Z</time>
      </trkpt>
      <trkpt lat="32.61858900077641" lon="-1.55132825486362">
        <ele>1239.276611328125</ele>
        <time>2011-04-18T16:11:28Z</time>
      </trkpt>
      <trkpt lat="32.61816730722785" lon="-1.550686955451965">
        <ele>1238.796142578125</ele>
        <time>2011-04-18T16:11:37Z</time>
      </trkpt>
      <trkpt lat="32.618006626144052" lon="-1.5496507845819">
        <ele>1239.276611328125</ele>
        <time>2011-04-18T16:11:46Z</time>
      </trkpt>
      <trkpt lat="32.617889866232872" lon="-1.549082072451711">
        <ele>1239.276611328125</ele>
        <time>2011-04-18T16:11:51Z</time>
      </trkpt>
      <trkpt lat="32.617833958938718" lon="-1.548886187374592">
        <ele>1239.276611328125</ele>
        <time>2011-04-18T16:11:53Z</time>
      </trkpt>
      <trkpt lat="32.617607312276959" lon="-1.548375142738223">
        <ele>1239.276611328125</ele>
        <time>2011-04-18T16:11:59Z</time>
      </trkpt>
      <trkpt lat="32.617338756099343" lon="-1.548007009550929">
        <ele>1239.276611328125</ele>
        <time>2011-04-18T16:12:04Z</time>
      </trkpt>
      <trkpt lat="32.616949416697025" lon="-1.547646336257458">
        <ele>1239.276611328125</ele>
        <time>2011-04-18T16:12:10Z</time>
      </trkpt>
      <trkpt lat="32.6168143004179" lon="-1.547546340152621">
        <ele>1239.276611328125</ele>
        <time>2011-04-18T16:12:12Z</time>
      </trkpt>
      <trkpt lat="32.616537949070334" lon="-1.547128753736615">
        <ele>1239.276611328125</ele>
        <time>2011-04-18T16:12:18Z</time>
      </trkpt>
      <trkpt lat="32.616262268275023" lon="-1.546625923365355">
        <ele>1239.75732421875</ele>
        <time>2011-04-18T16:12:25Z</time>
      </trkpt>
      <trkpt lat="32.615749128162861" lon="-1.546192746609449">
        <ele>1238.796142578125</ele>
        <time>2011-04-18T16:12:33Z</time>
      </trkpt>
      <trkpt lat="32.615556512027979" lon="-1.54593232087791">
        <ele>1239.276611328125</ele>
        <time>2011-04-18T16:12:37Z</time>
      </trkpt>
      <trkpt lat="32.615152336657047" lon="-1.545446589589119">
        <ele>1239.276611328125</ele>
        <time>2011-04-18T16:12:45Z</time>
      </trkpt>
      <trkpt lat="32.614902807399631" lon="-1.545283980667591">
        <ele>1240.238037109375</ele>
        <time>2011-04-18T16:12:52Z</time>
      </trkpt>
      <trkpt lat="32.614700803533196" lon="-1.545186163857579">
        <ele>1240.238037109375</ele>
        <time>2011-04-18T16:12:59Z</time>
      </trkpt>
      <trkpt lat="32.614599885419011" lon="-1.545180128887296">
        <ele>1240.238037109375</ele>
        <time>2011-04-18T16:13:03Z</time>
      </trkpt>
      <trkpt lat="32.614426212385297" lon="-1.545169902965426">
        <ele>1239.276611328125</ele>
        <time>2011-04-18T16:13:07Z</time>
      </trkpt>
      <trkpt lat="32.614214736968279" lon="-1.545166969299316">
        <ele>1237.35400390625</ele>
        <time>2011-04-18T16:13:12Z</time>
      </trkpt>
      <trkpt lat="32.614063862711191" lon="-1.545166969299316">
        <ele>1236.873291015625</ele>
        <time>2011-04-18T16:13:16Z</time>
      </trkpt>
      <trkpt lat="32.613595565780997" lon="-1.544968569651246">
        <ele>1237.834716796875</ele>
        <time>2011-04-18T16:13:23Z</time>
      </trkpt>
      <trkpt lat="32.612997852265835" lon="-1.544412849470973">
        <ele>1237.35400390625</ele>
        <time>2011-04-18T16:13:30Z</time>
      </trkpt>
      <trkpt lat="32.612203834578395" lon="-1.543640373274684">
        <ele>1236.873291015625</ele>
        <time>2011-04-18T16:13:39Z</time>
      </trkpt>
      <trkpt lat="32.611330104991794" lon="-1.542855491861701">
        <ele>1234.47021484375</ele>
        <time>2011-04-18T16:13:48Z</time>
      </trkpt>
      <trkpt lat="32.611087281256914" lon="-1.542738061398268">
        <ele>1233.989501953125</ele>
        <time>2011-04-18T16:13:50Z</time>
      </trkpt>
      <trkpt lat="32.610181029886007" lon="-1.542568579316139">
        <ele>1232.547607421875</ele>
        <time>2011-04-18T16:13:58Z</time>
      </trkpt>
      <trkpt lat="32.609288189560175" lon="-1.542420387268066">
        <ele>1232.547607421875</ele>
        <time>2011-04-18T16:14:07Z</time>
      </trkpt>
      <trkpt lat="32.608366766944528" lon="-1.54249532148242">
        <ele>1233.028076171875</ele>
        <time>2011-04-18T16:14:15Z</time>
      </trkpt>
      <trkpt lat="32.60767936706543" lon="-1.542790029197931">
        <ele>1232.06689453125</ele>
        <time>2011-04-18T16:14:21Z</time>
      </trkpt>
      <trkpt lat="32.606690637767315" lon="-1.542975353077054">
        <ele>1231.586181640625</ele>
        <time>2011-04-18T16:14:29Z</time>
      </trkpt>
      <trkpt lat="32.60555480606854" lon="-1.543103931471705">
        <ele>1231.105712890625</ele>
        <time>2011-04-18T16:14:38Z</time>
      </trkpt>
      <trkpt lat="32.604402462020516" lon="-1.543284896761179">
        <ele>1231.105712890625</ele>
        <time>2011-04-18T16:14:48Z</time>
      </trkpt>
      <trkpt lat="32.604108089581132" lon="-1.543333930894733">
        <ele>1231.105712890625</ele>
        <time>2011-04-18T16:14:51Z</time>
      </trkpt>
      <trkpt lat="32.6031962223351" lon="-1.543192863464356">
        <ele>1231.105712890625</ele>
        <time>2011-04-18T16:14:59Z</time>
      </trkpt>
      <trkpt lat="32.602052260190248" lon="-1.543185152113438">
        <ele>1230.625</ele>
        <time>2011-04-18T16:15:08Z</time>
      </trkpt>
      <trkpt lat="32.600713418796659" lon="-1.54308557510376">
        <ele>1230.625</ele>
        <time>2011-04-18T16:15:18Z</time>
      </trkpt>
      <trkpt lat="32.599397459998727" lon="-1.54308557510376">
        <ele>1230.144287109375</ele>
        <time>2011-04-18T16:15:27Z</time>
      </trkpt>
      <trkpt lat="32.598380148410797" lon="-1.54308557510376">
        <ele>1230.144287109375</ele>
        <time>2011-04-18T16:15:35Z</time>
      </trkpt>
      <trkpt lat="32.597119258716702" lon="-1.54308557510376">
        <ele>1230.144287109375</ele>
        <time>2011-04-18T16:15:45Z</time>
      </trkpt>
      <trkpt lat="32.595875216647983" lon="-1.543192863464356">
        <ele>1230.144287109375</ele>
        <time>2011-04-18T16:15:55Z</time>
      </trkpt>
      <trkpt lat="32.595164682716131" lon="-1.542467325925827">
        <ele>1229.66357421875</ele>
        <time>2011-04-18T16:16:02Z</time>
      </trkpt>
      <trkpt lat="32.594335041940212" lon="-1.541888471692801">
        <ele>1230.144287109375</ele>
        <time>2011-04-18T16:16:12Z</time>
      </trkpt>
      <trkpt lat="32.593954252079129" lon="-1.541570462286472">
        <ele>1230.144287109375</ele>
        <time>2011-04-18T16:16:20Z</time>
      </trkpt>
      <trkpt lat="32.593846376985312" lon="-1.541517321020365">
        <ele>1229.66357421875</ele>
        <time>2011-04-18T16:16:23Z</time>
      </trkpt>
      <trkpt lat="32.593440776690841" lon="-1.541767939925194">
        <ele>1229.182861328125</ele>
        <time>2011-04-18T16:16:31Z</time>
      </trkpt>
      <trkpt lat="32.592845493927598" lon="-1.542217880487442">
        <ele>1229.182861328125</ele>
        <time>2011-04-18T16:16:38Z</time>
      </trkpt>
      <trkpt lat="32.591546718031168" lon="-1.543135950341821">
        <ele>1229.182861328125</ele>
        <time>2011-04-18T16:16:51Z</time>
      </trkpt>
      <trkpt lat="32.590410467237234" lon="-1.544228447601199">
        <ele>1229.66357421875</ele>
        <time>2011-04-18T16:17:03Z</time>
      </trkpt>
      <trkpt lat="32.58918285369873" lon="-1.545166969299316">
        <ele>1230.144287109375</ele>
        <time>2011-04-18T16:17:15Z</time>
      </trkpt>
      <trkpt lat="32.588225221261382" lon="-1.545971129089594">
        <ele>1229.66357421875</ele>
        <time>2011-04-18T16:17:24Z</time>
      </trkpt>
      <trkpt lat="32.587261721491814" lon="-1.546768583357334">
        <ele>1229.66357421875</ele>
        <time>2011-04-18T16:17:33Z</time>
      </trkpt>
      <trkpt lat="32.586444821208715" lon="-1.547266468405724">
        <ele>1229.182861328125</ele>
        <time>2011-04-18T16:17:40Z</time>
      </trkpt>
      <trkpt lat="32.585033643990755" lon="-1.548219574615359">
        <ele>1227.26025390625</ele>
        <time>2011-04-18T16:17:52Z</time>
      </trkpt>
      <trkpt lat="32.584172235801816" lon="-1.548856180161238">
        <ele>1227.26025390625</ele>
        <time>2011-04-18T16:18:01Z</time>
      </trkpt>
      <trkpt lat="32.583923963829875" lon="-1.548729529604316">
        <ele>1225.818115234375</ele>
        <time>2011-04-18T16:18:08Z</time>
      </trkpt>
      <trkpt lat="32.583940979093313" lon="-1.548378663137555">
        <ele>1224.376220703125</ele>
        <time>2011-04-18T16:18:15Z</time>
      </trkpt>
      <trkpt lat="32.584111383184791" lon="-1.547912629321218">
        <ele>1223.4150390625</ele>
        <time>2011-04-18T16:18:25Z</time>
      </trkpt>
      <trkpt lat="32.58416754193604" lon="-1.547578945755959">
        <ele>1223.4150390625</ele>
        <time>2011-04-18T16:18:31Z</time>
      </trkpt>
      <trkpt lat="32.584103923290968" lon="-1.547396387904882">
        <ele>1223.8955078125</ele>
        <time>2011-04-18T16:18:35Z</time>
      </trkpt>
      <trkpt lat="32.583775520324707" lon="-1.546904537826777">
        <ele>1223.4150390625</ele>
        <time>2011-04-18T16:18:46Z</time>
      </trkpt>
      <trkpt lat="32.583454577252269" lon="-1.546119321137667">
        <ele>1223.8955078125</ele>
        <time>2011-04-18T16:18:54Z</time>
      </trkpt>
      <trkpt lat="32.583351396024227" lon="-1.54590935446322">
        <ele>1223.8955078125</ele>
        <time>2011-04-18T16:18:56Z</time>
      </trkpt>
      <trkpt lat="32.583095580339432" lon="-1.544842338189483">
        <ele>1224.376220703125</ele>
        <time>2011-04-18T16:19:04Z</time>
      </trkpt>
      <trkpt lat="32.583139836788177" lon="-1.543763587251306">
        <ele>1227.26025390625</ele>
        <time>2011-04-18T16:19:12Z</time>
      </trkpt>
      <trkpt lat="32.583025591447949" lon="-1.542776031419635">
        <ele>1228.2216796875</ele>
        <time>2011-04-18T16:19:19Z</time>
      </trkpt>
      <trkpt lat="32.582731135189533" lon="-1.541194031015039">
        <ele>1227.26025390625</ele>
        <time>2011-04-18T16:19:29Z</time>
      </trkpt>
      <trkpt lat="32.582359062507749" lon="-1.53966567479074">
        <ele>1227.26025390625</ele>
        <time>2011-04-18T16:19:39Z</time>
      </trkpt>
      <trkpt lat="32.581992438063025" lon="-1.538318367674947">
        <ele>1227.26025390625</ele>
        <time>2011-04-18T16:19:48Z</time>
      </trkpt>
      <trkpt lat="32.581947175785899" lon="-1.536229094490409">
        <ele>1228.2216796875</ele>
        <time>2011-04-18T16:19:58Z</time>
      </trkpt>
      <trkpt lat="32.581214178353548" lon="-1.535352515056729">
        <ele>1228.2216796875</ele>
        <time>2011-04-18T16:20:06Z</time>
      </trkpt>
      <trkpt lat="32.581120887771249" lon="-1.534744827076793">
        <ele>1227.74072265625</ele>
        <time>2011-04-18T16:20:11Z</time>
      </trkpt>
      <trkpt lat="32.581046372652054" lon="-1.534257922321558">
        <ele>1227.74072265625</ele>
        <time>2011-04-18T16:20:15Z</time>
      </trkpt>
      <trkpt lat="32.580835819244385" lon="-1.532519431784749">
        <ele>1227.74072265625</ele>
        <time>2011-04-18T16:20:27Z</time>
      </trkpt>
      <trkpt lat="32.580482270568609" lon="-1.531699178740382">
        <ele>1228.702392578125</ele>
        <time>2011-04-18T16:20:34Z</time>
      </trkpt>
      <trkpt lat="32.580810924991965" lon="-1.530911782756448">
        <ele>1229.182861328125</ele>
        <time>2011-04-18T16:20:39Z</time>
      </trkpt>
      <trkpt lat="32.580791646614671" lon="-1.530766356736422">
        <ele>1229.182861328125</ele>
        <time>2011-04-18T16:20:46Z</time>
      </trkpt>
      <trkpt lat="32.580856774002314" lon="-1.53057374060154">
        <ele>1229.182861328125</ele>
        <time>2011-04-18T16:21:04Z</time>
      </trkpt>
      <trkpt lat="32.580993147566915" lon="-1.530045680701733">
        <ele>1229.182861328125</ele>
        <time>2011-04-18T16:21:12Z</time>
      </trkpt>
      <trkpt lat="32.581147626042366" lon="-1.529530780389905">
        <ele>1229.66357421875</ele>
        <time>2011-04-18T16:21:19Z</time>
      </trkpt>
      <trkpt lat="32.581431018188596" lon="-1.528556467965245">
        <ele>1230.625</ele>
        <time>2011-04-18T16:21:29Z</time>
      </trkpt>
      <trkpt lat="32.581622796133161" lon="-1.52741233818233">
        <ele>1231.586181640625</ele>
        <time>2011-04-18T16:21:39Z</time>
      </trkpt>
      <trkpt lat="32.581743244081736" lon="-1.526301819831133">
        <ele>1231.586181640625</ele>
        <time>2011-04-18T16:21:48Z</time>
      </trkpt>
      <trkpt lat="32.581607792526484" lon="-1.525714164599776">
        <ele>1230.144287109375</ele>
        <time>2011-04-18T16:21:53Z</time>
      </trkpt>
      <trkpt lat="32.581068417057395" lon="-1.524941688403487">
        <ele>1228.2216796875</ele>
        <time>2011-04-18T16:22:01Z</time>
      </trkpt>
      <trkpt lat="32.58054044097662" lon="-1.52461445890367">
        <ele>1226.779541015625</ele>
        <time>2011-04-18T16:22:07Z</time>
      </trkpt>
      <trkpt lat="32.57989545352757" lon="-1.523852795362473">
        <ele>1226.779541015625</ele>
        <time>2011-04-18T16:22:16Z</time>
      </trkpt>
      <trkpt lat="32.579586580395699" lon="-1.523480722680688">
        <ele>1226.298828125</ele>
        <time>2011-04-18T16:22:23Z</time>
      </trkpt>
      <trkpt lat="32.579225739464164" lon="-1.523203952237964">
        <ele>1225.818115234375</ele>
        <time>2011-04-18T16:22:30Z</time>
      </trkpt>
      <trkpt lat="32.578638922423124" lon="-1.522818049415946">
        <ele>1224.85693359375</ele>
        <time>2011-04-18T16:22:39Z</time>
      </trkpt>
      <trkpt lat="32.578496262431145" lon="-1.52271076105535">
        <ele>1224.376220703125</ele>
        <time>2011-04-18T16:22:41Z</time>
      </trkpt>
      <trkpt lat="32.578212535008788" lon="-1.522118579596281">
        <ele>1224.85693359375</ele>
        <time>2011-04-18T16:22:48Z</time>
      </trkpt>
      <trkpt lat="32.577818417921662" lon="-1.5212213806808">
        <ele>1224.85693359375</ele>
        <time>2011-04-18T16:22:57Z</time>
      </trkpt>
      <trkpt lat="32.577223470434546" lon="-1.519912127405405">
        <ele>1224.85693359375</ele>
        <time>2011-04-18T16:23:10Z</time>
      </trkpt>
      <trkpt lat="32.576883668079972" lon="-1.519248280674219">
        <ele>1225.33740234375</ele>
        <time>2011-04-18T16:23:18Z</time>
      </trkpt>
      <trkpt lat="32.576425848528743" lon="-1.518281176686287">
        <ele>1225.818115234375</ele>
        <time>2011-04-18T16:23:28Z</time>
      </trkpt>
      <trkpt lat="32.57594003342092" lon="-1.517583467066288">
        <ele>1225.33740234375</ele>
        <time>2011-04-18T16:23:37Z</time>
      </trkpt>
      <trkpt lat="32.575199576094747" lon="-1.516875447705388">
        <ele>1225.33740234375</ele>
        <time>2011-04-18T16:23:46Z</time>
      </trkpt>
      <trkpt lat="32.574716527014971" lon="-1.516327522695065">
        <ele>1225.818115234375</ele>
        <time>2011-04-18T16:23:52Z</time>
      </trkpt>
      <trkpt lat="32.57465005852282" lon="-1.515959976240993">
        <ele>1226.298828125</ele>
        <time>2011-04-18T16:23:57Z</time>
      </trkpt>
      <trkpt lat="32.574750138446689" lon="-1.515820417553186">
        <ele>1226.298828125</ele>
        <time>2011-04-18T16:23:59Z</time>
      </trkpt>
      <trkpt lat="32.575348941609263" lon="-1.514952555298805">
        <ele>1229.182861328125</ele>
        <time>2011-04-18T16:24:08Z</time>
      </trkpt>
      <trkpt lat="32.576035754755139" lon="-1.514068935066462">
        <ele>1232.06689453125</ele>
        <time>2011-04-18T16:24:17Z</time>
      </trkpt>
      <trkpt lat="32.576953740790486" lon="-1.512906532734633">
        <ele>1236.392822265625</ele>
        <time>2011-04-18T16:24:29Z</time>
      </trkpt>
      <trkpt lat="32.577574253082275" lon="-1.511877737939358">
        <ele>1240.718505859375</ele>
        <time>2011-04-18T16:24:40Z</time>
      </trkpt>
      <trkpt lat="32.578197531402111" lon="-1.510742492973805">
        <ele>1245.525390625</ele>
        <time>2011-04-18T16:24:52Z</time>
      </trkpt>
      <trkpt lat="32.578470697626472" lon="-1.510153664276004">
        <ele>1246.96728515625</ele>
        <time>2011-04-18T16:24:58Z</time>
      </trkpt>
      <trkpt lat="32.578467596322298" lon="-1.509325448423624">
        <ele>1246.96728515625</ele>
        <time>2011-04-18T16:25:05Z</time>
      </trkpt>
      <trkpt lat="32.578439516946673" lon="-1.507861129939556">
        <ele>1244.08349609375</ele>
        <time>2011-04-18T16:25:16Z</time>
      </trkpt>
      <trkpt lat="32.578421663492918" lon="-1.507286634296179">
        <ele>1243.6025390625</ele>
        <time>2011-04-18T16:25:22Z</time>
      </trkpt>
      <trkpt lat="32.578502129763365" lon="-1.506659248843789">
        <ele>1245.044677734375</ele>
        <time>2011-04-18T16:25:27Z</time>
      </trkpt>
      <trkpt lat="32.578827431425452" lon="-1.505123684182763">
        <ele>1246.96728515625</ele>
        <time>2011-04-18T16:25:37Z</time>
      </trkpt>
      <trkpt lat="32.579058185219765" lon="-1.504589589312673">
        <ele>1246.96728515625</ele>
        <time>2011-04-18T16:25:42Z</time>
      </trkpt>
      <trkpt lat="32.579123731702566" lon="-1.504457993432879">
        <ele>1246.96728515625</ele>
        <time>2011-04-18T16:25:44Z</time>
      </trkpt>
      <trkpt lat="32.579118954017758" lon="-1.504113832488656">
        <ele>1246.48681640625</ele>
        <time>2011-04-18T16:25:50Z</time>
      </trkpt>
      <trkpt lat="32.579008061438799" lon="-1.503731952980161">
        <ele>1245.525390625</ele>
        <time>2011-04-18T16:25:56Z</time>
      </trkpt>
      <trkpt lat="32.579011246562004" lon="-1.503287041559815">
        <ele>1246.48681640625</ele>
        <time>2011-04-18T16:26:00Z</time>
      </trkpt>
      <trkpt lat="32.57929882965982" lon="-1.502161184325814">
        <ele>1248.889892578125</ele>
        <time>2011-04-18T16:26:10Z</time>
      </trkpt>
      <trkpt lat="32.579345852136612" lon="-1.501515274867415">
        <ele>1247.9287109375</ele>
        <time>2011-04-18T16:26:16Z</time>
      </trkpt>
      <trkpt lat="32.579294051975012" lon="-1.500822426751256">
        <ele>1245.525390625</ele>
        <time>2011-04-18T16:26:23Z</time>
      </trkpt>
      <trkpt lat="32.579305283725262" lon="-1.500528389587998">
        <ele>1244.56396484375</ele>
        <time>2011-04-18T16:26:27Z</time>
      </trkpt>
      <trkpt lat="32.579142423346639" lon="-1.500206021592021">
        <ele>1241.19921875</ele>
        <time>2011-04-18T16:26:33Z</time>
      </trkpt>
      <trkpt lat="32.578968582674861" lon="-1.500128069892526">
        <ele>1239.75732421875</ele>
        <time>2011-04-18T16:26:36Z</time>
      </trkpt>
      <trkpt lat="32.578742858022451" lon="-1.499983984977007">
        <ele>1237.834716796875</ele>
        <time>2011-04-18T16:26:40Z</time>
      </trkpt>
      <trkpt lat="32.578588798642159" lon="-1.499734288081527">
        <ele>1236.873291015625</ele>
        <time>2011-04-18T16:26:45Z</time>
      </trkpt>
      <trkpt lat="32.578508583828807" lon="-1.499379565939307">
        <ele>1238.3154296875</ele>
        <time>2011-04-18T16:26:56Z</time>
      </trkpt>
      <trkpt lat="32.57829031907022" lon="-1.499113943427801">
        <ele>1237.834716796875</ele>
        <time>2011-04-18T16:27:04Z</time>
      </trkpt>
      <trkpt lat="32.578314794227481" lon="-1.498736841604114">
        <ele>1240.718505859375</ele>
        <time>2011-04-18T16:27:10Z</time>
      </trkpt>
      <trkpt lat="32.57842568680644" lon="-1.498561073094606">
        <ele>1242.16064453125</ele>
        <time>2011-04-18T16:27:13Z</time>
      </trkpt>
      <trkpt lat="32.578615788370371" lon="-1.498349597677589">
        <ele>1244.08349609375</ele>
        <time>2011-04-18T16:27:17Z</time>
      </trkpt>
      <trkpt lat="32.579071344807744" lon="-1.497638644650579">
        <ele>1245.044677734375</ele>
        <time>2011-04-18T16:27:26Z</time>
      </trkpt>
      <trkpt lat="32.579855555668473" lon="-1.496476074680686">
        <ele>1246.006103515625</ele>
        <time>2011-04-18T16:27:37Z</time>
      </trkpt>
      <trkpt lat="32.580353859812021" lon="-1.495115524157882">
        <ele>1249.851318359375</ele>
        <time>2011-04-18T16:27:47Z</time>
      </trkpt>
      <trkpt lat="32.580881249159575" lon="-1.493673250079155">
        <ele>1251.77392578125</ele>
        <time>2011-04-18T16:27:58Z</time>
      </trkpt>
      <trkpt lat="32.581400172784925" lon="-1.492669098079205">
        <ele>1252.25439453125</ele>
        <time>2011-04-18T16:28:06Z</time>
      </trkpt>
      <trkpt lat="32.582025295123458" lon="-1.491673495620489">
        <ele>1253.2158203125</ele>
        <time>2011-04-18T16:28:14Z</time>
      </trkpt>
      <trkpt lat="32.582683190703392" lon="-1.490868665277958">
        <ele>1252.25439453125</ele>
        <time>2011-04-18T16:28:22Z</time>
      </trkpt>
      <trkpt lat="32.583234468474984" lon="-1.490141283720732">
        <ele>1252.25439453125</ele>
        <time>2011-04-18T16:28:29Z</time>
      </trkpt>
      <trkpt lat="32.58349472656846" lon="-1.489599645137787">
        <ele>1252.735107421875</ele>
        <time>2011-04-18T16:28:35Z</time>
      </trkpt>
      <trkpt lat="32.583539569750428" lon="-1.489312648773193">
        <ele>1252.735107421875</ele>
        <time>2011-04-18T16:28:39Z</time>
      </trkpt>
      <trkpt lat="32.583851292729378" lon="-1.488191820681095">
        <ele>1253.2158203125</ele>
        <time>2011-04-18T16:28:50Z</time>
      </trkpt>
      <trkpt lat="32.584027647972107" lon="-1.487492267042399">
        <ele>1253.2158203125</ele>
        <time>2011-04-18T16:28:58Z</time>
      </trkpt>
      <trkpt lat="32.584223952144384" lon="-1.486778045073152">
        <ele>1253.2158203125</ele>
        <time>2011-04-18T16:29:09Z</time>
      </trkpt>
      <trkpt lat="32.584275081753731" lon="-1.486634463071823">
        <ele>1253.696533203125</ele>
        <time>2011-04-18T16:29:11Z</time>
      </trkpt>
      <trkpt lat="32.584310034289956" lon="-1.486335145309568">
        <ele>1253.696533203125</ele>
        <time>2011-04-18T16:29:15Z</time>
      </trkpt>
      <trkpt lat="32.584530897438526" lon="-1.48590967990458">
        <ele>1253.696533203125</ele>
        <time>2011-04-18T16:29:21Z</time>
      </trkpt>
      <trkpt lat="32.584939682856202" lon="-1.485154218971729">
        <ele>1253.696533203125</ele>
        <time>2011-04-18T16:29:28Z</time>
      </trkpt>
      <trkpt lat="32.585106063634157" lon="-1.484827073290944">
        <ele>1253.696533203125</ele>
        <time>2011-04-18T16:29:31Z</time>
      </trkpt>
      <trkpt lat="32.585214441642165" lon="-1.484060296788812">
        <ele>1254.17724609375</ele>
        <time>2011-04-18T16:29:38Z</time>
      </trkpt>
      <trkpt lat="32.585166832432151" lon="-1.483696522191167">
        <ele>1253.696533203125</ele>
        <time>2011-04-18T16:29:41Z</time>
      </trkpt>
      <trkpt lat="32.584931887686253" lon="-1.483162678778172">
        <ele>1252.25439453125</ele>
        <time>2011-04-18T16:29:46Z</time>
      </trkpt>
      <trkpt lat="32.584603065624833" lon="-1.482664374634624">
        <ele>1251.293212890625</ele>
        <time>2011-04-18T16:29:51Z</time>
      </trkpt>
      <trkpt lat="32.584005352109671" lon="-1.481873542070389">
        <ele>1250.8125</ele>
        <time>2011-04-18T16:29:59Z</time>
      </trkpt>
      <trkpt lat="32.583317449316382" lon="-1.480803675949574">
        <ele>1249.851318359375</ele>
        <time>2011-04-18T16:30:08Z</time>
      </trkpt>
      <trkpt lat="32.582922326400876" lon="-1.47997822612524">
        <ele>1249.37060546875</ele>
        <time>2011-04-18T16:30:15Z</time>
      </trkpt>
      <trkpt lat="32.582560731098056" lon="-1.479084631428123">
        <ele>1248.889892578125</ele>
        <time>2011-04-18T16:30:23Z</time>
      </trkpt>
      <trkpt lat="32.582154544070363" lon="-1.478692525997758">
        <ele>1247.9287109375</ele>
        <time>2011-04-18T16:30:28Z</time>
      </trkpt>
      <trkpt lat="32.581674428656697" lon="-1.477973777800798">
        <ele>1246.96728515625</ele>
        <time>2011-04-18T16:30:35Z</time>
      </trkpt>
      <trkpt lat="32.581597818061709" lon="-1.477473629638553">
        <ele>1246.48681640625</ele>
        <time>2011-04-18T16:30:39Z</time>
      </trkpt>
      <trkpt lat="32.581519279628992" lon="-1.476105367764831">
        <ele>1246.48681640625</ele>
        <time>2011-04-18T16:30:48Z</time>
      </trkpt>
      <trkpt lat="32.581380223855376" lon="-1.475114794448018">
        <ele>1247.447998046875</ele>
        <time>2011-04-18T16:30:55Z</time>
      </trkpt>
      <trkpt lat="32.581244353204966" lon="-1.4741693995893">
        <ele>1247.9287109375</ele>
        <time>2011-04-18T16:31:02Z</time>
      </trkpt>
      <trkpt lat="32.581214597448707" lon="-1.474059848114848">
        <ele>1247.9287109375</ele>
        <time>2011-04-18T16:31:03Z</time>
      </trkpt>
      <trkpt lat="32.58097093552351" lon="-1.473674867302179">
        <ele>1246.48681640625</ele>
        <time>2011-04-18T16:31:08Z</time>
      </trkpt>
      <trkpt lat="32.580787958577275" lon="-1.473487699404359">
        <ele>1245.525390625</ele>
        <time>2011-04-18T16:31:14Z</time>
      </trkpt>
      <trkpt lat="32.580446731299162" lon="-1.473128451034427">
        <ele>1244.08349609375</ele>
        <time>2011-04-18T16:31:21Z</time>
      </trkpt>
      <trkpt lat="32.580211032181978" lon="-1.472892919555306">
        <ele>1243.6025390625</ele>
        <time>2011-04-18T16:31:25Z</time>
      </trkpt>
      <trkpt lat="32.579826386645436" lon="-1.472266959026456">
        <ele>1243.121826171875</ele>
        <time>2011-04-18T16:31:33Z</time>
      </trkpt>
      <trkpt lat="32.579572163522243" lon="-1.471900921314955">
        <ele>1242.641357421875</ele>
        <time>2011-04-18T16:31:40Z</time>
      </trkpt>
      <trkpt lat="32.579181147739291" lon="-1.471316451206803">
        <ele>1240.718505859375</ele>
        <time>2011-04-18T16:31:51Z</time>
      </trkpt>
      <trkpt lat="32.579085174947977" lon="-1.471183598041534">
        <ele>1240.718505859375</ele>
        <time>2011-04-18T16:31:53Z</time>
      </trkpt>
      <trkpt lat="32.578889289870858" lon="-1.471018055453897">
        <ele>1237.834716796875</ele>
        <time>2011-04-18T16:31:57Z</time>
      </trkpt>
      <trkpt lat="32.578663062304258" lon="-1.470880676060915">
        <ele>1236.873291015625</ele>
        <time>2011-04-18T16:32:02Z</time>
      </trkpt>
      <trkpt lat="32.578435661271214" lon="-1.470821751281619">
        <ele>1240.718505859375</ele>
        <time>2011-04-18T16:32:07Z</time>
      </trkpt>
      <trkpt lat="32.577990582212806" lon="-1.470758719369769">
        <ele>1245.044677734375</ele>
        <time>2011-04-18T16:32:18Z</time>
      </trkpt>
      <trkpt lat="32.577704591676593" lon="-1.47069719620049">
        <ele>1246.96728515625</ele>
        <time>2011-04-18T16:32:25Z</time>
      </trkpt>
      <trkpt lat="32.577093970030546" lon="-1.470465688034892">
        <ele>1248.4091796875</ele>
        <time>2011-04-18T16:32:37Z</time>
      </trkpt>
      <trkpt lat="32.576581416651607" lon="-1.470196293666959">
        <ele>1248.4091796875</ele>
        <time>2011-04-18T16:32:47Z</time>
      </trkpt>
      <trkpt lat="32.576324930414557" lon="-1.470024464651942">
        <ele>1248.4091796875</ele>
        <time>2011-04-18T16:32:55Z</time>
      </trkpt>
      <trkpt lat="32.576220743358135" lon="-1.469783233478665">
        <ele>1249.851318359375</ele>
        <time>2011-04-18T16:33:03Z</time>
      </trkpt>
      <trkpt lat="32.576014883816242" lon="-1.469575027003884">
        <ele>1248.4091796875</ele>
        <time>2011-04-18T16:33:10Z</time>
      </trkpt>
      <trkpt lat="32.575553124770522" lon="-1.469399761408567">
        <ele>1245.525390625</ele>
        <time>2011-04-18T16:33:19Z</time>
      </trkpt>
      <trkpt lat="32.575084827840328" lon="-1.469275541603565">
        <ele>1244.08349609375</ele>
        <time>2011-04-18T16:33:25Z</time>
      </trkpt>
      <trkpt lat="32.574762124568224" lon="-1.468970272690058">
        <ele>1244.08349609375</ele>
        <time>2011-04-18T16:33:30Z</time>
      </trkpt>
      <trkpt lat="32.574530029669404" lon="-1.468558637425304">
        <ele>1244.08349609375</ele>
        <time>2011-04-18T16:33:37Z</time>
      </trkpt>
      <trkpt lat="32.574428943917155" lon="-1.468381779268384">
        <ele>1243.6025390625</ele>
        <time>2011-04-18T16:33:45Z</time>
      </trkpt>
      <trkpt lat="32.574351243674755" lon="-1.468267450109124">
        <ele>1244.56396484375</ele>
        <time>2011-04-18T16:33:48Z</time>
      </trkpt>
      <trkpt lat="32.57427329197526" lon="-1.468062428757548">
        <ele>1246.96728515625</ele>
        <time>2011-04-18T16:33:53Z</time>
      </trkpt>
      <trkpt lat="32.574031557887793" lon="-1.467512072995305">
        <ele>1250.33203125</ele>
        <time>2011-04-18T16:34:02Z</time>
      </trkpt>
      <trkpt lat="32.573637776076794" lon="-1.466839760541916">
        <ele>1252.25439453125</ele>
        <time>2011-04-18T16:34:10Z</time>
      </trkpt>
      <trkpt lat="32.573342062532902" lon="-1.466272473335266">
        <ele>1254.17724609375</ele>
        <time>2011-04-18T16:34:17Z</time>
      </trkpt>
      <trkpt lat="32.573152631521225" lon="-1.466105673462153">
        <ele>1252.735107421875</ele>
        <time>2011-04-18T16:34:22Z</time>
      </trkpt>
      <trkpt lat="32.572885248810053" lon="-1.465973071753979">
        <ele>1249.37060546875</ele>
        <time>2011-04-18T16:34:26Z</time>
      </trkpt>
      <trkpt lat="32.572594732046127" lon="-1.465650787577033">
        <ele>1247.9287109375</ele>
        <time>2011-04-18T16:34:32Z</time>
      </trkpt>
      <trkpt lat="32.572357524186373" lon="-1.465176288038492">
        <ele>1248.889892578125</ele>
        <time>2011-04-18T16:34:38Z</time>
      </trkpt>
      <trkpt lat="32.571864919736981" lon="-1.464257631450892">
        <ele>1253.696533203125</ele>
        <time>2011-04-18T16:34:46Z</time>
      </trkpt>
      <trkpt lat="32.571228817105293" lon="-1.463282397016883">
        <ele>1256.580322265625</ele>
        <time>2011-04-18T16:34:55Z</time>
      </trkpt>
      <trkpt lat="32.570483833551407" lon="-1.462245974689722">
        <ele>1255.138427734375</ele>
        <time>2011-04-18T16:35:05Z</time>
      </trkpt>
      <trkpt lat="32.569588059559464" lon="-1.461281217634678">
        <ele>1253.2158203125</ele>
        <time>2011-04-18T16:35:15Z</time>
      </trkpt>
      <trkpt lat="32.569015491753817" lon="-1.460844771936536">
        <ele>1251.77392578125</ele>
        <time>2011-04-18T16:35:21Z</time>
      </trkpt>
      <trkpt lat="32.568830670788884" lon="-1.460532294586301">
        <ele>1251.293212890625</ele>
        <time>2011-04-18T16:35:25Z</time>
      </trkpt>
      <trkpt lat="32.568753473460674" lon="-1.460215039551258">
        <ele>1251.293212890625</ele>
        <time>2011-04-18T16:35:31Z</time>
      </trkpt>
      <trkpt lat="32.568564461544156" lon="-1.459762416779995">
        <ele>1252.735107421875</ele>
        <time>2011-04-18T16:35:38Z</time>
      </trkpt>
      <trkpt lat="32.568142265081406" lon="-1.458790199831128">
        <ele>1254.65771484375</ele>
        <time>2011-04-18T16:35:47Z</time>
      </trkpt>
      <trkpt lat="32.567618982866406" lon="-1.457487232983112">
        <ele>1255.619140625</ele>
        <time>2011-04-18T16:35:57Z</time>
      </trkpt>
      <trkpt lat="32.567177172750235" lon="-1.456138081848621">
        <ele>1257.06103515625</ele>
        <time>2011-04-18T16:36:07Z</time>
      </trkpt>
      <trkpt lat="32.566419281065464" lon="-1.454740231856704">
        <ele>1256.099609375</ele>
        <time>2011-04-18T16:36:19Z</time>
      </trkpt>
      <trkpt lat="32.566076880320907" lon="-1.454125754535198">
        <ele>1255.619140625</ele>
        <time>2011-04-18T16:36:25Z</time>
      </trkpt>
      <trkpt lat="32.565442621707916" lon="-1.452782638370991">
        <ele>1255.619140625</ele>
        <time>2011-04-18T16:36:36Z</time>
      </trkpt>
      <trkpt lat="32.565092425793409" lon="-1.451691398397088">
        <ele>1256.580322265625</ele>
        <time>2011-04-18T16:36:44Z</time>
      </trkpt>
      <trkpt lat="32.564827473834157" lon="-1.45044157281518">
        <ele>1255.138427734375</ele>
        <time>2011-04-18T16:36:53Z</time>
      </trkpt>
      <trkpt lat="32.564606862142682" lon="-1.44929769448936">
        <ele>1254.17724609375</ele>
        <time>2011-04-18T16:37:02Z</time>
      </trkpt>
      <trkpt lat="32.564501250162721" lon="-1.448894860222936">
        <ele>1253.696533203125</ele>
        <time>2011-04-18T16:37:08Z</time>
      </trkpt>
      <trkpt lat="32.564348364248872" lon="-1.448410050943494">
        <ele>1254.65771484375</ele>
        <time>2011-04-18T16:37:15Z</time>
      </trkpt>
      <trkpt lat="32.564232191070914" lon="-1.447774618864059">
        <ele>1254.65771484375</ele>
        <time>2011-04-18T16:37:21Z</time>
      </trkpt>
      <trkpt lat="32.563815359026194" lon="-1.446601739153266">
        <ele>1255.138427734375</ele>
        <time>2011-04-18T16:37:31Z</time>
      </trkpt>
      <trkpt lat="32.563312947750092" lon="-1.445419052615762">
        <ele>1255.619140625</ele>
        <time>2011-04-18T16:37:40Z</time>
      </trkpt>
      <trkpt lat="32.562733422964811" lon="-1.444041235372424">
        <ele>1258.0224609375</ele>
        <time>2011-04-18T16:37:50Z</time>
      </trkpt>
      <trkpt lat="32.562323547899723" lon="-1.442803982645273">
        <ele>1262.8291015625</ele>
        <time>2011-04-18T16:37:59Z</time>
      </trkpt>
      <trkpt lat="32.561985589563847" lon="-1.44203569740057">
        <ele>1266.193603515625</ele>
        <time>2011-04-18T16:38:06Z</time>
      </trkpt>
      <trkpt lat="32.561762966215611" lon="-1.440970357507467">
        <ele>1265.232421875</ele>
        <time>2011-04-18T16:38:15Z</time>
      </trkpt>
      <trkpt lat="32.561425259336829" lon="-1.439530765637755">
        <ele>1266.67431640625</ele>
        <time>2011-04-18T16:38:25Z</time>
      </trkpt>
      <trkpt lat="32.56105444394052" lon="-1.437956392765045">
        <ele>1269.558349609375</ele>
        <time>2011-04-18T16:38:37Z</time>
      </trkpt>
      <trkpt lat="32.560472069308162" lon="-1.436412865296006">
        <ele>1273.403564453125</ele>
        <time>2011-04-18T16:38:49Z</time>
      </trkpt>
      <trkpt lat="32.56022036075592" lon="-1.435411898419261">
        <ele>1274.36474609375</ele>
        <time>2011-04-18T16:38:57Z</time>
      </trkpt>
      <trkpt lat="32.560244165360928" lon="-1.434316467493773">
        <ele>1271.96142578125</ele>
        <time>2011-04-18T16:39:05Z</time>
      </trkpt>
      <trkpt lat="32.560408618301153" lon="-1.433072090148926">
        <ele>1268.596923828125</ele>
        <time>2011-04-18T16:39:14Z</time>
      </trkpt>
      <trkpt lat="32.560347346588969" lon="-1.432305062189698">
        <ele>1266.193603515625</ele>
        <time>2011-04-18T16:39:20Z</time>
      </trkpt>
      <trkpt lat="32.56025455892086" lon="-1.431201752275229">
        <ele>1264.751708984375</ele>
        <time>2011-04-18T16:39:28Z</time>
      </trkpt>
      <trkpt lat="32.560448348522186" lon="-1.429710695520043">
        <ele>1265.232421875</ele>
        <time>2011-04-18T16:39:37Z</time>
      </trkpt>
      <trkpt lat="32.560557732358575" lon="-1.428035236895084">
        <ele>1265.232421875</ele>
        <time>2011-04-18T16:39:47Z</time>
      </trkpt>
      <trkpt lat="32.560678431764245" lon="-1.425933642312884">
        <ele>1264.751708984375</ele>
        <time>2011-04-18T16:40:00Z</time>
      </trkpt>
      <trkpt lat="32.560944641008973" lon="-1.42456135712564">
        <ele>1265.232421875</ele>
        <time>2011-04-18T16:40:09Z</time>
      </trkpt>
      <trkpt lat="32.561035333201289" lon="-1.423350758850575">
        <ele>1264.27099609375</ele>
        <time>2011-04-18T16:40:17Z</time>
      </trkpt>
      <trkpt lat="32.56123423576355" lon="-1.423114640638232">
        <ele>1264.751708984375</ele>
        <time>2011-04-18T16:40:22Z</time>
      </trkpt>
      <trkpt lat="32.561360131949186" lon="-1.42295328900218">
        <ele>1263.790283203125</ele>
        <time>2011-04-18T16:40:27Z</time>
      </trkpt>
      <trkpt lat="32.561237253248692" lon="-1.423110868781805">
        <ele>1240.238037109375</ele>
        <time>2011-04-18T16:46:00Z</time>
      </trkpt>
      <trkpt lat="32.561083864420652" lon="-1.422878857702017">
        <ele>1240.718505859375</ele>
        <time>2011-04-18T16:46:08Z</time>
      </trkpt>
      <trkpt lat="32.561057629063725" lon="-1.422982374206185">
        <ele>1240.718505859375</ele>
        <time>2011-04-18T16:46:12Z</time>
      </trkpt>
      <trkpt lat="32.561008175835013" lon="-1.4231335837394">
        <ele>1242.16064453125</ele>
        <time>2011-04-18T16:46:23Z</time>
      </trkpt>
      <trkpt lat="32.56105637177825" lon="-1.42298455350101">
        <ele>1258.0224609375</ele>
        <time>2011-04-18T16:46:53Z</time>
      </trkpt>
      <trkpt lat="32.561267260462046" lon="-1.423047166317701">
        <ele>1252.25439453125</ele>
        <time>2011-04-18T16:54:35Z</time>
      </trkpt>
      <trkpt lat="32.561327693983912" lon="-1.422791769728065">
        <ele>1252.25439453125</ele>
        <time>2011-04-18T16:54:43Z</time>
      </trkpt>
      <trkpt lat="32.561490973457694" lon="-1.422785567119718">
        <ele>1251.77392578125</ele>
        <time>2011-04-18T16:54:46Z</time>
      </trkpt>
      <trkpt lat="32.56184452213347" lon="-1.422332357615233">
        <ele>1247.9287109375</ele>
        <time>2011-04-18T16:54:53Z</time>
      </trkpt>
      <trkpt lat="32.562513230368495" lon="-1.421146402135491">
        <ele>1242.641357421875</ele>
        <time>2011-04-18T16:55:04Z</time>
      </trkpt>
      <trkpt lat="32.562938695773482" lon="-1.419969834387302">
        <ele>1236.392822265625</ele>
        <time>2011-04-18T16:55:13Z</time>
      </trkpt>
      <trkpt lat="32.563316132873297" lon="-1.41854440793395">
        <ele>1230.144287109375</ele>
        <time>2011-04-18T16:55:21Z</time>
      </trkpt>
      <trkpt lat="32.563655180856586" lon="-1.416153470054269">
        <ele>1224.376220703125</ele>
        <time>2011-04-18T16:55:33Z</time>
      </trkpt>
      <trkpt lat="32.563755512237549" lon="-1.414607176557183">
        <ele>1222.934326171875</ele>
        <time>2011-04-18T16:55:41Z</time>
      </trkpt>
      <trkpt lat="32.563613103702664" lon="-1.412555119022727">
        <ele>1222.934326171875</ele>
        <time>2011-04-18T16:55:52Z</time>
      </trkpt>
      <trkpt lat="32.563387965783477" lon="-1.410170132294297">
        <ele>1227.26025390625</ele>
        <time>2011-04-18T16:56:05Z</time>
      </trkpt>
      <trkpt lat="32.563126953318715" lon="-1.408860879018903">
        <ele>1229.182861328125</ele>
        <time>2011-04-18T16:56:12Z</time>
      </trkpt>
      <trkpt lat="32.562600905075669" lon="-1.407219115644693">
        <ele>1232.547607421875</ele>
        <time>2011-04-18T16:56:20Z</time>
      </trkpt>
      <trkpt lat="32.561878971755505" lon="-1.404649140313268">
        <ele>1241.19921875</ele>
        <time>2011-04-18T16:56:32Z</time>
      </trkpt>
      <trkpt lat="32.56118587218225" lon="-1.402512844651938">
        <ele>1241.679931640625</ele>
        <time>2011-04-18T16:56:42Z</time>
      </trkpt>
      <trkpt lat="32.560318512842059" lon="-1.399770705029368">
        <ele>1241.679931640625</ele>
        <time>2011-04-18T16:56:54Z</time>
      </trkpt>
      <trkpt lat="32.559380242601037" lon="-1.396717429161072">
        <ele>1231.105712890625</ele>
        <time>2011-04-18T16:57:07Z</time>
      </trkpt>
      <trkpt lat="32.558152377605438" lon="-1.392627228051424">
        <ele>1223.8955078125</ele>
        <time>2011-04-18T16:57:24Z</time>
      </trkpt>
      <trkpt lat="32.557017551735044" lon="-1.389010101556778">
        <ele>1221.4921875</ele>
        <time>2011-04-18T16:57:39Z</time>
      </trkpt>
      <trkpt lat="32.556256391108036" lon="-1.386482790112495">
        <ele>1219.56982421875</ele>
        <time>2011-04-18T16:57:50Z</time>
      </trkpt>
      <trkpt lat="32.556180953979492" lon="-1.385360537096858">
        <ele>1219.56982421875</ele>
        <time>2011-04-18T16:57:55Z</time>
      </trkpt>
      <trkpt lat="32.556341551244259" lon="-1.383263049647212">
        <ele>1219.56982421875</ele>
        <time>2011-04-18T16:58:04Z</time>
      </trkpt>
      <trkpt lat="32.556679090484977" lon="-1.380730709061027">
        <ele>1215.243896484375</ele>
        <time>2011-04-18T16:58:15Z</time>
      </trkpt>
      <trkpt lat="32.557157026603818" lon="-1.377288848161697">
        <ele>1218.127685546875</ele>
        <time>2011-04-18T16:58:29Z</time>
      </trkpt>
      <trkpt lat="32.557053677737713" lon="-1.375840287655592">
        <ele>1219.089111328125</ele>
        <time>2011-04-18T16:58:35Z</time>
      </trkpt>
      <trkpt lat="32.556654531508684" lon="-1.374083356931806">
        <ele>1215.724609375</ele>
        <time>2011-04-18T16:58:42Z</time>
      </trkpt>
      <trkpt lat="32.555533619597554" lon="-1.369766173884273">
        <ele>1210.43701171875</ele>
        <time>2011-04-18T16:58:59Z</time>
      </trkpt>
      <trkpt lat="32.554907323792577" lon="-1.367426449432969">
        <ele>1211.3984375</ele>
        <time>2011-04-18T16:59:09Z</time>
      </trkpt>
      <trkpt lat="32.554394099861383" lon="-1.365465922281146">
        <ele>1208.9951171875</ele>
        <time>2011-04-18T16:59:19Z</time>
      </trkpt>
      <trkpt lat="32.554175332188606" lon="-1.363995485007763">
        <ele>1212.35986328125</ele>
        <time>2011-04-18T16:59:27Z</time>
      </trkpt>
      <trkpt lat="32.554425280541182" lon="-1.362841045483947">
        <ele>1214.76318359375</ele>
        <time>2011-04-18T16:59:33Z</time>
      </trkpt>
      <trkpt lat="32.554828785359859" lon="-1.361962957307696">
        <ele>1212.840576171875</ele>
        <time>2011-04-18T16:59:38Z</time>
      </trkpt>
      <trkpt lat="32.555673597380519" lon="-1.36086031794548">
        <ele>1212.35986328125</ele>
        <time>2011-04-18T16:59:45Z</time>
      </trkpt>
      <trkpt lat="32.557505378499627" lon="-1.358654033392668">
        <ele>1212.840576171875</ele>
        <time>2011-04-18T16:59:59Z</time>
      </trkpt>
      <trkpt lat="32.55912384018302" lon="-1.356738600879908">
        <ele>1214.76318359375</ele>
        <time>2011-04-18T17:00:11Z</time>
      </trkpt>
      <trkpt lat="32.561038602143526" lon="-1.354418573901057">
        <ele>1214.76318359375</ele>
        <time>2011-04-18T17:00:25Z</time>
      </trkpt>
      <trkpt lat="32.562281638383865" lon="-1.352446814998984">
        <ele>1215.724609375</ele>
        <time>2011-04-18T17:00:36Z</time>
      </trkpt>
      <trkpt lat="32.56402331404388" lon="-1.349820680916309">
        <ele>1220.531005859375</ele>
        <time>2011-04-18T17:00:51Z</time>
      </trkpt>
      <trkpt lat="32.56560598500073" lon="-1.347440723329783">
        <ele>1225.33740234375</ele>
        <time>2011-04-18T17:01:05Z</time>
      </trkpt>
      <trkpt lat="32.56726342253387" lon="-1.344929588958621">
        <ele>1228.702392578125</ele>
        <time>2011-04-18T17:01:19Z</time>
      </trkpt>
      <trkpt lat="32.568695386871696" lon="-1.34256748482585">
        <ele>1230.625</ele>
        <time>2011-04-18T17:01:32Z</time>
      </trkpt>
      <trkpt lat="32.569194277748466" lon="-1.341168461367488">
        <ele>1237.35400390625</ele>
        <time>2011-04-18T17:01:39Z</time>
      </trkpt>
      <trkpt lat="32.569325789809227" lon="-1.339592076838017">
        <ele>1244.08349609375</ele>
        <time>2011-04-18T17:01:46Z</time>
      </trkpt>
      <trkpt lat="32.56914515979588" lon="-1.337951319292188">
        <ele>1251.293212890625</ele>
        <time>2011-04-18T17:01:53Z</time>
      </trkpt>
      <trkpt lat="32.568790940567851" lon="-1.33472939953208">
        <ele>1264.751708984375</ele>
        <time>2011-04-18T17:02:07Z</time>
      </trkpt>
      <trkpt lat="32.568798065185547" lon="-1.333904284983873">
        <ele>1268.596923828125</ele>
        <time>2011-04-18T17:02:11Z</time>
      </trkpt>
      <trkpt lat="32.56918229162693" lon="-1.332506602630019">
        <ele>1274.845458984375</ele>
        <time>2011-04-18T17:02:18Z</time>
      </trkpt>
      <trkpt lat="32.569760894402862" lon="-1.330400230363011">
        <ele>1281.57470703125</ele>
        <time>2011-04-18T17:02:28Z</time>
      </trkpt>
      <trkpt lat="32.57010237313807" lon="-1.328754695132375">
        <ele>1282.055419921875</ele>
        <time>2011-04-18T17:02:36Z</time>
      </trkpt>
      <trkpt lat="32.570339078083634" lon="-1.326476242393255">
        <ele>1287.8232421875</ele>
        <time>2011-04-18T17:02:47Z</time>
      </trkpt>
      <trkpt lat="32.570437146350741" lon="-1.323738628998399">
        <ele>1295.033203125</ele>
        <time>2011-04-18T17:03:00Z</time>
      </trkpt>
      <trkpt lat="32.570260623469949" lon="-1.322139361873269">
        <ele>1300.320556640625</ele>
        <time>2011-04-18T17:03:07Z</time>
      </trkpt>
      <trkpt lat="32.570027858018875" lon="-1.31923109292984">
        <ele>1308.01123046875</ele>
        <time>2011-04-18T17:03:19Z</time>
      </trkpt>
      <trkpt lat="32.569791572168469" lon="-1.316398177295923">
        <ele>1313.29833984375</ele>
        <time>2011-04-18T17:03:31Z</time>
      </trkpt>
      <trkpt lat="32.569427546113729" lon="-1.315451106056571">
        <ele>1315.220947265625</ele>
        <time>2011-04-18T17:03:36Z</time>
      </trkpt>
      <trkpt lat="32.568790018558502" lon="-1.314213937148452">
        <ele>1316.18212890625</ele>
        <time>2011-04-18T17:03:43Z</time>
      </trkpt>
      <trkpt lat="32.567535750567913" lon="-1.312307892367244">
        <ele>1305.126953125</ele>
        <time>2011-04-18T17:03:54Z</time>
      </trkpt>
      <trkpt lat="32.566230772063136" lon="-1.310112169012427">
        <ele>1291.66845703125</ele>
        <time>2011-04-18T17:04:06Z</time>
      </trkpt>
      <trkpt lat="32.565868254750967" lon="-1.309029813855887">
        <ele>1288.78466796875</ele>
        <time>2011-04-18T17:04:12Z</time>
      </trkpt>
      <trkpt lat="32.565793991088867" lon="-1.307840924710035">
        <ele>1290.70703125</ele>
        <time>2011-04-18T17:04:18Z</time>
      </trkpt>
      <trkpt lat="32.56593924947083" lon="-1.30732418037951">
        <ele>1292.1494140625</ele>
        <time>2011-04-18T17:04:21Z</time>
      </trkpt>
      <trkpt lat="32.566677192226052" lon="-1.305542187765241">
        <ele>1284.458740234375</ele>
        <time>2011-04-18T17:04:31Z</time>
      </trkpt>
      <trkpt lat="32.56690769456327" lon="-1.305081350728869">
        <ele>1283.0166015625</ele>
        <time>2011-04-18T17:04:34Z</time>
      </trkpt>
      <trkpt lat="32.567297872155905" lon="-1.304532922804356">
        <ele>1279.17138671875</ele>
        <time>2011-04-18T17:04:39Z</time>
      </trkpt>
      <trkpt lat="32.567832889035344" lon="-1.30418230779469">
        <ele>1277.2490234375</ele>
        <time>2011-04-18T17:04:43Z</time>
      </trkpt>
      <trkpt lat="32.569140717387199" lon="-1.303947698324919">
        <ele>1270.038818359375</ele>
        <time>2011-04-18T17:04:51Z</time>
      </trkpt>
      <trkpt lat="32.570292139425874" lon="-1.303701438009739">
        <ele>1266.193603515625</ele>
        <time>2011-04-18T17:04:58Z</time>
      </trkpt>
      <trkpt lat="32.570861857384443" lon="-1.303235236555338">
        <ele>1263.790283203125</ele>
        <time>2011-04-18T17:05:02Z</time>
      </trkpt>
      <trkpt lat="32.571460576727986" lon="-1.30212714895606">
        <ele>1261.867919921875</ele>
        <time>2011-04-18T17:05:08Z</time>
      </trkpt>
      <trkpt lat="32.57148614153266" lon="-1.301047895103693">
        <ele>1261.867919921875</ele>
        <time>2011-04-18T17:05:13Z</time>
      </trkpt>
      <trkpt lat="32.571229739114642" lon="-1.298538688570261">
        <ele>1260.42578125</ele>
        <time>2011-04-18T17:05:24Z</time>
      </trkpt>
      <trkpt lat="32.570810057222843" lon="-1.297479216009378">
        <ele>1258.5029296875</ele>
        <time>2011-04-18T17:05:29Z</time>
      </trkpt>
      <trkpt lat="32.569946218281984" lon="-1.296228216961026">
        <ele>1258.0224609375</ele>
        <time>2011-04-18T17:05:36Z</time>
      </trkpt>
      <trkpt lat="32.569120852276683" lon="-1.294912844896317">
        <ele>1253.2158203125</ele>
        <time>2011-04-18T17:05:43Z</time>
      </trkpt>
      <trkpt lat="32.568779960274696" lon="-1.294416384771466">
        <ele>1250.33203125</ele>
        <time>2011-04-18T17:05:46Z</time>
      </trkpt>
      <trkpt lat="32.568598156794906" lon="-1.293498566374183">
        <ele>1247.9287109375</ele>
        <time>2011-04-18T17:05:51Z</time>
      </trkpt>
      <trkpt lat="32.568590613082051" lon="-1.293272506445646">
        <ele>1247.447998046875</ele>
        <time>2011-04-18T17:05:52Z</time>
      </trkpt>
      <trkpt lat="32.56845910102129" lon="-1.291121207177639">
        <ele>1249.37060546875</ele>
        <time>2011-04-18T17:06:01Z</time>
      </trkpt>
      <trkpt lat="32.568104965612292" lon="-1.288710152730346">
        <ele>1248.4091796875</ele>
        <time>2011-04-18T17:06:11Z</time>
      </trkpt>
      <trkpt lat="32.568135811015964" lon="-1.287483377382159">
        <ele>1247.447998046875</ele>
        <time>2011-04-18T17:06:16Z</time>
      </trkpt>
      <trkpt lat="32.568485168740153" lon="-1.28599114716053">
        <ele>1245.044677734375</ele>
        <time>2011-04-18T17:06:22Z</time>
      </trkpt>
      <trkpt lat="32.569085145369172" lon="-1.283604567870498">
        <ele>1243.6025390625</ele>
        <time>2011-04-18T17:06:32Z</time>
      </trkpt>
      <trkpt lat="32.568945419043303" lon="-1.282181823626161">
        <ele>1245.044677734375</ele>
        <time>2011-04-18T17:06:38Z</time>
      </trkpt>
      <trkpt lat="32.568879202008247" lon="-1.279416298493743">
        <ele>1244.56396484375</ele>
        <time>2011-04-18T17:06:50Z</time>
      </trkpt>
      <trkpt lat="32.56861500442028" lon="-1.278747925534844">
        <ele>1242.641357421875</ele>
        <time>2011-04-18T17:06:54Z</time>
      </trkpt>
      <trkpt lat="32.568272687494755" lon="-1.278084916993976">
        <ele>1238.796142578125</ele>
        <time>2011-04-18T17:06:58Z</time>
      </trkpt>
      <trkpt lat="32.566948430612683" lon="-1.276251040399075">
        <ele>1232.06689453125</ele>
        <time>2011-04-18T17:07:09Z</time>
      </trkpt>
      <trkpt lat="32.566436212509871" lon="-1.275188634172082">
        <ele>1232.547607421875</ele>
        <time>2011-04-18T17:07:15Z</time>
      </trkpt>
      <trkpt lat="32.565869428217411" lon="-1.273435140028596">
        <ele>1238.3154296875</ele>
        <time>2011-04-18T17:07:23Z</time>
      </trkpt>
      <trkpt lat="32.565429210662842" lon="-1.271150065585971">
        <ele>1246.96728515625</ele>
        <time>2011-04-18T17:07:33Z</time>
      </trkpt>
      <trkpt lat="32.565383780747652" lon="-1.270026387646794">
        <ele>1252.25439453125</ele>
        <time>2011-04-18T17:07:38Z</time>
      </trkpt>
      <trkpt lat="32.56530842743814" lon="-1.268838588148356">
        <ele>1257.06103515625</ele>
        <time>2011-04-18T17:07:44Z</time>
      </trkpt>
      <trkpt lat="32.565036434680223" lon="-1.267368653789163">
        <ele>1260.42578125</ele>
        <time>2011-04-18T17:07:51Z</time>
      </trkpt>
      <trkpt lat="32.564326319843531" lon="-1.264279587194324">
        <ele>1266.193603515625</ele>
        <time>2011-04-18T17:08:05Z</time>
      </trkpt>
      <trkpt lat="32.56382298655808" lon="-1.261728806421161">
        <ele>1265.232421875</ele>
        <time>2011-04-18T17:08:16Z</time>
      </trkpt>
      <trkpt lat="32.56325326859951" lon="-1.258368669077754">
        <ele>1270.51953125</ele>
        <time>2011-04-18T17:08:30Z</time>
      </trkpt>
      <trkpt lat="32.56301824003458" lon="-1.255933810025454">
        <ele>1278.210205078125</ele>
        <time>2011-04-18T17:08:40Z</time>
      </trkpt>
      <trkpt lat="32.562846662476659" lon="-1.252587251365185">
        <ele>1284.939453125</ele>
        <time>2011-04-18T17:08:54Z</time>
      </trkpt>
      <trkpt lat="32.562856888398528" lon="-1.250446513295174">
        <ele>1287.8232421875</ele>
        <time>2011-04-18T17:09:03Z</time>
      </trkpt>
      <trkpt lat="32.563202725723386" lon="-1.248064041137695">
        <ele>1295.033203125</ele>
        <time>2011-04-18T17:09:13Z</time>
      </trkpt>
      <trkpt lat="32.56372382864356" lon="-1.245395410805941">
        <ele>1300.320556640625</ele>
        <time>2011-04-18T17:09:25Z</time>
      </trkpt>
      <trkpt lat="32.564321961253881" lon="-1.242966083809733">
        <ele>1294.552490234375</ele>
        <time>2011-04-18T17:09:35Z</time>
      </trkpt>
      <trkpt lat="32.565207676962018" lon="-1.239781295880675">
        <ele>1283.497314453125</ele>
        <time>2011-04-18T17:09:47Z</time>
      </trkpt>
      <trkpt lat="32.566143264994025" lon="-1.236528949812055">
        <ele>1275.325927734375</ele>
        <time>2011-04-18T17:09:59Z</time>
      </trkpt>
      <trkpt lat="32.567005511373281" lon="-1.233920082449913">
        <ele>1271.96142578125</ele>
        <time>2011-04-18T17:10:09Z</time>
      </trkpt>
      <trkpt lat="32.567865075543523" lon="-1.232275636866689">
        <ele>1269.07763671875</ele>
        <time>2011-04-18T17:10:16Z</time>
      </trkpt>
      <trkpt lat="32.569297291338444" lon="-1.229556212201715">
        <ele>1266.67431640625</ele>
        <time>2011-04-18T17:10:28Z</time>
      </trkpt>
      <trkpt lat="32.570030791684985" lon="-1.227925764396787">
        <ele>1262.8291015625</ele>
        <time>2011-04-18T17:10:35Z</time>
      </trkpt>
      <trkpt lat="32.571062771603465" lon="-1.224983632564545">
        <ele>1257.541748046875</ele>
        <time>2011-04-18T17:10:47Z</time>
      </trkpt>
      <trkpt lat="32.572044795379043" lon="-1.222074693068862">
        <ele>1250.8125</ele>
        <time>2011-04-18T17:10:59Z</time>
      </trkpt>
      <trkpt lat="32.573024891316891" lon="-1.219231132417917">
        <ele>1248.889892578125</ele>
        <time>2011-04-18T17:11:11Z</time>
      </trkpt>
      <trkpt lat="32.574041783809662" lon="-1.2164724804461">
        <ele>1245.044677734375</ele>
        <time>2011-04-18T17:11:23Z</time>
      </trkpt>
      <trkpt lat="32.574677467346191" lon="-1.214182376861572">
        <ele>1242.641357421875</ele>
        <time>2011-04-18T17:11:33Z</time>
      </trkpt>
      <trkpt lat="32.57468719035387" lon="-1.212769104167819">
        <ele>1239.75732421875</ele>
        <time>2011-04-18T17:11:39Z</time>
      </trkpt>
      <trkpt lat="32.574453921988606" lon="-1.210767338052392">
        <ele>1237.35400390625</ele>
        <time>2011-04-18T17:11:47Z</time>
      </trkpt>
      <trkpt lat="32.574050584807992" lon="-1.208421243354678">
        <ele>1235.431396484375</ele>
        <time>2011-04-18T17:11:56Z</time>
      </trkpt>
      <trkpt lat="32.57365764118731" lon="-1.207089526578784">
        <ele>1233.989501953125</ele>
        <time>2011-04-18T17:12:02Z</time>
      </trkpt>
      <trkpt lat="32.572927325963974" lon="-1.205930393189192">
        <ele>1232.06689453125</ele>
        <time>2011-04-18T17:12:08Z</time>
      </trkpt>
      <trkpt lat="32.571893250569701" lon="-1.204735636711121">
        <ele>1230.144287109375</ele>
        <time>2011-04-18T17:12:15Z</time>
      </trkpt>
      <trkpt lat="32.570108408108354" lon="-1.20293696410954">
        <ele>1225.33740234375</ele>
        <time>2011-04-18T17:12:26Z</time>
      </trkpt>
      <trkpt lat="32.5680545065552" lon="-1.200942490249872">
        <ele>1223.4150390625</ele>
        <time>2011-04-18T17:12:38Z</time>
      </trkpt>
      <trkpt lat="32.565976548939943" lon="-1.198829663917422">
        <ele>1216.205078125</ele>
        <time>2011-04-18T17:12:51Z</time>
      </trkpt>
      <trkpt lat="32.564599066972733" lon="-1.197104919701815">
        <ele>1212.840576171875</ele>
        <time>2011-04-18T17:13:01Z</time>
      </trkpt>
      <trkpt lat="32.564070504158735" lon="-1.195871355012059">
        <ele>1210.917724609375</ele>
        <time>2011-04-18T17:13:07Z</time>
      </trkpt>
      <trkpt lat="32.563950391486287" lon="-1.194816995412111">
        <ele>1209.475830078125</ele>
        <time>2011-04-18T17:13:12Z</time>
      </trkpt>
      <trkpt lat="32.56401602178812" lon="-1.193345887586474">
        <ele>1209.475830078125</ele>
        <time>2011-04-18T17:13:18Z</time>
      </trkpt>
      <trkpt lat="32.56431014277041" lon="-1.19069142267108">
        <ele>1209.475830078125</ele>
        <time>2011-04-18T17:13:28Z</time>
      </trkpt>
      <trkpt lat="32.564527988433838" lon="-1.188125386834145">
        <ele>1214.282470703125</ele>
        <time>2011-04-18T17:13:38Z</time>
      </trkpt>
      <trkpt lat="32.564441235736012" lon="-1.187120648100972">
        <ele>1213.8017578125</ele>
        <time>2011-04-18T17:13:43Z</time>
      </trkpt>
      <trkpt lat="32.564217019826174" lon="-1.186367617920041">
        <ele>1213.3212890625</ele>
        <time>2011-04-18T17:13:49Z</time>
      </trkpt>
      <trkpt lat="32.56386405788362" lon="-1.185442926362157">
        <ele>1211.3984375</ele>
        <time>2011-04-18T17:13:58Z</time>
      </trkpt>
      <trkpt lat="32.563322754576802" lon="-1.184293935075402">
        <ele>1208.514404296875</ele>
        <time>2011-04-18T17:14:06Z</time>
      </trkpt>
      <trkpt lat="32.562595624476671" lon="-1.182828778401017">
        <ele>1206.591796875</ele>
        <time>2011-04-18T17:14:16Z</time>
      </trkpt>
      <trkpt lat="32.562042754143476" lon="-1.181995952501893">
        <ele>1207.55322265625</ele>
        <time>2011-04-18T17:14:22Z</time>
      </trkpt>
      <trkpt lat="32.561321742832661" lon="-1.181451715528965">
        <ele>1207.55322265625</ele>
        <time>2011-04-18T17:14:28Z</time>
      </trkpt>
      <trkpt lat="32.560842800885439" lon="-1.181329172104597">
        <ele>1208.9951171875</ele>
        <time>2011-04-18T17:14:31Z</time>
      </trkpt>
      <trkpt lat="32.559775030240417" lon="-1.180811002850533">
        <ele>1211.3984375</ele>
        <time>2011-04-18T17:14:38Z</time>
      </trkpt>
      <trkpt lat="32.559219058603048" lon="-1.180303059518337">
        <ele>1213.3212890625</ele>
        <time>2011-04-18T17:14:43Z</time>
      </trkpt>
      <trkpt lat="32.559077739715576" lon="-1.17982973344624">
        <ele>1215.243896484375</ele>
        <time>2011-04-18T17:14:47Z</time>
      </trkpt>
      <trkpt lat="32.559049157425761" lon="-1.179456738755107">
        <ele>1215.243896484375</ele>
        <time>2011-04-18T17:14:49Z</time>
      </trkpt>
      <trkpt lat="32.559008253738284" lon="-1.177650690078735">
        <ele>1216.205078125</ele>
        <time>2011-04-18T17:14:58Z</time>
      </trkpt>
      <trkpt lat="32.558973720297217" lon="-1.175499893724918">
        <ele>1215.243896484375</ele>
        <time>2011-04-18T17:15:08Z</time>
      </trkpt>
      <trkpt lat="32.558933487161994" lon="-1.175322784110904">
        <ele>1215.724609375</ele>
        <time>2011-04-18T17:15:09Z</time>
      </trkpt>
      <trkpt lat="32.55838162265718" lon="-1.174519462510943">
        <ele>1216.205078125</ele>
        <time>2011-04-18T17:15:15Z</time>
      </trkpt>
      <trkpt lat="32.558169392868876" lon="-1.174265490844846">
        <ele>1215.243896484375</ele>
        <time>2011-04-18T17:15:17Z</time>
      </trkpt>
      <trkpt lat="32.556726699694991" lon="-1.173147764056921">
        <ele>1213.3212890625</ele>
        <time>2011-04-18T17:15:26Z</time>
      </trkpt>
      <trkpt lat="32.554502058774233" lon="-1.171534582972527">
        <ele>1216.685791015625</ele>
        <time>2011-04-18T17:15:38Z</time>
      </trkpt>
      <trkpt lat="32.553666885942221" lon="-1.170456083491445">
        <ele>1217.16650390625</ele>
        <time>2011-04-18T17:15:44Z</time>
      </trkpt>
      <trkpt lat="32.553231278434396" lon="-1.169437179341912">
        <ele>1217.16650390625</ele>
        <time>2011-04-18T17:15:49Z</time>
      </trkpt>
      <trkpt lat="32.552898516878486" lon="-1.168243512511253">
        <ele>1217.64697265625</ele>
        <time>2011-04-18T17:15:54Z</time>
      </trkpt>
      <trkpt lat="32.552189659327269" lon="-1.165790297091007">
        <ele>1220.05029296875</ele>
        <time>2011-04-18T17:16:05Z</time>
      </trkpt>
      <trkpt lat="32.55211497657001" lon="-1.165604386478663">
        <ele>1220.531005859375</ele>
        <time>2011-04-18T17:16:06Z</time>
      </trkpt>
      <trkpt lat="32.551642991602421" lon="-1.164876585826278">
        <ele>1219.56982421875</ele>
        <time>2011-04-18T17:16:11Z</time>
      </trkpt>
      <trkpt lat="32.551498487591743" lon="-1.164759574458003">
        <ele>1219.089111328125</ele>
        <time>2011-04-18T17:16:12Z</time>
      </trkpt>
      <trkpt lat="32.550136093050241" lon="-1.163525423035026">
        <ele>1218.6083984375</ele>
        <time>2011-04-18T17:16:21Z</time>
      </trkpt>
      <trkpt lat="32.549548102542758" lon="-1.162599641829729">
        <ele>1219.56982421875</ele>
        <time>2011-04-18T17:16:26Z</time>
      </trkpt>
      <trkpt lat="32.548707481473684" lon="-1.160605251789093">
        <ele>1221.972900390625</ele>
        <time>2011-04-18T17:16:35Z</time>
      </trkpt>
      <trkpt lat="32.547634849324822" lon="-1.157406382262707">
        <ele>1228.702392578125</ele>
        <time>2011-04-18T17:16:49Z</time>
      </trkpt>
      <trkpt lat="32.546643353998661" lon="-1.155135473236442">
        <ele>1235.431396484375</ele>
        <time>2011-04-18T17:17:00Z</time>
      </trkpt>
      <trkpt lat="32.546439841389656" lon="-1.154839340597391">
        <ele>1236.392822265625</ele>
        <time>2011-04-18T17:17:02Z</time>
      </trkpt>
      <trkpt lat="32.545623108744621" lon="-1.154143558815122">
        <ele>1238.796142578125</ele>
        <time>2011-04-18T17:17:08Z</time>
      </trkpt>
      <trkpt lat="32.545457649976015" lon="-1.154049010947347">
        <ele>1239.276611328125</ele>
        <time>2011-04-18T17:17:09Z</time>
      </trkpt>
      <trkpt lat="32.542610904201865" lon="-1.15269809961319">
        <ele>1254.17724609375</ele>
        <time>2011-04-18T17:17:25Z</time>
      </trkpt>
      <trkpt lat="32.541020689532161" lon="-1.151702245697379">
        <ele>1263.790283203125</ele>
        <time>2011-04-18T17:17:35Z</time>
      </trkpt>
      <trkpt lat="32.540531270205975" lon="-1.150864893570542">
        <ele>1269.558349609375</ele>
        <time>2011-04-18T17:17:41Z</time>
      </trkpt>
      <trkpt lat="32.540458766743541" lon="-1.14986945874989">
        <ele>1274.36474609375</ele>
        <time>2011-04-18T17:17:46Z</time>
      </trkpt>
      <trkpt lat="32.540612323209643" lon="-1.14920150488615">
        <ele>1277.7294921875</ele>
        <time>2011-04-18T17:17:50Z</time>
      </trkpt>
      <trkpt lat="32.541037788614631" lon="-1.147580947726965">
        <ele>1284.458740234375</ele>
        <time>2011-04-18T17:17:59Z</time>
      </trkpt>
      <trkpt lat="32.541133174672723" lon="-1.146319303661585">
        <ele>1285.900634765625</ele>
        <time>2011-04-18T17:18:05Z</time>
      </trkpt>
      <trkpt lat="32.541228225454688" lon="-1.144103044643998">
        <ele>1282.5361328125</ele>
        <time>2011-04-18T17:18:14Z</time>
      </trkpt>
      <trkpt lat="32.541205007582903" lon="-1.142063308507204">
        <ele>1279.652099609375</ele>
        <time>2011-04-18T17:18:23Z</time>
      </trkpt>
      <trkpt lat="32.541047427803278" lon="-1.140529084950686">
        <ele>1279.17138671875</ele>
        <time>2011-04-18T17:18:30Z</time>
      </trkpt>
      <trkpt lat="32.541000405326486" lon="-1.138959489762783">
        <ele>1284.939453125</ele>
        <time>2011-04-18T17:18:37Z</time>
      </trkpt>
      <trkpt lat="32.541225543245673" lon="-1.137295765802264">
        <ele>1287.8232421875</ele>
        <time>2011-04-18T17:18:44Z</time>
      </trkpt>
      <trkpt lat="32.542138835415244" lon="-1.134343408048153">
        <ele>1293.110595703125</ele>
        <time>2011-04-18T17:18:57Z</time>
      </trkpt>
      <trkpt lat="32.542584333568811" lon="-1.132936086505652">
        <ele>1296.475341796875</ele>
        <time>2011-04-18T17:19:04Z</time>
      </trkpt>
      <trkpt lat="32.543193614110351" lon="-1.132254470139742">
        <ele>1294.552490234375</ele>
        <time>2011-04-18T17:19:09Z</time>
      </trkpt>
      <trkpt lat="32.544127609580755" lon="-1.131410831585527">
        <ele>1290.70703125</ele>
        <time>2011-04-18T17:19:15Z</time>
      </trkpt>
      <trkpt lat="32.54590691998601" lon="-1.129965791478753">
        <ele>1291.66845703125</ele>
        <time>2011-04-18T17:19:26Z</time>
      </trkpt>
      <trkpt lat="32.546363063156605" lon="-1.129278978332877">
        <ele>1292.630126953125</ele>
        <time>2011-04-18T17:19:30Z</time>
      </trkpt>
      <trkpt lat="32.546625668182969" lon="-1.127984896302223">
        <ele>1298.87841796875</ele>
        <time>2011-04-18T17:19:36Z</time>
      </trkpt>
      <trkpt lat="32.546511339023709" lon="-1.127115022391081">
        <ele>1304.165771484375</ele>
        <time>2011-04-18T17:19:40Z</time>
      </trkpt>
      <trkpt lat="32.545693768188357" lon="-1.124874539673328">
        <ele>1316.18212890625</ele>
        <time>2011-04-18T17:19:51Z</time>
      </trkpt>
      <trkpt lat="32.545301914215088" lon="-1.124317646026611">
        <ele>1319.546875</ele>
        <time>2011-04-18T17:19:55Z</time>
      </trkpt>
      <trkpt lat="32.544516194611788" lon="-1.123669892549515">
        <ele>1321.46923828125</ele>
        <time>2011-04-18T17:20:01Z</time>
      </trkpt>
      <trkpt lat="32.542555583640933" lon="-1.122334990650415">
        <ele>1334.927978515625</ele>
        <time>2011-04-18T17:20:14Z</time>
      </trkpt>
      <trkpt lat="32.542040348052979" lon="-1.121506690979004">
        <ele>1343.579833984375</ele>
        <time>2011-04-18T17:20:21Z</time>
      </trkpt>
      <trkpt lat="32.541911602020264" lon="-1.121056079864502">
        <ele>1345.50244140625</ele>
        <time>2011-04-18T17:20:26Z</time>
      </trkpt>
      <trkpt lat="32.542323907837272" lon="-1.119861071929336">
        <ele>1358.480224609375</ele>
        <time>2011-04-18T17:20:36Z</time>
      </trkpt>
      <trkpt lat="32.542694807052612" lon="-1.118323830887675">
        <ele>1373.861328125</ele>
        <time>2011-04-18T17:20:45Z</time>
      </trkpt>
      <trkpt lat="32.542732860893011" lon="-1.117789819836617">
        <ele>1379.1484375</ele>
        <time>2011-04-18T17:20:48Z</time>
      </trkpt>
      <trkpt lat="32.542606964707375" lon="-1.117232255637646">
        <ele>1388.761962890625</ele>
        <time>2011-04-18T17:20:52Z</time>
      </trkpt>
      <trkpt lat="32.542383670806885" lon="-1.116720791906118">
        <ele>1396.452392578125</ele>
        <time>2011-04-18T17:20:56Z</time>
      </trkpt>
      <trkpt lat="32.542473776265979" lon="-1.116257859393954">
        <ele>1403.181396484375</ele>
        <time>2011-04-18T17:21:01Z</time>
      </trkpt>
      <trkpt lat="32.542693633586168" lon="-1.116015957668424">
        <ele>1402.70068359375</ele>
        <time>2011-04-18T17:21:04Z</time>
      </trkpt>
      <trkpt lat="32.542919358238578" lon="-1.115737343207002">
        <ele>1400.297607421875</ele>
        <time>2011-04-18T17:21:07Z</time>
      </trkpt>
      <trkpt lat="32.543150447309017" lon="-1.115204924717546">
        <ele>1396.932861328125</ele>
        <time>2011-04-18T17:21:12Z</time>
      </trkpt>
      <trkpt lat="32.543077692389488" lon="-1.114825224503875">
        <ele>1394.049072265625</ele>
        <time>2011-04-18T17:21:15Z</time>
      </trkpt>
      <trkpt lat="32.542512500658631" lon="-1.114066746085882">
        <ele>1388.28125</ele>
        <time>2011-04-18T17:21:21Z</time>
      </trkpt>
      <trkpt lat="32.541964994743466" lon="-1.113777821883559">
        <ele>1381.5517578125</ele>
        <time>2011-04-18T17:21:26Z</time>
      </trkpt>
      <trkpt lat="32.541553191840649" lon="-1.113745300099254">
        <ele>1379.629150390625</ele>
        <time>2011-04-18T17:21:29Z</time>
      </trkpt>
      <trkpt lat="32.54024033434689" lon="-1.114123994484544">
        <ele>1375.30322265625</ele>
        <time>2011-04-18T17:21:39Z</time>
      </trkpt>
      <trkpt lat="32.539460901170969" lon="-1.11451375298202">
        <ele>1368.573974609375</ele>
        <time>2011-04-18T17:21:45Z</time>
      </trkpt>
      <trkpt lat="32.539221681654453" lon="-1.114633362740278">
        <ele>1366.6513671875</ele>
        <time>2011-04-18T17:21:47Z</time>
      </trkpt>
      <trkpt lat="32.538615167140961" lon="-1.114704608917236">
        <ele>1362.80615234375</ele>
        <time>2011-04-18T17:21:52Z</time>
      </trkpt>
      <trkpt lat="32.5384680647403" lon="-1.114704608917236">
        <ele>1362.80615234375</ele>
        <time>2011-04-18T17:21:53Z</time>
      </trkpt>
      <trkpt lat="32.537107514217496" lon="-1.114098681136966">
        <ele>1358.480224609375</ele>
        <time>2011-04-18T17:22:03Z</time>
      </trkpt>
      <trkpt lat="32.536365631967783" lon="-1.11340356990695">
        <ele>1352.712158203125</ele>
        <time>2011-04-18T17:22:09Z</time>
      </trkpt>
      <trkpt lat="32.535836482420564" lon="-1.112422216683626">
        <ele>1343.579833984375</ele>
        <time>2011-04-18T17:22:15Z</time>
      </trkpt>
      <trkpt lat="32.535649817436934" lon="-1.111210696399212">
        <ele>1341.6572265625</ele>
        <time>2011-04-18T17:22:21Z</time>
      </trkpt>
      <trkpt lat="32.535713352262974" lon="-1.109790802001953">
        <ele>1345.983154296875</ele>
        <time>2011-04-18T17:22:27Z</time>
      </trkpt>
      <trkpt lat="32.536032116040587" lon="-1.107273884117603">
        <ele>1353.673583984375</ele>
        <time>2011-04-18T17:22:37Z</time>
      </trkpt>
      <trkpt lat="32.536407709121704" lon="-1.104313395917416">
        <ele>1360.40283203125</ele>
        <time>2011-04-18T17:22:48Z</time>
      </trkpt>
      <trkpt lat="32.536721862852573" lon="-1.101832939311862">
        <ele>1363.767333984375</ele>
        <time>2011-04-18T17:22:57Z</time>
      </trkpt>
      <trkpt lat="32.536823535338044" lon="-1.100525613874197">
        <ele>1363.286865234375</ele>
        <time>2011-04-18T17:23:03Z</time>
      </trkpt>
      <trkpt lat="32.536899140104651" lon="-1.099412916228175">
        <ele>1361.844970703125</ele>
        <time>2011-04-18T17:23:10Z</time>
      </trkpt>
      <trkpt lat="32.53692738711834" lon="-1.098810508847237">
        <ele>1361.3642578125</ele>
        <time>2011-04-18T17:23:16Z</time>
      </trkpt>
      <trkpt lat="32.53694549202919" lon="-1.098424941301346">
        <ele>1361.3642578125</ele>
        <time>2011-04-18T17:23:24Z</time>
      </trkpt>
      <trkpt lat="32.536954041570425" lon="-1.098242299631238">
        <ele>1360.883544921875</ele>
        <time>2011-04-18T17:23:56Z</time>
      </trkpt>
      <trkpt lat="32.536906851455569" lon="-1.09755246900022">
        <ele>1360.883544921875</ele>
        <time>2011-04-18T17:24:03Z</time>
      </trkpt>
      <trkpt lat="32.536795120686293" lon="-1.096609337255359">
        <ele>1359.922119140625</ele>
        <time>2011-04-18T17:24:09Z</time>
      </trkpt>
      <trkpt lat="32.536444840952754" lon="-1.094941338524222">
        <ele>1356.5576171875</ele>
        <time>2011-04-18T17:24:19Z</time>
      </trkpt>
      <trkpt lat="32.536152731627226" lon="-1.093513481318951">
        <ele>1353.19287109375</ele>
        <time>2011-04-18T17:24:26Z</time>
      </trkpt>
      <trkpt lat="32.535741766914725" lon="-1.091404929757118">
        <ele>1347.425048828125</ele>
        <time>2011-04-18T17:24:35Z</time>
      </trkpt>
      <trkpt lat="32.535171546041965" lon="-1.088814837858081">
        <ele>1340.21533203125</ele>
        <time>2011-04-18T17:24:45Z</time>
      </trkpt>
      <trkpt lat="32.534404015168548" lon="-1.085152952000499">
        <ele>1330.60205078125</ele>
        <time>2011-04-18T17:24:59Z</time>
      </trkpt>
      <trkpt lat="32.53365752287209" lon="-1.081269616261125">
        <ele>1322.4306640625</ele>
        <time>2011-04-18T17:25:13Z</time>
      </trkpt>
      <trkpt lat="32.533065844327211" lon="-1.078674662858248">
        <ele>1321.949951171875</ele>
        <time>2011-04-18T17:25:23Z</time>
      </trkpt>
      <trkpt lat="32.532432256266475" lon="-1.075675114989281">
        <ele>1325.79541015625</ele>
        <time>2011-04-18T17:25:35Z</time>
      </trkpt>
      <trkpt lat="32.53230057656765" lon="-1.07392237521708">
        <ele>1326.276123046875</ele>
        <time>2011-04-18T17:25:42Z</time>
      </trkpt>
      <trkpt lat="32.532407697290182" lon="-1.071800077334046">
        <ele>1322.911376953125</ele>
        <time>2011-04-18T17:25:50Z</time>
      </trkpt>
      <trkpt lat="32.532600481063128" lon="-1.068738922476769">
        <ele>1315.70166015625</ele>
        <time>2011-04-18T17:26:02Z</time>
      </trkpt>
      <trkpt lat="32.532811537384987" lon="-1.065362356603146">
        <ele>1311.375732421875</ele>
        <time>2011-04-18T17:26:16Z</time>
      </trkpt>
      <trkpt lat="32.532964423298836" lon="-1.062114536762238">
        <ele>1311.8564453125</ele>
        <time>2011-04-18T17:26:30Z</time>
      </trkpt>
      <trkpt lat="32.532841796055436" lon="-1.060190554708242">
        <ele>1312.3369140625</ele>
        <time>2011-04-18T17:26:38Z</time>
      </trkpt>
      <trkpt lat="32.532638031989336" lon="-1.058207899332047">
        <ele>1311.8564453125</ele>
        <time>2011-04-18T17:26:46Z</time>
      </trkpt>
      <trkpt lat="32.532524708658457" lon="-1.057461574673653">
        <ele>1311.375732421875</ele>
        <time>2011-04-18T17:26:51Z</time>
      </trkpt>
      <trkpt lat="32.53236754797399" lon="-1.056247455999255">
        <ele>1309.93359375</ele>
        <time>2011-04-18T17:27:02Z</time>
      </trkpt>
      <trkpt lat="32.532256655395031" lon="-1.055118413642049">
        <ele>1309.453125</ele>
        <time>2011-04-18T17:27:14Z</time>
      </trkpt>
      <trkpt lat="32.532115168869495" lon="-1.053843190893531">
        <ele>1308.49169921875</ele>
        <time>2011-04-18T17:27:24Z</time>
      </trkpt>
      <trkpt lat="32.531961696222425" lon="-1.052715489640832">
        <ele>1305.607666015625</ele>
        <time>2011-04-18T17:27:30Z</time>
      </trkpt>
      <trkpt lat="32.531634131446481" lon="-1.051000216975808">
        <ele>1300.801025390625</ele>
        <time>2011-04-18T17:27:38Z</time>
      </trkpt>
      <trkpt lat="32.531048823148012" lon="-1.048458153381944">
        <ele>1295.99462890625</ele>
        <time>2011-04-18T17:27:50Z</time>
      </trkpt>
      <trkpt lat="32.530536353588104" lon="-1.046298975124955">
        <ele>1292.1494140625</ele>
        <time>2011-04-18T17:28:00Z</time>
      </trkpt>
      <trkpt lat="32.529941741377115" lon="-1.044883104041219">
        <ele>1291.66845703125</ele>
        <time>2011-04-18T17:28:08Z</time>
      </trkpt>
      <trkpt lat="32.529223328456283" lon="-1.043848106637597">
        <ele>1295.033203125</ele>
        <time>2011-04-18T17:28:14Z</time>
      </trkpt>
      <trkpt lat="32.527879625558853" lon="-1.042184634134173">
        <ele>1300.801025390625</ele>
        <time>2011-04-18T17:28:24Z</time>
      </trkpt>
      <trkpt lat="32.527398755773902" lon="-1.041211159899831">
        <ele>1299.83984375</ele>
        <time>2011-04-18T17:28:30Z</time>
      </trkpt>
      <trkpt lat="32.527178730815649" lon="-1.040162583813071">
        <ele>1300.320556640625</ele>
        <time>2011-04-18T17:28:36Z</time>
      </trkpt>
      <trkpt lat="32.527170181274414" lon="-1.03996753692627">
        <ele>1301.28173828125</ele>
        <time>2011-04-18T17:28:37Z</time>
      </trkpt>
      <trkpt lat="32.52730437554419" lon="-1.03759772144258">
        <ele>1306.088134765625</ele>
        <time>2011-04-18T17:28:48Z</time>
      </trkpt>
      <trkpt lat="32.527580056339502" lon="-1.035545580089092">
        <ele>1307.049560546875</ele>
        <time>2011-04-18T17:28:57Z</time>
      </trkpt>
      <trkpt lat="32.528027817606926" lon="-1.03349469602108">
        <ele>1301.762451171875</ele>
        <time>2011-04-18T17:29:06Z</time>
      </trkpt>
      <trkpt lat="32.528326213359833" lon="-1.032283846288919">
        <ele>1295.99462890625</ele>
        <time>2011-04-18T17:29:12Z</time>
      </trkpt>
      <trkpt lat="32.528614550828934" lon="-1.0310725774616">
        <ele>1289.745849609375</ele>
        <time>2011-04-18T17:29:20Z</time>
      </trkpt>
      <trkpt lat="32.528913114219904" lon="-1.029255967587233">
        <ele>1281.57470703125</ele>
        <time>2011-04-18T17:29:31Z</time>
      </trkpt>
      <trkpt lat="32.528949324041605" lon="-1.028246534988284">
        <ele>1275.806640625</ele>
        <time>2011-04-18T17:29:37Z</time>
      </trkpt>
      <trkpt lat="32.529028616845608" lon="-1.027794079855084">
        <ele>1275.325927734375</ele>
        <time>2011-04-18T17:29:40Z</time>
      </trkpt>
      <trkpt lat="32.529141437262297" lon="-1.027252357453108">
        <ele>1274.36474609375</ele>
        <time>2011-04-18T17:29:44Z</time>
      </trkpt>
      <trkpt lat="32.529738564044237" lon="-1.026133960112929">
        <ele>1268.1162109375</ele>
        <time>2011-04-18T17:29:54Z</time>
      </trkpt>
      <trkpt lat="32.530053220689297" lon="-1.025965148583055">
        <ele>1261.38720703125</ele>
        <time>2011-04-18T17:29:58Z</time>
      </trkpt>
      <trkpt lat="32.530370894819498" lon="-1.02582223713398">
        <ele>1256.580322265625</ele>
        <time>2011-04-18T17:30:01Z</time>
      </trkpt>
      <trkpt lat="32.530877664685249" lon="-1.025577569380403">
        <ele>1248.889892578125</ele>
        <time>2011-04-18T17:30:07Z</time>
      </trkpt>
      <trkpt lat="32.53101940266788" lon="-1.025503557175398">
        <ele>1246.48681640625</ele>
        <time>2011-04-18T17:30:09Z</time>
      </trkpt>
      <trkpt lat="32.531396001577377" lon="-1.025312785059214">
        <ele>1241.679931640625</ele>
        <time>2011-04-18T17:30:14Z</time>
      </trkpt>
      <trkpt lat="32.531558526679873" lon="-1.02516358718276">
        <ele>1242.16064453125</ele>
        <time>2011-04-18T17:30:18Z</time>
      </trkpt>
      <trkpt lat="32.531098192557693" lon="-1.023378996178508">
        <ele>1242.641357421875</ele>
        <time>2011-04-18T17:30:27Z</time>
      </trkpt>
      <trkpt lat="32.530594440177083" lon="-1.021417547017336">
        <ele>1246.006103515625</ele>
        <time>2011-04-18T17:30:37Z</time>
      </trkpt>
      <trkpt lat="32.530413223430514" lon="-1.020258078351617">
        <ele>1247.447998046875</ele>
        <time>2011-04-18T17:30:43Z</time>
      </trkpt>
      <trkpt lat="32.530219433829188" lon="-1.019532289355993">
        <ele>1249.851318359375</ele>
        <time>2011-04-18T17:30:47Z</time>
      </trkpt>
      <trkpt lat="32.530106697231531" lon="-1.018987381830812">
        <ele>1249.37060546875</ele>
        <time>2011-04-18T17:30:50Z</time>
      </trkpt>
      <trkpt lat="32.530168555676937" lon="-1.018174421042204">
        <ele>1247.9287109375</ele>
        <time>2011-04-18T17:30:55Z</time>
      </trkpt>
      <trkpt lat="32.53020585514605" lon="-1.018025390803814">
        <ele>1247.447998046875</ele>
        <time>2011-04-18T17:30:56Z</time>
      </trkpt>
      <trkpt lat="32.530484469607472" lon="-1.016356470063329">
        <ele>1235.431396484375</ele>
        <time>2011-04-18T17:31:05Z</time>
      </trkpt>
      <trkpt lat="32.530449852347374" lon="-1.015008240938187">
        <ele>1226.298828125</ele>
        <time>2011-04-18T17:31:12Z</time>
      </trkpt>
      <trkpt lat="32.530167549848557" lon="-1.014052452519536">
        <ele>1221.4921875</ele>
        <time>2011-04-18T17:31:18Z</time>
      </trkpt>
      <trkpt lat="32.529439916834235" lon="-1.013124324381352">
        <ele>1218.127685546875</ele>
        <time>2011-04-18T17:31:25Z</time>
      </trkpt>
      <trkpt lat="32.528919987380505" lon="-1.01281251758337">
        <ele>1221.972900390625</ele>
        <time>2011-04-18T17:31:30Z</time>
      </trkpt>
      <trkpt lat="32.528374576941133" lon="-1.012539099901915">
        <ele>1224.85693359375</ele>
        <time>2011-04-18T17:31:35Z</time>
      </trkpt>
      <trkpt lat="32.527576619759202" lon="-1.012246990576387">
        <ele>1223.8955078125</ele>
        <time>2011-04-18T17:31:42Z</time>
      </trkpt>
      <trkpt lat="32.526801712810993" lon="-1.011947169899941">
        <ele>1221.01171875</ele>
        <time>2011-04-18T17:31:48Z</time>
      </trkpt>
      <trkpt lat="32.526294691488147" lon="-1.011984720826149">
        <ele>1219.56982421875</ele>
        <time>2011-04-18T17:31:52Z</time>
      </trkpt>
      <trkpt lat="32.52519347704947" lon="-1.01208102889359">
        <ele>1218.127685546875</ele>
        <time>2011-04-18T17:31:59Z</time>
      </trkpt>
      <trkpt lat="32.524254955351353" lon="-1.012479336932302">
        <ele>1219.56982421875</ele>
        <time>2011-04-18T17:32:05Z</time>
      </trkpt>
      <trkpt lat="32.523038992658257" lon="-1.012716293334961">
        <ele>1221.01171875</ele>
        <time>2011-04-18T17:32:13Z</time>
      </trkpt>
      <trkpt lat="32.522356621921062" lon="-1.0126918181777">
        <ele>1220.05029296875</ele>
        <time>2011-04-18T17:32:18Z</time>
      </trkpt>
      <trkpt lat="32.521504601463675" lon="-1.012147916480899">
        <ele>1216.205078125</ele>
        <time>2011-04-18T17:32:25Z</time>
      </trkpt>
      <trkpt lat="32.519789412617683" lon="-1.011321544647217">
        <ele>1210.917724609375</ele>
        <time>2011-04-18T17:32:37Z</time>
      </trkpt>
      <trkpt lat="32.518549058586359" lon="-1.011314168572426">
        <ele>1207.55322265625</ele>
        <time>2011-04-18T17:32:45Z</time>
      </trkpt>
      <trkpt lat="32.516962867230177" lon="-1.011221716180444">
        <ele>1202.74658203125</ele>
        <time>2011-04-18T17:32:55Z</time>
      </trkpt>
      <trkpt lat="32.51615434885025" lon="-1.010964727029204">
        <ele>1200.343505859375</ele>
        <time>2011-04-18T17:33:01Z</time>
      </trkpt>
      <trkpt lat="32.515823766589165" lon="-1.01065811701119">
        <ele>1199.86279296875</ele>
        <time>2011-04-18T17:33:06Z</time>
      </trkpt>
      <trkpt lat="32.515276093035936" lon="-1.009933250024915">
        <ele>1202.74658203125</ele>
        <time>2011-04-18T17:33:13Z</time>
      </trkpt>
      <trkpt lat="32.515029329806566" lon="-1.009326819330454">
        <ele>1202.265869140625</ele>
        <time>2011-04-18T17:33:19Z</time>
      </trkpt>
      <trkpt lat="32.514832019805908" lon="-1.007701735943556">
        <ele>1197.45947265625</ele>
        <time>2011-04-18T17:33:33Z</time>
      </trkpt>
      <trkpt lat="32.514861943200231" lon="-1.006481749936938">
        <ele>1191.69140625</ele>
        <time>2011-04-18T17:33:43Z</time>
      </trkpt>
      <trkpt lat="32.514660693705082" lon="-1.005533337593079">
        <ele>1186.404296875</ele>
        <time>2011-04-18T17:33:51Z</time>
      </trkpt>
      <trkpt lat="32.514467239379883" lon="-1.004927158355713">
        <ele>1182.55908203125</ele>
        <time>2011-04-18T17:33:58Z</time>
      </trkpt>
      <trkpt lat="32.51396432518959" lon="-1.00442323833704">
        <ele>1179.6748046875</ele>
        <time>2011-04-18T17:34:05Z</time>
      </trkpt>
      <trkpt lat="32.513729464262724" lon="-1.00410514511168">
        <ele>1179.6748046875</ele>
        <time>2011-04-18T17:34:15Z</time>
      </trkpt>
      <trkpt lat="32.51361739821732" lon="-1.003954438492656">
        <ele>1180.15576171875</ele>
        <time>2011-04-18T17:34:25Z</time>
      </trkpt>
      <trkpt lat="32.513727620244026" lon="-1.004080586135387">
        <ele>1179.6748046875</ele>
        <time>2011-04-18T17:35:24Z</time>
      </trkpt>
      <trkpt lat="32.513788975775242" lon="-1.004166668280959">
        <ele>1177.752197265625</ele>
        <time>2011-04-18T17:35:37Z</time>
      </trkpt>
      <trkpt lat="32.513914536684752" lon="-1.00403917953372">
        <ele>1177.752197265625</ele>
        <time>2011-04-18T17:35:46Z</time>
      </trkpt>
      <trkpt lat="32.514057531952858" lon="-1.004062565043569">
        <ele>1181.59765625</ele>
        <time>2011-04-18T17:35:49Z</time>
      </trkpt>
      <trkpt lat="32.514338493347168" lon="-1.004150742664933">
        <ele>1187.84619140625</ele>
        <time>2011-04-18T17:35:55Z</time>
      </trkpt>
      <trkpt lat="32.514716433361173" lon="-1.004103971645236">
        <ele>1195.53662109375</ele>
        <time>2011-04-18T17:36:06Z</time>
      </trkpt>
      <trkpt lat="32.514802599325776" lon="-1.003969190642238">
        <ele>1195.53662109375</ele>
        <time>2011-04-18T17:36:13Z</time>
      </trkpt>
      <trkpt lat="32.514753146097064" lon="-1.003876989707351">
        <ele>1195.055908203125</ele>
        <time>2011-04-18T17:36:20Z</time>
      </trkpt>
      <trkpt lat="32.514794636517763" lon="-1.003974135965109">
        <ele>1195.53662109375</ele>
        <time>2011-04-18T17:36:34Z</time>
      </trkpt>
      <trkpt lat="32.51490879803896" lon="-1.003944044932723">
        <ele>1229.66357421875</ele>
        <time>2011-04-18T17:39:28Z</time>
      </trkpt>
      <trkpt lat="32.515043830499053" lon="-1.003945888951421">
        <ele>1224.85693359375</ele>
        <time>2011-04-18T17:39:35Z</time>
      </trkpt>
      <trkpt lat="32.51513259485364" lon="-1.004102630540729">
        <ele>1224.376220703125</ele>
        <time>2011-04-18T17:39:40Z</time>
      </trkpt>
      <trkpt lat="32.514807293191552" lon="-1.00368638522923">
        <ele>1226.779541015625</ele>
        <time>2011-04-18T18:25:21Z</time>
      </trkpt>
      <trkpt lat="32.514888178557158" lon="-1.00363114848733">
        <ele>1228.702392578125</ele>
        <time>2011-04-18T18:25:32Z</time>
      </trkpt>
      <trkpt lat="32.514715930446982" lon="-1.003585550934076">
        <ele>1246.96728515625</ele>
        <time>2011-04-18T18:26:22Z</time>
      </trkpt>
      <trkpt lat="32.514421558007598" lon="-1.003618156537414">
        <ele>1259.46435546875</ele>
        <time>2011-04-18T18:26:40Z</time>
      </trkpt>
      <trkpt lat="32.513864664360881" lon="-1.003737598657608">
        <ele>1267.635498046875</ele>
        <time>2011-04-18T18:26:56Z</time>
      </trkpt>
      <trkpt lat="32.513500135391951" lon="-1.003633579239249">
        <ele>1273.403564453125</ele>
        <time>2011-04-18T18:27:08Z</time>
      </trkpt>
      <trkpt lat="32.513307183980942" lon="-1.003672890365124">
        <ele>1279.652099609375</ele>
        <time>2011-04-18T18:27:17Z</time>
      </trkpt>
      <trkpt lat="32.51336962915957" lon="-1.003885790705681">
        <ele>1267.635498046875</ele>
        <time>2011-04-18T18:27:28Z</time>
      </trkpt>
      <trkpt lat="32.513584876433015" lon="-1.004153424873948">
        <ele>1248.4091796875</ele>
        <time>2011-04-18T18:27:38Z</time>
      </trkpt>
      <trkpt lat="32.513874052092433" lon="-1.004515355452895">
        <ele>1237.834716796875</ele>
        <time>2011-04-18T18:27:48Z</time>
      </trkpt>
      <trkpt lat="32.514518871903419" lon="-1.005088929086924">
        <ele>1231.586181640625</ele>
        <time>2011-04-18T18:27:58Z</time>
      </trkpt>
      <trkpt lat="32.514763958752155" lon="-1.005856795236468">
        <ele>1234.950927734375</ele>
        <time>2011-04-18T18:28:08Z</time>
      </trkpt>
      <trkpt lat="32.514226930215955" lon="-1.006915178149939">
        <ele>1232.547607421875</ele>
        <time>2011-04-18T18:28:21Z</time>
      </trkpt>
      <trkpt lat="32.51423891633749" lon="-1.007670219987631">
        <ele>1230.144287109375</ele>
        <time>2011-04-18T18:28:32Z</time>
      </trkpt>
      <trkpt lat="32.514445865526795" lon="-1.00915364921093">
        <ele>1227.74072265625</ele>
        <time>2011-04-18T18:28:48Z</time>
      </trkpt>
      <trkpt lat="32.515162015333772" lon="-1.009758822619915">
        <ele>1212.840576171875</ele>
        <time>2011-04-18T18:28:58Z</time>
      </trkpt>
      <trkpt lat="32.515556300058961" lon="-1.01031512953341">
        <ele>1204.188720703125</ele>
        <time>2011-04-18T18:29:06Z</time>
      </trkpt>
      <trkpt lat="32.515921331942081" lon="-1.010842435061932">
        <ele>1196.017578125</ele>
        <time>2011-04-18T18:29:13Z</time>
      </trkpt>
      <trkpt lat="32.516213105991483" lon="-1.010985262691975">
        <ele>1193.614013671875</ele>
        <time>2011-04-18T18:29:17Z</time>
      </trkpt>
      <trkpt lat="32.516586938872933" lon="-1.011106884106994">
        <ele>1189.768798828125</ele>
        <time>2011-04-18T18:29:27Z</time>
      </trkpt>
      <trkpt lat="32.51732655800879" lon="-1.011285586282611">
        <ele>1185.923583984375</ele>
        <time>2011-04-18T18:29:36Z</time>
      </trkpt>
      <trkpt lat="32.518463563174009" lon="-1.011310731992126">
        <ele>1182.55908203125</ele>
        <time>2011-04-18T18:29:48Z</time>
      </trkpt>
      <trkpt lat="32.519873734563589" lon="-1.011325316503644">
        <ele>1184.481689453125</ele>
        <time>2011-04-18T18:30:02Z</time>
      </trkpt>
      <trkpt lat="32.520650485530496" lon="-1.011527152732015">
        <ele>1186.404296875</ele>
        <time>2011-04-18T18:30:10Z</time>
      </trkpt>
      <trkpt lat="32.521884636953473" lon="-1.012440277263522">
        <ele>1192.172119140625</ele>
        <time>2011-04-18T18:30:24Z</time>
      </trkpt>
      <trkpt lat="32.522811172530055" lon="-1.012716293334961">
        <ele>1194.0947265625</ele>
        <time>2011-04-18T18:30:34Z</time>
      </trkpt>
      <trkpt lat="32.52378573641181" lon="-1.012612525373697">
        <ele>1194.0947265625</ele>
        <time>2011-04-18T18:30:44Z</time>
      </trkpt>
      <trkpt lat="32.524883765727282" lon="-1.012144144624472">
        <ele>1195.53662109375</ele>
        <time>2011-04-18T18:30:55Z</time>
      </trkpt>
      <trkpt lat="32.52567233517766" lon="-1.012005256488919">
        <ele>1195.53662109375</ele>
        <time>2011-04-18T18:31:03Z</time>
      </trkpt>
      <trkpt lat="32.525879200547934" lon="-1.011998802423477">
        <ele>1196.498291015625</ele>
        <time>2011-04-18T18:31:09Z</time>
      </trkpt>
      <trkpt lat="32.526178266853094" lon="-1.011989498510957">
        <ele>1197.940185546875</ele>
        <time>2011-04-18T18:31:37Z</time>
      </trkpt>
      <trkpt lat="32.526734825223684" lon="-1.011952115222812">
        <ele>1198.420654296875</ele>
        <time>2011-04-18T18:31:45Z</time>
      </trkpt>
      <trkpt lat="32.527113016694784" lon="-1.012062588706613">
        <ele>1199.86279296875</ele>
        <time>2011-04-18T18:31:50Z</time>
      </trkpt>
      <trkpt lat="32.528043994680047" lon="-1.012379173189402">
        <ele>1205.14990234375</ele>
        <time>2011-04-18T18:31:59Z</time>
      </trkpt>
      <trkpt lat="32.528395112603903" lon="-1.012549074366689">
        <ele>1206.591796875</ele>
        <time>2011-04-18T18:32:03Z</time>
      </trkpt>
      <trkpt lat="32.529014954343438" lon="-1.012861300259829">
        <ele>1205.630615234375</ele>
        <time>2011-04-18T18:32:11Z</time>
      </trkpt>
      <trkpt lat="32.52931117080152" lon="-1.013013683259487">
        <ele>1203.227294921875</ele>
        <time>2011-04-18T18:32:16Z</time>
      </trkpt>
      <trkpt lat="32.52952566370368" lon="-1.013215519487858">
        <ele>1200.823974609375</ele>
        <time>2011-04-18T18:32:21Z</time>
      </trkpt>
      <trkpt lat="32.53009638749063" lon="-1.01389579474926">
        <ele>1200.823974609375</ele>
        <time>2011-04-18T18:32:32Z</time>
      </trkpt>
      <trkpt lat="32.530364189296961" lon="-1.014697523787618">
        <ele>1206.591796875</ele>
        <time>2011-04-18T18:32:40Z</time>
      </trkpt>
      <trkpt lat="32.530512968078256" lon="-1.0156827326864">
        <ele>1212.35986328125</ele>
        <time>2011-04-18T18:32:48Z</time>
      </trkpt>
      <trkpt lat="32.530383886769414" lon="-1.017347797751427">
        <ele>1225.818115234375</ele>
        <time>2011-04-18T18:33:01Z</time>
      </trkpt>
      <trkpt lat="32.530112899839878" lon="-1.018411042168737">
        <ele>1230.625</ele>
        <time>2011-04-18T18:33:10Z</time>
      </trkpt>
      <trkpt lat="32.530089598149061" lon="-1.018870119005442">
        <ele>1231.586181640625</ele>
        <time>2011-04-18T18:33:14Z</time>
      </trkpt>
      <trkpt lat="32.530324039980769" lon="-1.019954485818744">
        <ele>1232.06689453125</ele>
        <time>2011-04-18T18:33:23Z</time>
      </trkpt>
      <trkpt lat="32.530357483774424" lon="-1.020068312063813">
        <ele>1232.06689453125</ele>
        <time>2011-04-18T18:33:24Z</time>
      </trkpt>
      <trkpt lat="32.530490839853883" lon="-1.020521689206362">
        <ele>1231.586181640625</ele>
        <time>2011-04-18T18:33:28Z</time>
      </trkpt>
      <trkpt lat="32.530586309731007" lon="-1.021354682743549">
        <ele>1229.66357421875</ele>
        <time>2011-04-18T18:33:35Z</time>
      </trkpt>
      <trkpt lat="32.530771717429161" lon="-1.022505518049002">
        <ele>1226.298828125</ele>
        <time>2011-04-18T18:33:45Z</time>
      </trkpt>
      <trkpt lat="32.531203720718622" lon="-1.023686779662967">
        <ele>1222.934326171875</ele>
        <time>2011-04-18T18:33:55Z</time>
      </trkpt>
      <trkpt lat="32.531643770635128" lon="-1.025044312700629">
        <ele>1222.45361328125</ele>
        <time>2011-04-18T18:34:06Z</time>
      </trkpt>
      <trkpt lat="32.531460458412766" lon="-1.025280598551035">
        <ele>1224.376220703125</ele>
        <time>2011-04-18T18:34:11Z</time>
      </trkpt>
      <trkpt lat="32.531125266104937" lon="-1.025448488071561">
        <ele>1225.818115234375</ele>
        <time>2011-04-18T18:34:15Z</time>
      </trkpt>
      <trkpt lat="32.530802143737674" lon="-1.025616964325309">
        <ele>1228.2216796875</ele>
        <time>2011-04-18T18:34:19Z</time>
      </trkpt>
      <trkpt lat="32.530305599793792" lon="-1.025851657614112">
        <ele>1233.028076171875</ele>
        <time>2011-04-18T18:34:24Z</time>
      </trkpt>
      <trkpt lat="32.529969150200486" lon="-1.026002950966358">
        <ele>1237.35400390625</ele>
        <time>2011-04-18T18:34:27Z</time>
      </trkpt>
      <trkpt lat="32.529493980109692" lon="-1.026378460228443">
        <ele>1243.121826171875</ele>
        <time>2011-04-18T18:34:33Z</time>
      </trkpt>
      <trkpt lat="32.529101371765137" lon="-1.027444638311863">
        <ele>1245.525390625</ele>
        <time>2011-04-18T18:34:41Z</time>
      </trkpt>
      <trkpt lat="32.528987713158131" lon="-1.027990467846394">
        <ele>1245.525390625</ele>
        <time>2011-04-18T18:34:45Z</time>
      </trkpt>
      <trkpt lat="32.52894027158618" lon="-1.028643921017647">
        <ele>1247.9287109375</ele>
        <time>2011-04-18T18:34:49Z</time>
      </trkpt>
      <trkpt lat="32.528835833072662" lon="-1.029935823753476">
        <ele>1252.735107421875</ele>
        <time>2011-04-18T18:34:56Z</time>
      </trkpt>
      <trkpt lat="32.528317077085376" lon="-1.03232441470027">
        <ele>1259.94482421875</ele>
        <time>2011-04-18T18:35:08Z</time>
      </trkpt>
      <trkpt lat="32.52778465859592" lon="-1.034502033144236">
        <ele>1265.713134765625</ele>
        <time>2011-04-18T18:35:19Z</time>
      </trkpt>
      <trkpt lat="32.527435049414635" lon="-1.03634680621326">
        <ele>1264.751708984375</ele>
        <time>2011-04-18T18:35:29Z</time>
      </trkpt>
      <trkpt lat="32.527229860424995" lon="-1.038426691666246">
        <ele>1260.42578125</ele>
        <time>2011-04-18T18:35:40Z</time>
      </trkpt>
      <trkpt lat="32.527213012799621" lon="-1.040550749748945">
        <ele>1253.696533203125</ele>
        <time>2011-04-18T18:35:52Z</time>
      </trkpt>
      <trkpt lat="32.527506044134498" lon="-1.041516177356243">
        <ele>1251.77392578125</ele>
        <time>2011-04-18T18:35:58Z</time>
      </trkpt>
      <trkpt lat="32.527986997738481" lon="-1.042349003255367">
        <ele>1253.2158203125</ele>
        <time>2011-04-18T18:36:04Z</time>
      </trkpt>
      <trkpt lat="32.529210168868303" lon="-1.043831929564476">
        <ele>1248.889892578125</ele>
        <time>2011-04-18T18:36:16Z</time>
      </trkpt>
      <trkpt lat="32.530178362503648" lon="-1.045353747904301">
        <ele>1244.08349609375</ele>
        <time>2011-04-18T18:36:27Z</time>
      </trkpt>
      <trkpt lat="32.530521349981427" lon="-1.046240469440818">
        <ele>1243.6025390625</ele>
        <time>2011-04-18T18:36:33Z</time>
      </trkpt>
      <trkpt lat="32.530868109315634" lon="-1.047686012461782">
        <ele>1243.6025390625</ele>
        <time>2011-04-18T18:36:43Z</time>
      </trkpt>
      <trkpt lat="32.5312031339854" lon="-1.04905310086906">
        <ele>1245.044677734375</ele>
        <time>2011-04-18T18:36:53Z</time>
      </trkpt>
      <trkpt lat="32.531442856416106" lon="-1.050058845430613">
        <ele>1246.96728515625</ele>
        <time>2011-04-18T18:37:01Z</time>
      </trkpt>
      <trkpt lat="32.531871171668172" lon="-1.052167480811477">
        <ele>1251.77392578125</ele>
        <time>2011-04-18T18:37:14Z</time>
      </trkpt>
      <trkpt lat="32.532089771702886" lon="-1.053621908649802">
        <ele>1257.06103515625</ele>
        <time>2011-04-18T18:37:23Z</time>
      </trkpt>
      <trkpt lat="32.532254476100206" lon="-1.055095698684454">
        <ele>1260.906494140625</ele>
        <time>2011-04-18T18:37:34Z</time>
      </trkpt>
      <trkpt lat="32.532495204359293" lon="-1.057267617434263">
        <ele>1263.309814453125</ele>
        <time>2011-04-18T18:37:50Z</time>
      </trkpt>
      <trkpt lat="32.532585896551609" lon="-1.05786457657814">
        <ele>1264.27099609375</ele>
        <time>2011-04-18T18:37:56Z</time>
      </trkpt>
      <trkpt lat="32.532029338181019" lon="-1.0585349611938">
        <ele>1265.232421875</ele>
        <time>2011-04-18T18:38:34Z</time>
      </trkpt>
      <trkpt lat="32.531767068430781" lon="-1.059029661118984">
        <ele>1267.635498046875</ele>
        <time>2011-04-18T18:38:44Z</time>
      </trkpt>
      <trkpt lat="32.53160915337503" lon="-1.059289919212461">
        <ele>1269.07763671875</ele>
        <time>2011-04-18T18:38:53Z</time>
      </trkpt>
      <trkpt lat="32.531536398455501" lon="-1.059379186481237">
        <ele>1271.000244140625</ele>
        <time>2011-04-18T18:39:03Z</time>
      </trkpt>
      <trkpt lat="32.531254347413778" lon="-1.059762993827462">
        <ele>1271.96142578125</ele>
        <time>2011-04-18T18:39:12Z</time>
      </trkpt>
      <trkpt lat="32.5310218334198" lon="-1.060323491692543">
        <ele>1272.9228515625</ele>
        <time>2011-04-18T18:39:23Z</time>
      </trkpt>
      <trkpt lat="32.530966177582741" lon="-1.06061945669353">
        <ele>1270.038818359375</ele>
        <time>2011-04-18T18:39:32Z</time>
      </trkpt>
      <trkpt lat="32.530811531469226" lon="-1.060750130563974">
        <ele>1271.480712890625</ele>
        <time>2011-04-18T18:39:42Z</time>
      </trkpt>
      <trkpt lat="32.530547333881259" lon="-1.06049532070756">
        <ele>1272.9228515625</ele>
        <time>2011-04-18T18:39:59Z</time>
      </trkpt>
      <trkpt lat="32.530390927568078" lon="-1.060353918001056">
        <ele>1275.325927734375</ele>
        <time>2011-04-18T18:40:10Z</time>
      </trkpt>
      <trkpt lat="32.530322447419167" lon="-1.060279319062829">
        <ele>1282.055419921875</ele>
        <time>2011-04-18T18:40:58Z</time>
      </trkpt>
      <trkpt lat="32.530207196250558" lon="-1.060087541118264">
        <ele>1282.5361328125</ele>
        <time>2011-04-18T18:41:08Z</time>
      </trkpt>
      <trkpt lat="32.530057327821851" lon="-1.060219639912248">
        <ele>1281.57470703125</ele>
        <time>2011-04-18T18:41:18Z</time>
      </trkpt>
      <trkpt lat="32.529947189614177" lon="-1.060370095074177">
        <ele>1279.17138671875</ele>
        <time>2011-04-18T18:41:27Z</time>
      </trkpt>
      <trkpt lat="32.530011143535376" lon="-1.06055986136198">
        <ele>1273.403564453125</ele>
        <time>2011-04-18T18:41:34Z</time>
      </trkpt>
      <trkpt lat="32.53016235306859" lon="-1.060744095593691">
        <ele>1266.193603515625</ele>
        <time>2011-04-18T18:41:44Z</time>
      </trkpt>
      <trkpt lat="32.530299732461572" lon="-1.060847444459796">
        <ele>1264.27099609375</ele>
        <time>2011-04-18T18:41:51Z</time>
      </trkpt>
      <trkpt lat="32.530384557321668" lon="-1.061168722808361">
        <ele>1263.309814453125</ele>
        <time>2011-04-18T18:41:58Z</time>
      </trkpt>
      <trkpt lat="32.530533168464899" lon="-1.06107828207314">
        <ele>1260.42578125</ele>
        <time>2011-04-18T18:42:04Z</time>
      </trkpt>
      <trkpt lat="32.530683120712638" lon="-1.060904776677489">
        <ele>1258.0224609375</ele>
        <time>2011-04-18T18:42:09Z</time>
      </trkpt>
      <trkpt lat="32.530834078788757" lon="-1.060665054246783">
        <ele>1257.541748046875</ele>
        <time>2011-04-18T18:42:15Z</time>
      </trkpt>
      <trkpt lat="32.531006829813123" lon="-1.060562375932932">
        <ele>1257.541748046875</ele>
        <time>2011-04-18T18:42:21Z</time>
      </trkpt>
      <trkpt lat="32.531072124838829" lon="-1.060397839173675">
        <ele>1254.17724609375</ele>
        <time>2011-04-18T18:42:27Z</time>
      </trkpt>
      <trkpt lat="32.53116843290627" lon="-1.059979582205415">
        <ele>1245.525390625</ele>
        <time>2011-04-18T18:42:58Z</time>
      </trkpt>
      <trkpt lat="32.531223418191075" lon="-1.059811357408762">
        <ele>1246.006103515625</ele>
        <time>2011-04-18T18:43:00Z</time>
      </trkpt>
      <trkpt lat="32.531590294092894" lon="-1.059255050495267">
        <ele>1245.525390625</ele>
        <time>2011-04-18T18:43:07Z</time>
      </trkpt>
      <trkpt lat="32.532063536345959" lon="-1.058363886550069">
        <ele>1242.641357421875</ele>
        <time>2011-04-18T18:43:17Z</time>
      </trkpt>
      <trkpt lat="32.532602492719889" lon="-1.057973792776465">
        <ele>1241.679931640625</ele>
        <time>2011-04-18T18:43:21Z</time>
      </trkpt>
      <trkpt lat="32.532523367553949" lon="-1.057453025132418">
        <ele>1240.718505859375</ele>
        <time>2011-04-18T18:43:27Z</time>
      </trkpt>
      <trkpt lat="32.532344497740269" lon="-1.056044530123472">
        <ele>1240.238037109375</ele>
        <time>2011-04-18T18:43:36Z</time>
      </trkpt>
      <trkpt lat="32.532110642641783" lon="-1.053803879767656">
        <ele>1241.19921875</ele>
        <time>2011-04-18T18:43:48Z</time>
      </trkpt>
      <trkpt lat="32.531966306269169" lon="-1.052747592329979">
        <ele>1239.276611328125</ele>
        <time>2011-04-18T18:43:55Z</time>
      </trkpt>
      <trkpt lat="32.531781820580363" lon="-1.051727598533034">
        <ele>1237.35400390625</ele>
        <time>2011-04-18T18:44:04Z</time>
      </trkpt>
      <trkpt lat="32.531747203320265" lon="-1.051557110622525">
        <ele>1236.392822265625</ele>
        <time>2011-04-18T18:44:09Z</time>
      </trkpt>
      <trkpt lat="32.531833285465837" lon="-1.051980899646878">
        <ele>1240.238037109375</ele>
        <time>2011-04-18T18:44:20Z</time>
      </trkpt>
      <trkpt lat="32.530860062688589" lon="-1.052864938974381">
        <ele>1246.006103515625</ele>
        <time>2011-04-18T18:44:28Z</time>
      </trkpt>
      <trkpt lat="32.530667949467897" lon="-1.053163586184382">
        <ele>1248.889892578125</ele>
        <time>2011-04-18T18:44:32Z</time>
      </trkpt>
      <trkpt lat="32.530382042750716" lon="-1.053316639736295">
        <ele>1252.25439453125</ele>
        <time>2011-04-18T18:44:38Z</time>
      </trkpt>
      <trkpt lat="32.53001818433404" lon="-1.053274478763342">
        <ele>1246.006103515625</ele>
        <time>2011-04-18T18:44:47Z</time>
      </trkpt>
      <trkpt lat="32.529692798852921" lon="-1.053340025246143">
        <ele>1245.044677734375</ele>
        <time>2011-04-18T18:44:57Z</time>
      </trkpt>
      <trkpt lat="32.529317289590836" lon="-1.053435578942299">
        <ele>1244.08349609375</ele>
        <time>2011-04-18T18:45:06Z</time>
      </trkpt>
      <trkpt lat="32.529048146679997" lon="-1.053539263084531">
        <ele>1248.889892578125</ele>
        <time>2011-04-18T18:45:14Z</time>
      </trkpt>
      <trkpt lat="32.528902972117066" lon="-1.053579328581691">
        <ele>1254.17724609375</ele>
        <time>2011-04-18T18:45:23Z</time>
      </trkpt>
      <trkpt lat="32.528694681823254" lon="-1.053594667464495">
        <ele>1252.735107421875</ele>
        <time>2011-04-18T18:45:31Z</time>
      </trkpt>
      <trkpt lat="32.528563337400556" lon="-1.053579328581691">
        <ele>1248.4091796875</ele>
        <time>2011-04-18T18:45:39Z</time>
      </trkpt>
      <trkpt lat="32.52836225554347" lon="-1.05355728417635">
        <ele>1249.851318359375</ele>
        <time>2011-04-18T18:46:00Z</time>
      </trkpt>
      <trkpt lat="32.528136027976871" lon="-1.053516799584031">
        <ele>1244.08349609375</ele>
        <time>2011-04-18T18:46:08Z</time>
      </trkpt>
      <trkpt lat="32.527980292215943" lon="-1.053655436262488">
        <ele>1243.6025390625</ele>
        <time>2011-04-18T18:46:12Z</time>
      </trkpt>
      <trkpt lat="32.527471762150526" lon="-1.054253149777651">
        <ele>1242.16064453125</ele>
        <time>2011-04-18T18:46:25Z</time>
      </trkpt>
      <trkpt lat="32.527210246771574" lon="-1.054477198049426">
        <ele>1241.679931640625</ele>
        <time>2011-04-18T18:46:34Z</time>
      </trkpt>
      <trkpt lat="32.527344189584255" lon="-1.054493291303515">
        <ele>1237.834716796875</ele>
        <time>2011-04-18T18:51:28Z</time>
      </trkpt>
      <trkpt lat="32.527567818760872" lon="-1.054268991574645">
        <ele>1238.796142578125</ele>
        <time>2011-04-18T18:51:38Z</time>
      </trkpt>
      <trkpt lat="32.527166996151209" lon="-1.054311068728566">
        <ele>1299.359130859375</ele>
        <time>2011-04-18T18:59:38Z</time>
      </trkpt>
      <trkpt lat="32.52726623788476" lon="-1.054313248023391">
        <ele>1275.806640625</ele>
        <time>2011-04-18T19:03:18Z</time>
      </trkpt>
      <trkpt lat="32.527337735518813" lon="-1.054334035143256">
        <ele>1278.69091796875</ele>
        <time>2011-04-18T19:04:33Z</time>
      </trkpt>
    </trkseg>
  </trk>

  <trk>
    <name>110419</name>
    <extensions>
      <gpxx:TrackExtension xmlns:gpxx="http://www.garmin.com/xmlschemas/GpxExtensions/v3">
        <gpxx:DisplayColor>Green</gpxx:DisplayColor>
      </gpxx:TrackExtension>
    </extensions>
    <trkseg>
      <trkpt lat="32.527700336650014" lon="-1.054248791188002">
        <ele>1265.713134765625</ele>
        <time>2011-04-19T07:01:08Z</time>
      </trkpt>
      <trkpt lat="32.527693966403604" lon="-1.054431181401014">
        <ele>1196.498291015625</ele>
        <time>2011-04-19T07:05:49Z</time>
      </trkpt>
      <trkpt lat="32.527329856529832" lon="-1.054440652951598">
        <ele>1225.818115234375</ele>
        <time>2011-04-19T07:17:03Z</time>
      </trkpt>
      <trkpt lat="32.527428260073066" lon="-1.054306793957949">
        <ele>1248.4091796875</ele>
        <time>2011-04-19T07:23:04Z</time>
      </trkpt>
      <trkpt lat="32.527563963085413" lon="-1.054481221362948">
        <ele>1249.851318359375</ele>
        <time>2011-04-19T07:23:14Z</time>
      </trkpt>
      <trkpt lat="32.527644680812955" lon="-1.054397067055106">
        <ele>1251.293212890625</ele>
        <time>2011-04-19T07:23:18Z</time>
      </trkpt>
      <trkpt lat="32.527821036055684" lon="-1.054261783137918">
        <ele>1253.696533203125</ele>
        <time>2011-04-19T07:23:25Z</time>
      </trkpt>
      <trkpt lat="32.528082551434636" lon="-1.054081320762634">
        <ele>1254.17724609375</ele>
        <time>2011-04-19T07:23:34Z</time>
      </trkpt>
      <trkpt lat="32.528313556686044" lon="-1.053903875872493">
        <ele>1252.25439453125</ele>
        <time>2011-04-19T07:23:41Z</time>
      </trkpt>
      <trkpt lat="32.528632991015911" lon="-1.053922567516565">
        <ele>1250.8125</ele>
        <time>2011-04-19T07:23:49Z</time>
      </trkpt>
      <trkpt lat="32.528838599100709" lon="-1.053731795400381">
        <ele>1253.696533203125</ele>
        <time>2011-04-19T07:23:56Z</time>
      </trkpt>
      <trkpt lat="32.529043536633253" lon="-1.05359491892159">
        <ele>1253.2158203125</ele>
        <time>2011-04-19T07:24:05Z</time>
      </trkpt>
      <trkpt lat="32.529140682891011" lon="-1.053340863436461">
        <ele>1253.696533203125</ele>
        <time>2011-04-19T07:24:13Z</time>
      </trkpt>
      <trkpt lat="32.529377471655607" lon="-1.053232736885548">
        <ele>1254.17724609375</ele>
        <time>2011-04-19T07:24:21Z</time>
      </trkpt>
      <trkpt lat="32.529743844643235" lon="-1.053191162645817">
        <ele>1253.2158203125</ele>
        <time>2011-04-19T07:24:31Z</time>
      </trkpt>
      <trkpt lat="32.530036792159081" lon="-1.053289817646146">
        <ele>1255.138427734375</ele>
        <time>2011-04-19T07:24:40Z</time>
      </trkpt>
      <trkpt lat="32.530244663357735" lon="-1.05333105660975">
        <ele>1255.138427734375</ele>
        <time>2011-04-19T07:24:47Z</time>
      </trkpt>
      <trkpt lat="32.530517326667905" lon="-1.053319238126278">
        <ele>1255.619140625</ele>
        <time>2011-04-19T07:24:56Z</time>
      </trkpt>
      <trkpt lat="32.530607599765062" lon="-1.05331395752728">
        <ele>1256.580322265625</ele>
        <time>2011-04-19T07:25:08Z</time>
      </trkpt>
      <trkpt lat="32.530874982476234" lon="-1.053207842633128">
        <ele>1256.580322265625</ele>
        <time>2011-04-19T07:25:15Z</time>
      </trkpt>
      <trkpt lat="32.531210342422128" lon="-1.05269436724484">
        <ele>1256.580322265625</ele>
        <time>2011-04-19T07:25:25Z</time>
      </trkpt>
      <trkpt lat="32.531369347125292" lon="-1.05234207585454">
        <ele>1262.8291015625</ele>
        <time>2011-04-19T07:25:31Z</time>
      </trkpt>
      <trkpt lat="32.531770085915923" lon="-1.051669511944056">
        <ele>1268.596923828125</ele>
        <time>2011-04-19T07:25:41Z</time>
      </trkpt>
      <trkpt lat="32.531736558303237" lon="-1.051504891365767">
        <ele>1271.000244140625</ele>
        <time>2011-04-19T07:25:48Z</time>
      </trkpt>
      <trkpt lat="32.531356774270535" lon="-1.051595248281956">
        <ele>1269.07763671875</ele>
        <time>2011-04-19T07:26:25Z</time>
      </trkpt>
      <trkpt lat="32.531809229403734" lon="-1.051862295717001">
        <ele>1265.713134765625</ele>
        <time>2011-04-19T07:26:32Z</time>
      </trkpt>
      <trkpt lat="32.531953984871507" lon="-1.052661426365376">
        <ele>1264.751708984375</ele>
        <time>2011-04-19T07:26:39Z</time>
      </trkpt>
      <trkpt lat="32.532175099477172" lon="-1.054365551099181">
        <ele>1263.790283203125</ele>
        <time>2011-04-19T07:26:50Z</time>
      </trkpt>
      <trkpt lat="32.5323704816401" lon="-1.056273020803928">
        <ele>1258.983642578125</ele>
        <time>2011-04-19T07:27:00Z</time>
      </trkpt>
      <trkpt lat="32.532714139670134" lon="-1.058779628947377">
        <ele>1257.06103515625</ele>
        <time>2011-04-19T07:27:12Z</time>
      </trkpt>
      <trkpt lat="32.532976577058434" lon="-1.06161673553288">
        <ele>1259.46435546875</ele>
        <time>2011-04-19T07:27:25Z</time>
      </trkpt>
      <trkpt lat="32.532879933714867" lon="-1.06397096067667">
        <ele>1264.751708984375</ele>
        <time>2011-04-19T07:27:35Z</time>
      </trkpt>
      <trkpt lat="32.532683042809367" lon="-1.067418102174997">
        <ele>1277.7294921875</ele>
        <time>2011-04-19T07:27:49Z</time>
      </trkpt>
      <trkpt lat="32.532496377825737" lon="-1.070882007479668">
        <ele>1292.1494140625</ele>
        <time>2011-04-19T07:28:04Z</time>
      </trkpt>
      <trkpt lat="32.532287752255797" lon="-1.07434012927115">
        <ele>1305.607666015625</ele>
        <time>2011-04-19T07:28:20Z</time>
      </trkpt>
      <trkpt lat="32.532419348135591" lon="-1.075592720881105">
        <ele>1306.088134765625</ele>
        <time>2011-04-19T07:28:26Z</time>
      </trkpt>
      <trkpt lat="32.532924609258771" lon="-1.078029340133071">
        <ele>1299.359130859375</ele>
        <time>2011-04-19T07:28:37Z</time>
      </trkpt>
      <trkpt lat="32.533725835382938" lon="-1.0816456284374">
        <ele>1292.1494140625</ele>
        <time>2011-04-19T07:28:53Z</time>
      </trkpt>
      <trkpt lat="32.534368811175227" lon="-1.0849853977561">
        <ele>1288.78466796875</ele>
        <time>2011-04-19T07:29:08Z</time>
      </trkpt>
      <trkpt lat="32.535176575183868" lon="-1.08883679844439">
        <ele>1284.458740234375</ele>
        <time>2011-04-19T07:29:25Z</time>
      </trkpt>
      <trkpt lat="32.536097411066294" lon="-1.093219108879566">
        <ele>1283.0166015625</ele>
        <time>2011-04-19T07:29:44Z</time>
      </trkpt>
      <trkpt lat="32.536681042984128" lon="-1.095970552414656">
        <ele>1283.97802734375</ele>
        <time>2011-04-19T07:29:57Z</time>
      </trkpt>
      <trkpt lat="32.536943396553397" lon="-1.098063597455621">
        <ele>1284.939453125</ele>
        <time>2011-04-19T07:30:07Z</time>
      </trkpt>
      <trkpt lat="32.536856224760413" lon="-1.100072488188744">
        <ele>1285.419921875</ele>
        <time>2011-04-19T07:30:16Z</time>
      </trkpt>
      <trkpt lat="32.536712139844894" lon="-1.101914411410689">
        <ele>1288.303955078125</ele>
        <time>2011-04-19T07:30:25Z</time>
      </trkpt>
      <trkpt lat="32.536649191752076" lon="-1.102438531816006">
        <ele>1288.303955078125</ele>
        <time>2011-04-19T07:30:29Z</time>
      </trkpt>
      <trkpt lat="32.536616334691644" lon="-1.102712955325842">
        <ele>1287.8232421875</ele>
        <time>2011-04-19T07:30:33Z</time>
      </trkpt>
      <trkpt lat="32.535883421078324" lon="-1.10283206216991">
        <ele>1289.745849609375</ele>
        <time>2011-04-19T07:30:39Z</time>
      </trkpt>
      <trkpt lat="32.535673454403877" lon="-1.102914540097117">
        <ele>1290.2265625</ele>
        <time>2011-04-19T07:30:45Z</time>
      </trkpt>
      <trkpt lat="32.535295933485031" lon="-1.103348387405276">
        <ele>1288.303955078125</ele>
        <time>2011-04-19T07:30:57Z</time>
      </trkpt>
      <trkpt lat="32.535225693136454" lon="-1.10342038795352">
        <ele>1288.303955078125</ele>
        <time>2011-04-19T07:30:59Z</time>
      </trkpt>
      <trkpt lat="32.535046488046646" lon="-1.10356355085969">
        <ele>1289.26513671875</ele>
        <time>2011-04-19T07:31:03Z</time>
      </trkpt>
      <trkpt lat="32.53454877063632" lon="-1.10424617305398">
        <ele>1285.900634765625</ele>
        <time>2011-04-19T07:31:13Z</time>
      </trkpt>
      <trkpt lat="32.534083994105458" lon="-1.104907337576151">
        <ele>1284.458740234375</ele>
        <time>2011-04-19T07:31:23Z</time>
      </trkpt>
      <trkpt lat="32.533735474571586" lon="-1.105368677526712">
        <ele>1283.0166015625</ele>
        <time>2011-04-19T07:31:31Z</time>
      </trkpt>
      <trkpt lat="32.53345082513988" lon="-1.105431290343404">
        <ele>1281.09423828125</ele>
        <time>2011-04-19T07:31:37Z</time>
      </trkpt>
      <trkpt lat="32.53326416015625" lon="-1.105315117165446">
        <ele>1278.210205078125</ele>
        <time>2011-04-19T07:31:45Z</time>
      </trkpt>
      <trkpt lat="32.533134827390313" lon="-1.105295084416866">
        <ele>1275.325927734375</ele>
        <time>2011-04-19T07:31:58Z</time>
      </trkpt>
      <trkpt lat="32.532985964789987" lon="-1.105273794382811">
        <ele>1274.36474609375</ele>
        <time>2011-04-19T07:32:01Z</time>
      </trkpt>
      <trkpt lat="32.532798126339912" lon="-1.10541838221252">
        <ele>1273.403564453125</ele>
        <time>2011-04-19T07:32:06Z</time>
      </trkpt>
      <trkpt lat="32.53253954462707" lon="-1.105812080204487">
        <ele>1274.845458984375</ele>
        <time>2011-04-19T07:32:13Z</time>
      </trkpt>
      <trkpt lat="32.532426975667477" lon="-1.106072841212153">
        <ele>1276.28759765625</ele>
        <time>2011-04-19T07:32:17Z</time>
      </trkpt>
      <trkpt lat="32.532377690076828" lon="-1.106306780129671">
        <ele>1276.768310546875</ele>
        <time>2011-04-19T07:32:20Z</time>
      </trkpt>
      <trkpt lat="32.532250452786684" lon="-1.106734173372388">
        <ele>1279.652099609375</ele>
        <time>2011-04-19T07:32:26Z</time>
      </trkpt>
      <trkpt lat="32.532138973474503" lon="-1.10773304477334">
        <ele>1286.86181640625</ele>
        <time>2011-04-19T07:32:37Z</time>
      </trkpt>
      <trkpt lat="32.532094297930598" lon="-1.107905125245452">
        <ele>1287.8232421875</ele>
        <time>2011-04-19T07:32:39Z</time>
      </trkpt>
      <trkpt lat="32.531975694000721" lon="-1.108272336423397">
        <ele>1287.342529296875</ele>
        <time>2011-04-19T07:32:44Z</time>
      </trkpt>
      <trkpt lat="32.531803194433451" lon="-1.108519770205021">
        <ele>1286.38134765625</ele>
        <time>2011-04-19T07:32:47Z</time>
      </trkpt>
      <trkpt lat="32.531568417325616" lon="-1.10888572409749">
        <ele>1285.419921875</ele>
        <time>2011-04-19T07:32:51Z</time>
      </trkpt>
      <trkpt lat="32.530948827043176" lon="-1.109709329903126">
        <ele>1281.09423828125</ele>
        <time>2011-04-19T07:32:59Z</time>
      </trkpt>
      <trkpt lat="32.530323620885611" lon="-1.110526481643319">
        <ele>1276.768310546875</ele>
        <time>2011-04-19T07:33:06Z</time>
      </trkpt>
      <trkpt lat="32.529458273202181" lon="-1.111672539263964">
        <ele>1273.884033203125</ele>
        <time>2011-04-19T07:33:15Z</time>
      </trkpt>
      <trkpt lat="32.528548752889037" lon="-1.112802168354392">
        <ele>1271.480712890625</ele>
        <time>2011-04-19T07:33:24Z</time>
      </trkpt>
      <trkpt lat="32.52784182317555" lon="-1.113670449703932">
        <ele>1272.9228515625</ele>
        <time>2011-04-19T07:33:31Z</time>
      </trkpt>
      <trkpt lat="32.527221143245697" lon="-1.114430353045464">
        <ele>1272.442138671875</ele>
        <time>2011-04-19T07:33:37Z</time>
      </trkpt>
      <trkpt lat="32.526125963777304" lon="-1.115420842543244">
        <ele>1272.442138671875</ele>
        <time>2011-04-19T07:33:46Z</time>
      </trkpt>
      <trkpt lat="32.526015322655439" lon="-1.115529052913189">
        <ele>1272.442138671875</ele>
        <time>2011-04-19T07:33:47Z</time>
      </trkpt>
      <trkpt lat="32.525404449552298" lon="-1.115865083411336">
        <ele>1271.000244140625</ele>
        <time>2011-04-19T07:33:52Z</time>
      </trkpt>
      <trkpt lat="32.524429466575384" lon="-1.116201533004642">
        <ele>1268.1162109375</ele>
        <time>2011-04-19T07:33:59Z</time>
      </trkpt>
      <trkpt lat="32.523493459448218" lon="-1.116541754454374">
        <ele>1265.232421875</ele>
        <time>2011-04-19T07:34:06Z</time>
      </trkpt>
      <trkpt lat="32.522202059626579" lon="-1.116955736652017">
        <ele>1261.38720703125</ele>
        <time>2011-04-19T07:34:15Z</time>
      </trkpt>
      <trkpt lat="32.521922187879682" lon="-1.116990018635988">
        <ele>1261.38720703125</ele>
        <time>2011-04-19T07:34:17Z</time>
      </trkpt>
      <trkpt lat="32.521428158506751" lon="-1.117166373878717">
        <ele>1260.42578125</ele>
        <time>2011-04-19T07:34:21Z</time>
      </trkpt>
      <trkpt lat="32.521140156313777" lon="-1.117487316951156">
        <ele>1260.42578125</ele>
        <time>2011-04-19T07:34:25Z</time>
      </trkpt>
      <trkpt lat="32.520778896287084" lon="-1.11784472130239">
        <ele>1261.38720703125</ele>
        <time>2011-04-19T07:34:30Z</time>
      </trkpt>
      <trkpt lat="32.520388634875417" lon="-1.117876069620252">
        <ele>1260.906494140625</ele>
        <time>2011-04-19T07:34:35Z</time>
      </trkpt>
      <trkpt lat="32.519963420927525" lon="-1.117886463180184">
        <ele>1260.906494140625</ele>
        <time>2011-04-19T07:34:45Z</time>
      </trkpt>
      <trkpt lat="32.519793352112174" lon="-1.117844386026263">
        <ele>1259.94482421875</ele>
        <time>2011-04-19T07:34:48Z</time>
      </trkpt>
      <trkpt lat="32.519608028233051" lon="-1.117671886458993">
        <ele>1260.42578125</ele>
        <time>2011-04-19T07:34:52Z</time>
      </trkpt>
      <trkpt lat="32.519378699362278" lon="-1.117446161806583">
        <ele>1262.348388671875</ele>
        <time>2011-04-19T07:34:56Z</time>
      </trkpt>
      <trkpt lat="32.519019283354282" lon="-1.117292521521449">
        <ele>1262.8291015625</ele>
        <time>2011-04-19T07:35:02Z</time>
      </trkpt>
      <trkpt lat="32.518800683319569" lon="-1.117281541228294">
        <ele>1262.348388671875</ele>
        <time>2011-04-19T07:35:09Z</time>
      </trkpt>
      <trkpt lat="32.519069071859121" lon="-1.117365527898073">
        <ele>1240.718505859375</ele>
        <time>2011-04-19T07:40:08Z</time>
      </trkpt>
      <trkpt lat="32.519235368818045" lon="-1.11734482459724">
        <ele>1247.9287109375</ele>
        <time>2011-04-19T07:40:19Z</time>
      </trkpt>
      <trkpt lat="32.519561089575291" lon="-1.117432080209255">
        <ele>1251.293212890625</ele>
        <time>2011-04-19T07:40:25Z</time>
      </trkpt>
      <trkpt lat="32.519822269678116" lon="-1.117643471807241">
        <ele>1252.25439453125</ele>
        <time>2011-04-19T07:40:30Z</time>
      </trkpt>
      <trkpt lat="32.519979430362582" lon="-1.117826029658318">
        <ele>1252.735107421875</ele>
        <time>2011-04-19T07:40:33Z</time>
      </trkpt>
      <trkpt lat="32.520218817517161" lon="-1.117970617488027">
        <ele>1253.696533203125</ele>
        <time>2011-04-19T07:40:37Z</time>
      </trkpt>
      <trkpt lat="32.52046792767942" lon="-1.117992158979178">
        <ele>1256.099609375</ele>
        <time>2011-04-19T07:40:40Z</time>
      </trkpt>
      <trkpt lat="32.520981067791581" lon="-1.118007497861981">
        <ele>1259.94482421875</ele>
        <time>2011-04-19T07:40:47Z</time>
      </trkpt>
      <trkpt lat="32.52129077911377" lon="-1.117842374369502">
        <ele>1260.906494140625</ele>
        <time>2011-04-19T07:40:52Z</time>
      </trkpt>
      <trkpt lat="32.521218946203589" lon="-1.11797665245831">
        <ele>1258.5029296875</ele>
        <time>2011-04-19T07:40:56Z</time>
      </trkpt>
      <trkpt lat="32.52115884795785" lon="-1.118073631078005">
        <ele>1258.5029296875</ele>
        <time>2011-04-19T07:40:58Z</time>
      </trkpt>
      <trkpt lat="32.520709158852696" lon="-1.118563553318381">
        <ele>1253.2158203125</ele>
        <time>2011-04-19T07:41:04Z</time>
      </trkpt>
      <trkpt lat="32.520328117534518" lon="-1.1187853384763">
        <ele>1249.851318359375</ele>
        <time>2011-04-19T07:41:08Z</time>
      </trkpt>
      <trkpt lat="32.51933041960001" lon="-1.119395792484283">
        <ele>1239.75732421875</ele>
        <time>2011-04-19T07:41:19Z</time>
      </trkpt>
      <trkpt lat="32.519074520096183" lon="-1.119599556550384">
        <ele>1238.796142578125</ele>
        <time>2011-04-19T07:41:22Z</time>
      </trkpt>
      <trkpt lat="32.518918281421065" lon="-1.119815390557051">
        <ele>1239.75732421875</ele>
        <time>2011-04-19T07:41:25Z</time>
      </trkpt>
      <trkpt lat="32.51868057064712" lon="-1.120077157393098">
        <ele>1240.718505859375</ele>
        <time>2011-04-19T07:41:29Z</time>
      </trkpt>
      <trkpt lat="32.51851687207818" lon="-1.120321992784739">
        <ele>1240.718505859375</ele>
        <time>2011-04-19T07:41:32Z</time>
      </trkpt>
      <trkpt lat="32.51802577637136" lon="-1.12096169963479">
        <ele>1239.75732421875</ele>
        <time>2011-04-19T07:41:41Z</time>
      </trkpt>
      <trkpt lat="32.517800470814109" lon="-1.12123335711658">
        <ele>1239.75732421875</ele>
        <time>2011-04-19T07:41:45Z</time>
      </trkpt>
      <trkpt lat="32.517467373982072" lon="-1.121404934674501">
        <ele>1238.796142578125</ele>
        <time>2011-04-19T07:41:49Z</time>
      </trkpt>
      <trkpt lat="32.516755498945713" lon="-1.121542733162642">
        <ele>1238.3154296875</ele>
        <time>2011-04-19T07:41:56Z</time>
      </trkpt>
      <trkpt lat="32.516557769849896" lon="-1.121524376794696">
        <ele>1238.3154296875</ele>
        <time>2011-04-19T07:41:58Z</time>
      </trkpt>
      <trkpt lat="32.516244454309344" lon="-1.121558072045445">
        <ele>1237.834716796875</ele>
        <time>2011-04-19T07:42:02Z</time>
      </trkpt>
      <trkpt lat="32.515927366912365" lon="-1.12152018584311">
        <ele>1235.912109375</ele>
        <time>2011-04-19T07:42:08Z</time>
      </trkpt>
      <trkpt lat="32.51576199196279" lon="-1.121386159211397">
        <ele>1234.47021484375</ele>
        <time>2011-04-19T07:42:11Z</time>
      </trkpt>
      <trkpt lat="32.515533585101366" lon="-1.12105599604547">
        <ele>1233.028076171875</ele>
        <time>2011-04-19T07:42:16Z</time>
      </trkpt>
      <trkpt lat="32.515278356149793" lon="-1.120971422642469">
        <ele>1230.625</ele>
        <time>2011-04-19T07:42:21Z</time>
      </trkpt>
      <trkpt lat="32.514951881021261" lon="-1.120969159528613">
        <ele>1229.182861328125</ele>
        <time>2011-04-19T07:42:26Z</time>
      </trkpt>
      <trkpt lat="32.514531863853335" lon="-1.120660286396742">
        <ele>1228.702392578125</ele>
        <time>2011-04-19T07:42:32Z</time>
      </trkpt>
      <trkpt lat="32.514220392331481" lon="-1.120603373274207">
        <ele>1228.702392578125</ele>
        <time>2011-04-19T07:42:37Z</time>
      </trkpt>
      <trkpt lat="32.513549672439694" lon="-1.121122296899557">
        <ele>1227.74072265625</ele>
        <time>2011-04-19T07:42:47Z</time>
      </trkpt>
      <trkpt lat="32.513331491500139" lon="-1.121242828667164">
        <ele>1225.818115234375</ele>
        <time>2011-04-19T07:42:50Z</time>
      </trkpt>
      <trkpt lat="32.512884736061096" lon="-1.12150358967483">
        <ele>1221.4921875</ele>
        <time>2011-04-19T07:42:57Z</time>
      </trkpt>
      <trkpt lat="32.512783482670784" lon="-1.122062159702182">
        <ele>1221.01171875</ele>
        <time>2011-04-19T07:43:02Z</time>
      </trkpt>
      <trkpt lat="32.512818267568946" lon="-1.122290566563606">
        <ele>1222.934326171875</ele>
        <time>2011-04-19T07:43:04Z</time>
      </trkpt>
      <trkpt lat="32.512883394956589" lon="-1.122805299237371">
        <ele>1226.298828125</ele>
        <time>2011-04-19T07:43:09Z</time>
      </trkpt>
      <trkpt lat="32.512894459068775" lon="-1.123107131570578">
        <ele>1228.702392578125</ele>
        <time>2011-04-19T07:43:12Z</time>
      </trkpt>
      <trkpt lat="32.512829834595323" lon="-1.124039366841316">
        <ele>1232.06689453125</ele>
        <time>2011-04-19T07:43:21Z</time>
      </trkpt>
      <trkpt lat="32.512836121022701" lon="-1.124311443418264">
        <ele>1233.028076171875</ele>
        <time>2011-04-19T07:43:24Z</time>
      </trkpt>
      <trkpt lat="32.512820865958929" lon="-1.124466927722096">
        <ele>1233.5087890625</ele>
        <time>2011-04-19T07:43:26Z</time>
      </trkpt>
      <trkpt lat="32.512899152934551" lon="-1.124884849414229">
        <ele>1234.47021484375</ele>
        <time>2011-04-19T07:43:32Z</time>
      </trkpt>
      <trkpt lat="32.512878365814686" lon="-1.125069251284003">
        <ele>1234.950927734375</ele>
        <time>2011-04-19T07:43:34Z</time>
      </trkpt>
      <trkpt lat="32.512970566749573" lon="-1.125424476340413">
        <ele>1235.912109375</ele>
        <time>2011-04-19T07:43:38Z</time>
      </trkpt>
      <trkpt lat="32.513199560344219" lon="-1.126016490161419">
        <ele>1235.431396484375</ele>
        <time>2011-04-19T07:43:44Z</time>
      </trkpt>
      <trkpt lat="32.513389242812991" lon="-1.126299379393458">
        <ele>1234.950927734375</ele>
        <time>2011-04-19T07:43:47Z</time>
      </trkpt>
      <trkpt lat="32.513458393514156" lon="-1.126909917220473">
        <ele>1233.989501953125</ele>
        <time>2011-04-19T07:43:53Z</time>
      </trkpt>
      <trkpt lat="32.513385722413659" lon="-1.127148466184735">
        <ele>1233.989501953125</ele>
        <time>2011-04-19T07:43:55Z</time>
      </trkpt>
      <trkpt lat="32.513235518708825" lon="-1.127483658492565">
        <ele>1233.989501953125</ele>
        <time>2011-04-19T07:43:58Z</time>
      </trkpt>
      <trkpt lat="32.513122698292136" lon="-1.127663282677531">
        <ele>1233.028076171875</ele>
        <time>2011-04-19T07:44:00Z</time>
      </trkpt>
      <trkpt lat="32.512975595891476" lon="-1.12817189656198">
        <ele>1227.74072265625</ele>
        <time>2011-04-19T07:44:06Z</time>
      </trkpt>
      <trkpt lat="32.512813238427043" lon="-1.128344144672155">
        <ele>1224.376220703125</ele>
        <time>2011-04-19T07:44:09Z</time>
      </trkpt>
      <trkpt lat="32.51227704808116" lon="-1.128997849300504">
        <ele>1217.64697265625</ele>
        <time>2011-04-19T07:44:17Z</time>
      </trkpt>
      <trkpt lat="32.512197084724903" lon="-1.12920337356627">
        <ele>1216.685791015625</ele>
        <time>2011-04-19T07:44:19Z</time>
      </trkpt>
      <trkpt lat="32.51192718744278" lon="-1.129483748227358">
        <ele>1212.35986328125</ele>
        <time>2011-04-19T07:44:23Z</time>
      </trkpt>
      <trkpt lat="32.511458471417427" lon="-1.129803853109479">
        <ele>1207.072509765625</ele>
        <time>2011-04-19T07:44:28Z</time>
      </trkpt>
      <trkpt lat="32.511141048744321" lon="-1.130262929946184">
        <ele>1203.227294921875</ele>
        <time>2011-04-19T07:44:33Z</time>
      </trkpt>
      <trkpt lat="32.51070024445653" lon="-1.130944630131126">
        <ele>1197.45947265625</ele>
        <time>2011-04-19T07:44:40Z</time>
      </trkpt>
      <trkpt lat="32.509935647249222" lon="-1.131350984796882">
        <ele>1193.13330078125</ele>
        <time>2011-04-19T07:44:48Z</time>
      </trkpt>
      <trkpt lat="32.509549576789141" lon="-1.131571847945452">
        <ele>1196.017578125</ele>
        <time>2011-04-19T07:44:54Z</time>
      </trkpt>
      <trkpt lat="32.508985474705696" lon="-1.131877116858959">
        <ele>1196.978759765625</ele>
        <time>2011-04-19T07:45:01Z</time>
      </trkpt>
      <trkpt lat="32.508790763095021" lon="-1.131968395784497">
        <ele>1196.498291015625</ele>
        <time>2011-04-19T07:45:03Z</time>
      </trkpt>
      <trkpt lat="32.508058184757829" lon="-1.132104266434908">
        <ele>1207.072509765625</ele>
        <time>2011-04-19T07:45:10Z</time>
      </trkpt>
      <trkpt lat="32.507570860907435" lon="-1.132127484306693">
        <ele>1213.8017578125</ele>
        <time>2011-04-19T07:45:16Z</time>
      </trkpt>
      <trkpt lat="32.507323175668716" lon="-1.132274335250258">
        <ele>1213.8017578125</ele>
        <time>2011-04-19T07:45:19Z</time>
      </trkpt>
      <trkpt lat="32.506852364167571" lon="-1.132334265857935">
        <ele>1216.205078125</ele>
        <time>2011-04-19T07:45:24Z</time>
      </trkpt>
      <trkpt lat="32.506234031170607" lon="-1.132282465696335">
        <ele>1219.089111328125</ele>
        <time>2011-04-19T07:45:31Z</time>
      </trkpt>
      <trkpt lat="32.506147949025035" lon="-1.132320435717702">
        <ele>1218.6083984375</ele>
        <time>2011-04-19T07:45:32Z</time>
      </trkpt>
      <trkpt lat="32.505626929923892" lon="-1.132535180076957">
        <ele>1215.724609375</ele>
        <time>2011-04-19T07:45:39Z</time>
      </trkpt>
      <trkpt lat="32.505089230835438" lon="-1.132625620812178">
        <ele>1214.76318359375</ele>
        <time>2011-04-19T07:45:44Z</time>
      </trkpt>
      <trkpt lat="32.504530241712928" lon="-1.132750594988465">
        <ele>1212.35986328125</ele>
        <time>2011-04-19T07:45:50Z</time>
      </trkpt>
      <trkpt lat="32.504356233403087" lon="-1.132878754287958">
        <ele>1210.43701171875</ele>
        <time>2011-04-19T07:45:54Z</time>
      </trkpt>
      <trkpt lat="32.504258584231138" lon="-1.132981097325683">
        <ele>1209.956298828125</ele>
        <time>2011-04-19T07:45:56Z</time>
      </trkpt>
      <trkpt lat="32.504051635041833" lon="-1.133123757317662">
        <ele>1208.9951171875</ele>
        <time>2011-04-19T07:45:59Z</time>
      </trkpt>
      <trkpt lat="32.503574453294277" lon="-1.133304471150041">
        <ele>1211.879150390625</ele>
        <time>2011-04-19T07:46:04Z</time>
      </trkpt>
      <trkpt lat="32.503341268748045" lon="-1.133454674854875">
        <ele>1210.43701171875</ele>
        <time>2011-04-19T07:46:07Z</time>
      </trkpt>
      <trkpt lat="32.503091655671597" lon="-1.13356196321547">
        <ele>1208.514404296875</ele>
        <time>2011-04-19T07:46:10Z</time>
      </trkpt>
      <trkpt lat="32.502853022888303" lon="-1.133928839117289">
        <ele>1206.111083984375</ele>
        <time>2011-04-19T07:46:15Z</time>
      </trkpt>
      <trkpt lat="32.502795858308673" lon="-1.134175518527627">
        <ele>1206.111083984375</ele>
        <time>2011-04-19T07:46:17Z</time>
      </trkpt>
      <trkpt lat="32.502396628260612" lon="-1.134807178750634">
        <ele>1202.265869140625</ele>
        <time>2011-04-19T07:46:23Z</time>
      </trkpt>
      <trkpt lat="32.50213067047298" lon="-1.135098952800036">
        <ele>1200.343505859375</ele>
        <time>2011-04-19T07:46:26Z</time>
      </trkpt>
      <trkpt lat="32.501970324665308" lon="-1.135320067405701">
        <ele>1199.382080078125</ele>
        <time>2011-04-19T07:46:28Z</time>
      </trkpt>
      <trkpt lat="32.501566736027598" lon="-1.135612344369292">
        <ele>1198.9013671875</ele>
        <time>2011-04-19T07:46:32Z</time>
      </trkpt>
      <trkpt lat="32.500806665048003" lon="-1.135862963274121">
        <ele>1195.055908203125</ele>
        <time>2011-04-19T07:46:39Z</time>
      </trkpt>
      <trkpt lat="32.499953974038363" lon="-1.135969664901495">
        <ele>1190.72998046875</ele>
        <time>2011-04-19T07:46:46Z</time>
      </trkpt>
      <trkpt lat="32.499561365693808" lon="-1.136115929111838">
        <ele>1188.8076171875</ele>
        <time>2011-04-19T07:46:50Z</time>
      </trkpt>
      <trkpt lat="32.499361960217357" lon="-1.136287841945887">
        <ele>1187.84619140625</ele>
        <time>2011-04-19T07:46:55Z</time>
      </trkpt>
      <trkpt lat="32.499279985204339" lon="-1.13663736730814">
        <ele>1187.365478515625</ele>
        <time>2011-04-19T07:47:01Z</time>
      </trkpt>
      <trkpt lat="32.499125171452761" lon="-1.137386793270707">
        <ele>1192.172119140625</ele>
        <time>2011-04-19T07:47:08Z</time>
      </trkpt>
      <trkpt lat="32.498851921409369" lon="-1.138330092653632">
        <ele>1193.614013671875</ele>
        <time>2011-04-19T07:47:17Z</time>
      </trkpt>
      <trkpt lat="32.498565930873156" lon="-1.139067197218537">
        <ele>1193.614013671875</ele>
        <time>2011-04-19T07:47:25Z</time>
      </trkpt>
      <trkpt lat="32.498289328068495" lon="-1.139760045334697">
        <ele>1190.24951171875</ele>
        <time>2011-04-19T07:47:35Z</time>
      </trkpt>
      <trkpt lat="32.498266780748963" lon="-1.139915194362402">
        <ele>1195.53662109375</ele>
        <time>2011-04-19T07:47:43Z</time>
      </trkpt>
      <trkpt lat="32.4983477499336" lon="-1.1401242390275">
        <ele>1199.382080078125</ele>
        <time>2011-04-19T07:47:48Z</time>
      </trkpt>
      <trkpt lat="32.498460151255131" lon="-1.140625644475222">
        <ele>1203.227294921875</ele>
        <time>2011-04-19T07:47:57Z</time>
      </trkpt>
      <trkpt lat="32.498521422967315" lon="-1.140895960852504">
        <ele>1206.591796875</ele>
        <time>2011-04-19T07:48:07Z</time>
      </trkpt>
      <trkpt lat="32.498568529263139" lon="-1.140989335253835">
        <ele>1210.43701171875</ele>
        <time>2011-04-19T07:48:17Z</time>
      </trkpt>
      <trkpt lat="32.498665926977992" lon="-1.141292173415422">
        <ele>1212.840576171875</ele>
        <time>2011-04-19T07:48:26Z</time>
      </trkpt>
      <trkpt lat="32.498723845928907" lon="-1.141615295782685">
        <ele>1215.243896484375</ele>
        <time>2011-04-19T07:48:34Z</time>
      </trkpt>
      <trkpt lat="32.498692078515887" lon="-1.141941519454122">
        <ele>1214.76318359375</ele>
        <time>2011-04-19T07:48:42Z</time>
      </trkpt>
      <trkpt lat="32.498818226158619" lon="-1.14253705367446">
        <ele>1216.685791015625</ele>
        <time>2011-04-19T07:48:53Z</time>
      </trkpt>
      <trkpt lat="32.498718146234751" lon="-1.142731765285134">
        <ele>1215.724609375</ele>
        <time>2011-04-19T07:48:58Z</time>
      </trkpt>
      <trkpt lat="32.498494433239102" lon="-1.142842154949904">
        <ele>1212.35986328125</ele>
        <time>2011-04-19T07:49:03Z</time>
      </trkpt>
      <trkpt lat="32.498246496543288" lon="-1.143045667558909">
        <ele>1210.43701171875</ele>
        <time>2011-04-19T07:49:10Z</time>
      </trkpt>
      <trkpt lat="32.498457469046116" lon="-1.143998438492417">
        <ele>1214.282470703125</ele>
        <time>2011-04-19T07:49:24Z</time>
      </trkpt>
      <trkpt lat="32.498729629442096" lon="-1.144969398155808">
        <ele>1216.685791015625</ele>
        <time>2011-04-19T07:49:38Z</time>
      </trkpt>
      <trkpt lat="32.498990474268794" lon="-1.145670292899013">
        <ele>1218.127685546875</ele>
        <time>2011-04-19T07:49:48Z</time>
      </trkpt>
      <trkpt lat="32.499097678810358" lon="-1.145962737500668">
        <ele>1218.6083984375</ele>
        <time>2011-04-19T07:49:56Z</time>
      </trkpt>
      <trkpt lat="32.499155681580305" lon="-1.146549889817834">
        <ele>1217.64697265625</ele>
        <time>2011-04-19T07:50:06Z</time>
      </trkpt>
      <trkpt lat="32.499170433729887" lon="-1.146661955863237">
        <ele>1217.64697265625</ele>
        <time>2011-04-19T07:50:08Z</time>
      </trkpt>
      <trkpt lat="32.499054679647088" lon="-1.147251622751355">
        <ele>1218.6083984375</ele>
        <time>2011-04-19T07:50:17Z</time>
      </trkpt>
      <trkpt lat="32.498862147331238" lon="-1.14810842089355">
        <ele>1217.16650390625</ele>
        <time>2011-04-19T07:50:27Z</time>
      </trkpt>
      <trkpt lat="32.49849678017199" lon="-1.149234278127551">
        <ele>1216.685791015625</ele>
        <time>2011-04-19T07:50:39Z</time>
      </trkpt>
      <trkpt lat="32.498171729966998" lon="-1.150191742926836">
        <ele>1215.243896484375</ele>
        <time>2011-04-19T07:50:50Z</time>
      </trkpt>
      <trkpt lat="32.49786201864481" lon="-1.150633385404944">
        <ele>1210.917724609375</ele>
        <time>2011-04-19T07:50:57Z</time>
      </trkpt>
      <trkpt lat="32.497761771082878" lon="-1.150740925222635">
        <ele>1209.956298828125</ele>
        <time>2011-04-19T07:50:59Z</time>
      </trkpt>
      <trkpt lat="32.497428422793746" lon="-1.15136026404798">
        <ele>1205.14990234375</ele>
        <time>2011-04-19T07:51:07Z</time>
      </trkpt>
      <trkpt lat="32.497051488608122" lon="-1.152216475456953">
        <ele>1201.785400390625</ele>
        <time>2011-04-19T07:51:18Z</time>
      </trkpt>
      <trkpt lat="32.496664244681597" lon="-1.153184752911329">
        <ele>1199.86279296875</ele>
        <time>2011-04-19T07:51:30Z</time>
      </trkpt>
      <trkpt lat="32.496396778151393" lon="-1.154073486104608">
        <ele>1201.785400390625</ele>
        <time>2011-04-19T07:51:42Z</time>
      </trkpt>
      <trkpt lat="32.49636098742485" lon="-1.154770273715258">
        <ele>1206.111083984375</ele>
        <time>2011-04-19T07:51:51Z</time>
      </trkpt>
      <trkpt lat="32.496346151456237" lon="-1.155281737446785">
        <ele>1213.3212890625</ele>
        <time>2011-04-19T07:52:00Z</time>
      </trkpt>
      <trkpt lat="32.496281443163753" lon="-1.15589864552021">
        <ele>1215.724609375</ele>
        <time>2011-04-19T07:52:08Z</time>
      </trkpt>
      <trkpt lat="32.496164934709668" lon="-1.156418574973941">
        <ele>1217.64697265625</ele>
        <time>2011-04-19T07:52:17Z</time>
      </trkpt>
      <trkpt lat="32.496126964688301" lon="-1.156592080369592">
        <ele>1220.531005859375</ele>
        <time>2011-04-19T07:52:24Z</time>
      </trkpt>
      <trkpt lat="32.496085474267602" lon="-1.15678645670414">
        <ele>1223.8955078125</ele>
        <time>2011-04-19T07:52:36Z</time>
      </trkpt>
      <trkpt lat="32.495966451242566" lon="-1.157489782199264">
        <ele>1226.298828125</ele>
        <time>2011-04-19T07:52:44Z</time>
      </trkpt>
      <trkpt lat="32.49582932330668" lon="-1.158050363883376">
        <ele>1227.26025390625</ele>
        <time>2011-04-19T07:52:51Z</time>
      </trkpt>
      <trkpt lat="32.495750868692994" lon="-1.158499885350466">
        <ele>1229.66357421875</ele>
        <time>2011-04-19T07:52:57Z</time>
      </trkpt>
      <trkpt lat="32.495602341368794" lon="-1.158850081264973">
        <ele>1220.531005859375</ele>
        <time>2011-04-19T07:53:05Z</time>
      </trkpt>
      <trkpt lat="32.495454987511039" lon="-1.159458942711353">
        <ele>1212.840576171875</ele>
        <time>2011-04-19T07:53:13Z</time>
      </trkpt>
      <trkpt lat="32.495404360815883" lon="-1.159659270197153">
        <ele>1211.879150390625</ele>
        <time>2011-04-19T07:53:16Z</time>
      </trkpt>
      <trkpt lat="32.495144857093692" lon="-1.160081969574094">
        <ele>1206.111083984375</ele>
        <time>2011-04-19T07:53:24Z</time>
      </trkpt>
      <trkpt lat="32.495130775496364" lon="-1.160278525203466">
        <ele>1205.630615234375</ele>
        <time>2011-04-19T07:53:28Z</time>
      </trkpt>
      <trkpt lat="32.495065648108721" lon="-1.160503495484591">
        <ele>1204.188720703125</ele>
        <time>2011-04-19T07:53:32Z</time>
      </trkpt>
      <trkpt lat="32.494968250393867" lon="-1.160611035302281">
        <ele>1202.74658203125</ele>
        <time>2011-04-19T07:53:35Z</time>
      </trkpt>
      <trkpt lat="32.494843360036612" lon="-1.160870622843504">
        <ele>1194.0947265625</ele>
        <time>2011-04-19T07:53:40Z</time>
      </trkpt>
      <trkpt lat="32.494805976748466" lon="-1.161210425198078">
        <ele>1185.923583984375</ele>
        <time>2011-04-19T07:53:45Z</time>
      </trkpt>
      <trkpt lat="32.494784519076347" lon="-1.161347050219774">
        <ele>1183.03955078125</ele>
        <time>2011-04-19T07:53:47Z</time>
      </trkpt>
      <trkpt lat="32.494807485491037" lon="-1.161673860624433">
        <ele>1180.636474609375</ele>
        <time>2011-04-19T07:53:51Z</time>
      </trkpt>
      <trkpt lat="32.494767587631941" lon="-1.162088681012392">
        <ele>1181.1171875</ele>
        <time>2011-04-19T07:53:56Z</time>
      </trkpt>
      <trkpt lat="32.494641775265336" lon="-1.162924943491817">
        <ele>1185.923583984375</ele>
        <time>2011-04-19T07:54:05Z</time>
      </trkpt>
      <trkpt lat="32.494671950116754" lon="-1.163267092779279">
        <ele>1188.326904296875</ele>
        <time>2011-04-19T07:54:09Z</time>
      </trkpt>
      <trkpt lat="32.494846964254975" lon="-1.163758859038353">
        <ele>1194.5751953125</ele>
        <time>2011-04-19T07:54:15Z</time>
      </trkpt>
      <trkpt lat="32.494787788018584" lon="-1.16422732360661">
        <ele>1198.9013671875</ele>
        <time>2011-04-19T07:54:20Z</time>
      </trkpt>
      <trkpt lat="32.494336841627955" lon="-1.165294675156474">
        <ele>1207.55322265625</ele>
        <time>2011-04-19T07:54:31Z</time>
      </trkpt>
      <trkpt lat="32.493811966851354" lon="-1.166231771931052">
        <ele>1201.785400390625</ele>
        <time>2011-04-19T07:54:41Z</time>
      </trkpt>
      <trkpt lat="32.49326647259295" lon="-1.166989244520664">
        <ele>1194.5751953125</ele>
        <time>2011-04-19T07:54:50Z</time>
      </trkpt>
      <trkpt lat="32.492873780429363" lon="-1.167357880622149">
        <ele>1186.404296875</ele>
        <time>2011-04-19T07:54:56Z</time>
      </trkpt>
      <trkpt lat="32.492445632815361" lon="-1.168045867234469">
        <ele>1176.791015625</ele>
        <time>2011-04-19T07:55:05Z</time>
      </trkpt>
      <trkpt lat="32.49232392758131" lon="-1.168321296572685">
        <ele>1172.94580078125</ele>
        <time>2011-04-19T07:55:09Z</time>
      </trkpt>
      <trkpt lat="32.492285873740911" lon="-1.168580548837781">
        <ele>1174.3876953125</ele>
        <time>2011-04-19T07:55:13Z</time>
      </trkpt>
      <trkpt lat="32.492013880982995" lon="-1.169052449986339">
        <ele>1174.3876953125</ele>
        <time>2011-04-19T07:55:21Z</time>
      </trkpt>
      <trkpt lat="32.491921847686172" lon="-1.169301979243755">
        <ele>1175.348876953125</ele>
        <time>2011-04-19T07:55:25Z</time>
      </trkpt>
      <trkpt lat="32.491647591814399" lon="-1.169607331976295">
        <ele>1184.481689453125</ele>
        <time>2011-04-19T07:55:32Z</time>
      </trkpt>
      <trkpt lat="32.491543488577008" lon="-1.169563997536898">
        <ele>1189.2880859375</ele>
        <time>2011-04-19T07:55:35Z</time>
      </trkpt>
      <trkpt lat="32.491336539387703" lon="-1.169752590358257">
        <ele>1197.45947265625</ele>
        <time>2011-04-19T07:55:41Z</time>
      </trkpt>
      <trkpt lat="32.49119471758604" lon="-1.170205296948552">
        <ele>1201.785400390625</ele>
        <time>2011-04-19T07:55:47Z</time>
      </trkpt>
      <trkpt lat="32.49114878475666" lon="-1.170576279982925">
        <ele>1202.265869140625</ele>
        <time>2011-04-19T07:55:52Z</time>
      </trkpt>
      <trkpt lat="32.490834295749664" lon="-1.171134347096086">
        <ele>1201.3046875</ele>
        <time>2011-04-19T07:56:00Z</time>
      </trkpt>
      <trkpt lat="32.490731365978718" lon="-1.171284718438983">
        <ele>1197.45947265625</ele>
        <time>2011-04-19T07:56:02Z</time>
      </trkpt>
      <trkpt lat="32.490544952452183" lon="-1.171685792505741">
        <ele>1188.8076171875</ele>
        <time>2011-04-19T07:56:07Z</time>
      </trkpt>
      <trkpt lat="32.490197774022818" lon="-1.172012938186526">
        <ele>1173.906982421875</ele>
        <time>2011-04-19T07:56:12Z</time>
      </trkpt>
      <trkpt lat="32.489925948902965" lon="-1.172162555158138">
        <ele>1167.658447265625</ele>
        <time>2011-04-19T07:56:16Z</time>
      </trkpt>
      <trkpt lat="32.489749761298299" lon="-1.172535130754113">
        <ele>1174.3876953125</ele>
        <time>2011-04-19T07:56:22Z</time>
      </trkpt>
      <trkpt lat="32.489538034424186" lon="-1.172769153490663">
        <ele>1181.59765625</ele>
        <time>2011-04-19T07:56:27Z</time>
      </trkpt>
      <trkpt lat="32.489365199580789" lon="-1.172997560352087">
        <ele>1184.0009765625</ele>
        <time>2011-04-19T07:56:31Z</time>
      </trkpt>
      <trkpt lat="32.489169063046575" lon="-1.173282042145729">
        <ele>1176.310302734375</ele>
        <time>2011-04-19T07:56:36Z</time>
      </trkpt>
      <trkpt lat="32.488872427493334" lon="-1.173770288005471">
        <ele>1160.92919921875</ele>
        <time>2011-04-19T07:56:44Z</time>
      </trkpt>
      <trkpt lat="32.488499097526073" lon="-1.174415946006775">
        <ele>1146.02880859375</ele>
        <time>2011-04-19T07:56:52Z</time>
      </trkpt>
      <trkpt lat="32.488326095044613" lon="-1.175089683383703">
        <ele>1133.051025390625</ele>
        <time>2011-04-19T07:57:01Z</time>
      </trkpt>
      <trkpt lat="32.488222327083349" lon="-1.175386738032103">
        <ele>1134.4931640625</ele>
        <time>2011-04-19T07:57:08Z</time>
      </trkpt>
      <trkpt lat="32.488175556063652" lon="-1.175569798797369">
        <ele>1137.376953125</ele>
        <time>2011-04-19T07:57:11Z</time>
      </trkpt>
      <trkpt lat="32.488230457529426" lon="-1.1760223377496">
        <ele>1144.106201171875</ele>
        <time>2011-04-19T07:57:18Z</time>
      </trkpt>
      <trkpt lat="32.488233894109726" lon="-1.176194166764617">
        <ele>1145.0673828125</ele>
        <time>2011-04-19T07:57:21Z</time>
      </trkpt>
      <trkpt lat="32.488214699551463" lon="-1.176373790949583">
        <ele>1143.62548828125</ele>
        <time>2011-04-19T07:57:24Z</time>
      </trkpt>
      <trkpt lat="32.488045552745461" lon="-1.176902186125517">
        <ele>1144.106201171875</ele>
        <time>2011-04-19T07:57:33Z</time>
      </trkpt>
      <trkpt lat="32.487872885540128" lon="-1.177496965974569">
        <ele>1139.7802734375</ele>
        <time>2011-04-19T07:57:44Z</time>
      </trkpt>
      <trkpt lat="32.487734332680702" lon="-1.177822770550847">
        <ele>1141.22216796875</ele>
        <time>2011-04-19T07:57:53Z</time>
      </trkpt>
      <trkpt lat="32.487832820042968" lon="-1.177956126630306">
        <ele>1151.796875</ele>
        <time>2011-04-19T07:58:00Z</time>
      </trkpt>
      <trkpt lat="32.488048737868667" lon="-1.178250834345818">
        <ele>1166.697265625</ele>
        <time>2011-04-19T07:58:11Z</time>
      </trkpt>
      <trkpt lat="32.488274797797203" lon="-1.178458286449313">
        <ele>1176.310302734375</ele>
        <time>2011-04-19T07:58:20Z</time>
      </trkpt>
      <trkpt lat="32.488419972360134" lon="-1.17855878546834">
        <ele>1181.1171875</ele>
        <time>2011-04-19T07:58:25Z</time>
      </trkpt>
      <trkpt lat="32.488850969821215" lon="-1.178437080234289">
        <ele>1189.2880859375</ele>
        <time>2011-04-19T07:58:34Z</time>
      </trkpt>
      <trkpt lat="32.489044088870287" lon="-1.178455017507076">
        <ele>1191.69140625</ele>
        <time>2011-04-19T07:58:38Z</time>
      </trkpt>
      <trkpt lat="32.489447090774775" lon="-1.178670264780521">
        <ele>1196.978759765625</ele>
        <time>2011-04-19T07:58:45Z</time>
      </trkpt>
      <trkpt lat="32.490041283890605" lon="-1.179101429879665">
        <ele>1202.74658203125</ele>
        <time>2011-04-19T07:58:55Z</time>
      </trkpt>
      <trkpt lat="32.490169191733003" lon="-1.179209556430578">
        <ele>1202.74658203125</ele>
        <time>2011-04-19T07:58:57Z</time>
      </trkpt>
      <trkpt lat="32.490552244707942" lon="-1.179782627150416">
        <ele>1207.55322265625</ele>
        <time>2011-04-19T07:59:06Z</time>
      </trkpt>
      <trkpt lat="32.490986175835133" lon="-1.180025534704328">
        <ele>1208.9951171875</ele>
        <time>2011-04-19T07:59:15Z</time>
      </trkpt>
      <trkpt lat="32.49149227514863" lon="-1.180118573829532">
        <ele>1208.9951171875</ele>
        <time>2011-04-19T07:59:24Z</time>
      </trkpt>
      <trkpt lat="32.491654464974999" lon="-1.18014732375741">
        <ele>1207.072509765625</ele>
        <time>2011-04-19T07:59:28Z</time>
      </trkpt>
      <trkpt lat="32.491783378645778" lon="-1.180232986807823">
        <ele>1205.14990234375</ele>
        <time>2011-04-19T07:59:32Z</time>
      </trkpt>
      <trkpt lat="32.49189686961472" lon="-1.180408420041204">
        <ele>1205.14990234375</ele>
        <time>2011-04-19T07:59:37Z</time>
      </trkpt>
      <trkpt lat="32.491814894601703" lon="-1.18060857988894">
        <ele>1200.343505859375</ele>
        <time>2011-04-19T07:59:42Z</time>
      </trkpt>
      <trkpt lat="32.491663433611393" lon="-1.180775295943022">
        <ele>1190.72998046875</ele>
        <time>2011-04-19T07:59:50Z</time>
      </trkpt>
      <trkpt lat="32.491527479141951" lon="-1.181331099942327">
        <ele>1184.481689453125</ele>
        <time>2011-04-19T07:59:58Z</time>
      </trkpt>
      <trkpt lat="32.491399571299553" lon="-1.181635782122612">
        <ele>1179.6748046875</ele>
        <time>2011-04-19T08:00:05Z</time>
      </trkpt>
      <trkpt lat="32.491222880780697" lon="-1.181848095729947">
        <ele>1170.54248046875</ele>
        <time>2011-04-19T08:00:15Z</time>
      </trkpt>
      <trkpt lat="32.491150880232453" lon="-1.181994779035449">
        <ele>1165.736083984375</ele>
        <time>2011-04-19T08:00:23Z</time>
      </trkpt>
      <trkpt lat="32.491072090342641" lon="-1.182372132316232">
        <ele>1164.2939453125</ele>
        <time>2011-04-19T08:00:33Z</time>
      </trkpt>
      <trkpt lat="32.491180468350649" lon="-1.182593666017056">
        <ele>1168.619873046875</ele>
        <time>2011-04-19T08:00:41Z</time>
      </trkpt>
      <trkpt lat="32.491244757547975" lon="-1.182724172249436">
        <ele>1179.194091796875</ele>
        <time>2011-04-19T08:01:13Z</time>
      </trkpt>
      <trkpt lat="32.491226568818092" lon="-1.182874124497175">
        <ele>1197.45947265625</ele>
        <time>2011-04-19T08:01:40Z</time>
      </trkpt>
      <trkpt lat="32.491099247708917" lon="-1.183088198304176">
        <ele>1193.13330078125</ele>
        <time>2011-04-19T08:01:48Z</time>
      </trkpt>
      <trkpt lat="32.491027666255832" lon="-1.183332279324532">
        <ele>1191.69140625</ele>
        <time>2011-04-19T08:01:55Z</time>
      </trkpt>
      <trkpt lat="32.491041161119938" lon="-1.183815831318498">
        <ele>1188.326904296875</ele>
        <time>2011-04-19T08:02:05Z</time>
      </trkpt>
      <trkpt lat="32.491048956289887" lon="-1.183932088315487">
        <ele>1189.768798828125</ele>
        <time>2011-04-19T08:02:07Z</time>
      </trkpt>
      <trkpt lat="32.491183234378695" lon="-1.184174157679081">
        <ele>1192.65283203125</ele>
        <time>2011-04-19T08:02:12Z</time>
      </trkpt>
      <trkpt lat="32.491496298462152" lon="-1.184496358036995">
        <ele>1200.823974609375</ele>
        <time>2011-04-19T08:02:20Z</time>
      </trkpt>
      <trkpt lat="32.491738954558969" lon="-1.184529885649681">
        <ele>1206.591796875</ele>
        <time>2011-04-19T08:02:25Z</time>
      </trkpt>
      <trkpt lat="32.492163078859448" lon="-1.184344897046685">
        <ele>1217.16650390625</ele>
        <time>2011-04-19T08:02:35Z</time>
      </trkpt>
      <trkpt lat="32.492346726357937" lon="-1.184267029166222">
        <ele>1220.05029296875</ele>
        <time>2011-04-19T08:02:41Z</time>
      </trkpt>
      <trkpt lat="32.492817537859082" lon="-1.184030072763562">
        <ele>1227.26025390625</ele>
        <time>2011-04-19T08:02:52Z</time>
      </trkpt>
      <trkpt lat="32.493145186454058" lon="-1.183926053345203">
        <ele>1228.2216796875</ele>
        <time>2011-04-19T08:02:59Z</time>
      </trkpt>
      <trkpt lat="32.493591941893101" lon="-1.183740142732859">
        <ele>1229.182861328125</ele>
        <time>2011-04-19T08:03:07Z</time>
      </trkpt>
      <trkpt lat="32.493692860007286" lon="-1.183655150234699">
        <ele>1227.74072265625</ele>
        <time>2011-04-19T08:03:10Z</time>
      </trkpt>
      <trkpt lat="32.493939455598593" lon="-1.183636877685785">
        <ele>1229.182861328125</ele>
        <time>2011-04-19T08:03:16Z</time>
      </trkpt>
      <trkpt lat="32.494083791971207" lon="-1.183765539899468">
        <ele>1230.625</ele>
        <time>2011-04-19T08:03:21Z</time>
      </trkpt>
      <trkpt lat="32.494235588237643" lon="-1.184111461043358">
        <ele>1233.028076171875</ele>
        <time>2011-04-19T08:03:27Z</time>
      </trkpt>
      <trkpt lat="32.494241623207927" lon="-1.184358224272728">
        <ele>1231.586181640625</ele>
        <time>2011-04-19T08:03:31Z</time>
      </trkpt>
      <trkpt lat="32.494236342608929" lon="-1.184465596452355">
        <ele>1231.586181640625</ele>
        <time>2011-04-19T08:03:33Z</time>
      </trkpt>
      <trkpt lat="32.494400292634964" lon="-1.184729961678386">
        <ele>1233.028076171875</ele>
        <time>2011-04-19T08:03:40Z</time>
      </trkpt>
      <trkpt lat="32.494714027270675" lon="-1.18476239964366">
        <ele>1236.873291015625</ele>
        <time>2011-04-19T08:03:45Z</time>
      </trkpt>
      <trkpt lat="32.494924832135439" lon="-1.184674054384232">
        <ele>1239.75732421875</ele>
        <time>2011-04-19T08:03:49Z</time>
      </trkpt>
      <trkpt lat="32.49526496976614" lon="-1.184735996648669">
        <ele>1243.121826171875</ele>
        <time>2011-04-19T08:03:56Z</time>
      </trkpt>
      <trkpt lat="32.495513241738081" lon="-1.184985777363181">
        <ele>1243.6025390625</ele>
        <time>2011-04-19T08:04:02Z</time>
      </trkpt>
      <trkpt lat="32.495662020519376" lon="-1.18515333160758">
        <ele>1243.6025390625</ele>
        <time>2011-04-19T08:04:07Z</time>
      </trkpt>
      <trkpt lat="32.495713317766786" lon="-1.185342846438289">
        <ele>1243.121826171875</ele>
        <time>2011-04-19T08:04:10Z</time>
      </trkpt>
      <trkpt lat="32.495696134865284" lon="-1.185876522213221">
        <ele>1240.238037109375</ele>
        <time>2011-04-19T08:04:19Z</time>
      </trkpt>
      <trkpt lat="32.4957091268152" lon="-1.186190424486995">
        <ele>1238.3154296875</ele>
        <time>2011-04-19T08:04:25Z</time>
      </trkpt>
      <trkpt lat="32.495621368288994" lon="-1.186554534360766">
        <ele>1235.912109375</ele>
        <time>2011-04-19T08:04:31Z</time>
      </trkpt>
      <trkpt lat="32.495478373020887" lon="-1.186907831579447">
        <ele>1233.5087890625</ele>
        <time>2011-04-19T08:04:37Z</time>
      </trkpt>
      <trkpt lat="32.495421962812543" lon="-1.187696568667889">
        <ele>1228.702392578125</ele>
        <time>2011-04-19T08:04:48Z</time>
      </trkpt>
      <trkpt lat="32.495510894805193" lon="-1.188187245279551">
        <ele>1229.182861328125</ele>
        <time>2011-04-19T08:04:56Z</time>
      </trkpt>
      <trkpt lat="32.495599323883653" lon="-1.18856736458838">
        <ele>1228.702392578125</ele>
        <time>2011-04-19T08:05:04Z</time>
      </trkpt>
      <trkpt lat="32.495670653879642" lon="-1.18877649307251">
        <ele>1228.2216796875</ele>
        <time>2011-04-19T08:05:08Z</time>
      </trkpt>
      <trkpt lat="32.49569253064692" lon="-1.189156360924244">
        <ele>1229.182861328125</ele>
        <time>2011-04-19T08:05:13Z</time>
      </trkpt>
      <trkpt lat="32.49573552981019" lon="-1.18936532177031">
        <ele>1229.66357421875</ele>
        <time>2011-04-19T08:05:17Z</time>
      </trkpt>
      <trkpt lat="32.495669480413198" lon="-1.189575623720884">
        <ele>1228.702392578125</ele>
        <time>2011-04-19T08:05:21Z</time>
      </trkpt>
      <trkpt lat="32.495179725810885" lon="-1.190330749377608">
        <ele>1222.45361328125</ele>
        <time>2011-04-19T08:05:34Z</time>
      </trkpt>
      <trkpt lat="32.49477244913578" lon="-1.191010270267725">
        <ele>1222.45361328125</ele>
        <time>2011-04-19T08:05:45Z</time>
      </trkpt>
      <trkpt lat="32.494582682847977" lon="-1.191509328782558">
        <ele>1220.531005859375</ele>
        <time>2011-04-19T08:05:52Z</time>
      </trkpt>
      <trkpt lat="32.494442788884044" lon="-1.192055325955153">
        <ele>1220.05029296875</ele>
        <time>2011-04-19T08:05:59Z</time>
      </trkpt>
      <trkpt lat="32.494133161380887" lon="-1.192568549886346">
        <ele>1212.35986328125</ele>
        <time>2011-04-19T08:06:09Z</time>
      </trkpt>
      <trkpt lat="32.493792688474059" lon="-1.193164251744747">
        <ele>1203.227294921875</ele>
        <time>2011-04-19T08:06:21Z</time>
      </trkpt>
      <trkpt lat="32.493624463677406" lon="-1.193495085462928">
        <ele>1204.669189453125</ele>
        <time>2011-04-19T08:06:28Z</time>
      </trkpt>
      <trkpt lat="32.493507787585258" lon="-1.193638164550066">
        <ele>1203.7080078125</ele>
        <time>2011-04-19T08:06:32Z</time>
      </trkpt>
      <trkpt lat="32.493374682962894" lon="-1.19395206682384">
        <ele>1205.630615234375</ele>
        <time>2011-04-19T08:06:41Z</time>
      </trkpt>
      <trkpt lat="32.493219533935189" lon="-1.194287845864892">
        <ele>1204.669189453125</ele>
        <time>2011-04-19T08:06:49Z</time>
      </trkpt>
      <trkpt lat="32.492972938343883" lon="-1.194843146950007">
        <ele>1194.5751953125</ele>
        <time>2011-04-19T08:07:00Z</time>
      </trkpt>
      <trkpt lat="32.49287998303771" lon="-1.195523757487536">
        <ele>1184.481689453125</ele>
        <time>2011-04-19T08:07:12Z</time>
      </trkpt>
      <trkpt lat="32.492899345234036" lon="-1.19598476216197">
        <ele>1188.8076171875</ele>
        <time>2011-04-19T08:07:22Z</time>
      </trkpt>
      <trkpt lat="32.492798259481788" lon="-1.196362199261785">
        <ele>1190.24951171875</ele>
        <time>2011-04-19T08:07:31Z</time>
      </trkpt>
      <trkpt lat="32.492609582841396" lon="-1.196749191731215">
        <ele>1191.69140625</ele>
        <time>2011-04-19T08:07:39Z</time>
      </trkpt>
      <trkpt lat="32.492396347224712" lon="-1.19754983112216">
        <ele>1192.172119140625</ele>
        <time>2011-04-19T08:07:50Z</time>
      </trkpt>
      <trkpt lat="32.492259051650763" lon="-1.198131199926138">
        <ele>1200.343505859375</ele>
        <time>2011-04-19T08:07:59Z</time>
      </trkpt>
      <trkpt lat="32.492158217355609" lon="-1.19833605363965">
        <ele>1205.14990234375</ele>
        <time>2011-04-19T08:08:02Z</time>
      </trkpt>
      <trkpt lat="32.491960991173983" lon="-1.199136525392532">
        <ele>1211.3984375</ele>
        <time>2011-04-19T08:08:12Z</time>
      </trkpt>
      <trkpt lat="32.491836016997695" lon="-1.199550591409206">
        <ele>1215.724609375</ele>
        <time>2011-04-19T08:08:17Z</time>
      </trkpt>
      <trkpt lat="32.491772649809718" lon="-1.199988126754761">
        <ele>1222.45361328125</ele>
        <time>2011-04-19T08:08:24Z</time>
      </trkpt>
      <trkpt lat="32.49169553630054" lon="-1.200331784784794">
        <ele>1226.779541015625</ele>
        <time>2011-04-19T08:08:31Z</time>
      </trkpt>
      <trkpt lat="32.491593863815069" lon="-1.200471762567759">
        <ele>1227.26025390625</ele>
        <time>2011-04-19T08:08:36Z</time>
      </trkpt>
      <trkpt lat="32.491309633478522" lon="-1.200940478593111">
        <ele>1225.33740234375</ele>
        <time>2011-04-19T08:08:45Z</time>
      </trkpt>
      <trkpt lat="32.491188766434789" lon="-1.20129369199276">
        <ele>1222.45361328125</ele>
        <time>2011-04-19T08:08:51Z</time>
      </trkpt>
      <trkpt lat="32.491185748949647" lon="-1.201771795749664">
        <ele>1221.01171875</ele>
        <time>2011-04-19T08:08:59Z</time>
      </trkpt>
      <trkpt lat="32.491102181375027" lon="-1.202006572857499">
        <ele>1219.56982421875</ele>
        <time>2011-04-19T08:09:06Z</time>
      </trkpt>
      <trkpt lat="32.49083261936903" lon="-1.202524658292532">
        <ele>1214.282470703125</ele>
        <time>2011-04-19T08:09:15Z</time>
      </trkpt>
      <trkpt lat="32.490650396794081" lon="-1.202880386263132">
        <ele>1209.956298828125</ele>
        <time>2011-04-19T08:09:23Z</time>
      </trkpt>
      <trkpt lat="32.490399945527315" lon="-1.203383216634393">
        <ele>1204.669189453125</ele>
        <time>2011-04-19T08:09:32Z</time>
      </trkpt>
      <trkpt lat="32.49029072932899" lon="-1.203567869961262">
        <ele>1201.3046875</ele>
        <time>2011-04-19T08:09:39Z</time>
      </trkpt>
      <trkpt lat="32.490187296643853" lon="-1.203600643202663">
        <ele>1176.791015625</ele>
        <time>2011-04-19T08:10:28Z</time>
      </trkpt>
      <trkpt lat="32.490089563652873" lon="-1.203685887157917">
        <ele>1175.82958984375</ele>
        <time>2011-04-19T08:10:33Z</time>
      </trkpt>
      <trkpt lat="32.489981185644865" lon="-1.203872468322516">
        <ele>1175.82958984375</ele>
        <time>2011-04-19T08:10:37Z</time>
      </trkpt>
      <trkpt lat="32.489930726587772" lon="-1.204073382541537">
        <ele>1176.791015625</ele>
        <time>2011-04-19T08:10:41Z</time>
      </trkpt>
      <trkpt lat="32.489915471524" lon="-1.204222328960896">
        <ele>1176.791015625</ele>
        <time>2011-04-19T08:10:44Z</time>
      </trkpt>
      <trkpt lat="32.489874484017491" lon="-1.204362893477082">
        <ele>1176.310302734375</ele>
        <time>2011-04-19T08:10:47Z</time>
      </trkpt>
      <trkpt lat="32.489847159013152" lon="-1.204725494608283">
        <ele>1172.94580078125</ele>
        <time>2011-04-19T08:10:54Z</time>
      </trkpt>
      <trkpt lat="32.48974003829062" lon="-1.205036463215947">
        <ele>1171.503662109375</ele>
        <time>2011-04-19T08:10:59Z</time>
      </trkpt>
      <trkpt lat="32.489462345838547" lon="-1.205825954675674">
        <ele>1168.13916015625</ele>
        <time>2011-04-19T08:11:09Z</time>
      </trkpt>
      <trkpt lat="32.489204769954085" lon="-1.206545457243919">
        <ele>1168.13916015625</ele>
        <time>2011-04-19T08:11:19Z</time>
      </trkpt>
      <trkpt lat="32.488826997578144" lon="-1.207272168248892">
        <ele>1166.216552734375</ele>
        <time>2011-04-19T08:11:30Z</time>
      </trkpt>
      <trkpt lat="32.488584760576487" lon="-1.207890417426825">
        <ele>1162.37109375</ele>
        <time>2011-04-19T08:11:41Z</time>
      </trkpt>
      <trkpt lat="32.488513179123402" lon="-1.208078255876899">
        <ele>1160.448486328125</ele>
        <time>2011-04-19T08:11:47Z</time>
      </trkpt>
      <trkpt lat="32.488399855792522" lon="-1.208264250308275">
        <ele>1159.4873046875</ele>
        <time>2011-04-19T08:11:51Z</time>
      </trkpt>
      <trkpt lat="32.488294243812561" lon="-1.208426440134645">
        <ele>1158.52587890625</ele>
        <time>2011-04-19T08:11:54Z</time>
      </trkpt>
      <trkpt lat="32.488155020400882" lon="-1.20856155641377">
        <ele>1158.04541015625</ele>
        <time>2011-04-19T08:11:57Z</time>
      </trkpt>
      <trkpt lat="32.487836759537458" lon="-1.20895148254931">
        <ele>1158.04541015625</ele>
        <time>2011-04-19T08:12:04Z</time>
      </trkpt>
      <trkpt lat="32.487584045156837" lon="-1.209504017606378">
        <ele>1154.6806640625</ele>
        <time>2011-04-19T08:12:12Z</time>
      </trkpt>
      <trkpt lat="32.487457478418946" lon="-1.209696466103196">
        <ele>1155.64208984375</ele>
        <time>2011-04-19T08:12:15Z</time>
      </trkpt>
      <trkpt lat="32.487256648018956" lon="-1.210302226245403">
        <ele>1157.083984375</ele>
        <time>2011-04-19T08:12:23Z</time>
      </trkpt>
      <trkpt lat="32.487153299152851" lon="-1.210932126268745">
        <ele>1157.083984375</ele>
        <time>2011-04-19T08:12:31Z</time>
      </trkpt>
      <trkpt lat="32.487123040482402" lon="-1.211385168135166">
        <ele>1157.564697265625</ele>
        <time>2011-04-19T08:12:37Z</time>
      </trkpt>
      <trkpt lat="32.487129159271717" lon="-1.211512824520469">
        <ele>1157.564697265625</ele>
        <time>2011-04-19T08:12:39Z</time>
      </trkpt>
      <trkpt lat="32.487005358561873" lon="-1.211911216378212">
        <ele>1156.603271484375</ele>
        <time>2011-04-19T08:12:47Z</time>
      </trkpt>
      <trkpt lat="32.486905697733164" lon="-1.212082793936133">
        <ele>1156.12255859375</ele>
        <time>2011-04-19T08:12:50Z</time>
      </trkpt>
      <trkpt lat="32.486845348030329" lon="-1.212319834157825">
        <ele>1155.64208984375</ele>
        <time>2011-04-19T08:12:54Z</time>
      </trkpt>
      <trkpt lat="32.486790865659714" lon="-1.21268754824996">
        <ele>1157.083984375</ele>
        <time>2011-04-19T08:13:02Z</time>
      </trkpt>
      <trkpt lat="32.486563045531511" lon="-1.213406966999173">
        <ele>1153.719482421875</ele>
        <time>2011-04-19T08:13:12Z</time>
      </trkpt>
      <trkpt lat="32.486428432166576" lon="-1.213735956698656">
        <ele>1150.83544921875</ele>
        <time>2011-04-19T08:13:19Z</time>
      </trkpt>
      <trkpt lat="32.48619943857193" lon="-1.214132672175765">
        <ele>1149.3935546875</ele>
        <time>2011-04-19T08:13:28Z</time>
      </trkpt>
      <trkpt lat="32.485977318137884" lon="-1.21471144258976">
        <ele>1148.43212890625</ele>
        <time>2011-04-19T08:13:36Z</time>
      </trkpt>
      <trkpt lat="32.485880088061094" lon="-1.214957367628813">
        <ele>1149.874267578125</ele>
        <time>2011-04-19T08:13:42Z</time>
      </trkpt>
      <trkpt lat="32.485667774453759" lon="-1.21557679027319">
        <ele>1146.989990234375</ele>
        <time>2011-04-19T08:13:51Z</time>
      </trkpt>
      <trkpt lat="32.485542548820376" lon="-1.216008877381682">
        <ele>1147.951416015625</ele>
        <time>2011-04-19T08:13:58Z</time>
      </trkpt>
      <trkpt lat="32.485209116712213" lon="-1.21667473576963">
        <ele>1147.951416015625</ele>
        <time>2011-04-19T08:14:08Z</time>
      </trkpt>
      <trkpt lat="32.484878618270159" lon="-1.217320645228028">
        <ele>1151.796875</ele>
        <time>2011-04-19T08:14:17Z</time>
      </trkpt>
      <trkpt lat="32.484768647700548" lon="-1.217726580798626">
        <ele>1150.35498046875</ele>
        <time>2011-04-19T08:14:23Z</time>
      </trkpt>
      <trkpt lat="32.484743921086192" lon="-1.21788902208209">
        <ele>1147.951416015625</ele>
        <time>2011-04-19T08:14:27Z</time>
      </trkpt>
      <trkpt lat="32.484642332419753" lon="-1.218354720622301">
        <ele>1144.106201171875</ele>
        <time>2011-04-19T08:14:36Z</time>
      </trkpt>
      <trkpt lat="32.484634285792708" lon="-1.218911027535796">
        <ele>1144.106201171875</ele>
        <time>2011-04-19T08:14:44Z</time>
      </trkpt>
      <trkpt lat="32.484435299411416" lon="-1.219753660261631">
        <ele>1140.260986328125</ele>
        <time>2011-04-19T08:14:55Z</time>
      </trkpt>
      <trkpt lat="32.484229188412428" lon="-1.220403341576457">
        <ele>1138.33837890625</ele>
        <time>2011-04-19T08:15:03Z</time>
      </trkpt>
      <trkpt lat="32.484180657193065" lon="-1.220548264682293">
        <ele>1138.33837890625</ele>
        <time>2011-04-19T08:15:05Z</time>
      </trkpt>
      <trkpt lat="32.483823336660862" lon="-1.221060985699296">
        <ele>1136.896240234375</ele>
        <time>2011-04-19T08:15:14Z</time>
      </trkpt>
      <trkpt lat="32.483435338363051" lon="-1.221482763066888">
        <ele>1138.33837890625</ele>
        <time>2011-04-19T08:15:22Z</time>
      </trkpt>
      <trkpt lat="32.483052453026175" lon="-1.222112830728293">
        <ele>1137.376953125</ele>
        <time>2011-04-19T08:15:31Z</time>
      </trkpt>
      <trkpt lat="32.482824381440878" lon="-1.222642818465829">
        <ele>1134.4931640625</ele>
        <time>2011-04-19T08:15:39Z</time>
      </trkpt>
      <trkpt lat="32.482603853568435" lon="-1.223120335489512">
        <ele>1132.570556640625</ele>
        <time>2011-04-19T08:15:46Z</time>
      </trkpt>
      <trkpt lat="32.482328340411186" lon="-1.223617466166616">
        <ele>1133.051025390625</ele>
        <time>2011-04-19T08:15:54Z</time>
      </trkpt>
      <trkpt lat="32.48210177756846" lon="-1.224122056737542">
        <ele>1130.647705078125</ele>
        <time>2011-04-19T08:16:03Z</time>
      </trkpt>
      <trkpt lat="32.481866497546434" lon="-1.224653134122491">
        <ele>1129.686279296875</ele>
        <time>2011-04-19T08:16:11Z</time>
      </trkpt>
      <trkpt lat="32.481726771220565" lon="-1.224936526268721">
        <ele>1129.686279296875</ele>
        <time>2011-04-19T08:16:16Z</time>
      </trkpt>
      <trkpt lat="32.481595175340772" lon="-1.225419072434306">
        <ele>1129.20556640625</ele>
        <time>2011-04-19T08:16:24Z</time>
      </trkpt>
      <trkpt lat="32.481467686593533" lon="-1.225867420434952">
        <ele>1129.686279296875</ele>
        <time>2011-04-19T08:16:34Z</time>
      </trkpt>
      <trkpt lat="32.481230478733778" lon="-1.226207977160811">
        <ele>1130.647705078125</ele>
        <time>2011-04-19T08:16:41Z</time>
      </trkpt>
      <trkpt lat="32.480930322781205" lon="-1.226909961551428">
        <ele>1131.12841796875</ele>
        <time>2011-04-19T08:16:53Z</time>
      </trkpt>
      <trkpt lat="32.480799062177539" lon="-1.227130070328713">
        <ele>1130.647705078125</ele>
        <time>2011-04-19T08:16:57Z</time>
      </trkpt>
      <trkpt lat="32.480718679726124" lon="-1.227382030338049">
        <ele>1128.72509765625</ele>
        <time>2011-04-19T08:17:04Z</time>
      </trkpt>
      <trkpt lat="32.48061147518456" lon="-1.227668188512325">
        <ele>1127.283203125</ele>
        <time>2011-04-19T08:17:11Z</time>
      </trkpt>
      <trkpt lat="32.480420870706439" lon="-1.227883687242866">
        <ele>1127.763671875</ele>
        <time>2011-04-19T08:17:17Z</time>
      </trkpt>
      <trkpt lat="32.480304278433323" lon="-1.22805442661047">
        <ele>1129.20556640625</ele>
        <time>2011-04-19T08:17:21Z</time>
      </trkpt>
      <trkpt lat="32.4800705909729" lon="-1.228578044101596">
        <ele>1131.12841796875</ele>
        <time>2011-04-19T08:17:30Z</time>
      </trkpt>
      <trkpt lat="32.479761382564902" lon="-1.228986158967018">
        <ele>1133.051025390625</ele>
        <time>2011-04-19T08:17:38Z</time>
      </trkpt>
      <trkpt lat="32.479551248252392" lon="-1.229227054864168">
        <ele>1130.647705078125</ele>
        <time>2011-04-19T08:17:45Z</time>
      </trkpt>
      <trkpt lat="32.479506740346551" lon="-1.229371055960655">
        <ele>1129.20556640625</ele>
        <time>2011-04-19T08:17:49Z</time>
      </trkpt>
      <trkpt lat="32.479458292946219" lon="-1.229720329865813">
        <ele>1125.3603515625</ele>
        <time>2011-04-19T08:17:56Z</time>
      </trkpt>
      <trkpt lat="32.479416634887457" lon="-1.230508731678128">
        <ele>1124.8798828125</ele>
        <time>2011-04-19T08:18:08Z</time>
      </trkpt>
      <trkpt lat="32.479325942695141" lon="-1.230968395248056">
        <ele>1121.03466796875</ele>
        <time>2011-04-19T08:18:19Z</time>
      </trkpt>
      <trkpt lat="32.479191748425364" lon="-1.231296379119158">
        <ele>1118.63134765625</ele>
        <time>2011-04-19T08:18:26Z</time>
      </trkpt>
      <trkpt lat="32.478970047086477" lon="-1.231570299714804">
        <ele>1116.708740234375</ele>
        <time>2011-04-19T08:18:33Z</time>
      </trkpt>
      <trkpt lat="32.478930233046412" lon="-1.231766855344176">
        <ele>1117.669921875</ele>
        <time>2011-04-19T08:18:37Z</time>
      </trkpt>
      <trkpt lat="32.478899974375963" lon="-1.232084026560187">
        <ele>1118.150634765625</ele>
        <time>2011-04-19T08:18:42Z</time>
      </trkpt>
      <trkpt lat="32.478595040738583" lon="-1.232770839706063">
        <ele>1120.553955078125</ele>
        <time>2011-04-19T08:18:53Z</time>
      </trkpt>
      <trkpt lat="32.478342158719897" lon="-1.233291942626238">
        <ele>1119.5927734375</ele>
        <time>2011-04-19T08:19:01Z</time>
      </trkpt>
      <trkpt lat="32.478067986667156" lon="-1.233504842966795">
        <ele>1118.63134765625</ele>
        <time>2011-04-19T08:19:06Z</time>
      </trkpt>
      <trkpt lat="32.477815439924598" lon="-1.233586566522718">
        <ele>1117.189453125</ele>
        <time>2011-04-19T08:19:10Z</time>
      </trkpt>
      <trkpt lat="32.477605137974024" lon="-1.233785888180137">
        <ele>1116.708740234375</ele>
        <time>2011-04-19T08:19:14Z</time>
      </trkpt>
      <trkpt lat="32.477239686995745" lon="-1.23428544960916">
        <ele>1114.785888671875</ele>
        <time>2011-04-19T08:19:23Z</time>
      </trkpt>
      <trkpt lat="32.477021170780063" lon="-1.234466666355729">
        <ele>1113.824462890625</ele>
        <time>2011-04-19T08:19:29Z</time>
      </trkpt>
      <trkpt lat="32.476789494976401" lon="-1.2349724303931">
        <ele>1117.669921875</ele>
        <time>2011-04-19T08:19:37Z</time>
      </trkpt>
      <trkpt lat="32.47671321965754" lon="-1.235315417870879">
        <ele>1117.189453125</ele>
        <time>2011-04-19T08:19:42Z</time>
      </trkpt>
      <trkpt lat="32.476612888276577" lon="-1.23568095266819">
        <ele>1115.747314453125</ele>
        <time>2011-04-19T08:19:47Z</time>
      </trkpt>
      <trkpt lat="32.476248862221837" lon="-1.236527943983674">
        <ele>1110.4599609375</ele>
        <time>2011-04-19T08:19:59Z</time>
      </trkpt>
      <trkpt lat="32.476153979077935" lon="-1.236866991966963">
        <ele>1109.498779296875</ele>
        <time>2011-04-19T08:20:06Z</time>
      </trkpt>
      <trkpt lat="32.476091869175434" lon="-1.237050639465451">
        <ele>1109.498779296875</ele>
        <time>2011-04-19T08:20:12Z</time>
      </trkpt>
      <trkpt lat="32.47580923140049" lon="-1.237551374360919">
        <ele>1107.095458984375</ele>
        <time>2011-04-19T08:20:20Z</time>
      </trkpt>
      <trkpt lat="32.475488036870956" lon="-1.238274648785591">
        <ele>1104.692138671875</ele>
        <time>2011-04-19T08:20:29Z</time>
      </trkpt>
      <trkpt lat="32.475237920880318" lon="-1.238708160817623">
        <ele>1103.73095703125</ele>
        <time>2011-04-19T08:20:35Z</time>
      </trkpt>
      <trkpt lat="32.474827878177166" lon="-1.239251894876361">
        <ele>1100.366455078125</ele>
        <time>2011-04-19T08:20:44Z</time>
      </trkpt>
      <trkpt lat="32.474733078852296" lon="-1.239397320896387">
        <ele>1098.443359375</ele>
        <time>2011-04-19T08:20:47Z</time>
      </trkpt>
      <trkpt lat="32.4746033269912" lon="-1.23952304944396">
        <ele>1097.00146484375</ele>
        <time>2011-04-19T08:20:51Z</time>
      </trkpt>
      <trkpt lat="32.474495954811573" lon="-1.239623464643955">
        <ele>1096.040283203125</ele>
        <time>2011-04-19T08:20:57Z</time>
      </trkpt>
      <trkpt lat="32.474106280133128" lon="-1.240056222304702">
        <ele>1101.808349609375</ele>
        <time>2011-04-19T08:21:08Z</time>
      </trkpt>
      <trkpt lat="32.473808135837317" lon="-1.240526949986816">
        <ele>1100.366455078125</ele>
        <time>2011-04-19T08:21:17Z</time>
      </trkpt>
      <trkpt lat="32.47340178117156" lon="-1.241007568314672">
        <ele>1098.443359375</ele>
        <time>2011-04-19T08:21:25Z</time>
      </trkpt>
      <trkpt lat="32.472879253327847" lon="-1.241585332900286">
        <ele>1094.59814453125</ele>
        <time>2011-04-19T08:21:35Z</time>
      </trkpt>
      <trkpt lat="32.472442388534546" lon="-1.242076177150011">
        <ele>1097.482177734375</ele>
        <time>2011-04-19T08:21:44Z</time>
      </trkpt>
      <trkpt lat="32.471879124641418" lon="-1.242767181247473">
        <ele>1103.73095703125</ele>
        <time>2011-04-19T08:21:56Z</time>
      </trkpt>
      <trkpt lat="32.471625069156289" lon="-1.243600258603692">
        <ele>1113.343994140625</ele>
        <time>2011-04-19T08:22:06Z</time>
      </trkpt>
      <trkpt lat="32.471114695072174" lon="-1.24438589438796">
        <ele>1120.553955078125</ele>
        <time>2011-04-19T08:22:16Z</time>
      </trkpt>
      <trkpt lat="32.470641117542982" lon="-1.245181588456035">
        <ele>1119.112060546875</ele>
        <time>2011-04-19T08:22:25Z</time>
      </trkpt>
      <trkpt lat="32.470321850851178" lon="-1.245909053832293">
        <ele>1117.669921875</ele>
        <time>2011-04-19T08:22:33Z</time>
      </trkpt>
      <trkpt lat="32.469957321882248" lon="-1.246701730415225">
        <ele>1115.2666015625</ele>
        <time>2011-04-19T08:22:42Z</time>
      </trkpt>
      <trkpt lat="32.46959388256073" lon="-1.247917776927352">
        <ele>1114.785888671875</ele>
        <time>2011-04-19T08:22:55Z</time>
      </trkpt>
      <trkpt lat="32.469520624727011" lon="-1.248169569298625">
        <ele>1114.785888671875</ele>
        <time>2011-04-19T08:22:58Z</time>
      </trkpt>
      <trkpt lat="32.46910622343421" lon="-1.248845737427473">
        <ele>1113.343994140625</ele>
        <time>2011-04-19T08:23:07Z</time>
      </trkpt>
      <trkpt lat="32.468694839626551" lon="-1.249509248882532">
        <ele>1108.537353515625</ele>
        <time>2011-04-19T08:23:17Z</time>
      </trkpt>
      <trkpt lat="32.468420248478651" lon="-1.250039571896195">
        <ele>1109.01806640625</ele>
        <time>2011-04-19T08:23:26Z</time>
      </trkpt>
      <trkpt lat="32.468070471659303" lon="-1.250783130526543">
        <ele>1109.498779296875</ele>
        <time>2011-04-19T08:23:37Z</time>
      </trkpt>
      <trkpt lat="32.468027556315064" lon="-1.25094716437161">
        <ele>1109.01806640625</ele>
        <time>2011-04-19T08:23:43Z</time>
      </trkpt>
      <trkpt lat="32.46795404702425" lon="-1.251032995060086">
        <ele>1110.4599609375</ele>
        <time>2011-04-19T08:24:13Z</time>
      </trkpt>
      <trkpt lat="32.467683730646968" lon="-1.251403475180268">
        <ele>1109.01806640625</ele>
        <time>2011-04-19T08:24:21Z</time>
      </trkpt>
      <trkpt lat="32.467246362939477" lon="-1.251962464302778">
        <ele>1107.576171875</ele>
        <time>2011-04-19T08:24:30Z</time>
      </trkpt>
      <trkpt lat="32.466743784025311" lon="-1.252495218068361">
        <ele>1103.250244140625</ele>
        <time>2011-04-19T08:24:40Z</time>
      </trkpt>
      <trkpt lat="32.466619480401278" lon="-1.252583730965853">
        <ele>1102.288818359375</ele>
        <time>2011-04-19T08:24:42Z</time>
      </trkpt>
      <trkpt lat="32.466180268675089" lon="-1.252797469496727">
        <ele>1098.443359375</ele>
        <time>2011-04-19T08:24:48Z</time>
      </trkpt>
      <trkpt lat="32.465740386396646" lon="-1.253216397017241">
        <ele>1097.00146484375</ele>
        <time>2011-04-19T08:24:55Z</time>
      </trkpt>
      <trkpt lat="32.464942261576653" lon="-1.253968253731728">
        <ele>1091.71435546875</ele>
        <time>2011-04-19T08:25:06Z</time>
      </trkpt>
      <trkpt lat="32.464662892743945" lon="-1.254232786595821">
        <ele>1089.791748046875</ele>
        <time>2011-04-19T08:25:10Z</time>
      </trkpt>
      <trkpt lat="32.464368771761656" lon="-1.254422217607498">
        <ele>1088.83056640625</ele>
        <time>2011-04-19T08:25:14Z</time>
      </trkpt>
      <trkpt lat="32.463602498173714" lon="-1.25514448620379">
        <ele>1084.02392578125</ele>
        <time>2011-04-19T08:25:24Z</time>
      </trkpt>
      <trkpt lat="32.463244842365384" lon="-1.255435086786747">
        <ele>1082.10107421875</ele>
        <time>2011-04-19T08:25:28Z</time>
      </trkpt>
      <trkpt lat="32.462611757218838" lon="-1.25602743588388">
        <ele>1078.736572265625</ele>
        <time>2011-04-19T08:25:36Z</time>
      </trkpt>
      <trkpt lat="32.462468259036541" lon="-1.256155343726277">
        <ele>1077.775146484375</ele>
        <time>2011-04-19T08:25:38Z</time>
      </trkpt>
      <trkpt lat="32.462145555764437" lon="-1.256074961274862">
        <ele>1078.255859375</ele>
        <time>2011-04-19T08:25:43Z</time>
      </trkpt>
      <trkpt lat="32.46182075701654" lon="-1.256065825000405">
        <ele>1079.217041015625</ele>
        <time>2011-04-19T08:25:47Z</time>
      </trkpt>
      <trkpt lat="32.461253888905048" lon="-1.256080996245146">
        <ele>1082.581787109375</ele>
        <time>2011-04-19T08:25:53Z</time>
      </trkpt>
      <trkpt lat="32.461064122617245" lon="-1.255958117544651">
        <ele>1085.946533203125</ele>
        <time>2011-04-19T08:25:57Z</time>
      </trkpt>
      <trkpt lat="32.461150791496038" lon="-1.255760556086898">
        <ele>1087.869140625</ele>
        <time>2011-04-19T08:26:00Z</time>
      </trkpt>
      <trkpt lat="32.461414989084005" lon="-1.255092853680253">
        <ele>1095.5595703125</ele>
        <time>2011-04-19T08:26:07Z</time>
      </trkpt>
      <trkpt lat="32.461509285494685" lon="-1.254624472931027">
        <ele>1098.924072265625</ele>
        <time>2011-04-19T08:26:12Z</time>
      </trkpt>
      <trkpt lat="32.461428567767143" lon="-1.254130695015192">
        <ele>1098.924072265625</ele>
        <time>2011-04-19T08:26:18Z</time>
      </trkpt>
      <trkpt lat="32.461226144805551" lon="-1.253871275112033">
        <ele>1099.885498046875</ele>
        <time>2011-04-19T08:26:22Z</time>
      </trkpt>
      <trkpt lat="32.461016597226262" lon="-1.253706151619554">
        <ele>1101.808349609375</ele>
        <time>2011-04-19T08:26:25Z</time>
      </trkpt>
      <trkpt lat="32.460662797093391" lon="-1.25360288657248">
        <ele>1102.288818359375</ele>
        <time>2011-04-19T08:26:30Z</time>
      </trkpt>
      <trkpt lat="32.460193242877722" lon="-1.253679664805532">
        <ele>1101.808349609375</ele>
        <time>2011-04-19T08:26:37Z</time>
      </trkpt>
      <trkpt lat="32.460092073306441" lon="-1.253851493820548">
        <ele>1101.808349609375</ele>
        <time>2011-04-19T08:26:39Z</time>
      </trkpt>
      <trkpt lat="32.459834162145853" lon="-1.254224572330713">
        <ele>1099.40478515625</ele>
        <time>2011-04-19T08:26:43Z</time>
      </trkpt>
      <trkpt lat="32.459088340401649" lon="-1.254815999418497">
        <ele>1094.59814453125</ele>
        <time>2011-04-19T08:26:51Z</time>
      </trkpt>
      <trkpt lat="32.458904357627034" lon="-1.254945835098624">
        <ele>1093.15625</ele>
        <time>2011-04-19T08:26:53Z</time>
      </trkpt>
      <trkpt lat="32.458635466173291" lon="-1.255044993013144">
        <ele>1091.233642578125</ele>
        <time>2011-04-19T08:26:56Z</time>
      </trkpt>
      <trkpt lat="32.458101538941264" lon="-1.25523685477674">
        <ele>1088.349853515625</ele>
        <time>2011-04-19T08:27:02Z</time>
      </trkpt>
      <trkpt lat="32.457936750724912" lon="-1.255253534764051">
        <ele>1086.90771484375</ele>
        <time>2011-04-19T08:27:04Z</time>
      </trkpt>
      <trkpt lat="32.457416234537959" lon="-1.255396949127317">
        <ele>1081.139892578125</ele>
        <time>2011-04-19T08:27:10Z</time>
      </trkpt>
      <trkpt lat="32.457154551520944" lon="-1.255377838388085">
        <ele>1079.69775390625</ele>
        <time>2011-04-19T08:27:13Z</time>
      </trkpt>
      <trkpt lat="32.456853557378054" lon="-1.255397284403443">
        <ele>1077.775146484375</ele>
        <time>2011-04-19T08:27:17Z</time>
      </trkpt>
      <trkpt lat="32.456654570996761" lon="-1.255446653813124">
        <ele>1074.891357421875</ele>
        <time>2011-04-19T08:27:20Z</time>
      </trkpt>
      <trkpt lat="32.456094827502966" lon="-1.255474230274558">
        <ele>1076.333251953125</ele>
        <time>2011-04-19T08:27:28Z</time>
      </trkpt>
      <trkpt lat="32.455910760909319" lon="-1.255530556663871">
        <ele>1076.333251953125</ele>
        <time>2011-04-19T08:27:31Z</time>
      </trkpt>
      <trkpt lat="32.455489234998822" lon="-1.255478672683239">
        <ele>1075.371826171875</ele>
        <time>2011-04-19T08:27:38Z</time>
      </trkpt>
      <trkpt lat="32.455351687967777" lon="-1.255451934412122">
        <ele>1075.371826171875</ele>
        <time>2011-04-19T08:27:40Z</time>
      </trkpt>
      <trkpt lat="32.454925468191504" lon="-1.255513625219464">
        <ele>1074.41064453125</ele>
        <time>2011-04-19T08:27:47Z</time>
      </trkpt>
      <trkpt lat="32.454719776287675" lon="-1.255494263023138">
        <ele>1074.891357421875</ele>
        <time>2011-04-19T08:27:50Z</time>
      </trkpt>
      <trkpt lat="32.454544762149453" lon="-1.25566978007555">
        <ele>1075.8525390625</ele>
        <time>2011-04-19T08:27:56Z</time>
      </trkpt>
      <trkpt lat="32.454610057175159" lon="-1.255985358729959">
        <ele>1078.736572265625</ele>
        <time>2011-04-19T08:28:01Z</time>
      </trkpt>
      <trkpt lat="32.454621875658631" lon="-1.25623413361609">
        <ele>1080.6591796875</ele>
        <time>2011-04-19T08:28:04Z</time>
      </trkpt>
      <trkpt lat="32.454690523445606" lon="-1.256815921515226">
        <ele>1082.581787109375</ele>
        <time>2011-04-19T08:28:11Z</time>
      </trkpt>
      <trkpt lat="32.454329431056976" lon="-1.258249478414655">
        <ele>1079.69775390625</ele>
        <time>2011-04-19T08:28:24Z</time>
      </trkpt>
      <trkpt lat="32.453964985907078" lon="-1.258930256590247">
        <ele>1084.02392578125</ele>
        <time>2011-04-19T08:28:32Z</time>
      </trkpt>
      <trkpt lat="32.453788965940475" lon="-1.259259833022952">
        <ele>1085.946533203125</ele>
        <time>2011-04-19T08:28:36Z</time>
      </trkpt>
      <trkpt lat="32.45362794958055" lon="-1.259479271247983">
        <ele>1085.946533203125</ele>
        <time>2011-04-19T08:28:39Z</time>
      </trkpt>
      <trkpt lat="32.453494258224964" lon="-1.260058460757136">
        <ele>1089.791748046875</ele>
        <time>2011-04-19T08:28:45Z</time>
      </trkpt>
      <trkpt lat="32.453240035101771" lon="-1.260507144033909">
        <ele>1089.31103515625</ele>
        <time>2011-04-19T08:28:51Z</time>
      </trkpt>
      <trkpt lat="32.453102068975568" lon="-1.260645026341081">
        <ele>1088.83056640625</ele>
        <time>2011-04-19T08:28:53Z</time>
      </trkpt>
      <trkpt lat="32.452700324356556" lon="-1.261459244415164">
        <ele>1089.791748046875</ele>
        <time>2011-04-19T08:29:01Z</time>
      </trkpt>
      <trkpt lat="32.4523457698524" lon="-1.26215829513967">
        <ele>1092.195068359375</ele>
        <time>2011-04-19T08:29:07Z</time>
      </trkpt>
      <trkpt lat="32.452264465391636" lon="-1.262344960123301">
        <ele>1092.195068359375</ele>
        <time>2011-04-19T08:29:09Z</time>
      </trkpt>
      <trkpt lat="32.451985599473119" lon="-1.262804372236133">
        <ele>1093.636962890625</ele>
        <time>2011-04-19T08:29:14Z</time>
      </trkpt>
      <trkpt lat="32.451748643070459" lon="-1.26354206353426">
        <ele>1097.00146484375</ele>
        <time>2011-04-19T08:29:22Z</time>
      </trkpt>
      <trkpt lat="32.451424263417721" lon="-1.264027040451765">
        <ele>1097.482177734375</ele>
        <time>2011-04-19T08:29:29Z</time>
      </trkpt>
      <trkpt lat="32.451114384457469" lon="-1.264684181660414">
        <ele>1099.885498046875</ele>
        <time>2011-04-19T08:29:37Z</time>
      </trkpt>
      <trkpt lat="32.450660839676857" lon="-1.265577776357532">
        <ele>1101.32763671875</ele>
        <time>2011-04-19T08:29:47Z</time>
      </trkpt>
      <trkpt lat="32.450239146128297" lon="-1.266469862312079">
        <ele>1101.808349609375</ele>
        <time>2011-04-19T08:29:56Z</time>
      </trkpt>
      <trkpt lat="32.449823822826147" lon="-1.267186431214213">
        <ele>1101.808349609375</ele>
        <time>2011-04-19T08:30:04Z</time>
      </trkpt>
      <trkpt lat="32.449494246393442" lon="-1.267997045069933">
        <ele>1099.885498046875</ele>
        <time>2011-04-19T08:30:12Z</time>
      </trkpt>
      <trkpt lat="32.449074061587453" lon="-1.268963143229485">
        <ele>1097.00146484375</ele>
        <time>2011-04-19T08:30:21Z</time>
      </trkpt>
      <trkpt lat="32.44901429861784" lon="-1.269176378846169">
        <ele>1096.52099609375</ele>
        <time>2011-04-19T08:30:23Z</time>
      </trkpt>
      <trkpt lat="32.448886139318347" lon="-1.26947402022779">
        <ele>1096.040283203125</ele>
        <time>2011-04-19T08:30:26Z</time>
      </trkpt>
      <trkpt lat="32.448758985847235" lon="-1.269935192540288">
        <ele>1094.59814453125</ele>
        <time>2011-04-19T08:30:31Z</time>
      </trkpt>
      <trkpt lat="32.448470899835229" lon="-1.27050013281405">
        <ele>1094.59814453125</ele>
        <time>2011-04-19T08:30:37Z</time>
      </trkpt>
      <trkpt lat="32.448309799656272" lon="-1.271054595708847">
        <ele>1091.71435546875</ele>
        <time>2011-04-19T08:30:43Z</time>
      </trkpt>
      <trkpt lat="32.447829516604543" lon="-1.271936958655715">
        <ele>1091.71435546875</ele>
        <time>2011-04-19T08:30:53Z</time>
      </trkpt>
      <trkpt lat="32.447717199102044" lon="-1.272094286978245">
        <ele>1091.71435546875</ele>
        <time>2011-04-19T08:30:55Z</time>
      </trkpt>
      <trkpt lat="32.447533719241619" lon="-1.27258513122797">
        <ele>1091.233642578125</ele>
        <time>2011-04-19T08:31:00Z</time>
      </trkpt>
      <trkpt lat="32.447027368471026" lon="-1.273484760895371">
        <ele>1089.791748046875</ele>
        <time>2011-04-19T08:31:09Z</time>
      </trkpt>
      <trkpt lat="32.446646830067039" lon="-1.27387166954577">
        <ele>1089.31103515625</ele>
        <time>2011-04-19T08:31:14Z</time>
      </trkpt>
      <trkpt lat="32.446328150108457" lon="-1.274444656446576">
        <ele>1089.791748046875</ele>
        <time>2011-04-19T08:31:20Z</time>
      </trkpt>
      <trkpt lat="32.445972757413983" lon="-1.275295168161392">
        <ele>1087.869140625</ele>
        <time>2011-04-19T08:31:28Z</time>
      </trkpt>
      <trkpt lat="32.445469591766596" lon="-1.275933869183064">
        <ele>1085.946533203125</ele>
        <time>2011-04-19T08:31:35Z</time>
      </trkpt>
      <trkpt lat="32.444772385060787" lon="-1.276614060625434">
        <ele>1085.4658203125</ele>
        <time>2011-04-19T08:31:43Z</time>
      </trkpt>
      <trkpt lat="32.444091271609068" lon="-1.277467422187328">
        <ele>1083.062255859375</ele>
        <time>2011-04-19T08:31:52Z</time>
      </trkpt>
      <trkpt lat="32.443290883675218" lon="-1.278714817017317">
        <ele>1082.10107421875</ele>
        <time>2011-04-19T08:32:03Z</time>
      </trkpt>
      <trkpt lat="32.442313218489289" lon="-1.279968330636621">
        <ele>1082.10107421875</ele>
        <time>2011-04-19T08:32:15Z</time>
      </trkpt>
      <trkpt lat="32.441807454451919" lon="-1.280878186225891">
        <ele>1081.139892578125</ele>
        <time>2011-04-19T08:32:23Z</time>
      </trkpt>
      <trkpt lat="32.441171687096357" lon="-1.28210118971765">
        <ele>1080.6591796875</ele>
        <time>2011-04-19T08:32:33Z</time>
      </trkpt>
      <trkpt lat="32.440670784562826" lon="-1.282987156882882">
        <ele>1080.6591796875</ele>
        <time>2011-04-19T08:32:41Z</time>
      </trkpt>
      <trkpt lat="32.440330479294062" lon="-1.283675897866488">
        <ele>1080.178466796875</ele>
        <time>2011-04-19T08:32:47Z</time>
      </trkpt>
      <trkpt lat="32.439929489046335" lon="-1.284243520349264">
        <ele>1080.6591796875</ele>
        <time>2011-04-19T08:32:53Z</time>
      </trkpt>
      <trkpt lat="32.439509555697441" lon="-1.284392634406686">
        <ele>1080.6591796875</ele>
        <time>2011-04-19T08:32:58Z</time>
      </trkpt>
      <trkpt lat="32.439094316214323" lon="-1.284539569169283">
        <ele>1078.255859375</ele>
        <time>2011-04-19T08:33:03Z</time>
      </trkpt>
      <trkpt lat="32.438970096409321" lon="-1.284736962988973">
        <ele>1077.775146484375</ele>
        <time>2011-04-19T08:33:05Z</time>
      </trkpt>
      <trkpt lat="32.438748646527529" lon="-1.285175168886781">
        <ele>1075.8525390625</ele>
        <time>2011-04-19T08:33:09Z</time>
      </trkpt>
      <trkpt lat="32.438342124223709" lon="-1.28577807918191">
        <ele>1072.488037109375</ele>
        <time>2011-04-19T08:33:15Z</time>
      </trkpt>
      <trkpt lat="32.438130732625723" lon="-1.286227768287063">
        <ele>1071.046142578125</ele>
        <time>2011-04-19T08:33:19Z</time>
      </trkpt>
      <trkpt lat="32.437434028834105" lon="-1.287467367947102">
        <ele>1069.12353515625</ele>
        <time>2011-04-19T08:33:30Z</time>
      </trkpt>
      <trkpt lat="32.436798429116607" lon="-1.288426928222179">
        <ele>1069.12353515625</ele>
        <time>2011-04-19T08:33:39Z</time>
      </trkpt>
      <trkpt lat="32.436574967578053" lon="-1.288716942071915">
        <ele>1068.162109375</ele>
        <time>2011-04-19T08:33:42Z</time>
      </trkpt>
      <trkpt lat="32.436413364484906" lon="-1.289239721372724">
        <ele>1066.719970703125</ele>
        <time>2011-04-19T08:33:47Z</time>
      </trkpt>
      <trkpt lat="32.436349829658866" lon="-1.289805918931961">
        <ele>1068.642822265625</ele>
        <time>2011-04-19T08:33:53Z</time>
      </trkpt>
      <trkpt lat="32.435968453064561" lon="-1.290631955489516">
        <ele>1067.68115234375</ele>
        <time>2011-04-19T08:34:01Z</time>
      </trkpt>
      <trkpt lat="32.435899889096618" lon="-1.291226148605347">
        <ele>1067.20068359375</ele>
        <time>2011-04-19T08:34:06Z</time>
      </trkpt>
      <trkpt lat="32.435997035354376" lon="-1.292100884020329">
        <ele>1069.12353515625</ele>
        <time>2011-04-19T08:34:13Z</time>
      </trkpt>
      <trkpt lat="32.435736190527678" lon="-1.292831869795919">
        <ele>1065.7587890625</ele>
        <time>2011-04-19T08:34:20Z</time>
      </trkpt>
      <trkpt lat="32.435701321810484" lon="-1.292952485382557">
        <ele>1065.278076171875</ele>
        <time>2011-04-19T08:34:24Z</time>
      </trkpt>
      <trkpt lat="32.435659999027848" lon="-1.293085422366858">
        <ele>1064.79736328125</ele>
        <time>2011-04-19T08:34:37Z</time>
      </trkpt>
      <trkpt lat="32.435597386211157" lon="-1.293237889185548">
        <ele>1064.316650390625</ele>
        <time>2011-04-19T08:34:40Z</time>
      </trkpt>
      <trkpt lat="32.435273928567767" lon="-1.29364843480289">
        <ele>1063.8359375</ele>
        <time>2011-04-19T08:34:47Z</time>
      </trkpt>
      <trkpt lat="32.435246771201491" lon="-1.293852534145117">
        <ele>1064.79736328125</ele>
        <time>2011-04-19T08:34:51Z</time>
      </trkpt>
      <trkpt lat="32.435402255505323" lon="-1.294057555496693">
        <ele>1065.278076171875</ele>
        <time>2011-04-19T08:34:57Z</time>
      </trkpt>
      <trkpt lat="32.435353891924024" lon="-1.29445712082088">
        <ele>1068.162109375</ele>
        <time>2011-04-19T08:35:03Z</time>
      </trkpt>
      <trkpt lat="32.435257667675614" lon="-1.294576479122043">
        <ele>1069.604248046875</ele>
        <time>2011-04-19T08:35:05Z</time>
      </trkpt>
      <trkpt lat="32.43476933799684" lon="-1.295261699706316">
        <ele>1071.046142578125</ele>
        <time>2011-04-19T08:35:13Z</time>
      </trkpt>
      <trkpt lat="32.434288552030921" lon="-1.295881289988756">
        <ele>1072.96875</ele>
        <time>2011-04-19T08:35:19Z</time>
      </trkpt>
      <trkpt lat="32.43388588540256" lon="-1.296261996030808">
        <ele>1070.5654296875</ele>
        <time>2011-04-19T08:35:23Z</time>
      </trkpt>
      <trkpt lat="32.433106284588575" lon="-1.297246953472495">
        <ele>1074.891357421875</ele>
        <time>2011-04-19T08:35:32Z</time>
      </trkpt>
      <trkpt lat="32.432578140869737" lon="-1.297969054430723">
        <ele>1078.255859375</ele>
        <time>2011-04-19T08:35:39Z</time>
      </trkpt>
      <trkpt lat="32.432097773998976" lon="-1.298262588679791">
        <ele>1077.294677734375</ele>
        <time>2011-04-19T08:35:44Z</time>
      </trkpt>
      <trkpt lat="32.431532498449087" lon="-1.298561152070761">
        <ele>1077.294677734375</ele>
        <time>2011-04-19T08:35:49Z</time>
      </trkpt>
      <trkpt lat="32.430974934250116" lon="-1.299311332404614">
        <ele>1077.775146484375</ele>
        <time>2011-04-19T08:35:56Z</time>
      </trkpt>
      <trkpt lat="32.430314524099231" lon="-1.300586387515068">
        <ele>1079.69775390625</ele>
        <time>2011-04-19T08:36:06Z</time>
      </trkpt>
      <trkpt lat="32.429607845842838" lon="-1.30138736218214">
        <ele>1080.178466796875</ele>
        <time>2011-04-19T08:36:14Z</time>
      </trkpt>
      <trkpt lat="32.428577290847898" lon="-1.302300319075584">
        <ele>1074.41064453125</ele>
        <time>2011-04-19T08:36:24Z</time>
      </trkpt>
      <trkpt lat="32.427686881273985" lon="-1.302910940721631">
        <ele>1071.526611328125</ele>
        <time>2011-04-19T08:36:32Z</time>
      </trkpt>
      <trkpt lat="32.426869561895728" lon="-1.303588533774018">
        <ele>1067.20068359375</ele>
        <time>2011-04-19T08:36:40Z</time>
      </trkpt>
      <trkpt lat="32.426100773736835" lon="-1.304067140445113">
        <ele>1063.8359375</ele>
        <time>2011-04-19T08:36:47Z</time>
      </trkpt>
      <trkpt lat="32.425513956695795" lon="-1.304387580603361">
        <ele>1061.91357421875</ele>
        <time>2011-04-19T08:36:54Z</time>
      </trkpt>
      <trkpt lat="32.424678448587656" lon="-1.304684635251761">
        <ele>1060.9521484375</ele>
        <time>2011-04-19T08:37:04Z</time>
      </trkpt>
      <trkpt lat="32.424285169690847" lon="-1.304783541709185">
        <ele>1060.9521484375</ele>
        <time>2011-04-19T08:37:08Z</time>
      </trkpt>
      <trkpt lat="32.423713356256485" lon="-1.30506475456059">
        <ele>1059.99072265625</ele>
        <time>2011-04-19T08:37:14Z</time>
      </trkpt>
      <trkpt lat="32.423528870567679" lon="-1.305168773978949">
        <ele>1060.9521484375</ele>
        <time>2011-04-19T08:37:16Z</time>
      </trkpt>
      <trkpt lat="32.422948088496923" lon="-1.305348984897137">
        <ele>1060.471435546875</ele>
        <time>2011-04-19T08:37:22Z</time>
      </trkpt>
      <trkpt lat="32.422459842637181" lon="-1.305229878053069">
        <ele>1058.548828125</ele>
        <time>2011-04-19T08:37:27Z</time>
      </trkpt>
      <trkpt lat="32.422280889004469" lon="-1.305086798965931">
        <ele>1058.068359375</ele>
        <time>2011-04-19T08:37:29Z</time>
      </trkpt>
      <trkpt lat="32.421833546832204" lon="-1.304891835898161">
        <ele>1059.029541015625</ele>
        <time>2011-04-19T08:37:35Z</time>
      </trkpt>
      <trkpt lat="32.421570522710681" lon="-1.304979426786304">
        <ele>1058.548828125</ele>
        <time>2011-04-19T08:37:39Z</time>
      </trkpt>
      <trkpt lat="32.420801147818565" lon="-1.304951263591647">
        <ele>1057.587646484375</ele>
        <time>2011-04-19T08:37:48Z</time>
      </trkpt>
      <trkpt lat="32.419874696061015" lon="-1.305005745962262">
        <ele>1057.10693359375</ele>
        <time>2011-04-19T08:37:57Z</time>
      </trkpt>
      <trkpt lat="32.419080175459385" lon="-1.305303052067757">
        <ele>1055.6650390625</ele>
        <time>2011-04-19T08:38:05Z</time>
      </trkpt>
      <trkpt lat="32.418334940448403" lon="-1.305577224120498">
        <ele>1054.22314453125</ele>
        <time>2011-04-19T08:38:13Z</time>
      </trkpt>
      <trkpt lat="32.417692383751273" lon="-1.30599464289844">
        <ele>1052.781005859375</ele>
        <time>2011-04-19T08:38:20Z</time>
      </trkpt>
      <trkpt lat="32.417298182845116" lon="-1.306361267343164">
        <ele>1050.858154296875</ele>
        <time>2011-04-19T08:38:25Z</time>
      </trkpt>
      <trkpt lat="32.416977575048804" lon="-1.306765945628285">
        <ele>1049.89697265625</ele>
        <time>2011-04-19T08:38:30Z</time>
      </trkpt>
      <trkpt lat="32.416183054447174" lon="-1.307489890605211">
        <ele>1048.935546875</ele>
        <time>2011-04-19T08:38:39Z</time>
      </trkpt>
      <trkpt lat="32.415494062006474" lon="-1.308147199451923">
        <ele>1046.532470703125</ele>
        <time>2011-04-19T08:38:47Z</time>
      </trkpt>
      <trkpt lat="32.414823258295655" lon="-1.308422880247235">
        <ele>1046.0517578125</ele>
        <time>2011-04-19T08:38:53Z</time>
      </trkpt>
      <trkpt lat="32.41401725448668" lon="-1.308420449495316">
        <ele>1045.09033203125</ele>
        <time>2011-04-19T08:39:00Z</time>
      </trkpt>
      <trkpt lat="32.413551975041628" lon="-1.308623878285289">
        <ele>1045.09033203125</ele>
        <time>2011-04-19T08:39:05Z</time>
      </trkpt>
      <trkpt lat="32.413246454671025" lon="-1.309072645381093">
        <ele>1047.012939453125</ele>
        <time>2011-04-19T08:39:10Z</time>
      </trkpt>
      <trkpt lat="32.412961972877383" lon="-1.309471037238836">
        <ele>1047.49365234375</ele>
        <time>2011-04-19T08:39:15Z</time>
      </trkpt>
      <trkpt lat="32.412752173841" lon="-1.309929862618446">
        <ele>1047.974365234375</ele>
        <time>2011-04-19T08:39:20Z</time>
      </trkpt>
      <trkpt lat="32.412214893847704" lon="-1.310899062082171">
        <ele>1049.89697265625</ele>
        <time>2011-04-19T08:39:30Z</time>
      </trkpt>
      <trkpt lat="32.411988163366914" lon="-1.311542959883809">
        <ele>1051.3388671875</ele>
        <time>2011-04-19T08:39:36Z</time>
      </trkpt>
      <trkpt lat="32.411637464538217" lon="-1.312108319252729">
        <ele>1052.781005859375</ele>
        <time>2011-04-19T08:39:43Z</time>
      </trkpt>
      <trkpt lat="32.411506958305836" lon="-1.312299678102136">
        <ele>1053.26171875</ele>
        <time>2011-04-19T08:39:45Z</time>
      </trkpt>
      <trkpt lat="32.411042684689164" lon="-1.312599247321487">
        <ele>1054.70361328125</ele>
        <time>2011-04-19T08:39:50Z</time>
      </trkpt>
      <trkpt lat="32.410541698336601" lon="-1.312781134620309">
        <ele>1056.1455078125</ele>
        <time>2011-04-19T08:39:56Z</time>
      </trkpt>
      <trkpt lat="32.409835355356336" lon="-1.313036950305104">
        <ele>1058.068359375</ele>
        <time>2011-04-19T08:40:06Z</time>
      </trkpt>
      <trkpt lat="32.408928768709302" lon="-1.313262842595577">
        <ele>1055.184326171875</ele>
        <time>2011-04-19T08:40:17Z</time>
      </trkpt>
      <trkpt lat="32.408674629405141" lon="-1.313334424048662">
        <ele>1054.70361328125</ele>
        <time>2011-04-19T08:40:20Z</time>
      </trkpt>
      <trkpt lat="32.408313117921352" lon="-1.313317744061351">
        <ele>1054.70361328125</ele>
        <time>2011-04-19T08:40:24Z</time>
      </trkpt>
      <trkpt lat="32.408082950860262" lon="-1.313353283330798">
        <ele>1055.184326171875</ele>
        <time>2011-04-19T08:40:27Z</time>
      </trkpt>
      <trkpt lat="32.407689588144422" lon="-1.313322354108095">
        <ele>1055.184326171875</ele>
        <time>2011-04-19T08:40:32Z</time>
      </trkpt>
      <trkpt lat="32.407348193228245" lon="-1.313141891732812">
        <ele>1054.70361328125</ele>
        <time>2011-04-19T08:40:37Z</time>
      </trkpt>
      <trkpt lat="32.407070249319077" lon="-1.313132336363196">
        <ele>1054.22314453125</ele>
        <time>2011-04-19T08:40:41Z</time>
      </trkpt>
      <trkpt lat="32.406586278229952" lon="-1.313182543963194">
        <ele>1052.781005859375</ele>
        <time>2011-04-19T08:40:47Z</time>
      </trkpt>
      <trkpt lat="32.406026283279061" lon="-1.313534080982208">
        <ele>1049.416259765625</ele>
        <time>2011-04-19T08:40:54Z</time>
      </trkpt>
      <trkpt lat="32.405185494571924" lon="-1.314088627696037">
        <ele>1046.532470703125</ele>
        <time>2011-04-19T08:41:03Z</time>
      </trkpt>
      <trkpt lat="32.405096143484116" lon="-1.314143529161811">
        <ele>1046.0517578125</ele>
        <time>2011-04-19T08:41:04Z</time>
      </trkpt>
      <trkpt lat="32.404609322547913" lon="-1.31455248221755">
        <ele>1045.09033203125</ele>
        <time>2011-04-19T08:41:10Z</time>
      </trkpt>
      <trkpt lat="32.404070533812046" lon="-1.314732860773802">
        <ele>1045.571044921875</ele>
        <time>2011-04-19T08:41:16Z</time>
      </trkpt>
      <trkpt lat="32.402917016297579" lon="-1.315214820206165">
        <ele>1045.09033203125</ele>
        <time>2011-04-19T08:41:28Z</time>
      </trkpt>
      <trkpt lat="32.402533544227481" lon="-1.31554439663887">
        <ele>1043.167724609375</ele>
        <time>2011-04-19T08:41:33Z</time>
      </trkpt>
      <trkpt lat="32.402120567858219" lon="-1.315818568691611">
        <ele>1042.20654296875</ele>
        <time>2011-04-19T08:41:38Z</time>
      </trkpt>
      <trkpt lat="32.401982937008142" lon="-1.316123753786087">
        <ele>1041.2451171875</ele>
        <time>2011-04-19T08:41:42Z</time>
      </trkpt>
      <trkpt lat="32.401865422725677" lon="-1.316863372921944">
        <ele>1041.725830078125</ele>
        <time>2011-04-19T08:41:48Z</time>
      </trkpt>
      <trkpt lat="32.401643637567759" lon="-1.317289676517248">
        <ele>1043.167724609375</ele>
        <time>2011-04-19T08:41:52Z</time>
      </trkpt>
      <trkpt lat="32.401324370875955" lon="-1.317561250180006">
        <ele>1043.167724609375</ele>
        <time>2011-04-19T08:41:56Z</time>
      </trkpt>
      <trkpt lat="32.401145584881306" lon="-1.317939274013042">
        <ele>1042.20654296875</ele>
        <time>2011-04-19T08:42:01Z</time>
      </trkpt>
      <trkpt lat="32.401111889630556" lon="-1.318278573453426">
        <ele>1042.20654296875</ele>
        <time>2011-04-19T08:42:04Z</time>
      </trkpt>
      <trkpt lat="32.40096746943891" lon="-1.318670427426696">
        <ele>1042.687255859375</ele>
        <time>2011-04-19T08:42:08Z</time>
      </trkpt>
      <trkpt lat="32.400531191378832" lon="-1.319394120946527">
        <ele>1044.129150390625</ele>
        <time>2011-04-19T08:42:15Z</time>
      </trkpt>
      <trkpt lat="32.400416694581509" lon="-1.319754542782903">
        <ele>1044.129150390625</ele>
        <time>2011-04-19T08:42:18Z</time>
      </trkpt>
      <trkpt lat="32.400004221126437" lon="-1.320729274302721">
        <ele>1045.09033203125</ele>
        <time>2011-04-19T08:42:26Z</time>
      </trkpt>
      <trkpt lat="32.399659221991897" lon="-1.321328161284328">
        <ele>1046.532470703125</ele>
        <time>2011-04-19T08:42:31Z</time>
      </trkpt>
      <trkpt lat="32.399515639990568" lon="-1.322085382416844">
        <ele>1048.454833984375</ele>
        <time>2011-04-19T08:42:37Z</time>
      </trkpt>
      <trkpt lat="32.39914046600461" lon="-1.323217358440161">
        <ele>1051.819580078125</ele>
        <time>2011-04-19T08:42:46Z</time>
      </trkpt>
      <trkpt lat="32.398850368335843" lon="-1.323820855468512">
        <ele>1053.742431640625</ele>
        <time>2011-04-19T08:42:52Z</time>
      </trkpt>
      <trkpt lat="32.398219043388963" lon="-1.32492802105844">
        <ele>1052.781005859375</ele>
        <time>2011-04-19T08:43:05Z</time>
      </trkpt>
      <trkpt lat="32.397791650146246" lon="-1.325753135606647">
        <ele>1051.3388671875</ele>
        <time>2011-04-19T08:43:14Z</time>
      </trkpt>
      <trkpt lat="32.39773616194725" lon="-1.325842989608645">
        <ele>1051.3388671875</ele>
        <time>2011-04-19T08:43:15Z</time>
      </trkpt>
      <trkpt lat="32.397461486980319" lon="-1.326093440875411">
        <ele>1048.935546875</ele>
        <time>2011-04-19T08:43:19Z</time>
      </trkpt>
      <trkpt lat="32.397143477573991" lon="-1.326372474431992">
        <ele>1047.49365234375</ele>
        <time>2011-04-19T08:43:24Z</time>
      </trkpt>
      <trkpt lat="32.397057227790356" lon="-1.326528042554855">
        <ele>1047.012939453125</ele>
        <time>2011-04-19T08:43:26Z</time>
      </trkpt>
      <trkpt lat="32.396637964993715" lon="-1.326803471893072">
        <ele>1046.0517578125</ele>
        <time>2011-04-19T08:43:32Z</time>
      </trkpt>
      <trkpt lat="32.396478960290551" lon="-1.326909335330129">
        <ele>1045.09033203125</ele>
        <time>2011-04-19T08:43:34Z</time>
      </trkpt>
      <trkpt lat="32.395658120512962" lon="-1.327687092125416">
        <ele>1040.764404296875</ele>
        <time>2011-04-19T08:43:46Z</time>
      </trkpt>
      <trkpt lat="32.39555099979043" lon="-1.327828327193856">
        <ele>1040.283935546875</ele>
        <time>2011-04-19T08:43:48Z</time>
      </trkpt>
      <trkpt lat="32.395209688693285" lon="-1.328134853392839">
        <ele>1037.880615234375</ele>
        <time>2011-04-19T08:43:53Z</time>
      </trkpt>
      <trkpt lat="32.394660254940391" lon="-1.328895762562752">
        <ele>1035.957763671875</ele>
        <time>2011-04-19T08:44:02Z</time>
      </trkpt>
      <trkpt lat="32.394107216969132" lon="-1.329734874889255">
        <ele>1034.99658203125</ele>
        <time>2011-04-19T08:44:11Z</time>
      </trkpt>
      <trkpt lat="32.393924240022898" lon="-1.330124465748668">
        <ele>1034.515869140625</ele>
        <time>2011-04-19T08:44:15Z</time>
      </trkpt>
      <trkpt lat="32.39372449927032" lon="-1.330418838188052">
        <ele>1034.515869140625</ele>
        <time>2011-04-19T08:44:19Z</time>
      </trkpt>
      <trkpt lat="32.393685523420572" lon="-1.330522522330284">
        <ele>1034.03515625</ele>
        <time>2011-04-19T08:44:25Z</time>
      </trkpt>
      <trkpt lat="32.3937669955194" lon="-1.330737769603729">
        <ele>1034.99658203125</ele>
        <time>2011-04-19T08:45:00Z</time>
      </trkpt>
      <trkpt lat="32.393815526738763" lon="-1.330863917246461">
        <ele>1034.03515625</ele>
        <time>2011-04-19T08:45:03Z</time>
      </trkpt>
      <trkpt lat="32.393854334950447" lon="-1.331417793408036">
        <ele>1034.03515625</ele>
        <time>2011-04-19T08:45:13Z</time>
      </trkpt>
      <trkpt lat="32.393835391849279" lon="-1.331803947687149">
        <ele>1034.03515625</ele>
        <time>2011-04-19T08:45:21Z</time>
      </trkpt>
      <trkpt lat="32.393829273059964" lon="-1.331928838044405">
        <ele>1034.99658203125</ele>
        <time>2011-04-19T08:45:34Z</time>
      </trkpt>
      <trkpt lat="32.393803624436259" lon="-1.332132685929537">
        <ele>1035.47705078125</ele>
        <time>2011-04-19T08:45:39Z</time>
      </trkpt>
      <trkpt lat="32.393700694665313" lon="-1.332365786656737">
        <ele>1034.515869140625</ele>
        <time>2011-04-19T08:45:43Z</time>
      </trkpt>
      <trkpt lat="32.393470946699381" lon="-1.332625793293119">
        <ele>1031.6318359375</ele>
        <time>2011-04-19T08:45:47Z</time>
      </trkpt>
      <trkpt lat="32.393322587013245" lon="-1.332846824079752">
        <ele>1030.18994140625</ele>
        <time>2011-04-19T08:45:50Z</time>
      </trkpt>
      <trkpt lat="32.393217226490378" lon="-1.333181764930487">
        <ele>1028.267333984375</ele>
        <time>2011-04-19T08:45:54Z</time>
      </trkpt>
      <trkpt lat="32.393084038048983" lon="-1.333399191498756">
        <ele>1027.30615234375</ele>
        <time>2011-04-19T08:45:57Z</time>
      </trkpt>
      <trkpt lat="32.392920674756169" lon="-1.33385818451643">
        <ele>1025.38330078125</ele>
        <time>2011-04-19T08:46:02Z</time>
      </trkpt>
      <trkpt lat="32.392710959538817" lon="-1.334696626290679">
        <ele>1024.422119140625</ele>
        <time>2011-04-19T08:46:10Z</time>
      </trkpt>
      <trkpt lat="32.392481882125139" lon="-1.335475221276283">
        <ele>1025.38330078125</ele>
        <time>2011-04-19T08:46:17Z</time>
      </trkpt>
      <trkpt lat="32.39213403314352" lon="-1.336388178169727">
        <ele>1027.78662109375</ele>
        <time>2011-04-19T08:46:25Z</time>
      </trkpt>
      <trkpt lat="32.392092794179916" lon="-1.336489263921976">
        <ele>1027.78662109375</ele>
        <time>2011-04-19T08:46:26Z</time>
      </trkpt>
      <trkpt lat="32.391564231365919" lon="-1.337429042905569">
        <ele>1027.78662109375</ele>
        <time>2011-04-19T08:46:35Z</time>
      </trkpt>
      <trkpt lat="32.391511928290129" lon="-1.337545970454812">
        <ele>1027.78662109375</ele>
        <time>2011-04-19T08:46:36Z</time>
      </trkpt>
      <trkpt lat="32.391311768442392" lon="-1.338052237406373">
        <ele>1026.825439453125</ele>
        <time>2011-04-19T08:46:41Z</time>
      </trkpt>
      <trkpt lat="32.391077829524875" lon="-1.33852019906044">
        <ele>1025.38330078125</ele>
        <time>2011-04-19T08:46:46Z</time>
      </trkpt>
      <trkpt lat="32.390615148469806" lon="-1.33933668024838">
        <ele>1024.90283203125</ele>
        <time>2011-04-19T08:46:54Z</time>
      </trkpt>
      <trkpt lat="32.390215247869492" lon="-1.340190293267369">
        <ele>1023.4609375</ele>
        <time>2011-04-19T08:47:02Z</time>
      </trkpt>
      <trkpt lat="32.390033444389701" lon="-1.340511152520776">
        <ele>1022.980224609375</ele>
        <time>2011-04-19T08:47:05Z</time>
      </trkpt>
      <trkpt lat="32.389621390029788" lon="-1.341353869065642">
        <ele>1020.09619140625</ele>
        <time>2011-04-19T08:47:13Z</time>
      </trkpt>
      <trkpt lat="32.389077320694923" lon="-1.342448629438877">
        <ele>1016.250732421875</ele>
        <time>2011-04-19T08:47:23Z</time>
      </trkpt>
      <trkpt lat="32.388598378747702" lon="-1.34373483248055">
        <ele>1019.615478515625</ele>
        <time>2011-04-19T08:47:34Z</time>
      </trkpt>
      <trkpt lat="32.388493185862899" lon="-1.343970447778702">
        <ele>1020.576904296875</ele>
        <time>2011-04-19T08:47:36Z</time>
      </trkpt>
      <trkpt lat="32.388190180063248" lon="-1.344878459349275">
        <ele>1019.615478515625</ele>
        <time>2011-04-19T08:47:44Z</time>
      </trkpt>
      <trkpt lat="32.387659186497331" lon="-1.34577632881701">
        <ele>1022.49951171875</ele>
        <time>2011-04-19T08:47:52Z</time>
      </trkpt>
      <trkpt lat="32.387411668896675" lon="-1.346204476431012">
        <ele>1022.980224609375</ele>
        <time>2011-04-19T08:47:56Z</time>
      </trkpt>
      <trkpt lat="32.386993998661637" lon="-1.346690878272057">
        <ele>1021.5380859375</ele>
        <time>2011-04-19T08:48:02Z</time>
      </trkpt>
      <trkpt lat="32.386603988707066" lon="-1.34685767814517">
        <ele>1024.422119140625</ele>
        <time>2011-04-19T08:48:06Z</time>
      </trkpt>
      <trkpt lat="32.385618360713124" lon="-1.346933785825968">
        <ele>1036.438720703125</ele>
        <time>2011-04-19T08:48:16Z</time>
      </trkpt>
      <trkpt lat="32.385239163413644" lon="-1.346994135528803">
        <ele>1039.322509765625</ele>
        <time>2011-04-19T08:48:20Z</time>
      </trkpt>
      <trkpt lat="32.384648825973272" lon="-1.347094969823957">
        <ele>1043.6484375</ele>
        <time>2011-04-19T08:48:25Z</time>
      </trkpt>
      <trkpt lat="32.384302737191319" lon="-1.347236791625619">
        <ele>1046.0517578125</ele>
        <time>2011-04-19T08:48:28Z</time>
      </trkpt>
      <trkpt lat="32.383684236556292" lon="-1.347753033041954">
        <ele>1044.609619140625</ele>
        <time>2011-04-19T08:48:35Z</time>
      </trkpt>
      <trkpt lat="32.382923075929284" lon="-1.348341694101691">
        <ele>1044.129150390625</ele>
        <time>2011-04-19T08:48:42Z</time>
      </trkpt>
      <trkpt lat="32.382070887833834" lon="-1.348928175866604">
        <ele>1046.0517578125</ele>
        <time>2011-04-19T08:48:50Z</time>
      </trkpt>
      <trkpt lat="32.381871733814478" lon="-1.349070081487298">
        <ele>1047.012939453125</ele>
        <time>2011-04-19T08:48:52Z</time>
      </trkpt>
      <trkpt lat="32.381169246509671" lon="-1.349772065877914">
        <ele>1045.571044921875</ele>
        <time>2011-04-19T08:49:00Z</time>
      </trkpt>
      <trkpt lat="32.380813183262944" lon="-1.35011337697506">
        <ele>1044.609619140625</ele>
        <time>2011-04-19T08:49:04Z</time>
      </trkpt>
      <trkpt lat="32.380504896864295" lon="-1.350466255098581">
        <ele>1044.609619140625</ele>
        <time>2011-04-19T08:49:08Z</time>
      </trkpt>
      <trkpt lat="32.380355950444937" lon="-1.35095969773829">
        <ele>1044.609619140625</ele>
        <time>2011-04-19T08:49:13Z</time>
      </trkpt>
      <trkpt lat="32.380359889939427" lon="-1.351146697998047">
        <ele>1044.129150390625</ele>
        <time>2011-04-19T08:49:15Z</time>
      </trkpt>
      <trkpt lat="32.38020365126431" lon="-1.351435789838433">
        <ele>1045.09033203125</ele>
        <time>2011-04-19T08:49:19Z</time>
      </trkpt>
      <trkpt lat="32.379535026848316" lon="-1.352087398990989">
        <ele>1054.70361328125</ele>
        <time>2011-04-19T08:49:27Z</time>
      </trkpt>
      <trkpt lat="32.378699937835336" lon="-1.353096161037684">
        <ele>1060.471435546875</ele>
        <time>2011-04-19T08:49:37Z</time>
      </trkpt>
      <trkpt lat="32.377877924591303" lon="-1.354342298582196">
        <ele>1062.39404296875</ele>
        <time>2011-04-19T08:49:48Z</time>
      </trkpt>
      <trkpt lat="32.377149453386664" lon="-1.354973455891013">
        <ele>1065.278076171875</ele>
        <time>2011-04-19T08:49:56Z</time>
      </trkpt>
      <trkpt lat="32.376772938296199" lon="-1.355186440050602">
        <ele>1065.7587890625</ele>
        <time>2011-04-19T08:50:01Z</time>
      </trkpt>
      <trkpt lat="32.376610161736608" lon="-1.355348294600844">
        <ele>1066.2392578125</ele>
        <time>2011-04-19T08:50:03Z</time>
      </trkpt>
      <trkpt lat="32.376062572002411" lon="-1.356200985610485">
        <ele>1066.719970703125</ele>
        <time>2011-04-19T08:50:11Z</time>
      </trkpt>
      <trkpt lat="32.37583969719708" lon="-1.35669375769794">
        <ele>1067.68115234375</ele>
        <time>2011-04-19T08:50:15Z</time>
      </trkpt>
      <trkpt lat="32.375384643673897" lon="-1.357059460133314">
        <ele>1067.20068359375</ele>
        <time>2011-04-19T08:50:20Z</time>
      </trkpt>
      <trkpt lat="32.374817440286279" lon="-1.357596572488546">
        <ele>1068.162109375</ele>
        <time>2011-04-19T08:50:27Z</time>
      </trkpt>
      <trkpt lat="32.374737896025181" lon="-1.357866637408733">
        <ele>1068.642822265625</ele>
        <time>2011-04-19T08:50:29Z</time>
      </trkpt>
      <trkpt lat="32.374396082013845" lon="-1.359259122982621">
        <ele>1071.526611328125</ele>
        <time>2011-04-19T08:50:38Z</time>
      </trkpt>
      <trkpt lat="32.374119143933058" lon="-1.360246930271387">
        <ele>1074.41064453125</ele>
        <time>2011-04-19T08:50:45Z</time>
      </trkpt>
      <trkpt lat="32.374079329892993" lon="-1.360646076500416">
        <ele>1073.929931640625</ele>
        <time>2011-04-19T08:50:48Z</time>
      </trkpt>
      <trkpt lat="32.374091818928719" lon="-1.361130718141794">
        <ele>1075.371826171875</ele>
        <time>2011-04-19T08:50:52Z</time>
      </trkpt>
      <trkpt lat="32.374123921617866" lon="-1.361421570181847">
        <ele>1076.81396484375</ele>
        <time>2011-04-19T08:50:55Z</time>
      </trkpt>
      <trkpt lat="32.374105816707015" lon="-1.361824236810207">
        <ele>1078.736572265625</ele>
        <time>2011-04-19T08:51:00Z</time>
      </trkpt>
      <trkpt lat="32.374176559969783" lon="-1.362897455692291">
        <ele>1081.139892578125</ele>
        <time>2011-04-19T08:51:09Z</time>
      </trkpt>
      <trkpt lat="32.374195335432887" lon="-1.363152265548706">
        <ele>1081.620361328125</ele>
        <time>2011-04-19T08:51:11Z</time>
      </trkpt>
      <trkpt lat="32.374274292960763" lon="-1.363511178642511">
        <ele>1084.9853515625</ele>
        <time>2011-04-19T08:51:14Z</time>
      </trkpt>
      <trkpt lat="32.374281920492649" lon="-1.363945696502924">
        <ele>1087.869140625</ele>
        <time>2011-04-19T08:51:18Z</time>
      </trkpt>
      <trkpt lat="32.374191898852587" lon="-1.364711550995708">
        <ele>1091.71435546875</ele>
        <time>2011-04-19T08:51:25Z</time>
      </trkpt>
      <trkpt lat="32.374302623793483" lon="-1.365878731012344">
        <ele>1096.040283203125</ele>
        <time>2011-04-19T08:51:36Z</time>
      </trkpt>
      <trkpt lat="32.374382754787803" lon="-1.366415843367577">
        <ele>1100.366455078125</ele>
        <time>2011-04-19T08:51:41Z</time>
      </trkpt>
      <trkpt lat="32.374518793076277" lon="-1.366873662918806">
        <ele>1105.1728515625</ele>
        <time>2011-04-19T08:51:46Z</time>
      </trkpt>
      <trkpt lat="32.37453555688262" lon="-1.367145152762532">
        <ele>1107.576171875</ele>
        <time>2011-04-19T08:51:49Z</time>
      </trkpt>
      <trkpt lat="32.374681821092963" lon="-1.367850992828608">
        <ele>1110.940673828125</ele>
        <time>2011-04-19T08:51:56Z</time>
      </trkpt>
      <trkpt lat="32.374787349253893" lon="-1.368493298068643">
        <ele>1113.824462890625</ele>
        <time>2011-04-19T08:52:03Z</time>
      </trkpt>
      <trkpt lat="32.375116925686598" lon="-1.369290836155415">
        <ele>1118.150634765625</ele>
        <time>2011-04-19T08:52:12Z</time>
      </trkpt>
      <trkpt lat="32.375199655070901" lon="-1.369699537754059">
        <ele>1120.0732421875</ele>
        <time>2011-04-19T08:52:16Z</time>
      </trkpt>
      <trkpt lat="32.375242486596107" lon="-1.369878239929676">
        <ele>1120.0732421875</ele>
        <time>2011-04-19T08:52:18Z</time>
      </trkpt>
      <trkpt lat="32.375447256490588" lon="-1.37026933953166">
        <ele>1119.112060546875</ele>
        <time>2011-04-19T08:52:23Z</time>
      </trkpt>
      <trkpt lat="32.375746741890907" lon="-1.370549043640494">
        <ele>1118.150634765625</ele>
        <time>2011-04-19T08:52:28Z</time>
      </trkpt>
      <trkpt lat="32.376059135422111" lon="-1.370946681126952">
        <ele>1116.708740234375</ele>
        <time>2011-04-19T08:52:35Z</time>
      </trkpt>
      <trkpt lat="32.376150833442807" lon="-1.37121724896133">
        <ele>1116.708740234375</ele>
        <time>2011-04-19T08:52:41Z</time>
      </trkpt>
      <trkpt lat="32.376086628064513" lon="-1.371530145406723">
        <ele>1115.2666015625</ele>
        <time>2011-04-19T08:52:50Z</time>
      </trkpt>
      <trkpt lat="32.375963497906923" lon="-1.372196422889829">
        <ele>1112.382568359375</ele>
        <time>2011-04-19T08:52:58Z</time>
      </trkpt>
      <trkpt lat="32.376001216471195" lon="-1.372673017904162">
        <ele>1110.4599609375</ele>
        <time>2011-04-19T08:53:04Z</time>
      </trkpt>
      <trkpt lat="32.376148989424109" lon="-1.373080546036363">
        <ele>1111.902099609375</ele>
        <time>2011-04-19T08:53:09Z</time>
      </trkpt>
      <trkpt lat="32.376174721866846" lon="-1.373475166037679">
        <ele>1112.86328125</ele>
        <time>2011-04-19T08:53:16Z</time>
      </trkpt>
      <trkpt lat="32.376174135133624" lon="-1.373606342822313">
        <ele>1117.669921875</ele>
        <time>2011-04-19T08:59:37Z</time>
      </trkpt>
      <trkpt lat="32.376163741573691" lon="-1.373999454081059">
        <ele>1114.30517578125</ele>
        <time>2011-04-19T08:59:45Z</time>
      </trkpt>
      <trkpt lat="32.376109762117267" lon="-1.374584091827273">
        <ele>1113.824462890625</ele>
        <time>2011-04-19T08:59:55Z</time>
      </trkpt>
      <trkpt lat="32.376060141250491" lon="-1.375334272161126">
        <ele>1110.4599609375</ele>
        <time>2011-04-19T09:00:05Z</time>
      </trkpt>
      <trkpt lat="32.375933993607759" lon="-1.375916227698326">
        <ele>1111.42138671875</ele>
        <time>2011-04-19T09:00:12Z</time>
      </trkpt>
      <trkpt lat="32.375808516517282" lon="-1.376188471913338">
        <ele>1109.498779296875</ele>
        <time>2011-04-19T09:00:19Z</time>
      </trkpt>
      <trkpt lat="32.375724194571376" lon="-1.376344626769424">
        <ele>1106.134033203125</ele>
        <time>2011-04-19T09:01:03Z</time>
      </trkpt>
      <trkpt lat="32.375444071367383" lon="-1.376915853470564">
        <ele>1101.808349609375</ele>
        <time>2011-04-19T09:01:15Z</time>
      </trkpt>
      <trkpt lat="32.375279953703284" lon="-1.377266049385071">
        <ele>1099.40478515625</ele>
        <time>2011-04-19T09:01:22Z</time>
      </trkpt>
      <trkpt lat="32.37497728317976" lon="-1.377713894471526">
        <ele>1095.078857421875</ele>
        <time>2011-04-19T09:01:31Z</time>
      </trkpt>
      <trkpt lat="32.374738985672593" lon="-1.378090493381023">
        <ele>1093.15625</ele>
        <time>2011-04-19T09:01:41Z</time>
      </trkpt>
      <trkpt lat="32.374686598777771" lon="-1.378189818933606">
        <ele>1092.67578125</ele>
        <time>2011-04-19T09:01:43Z</time>
      </trkpt>
      <trkpt lat="32.374534634873271" lon="-1.378360642120242">
        <ele>1090.2724609375</ele>
        <time>2011-04-19T09:01:47Z</time>
      </trkpt>
      <trkpt lat="32.374446960166097" lon="-1.378429792821407">
        <ele>1088.349853515625</ele>
        <time>2011-04-19T09:01:49Z</time>
      </trkpt>
      <trkpt lat="32.374112270772457" lon="-1.378504224121571">
        <ele>1084.9853515625</ele>
        <time>2011-04-19T09:01:55Z</time>
      </trkpt>
      <trkpt lat="32.373893084004521" lon="-1.378591898828745">
        <ele>1083.062255859375</ele>
        <time>2011-04-19T09:02:01Z</time>
      </trkpt>
      <trkpt lat="32.373713040724397" lon="-1.378677394241095">
        <ele>1083.062255859375</ele>
        <time>2011-04-19T09:02:17Z</time>
      </trkpt>
      <trkpt lat="32.373365527018905" lon="-1.37863758020103">
        <ele>1081.620361328125</ele>
        <time>2011-04-19T09:02:22Z</time>
      </trkpt>
      <trkpt lat="32.37275549210608" lon="-1.378167271614075">
        <ele>1080.178466796875</ele>
        <time>2011-04-19T09:02:30Z</time>
      </trkpt>
      <trkpt lat="32.372600259259343" lon="-1.378066437318921">
        <ele>1079.217041015625</ele>
        <time>2011-04-19T09:02:32Z</time>
      </trkpt>
      <trkpt lat="32.371975723654032" lon="-1.377952694892883">
        <ele>1078.736572265625</ele>
        <time>2011-04-19T09:02:39Z</time>
      </trkpt>
      <trkpt lat="32.371198385953903" lon="-1.377787487581372">
        <ele>1077.775146484375</ele>
        <time>2011-04-19T09:02:47Z</time>
      </trkpt>
      <trkpt lat="32.370978193357587" lon="-1.377704087644815">
        <ele>1077.294677734375</ele>
        <time>2011-04-19T09:02:50Z</time>
      </trkpt>
      <trkpt lat="32.370812650769949" lon="-1.377588249742985">
        <ele>1076.333251953125</ele>
        <time>2011-04-19T09:02:54Z</time>
      </trkpt>
      <trkpt lat="32.370491875335574" lon="-1.377521026879549">
        <ele>1074.41064453125</ele>
        <time>2011-04-19T09:03:04Z</time>
      </trkpt>
      <trkpt lat="32.370151067152619" lon="-1.377469059079886">
        <ele>1072.00732421875</ele>
        <time>2011-04-19T09:03:14Z</time>
      </trkpt>
      <trkpt lat="32.370009329169989" lon="-1.377434860914946">
        <ele>1072.488037109375</ele>
        <time>2011-04-19T09:03:27Z</time>
      </trkpt>
      <trkpt lat="32.369689140468836" lon="-1.377230593934655">
        <ele>1073.929931640625</ele>
        <time>2011-04-19T09:03:33Z</time>
      </trkpt>
      <trkpt lat="32.369365179911256" lon="-1.377078294754028">
        <ele>1072.96875</ele>
        <time>2011-04-19T09:03:39Z</time>
      </trkpt>
      <trkpt lat="32.368725053966045" lon="-1.376722566783428">
        <ele>1071.046142578125</ele>
        <time>2011-04-19T09:03:48Z</time>
      </trkpt>
      <trkpt lat="32.368561774492264" lon="-1.376665737479925">
        <ele>1070.084716796875</ele>
        <time>2011-04-19T09:03:50Z</time>
      </trkpt>
      <trkpt lat="32.36827963963151" lon="-1.376470187678933">
        <ele>1068.162109375</ele>
        <time>2011-04-19T09:03:54Z</time>
      </trkpt>
      <trkpt lat="32.367932461202145" lon="-1.376230549067259">
        <ele>1066.2392578125</ele>
        <time>2011-04-19T09:04:00Z</time>
      </trkpt>
      <trkpt lat="32.36763515509665" lon="-1.37579913251102">
        <ele>1063.35546875</ele>
        <time>2011-04-19T09:04:07Z</time>
      </trkpt>
      <trkpt lat="32.367503391578794" lon="-1.375661250203848">
        <ele>1063.35546875</ele>
        <time>2011-04-19T09:04:09Z</time>
      </trkpt>
      <trkpt lat="32.367183957248926" lon="-1.375396298244596">
        <ele>1061.432861328125</ele>
        <time>2011-04-19T09:04:15Z</time>
      </trkpt>
      <trkpt lat="32.366722784936428" lon="-1.374886846169829">
        <ele>1059.029541015625</ele>
        <time>2011-04-19T09:04:25Z</time>
      </trkpt>
      <trkpt lat="32.366409385576844" lon="-1.374641424044967">
        <ele>1057.10693359375</ele>
        <time>2011-04-19T09:04:30Z</time>
      </trkpt>
      <trkpt lat="32.365861292928457" lon="-1.373863080516458">
        <ele>1054.22314453125</ele>
        <time>2011-04-19T09:04:39Z</time>
      </trkpt>
      <trkpt lat="32.365811336785555" lon="-1.373774567618966">
        <ele>1053.742431640625</ele>
        <time>2011-04-19T09:04:40Z</time>
      </trkpt>
      <trkpt lat="32.36555996350944" lon="-1.373359495773912">
        <ele>1051.819580078125</ele>
        <time>2011-04-19T09:04:46Z</time>
      </trkpt>
      <trkpt lat="32.365434989333153" lon="-1.373168053105474">
        <ele>1051.819580078125</ele>
        <time>2011-04-19T09:04:50Z</time>
      </trkpt>
      <trkpt lat="32.365121422335505" lon="-1.37281701900065">
        <ele>1051.819580078125</ele>
        <time>2011-04-19T09:05:08Z</time>
      </trkpt>
      <trkpt lat="32.364939451217651" lon="-1.372923636808991">
        <ele>1047.974365234375</ele>
        <time>2011-04-19T09:05:35Z</time>
      </trkpt>
      <trkpt lat="32.364891422912478" lon="-1.373028242960572">
        <ele>1046.0517578125</ele>
        <time>2011-04-19T09:05:37Z</time>
      </trkpt>
      <trkpt lat="32.364821350201964" lon="-1.373264444991946">
        <ele>1042.687255859375</ele>
        <time>2011-04-19T09:05:44Z</time>
      </trkpt>
      <trkpt lat="32.364782877266407" lon="-1.373528642579913">
        <ele>1040.283935546875</ele>
        <time>2011-04-19T09:05:54Z</time>
      </trkpt>
      <trkpt lat="32.364714397117496" lon="-1.373928375542164">
        <ele>1040.764404296875</ele>
        <time>2011-04-19T09:06:00Z</time>
      </trkpt>
      <trkpt lat="32.364441230893135" lon="-1.374157033860683">
        <ele>1040.283935546875</ele>
        <time>2011-04-19T09:06:06Z</time>
      </trkpt>
      <trkpt lat="32.364201424643397" lon="-1.374104060232639">
        <ele>1039.80322265625</ele>
        <time>2011-04-19T09:06:09Z</time>
      </trkpt>
      <trkpt lat="32.363480916246772" lon="-1.373660741373897">
        <ele>1036.919189453125</ele>
        <time>2011-04-19T09:06:19Z</time>
      </trkpt>
      <trkpt lat="32.36299954354763" lon="-1.373384641483426">
        <ele>1035.957763671875</ele>
        <time>2011-04-19T09:06:25Z</time>
      </trkpt>
      <trkpt lat="32.362182140350342" lon="-1.373103931546211">
        <ele>1036.919189453125</ele>
        <time>2011-04-19T09:06:33Z</time>
      </trkpt>
      <trkpt lat="32.361282259225845" lon="-1.372848451137543">
        <ele>1037.880615234375</ele>
        <time>2011-04-19T09:06:42Z</time>
      </trkpt>
      <trkpt lat="32.360673984512687" lon="-1.372313350439072">
        <ele>1038.842041015625</ele>
        <time>2011-04-19T09:06:49Z</time>
      </trkpt>
      <trkpt lat="32.360527468845248" lon="-1.372152250260115">
        <ele>1038.842041015625</ele>
        <time>2011-04-19T09:06:51Z</time>
      </trkpt>
      <trkpt lat="32.359993373975158" lon="-1.371320597827435">
        <ele>1035.957763671875</ele>
        <time>2011-04-19T09:07:00Z</time>
      </trkpt>
      <trkpt lat="32.359817018732429" lon="-1.37109998613596">
        <ele>1036.438720703125</ele>
        <time>2011-04-19T09:07:03Z</time>
      </trkpt>
      <trkpt lat="32.35951904207468" lon="-1.370449969545007">
        <ele>1034.99658203125</ele>
        <time>2011-04-19T09:07:10Z</time>
      </trkpt>
      <trkpt lat="32.359287953004241" lon="-1.369337774813175">
        <ele>1028.748046875</ele>
        <time>2011-04-19T09:07:19Z</time>
      </trkpt>
      <trkpt lat="32.359023755416274" lon="-1.368203535676003">
        <ele>1028.267333984375</ele>
        <time>2011-04-19T09:07:28Z</time>
      </trkpt>
      <trkpt lat="32.358968183398247" lon="-1.367828194051981">
        <ele>1026.825439453125</ele>
        <time>2011-04-19T09:07:31Z</time>
      </trkpt>
      <trkpt lat="32.35874648205936" lon="-1.367263924330473">
        <ele>1026.3447265625</ele>
        <time>2011-04-19T09:07:36Z</time>
      </trkpt>
      <trkpt lat="32.358404584228992" lon="-1.366705354303122">
        <ele>1027.30615234375</ele>
        <time>2011-04-19T09:07:41Z</time>
      </trkpt>
      <trkpt lat="32.358025135472417" lon="-1.36632364243269">
        <ele>1029.228515625</ele>
        <time>2011-04-19T09:07:46Z</time>
      </trkpt>
      <trkpt lat="32.35756253823638" lon="-1.365569271147251">
        <ele>1030.18994140625</ele>
        <time>2011-04-19T09:07:53Z</time>
      </trkpt>
      <trkpt lat="32.357533453032374" lon="-1.365422252565622">
        <ele>1030.670654296875</ele>
        <time>2011-04-19T09:07:54Z</time>
      </trkpt>
      <trkpt lat="32.357415184378624" lon="-1.36426068842411">
        <ele>1021.5380859375</ele>
        <time>2011-04-19T09:08:03Z</time>
      </trkpt>
      <trkpt lat="32.357568573206663" lon="-1.363656939938664">
        <ele>1016.7314453125</ele>
        <time>2011-04-19T09:08:10Z</time>
      </trkpt>
      <trkpt lat="32.357539488002658" lon="-1.363132484257221">
        <ele>1016.250732421875</ele>
        <time>2011-04-19T09:08:15Z</time>
      </trkpt>
      <trkpt lat="32.357433624565601" lon="-1.361654251813889">
        <ele>1014.808837890625</ele>
        <time>2011-04-19T09:08:27Z</time>
      </trkpt>
      <trkpt lat="32.357383836060762" lon="-1.361219566315413">
        <ele>1013.847412109375</ele>
        <time>2011-04-19T09:08:31Z</time>
      </trkpt>
      <trkpt lat="32.357253078371286" lon="-1.360790496692061">
        <ele>1015.28955078125</ele>
        <time>2011-04-19T09:08:35Z</time>
      </trkpt>
      <trkpt lat="32.357045039534569" lon="-1.36043468490243">
        <ele>1016.250732421875</ele>
        <time>2011-04-19T09:08:39Z</time>
      </trkpt>
      <trkpt lat="32.35684035345912" lon="-1.360242823138833">
        <ele>1017.212158203125</ele>
        <time>2011-04-19T09:08:42Z</time>
      </trkpt>
      <trkpt lat="32.356624016538262" lon="-1.359876366332173">
        <ele>1018.654052734375</ele>
        <time>2011-04-19T09:08:46Z</time>
      </trkpt>
      <trkpt lat="32.356321346014738" lon="-1.358961230143905">
        <ele>1021.0576171875</ele>
        <time>2011-04-19T09:08:54Z</time>
      </trkpt>
      <trkpt lat="32.355928653851151" lon="-1.357992365956307">
        <ele>1024.422119140625</ele>
        <time>2011-04-19T09:09:03Z</time>
      </trkpt>
      <trkpt lat="32.355517772957683" lon="-1.357074966654182">
        <ele>1026.825439453125</ele>
        <time>2011-04-19T09:09:12Z</time>
      </trkpt>
      <trkpt lat="32.355094822123647" lon="-1.356732817366719">
        <ele>1028.267333984375</ele>
        <time>2011-04-19T09:09:19Z</time>
      </trkpt>
      <trkpt lat="32.354944450780749" lon="-1.356616392731667">
        <ele>1028.267333984375</ele>
        <time>2011-04-19T09:09:21Z</time>
      </trkpt>
      <trkpt lat="32.354472884908319" lon="-1.356159243732691">
        <ele>1029.709228515625</ele>
        <time>2011-04-19T09:09:27Z</time>
      </trkpt>
      <trkpt lat="32.354178428649902" lon="-1.356015661731362">
        <ele>1029.709228515625</ele>
        <time>2011-04-19T09:09:31Z</time>
      </trkpt>
      <trkpt lat="32.353447023779154" lon="-1.3560810405761">
        <ele>1028.748046875</ele>
        <time>2011-04-19T09:09:40Z</time>
      </trkpt>
      <trkpt lat="32.352903038263321" lon="-1.356242476031184">
        <ele>1027.78662109375</ele>
        <time>2011-04-19T09:09:47Z</time>
      </trkpt>
      <trkpt lat="32.352541275322437" lon="-1.356619829311967">
        <ele>1021.5380859375</ele>
        <time>2011-04-19T09:09:53Z</time>
      </trkpt>
      <trkpt lat="32.352426024153829" lon="-1.356983352452517">
        <ele>1014.328125</ele>
        <time>2011-04-19T09:09:57Z</time>
      </trkpt>
      <trkpt lat="32.352372296154499" lon="-1.357895219698548">
        <ele>998.947021484375</ele>
        <time>2011-04-19T09:10:07Z</time>
      </trkpt>
      <trkpt lat="32.352265929803252" lon="-1.358683621510863">
        <ele>995.58251953125</ele>
        <time>2011-04-19T09:10:14Z</time>
      </trkpt>
      <trkpt lat="32.352150594815612" lon="-1.35994216427207">
        <ele>994.62109375</ele>
        <time>2011-04-19T09:10:25Z</time>
      </trkpt>
      <trkpt lat="32.352090831845999" lon="-1.360877081751823">
        <ele>994.140625</ele>
        <time>2011-04-19T09:10:33Z</time>
      </trkpt>
      <trkpt lat="32.352225948125124" lon="-1.362245595082641">
        <ele>994.62109375</ele>
        <time>2011-04-19T09:10:43Z</time>
      </trkpt>
      <trkpt lat="32.352253356948495" lon="-1.362784970551729">
        <ele>996.063232421875</ele>
        <time>2011-04-19T09:10:47Z</time>
      </trkpt>
      <trkpt lat="32.352122347801924" lon="-1.363383857533336">
        <ele>996.5439453125</ele>
        <time>2011-04-19T09:10:52Z</time>
      </trkpt>
      <trkpt lat="32.352044060826302" lon="-1.363916862756014">
        <ele>996.063232421875</ele>
        <time>2011-04-19T09:10:57Z</time>
      </trkpt>
      <trkpt lat="32.352088652551174" lon="-1.36413948610425">
        <ele>997.505126953125</ele>
        <time>2011-04-19T09:10:59Z</time>
      </trkpt>
      <trkpt lat="32.352034840732813" lon="-1.364718256518245">
        <ele>998.46630859375</ele>
        <time>2011-04-19T09:11:04Z</time>
      </trkpt>
      <trkpt lat="32.351560341194272" lon="-1.36616145260632">
        <ele>996.5439453125</ele>
        <time>2011-04-19T09:11:15Z</time>
      </trkpt>
      <trkpt lat="32.351032951846719" lon="-1.367088658735156">
        <ele>993.659912109375</ele>
        <time>2011-04-19T09:11:23Z</time>
      </trkpt>
      <trkpt lat="32.350338259711862" lon="-1.368065234273672">
        <ele>991.256591796875</ele>
        <time>2011-04-19T09:11:32Z</time>
      </trkpt>
      <trkpt lat="32.350073894485831" lon="-1.36832264252007">
        <ele>990.77587890625</ele>
        <time>2011-04-19T09:11:35Z</time>
      </trkpt>
      <trkpt lat="32.349283397197723" lon="-1.368860341608524">
        <ele>992.218017578125</ele>
        <time>2011-04-19T09:11:43Z</time>
      </trkpt>
      <trkpt lat="32.348793055862188" lon="-1.369467778131366">
        <ele>991.7373046875</ele>
        <time>2011-04-19T09:11:49Z</time>
      </trkpt>
      <trkpt lat="32.348582250997424" lon="-1.369933057576418">
        <ele>991.7373046875</ele>
        <time>2011-04-19T09:11:53Z</time>
      </trkpt>
      <trkpt lat="32.348303971812129" lon="-1.371013484895229">
        <ele>992.218017578125</ele>
        <time>2011-04-19T09:12:02Z</time>
      </trkpt>
      <trkpt lat="32.348093083128333" lon="-1.371399722993374">
        <ele>990.29541015625</ele>
        <time>2011-04-19T09:12:07Z</time>
      </trkpt>
      <trkpt lat="32.348001720383763" lon="-1.371700717136264">
        <ele>988.372802734375</ele>
        <time>2011-04-19T09:12:11Z</time>
      </trkpt>
      <trkpt lat="32.347870292142034" lon="-1.37231376953423">
        <ele>986.449951171875</ele>
        <time>2011-04-19T09:12:19Z</time>
      </trkpt>
      <trkpt lat="32.347745234146714" lon="-1.373085658997297">
        <ele>986.449951171875</ele>
        <time>2011-04-19T09:12:28Z</time>
      </trkpt>
      <trkpt lat="32.347708437591791" lon="-1.373227396979928">
        <ele>986.449951171875</ele>
        <time>2011-04-19T09:12:33Z</time>
      </trkpt>
      <trkpt lat="32.347454717382789" lon="-1.373407272621989">
        <ele>984.52734375</ele>
        <time>2011-04-19T09:12:38Z</time>
      </trkpt>
      <trkpt lat="32.346888436004519" lon="-1.373849082738161">
        <ele>985.96923828125</ele>
        <time>2011-04-19T09:12:46Z</time>
      </trkpt>
      <trkpt lat="32.346510579809546" lon="-1.374347386881709">
        <ele>985.96923828125</ele>
        <time>2011-04-19T09:12:49Z</time>
      </trkpt>
      <trkpt lat="32.346088131889701" lon="-1.3740801718086">
        <ele>987.891845703125</ele>
        <time>2011-04-19T09:12:55Z</time>
      </trkpt>
      <trkpt lat="32.345996266230941" lon="-1.374030718579888">
        <ele>988.372802734375</ele>
        <time>2011-04-19T09:12:56Z</time>
      </trkpt>
      <trkpt lat="32.345300652086735" lon="-1.3734688796103">
        <ele>991.7373046875</ele>
        <time>2011-04-19T09:13:04Z</time>
      </trkpt>
      <trkpt lat="32.34513821080327" lon="-1.373037211596966">
        <ele>995.58251953125</ele>
        <time>2011-04-19T09:13:09Z</time>
      </trkpt>
      <trkpt lat="32.344870660454035" lon="-1.372486017644405">
        <ele>997.98583984375</ele>
        <time>2011-04-19T09:13:14Z</time>
      </trkpt>
      <trkpt lat="32.344516441226006" lon="-1.37243052944541">
        <ele>1001.8310546875</ele>
        <time>2011-04-19T09:13:20Z</time>
      </trkpt>
      <trkpt lat="32.344387276098132" lon="-1.372508564963937">
        <ele>1002.3115234375</ele>
        <time>2011-04-19T09:13:23Z</time>
      </trkpt>
      <trkpt lat="32.343958541750908" lon="-1.372637310996652">
        <ele>1002.792236328125</ele>
        <time>2011-04-19T09:13:27Z</time>
      </trkpt>
      <trkpt lat="32.343248426914215" lon="-1.372625827789307">
        <ele>1004.715087890625</ele>
        <time>2011-04-19T09:13:34Z</time>
      </trkpt>
      <trkpt lat="32.343101073056459" lon="-1.37257763184607">
        <ele>1004.234619140625</ele>
        <time>2011-04-19T09:13:36Z</time>
      </trkpt>
      <trkpt lat="32.34280108474195" lon="-1.37216666713357">
        <ele>1004.715087890625</ele>
        <time>2011-04-19T09:13:42Z</time>
      </trkpt>
      <trkpt lat="32.342180320993066" lon="-1.371174333617091">
        <ele>1010.002197265625</ele>
        <time>2011-04-19T09:13:51Z</time>
      </trkpt>
      <trkpt lat="32.341840686276555" lon="-1.370678124949336">
        <ele>1012.405517578125</ele>
        <time>2011-04-19T09:13:56Z</time>
      </trkpt>
      <trkpt lat="32.341657960787416" lon="-1.370410490781069">
        <ele>1013.847412109375</ele>
        <time>2011-04-19T09:13:59Z</time>
      </trkpt>
      <trkpt lat="32.341608088463545" lon="-1.370247714221478">
        <ele>1016.250732421875</ele>
        <time>2011-04-19T09:14:01Z</time>
      </trkpt>
      <trkpt lat="32.341506080701947" lon="-1.369879161939025">
        <ele>1020.09619140625</ele>
        <time>2011-04-19T09:14:05Z</time>
      </trkpt>
      <trkpt lat="32.341468362137675" lon="-1.369715547189117">
        <ele>1021.5380859375</ele>
        <time>2011-04-19T09:14:08Z</time>
      </trkpt>
      <trkpt lat="32.34132444486022" lon="-1.369101405143738">
        <ele>1022.018798828125</ele>
        <time>2011-04-19T09:14:14Z</time>
      </trkpt>
      <trkpt lat="32.34121304936707" lon="-1.367931542918086">
        <ele>1022.49951171875</ele>
        <time>2011-04-19T09:14:23Z</time>
      </trkpt>
      <trkpt lat="32.340989084914327" lon="-1.366453226655722">
        <ele>1022.980224609375</ele>
        <time>2011-04-19T09:14:34Z</time>
      </trkpt>
      <trkpt lat="32.341116406023502" lon="-1.366220042109489">
        <ele>1021.5380859375</ele>
        <time>2011-04-19T09:14:39Z</time>
      </trkpt>
      <trkpt lat="32.341225454583764" lon="-1.365477656945586">
        <ele>1020.09619140625</ele>
        <time>2011-04-19T09:14:47Z</time>
      </trkpt>
      <trkpt lat="32.341282367706299" lon="-1.364579200744629">
        <ele>1018.17333984375</ele>
        <time>2011-04-19T09:14:54Z</time>
      </trkpt>
      <trkpt lat="32.341219587251544" lon="-1.363571444526315">
        <ele>1015.28955078125</ele>
        <time>2011-04-19T09:15:02Z</time>
      </trkpt>
      <trkpt lat="32.340947510674596" lon="-1.362544074654579">
        <ele>1015.28955078125</ele>
        <time>2011-04-19T09:15:11Z</time>
      </trkpt>
      <trkpt lat="32.34089151956141" lon="-1.361998412758112">
        <ele>1015.28955078125</ele>
        <time>2011-04-19T09:15:17Z</time>
      </trkpt>
      <trkpt lat="32.340697310864925" lon="-1.360574830323458">
        <ele>1012.88623046875</ele>
        <time>2011-04-19T09:15:28Z</time>
      </trkpt>
      <trkpt lat="32.34062765724957" lon="-1.360338963568211">
        <ele>1013.366943359375</ele>
        <time>2011-04-19T09:15:30Z</time>
      </trkpt>
      <trkpt lat="32.340399334207177" lon="-1.359697161242366">
        <ele>1013.847412109375</ele>
        <time>2011-04-19T09:15:38Z</time>
      </trkpt>
      <trkpt lat="32.340002283453941" lon="-1.358612794429064">
        <ele>1013.847412109375</ele>
        <time>2011-04-19T09:15:47Z</time>
      </trkpt>
      <trkpt lat="32.339581092819571" lon="-1.357050742954016">
        <ele>1014.328125</ele>
        <time>2011-04-19T09:15:59Z</time>
      </trkpt>
      <trkpt lat="32.339382609352469" lon="-1.356236692517996">
        <ele>1016.7314453125</ele>
        <time>2011-04-19T09:16:07Z</time>
      </trkpt>
      <trkpt lat="32.339235926046968" lon="-1.355855483561754">
        <ele>1017.212158203125</ele>
        <time>2011-04-19T09:16:12Z</time>
      </trkpt>
      <trkpt lat="32.339050769805908" lon="-1.355495061725378">
        <ele>1019.134765625</ele>
        <time>2011-04-19T09:16:20Z</time>
      </trkpt>
      <trkpt lat="32.338894782587886" lon="-1.355396322906017">
        <ele>1016.250732421875</ele>
        <time>2011-04-19T09:16:28Z</time>
      </trkpt>
      <trkpt lat="32.338997628539801" lon="-1.355430269613862">
        <ele>1008.560302734375</ele>
        <time>2011-04-19T09:16:36Z</time>
      </trkpt>
      <trkpt lat="32.339196866378188" lon="-1.355453236028552">
        <ele>1000.38916015625</ele>
        <time>2011-04-19T09:16:44Z</time>
      </trkpt>
      <trkpt lat="32.339332988485694" lon="-1.355427838861942">
        <ele>997.98583984375</ele>
        <time>2011-04-19T09:16:48Z</time>
      </trkpt>
      <trkpt lat="32.339656027033925" lon="-1.355481063947082">
        <ele>994.62109375</ele>
        <time>2011-04-19T09:16:53Z</time>
      </trkpt>
      <trkpt lat="32.340300846844912" lon="-1.355902589857578">
        <ele>993.659912109375</ele>
        <time>2011-04-19T09:17:04Z</time>
      </trkpt>
      <trkpt lat="32.340329764410853" lon="-1.356068383902311">
        <ele>997.98583984375</ele>
        <time>2011-04-19T09:17:19Z</time>
      </trkpt>
      <trkpt lat="32.340209987014532" lon="-1.356001161038876">
        <ele>997.505126953125</ele>
        <time>2011-04-19T09:17:23Z</time>
      </trkpt>
      <trkpt lat="32.339774379506707" lon="-1.355614671483636">
        <ele>998.46630859375</ele>
        <time>2011-04-19T09:17:33Z</time>
      </trkpt>
      <trkpt lat="32.339507499709725" lon="-1.355567146092653">
        <ele>997.0244140625</ele>
        <time>2011-04-19T09:17:38Z</time>
      </trkpt>
      <trkpt lat="32.339403899386525" lon="-1.355612156912684">
        <ele>997.505126953125</ele>
        <time>2011-04-19T09:17:40Z</time>
      </trkpt>
      <trkpt lat="32.339090248569846" lon="-1.355616264045239">
        <ele>997.505126953125</ele>
        <time>2011-04-19T09:17:46Z</time>
      </trkpt>
      <trkpt lat="32.339050769805908" lon="-1.355398166924715">
        <ele>999.908447265625</ele>
        <time>2011-04-19T09:17:52Z</time>
      </trkpt>
      <trkpt lat="32.339050769805908" lon="-1.35518048889935">
        <ele>1002.792236328125</ele>
        <time>2011-04-19T09:17:56Z</time>
      </trkpt>
      <trkpt lat="32.339072227478027" lon="-1.354848816990852">
        <ele>1004.715087890625</ele>
        <time>2011-04-19T09:18:01Z</time>
      </trkpt>
      <trkpt lat="32.339115142822266" lon="-1.354606999084353">
        <ele>1005.19580078125</ele>
        <time>2011-04-19T09:18:04Z</time>
      </trkpt>
      <trkpt lat="32.339269705116749" lon="-1.353938290849328">
        <ele>1006.6376953125</ele>
        <time>2011-04-19T09:18:12Z</time>
      </trkpt>
      <trkpt lat="32.339387722313404" lon="-1.353440070524812">
        <ele>1006.6376953125</ele>
        <time>2011-04-19T09:18:18Z</time>
      </trkpt>
      <trkpt lat="32.33932544477284" lon="-1.35260196402669">
        <ele>1008.560302734375</ele>
        <time>2011-04-19T09:18:26Z</time>
      </trkpt>
      <trkpt lat="32.339140120893717" lon="-1.351064220070839">
        <ele>1008.560302734375</ele>
        <time>2011-04-19T09:18:38Z</time>
      </trkpt>
      <trkpt lat="32.339088739827275" lon="-1.350112203508616">
        <ele>1006.6376953125</ele>
        <time>2011-04-19T09:18:46Z</time>
      </trkpt>
      <trkpt lat="32.339136600494385" lon="-1.349574085325003">
        <ele>1005.676513671875</ele>
        <time>2011-04-19T09:18:51Z</time>
      </trkpt>
      <trkpt lat="32.338978182524443" lon="-1.349271666258574">
        <ele>1004.234619140625</ele>
        <time>2011-04-19T09:18:55Z</time>
      </trkpt>
      <trkpt lat="32.338633686304092" lon="-1.348368348553777">
        <ele>1002.3115234375</ele>
        <time>2011-04-19T09:19:05Z</time>
      </trkpt>
      <trkpt lat="32.338573588058352" lon="-1.348165757954121">
        <ele>1002.792236328125</ele>
        <time>2011-04-19T09:19:07Z</time>
      </trkpt>
      <trkpt lat="32.338364627212286" lon="-1.347917653620243">
        <ele>1000.86962890625</ele>
        <time>2011-04-19T09:19:11Z</time>
      </trkpt>
      <trkpt lat="32.33804670162499" lon="-1.347620179876685">
        <ele>999.427734375</ele>
        <time>2011-04-19T09:19:16Z</time>
      </trkpt>
      <trkpt lat="32.337678568437696" lon="-1.347578940913081">
        <ele>999.908447265625</ele>
        <time>2011-04-19T09:19:22Z</time>
      </trkpt>
      <trkpt lat="32.337520569562912" lon="-1.347598051652312">
        <ele>1000.38916015625</ele>
        <time>2011-04-19T09:19:24Z</time>
      </trkpt>
      <trkpt lat="32.337173977866769" lon="-1.347606182098389">
        <ele>1001.8310546875</ele>
        <time>2011-04-19T09:19:28Z</time>
      </trkpt>
      <trkpt lat="32.337015978991985" lon="-1.347606182098389">
        <ele>1002.3115234375</ele>
        <time>2011-04-19T09:19:30Z</time>
      </trkpt>
      <trkpt lat="32.336746333166957" lon="-1.347606182098389">
        <ele>1000.38916015625</ele>
        <time>2011-04-19T09:19:35Z</time>
      </trkpt>
      <trkpt lat="32.336604595184326" lon="-1.347606182098389">
        <ele>997.98583984375</ele>
        <time>2011-04-19T09:19:39Z</time>
      </trkpt>
      <trkpt lat="32.335861623287201" lon="-1.348539339378476">
        <ele>993.17919921875</ele>
        <time>2011-04-19T09:19:48Z</time>
      </trkpt>
      <trkpt lat="32.335517881438136" lon="-1.348765650764108">
        <ele>991.256591796875</ele>
        <time>2011-04-19T09:19:53Z</time>
      </trkpt>
      <trkpt lat="32.335205320268869" lon="-1.348841255530715">
        <ele>990.77587890625</ele>
        <time>2011-04-19T09:19:57Z</time>
      </trkpt>
      <trkpt lat="32.334945565089583" lon="-1.348846284672618">
        <ele>992.218017578125</ele>
        <time>2011-04-19T09:20:01Z</time>
      </trkpt>
      <trkpt lat="32.334833834320307" lon="-1.348837064579129">
        <ele>992.69873046875</ele>
        <time>2011-04-19T09:20:07Z</time>
      </trkpt>
      <trkpt lat="32.334654377773404" lon="-1.34878627024591">
        <ele>994.140625</ele>
        <time>2011-04-19T09:20:42Z</time>
      </trkpt>
      <trkpt lat="32.334043672308326" lon="-1.348730530589819">
        <ele>997.98583984375</ele>
        <time>2011-04-19T09:20:53Z</time>
      </trkpt>
      <trkpt lat="32.333804871886969" lon="-1.34869834408164">
        <ele>999.427734375</ele>
        <time>2011-04-19T09:21:00Z</time>
      </trkpt>
      <trkpt lat="32.333555845543742" lon="-1.34859767742455">
        <ele>992.69873046875</ele>
        <time>2011-04-19T09:21:46Z</time>
      </trkpt>
      <trkpt lat="32.333356020972133" lon="-1.348638162016869">
        <ele>994.62109375</ele>
        <time>2011-04-19T09:21:49Z</time>
      </trkpt>
      <trkpt lat="32.332931561395526" lon="-1.348802950233221">
        <ele>998.46630859375</ele>
        <time>2011-04-19T09:21:54Z</time>
      </trkpt>
      <trkpt lat="32.332698125392199" lon="-1.348834382370114">
        <ele>1002.3115234375</ele>
        <time>2011-04-19T09:21:57Z</time>
      </trkpt>
      <trkpt lat="32.332500144839287" lon="-1.348852571099997">
        <ele>1005.676513671875</ele>
        <time>2011-04-19T09:22:00Z</time>
      </trkpt>
      <trkpt lat="32.332279784604907" lon="-1.348693650215864">
        <ele>1010.48291015625</ele>
        <time>2011-04-19T09:22:06Z</time>
      </trkpt>
      <trkpt lat="32.332217087969184" lon="-1.34844814427197">
        <ele>1012.405517578125</ele>
        <time>2011-04-19T09:22:09Z</time>
      </trkpt>
      <trkpt lat="32.332225721329451" lon="-1.347780860960484">
        <ele>1018.17333984375</ele>
        <time>2011-04-19T09:22:16Z</time>
      </trkpt>
      <trkpt lat="32.332378774881363" lon="-1.347528398036957">
        <ele>1019.615478515625</ele>
        <time>2011-04-19T09:22:21Z</time>
      </trkpt>
      <trkpt lat="32.333033485338092" lon="-1.347091365605593">
        <ele>1015.28955078125</ele>
        <time>2011-04-19T09:22:32Z</time>
      </trkpt>
      <trkpt lat="32.333146473392844" lon="-1.347047025337815">
        <ele>1014.808837890625</ele>
        <time>2011-04-19T09:22:38Z</time>
      </trkpt>
      <trkpt lat="32.333269268274307" lon="-1.346985837444663">
        <ele>1015.28955078125</ele>
        <time>2011-04-19T09:22:55Z</time>
      </trkpt>
      <trkpt lat="32.333577554672956" lon="-1.346746198832989">
        <ele>1010.963623046875</ele>
        <time>2011-04-19T09:23:09Z</time>
      </trkpt>
      <trkpt lat="32.333663050085306" lon="-1.346668247133493">
        <ele>1010.002197265625</ele>
        <time>2011-04-19T09:23:21Z</time>
      </trkpt>
      <trkpt lat="32.333750976249576" lon="-1.346595073118806">
        <ele>1009.521728515625</ele>
        <time>2011-04-19T09:23:35Z</time>
      </trkpt>
      <trkpt lat="32.334179878234863" lon="-1.346361637115479">
        <ele>1008.079833984375</ele>
        <time>2011-04-19T09:23:41Z</time>
      </trkpt>
      <trkpt lat="32.334158420562744" lon="-1.346109341830015">
        <ele>1006.156982421875</ele>
        <time>2011-04-19T09:23:49Z</time>
      </trkpt>
      <trkpt lat="32.33416797593236" lon="-1.345621682703495">
        <ele>1005.19580078125</ele>
        <time>2011-04-19T09:23:56Z</time>
      </trkpt>
      <trkpt lat="32.333963289856911" lon="-1.345144249498844">
        <ele>1005.676513671875</ele>
        <time>2011-04-19T09:24:04Z</time>
      </trkpt>
      <trkpt lat="32.333566406741738" lon="-1.344787767156959">
        <ele>1004.234619140625</ele>
        <time>2011-04-19T09:24:13Z</time>
      </trkpt>
      <trkpt lat="32.333430871367455" lon="-1.344686346128583">
        <ele>1006.6376953125</ele>
        <time>2011-04-19T09:24:20Z</time>
      </trkpt>
      <trkpt lat="32.333040777593851" lon="-1.344461543485522">
        <ele>1015.770263671875</ele>
        <time>2011-04-19T09:26:00Z</time>
      </trkpt>
      <trkpt lat="32.332374164834619" lon="-1.344259288161993">
        <ele>1013.847412109375</ele>
        <time>2011-04-19T09:26:10Z</time>
      </trkpt>
      <trkpt lat="32.331607807427645" lon="-1.344430446624756">
        <ele>1013.366943359375</ele>
        <time>2011-04-19T09:26:20Z</time>
      </trkpt>
      <trkpt lat="32.331453915685415" lon="-1.344449389725924">
        <ele>1012.88623046875</ele>
        <time>2011-04-19T09:26:22Z</time>
      </trkpt>
      <trkpt lat="32.331207823008299" lon="-1.344418460503221">
        <ele>1012.405517578125</ele>
        <time>2011-04-19T09:26:25Z</time>
      </trkpt>
      <trkpt lat="32.330593848600984" lon="-1.344064325094223">
        <ele>1010.48291015625</ele>
        <time>2011-04-19T09:26:33Z</time>
      </trkpt>
      <trkpt lat="32.329921368509531" lon="-1.343969190493226">
        <ele>1007.59912109375</ele>
        <time>2011-04-19T09:26:41Z</time>
      </trkpt>
      <trkpt lat="32.329731350764632" lon="-1.343936920166016">
        <ele>1007.59912109375</ele>
        <time>2011-04-19T09:26:43Z</time>
      </trkpt>
      <trkpt lat="32.329472601413727" lon="-1.343936920166016">
        <ele>1007.59912109375</ele>
        <time>2011-04-19T09:26:48Z</time>
      </trkpt>
      <trkpt lat="32.329481821507215" lon="-1.343780681490898">
        <ele>1005.676513671875</ele>
        <time>2011-04-19T09:27:04Z</time>
      </trkpt>
      <trkpt lat="32.329363133758307" lon="-1.343936920166016">
        <ele>1005.19580078125</ele>
        <time>2011-04-19T09:27:09Z</time>
      </trkpt>
      <trkpt lat="32.328700376674533" lon="-1.343936920166016">
        <ele>1006.156982421875</ele>
        <time>2011-04-19T09:27:17Z</time>
      </trkpt>
      <trkpt lat="32.327915914356709" lon="-1.343735083937645">
        <ele>1006.156982421875</ele>
        <time>2011-04-19T09:27:24Z</time>
      </trkpt>
      <trkpt lat="32.327817343175411" lon="-1.343672052025795">
        <ele>1005.676513671875</ele>
        <time>2011-04-19T09:27:25Z</time>
      </trkpt>
      <trkpt lat="32.327510146424174" lon="-1.343324538320303">
        <ele>1005.19580078125</ele>
        <time>2011-04-19T09:27:29Z</time>
      </trkpt>
      <trkpt lat="32.326766001060605" lon="-1.342090973630548">
        <ele>1008.560302734375</ele>
        <time>2011-04-19T09:27:40Z</time>
      </trkpt>
      <trkpt lat="32.326698610559106" lon="-1.341287400573492">
        <ele>1010.002197265625</ele>
        <time>2011-04-19T09:27:46Z</time>
      </trkpt>
      <trkpt lat="32.326712608337402" lon="-1.341127809137106">
        <ele>1010.002197265625</ele>
        <time>2011-04-19T09:27:47Z</time>
      </trkpt>
      <trkpt lat="32.326991558074951" lon="-1.339965406805277">
        <ele>1010.963623046875</ele>
        <time>2011-04-19T09:27:55Z</time>
      </trkpt>
      <trkpt lat="32.326985942199826" lon="-1.339396527037025">
        <ele>1011.4443359375</ele>
        <time>2011-04-19T09:27:59Z</time>
      </trkpt>
      <trkpt lat="32.326695509254932" lon="-1.338811805471778">
        <ele>1009.041015625</ele>
        <time>2011-04-19T09:28:05Z</time>
      </trkpt>
      <trkpt lat="32.32628345489502" lon="-1.338701248168945">
        <ele>1007.59912109375</ele>
        <time>2011-04-19T09:28:10Z</time>
      </trkpt>
      <trkpt lat="32.326083211228251" lon="-1.338749779388309">
        <ele>1006.6376953125</ele>
        <time>2011-04-19T09:28:12Z</time>
      </trkpt>
      <trkpt lat="32.325572920963168" lon="-1.338657662272453">
        <ele>1004.234619140625</ele>
        <time>2011-04-19T09:28:18Z</time>
      </trkpt>
      <trkpt lat="32.32507704757154" lon="-1.33844786323607">
        <ele>1001.8310546875</ele>
        <time>2011-04-19T09:28:25Z</time>
      </trkpt>
      <trkpt lat="32.324684103950858" lon="-1.338341077789664">
        <ele>1002.3115234375</ele>
        <time>2011-04-19T09:28:29Z</time>
      </trkpt>
      <trkpt lat="32.324210023507476" lon="-1.338176457211375">
        <ele>1003.27294921875</ele>
        <time>2011-04-19T09:28:35Z</time>
      </trkpt>
      <trkpt lat="32.323987483978271" lon="-1.338057518005371">
        <ele>1002.792236328125</ele>
        <time>2011-04-19T09:28:38Z</time>
      </trkpt>
      <trkpt lat="32.323561599478126" lon="-1.337673291563988">
        <ele>1006.156982421875</ele>
        <time>2011-04-19T09:28:44Z</time>
      </trkpt>
      <trkpt lat="32.323124399408698" lon="-1.337603386491537">
        <ele>1008.560302734375</ele>
        <time>2011-04-19T09:28:50Z</time>
      </trkpt>
      <trkpt lat="32.322971681132913" lon="-1.337943524122238">
        <ele>1008.560302734375</ele>
        <time>2011-04-19T09:28:55Z</time>
      </trkpt>
      <trkpt lat="32.322813598439097" lon="-1.338178804144263">
        <ele>1008.079833984375</ele>
        <time>2011-04-19T09:28:58Z</time>
      </trkpt>
      <trkpt lat="32.322407076135278" lon="-1.338465213775635">
        <ele>1007.59912109375</ele>
        <time>2011-04-19T09:29:04Z</time>
      </trkpt>
      <trkpt lat="32.32217556796968" lon="-1.338311573490501">
        <ele>1008.079833984375</ele>
        <time>2011-04-19T09:29:08Z</time>
      </trkpt>
      <trkpt lat="32.322056293487549" lon="-1.337971687316895">
        <ele>1008.560302734375</ele>
        <time>2011-04-19T09:29:12Z</time>
      </trkpt>
      <trkpt lat="32.322265170514584" lon="-1.336477948352695">
        <ele>1011.4443359375</ele>
        <time>2011-04-19T09:29:24Z</time>
      </trkpt>
      <trkpt lat="32.322421073913574" lon="-1.335120080038905">
        <ele>1012.405517578125</ele>
        <time>2011-04-19T09:29:33Z</time>
      </trkpt>
      <trkpt lat="32.322399616241455" lon="-1.333277737721801">
        <ele>1012.405517578125</ele>
        <time>2011-04-19T09:29:45Z</time>
      </trkpt>
      <trkpt lat="32.322335243225098" lon="-1.331862285733223">
        <ele>1012.88623046875</ele>
        <time>2011-04-19T09:29:55Z</time>
      </trkpt>
      <trkpt lat="32.322313785552979" lon="-1.33071237243712">
        <ele>1013.366943359375</ele>
        <time>2011-04-19T09:30:03Z</time>
      </trkpt>
      <trkpt lat="32.322313785552979" lon="-1.329887257888913">
        <ele>1013.366943359375</ele>
        <time>2011-04-19T09:30:09Z</time>
      </trkpt>
      <trkpt lat="32.322517298161983" lon="-1.329453326761723">
        <ele>1012.405517578125</ele>
        <time>2011-04-19T09:30:14Z</time>
      </trkpt>
      <trkpt lat="32.322869170457125" lon="-1.328693088144064">
        <ele>1011.4443359375</ele>
        <time>2011-04-19T09:30:21Z</time>
      </trkpt>
      <trkpt lat="32.323174607008696" lon="-1.327355587854981">
        <ele>1010.963623046875</ele>
        <time>2011-04-19T09:30:30Z</time>
      </trkpt>
      <trkpt lat="32.323551205918193" lon="-1.325687086209655">
        <ele>1010.002197265625</ele>
        <time>2011-04-19T09:30:40Z</time>
      </trkpt>
      <trkpt lat="32.323558330535889" lon="-1.32472182624042">
        <ele>1010.48291015625</ele>
        <time>2011-04-19T09:30:46Z</time>
      </trkpt>
      <trkpt lat="32.32351541519165" lon="-1.323580462485552">
        <ele>1009.521728515625</ele>
        <time>2011-04-19T09:30:53Z</time>
      </trkpt>
      <trkpt lat="32.323429584503174" lon="-1.322308676317334">
        <ele>1008.560302734375</ele>
        <time>2011-04-19T09:31:01Z</time>
      </trkpt>
      <trkpt lat="32.323472499847412" lon="-1.321376273408532">
        <ele>1008.079833984375</ele>
        <time>2011-04-19T09:31:09Z</time>
      </trkpt>
      <trkpt lat="32.323622703552246" lon="-1.320008179172874">
        <ele>1008.079833984375</ele>
        <time>2011-04-19T09:31:18Z</time>
      </trkpt>
      <trkpt lat="32.323713647201657" lon="-1.31865693256259">
        <ele>1007.59912109375</ele>
        <time>2011-04-19T09:31:27Z</time>
      </trkpt>
      <trkpt lat="32.323826467618346" lon="-1.318016638979316">
        <ele>1008.079833984375</ele>
        <time>2011-04-19T09:31:32Z</time>
      </trkpt>
      <trkpt lat="32.323911543935537" lon="-1.317660659551621">
        <ele>1008.079833984375</ele>
        <time>2011-04-19T09:31:35Z</time>
      </trkpt>
      <trkpt lat="32.323987483978271" lon="-1.316624907776713">
        <ele>1007.59912109375</ele>
        <time>2011-04-19T09:31:42Z</time>
      </trkpt>
      <trkpt lat="32.323944568634033" lon="-1.315170647576451">
        <ele>1006.6376953125</ele>
        <time>2011-04-19T09:31:51Z</time>
      </trkpt>
      <trkpt lat="32.32393853366375" lon="-1.314860349521041">
        <ele>1006.6376953125</ele>
        <time>2011-04-19T09:31:53Z</time>
      </trkpt>
      <trkpt lat="32.323625134304166" lon="-1.313417991623282">
        <ele>1006.6376953125</ele>
        <time>2011-04-19T09:32:02Z</time>
      </trkpt>
      <trkpt lat="32.323265969753265" lon="-1.3120321277529">
        <ele>1005.676513671875</ele>
        <time>2011-04-19T09:32:11Z</time>
      </trkpt>
      <trkpt lat="32.323211319744587" lon="-1.311883516609669">
        <ele>1005.676513671875</ele>
        <time>2011-04-19T09:32:12Z</time>
      </trkpt>
      <trkpt lat="32.322632549330592" lon="-1.310791689902544">
        <ele>1006.6376953125</ele>
        <time>2011-04-19T09:32:20Z</time>
      </trkpt>
      <trkpt lat="32.322534983977675" lon="-1.310684233903885">
        <ele>1007.59912109375</ele>
        <time>2011-04-19T09:32:21Z</time>
      </trkpt>
      <trkpt lat="32.32180911116302" lon="-1.30954840220511">
        <ele>1010.963623046875</ele>
        <time>2011-04-19T09:32:30Z</time>
      </trkpt>
      <trkpt lat="32.321600234135985" lon="-1.308631673455238">
        <ele>1012.405517578125</ele>
        <time>2011-04-19T09:32:36Z</time>
      </trkpt>
      <trkpt lat="32.321134116500616" lon="-1.30776347592473">
        <ele>1012.405517578125</ele>
        <time>2011-04-19T09:32:43Z</time>
      </trkpt>
      <trkpt lat="32.320504048839211" lon="-1.306525636464357">
        <ele>1012.88623046875</ele>
        <time>2011-04-19T09:32:52Z</time>
      </trkpt>
      <trkpt lat="32.320158882066607" lon="-1.305393660441041">
        <ele>1013.847412109375</ele>
        <time>2011-04-19T09:32:59Z</time>
      </trkpt>
      <trkpt lat="32.319710198789835" lon="-1.303758518770337">
        <ele>1015.770263671875</ele>
        <time>2011-04-19T09:33:09Z</time>
      </trkpt>
      <trkpt lat="32.319317003712058" lon="-1.302181547507644">
        <ele>1016.7314453125</ele>
        <time>2011-04-19T09:33:19Z</time>
      </trkpt>
      <trkpt lat="32.31928825378418" lon="-1.301771253347397">
        <ele>1016.250732421875</ele>
        <time>2011-04-19T09:33:22Z</time>
      </trkpt>
      <trkpt lat="32.319309711456299" lon="-1.301212180405855">
        <ele>1016.7314453125</ele>
        <time>2011-04-19T09:33:26Z</time>
      </trkpt>
      <trkpt lat="32.319190185517073" lon="-1.300252452492714">
        <ele>1019.134765625</ele>
        <time>2011-04-19T09:33:33Z</time>
      </trkpt>
      <trkpt lat="32.318981224671006" lon="-1.298820488154888">
        <ele>1019.615478515625</ele>
        <time>2011-04-19T09:33:42Z</time>
      </trkpt>
      <trkpt lat="32.318569421768188" lon="-1.297282660380006">
        <ele>1015.28955078125</ele>
        <time>2011-04-19T09:33:51Z</time>
      </trkpt>
      <trkpt lat="32.318092491477728" lon="-1.295544086024165">
        <ele>1009.041015625</ele>
        <time>2011-04-19T09:34:01Z</time>
      </trkpt>
      <trkpt lat="32.31778722256422" lon="-1.293988740071654">
        <ele>1006.156982421875</ele>
        <time>2011-04-19T09:34:10Z</time>
      </trkpt>
      <trkpt lat="32.317458735778928" lon="-1.292667584493756">
        <ele>1004.234619140625</ele>
        <time>2011-04-19T09:34:18Z</time>
      </trkpt>
      <trkpt lat="32.317108372226357" lon="-1.29131767898798">
        <ele>1002.792236328125</ele>
        <time>2011-04-19T09:34:27Z</time>
      </trkpt>
      <trkpt lat="32.316854232922196" lon="-1.290112528949976">
        <ele>1003.753662109375</ele>
        <time>2011-04-19T09:34:36Z</time>
      </trkpt>
      <trkpt lat="32.316465647891164" lon="-1.289116842672229">
        <ele>1003.753662109375</ele>
        <time>2011-04-19T09:34:44Z</time>
      </trkpt>
      <trkpt lat="32.31627244502306" lon="-1.288428101688623">
        <ele>1003.27294921875</ele>
        <time>2011-04-19T09:34:49Z</time>
      </trkpt>
      <trkpt lat="32.31586835347116" lon="-1.287032347172499">
        <ele>1003.27294921875</ele>
        <time>2011-04-19T09:34:59Z</time>
      </trkpt>
      <trkpt lat="32.315825689584017" lon="-1.286875102669001">
        <ele>1003.27294921875</ele>
        <time>2011-04-19T09:35:00Z</time>
      </trkpt>
      <trkpt lat="32.315703900530934" lon="-1.285461327061057">
        <ele>1002.3115234375</ele>
        <time>2011-04-19T09:35:10Z</time>
      </trkpt>
      <trkpt lat="32.315394943580031" lon="-1.284386850893498">
        <ele>1005.19580078125</ele>
        <time>2011-04-19T09:35:18Z</time>
      </trkpt>
      <trkpt lat="32.315175421535969" lon="-1.283843452110887">
        <ele>1006.156982421875</ele>
        <time>2011-04-19T09:35:23Z</time>
      </trkpt>
      <trkpt lat="32.31487937271595" lon="-1.283225370571017">
        <ele>1006.156982421875</ele>
        <time>2011-04-19T09:35:31Z</time>
      </trkpt>
      <trkpt lat="32.314642751589417" lon="-1.282450379803777">
        <ele>1005.19580078125</ele>
        <time>2011-04-19T09:35:37Z</time>
      </trkpt>
      <trkpt lat="32.314377715811133" lon="-1.281678238883615">
        <ele>1003.27294921875</ele>
        <time>2011-04-19T09:35:44Z</time>
      </trkpt>
      <trkpt lat="32.314116954803467" lon="-1.280701160430908">
        <ele>1001.8310546875</ele>
        <time>2011-04-19T09:35:51Z</time>
      </trkpt>
      <trkpt lat="32.313655782490969" lon="-1.278955545276403">
        <ele>1000.86962890625</ele>
        <time>2011-04-19T09:36:02Z</time>
      </trkpt>
      <trkpt lat="32.313117412850261" lon="-1.277423668652773">
        <ele>999.427734375</ele>
        <time>2011-04-19T09:36:11Z</time>
      </trkpt>
      <trkpt lat="32.312704687938094" lon="-1.276253974065185">
        <ele>997.98583984375</ele>
        <time>2011-04-19T09:36:18Z</time>
      </trkpt>
      <trkpt lat="32.31221878901124" lon="-1.274959724396467">
        <ele>997.505126953125</ele>
        <time>2011-04-19T09:36:26Z</time>
      </trkpt>
      <trkpt lat="32.311673043295741" lon="-1.273649549111724">
        <ele>997.0244140625</ele>
        <time>2011-04-19T09:36:34Z</time>
      </trkpt>
      <trkpt lat="32.311158059164882" lon="-1.272210292518139">
        <ele>1000.38916015625</ele>
        <time>2011-04-19T09:36:43Z</time>
      </trkpt>
      <trkpt lat="32.310769557952881" lon="-1.271031964570284">
        <ele>1002.3115234375</ele>
        <time>2011-04-19T09:36:52Z</time>
      </trkpt>
      <trkpt lat="32.310758912935853" lon="-1.270038792863488">
        <ele>1003.27294921875</ele>
        <time>2011-04-19T09:36:58Z</time>
      </trkpt>
      <trkpt lat="32.310551963746548" lon="-1.268495516851544">
        <ele>1002.792236328125</ele>
        <time>2011-04-19T09:37:07Z</time>
      </trkpt>
      <trkpt lat="32.310435455292463" lon="-1.268050940707326">
        <ele>1002.792236328125</ele>
        <time>2011-04-19T09:37:10Z</time>
      </trkpt>
      <trkpt lat="32.31035029515624" lon="-1.267679873853922">
        <ele>1003.27294921875</ele>
        <time>2011-04-19T09:37:13Z</time>
      </trkpt>
      <trkpt lat="32.309889458119869" lon="-1.266576061025262">
        <ele>1002.792236328125</ele>
        <time>2011-04-19T09:37:21Z</time>
      </trkpt>
      <trkpt lat="32.309412024915218" lon="-1.265616668388248">
        <ele>1001.8310546875</ele>
        <time>2011-04-19T09:37:28Z</time>
      </trkpt>
      <trkpt lat="32.309302473440766" lon="-1.265155496075749">
        <ele>1001.8310546875</ele>
        <time>2011-04-19T09:37:31Z</time>
      </trkpt>
      <trkpt lat="32.309353351593018" lon="-1.264271624386311">
        <ele>1002.3115234375</ele>
        <time>2011-04-19T09:37:37Z</time>
      </trkpt>
      <trkpt lat="32.309868335723877" lon="-1.262677637860179">
        <ele>1000.38916015625</ele>
        <time>2011-04-19T09:37:49Z</time>
      </trkpt>
      <trkpt lat="32.30972483754158" lon="-1.261733500286937">
        <ele>1000.86962890625</ele>
        <time>2011-04-19T09:37:56Z</time>
      </trkpt>
      <trkpt lat="32.30952987447381" lon="-1.260542348027229">
        <ele>1002.3115234375</ele>
        <time>2011-04-19T09:38:04Z</time>
      </trkpt>
      <trkpt lat="32.309245057404041" lon="-1.259606340900064">
        <ele>1000.38916015625</ele>
        <time>2011-04-19T09:38:10Z</time>
      </trkpt>
      <trkpt lat="32.30871238745749" lon="-1.258428767323494">
        <ele>997.505126953125</ele>
        <time>2011-04-19T09:38:18Z</time>
      </trkpt>
      <trkpt lat="32.308648433536291" lon="-1.258305804803968">
        <ele>997.0244140625</ele>
        <time>2011-04-19T09:38:19Z</time>
      </trkpt>
      <trkpt lat="32.308562351390719" lon="-1.258072117343545">
        <ele>997.505126953125</ele>
        <time>2011-04-19T09:38:21Z</time>
      </trkpt>
      <trkpt lat="32.308317013084888" lon="-1.257722340524197">
        <ele>997.98583984375</ele>
        <time>2011-04-19T09:38:25Z</time>
      </trkpt>
      <trkpt lat="32.30816412717104" lon="-1.257243566215038">
        <ele>998.46630859375</ele>
        <time>2011-04-19T09:38:30Z</time>
      </trkpt>
      <trkpt lat="32.307945191860199" lon="-1.256326250731945">
        <ele>1004.234619140625</ele>
        <time>2011-04-19T09:38:39Z</time>
      </trkpt>
      <trkpt lat="32.307726675644517" lon="-1.255679251626134">
        <ele>1010.002197265625</ele>
        <time>2011-04-19T09:38:46Z</time>
      </trkpt>
      <trkpt lat="32.307591056451201" lon="-1.255354201421142">
        <ele>1011.925048828125</ele>
        <time>2011-04-19T09:38:50Z</time>
      </trkpt>
      <trkpt lat="32.30740774422884" lon="-1.254782471805811">
        <ele>1014.808837890625</ele>
        <time>2011-04-19T09:38:56Z</time>
      </trkpt>
      <trkpt lat="32.307186629623175" lon="-1.253947047516704">
        <ele>1016.7314453125</ele>
        <time>2011-04-19T09:39:04Z</time>
      </trkpt>
      <trkpt lat="32.306814892217517" lon="-1.252927053719759">
        <ele>1010.963623046875</ele>
        <time>2011-04-19T09:39:13Z</time>
      </trkpt>
      <trkpt lat="32.306544156745076" lon="-1.252415757626295">
        <ele>1006.6376953125</ele>
        <time>2011-04-19T09:39:18Z</time>
      </trkpt>
      <trkpt lat="32.306281719356775" lon="-1.25192005187273">
        <ele>1002.792236328125</ele>
        <time>2011-04-19T09:39:24Z</time>
      </trkpt>
      <trkpt lat="32.305973852053285" lon="-1.251545632258058">
        <ele>999.427734375</ele>
        <time>2011-04-19T09:39:29Z</time>
      </trkpt>
      <trkpt lat="32.305150162428617" lon="-1.250712890177965">
        <ele>995.58251953125</ele>
        <time>2011-04-19T09:39:39Z</time>
      </trkpt>
      <trkpt lat="32.305065672844648" lon="-1.250660084187985">
        <ele>995.101806640625</ele>
        <time>2011-04-19T09:39:40Z</time>
      </trkpt>
      <trkpt lat="32.304624952375889" lon="-1.250340649858117">
        <ele>991.256591796875</ele>
        <time>2011-04-19T09:39:46Z</time>
      </trkpt>
      <trkpt lat="32.304315576329827" lon="-1.249777972698212">
        <ele>991.256591796875</ele>
        <time>2011-04-19T09:39:53Z</time>
      </trkpt>
      <trkpt lat="32.304010391235352" lon="-1.249181013554335">
        <ele>989.333984375</ele>
        <time>2011-04-19T09:40:01Z</time>
      </trkpt>
      <trkpt lat="32.304048780351877" lon="-1.248978842049837">
        <ele>988.853515625</ele>
        <time>2011-04-19T09:40:03Z</time>
      </trkpt>
      <trkpt lat="32.304122373461723" lon="-1.248381044715643">
        <ele>987.891845703125</ele>
        <time>2011-04-19T09:40:10Z</time>
      </trkpt>
      <trkpt lat="32.303861863911152" lon="-1.248028082773089">
        <ele>988.372802734375</ele>
        <time>2011-04-19T09:40:16Z</time>
      </trkpt>
      <trkpt lat="32.303713839501143" lon="-1.247788947075605">
        <ele>987.4111328125</ele>
        <time>2011-04-19T09:40:21Z</time>
      </trkpt>
      <trkpt lat="32.30345718562603" lon="-1.247521145269275">
        <ele>987.4111328125</ele>
        <time>2011-04-19T09:40:25Z</time>
      </trkpt>
      <trkpt lat="32.303190641105175" lon="-1.247067265212536">
        <ele>986.449951171875</ele>
        <time>2011-04-19T09:40:31Z</time>
      </trkpt>
      <trkpt lat="32.302765594795346" lon="-1.246293447911739">
        <ele>986.449951171875</ele>
        <time>2011-04-19T09:40:39Z</time>
      </trkpt>
      <trkpt lat="32.302185818552971" lon="-1.245495406910777">
        <ele>985.488525390625</ele>
        <time>2011-04-19T09:40:48Z</time>
      </trkpt>
      <trkpt lat="32.301567234098911" lon="-1.244946476072073">
        <ele>985.488525390625</ele>
        <time>2011-04-19T09:40:57Z</time>
      </trkpt>
      <trkpt lat="32.301384173333645" lon="-1.244891490787268">
        <ele>984.046630859375</ele>
        <time>2011-04-19T09:41:00Z</time>
      </trkpt>
      <trkpt lat="32.301002210006118" lon="-1.244889311492443">
        <ele>983.085205078125</ele>
        <time>2011-04-19T09:41:05Z</time>
      </trkpt>
      <trkpt lat="32.300185561180115" lon="-1.245113695040345">
        <ele>980.68212890625</ele>
        <time>2011-04-19T09:41:15Z</time>
      </trkpt>
      <trkpt lat="32.299870317801833" lon="-1.245303293690085">
        <ele>978.27880859375</ele>
        <time>2011-04-19T09:41:19Z</time>
      </trkpt>
      <trkpt lat="32.299626991152763" lon="-1.245434051379561">
        <ele>975.87548828125</ele>
        <time>2011-04-19T09:41:22Z</time>
      </trkpt>
      <trkpt lat="32.299278387799859" lon="-1.245473446324468">
        <ele>973.952880859375</ele>
        <time>2011-04-19T09:41:26Z</time>
      </trkpt>
      <trkpt lat="32.298937663435936" lon="-1.245532035827637">
        <ele>973.472412109375</ele>
        <time>2011-04-19T09:41:30Z</time>
      </trkpt>
      <trkpt lat="32.298245904967189" lon="-1.245428016409278">
        <ele>972.99169921875</ele>
        <time>2011-04-19T09:41:38Z</time>
      </trkpt>
      <trkpt lat="32.297469908371568" lon="-1.24536213465035">
        <ele>974.43359375</ele>
        <time>2011-04-19T09:41:46Z</time>
      </trkpt>
      <trkpt lat="32.296347739174962" lon="-1.245238585397601">
        <ele>973.472412109375</ele>
        <time>2011-04-19T09:41:55Z</time>
      </trkpt>
      <trkpt lat="32.294973861426115" lon="-1.245145797729492">
        <ele>972.510986328125</ele>
        <time>2011-04-19T09:42:07Z</time>
      </trkpt>
      <trkpt lat="32.294165762141347" lon="-1.245323242619634">
        <ele>971.54931640625</ele>
        <time>2011-04-19T09:42:15Z</time>
      </trkpt>
      <trkpt lat="32.293951604515314" lon="-1.245377473533154">
        <ele>971.54931640625</ele>
        <time>2011-04-19T09:42:17Z</time>
      </trkpt>
      <trkpt lat="32.293039401993155" lon="-1.245524408295751">
        <ele>974.43359375</ele>
        <time>2011-04-19T09:42:25Z</time>
      </trkpt>
      <trkpt lat="32.292051762342453" lon="-1.245725154876709">
        <ele>976.356201171875</ele>
        <time>2011-04-19T09:42:34Z</time>
      </trkpt>
      <trkpt lat="32.291212985292077" lon="-1.245885416865349">
        <ele>975.394775390625</ele>
        <time>2011-04-19T09:42:42Z</time>
      </trkpt>
      <trkpt lat="32.290486106649041" lon="-1.246132850646973">
        <ele>977.798095703125</ele>
        <time>2011-04-19T09:42:49Z</time>
      </trkpt>
      <trkpt lat="32.29032039642334" lon="-1.246132850646973">
        <ele>977.317626953125</ele>
        <time>2011-04-19T09:42:51Z</time>
      </trkpt>
      <trkpt lat="32.28996274061501" lon="-1.24593822285533">
        <ele>977.798095703125</ele>
        <time>2011-04-19T09:42:55Z</time>
      </trkpt>
      <trkpt lat="32.289138715714216" lon="-1.245797909796238">
        <ele>975.394775390625</ele>
        <time>2011-04-19T09:43:03Z</time>
      </trkpt>
      <trkpt lat="32.288275714963675" lon="-1.245725154876709">
        <ele>974.43359375</ele>
        <time>2011-04-19T09:43:10Z</time>
      </trkpt>
      <trkpt lat="32.287075594067574" lon="-1.245645107701421">
        <ele>972.99169921875</ele>
        <time>2011-04-19T09:43:20Z</time>
      </trkpt>
      <trkpt lat="32.286994457244873" lon="-1.245596408843994">
        <ele>972.99169921875</ele>
        <time>2011-04-19T09:43:21Z</time>
      </trkpt>
      <trkpt lat="32.286551725119352" lon="-1.245258953422308">
        <ele>971.06884765625</ele>
        <time>2011-04-19T09:43:27Z</time>
      </trkpt>
      <trkpt lat="32.286117458716035" lon="-1.245218301191926">
        <ele>969.146240234375</ele>
        <time>2011-04-19T09:43:32Z</time>
      </trkpt>
      <trkpt lat="32.285843957215548" lon="-1.245307065546513">
        <ele>970.107421875</ele>
        <time>2011-04-19T09:43:35Z</time>
      </trkpt>
      <trkpt lat="32.285117330029607" lon="-1.245682239532471">
        <ele>968.184814453125</ele>
        <time>2011-04-19T09:43:44Z</time>
      </trkpt>
      <trkpt lat="32.28470410220325" lon="-1.245704451575875">
        <ele>968.66552734375</ele>
        <time>2011-04-19T09:43:49Z</time>
      </trkpt>
      <trkpt lat="32.284350469708443" lon="-1.245756251737475">
        <ele>969.146240234375</ele>
        <time>2011-04-19T09:43:53Z</time>
      </trkpt>
      <trkpt lat="32.283962806686759" lon="-1.245846943929792">
        <ele>971.54931640625</ele>
        <time>2011-04-19T09:43:57Z</time>
      </trkpt>
      <trkpt lat="32.2830247040838" lon="-1.246415069326758">
        <ele>972.99169921875</ele>
        <time>2011-04-19T09:44:06Z</time>
      </trkpt>
      <trkpt lat="32.28205575607717" lon="-1.247159549966455">
        <ele>973.952880859375</ele>
        <time>2011-04-19T09:44:16Z</time>
      </trkpt>
      <trkpt lat="32.281383443623781" lon="-1.247659362852573">
        <ele>972.99169921875</ele>
        <time>2011-04-19T09:44:23Z</time>
      </trkpt>
      <trkpt lat="32.280167480930686" lon="-1.248085079714656">
        <ele>971.06884765625</ele>
        <time>2011-04-19T09:44:33Z</time>
      </trkpt>
      <trkpt lat="32.279840419068933" lon="-1.248242659494281">
        <ele>970.588134765625</ele>
        <time>2011-04-19T09:44:36Z</time>
      </trkpt>
      <trkpt lat="32.279453258961439" lon="-1.248401496559382">
        <ele>970.107421875</ele>
        <time>2011-04-19T09:44:40Z</time>
      </trkpt>
      <trkpt lat="32.279247483238578" lon="-1.248450530692935">
        <ele>969.626953125</ele>
        <time>2011-04-19T09:44:42Z</time>
      </trkpt>
      <trkpt lat="32.27905604057014" lon="-1.248477855697274">
        <ele>969.626953125</ele>
        <time>2011-04-19T09:44:44Z</time>
      </trkpt>
      <trkpt lat="32.278404515236616" lon="-1.24875420704484">
        <ele>968.184814453125</ele>
        <time>2011-04-19T09:44:51Z</time>
      </trkpt>
      <trkpt lat="32.278315331786871" lon="-1.248799301683903">
        <ele>968.184814453125</ele>
        <time>2011-04-19T09:44:52Z</time>
      </trkpt>
      <trkpt lat="32.277932362630963" lon="-1.248973812907934">
        <ele>968.184814453125</ele>
        <time>2011-04-19T09:44:56Z</time>
      </trkpt>
      <trkpt lat="32.276980094611645" lon="-1.249412773177028">
        <ele>968.66552734375</ele>
        <time>2011-04-19T09:45:05Z</time>
      </trkpt>
      <trkpt lat="32.27594593539834" lon="-1.250042757019401">
        <ele>967.7041015625</ele>
        <time>2011-04-19T09:45:15Z</time>
      </trkpt>
      <trkpt lat="32.275238754227757" lon="-1.250123977661133">
        <ele>968.66552734375</ele>
        <time>2011-04-19T09:45:21Z</time>
      </trkpt>
      <trkpt lat="32.273960849270225" lon="-1.250280048698187">
        <ele>969.626953125</ele>
        <time>2011-04-19T09:45:31Z</time>
      </trkpt>
      <trkpt lat="32.273009670898318" lon="-1.250570984557271">
        <ele>968.66552734375</ele>
        <time>2011-04-19T09:45:39Z</time>
      </trkpt>
      <trkpt lat="32.272551348432899" lon="-1.25078346580267">
        <ele>968.66552734375</ele>
        <time>2011-04-19T09:45:43Z</time>
      </trkpt>
      <trkpt lat="32.272243816405535" lon="-1.250887820497155">
        <ele>968.66552734375</ele>
        <time>2011-04-19T09:45:46Z</time>
      </trkpt>
      <trkpt lat="32.27187174372375" lon="-1.251081442460418">
        <ele>968.184814453125</ele>
        <time>2011-04-19T09:45:50Z</time>
      </trkpt>
      <trkpt lat="32.271555913612247" lon="-1.251163920387626">
        <ele>967.7041015625</ele>
        <time>2011-04-19T09:45:53Z</time>
      </trkpt>
      <trkpt lat="32.270920900627971" lon="-1.25146608799696">
        <ele>967.2236328125</ele>
        <time>2011-04-19T09:46:00Z</time>
      </trkpt>
      <trkpt lat="32.270114058628678" lon="-1.251815278083086">
        <ele>967.2236328125</ele>
        <time>2011-04-19T09:46:08Z</time>
      </trkpt>
      <trkpt lat="32.269152738153934" lon="-1.252263877540827">
        <ele>966.742919921875</ele>
        <time>2011-04-19T09:46:17Z</time>
      </trkpt>
      <trkpt lat="32.268141377717257" lon="-1.25264123082161">
        <ele>965.78173828125</ele>
        <time>2011-04-19T09:46:26Z</time>
      </trkpt>
      <trkpt lat="32.267210986465216" lon="-1.253074323758483">
        <ele>966.26220703125</ele>
        <time>2011-04-19T09:46:34Z</time>
      </trkpt>
      <trkpt lat="32.267019208520651" lon="-1.253185719251633">
        <ele>966.742919921875</ele>
        <time>2011-04-19T09:46:36Z</time>
      </trkpt>
      <trkpt lat="32.266761213541031" lon="-1.253458298742771">
        <ele>966.742919921875</ele>
        <time>2011-04-19T09:46:40Z</time>
      </trkpt>
      <trkpt lat="32.266430547460914" lon="-1.253548236563802">
        <ele>966.742919921875</ele>
        <time>2011-04-19T09:46:45Z</time>
      </trkpt>
      <trkpt lat="32.265802072361112" lon="-1.25377438031137">
        <ele>966.26220703125</ele>
        <time>2011-04-19T09:46:52Z</time>
      </trkpt>
      <trkpt lat="32.265248782932758" lon="-1.254081325605512">
        <ele>966.26220703125</ele>
        <time>2011-04-19T09:46:58Z</time>
      </trkpt>
      <trkpt lat="32.264552414417267" lon="-1.254362035542727">
        <ele>967.2236328125</ele>
        <time>2011-04-19T09:47:05Z</time>
      </trkpt>
      <trkpt lat="32.264109933748841" lon="-1.254633273929358">
        <ele>967.7041015625</ele>
        <time>2011-04-19T09:47:09Z</time>
      </trkpt>
      <trkpt lat="32.263830984011292" lon="-1.254762271419168">
        <ele>967.7041015625</ele>
        <time>2011-04-19T09:47:12Z</time>
      </trkpt>
      <trkpt lat="32.262935545295477" lon="-1.255207853391767">
        <ele>968.184814453125</ele>
        <time>2011-04-19T09:47:21Z</time>
      </trkpt>
      <trkpt lat="32.262557186186314" lon="-1.255443971604109">
        <ele>968.66552734375</ele>
        <time>2011-04-19T09:47:25Z</time>
      </trkpt>
      <trkpt lat="32.261972464621067" lon="-1.25613447278738">
        <ele>969.146240234375</ele>
        <time>2011-04-19T09:47:33Z</time>
      </trkpt>
      <trkpt lat="32.261273581534624" lon="-1.256921701133251">
        <ele>969.146240234375</ele>
        <time>2011-04-19T09:47:41Z</time>
      </trkpt>
      <trkpt lat="32.260543182492256" lon="-1.257882686331868">
        <ele>971.54931640625</ele>
        <time>2011-04-19T09:47:50Z</time>
      </trkpt>
      <trkpt lat="32.25975913926959" lon="-1.258887005969882">
        <ele>973.472412109375</ele>
        <time>2011-04-19T09:47:59Z</time>
      </trkpt>
      <trkpt lat="32.258942993357778" lon="-1.259976318106055">
        <ele>975.394775390625</ele>
        <time>2011-04-19T09:48:09Z</time>
      </trkpt>
      <trkpt lat="32.258369503542781" lon="-1.260879132896662">
        <ele>976.8369140625</ele>
        <time>2011-04-19T09:48:18Z</time>
      </trkpt>
      <trkpt lat="32.257883939892054" lon="-1.261546164751053">
        <ele>978.27880859375</ele>
        <time>2011-04-19T09:48:25Z</time>
      </trkpt>
      <trkpt lat="32.25696855224669" lon="-1.262863045558333">
        <ele>979.720703125</ele>
        <time>2011-04-19T09:48:36Z</time>
      </trkpt>
      <trkpt lat="32.256187191233039" lon="-1.26391489058733">
        <ele>978.759521484375</ele>
        <time>2011-04-19T09:48:45Z</time>
      </trkpt>
      <trkpt lat="32.25507415831089" lon="-1.265171002596617">
        <ele>977.317626953125</ele>
        <time>2011-04-19T09:48:56Z</time>
      </trkpt>
      <trkpt lat="32.254339568316936" lon="-1.26606241799891">
        <ele>975.394775390625</ele>
        <time>2011-04-19T09:49:04Z</time>
      </trkpt>
      <trkpt lat="32.254153741523623" lon="-1.266444297507405">
        <ele>974.43359375</ele>
        <time>2011-04-19T09:49:07Z</time>
      </trkpt>
      <trkpt lat="32.253462905064225" lon="-1.267335880547762">
        <ele>972.99169921875</ele>
        <time>2011-04-19T09:49:15Z</time>
      </trkpt>
      <trkpt lat="32.25293492898345" lon="-1.268054042011499">
        <ele>972.510986328125</ele>
        <time>2011-04-19T09:49:22Z</time>
      </trkpt>
      <trkpt lat="32.252551876008511" lon="-1.268392000347376">
        <ele>971.54931640625</ele>
        <time>2011-04-19T09:49:27Z</time>
      </trkpt>
      <trkpt lat="32.251297188922763" lon="-1.268690228462219">
        <ele>968.184814453125</ele>
        <time>2011-04-19T09:49:38Z</time>
      </trkpt>
      <trkpt lat="32.250991249457002" lon="-1.268943278118968">
        <ele>964.8203125</ele>
        <time>2011-04-19T09:49:44Z</time>
      </trkpt>
      <trkpt lat="32.250872310250998" lon="-1.26940855756402">
        <ele>966.742919921875</ele>
        <time>2011-04-19T09:49:49Z</time>
      </trkpt>
      <trkpt lat="32.250484731048346" lon="-1.269930247217417">
        <ele>966.26220703125</ele>
        <time>2011-04-19T09:49:55Z</time>
      </trkpt>
      <trkpt lat="32.249937811866403" lon="-1.270259656012058">
        <ele>966.742919921875</ele>
        <time>2011-04-19T09:50:02Z</time>
      </trkpt>
      <trkpt lat="32.249726001173258" lon="-1.270419918000698">
        <ele>966.742919921875</ele>
        <time>2011-04-19T09:50:05Z</time>
      </trkpt>
      <trkpt lat="32.249492397531867" lon="-1.270653018727899">
        <ele>966.26220703125</ele>
        <time>2011-04-19T09:50:09Z</time>
      </trkpt>
      <trkpt lat="32.249311096966267" lon="-1.270806659013033">
        <ele>966.26220703125</ele>
        <time>2011-04-19T09:50:12Z</time>
      </trkpt>
      <trkpt lat="32.249121414497495" lon="-1.270929537713528">
        <ele>966.26220703125</ele>
        <time>2011-04-19T09:50:15Z</time>
      </trkpt>
      <trkpt lat="32.248610286042094" lon="-1.271354584023356">
        <ele>966.742919921875</ele>
        <time>2011-04-19T09:50:23Z</time>
      </trkpt>
      <trkpt lat="32.247789865359664" lon="-1.27183704636991">
        <ele>968.184814453125</ele>
        <time>2011-04-19T09:50:33Z</time>
      </trkpt>
      <trkpt lat="32.246950585395098" lon="-1.272417409345508">
        <ele>969.626953125</ele>
        <time>2011-04-19T09:50:42Z</time>
      </trkpt>
      <trkpt lat="32.246705750003457" lon="-1.272570714354515">
        <ele>969.146240234375</ele>
        <time>2011-04-19T09:50:45Z</time>
      </trkpt>
      <trkpt lat="32.245991108939052" lon="-1.272867433726788">
        <ele>969.146240234375</ele>
        <time>2011-04-19T09:50:54Z</time>
      </trkpt>
      <trkpt lat="32.245240090414882" lon="-1.273205727338791">
        <ele>971.54931640625</ele>
        <time>2011-04-19T09:51:01Z</time>
      </trkpt>
      <trkpt lat="32.244372814893723" lon="-1.273731775581837">
        <ele>967.7041015625</ele>
        <time>2011-04-19T09:51:10Z</time>
      </trkpt>
      <trkpt lat="32.243411829695106" lon="-1.27425380051136">
        <ele>963.85888671875</ele>
        <time>2011-04-19T09:51:19Z</time>
      </trkpt>
      <trkpt lat="32.242931881919503" lon="-1.274612043052912">
        <ele>961.455810546875</ele>
        <time>2011-04-19T09:51:24Z</time>
      </trkpt>
      <trkpt lat="32.242637258023024" lon="-1.274753110483289">
        <ele>959.533203125</ele>
        <time>2011-04-19T09:51:27Z</time>
      </trkpt>
      <trkpt lat="32.24223492667079" lon="-1.274938266724348">
        <ele>959.052490234375</ele>
        <time>2011-04-19T09:51:31Z</time>
      </trkpt>
      <trkpt lat="32.241561356931925" lon="-1.275389045476914">
        <ele>956.649169921875</ele>
        <time>2011-04-19T09:51:39Z</time>
      </trkpt>
      <trkpt lat="32.240791646763682" lon="-1.27576706930995">
        <ele>961.455810546875</ele>
        <time>2011-04-19T09:51:46Z</time>
      </trkpt>
      <trkpt lat="32.239793697372079" lon="-1.276465198025107">
        <ele>963.37841796875</ele>
        <time>2011-04-19T09:51:55Z</time>
      </trkpt>
      <trkpt lat="32.239418523386121" lon="-1.276757894083858">
        <ele>963.37841796875</ele>
        <time>2011-04-19T09:51:59Z</time>
      </trkpt>
      <trkpt lat="32.238672114908695" lon="-1.277224849909544">
        <ele>962.897705078125</ele>
        <time>2011-04-19T09:52:06Z</time>
      </trkpt>
      <trkpt lat="32.237665029242635" lon="-1.277966480702162">
        <ele>964.339599609375</ele>
        <time>2011-04-19T09:52:15Z</time>
      </trkpt>
      <trkpt lat="32.236846368759871" lon="-1.278739543631673">
        <ele>968.66552734375</ele>
        <time>2011-04-19T09:52:23Z</time>
      </trkpt>
      <trkpt lat="32.236675126478076" lon="-1.278908271342516">
        <ele>969.146240234375</ele>
        <time>2011-04-19T09:52:25Z</time>
      </trkpt>
      <trkpt lat="32.236132901161909" lon="-1.279006004333496">
        <ele>969.146240234375</ele>
        <time>2011-04-19T09:52:31Z</time>
      </trkpt>
      <trkpt lat="32.235326394438744" lon="-1.279358128085733">
        <ele>969.626953125</ele>
        <time>2011-04-19T09:52:39Z</time>
      </trkpt>
      <trkpt lat="32.234344286844134" lon="-1.279988447204232">
        <ele>968.66552734375</ele>
        <time>2011-04-19T09:52:47Z</time>
      </trkpt>
      <trkpt lat="32.233235444873571" lon="-1.28071348182857">
        <ele>967.2236328125</ele>
        <time>2011-04-19T09:52:56Z</time>
      </trkpt>
      <trkpt lat="32.232791287824512" lon="-1.281015565618873">
        <ele>966.26220703125</ele>
        <time>2011-04-19T09:53:00Z</time>
      </trkpt>
      <trkpt lat="32.232384933158755" lon="-1.281275572255254">
        <ele>965.78173828125</ele>
        <time>2011-04-19T09:53:04Z</time>
      </trkpt>
      <trkpt lat="32.231525033712387" lon="-1.281623002141714">
        <ele>967.7041015625</ele>
        <time>2011-04-19T09:53:11Z</time>
      </trkpt>
      <trkpt lat="32.230664379894733" lon="-1.282249884679914">
        <ele>965.301025390625</ele>
        <time>2011-04-19T09:53:18Z</time>
      </trkpt>
      <trkpt lat="32.229887880384922" lon="-1.282818848267198">
        <ele>963.37841796875</ele>
        <time>2011-04-19T09:53:25Z</time>
      </trkpt>
      <trkpt lat="32.228870484977961" lon="-1.283481856808066">
        <ele>960.494384765625</ele>
        <time>2011-04-19T09:53:34Z</time>
      </trkpt>
      <trkpt lat="32.228121729567647" lon="-1.283982424065471">
        <ele>958.57177734375</ele>
        <time>2011-04-19T09:53:41Z</time>
      </trkpt>
      <trkpt lat="32.227432150393724" lon="-1.284409230574966">
        <ele>957.610595703125</ele>
        <time>2011-04-19T09:53:48Z</time>
      </trkpt>
      <trkpt lat="32.22659831866622" lon="-1.285009291023016">
        <ele>956.649169921875</ele>
        <time>2011-04-19T09:53:57Z</time>
      </trkpt>
      <trkpt lat="32.226400254294276" lon="-1.285095373168588">
        <ele>957.610595703125</ele>
        <time>2011-04-19T09:53:59Z</time>
      </trkpt>
      <trkpt lat="32.225900860503316" lon="-1.285503068938851">
        <ele>957.1298828125</ele>
        <time>2011-04-19T09:54:05Z</time>
      </trkpt>
      <trkpt lat="32.225696928799152" lon="-1.285639023408294">
        <ele>957.1298828125</ele>
        <time>2011-04-19T09:54:07Z</time>
      </trkpt>
      <trkpt lat="32.224404104053974" lon="-1.286431448534131">
        <ele>954.726318359375</ele>
        <time>2011-04-19T09:54:19Z</time>
      </trkpt>
      <trkpt lat="32.22320188768208" lon="-1.287126308307052">
        <ele>951.842529296875</ele>
        <time>2011-04-19T09:54:29Z</time>
      </trkpt>
      <trkpt lat="32.222240902483463" lon="-1.287699462845922">
        <ele>947.997314453125</ele>
        <time>2011-04-19T09:54:37Z</time>
      </trkpt>
      <trkpt lat="32.221443867310882" lon="-1.288142865523696">
        <ele>946.07470703125</ele>
        <time>2011-04-19T09:54:44Z</time>
      </trkpt>
      <trkpt lat="32.220610119402409" lon="-1.288527091965079">
        <ele>944.632568359375</ele>
        <time>2011-04-19T09:54:51Z</time>
      </trkpt>
      <trkpt lat="32.219804618507624" lon="-1.288948282599449">
        <ele>942.710205078125</ele>
        <time>2011-04-19T09:54:58Z</time>
      </trkpt>
      <trkpt lat="32.218962069600821" lon="-1.289470139890909">
        <ele>941.26806640625</ele>
        <time>2011-04-19T09:55:06Z</time>
      </trkpt>
      <trkpt lat="32.218593768775463" lon="-1.289764093235135">
        <ele>939.34521484375</ele>
        <time>2011-04-19T09:55:10Z</time>
      </trkpt>
      <trkpt lat="32.218053806573153" lon="-1.290076402947307">
        <ele>937.9033203125</ele>
        <time>2011-04-19T09:55:15Z</time>
      </trkpt>
      <trkpt lat="32.216950496658683" lon="-1.29070982336998">
        <ele>936.46142578125</ele>
        <time>2011-04-19T09:55:24Z</time>
      </trkpt>
      <trkpt lat="32.215947769582272" lon="-1.291461093351245">
        <ele>933.577392578125</ele>
        <time>2011-04-19T09:55:33Z</time>
      </trkpt>
      <trkpt lat="32.215866381302476" lon="-1.291554132476449">
        <ele>933.0966796875</ele>
        <time>2011-04-19T09:55:34Z</time>
      </trkpt>
      <trkpt lat="32.215726152062416" lon="-1.291739456355572">
        <ele>931.65478515625</ele>
        <time>2011-04-19T09:55:36Z</time>
      </trkpt>
      <trkpt lat="32.215217789635062" lon="-1.291999630630016">
        <ele>929.25146484375</ele>
        <time>2011-04-19T09:55:42Z</time>
      </trkpt>
      <trkpt lat="32.214989298954606" lon="-1.291987895965576">
        <ele>928.290283203125</ele>
        <time>2011-04-19T09:55:44Z</time>
      </trkpt>
      <trkpt lat="32.214127890765667" lon="-1.292358711361885">
        <ele>924.445068359375</ele>
        <time>2011-04-19T09:55:52Z</time>
      </trkpt>
      <trkpt lat="32.213078225031495" lon="-1.292750397697091">
        <ele>922.04150390625</ele>
        <time>2011-04-19T09:56:00Z</time>
      </trkpt>
      <trkpt lat="32.212285883724689" lon="-1.292910575866699">
        <ele>920.599609375</ele>
        <time>2011-04-19T09:56:06Z</time>
      </trkpt>
      <trkpt lat="32.211814736947417" lon="-1.292928429320455">
        <ele>919.638427734375</ele>
        <time>2011-04-19T09:56:10Z</time>
      </trkpt>
      <trkpt lat="32.21101887524128" lon="-1.293072598055005">
        <ele>918.1962890625</ele>
        <time>2011-04-19T09:56:17Z</time>
      </trkpt>
      <trkpt lat="32.210435746237636" lon="-1.293184496462345">
        <ele>916.75439453125</ele>
        <time>2011-04-19T09:56:22Z</time>
      </trkpt>
      <trkpt lat="32.209584480151534" lon="-1.293421955779195">
        <ele>915.793212890625</ele>
        <time>2011-04-19T09:56:29Z</time>
      </trkpt>
      <trkpt lat="32.208309760317206" lon="-1.293715238571167">
        <ele>914.35107421875</ele>
        <time>2011-04-19T09:56:39Z</time>
      </trkpt>
      <trkpt lat="32.20723444595933" lon="-1.294041713699698">
        <ele>912.9091796875</ele>
        <time>2011-04-19T09:56:49Z</time>
      </trkpt>
      <trkpt lat="32.206507232040167" lon="-1.294389143586159">
        <ele>912.9091796875</ele>
        <time>2011-04-19T09:56:56Z</time>
      </trkpt>
      <trkpt lat="32.20553744584322" lon="-1.29490521736443">
        <ele>912.428466796875</ele>
        <time>2011-04-19T09:57:05Z</time>
      </trkpt>
      <trkpt lat="32.204588698223233" lon="-1.295299082994461">
        <ele>911.46728515625</ele>
        <time>2011-04-19T09:57:14Z</time>
      </trkpt>
      <trkpt lat="32.203298388049006" lon="-1.295837452635169">
        <ele>910.986572265625</ele>
        <time>2011-04-19T09:57:25Z</time>
      </trkpt>
      <trkpt lat="32.202654238790274" lon="-1.296169795095921">
        <ele>910.986572265625</ele>
        <time>2011-04-19T09:57:31Z</time>
      </trkpt>
      <trkpt lat="32.201757794246078" lon="-1.296488391235471">
        <ele>910.505859375</ele>
        <time>2011-04-19T09:57:39Z</time>
      </trkpt>
      <trkpt lat="32.200577454641461" lon="-1.297074621543288">
        <ele>911.46728515625</ele>
        <time>2011-04-19T09:57:49Z</time>
      </trkpt>
      <trkpt lat="32.199727864935994" lon="-1.297569656744599">
        <ele>912.428466796875</ele>
        <time>2011-04-19T09:57:57Z</time>
      </trkpt>
      <trkpt lat="32.198744080960751" lon="-1.297970563173294">
        <ele>912.428466796875</ele>
        <time>2011-04-19T09:58:06Z</time>
      </trkpt>
      <trkpt lat="32.197804134339094" lon="-1.29841991700232">
        <ele>911.947998046875</ele>
        <time>2011-04-19T09:58:14Z</time>
      </trkpt>
      <trkpt lat="32.196905678138137" lon="-1.29888410679996">
        <ele>912.428466796875</ele>
        <time>2011-04-19T09:58:22Z</time>
      </trkpt>
      <trkpt lat="32.195911668241024" lon="-1.299501350149512">
        <ele>911.947998046875</ele>
        <time>2011-04-19T09:58:31Z</time>
      </trkpt>
      <trkpt lat="32.195587623864412" lon="-1.299669910222292">
        <ele>911.46728515625</ele>
        <time>2011-04-19T09:58:34Z</time>
      </trkpt>
      <trkpt lat="32.19505394808948" lon="-1.299892198294401">
        <ele>911.947998046875</ele>
        <time>2011-04-19T09:58:39Z</time>
      </trkpt>
      <trkpt lat="32.194294882938266" lon="-1.300075175240636">
        <ele>910.025146484375</ele>
        <time>2011-04-19T09:58:46Z</time>
      </trkpt>
      <trkpt lat="32.193439425900578" lon="-1.300477674230933">
        <ele>909.544677734375</ele>
        <time>2011-04-19T09:58:53Z</time>
      </trkpt>
      <trkpt lat="32.192430160939693" lon="-1.300996681675315">
        <ele>908.583251953125</ele>
        <time>2011-04-19T09:59:01Z</time>
      </trkpt>
      <trkpt lat="32.191339507699013" lon="-1.301496997475624">
        <ele>908.102783203125</ele>
        <time>2011-04-19T09:59:09Z</time>
      </trkpt>
      <trkpt lat="32.189679555594921" lon="-1.302270730957389">
        <ele>906.660400390625</ele>
        <time>2011-04-19T09:59:21Z</time>
      </trkpt>
      <trkpt lat="32.187990769743919" lon="-1.302973302081227">
        <ele>904.73779296875</ele>
        <time>2011-04-19T09:59:33Z</time>
      </trkpt>
      <trkpt lat="32.187180910259485" lon="-1.303395414724946">
        <ele>904.25732421875</ele>
        <time>2011-04-19T09:59:40Z</time>
      </trkpt>
      <trkpt lat="32.186557883396745" lon="-1.303732786327601">
        <ele>903.776611328125</ele>
        <time>2011-04-19T09:59:46Z</time>
      </trkpt>
      <trkpt lat="32.185559598729014" lon="-1.304319268092513">
        <ele>903.776611328125</ele>
        <time>2011-04-19T09:59:54Z</time>
      </trkpt>
      <trkpt lat="32.184470538049936" lon="-1.304730484262109">
        <ele>902.815185546875</ele>
        <time>2011-04-19T10:00:02Z</time>
      </trkpt>
      <trkpt lat="32.183033376932144" lon="-1.305334148928523">
        <ele>901.373291015625</ele>
        <time>2011-04-19T10:00:13Z</time>
      </trkpt>
      <trkpt lat="32.182037690654397" lon="-1.30563547834754">
        <ele>900.412109375</ele>
        <time>2011-04-19T10:00:21Z</time>
      </trkpt>
      <trkpt lat="32.180783422663808" lon="-1.305755255743861">
        <ele>902.33447265625</ele>
        <time>2011-04-19T10:00:30Z</time>
      </trkpt>
      <trkpt lat="32.179949171841145" lon="-1.305880900472403">
        <ele>902.33447265625</ele>
        <time>2011-04-19T10:00:37Z</time>
      </trkpt>
      <trkpt lat="32.178765730932355" lon="-1.305986512452364">
        <ele>902.815185546875</ele>
        <time>2011-04-19T10:00:46Z</time>
      </trkpt>
      <trkpt lat="32.17753023840487" lon="-1.305991290137172">
        <ele>900.892578125</ele>
        <time>2011-04-19T10:00:55Z</time>
      </trkpt>
      <trkpt lat="32.177061606198549" lon="-1.305911326780915">
        <ele>900.412109375</ele>
        <time>2011-04-19T10:00:59Z</time>
      </trkpt>
      <trkpt lat="32.17649239115417" lon="-1.305447220802307">
        <ele>898.4892578125</ele>
        <time>2011-04-19T10:01:05Z</time>
      </trkpt>
      <trkpt lat="32.176203466951847" lon="-1.305264746770263">
        <ele>898.0087890625</ele>
        <time>2011-04-19T10:01:08Z</time>
      </trkpt>
      <trkpt lat="32.175761824473739" lon="-1.304997866973281">
        <ele>898.4892578125</ele>
        <time>2011-04-19T10:01:13Z</time>
      </trkpt>
      <trkpt lat="32.175281206145883" lon="-1.304721850901842">
        <ele>899.45068359375</ele>
        <time>2011-04-19T10:01:18Z</time>
      </trkpt>
      <trkpt lat="32.174052251502872" lon="-1.303985584527254">
        <ele>897.528076171875</ele>
        <time>2011-04-19T10:01:29Z</time>
      </trkpt>
      <trkpt lat="32.173185311257839" lon="-1.303521646186709">
        <ele>896.56689453125</ele>
        <time>2011-04-19T10:01:37Z</time>
      </trkpt>
      <trkpt lat="32.172401770949364" lon="-1.303343279287219">
        <ele>898.0087890625</ele>
        <time>2011-04-19T10:01:44Z</time>
      </trkpt>
      <trkpt lat="32.171602724120021" lon="-1.303245462477207">
        <ele>898.0087890625</ele>
        <time>2011-04-19T10:01:52Z</time>
      </trkpt>
      <trkpt lat="32.171212211251259" lon="-1.303322240710259">
        <ele>897.528076171875</ele>
        <time>2011-04-19T10:01:56Z</time>
      </trkpt>
      <trkpt lat="32.170328255742788" lon="-1.303653409704566">
        <ele>898.0087890625</ele>
        <time>2011-04-19T10:02:04Z</time>
      </trkpt>
      <trkpt lat="32.169293761253357" lon="-1.304018273949623">
        <ele>900.412109375</ele>
        <time>2011-04-19T10:02:13Z</time>
      </trkpt>
      <trkpt lat="32.16829220764339" lon="-1.304603414610028">
        <ele>901.85400390625</ele>
        <time>2011-04-19T10:02:22Z</time>
      </trkpt>
      <trkpt lat="32.167635066434741" lon="-1.30481505766511">
        <ele>900.892578125</ele>
        <time>2011-04-19T10:02:30Z</time>
      </trkpt>
      <trkpt lat="32.167102228850126" lon="-1.305876625701785">
        <ele>898.969970703125</ele>
        <time>2011-04-19T10:02:40Z</time>
      </trkpt>
      <trkpt lat="32.166871223598719" lon="-1.306003527715802">
        <ele>899.45068359375</ele>
        <time>2011-04-19T10:02:44Z</time>
      </trkpt>
      <trkpt lat="32.166724959388375" lon="-1.306161442771554">
        <ele>899.931396484375</ele>
        <time>2011-04-19T10:02:48Z</time>
      </trkpt>
      <trkpt lat="32.16620922088623" lon="-1.305999755859375">
        <ele>899.931396484375</ele>
        <time>2011-04-19T10:02:51Z</time>
      </trkpt>
      <trkpt lat="32.165817450731993" lon="-1.305891210213304">
        <ele>900.412109375</ele>
        <time>2011-04-19T10:03:05Z</time>
      </trkpt>
      <trkpt lat="32.16562089510262" lon="-1.305850893259049">
        <ele>899.931396484375</ele>
        <time>2011-04-19T10:03:10Z</time>
      </trkpt>
      <trkpt lat="32.165458202362061" lon="-1.30587100982666">
        <ele>899.931396484375</ele>
        <time>2011-04-19T10:03:14Z</time>
      </trkpt>
      <trkpt lat="32.165360637009144" lon="-1.305933203548193">
        <ele>901.85400390625</ele>
        <time>2011-04-19T10:03:19Z</time>
      </trkpt>
      <trkpt lat="32.164868535473943" lon="-1.306182229891419">
        <ele>902.815185546875</ele>
        <time>2011-04-19T10:03:28Z</time>
      </trkpt>
      <trkpt lat="32.164713218808174" lon="-1.306130429729819">
        <ele>902.815185546875</ele>
        <time>2011-04-19T10:03:30Z</time>
      </trkpt>
      <trkpt lat="32.163867317140102" lon="-1.305819042026997">
        <ele>905.218505859375</ele>
        <time>2011-04-19T10:03:40Z</time>
      </trkpt>
      <trkpt lat="32.163135660812259" lon="-1.305512515828013">
        <ele>905.218505859375</ele>
        <time>2011-04-19T10:03:48Z</time>
      </trkpt>
      <trkpt lat="32.16274187900126" lon="-1.305396258831024">
        <ele>904.73779296875</ele>
        <time>2011-04-19T10:03:55Z</time>
      </trkpt>
      <trkpt lat="32.162692090496421" lon="-1.30519618280232">
        <ele>904.25732421875</ele>
        <time>2011-04-19T10:04:10Z</time>
      </trkpt>
      <trkpt lat="32.162726791575551" lon="-1.305046565830708">
        <ele>903.776611328125</ele>
        <time>2011-04-19T10:04:21Z</time>
      </trkpt>
      <trkpt lat="32.162483045831323" lon="-1.305243959650397">
        <ele>904.25732421875</ele>
        <time>2011-04-19T10:04:33Z</time>
      </trkpt>
      <trkpt lat="32.16241892427206" lon="-1.304223798215389">
        <ele>903.2958984375</ele>
        <time>2011-04-19T10:04:43Z</time>
      </trkpt>
      <trkpt lat="32.162319431081414" lon="-1.303649889305234">
        <ele>902.815185546875</ele>
        <time>2011-04-19T10:04:54Z</time>
      </trkpt>
      <trkpt lat="32.162474580109119" lon="-1.303726332262158">
        <ele>903.2958984375</ele>
        <time>2011-04-19T10:06:18Z</time>
      </trkpt>
      <trkpt lat="32.162477849051356" lon="-1.303846780210733">
        <ele>903.2958984375</ele>
        <time>2011-04-19T10:06:20Z</time>
      </trkpt>
      <trkpt lat="32.162439543753862" lon="-1.304165041074157">
        <ele>903.2958984375</ele>
        <time>2011-04-19T10:06:25Z</time>
      </trkpt>
      <trkpt lat="32.162385480478406" lon="-1.305211521685123">
        <ele>903.776611328125</ele>
        <time>2011-04-19T10:06:32Z</time>
      </trkpt>
      <trkpt lat="32.162517495453358" lon="-1.305262399837375">
        <ele>905.218505859375</ele>
        <time>2011-04-19T10:06:36Z</time>
      </trkpt>
      <trkpt lat="32.162756295874715" lon="-1.305253934115171">
        <ele>906.1796875</ele>
        <time>2011-04-19T10:06:43Z</time>
      </trkpt>
      <trkpt lat="32.162621347233653" lon="-1.305297771468759">
        <ele>906.1796875</ele>
        <time>2011-04-19T10:06:53Z</time>
      </trkpt>
      <trkpt lat="32.162506598979235" lon="-1.305233733728528">
        <ele>905.218505859375</ele>
        <time>2011-04-19T10:06:57Z</time>
      </trkpt>
      <trkpt lat="32.162021789699793" lon="-1.305290814489126">
        <ele>902.815185546875</ele>
        <time>2011-04-19T10:07:05Z</time>
      </trkpt>
      <trkpt lat="32.161693805828691" lon="-1.305337753146887">
        <ele>901.85400390625</ele>
        <time>2011-04-19T10:07:10Z</time>
      </trkpt>
      <trkpt lat="32.161208409816027" lon="-1.305356025695801">
        <ele>902.815185546875</ele>
        <time>2011-04-19T10:07:16Z</time>
      </trkpt>
      <trkpt lat="32.160565182566643" lon="-1.305079255253077">
        <ele>902.815185546875</ele>
        <time>2011-04-19T10:07:23Z</time>
      </trkpt>
      <trkpt lat="32.159819193184376" lon="-1.304662171751261">
        <ele>900.892578125</ele>
        <time>2011-04-19T10:07:31Z</time>
      </trkpt>
      <trkpt lat="32.158978069201112" lon="-1.304127657786012">
        <ele>902.33447265625</ele>
        <time>2011-04-19T10:07:41Z</time>
      </trkpt>
      <trkpt lat="32.157833017408848" lon="-1.303454423323274">
        <ele>904.73779296875</ele>
        <time>2011-04-19T10:07:53Z</time>
      </trkpt>
      <trkpt lat="32.157489024102688" lon="-1.30317916162312">
        <ele>904.25732421875</ele>
        <time>2011-04-19T10:07:57Z</time>
      </trkpt>
      <trkpt lat="32.156759211793542" lon="-1.303128283470869">
        <ele>905.218505859375</ele>
        <time>2011-04-19T10:08:04Z</time>
      </trkpt>
      <trkpt lat="32.156566428020597" lon="-1.303212186321616">
        <ele>905.69921875</ele>
        <time>2011-04-19T10:08:06Z</time>
      </trkpt>
      <trkpt lat="32.156237186864018" lon="-1.303307320922613">
        <ele>905.69921875</ele>
        <time>2011-04-19T10:08:09Z</time>
      </trkpt>
      <trkpt lat="32.155172601342201" lon="-1.30330765619874">
        <ele>906.1796875</ele>
        <time>2011-04-19T10:08:18Z</time>
      </trkpt>
      <trkpt lat="32.153784306719899" lon="-1.303360462188721">
        <ele>907.621826171875</ele>
        <time>2011-04-19T10:08:30Z</time>
      </trkpt>
      <trkpt lat="32.153028259053826" lon="-1.30326515994966">
        <ele>907.621826171875</ele>
        <time>2011-04-19T10:08:38Z</time>
      </trkpt>
      <trkpt lat="32.152584437280893" lon="-1.303191566839814">
        <ele>908.102783203125</ele>
        <time>2011-04-19T10:08:45Z</time>
      </trkpt>
      <trkpt lat="32.152464408427477" lon="-1.302529312670231">
        <ele>906.660400390625</ele>
        <time>2011-04-19T10:12:40Z</time>
      </trkpt>
      <trkpt lat="32.152290567755699" lon="-1.301459278911352">
        <ele>905.218505859375</ele>
        <time>2011-04-19T10:12:47Z</time>
      </trkpt>
      <trkpt lat="32.152070961892605" lon="-1.299712490290403">
        <ele>903.2958984375</ele>
        <time>2011-04-19T10:12:56Z</time>
      </trkpt>
      <trkpt lat="32.151780193671584" lon="-1.297716004773974">
        <ele>904.73779296875</ele>
        <time>2011-04-19T10:13:05Z</time>
      </trkpt>
      <trkpt lat="32.151286331936717" lon="-1.294500958174467">
        <ele>906.1796875</ele>
        <time>2011-04-19T10:13:18Z</time>
      </trkpt>
      <trkpt lat="32.150744022801518" lon="-1.290899170562625">
        <ele>908.102783203125</ele>
        <time>2011-04-19T10:13:32Z</time>
      </trkpt>
      <trkpt lat="32.150258542969823" lon="-1.28746091388166">
        <ele>910.505859375</ele>
        <time>2011-04-19T10:13:45Z</time>
      </trkpt>
      <trkpt lat="32.149500986561179" lon="-1.282156091183424">
        <ele>910.025146484375</ele>
        <time>2011-04-19T10:14:05Z</time>
      </trkpt>
      <trkpt lat="32.148759020492435" lon="-1.277109598740935">
        <ele>908.583251953125</ele>
        <time>2011-04-19T10:14:24Z</time>
      </trkpt>
      <trkpt lat="32.148377560079098" lon="-1.274625873193145">
        <ele>910.986572265625</ele>
        <time>2011-04-19T10:14:34Z</time>
      </trkpt>
      <trkpt lat="32.147846315056086" lon="-1.271041771396995">
        <ele>910.986572265625</ele>
        <time>2011-04-19T10:14:49Z</time>
      </trkpt>
      <trkpt lat="32.147517073899508" lon="-1.268734149634838">
        <ele>910.025146484375</ele>
        <time>2011-04-19T10:15:00Z</time>
      </trkpt>
      <trkpt lat="32.147263018414378" lon="-1.267186012119055">
        <ele>910.505859375</ele>
        <time>2011-04-19T10:15:09Z</time>
      </trkpt>
      <trkpt lat="32.147119101136923" lon="-1.266191666945815">
        <ele>911.947998046875</ele>
        <time>2011-04-19T10:15:17Z</time>
      </trkpt>
      <trkpt lat="32.147002760320902" lon="-1.265478953719139">
        <ele>912.9091796875</ele>
        <time>2011-04-19T10:15:25Z</time>
      </trkpt>
      <trkpt lat="32.146807294338942" lon="-1.264062998816371">
        <ele>916.273681640625</ele>
        <time>2011-04-19T10:15:37Z</time>
      </trkpt>
      <trkpt lat="32.146712746471167" lon="-1.263371910899878">
        <ele>918.1962890625</ele>
        <time>2011-04-19T10:15:45Z</time>
      </trkpt>
      <trkpt lat="32.146691959351301" lon="-1.263247020542622">
        <ele>918.1962890625</ele>
        <time>2011-04-19T10:15:47Z</time>
      </trkpt>
      <trkpt lat="32.146653821691871" lon="-1.263018194586039">
        <ele>918.677001953125</ele>
        <time>2011-04-19T10:15:55Z</time>
      </trkpt>
      <trkpt lat="32.146624904125929" lon="-1.262832535430789">
        <ele>918.1962890625</ele>
        <time>2011-04-19T10:17:42Z</time>
      </trkpt>
      <trkpt lat="32.146550053730607" lon="-1.262321071699262">
        <ele>918.677001953125</ele>
        <time>2011-04-19T10:17:47Z</time>
      </trkpt>
      <trkpt lat="32.146391468122602" lon="-1.261237375438213">
        <ele>919.15771484375</ele>
        <time>2011-04-19T10:17:54Z</time>
      </trkpt>
      <trkpt lat="32.146093156188726" lon="-1.259970031678677">
        <ele>921.080322265625</ele>
        <time>2011-04-19T10:18:01Z</time>
      </trkpt>
      <trkpt lat="32.145435512065887" lon="-1.257749078795314">
        <ele>927.8095703125</ele>
        <time>2011-04-19T10:18:12Z</time>
      </trkpt>
      <trkpt lat="32.14481214992702" lon="-1.256004553288221">
        <ele>934.538818359375</ele>
        <time>2011-04-19T10:18:22Z</time>
      </trkpt>
      <trkpt lat="32.143911514431238" lon="-1.254268661141396">
        <ele>932.6162109375</ele>
        <time>2011-04-19T10:18:32Z</time>
      </trkpt>
      <trkpt lat="32.143086316064" lon="-1.252715913578868">
        <ele>934.538818359375</ele>
        <time>2011-04-19T10:18:42Z</time>
      </trkpt>
      <trkpt lat="32.142983889207244" lon="-1.252518268302083">
        <ele>935.5</ele>
        <time>2011-04-19T10:18:46Z</time>
      </trkpt>
      <trkpt lat="32.142821615561843" lon="-1.252239402383566">
        <ele>936.46142578125</ele>
        <time>2011-04-19T10:18:55Z</time>
      </trkpt>
      <trkpt lat="32.142411405220628" lon="-1.251675887033343">
        <ele>935.980712890625</ele>
        <time>2011-04-19T10:19:02Z</time>
      </trkpt>
      <trkpt lat="32.141668433323503" lon="-1.250920174643397">
        <ele>935.01953125</ele>
        <time>2011-04-19T10:19:09Z</time>
      </trkpt>
      <trkpt lat="32.140303356572986" lon="-1.249496005475521">
        <ele>940.306884765625</ele>
        <time>2011-04-19T10:19:20Z</time>
      </trkpt>
      <trkpt lat="32.13921245187521" lon="-1.248582629486918">
        <ele>944.152099609375</ele>
        <time>2011-04-19T10:19:29Z</time>
      </trkpt>
      <trkpt lat="32.137751653790474" lon="-1.247447971254587">
        <ele>945.593994140625</ele>
        <time>2011-04-19T10:19:40Z</time>
      </trkpt>
      <trkpt lat="32.136348942294717" lon="-1.246410207822919">
        <ele>945.11328125</ele>
        <time>2011-04-19T10:19:51Z</time>
      </trkpt>
      <trkpt lat="32.135097105056047" lon="-1.245704451575875">
        <ele>942.2294921875</ele>
        <time>2011-04-19T10:19:59Z</time>
      </trkpt>
      <trkpt lat="32.132881348952651" lon="-1.244531152769923">
        <ele>941.748779296875</ele>
        <time>2011-04-19T10:20:12Z</time>
      </trkpt>
      <trkpt lat="32.131464052945375" lon="-1.24366463162005">
        <ele>944.152099609375</ele>
        <time>2011-04-19T10:20:21Z</time>
      </trkpt>
      <trkpt lat="32.131086448207498" lon="-1.243352657184005">
        <ele>945.11328125</ele>
        <time>2011-04-19T10:20:24Z</time>
      </trkpt>
      <trkpt lat="32.130753099918365" lon="-1.24282568693161">
        <ele>944.152099609375</ele>
        <time>2011-04-19T10:20:28Z</time>
      </trkpt>
      <trkpt lat="32.130387062206864" lon="-1.242063855752349">
        <ele>941.748779296875</ele>
        <time>2011-04-19T10:20:33Z</time>
      </trkpt>
      <trkpt lat="32.129373522475362" lon="-1.240952331572771">
        <ele>935.01953125</ele>
        <time>2011-04-19T10:20:42Z</time>
      </trkpt>
      <trkpt lat="32.127776183187962" lon="-1.239434955641627">
        <ele>926.36767578125</ele>
        <time>2011-04-19T10:20:56Z</time>
      </trkpt>
      <trkpt lat="32.125937612727284" lon="-1.237704427912831">
        <ele>922.04150390625</ele>
        <time>2011-04-19T10:21:12Z</time>
      </trkpt>
      <trkpt lat="32.124244887381792" lon="-1.236140364781022">
        <ele>922.04150390625</ele>
        <time>2011-04-19T10:21:27Z</time>
      </trkpt>
      <trkpt lat="32.122987182810903" lon="-1.234933957457542">
        <ele>917.235107421875</ele>
        <time>2011-04-19T10:21:40Z</time>
      </trkpt>
      <trkpt lat="32.121836934238672" lon="-1.233848668634892">
        <ele>914.831787109375</ele>
        <time>2011-04-19T10:21:53Z</time>
      </trkpt>
      <trkpt lat="32.120591383427382" lon="-1.232678052037954">
        <ele>913.870361328125</ele>
        <time>2011-04-19T10:22:06Z</time>
      </trkpt>
      <trkpt lat="32.120116883888841" lon="-1.232226938009262">
        <ele>914.35107421875</ele>
        <time>2011-04-19T10:22:13Z</time>
      </trkpt>
      <trkpt lat="32.119903732091188" lon="-1.232038596644998">
        <ele>914.831787109375</ele>
        <time>2011-04-19T10:23:18Z</time>
      </trkpt>
      <trkpt lat="32.119367709383368" lon="-1.231719581410289">
        <ele>915.793212890625</ele>
        <time>2011-04-19T10:23:29Z</time>
      </trkpt>
      <trkpt lat="32.118483670055866" lon="-1.231519756838679">
        <ele>914.831787109375</ele>
        <time>2011-04-19T10:23:40Z</time>
      </trkpt>
      <trkpt lat="32.11744355969131" lon="-1.231437278911471">
        <ele>914.831787109375</ele>
        <time>2011-04-19T10:23:51Z</time>
      </trkpt>
      <trkpt lat="32.116114860400558" lon="-1.231476757675409">
        <ele>909.544677734375</ele>
        <time>2011-04-19T10:24:06Z</time>
      </trkpt>
      <trkpt lat="32.115231491625309" lon="-1.231421018019319">
        <ele>909.544677734375</ele>
        <time>2011-04-19T10:24:18Z</time>
      </trkpt>
      <trkpt lat="32.114761266857386" lon="-1.231315238401294">
        <ele>910.986572265625</ele>
        <time>2011-04-19T10:24:26Z</time>
      </trkpt>
      <trkpt lat="32.11405785754323" lon="-1.231067469343543">
        <ele>910.025146484375</ele>
        <time>2011-04-19T10:24:37Z</time>
      </trkpt>
      <trkpt lat="32.112986398860812" lon="-1.230687852948904">
        <ele>906.1796875</ele>
        <time>2011-04-19T10:24:51Z</time>
      </trkpt>
      <trkpt lat="32.112100850790739" lon="-1.230406975373626">
        <ele>903.776611328125</ele>
        <time>2011-04-19T10:25:01Z</time>
      </trkpt>
      <trkpt lat="32.111141793429852" lon="-1.230025431141257">
        <ele>902.33447265625</ele>
        <time>2011-04-19T10:25:12Z</time>
      </trkpt>
      <trkpt lat="32.110920175909996" lon="-1.229914454743266">
        <ele>902.33447265625</ele>
        <time>2011-04-19T10:25:15Z</time>
      </trkpt>
      <trkpt lat="32.110230261459947" lon="-1.229729801416397">
        <ele>901.85400390625</ele>
        <time>2011-04-19T10:25:25Z</time>
      </trkpt>
      <trkpt lat="32.109428029507399" lon="-1.229474991559982">
        <ele>901.85400390625</ele>
        <time>2011-04-19T10:25:36Z</time>
      </trkpt>
      <trkpt lat="32.108895778656006" lon="-1.229310035705566">
        <ele>898.4892578125</ele>
        <time>2011-04-19T10:25:44Z</time>
      </trkpt>
      <trkpt lat="32.108816234394908" lon="-1.229088753461838">
        <ele>896.086181640625</ele>
        <time>2011-04-19T10:25:50Z</time>
      </trkpt>
      <trkpt lat="32.108843727037311" lon="-1.228964785113931">
        <ele>895.124755859375</ele>
        <time>2011-04-19T10:25:52Z</time>
      </trkpt>
      <trkpt lat="32.108906842768192" lon="-1.228636046871543">
        <ele>895.124755859375</ele>
        <time>2011-04-19T10:26:00Z</time>
      </trkpt>
      <trkpt lat="32.109006168320775" lon="-1.228200439363718">
        <ele>895.60546875</ele>
        <time>2011-04-19T10:26:07Z</time>
      </trkpt>
      <trkpt lat="32.10885101929307" lon="-1.227644048631191">
        <ele>896.086181640625</ele>
        <time>2011-04-19T10:26:15Z</time>
      </trkpt>
      <trkpt lat="32.108071250841022" lon="-1.22685581445694">
        <ele>892.240966796875</ele>
        <time>2011-04-19T10:26:27Z</time>
      </trkpt>
      <trkpt lat="32.107611838728189" lon="-1.226701838895679">
        <ele>891.760009765625</ele>
        <time>2011-04-19T10:26:33Z</time>
      </trkpt>
      <trkpt lat="32.107402291148901" lon="-1.226671915501356">
        <ele>889.356689453125</ele>
        <time>2011-04-19T10:26:36Z</time>
      </trkpt>
      <trkpt lat="32.107158042490482" lon="-1.226606452837586">
        <ele>888.3955078125</ele>
        <time>2011-04-19T10:26:40Z</time>
      </trkpt>
      <trkpt lat="32.10703331977129" lon="-1.226499164476991">
        <ele>888.3955078125</ele>
        <time>2011-04-19T10:26:43Z</time>
      </trkpt>
      <trkpt lat="32.10685302503407" lon="-1.22610873542726">
        <ele>887.43408203125</ele>
        <time>2011-04-19T10:26:49Z</time>
      </trkpt>
      <trkpt lat="32.106656217947602" lon="-1.225688215345144">
        <ele>884.55029296875</ele>
        <time>2011-04-19T10:26:55Z</time>
      </trkpt>
      <trkpt lat="32.106312979012728" lon="-1.225168872624636">
        <ele>882.14697265625</ele>
        <time>2011-04-19T10:27:03Z</time>
      </trkpt>
      <trkpt lat="32.105887429788709" lon="-1.224742066115141">
        <ele>880.705078125</ele>
        <time>2011-04-19T10:27:11Z</time>
      </trkpt>
      <trkpt lat="32.105168094858527" lon="-1.224029017612338">
        <ele>869.169189453125</ele>
        <time>2011-04-19T10:27:24Z</time>
      </trkpt>
      <trkpt lat="32.10438740439713" lon="-1.223136764019728">
        <ele>856.671875</ele>
        <time>2011-04-19T10:27:37Z</time>
      </trkpt>
      <trkpt lat="32.103741662576795" lon="-1.222358085215092">
        <ele>850.904052734375</ele>
        <time>2011-04-19T10:27:46Z</time>
      </trkpt>
      <trkpt lat="32.102866172790527" lon="-1.221273634582758">
        <ele>849.462158203125</ele>
        <time>2011-04-19T10:27:58Z</time>
      </trkpt>
      <trkpt lat="32.101956736296415" lon="-1.220695618540049">
        <ele>848.9814453125</ele>
        <time>2011-04-19T10:28:08Z</time>
      </trkpt>
      <trkpt lat="32.101612742990255" lon="-1.220592856407166">
        <ele>851.865478515625</ele>
        <time>2011-04-19T10:28:12Z</time>
      </trkpt>
      <trkpt lat="32.10066257044673" lon="-1.220757057890296">
        <ele>852.345947265625</ele>
        <time>2011-04-19T10:28:22Z</time>
      </trkpt>
      <trkpt lat="32.099210992455482" lon="-1.221066936850548">
        <ele>852.82666015625</ele>
        <time>2011-04-19T10:28:36Z</time>
      </trkpt>
      <trkpt lat="32.097839545458555" lon="-1.221385868266225">
        <ele>853.7880859375</ele>
        <time>2011-04-19T10:28:49Z</time>
      </trkpt>
      <trkpt lat="32.096277493983507" lon="-1.221966734156013">
        <ele>843.694091796875</ele>
        <time>2011-04-19T10:29:04Z</time>
      </trkpt>
      <trkpt lat="32.095124227926135" lon="-1.222629742696881">
        <ele>835.04248046875</ele>
        <time>2011-04-19T10:29:16Z</time>
      </trkpt>
      <trkpt lat="32.093541221693158" lon="-1.223665326833725">
        <ele>824.948486328125</ele>
        <time>2011-04-19T10:29:32Z</time>
      </trkpt>
      <trkpt lat="32.091901134699583" lon="-1.224721278995276">
        <ele>817.738525390625</ele>
        <time>2011-04-19T10:29:48Z</time>
      </trkpt>
      <trkpt lat="32.090437822043896" lon="-1.225712271407247">
        <ele>815.33544921875</ele>
        <time>2011-04-19T10:30:01Z</time>
      </trkpt>
      <trkpt lat="32.089323280379176" lon="-1.226568566635251">
        <ele>814.3740234375</ele>
        <time>2011-04-19T10:30:09Z</time>
      </trkpt>
      <trkpt lat="32.087856363505125" lon="-1.227731890976429">
        <ele>813.893310546875</ele>
        <time>2011-04-19T10:30:20Z</time>
      </trkpt>
      <trkpt lat="32.086571669206023" lon="-1.228518364951015">
        <ele>813.893310546875</ele>
        <time>2011-04-19T10:30:29Z</time>
      </trkpt>
      <trkpt lat="32.084508966654539" lon="-1.229452947154641">
        <ele>812.93212890625</ele>
        <time>2011-04-19T10:30:43Z</time>
      </trkpt>
      <trkpt lat="32.083104746416211" lon="-1.230076979845762">
        <ele>811.00927734375</ele>
        <time>2011-04-19T10:30:53Z</time>
      </trkpt>
      <trkpt lat="32.081957263872027" lon="-1.230553155764937">
        <ele>805.72216796875</ele>
        <time>2011-04-19T10:31:02Z</time>
      </trkpt>
      <trkpt lat="32.081512436270714" lon="-1.23060705140233">
        <ele>803.31884765625</ele>
        <time>2011-04-19T10:31:06Z</time>
      </trkpt>
      <trkpt lat="32.081003319472075" lon="-1.230763960629702">
        <ele>801.876953125</ele>
        <time>2011-04-19T10:31:11Z</time>
      </trkpt>
      <trkpt lat="32.080638036131859" lon="-1.231154641136527">
        <ele>801.876953125</ele>
        <time>2011-04-19T10:31:16Z</time>
      </trkpt>
      <trkpt lat="32.080398146063089" lon="-1.231556637212634">
        <ele>802.357421875</ele>
        <time>2011-04-19T10:31:22Z</time>
      </trkpt>
      <trkpt lat="32.080060271546245" lon="-1.231593266129494">
        <ele>804.7607421875</ele>
        <time>2011-04-19T10:31:28Z</time>
      </trkpt>
      <trkpt lat="32.079656599089503" lon="-1.231528474017978">
        <ele>811.489990234375</ele>
        <time>2011-04-19T10:31:34Z</time>
      </trkpt>
      <trkpt lat="32.079445039853454" lon="-1.231550937518477">
        <ele>813.412841796875</ele>
        <time>2011-04-19T10:31:38Z</time>
      </trkpt>
      <trkpt lat="32.079177824780345" lon="-1.231722934171557">
        <ele>809.5673828125</ele>
        <time>2011-04-19T10:31:47Z</time>
      </trkpt>
      <trkpt lat="32.079067351296544" lon="-1.231723269447684">
        <ele>811.00927734375</ele>
        <time>2011-04-19T10:31:54Z</time>
      </trkpt>
      <trkpt lat="32.079119486734271" lon="-1.231828378513455">
        <ele>805.241455078125</ele>
        <time>2011-04-19T10:32:55Z</time>
      </trkpt>
      <trkpt lat="32.079204563051462" lon="-1.231719581410289">
        <ele>809.5673828125</ele>
        <time>2011-04-19T10:33:01Z</time>
      </trkpt>
      <trkpt lat="32.079542018473148" lon="-1.231571892276406">
        <ele>815.33544921875</ele>
        <time>2011-04-19T10:33:07Z</time>
      </trkpt>
      <trkpt lat="32.080091116949916" lon="-1.231640540063381">
        <ele>820.141845703125</ele>
        <time>2011-04-19T10:33:14Z</time>
      </trkpt>
      <trkpt lat="32.080561425536871" lon="-1.231513721868396">
        <ele>823.987060546875</ele>
        <time>2011-04-19T10:33:20Z</time>
      </trkpt>
      <trkpt lat="32.080645998939872" lon="-1.231375085189939">
        <ele>825.428955078125</ele>
        <time>2011-04-19T10:33:22Z</time>
      </trkpt>
      <trkpt lat="32.080739876255393" lon="-1.231121532619">
        <ele>826.87109375</ele>
        <time>2011-04-19T10:33:25Z</time>
      </trkpt>
      <trkpt lat="32.081139693036675" lon="-1.230759182944894">
        <ele>828.313232421875</ele>
        <time>2011-04-19T10:33:31Z</time>
      </trkpt>
      <trkpt lat="32.081496091559529" lon="-1.230632280930877">
        <ele>830.23583984375</ele>
        <time>2011-04-19T10:33:35Z</time>
      </trkpt>
      <trkpt lat="32.081850981339812" lon="-1.230610739439726">
        <ele>832.63916015625</ele>
        <time>2011-04-19T10:33:40Z</time>
      </trkpt>
      <trkpt lat="32.082146443426609" lon="-1.230526585131884">
        <ele>835.52294921875</ele>
        <time>2011-04-19T10:33:44Z</time>
      </trkpt>
      <trkpt lat="32.083112960681319" lon="-1.230123750865459">
        <ele>844.655517578125</ele>
        <time>2011-04-19T10:33:54Z</time>
      </trkpt>
      <trkpt lat="32.084715832024813" lon="-1.229405254125595">
        <ele>852.82666015625</ele>
        <time>2011-04-19T10:34:09Z</time>
      </trkpt>
      <trkpt lat="32.086339658126235" lon="-1.228661192581058">
        <ele>856.191162109375</ele>
        <time>2011-04-19T10:34:24Z</time>
      </trkpt>
      <trkpt lat="32.08772225305438" lon="-1.227937247604132">
        <ele>857.152587890625</ele>
        <time>2011-04-19T10:34:36Z</time>
      </trkpt>
      <trkpt lat="32.088969647884369" lon="-1.226958325132728">
        <ele>855.22998046875</ele>
        <time>2011-04-19T10:34:47Z</time>
      </trkpt>
      <trkpt lat="32.090543434023857" lon="-1.225719898939133">
        <ele>855.22998046875</ele>
        <time>2011-04-19T10:35:01Z</time>
      </trkpt>
      <trkpt lat="32.091931644827127" lon="-1.22474835254252">
        <ele>856.191162109375</ele>
        <time>2011-04-19T10:35:13Z</time>
      </trkpt>
      <trkpt lat="32.093084659427404" lon="-1.223975541070104">
        <ele>857.63330078125</ele>
        <time>2011-04-19T10:35:24Z</time>
      </trkpt>
      <trkpt lat="32.093301583081484" lon="-1.223836736753583">
        <ele>858.594482421875</ele>
        <time>2011-04-19T10:35:29Z</time>
      </trkpt>
      <trkpt lat="32.093377858400345" lon="-1.223945282399654">
        <ele>859.0751953125</ele>
        <time>2011-04-19T10:35:39Z</time>
      </trkpt>
      <trkpt lat="32.0931694842875" lon="-1.224507372826338">
        <ele>857.63330078125</ele>
        <time>2011-04-19T10:35:48Z</time>
      </trkpt>
      <trkpt lat="32.092932360246778" lon="-1.225375570356846">
        <ele>859.555908203125</ele>
        <time>2011-04-19T10:35:57Z</time>
      </trkpt>
      <trkpt lat="32.092542517930269" lon="-1.226736456155777">
        <ele>856.191162109375</ele>
        <time>2011-04-19T10:36:09Z</time>
      </trkpt>
      <trkpt lat="32.092260969802737" lon="-1.227706745266914">
        <ele>855.710693359375</ele>
        <time>2011-04-19T10:36:18Z</time>
      </trkpt>
      <trkpt lat="32.092016553506255" lon="-1.229005856439471">
        <ele>853.307373046875</ele>
        <time>2011-04-19T10:36:29Z</time>
      </trkpt>
      <trkpt lat="32.091967519372702" lon="-1.230182927101851">
        <ele>854.749267578125</ele>
        <time>2011-04-19T10:36:38Z</time>
      </trkpt>
      <trkpt lat="32.092015463858843" lon="-1.231593769043684">
        <ele>857.152587890625</ele>
        <time>2011-04-19T10:36:48Z</time>
      </trkpt>
      <trkpt lat="32.092371191829443" lon="-1.23284594155848">
        <ele>859.0751953125</ele>
        <time>2011-04-19T10:36:58Z</time>
      </trkpt>
      <trkpt lat="32.092404048889875" lon="-1.232964377850294">
        <ele>859.0751953125</ele>
        <time>2011-04-19T10:36:59Z</time>
      </trkpt>
      <trkpt lat="32.092440845444798" lon="-1.233998285606504">
        <ele>859.0751953125</ele>
        <time>2011-04-19T10:37:08Z</time>
      </trkpt>
      <trkpt lat="32.09241108968854" lon="-1.234495332464576">
        <ele>859.0751953125</ele>
        <time>2011-04-19T10:37:13Z</time>
      </trkpt>
      <trkpt lat="32.092579565942287" lon="-1.23479263857007">
        <ele>859.555908203125</ele>
        <time>2011-04-19T10:37:19Z</time>
      </trkpt>
      <trkpt lat="32.093190690502524" lon="-1.235018698498607">
        <ele>859.0751953125</ele>
        <time>2011-04-19T10:37:28Z</time>
      </trkpt>
      <trkpt lat="32.094210935756564" lon="-1.235379036515951">
        <ele>857.63330078125</ele>
        <time>2011-04-19T10:37:40Z</time>
      </trkpt>
      <trkpt lat="32.09507267922163" lon="-1.235352717339993">
        <ele>863.8818359375</ele>
        <time>2011-04-19T10:37:51Z</time>
      </trkpt>
      <trkpt lat="32.095961160957813" lon="-1.235299156978726">
        <ele>866.765869140625</ele>
        <time>2011-04-19T10:38:04Z</time>
      </trkpt>
      <trkpt lat="32.096919463947415" lon="-1.235259845852852">
        <ele>865.8046875</ele>
        <time>2011-04-19T10:38:17Z</time>
      </trkpt>
      <trkpt lat="32.097536874935031" lon="-1.235443074256182">
        <ele>864.362548828125</ele>
        <time>2011-04-19T10:38:25Z</time>
      </trkpt>
      <trkpt lat="32.0977733284235" lon="-1.235670307651162">
        <ele>862.920654296875</ele>
        <time>2011-04-19T10:38:29Z</time>
      </trkpt>
      <trkpt lat="32.098042303696275" lon="-1.235945736989379">
        <ele>861.478759765625</ele>
        <time>2011-04-19T10:38:36Z</time>
      </trkpt>
      <trkpt lat="32.098138611763716" lon="-1.236135754734278">
        <ele>858.114013671875</ele>
        <time>2011-04-19T10:38:40Z</time>
      </trkpt>
      <trkpt lat="32.098385458812118" lon="-1.236622910946608">
        <ele>849.94287109375</ele>
        <time>2011-04-19T10:38:52Z</time>
      </trkpt>
      <trkpt lat="32.098595844581723" lon="-1.237037982791662">
        <ele>843.21337890625</ele>
        <time>2011-04-19T10:39:01Z</time>
      </trkpt>
      <trkpt lat="32.098948135972023" lon="-1.23773317784071">
        <ele>846.09765625</ele>
        <time>2011-04-19T10:39:13Z</time>
      </trkpt>
      <trkpt lat="32.099341582506895" lon="-1.238509425893426">
        <ele>840.32958984375</ele>
        <time>2011-04-19T10:39:24Z</time>
      </trkpt>
      <trkpt lat="32.099630422890186" lon="-1.239079395309091">
        <ele>846.09765625</ele>
        <time>2011-04-19T10:39:34Z</time>
      </trkpt>
      <trkpt lat="32.100072652101517" lon="-1.23995203524828">
        <ele>848.020263671875</ele>
        <time>2011-04-19T10:39:46Z</time>
      </trkpt>
      <trkpt lat="32.100445060059428" lon="-1.240756111219525">
        <ele>857.63330078125</ele>
        <time>2011-04-19T10:39:57Z</time>
      </trkpt>
      <trkpt lat="32.100518317893147" lon="-1.240946380421519">
        <ele>856.671875</ele>
        <time>2011-04-19T10:40:03Z</time>
      </trkpt>
      <trkpt lat="32.100564334541559" lon="-1.241065738722682">
        <ele>857.152587890625</ele>
        <time>2011-04-19T10:40:06Z</time>
      </trkpt>
      <trkpt lat="32.10077790543437" lon="-1.241620536893606">
        <ele>859.555908203125</ele>
        <time>2011-04-19T10:40:15Z</time>
      </trkpt>
      <trkpt lat="32.100968677550554" lon="-1.242115907371044">
        <ele>856.191162109375</ele>
        <time>2011-04-19T10:40:23Z</time>
      </trkpt>
      <trkpt lat="32.101260954514146" lon="-1.242875056341291">
        <ele>844.175048828125</ele>
        <time>2011-04-19T10:40:34Z</time>
      </trkpt>
      <trkpt lat="32.101618526503444" lon="-1.243803771212697">
        <ele>837.92626953125</ele>
        <time>2011-04-19T10:40:46Z</time>
      </trkpt>
      <trkpt lat="32.101988000795245" lon="-1.244807252660394">
        <ele>844.655517578125</ele>
        <time>2011-04-19T10:40:59Z</time>
      </trkpt>
      <trkpt lat="32.102124625816941" lon="-1.245217211544514">
        <ele>861.95947265625</ele>
        <time>2011-04-19T10:41:07Z</time>
      </trkpt>
      <trkpt lat="32.101781722158194" lon="-1.245384179055691">
        <ele>869.64990234375</ele>
        <time>2011-04-19T10:41:13Z</time>
      </trkpt>
      <trkpt lat="32.101686084643006" lon="-1.24515107832849">
        <ele>894.16357421875</ele>
        <time>2011-04-19T10:41:32Z</time>
      </trkpt>
      <trkpt lat="32.101995460689068" lon="-1.24482954852283">
        <ele>908.583251953125</ele>
        <time>2011-04-19T10:41:55Z</time>
      </trkpt>
      <trkpt lat="32.101786332204938" lon="-1.244239630177617">
        <ele>912.428466796875</ele>
        <time>2011-04-19T10:42:02Z</time>
      </trkpt>
      <trkpt lat="32.101457761600614" lon="-1.243386184796691">
        <ele>917.715576171875</ele>
        <time>2011-04-19T10:42:11Z</time>
      </trkpt>
      <trkpt lat="32.101092981174588" lon="-1.242438778281212">
        <ele>920.599609375</ele>
        <time>2011-04-19T10:42:22Z</time>
      </trkpt>
      <trkpt lat="32.100943028926849" lon="-1.242049355059862">
        <ele>922.522216796875</ele>
        <time>2011-04-19T10:42:30Z</time>
      </trkpt>
      <trkpt lat="32.10105643607676" lon="-1.242042817175388">
        <ele>919.638427734375</ele>
        <time>2011-04-19T10:42:40Z</time>
      </trkpt>
      <trkpt lat="32.101510064676404" lon="-1.242026388645172">
        <ele>910.505859375</ele>
        <time>2011-04-19T10:42:52Z</time>
      </trkpt>
      <trkpt lat="32.101966375485063" lon="-1.242176424711943">
        <ele>901.373291015625</ele>
        <time>2011-04-19T10:43:03Z</time>
      </trkpt>
      <trkpt lat="32.102365689352155" lon="-1.242459565401077">
        <ele>897.04736328125</ele>
        <time>2011-04-19T10:43:15Z</time>
      </trkpt>
      <trkpt lat="32.102671125903726" lon="-1.242918726056814">
        <ele>893.2021484375</ele>
        <time>2011-04-19T10:43:26Z</time>
      </trkpt>
      <trkpt lat="32.102787550538778" lon="-1.2431750446558">
        <ele>889.356689453125</ele>
        <time>2011-04-19T10:43:31Z</time>
      </trkpt>
      <trkpt lat="32.103109583258629" lon="-1.243492132052779">
        <ele>885.031005859375</ele>
        <time>2011-04-19T10:43:39Z</time>
      </trkpt>
      <trkpt lat="32.103222571313381" lon="-1.243587099015713">
        <ele>884.069580078125</ele>
        <time>2011-04-19T10:43:45Z</time>
      </trkpt>
      <trkpt lat="32.103040432557464" lon="-1.243490455672145">
        <ele>874.456298828125</ele>
        <time>2011-04-19T10:49:23Z</time>
      </trkpt>
      <trkpt lat="32.102802218869328" lon="-1.243330696597695">
        <ele>872.53369140625</ele>
        <time>2011-04-19T10:49:28Z</time>
      </trkpt>
      <trkpt lat="32.102681016549468" lon="-1.243182588368654">
        <ele>870.611083984375</ele>
        <time>2011-04-19T10:49:32Z</time>
      </trkpt>
      <trkpt lat="32.102585798129439" lon="-1.24300355091691">
        <ele>871.091796875</ele>
        <time>2011-04-19T10:49:36Z</time>
      </trkpt>
      <trkpt lat="32.102249097079039" lon="-1.242539444938302">
        <ele>874.456298828125</ele>
        <time>2011-04-19T10:49:48Z</time>
      </trkpt>
      <trkpt lat="32.101868726313114" lon="-1.24225739389658">
        <ele>867.72705078125</ele>
        <time>2011-04-19T10:49:59Z</time>
      </trkpt>
      <trkpt lat="32.101011425256729" lon="-1.242227135226131">
        <ele>860.517333984375</ele>
        <time>2011-04-19T10:50:12Z</time>
      </trkpt>
      <trkpt lat="32.100857952609658" lon="-1.242132838815451">
        <ele>853.307373046875</ele>
        <time>2011-04-19T10:50:22Z</time>
      </trkpt>
      <trkpt lat="32.100736582651734" lon="-1.24213669449091">
        <ele>851.384765625</ele>
        <time>2011-04-19T10:50:26Z</time>
      </trkpt>
      <trkpt lat="32.100966330617666" lon="-1.242109872400761">
        <ele>852.345947265625</ele>
        <time>2011-04-19T10:50:30Z</time>
      </trkpt>
      <trkpt lat="32.101188283413649" lon="-1.242686379700899">
        <ele>856.191162109375</ele>
        <time>2011-04-19T10:50:37Z</time>
      </trkpt>
      <trkpt lat="32.101674601435661" lon="-1.24394953250885">
        <ele>857.152587890625</ele>
        <time>2011-04-19T10:50:48Z</time>
      </trkpt>
      <trkpt lat="32.101927818730474" lon="-1.244626706466079">
        <ele>858.114013671875</ele>
        <time>2011-04-19T10:50:55Z</time>
      </trkpt>
      <trkpt lat="32.102273153141141" lon="-1.245662625879049">
        <ele>863.4013671875</ele>
        <time>2011-04-19T10:51:04Z</time>
      </trkpt>
      <trkpt lat="32.102774223312736" lon="-1.247165920212865">
        <ele>868.207763671875</ele>
        <time>2011-04-19T10:51:15Z</time>
      </trkpt>
      <trkpt lat="32.103154845535755" lon="-1.248307786881924">
        <ele>871.572265625</ele>
        <time>2011-04-19T10:51:24Z</time>
      </trkpt>
      <trkpt lat="32.103225756436586" lon="-1.248520435765386">
        <ele>872.53369140625</ele>
        <time>2011-04-19T10:51:27Z</time>
      </trkpt>
      <trkpt lat="32.103069182485342" lon="-1.248936429619789">
        <ele>875.41748046875</ele>
        <time>2011-04-19T10:51:32Z</time>
      </trkpt>
      <trkpt lat="32.104115830734372" lon="-1.249123513698578">
        <ele>882.14697265625</ele>
        <time>2011-04-19T10:51:42Z</time>
      </trkpt>
      <trkpt lat="32.105106823146343" lon="-1.249608574435115">
        <ele>886.953369140625</ele>
        <time>2011-04-19T10:51:50Z</time>
      </trkpt>
      <trkpt lat="32.106207367032766" lon="-1.250452883541584">
        <ele>890.798583984375</ele>
        <time>2011-04-19T10:51:59Z</time>
      </trkpt>
      <trkpt lat="32.10723465308547" lon="-1.251132739707828">
        <ele>895.124755859375</ele>
        <time>2011-04-19T10:52:08Z</time>
      </trkpt>
      <trkpt lat="32.10786011070013" lon="-1.251449408009648">
        <ele>900.412109375</ele>
        <time>2011-04-19T10:52:14Z</time>
      </trkpt>
      <trkpt lat="32.108488250523806" lon="-1.251355614513159">
        <ele>904.25732421875</ele>
        <time>2011-04-19T10:52:19Z</time>
      </trkpt>
      <trkpt lat="32.10857056081295" lon="-1.251275818794966">
        <ele>904.25732421875</ele>
        <time>2011-04-19T10:52:20Z</time>
      </trkpt>
      <trkpt lat="32.108895778656006" lon="-1.250960826873779">
        <ele>903.776611328125</ele>
        <time>2011-04-19T10:52:24Z</time>
      </trkpt>
      <trkpt lat="32.109230132773519" lon="-1.250799559056759">
        <ele>902.33447265625</ele>
        <time>2011-04-19T10:52:28Z</time>
      </trkpt>
      <trkpt lat="32.11049328558147" lon="-1.250190194696188">
        <ele>906.660400390625</ele>
        <time>2011-04-19T10:52:37Z</time>
      </trkpt>
      <trkpt lat="32.111553596332669" lon="-1.24974125996232">
        <ele>911.947998046875</ele>
        <time>2011-04-19T10:52:44Z</time>
      </trkpt>
      <trkpt lat="32.112488262355328" lon="-1.249253181740642">
        <ele>910.025146484375</ele>
        <time>2011-04-19T10:52:50Z</time>
      </trkpt>
      <trkpt lat="32.113580675795674" lon="-1.248137382790446">
        <ele>910.025146484375</ele>
        <time>2011-04-19T10:52:58Z</time>
      </trkpt>
      <trkpt lat="32.114891018718481" lon="-1.246563009917736">
        <ele>910.025146484375</ele>
        <time>2011-04-19T10:53:09Z</time>
      </trkpt>
      <trkpt lat="32.115094279870391" lon="-1.246246844530106">
        <ele>909.544677734375</ele>
        <time>2011-04-19T10:53:11Z</time>
      </trkpt>
      <trkpt lat="32.115892991423607" lon="-1.244912864640355">
        <ele>916.273681640625</ele>
        <time>2011-04-19T10:53:19Z</time>
      </trkpt>
      <trkpt lat="32.116222232580185" lon="-1.244226889684796">
        <ele>917.715576171875</ele>
        <time>2011-04-19T10:53:23Z</time>
      </trkpt>
      <trkpt lat="32.116954308003187" lon="-1.243364056572318">
        <ele>921.560791015625</ele>
        <time>2011-04-19T10:53:30Z</time>
      </trkpt>
      <trkpt lat="32.117543639615178" lon="-1.242645978927612">
        <ele>923.483642578125</ele>
        <time>2011-04-19T10:53:36Z</time>
      </trkpt>
      <trkpt lat="32.118180999532342" lon="-1.241838801652193">
        <ele>924.92578125</ele>
        <time>2011-04-19T10:53:43Z</time>
      </trkpt>
      <trkpt lat="32.119326386600733" lon="-1.24053399078548">
        <ele>924.445068359375</ele>
        <time>2011-04-19T10:53:54Z</time>
      </trkpt>
      <trkpt lat="32.120107663795352" lon="-1.239534448832274">
        <ele>923.964111328125</ele>
        <time>2011-04-19T10:54:02Z</time>
      </trkpt>
      <trkpt lat="32.12093286216259" lon="-1.238301889970899">
        <ele>922.522216796875</ele>
        <time>2011-04-19T10:54:11Z</time>
      </trkpt>
      <trkpt lat="32.121660076081753" lon="-1.236267182976008">
        <ele>926.848388671875</ele>
        <time>2011-04-19T10:54:23Z</time>
      </trkpt>
      <trkpt lat="32.121987054124475" lon="-1.235421784222126">
        <ele>929.25146484375</ele>
        <time>2011-04-19T10:54:29Z</time>
      </trkpt>
      <trkpt lat="32.122234487906098" lon="-1.234986344352365">
        <ele>927.3291015625</ele>
        <time>2011-04-19T10:54:34Z</time>
      </trkpt>
      <trkpt lat="32.12233180180192" lon="-1.234815018251538">
        <ele>924.445068359375</ele>
        <time>2011-04-19T10:54:40Z</time>
      </trkpt>
      <trkpt lat="32.12219743989408" lon="-1.234188806265593">
        <ele>924.445068359375</ele>
        <time>2011-04-19T10:54:51Z</time>
      </trkpt>
      <trkpt lat="32.121564270928502" lon="-1.233591428026557">
        <ele>921.080322265625</ele>
        <time>2011-04-19T10:54:58Z</time>
      </trkpt>
      <trkpt lat="32.120741587132215" lon="-1.232818700373173">
        <ele>919.638427734375</ele>
        <time>2011-04-19T10:55:07Z</time>
      </trkpt>
      <trkpt lat="32.120119649916887" lon="-1.23222978785634">
        <ele>918.1962890625</ele>
        <time>2011-04-19T10:55:15Z</time>
      </trkpt>
      <trkpt lat="32.119535347446799" lon="-1.231791414320469">
        <ele>918.677001953125</ele>
        <time>2011-04-19T10:55:23Z</time>
      </trkpt>
      <trkpt lat="32.118787430226803" lon="-1.231554374098778">
        <ele>917.235107421875</ele>
        <time>2011-04-19T10:55:31Z</time>
      </trkpt>
      <trkpt lat="32.118032472208142" lon="-1.231478685513139">
        <ele>914.35107421875</ele>
        <time>2011-04-19T10:55:39Z</time>
      </trkpt>
      <trkpt lat="32.117899619042873" lon="-1.231469130143523">
        <ele>912.9091796875</ele>
        <time>2011-04-19T10:55:44Z</time>
      </trkpt>
      <trkpt lat="32.117690071463585" lon="-1.231454545632005">
        <ele>903.776611328125</ele>
        <time>2011-04-19T10:56:00Z</time>
      </trkpt>
      <trkpt lat="32.116889599710703" lon="-1.231426550075412">
        <ele>897.04736328125</ele>
        <time>2011-04-19T10:56:10Z</time>
      </trkpt>
      <trkpt lat="32.11587312631309" lon="-1.231468124315143">
        <ele>891.279296875</ele>
        <time>2011-04-19T10:56:22Z</time>
      </trkpt>
      <trkpt lat="32.115583447739482" lon="-1.23145773075521">
        <ele>888.876220703125</ele>
        <time>2011-04-19T10:56:28Z</time>
      </trkpt>
      <trkpt lat="32.115417318418622" lon="-1.231442894786596">
        <ele>884.55029296875</ele>
        <time>2011-04-19T10:56:44Z</time>
      </trkpt>
      <trkpt lat="32.115323524922132" lon="-1.23143183067441">
        <ele>886.472900390625</ele>
        <time>2011-04-19T10:56:49Z</time>
      </trkpt>
      <trkpt lat="32.11544455960393" lon="-1.231182720512152">
        <ele>898.0087890625</ele>
        <time>2011-04-19T10:57:02Z</time>
      </trkpt>
      <trkpt lat="32.115642791613936" lon="-1.231459910050035">
        <ele>936.94189453125</ele>
        <time>2011-04-19T11:31:13Z</time>
      </trkpt>
      <trkpt lat="32.11580908857286" lon="-1.231465861201286">
        <ele>936.46142578125</ele>
        <time>2011-04-19T11:31:22Z</time>
      </trkpt>
      <trkpt lat="32.116441922262311" lon="-1.231456389650703">
        <ele>932.135498046875</ele>
        <time>2011-04-19T11:31:41Z</time>
      </trkpt>
      <trkpt lat="32.117234598845243" lon="-1.231422778218985">
        <ele>931.65478515625</ele>
        <time>2011-04-19T11:31:53Z</time>
      </trkpt>
      <trkpt lat="32.118162726983428" lon="-1.231490587815642">
        <ele>933.0966796875</ele>
        <time>2011-04-19T11:32:06Z</time>
      </trkpt>
      <trkpt lat="32.118792710825801" lon="-1.23155546374619">
        <ele>934.538818359375</ele>
        <time>2011-04-19T11:32:16Z</time>
      </trkpt>
      <trkpt lat="32.119448678568006" lon="-1.231754366308451">
        <ele>935.980712890625</ele>
        <time>2011-04-19T11:32:26Z</time>
      </trkpt>
      <trkpt lat="32.119469465687871" lon="-1.232269098982215">
        <ele>936.94189453125</ele>
        <time>2011-04-19T11:32:35Z</time>
      </trkpt>
      <trkpt lat="32.119683036580682" lon="-1.232175976037979">
        <ele>947.5166015625</ele>
        <time>2011-04-19T11:36:43Z</time>
      </trkpt>
      <trkpt lat="32.119876071810722" lon="-1.232117973268032">
        <ele>948.95849609375</ele>
        <time>2011-04-19T11:40:01Z</time>
      </trkpt>
      <trkpt lat="32.12026541121304" lon="-1.23237295076251">
        <ele>948.477783203125</ele>
        <time>2011-04-19T11:40:08Z</time>
      </trkpt>
      <trkpt lat="32.12091919966042" lon="-1.232985081151128">
        <ele>950.400634765625</ele>
        <time>2011-04-19T11:40:16Z</time>
      </trkpt>
      <trkpt lat="32.12171615101397" lon="-1.233734590932727">
        <ele>952.322998046875</ele>
        <time>2011-04-19T11:40:24Z</time>
      </trkpt>
      <trkpt lat="32.123076533898711" lon="-1.235018279403448">
        <ele>956.16845703125</ele>
        <time>2011-04-19T11:40:36Z</time>
      </trkpt>
      <trkpt lat="32.124842768535018" lon="-1.23666406609118">
        <ele>960.494384765625</ele>
        <time>2011-04-19T11:40:50Z</time>
      </trkpt>
      <trkpt lat="32.125779446214437" lon="-1.23754751868546">
        <ele>962.897705078125</ele>
        <time>2011-04-19T11:40:58Z</time>
      </trkpt>
      <trkpt lat="32.126418147236109" lon="-1.238184962421656">
        <ele>965.301025390625</ele>
        <time>2011-04-19T11:41:05Z</time>
      </trkpt>
      <trkpt lat="32.127530928701162" lon="-1.239198502153158">
        <ele>969.146240234375</ele>
        <time>2011-04-19T11:41:15Z</time>
      </trkpt>
      <trkpt lat="32.129400512203574" lon="-1.240978399291635">
        <ele>975.87548828125</ele>
        <time>2011-04-19T11:41:30Z</time>
      </trkpt>
      <trkpt lat="32.13029402308166" lon="-1.241927733644843">
        <ele>978.759521484375</ele>
        <time>2011-04-19T11:41:38Z</time>
      </trkpt>
      <trkpt lat="32.130378596484661" lon="-1.242051450535655">
        <ele>979.239990234375</ele>
        <time>2011-04-19T11:41:39Z</time>
      </trkpt>
      <trkpt lat="32.130786208435893" lon="-1.242920318618417">
        <ele>978.759521484375</ele>
        <time>2011-04-19T11:41:46Z</time>
      </trkpt>
      <trkpt lat="32.131195245310664" lon="-1.243442511186004">
        <ele>979.720703125</ele>
        <time>2011-04-19T11:41:51Z</time>
      </trkpt>
      <trkpt lat="32.132291179150343" lon="-1.244154470041394">
        <ele>981.643310546875</ele>
        <time>2011-04-19T11:42:00Z</time>
      </trkpt>
      <trkpt lat="32.134099826216698" lon="-1.245143618434668">
        <ele>985.008056640625</ele>
        <time>2011-04-19T11:42:12Z</time>
      </trkpt>
      <trkpt lat="32.136228159070015" lon="-1.246334100142121">
        <ele>988.853515625</ele>
        <time>2011-04-19T11:42:26Z</time>
      </trkpt>
      <trkpt lat="32.137419227510691" lon="-1.24717254191637">
        <ele>989.814697265625</ele>
        <time>2011-04-19T11:42:35Z</time>
      </trkpt>
      <trkpt lat="32.139317393302917" lon="-1.248667035251856">
        <ele>987.891845703125</ele>
        <time>2011-04-19T11:42:49Z</time>
      </trkpt>
      <trkpt lat="32.140571074560285" lon="-1.249779565259814">
        <ele>984.046630859375</ele>
        <time>2011-04-19T11:42:58Z</time>
      </trkpt>
      <trkpt lat="32.142231361940503" lon="-1.251466255635023">
        <ele>978.759521484375</ele>
        <time>2011-04-19T11:43:11Z</time>
      </trkpt>
      <trkpt lat="32.14303937740624" lon="-1.252622036263347">
        <ele>975.87548828125</ele>
        <time>2011-04-19T11:43:18Z</time>
      </trkpt>
      <trkpt lat="32.144347205758095" lon="-1.255089333280921">
        <ele>967.7041015625</ele>
        <time>2011-04-19T11:43:31Z</time>
      </trkpt>
      <trkpt lat="32.145171398296952" lon="-1.256864033639431">
        <ele>963.37841796875</ele>
        <time>2011-04-19T11:43:40Z</time>
      </trkpt>
      <trkpt lat="32.145763076841831" lon="-1.258893460035324">
        <ele>955.20703125</ele>
        <time>2011-04-19T11:43:49Z</time>
      </trkpt>
      <trkpt lat="32.146142106503248" lon="-1.260134652256966">
        <ele>950.881103515625</ele>
        <time>2011-04-19T11:43:56Z</time>
      </trkpt>
      <trkpt lat="32.14641485363245" lon="-1.261397050693631">
        <ele>948.477783203125</ele>
        <time>2011-04-19T11:44:04Z</time>
      </trkpt>
      <trkpt lat="32.146538402885199" lon="-1.262241527438164">
        <ele>947.035888671875</ele>
        <time>2011-04-19T11:44:11Z</time>
      </trkpt>
      <trkpt lat="32.146635465323925" lon="-1.262904871255159">
        <ele>946.555419921875</ele>
        <time>2011-04-19T11:44:20Z</time>
      </trkpt>
      <trkpt lat="32.146711992099881" lon="-1.263367217034102">
        <ele>945.593994140625</ele>
        <time>2011-04-19T11:44:28Z</time>
      </trkpt>
      <trkpt lat="32.146815927699208" lon="-1.264142459258437">
        <ele>944.152099609375</ele>
        <time>2011-04-19T11:44:34Z</time>
      </trkpt>
      <trkpt lat="32.146984068676829" lon="-1.265364792197943">
        <ele>941.748779296875</ele>
        <time>2011-04-19T11:44:41Z</time>
      </trkpt>
      <trkpt lat="32.147247511893511" lon="-1.267075203359127">
        <ele>938.86474609375</ele>
        <time>2011-04-19T11:44:49Z</time>
      </trkpt>
      <trkpt lat="32.147657051682472" lon="-1.269625900313258">
        <ele>938.86474609375</ele>
        <time>2011-04-19T11:44:59Z</time>
      </trkpt>
      <trkpt lat="32.148136077448726" lon="-1.273037921637297">
        <ele>939.825927734375</ele>
        <time>2011-04-19T11:45:12Z</time>
      </trkpt>
      <trkpt lat="32.148636393249035" lon="-1.276367297396064">
        <ele>936.94189453125</ele>
        <time>2011-04-19T11:45:25Z</time>
      </trkpt>
      <trkpt lat="32.149070156738162" lon="-1.279253689572215">
        <ele>935.01953125</ele>
        <time>2011-04-19T11:45:36Z</time>
      </trkpt>
      <trkpt lat="32.149550691246986" lon="-1.282459013164043">
        <ele>936.94189453125</ele>
        <time>2011-04-19T11:45:48Z</time>
      </trkpt>
      <trkpt lat="32.149837939068675" lon="-1.284435885027051">
        <ele>937.422607421875</ele>
        <time>2011-04-19T11:45:57Z</time>
      </trkpt>
      <trkpt lat="32.149992669001222" lon="-1.285670455545187">
        <ele>937.422607421875</ele>
        <time>2011-04-19T11:46:04Z</time>
      </trkpt>
      <trkpt lat="32.150100963190198" lon="-1.286447374150157">
        <ele>937.422607421875</ele>
        <time>2011-04-19T11:46:11Z</time>
      </trkpt>
      <trkpt lat="32.150127198547125" lon="-1.286612749099731">
        <ele>936.94189453125</ele>
        <time>2011-04-19T11:46:16Z</time>
      </trkpt>
      <trkpt lat="32.150166677311063" lon="-1.286861775442958">
        <ele>936.46142578125</ele>
        <time>2011-04-19T11:46:22Z</time>
      </trkpt>
      <trkpt lat="32.150273211300373" lon="-1.287575243040919">
        <ele>936.46142578125</ele>
        <time>2011-04-19T11:46:29Z</time>
      </trkpt>
      <trkpt lat="32.150401705875993" lon="-1.288574282079935">
        <ele>935.980712890625</ele>
        <time>2011-04-19T11:46:35Z</time>
      </trkpt>
      <trkpt lat="32.150605218484998" lon="-1.28998956643045">
        <ele>935.5</ele>
        <time>2011-04-19T11:46:42Z</time>
      </trkpt>
      <trkpt lat="32.151037054136395" lon="-1.292793061584234">
        <ele>933.577392578125</ele>
        <time>2011-04-19T11:46:54Z</time>
      </trkpt>
      <trkpt lat="32.15150392614305" lon="-1.295843655243516">
        <ele>932.6162109375</ele>
        <time>2011-04-19T11:47:06Z</time>
      </trkpt>
      <trkpt lat="32.152028549462557" lon="-1.299426248297095">
        <ele>931.17431640625</ele>
        <time>2011-04-19T11:47:19Z</time>
      </trkpt>
      <trkpt lat="32.152579827234149" lon="-1.30331109277904">
        <ele>933.0966796875</ele>
        <time>2011-04-19T11:47:33Z</time>
      </trkpt>
      <trkpt lat="32.1531901974231" lon="-1.307304566726089">
        <ele>938.384033203125</ele>
        <time>2011-04-19T11:47:47Z</time>
      </trkpt>
      <trkpt lat="32.153769470751286" lon="-1.311189495027065">
        <ele>942.710205078125</ele>
        <time>2011-04-19T11:48:01Z</time>
      </trkpt>
      <trkpt lat="32.154253358021379" lon="-1.314506297931075">
        <ele>945.11328125</ele>
        <time>2011-04-19T11:48:14Z</time>
      </trkpt>
      <trkpt lat="32.154712853953242" lon="-1.316919196397066">
        <ele>946.07470703125</ele>
        <time>2011-04-19T11:48:24Z</time>
      </trkpt>
      <trkpt lat="32.155586248263717" lon="-1.320467423647642">
        <ele>946.555419921875</ele>
        <time>2011-04-19T11:48:38Z</time>
      </trkpt>
      <trkpt lat="32.156041134148836" lon="-1.322843777015805">
        <ele>948.477783203125</ele>
        <time>2011-04-19T11:48:47Z</time>
      </trkpt>
      <trkpt lat="32.156388396397233" lon="-1.32708040997386">
        <ele>952.322998046875</ele>
        <time>2011-04-19T11:49:02Z</time>
      </trkpt>
      <trkpt lat="32.156660389155149" lon="-1.3302315864712">
        <ele>953.76513671875</ele>
        <time>2011-04-19T11:49:14Z</time>
      </trkpt>
      <trkpt lat="32.15699759311974" lon="-1.334082903340459">
        <ele>956.649169921875</ele>
        <time>2011-04-19T11:49:28Z</time>
      </trkpt>
      <trkpt lat="32.157334042713046" lon="-1.338399415835738">
        <ele>961.455810546875</ele>
        <time>2011-04-19T11:49:44Z</time>
      </trkpt>
      <trkpt lat="32.157712737098336" lon="-1.342593971639872">
        <ele>965.301025390625</ele>
        <time>2011-04-19T11:49:59Z</time>
      </trkpt>
      <trkpt lat="32.157958326861262" lon="-1.345562590286136">
        <ele>969.626953125</ele>
        <time>2011-04-19T11:50:10Z</time>
      </trkpt>
      <trkpt lat="32.158281868323684" lon="-1.349169407039881">
        <ele>973.472412109375</ele>
        <time>2011-04-19T11:50:23Z</time>
      </trkpt>
      <trkpt lat="32.158521842211485" lon="-1.352050267159939">
        <ele>976.356201171875</ele>
        <time>2011-04-19T11:50:34Z</time>
      </trkpt>
      <trkpt lat="32.158672967925668" lon="-1.353898392990232">
        <ele>978.27880859375</ele>
        <time>2011-04-19T11:50:42Z</time>
      </trkpt>
      <trkpt lat="32.158776232972741" lon="-1.355161378160119">
        <ele>979.239990234375</ele>
        <time>2011-04-19T11:50:49Z</time>
      </trkpt>
      <trkpt lat="32.158920569345355" lon="-1.356798363849521">
        <ele>979.239990234375</ele>
        <time>2011-04-19T11:50:59Z</time>
      </trkpt>
      <trkpt lat="32.159058032557368" lon="-1.3588354177773">
        <ele>979.239990234375</ele>
        <time>2011-04-19T11:51:09Z</time>
      </trkpt>
      <trkpt lat="32.159355925396085" lon="-1.361807137727737">
        <ele>980.68212890625</ele>
        <time>2011-04-19T11:51:23Z</time>
      </trkpt>
      <trkpt lat="32.159616937860847" lon="-1.36398215778172">
        <ele>981.643310546875</ele>
        <time>2011-04-19T11:51:33Z</time>
      </trkpt>
      <trkpt lat="32.160115661099553" lon="-1.367683941498399">
        <ele>981.162841796875</ele>
        <time>2011-04-19T11:51:49Z</time>
      </trkpt>
      <trkpt lat="32.160375081002712" lon="-1.369849741458893">
        <ele>981.643310546875</ele>
        <time>2011-04-19T11:51:59Z</time>
      </trkpt>
      <trkpt lat="32.160489829257131" lon="-1.370758591219783">
        <ele>981.643310546875</ele>
        <time>2011-04-19T11:52:05Z</time>
      </trkpt>
      <trkpt lat="32.1605225186795" lon="-1.371016837656498">
        <ele>982.1240234375</ele>
        <time>2011-04-19T11:52:09Z</time>
      </trkpt>
      <trkpt lat="32.160539869219065" lon="-1.371154468506575">
        <ele>982.604736328125</ele>
        <time>2011-04-19T11:52:17Z</time>
      </trkpt>
      <trkpt lat="32.160580437630415" lon="-1.371483961120248">
        <ele>985.008056640625</ele>
        <time>2011-04-19T11:52:24Z</time>
      </trkpt>
      <trkpt lat="32.160401735454798" lon="-1.371587226167321">
        <ele>984.046630859375</ele>
        <time>2011-04-19T11:52:33Z</time>
      </trkpt>
      <trkpt lat="32.160787219181657" lon="-1.37145965360105">
        <ele>984.52734375</ele>
        <time>2011-04-19T11:52:40Z</time>
      </trkpt>
      <trkpt lat="32.161370767280459" lon="-1.371002839878202">
        <ele>984.52734375</ele>
        <time>2011-04-19T11:52:50Z</time>
      </trkpt>
      <trkpt lat="32.162172328680754" lon="-1.370547953993082">
        <ele>985.008056640625</ele>
        <time>2011-04-19T11:53:00Z</time>
      </trkpt>
      <trkpt lat="32.162743974477053" lon="-1.370322061702609">
        <ele>985.488525390625</ele>
        <time>2011-04-19T11:53:06Z</time>
      </trkpt>
      <trkpt lat="32.163304220885038" lon="-1.370096923783422">
        <ele>986.930419921875</ele>
        <time>2011-04-19T11:53:13Z</time>
      </trkpt>
      <trkpt lat="32.164143836125731" lon="-1.369323022663593">
        <ele>986.930419921875</ele>
        <time>2011-04-19T11:53:24Z</time>
      </trkpt>
      <trkpt lat="32.16490943916142" lon="-1.368719274178147">
        <ele>987.891845703125</ele>
        <time>2011-04-19T11:53:33Z</time>
      </trkpt>
      <trkpt lat="32.165672276169062" lon="-1.36821267195046">
        <ele>988.853515625</ele>
        <time>2011-04-19T11:53:42Z</time>
      </trkpt>
      <trkpt lat="32.165989866480231" lon="-1.368111921474338">
        <ele>990.29541015625</ele>
        <time>2011-04-19T11:53:50Z</time>
      </trkpt>
      <trkpt lat="32.166084079071879" lon="-1.367935063317418">
        <ele>989.333984375</ele>
        <time>2011-04-19T11:53:57Z</time>
      </trkpt>
      <trkpt lat="32.166163120418787" lon="-1.367355119436979">
        <ele>988.853515625</ele>
        <time>2011-04-19T11:54:10Z</time>
      </trkpt>
      <trkpt lat="32.166187847033143" lon="-1.367020178586245">
        <ele>989.333984375</ele>
        <time>2011-04-19T11:54:22Z</time>
      </trkpt>
      <trkpt lat="32.166315084323287" lon="-1.366993021219969">
        <ele>987.4111328125</ele>
        <time>2011-04-19T11:54:48Z</time>
      </trkpt>
      <trkpt lat="32.166457073763013" lon="-1.367034427821636">
        <ele>977.317626953125</ele>
        <time>2011-04-19T11:55:01Z</time>
      </trkpt>
      <trkpt lat="32.166354060173035" lon="-1.366968881338835">
        <ele>972.99169921875</ele>
        <time>2011-04-19T11:55:49Z</time>
      </trkpt>
      <trkpt lat="32.166197989135981" lon="-1.366943651810288">
        <ele>961.455810546875</ele>
        <time>2011-04-19T11:56:23Z</time>
      </trkpt>
      <trkpt lat="32.166182063519955" lon="-1.366819264367223">
        <ele>968.184814453125</ele>
        <time>2011-04-19T11:56:30Z</time>
      </trkpt>
      <trkpt lat="32.16612221673131" lon="-1.366622792556882">
        <ele>973.952880859375</ele>
        <time>2011-04-19T11:56:37Z</time>
      </trkpt>
      <trkpt lat="32.166194636374712" lon="-1.366190118715167">
        <ele>976.8369140625</ele>
        <time>2011-04-19T11:56:46Z</time>
      </trkpt>
      <trkpt lat="32.166282394900918" lon="-1.365978224202991">
        <ele>976.356201171875</ele>
        <time>2011-04-19T11:56:50Z</time>
      </trkpt>
      <trkpt lat="32.166587831452489" lon="-1.365224942564964">
        <ele>972.510986328125</ele>
        <time>2011-04-19T11:57:04Z</time>
      </trkpt>
      <trkpt lat="32.166814226657152" lon="-1.36493057012558">
        <ele>970.107421875</ele>
        <time>2011-04-19T11:57:13Z</time>
      </trkpt>
      <trkpt lat="32.166945738717914" lon="-1.364957476034761">
        <ele>969.626953125</ele>
        <time>2011-04-19T11:57:24Z</time>
      </trkpt>
      <trkpt lat="32.167105581611395" lon="-1.365111032500863">
        <ele>960.494384765625</ele>
        <time>2011-04-19T11:57:34Z</time>
      </trkpt>
      <trkpt lat="32.167235752567649" lon="-1.365337846800685">
        <ele>957.610595703125</ele>
        <time>2011-04-19T11:57:45Z</time>
      </trkpt>
      <trkpt lat="32.167344465851784" lon="-1.365356035530567">
        <ele>960.97509765625</ele>
        <time>2011-04-19T11:57:54Z</time>
      </trkpt>
      <trkpt lat="32.167641771957278" lon="-1.365456534549594">
        <ele>955.20703125</ele>
        <time>2011-04-19T11:58:27Z</time>
      </trkpt>
      <trkpt lat="32.1677425224334" lon="-1.365551417693496">
        <ele>936.94189453125</ele>
        <time>2011-04-19T11:58:56Z</time>
      </trkpt>
      <trkpt lat="32.167734894901514" lon="-1.365659292787314">
        <ele>937.9033203125</ele>
        <time>2011-04-19T11:59:07Z</time>
      </trkpt>
      <trkpt lat="32.167715448886156" lon="-1.365890968590975">
        <ele>981.162841796875</ele>
        <time>2011-04-19T12:16:45Z</time>
      </trkpt>
      <trkpt lat="32.167726429179311" lon="-1.365716541185975">
        <ele>968.184814453125</ele>
        <time>2011-04-19T12:17:36Z</time>
      </trkpt>
      <trkpt lat="32.167540686205029" lon="-1.365778986364603">
        <ele>966.26220703125</ele>
        <time>2011-04-19T13:12:09Z</time>
      </trkpt>
      <trkpt lat="32.167755849659443" lon="-1.365647222846746">
        <ele>945.11328125</ele>
        <time>2011-04-19T13:18:47Z</time>
      </trkpt>
      <trkpt lat="32.167594246566296" lon="-1.365584190934897">
        <ele>947.997314453125</ele>
        <time>2011-04-19T13:24:44Z</time>
      </trkpt>
      <trkpt lat="32.167445048689842" lon="-1.365332482382655">
        <ele>946.555419921875</ele>
        <time>2011-04-19T13:24:56Z</time>
      </trkpt>
      <trkpt lat="32.167343879118562" lon="-1.365076331421733">
        <ele>945.11328125</ele>
        <time>2011-04-19T13:25:04Z</time>
      </trkpt>
      <trkpt lat="32.167270788922906" lon="-1.364880530163646">
        <ele>943.67138671875</ele>
        <time>2011-04-19T13:25:21Z</time>
      </trkpt>
      <trkpt lat="32.167157884687185" lon="-1.364931492134929">
        <ele>938.86474609375</ele>
        <time>2011-04-19T13:25:28Z</time>
      </trkpt>
      <trkpt lat="32.166986474767327" lon="-1.365109272301197">
        <ele>940.787353515625</ele>
        <time>2011-04-19T13:25:50Z</time>
      </trkpt>
      <trkpt lat="32.166855549439788" lon="-1.365292333066464">
        <ele>942.2294921875</ele>
        <time>2011-04-19T13:25:55Z</time>
      </trkpt>
      <trkpt lat="32.166687659919262" lon="-1.365783093497157">
        <ele>944.632568359375</ele>
        <time>2011-04-19T13:26:03Z</time>
      </trkpt>
      <trkpt lat="32.166611133143306" lon="-1.365990545600653">
        <ele>945.593994140625</ele>
        <time>2011-04-19T13:26:06Z</time>
      </trkpt>
      <trkpt lat="32.166497893631458" lon="-1.366173857823014">
        <ele>947.035888671875</ele>
        <time>2011-04-19T13:26:10Z</time>
      </trkpt>
      <trkpt lat="32.166402088478208" lon="-1.366761429235339">
        <ele>948.95849609375</ele>
        <time>2011-04-19T13:26:18Z</time>
      </trkpt>
      <trkpt lat="32.166302343830466" lon="-1.367631135508418">
        <ele>950.881103515625</ele>
        <time>2011-04-19T13:26:27Z</time>
      </trkpt>
      <trkpt lat="32.166228499263525" lon="-1.368132457137108">
        <ele>952.322998046875</ele>
        <time>2011-04-19T13:26:34Z</time>
      </trkpt>
      <trkpt lat="32.16616177931428" lon="-1.368552390486002">
        <ele>958.09130859375</ele>
        <time>2011-04-19T13:26:40Z</time>
      </trkpt>
      <trkpt lat="32.166011156514287" lon="-1.368671832606196">
        <ele>959.533203125</ele>
        <time>2011-04-19T13:26:45Z</time>
      </trkpt>
      <trkpt lat="32.165914345532656" lon="-1.368667390197516">
        <ele>959.533203125</ele>
        <time>2011-04-19T13:26:47Z</time>
      </trkpt>
      <trkpt lat="32.165613854303956" lon="-1.368772080168128">
        <ele>959.533203125</ele>
        <time>2011-04-19T13:26:52Z</time>
      </trkpt>
      <trkpt lat="32.164996359497309" lon="-1.369127137586474">
        <ele>960.97509765625</ele>
        <time>2011-04-19T13:27:01Z</time>
      </trkpt>
      <trkpt lat="32.164718667045236" lon="-1.369347330182791">
        <ele>960.97509765625</ele>
        <time>2011-04-19T13:27:06Z</time>
      </trkpt>
      <trkpt lat="32.164624035358429" lon="-1.369465598836541">
        <ele>960.97509765625</ele>
        <time>2011-04-19T13:27:08Z</time>
      </trkpt>
      <trkpt lat="32.164385570213199" lon="-1.369623094797134">
        <ele>961.455810546875</ele>
        <time>2011-04-19T13:27:12Z</time>
      </trkpt>
      <trkpt lat="32.163716359063983" lon="-1.369967926293612">
        <ele>963.85888671875</ele>
        <time>2011-04-19T13:27:23Z</time>
      </trkpt>
      <trkpt lat="32.163093835115433" lon="-1.370598832145333">
        <ele>963.85888671875</ele>
        <time>2011-04-19T13:27:34Z</time>
      </trkpt>
      <trkpt lat="32.162284143269062" lon="-1.371388323605061">
        <ele>964.339599609375</ele>
        <time>2011-04-19T13:27:45Z</time>
      </trkpt>
      <trkpt lat="32.161512337625027" lon="-1.37216717004776">
        <ele>964.8203125</ele>
        <time>2011-04-19T13:27:57Z</time>
      </trkpt>
      <trkpt lat="32.160749668255448" lon="-1.372922379523516">
        <ele>965.301025390625</ele>
        <time>2011-04-19T13:28:07Z</time>
      </trkpt>
      <trkpt lat="32.160782525315881" lon="-1.373202418908477">
        <ele>965.78173828125</ele>
        <time>2011-04-19T13:28:13Z</time>
      </trkpt>
      <trkpt lat="32.160828206688166" lon="-1.373602235689759">
        <ele>953.76513671875</ele>
        <time>2011-04-19T13:29:29Z</time>
      </trkpt>
      <trkpt lat="32.160926694050431" lon="-1.374463979154825">
        <ele>952.8037109375</ele>
        <time>2011-04-19T13:29:36Z</time>
      </trkpt>
      <trkpt lat="32.161132050678134" lon="-1.37602586299181">
        <ele>952.322998046875</ele>
        <time>2011-04-19T13:29:45Z</time>
      </trkpt>
      <trkpt lat="32.161333132535219" lon="-1.377522619441152">
        <ele>953.76513671875</ele>
        <time>2011-04-19T13:29:52Z</time>
      </trkpt>
      <trkpt lat="32.161671426147223" lon="-1.380059737712145">
        <ele>956.649169921875</ele>
        <time>2011-04-19T13:30:02Z</time>
      </trkpt>
      <trkpt lat="32.162034027278423" lon="-1.382896844297648">
        <ele>957.610595703125</ele>
        <time>2011-04-19T13:30:12Z</time>
      </trkpt>
      <trkpt lat="32.162470472976565" lon="-1.386409448459745">
        <ele>958.57177734375</ele>
        <time>2011-04-19T13:30:24Z</time>
      </trkpt>
      <trkpt lat="32.162933992221951" lon="-1.389789115637541">
        <ele>960.013671875</ele>
        <time>2011-04-19T13:30:36Z</time>
      </trkpt>
      <trkpt lat="32.163311429321766" lon="-1.393111031502485">
        <ele>960.013671875</ele>
        <time>2011-04-19T13:30:49Z</time>
      </trkpt>
      <trkpt lat="32.163708144798875" lon="-1.396197834983468">
        <ele>960.494384765625</ele>
        <time>2011-04-19T13:31:02Z</time>
      </trkpt>
      <trkpt lat="32.164133442565799" lon="-1.399620668962598">
        <ele>962.897705078125</ele>
        <time>2011-04-19T13:31:16Z</time>
      </trkpt>
      <trkpt lat="32.164570223540068" lon="-1.402978543192148">
        <ele>964.8203125</ele>
        <time>2011-04-19T13:31:29Z</time>
      </trkpt>
      <trkpt lat="32.165085542947054" lon="-1.407029097899795">
        <ele>967.7041015625</ele>
        <time>2011-04-19T13:31:44Z</time>
      </trkpt>
      <trkpt lat="32.165540680289268" lon="-1.4105274528265">
        <ele>968.66552734375</ele>
        <time>2011-04-19T13:31:57Z</time>
      </trkpt>
      <trkpt lat="32.165672779083252" lon="-1.413051076233387">
        <ele>969.626953125</ele>
        <time>2011-04-19T13:32:06Z</time>
      </trkpt>
      <trkpt lat="32.165522575378418" lon="-1.417095512151718">
        <ele>972.510986328125</ele>
        <time>2011-04-19T13:32:20Z</time>
      </trkpt>
      <trkpt lat="32.165379831567407" lon="-1.421477654948831">
        <ele>975.394775390625</ele>
        <time>2011-04-19T13:32:35Z</time>
      </trkpt>
      <trkpt lat="32.165272543206811" lon="-1.425382951274514">
        <ele>978.759521484375</ele>
        <time>2011-04-19T13:32:48Z</time>
      </trkpt>
      <trkpt lat="32.1651556994766" lon="-1.428534714505076">
        <ele>982.1240234375</ele>
        <time>2011-04-19T13:32:59Z</time>
      </trkpt>
      <trkpt lat="32.165097109973431" lon="-1.431751688942313">
        <ele>985.488525390625</ele>
        <time>2011-04-19T13:33:11Z</time>
      </trkpt>
      <trkpt lat="32.16499493457377" lon="-1.434830781072378">
        <ele>989.333984375</ele>
        <time>2011-04-19T13:33:22Z</time>
      </trkpt>
      <trkpt lat="32.164869708940387" lon="-1.438249759376049">
        <ele>993.659912109375</ele>
        <time>2011-04-19T13:33:34Z</time>
      </trkpt>
      <trkpt lat="32.164808856323361" lon="-1.441143276169896">
        <ele>996.5439453125</ele>
        <time>2011-04-19T13:33:45Z</time>
      </trkpt>
      <trkpt lat="32.164550526067615" lon="-1.442940607666969">
        <ele>997.505126953125</ele>
        <time>2011-04-19T13:33:52Z</time>
      </trkpt>
      <trkpt lat="32.163923140615225" lon="-1.444611707702279">
        <ele>997.98583984375</ele>
        <time>2011-04-19T13:33:59Z</time>
      </trkpt>
      <trkpt lat="32.162673315033317" lon="-1.447238177061081">
        <ele>998.947021484375</ele>
        <time>2011-04-19T13:34:11Z</time>
      </trkpt>
      <trkpt lat="32.161346292123199" lon="-1.449878979474306">
        <ele>1008.560302734375</ele>
        <time>2011-04-19T13:34:24Z</time>
      </trkpt>
      <trkpt lat="32.160214567556977" lon="-1.452227672562003">
        <ele>1014.808837890625</ele>
        <time>2011-04-19T13:34:36Z</time>
      </trkpt>
      <trkpt lat="32.159202117472887" lon="-1.454628081992269">
        <ele>1019.615478515625</ele>
        <time>2011-04-19T13:34:48Z</time>
      </trkpt>
      <trkpt lat="32.158728959038854" lon="-1.456594727933407">
        <ele>1022.49951171875</ele>
        <time>2011-04-19T13:34:57Z</time>
      </trkpt>
      <trkpt lat="32.158602140843868" lon="-1.458497419953346">
        <ele>1025.38330078125</ele>
        <time>2011-04-19T13:35:05Z</time>
      </trkpt>
      <trkpt lat="32.158389911055565" lon="-1.46176602691412">
        <ele>1028.267333984375</ele>
        <time>2011-04-19T13:35:18Z</time>
      </trkpt>
      <trkpt lat="32.158181788399816" lon="-1.465215431526303">
        <ele>1030.18994140625</ele>
        <time>2011-04-19T13:35:31Z</time>
      </trkpt>
      <trkpt lat="32.157967127859592" lon="-1.468889554962516">
        <ele>1030.670654296875</ele>
        <time>2011-04-19T13:35:44Z</time>
      </trkpt>
      <trkpt lat="32.157714916393161" lon="-1.472698459401727">
        <ele>1028.267333984375</ele>
        <time>2011-04-19T13:35:57Z</time>
      </trkpt>
      <trkpt lat="32.157473769038916" lon="-1.476468471810222">
        <ele>1028.267333984375</ele>
        <time>2011-04-19T13:36:09Z</time>
      </trkpt>
      <trkpt lat="32.157238069921732" lon="-1.480034133419395">
        <ele>1029.228515625</ele>
        <time>2011-04-19T13:36:21Z</time>
      </trkpt>
      <trkpt lat="32.157073533162475" lon="-1.482841400429606">
        <ele>1029.228515625</ele>
        <time>2011-04-19T13:36:32Z</time>
      </trkpt>
      <trkpt lat="32.157124746590853" lon="-1.48406021296978">
        <ele>1028.748046875</ele>
        <time>2011-04-19T13:36:38Z</time>
      </trkpt>
      <trkpt lat="32.15726681984961" lon="-1.484732357785106">
        <ele>1027.78662109375</ele>
        <time>2011-04-19T13:36:43Z</time>
      </trkpt>
      <trkpt lat="32.156957443803549" lon="-1.485091522336006">
        <ele>1025.864013671875</ele>
        <time>2011-04-19T13:36:48Z</time>
      </trkpt>
      <trkpt lat="32.156845545396209" lon="-1.485122619196773">
        <ele>1024.422119140625</ele>
        <time>2011-04-19T13:36:50Z</time>
      </trkpt>
      <trkpt lat="32.156275073066354" lon="-1.48526075296104">
        <ele>1019.615478515625</ele>
        <time>2011-04-19T13:36:57Z</time>
      </trkpt>
      <trkpt lat="32.15573544614017" lon="-1.485437946394086">
        <ele>1016.7314453125</ele>
        <time>2011-04-19T13:37:02Z</time>
      </trkpt>
      <trkpt lat="32.155362451449037" lon="-1.485902136191726">
        <ele>1012.88623046875</ele>
        <time>2011-04-19T13:37:07Z</time>
      </trkpt>
      <trkpt lat="32.15531618334353" lon="-1.486036749556661">
        <ele>1012.405517578125</ele>
        <time>2011-04-19T13:37:08Z</time>
      </trkpt>
      <trkpt lat="32.154849981889129" lon="-1.48753727786243">
        <ele>1010.48291015625</ele>
        <time>2011-04-19T13:37:17Z</time>
      </trkpt>
      <trkpt lat="32.154429126530886" lon="-1.48913755081594">
        <ele>1011.925048828125</ele>
        <time>2011-04-19T13:37:25Z</time>
      </trkpt>
      <trkpt lat="32.154082031920552" lon="-1.490501537919045">
        <ele>1016.250732421875</ele>
        <time>2011-04-19T13:37:32Z</time>
      </trkpt>
      <trkpt lat="32.153517259284854" lon="-1.492541441693902">
        <ele>1021.5380859375</ele>
        <time>2011-04-19T13:37:42Z</time>
      </trkpt>
      <trkpt lat="32.153255995362997" lon="-1.493702419102192">
        <ele>1023.4609375</ele>
        <time>2011-04-19T13:37:48Z</time>
      </trkpt>
      <trkpt lat="32.153292037546635" lon="-1.495232116430998">
        <ele>1025.38330078125</ele>
        <time>2011-04-19T13:37:56Z</time>
      </trkpt>
      <trkpt lat="32.15324685908854" lon="-1.496483283117414">
        <ele>1029.709228515625</ele>
        <time>2011-04-19T13:38:03Z</time>
      </trkpt>
      <trkpt lat="32.152952486649156" lon="-1.498236861079931">
        <ele>1032.112548828125</ele>
        <time>2011-04-19T13:38:12Z</time>
      </trkpt>
      <trkpt lat="32.152406573295593" lon="-1.499793799594045">
        <ele>1036.438720703125</ele>
        <time>2011-04-19T13:38:20Z</time>
      </trkpt>
      <trkpt lat="32.151973899453878" lon="-1.501641254872084">
        <ele>1039.80322265625</ele>
        <time>2011-04-19T13:38:29Z</time>
      </trkpt>
      <trkpt lat="32.151972642168403" lon="-1.502888733521104">
        <ele>1040.764404296875</ele>
        <time>2011-04-19T13:38:35Z</time>
      </trkpt>
      <trkpt lat="32.152006085962057" lon="-1.503091072663665">
        <ele>1041.2451171875</ele>
        <time>2011-04-19T13:38:36Z</time>
      </trkpt>
      <trkpt lat="32.151940874755383" lon="-1.504220366477966">
        <ele>1042.687255859375</ele>
        <time>2011-04-19T13:38:42Z</time>
      </trkpt>
      <trkpt lat="32.151735685765743" lon="-1.505496175959706">
        <ele>1044.129150390625</ele>
        <time>2011-04-19T13:38:49Z</time>
      </trkpt>
      <trkpt lat="32.151724621653557" lon="-1.505631124600768">
        <ele>1044.129150390625</ele>
        <time>2011-04-19T13:38:50Z</time>
      </trkpt>
      <trkpt lat="32.151939533650875" lon="-1.506208134815097">
        <ele>1045.09033203125</ele>
        <time>2011-04-19T13:38:55Z</time>
      </trkpt>
      <trkpt lat="32.152632046490908" lon="-1.506915399804711">
        <ele>1046.0517578125</ele>
        <time>2011-04-19T13:39:02Z</time>
      </trkpt>
      <trkpt lat="32.153444336727262" lon="-1.507190242409706">
        <ele>1044.129150390625</ele>
        <time>2011-04-19T13:39:08Z</time>
      </trkpt>
      <trkpt lat="32.154920054599643" lon="-1.507658874616027">
        <ele>1044.129150390625</ele>
        <time>2011-04-19T13:39:18Z</time>
      </trkpt>
      <trkpt lat="32.155876681208611" lon="-1.508034048601985">
        <ele>1042.687255859375</ele>
        <time>2011-04-19T13:39:26Z</time>
      </trkpt>
      <trkpt lat="32.157309651374817" lon="-1.508529586717486">
        <ele>1043.167724609375</ele>
        <time>2011-04-19T13:39:36Z</time>
      </trkpt>
      <trkpt lat="32.158083217218518" lon="-1.508758077397943">
        <ele>1042.20654296875</ele>
        <time>2011-04-19T13:39:42Z</time>
      </trkpt>
      <trkpt lat="32.158477669581771" lon="-1.509114811196923">
        <ele>1042.20654296875</ele>
        <time>2011-04-19T13:39:47Z</time>
      </trkpt>
      <trkpt lat="32.158460738137364" lon="-1.509221345186234">
        <ele>1044.129150390625</ele>
        <time>2011-04-19T13:39:48Z</time>
      </trkpt>
      <trkpt lat="32.1583017334342" lon="-1.510387100279331">
        <ele>1052.30029296875</ele>
        <time>2011-04-19T13:39:56Z</time>
      </trkpt>
      <trkpt lat="32.158035188913345" lon="-1.51232885196805">
        <ele>1058.068359375</ele>
        <time>2011-04-19T13:40:06Z</time>
      </trkpt>
      <trkpt lat="32.157675186172128" lon="-1.514808889478445">
        <ele>1061.91357421875</ele>
        <time>2011-04-19T13:40:18Z</time>
      </trkpt>
      <trkpt lat="32.157268160954118" lon="-1.517630908638239">
        <ele>1066.2392578125</ele>
        <time>2011-04-19T13:40:32Z</time>
      </trkpt>
      <trkpt lat="32.156859962269664" lon="-1.519655305892229">
        <ele>1072.488037109375</ele>
        <time>2011-04-19T13:40:41Z</time>
      </trkpt>
      <trkpt lat="32.155999140813947" lon="-1.522954422980547">
        <ele>1074.891357421875</ele>
        <time>2011-04-19T13:40:56Z</time>
      </trkpt>
      <trkpt lat="32.155086770653725" lon="-1.526189167052507">
        <ele>1077.294677734375</ele>
        <time>2011-04-19T13:41:10Z</time>
      </trkpt>
      <trkpt lat="32.154294764623046" lon="-1.529132220894098">
        <ele>1082.581787109375</ele>
        <time>2011-04-19T13:41:22Z</time>
      </trkpt>
      <trkpt lat="32.154153613373637" lon="-1.530644986778498">
        <ele>1087.869140625</ele>
        <time>2011-04-19T13:41:28Z</time>
      </trkpt>
      <trkpt lat="32.154309432953596" lon="-1.532107377424836">
        <ele>1097.482177734375</ele>
        <time>2011-04-19T13:41:34Z</time>
      </trkpt>
      <trkpt lat="32.154785860329866" lon="-1.533354185521603">
        <ele>1101.808349609375</ele>
        <time>2011-04-19T13:41:40Z</time>
      </trkpt>
      <trkpt lat="32.155374772846699" lon="-1.535021178424358">
        <ele>1099.40478515625</ele>
        <time>2011-04-19T13:41:48Z</time>
      </trkpt>
      <trkpt lat="32.155478792265058" lon="-1.536468230187893">
        <ele>1100.846923828125</ele>
        <time>2011-04-19T13:41:54Z</time>
      </trkpt>
      <trkpt lat="32.155394554138184" lon="-1.538641154766083">
        <ele>1107.576171875</ele>
        <time>2011-04-19T13:42:03Z</time>
      </trkpt>
      <trkpt lat="32.155362451449037" lon="-1.540840649977326">
        <ele>1107.095458984375</ele>
        <time>2011-04-19T13:42:12Z</time>
      </trkpt>
      <trkpt lat="32.155287265777588" lon="-1.543502071872354">
        <ele>1109.01806640625</ele>
        <time>2011-04-19T13:42:23Z</time>
      </trkpt>
      <trkpt lat="32.155243679881096" lon="-1.545444410294294">
        <ele>1111.902099609375</ele>
        <time>2011-04-19T13:42:31Z</time>
      </trkpt>
      <trkpt lat="32.155186012387276" lon="-1.548309344798327">
        <ele>1109.01806640625</ele>
        <time>2011-04-19T13:42:42Z</time>
      </trkpt>
      <trkpt lat="32.155094146728516" lon="-1.551183164119721">
        <ele>1108.056884765625</ele>
        <time>2011-04-19T13:42:52Z</time>
      </trkpt>
      <trkpt lat="32.155008316040039" lon="-1.554990811273456">
        <ele>1109.498779296875</ele>
        <time>2011-04-19T13:43:04Z</time>
      </trkpt>
      <trkpt lat="32.154954420402646" lon="-1.557708475738764">
        <ele>1110.4599609375</ele>
        <time>2011-04-19T13:43:13Z</time>
      </trkpt>
      <trkpt lat="32.154881749302149" lon="-1.561611089855433">
        <ele>1113.824462890625</ele>
        <time>2011-04-19T13:43:27Z</time>
      </trkpt>
      <trkpt lat="32.154836151748896" lon="-1.563615286722779">
        <ele>1117.189453125</ele>
        <time>2011-04-19T13:43:35Z</time>
      </trkpt>
      <trkpt lat="32.154792733490467" lon="-1.564844325184822">
        <ele>1119.5927734375</ele>
        <time>2011-04-19T13:43:40Z</time>
      </trkpt>
      <trkpt lat="32.155921859666705" lon="-1.566972238942981">
        <ele>1124.399169921875</ele>
        <time>2011-04-19T13:43:49Z</time>
      </trkpt>
      <trkpt lat="32.157101193442941" lon="-1.569873467087746">
        <ele>1132.08984375</ele>
        <time>2011-04-19T13:44:02Z</time>
      </trkpt>
      <trkpt lat="32.158328723162413" lon="-1.572947949171066">
        <ele>1141.22216796875</ele>
        <time>2011-04-19T13:44:16Z</time>
      </trkpt>
      <trkpt lat="32.159502441063523" lon="-1.575834173709154">
        <ele>1149.874267578125</ele>
        <time>2011-04-19T13:44:29Z</time>
      </trkpt>
      <trkpt lat="32.160659478977323" lon="-1.578772952780128">
        <ele>1159.006591796875</ele>
        <time>2011-04-19T13:44:42Z</time>
      </trkpt>
      <trkpt lat="32.161409324035048" lon="-1.580077679827809">
        <ele>1164.774658203125</ele>
        <time>2011-04-19T13:44:48Z</time>
      </trkpt>
      <trkpt lat="32.162175765261054" lon="-1.580919390544295">
        <ele>1169.581298828125</ele>
        <time>2011-04-19T13:44:53Z</time>
      </trkpt>
      <trkpt lat="32.163043627515435" lon="-1.581871071830392">
        <ele>1171.503662109375</ele>
        <time>2011-04-19T13:45:00Z</time>
      </trkpt>
      <trkpt lat="32.164080636575818" lon="-1.582859549671412">
        <ele>1171.503662109375</ele>
        <time>2011-04-19T13:45:08Z</time>
      </trkpt>
      <trkpt lat="32.165141282603145" lon="-1.583326924592257">
        <ele>1169.1005859375</ele>
        <time>2011-04-19T13:45:14Z</time>
      </trkpt>
      <trkpt lat="32.166957221925259" lon="-1.583869652822614">
        <ele>1167.658447265625</ele>
        <time>2011-04-19T13:45:23Z</time>
      </trkpt>
      <trkpt lat="32.169090332463384" lon="-1.58456333912909">
        <ele>1183.03955078125</ele>
        <time>2011-04-19T13:45:33Z</time>
      </trkpt>
      <trkpt lat="32.170011671259999" lon="-1.585225677117705">
        <ele>1192.65283203125</ele>
        <time>2011-04-19T13:45:38Z</time>
      </trkpt>
      <trkpt lat="32.172158528119326" lon="-1.587117472663522">
        <ele>1205.14990234375</ele>
        <time>2011-04-19T13:45:50Z</time>
      </trkpt>
      <trkpt lat="32.173226969316602" lon="-1.587571017444134">
        <ele>1207.072509765625</ele>
        <time>2011-04-19T13:45:55Z</time>
      </trkpt>
      <trkpt lat="32.174991695210338" lon="-1.587917357683182">
        <ele>1209.956298828125</ele>
        <time>2011-04-19T13:46:03Z</time>
      </trkpt>
      <trkpt lat="32.177037131041288" lon="-1.588522782549262">
        <ele>1214.282470703125</ele>
        <time>2011-04-19T13:46:12Z</time>
      </trkpt>
      <trkpt lat="32.179265962913632" lon="-1.589542357251048">
        <ele>1219.089111328125</ele>
        <time>2011-04-19T13:46:22Z</time>
      </trkpt>
      <trkpt lat="32.180944690480828" lon="-1.590488841757178">
        <ele>1222.934326171875</ele>
        <time>2011-04-19T13:46:30Z</time>
      </trkpt>
      <trkpt lat="32.183188358321786" lon="-1.592063969001174">
        <ele>1226.298828125</ele>
        <time>2011-04-19T13:46:41Z</time>
      </trkpt>
      <trkpt lat="32.185154166072607" lon="-1.593458885326982">
        <ele>1233.028076171875</ele>
        <time>2011-04-19T13:46:51Z</time>
      </trkpt>
      <trkpt lat="32.18709466047585" lon="-1.594800325110555">
        <ele>1235.912109375</ele>
        <time>2011-04-19T13:47:01Z</time>
      </trkpt>
      <trkpt lat="32.18920698389411" lon="-1.596279395744205">
        <ele>1236.873291015625</ele>
        <time>2011-04-19T13:47:12Z</time>
      </trkpt>
      <trkpt lat="32.191804284229875" lon="-1.598096424713731">
        <ele>1244.56396484375</ele>
        <time>2011-04-19T13:47:25Z</time>
      </trkpt>
      <trkpt lat="32.193496255204082" lon="-1.599449850618839">
        <ele>1251.293212890625</ele>
        <time>2011-04-19T13:47:34Z</time>
      </trkpt>
      <trkpt lat="32.194584058597684" lon="-1.600840659812093">
        <ele>1250.33203125</ele>
        <time>2011-04-19T13:47:42Z</time>
      </trkpt>
      <trkpt lat="32.195471450686455" lon="-1.602416876703501">
        <ele>1251.293212890625</ele>
        <time>2011-04-19T13:47:50Z</time>
      </trkpt>
      <trkpt lat="32.1965017542243" lon="-1.604310935363174">
        <ele>1255.619140625</ele>
        <time>2011-04-19T13:48:00Z</time>
      </trkpt>
      <trkpt lat="32.197557035833597" lon="-1.606723917648196">
        <ele>1257.06103515625</ele>
        <time>2011-04-19T13:48:12Z</time>
      </trkpt>
      <trkpt lat="32.198383659124374" lon="-1.608732473105192">
        <ele>1259.94482421875</ele>
        <time>2011-04-19T13:48:22Z</time>
      </trkpt>
      <trkpt lat="32.198838964104652" lon="-1.610473562031984">
        <ele>1255.138427734375</ele>
        <time>2011-04-19T13:48:30Z</time>
      </trkpt>
      <trkpt lat="32.199255544692278" lon="-1.612602816894651">
        <ele>1255.138427734375</ele>
        <time>2011-04-19T13:48:39Z</time>
      </trkpt>
      <trkpt lat="32.199695175513625" lon="-1.614938182756305">
        <ele>1257.06103515625</ele>
        <time>2011-04-19T13:48:50Z</time>
      </trkpt>
      <trkpt lat="32.199883097782731" lon="-1.617027539759874">
        <ele>1251.293212890625</ele>
        <time>2011-04-19T13:49:00Z</time>
      </trkpt>
      <trkpt lat="32.199940346181393" lon="-1.618053819984198">
        <ele>1247.9287109375</ele>
        <time>2011-04-19T13:49:06Z</time>
      </trkpt>
      <trkpt lat="32.200032798573375" lon="-1.619415627792478">
        <ele>1248.4091796875</ele>
        <time>2011-04-19T13:49:14Z</time>
      </trkpt>
      <trkpt lat="32.200165065005422" lon="-1.621264172717929">
        <ele>1242.16064453125</ele>
        <time>2011-04-19T13:49:24Z</time>
      </trkpt>
      <trkpt lat="32.200291631743312" lon="-1.622589938342571">
        <ele>1238.796142578125</ele>
        <time>2011-04-19T13:49:31Z</time>
      </trkpt>
      <trkpt lat="32.200722126290202" lon="-1.623618816956878">
        <ele>1233.989501953125</ele>
        <time>2011-04-19T13:49:37Z</time>
      </trkpt>
      <trkpt lat="32.201817892491817" lon="-1.625514719635248">
        <ele>1233.989501953125</ele>
        <time>2011-04-19T13:49:48Z</time>
      </trkpt>
      <trkpt lat="32.203000746667385" lon="-1.627613632008433">
        <ele>1238.796142578125</ele>
        <time>2011-04-19T13:49:59Z</time>
      </trkpt>
      <trkpt lat="32.204278986901045" lon="-1.629894347861409">
        <ele>1241.679931640625</ele>
        <time>2011-04-19T13:50:11Z</time>
      </trkpt>
      <trkpt lat="32.204371271654963" lon="-1.630084617063403">
        <ele>1242.16064453125</ele>
        <time>2011-04-19T13:50:12Z</time>
      </trkpt>
      <trkpt lat="32.204676037654281" lon="-1.631388925015926">
        <ele>1246.006103515625</ele>
        <time>2011-04-19T13:50:18Z</time>
      </trkpt>
      <trkpt lat="32.20482163131237" lon="-1.632796917110682">
        <ele>1246.96728515625</ele>
        <time>2011-04-19T13:50:24Z</time>
      </trkpt>
      <trkpt lat="32.205128576606512" lon="-1.633581295609474">
        <ele>1246.96728515625</ele>
        <time>2011-04-19T13:50:28Z</time>
      </trkpt>
      <trkpt lat="32.206101380288601" lon="-1.634845957159996">
        <ele>1248.4091796875</ele>
        <time>2011-04-19T13:50:36Z</time>
      </trkpt>
      <trkpt lat="32.206792971119285" lon="-1.63581557571888">
        <ele>1256.099609375</ele>
        <time>2011-04-19T13:50:43Z</time>
      </trkpt>
      <trkpt lat="32.206871761009097" lon="-1.635968964546919">
        <ele>1257.06103515625</ele>
        <time>2011-04-19T13:50:44Z</time>
      </trkpt>
      <trkpt lat="32.207094887271523" lon="-1.636779494583607">
        <ele>1258.0224609375</ele>
        <time>2011-04-19T13:50:49Z</time>
      </trkpt>
      <trkpt lat="32.206994136795402" lon="-1.63796603679657">
        <ele>1258.0224609375</ele>
        <time>2011-04-19T13:50:55Z</time>
      </trkpt>
      <trkpt lat="32.206342024728656" lon="-1.639808546751738">
        <ele>1253.2158203125</ele>
        <time>2011-04-19T13:51:04Z</time>
      </trkpt>
      <trkpt lat="32.205675160512328" lon="-1.641589365899563">
        <ele>1245.044677734375</ele>
        <time>2011-04-19T13:51:12Z</time>
      </trkpt>
      <trkpt lat="32.205021791160107" lon="-1.643128953874111">
        <ele>1244.08349609375</ele>
        <time>2011-04-19T13:51:19Z</time>
      </trkpt>
      <trkpt lat="32.203964833170176" lon="-1.644406775012612">
        <ele>1241.679931640625</ele>
        <time>2011-04-19T13:51:26Z</time>
      </trkpt>
      <trkpt lat="32.202257523313165" lon="-1.646301755681634">
        <ele>1239.75732421875</ele>
        <time>2011-04-19T13:51:37Z</time>
      </trkpt>
      <trkpt lat="32.201144322752953" lon="-1.647765822708607">
        <ele>1239.75732421875</ele>
        <time>2011-04-19T13:51:45Z</time>
      </trkpt>
      <trkpt lat="32.199056474491954" lon="-1.65006548166275">
        <ele>1239.75732421875</ele>
        <time>2011-04-19T13:51:58Z</time>
      </trkpt>
      <trkpt lat="32.198757659643888" lon="-1.651162840425968">
        <ele>1240.718505859375</ele>
        <time>2011-04-19T13:52:03Z</time>
      </trkpt>
      <trkpt lat="32.198706110939384" lon="-1.652518529444933">
        <ele>1243.121826171875</ele>
        <time>2011-04-19T13:52:09Z</time>
      </trkpt>
      <trkpt lat="32.19873963855207" lon="-1.655236780643463">
        <ele>1247.9287109375</ele>
        <time>2011-04-19T13:52:21Z</time>
      </trkpt>
      <trkpt lat="32.198524475097656" lon="-1.656789779663086">
        <ele>1254.17724609375</ele>
        <time>2011-04-19T13:52:29Z</time>
      </trkpt>
      <trkpt lat="32.198329092934728" lon="-1.658294079825282">
        <ele>1256.580322265625</ele>
        <time>2011-04-19T13:52:37Z</time>
      </trkpt>
      <trkpt lat="32.198202610015869" lon="-1.659811455756426">
        <ele>1258.0224609375</ele>
        <time>2011-04-19T13:52:45Z</time>
      </trkpt>
      <trkpt lat="32.198287351056933" lon="-1.660949382930994">
        <ele>1257.541748046875</ele>
        <time>2011-04-19T13:52:50Z</time>
      </trkpt>
      <trkpt lat="32.198501005768776" lon="-1.662854505702853">
        <ele>1258.5029296875</ele>
        <time>2011-04-19T13:52:57Z</time>
      </trkpt>
      <trkpt lat="32.198818847537041" lon="-1.665482483804226">
        <ele>1260.906494140625</ele>
        <time>2011-04-19T13:53:06Z</time>
      </trkpt>
      <trkpt lat="32.199292676523328" lon="-1.666722502559423">
        <ele>1261.867919921875</ele>
        <time>2011-04-19T13:53:11Z</time>
      </trkpt>
      <trkpt lat="32.199769020080566" lon="-1.668137619271874">
        <ele>1263.309814453125</ele>
        <time>2011-04-19T13:53:17Z</time>
      </trkpt>
      <trkpt lat="32.199791567400098" lon="-1.669706711545587">
        <ele>1267.155029296875</ele>
        <time>2011-04-19T13:53:23Z</time>
      </trkpt>
      <trkpt lat="32.199843032285571" lon="-1.670923847705126">
        <ele>1267.635498046875</ele>
        <time>2011-04-19T13:53:28Z</time>
      </trkpt>
      <trkpt lat="32.200183337554336" lon="-1.671984661370516">
        <ele>1267.635498046875</ele>
        <time>2011-04-19T13:53:33Z</time>
      </trkpt>
      <trkpt lat="32.200582064688206" lon="-1.672485144808888">
        <ele>1266.67431640625</ele>
        <time>2011-04-19T13:53:36Z</time>
      </trkpt>
      <trkpt lat="32.201539361849427" lon="-1.673415116965771">
        <ele>1266.67431640625</ele>
        <time>2011-04-19T13:53:42Z</time>
      </trkpt>
      <trkpt lat="32.202175883576274" lon="-1.674365121871233">
        <ele>1265.232421875</ele>
        <time>2011-04-19T13:53:47Z</time>
      </trkpt>
      <trkpt lat="32.202363051474094" lon="-1.675390144810081">
        <ele>1264.27099609375</ele>
        <time>2011-04-19T13:53:51Z</time>
      </trkpt>
      <trkpt lat="32.202329188585281" lon="-1.67564420029521">
        <ele>1263.790283203125</ele>
        <time>2011-04-19T13:53:52Z</time>
      </trkpt>
      <trkpt lat="32.202171357348561" lon="-1.678347028791904">
        <ele>1264.27099609375</ele>
        <time>2011-04-19T13:54:03Z</time>
      </trkpt>
      <trkpt lat="32.202151073142886" lon="-1.67968662455678">
        <ele>1267.635498046875</ele>
        <time>2011-04-19T13:54:09Z</time>
      </trkpt>
      <trkpt lat="32.202328769490123" lon="-1.680490784347057">
        <ele>1270.038818359375</ele>
        <time>2011-04-19T13:54:13Z</time>
      </trkpt>
      <trkpt lat="32.202830426394939" lon="-1.681629214435816">
        <ele>1270.51953125</ele>
        <time>2011-04-19T13:54:19Z</time>
      </trkpt>
      <trkpt lat="32.203549928963184" lon="-1.682349722832441">
        <ele>1270.038818359375</ele>
        <time>2011-04-19T13:54:24Z</time>
      </trkpt>
      <trkpt lat="32.205176269635558" lon="-1.683686887845397">
        <ele>1269.07763671875</ele>
        <time>2011-04-19T13:54:34Z</time>
      </trkpt>
      <trkpt lat="32.207563184201717" lon="-1.685628304257989">
        <ele>1272.442138671875</ele>
        <time>2011-04-19T13:54:48Z</time>
      </trkpt>
      <trkpt lat="32.210228377953172" lon="-1.687764851376414">
        <ele>1280.1328125</ele>
        <time>2011-04-19T13:55:03Z</time>
      </trkpt>
      <trkpt lat="32.212530467659235" lon="-1.689645079895854">
        <ele>1287.342529296875</ele>
        <time>2011-04-19T13:55:16Z</time>
      </trkpt>
      <trkpt lat="32.212890805676579" lon="-1.689922353252769">
        <ele>1288.303955078125</ele>
        <time>2011-04-19T13:55:18Z</time>
      </trkpt>
      <trkpt lat="32.213479382917285" lon="-1.690692231059074">
        <ele>1288.78466796875</ele>
        <time>2011-04-19T13:55:22Z</time>
      </trkpt>
      <trkpt lat="32.214567270129919" lon="-1.692903377115727">
        <ele>1291.187744140625</ele>
        <time>2011-04-19T13:55:32Z</time>
      </trkpt>
      <trkpt lat="32.215683571994305" lon="-1.695292303338647">
        <ele>1295.513916015625</ele>
        <time>2011-04-19T13:55:42Z</time>
      </trkpt>
      <trkpt lat="32.216475997120142" lon="-1.697083096951246">
        <ele>1299.83984375</ele>
        <time>2011-04-19T13:55:50Z</time>
      </trkpt>
      <trkpt lat="32.217065077275038" lon="-1.699366495013237">
        <ele>1303.68505859375</ele>
        <time>2011-04-19T13:55:59Z</time>
      </trkpt>
      <trkpt lat="32.217709897086024" lon="-1.701932614669204">
        <ele>1305.607666015625</ele>
        <time>2011-04-19T13:56:09Z</time>
      </trkpt>
      <trkpt lat="32.218418586999178" lon="-1.704715322703123">
        <ele>1302.242919921875</ele>
        <time>2011-04-19T13:56:20Z</time>
      </trkpt>
      <trkpt lat="32.219039099290967" lon="-1.707194773480296">
        <ele>1305.126953125</ele>
        <time>2011-04-19T13:56:30Z</time>
      </trkpt>
      <trkpt lat="32.21953421831131" lon="-1.709731724113226">
        <ele>1306.56884765625</ele>
        <time>2011-04-19T13:56:40Z</time>
      </trkpt>
      <trkpt lat="32.219632286578417" lon="-1.710315691307187">
        <ele>1307.049560546875</ele>
        <time>2011-04-19T13:56:44Z</time>
      </trkpt>
      <trkpt lat="32.219461379572749" lon="-1.710365982726216">
        <ele>1305.607666015625</ele>
        <time>2011-04-19T13:56:49Z</time>
      </trkpt>
      <trkpt lat="32.219311930239201" lon="-1.710404204204679">
        <ele>1302.7236328125</ele>
        <time>2011-04-19T13:57:00Z</time>
      </trkpt>
      <trkpt lat="32.218952178955078" lon="-1.710584163665772">
        <ele>1300.801025390625</ele>
        <time>2011-04-19T13:57:06Z</time>
      </trkpt>
      <trkpt lat="32.218775907531381" lon="-1.710719196125865">
        <ele>1299.359130859375</ele>
        <time>2011-04-19T13:57:09Z</time>
      </trkpt>
      <trkpt lat="32.218459825962782" lon="-1.711366530507803">
        <ele>1302.7236328125</ele>
        <time>2011-04-19T13:57:17Z</time>
      </trkpt>
      <trkpt lat="32.218412552028894" lon="-1.711566522717476">
        <ele>1303.68505859375</ele>
        <time>2011-04-19T13:57:19Z</time>
      </trkpt>
      <trkpt lat="32.218307023867965" lon="-1.712782150134444">
        <ele>1305.607666015625</ele>
        <time>2011-04-19T13:57:29Z</time>
      </trkpt>
      <trkpt lat="32.218173667788506" lon="-1.71436264179647">
        <ele>1308.01123046875</ele>
        <time>2011-04-19T13:57:40Z</time>
      </trkpt>
      <trkpt lat="32.21805514767766" lon="-1.715846071019769">
        <ele>1308.49169921875</ele>
        <time>2011-04-19T13:57:49Z</time>
      </trkpt>
      <trkpt lat="32.217861441895366" lon="-1.717800311744213">
        <ele>1310.414306640625</ele>
        <time>2011-04-19T13:58:00Z</time>
      </trkpt>
      <trkpt lat="32.217643260955811" lon="-1.719895368441939">
        <ele>1311.375732421875</ele>
        <time>2011-04-19T13:58:13Z</time>
      </trkpt>
      <trkpt lat="32.217602776363492" lon="-1.720306752249599">
        <ele>1311.375732421875</ele>
        <time>2011-04-19T13:58:17Z</time>
      </trkpt>
      <trkpt lat="32.217482244595885" lon="-1.720541110262275">
        <ele>1311.8564453125</ele>
        <time>2011-04-19T13:58:21Z</time>
      </trkpt>
      <trkpt lat="32.217535050585866" lon="-1.720803966745734">
        <ele>1311.8564453125</ele>
        <time>2011-04-19T13:58:26Z</time>
      </trkpt>
      <trkpt lat="32.21766471862793" lon="-1.721316184848547">
        <ele>1310.414306640625</ele>
        <time>2011-04-19T13:58:32Z</time>
      </trkpt>
      <trkpt lat="32.217557430267334" lon="-1.722493758425117">
        <ele>1309.93359375</ele>
        <time>2011-04-19T13:58:42Z</time>
      </trkpt>
      <trkpt lat="32.217557430267334" lon="-1.722603142261505">
        <ele>1309.453125</ele>
        <time>2011-04-19T13:58:43Z</time>
      </trkpt>
      <trkpt lat="32.217535972595215" lon="-1.72301771119237">
        <ele>1308.972412109375</ele>
        <time>2011-04-19T13:58:47Z</time>
      </trkpt>
      <trkpt lat="32.217557430267334" lon="-1.723652891814709">
        <ele>1309.93359375</ele>
        <time>2011-04-19T13:58:54Z</time>
      </trkpt>
      <trkpt lat="32.217557430267334" lon="-1.723821284249425">
        <ele>1312.817626953125</ele>
        <time>2011-04-19T13:59:32Z</time>
      </trkpt>
      <trkpt lat="32.217514514923096" lon="-1.724241720512509">
        <ele>1311.8564453125</ele>
        <time>2011-04-19T13:59:38Z</time>
      </trkpt>
      <trkpt lat="32.217493057250977" lon="-1.724687637761235">
        <ele>1310.89501953125</ele>
        <time>2011-04-19T13:59:44Z</time>
      </trkpt>
      <trkpt lat="32.217493057250977" lon="-1.724805235862732">
        <ele>1310.414306640625</ele>
        <time>2011-04-19T13:59:46Z</time>
      </trkpt>
      <trkpt lat="32.217493057250977" lon="-1.725283674895763">
        <ele>1310.414306640625</ele>
        <time>2011-04-19T13:59:52Z</time>
      </trkpt>
      <trkpt lat="32.217450141906738" lon="-1.726216161623597">
        <ele>1311.375732421875</ele>
        <time>2011-04-19T13:59:59Z</time>
      </trkpt>
      <trkpt lat="32.217385768890381" lon="-1.727899666875601">
        <ele>1312.817626953125</ele>
        <time>2011-04-19T14:00:10Z</time>
      </trkpt>
      <trkpt lat="32.217343607917428" lon="-1.729087047278881">
        <ele>1313.77880859375</ele>
        <time>2011-04-19T14:00:18Z</time>
      </trkpt>
      <trkpt lat="32.217372609302402" lon="-1.729348059743643">
        <ele>1313.77880859375</ele>
        <time>2011-04-19T14:00:20Z</time>
      </trkpt>
      <trkpt lat="32.2173813264817" lon="-1.729678642004728">
        <ele>1312.3369140625</ele>
        <time>2011-04-19T14:00:23Z</time>
      </trkpt>
      <trkpt lat="32.217431282624602" lon="-1.730205863714218">
        <ele>1309.453125</ele>
        <time>2011-04-19T14:00:31Z</time>
      </trkpt>
      <trkpt lat="32.217477802187204" lon="-1.730376603081822">
        <ele>1354.634765625</ele>
        <time>2011-04-19T14:04:08Z</time>
      </trkpt>
      <trkpt lat="32.217544438317418" lon="-1.730597047135234">
        <ele>1349.34765625</ele>
        <time>2011-04-19T14:05:02Z</time>
      </trkpt>
      <trkpt lat="32.217646948993206" lon="-1.730946488678455">
        <ele>1349.828369140625</ele>
        <time>2011-04-19T14:05:08Z</time>
      </trkpt>
      <trkpt lat="32.217686176300049" lon="-1.731183528900147">
        <ele>1348.866943359375</ele>
        <time>2011-04-19T14:05:12Z</time>
      </trkpt>
      <trkpt lat="32.217772006988525" lon="-1.731537831947208">
        <ele>1347.425048828125</ele>
        <time>2011-04-19T14:05:17Z</time>
      </trkpt>
      <trkpt lat="32.21782355569303" lon="-1.732052648440003">
        <ele>1347.425048828125</ele>
        <time>2011-04-19T14:05:23Z</time>
      </trkpt>
      <trkpt lat="32.217965126037598" lon="-1.733517553657293">
        <ele>1334.927978515625</ele>
        <time>2011-04-19T14:05:35Z</time>
      </trkpt>
      <trkpt lat="32.218072414398193" lon="-1.734987152740359">
        <ele>1328.679443359375</ele>
        <time>2011-04-19T14:05:45Z</time>
      </trkpt>
      <trkpt lat="32.218223288655281" lon="-1.735974876210094">
        <ele>1323.87255859375</ele>
        <time>2011-04-19T14:05:52Z</time>
      </trkpt>
      <trkpt lat="32.218244075775146" lon="-1.73632356338203">
        <ele>1321.949951171875</ele>
        <time>2011-04-19T14:05:55Z</time>
      </trkpt>
      <trkpt lat="32.218323284760118" lon="-1.737138535827398">
        <ele>1320.508056640625</ele>
        <time>2011-04-19T14:06:02Z</time>
      </trkpt>
      <trkpt lat="32.21839427947998" lon="-1.738178730010986">
        <ele>1318.58544921875</ele>
        <time>2011-04-19T14:06:10Z</time>
      </trkpt>
      <trkpt lat="32.2184157371521" lon="-1.738360114395618">
        <ele>1317.1435546875</ele>
        <time>2011-04-19T14:06:14Z</time>
      </trkpt>
      <trkpt lat="32.218420682474971" lon="-1.738579468801618">
        <ele>1317.1435546875</ele>
        <time>2011-04-19T14:06:19Z</time>
      </trkpt>
      <trkpt lat="32.2184157371521" lon="-1.739187408238649">
        <ele>1317.1435546875</ele>
        <time>2011-04-19T14:06:25Z</time>
      </trkpt>
      <trkpt lat="32.218352537602186" lon="-1.739716054871678">
        <ele>1317.6240234375</ele>
        <time>2011-04-19T14:06:29Z</time>
      </trkpt>
      <trkpt lat="32.218222618103027" lon="-1.74034595489502">
        <ele>1318.58544921875</ele>
        <time>2011-04-19T14:06:34Z</time>
      </trkpt>
      <trkpt lat="32.218234604224563" lon="-1.741547584533691">
        <ele>1320.508056640625</ele>
        <time>2011-04-19T14:06:43Z</time>
      </trkpt>
      <trkpt lat="32.218277435749769" lon="-1.741766771301627">
        <ele>1320.508056640625</ele>
        <time>2011-04-19T14:06:45Z</time>
      </trkpt>
      <trkpt lat="32.21833367832005" lon="-1.742163486778736">
        <ele>1318.58544921875</ele>
        <time>2011-04-19T14:06:49Z</time>
      </trkpt>
      <trkpt lat="32.218408780172467" lon="-1.742607811465859">
        <ele>1316.18212890625</ele>
        <time>2011-04-19T14:06:54Z</time>
      </trkpt>
      <trkpt lat="32.2184157371521" lon="-1.742814090102911">
        <ele>1314.740234375</ele>
        <time>2011-04-19T14:06:57Z</time>
      </trkpt>
      <trkpt lat="32.218451527878642" lon="-1.743046185001731">
        <ele>1311.8564453125</ele>
        <time>2011-04-19T14:07:01Z</time>
      </trkpt>
      <trkpt lat="32.218501567840576" lon="-1.743260510265827">
        <ele>1309.453125</ele>
        <time>2011-04-19T14:07:05Z</time>
      </trkpt>
      <trkpt lat="32.21857164055109" lon="-1.743986383080483">
        <ele>1308.49169921875</ele>
        <time>2011-04-19T14:07:15Z</time>
      </trkpt>
      <trkpt lat="32.21864833496511" lon="-1.744558280333877">
        <ele>1310.89501953125</ele>
        <time>2011-04-19T14:07:22Z</time>
      </trkpt>
      <trkpt lat="32.218608604744077" lon="-1.744971508160234">
        <ele>1314.740234375</ele>
        <time>2011-04-19T14:07:31Z</time>
      </trkpt>
      <trkpt lat="32.218607598915696" lon="-1.745587158948183">
        <ele>1318.58544921875</ele>
        <time>2011-04-19T14:07:41Z</time>
      </trkpt>
      <trkpt lat="32.218587398529053" lon="-1.746508916839957">
        <ele>1319.546875</ele>
        <time>2011-04-19T14:07:50Z</time>
      </trkpt>
      <trkpt lat="32.218696363270283" lon="-1.747530503198504">
        <ele>1320.508056640625</ele>
        <time>2011-04-19T14:07:58Z</time>
      </trkpt>
      <trkpt lat="32.218716144561768" lon="-1.747910622507334">
        <ele>1321.46923828125</ele>
        <time>2011-04-19T14:08:03Z</time>
      </trkpt>
      <trkpt lat="32.218717485666275" lon="-1.748463660478592">
        <ele>1322.4306640625</ele>
        <time>2011-04-19T14:08:08Z</time>
      </trkpt>
      <trkpt lat="32.218958884477615" lon="-1.749023320153356">
        <ele>1319.546875</ele>
        <time>2011-04-19T14:08:15Z</time>
      </trkpt>
      <trkpt lat="32.219152674078941" lon="-1.749368067830801">
        <ele>1314.259521484375</ele>
        <time>2011-04-19T14:08:23Z</time>
      </trkpt>
      <trkpt lat="32.21921905875206" lon="-1.749472003430128">
        <ele>1313.29833984375</ele>
        <time>2011-04-19T14:08:29Z</time>
      </trkpt>
      <trkpt lat="32.219231128692627" lon="-1.74991917796433">
        <ele>1314.259521484375</ele>
        <time>2011-04-19T14:08:35Z</time>
      </trkpt>
      <trkpt lat="32.219246216118336" lon="-1.750609176233411">
        <ele>1315.220947265625</ele>
        <time>2011-04-19T14:08:41Z</time>
      </trkpt>
      <trkpt lat="32.219482753425837" lon="-1.751617016270757">
        <ele>1314.740234375</ele>
        <time>2011-04-19T14:08:48Z</time>
      </trkpt>
      <trkpt lat="32.219791291281581" lon="-1.752939932048321">
        <ele>1314.740234375</ele>
        <time>2011-04-19T14:08:57Z</time>
      </trkpt>
      <trkpt lat="32.219929425045848" lon="-1.753873927518725">
        <ele>1314.259521484375</ele>
        <time>2011-04-19T14:09:04Z</time>
      </trkpt>
      <trkpt lat="32.219969071447849" lon="-1.754098143428564">
        <ele>1314.740234375</ele>
        <time>2011-04-19T14:09:08Z</time>
      </trkpt>
      <trkpt lat="32.220018776133657" lon="-1.754613714292646">
        <ele>1313.29833984375</ele>
        <time>2011-04-19T14:09:16Z</time>
      </trkpt>
      <trkpt lat="32.22015724517405" lon="-1.75538694486022">
        <ele>1313.77880859375</ele>
        <time>2011-04-19T14:09:22Z</time>
      </trkpt>
      <trkpt lat="32.220408283174038" lon="-1.75700331106782">
        <ele>1313.29833984375</ele>
        <time>2011-04-19T14:09:32Z</time>
      </trkpt>
      <trkpt lat="32.220518589019775" lon="-1.757655087858439">
        <ele>1311.8564453125</ele>
        <time>2011-04-19T14:09:38Z</time>
      </trkpt>
      <trkpt lat="32.220580196008086" lon="-1.758320610970259">
        <ele>1314.740234375</ele>
        <time>2011-04-19T14:09:48Z</time>
      </trkpt>
      <trkpt lat="32.220624871551991" lon="-1.758842887356877">
        <ele>1316.662841796875</ele>
        <time>2011-04-19T14:09:55Z</time>
      </trkpt>
      <trkpt lat="32.220674743875861" lon="-1.759184533730149">
        <ele>1317.6240234375</ele>
        <time>2011-04-19T14:09:58Z</time>
      </trkpt>
      <trkpt lat="32.220724280923605" lon="-1.759568005800247">
        <ele>1317.6240234375</ele>
        <time>2011-04-19T14:10:02Z</time>
      </trkpt>
      <trkpt lat="32.220770632848144" lon="-1.759909233078361">
        <ele>1317.1435546875</ele>
        <time>2011-04-19T14:10:06Z</time>
      </trkpt>
      <trkpt lat="32.220833664759994" lon="-1.760196145623922">
        <ele>1316.662841796875</ele>
        <time>2011-04-19T14:10:13Z</time>
      </trkpt>
      <trkpt lat="32.220886219292879" lon="-1.760488171130419">
        <ele>1316.662841796875</ele>
        <time>2011-04-19T14:10:20Z</time>
      </trkpt>
      <trkpt lat="32.220902396366" lon="-1.761314123868942">
        <ele>1320.02734375</ele>
        <time>2011-04-19T14:10:29Z</time>
      </trkpt>
      <trkpt lat="32.220951849594712" lon="-1.76178552210331">
        <ele>1320.02734375</ele>
        <time>2011-04-19T14:10:35Z</time>
      </trkpt>
      <trkpt lat="32.220990657806396" lon="-1.762103866785765">
        <ele>1320.508056640625</ele>
        <time>2011-04-19T14:10:39Z</time>
      </trkpt>
      <trkpt lat="32.22083006054163" lon="-1.762497229501605">
        <ele>1321.949951171875</ele>
        <time>2011-04-19T14:10:44Z</time>
      </trkpt>
      <trkpt lat="32.220766022801399" lon="-1.762657826766372">
        <ele>1321.949951171875</ele>
        <time>2011-04-19T14:10:46Z</time>
      </trkpt>
      <trkpt lat="32.220829641446471" lon="-1.762927388772368">
        <ele>1320.98876953125</ele>
        <time>2011-04-19T14:10:52Z</time>
      </trkpt>
      <trkpt lat="32.220945814624429" lon="-1.763067785650492">
        <ele>1316.18212890625</ele>
        <time>2011-04-19T14:11:00Z</time>
      </trkpt>
      <trkpt lat="32.221089228987694" lon="-1.763194100931287">
        <ele>1313.29833984375</ele>
        <time>2011-04-19T14:11:09Z</time>
      </trkpt>
      <trkpt lat="32.221182435750961" lon="-1.763240704312921">
        <ele>1312.817626953125</ele>
        <time>2011-04-19T14:11:12Z</time>
      </trkpt>
      <trkpt lat="32.221355438232422" lon="-1.76349719054997">
        <ele>1313.29833984375</ele>
        <time>2011-04-19T14:11:16Z</time>
      </trkpt>
      <trkpt lat="32.22134705632925" lon="-1.764388438314199">
        <ele>1318.104736328125</ele>
        <time>2011-04-19T14:11:25Z</time>
      </trkpt>
      <trkpt lat="32.221437077969313" lon="-1.765056811273098">
        <ele>1318.58544921875</ele>
        <time>2011-04-19T14:11:31Z</time>
      </trkpt>
      <trkpt lat="32.22154738381505" lon="-1.765906736254692">
        <ele>1319.066162109375</ele>
        <time>2011-04-19T14:11:37Z</time>
      </trkpt>
      <trkpt lat="32.221721559762955" lon="-1.766326334327459">
        <ele>1318.58544921875</ele>
        <time>2011-04-19T14:11:41Z</time>
      </trkpt>
      <trkpt lat="32.221835888922215" lon="-1.76691516302526">
        <ele>1318.58544921875</ele>
        <time>2011-04-19T14:11:45Z</time>
      </trkpt>
      <trkpt lat="32.221956253051758" lon="-1.768372189253569">
        <ele>1321.949951171875</ele>
        <time>2011-04-19T14:11:54Z</time>
      </trkpt>
      <trkpt lat="32.222184408456087" lon="-1.769869532436132">
        <ele>1326.276123046875</ele>
        <time>2011-04-19T14:12:03Z</time>
      </trkpt>
      <trkpt lat="32.222371827811003" lon="-1.771537698805332">
        <ele>1325.314697265625</ele>
        <time>2011-04-19T14:12:13Z</time>
      </trkpt>
      <trkpt lat="32.222573580220342" lon="-1.772344205528498">
        <ele>1325.314697265625</ele>
        <time>2011-04-19T14:12:19Z</time>
      </trkpt>
      <trkpt lat="32.222937354817986" lon="-1.773803662508726">
        <ele>1322.4306640625</ele>
        <time>2011-04-19T14:12:29Z</time>
      </trkpt>
      <trkpt lat="32.222997033968568" lon="-1.774056209251285">
        <ele>1321.949951171875</ele>
        <time>2011-04-19T14:12:31Z</time>
      </trkpt>
      <trkpt lat="32.223069118335843" lon="-1.774353850632906">
        <ele>1320.98876953125</ele>
        <time>2011-04-19T14:12:34Z</time>
      </trkpt>
      <trkpt lat="32.223107842728496" lon="-1.774503048509359">
        <ele>1321.46923828125</ele>
        <time>2011-04-19T14:12:36Z</time>
      </trkpt>
      <trkpt lat="32.223187806084752" lon="-1.774783842265606">
        <ele>1320.98876953125</ele>
        <time>2011-04-19T14:12:40Z</time>
      </trkpt>
      <trkpt lat="32.223317306488752" lon="-1.775426063686609">
        <ele>1319.546875</ele>
        <time>2011-04-19T14:12:46Z</time>
      </trkpt>
      <trkpt lat="32.223363239318132" lon="-1.776078175753355">
        <ele>1318.58544921875</ele>
        <time>2011-04-19T14:12:52Z</time>
      </trkpt>
      <trkpt lat="32.223401460796595" lon="-1.776286466047168">
        <ele>1317.1435546875</ele>
        <time>2011-04-19T14:12:54Z</time>
      </trkpt>
      <trkpt lat="32.223709411919117" lon="-1.777272596955299">
        <ele>1315.70166015625</ele>
        <time>2011-04-19T14:13:02Z</time>
      </trkpt>
      <trkpt lat="32.224014429375529" lon="-1.778256380930543">
        <ele>1319.066162109375</ele>
        <time>2011-04-19T14:13:09Z</time>
      </trkpt>
      <trkpt lat="32.224416509270668" lon="-1.779591366648674">
        <ele>1323.87255859375</ele>
        <time>2011-04-19T14:13:18Z</time>
      </trkpt>
      <trkpt lat="32.224822025746107" lon="-1.780765755102038">
        <ele>1321.46923828125</ele>
        <time>2011-04-19T14:13:26Z</time>
      </trkpt>
      <trkpt lat="32.225348241627216" lon="-1.782178608700633">
        <ele>1320.02734375</ele>
        <time>2011-04-19T14:13:36Z</time>
      </trkpt>
      <trkpt lat="32.225561141967773" lon="-1.78326029330492">
        <ele>1319.066162109375</ele>
        <time>2011-04-19T14:13:43Z</time>
      </trkpt>
      <trkpt lat="32.22569340839982" lon="-1.784598212689161">
        <ele>1319.546875</ele>
        <time>2011-04-19T14:13:52Z</time>
      </trkpt>
      <trkpt lat="32.225711345672607" lon="-1.785140102729201">
        <ele>1320.02734375</ele>
        <time>2011-04-19T14:13:57Z</time>
      </trkpt>
      <trkpt lat="32.225684942677617" lon="-1.785456519573927">
        <ele>1329.159912109375</ele>
        <time>2011-04-19T14:14:04Z</time>
      </trkpt>
      <trkpt lat="32.225711345672607" lon="-1.785299777984619">
        <ele>1311.375732421875</ele>
        <time>2011-04-19T14:15:01Z</time>
      </trkpt>
      <trkpt lat="32.226071264594793" lon="-1.785219730809331">
        <ele>1313.29833984375</ele>
        <time>2011-04-19T14:15:11Z</time>
      </trkpt>
      <trkpt lat="32.226139325648546" lon="-1.785363145172596">
        <ele>1314.259521484375</ele>
        <time>2011-04-19T14:15:16Z</time>
      </trkpt>
      <trkpt lat="32.226165058091283" lon="-1.785755082964897">
        <ele>1318.104736328125</ele>
        <time>2011-04-19T14:15:22Z</time>
      </trkpt>
      <trkpt lat="32.22649765200913" lon="-1.786181470379233">
        <ele>1318.104736328125</ele>
        <time>2011-04-19T14:15:29Z</time>
      </trkpt>
      <trkpt lat="32.226865869015455" lon="-1.787191070616245">
        <ele>1318.58544921875</ele>
        <time>2011-04-19T14:15:38Z</time>
      </trkpt>
      <trkpt lat="32.227503312751651" lon="-1.78842262364924">
        <ele>1316.18212890625</ele>
        <time>2011-04-19T14:15:48Z</time>
      </trkpt>
      <trkpt lat="32.227599620819092" lon="-1.788811627775431">
        <ele>1317.1435546875</ele>
        <time>2011-04-19T14:15:51Z</time>
      </trkpt>
      <trkpt lat="32.227543294429779" lon="-1.789685273543">
        <ele>1318.104736328125</ele>
        <time>2011-04-19T14:15:58Z</time>
      </trkpt>
      <trkpt lat="32.227252526208758" lon="-1.79069478996098">
        <ele>1326.7568359375</ele>
        <time>2011-04-19T14:16:06Z</time>
      </trkpt>
      <trkpt lat="32.22668825648725" lon="-1.791826849803329">
        <ele>1334.447265625</ele>
        <time>2011-04-19T14:16:14Z</time>
      </trkpt>
      <trkpt lat="32.226290702819824" lon="-1.793508091941476">
        <ele>1334.927978515625</ele>
        <time>2011-04-19T14:16:24Z</time>
      </trkpt>
      <trkpt lat="32.22637745551765" lon="-1.794530348852277">
        <ele>1331.563232421875</ele>
        <time>2011-04-19T14:16:30Z</time>
      </trkpt>
      <trkpt lat="32.226428501307964" lon="-1.79575402289629">
        <ele>1329.640625</ele>
        <time>2011-04-19T14:16:37Z</time>
      </trkpt>
      <trkpt lat="32.226290702819824" lon="-1.797082303091884">
        <ele>1328.679443359375</ele>
        <time>2011-04-19T14:16:45Z</time>
      </trkpt>
      <trkpt lat="32.226244602352381" lon="-1.797678172588348">
        <ele>1328.679443359375</ele>
        <time>2011-04-19T14:16:50Z</time>
      </trkpt>
      <trkpt lat="32.2261106595397" lon="-1.798156527802348">
        <ele>1329.640625</ele>
        <time>2011-04-19T14:16:58Z</time>
      </trkpt>
      <trkpt lat="32.226076126098633" lon="-1.798545699566603">
        <ele>1329.159912109375</ele>
        <time>2011-04-19T14:17:04Z</time>
      </trkpt>
      <trkpt lat="32.22608283162117" lon="-1.798691377043724">
        <ele>1329.159912109375</ele>
        <time>2011-04-19T14:17:07Z</time>
      </trkpt>
      <trkpt lat="32.226143265143037" lon="-1.798999411985278">
        <ele>1331.082763671875</ele>
        <time>2011-04-19T14:17:13Z</time>
      </trkpt>
      <trkpt lat="32.226311322301626" lon="-1.799385482445359">
        <ele>1330.60205078125</ele>
        <time>2011-04-19T14:17:18Z</time>
      </trkpt>
      <trkpt lat="32.226730920374393" lon="-1.800553668290377">
        <ele>1330.60205078125</ele>
        <time>2011-04-19T14:17:29Z</time>
      </trkpt>
      <trkpt lat="32.227048007771373" lon="-1.801487412303686">
        <ele>1326.276123046875</ele>
        <time>2011-04-19T14:17:37Z</time>
      </trkpt>
      <trkpt lat="32.227218579500914" lon="-1.80194640532136">
        <ele>1323.87255859375</ele>
        <time>2011-04-19T14:17:41Z</time>
      </trkpt>
      <trkpt lat="32.227502139285207" lon="-1.802811669185758">
        <ele>1320.508056640625</ele>
        <time>2011-04-19T14:17:49Z</time>
      </trkpt>
      <trkpt lat="32.227781172841787" lon="-1.803588168695569">
        <ele>1318.104736328125</ele>
        <time>2011-04-19T14:17:57Z</time>
      </trkpt>
      <trkpt lat="32.228238740935922" lon="-1.804706733673811">
        <ele>1314.740234375</ele>
        <time>2011-04-19T14:18:07Z</time>
      </trkpt>
      <trkpt lat="32.228469075635076" lon="-1.805524807423353">
        <ele>1314.740234375</ele>
        <time>2011-04-19T14:18:14Z</time>
      </trkpt>
      <trkpt lat="32.228868473321199" lon="-1.806463412940502">
        <ele>1315.220947265625</ele>
        <time>2011-04-19T14:18:23Z</time>
      </trkpt>
      <trkpt lat="32.229351103305817" lon="-1.807509139180183">
        <ele>1313.77880859375</ele>
        <time>2011-04-19T14:18:31Z</time>
      </trkpt>
      <trkpt lat="32.229790901765227" lon="-1.808634242042899">
        <ele>1312.817626953125</ele>
        <time>2011-04-19T14:18:40Z</time>
      </trkpt>
      <trkpt lat="32.230165656656027" lon="-1.809455836191773">
        <ele>1313.29833984375</ele>
        <time>2011-04-19T14:18:47Z</time>
      </trkpt>
      <trkpt lat="32.230491293594241" lon="-1.810366613790393">
        <ele>1317.6240234375</ele>
        <time>2011-04-19T14:18:55Z</time>
      </trkpt>
      <trkpt lat="32.230755826458335" lon="-1.811243360862136">
        <ele>1320.02734375</ele>
        <time>2011-04-19T14:19:03Z</time>
      </trkpt>
      <trkpt lat="32.230800837278366" lon="-1.812374498695135">
        <ele>1318.58544921875</ele>
        <time>2011-04-19T14:19:11Z</time>
      </trkpt>
      <trkpt lat="32.230829671025276" lon="-1.813067011535168">
        <ele>1318.104736328125</ele>
        <time>2011-04-19T14:19:17Z</time>
      </trkpt>
      <trkpt lat="32.230861186981201" lon="-1.813809229061008">
        <ele>1318.104736328125</ele>
        <time>2011-04-19T14:19:25Z</time>
      </trkpt>
      <trkpt lat="32.230925559997559" lon="-1.815128708258271">
        <ele>1317.1435546875</ele>
        <time>2011-04-19T14:19:34Z</time>
      </trkpt>
      <trkpt lat="32.230948442593217" lon="-1.815698007121682">
        <ele>1316.662841796875</ele>
        <time>2011-04-19T14:19:39Z</time>
      </trkpt>
      <trkpt lat="32.230968475341797" lon="-1.816297648474574">
        <ele>1315.70166015625</ele>
        <time>2011-04-19T14:19:45Z</time>
      </trkpt>
      <trkpt lat="32.230968475341797" lon="-1.817215299233794">
        <ele>1315.220947265625</ele>
        <time>2011-04-19T14:19:53Z</time>
      </trkpt>
      <trkpt lat="32.231001164764166" lon="-1.818318525329232">
        <ele>1314.259521484375</ele>
        <time>2011-04-19T14:20:02Z</time>
      </trkpt>
      <trkpt lat="32.231075763702393" lon="-1.819420577958226">
        <ele>1313.77880859375</ele>
        <time>2011-04-19T14:20:10Z</time>
      </trkpt>
      <trkpt lat="32.231032848358154" lon="-1.82027637027204">
        <ele>1313.29833984375</ele>
        <time>2011-04-19T14:20:17Z</time>
      </trkpt>
      <trkpt lat="32.231203587725759" lon="-1.821172647178173">
        <ele>1314.259521484375</ele>
        <time>2011-04-19T14:20:24Z</time>
      </trkpt>
      <trkpt lat="32.231439286842942" lon="-1.822309149429202">
        <ele>1308.972412109375</ele>
        <time>2011-04-19T14:20:32Z</time>
      </trkpt>
      <trkpt lat="32.231500474736094" lon="-1.82266915217042">
        <ele>1308.49169921875</ele>
        <time>2011-04-19T14:20:35Z</time>
      </trkpt>
      <trkpt lat="32.231563003733754" lon="-1.823156392201781">
        <ele>1307.049560546875</ele>
        <time>2011-04-19T14:20:39Z</time>
      </trkpt>
      <trkpt lat="32.231803564354777" lon="-1.824267329648137">
        <ele>1311.375732421875</ele>
        <time>2011-04-19T14:20:48Z</time>
      </trkpt>
      <trkpt lat="32.231911104172468" lon="-1.824634540826082">
        <ele>1309.93359375</ele>
        <time>2011-04-19T14:20:51Z</time>
      </trkpt>
      <trkpt lat="32.231973381713033" lon="-1.824812237173319">
        <ele>1308.972412109375</ele>
        <time>2011-04-19T14:20:53Z</time>
      </trkpt>
      <trkpt lat="32.23219558596611" lon="-1.825713962316513">
        <ele>1307.5302734375</ele>
        <time>2011-04-19T14:21:00Z</time>
      </trkpt>
      <trkpt lat="32.232649382203817" lon="-1.826774692162871">
        <ele>1307.049560546875</ele>
        <time>2011-04-19T14:21:08Z</time>
      </trkpt>
      <trkpt lat="32.232786258682609" lon="-1.827108543366194">
        <ele>1308.01123046875</ele>
        <time>2011-04-19T14:21:12Z</time>
      </trkpt>
      <trkpt lat="32.23296957090497" lon="-1.827806001529098">
        <ele>1312.817626953125</ele>
        <time>2011-04-19T14:21:19Z</time>
      </trkpt>
      <trkpt lat="32.23325832746923" lon="-1.828797496855259">
        <ele>1318.104736328125</ele>
        <time>2011-04-19T14:21:27Z</time>
      </trkpt>
      <trkpt lat="32.233328819274902" lon="-1.82979729026556">
        <ele>1311.375732421875</ele>
        <time>2011-04-19T14:21:36Z</time>
      </trkpt>
      <trkpt lat="32.233509616926312" lon="-1.830730615183711">
        <ele>1304.646240234375</ele>
        <time>2011-04-19T14:21:46Z</time>
      </trkpt>
      <trkpt lat="32.233549430966377" lon="-1.831203522160649">
        <ele>1303.68505859375</ele>
        <time>2011-04-19T14:21:52Z</time>
      </trkpt>
      <trkpt lat="32.233639033511281" lon="-1.83166041970253">
        <ele>1302.7236328125</ele>
        <time>2011-04-19T14:21:57Z</time>
      </trkpt>
      <trkpt lat="32.233698796480894" lon="-1.832164339721203">
        <ele>1303.204345703125</ele>
        <time>2011-04-19T14:22:02Z</time>
      </trkpt>
      <trkpt lat="32.233991660177708" lon="-1.833105543628335">
        <ele>1305.607666015625</ele>
        <time>2011-04-19T14:22:10Z</time>
      </trkpt>
      <trkpt lat="32.234031809493899" lon="-1.833209898322821">
        <ele>1305.607666015625</ele>
        <time>2011-04-19T14:22:11Z</time>
      </trkpt>
      <trkpt lat="32.234202297404408" lon="-1.833739215508103">
        <ele>1307.5302734375</ele>
        <time>2011-04-19T14:22:16Z</time>
      </trkpt>
      <trkpt lat="32.234689788892865" lon="-1.834738003090024">
        <ele>1309.93359375</ele>
        <time>2011-04-19T14:22:24Z</time>
      </trkpt>
      <trkpt lat="32.235205443575978" lon="-1.836139541119337">
        <ele>1311.375732421875</ele>
        <time>2011-04-19T14:22:33Z</time>
      </trkpt>
      <trkpt lat="32.23563794977963" lon="-1.837490117177367">
        <ele>1311.8564453125</ele>
        <time>2011-04-19T14:22:42Z</time>
      </trkpt>
      <trkpt lat="32.23571858368814" lon="-1.837839726358652">
        <ele>1311.8564453125</ele>
        <time>2011-04-19T14:22:46Z</time>
      </trkpt>
      <trkpt lat="32.235949505120516" lon="-1.83832093141973">
        <ele>1312.817626953125</ele>
        <time>2011-04-19T14:22:54Z</time>
      </trkpt>
      <trkpt lat="32.236302215605974" lon="-1.839012270793319">
        <ele>1313.77880859375</ele>
        <time>2011-04-19T14:23:00Z</time>
      </trkpt>
      <trkpt lat="32.236912418156862" lon="-1.840505925938487">
        <ele>1314.259521484375</ele>
        <time>2011-04-19T14:23:10Z</time>
      </trkpt>
      <trkpt lat="32.237682798877358" lon="-1.841759523376823">
        <ele>1314.740234375</ele>
        <time>2011-04-19T14:23:20Z</time>
      </trkpt>
      <trkpt lat="32.238476816564798" lon="-1.842899126932025">
        <ele>1315.220947265625</ele>
        <time>2011-04-19T14:23:30Z</time>
      </trkpt>
      <trkpt lat="32.239157930016518" lon="-1.843821806833148">
        <ele>1315.70166015625</ele>
        <time>2011-04-19T14:23:38Z</time>
      </trkpt>
      <trkpt lat="32.2399877384305" lon="-1.845059646293521">
        <ele>1315.220947265625</ele>
        <time>2011-04-19T14:23:47Z</time>
      </trkpt>
      <trkpt lat="32.240489898249507" lon="-1.845908146351576">
        <ele>1315.70166015625</ele>
        <time>2011-04-19T14:23:53Z</time>
      </trkpt>
      <trkpt lat="32.241233540698886" lon="-1.846994524821639">
        <ele>1314.740234375</ele>
        <time>2011-04-19T14:24:01Z</time>
      </trkpt>
      <trkpt lat="32.242241045460105" lon="-1.848352644592524">
        <ele>1312.3369140625</ele>
        <time>2011-04-19T14:24:10Z</time>
      </trkpt>
      <trkpt lat="32.242649076506495" lon="-1.848914735019207">
        <ele>1310.89501953125</ele>
        <time>2011-04-19T14:24:14Z</time>
      </trkpt>
      <trkpt lat="32.242825934663415" lon="-1.849149847403169">
        <ele>1310.414306640625</ele>
        <time>2011-04-19T14:24:16Z</time>
      </trkpt>
      <trkpt lat="32.24337687715888" lon="-1.849739011377096">
        <ele>1308.972412109375</ele>
        <time>2011-04-19T14:24:22Z</time>
      </trkpt>
      <trkpt lat="32.243578378111124" lon="-1.84991167858243">
        <ele>1308.49169921875</ele>
        <time>2011-04-19T14:24:24Z</time>
      </trkpt>
      <trkpt lat="32.244030246511102" lon="-1.850321050733328">
        <ele>1307.5302734375</ele>
        <time>2011-04-19T14:24:30Z</time>
      </trkpt>
      <trkpt lat="32.244242979213595" lon="-1.850634533911943">
        <ele>1306.56884765625</ele>
        <time>2011-04-19T14:24:35Z</time>
      </trkpt>
      <trkpt lat="32.244705576449633" lon="-1.851207269355655">
        <ele>1306.088134765625</ele>
        <time>2011-04-19T14:24:45Z</time>
      </trkpt>
      <trkpt lat="32.244772212579846" lon="-1.851311791688204">
        <ele>1306.088134765625</ele>
        <time>2011-04-19T14:24:47Z</time>
      </trkpt>
      <trkpt lat="32.244978239759803" lon="-1.85160968452692">
        <ele>1306.088134765625</ele>
        <time>2011-04-19T14:24:52Z</time>
      </trkpt>
      <trkpt lat="32.245151493698359" lon="-1.851919563487172">
        <ele>1304.646240234375</ele>
        <time>2011-04-19T14:24:59Z</time>
      </trkpt>
      <trkpt lat="32.245457014068961" lon="-1.852597827091813">
        <ele>1303.68505859375</ele>
        <time>2011-04-19T14:25:13Z</time>
      </trkpt>
      <trkpt lat="32.245924472808838" lon="-1.853578090667725">
        <ele>1307.5302734375</ele>
        <time>2011-04-19T14:25:24Z</time>
      </trkpt>
      <trkpt lat="32.246009800583124" lon="-1.853929711505771">
        <ele>1313.29833984375</ele>
        <time>2011-04-19T14:25:29Z</time>
      </trkpt>
      <trkpt lat="32.246075514703989" lon="-1.854314776137471">
        <ele>1316.18212890625</ele>
        <time>2011-04-19T14:25:34Z</time>
      </trkpt>
      <trkpt lat="32.24609512835741" lon="-1.854491634294391">
        <ele>1315.220947265625</ele>
        <time>2011-04-19T14:25:36Z</time>
      </trkpt>
      <trkpt lat="32.246224880218506" lon="-1.854779720306397">
        <ele>1312.3369140625</ele>
        <time>2011-04-19T14:25:42Z</time>
      </trkpt>
      <trkpt lat="32.246179198846221" lon="-1.854872591793537">
        <ele>1309.93359375</ele>
        <time>2011-04-19T14:25:45Z</time>
      </trkpt>
      <trkpt lat="32.246414562687278" lon="-1.854977952316403">
        <ele>1298.397705078125</ele>
        <time>2011-04-19T14:25:53Z</time>
      </trkpt>
      <trkpt lat="32.246508188545704" lon="-1.855160091072321">
        <ele>1292.1494140625</ele>
        <time>2011-04-19T14:26:00Z</time>
      </trkpt>
      <trkpt lat="32.246412131935358" lon="-1.855315994471312">
        <ele>1242.16064453125</ele>
        <time>2011-04-19T14:27:13Z</time>
      </trkpt>
      <trkpt lat="32.246336359530687" lon="-1.855431916192174">
        <ele>1234.950927734375</ele>
        <time>2011-04-19T14:27:20Z</time>
      </trkpt>
      <trkpt lat="32.246350441128016" lon="-1.855707680806518">
        <ele>1236.392822265625</ele>
        <time>2011-04-19T14:27:25Z</time>
      </trkpt>
      <trkpt lat="32.246295372024179" lon="-1.856201039627194">
        <ele>1232.06689453125</ele>
        <time>2011-04-19T14:27:34Z</time>
      </trkpt>
      <trkpt lat="32.246010303497314" lon="-1.85690981335938">
        <ele>1231.105712890625</ele>
        <time>2011-04-19T14:27:42Z</time>
      </trkpt>
      <trkpt lat="32.246010303497314" lon="-1.857177196070552">
        <ele>1228.702392578125</ele>
        <time>2011-04-19T14:27:45Z</time>
      </trkpt>
      <trkpt lat="32.245883150026202" lon="-1.857790667563677">
        <ele>1224.85693359375</ele>
        <time>2011-04-19T14:27:53Z</time>
      </trkpt>
      <trkpt lat="32.245811652392149" lon="-1.857961155474186">
        <ele>1209.956298828125</ele>
        <time>2011-04-19T14:28:02Z</time>
      </trkpt>
      <trkpt lat="32.245774269104004" lon="-1.858382346108556">
        <ele>1164.774658203125</ele>
        <time>2011-04-19T14:28:23Z</time>
      </trkpt>
      <trkpt lat="32.245617946609855" lon="-1.858709659427404">
        <ele>1171.984375</ele>
        <time>2011-04-19T14:28:30Z</time>
      </trkpt>
      <trkpt lat="32.245516777038574" lon="-1.859234869480133">
        <ele>1173.906982421875</ele>
        <time>2011-04-19T14:28:37Z</time>
      </trkpt>
      <trkpt lat="32.245602607727051" lon="-1.859650611877441">
        <ele>1177.271728515625</ele>
        <time>2011-04-19T14:28:42Z</time>
      </trkpt>
      <trkpt lat="32.245580982416868" lon="-1.859973734244704">
        <ele>1184.481689453125</ele>
        <time>2011-04-19T14:28:51Z</time>
      </trkpt>
      <trkpt lat="32.245523734018207" lon="-1.860302137210965">
        <ele>1189.768798828125</ele>
        <time>2011-04-19T14:28:57Z</time>
      </trkpt>
      <trkpt lat="32.245428850874305" lon="-1.861061789095402">
        <ele>1202.265869140625</ele>
        <time>2011-04-19T14:29:08Z</time>
      </trkpt>
      <trkpt lat="32.245359364897013" lon="-1.8614745978266">
        <ele>1211.879150390625</ele>
        <time>2011-04-19T14:29:16Z</time>
      </trkpt>
      <trkpt lat="32.245323657989502" lon="-1.861675092950463">
        <ele>1217.16650390625</ele>
        <time>2011-04-19T14:29:21Z</time>
      </trkpt>
      <trkpt lat="32.245281748473644" lon="-1.862168284133077">
        <ele>1225.818115234375</ele>
        <time>2011-04-19T14:29:33Z</time>
      </trkpt>
      <trkpt lat="32.244875896722078" lon="-1.862646639347076">
        <ele>1225.818115234375</ele>
        <time>2011-04-19T14:29:41Z</time>
      </trkpt>
      <trkpt lat="32.244619494304061" lon="-1.862468188628554">
        <ele>1225.818115234375</ele>
        <time>2011-04-19T14:29:47Z</time>
      </trkpt>
      <trkpt lat="32.24458085373044" lon="-1.862585283815861">
        <ele>1225.818115234375</ele>
        <time>2011-04-19T14:29:51Z</time>
      </trkpt>
      <trkpt lat="32.244430063292384" lon="-1.862580757588148">
        <ele>1196.978759765625</ele>
        <time>2011-04-19T14:32:08Z</time>
      </trkpt>
      <trkpt lat="32.244342220947146" lon="-1.862763650715351">
        <ele>1196.498291015625</ele>
        <time>2011-04-19T14:33:07Z</time>
      </trkpt>
      <trkpt lat="32.24416695535183" lon="-1.863203281536698">
        <ele>1199.86279296875</ele>
        <time>2011-04-19T14:33:19Z</time>
      </trkpt>
      <trkpt lat="32.244346914812922" lon="-1.863514753058553">
        <ele>1199.382080078125</ele>
        <time>2011-04-19T14:33:23Z</time>
      </trkpt>
      <trkpt lat="32.243994623422623" lon="-1.864244397729635">
        <ele>1208.9951171875</ele>
        <time>2011-04-19T14:33:33Z</time>
      </trkpt>
      <trkpt lat="32.243859590962529" lon="-1.864750916138291">
        <ele>1219.089111328125</ele>
        <time>2011-04-19T14:33:40Z</time>
      </trkpt>
      <trkpt lat="32.243732353672385" lon="-1.865128101781011">
        <ele>1221.01171875</ele>
        <time>2011-04-19T14:33:45Z</time>
      </trkpt>
      <trkpt lat="32.243661526590586" lon="-1.865667561069131">
        <ele>1220.531005859375</ele>
        <time>2011-04-19T14:33:51Z</time>
      </trkpt>
      <trkpt lat="32.243447201326489" lon="-1.866030329838395">
        <ele>1219.56982421875</ele>
        <time>2011-04-19T14:33:55Z</time>
      </trkpt>
      <trkpt lat="32.243220806121826" lon="-1.866345405578613">
        <ele>1219.089111328125</ele>
        <time>2011-04-19T14:33:59Z</time>
      </trkpt>
      <trkpt lat="32.243142183870077" lon="-1.866590743884444">
        <ele>1218.127685546875</ele>
        <time>2011-04-19T14:34:02Z</time>
      </trkpt>
      <trkpt lat="32.242895336821675" lon="-1.867295242846012">
        <ele>1218.6083984375</ele>
        <time>2011-04-19T14:34:10Z</time>
      </trkpt>
      <trkpt lat="32.242698445916176" lon="-1.868196465075016">
        <ele>1219.56982421875</ele>
        <time>2011-04-19T14:34:20Z</time>
      </trkpt>
      <trkpt lat="32.242618314921856" lon="-1.868648668751121">
        <ele>1219.56982421875</ele>
        <time>2011-04-19T14:34:26Z</time>
      </trkpt>
      <trkpt lat="32.242582440376282" lon="-1.868803901597858">
        <ele>1219.56982421875</ele>
        <time>2011-04-19T14:34:28Z</time>
      </trkpt>
      <trkpt lat="32.242419747635722" lon="-1.869377894327045">
        <ele>1219.56982421875</ele>
        <time>2011-04-19T14:34:34Z</time>
      </trkpt>
      <trkpt lat="32.24226426333189" lon="-1.869908468797803">
        <ele>1217.16650390625</ele>
        <time>2011-04-19T14:34:40Z</time>
      </trkpt>
      <trkpt lat="32.242178516462445" lon="-1.870107874274254">
        <ele>1215.724609375</ele>
        <time>2011-04-19T14:34:46Z</time>
      </trkpt>
      <trkpt lat="32.242061169818044" lon="-1.870447592809796">
        <ele>1217.16650390625</ele>
        <time>2011-04-19T14:34:54Z</time>
      </trkpt>
      <trkpt lat="32.241988247260451" lon="-1.870779348537326">
        <ele>1216.205078125</ele>
        <time>2011-04-19T14:34:59Z</time>
      </trkpt>
      <trkpt lat="32.241845084354281" lon="-1.871416876092553">
        <ele>1217.64697265625</ele>
        <time>2011-04-19T14:35:09Z</time>
      </trkpt>
      <trkpt lat="32.241783142089844" lon="-1.871695574373007">
        <ele>1224.85693359375</ele>
        <time>2011-04-19T14:35:16Z</time>
      </trkpt>
      <trkpt lat="32.241768976673484" lon="-1.871930183842778">
        <ele>1225.33740234375</ele>
        <time>2011-04-19T14:35:29Z</time>
      </trkpt>
      <trkpt lat="32.241639895364642" lon="-1.872482970356941">
        <ele>1222.45361328125</ele>
        <time>2011-04-19T14:35:38Z</time>
      </trkpt>
      <trkpt lat="32.241590023040771" lon="-1.872680112719536">
        <ele>1221.4921875</ele>
        <time>2011-04-19T14:35:42Z</time>
      </trkpt>
      <trkpt lat="32.24158407188952" lon="-1.872870801016688">
        <ele>1220.05029296875</ele>
        <time>2011-04-19T14:35:46Z</time>
      </trkpt>
      <trkpt lat="32.241482986137271" lon="-1.873232815414667">
        <ele>1218.127685546875</ele>
        <time>2011-04-19T14:35:55Z</time>
      </trkpt>
      <trkpt lat="32.241418361663818" lon="-1.873388551175594">
        <ele>1210.43701171875</ele>
        <time>2011-04-19T14:36:06Z</time>
      </trkpt>
      <trkpt lat="32.241332111880183" lon="-1.873680157586932">
        <ele>1204.188720703125</ele>
        <time>2011-04-19T14:36:14Z</time>
      </trkpt>
      <trkpt lat="32.241097250953317" lon="-1.8742033559829">
        <ele>1200.823974609375</ele>
        <time>2011-04-19T14:36:22Z</time>
      </trkpt>
      <trkpt lat="32.241013012826443" lon="-1.874538380652666">
        <ele>1196.498291015625</ele>
        <time>2011-04-19T14:36:30Z</time>
      </trkpt>
      <trkpt lat="32.240942940115929" lon="-1.874788412824273">
        <ele>1193.614013671875</ele>
        <time>2011-04-19T14:36:38Z</time>
      </trkpt>
      <trkpt lat="32.240878902375698" lon="-1.875221757218242">
        <ele>1188.326904296875</ele>
        <time>2011-04-19T14:36:46Z</time>
      </trkpt>
      <trkpt lat="32.240843446925282" lon="-1.875787619501352">
        <ele>1180.15576171875</ele>
        <time>2011-04-19T14:36:55Z</time>
      </trkpt>
      <trkpt lat="32.240857444703579" lon="-1.875927681103349">
        <ele>1178.713623046875</ele>
        <time>2011-04-19T14:36:57Z</time>
      </trkpt>
      <trkpt lat="32.24088191986084" lon="-1.876413160935044">
        <ele>1182.078369140625</ele>
        <time>2011-04-19T14:37:03Z</time>
      </trkpt>
      <trkpt lat="32.240872280672193" lon="-1.876655230298638">
        <ele>1180.15576171875</ele>
        <time>2011-04-19T14:37:06Z</time>
      </trkpt>
      <trkpt lat="32.240667343139648" lon="-1.87725679948926">
        <ele>1186.884765625</ele>
        <time>2011-04-19T14:37:13Z</time>
      </trkpt>
      <trkpt lat="32.240701206028461" lon="-1.877531474456191">
        <ele>1189.768798828125</ele>
        <time>2011-04-19T14:37:16Z</time>
      </trkpt>
      <trkpt lat="32.240753173828125" lon="-1.878046123310924">
        <ele>1193.614013671875</ele>
        <time>2011-04-19T14:37:22Z</time>
      </trkpt>
      <trkpt lat="32.240753173828125" lon="-1.878309398889542">
        <ele>1195.53662109375</ele>
        <time>2011-04-19T14:37:25Z</time>
      </trkpt>
      <trkpt lat="32.240710258483887" lon="-1.878968551754952">
        <ele>1198.420654296875</ele>
        <time>2011-04-19T14:37:32Z</time>
      </trkpt>
      <trkpt lat="32.240685615688562" lon="-1.879499545320869">
        <ele>1201.785400390625</ele>
        <time>2011-04-19T14:37:39Z</time>
      </trkpt>
      <trkpt lat="32.240489646792412" lon="-1.879911096766591">
        <ele>1202.265869140625</ele>
        <time>2011-04-19T14:37:46Z</time>
      </trkpt>
      <trkpt lat="32.240523090586066" lon="-1.880426919087768">
        <ele>1212.35986328125</ele>
        <time>2011-04-19T14:37:56Z</time>
      </trkpt>
      <trkpt lat="32.240577153861523" lon="-1.880797985941172">
        <ele>1219.56982421875</ele>
        <time>2011-04-19T14:38:04Z</time>
      </trkpt>
      <trkpt lat="32.240567011758685" lon="-1.880952380597591">
        <ele>1221.972900390625</ele>
        <time>2011-04-19T14:38:07Z</time>
      </trkpt>
      <trkpt lat="32.240479253232479" lon="-1.881165113300085">
        <ele>1219.56982421875</ele>
        <time>2011-04-19T14:38:11Z</time>
      </trkpt>
      <trkpt lat="32.240364756435156" lon="-1.881370721384883">
        <ele>1219.089111328125</ele>
        <time>2011-04-19T14:38:15Z</time>
      </trkpt>
      <trkpt lat="32.240130733698606" lon="-1.882052756845951">
        <ele>1221.972900390625</ele>
        <time>2011-04-19T14:38:24Z</time>
      </trkpt>
      <trkpt lat="32.24008304066956" lon="-1.882674610242248">
        <ele>1218.6083984375</ele>
        <time>2011-04-19T14:38:31Z</time>
      </trkpt>
      <trkpt lat="32.239965358749032" lon="-1.883447170257568">
        <ele>1214.282470703125</ele>
        <time>2011-04-19T14:38:39Z</time>
      </trkpt>
      <trkpt lat="32.239671405404806" lon="-1.883988892659545">
        <ele>1218.6083984375</ele>
        <time>2011-04-19T14:38:47Z</time>
      </trkpt>
      <trkpt lat="32.239556238055229" lon="-1.884313859045506">
        <ele>1222.934326171875</ele>
        <time>2011-04-19T14:38:55Z</time>
      </trkpt>
      <trkpt lat="32.239489518105984" lon="-1.884533716365695">
        <ele>1243.121826171875</ele>
        <time>2011-04-19T14:42:01Z</time>
      </trkpt>
      <trkpt lat="32.23941165022552" lon="-1.884879972785711">
        <ele>1241.679931640625</ele>
        <time>2011-04-19T14:42:06Z</time>
      </trkpt>
      <trkpt lat="32.239177878946066" lon="-1.885720510035753">
        <ele>1239.276611328125</ele>
        <time>2011-04-19T14:42:16Z</time>
      </trkpt>
      <trkpt lat="32.23912239074707" lon="-1.886084033176303">
        <ele>1238.3154296875</ele>
        <time>2011-04-19T14:42:20Z</time>
      </trkpt>
      <trkpt lat="32.239048629999161" lon="-1.886704042553902">
        <ele>1236.392822265625</ele>
        <time>2011-04-19T14:42:28Z</time>
      </trkpt>
      <trkpt lat="32.239030692726374" lon="-1.88692482188344">
        <ele>1235.912109375</ele>
        <time>2011-04-19T14:42:33Z</time>
      </trkpt>
      <trkpt lat="32.23906128667295" lon="-1.887515829876065">
        <ele>1234.47021484375</ele>
        <time>2011-04-19T14:42:45Z</time>
      </trkpt>
      <trkpt lat="32.238795831799507" lon="-1.887964345514774">
        <ele>1234.47021484375</ele>
        <time>2011-04-19T14:42:57Z</time>
      </trkpt>
      <trkpt lat="32.238604389131069" lon="-1.887972140684724">
        <ele>1233.028076171875</ele>
        <time>2011-04-19T14:43:05Z</time>
      </trkpt>
      <trkpt lat="32.238438175991178" lon="-1.88803743571043">
        <ele>1240.718505859375</ele>
        <time>2011-04-19T14:44:22Z</time>
      </trkpt>
      <trkpt lat="32.238355530425906" lon="-1.887943893671036">
        <ele>1237.35400390625</ele>
        <time>2011-04-19T14:44:39Z</time>
      </trkpt>
      <trkpt lat="32.238209266215563" lon="-1.887786732986569">
        <ele>1198.420654296875</ele>
        <time>2011-04-19T14:45:34Z</time>
      </trkpt>
      <trkpt lat="32.238097116351128" lon="-1.887763598933816">
        <ele>1216.205078125</ele>
        <time>2011-04-19T14:45:56Z</time>
      </trkpt>
      <trkpt lat="32.237974153831601" lon="-1.887756893411279">
        <ele>1255.619140625</ele>
        <time>2011-04-19T14:46:29Z</time>
      </trkpt>
      <trkpt lat="32.237755637615919" lon="-1.887826882302761">
        <ele>1263.309814453125</ele>
        <time>2011-04-19T14:46:42Z</time>
      </trkpt>
      <trkpt lat="32.237634267657995" lon="-1.887887064367533">
        <ele>1273.884033203125</ele>
        <time>2011-04-19T14:47:14Z</time>
      </trkpt>
      <trkpt lat="32.23744248971343" lon="-1.887982534244657">
        <ele>1274.36474609375</ele>
        <time>2011-04-19T14:47:26Z</time>
      </trkpt>
      <trkpt lat="32.237278623506427" lon="-1.888064760714769">
        <ele>1273.884033203125</ele>
        <time>2011-04-19T14:47:36Z</time>
      </trkpt>
      <trkpt lat="32.237223219126463" lon="-1.888181352987886">
        <ele>1273.884033203125</ele>
        <time>2011-04-19T14:47:43Z</time>
      </trkpt>
      <trkpt lat="32.23714585416019" lon="-1.888493997976184">
        <ele>1274.36474609375</ele>
        <time>2011-04-19T14:47:57Z</time>
      </trkpt>
      <trkpt lat="32.237005541101098" lon="-1.888606231659651">
        <ele>1273.884033203125</ele>
        <time>2011-04-19T14:48:07Z</time>
      </trkpt>
      <trkpt lat="32.236818289384246" lon="-1.888739671558142">
        <ele>1272.442138671875</ele>
        <time>2011-04-19T14:48:18Z</time>
      </trkpt>
      <trkpt lat="32.236574543640018" lon="-1.888878643512726">
        <ele>1272.442138671875</ele>
        <time>2011-04-19T14:48:28Z</time>
      </trkpt>
      <trkpt lat="32.236251421272755" lon="-1.889057932421565">
        <ele>1272.9228515625</ele>
        <time>2011-04-19T14:48:39Z</time>
      </trkpt>
      <trkpt lat="32.235868284478784" lon="-1.889325650408864">
        <ele>1272.9228515625</ele>
        <time>2011-04-19T14:48:51Z</time>
      </trkpt>
      <trkpt lat="32.235648594796658" lon="-1.889398992061615">
        <ele>1273.884033203125</ele>
        <time>2011-04-19T14:49:00Z</time>
      </trkpt>
      <trkpt lat="32.235564524307847" lon="-1.889495132490993">
        <ele>1274.36474609375</ele>
        <time>2011-04-19T14:49:12Z</time>
      </trkpt>
      <trkpt lat="32.23553879186511" lon="-1.88963963650167">
        <ele>1272.9228515625</ele>
        <time>2011-04-19T14:49:26Z</time>
      </trkpt>
      <trkpt lat="32.235360844060779" lon="-1.889701075851917">
        <ele>1274.845458984375</ele>
        <time>2011-04-19T14:49:35Z</time>
      </trkpt>
      <trkpt lat="32.235030848532915" lon="-1.889949515461922">
        <ele>1276.768310546875</ele>
        <time>2011-04-19T14:49:47Z</time>
      </trkpt>
      <trkpt lat="32.234949124976993" lon="-1.890143137425184">
        <ele>1275.806640625</ele>
        <time>2011-04-19T14:49:56Z</time>
      </trkpt>
      <trkpt lat="32.23478970117867" lon="-1.890492076054215">
        <ele>1275.325927734375</ele>
        <time>2011-04-19T14:50:07Z</time>
      </trkpt>
      <trkpt lat="32.2344980109483" lon="-1.890771612524986">
        <ele>1275.325927734375</ele>
        <time>2011-04-19T14:50:11Z</time>
      </trkpt>
      <trkpt lat="32.234183857217431" lon="-1.890964061021805">
        <ele>1274.845458984375</ele>
        <time>2011-04-19T14:50:15Z</time>
      </trkpt>
      <trkpt lat="32.233855873346329" lon="-1.890832213684917">
        <ele>1273.403564453125</ele>
        <time>2011-04-19T14:50:22Z</time>
      </trkpt>
      <trkpt lat="32.233663341030478" lon="-1.890807151794434">
        <ele>1272.9228515625</ele>
        <time>2011-04-19T14:50:26Z</time>
      </trkpt>
      <trkpt lat="32.233510203659534" lon="-1.891003958880901">
        <ele>1272.9228515625</ele>
        <time>2011-04-19T14:50:34Z</time>
      </trkpt>
      <trkpt lat="32.233173083513975" lon="-1.891590859740973">
        <ele>1262.8291015625</ele>
        <time>2011-04-19T14:58:22Z</time>
      </trkpt>
      <trkpt lat="32.23274233750999" lon="-1.892297621816397">
        <ele>1261.38720703125</ele>
        <time>2011-04-19T14:58:32Z</time>
      </trkpt>
      <trkpt lat="32.232286697253585" lon="-1.893063224852085">
        <ele>1260.42578125</ele>
        <time>2011-04-19T14:58:41Z</time>
      </trkpt>
      <trkpt lat="32.231926443055272" lon="-1.893489779904485">
        <ele>1259.94482421875</ele>
        <time>2011-04-19T14:58:48Z</time>
      </trkpt>
      <trkpt lat="32.231772299855947" lon="-1.893649203702807">
        <ele>1259.46435546875</ele>
        <time>2011-04-19T14:58:51Z</time>
      </trkpt>
      <trkpt lat="32.231128150597215" lon="-1.894298633560538">
        <ele>1258.5029296875</ele>
        <time>2011-04-19T14:59:02Z</time>
      </trkpt>
      <trkpt lat="32.230450473725796" lon="-1.894977986812592">
        <ele>1258.0224609375</ele>
        <time>2011-04-19T14:59:13Z</time>
      </trkpt>
      <trkpt lat="32.230207230895758" lon="-1.895621884614229">
        <ele>1257.06103515625</ele>
        <time>2011-04-19T14:59:21Z</time>
      </trkpt>
      <trkpt lat="32.230129530653358" lon="-1.8958755210042">
        <ele>1256.580322265625</ele>
        <time>2011-04-19T14:59:24Z</time>
      </trkpt>
      <trkpt lat="32.229811772704124" lon="-1.897001462057233">
        <ele>1254.65771484375</ele>
        <time>2011-04-19T14:59:35Z</time>
      </trkpt>
      <trkpt lat="32.229809761047363" lon="-1.897485265508294">
        <ele>1253.696533203125</ele>
        <time>2011-04-19T14:59:40Z</time>
      </trkpt>
      <trkpt lat="32.229590406641364" lon="-1.898294454440475">
        <ele>1252.25439453125</ele>
        <time>2011-04-19T14:59:48Z</time>
      </trkpt>
      <trkpt lat="32.229306343942881" lon="-1.899372283369303">
        <ele>1250.8125</ele>
        <time>2011-04-19T14:59:58Z</time>
      </trkpt>
      <trkpt lat="32.229070393368602" lon="-1.900296974927187">
        <ele>1249.851318359375</ele>
        <time>2011-04-19T15:00:06Z</time>
      </trkpt>
      <trkpt lat="32.22856605425477" lon="-1.901724664494395">
        <ele>1248.889892578125</ele>
        <time>2011-04-19T15:00:18Z</time>
      </trkpt>
      <trkpt lat="32.228430015966296" lon="-1.902443077415228">
        <ele>1248.4091796875</ele>
        <time>2011-04-19T15:00:25Z</time>
      </trkpt>
      <trkpt lat="32.228381149470806" lon="-1.902650780975819">
        <ele>1250.33203125</ele>
        <time>2011-04-19T15:01:54Z</time>
      </trkpt>
      <trkpt lat="32.228221390396357" lon="-1.903110779821873">
        <ele>1249.37060546875</ele>
        <time>2011-04-19T15:02:00Z</time>
      </trkpt>
      <trkpt lat="32.227886784821749" lon="-1.903480421751738">
        <ele>1248.4091796875</ele>
        <time>2011-04-19T15:02:07Z</time>
      </trkpt>
      <trkpt lat="32.227747896686196" lon="-1.903648478910327">
        <ele>1248.4091796875</ele>
        <time>2011-04-19T15:02:10Z</time>
      </trkpt>
      <trkpt lat="32.227685451507568" lon="-1.903789043426514">
        <ele>1247.9287109375</ele>
        <time>2011-04-19T15:02:12Z</time>
      </trkpt>
      <trkpt lat="32.22764253616333" lon="-1.904304027557373">
        <ele>1246.96728515625</ele>
        <time>2011-04-19T15:02:18Z</time>
      </trkpt>
      <trkpt lat="32.227533739060163" lon="-1.90505051985383">
        <ele>1245.525390625</ele>
        <time>2011-04-19T15:02:24Z</time>
      </trkpt>
      <trkpt lat="32.227330561727285" lon="-1.905924836173654">
        <ele>1244.56396484375</ele>
        <time>2011-04-19T15:02:31Z</time>
      </trkpt>
      <trkpt lat="32.227057814598083" lon="-1.907285554334521">
        <ele>1244.08349609375</ele>
        <time>2011-04-19T15:02:40Z</time>
      </trkpt>
      <trkpt lat="32.227037446573377" lon="-1.907590823248029">
        <ele>1244.56396484375</ele>
        <time>2011-04-19T15:02:42Z</time>
      </trkpt>
      <trkpt lat="32.226726561784744" lon="-1.908618528395891">
        <ele>1242.641357421875</ele>
        <time>2011-04-19T15:02:50Z</time>
      </trkpt>
      <trkpt lat="32.226698398590088" lon="-1.908724308013916">
        <ele>1243.6025390625</ele>
        <time>2011-04-19T15:02:51Z</time>
      </trkpt>
      <trkpt lat="32.226508716121316" lon="-1.909710019826889">
        <ele>1247.9287109375</ele>
        <time>2011-04-19T15:02:59Z</time>
      </trkpt>
      <trkpt lat="32.226370414718986" lon="-1.911041485145688">
        <ele>1248.889892578125</ele>
        <time>2011-04-19T15:03:08Z</time>
      </trkpt>
      <trkpt lat="32.226263377815485" lon="-1.911599133163691">
        <ele>1248.889892578125</ele>
        <time>2011-04-19T15:03:12Z</time>
      </trkpt>
      <trkpt lat="32.226045364513993" lon="-1.912265243008733">
        <ele>1250.33203125</ele>
        <time>2011-04-19T15:03:18Z</time>
      </trkpt>
      <trkpt lat="32.225732300430536" lon="-1.912989355623722">
        <ele>1252.735107421875</ele>
        <time>2011-04-19T15:03:24Z</time>
      </trkpt>
      <trkpt lat="32.225387971848249" lon="-1.914005996659398">
        <ele>1255.138427734375</ele>
        <time>2011-04-19T15:03:32Z</time>
      </trkpt>
      <trkpt lat="32.224907856434584" lon="-1.914967652410269">
        <ele>1259.46435546875</ele>
        <time>2011-04-19T15:03:39Z</time>
      </trkpt>
      <trkpt lat="32.224834347143769" lon="-1.915475511923432">
        <ele>1261.867919921875</ele>
        <time>2011-04-19T15:03:43Z</time>
      </trkpt>
      <trkpt lat="32.224417263641953" lon="-1.916711423546076">
        <ele>1266.67431640625</ele>
        <time>2011-04-19T15:03:52Z</time>
      </trkpt>
      <trkpt lat="32.223816616460681" lon="-1.918576145544648">
        <ele>1272.442138671875</ele>
        <time>2011-04-19T15:04:04Z</time>
      </trkpt>
      <trkpt lat="32.223363323137164" lon="-1.91999570466578">
        <ele>1277.2490234375</ele>
        <time>2011-04-19T15:04:13Z</time>
      </trkpt>
      <trkpt lat="32.222914388403296" lon="-1.921064564958215">
        <ele>1281.09423828125</ele>
        <time>2011-04-19T15:04:22Z</time>
      </trkpt>
      <trkpt lat="32.222655387595296" lon="-1.921466644853354">
        <ele>1283.0166015625</ele>
        <time>2011-04-19T15:04:27Z</time>
      </trkpt>
      <trkpt lat="32.222601072862744" lon="-1.921575190499425">
        <ele>1280.1328125</ele>
        <time>2011-04-19T15:04:31Z</time>
      </trkpt>
      <trkpt lat="32.222599983215332" lon="-1.921979198232293">
        <ele>1283.0166015625</ele>
        <time>2011-04-19T15:04:37Z</time>
      </trkpt>
      <trkpt lat="32.222599983215332" lon="-1.922095371410251">
        <ele>1283.0166015625</ele>
        <time>2011-04-19T15:04:38Z</time>
      </trkpt>
      <trkpt lat="32.222508620470762" lon="-1.922502480447292">
        <ele>1283.97802734375</ele>
        <time>2011-04-19T15:04:41Z</time>
      </trkpt>
      <trkpt lat="32.222176110371947" lon="-1.923778960481286">
        <ele>1285.900634765625</ele>
        <time>2011-04-19T15:04:50Z</time>
      </trkpt>
      <trkpt lat="32.221930520609021" lon="-1.924516819417477">
        <ele>1287.8232421875</ele>
        <time>2011-04-19T15:04:56Z</time>
      </trkpt>
      <trkpt lat="32.2216328792274" lon="-1.925597917288542">
        <ele>1292.630126953125</ele>
        <time>2011-04-19T15:05:05Z</time>
      </trkpt>
      <trkpt lat="32.221350241452456" lon="-1.926599387079477">
        <ele>1295.513916015625</ele>
        <time>2011-04-19T15:05:13Z</time>
      </trkpt>
      <trkpt lat="32.221078164875507" lon="-1.927532711997628">
        <ele>1297.917236328125</ele>
        <time>2011-04-19T15:05:21Z</time>
      </trkpt>
      <trkpt lat="32.220772644504905" lon="-1.928401160985231">
        <ele>1300.320556640625</ele>
        <time>2011-04-19T15:05:29Z</time>
      </trkpt>
      <trkpt lat="32.220700224861503" lon="-1.928664185106754">
        <ele>1301.762451171875</ele>
        <time>2011-04-19T15:05:34Z</time>
      </trkpt>
      <trkpt lat="32.22053786739707" lon="-1.929197357967496">
        <ele>1302.7236328125</ele>
        <time>2011-04-19T15:05:40Z</time>
      </trkpt>
      <trkpt lat="32.220084825530648" lon="-1.930458582937717">
        <ele>1305.126953125</ele>
        <time>2011-04-19T15:05:52Z</time>
      </trkpt>
      <trkpt lat="32.219964545220137" lon="-1.930832918733358">
        <ele>1307.049560546875</ele>
        <time>2011-04-19T15:05:58Z</time>
      </trkpt>
      <trkpt lat="32.219895478338003" lon="-1.931052776053548">
        <ele>1308.49169921875</ele>
        <time>2011-04-19T15:06:06Z</time>
      </trkpt>
      <trkpt lat="32.21975558437407" lon="-1.931512523442507">
        <ele>1309.93359375</ele>
        <time>2011-04-19T15:06:11Z</time>
      </trkpt>
      <trkpt lat="32.219396252185106" lon="-1.932470574975014">
        <ele>1299.359130859375</ele>
        <time>2011-04-19T15:06:19Z</time>
      </trkpt>
      <trkpt lat="32.219249987974763" lon="-1.932880114763975">
        <ele>1293.59130859375</ele>
        <time>2011-04-19T15:06:24Z</time>
      </trkpt>
      <trkpt lat="32.219067178666592" lon="-1.933341287076473">
        <ele>1285.900634765625</ele>
        <time>2011-04-19T15:06:31Z</time>
      </trkpt>
      <trkpt lat="32.218791330233216" lon="-1.934028184041381">
        <ele>1278.210205078125</ele>
        <time>2011-04-19T15:06:39Z</time>
      </trkpt>
      <trkpt lat="32.218621764332056" lon="-1.934379301965237">
        <ele>1273.884033203125</ele>
        <time>2011-04-19T15:06:45Z</time>
      </trkpt>
      <trkpt lat="32.218378353863955" lon="-1.934907361865044">
        <ele>1265.713134765625</ele>
        <time>2011-04-19T15:06:53Z</time>
      </trkpt>
      <trkpt lat="32.218079119920731" lon="-1.935437098145485">
        <ele>1258.983642578125</ele>
        <time>2011-04-19T15:06:59Z</time>
      </trkpt>
      <trkpt lat="32.217359952628613" lon="-1.936735287308693">
        <ele>1258.0224609375</ele>
        <time>2011-04-19T15:07:12Z</time>
      </trkpt>
      <trkpt lat="32.216625614091754" lon="-1.938198767602444">
        <ele>1258.983642578125</ele>
        <time>2011-04-19T15:07:25Z</time>
      </trkpt>
      <trkpt lat="32.215801170095801" lon="-1.93978856317699">
        <ele>1260.42578125</ele>
        <time>2011-04-19T15:07:39Z</time>
      </trkpt>
      <trkpt lat="32.215155092999339" lon="-1.940985666587949">
        <ele>1263.309814453125</ele>
        <time>2011-04-19T15:07:50Z</time>
      </trkpt>
      <trkpt lat="32.214756365865469" lon="-1.941722184419632">
        <ele>1265.232421875</ele>
        <time>2011-04-19T15:07:58Z</time>
      </trkpt>
      <trkpt lat="32.214179607108235" lon="-1.942914258688688">
        <ele>1269.558349609375</ele>
        <time>2011-04-19T15:08:09Z</time>
      </trkpt>
      <trkpt lat="32.213699072599411" lon="-1.944115553051233">
        <ele>1272.442138671875</ele>
        <time>2011-04-19T15:08:19Z</time>
      </trkpt>
      <trkpt lat="32.213437557220459" lon="-1.944708824157715">
        <ele>1271.96142578125</ele>
        <time>2011-04-19T15:08:28Z</time>
      </trkpt>
      <trkpt lat="32.213238487020135" lon="-1.944926334545016">
        <ele>1271.000244140625</ele>
        <time>2011-04-19T15:08:34Z</time>
      </trkpt>
      <trkpt lat="32.213133880868554" lon="-1.945071592926979">
        <ele>1269.558349609375</ele>
        <time>2011-04-19T15:08:44Z</time>
      </trkpt>
      <trkpt lat="32.21317034214735" lon="-1.945304777473211">
        <ele>1271.000244140625</ele>
        <time>2011-04-19T15:08:51Z</time>
      </trkpt>
      <trkpt lat="32.213305039331317" lon="-1.945721190422773">
        <ele>1272.9228515625</ele>
        <time>2011-04-19T15:08:55Z</time>
      </trkpt>
      <trkpt lat="32.213088450953364" lon="-1.946456199511886">
        <ele>1276.768310546875</ele>
        <time>2011-04-19T15:09:06Z</time>
      </trkpt>
      <trkpt lat="32.212815284729004" lon="-1.947176540270448">
        <ele>1280.1328125</ele>
        <time>2011-04-19T15:09:16Z</time>
      </trkpt>
      <trkpt lat="32.212670780718327" lon="-1.947349291294813">
        <ele>1280.1328125</ele>
        <time>2011-04-19T15:09:21Z</time>
      </trkpt>
      <trkpt lat="32.212443128228188" lon="-1.948099974542856">
        <ele>1280.613525390625</ele>
        <time>2011-04-19T15:09:32Z</time>
      </trkpt>
      <trkpt lat="32.212235927581787" lon="-1.948989797383547">
        <ele>1281.09423828125</ele>
        <time>2011-04-19T15:09:42Z</time>
      </trkpt>
      <trkpt lat="32.212364254519343" lon="-1.949921529740095">
        <ele>1277.2490234375</ele>
        <time>2011-04-19T15:09:52Z</time>
      </trkpt>
      <trkpt lat="32.212518230080605" lon="-1.950191846117377">
        <ele>1276.28759765625</ele>
        <time>2011-04-19T15:09:55Z</time>
      </trkpt>
      <trkpt lat="32.212818972766399" lon="-1.950994413346052">
        <ele>1273.403564453125</ele>
        <time>2011-04-19T15:10:03Z</time>
      </trkpt>
      <trkpt lat="32.213080236688256" lon="-1.951804524287581">
        <ele>1270.51953125</ele>
        <time>2011-04-19T15:10:12Z</time>
      </trkpt>
      <trkpt lat="32.213348876684904" lon="-1.952615305781364">
        <ele>1268.1162109375</ele>
        <time>2011-04-19T15:10:20Z</time>
      </trkpt>
      <trkpt lat="32.213430181145668" lon="-1.952922670170665">
        <ele>1266.67431640625</ele>
        <time>2011-04-19T15:10:23Z</time>
      </trkpt>
      <trkpt lat="32.213676609098911" lon="-1.953759184107184">
        <ele>1263.309814453125</ele>
        <time>2011-04-19T15:10:30Z</time>
      </trkpt>
      <trkpt lat="32.213754476979375" lon="-1.954005779698491">
        <ele>1262.348388671875</ele>
        <time>2011-04-19T15:10:32Z</time>
      </trkpt>
      <trkpt lat="32.214110288769007" lon="-1.955117052420974">
        <ele>1258.983642578125</ele>
        <time>2011-04-19T15:10:41Z</time>
      </trkpt>
      <trkpt lat="32.214713953435421" lon="-1.956424042582512">
        <ele>1255.138427734375</ele>
        <time>2011-04-19T15:10:53Z</time>
      </trkpt>
      <trkpt lat="32.215037913993001" lon="-1.957157794386149">
        <ele>1254.17724609375</ele>
        <time>2011-04-19T15:11:02Z</time>
      </trkpt>
      <trkpt lat="32.215529680252075" lon="-1.95830955170095">
        <ele>1252.25439453125</ele>
        <time>2011-04-19T15:11:17Z</time>
      </trkpt>
      <trkpt lat="32.215993534773588" lon="-1.959212953224778">
        <ele>1250.33203125</ele>
        <time>2011-04-19T15:11:29Z</time>
      </trkpt>
      <trkpt lat="32.216232167556882" lon="-1.959883254021406">
        <ele>1248.889892578125</ele>
        <time>2011-04-19T15:11:36Z</time>
      </trkpt>
      <trkpt lat="32.216645311564207" lon="-1.960764275863767">
        <ele>1246.48681640625</ele>
        <time>2011-04-19T15:11:46Z</time>
      </trkpt>
      <trkpt lat="32.216850416734815" lon="-1.961083291098476">
        <ele>1244.56396484375</ele>
        <time>2011-04-19T15:11:50Z</time>
      </trkpt>
      <trkpt lat="32.216991065070033" lon="-1.961364420130849">
        <ele>1244.08349609375</ele>
        <time>2011-04-19T15:11:53Z</time>
      </trkpt>
      <trkpt lat="32.21743849106133" lon="-1.962165730074048">
        <ele>1242.16064453125</ele>
        <time>2011-04-19T15:12:00Z</time>
      </trkpt>
      <trkpt lat="32.218153467401862" lon="-1.963618313893676">
        <ele>1238.3154296875</ele>
        <time>2011-04-19T15:12:10Z</time>
      </trkpt>
      <trkpt lat="32.218770626932383" lon="-1.964739561080933">
        <ele>1235.431396484375</ele>
        <time>2011-04-19T15:12:18Z</time>
      </trkpt>
      <trkpt lat="32.219430869445205" lon="-1.965578170493245">
        <ele>1233.028076171875</ele>
        <time>2011-04-19T15:12:25Z</time>
      </trkpt>
      <trkpt lat="32.219738066196442" lon="-1.966069601476193">
        <ele>1231.105712890625</ele>
        <time>2011-04-19T15:12:29Z</time>
      </trkpt>
      <trkpt lat="32.21986211836338" lon="-1.96631527505815">
        <ele>1230.625</ele>
        <time>2011-04-19T15:12:31Z</time>
      </trkpt>
      <trkpt lat="32.220131931826472" lon="-1.966931764036417">
        <ele>1228.702392578125</ele>
        <time>2011-04-19T15:12:36Z</time>
      </trkpt>
      <trkpt lat="32.22058966755867" lon="-1.96805720217526">
        <ele>1226.298828125</ele>
        <time>2011-04-19T15:12:44Z</time>
      </trkpt>
      <trkpt lat="32.220960231497884" lon="-1.968884915113449">
        <ele>1224.376220703125</ele>
        <time>2011-04-19T15:12:51Z</time>
      </trkpt>
      <trkpt lat="32.221076488494873" lon="-1.969253299757838">
        <ele>1223.4150390625</ele>
        <time>2011-04-19T15:12:56Z</time>
      </trkpt>
      <trkpt lat="32.221056874841452" lon="-1.969584301114082">
        <ele>1222.934326171875</ele>
        <time>2011-04-19T15:13:01Z</time>
      </trkpt>
      <trkpt lat="32.220870880410075" lon="-1.969939861446619">
        <ele>1223.4150390625</ele>
        <time>2011-04-19T15:13:07Z</time>
      </trkpt>
      <trkpt lat="32.220660829916596" lon="-1.970089813694358">
        <ele>1223.8955078125</ele>
        <time>2011-04-19T15:13:10Z</time>
      </trkpt>
      <trkpt lat="32.220440553501248" lon="-1.970564899966121">
        <ele>1222.45361328125</ele>
        <time>2011-04-19T15:13:17Z</time>
      </trkpt>
      <trkpt lat="32.220588494092226" lon="-1.970937810838223">
        <ele>1223.4150390625</ele>
        <time>2011-04-19T15:13:23Z</time>
      </trkpt>
      <trkpt lat="32.220864593982697" lon="-1.971373669803143">
        <ele>1222.934326171875</ele>
        <time>2011-04-19T15:13:32Z</time>
      </trkpt>
      <trkpt lat="32.220880854874849" lon="-1.971726883202791">
        <ele>1224.376220703125</ele>
        <time>2011-04-19T15:14:44Z</time>
      </trkpt>
      <trkpt lat="32.221017396077514" lon="-1.971943555399776">
        <ele>1224.85693359375</ele>
        <time>2011-04-19T15:14:54Z</time>
      </trkpt>
      <trkpt lat="32.221095766872168" lon="-1.972042797133327">
        <ele>1225.33740234375</ele>
        <time>2011-04-19T15:14:58Z</time>
      </trkpt>
      <trkpt lat="32.221363736316562" lon="-1.971956547349691">
        <ele>1223.8955078125</ele>
        <time>2011-04-19T15:15:04Z</time>
      </trkpt>
      <trkpt lat="32.2214843519032" lon="-1.971910195425153">
        <ele>1223.4150390625</ele>
        <time>2011-04-19T15:15:06Z</time>
      </trkpt>
      <trkpt lat="32.221709657460451" lon="-1.971885217353702">
        <ele>1222.45361328125</ele>
        <time>2011-04-19T15:15:10Z</time>
      </trkpt>
      <trkpt lat="32.221977710723877" lon="-1.971960067749023">
        <ele>1221.4921875</ele>
        <time>2011-04-19T15:15:15Z</time>
      </trkpt>
      <trkpt lat="32.222266215831041" lon="-1.972232479602099">
        <ele>1221.4921875</ele>
        <time>2011-04-19T15:15:21Z</time>
      </trkpt>
      <trkpt lat="32.222746163606644" lon="-1.972833881154656">
        <ele>1220.531005859375</ele>
        <time>2011-04-19T15:15:29Z</time>
      </trkpt>
      <trkpt lat="32.223308756947517" lon="-1.973877511918545">
        <ele>1219.56982421875</ele>
        <time>2011-04-19T15:15:41Z</time>
      </trkpt>
      <trkpt lat="32.223568009212613" lon="-1.97451495565474">
        <ele>1220.05029296875</ele>
        <time>2011-04-19T15:15:49Z</time>
      </trkpt>
      <trkpt lat="32.223826423287392" lon="-1.975012253969908">
        <ele>1220.05029296875</ele>
        <time>2011-04-19T15:15:56Z</time>
      </trkpt>
      <trkpt lat="32.224112246185541" lon="-1.976163256913424">
        <ele>1219.56982421875</ele>
        <time>2011-04-19T15:16:05Z</time>
      </trkpt>
      <trkpt lat="32.224426567554474" lon="-1.977064898237586">
        <ele>1218.127685546875</ele>
        <time>2011-04-19T15:16:14Z</time>
      </trkpt>
      <trkpt lat="32.224640725180507" lon="-1.977748777717352">
        <ele>1217.16650390625</ele>
        <time>2011-04-19T15:16:22Z</time>
      </trkpt>
      <trkpt lat="32.224759412929416" lon="-1.978136273100972">
        <ele>1215.243896484375</ele>
        <time>2011-04-19T15:16:31Z</time>
      </trkpt>
      <trkpt lat="32.224797885864973" lon="-1.978345066308975">
        <ele>1212.35986328125</ele>
        <time>2011-04-19T15:16:39Z</time>
      </trkpt>
      <trkpt lat="32.224991759285331" lon="-1.978680929169059">
        <ele>1212.35986328125</ele>
        <time>2011-04-19T15:16:47Z</time>
      </trkpt>
      <trkpt lat="32.225230224430561" lon="-1.979276044294238">
        <ele>1212.35986328125</ele>
        <time>2011-04-19T15:16:54Z</time>
      </trkpt>
      <trkpt lat="32.225607912987471" lon="-1.980424532666802">
        <ele>1211.879150390625</ele>
        <time>2011-04-19T15:17:05Z</time>
      </trkpt>
      <trkpt lat="32.225747471675277" lon="-1.981018474325538">
        <ele>1210.917724609375</ele>
        <time>2011-04-19T15:17:12Z</time>
      </trkpt>
      <trkpt lat="32.225855179131031" lon="-1.981243528425694">
        <ele>1210.917724609375</ele>
        <time>2011-04-19T15:17:18Z</time>
      </trkpt>
      <trkpt lat="32.226046537980437" lon="-1.981537062674761">
        <ele>1210.917724609375</ele>
        <time>2011-04-19T15:17:23Z</time>
      </trkpt>
      <trkpt lat="32.226274022832513" lon="-1.982405763119459">
        <ele>1208.033935546875</ele>
        <time>2011-04-19T15:17:32Z</time>
      </trkpt>
      <trkpt lat="32.226577531546354" lon="-1.983171114698052">
        <ele>1206.111083984375</ele>
        <time>2011-04-19T15:17:40Z</time>
      </trkpt>
      <trkpt lat="32.226850865408778" lon="-1.984099075198174">
        <ele>1203.227294921875</ele>
        <time>2011-04-19T15:17:49Z</time>
      </trkpt>
      <trkpt lat="32.226886572316289" lon="-1.984199825674295">
        <ele>1202.74658203125</ele>
        <time>2011-04-19T15:17:50Z</time>
      </trkpt>
      <trkpt lat="32.227033590897918" lon="-1.984450360760093">
        <ele>1201.785400390625</ele>
        <time>2011-04-19T15:17:53Z</time>
      </trkpt>
      <trkpt lat="32.22734103910625" lon="-1.984896780923009">
        <ele>1200.823974609375</ele>
        <time>2011-04-19T15:18:01Z</time>
      </trkpt>
      <trkpt lat="32.227470204234123" lon="-1.985340351238847">
        <ele>1199.86279296875</ele>
        <time>2011-04-19T15:18:06Z</time>
      </trkpt>
      <trkpt lat="32.227575480937958" lon="-1.98569574393332">
        <ele>1199.382080078125</ele>
        <time>2011-04-19T15:18:09Z</time>
      </trkpt>
      <trkpt lat="32.227912098169327" lon="-1.986745074391365">
        <ele>1196.978759765625</ele>
        <time>2011-04-19T15:18:18Z</time>
      </trkpt>
      <trkpt lat="32.228229185566306" lon="-1.987590892240405">
        <ele>1195.055908203125</ele>
        <time>2011-04-19T15:18:26Z</time>
      </trkpt>
      <trkpt lat="32.228497238829732" lon="-1.988175781443715">
        <ele>1193.614013671875</ele>
        <time>2011-04-19T15:18:33Z</time>
      </trkpt>
      <trkpt lat="32.228631936013699" lon="-1.988613400608301">
        <ele>1193.13330078125</ele>
        <time>2011-04-19T15:18:39Z</time>
      </trkpt>
      <trkpt lat="32.228734279051423" lon="-1.988934427499771">
        <ele>1192.65283203125</ele>
        <time>2011-04-19T15:18:46Z</time>
      </trkpt>
      <trkpt lat="32.228961009532213" lon="-1.989641441032291">
        <ele>1190.72998046875</ele>
        <time>2011-04-19T15:18:53Z</time>
      </trkpt>
      <trkpt lat="32.229361077770591" lon="-1.990910461172462">
        <ele>1187.84619140625</ele>
        <time>2011-04-19T15:19:03Z</time>
      </trkpt>
      <trkpt lat="32.229723259806633" lon="-1.991883013397455">
        <ele>1185.44287109375</ele>
        <time>2011-04-19T15:19:11Z</time>
      </trkpt>
      <trkpt lat="32.230232376605272" lon="-1.99349426664412">
        <ele>1181.59765625</ele>
        <time>2011-04-19T15:19:23Z</time>
      </trkpt>
      <trkpt lat="32.230539321899414" lon="-1.994207566604018">
        <ele>1180.15576171875</ele>
        <time>2011-04-19T15:19:30Z</time>
      </trkpt>
      <trkpt lat="32.230605706572533" lon="-1.994393225759268">
        <ele>1179.6748046875</ele>
        <time>2011-04-19T15:19:33Z</time>
      </trkpt>
      <trkpt lat="32.230664128437638" lon="-1.994661949574947">
        <ele>1179.194091796875</ele>
        <time>2011-04-19T15:19:39Z</time>
      </trkpt>
      <trkpt lat="32.230641832575202" lon="-1.994788516312838">
        <ele>1178.713623046875</ele>
        <time>2011-04-19T15:19:41Z</time>
      </trkpt>
      <trkpt lat="32.230630852282047" lon="-1.995133766904473">
        <ele>1178.713623046875</ele>
        <time>2011-04-19T15:19:47Z</time>
      </trkpt>
      <trkpt lat="32.23080787807703" lon="-1.995715135708451">
        <ele>1177.271728515625</ele>
        <time>2011-04-19T15:19:57Z</time>
      </trkpt>
      <trkpt lat="32.230835119262338" lon="-1.99582401663065">
        <ele>1177.271728515625</ele>
        <time>2011-04-19T15:20:01Z</time>
      </trkpt>
      <trkpt lat="32.231033770367503" lon="-1.996359871700406">
        <ele>1175.348876953125</ele>
        <time>2011-04-19T15:20:08Z</time>
      </trkpt>
      <trkpt lat="32.231416320428252" lon="-1.997322700917721">
        <ele>1172.465087890625</ele>
        <time>2011-04-19T15:20:17Z</time>
      </trkpt>
      <trkpt lat="32.231816975399852" lon="-1.998632960021496">
        <ele>1170.54248046875</ele>
        <time>2011-04-19T15:20:28Z</time>
      </trkpt>
      <trkpt lat="32.232208075001836" lon="-2.000119239091873">
        <ele>1168.619873046875</ele>
        <time>2011-04-19T15:20:41Z</time>
      </trkpt>
      <trkpt lat="32.232260797172785" lon="-2.000274555757642">
        <ele>1168.619873046875</ele>
        <time>2011-04-19T15:20:43Z</time>
      </trkpt>
      <trkpt lat="32.232335060834885" lon="-2.000452671200037">
        <ele>1167.177978515625</ele>
        <time>2011-04-19T15:20:46Z</time>
      </trkpt>
      <trkpt lat="32.232607891783118" lon="-2.001069830730557">
        <ele>1165.25537109375</ele>
        <time>2011-04-19T15:20:54Z</time>
      </trkpt>
      <trkpt lat="32.232742002233863" lon="-2.002033330500126">
        <ele>1163.33251953125</ele>
        <time>2011-04-19T15:21:05Z</time>
      </trkpt>
      <trkpt lat="32.232835292816162" lon="-2.002773871645331">
        <ele>1161.409912109375</ele>
        <time>2011-04-19T15:21:15Z</time>
      </trkpt>
      <trkpt lat="32.232835292816162" lon="-2.003309475257993">
        <ele>1160.448486328125</ele>
        <time>2011-04-19T15:21:24Z</time>
      </trkpt>
      <trkpt lat="32.232835292816162" lon="-2.003514831885696">
        <ele>1161.409912109375</ele>
        <time>2011-04-19T15:21:28Z</time>
      </trkpt>
      <trkpt lat="32.232909388840199" lon="-2.004233999177814">
        <ele>1160.92919921875</ele>
        <time>2011-04-19T15:21:37Z</time>
      </trkpt>
      <trkpt lat="32.233116589486599" lon="-2.00562933459878">
        <ele>1158.52587890625</ele>
        <time>2011-04-19T15:21:51Z</time>
      </trkpt>
      <trkpt lat="32.233251873403788" lon="-2.006487306207418">
        <ele>1157.083984375</ele>
        <time>2011-04-19T15:21:59Z</time>
      </trkpt>
      <trkpt lat="32.233332004398108" lon="-2.007053000852466">
        <ele>1156.603271484375</ele>
        <time>2011-04-19T15:22:07Z</time>
      </trkpt>
      <trkpt lat="32.233374919742346" lon="-2.007396994158626">
        <ele>1158.52587890625</ele>
        <time>2011-04-19T15:22:17Z</time>
      </trkpt>
      <trkpt lat="32.233436107635498" lon="-2.007880546152592">
        <ele>1158.52587890625</ele>
        <time>2011-04-19T15:22:23Z</time>
      </trkpt>
      <trkpt lat="32.233544737100601" lon="-2.00856207869947">
        <ele>1156.12255859375</ele>
        <time>2011-04-19T15:22:31Z</time>
      </trkpt>
      <trkpt lat="32.233861489221454" lon="-2.009254088625312">
        <ele>1156.603271484375</ele>
        <time>2011-04-19T15:22:40Z</time>
      </trkpt>
      <trkpt lat="32.234159968793392" lon="-2.010282129049301">
        <ele>1153.719482421875</ele>
        <time>2011-04-19T15:22:49Z</time>
      </trkpt>
      <trkpt lat="32.234463477507234" lon="-2.011746447533369">
        <ele>1151.316162109375</ele>
        <time>2011-04-19T15:22:59Z</time>
      </trkpt>
      <trkpt lat="32.23455760627985" lon="-2.012155065312982">
        <ele>1150.83544921875</ele>
        <time>2011-04-19T15:23:03Z</time>
      </trkpt>
      <trkpt lat="32.234690794721246" lon="-2.012577848508954">
        <ele>1149.874267578125</ele>
        <time>2011-04-19T15:23:10Z</time>
      </trkpt>
      <trkpt lat="32.234989525750279" lon="-2.013362310826778">
        <ele>1148.912841796875</ele>
        <time>2011-04-19T15:23:17Z</time>
      </trkpt>
      <trkpt lat="32.235409626737237" lon="-2.014145180583">
        <ele>1148.912841796875</ele>
        <time>2011-04-19T15:23:24Z</time>
      </trkpt>
      <trkpt lat="32.23558028228581" lon="-2.014372665435076">
        <ele>1148.43212890625</ele>
        <time>2011-04-19T15:23:27Z</time>
      </trkpt>
      <trkpt lat="32.235656976699829" lon="-2.014521528035402">
        <ele>1148.43212890625</ele>
        <time>2011-04-19T15:23:29Z</time>
      </trkpt>
      <trkpt lat="32.235854873433709" lon="-2.014966271817684">
        <ele>1148.912841796875</ele>
        <time>2011-04-19T15:23:37Z</time>
      </trkpt>
      <trkpt lat="32.235875492915511" lon="-2.015099711716175">
        <ele>1149.874267578125</ele>
        <time>2011-04-19T15:23:50Z</time>
      </trkpt>
      <trkpt lat="32.235889825969934" lon="-2.015207335352898">
        <ele>1151.796875</ele>
        <time>2011-04-19T15:23:56Z</time>
      </trkpt>
      <trkpt lat="32.235949840396643" lon="-2.015559291467071">
        <ele>1150.83544921875</ele>
        <time>2011-04-19T15:24:02Z</time>
      </trkpt>
      <trkpt lat="32.236046148464084" lon="-2.015800103545189">
        <ele>1150.35498046875</ele>
        <time>2011-04-19T15:24:05Z</time>
      </trkpt>
      <trkpt lat="32.236326690763235" lon="-2.016654470935464">
        <ele>1148.912841796875</ele>
        <time>2011-04-19T15:24:14Z</time>
      </trkpt>
      <trkpt lat="32.236862378194928" lon="-2.01742191798985">
        <ele>1148.43212890625</ele>
        <time>2011-04-19T15:24:25Z</time>
      </trkpt>
      <trkpt lat="32.237417008727789" lon="-2.017978895455599">
        <ele>1148.43212890625</ele>
        <time>2011-04-19T15:24:33Z</time>
      </trkpt>
      <trkpt lat="32.237736359238625" lon="-2.018457837402821">
        <ele>1149.874267578125</ele>
        <time>2011-04-19T15:24:38Z</time>
      </trkpt>
      <trkpt lat="32.237876756116748" lon="-2.019163006916642">
        <ele>1156.603271484375</ele>
        <time>2011-04-19T15:24:45Z</time>
      </trkpt>
      <trkpt lat="32.237832164391875" lon="-2.019832637161017">
        <ele>1160.92919921875</ele>
        <time>2011-04-19T15:24:55Z</time>
      </trkpt>
      <trkpt lat="32.237813472747803" lon="-2.020121477544308">
        <ele>1159.9677734375</ele>
        <time>2011-04-19T15:25:00Z</time>
      </trkpt>
      <trkpt lat="32.237780196592212" lon="-2.020776774734259">
        <ele>1158.04541015625</ele>
        <time>2011-04-19T15:25:09Z</time>
      </trkpt>
      <trkpt lat="32.237920761108398" lon="-2.021656036376953">
        <ele>1156.603271484375</ele>
        <time>2011-04-19T15:25:17Z</time>
      </trkpt>
      <trkpt lat="32.237999383360147" lon="-2.021983936429024">
        <ele>1155.64208984375</ele>
        <time>2011-04-19T15:25:21Z</time>
      </trkpt>
      <trkpt lat="32.238146318122745" lon="-2.022829754278064">
        <ele>1155.161376953125</ele>
        <time>2011-04-19T15:25:30Z</time>
      </trkpt>
      <trkpt lat="32.238449743017554" lon="-2.023572390899062">
        <ele>1153.719482421875</ele>
        <time>2011-04-19T15:25:39Z</time>
      </trkpt>
      <trkpt lat="32.238793484866619" lon="-2.024406641721726">
        <ele>1152.27734375</ele>
        <time>2011-04-19T15:25:49Z</time>
      </trkpt>
      <trkpt lat="32.238869005814195" lon="-2.024679640308023">
        <ele>1152.27734375</ele>
        <time>2011-04-19T15:25:53Z</time>
      </trkpt>
      <trkpt lat="32.238921895623207" lon="-2.025030925869942">
        <ele>1152.27734375</ele>
        <time>2011-04-19T15:25:58Z</time>
      </trkpt>
      <trkpt lat="32.238965397700667" lon="-2.025506012141705">
        <ele>1146.509521484375</ele>
        <time>2011-04-19T15:26:05Z</time>
      </trkpt>
      <trkpt lat="32.239124737679958" lon="-2.026026779785752">
        <ele>1145.548095703125</ele>
        <time>2011-04-19T15:26:11Z</time>
      </trkpt>
      <trkpt lat="32.239256165921688" lon="-2.026488706469536">
        <ele>1139.7802734375</ele>
        <time>2011-04-19T15:26:18Z</time>
      </trkpt>
      <trkpt lat="32.239291369915009" lon="-2.026746617630124">
        <ele>1140.260986328125</ele>
        <time>2011-04-19T15:26:23Z</time>
      </trkpt>
      <trkpt lat="32.239792859181762" lon="-2.026775535196066">
        <ele>1138.819091796875</ele>
        <time>2011-04-19T15:26:27Z</time>
      </trkpt>
      <trkpt lat="32.23997407592833" lon="-2.026769584044814">
        <ele>1125.841064453125</ele>
        <time>2011-04-19T15:26:50Z</time>
      </trkpt>
      <trkpt lat="32.24033416248858" lon="-2.026994470506907">
        <ele>1122.4765625</ele>
        <time>2011-04-19T15:26:57Z</time>
      </trkpt>
      <trkpt lat="32.240429548546672" lon="-2.027086336165667">
        <ele>1121.51513671875</ele>
        <time>2011-04-19T15:26:59Z</time>
      </trkpt>
      <trkpt lat="32.240901282057166" lon="-2.027683043852449">
        <ele>1118.63134765625</ele>
        <time>2011-04-19T15:27:11Z</time>
      </trkpt>
      <trkpt lat="32.241234127432108" lon="-2.028304729610682">
        <ele>1115.2666015625</ele>
        <time>2011-04-19T15:27:23Z</time>
      </trkpt>
      <trkpt lat="32.241320125758648" lon="-2.02851184643805">
        <ele>1115.2666015625</ele>
        <time>2011-04-19T15:27:27Z</time>
      </trkpt>
      <trkpt lat="32.241414925083518" lon="-2.028676299378276">
        <ele>1115.2666015625</ele>
        <time>2011-04-19T15:27:30Z</time>
      </trkpt>
      <trkpt lat="32.241633022204041" lon="-2.028865646570921">
        <ele>1115.2666015625</ele>
        <time>2011-04-19T15:27:34Z</time>
      </trkpt>
      <trkpt lat="32.241878528147936" lon="-2.029214082285762">
        <ele>1115.2666015625</ele>
        <time>2011-04-19T15:27:39Z</time>
      </trkpt>
      <trkpt lat="32.242120932787657" lon="-2.030170792713761">
        <ele>1114.785888671875</ele>
        <time>2011-04-19T15:27:49Z</time>
      </trkpt>
      <trkpt lat="32.242505745962262" lon="-2.031090455129743">
        <ele>1114.30517578125</ele>
        <time>2011-04-19T15:27:59Z</time>
      </trkpt>
      <trkpt lat="32.242938922718167" lon="-2.032007351517677">
        <ele>1122.4765625</ele>
        <time>2011-04-19T15:28:09Z</time>
      </trkpt>
      <trkpt lat="32.243396323174238" lon="-2.032997673377395">
        <ele>1123.91845703125</ele>
        <time>2011-04-19T15:28:20Z</time>
      </trkpt>
      <trkpt lat="32.243599081411958" lon="-2.033493798226118">
        <ele>1123.91845703125</ele>
        <time>2011-04-19T15:28:26Z</time>
      </trkpt>
      <trkpt lat="32.243941398337483" lon="-2.034127386286855">
        <ele>1125.3603515625</ele>
        <time>2011-04-19T15:28:35Z</time>
      </trkpt>
      <trkpt lat="32.24430282600224" lon="-2.034961385652423">
        <ele>1125.3603515625</ele>
        <time>2011-04-19T15:28:47Z</time>
      </trkpt>
      <trkpt lat="32.244579093530774" lon="-2.035515597090125">
        <ele>1125.841064453125</ele>
        <time>2011-04-19T15:28:57Z</time>
      </trkpt>
      <trkpt lat="32.244717562571168" lon="-2.035814747214317">
        <ele>1125.3603515625</ele>
        <time>2011-04-19T15:29:02Z</time>
      </trkpt>
      <trkpt lat="32.244702726602554" lon="-2.036105934530497">
        <ele>1125.841064453125</ele>
        <time>2011-04-19T15:29:08Z</time>
      </trkpt>
      <trkpt lat="32.244506254792213" lon="-2.036161338910461">
        <ele>1131.60888671875</ele>
        <time>2011-04-19T15:29:19Z</time>
      </trkpt>
      <trkpt lat="32.244239374995232" lon="-2.036277092993259">
        <ele>1139.299560546875</ele>
        <time>2011-04-19T15:29:31Z</time>
      </trkpt>
      <trkpt lat="32.243837881833315" lon="-2.036350267007947">
        <ele>1145.548095703125</ele>
        <time>2011-04-19T15:29:43Z</time>
      </trkpt>
      <trkpt lat="32.243556417524815" lon="-2.036281116306782">
        <ele>1146.509521484375</ele>
        <time>2011-04-19T15:29:56Z</time>
      </trkpt>
      <trkpt lat="32.243333123624325" lon="-2.036175336688757">
        <ele>1157.564697265625</ele>
        <time>2011-04-19T15:30:07Z</time>
      </trkpt>
      <trkpt lat="32.243175124749541" lon="-2.035972326993942">
        <ele>1167.177978515625</ele>
        <time>2011-04-19T15:30:15Z</time>
      </trkpt>
      <trkpt lat="32.242816798388958" lon="-2.035987246781588">
        <ele>1176.310302734375</ele>
        <time>2011-04-19T15:30:26Z</time>
      </trkpt>
      <trkpt lat="32.242498537525535" lon="-2.036335095763207">
        <ele>1176.791015625</ele>
        <time>2011-04-19T15:30:35Z</time>
      </trkpt>
      <trkpt lat="32.242274489253759" lon="-2.036507595330477">
        <ele>1176.310302734375</ele>
        <time>2011-04-19T15:30:41Z</time>
      </trkpt>
      <trkpt lat="32.242201566696167" lon="-2.03671052120626">
        <ele>1171.023193359375</ele>
        <time>2011-04-19T15:30:46Z</time>
      </trkpt>
      <trkpt lat="32.242282619699836" lon="-2.037493223324418">
        <ele>1158.52587890625</ele>
        <time>2011-04-19T15:30:58Z</time>
      </trkpt>
      <trkpt lat="32.242485964670777" lon="-2.038426799699664">
        <ele>1152.27734375</ele>
        <time>2011-04-19T15:31:08Z</time>
      </trkpt>
      <trkpt lat="32.242840183898807" lon="-2.039706381037831">
        <ele>1148.43212890625</ele>
        <time>2011-04-19T15:31:17Z</time>
      </trkpt>
      <trkpt lat="32.243058867752552" lon="-2.040569465607405">
        <ele>1146.02880859375</ele>
        <time>2011-04-19T15:31:24Z</time>
      </trkpt>
      <trkpt lat="32.24313254468143" lon="-2.041003396734595">
        <ele>1145.0673828125</ele>
        <time>2011-04-19T15:31:29Z</time>
      </trkpt>
      <trkpt lat="32.243131538853049" lon="-2.041965471580625">
        <ele>1138.33837890625</ele>
        <time>2011-04-19T15:31:39Z</time>
      </trkpt>
      <trkpt lat="32.243176382035017" lon="-2.042620098218322">
        <ele>1130.647705078125</ele>
        <time>2011-04-19T15:31:47Z</time>
      </trkpt>
      <trkpt lat="32.243178896605968" lon="-2.042808020487428">
        <ele>1125.3603515625</ele>
        <time>2011-04-19T15:31:53Z</time>
      </trkpt>
      <trkpt lat="32.24309197627008" lon="-2.042985046282411">
        <ele>1122.957275390625</ele>
        <time>2011-04-19T15:32:02Z</time>
      </trkpt>
      <trkpt lat="32.242910927161574" lon="-2.04291807487607">
        <ele>1120.553955078125</ele>
        <time>2011-04-19T15:32:09Z</time>
      </trkpt>
      <trkpt lat="32.242777571082115" lon="-2.043062578886747">
        <ele>1121.03466796875</ele>
        <time>2011-04-19T15:32:16Z</time>
      </trkpt>
      <trkpt lat="32.242322517558932" lon="-2.0435053948313">
        <ele>1121.03466796875</ele>
        <time>2011-04-19T15:32:23Z</time>
      </trkpt>
      <trkpt lat="32.242432655766606" lon="-2.04380881972611">
        <ele>1121.995849609375</ele>
        <time>2011-04-19T15:32:28Z</time>
      </trkpt>
      <trkpt lat="32.242581350728869" lon="-2.044240152463317">
        <ele>1122.4765625</ele>
        <time>2011-04-19T15:32:33Z</time>
      </trkpt>
      <trkpt lat="32.242822581902146" lon="-2.045099548995495">
        <ele>1122.957275390625</ele>
        <time>2011-04-19T15:32:41Z</time>
      </trkpt>
      <trkpt lat="32.243007905781269" lon="-2.045755768194795">
        <ele>1124.399169921875</ele>
        <time>2011-04-19T15:32:48Z</time>
      </trkpt>
      <trkpt lat="32.243223572149873" lon="-2.046356666833162">
        <ele>1126.32177734375</ele>
        <time>2011-04-19T15:32:54Z</time>
      </trkpt>
      <trkpt lat="32.243369081988931" lon="-2.047752756625414">
        <ele>1129.20556640625</ele>
        <time>2011-04-19T15:33:05Z</time>
      </trkpt>
      <trkpt lat="32.243413925170898" lon="-2.048366563394666">
        <ele>1130.647705078125</ele>
        <time>2011-04-19T15:33:11Z</time>
      </trkpt>
      <trkpt lat="32.243413925170898" lon="-2.049279101192951">
        <ele>1129.20556640625</ele>
        <time>2011-04-19T15:33:19Z</time>
      </trkpt>
      <trkpt lat="32.243499755859375" lon="-2.050244025886059">
        <ele>1131.12841796875</ele>
        <time>2011-04-19T15:33:28Z</time>
      </trkpt>
      <trkpt lat="32.243557758629322" lon="-2.05090619623661">
        <ele>1130.1669921875</ele>
        <time>2011-04-19T15:33:36Z</time>
      </trkpt>
      <trkpt lat="32.243607044219971" lon="-2.051622597500682">
        <ele>1129.686279296875</ele>
        <time>2011-04-19T15:33:45Z</time>
      </trkpt>
      <trkpt lat="32.243607044219971" lon="-2.052173875272274">
        <ele>1129.20556640625</ele>
        <time>2011-04-19T15:33:52Z</time>
      </trkpt>
      <trkpt lat="32.243610648438334" lon="-2.052880469709635">
        <ele>1130.647705078125</ele>
        <time>2011-04-19T15:34:03Z</time>
      </trkpt>
      <trkpt lat="32.243671417236328" lon="-2.053505508229137">
        <ele>1131.60888671875</ele>
        <time>2011-04-19T15:34:12Z</time>
      </trkpt>
      <trkpt lat="32.243671417236328" lon="-2.053929381072521">
        <ele>1133.051025390625</ele>
        <time>2011-04-19T15:34:20Z</time>
      </trkpt>
      <trkpt lat="32.243622215464711" lon="-2.054460793733597">
        <ele>1134.012451171875</ele>
        <time>2011-04-19T15:34:27Z</time>
      </trkpt>
      <trkpt lat="32.24348190240562" lon="-2.055228156968951">
        <ele>1135.454345703125</ele>
        <time>2011-04-19T15:34:34Z</time>
      </trkpt>
      <trkpt lat="32.243456840515137" lon="-2.055628476664424">
        <ele>1133.53173828125</ele>
        <time>2011-04-19T15:34:39Z</time>
      </trkpt>
      <trkpt lat="32.243456840515137" lon="-2.055973224341869">
        <ele>1130.647705078125</ele>
        <time>2011-04-19T15:34:46Z</time>
      </trkpt>
      <trkpt lat="32.243593549355865" lon="-2.056717202067375">
        <ele>1130.1669921875</ele>
        <time>2011-04-19T15:34:56Z</time>
      </trkpt>
      <trkpt lat="32.243842156603932" lon="-2.057745242491365">
        <ele>1130.647705078125</ele>
        <time>2011-04-19T15:35:06Z</time>
      </trkpt>
      <trkpt lat="32.244063774123788" lon="-2.058832962065935">
        <ele>1130.647705078125</ele>
        <time>2011-04-19T15:35:15Z</time>
      </trkpt>
      <trkpt lat="32.244235770776868" lon="-2.059919340535998">
        <ele>1128.244384765625</ele>
        <time>2011-04-19T15:35:23Z</time>
      </trkpt>
      <trkpt lat="32.244422435760498" lon="-2.06068754196167">
        <ele>1123.91845703125</ele>
        <time>2011-04-19T15:35:30Z</time>
      </trkpt>
      <trkpt lat="32.24455151706934" lon="-2.061204789206386">
        <ele>1119.112060546875</ele>
        <time>2011-04-19T15:35:36Z</time>
      </trkpt>
      <trkpt lat="32.244645645841956" lon="-2.061657663434744">
        <ele>1116.708740234375</ele>
        <time>2011-04-19T15:35:44Z</time>
      </trkpt>
      <trkpt lat="32.244699038565159" lon="-2.061898643150926">
        <ele>1115.747314453125</ele>
        <time>2011-04-19T15:35:51Z</time>
      </trkpt>
      <trkpt lat="32.244803728535771" lon="-2.062174743041396">
        <ele>1119.112060546875</ele>
        <time>2011-04-19T15:36:08Z</time>
      </trkpt>
      <trkpt lat="32.244870699942112" lon="-2.062578080222011">
        <ele>1120.0732421875</ele>
        <time>2011-04-19T15:36:17Z</time>
      </trkpt>
      <trkpt lat="32.244939683005214" lon="-2.062978902831674">
        <ele>1119.112060546875</ele>
        <time>2011-04-19T15:36:24Z</time>
      </trkpt>
      <trkpt lat="32.245238916948438" lon="-2.063656663522124">
        <ele>1118.63134765625</ele>
        <time>2011-04-19T15:36:33Z</time>
      </trkpt>
      <trkpt lat="32.245515855029225" lon="-2.065151827409864">
        <ele>1117.189453125</ele>
        <time>2011-04-19T15:36:43Z</time>
      </trkpt>
      <trkpt lat="32.245799330994487" lon="-2.066430738195777">
        <ele>1117.669921875</ele>
        <time>2011-04-19T15:36:53Z</time>
      </trkpt>
      <trkpt lat="32.245808634907007" lon="-2.066594017669559">
        <ele>1118.150634765625</ele>
        <time>2011-04-19T15:36:55Z</time>
      </trkpt>
      <trkpt lat="32.2457589302212" lon="-2.066840194165707">
        <ele>1119.112060546875</ele>
        <time>2011-04-19T15:36:59Z</time>
      </trkpt>
      <trkpt lat="32.245611995458603" lon="-2.06714672036469">
        <ele>1120.0732421875</ele>
        <time>2011-04-19T15:37:04Z</time>
      </trkpt>
      <trkpt lat="32.245575031265616" lon="-2.067380324006081">
        <ele>1118.150634765625</ele>
        <time>2011-04-19T15:37:08Z</time>
      </trkpt>
      <trkpt lat="32.24572422914207" lon="-2.068119440227747">
        <ele>1115.2666015625</ele>
        <time>2011-04-19T15:37:18Z</time>
      </trkpt>
      <trkpt lat="32.245846856385469" lon="-2.068768786266446">
        <ele>1117.669921875</ele>
        <time>2011-04-19T15:37:25Z</time>
      </trkpt>
      <trkpt lat="32.24608046002686" lon="-2.069937223568559">
        <ele>1118.63134765625</ele>
        <time>2011-04-19T15:37:36Z</time>
      </trkpt>
      <trkpt lat="32.246486898511648" lon="-2.070821765810251">
        <ele>1119.112060546875</ele>
        <time>2011-04-19T15:37:44Z</time>
      </trkpt>
      <trkpt lat="32.246482372283936" lon="-2.071203645318747">
        <ele>1119.112060546875</ele>
        <time>2011-04-19T15:37:48Z</time>
      </trkpt>
      <trkpt lat="32.246509194374084" lon="-2.071770345792174">
        <ele>1119.5927734375</ele>
        <time>2011-04-19T15:37:53Z</time>
      </trkpt>
      <trkpt lat="32.246525287628174" lon="-2.072318103164434">
        <ele>1120.0732421875</ele>
        <time>2011-04-19T15:37:59Z</time>
      </trkpt>
      <trkpt lat="32.246525287628174" lon="-2.072489680722356">
        <ele>1120.0732421875</ele>
        <time>2011-04-19T15:38:01Z</time>
      </trkpt>
      <trkpt lat="32.246525287628174" lon="-2.072785561904311">
        <ele>1131.12841796875</ele>
        <time>2011-04-19T15:38:07Z</time>
      </trkpt>
      <trkpt lat="32.246529143303633" lon="-2.073200717568398">
        <ele>1163.33251953125</ele>
        <time>2011-04-19T15:38:44Z</time>
      </trkpt>
      <trkpt lat="32.246640622615814" lon="-2.074015522375703">
        <ele>1166.216552734375</ele>
        <time>2011-04-19T15:38:52Z</time>
      </trkpt>
      <trkpt lat="32.246687561273575" lon="-2.074330346658826">
        <ele>1167.177978515625</ele>
        <time>2011-04-19T15:38:55Z</time>
      </trkpt>
      <trkpt lat="32.247038930654526" lon="-2.075154036283493">
        <ele>1169.1005859375</ele>
        <time>2011-04-19T15:39:03Z</time>
      </trkpt>
      <trkpt lat="32.247345959767699" lon="-2.076301267370582">
        <ele>1164.774658203125</ele>
        <time>2011-04-19T15:39:12Z</time>
      </trkpt>
      <trkpt lat="32.247425252571702" lon="-2.076549706980586">
        <ele>1163.81298828125</ele>
        <time>2011-04-19T15:39:14Z</time>
      </trkpt>
      <trkpt lat="32.247591549530625" lon="-2.077570455148816">
        <ele>1159.006591796875</ele>
        <time>2011-04-19T15:39:22Z</time>
      </trkpt>
      <trkpt lat="32.247616024687886" lon="-2.078310577198863">
        <ele>1155.64208984375</ele>
        <time>2011-04-19T15:39:28Z</time>
      </trkpt>
      <trkpt lat="32.247641086578369" lon="-2.078758254647255">
        <ele>1153.719482421875</ele>
        <time>2011-04-19T15:39:32Z</time>
      </trkpt>
      <trkpt lat="32.247863207012415" lon="-2.079258570447564">
        <ele>1149.874267578125</ele>
        <time>2011-04-19T15:39:39Z</time>
      </trkpt>
      <trkpt lat="32.248015003278852" lon="-2.079803477972746">
        <ele>1147.470703125</ele>
        <time>2011-04-19T15:39:44Z</time>
      </trkpt>
      <trkpt lat="32.247877959161997" lon="-2.080133389681578">
        <ele>1145.548095703125</ele>
        <time>2011-04-19T15:39:48Z</time>
      </trkpt>
      <trkpt lat="32.247822135686874" lon="-2.080335980281234">
        <ele>1142.664306640625</ele>
        <time>2011-04-19T15:39:54Z</time>
      </trkpt>
      <trkpt lat="32.247791290283203" lon="-2.080520298331976">
        <ele>1139.7802734375</ele>
        <time>2011-04-19T15:39:58Z</time>
      </trkpt>
      <trkpt lat="32.247813418507576" lon="-2.080678381025791">
        <ele>1136.415771484375</ele>
        <time>2011-04-19T15:40:03Z</time>
      </trkpt>
      <trkpt lat="32.247850969433784" lon="-2.080939561128616">
        <ele>1135.454345703125</ele>
        <time>2011-04-19T15:40:07Z</time>
      </trkpt>
      <trkpt lat="32.248050794005394" lon="-2.08179434761405">
        <ele>1137.376953125</ele>
        <time>2011-04-19T15:40:14Z</time>
      </trkpt>
      <trkpt lat="32.24833108484745" lon="-2.083214409649372">
        <ele>1142.18359375</ele>
        <time>2011-04-19T15:40:24Z</time>
      </trkpt>
      <trkpt lat="32.248576087877154" lon="-2.084372872486711">
        <ele>1147.470703125</ele>
        <time>2011-04-19T15:40:33Z</time>
      </trkpt>
      <trkpt lat="32.248862078413367" lon="-2.08583140745759">
        <ele>1153.719482421875</ele>
        <time>2011-04-19T15:40:45Z</time>
      </trkpt>
      <trkpt lat="32.249017814174294" lon="-2.087229425087571">
        <ele>1157.564697265625</ele>
        <time>2011-04-19T15:40:56Z</time>
      </trkpt>
      <trkpt lat="32.248950004577637" lon="-2.087689843028784">
        <ele>1160.448486328125</ele>
        <time>2011-04-19T15:41:02Z</time>
      </trkpt>
      <trkpt lat="32.248930726200342" lon="-2.08793350495398">
        <ele>1161.890625</ele>
        <time>2011-04-19T15:41:09Z</time>
      </trkpt>
      <trkpt lat="32.248868867754936" lon="-2.088363580405712">
        <ele>1161.409912109375</ele>
        <time>2011-04-19T15:41:17Z</time>
      </trkpt>
      <trkpt lat="32.248778762295842" lon="-2.088965903967619">
        <ele>1159.006591796875</ele>
        <time>2011-04-19T15:41:27Z</time>
      </trkpt>
      <trkpt lat="32.248732661828399" lon="-2.089128261432052">
        <ele>1158.04541015625</ele>
        <time>2011-04-19T15:41:30Z</time>
      </trkpt>
      <trkpt lat="32.248588912189007" lon="-2.089814655482769">
        <ele>1155.161376953125</ele>
        <time>2011-04-19T15:41:41Z</time>
      </trkpt>
      <trkpt lat="32.248585224151611" lon="-2.090013055130839">
        <ele>1153.23876953125</ele>
        <time>2011-04-19T15:41:46Z</time>
      </trkpt>
      <trkpt lat="32.248620679602027" lon="-2.090413374826312">
        <ele>1154.6806640625</ele>
        <time>2011-04-19T15:41:55Z</time>
      </trkpt>
      <trkpt lat="32.24871464073658" lon="-2.091289954259992">
        <ele>1156.603271484375</ele>
        <time>2011-04-19T15:42:03Z</time>
      </trkpt>
      <trkpt lat="32.248884122818708" lon="-2.092564506456256">
        <ele>1157.083984375</ele>
        <time>2011-04-19T15:42:13Z</time>
      </trkpt>
      <trkpt lat="32.248992919921875" lon="-2.09347696043551">
        <ele>1158.52587890625</ele>
        <time>2011-04-19T15:42:22Z</time>
      </trkpt>
      <trkpt lat="32.249057292938232" lon="-2.093917848542333">
        <ele>1159.4873046875</ele>
        <time>2011-04-19T15:42:29Z</time>
      </trkpt>
      <trkpt lat="32.249078750610352" lon="-2.094381367787719">
        <ele>1159.4873046875</ele>
        <time>2011-04-19T15:42:35Z</time>
      </trkpt>
      <trkpt lat="32.249174974858761" lon="-2.095166835933924">
        <ele>1159.4873046875</ele>
        <time>2011-04-19T15:42:42Z</time>
      </trkpt>
      <trkpt lat="32.249288717284799" lon="-2.096650432795286">
        <ele>1159.006591796875</ele>
        <time>2011-04-19T15:42:52Z</time>
      </trkpt>
      <trkpt lat="32.249443531036377" lon="-2.098180381581187">
        <ele>1157.564697265625</ele>
        <time>2011-04-19T15:43:02Z</time>
      </trkpt>
      <trkpt lat="32.24961519241333" lon="-2.099737655371428">
        <ele>1155.64208984375</ele>
        <time>2011-04-19T15:43:12Z</time>
      </trkpt>
      <trkpt lat="32.249701023101807" lon="-2.101091332733631">
        <ele>1154.6806640625</ele>
        <time>2011-04-19T15:43:20Z</time>
      </trkpt>
      <trkpt lat="32.249776544049382" lon="-2.102570319548249">
        <ele>1153.719482421875</ele>
        <time>2011-04-19T15:43:29Z</time>
      </trkpt>
      <trkpt lat="32.249851226806641" lon="-2.103956015780568">
        <ele>1152.27734375</ele>
        <time>2011-04-19T15:43:38Z</time>
      </trkpt>
      <trkpt lat="32.24987268447876" lon="-2.104901410639286">
        <ele>1150.35498046875</ele>
        <time>2011-04-19T15:43:45Z</time>
      </trkpt>
      <trkpt lat="32.249922137707472" lon="-2.105135684832931">
        <ele>1150.35498046875</ele>
        <time>2011-04-19T15:43:47Z</time>
      </trkpt>
      <trkpt lat="32.249913336709142" lon="-2.106163976714015">
        <ele>1148.912841796875</ele>
        <time>2011-04-19T15:43:54Z</time>
      </trkpt>
      <trkpt lat="32.250022888183594" lon="-2.108074380084872">
        <ele>1146.989990234375</ele>
        <time>2011-04-19T15:44:05Z</time>
      </trkpt>
      <trkpt lat="32.250065803527832" lon="-2.10970533080399">
        <ele>1145.548095703125</ele>
        <time>2011-04-19T15:44:15Z</time>
      </trkpt>
      <trkpt lat="32.250117100775242" lon="-2.110562464222312">
        <ele>1144.586669921875</ele>
        <time>2011-04-19T15:44:22Z</time>
      </trkpt>
      <trkpt lat="32.250045603141189" lon="-2.111023552715778">
        <ele>1143.62548828125</ele>
        <time>2011-04-19T15:44:26Z</time>
      </trkpt>
      <trkpt lat="32.249915599822998" lon="-2.111477851867676">
        <ele>1142.664306640625</ele>
        <time>2011-04-19T15:44:30Z</time>
      </trkpt>
      <trkpt lat="32.249648552387953" lon="-2.111830059438944">
        <ele>1142.18359375</ele>
        <time>2011-04-19T15:44:34Z</time>
      </trkpt>
      <trkpt lat="32.249525925144553" lon="-2.112244796007872">
        <ele>1141.702880859375</ele>
        <time>2011-04-19T15:44:39Z</time>
      </trkpt>
      <trkpt lat="32.249367171898484" lon="-2.112476890906692">
        <ele>1141.702880859375</ele>
        <time>2011-04-19T15:44:44Z</time>
      </trkpt>
      <trkpt lat="32.249181345105171" lon="-2.113081812858582">
        <ele>1140.260986328125</ele>
        <time>2011-04-19T15:44:56Z</time>
      </trkpt>
      <trkpt lat="32.249196683987975" lon="-2.113623451441526">
        <ele>1135.93505859375</ele>
        <time>2011-04-19T15:45:04Z</time>
      </trkpt>
      <trkpt lat="32.249390222132206" lon="-2.114038020372391">
        <ele>1132.08984375</ele>
        <time>2011-04-19T15:45:09Z</time>
      </trkpt>
      <trkpt lat="32.249456942081451" lon="-2.114589214324951">
        <ele>1131.12841796875</ele>
        <time>2011-04-19T15:45:15Z</time>
      </trkpt>
      <trkpt lat="32.249495415017009" lon="-2.114891465753317">
        <ele>1131.60888671875</ele>
        <time>2011-04-19T15:45:19Z</time>
      </trkpt>
      <trkpt lat="32.249486446380615" lon="-2.115609040483832">
        <ele>1131.12841796875</ele>
        <time>2011-04-19T15:45:27Z</time>
      </trkpt>
      <trkpt lat="32.249648217111826" lon="-2.11605747230351">
        <ele>1132.08984375</ele>
        <time>2011-04-19T15:45:34Z</time>
      </trkpt>
      <trkpt lat="32.249256111681461" lon="-2.116281017661095">
        <ele>1132.08984375</ele>
        <time>2011-04-19T15:45:40Z</time>
      </trkpt>
      <trkpt lat="32.249085539951921" lon="-2.116305828094482">
        <ele>1126.32177734375</ele>
        <time>2011-04-19T15:45:46Z</time>
      </trkpt>
      <trkpt lat="32.248930474743247" lon="-2.116305828094482">
        <ele>1125.3603515625</ele>
        <time>2011-04-19T15:45:50Z</time>
      </trkpt>
      <trkpt lat="32.248551612719893" lon="-2.116348408162594">
        <ele>1117.669921875</ele>
        <time>2011-04-19T15:45:56Z</time>
      </trkpt>
      <trkpt lat="32.24834131076932" lon="-2.116458714008331">
        <ele>1113.343994140625</ele>
        <time>2011-04-19T15:46:00Z</time>
      </trkpt>
      <trkpt lat="32.247908134013414" lon="-2.116762138903141">
        <ele>1104.692138671875</ele>
        <time>2011-04-19T15:46:08Z</time>
      </trkpt>
      <trkpt lat="32.247788356617093" lon="-2.117013093084097">
        <ele>1097.482177734375</ele>
        <time>2011-04-19T15:46:17Z</time>
      </trkpt>
      <trkpt lat="32.247753404080868" lon="-2.117241248488426">
        <ele>1095.5595703125</ele>
        <time>2011-04-19T15:46:23Z</time>
      </trkpt>
      <trkpt lat="32.247709147632122" lon="-2.117478623986244">
        <ele>1092.195068359375</ele>
        <time>2011-04-19T15:46:26Z</time>
      </trkpt>
      <trkpt lat="32.247684001922607" lon="-2.117698816582561">
        <ele>1087.869140625</ele>
        <time>2011-04-19T15:46:30Z</time>
      </trkpt>
      <trkpt lat="32.247717697173357" lon="-2.118184296414256">
        <ele>1081.620361328125</ele>
        <time>2011-04-19T15:46:37Z</time>
      </trkpt>
      <trkpt lat="32.247736472636461" lon="-2.118296613916755">
        <ele>1080.178466796875</ele>
        <time>2011-04-19T15:46:39Z</time>
      </trkpt>
      <trkpt lat="32.247761785984039" lon="-2.118411362171173">
        <ele>1079.217041015625</ele>
        <time>2011-04-19T15:46:41Z</time>
      </trkpt>
      <trkpt lat="32.24781752564013" lon="-2.118780501186848">
        <ele>1074.891357421875</ele>
        <time>2011-04-19T15:46:47Z</time>
      </trkpt>
      <trkpt lat="32.247949708253145" lon="-2.119355918839574">
        <ele>1070.5654296875</ele>
        <time>2011-04-19T15:46:54Z</time>
      </trkpt>
      <trkpt lat="32.247984409332275" lon="-2.119694631546736">
        <ele>1069.12353515625</ele>
        <time>2011-04-19T15:46:57Z</time>
      </trkpt>
      <trkpt lat="32.247996060177684" lon="-2.119886325672269">
        <ele>1068.162109375</ele>
        <time>2011-04-19T15:46:59Z</time>
      </trkpt>
      <trkpt lat="32.248005867004395" lon="-2.120152115821838">
        <ele>1066.2392578125</ele>
        <time>2011-04-19T15:47:03Z</time>
      </trkpt>
      <trkpt lat="32.248091697692871" lon="-2.120318412780762">
        <ele>1062.39404296875</ele>
        <time>2011-04-19T15:47:07Z</time>
      </trkpt>
      <trkpt lat="32.24820694886148" lon="-2.120412290096283">
        <ele>1058.548828125</ele>
        <time>2011-04-19T15:47:09Z</time>
      </trkpt>
      <trkpt lat="32.248372491449118" lon="-2.120743375271559">
        <ele>1055.184326171875</ele>
        <time>2011-04-19T15:47:13Z</time>
      </trkpt>
      <trkpt lat="32.24855630658567" lon="-2.121495567262173">
        <ele>1053.26171875</ele>
        <time>2011-04-19T15:47:19Z</time>
      </trkpt>
      <trkpt lat="32.248625792562962" lon="-2.122352616861463">
        <ele>1050.858154296875</ele>
        <time>2011-04-19T15:47:26Z</time>
      </trkpt>
      <trkpt lat="32.248713970184326" lon="-2.122793504968286">
        <ele>1051.3388671875</ele>
        <time>2011-04-19T15:47:31Z</time>
      </trkpt>
      <trkpt lat="32.248713970184326" lon="-2.123138587921858">
        <ele>1051.3388671875</ele>
        <time>2011-04-19T15:47:37Z</time>
      </trkpt>
      <trkpt lat="32.248721094802022" lon="-2.123336317017674">
        <ele>1050.858154296875</ele>
        <time>2011-04-19T15:47:40Z</time>
      </trkpt>
      <trkpt lat="32.248821258544922" lon="-2.124081132933497">
        <ele>1049.89697265625</ele>
        <time>2011-04-19T15:47:48Z</time>
      </trkpt>
      <trkpt lat="32.248821258544922" lon="-2.124393191188574">
        <ele>1048.935546875</ele>
        <time>2011-04-19T15:47:51Z</time>
      </trkpt>
      <trkpt lat="32.248799800872803" lon="-2.124881939962506">
        <ele>1046.532470703125</ele>
        <time>2011-04-19T15:47:57Z</time>
      </trkpt>
      <trkpt lat="32.248656386509538" lon="-2.125571016222239">
        <ele>1044.609619140625</ele>
        <time>2011-04-19T15:48:04Z</time>
      </trkpt>
      <trkpt lat="32.248398391529918" lon="-2.126395711675286">
        <ele>1043.167724609375</ele>
        <time>2011-04-19T15:48:12Z</time>
      </trkpt>
      <trkpt lat="32.248314740136266" lon="-2.127235494554043">
        <ele>1041.725830078125</ele>
        <time>2011-04-19T15:48:21Z</time>
      </trkpt>
      <trkpt lat="32.248412137851119" lon="-2.127691637724638">
        <ele>1041.725830078125</ele>
        <time>2011-04-19T15:48:29Z</time>
      </trkpt>
      <trkpt lat="32.248693769797683" lon="-2.12845841422677">
        <ele>1041.725830078125</ele>
        <time>2011-04-19T15:48:38Z</time>
      </trkpt>
      <trkpt lat="32.248892839998007" lon="-2.129008937627077">
        <ele>1042.20654296875</ele>
        <time>2011-04-19T15:48:43Z</time>
      </trkpt>
      <trkpt lat="32.249260218814015" lon="-2.12950699031353">
        <ele>1039.80322265625</ele>
        <time>2011-04-19T15:48:50Z</time>
      </trkpt>
      <trkpt lat="32.249558614566922" lon="-2.129710167646408">
        <ele>1039.322509765625</ele>
        <time>2011-04-19T15:48:55Z</time>
      </trkpt>
      <trkpt lat="32.249718038365245" lon="-2.129804883152247">
        <ele>1040.283935546875</ele>
        <time>2011-04-19T15:49:00Z</time>
      </trkpt>
      <trkpt lat="32.249823734164238" lon="-2.129969922825694">
        <ele>1040.283935546875</ele>
        <time>2011-04-19T15:49:03Z</time>
      </trkpt>
      <trkpt lat="32.250133445486426" lon="-2.13048717007041">
        <ele>1040.764404296875</ele>
        <time>2011-04-19T15:49:10Z</time>
      </trkpt>
      <trkpt lat="32.250324720516801" lon="-2.130702501162887">
        <ele>1041.2451171875</ele>
        <time>2011-04-19T15:49:14Z</time>
      </trkpt>
      <trkpt lat="32.250440893694758" lon="-2.13098119944334">
        <ele>1043.167724609375</ele>
        <time>2011-04-19T15:51:23Z</time>
      </trkpt>
      <trkpt lat="32.250473499298096" lon="-2.131548570469022">
        <ele>1038.842041015625</ele>
        <time>2011-04-19T15:51:29Z</time>
      </trkpt>
      <trkpt lat="32.250521779060364" lon="-2.1318519115448">
        <ele>1037.39990234375</ele>
        <time>2011-04-19T15:51:33Z</time>
      </trkpt>
      <trkpt lat="32.251037852838635" lon="-2.132576946169138">
        <ele>1034.99658203125</ele>
        <time>2011-04-19T15:51:42Z</time>
      </trkpt>
      <trkpt lat="32.251563649624586" lon="-2.133315559476614">
        <ele>1033.07373046875</ele>
        <time>2011-04-19T15:51:49Z</time>
      </trkpt>
      <trkpt lat="32.251858273521066" lon="-2.134184595197439">
        <ele>1031.6318359375</ele>
        <time>2011-04-19T15:51:55Z</time>
      </trkpt>
      <trkpt lat="32.252018451690674" lon="-2.135925348848105">
        <ele>1030.18994140625</ele>
        <time>2011-04-19T15:52:05Z</time>
      </trkpt>
      <trkpt lat="32.252061367034912" lon="-2.137016085907817">
        <ele>1030.18994140625</ele>
        <time>2011-04-19T15:52:12Z</time>
      </trkpt>
      <trkpt lat="32.252141749486327" lon="-2.137794848531485">
        <ele>1029.228515625</ele>
        <time>2011-04-19T15:52:19Z</time>
      </trkpt>
      <trkpt lat="32.252254486083984" lon="-2.138981809839606">
        <ele>1030.18994140625</ele>
        <time>2011-04-19T15:52:26Z</time>
      </trkpt>
      <trkpt lat="32.252318859100342" lon="-2.140498515218496">
        <ele>1032.112548828125</ele>
        <time>2011-04-19T15:52:36Z</time>
      </trkpt>
      <trkpt lat="32.252318859100342" lon="-2.141026575118303">
        <ele>1029.709228515625</ele>
        <time>2011-04-19T15:52:42Z</time>
      </trkpt>
      <trkpt lat="32.252327241003513" lon="-2.141242073848844">
        <ele>1028.267333984375</ele>
        <time>2011-04-19T15:52:48Z</time>
      </trkpt>
      <trkpt lat="32.252280553802848" lon="-2.141732331365347">
        <ele>1027.78662109375</ele>
        <time>2011-04-19T15:52:53Z</time>
      </trkpt>
      <trkpt lat="32.252257922664285" lon="-2.142204400151968">
        <ele>1027.30615234375</ele>
        <time>2011-04-19T15:52:58Z</time>
      </trkpt>
      <trkpt lat="32.252275943756104" lon="-2.142393747344613">
        <ele>1027.30615234375</ele>
        <time>2011-04-19T15:53:03Z</time>
      </trkpt>
      <trkpt lat="32.252309890463948" lon="-2.14278157800436">
        <ele>1027.78662109375</ele>
        <time>2011-04-19T15:53:08Z</time>
      </trkpt>
      <trkpt lat="32.252283319830894" lon="-2.143062204122543">
        <ele>1028.267333984375</ele>
        <time>2011-04-19T15:53:12Z</time>
      </trkpt>
      <trkpt lat="32.252192879095674" lon="-2.143325647339225">
        <ele>1028.748046875</ele>
        <time>2011-04-19T15:53:17Z</time>
      </trkpt>
      <trkpt lat="32.252383232116699" lon="-2.143983375281096">
        <ele>1030.670654296875</ele>
        <time>2011-04-19T15:53:24Z</time>
      </trkpt>
      <trkpt lat="32.252340316772461" lon="-2.144581759348512">
        <ele>1031.6318359375</ele>
        <time>2011-04-19T15:53:29Z</time>
      </trkpt>
      <trkpt lat="32.252419274300337" lon="-2.145090792328119">
        <ele>1032.59326171875</ele>
        <time>2011-04-19T15:53:33Z</time>
      </trkpt>
      <trkpt lat="32.252504266798496" lon="-2.145449370145798">
        <ele>1033.07373046875</ele>
        <time>2011-04-19T15:53:36Z</time>
      </trkpt>
      <trkpt lat="32.252558078616858" lon="-2.145654307678342">
        <ele>1033.07373046875</ele>
        <time>2011-04-19T15:53:38Z</time>
      </trkpt>
      <trkpt lat="32.252594456076622" lon="-2.146050604060292">
        <ele>1033.07373046875</ele>
        <time>2011-04-19T15:53:42Z</time>
      </trkpt>
      <trkpt lat="32.252644076943398" lon="-2.146348664537072">
        <ele>1033.554443359375</ele>
        <time>2011-04-19T15:53:46Z</time>
      </trkpt>
      <trkpt lat="32.252644244581461" lon="-2.146671283990145">
        <ele>1034.03515625</ele>
        <time>2011-04-19T15:53:50Z</time>
      </trkpt>
      <trkpt lat="32.252621278166771" lon="-2.147216275334358">
        <ele>1034.03515625</ele>
        <time>2011-04-19T15:53:57Z</time>
      </trkpt>
      <trkpt lat="32.252662181854248" lon="-2.148178769275546">
        <ele>1034.515869140625</ele>
        <time>2011-04-19T15:54:05Z</time>
      </trkpt>
      <trkpt lat="32.252662181854248" lon="-2.148602390661836">
        <ele>1028.748046875</ele>
        <time>2011-04-19T15:54:10Z</time>
      </trkpt>
      <trkpt lat="32.252662181854248" lon="-2.149207396432757">
        <ele>1025.864013671875</ele>
        <time>2011-04-19T15:54:16Z</time>
      </trkpt>
      <trkpt lat="32.252662181854248" lon="-2.150283884257078">
        <ele>1023.94140625</ele>
        <time>2011-04-19T15:54:25Z</time>
      </trkpt>
      <trkpt lat="32.252640724182129" lon="-2.150583872571588">
        <ele>1022.980224609375</ele>
        <time>2011-04-19T15:54:30Z</time>
      </trkpt>
      <trkpt lat="32.252640724182129" lon="-2.151171695441008">
        <ele>1022.49951171875</ele>
        <time>2011-04-19T15:54:36Z</time>
      </trkpt>
      <trkpt lat="32.252675006166101" lon="-2.151882313191891">
        <ele>1021.5380859375</ele>
        <time>2011-04-19T15:54:43Z</time>
      </trkpt>
      <trkpt lat="32.252683639526367" lon="-2.152202166616917">
        <ele>1021.5380859375</ele>
        <time>2011-04-19T15:54:47Z</time>
      </trkpt>
      <trkpt lat="32.252683639526367" lon="-2.152566947042942">
        <ele>1021.5380859375</ele>
        <time>2011-04-19T15:54:52Z</time>
      </trkpt>
      <trkpt lat="32.252748012542725" lon="-2.153115626424551">
        <ele>1021.0576171875</ele>
        <time>2011-04-19T15:54:59Z</time>
      </trkpt>
      <trkpt lat="32.252775924280286" lon="-2.154175518080592">
        <ele>1020.576904296875</ele>
        <time>2011-04-19T15:55:08Z</time>
      </trkpt>
      <trkpt lat="32.252833843231201" lon="-2.155163828283548">
        <ele>1021.5380859375</ele>
        <time>2011-04-19T15:55:16Z</time>
      </trkpt>
      <trkpt lat="32.252844404429197" lon="-2.1553994435817">
        <ele>1022.49951171875</ele>
        <time>2011-04-19T15:55:21Z</time>
      </trkpt>
      <trkpt lat="32.252810457721353" lon="-2.155754752457142">
        <ele>1023.94140625</ele>
        <time>2011-04-19T15:55:27Z</time>
      </trkpt>
      <trkpt lat="32.252797298133373" lon="-2.155991205945611">
        <ele>1023.94140625</ele>
        <time>2011-04-19T15:55:31Z</time>
      </trkpt>
      <trkpt lat="32.252934006974101" lon="-2.156796539202333">
        <ele>1022.49951171875</ele>
        <time>2011-04-19T15:55:40Z</time>
      </trkpt>
      <trkpt lat="32.252941131591797" lon="-2.157438341528177">
        <ele>1022.980224609375</ele>
        <time>2011-04-19T15:55:45Z</time>
      </trkpt>
      <trkpt lat="32.252941131591797" lon="-2.157985176891089">
        <ele>1023.4609375</ele>
        <time>2011-04-19T15:55:51Z</time>
      </trkpt>
      <trkpt lat="32.253005504608154" lon="-2.158892434090376">
        <ele>1025.38330078125</ele>
        <time>2011-04-19T15:56:01Z</time>
      </trkpt>
      <trkpt lat="32.253005504608154" lon="-2.159751411527395">
        <ele>1025.38330078125</ele>
        <time>2011-04-19T15:56:08Z</time>
      </trkpt>
      <trkpt lat="32.253101728856564" lon="-2.160924291238189">
        <ele>1026.825439453125</ele>
        <time>2011-04-19T15:56:16Z</time>
      </trkpt>
      <trkpt lat="32.253157384693623" lon="-2.162215020507574">
        <ele>1027.78662109375</ele>
        <time>2011-04-19T15:56:24Z</time>
      </trkpt>
      <trkpt lat="32.253155708312988" lon="-2.16391671448946">
        <ele>1022.018798828125</ele>
        <time>2011-04-19T15:56:34Z</time>
      </trkpt>
      <trkpt lat="32.253198623657227" lon="-2.165391594171524">
        <ele>1018.17333984375</ele>
        <time>2011-04-19T15:56:43Z</time>
      </trkpt>
      <trkpt lat="32.253163671121001" lon="-2.165893921628594">
        <ele>1017.212158203125</ele>
        <time>2011-04-19T15:56:48Z</time>
      </trkpt>
      <trkpt lat="32.253113966435194" lon="-2.166549973189831">
        <ele>1015.770263671875</ele>
        <time>2011-04-19T15:56:54Z</time>
      </trkpt>
      <trkpt lat="32.253132993355393" lon="-2.166763711720705">
        <ele>1015.770263671875</ele>
        <time>2011-04-19T15:56:56Z</time>
      </trkpt>
      <trkpt lat="32.25309032946825" lon="-2.167337033897638">
        <ele>1014.808837890625</ele>
        <time>2011-04-19T15:57:01Z</time>
      </trkpt>
      <trkpt lat="32.252997793257236" lon="-2.167872050777078">
        <ele>1013.847412109375</ele>
        <time>2011-04-19T15:57:07Z</time>
      </trkpt>
      <trkpt lat="32.253026962280273" lon="-2.168555511161685">
        <ele>1013.847412109375</ele>
        <time>2011-04-19T15:57:13Z</time>
      </trkpt>
      <trkpt lat="32.252861587330699" lon="-2.169661084190011">
        <ele>1012.88623046875</ele>
        <time>2011-04-19T15:57:22Z</time>
      </trkpt>
      <trkpt lat="32.252684896811843" lon="-2.17026743106544">
        <ele>1013.847412109375</ele>
        <time>2011-04-19T15:57:28Z</time>
      </trkpt>
      <trkpt lat="32.252535112202168" lon="-2.170889116823673">
        <ele>1014.328125</ele>
        <time>2011-04-19T15:57:33Z</time>
      </trkpt>
      <trkpt lat="32.252404019236565" lon="-2.171204276382923">
        <ele>1014.328125</ele>
        <time>2011-04-19T15:57:36Z</time>
      </trkpt>
      <trkpt lat="32.252340316772461" lon="-2.171614319086075">
        <ele>1015.28955078125</ele>
        <time>2011-04-19T15:57:40Z</time>
      </trkpt>
      <trkpt lat="32.252318859100342" lon="-2.172191916033626">
        <ele>1016.7314453125</ele>
        <time>2011-04-19T15:57:46Z</time>
      </trkpt>
      <trkpt lat="32.252294970676303" lon="-2.172525012865663">
        <ele>1017.212158203125</ele>
        <time>2011-04-19T15:57:49Z</time>
      </trkpt>
      <trkpt lat="32.252147197723389" lon="-2.173679787665606">
        <ele>1012.88623046875</ele>
        <time>2011-04-19T15:57:58Z</time>
      </trkpt>
      <trkpt lat="32.252076286822557" lon="-2.174530634656549">
        <ele>1011.4443359375</ele>
        <time>2011-04-19T15:58:06Z</time>
      </trkpt>
      <trkpt lat="32.252153567969799" lon="-2.175577031448484">
        <ele>1011.925048828125</ele>
        <time>2011-04-19T15:58:15Z</time>
      </trkpt>
      <trkpt lat="32.252336880192161" lon="-2.17622671276331">
        <ele>1010.002197265625</ele>
        <time>2011-04-19T15:58:22Z</time>
      </trkpt>
      <trkpt lat="32.252426147460938" lon="-2.176935402676463">
        <ele>1008.079833984375</ele>
        <time>2011-04-19T15:58:29Z</time>
      </trkpt>
      <trkpt lat="32.252608453854918" lon="-2.1772650629282">
        <ele>1008.560302734375</ele>
        <time>2011-04-19T15:58:36Z</time>
      </trkpt>
      <trkpt lat="32.252812050282955" lon="-2.178230406716466">
        <ele>1007.59912109375</ele>
        <time>2011-04-19T15:58:44Z</time>
      </trkpt>
      <trkpt lat="32.252878518775105" lon="-2.178528551012278">
        <ele>1007.118408203125</ele>
        <time>2011-04-19T15:58:48Z</time>
      </trkpt>
      <trkpt lat="32.2532500885427" lon="-2.179394736886025">
        <ele>1005.676513671875</ele>
        <time>2011-04-19T15:58:57Z</time>
      </trkpt>
      <trkpt lat="32.253315635025501" lon="-2.179500516504049">
        <ele>1005.676513671875</ele>
        <time>2011-04-19T15:58:58Z</time>
      </trkpt>
      <trkpt lat="32.253477573394775" lon="-2.180044837296009">
        <ele>1005.19580078125</ele>
        <time>2011-04-19T15:59:02Z</time>
      </trkpt>
      <trkpt lat="32.253698268905282" lon="-2.180991321802139">
        <ele>1006.156982421875</ele>
        <time>2011-04-19T15:59:10Z</time>
      </trkpt>
      <trkpt lat="32.253752499818802" lon="-2.181203216314316">
        <ele>1006.6376953125</ele>
        <time>2011-04-19T15:59:12Z</time>
      </trkpt>
      <trkpt lat="32.253891387954354" lon="-2.18170864507556">
        <ele>1007.118408203125</ele>
        <time>2011-04-19T15:59:17Z</time>
      </trkpt>
      <trkpt lat="32.253928184509277" lon="-2.181987762451172">
        <ele>1007.118408203125</ele>
        <time>2011-04-19T15:59:19Z</time>
      </trkpt>
      <trkpt lat="32.254030862823129" lon="-2.182830730453134">
        <ele>1007.59912109375</ele>
        <time>2011-04-19T15:59:26Z</time>
      </trkpt>
      <trkpt lat="32.253395933657885" lon="-2.184308124706149">
        <ele>1007.118408203125</ele>
        <time>2011-04-19T15:59:35Z</time>
      </trkpt>
      <trkpt lat="32.25347438827157" lon="-2.185515034943819">
        <ele>1007.59912109375</ele>
        <time>2011-04-19T15:59:44Z</time>
      </trkpt>
      <trkpt lat="32.253495426848531" lon="-2.186605352908373">
        <ele>1006.156982421875</ele>
        <time>2011-04-19T15:59:52Z</time>
      </trkpt>
      <trkpt lat="32.253550495952368" lon="-2.187832128256559">
        <ele>1006.156982421875</ele>
        <time>2011-04-19T16:00:01Z</time>
      </trkpt>
      <trkpt lat="32.253697598353028" lon="-2.189545556902885">
        <ele>1008.079833984375</ele>
        <time>2011-04-19T16:00:11Z</time>
      </trkpt>
      <trkpt lat="32.253879737108946" lon="-2.191228894516826">
        <ele>1010.002197265625</ele>
        <time>2011-04-19T16:00:21Z</time>
      </trkpt>
      <trkpt lat="32.253982750698924" lon="-2.192807542160153">
        <ele>1011.925048828125</ele>
        <time>2011-04-19T16:00:31Z</time>
      </trkpt>
      <trkpt lat="32.254070676863194" lon="-2.194516528397799">
        <ele>1010.48291015625</ele>
        <time>2011-04-19T16:00:41Z</time>
      </trkpt>
      <trkpt lat="32.254625223577023" lon="-2.196238590404391">
        <ele>1009.521728515625</ele>
        <time>2011-04-19T16:00:51Z</time>
      </trkpt>
      <trkpt lat="32.254679203033447" lon="-2.198038520291448">
        <ele>1006.6376953125</ele>
        <time>2011-04-19T16:01:03Z</time>
      </trkpt>
      <trkpt lat="32.254700660705566" lon="-2.198590384796262">
        <ele>1005.19580078125</ele>
        <time>2011-04-19T16:01:07Z</time>
      </trkpt>
      <trkpt lat="32.254722705110908" lon="-2.199738034978509">
        <ele>1004.234619140625</ele>
        <time>2011-04-19T16:01:15Z</time>
      </trkpt>
      <trkpt lat="32.254747599363327" lon="-2.200572956353426">
        <ele>1003.27294921875</ele>
        <time>2011-04-19T16:01:21Z</time>
      </trkpt>
      <trkpt lat="32.254893779754639" lon="-2.201375355944037">
        <ele>1004.234619140625</ele>
        <time>2011-04-19T16:01:28Z</time>
      </trkpt>
      <trkpt lat="32.254858491942286" lon="-2.201937865465879">
        <ele>1005.19580078125</ele>
        <time>2011-04-19T16:01:33Z</time>
      </trkpt>
      <trkpt lat="32.254936695098877" lon="-2.203029356896877">
        <ele>1006.6376953125</ele>
        <time>2011-04-19T16:01:42Z</time>
      </trkpt>
      <trkpt lat="32.254915237426758" lon="-2.203404027968645">
        <ele>1005.19580078125</ele>
        <time>2011-04-19T16:01:46Z</time>
      </trkpt>
      <trkpt lat="32.254915237426758" lon="-2.203712062910199">
        <ele>1004.715087890625</ele>
        <time>2011-04-19T16:01:50Z</time>
      </trkpt>
      <trkpt lat="32.254915237426758" lon="-2.20449686050415">
        <ele>1003.753662109375</ele>
        <time>2011-04-19T16:01:58Z</time>
      </trkpt>
      <trkpt lat="32.255001068115234" lon="-2.205703854560852">
        <ele>1003.27294921875</ele>
        <time>2011-04-19T16:02:08Z</time>
      </trkpt>
      <trkpt lat="32.254936695098877" lon="-2.207010677084327">
        <ele>1004.234619140625</ele>
        <time>2011-04-19T16:02:18Z</time>
      </trkpt>
      <trkpt lat="32.254979610443115" lon="-2.20806528814137">
        <ele>1005.19580078125</ele>
        <time>2011-04-19T16:02:26Z</time>
      </trkpt>
      <trkpt lat="32.254981119185686" lon="-2.209632787853479">
        <ele>1007.118408203125</ele>
        <time>2011-04-19T16:02:36Z</time>
      </trkpt>
      <trkpt lat="32.255045073106885" lon="-2.210381710901856">
        <ele>1008.560302734375</ele>
        <time>2011-04-19T16:02:41Z</time>
      </trkpt>
      <trkpt lat="32.255238946527243" lon="-2.210916979238391">
        <ele>1010.963623046875</ele>
        <time>2011-04-19T16:02:47Z</time>
      </trkpt>
      <trkpt lat="32.255421588197351" lon="-2.211358034983277">
        <ele>1012.88623046875</ele>
        <time>2011-04-19T16:02:52Z</time>
      </trkpt>
      <trkpt lat="32.255553938448429" lon="-2.211686354130507">
        <ele>1014.808837890625</ele>
        <time>2011-04-19T16:02:57Z</time>
      </trkpt>
      <trkpt lat="32.255593417212367" lon="-2.21184435300529">
        <ele>1015.28955078125</ele>
        <time>2011-04-19T16:03:01Z</time>
      </trkpt>
      <trkpt lat="32.254862347617745" lon="-2.212205026298761">
        <ele>1015.770263671875</ele>
        <time>2011-04-19T16:03:03Z</time>
      </trkpt>
      <trkpt lat="32.254899647086859" lon="-2.212648345157504">
        <ele>1016.7314453125</ele>
        <time>2011-04-19T16:03:09Z</time>
      </trkpt>
      <trkpt lat="32.254862766712904" lon="-2.213397352024913">
        <ele>1018.17333984375</ele>
        <time>2011-04-19T16:03:16Z</time>
      </trkpt>
      <trkpt lat="32.254709545522928" lon="-2.214005123823881">
        <ele>1015.770263671875</ele>
        <time>2011-04-19T16:03:21Z</time>
      </trkpt>
      <trkpt lat="32.254936695098877" lon="-2.215182781219482">
        <ele>1013.366943359375</ele>
        <time>2011-04-19T16:03:28Z</time>
      </trkpt>
      <trkpt lat="32.254604855552316" lon="-2.217073068022728">
        <ele>1014.328125</ele>
        <time>2011-04-19T16:03:40Z</time>
      </trkpt>
      <trkpt lat="32.254344094544649" lon="-2.219050442799926">
        <ele>1013.847412109375</ele>
        <time>2011-04-19T16:03:51Z</time>
      </trkpt>
      <trkpt lat="32.254207134246826" lon="-2.220089798793197">
        <ele>1013.847412109375</ele>
        <time>2011-04-19T16:03:57Z</time>
      </trkpt>
      <trkpt lat="32.254207134246826" lon="-2.220437480136752">
        <ele>1014.808837890625</ele>
        <time>2011-04-19T16:04:01Z</time>
      </trkpt>
      <trkpt lat="32.25412130355835" lon="-2.220696313306689">
        <ele>1014.808837890625</ele>
        <time>2011-04-19T16:04:05Z</time>
      </trkpt>
      <trkpt lat="32.25412130355835" lon="-2.221269300207496">
        <ele>1013.366943359375</ele>
        <time>2011-04-19T16:04:13Z</time>
      </trkpt>
      <trkpt lat="32.25412130355835" lon="-2.222237912937999">
        <ele>1012.405517578125</ele>
        <time>2011-04-19T16:04:20Z</time>
      </trkpt>
      <trkpt lat="32.25412130355835" lon="-2.224054774269462">
        <ele>1012.88623046875</ele>
        <time>2011-04-19T16:04:31Z</time>
      </trkpt>
      <trkpt lat="32.253828691318631" lon="-2.226086799055338">
        <ele>1012.405517578125</ele>
        <time>2011-04-19T16:04:42Z</time>
      </trkpt>
      <trkpt lat="32.253885436803102" lon="-2.228575469926">
        <ele>1011.925048828125</ele>
        <time>2011-04-19T16:04:55Z</time>
      </trkpt>
      <trkpt lat="32.253902871161699" lon="-2.230300046503544">
        <ele>1011.4443359375</ele>
        <time>2011-04-19T16:05:04Z</time>
      </trkpt>
      <trkpt lat="32.254044357687235" lon="-2.231875341385603">
        <ele>1011.925048828125</ele>
        <time>2011-04-19T16:05:13Z</time>
      </trkpt>
      <trkpt lat="32.254362786188722" lon="-2.23377887159586">
        <ele>1016.7314453125</ele>
        <time>2011-04-19T16:05:24Z</time>
      </trkpt>
      <trkpt lat="32.254617847502232" lon="-2.235021153464913">
        <ele>1020.09619140625</ele>
        <time>2011-04-19T16:05:32Z</time>
      </trkpt>
      <trkpt lat="32.254950189962983" lon="-2.236369634047151">
        <ele>1023.4609375</ele>
        <time>2011-04-19T16:05:41Z</time>
      </trkpt>
      <trkpt lat="32.255572965368629" lon="-2.237645192071796">
        <ele>1024.90283203125</ele>
        <time>2011-04-19T16:05:50Z</time>
      </trkpt>
      <trkpt lat="32.256448622792959" lon="-2.239367421716452">
        <ele>1025.38330078125</ele>
        <time>2011-04-19T16:06:02Z</time>
      </trkpt>
      <trkpt lat="32.256662445142865" lon="-2.239749049767852">
        <ele>1025.38330078125</ele>
        <time>2011-04-19T16:06:05Z</time>
      </trkpt>
      <trkpt lat="32.25704088807106" lon="-2.240731827914715">
        <ele>1025.38330078125</ele>
        <time>2011-04-19T16:06:12Z</time>
      </trkpt>
      <trkpt lat="32.2573565505445" lon="-2.241467088460922">
        <ele>1025.38330078125</ele>
        <time>2011-04-19T16:06:18Z</time>
      </trkpt>
      <trkpt lat="32.257749242708087" lon="-2.242297232151032">
        <ele>1022.49951171875</ele>
        <time>2011-04-19T16:06:27Z</time>
      </trkpt>
      <trkpt lat="32.258399426937103" lon="-2.24344052374363">
        <ele>1024.90283203125</ele>
        <time>2011-04-19T16:06:39Z</time>
      </trkpt>
      <trkpt lat="32.258978448808193" lon="-2.244607536122203">
        <ele>1022.980224609375</ele>
        <time>2011-04-19T16:06:50Z</time>
      </trkpt>
      <trkpt lat="32.259178943932056" lon="-2.245100559666753">
        <ele>1022.49951171875</ele>
        <time>2011-04-19T16:06:55Z</time>
      </trkpt>
      <trkpt lat="32.259378097951412" lon="-2.245349166914821">
        <ele>1022.49951171875</ele>
        <time>2011-04-19T16:06:59Z</time>
      </trkpt>
      <trkpt lat="32.259602230042219" lon="-2.245756443589926">
        <ele>1023.4609375</ele>
        <time>2011-04-19T16:07:07Z</time>
      </trkpt>
      <trkpt lat="32.259384552016854" lon="-2.246074872091413">
        <ele>1023.94140625</ele>
        <time>2011-04-19T16:07:16Z</time>
      </trkpt>
      <trkpt lat="32.259548334404826" lon="-2.246571164578199">
        <ele>1023.4609375</ele>
        <time>2011-04-19T16:07:23Z</time>
      </trkpt>
      <trkpt lat="32.259989390149713" lon="-2.247388316318393">
        <ele>1022.980224609375</ele>
        <time>2011-04-19T16:07:32Z</time>
      </trkpt>
      <trkpt lat="32.260132636874914" lon="-2.247735494747758">
        <ele>1022.980224609375</ele>
        <time>2011-04-19T16:07:36Z</time>
      </trkpt>
      <trkpt lat="32.26036841981113" lon="-2.247936073690653">
        <ele>1022.018798828125</ele>
        <time>2011-04-19T16:07:40Z</time>
      </trkpt>
      <trkpt lat="32.261309623718262" lon="-2.247991561889648">
        <ele>1017.692626953125</ele>
        <time>2011-04-19T16:07:49Z</time>
      </trkpt>
      <trkpt lat="32.261373996734619" lon="-2.248141765594482">
        <ele>1022.980224609375</ele>
        <time>2011-04-19T16:08:13Z</time>
      </trkpt>
      <trkpt lat="32.261496623978019" lon="-2.248244024813175">
        <ele>1014.808837890625</ele>
        <time>2011-04-19T16:09:05Z</time>
      </trkpt>
      <trkpt lat="32.261845897883177" lon="-2.248373525217176">
        <ele>1014.328125</ele>
        <time>2011-04-19T16:09:11Z</time>
      </trkpt>
      <trkpt lat="32.262288797646761" lon="-2.248185183852911">
        <ele>1014.808837890625</ele>
        <time>2011-04-19T16:09:20Z</time>
      </trkpt>
      <trkpt lat="32.262579062953591" lon="-2.248011007905006">
        <ele>1014.328125</ele>
        <time>2011-04-19T16:09:25Z</time>
      </trkpt>
      <trkpt lat="32.263783626258373" lon="-2.247293433174491">
        <ele>1016.7314453125</ele>
        <time>2011-04-19T16:09:40Z</time>
      </trkpt>
      <trkpt lat="32.264369605109096" lon="-2.247010124847293">
        <ele>1017.212158203125</ele>
        <time>2011-04-19T16:09:46Z</time>
      </trkpt>
      <trkpt lat="32.264612512663007" lon="-2.246812898665667">
        <ele>1017.692626953125</ele>
        <time>2011-04-19T16:09:50Z</time>
      </trkpt>
      <trkpt lat="32.264996822923422" lon="-2.246500756591559">
        <ele>1018.17333984375</ele>
        <time>2011-04-19T16:09:58Z</time>
      </trkpt>
      <trkpt lat="32.265437291935086" lon="-2.246143016964197">
        <ele>1018.654052734375</ele>
        <time>2011-04-19T16:10:06Z</time>
      </trkpt>
      <trkpt lat="32.265623873099685" lon="-2.245991472154856">
        <ele>1019.134765625</ele>
        <time>2011-04-19T16:10:10Z</time>
      </trkpt>
      <trkpt lat="32.265471071004868" lon="-2.245034677907825">
        <ele>1014.808837890625</ele>
        <time>2011-04-19T16:10:21Z</time>
      </trkpt>
      <trkpt lat="32.265421533957124" lon="-2.244893778115511">
        <ele>1014.328125</ele>
        <time>2011-04-19T16:10:26Z</time>
      </trkpt>
      <trkpt lat="32.265297649428248" lon="-2.244902998209">
        <ele>1011.4443359375</ele>
        <time>2011-04-19T16:10:35Z</time>
      </trkpt>
      <trkpt lat="32.265572492033243" lon="-2.244800236076117">
        <ele>1022.49951171875</ele>
        <time>2011-04-19T16:17:03Z</time>
      </trkpt>
      <trkpt lat="32.265314497053623" lon="-2.244516341015697">
        <ele>1051.819580078125</ele>
        <time>2011-04-19T16:41:52Z</time>
      </trkpt>
      <trkpt lat="32.265433771535754" lon="-2.244544923305512">
        <ele>1036.919189453125</ele>
        <time>2011-04-19T16:42:11Z</time>
      </trkpt>
      <trkpt lat="32.265461850911379" lon="-2.244858155027032">
        <ele>1033.07373046875</ele>
        <time>2011-04-19T16:42:20Z</time>
      </trkpt>
      <trkpt lat="32.265142668038607" lon="-2.245366768911481">
        <ele>1022.49951171875</ele>
        <time>2011-04-19T16:42:34Z</time>
      </trkpt>
      <trkpt lat="32.264774870127439" lon="-2.245895834639669">
        <ele>1022.980224609375</ele>
        <time>2011-04-19T16:42:46Z</time>
      </trkpt>
      <trkpt lat="32.264864053577185" lon="-2.246608547866345">
        <ele>1021.5380859375</ele>
        <time>2011-04-19T16:42:51Z</time>
      </trkpt>
      <trkpt lat="32.264345129951835" lon="-2.247029989957809">
        <ele>1016.250732421875</ele>
        <time>2011-04-19T16:43:01Z</time>
      </trkpt>
      <trkpt lat="32.263511968776584" lon="-2.247451264411211">
        <ele>1005.19580078125</ele>
        <time>2011-04-19T16:43:14Z</time>
      </trkpt>
      <trkpt lat="32.262722393497825" lon="-2.247925009578466">
        <ele>997.505126953125</ele>
        <time>2011-04-19T16:43:25Z</time>
      </trkpt>
      <trkpt lat="32.261931896209717" lon="-2.248399257659912">
        <ele>991.256591796875</ele>
        <time>2011-04-19T16:43:36Z</time>
      </trkpt>
      <trkpt lat="32.26144490763545" lon="-2.249622931703925">
        <ele>990.77587890625</ele>
        <time>2011-04-19T16:43:47Z</time>
      </trkpt>
      <trkpt lat="32.260403875261545" lon="-2.250516777858138">
        <ele>987.4111328125</ele>
        <time>2011-04-19T16:43:59Z</time>
      </trkpt>
      <trkpt lat="32.259363848716021" lon="-2.251486144959927">
        <ele>985.96923828125</ele>
        <time>2011-04-19T16:44:11Z</time>
      </trkpt>
      <trkpt lat="32.258498584851623" lon="-2.252231715247035">
        <ele>987.891845703125</ele>
        <time>2011-04-19T16:44:21Z</time>
      </trkpt>
      <trkpt lat="32.258297754451632" lon="-2.252439167350531">
        <ele>988.372802734375</ele>
        <time>2011-04-19T16:44:24Z</time>
      </trkpt>
      <trkpt lat="32.257598955184221" lon="-2.253022715449333">
        <ele>990.77587890625</ele>
        <time>2011-04-19T16:44:33Z</time>
      </trkpt>
      <trkpt lat="32.257271390408278" lon="-2.253244835883379">
        <ele>991.7373046875</ele>
        <time>2011-04-19T16:44:37Z</time>
      </trkpt>
      <trkpt lat="32.256508721038699" lon="-2.254005745053291">
        <ele>993.659912109375</ele>
        <time>2011-04-19T16:44:46Z</time>
      </trkpt>
      <trkpt lat="32.255256548523903" lon="-2.255109390243888">
        <ele>994.140625</ele>
        <time>2011-04-19T16:44:59Z</time>
      </trkpt>
      <trkpt lat="32.254528999328613" lon="-2.255737781524658">
        <ele>994.62109375</ele>
        <time>2011-04-19T16:45:07Z</time>
      </trkpt>
      <trkpt lat="32.254038071259856" lon="-2.256369022652507">
        <ele>995.58251953125</ele>
        <time>2011-04-19T16:45:14Z</time>
      </trkpt>
      <trkpt lat="32.253604726865888" lon="-2.256907559931278">
        <ele>995.58251953125</ele>
        <time>2011-04-19T16:45:21Z</time>
      </trkpt>
      <trkpt lat="32.252795705571771" lon="-2.257961081340909">
        <ele>999.908447265625</ele>
        <time>2011-04-19T16:45:31Z</time>
      </trkpt>
      <trkpt lat="32.252471661195159" lon="-2.258409848436713">
        <ele>1001.350341796875</ele>
        <time>2011-04-19T16:45:37Z</time>
      </trkpt>
      <trkpt lat="32.252187933772802" lon="-2.258802624419332">
        <ele>1002.792236328125</ele>
        <time>2011-04-19T16:45:43Z</time>
      </trkpt>
      <trkpt lat="32.251899931579828" lon="-2.259172685444355">
        <ele>1005.676513671875</ele>
        <time>2011-04-19T16:45:50Z</time>
      </trkpt>
      <trkpt lat="32.251738663762808" lon="-2.259367313235998">
        <ele>1006.6376953125</ele>
        <time>2011-04-19T16:45:53Z</time>
      </trkpt>
      <trkpt lat="32.251608744263649" lon="-2.259524138644338">
        <ele>1005.676513671875</ele>
        <time>2011-04-19T16:45:57Z</time>
      </trkpt>
      <trkpt lat="32.251463904976845" lon="-2.259698985144496">
        <ele>1003.27294921875</ele>
        <time>2011-04-19T16:46:03Z</time>
      </trkpt>
      <trkpt lat="32.251233989372849" lon="-2.259633187204599">
        <ele>1003.27294921875</ele>
        <time>2011-04-19T16:46:09Z</time>
      </trkpt>
      <trkpt lat="32.251344211399555" lon="-2.259875172749162">
        <ele>1002.3115234375</ele>
        <time>2011-04-19T16:46:11Z</time>
      </trkpt>
      <trkpt lat="32.250968031585217" lon="-2.260455116629601">
        <ele>1000.38916015625</ele>
        <time>2011-04-19T16:46:19Z</time>
      </trkpt>
      <trkpt lat="32.250436535105109" lon="-2.261197166517377">
        <ele>999.908447265625</ele>
        <time>2011-04-19T16:46:28Z</time>
      </trkpt>
      <trkpt lat="32.249789535999298" lon="-2.262090593576431">
        <ele>999.908447265625</ele>
        <time>2011-04-19T16:46:38Z</time>
      </trkpt>
      <trkpt lat="32.249400531873107" lon="-2.26262460462749">
        <ele>1000.38916015625</ele>
        <time>2011-04-19T16:46:47Z</time>
      </trkpt>
      <trkpt lat="32.249011360108852" lon="-2.263158699497581">
        <ele>1000.38916015625</ele>
        <time>2011-04-19T16:46:53Z</time>
      </trkpt>
      <trkpt lat="32.248216420412064" lon="-2.264240467920899">
        <ele>999.908447265625</ele>
        <time>2011-04-19T16:47:04Z</time>
      </trkpt>
      <trkpt lat="32.24726440384984" lon="-2.265512170270085">
        <ele>1000.86962890625</ele>
        <time>2011-04-19T16:47:16Z</time>
      </trkpt>
      <trkpt lat="32.247040355578065" lon="-2.265822803601623">
        <ele>1000.38916015625</ele>
        <time>2011-04-19T16:47:21Z</time>
      </trkpt>
      <trkpt lat="32.246833993121982" lon="-2.266132347285748">
        <ele>999.427734375</ele>
        <time>2011-04-19T16:47:28Z</time>
      </trkpt>
      <trkpt lat="32.246457478031516" lon="-2.266602404415608">
        <ele>998.947021484375</ele>
        <time>2011-04-19T16:47:36Z</time>
      </trkpt>
      <trkpt lat="32.246246840804815" lon="-2.266866266727448">
        <ele>996.063232421875</ele>
        <time>2011-04-19T16:47:48Z</time>
      </trkpt>
      <trkpt lat="32.246026396751404" lon="-2.267270358279347">
        <ele>999.427734375</ele>
        <time>2011-04-19T16:47:55Z</time>
      </trkpt>
      <trkpt lat="32.245578719303012" lon="-2.267928924411535">
        <ele>1005.19580078125</ele>
        <time>2011-04-19T16:48:02Z</time>
      </trkpt>
      <trkpt lat="32.244323026388884" lon="-2.269565491005778">
        <ele>1015.770263671875</ele>
        <time>2011-04-19T16:48:19Z</time>
      </trkpt>
      <trkpt lat="32.244230406358838" lon="-2.269686777144671">
        <ele>1016.7314453125</ele>
        <time>2011-04-19T16:48:23Z</time>
      </trkpt>
      <trkpt lat="32.244141139090061" lon="-2.269803704693914">
        <ele>1018.17333984375</ele>
        <time>2011-04-19T16:48:32Z</time>
      </trkpt>
      <trkpt lat="32.243901332840323" lon="-2.270148117095232">
        <ele>1018.654052734375</ele>
        <time>2011-04-19T16:48:40Z</time>
      </trkpt>
      <trkpt lat="32.243693713098764" lon="-2.27045145817101">
        <ele>1019.615478515625</ele>
        <time>2011-04-19T16:48:47Z</time>
      </trkpt>
      <trkpt lat="32.243417277932167" lon="-2.27082185447216">
        <ele>1022.49951171875</ele>
        <time>2011-04-19T16:48:53Z</time>
      </trkpt>
      <trkpt lat="32.243131874129176" lon="-2.271162159740925">
        <ele>1023.94140625</ele>
        <time>2011-04-19T16:49:00Z</time>
      </trkpt>
      <trkpt lat="32.24256525747478" lon="-2.271923907101154">
        <ele>1024.422119140625</ele>
        <time>2011-04-19T16:49:08Z</time>
      </trkpt>
      <trkpt lat="32.242033174261451" lon="-2.272478956729174">
        <ele>1025.864013671875</ele>
        <time>2011-04-19T16:49:14Z</time>
      </trkpt>
      <trkpt lat="32.241197666153312" lon="-2.273522671312094">
        <ele>1028.748046875</ele>
        <time>2011-04-19T16:49:24Z</time>
      </trkpt>
      <trkpt lat="32.240930367261171" lon="-2.273936485871673">
        <ele>1028.748046875</ele>
        <time>2011-04-19T16:49:28Z</time>
      </trkpt>
      <trkpt lat="32.240384537726641" lon="-2.274611061438918">
        <ele>1029.709228515625</ele>
        <time>2011-04-19T16:49:35Z</time>
      </trkpt>
      <trkpt lat="32.239444926381111" lon="-2.275644382461906">
        <ele>1030.18994140625</ele>
        <time>2011-04-19T16:49:45Z</time>
      </trkpt>
      <trkpt lat="32.239254238083959" lon="-2.275846973061562">
        <ele>1030.18994140625</ele>
        <time>2011-04-19T16:49:47Z</time>
      </trkpt>
      <trkpt lat="32.238923069089651" lon="-2.276112595573068">
        <ele>1030.670654296875</ele>
        <time>2011-04-19T16:49:51Z</time>
      </trkpt>
      <trkpt lat="32.238763310015202" lon="-2.276132544502616">
        <ele>1030.670654296875</ele>
        <time>2011-04-19T16:49:53Z</time>
      </trkpt>
      <trkpt lat="32.238612771034241" lon="-2.276321053504944">
        <ele>1029.709228515625</ele>
        <time>2011-04-19T16:49:57Z</time>
      </trkpt>
      <trkpt lat="32.238347316160798" lon="-2.276856321841478">
        <ele>1031.1513671875</ele>
        <time>2011-04-19T16:50:03Z</time>
      </trkpt>
      <trkpt lat="32.237961497157812" lon="-2.277192268520594">
        <ele>1031.6318359375</ele>
        <time>2011-04-19T16:50:08Z</time>
      </trkpt>
      <trkpt lat="32.237578025087714" lon="-2.277526119723916">
        <ele>1031.1513671875</ele>
        <time>2011-04-19T16:50:13Z</time>
      </trkpt>
      <trkpt lat="32.236743187531829" lon="-2.278252830728889">
        <ele>1030.18994140625</ele>
        <time>2011-04-19T16:50:22Z</time>
      </trkpt>
      <trkpt lat="32.235822016373277" lon="-2.279125722125173">
        <ele>1028.267333984375</ele>
        <time>2011-04-19T16:50:32Z</time>
      </trkpt>
      <trkpt lat="32.235113326460123" lon="-2.279801471158862">
        <ele>1029.228515625</ele>
        <time>2011-04-19T16:50:40Z</time>
      </trkpt>
      <trkpt lat="32.234972175210714" lon="-2.279936000704765">
        <ele>1028.748046875</ele>
        <time>2011-04-19T16:50:44Z</time>
      </trkpt>
      <trkpt lat="32.234732452780008" lon="-2.28015267290175">
        <ele>1028.748046875</ele>
        <time>2011-04-19T16:50:56Z</time>
      </trkpt>
      <trkpt lat="32.234226856380701" lon="-2.280574114993215">
        <ele>1028.748046875</ele>
        <time>2011-04-19T16:51:04Z</time>
      </trkpt>
      <trkpt lat="32.233671890571713" lon="-2.281036544591188">
        <ele>1030.18994140625</ele>
        <time>2011-04-19T16:51:11Z</time>
      </trkpt>
      <trkpt lat="32.232914501801133" lon="-2.281687399372459">
        <ele>1031.6318359375</ele>
        <time>2011-04-19T16:51:19Z</time>
      </trkpt>
      <trkpt lat="32.231798619031906" lon="-2.282676296308637">
        <ele>1032.59326171875</ele>
        <time>2011-04-19T16:51:29Z</time>
      </trkpt>
      <trkpt lat="32.230738308280706" lon="-2.283615991473198">
        <ele>1032.59326171875</ele>
        <time>2011-04-19T16:51:38Z</time>
      </trkpt>
      <trkpt lat="32.229951834306121" lon="-2.284313030540943">
        <ele>1032.59326171875</ele>
        <time>2011-04-19T16:51:45Z</time>
      </trkpt>
      <trkpt lat="32.229561572894454" lon="-2.28465786203742">
        <ele>1033.07373046875</ele>
        <time>2011-04-19T16:51:50Z</time>
      </trkpt>
      <trkpt lat="32.228866629302502" lon="-2.285269573330879">
        <ele>1032.59326171875</ele>
        <time>2011-04-19T16:51:57Z</time>
      </trkpt>
      <trkpt lat="32.227623760700226" lon="-2.286370787769556">
        <ele>1032.112548828125</ele>
        <time>2011-04-19T16:52:07Z</time>
      </trkpt>
      <trkpt lat="32.226002281531692" lon="-2.287810212001205">
        <ele>1031.1513671875</ele>
        <time>2011-04-19T16:52:19Z</time>
      </trkpt>
      <trkpt lat="32.224449701607227" lon="-2.289154585450888">
        <ele>1032.112548828125</ele>
        <time>2011-04-19T16:52:30Z</time>
      </trkpt>
      <trkpt lat="32.22291262820363" lon="-2.29050625115633">
        <ele>1033.554443359375</ele>
        <time>2011-04-19T16:52:41Z</time>
      </trkpt>
      <trkpt lat="32.222027834504843" lon="-2.291284175589681">
        <ele>1034.99658203125</ele>
        <time>2011-04-19T16:52:48Z</time>
      </trkpt>
      <trkpt lat="32.220812626183033" lon="-2.29235278442502">
        <ele>1035.47705078125</ele>
        <time>2011-04-19T16:52:59Z</time>
      </trkpt>
      <trkpt lat="32.220470309257507" lon="-2.292693257331848">
        <ele>1034.03515625</ele>
        <time>2011-04-19T16:53:04Z</time>
      </trkpt>
      <trkpt lat="32.220256989821792" lon="-2.292906660586596">
        <ele>1034.03515625</ele>
        <time>2011-04-19T16:53:11Z</time>
      </trkpt>
      <trkpt lat="32.219689451158047" lon="-2.293437235057354">
        <ele>1035.47705078125</ele>
        <time>2011-04-19T16:53:19Z</time>
      </trkpt>
      <trkpt lat="32.219408238306642" lon="-2.293655080720782">
        <ele>1036.438720703125</ele>
        <time>2011-04-19T16:53:22Z</time>
      </trkpt>
      <trkpt lat="32.219234146177769" lon="-2.293790029361844">
        <ele>1037.39990234375</ele>
        <time>2011-04-19T16:53:24Z</time>
      </trkpt>
      <trkpt lat="32.21862779930234" lon="-2.294260086491704">
        <ele>1039.80322265625</ele>
        <time>2011-04-19T16:53:32Z</time>
      </trkpt>
      <trkpt lat="32.217649966478348" lon="-2.294947067275643">
        <ele>1040.764404296875</ele>
        <time>2011-04-19T16:53:42Z</time>
      </trkpt>
      <trkpt lat="32.216228982433677" lon="-2.295732451602817">
        <ele>1040.283935546875</ele>
        <time>2011-04-19T16:53:54Z</time>
      </trkpt>
      <trkpt lat="32.215051408857107" lon="-2.29630233719945">
        <ele>1040.764404296875</ele>
        <time>2011-04-19T16:54:04Z</time>
      </trkpt>
      <trkpt lat="32.21474421210587" lon="-2.296587321907282">
        <ele>1040.283935546875</ele>
        <time>2011-04-19T16:54:10Z</time>
      </trkpt>
      <trkpt lat="32.214736668393016" lon="-2.296707183122635">
        <ele>1039.80322265625</ele>
        <time>2011-04-19T16:54:17Z</time>
      </trkpt>
      <trkpt lat="32.214373229071498" lon="-2.296690922230482">
        <ele>1038.842041015625</ele>
        <time>2011-04-19T16:54:26Z</time>
      </trkpt>
      <trkpt lat="32.21384902484715" lon="-2.297080932185054">
        <ele>1039.80322265625</ele>
        <time>2011-04-19T16:54:36Z</time>
      </trkpt>
      <trkpt lat="32.213154500350356" lon="-2.297421153634787">
        <ele>1042.20654296875</ele>
        <time>2011-04-19T16:54:44Z</time>
      </trkpt>
      <trkpt lat="32.212335169315338" lon="-2.297671856358647">
        <ele>1044.129150390625</ele>
        <time>2011-04-19T16:54:52Z</time>
      </trkpt>
      <trkpt lat="32.211335795000196" lon="-2.298116097226739">
        <ele>1045.09033203125</ele>
        <time>2011-04-19T16:55:01Z</time>
      </trkpt>
      <trkpt lat="32.210464077070355" lon="-2.298675421625376">
        <ele>1041.725830078125</ele>
        <time>2011-04-19T16:55:10Z</time>
      </trkpt>
      <trkpt lat="32.20981196500361" lon="-2.299113627523184">
        <ele>1039.80322265625</ele>
        <time>2011-04-19T16:55:17Z</time>
      </trkpt>
      <trkpt lat="32.209146441891789" lon="-2.299535740166903">
        <ele>1039.80322265625</ele>
        <time>2011-04-19T16:55:24Z</time>
      </trkpt>
      <trkpt lat="32.208688287064433" lon="-2.299826256930828">
        <ele>1040.283935546875</ele>
        <time>2011-04-19T16:55:30Z</time>
      </trkpt>
      <trkpt lat="32.208262570202351" lon="-2.300155749544501">
        <ele>1039.322509765625</ele>
        <time>2011-04-19T16:55:36Z</time>
      </trkpt>
      <trkpt lat="32.20784573815763" lon="-2.300491528585553">
        <ele>1039.80322265625</ele>
        <time>2011-04-19T16:55:41Z</time>
      </trkpt>
      <trkpt lat="32.207468301057816" lon="-2.30053729377687">
        <ele>1040.283935546875</ele>
        <time>2011-04-19T16:55:45Z</time>
      </trkpt>
      <trkpt lat="32.206868156790733" lon="-2.300710882991552">
        <ele>1042.20654296875</ele>
        <time>2011-04-19T16:55:51Z</time>
      </trkpt>
      <trkpt lat="32.206303048878908" lon="-2.300953455269337">
        <ele>1042.20654296875</ele>
        <time>2011-04-19T16:55:59Z</time>
      </trkpt>
      <trkpt lat="32.206212105229497" lon="-2.301041632890701">
        <ele>1042.687255859375</ele>
        <time>2011-04-19T16:56:01Z</time>
      </trkpt>
      <trkpt lat="32.2060461435467" lon="-2.300697136670351">
        <ele>1041.2451171875</ele>
        <time>2011-04-19T16:56:10Z</time>
      </trkpt>
      <trkpt lat="32.205915385857224" lon="-2.300488259643316">
        <ele>1040.764404296875</ele>
        <time>2011-04-19T16:56:22Z</time>
      </trkpt>
      <trkpt lat="32.205845396965742" lon="-2.300238227471709">
        <ele>1041.2451171875</ele>
        <time>2011-04-19T16:56:30Z</time>
      </trkpt>
      <trkpt lat="32.20553258433938" lon="-2.299884762614965">
        <ele>1042.687255859375</ele>
        <time>2011-04-19T16:56:39Z</time>
      </trkpt>
      <trkpt lat="32.205722937360406" lon="-2.300036223605275">
        <ele>1042.687255859375</ele>
        <time>2011-04-19T16:56:51Z</time>
      </trkpt>
      <trkpt lat="32.205849336460233" lon="-2.300203358754516">
        <ele>1042.20654296875</ele>
        <time>2011-04-19T16:56:54Z</time>
      </trkpt>
      <trkpt lat="32.206012196838856" lon="-2.30059839785099">
        <ele>1042.20654296875</ele>
        <time>2011-04-19T16:57:01Z</time>
      </trkpt>
      <trkpt lat="32.20625376328826" lon="-2.300991006195545">
        <ele>1041.725830078125</ele>
        <time>2011-04-19T16:57:05Z</time>
      </trkpt>
      <trkpt lat="32.206138260662556" lon="-2.301067197695375">
        <ele>1041.725830078125</ele>
        <time>2011-04-19T16:57:13Z</time>
      </trkpt>
      <trkpt lat="32.206105655059218" lon="-2.301170881837606">
        <ele>1041.2451171875</ele>
        <time>2011-04-19T16:57:15Z</time>
      </trkpt>
      <trkpt lat="32.205911697819829" lon="-2.301470618695021">
        <ele>1042.687255859375</ele>
        <time>2011-04-19T16:57:21Z</time>
      </trkpt>
      <trkpt lat="32.205696785822511" lon="-2.301966575905681">
        <ele>1044.129150390625</ele>
        <time>2011-04-19T16:57:28Z</time>
      </trkpt>
      <trkpt lat="32.20550274476409" lon="-2.302236221730709">
        <ele>1044.609619140625</ele>
        <time>2011-04-19T16:57:32Z</time>
      </trkpt>
      <trkpt lat="32.2045265045017" lon="-2.30295941233635">
        <ele>1049.89697265625</ele>
        <time>2011-04-19T16:57:43Z</time>
      </trkpt>
      <trkpt lat="32.203570632264018" lon="-2.303718645125628">
        <ele>1050.858154296875</ele>
        <time>2011-04-19T16:57:54Z</time>
      </trkpt>
      <trkpt lat="32.202661950141191" lon="-2.304435884580016">
        <ele>1050.858154296875</ele>
        <time>2011-04-19T16:58:03Z</time>
      </trkpt>
      <trkpt lat="32.20153508707881" lon="-2.305249515920878">
        <ele>1052.30029296875</ele>
        <time>2011-04-19T16:58:14Z</time>
      </trkpt>
      <trkpt lat="32.200814662501216" lon="-2.305634748190641">
        <ele>1056.626220703125</ele>
        <time>2011-04-19T16:58:21Z</time>
      </trkpt>
      <trkpt lat="32.199661647900939" lon="-2.306469669565558">
        <ele>1059.99072265625</ele>
        <time>2011-04-19T16:58:33Z</time>
      </trkpt>
      <trkpt lat="32.198761682957411" lon="-2.307039219886065">
        <ele>1061.91357421875</ele>
        <time>2011-04-19T16:58:43Z</time>
      </trkpt>
      <trkpt lat="32.198555488139391" lon="-2.307166792452335">
        <ele>1062.874755859375</ele>
        <time>2011-04-19T16:58:49Z</time>
      </trkpt>
      <trkpt lat="32.198099931702018" lon="-2.307448843494058">
        <ele>1064.79736328125</ele>
        <time>2011-04-19T16:58:57Z</time>
      </trkpt>
      <trkpt lat="32.197208181023598" lon="-2.308000959455967">
        <ele>1067.20068359375</ele>
        <time>2011-04-19T16:59:07Z</time>
      </trkpt>
      <trkpt lat="32.195636574178934" lon="-2.309089349582791">
        <ele>1071.526611328125</ele>
        <time>2011-04-19T16:59:24Z</time>
      </trkpt>
      <trkpt lat="32.195326611399651" lon="-2.309307111427188">
        <ele>1071.526611328125</ele>
        <time>2011-04-19T16:59:29Z</time>
      </trkpt>
      <trkpt lat="32.195226699113846" lon="-2.309377184137702">
        <ele>1074.41064453125</ele>
        <time>2011-04-19T16:59:36Z</time>
      </trkpt>
      <trkpt lat="32.195087391883135" lon="-2.310276729986072">
        <ele>1072.488037109375</ele>
        <time>2011-04-19T16:59:47Z</time>
      </trkpt>
      <trkpt lat="32.195085464045405" lon="-2.31062994338572">
        <ele>1072.00732421875</ele>
        <time>2011-04-19T16:59:54Z</time>
      </trkpt>
      <trkpt lat="32.195123853161931" lon="-2.310755923390389">
        <ele>1077.294677734375</ele>
        <time>2011-04-19T17:00:11Z</time>
      </trkpt>
      <trkpt lat="32.195114884525537" lon="-2.3108796402812">
        <ele>1078.736572265625</ele>
        <time>2011-04-19T17:00:23Z</time>
      </trkpt>
      <trkpt lat="32.195267686620355" lon="-2.31144935823977">
        <ele>1146.509521484375</ele>
        <time>2011-04-19T17:33:28Z</time>
      </trkpt>
      <trkpt lat="32.19539794139564" lon="-2.311475342139602">
        <ele>1146.02880859375</ele>
        <time>2011-04-19T17:33:31Z</time>
      </trkpt>
      <trkpt lat="32.195582343265414" lon="-2.311586318537593">
        <ele>1145.0673828125</ele>
        <time>2011-04-19T17:33:35Z</time>
      </trkpt>
      <trkpt lat="32.196050556376576" lon="-2.312237089499831">
        <ele>1145.548095703125</ele>
        <time>2011-04-19T17:33:46Z</time>
      </trkpt>
      <trkpt lat="32.196533270180225" lon="-2.312922142446041">
        <ele>1145.548095703125</ele>
        <time>2011-04-19T17:33:55Z</time>
      </trkpt>
      <trkpt lat="32.197100389748812" lon="-2.313582133501768">
        <ele>1143.62548828125</ele>
        <time>2011-04-19T17:34:03Z</time>
      </trkpt>
      <trkpt lat="32.197532225400209" lon="-2.313783299177885">
        <ele>1142.18359375</ele>
        <time>2011-04-19T17:34:10Z</time>
      </trkpt>
      <trkpt lat="32.198094818741083" lon="-2.313942387700081">
        <ele>1137.857666015625</ele>
        <time>2011-04-19T17:34:16Z</time>
      </trkpt>
      <trkpt lat="32.198198838159442" lon="-2.313949428498745">
        <ele>1137.376953125</ele>
        <time>2011-04-19T17:34:17Z</time>
      </trkpt>
      <trkpt lat="32.19890283420682" lon="-2.313714819028974">
        <ele>1121.51513671875</ele>
        <time>2011-04-19T17:34:24Z</time>
      </trkpt>
      <trkpt lat="32.199546899646521" lon="-2.313430421054363">
        <ele>1109.498779296875</ele>
        <time>2011-04-19T17:34:30Z</time>
      </trkpt>
      <trkpt lat="32.200019638985395" lon="-2.313204361125827">
        <ele>1103.73095703125</ele>
        <time>2011-04-19T17:34:34Z</time>
      </trkpt>
      <trkpt lat="32.200486846268177" lon="-2.31318449601531">
        <ele>1099.885498046875</ele>
        <time>2011-04-19T17:34:38Z</time>
      </trkpt>
      <trkpt lat="32.200846681371331" lon="-2.313272338360548">
        <ele>1099.885498046875</ele>
        <time>2011-04-19T17:34:41Z</time>
      </trkpt>
      <trkpt lat="32.201177850365639" lon="-2.313420362770557">
        <ele>1099.40478515625</ele>
        <time>2011-04-19T17:34:44Z</time>
      </trkpt>
      <trkpt lat="32.201407179236412" lon="-2.31349672190845">
        <ele>1098.443359375</ele>
        <time>2011-04-19T17:34:46Z</time>
      </trkpt>
      <trkpt lat="32.201785454526544" lon="-2.313720686361194">
        <ele>1097.00146484375</ele>
        <time>2011-04-19T17:34:50Z</time>
      </trkpt>
      <trkpt lat="32.202064655721188" lon="-2.314157634973526">
        <ele>1097.962890625</ele>
        <time>2011-04-19T17:34:55Z</time>
      </trkpt>
      <trkpt lat="32.202510656788945" lon="-2.31506128795445">
        <ele>1102.288818359375</ele>
        <time>2011-04-19T17:35:03Z</time>
      </trkpt>
      <trkpt lat="32.202689526602626" lon="-2.315564788877964">
        <ele>1104.692138671875</ele>
        <time>2011-04-19T17:35:07Z</time>
      </trkpt>
      <trkpt lat="32.202800754457712" lon="-2.31614506803453">
        <ele>1106.61474609375</ele>
        <time>2011-04-19T17:35:12Z</time>
      </trkpt>
      <trkpt lat="32.20299412496388" lon="-2.316731130704284">
        <ele>1108.537353515625</ele>
        <time>2011-04-19T17:35:17Z</time>
      </trkpt>
      <trkpt lat="32.20314365811646" lon="-2.317183334380388">
        <ele>1110.4599609375</ele>
        <time>2011-04-19T17:35:21Z</time>
      </trkpt>
      <trkpt lat="32.203271817415953" lon="-2.317646937444806">
        <ele>1111.42138671875</ele>
        <time>2011-04-19T17:35:25Z</time>
      </trkpt>
      <trkpt lat="32.203724859282374" lon="-2.318086652085185">
        <ele>1110.940673828125</ele>
        <time>2011-04-19T17:35:31Z</time>
      </trkpt>
      <trkpt lat="32.203832482919097" lon="-2.318136021494865">
        <ele>1110.940673828125</ele>
        <time>2011-04-19T17:35:32Z</time>
      </trkpt>
      <trkpt lat="32.204272281378508" lon="-2.31829946860671">
        <ele>1109.979248046875</ele>
        <time>2011-04-19T17:35:36Z</time>
      </trkpt>
      <trkpt lat="32.204748624935746" lon="-2.318384796380997">
        <ele>1107.576171875</ele>
        <time>2011-04-19T17:35:40Z</time>
      </trkpt>
      <trkpt lat="32.205064874142408" lon="-2.318585542961955">
        <ele>1107.095458984375</ele>
        <time>2011-04-19T17:35:44Z</time>
      </trkpt>
      <trkpt lat="32.205558232963085" lon="-2.319397581741214">
        <ele>1109.01806640625</ele>
        <time>2011-04-19T17:35:51Z</time>
      </trkpt>
      <trkpt lat="32.206233395263553" lon="-2.320480942726135">
        <ele>1111.42138671875</ele>
        <time>2011-04-19T17:35:59Z</time>
      </trkpt>
      <trkpt lat="32.206323919817805" lon="-2.320596193894744">
        <ele>1111.42138671875</ele>
        <time>2011-04-19T17:36:00Z</time>
      </trkpt>
      <trkpt lat="32.206509998068213" lon="-2.320799371227622">
        <ele>1111.902099609375</ele>
        <time>2011-04-19T17:36:02Z</time>
      </trkpt>
      <trkpt lat="32.206721557304263" lon="-2.321282085031271">
        <ele>1112.86328125</ele>
        <time>2011-04-19T17:36:06Z</time>
      </trkpt>
      <trkpt lat="32.206999836489558" lon="-2.322149025276303">
        <ele>1113.824462890625</ele>
        <time>2011-04-19T17:36:12Z</time>
      </trkpt>
      <trkpt lat="32.207130175083876" lon="-2.322596786543727">
        <ele>1114.30517578125</ele>
        <time>2011-04-19T17:36:15Z</time>
      </trkpt>
      <trkpt lat="32.207584977149963" lon="-2.323330286890268">
        <ele>1114.785888671875</ele>
        <time>2011-04-19T17:36:21Z</time>
      </trkpt>
      <trkpt lat="32.207683967426419" lon="-2.32342173345387">
        <ele>1114.785888671875</ele>
        <time>2011-04-19T17:36:22Z</time>
      </trkpt>
      <trkpt lat="32.208051094785333" lon="-2.324048364534974">
        <ele>1115.2666015625</ele>
        <time>2011-04-19T17:36:28Z</time>
      </trkpt>
      <trkpt lat="32.208094596862793" lon="-2.324796030297875">
        <ele>1112.86328125</ele>
        <time>2011-04-19T17:36:34Z</time>
      </trkpt>
      <trkpt lat="32.208266928792" lon="-2.325326018035412">
        <ele>1113.343994140625</ele>
        <time>2011-04-19T17:36:39Z</time>
      </trkpt>
      <trkpt lat="32.20851176418364" lon="-2.326190862804651">
        <ele>1113.824462890625</ele>
        <time>2011-04-19T17:36:46Z</time>
      </trkpt>
      <trkpt lat="32.20861192792654" lon="-2.326443158090115">
        <ele>1113.824462890625</ele>
        <time>2011-04-19T17:36:48Z</time>
      </trkpt>
      <trkpt lat="32.208727346733212" lon="-2.32666477560997">
        <ele>1114.30517578125</ele>
        <time>2011-04-19T17:36:50Z</time>
      </trkpt>
      <trkpt lat="32.208814099431038" lon="-2.326890081167221">
        <ele>1114.30517578125</ele>
        <time>2011-04-19T17:36:52Z</time>
      </trkpt>
      <trkpt lat="32.209236631169915" lon="-2.327502630650997">
        <ele>1113.824462890625</ele>
        <time>2011-04-19T17:36:58Z</time>
      </trkpt>
      <trkpt lat="32.209391947835684" lon="-2.327718632295728">
        <ele>1113.343994140625</ele>
        <time>2011-04-19T17:37:00Z</time>
      </trkpt>
      <trkpt lat="32.209815233945847" lon="-2.328182067722082">
        <ele>1111.902099609375</ele>
        <time>2011-04-19T17:37:05Z</time>
      </trkpt>
      <trkpt lat="32.210480673238635" lon="-2.329118326306343">
        <ele>1112.382568359375</ele>
        <time>2011-04-19T17:37:13Z</time>
      </trkpt>
      <trkpt lat="32.211072016507387" lon="-2.330056764185429">
        <ele>1112.86328125</ele>
        <time>2011-04-19T17:37:20Z</time>
      </trkpt>
      <trkpt lat="32.211139993742108" lon="-2.330195317044854">
        <ele>1112.86328125</ele>
        <time>2011-04-19T17:37:21Z</time>
      </trkpt>
      <trkpt lat="32.211294388398528" lon="-2.330614076927304">
        <ele>1112.86328125</ele>
        <time>2011-04-19T17:37:24Z</time>
      </trkpt>
      <trkpt lat="32.211765283718705" lon="-2.331135934218764">
        <ele>1112.86328125</ele>
        <time>2011-04-19T17:37:30Z</time>
      </trkpt>
      <trkpt lat="32.212487468495965" lon="-2.331753261387348">
        <ele>1110.940673828125</ele>
        <time>2011-04-19T17:37:38Z</time>
      </trkpt>
      <trkpt lat="32.213022317737341" lon="-2.332491623237729">
        <ele>1109.498779296875</ele>
        <time>2011-04-19T17:37:45Z</time>
      </trkpt>
      <trkpt lat="32.213109657168388" lon="-2.332606455311179">
        <ele>1109.498779296875</ele>
        <time>2011-04-19T17:37:46Z</time>
      </trkpt>
      <trkpt lat="32.21333546563983" lon="-2.333103334531188">
        <ele>1109.498779296875</ele>
        <time>2011-04-19T17:37:50Z</time>
      </trkpt>
      <trkpt lat="32.213554317131639" lon="-2.333614798262715">
        <ele>1109.498779296875</ele>
        <time>2011-04-19T17:37:55Z</time>
      </trkpt>
      <trkpt lat="32.213731678202748" lon="-2.33381487429142">
        <ele>1109.01806640625</ele>
        <time>2011-04-19T17:37:58Z</time>
      </trkpt>
      <trkpt lat="32.214141385629773" lon="-2.334402361884713">
        <ele>1109.498779296875</ele>
        <time>2011-04-19T17:38:05Z</time>
      </trkpt>
      <trkpt lat="32.214603396132588" lon="-2.334738979116082">
        <ele>1109.498779296875</ele>
        <time>2011-04-19T17:38:10Z</time>
      </trkpt>
      <trkpt lat="32.214791737496853" lon="-2.334897145628929">
        <ele>1109.498779296875</ele>
        <time>2011-04-19T17:38:12Z</time>
      </trkpt>
      <trkpt lat="32.215279899537563" lon="-2.335197636857629">
        <ele>1109.01806640625</ele>
        <time>2011-04-19T17:38:17Z</time>
      </trkpt>
      <trkpt lat="32.216058159247041" lon="-2.335920073091984">
        <ele>1108.056884765625</ele>
        <time>2011-04-19T17:38:25Z</time>
      </trkpt>
      <trkpt lat="32.216740697622299" lon="-2.336215618997812">
        <ele>1106.61474609375</ele>
        <time>2011-04-19T17:38:31Z</time>
      </trkpt>
      <trkpt lat="32.217347295954823" lon="-2.33658199198544">
        <ele>1103.73095703125</ele>
        <time>2011-04-19T17:38:37Z</time>
      </trkpt>
      <trkpt lat="32.218317165970802" lon="-2.337243994697928">
        <ele>1098.924072265625</ele>
        <time>2011-04-19T17:38:45Z</time>
      </trkpt>
      <trkpt lat="32.219189470633864" lon="-2.337805163115263">
        <ele>1095.078857421875</ele>
        <time>2011-04-19T17:38:52Z</time>
      </trkpt>
      <trkpt lat="32.219309583306313" lon="-2.33786073513329">
        <ele>1094.59814453125</ele>
        <time>2011-04-19T17:38:53Z</time>
      </trkpt>
      <trkpt lat="32.220362350344658" lon="-2.338641341775656">
        <ele>1089.791748046875</ele>
        <time>2011-04-19T17:39:02Z</time>
      </trkpt>
      <trkpt lat="32.221185620874166" lon="-2.33936176635325">
        <ele>1085.946533203125</ele>
        <time>2011-04-19T17:39:09Z</time>
      </trkpt>
      <trkpt lat="32.222680533304811" lon="-2.34046415425837">
        <ele>1079.69775390625</ele>
        <time>2011-04-19T17:39:21Z</time>
      </trkpt>
      <trkpt lat="32.223521322011948" lon="-2.341138478368521">
        <ele>1075.8525390625</ele>
        <time>2011-04-19T17:39:28Z</time>
      </trkpt>
      <trkpt lat="32.224656734615564" lon="-2.341797798871994">
        <ele>1071.526611328125</ele>
        <time>2011-04-19T17:39:37Z</time>
      </trkpt>
      <trkpt lat="32.225601458922029" lon="-2.342203818261623">
        <ele>1067.68115234375</ele>
        <time>2011-04-19T17:39:44Z</time>
      </trkpt>
      <trkpt lat="32.225868673995137" lon="-2.342303646728396">
        <ele>1067.20068359375</ele>
        <time>2011-04-19T17:39:46Z</time>
      </trkpt>
      <trkpt lat="32.226807363331318" lon="-2.342973025515676">
        <ele>1061.91357421875</ele>
        <time>2011-04-19T17:39:54Z</time>
      </trkpt>
      <trkpt lat="32.226913562044501" lon="-2.343092551454902">
        <ele>1061.91357421875</ele>
        <time>2011-04-19T17:39:55Z</time>
      </trkpt>
      <trkpt lat="32.227820651605725" lon="-2.344210529699922">
        <ele>1064.316650390625</ele>
        <time>2011-04-19T17:40:04Z</time>
      </trkpt>
      <trkpt lat="32.228781888261437" lon="-2.345500253140926">
        <ele>1067.68115234375</ele>
        <time>2011-04-19T17:40:14Z</time>
      </trkpt>
      <trkpt lat="32.229817723855376" lon="-2.346756029874086">
        <ele>1071.526611328125</ele>
        <time>2011-04-19T17:40:24Z</time>
      </trkpt>
      <trkpt lat="32.230070857331157" lon="-2.347072530537844">
        <ele>1072.00732421875</ele>
        <time>2011-04-19T17:40:27Z</time>
      </trkpt>
      <trkpt lat="32.230264646932483" lon="-2.347535630688071">
        <ele>1073.449462890625</ele>
        <time>2011-04-19T17:40:31Z</time>
      </trkpt>
      <trkpt lat="32.230351399630308" lon="-2.348024798557162">
        <ele>1074.41064453125</ele>
        <time>2011-04-19T17:40:35Z</time>
      </trkpt>
      <trkpt lat="32.230310328304768" lon="-2.349226679652929">
        <ele>1075.371826171875</ele>
        <time>2011-04-19T17:40:43Z</time>
      </trkpt>
      <trkpt lat="32.230303036049008" lon="-2.349469335749745">
        <ele>1075.371826171875</ele>
        <time>2011-04-19T17:40:45Z</time>
      </trkpt>
      <trkpt lat="32.230475032702088" lon="-2.349649546667934">
        <ele>1074.41064453125</ele>
        <time>2011-04-19T17:40:50Z</time>
      </trkpt>
      <trkpt lat="32.231087163090706" lon="-2.349643427878618">
        <ele>1068.162109375</ele>
        <time>2011-04-19T17:40:57Z</time>
      </trkpt>
      <trkpt lat="32.232186868786812" lon="-2.349709058180451">
        <ele>1059.99072265625</ele>
        <time>2011-04-19T17:41:07Z</time>
      </trkpt>
      <trkpt lat="32.232776870951056" lon="-2.349749375134707">
        <ele>1055.184326171875</ele>
        <time>2011-04-19T17:41:13Z</time>
      </trkpt>
      <trkpt lat="32.233316916972399" lon="-2.350101498886943">
        <ele>1052.30029296875</ele>
        <time>2011-04-19T17:41:19Z</time>
      </trkpt>
      <trkpt lat="32.233948241919279" lon="-2.35063886269927">
        <ele>1050.377685546875</ele>
        <time>2011-04-19T17:41:26Z</time>
      </trkpt>
      <trkpt lat="32.234036084264517" lon="-2.35101655125618">
        <ele>1051.819580078125</ele>
        <time>2011-04-19T17:41:31Z</time>
      </trkpt>
      <trkpt lat="32.233727881684899" lon="-2.352010225877166">
        <ele>1052.30029296875</ele>
        <time>2011-04-19T17:41:40Z</time>
      </trkpt>
      <trkpt lat="32.233392354100943" lon="-2.353105572983623">
        <ele>1052.781005859375</ele>
        <time>2011-04-19T17:41:49Z</time>
      </trkpt>
      <trkpt lat="32.23339855670929" lon="-2.353568840771914">
        <ele>1054.22314453125</ele>
        <time>2011-04-19T17:41:54Z</time>
      </trkpt>
      <trkpt lat="32.23357692360878" lon="-2.353607481345534">
        <ele>1052.781005859375</ele>
        <time>2011-04-19T17:41:57Z</time>
      </trkpt>
      <trkpt lat="32.234260132536292" lon="-2.353601027280092">
        <ele>1047.012939453125</ele>
        <time>2011-04-19T17:42:04Z</time>
      </trkpt>
      <trkpt lat="32.23460697568953" lon="-2.353598345071077">
        <ele>1045.09033203125</ele>
        <time>2011-04-19T17:42:07Z</time>
      </trkpt>
      <trkpt lat="32.235666029155254" lon="-2.353648887947202">
        <ele>1041.725830078125</ele>
        <time>2011-04-19T17:42:15Z</time>
      </trkpt>
      <trkpt lat="32.237660335376859" lon="-2.353700269013643">
        <ele>1038.361328125</ele>
        <time>2011-04-19T17:42:28Z</time>
      </trkpt>
      <trkpt lat="32.239485243335366" lon="-2.353697922080755">
        <ele>1034.99658203125</ele>
        <time>2011-04-19T17:42:40Z</time>
      </trkpt>
      <trkpt lat="32.240423681214452" lon="-2.353695156052709">
        <ele>1033.554443359375</ele>
        <time>2011-04-19T17:42:47Z</time>
      </trkpt>
      <trkpt lat="32.242202740162611" lon="-2.353768162429333">
        <ele>1032.112548828125</ele>
        <time>2011-04-19T17:42:59Z</time>
      </trkpt>
      <trkpt lat="32.243629172444344" lon="-2.353837145492435">
        <ele>1032.112548828125</ele>
        <time>2011-04-19T17:43:09Z</time>
      </trkpt>
      <trkpt lat="32.24462142214179" lon="-2.353882072493434">
        <ele>1033.07373046875</ele>
        <time>2011-04-19T17:43:18Z</time>
      </trkpt>
      <trkpt lat="32.245091395452619" lon="-2.353926664218307">
        <ele>1033.07373046875</ele>
        <time>2011-04-19T17:43:23Z</time>
      </trkpt>
      <trkpt lat="32.246002927422523" lon="-2.353795571252704">
        <ele>1033.07373046875</ele>
        <time>2011-04-19T17:43:31Z</time>
      </trkpt>
      <trkpt lat="32.246932983398437" lon="-2.353543778881431">
        <ele>1032.112548828125</ele>
        <time>2011-04-19T17:43:39Z</time>
      </trkpt>
      <trkpt lat="32.247040858492255" lon="-2.353506647050381">
        <ele>1031.6318359375</ele>
        <time>2011-04-19T17:43:40Z</time>
      </trkpt>
      <trkpt lat="32.248044591397047" lon="-2.353502456098795">
        <ele>1031.6318359375</ele>
        <time>2011-04-19T17:43:48Z</time>
      </trkpt>
      <trkpt lat="32.249213866889477" lon="-2.353538079187274">
        <ele>1031.1513671875</ele>
        <time>2011-04-19T17:43:56Z</time>
      </trkpt>
      <trkpt lat="32.25005398504436" lon="-2.353652743622661">
        <ele>1030.670654296875</ele>
        <time>2011-04-19T17:44:03Z</time>
      </trkpt>
      <trkpt lat="32.251138184219599" lon="-2.353753997012973">
        <ele>1032.112548828125</ele>
        <time>2011-04-19T17:44:11Z</time>
      </trkpt>
      <trkpt lat="32.252534022554755" lon="-2.353857094421983">
        <ele>1032.59326171875</ele>
        <time>2011-04-19T17:44:23Z</time>
      </trkpt>
      <trkpt lat="32.253981493413448" lon="-2.353956336155534">
        <ele>1032.59326171875</ele>
        <time>2011-04-19T17:44:33Z</time>
      </trkpt>
      <trkpt lat="32.25544405169785" lon="-2.354077287018299">
        <ele>1032.59326171875</ele>
        <time>2011-04-19T17:44:43Z</time>
      </trkpt>
      <trkpt lat="32.256829077377915" lon="-2.354260180145502">
        <ele>1033.07373046875</ele>
        <time>2011-04-19T17:44:53Z</time>
      </trkpt>
      <trkpt lat="32.257499964907765" lon="-2.354269819334149">
        <ele>1033.554443359375</ele>
        <time>2011-04-19T17:44:58Z</time>
      </trkpt>
      <trkpt lat="32.2585463616997" lon="-2.3543656244874">
        <ele>1034.03515625</ele>
        <time>2011-04-19T17:45:06Z</time>
      </trkpt>
      <trkpt lat="32.25886688567698" lon="-2.354304185137153">
        <ele>1033.554443359375</ele>
        <time>2011-04-19T17:45:09Z</time>
      </trkpt>
      <trkpt lat="32.259673476219177" lon="-2.354366881772876">
        <ele>1033.554443359375</ele>
        <time>2011-04-19T17:45:16Z</time>
      </trkpt>
      <trkpt lat="32.26116344332695" lon="-2.354462770745158">
        <ele>1034.515869140625</ele>
        <time>2011-04-19T17:45:29Z</time>
      </trkpt>
      <trkpt lat="32.261851681396365" lon="-2.354450197890401">
        <ele>1034.03515625</ele>
        <time>2011-04-19T17:45:37Z</time>
      </trkpt>
      <trkpt lat="32.262051841244102" lon="-2.354406695812941">
        <ele>1032.59326171875</ele>
        <time>2011-04-19T17:46:38Z</time>
      </trkpt>
      <trkpt lat="32.262766817584634" lon="-2.354364451020956">
        <ele>1029.709228515625</ele>
        <time>2011-04-19T17:46:46Z</time>
      </trkpt>
      <trkpt lat="32.264033993706107" lon="-2.354336120188236">
        <ele>1025.864013671875</ele>
        <time>2011-04-19T17:46:57Z</time>
      </trkpt>
      <trkpt lat="32.264819042757154" lon="-2.35426009632647">
        <ele>1024.422119140625</ele>
        <time>2011-04-19T17:47:04Z</time>
      </trkpt>
      <trkpt lat="32.26556402631104" lon="-2.354402421042323">
        <ele>1024.422119140625</ele>
        <time>2011-04-19T17:47:11Z</time>
      </trkpt>
      <trkpt lat="32.26577902212739" lon="-2.354419771581888">
        <ele>1024.422119140625</ele>
        <time>2011-04-19T17:47:13Z</time>
      </trkpt>
      <trkpt lat="32.266365755349398" lon="-2.354315249249339">
        <ele>1024.422119140625</ele>
        <time>2011-04-19T17:47:20Z</time>
      </trkpt>
      <trkpt lat="32.266686949878931" lon="-2.354299575090408">
        <ele>1024.422119140625</ele>
        <time>2011-04-19T17:47:27Z</time>
      </trkpt>
      <trkpt lat="32.266918290406466" lon="-2.354678437113762">
        <ele>1027.30615234375</ele>
        <time>2011-04-19T17:47:34Z</time>
      </trkpt>
      <trkpt lat="32.267005713656545" lon="-2.355358293280006">
        <ele>1029.228515625</ele>
        <time>2011-04-19T17:47:39Z</time>
      </trkpt>
      <trkpt lat="32.267257422208786" lon="-2.357227876782417">
        <ele>1034.99658203125</ele>
        <time>2011-04-19T17:47:50Z</time>
      </trkpt>
      <trkpt lat="32.267509298399091" lon="-2.358821025118232">
        <ele>1039.80322265625</ele>
        <time>2011-04-19T17:48:00Z</time>
      </trkpt>
      <trkpt lat="32.267697639763355" lon="-2.359983678907156">
        <ele>1042.20654296875</ele>
        <time>2011-04-19T17:48:06Z</time>
      </trkpt>
      <trkpt lat="32.268018331378698" lon="-2.361907912418246">
        <ele>1045.571044921875</ele>
        <time>2011-04-19T17:48:14Z</time>
      </trkpt>
      <trkpt lat="32.268534656614065" lon="-2.364986836910248">
        <ele>1050.377685546875</ele>
        <time>2011-04-19T17:48:26Z</time>
      </trkpt>
      <trkpt lat="32.268950063735247" lon="-2.367437537759543">
        <ele>1049.89697265625</ele>
        <time>2011-04-19T17:48:36Z</time>
      </trkpt>
      <trkpt lat="32.269327081739902" lon="-2.370088817551732">
        <ele>1049.89697265625</ele>
        <time>2011-04-19T17:48:46Z</time>
      </trkpt>
      <trkpt lat="32.269515004009008" lon="-2.372603639960289">
        <ele>1045.09033203125</ele>
        <time>2011-04-19T17:48:56Z</time>
      </trkpt>
      <trkpt lat="32.269710134714842" lon="-2.375494558364153">
        <ele>1034.515869140625</ele>
        <time>2011-04-19T17:49:07Z</time>
      </trkpt>
      <trkpt lat="32.269826559349895" lon="-2.377132046967745">
        <ele>1029.709228515625</ele>
        <time>2011-04-19T17:49:13Z</time>
      </trkpt>
      <trkpt lat="32.26914863102138" lon="-2.380468295887113">
        <ele>1021.0576171875</ele>
        <time>2011-04-19T17:49:25Z</time>
      </trkpt>
      <trkpt lat="32.268148837611079" lon="-2.384617086499929">
        <ele>1012.405517578125</ele>
        <time>2011-04-19T17:49:40Z</time>
      </trkpt>
      <trkpt lat="32.267451798543334" lon="-2.387572294101119">
        <ele>1009.041015625</ele>
        <time>2011-04-19T17:49:51Z</time>
      </trkpt>
      <trkpt lat="32.266884595155716" lon="-2.389978151768446">
        <ele>1006.6376953125</ele>
        <time>2011-04-19T17:50:01Z</time>
      </trkpt>
      <trkpt lat="32.266339436173439" lon="-2.392206648364663">
        <ele>1004.234619140625</ele>
        <time>2011-04-19T17:50:10Z</time>
      </trkpt>
      <trkpt lat="32.265439974144101" lon="-2.396022593602538">
        <ele>1000.38916015625</ele>
        <time>2011-04-19T17:50:24Z</time>
      </trkpt>
      <trkpt lat="32.26458434946835" lon="-2.399633936583996">
        <ele>997.505126953125</ele>
        <time>2011-04-19T17:50:36Z</time>
      </trkpt>
      <trkpt lat="32.26411965675652" lon="-2.401606533676386">
        <ele>996.5439453125</ele>
        <time>2011-04-19T17:50:43Z</time>
      </trkpt>
      <trkpt lat="32.263858141377568" lon="-2.402704982087016">
        <ele>997.0244140625</ele>
        <time>2011-04-19T17:50:48Z</time>
      </trkpt>
      <trkpt lat="32.263328405097127" lon="-2.404808085411787">
        <ele>997.0244140625</ele>
        <time>2011-04-19T17:50:58Z</time>
      </trkpt>
      <trkpt lat="32.262780563905835" lon="-2.407087376341224">
        <ele>996.063232421875</ele>
        <time>2011-04-19T17:51:07Z</time>
      </trkpt>
      <trkpt lat="32.262111436575651" lon="-2.409989107400179">
        <ele>995.101806640625</ele>
        <time>2011-04-19T17:51:17Z</time>
      </trkpt>
      <trkpt lat="32.261130083352327" lon="-2.414404274895787">
        <ele>994.62109375</ele>
        <time>2011-04-19T17:51:32Z</time>
      </trkpt>
      <trkpt lat="32.260660193860531" lon="-2.416410567238927">
        <ele>994.140625</ele>
        <time>2011-04-19T17:51:40Z</time>
      </trkpt>
      <trkpt lat="32.260283175855875" lon="-2.418088624253869">
        <ele>994.62109375</ele>
        <time>2011-04-19T17:51:48Z</time>
      </trkpt>
      <trkpt lat="32.259975727647543" lon="-2.419889057055116">
        <ele>995.58251953125</ele>
        <time>2011-04-19T17:51:56Z</time>
      </trkpt>
      <trkpt lat="32.259832480922341" lon="-2.421425376087427">
        <ele>996.5439453125</ele>
        <time>2011-04-19T17:52:02Z</time>
      </trkpt>
      <trkpt lat="32.259732903912663" lon="-2.424291567876935">
        <ele>997.505126953125</ele>
        <time>2011-04-19T17:52:12Z</time>
      </trkpt>
      <trkpt lat="32.259647324681282" lon="-2.427769051864743">
        <ele>998.947021484375</ele>
        <time>2011-04-19T17:52:23Z</time>
      </trkpt>
      <trkpt lat="32.259590327739716" lon="-2.432758044451475">
        <ele>1000.38916015625</ele>
        <time>2011-04-19T17:52:38Z</time>
      </trkpt>
      <trkpt lat="32.259550262242556" lon="-2.435619374737144">
        <ele>1000.86962890625</ele>
        <time>2011-04-19T17:52:47Z</time>
      </trkpt>
      <trkpt lat="32.25940047763288" lon="-2.437784923240542">
        <ele>1001.350341796875</ele>
        <time>2011-04-19T17:52:55Z</time>
      </trkpt>
      <trkpt lat="32.258927822113037" lon="-2.439136505126953">
        <ele>1000.86962890625</ele>
        <time>2011-04-19T17:53:01Z</time>
      </trkpt>
      <trkpt lat="32.258349638432264" lon="-2.440184326842427">
        <ele>1000.86962890625</ele>
        <time>2011-04-19T17:53:06Z</time>
      </trkpt>
      <trkpt lat="32.257466185837984" lon="-2.440912127494812">
        <ele>1000.38916015625</ele>
        <time>2011-04-19T17:53:11Z</time>
      </trkpt>
      <trkpt lat="32.256434205919504" lon="-2.44155066087842">
        <ele>999.908447265625</ele>
        <time>2011-04-19T17:53:16Z</time>
      </trkpt>
      <trkpt lat="32.254064809530973" lon="-2.442696550861001">
        <ele>998.46630859375</ele>
        <time>2011-04-19T17:53:26Z</time>
      </trkpt>
      <trkpt lat="32.250987812876701" lon="-2.444320879876614">
        <ele>997.0244140625</ele>
        <time>2011-04-19T17:53:38Z</time>
      </trkpt>
      <trkpt lat="32.247596075758338" lon="-2.446085270494223">
        <ele>997.98583984375</ele>
        <time>2011-04-19T17:53:51Z</time>
      </trkpt>
      <trkpt lat="32.245434047654271" lon="-2.447205176576972">
        <ele>997.505126953125</ele>
        <time>2011-04-19T17:54:00Z</time>
      </trkpt>
      <trkpt lat="32.243490451946855" lon="-2.448274120688438">
        <ele>996.063232421875</ele>
        <time>2011-04-19T17:54:09Z</time>
      </trkpt>
      <trkpt lat="32.242410527542233" lon="-2.44887669570744">
        <ele>996.063232421875</ele>
        <time>2011-04-19T17:54:15Z</time>
      </trkpt>
      <trkpt lat="32.24163637496531" lon="-2.449748581275344">
        <ele>994.62109375</ele>
        <time>2011-04-19T17:54:20Z</time>
      </trkpt>
      <trkpt lat="32.240577405318618" lon="-2.451537363231182">
        <ele>994.140625</ele>
        <time>2011-04-19T17:54:28Z</time>
      </trkpt>
      <trkpt lat="32.23848813213408" lon="-2.45510084554553">
        <ele>997.0244140625</ele>
        <time>2011-04-19T17:54:43Z</time>
      </trkpt>
      <trkpt lat="32.236433057114482" lon="-2.458616634830833">
        <ele>1001.350341796875</ele>
        <time>2011-04-19T17:54:57Z</time>
      </trkpt>
      <trkpt lat="32.234401283785701" lon="-2.461897898465395">
        <ele>1004.715087890625</ele>
        <time>2011-04-19T17:55:10Z</time>
      </trkpt>
      <trkpt lat="32.232095589861274" lon="-2.465677130967379">
        <ele>1006.156982421875</ele>
        <time>2011-04-19T17:55:25Z</time>
      </trkpt>
      <trkpt lat="32.23013648763299" lon="-2.469081440940499">
        <ele>1006.156982421875</ele>
        <time>2011-04-19T17:55:39Z</time>
      </trkpt>
      <trkpt lat="32.228008825331926" lon="-2.472856482490897">
        <ele>1002.3115234375</ele>
        <time>2011-04-19T17:55:54Z</time>
      </trkpt>
      <trkpt lat="32.226586416363716" lon="-2.475237781181932">
        <ele>1000.38916015625</ele>
        <time>2011-04-19T17:56:04Z</time>
      </trkpt>
      <trkpt lat="32.225751411169767" lon="-2.477011140435934">
        <ele>999.908447265625</ele>
        <time>2011-04-19T17:56:12Z</time>
      </trkpt>
      <trkpt lat="32.225371627137065" lon="-2.478465735912323">
        <ele>1001.350341796875</ele>
        <time>2011-04-19T17:56:18Z</time>
      </trkpt>
      <trkpt lat="32.224814649671316" lon="-2.481400659307838">
        <ele>1004.715087890625</ele>
        <time>2011-04-19T17:56:29Z</time>
      </trkpt>
      <trkpt lat="32.223962964490056" lon="-2.485950021073222">
        <ele>1005.676513671875</ele>
        <time>2011-04-19T17:56:45Z</time>
      </trkpt>
      <trkpt lat="32.223360724747181" lon="-2.489347038790584">
        <ele>1008.079833984375</ele>
        <time>2011-04-19T17:56:57Z</time>
      </trkpt>
      <trkpt lat="32.222967278212309" lon="-2.491673352196813">
        <ele>1009.521728515625</ele>
        <time>2011-04-19T17:57:06Z</time>
      </trkpt>
      <trkpt lat="32.22247970290482" lon="-2.494237795472145">
        <ele>1010.48291015625</ele>
        <time>2011-04-19T17:57:15Z</time>
      </trkpt>
      <trkpt lat="32.221692390739918" lon="-2.498532012104988">
        <ele>1010.963623046875</ele>
        <time>2011-04-19T17:57:29Z</time>
      </trkpt>
      <trkpt lat="32.220912035554647" lon="-2.502412162721157">
        <ele>1014.328125</ele>
        <time>2011-04-19T17:57:42Z</time>
      </trkpt>
      <trkpt lat="32.220004862174392" lon="-2.506533293053508">
        <ele>1018.17333984375</ele>
        <time>2011-04-19T17:57:56Z</time>
      </trkpt>
      <trkpt lat="32.219022000208497" lon="-2.510804627090693">
        <ele>1019.134765625</ele>
        <time>2011-04-19T17:58:10Z</time>
      </trkpt>
      <trkpt lat="32.218430573120713" lon="-2.513060532510281">
        <ele>1019.134765625</ele>
        <time>2011-04-19T17:58:18Z</time>
      </trkpt>
      <trkpt lat="32.218065625056624" lon="-2.514359392225742">
        <ele>1018.654052734375</ele>
        <time>2011-04-19T17:58:24Z</time>
      </trkpt>
      <trkpt lat="32.217524321749806" lon="-2.516230903565884">
        <ele>1016.7314453125</ele>
        <time>2011-04-19T17:58:32Z</time>
      </trkpt>
      <trkpt lat="32.216575322672725" lon="-2.519602524116635">
        <ele>1014.808837890625</ele>
        <time>2011-04-19T17:58:45Z</time>
      </trkpt>
      <trkpt lat="32.215743670240045" lon="-2.522707348689437">
        <ele>1011.925048828125</ele>
        <time>2011-04-19T17:58:56Z</time>
      </trkpt>
      <trkpt lat="32.214943533763289" lon="-2.525852741673589">
        <ele>1007.118408203125</ele>
        <time>2011-04-19T17:59:06Z</time>
      </trkpt>
      <trkpt lat="32.213859921321273" lon="-2.529908744618297">
        <ele>1000.38916015625</ele>
        <time>2011-04-19T17:59:18Z</time>
      </trkpt>
      <trkpt lat="32.213328257203102" lon="-2.532099355012178">
        <ele>998.947021484375</ele>
        <time>2011-04-19T17:59:25Z</time>
      </trkpt>
      <trkpt lat="32.212801873683929" lon="-2.534267921000719">
        <ele>996.5439453125</ele>
        <time>2011-04-19T17:59:33Z</time>
      </trkpt>
      <trkpt lat="32.212172811850905" lon="-2.536785257980228">
        <ele>997.0244140625</ele>
        <time>2011-04-19T17:59:42Z</time>
      </trkpt>
      <trkpt lat="32.211440904065967" lon="-2.539749769493938">
        <ele>1001.350341796875</ele>
        <time>2011-04-19T17:59:53Z</time>
      </trkpt>
      <trkpt lat="32.210753420367837" lon="-2.542630797252059">
        <ele>997.0244140625</ele>
        <time>2011-04-19T18:00:04Z</time>
      </trkpt>
      <trkpt lat="32.210193257778883" lon="-2.544793328270316">
        <ele>990.29541015625</ele>
        <time>2011-04-19T18:00:12Z</time>
      </trkpt>
      <trkpt lat="32.209571152925491" lon="-2.547336565330625">
        <ele>991.7373046875</ele>
        <time>2011-04-19T18:00:21Z</time>
      </trkpt>
      <trkpt lat="32.208774704486132" lon="-2.550254473462701">
        <ele>991.256591796875</ele>
        <time>2011-04-19T18:00:31Z</time>
      </trkpt>
      <trkpt lat="32.207634011283517" lon="-2.553885597735643">
        <ele>982.604736328125</ele>
        <time>2011-04-19T18:00:43Z</time>
      </trkpt>
      <trkpt lat="32.206299863755703" lon="-2.55808275192976">
        <ele>977.798095703125</ele>
        <time>2011-04-19T18:00:56Z</time>
      </trkpt>
      <trkpt lat="32.205172665417194" lon="-2.561719156801701">
        <ele>979.239990234375</ele>
        <time>2011-04-19T18:01:07Z</time>
      </trkpt>
      <trkpt lat="32.203693427145481" lon="-2.566663809120655">
        <ele>977.798095703125</ele>
        <time>2011-04-19T18:01:22Z</time>
      </trkpt>
      <trkpt lat="32.202511746436357" lon="-2.570567596703768">
        <ele>975.87548828125</ele>
        <time>2011-04-19T18:01:34Z</time>
      </trkpt>
      <trkpt lat="32.201385553926229" lon="-2.574351355433464">
        <ele>972.510986328125</ele>
        <time>2011-04-19T18:01:46Z</time>
      </trkpt>
      <trkpt lat="32.200199095532298" lon="-2.578530572354794">
        <ele>969.146240234375</ele>
        <time>2011-04-19T18:01:59Z</time>
      </trkpt>
      <trkpt lat="32.198633942753077" lon="-2.584090959280729">
        <ele>969.146240234375</ele>
        <time>2011-04-19T18:02:16Z</time>
      </trkpt>
      <trkpt lat="32.197105921804905" lon="-2.589794928207994">
        <ele>969.626953125</ele>
        <time>2011-04-19T18:02:33Z</time>
      </trkpt>
      <trkpt lat="32.195667754858732" lon="-2.595139481127262">
        <ele>968.66552734375</ele>
        <time>2011-04-19T18:02:49Z</time>
      </trkpt>
      <trkpt lat="32.194556649774313" lon="-2.599011333659291">
        <ele>967.7041015625</ele>
        <time>2011-04-19T18:03:01Z</time>
      </trkpt>
      <trkpt lat="32.193664899095893" lon="-2.602302152663469">
        <ele>967.2236328125</ele>
        <time>2011-04-19T18:03:12Z</time>
      </trkpt>
      <trkpt lat="32.19334521330893" lon="-2.603957746177912">
        <ele>966.742919921875</ele>
        <time>2011-04-19T18:03:18Z</time>
      </trkpt>
      <trkpt lat="32.1933847758919" lon="-2.605400606989861">
        <ele>965.301025390625</ele>
        <time>2011-04-19T18:03:23Z</time>
      </trkpt>
      <trkpt lat="32.193525256589055" lon="-2.60877943597734">
        <ele>963.85888671875</ele>
        <time>2011-04-19T18:03:34Z</time>
      </trkpt>
      <trkpt lat="32.193651907145977" lon="-2.611953327432275">
        <ele>964.8203125</ele>
        <time>2011-04-19T18:03:44Z</time>
      </trkpt>
      <trkpt lat="32.1936628036201" lon="-2.613528287038207">
        <ele>962.897705078125</ele>
        <time>2011-04-19T18:03:50Z</time>
      </trkpt>
      <trkpt lat="32.193621145561337" lon="-2.614067746326327">
        <ele>962.897705078125</ele>
        <time>2011-04-19T18:03:52Z</time>
      </trkpt>
      <trkpt lat="32.193079674616456" lon="-2.61544338427484">
        <ele>960.97509765625</ele>
        <time>2011-04-19T18:03:58Z</time>
      </trkpt>
      <trkpt lat="32.192446338012815" lon="-2.616234384477139">
        <ele>957.610595703125</ele>
        <time>2011-04-19T18:04:03Z</time>
      </trkpt>
      <trkpt lat="32.191561125218868" lon="-2.616801587864757">
        <ele>955.20703125</ele>
        <time>2011-04-19T18:04:09Z</time>
      </trkpt>
      <trkpt lat="32.190834749490023" lon="-2.617169637233019">
        <ele>955.20703125</ele>
        <time>2011-04-19T18:04:15Z</time>
      </trkpt>
      <trkpt lat="32.189972000196576" lon="-2.617570878937841">
        <ele>956.16845703125</ele>
        <time>2011-04-19T18:04:23Z</time>
      </trkpt>
      <trkpt lat="32.189067089930177" lon="-2.618002463132143">
        <ele>956.649169921875</ele>
        <time>2011-04-19T18:04:29Z</time>
      </trkpt>
      <trkpt lat="32.187567818909883" lon="-2.618735125288367">
        <ele>957.1298828125</ele>
        <time>2011-04-19T18:04:37Z</time>
      </trkpt>
      <trkpt lat="32.185603100806475" lon="-2.619672724977136">
        <ele>959.533203125</ele>
        <time>2011-04-19T18:04:47Z</time>
      </trkpt>
      <trkpt lat="32.184199802577496" lon="-2.620475459843874">
        <ele>960.013671875</ele>
        <time>2011-04-19T18:04:54Z</time>
      </trkpt>
      <trkpt lat="32.183219119906425" lon="-2.621530406177044">
        <ele>963.37841796875</ele>
        <time>2011-04-19T18:05:00Z</time>
      </trkpt>
      <trkpt lat="32.182654766365886" lon="-2.622700016945601">
        <ele>965.301025390625</ele>
        <time>2011-04-19T18:05:05Z</time>
      </trkpt>
      <trkpt lat="32.18236718326807" lon="-2.624013293534517">
        <ele>965.301025390625</ele>
        <time>2011-04-19T18:05:10Z</time>
      </trkpt>
      <trkpt lat="32.18241504393518" lon="-2.625393206253648">
        <ele>965.301025390625</ele>
        <time>2011-04-19T18:05:15Z</time>
      </trkpt>
      <trkpt lat="32.182744452729821" lon="-2.628262415528297">
        <ele>964.339599609375</ele>
        <time>2011-04-19T18:05:25Z</time>
      </trkpt>
      <trkpt lat="32.183047542348504" lon="-2.631798069924116">
        <ele>960.97509765625</ele>
        <time>2011-04-19T18:05:37Z</time>
      </trkpt>
      <trkpt lat="32.183411065489054" lon="-2.635873518884182">
        <ele>954.245849609375</ele>
        <time>2011-04-19T18:05:50Z</time>
      </trkpt>
      <trkpt lat="32.18355992808938" lon="-2.638326147571206">
        <ele>951.36181640625</ele>
        <time>2011-04-19T18:05:58Z</time>
      </trkpt>
      <trkpt lat="32.183144688606262" lon="-2.639874452725053">
        <ele>950.881103515625</ele>
        <time>2011-04-19T18:06:03Z</time>
      </trkpt>
      <trkpt lat="32.182328542694449" lon="-2.642933344468474">
        <ele>956.649169921875</ele>
        <time>2011-04-19T18:06:13Z</time>
      </trkpt>
      <trkpt lat="32.181237554177642" lon="-2.646931763738394">
        <ele>955.687744140625</ele>
        <time>2011-04-19T18:06:26Z</time>
      </trkpt>
      <trkpt lat="32.180245136842132" lon="-2.650488708168268">
        <ele>957.1298828125</ele>
        <time>2011-04-19T18:06:37Z</time>
      </trkpt>
      <trkpt lat="32.179777342826128" lon="-2.652193754911423">
        <ele>960.97509765625</ele>
        <time>2011-04-19T18:06:43Z</time>
      </trkpt>
      <trkpt lat="32.179481042549014" lon="-2.65326177701354">
        <ele>963.37841796875</ele>
        <time>2011-04-19T18:06:48Z</time>
      </trkpt>
      <trkpt lat="32.178895231336355" lon="-2.655334621667862">
        <ele>963.37841796875</ele>
        <time>2011-04-19T18:06:57Z</time>
      </trkpt>
      <trkpt lat="32.178209591656923" lon="-2.657756404951215">
        <ele>960.494384765625</ele>
        <time>2011-04-19T18:07:06Z</time>
      </trkpt>
      <trkpt lat="32.177263526245952" lon="-2.661109333857894">
        <ele>954.245849609375</ele>
        <time>2011-04-19T18:07:17Z</time>
      </trkpt>
      <trkpt lat="32.17586207203567" lon="-2.666227407753468">
        <ele>952.322998046875</ele>
        <time>2011-04-19T18:07:33Z</time>
      </trkpt>
      <trkpt lat="32.175021953880787" lon="-2.669313540682197">
        <ele>959.533203125</ele>
        <time>2011-04-19T18:07:43Z</time>
      </trkpt>
      <trkpt lat="32.174142189323902" lon="-2.672499502077699">
        <ele>954.245849609375</ele>
        <time>2011-04-19T18:07:53Z</time>
      </trkpt>
      <trkpt lat="32.173110879957676" lon="-2.676219390705228">
        <ele>950.400634765625</ele>
        <time>2011-04-19T18:08:05Z</time>
      </trkpt>
      <trkpt lat="32.171958703547716" lon="-2.680352004244924">
        <ele>956.649169921875</ele>
        <time>2011-04-19T18:08:19Z</time>
      </trkpt>
      <trkpt lat="32.170943487435579" lon="-2.684640605002642">
        <ele>961.9365234375</ele>
        <time>2011-04-19T18:08:33Z</time>
      </trkpt>
      <trkpt lat="32.170034805312753" lon="-2.688197046518326">
        <ele>955.687744140625</ele>
        <time>2011-04-19T18:08:44Z</time>
      </trkpt>
      <trkpt lat="32.168684815987945" lon="-2.693498935550451">
        <ele>947.5166015625</ele>
        <time>2011-04-19T18:09:00Z</time>
      </trkpt>
      <trkpt lat="32.167396517470479" lon="-2.698767380788922">
        <ele>953.76513671875</ele>
        <time>2011-04-19T18:09:16Z</time>
      </trkpt>
      <trkpt lat="32.16638364829123" lon="-2.70278281532228">
        <ele>954.726318359375</ele>
        <time>2011-04-19T18:09:29Z</time>
      </trkpt>
      <trkpt lat="32.165499273687601" lon="-2.706333892419934">
        <ele>953.76513671875</ele>
        <time>2011-04-19T18:09:41Z</time>
      </trkpt>
      <trkpt lat="32.164614479988813" lon="-2.709988234564662">
        <ele>949.919921875</ele>
        <time>2011-04-19T18:09:53Z</time>
      </trkpt>
      <trkpt lat="32.163434308022261" lon="-2.714274236932397">
        <ele>946.07470703125</ele>
        <time>2011-04-19T18:10:07Z</time>
      </trkpt>
      <trkpt lat="32.162233013659716" lon="-2.718351613730192">
        <ele>935.980712890625</ele>
        <time>2011-04-19T18:10:20Z</time>
      </trkpt>
      <trkpt lat="32.161245793104172" lon="-2.721684509888291">
        <ele>934.05810546875</ele>
        <time>2011-04-19T18:10:31Z</time>
      </trkpt>
      <trkpt lat="32.159884152933955" lon="-2.726167319342494">
        <ele>940.787353515625</ele>
        <time>2011-04-19T18:10:46Z</time>
      </trkpt>
      <trkpt lat="32.1582274697721" lon="-2.731762323528528">
        <ele>944.152099609375</ele>
        <time>2011-04-19T18:11:04Z</time>
      </trkpt>
      <trkpt lat="32.156982757151127" lon="-2.735851937904954">
        <ele>945.593994140625</ele>
        <time>2011-04-19T18:11:17Z</time>
      </trkpt>
      <trkpt lat="32.155467476695776" lon="-2.740747556090355">
        <ele>942.710205078125</ele>
        <time>2011-04-19T18:11:32Z</time>
      </trkpt>
      <trkpt lat="32.15396074578166" lon="-2.745598247274756">
        <ele>936.94189453125</ele>
        <time>2011-04-19T18:11:46Z</time>
      </trkpt>
      <trkpt lat="32.152570355683565" lon="-2.750061610713601">
        <ele>930.212890625</ele>
        <time>2011-04-19T18:11:59Z</time>
      </trkpt>
      <trkpt lat="32.151752198114991" lon="-2.752746753394604">
        <ele>926.848388671875</ele>
        <time>2011-04-19T18:12:08Z</time>
      </trkpt>
      <trkpt lat="32.15145262889564" lon="-2.753786528483033">
        <ele>925.886962890625</ele>
        <time>2011-04-19T18:12:13Z</time>
      </trkpt>
      <trkpt lat="32.15132019482553" lon="-2.754245856776834">
        <ele>925.886962890625</ele>
        <time>2011-04-19T18:12:17Z</time>
      </trkpt>
      <trkpt lat="32.151173679158092" lon="-2.754754470661283">
        <ele>925.40625</ele>
        <time>2011-04-19T18:12:23Z</time>
      </trkpt>
      <trkpt lat="32.150937896221876" lon="-2.75557279586792">
        <ele>924.92578125</ele>
        <time>2011-04-19T18:12:28Z</time>
      </trkpt>
      <trkpt lat="32.150568002834916" lon="-2.756856316700578">
        <ele>924.92578125</ele>
        <time>2011-04-19T18:12:34Z</time>
      </trkpt>
      <trkpt lat="32.150037763640285" lon="-2.758690696209669">
        <ele>924.445068359375</ele>
        <time>2011-04-19T18:12:41Z</time>
      </trkpt>
      <trkpt lat="32.149352375417948" lon="-2.761035533621907">
        <ele>924.445068359375</ele>
        <time>2011-04-19T18:12:49Z</time>
      </trkpt>
      <trkpt lat="32.148173796012998" lon="-2.765208296477795">
        <ele>925.40625</ele>
        <time>2011-04-19T18:13:03Z</time>
      </trkpt>
      <trkpt lat="32.147123543545604" lon="-2.769011836498976">
        <ele>924.92578125</ele>
        <time>2011-04-19T18:13:15Z</time>
      </trkpt>
      <trkpt lat="32.146091647446156" lon="-2.772792829200625">
        <ele>924.445068359375</ele>
        <time>2011-04-19T18:13:27Z</time>
      </trkpt>
      <trkpt lat="32.145211463794112" lon="-2.776017766445875">
        <ele>922.522216796875</ele>
        <time>2011-04-19T18:13:38Z</time>
      </trkpt>
      <trkpt lat="32.144911726936698" lon="-2.777116214856505">
        <ele>921.560791015625</ele>
        <time>2011-04-19T18:13:43Z</time>
      </trkpt>
      <trkpt lat="32.144326670095325" lon="-2.779230885207653">
        <ele>920.118896484375</ele>
        <time>2011-04-19T18:13:52Z</time>
      </trkpt>
      <trkpt lat="32.143641617149115" lon="-2.78168267570436">
        <ele>919.15771484375</ele>
        <time>2011-04-19T18:14:01Z</time>
      </trkpt>
      <trkpt lat="32.14303988032043" lon="-2.783786868676543">
        <ele>919.15771484375</ele>
        <time>2011-04-19T18:14:09Z</time>
      </trkpt>
      <trkpt lat="32.142337895929813" lon="-2.786213094368577">
        <ele>919.15771484375</ele>
        <time>2011-04-19T18:14:18Z</time>
      </trkpt>
      <trkpt lat="32.141339359804988" lon="-2.78979049064219">
        <ele>918.677001953125</ele>
        <time>2011-04-19T18:14:30Z</time>
      </trkpt>
      <trkpt lat="32.139692986384034" lon="-2.794663142412901">
        <ele>917.715576171875</ele>
        <time>2011-04-19T18:14:46Z</time>
      </trkpt>
      <trkpt lat="32.138553047552705" lon="-2.798024788498879">
        <ele>916.75439453125</ele>
        <time>2011-04-19T18:14:57Z</time>
      </trkpt>
      <trkpt lat="32.137610334903002" lon="-2.800814285874367">
        <ele>915.793212890625</ele>
        <time>2011-04-19T18:15:06Z</time>
      </trkpt>
      <trkpt lat="32.136285491287708" lon="-2.804443817585707">
        <ele>915.793212890625</ele>
        <time>2011-04-19T18:15:18Z</time>
      </trkpt>
      <trkpt lat="32.134443316608667" lon="-2.808613814413548">
        <ele>915.793212890625</ele>
        <time>2011-04-19T18:15:32Z</time>
      </trkpt>
      <trkpt lat="32.132186405360699" lon="-2.814002372324467">
        <ele>918.1962890625</ele>
        <time>2011-04-19T18:15:50Z</time>
      </trkpt>
      <trkpt lat="32.130854772403836" lon="-2.817111471667886">
        <ele>918.677001953125</ele>
        <time>2011-04-19T18:16:01Z</time>
      </trkpt>
      <trkpt lat="32.130547491833568" lon="-2.818846441805363">
        <ele>918.677001953125</ele>
        <time>2011-04-19T18:16:07Z</time>
      </trkpt>
      <trkpt lat="32.130250940099359" lon="-2.821324048563838">
        <ele>918.677001953125</ele>
        <time>2011-04-19T18:16:15Z</time>
      </trkpt>
      <trkpt lat="32.129663703963161" lon="-2.825272344052792">
        <ele>918.1962890625</ele>
        <time>2011-04-19T18:16:27Z</time>
      </trkpt>
      <trkpt lat="32.12897764518857" lon="-2.830221941694617">
        <ele>919.638427734375</ele>
        <time>2011-04-19T18:16:42Z</time>
      </trkpt>
      <trkpt lat="32.128689810633659" lon="-2.83392833545804">
        <ele>914.831787109375</ele>
        <time>2011-04-19T18:16:54Z</time>
      </trkpt>
      <trkpt lat="32.128482861444354" lon="-2.837110189720988">
        <ele>909.06396484375</ele>
        <time>2011-04-19T18:17:04Z</time>
      </trkpt>
      <trkpt lat="32.128197541460395" lon="-2.841564249247313">
        <ele>898.969970703125</ele>
        <time>2011-04-19T18:17:17Z</time>
      </trkpt>
      <trkpt lat="32.127856900915504" lon="-2.846943167969585">
        <ele>891.279296875</ele>
        <time>2011-04-19T18:17:32Z</time>
      </trkpt>
      <trkpt lat="32.127630589529872" lon="-2.850501788780093">
        <ele>885.511474609375</ele>
        <time>2011-04-19T18:17:42Z</time>
      </trkpt>
      <trkpt lat="32.127368487417698" lon="-2.854799190536141">
        <ele>880.224365234375</ele>
        <time>2011-04-19T18:17:55Z</time>
      </trkpt>
      <trkpt lat="32.127124574035406" lon="-2.858327133581042">
        <ele>877.821044921875</ele>
        <time>2011-04-19T18:18:06Z</time>
      </trkpt>
      <trkpt lat="32.126501379534602" lon="-2.860989645123482">
        <ele>879.262939453125</ele>
        <time>2011-04-19T18:18:15Z</time>
      </trkpt>
      <trkpt lat="32.125846166163683" lon="-2.864038646221161">
        <ele>880.705078125</ele>
        <time>2011-04-19T18:18:25Z</time>
      </trkpt>
      <trkpt lat="32.12496162392199" lon="-2.868210906162858">
        <ele>885.031005859375</ele>
        <time>2011-04-19T18:18:38Z</time>
      </trkpt>
      <trkpt lat="32.124218149110675" lon="-2.871721414849162">
        <ele>886.472900390625</ele>
        <time>2011-04-19T18:18:49Z</time>
      </trkpt>
      <trkpt lat="32.123566623777151" lon="-2.873956868425012">
        <ele>892.240966796875</ele>
        <time>2011-04-19T18:18:56Z</time>
      </trkpt>
      <trkpt lat="32.122763637453318" lon="-2.875604666769505">
        <ele>902.33447265625</ele>
        <time>2011-04-19T18:19:02Z</time>
      </trkpt>
      <trkpt lat="32.121191276237369" lon="-2.877799635753036">
        <ele>915.793212890625</ele>
        <time>2011-04-19T18:19:11Z</time>
      </trkpt>
      <trkpt lat="32.119690496474504" lon="-2.879862422123551">
        <ele>925.40625</ele>
        <time>2011-04-19T18:19:20Z</time>
      </trkpt>
      <trkpt lat="32.118259118869901" lon="-2.881855219602585">
        <ele>930.693603515625</ele>
        <time>2011-04-19T18:19:30Z</time>
      </trkpt>
      <trkpt lat="32.117363177239895" lon="-2.882544714957476">
        <ele>934.538818359375</ele>
        <time>2011-04-19T18:19:35Z</time>
      </trkpt>
      <trkpt lat="32.116147801280022" lon="-2.882986105978489">
        <ele>940.306884765625</ele>
        <time>2011-04-19T18:19:41Z</time>
      </trkpt>
      <trkpt lat="32.114007985219359" lon="-2.883594464510679">
        <ele>949.919921875</ele>
        <time>2011-04-19T18:19:52Z</time>
      </trkpt>
      <trkpt lat="32.112767798826098" lon="-2.884106179699302">
        <ele>946.07470703125</ele>
        <time>2011-04-19T18:19:59Z</time>
      </trkpt>
      <trkpt lat="32.111828606575727" lon="-2.884954595938325">
        <ele>944.632568359375</ele>
        <time>2011-04-19T18:20:05Z</time>
      </trkpt>
      <trkpt lat="32.110922187566757" lon="-2.886099899187684">
        <ele>941.748779296875</ele>
        <time>2011-04-19T18:20:11Z</time>
      </trkpt>
      <trkpt lat="32.109259134158492" lon="-2.888312134891748">
        <ele>935.01953125</ele>
        <time>2011-04-19T18:20:21Z</time>
      </trkpt>
      <trkpt lat="32.107082437723875" lon="-2.891167933121324">
        <ele>924.92578125</ele>
        <time>2011-04-19T18:20:33Z</time>
      </trkpt>
      <trkpt lat="32.104423362761736" lon="-2.894729990512133">
        <ele>917.715576171875</ele>
        <time>2011-04-19T18:20:47Z</time>
      </trkpt>
      <trkpt lat="32.102175168693066" lon="-2.897792905569077">
        <ele>917.235107421875</ele>
        <time>2011-04-19T18:20:59Z</time>
      </trkpt>
      <trkpt lat="32.099580382928252" lon="-2.901266869157553">
        <ele>916.75439453125</ele>
        <time>2011-04-19T18:21:13Z</time>
      </trkpt>
      <trkpt lat="32.097017448395491" lon="-2.904588617384434">
        <ele>917.235107421875</ele>
        <time>2011-04-19T18:21:26Z</time>
      </trkpt>
      <trkpt lat="32.094471445307136" lon="-2.907909862697125">
        <ele>915.793212890625</ele>
        <time>2011-04-19T18:21:39Z</time>
      </trkpt>
      <trkpt lat="32.092321906238794" lon="-2.91061176918447">
        <ele>913.870361328125</ele>
        <time>2011-04-19T18:21:50Z</time>
      </trkpt>
      <trkpt lat="32.089760648086667" lon="-2.913135727867484">
        <ele>911.46728515625</ele>
        <time>2011-04-19T18:22:02Z</time>
      </trkpt>
      <trkpt lat="32.087655197829008" lon="-2.915221648290753">
        <ele>907.621826171875</ele>
        <time>2011-04-19T18:22:12Z</time>
      </trkpt>
      <trkpt lat="32.08619331009686" lon="-2.916685966774821">
        <ele>902.33447265625</ele>
        <time>2011-04-19T18:22:20Z</time>
      </trkpt>
      <trkpt lat="32.084828484803438" lon="-2.91802279651165">
        <ele>900.412109375</ele>
        <time>2011-04-19T18:22:28Z</time>
      </trkpt>
      <trkpt lat="32.082929145544767" lon="-2.919906042516232">
        <ele>905.69921875</ele>
        <time>2011-04-19T18:22:39Z</time>
      </trkpt>
      <trkpt lat="32.080985801294446" lon="-2.92182918637991">
        <ele>903.2958984375</ele>
        <time>2011-04-19T18:22:49Z</time>
      </trkpt>
      <trkpt lat="32.078947322443128" lon="-2.923781331628561">
        <ele>902.815185546875</ele>
        <time>2011-04-19T18:22:59Z</time>
      </trkpt>
      <trkpt lat="32.077394239604473" lon="-2.925229221582413">
        <ele>900.892578125</ele>
        <time>2011-04-19T18:23:07Z</time>
      </trkpt>
      <trkpt lat="32.076194118708372" lon="-2.925659297034144">
        <ele>899.45068359375</ele>
        <time>2011-04-19T18:23:12Z</time>
      </trkpt>
      <trkpt lat="32.074110042303801" lon="-2.925987113267183">
        <ele>898.969970703125</ele>
        <time>2011-04-19T18:23:20Z</time>
      </trkpt>
      <trkpt lat="32.071086186915636" lon="-2.926429845392704">
        <ele>898.969970703125</ele>
        <time>2011-04-19T18:23:31Z</time>
      </trkpt>
      <trkpt lat="32.067291028797626" lon="-2.926982799544931">
        <ele>895.60546875</ele>
        <time>2011-04-19T18:23:44Z</time>
      </trkpt>
      <trkpt lat="32.065147943794727" lon="-2.927369624376297">
        <ele>891.760009765625</ele>
        <time>2011-04-19T18:23:52Z</time>
      </trkpt>
      <trkpt lat="32.063905410468578" lon="-2.927810261026025">
        <ele>888.3955078125</ele>
        <time>2011-04-19T18:23:57Z</time>
      </trkpt>
      <trkpt lat="32.061419757083058" lon="-2.928999653086066">
        <ele>882.627685546875</ele>
        <time>2011-04-19T18:24:07Z</time>
      </trkpt>
      <trkpt lat="32.058730507269502" lon="-2.930252915248275">
        <ele>878.782470703125</ele>
        <time>2011-04-19T18:24:18Z</time>
      </trkpt>
      <trkpt lat="32.057754769921303" lon="-2.931123711168766">
        <ele>877.340576171875</ele>
        <time>2011-04-19T18:24:23Z</time>
      </trkpt>
      <trkpt lat="32.057039542123675" lon="-2.932201121002436">
        <ele>880.224365234375</ele>
        <time>2011-04-19T18:24:28Z</time>
      </trkpt>
      <trkpt lat="32.056576693430543" lon="-2.93354457244277">
        <ele>884.55029296875</ele>
        <time>2011-04-19T18:24:34Z</time>
      </trkpt>
      <trkpt lat="32.056098757311702" lon="-2.935829060152173">
        <ele>888.3955078125</ele>
        <time>2011-04-19T18:24:43Z</time>
      </trkpt>
      <trkpt lat="32.055585701018572" lon="-2.938908990472555">
        <ele>893.2021484375</ele>
        <time>2011-04-19T18:24:54Z</time>
      </trkpt>
      <trkpt lat="32.0550143904984" lon="-2.942532990127802">
        <ele>897.528076171875</ele>
        <time>2011-04-19T18:25:06Z</time>
      </trkpt>
      <trkpt lat="32.05433621071279" lon="-2.947625499218702">
        <ele>898.969970703125</ele>
        <time>2011-04-19T18:25:22Z</time>
      </trkpt>
      <trkpt lat="32.054084250703454" lon="-2.949971007183194">
        <ele>896.086181640625</ele>
        <time>2011-04-19T18:25:29Z</time>
      </trkpt>
      <trkpt lat="32.053716871887445" lon="-2.953601125627756">
        <ele>901.373291015625</ele>
        <time>2011-04-19T18:25:40Z</time>
      </trkpt>
      <trkpt lat="32.053532553836703" lon="-2.955556372180581">
        <ele>910.025146484375</ele>
        <time>2011-04-19T18:25:47Z</time>
      </trkpt>
      <trkpt lat="32.053124690428376" lon="-2.959432834759355">
        <ele>916.75439453125</ele>
        <time>2011-04-19T18:26:01Z</time>
      </trkpt>
      <trkpt lat="32.052656812593341" lon="-2.961073676124215">
        <ele>918.1962890625</ele>
        <time>2011-04-19T18:26:07Z</time>
      </trkpt>
      <trkpt lat="32.051373459398746" lon="-2.964763473719358">
        <ele>919.15771484375</ele>
        <time>2011-04-19T18:26:20Z</time>
      </trkpt>
      <trkpt lat="32.049905201420188" lon="-2.969188196584582">
        <ele>923.483642578125</ele>
        <time>2011-04-19T18:26:35Z</time>
      </trkpt>
      <trkpt lat="32.049024095758796" lon="-2.971465643495321">
        <ele>923.483642578125</ele>
        <time>2011-04-19T18:26:43Z</time>
      </trkpt>
      <trkpt lat="32.047873511910439" lon="-2.973260460421443">
        <ele>921.560791015625</ele>
        <time>2011-04-19T18:26:50Z</time>
      </trkpt>
      <trkpt lat="32.045502942055464" lon="-2.976826708763838">
        <ele>912.428466796875</ele>
        <time>2011-04-19T18:27:04Z</time>
      </trkpt>
      <trkpt lat="32.043877355754375" lon="-2.979342034086585">
        <ele>901.373291015625</ele>
        <time>2011-04-19T18:27:14Z</time>
      </trkpt>
      <trkpt lat="32.042351514101028" lon="-2.981888456270099">
        <ele>890.318115234375</ele>
        <time>2011-04-19T18:27:24Z</time>
      </trkpt>
      <trkpt lat="32.042041718959808" lon="-2.983361994847655">
        <ele>887.43408203125</ele>
        <time>2011-04-19T18:27:29Z</time>
      </trkpt>
      <trkpt lat="32.041672160848975" lon="-2.986543010920286">
        <ele>883.5888671875</ele>
        <time>2011-04-19T18:27:39Z</time>
      </trkpt>
      <trkpt lat="32.041140999644995" lon="-2.990519972518086">
        <ele>882.627685546875</ele>
        <time>2011-04-19T18:27:52Z</time>
      </trkpt>
      <trkpt lat="32.040497185662389" lon="-2.995898555964232">
        <ele>877.340576171875</ele>
        <time>2011-04-19T18:28:09Z</time>
      </trkpt>
      <trkpt lat="32.039835853502154" lon="-3.000768441706896">
        <ele>876.85986328125</ele>
        <time>2011-04-19T18:28:24Z</time>
      </trkpt>
      <trkpt lat="32.039300920441747" lon="-3.005024185404182">
        <ele>872.53369140625</ele>
        <time>2011-04-19T18:28:38Z</time>
      </trkpt>
      <trkpt lat="32.038722317665815" lon="-3.009620988741517">
        <ele>866.765869140625</ele>
        <time>2011-04-19T18:28:53Z</time>
      </trkpt>
      <trkpt lat="32.038153689354658" lon="-3.01391126587987">
        <ele>864.362548828125</ele>
        <time>2011-04-19T18:29:07Z</time>
      </trkpt>
      <trkpt lat="32.037466457113624" lon="-3.018997740000486">
        <ele>860.03662109375</ele>
        <time>2011-04-19T18:29:23Z</time>
      </trkpt>
      <trkpt lat="32.036873269826174" lon="-3.023442327976227">
        <ele>855.22998046875</ele>
        <time>2011-04-19T18:29:37Z</time>
      </trkpt>
      <trkpt lat="32.036331798881292" lon="-3.027500677853823">
        <ele>853.307373046875</ele>
        <time>2011-04-19T18:29:50Z</time>
      </trkpt>
      <trkpt lat="32.036052597686648" lon="-3.029611743986607">
        <ele>853.307373046875</ele>
        <time>2011-04-19T18:29:58Z</time>
      </trkpt>
      <trkpt lat="32.035649260506034" lon="-3.032654542475939">
        <ele>852.82666015625</ele>
        <time>2011-04-19T18:30:11Z</time>
      </trkpt>
      <trkpt lat="32.035242151468992" lon="-3.035563481971622">
        <ele>851.384765625</ele>
        <time>2011-04-19T18:30:24Z</time>
      </trkpt>
      <trkpt lat="32.034996896982193" lon="-3.037524176761508">
        <ele>852.345947265625</ele>
        <time>2011-04-19T18:30:33Z</time>
      </trkpt>
      <trkpt lat="32.034599594771862" lon="-3.040432864800096">
        <ele>853.307373046875</ele>
        <time>2011-04-19T18:30:47Z</time>
      </trkpt>
      <trkpt lat="32.034316537901759" lon="-3.042555246502161">
        <ele>856.191162109375</ele>
        <time>2011-04-19T18:30:58Z</time>
      </trkpt>
      <trkpt lat="32.034361883997917" lon="-3.043941194191575">
        <ele>859.555908203125</ele>
        <time>2011-04-19T18:31:06Z</time>
      </trkpt>
      <trkpt lat="32.034537317231297" lon="-3.044751053676009">
        <ele>861.95947265625</ele>
        <time>2011-04-19T18:31:12Z</time>
      </trkpt>
      <trkpt lat="32.034817021340132" lon="-3.045542472973466">
        <ele>865.8046875</ele>
        <time>2011-04-19T18:31:20Z</time>
      </trkpt>
      <trkpt lat="32.035291688516736" lon="-3.046658942475915">
        <ele>868.6884765625</ele>
        <time>2011-04-19T18:31:29Z</time>
      </trkpt>
      <trkpt lat="32.035826873034239" lon="-3.048000046983361">
        <ele>873.9755859375</ele>
        <time>2011-04-19T18:31:40Z</time>
      </trkpt>
      <trkpt lat="32.036135997623205" lon="-3.048785431310535">
        <ele>874.93701171875</ele>
        <time>2011-04-19T18:31:48Z</time>
      </trkpt>
      <trkpt lat="32.036485187709332" lon="-3.049563691020012">
        <ele>870.13037109375</ele>
        <time>2011-04-19T18:31:58Z</time>
      </trkpt>
      <trkpt lat="32.036523325368762" lon="-3.049676679074764">
        <ele>871.091796875</ele>
        <time>2011-04-19T18:32:05Z</time>
      </trkpt>
      <trkpt lat="32.03657403588295" lon="-3.049842389300466">
        <ele>870.611083984375</ele>
        <time>2011-04-19T18:32:10Z</time>
      </trkpt>
      <trkpt lat="32.036864468827844" lon="-3.049977589398623">
        <ele>869.169189453125</ele>
        <time>2011-04-19T18:32:17Z</time>
      </trkpt>
      <trkpt lat="32.037527477368712" lon="-3.049696544185281">
        <ele>866.765869140625</ele>
        <time>2011-04-19T18:32:28Z</time>
      </trkpt>
      <trkpt lat="32.038243794813752" lon="-3.04931877180934">
        <ele>864.362548828125</ele>
        <time>2011-04-19T18:32:39Z</time>
      </trkpt>
      <trkpt lat="32.038725754246116" lon="-3.049065219238401">
        <ele>863.8818359375</ele>
        <time>2011-04-19T18:32:49Z</time>
      </trkpt>
      <trkpt lat="32.038916861638427" lon="-3.049006629735231">
        <ele>862.43994140625</ele>
        <time>2011-04-19T18:33:00Z</time>
      </trkpt>
      <trkpt lat="32.03900059685111" lon="-3.049102183431387">
        <ele>862.43994140625</ele>
        <time>2011-04-19T18:33:07Z</time>
      </trkpt>
      <trkpt lat="32.039103358983994" lon="-3.049354981631041">
        <ele>863.4013671875</ele>
        <time>2011-04-19T18:33:18Z</time>
      </trkpt>
      <trkpt lat="32.039064550772309" lon="-3.049454726278782">
        <ele>869.64990234375</ele>
        <time>2011-04-19T18:33:49Z</time>
      </trkpt>
      <trkpt lat="32.038870342075825" lon="-3.049542652443051">
        <ele>874.456298828125</ele>
        <time>2011-04-19T18:34:20Z</time>
      </trkpt>
      <trkpt lat="32.03861896879971" lon="-3.049646336585283">
        <ele>872.53369140625</ele>
        <time>2011-04-19T18:34:28Z</time>
      </trkpt>
      <trkpt lat="32.038129465654492" lon="-3.049835599958897">
        <ele>867.72705078125</ele>
        <time>2011-04-19T18:34:39Z</time>
      </trkpt>
      <trkpt lat="32.037651697173715" lon="-3.050023186951876">
        <ele>868.207763671875</ele>
        <time>2011-04-19T18:34:51Z</time>
      </trkpt>
      <trkpt lat="32.037260346114635" lon="-3.050224520266056">
        <ele>868.6884765625</ele>
        <time>2011-04-19T18:35:02Z</time>
      </trkpt>
      <trkpt lat="32.036883495748043" lon="-3.050409089773893">
        <ele>869.169189453125</ele>
        <time>2011-04-19T18:35:14Z</time>
      </trkpt>
      <trkpt lat="32.036843933165073" lon="-3.050536662340164">
        <ele>864.362548828125</ele>
        <time>2011-04-19T18:35:22Z</time>
      </trkpt>
      <trkpt lat="32.036974942311645" lon="-3.050657697021961">
        <ele>862.43994140625</ele>
        <time>2011-04-19T18:35:32Z</time>
      </trkpt>
      <trkpt lat="32.037060353904963" lon="-3.050612350925803">
        <ele>863.8818359375</ele>
        <time>2011-04-19T18:35:40Z</time>
      </trkpt>
      <trkpt lat="32.037109723314643" lon="-3.050481844693422">
        <ele>863.4013671875</ele>
        <time>2011-04-19T18:35:47Z</time>
      </trkpt>
      <trkpt lat="32.037001345306635" lon="-3.05041478946805">
        <ele>868.207763671875</ele>
        <time>2011-04-19T18:36:52Z</time>
      </trkpt>
      <trkpt lat="32.036864049732685" lon="-3.0504035577178">
        <ele>858.114013671875</ele>
        <time>2011-04-19T18:37:04Z</time>
      </trkpt>
      <trkpt lat="32.036646539345384" lon="-3.050018744543195">
        <ele>859.0751953125</ele>
        <time>2011-04-19T18:37:14Z</time>
      </trkpt>
      <trkpt lat="32.036537742242217" lon="-3.049718169495463">
        <ele>865.8046875</ele>
        <time>2011-04-19T18:37:24Z</time>
      </trkpt>
      <trkpt lat="32.036385359242558" lon="-3.04941994138062">
        <ele>867.72705078125</ele>
        <time>2011-04-19T18:37:36Z</time>
      </trkpt>
      <trkpt lat="32.036057878285646" lon="-3.049119533970952">
        <ele>851.384765625</ele>
        <time>2011-04-19T18:41:13Z</time>
      </trkpt>
      <trkpt lat="32.035901388153434" lon="-3.049073182046413">
        <ele>868.207763671875</ele>
        <time>2011-04-19T18:47:29Z</time>
      </trkpt>
      <trkpt lat="32.035734755918384" lon="-3.049351293593645">
        <ele>953.76513671875</ele>
        <time>2011-04-19T18:52:40Z</time>
      </trkpt>
      <trkpt lat="32.035871045663953" lon="-3.049325477331877">
        <ele>908.102783203125</ele>
        <time>2011-04-19T18:53:54Z</time>
      </trkpt>
      <trkpt lat="32.035991661250591" lon="-3.049415834248066">
        <ele>901.85400390625</ele>
        <time>2011-04-19T18:54:00Z</time>
      </trkpt>
      <trkpt lat="32.036194335669279" lon="-3.049840461462736">
        <ele>894.64404296875</ele>
        <time>2011-04-19T18:54:09Z</time>
      </trkpt>
      <trkpt lat="32.036491222679615" lon="-3.050005668774247">
        <ele>892.240966796875</ele>
        <time>2011-04-19T18:54:16Z</time>
      </trkpt>
      <trkpt lat="32.036645784974098" lon="-3.049982283264399">
        <ele>891.279296875</ele>
        <time>2011-04-19T18:54:19Z</time>
      </trkpt>
      <trkpt lat="32.03739789314568" lon="-3.049637787044048">
        <ele>878.782470703125</ele>
        <time>2011-04-19T18:54:32Z</time>
      </trkpt>
      <trkpt lat="32.037938861176372" lon="-3.049378283321858">
        <ele>867.24658203125</ele>
        <time>2011-04-19T18:54:42Z</time>
      </trkpt>
      <trkpt lat="32.038038019090891" lon="-3.049332937225699">
        <ele>860.03662109375</ele>
        <time>2011-04-19T18:54:48Z</time>
      </trkpt>
      <trkpt lat="32.038243794813752" lon="-3.0492655467242">
        <ele>836.003662109375</ele>
        <time>2011-04-19T18:55:23Z</time>
      </trkpt>
      <trkpt lat="32.038500532507896" lon="-3.049133699387312">
        <ele>833.600341796875</ele>
        <time>2011-04-19T18:55:31Z</time>
      </trkpt>
      <trkpt lat="32.038775626569986" lon="-3.049009144306183">
        <ele>829.755126953125</ele>
        <time>2011-04-19T18:55:43Z</time>
      </trkpt>
      <trkpt lat="32.038697339594364" lon="-3.049078546464443">
        <ele>902.815185546875</ele>
        <time>2011-04-19T18:59:29Z</time>
      </trkpt>
      <trkpt lat="32.038321495056152" lon="-3.049244759604335">
        <ele>885.9921875</ele>
        <time>2011-04-19T19:00:25Z</time>
      </trkpt>
      <trkpt lat="32.037797123193741" lon="-3.049479788169265">
        <ele>892.240966796875</ele>
        <time>2011-04-19T19:00:35Z</time>
      </trkpt>
      <trkpt lat="32.037132522091269" lon="-3.049792852252722">
        <ele>899.45068359375</ele>
        <time>2011-04-19T19:00:44Z</time>
      </trkpt>
      <trkpt lat="32.036524247378111" lon="-3.050077585503459">
        <ele>904.73779296875</ele>
        <time>2011-04-19T19:00:53Z</time>
      </trkpt>
      <trkpt lat="32.036392651498318" lon="-3.050140868872404">
        <ele>906.660400390625</ele>
        <time>2011-04-19T19:00:59Z</time>
      </trkpt>
      <trkpt lat="32.036304054781795" lon="-3.050111951306462">
        <ele>906.660400390625</ele>
        <time>2011-04-19T19:01:15Z</time>
      </trkpt>
      <trkpt lat="32.036209171637893" lon="-3.049923442304134">
        <ele>904.73779296875</ele>
        <time>2011-04-19T19:01:19Z</time>
      </trkpt>
      <trkpt lat="32.035883786156774" lon="-3.049065386876464">
        <ele>901.373291015625</ele>
        <time>2011-04-19T19:01:30Z</time>
      </trkpt>
      <trkpt lat="32.035536356270313" lon="-3.048086799681187">
        <ele>895.124755859375</ele>
        <time>2011-04-19T19:01:41Z</time>
      </trkpt>
      <trkpt lat="32.035091947764158" lon="-3.04694308899343">
        <ele>889.83740234375</ele>
        <time>2011-04-19T19:01:53Z</time>
      </trkpt>
      <trkpt lat="32.034737896174192" lon="-3.046004483476281">
        <ele>876.85986328125</ele>
        <time>2011-04-19T19:02:02Z</time>
      </trkpt>
      <trkpt lat="32.034171698614955" lon="-3.044520132243633">
        <ele>878.3017578125</ele>
        <time>2011-04-19T19:02:16Z</time>
      </trkpt>
      <trkpt lat="32.034039599820971" lon="-3.043620921671391">
        <ele>871.572265625</ele>
        <time>2011-04-19T19:02:25Z</time>
      </trkpt>
      <trkpt lat="32.034064996987581" lon="-3.042507218196988">
        <ele>866.765869140625</ele>
        <time>2011-04-19T19:02:35Z</time>
      </trkpt>
      <trkpt lat="32.034149738028646" lon="-3.041670536622405">
        <ele>870.611083984375</ele>
        <time>2011-04-19T19:02:43Z</time>
      </trkpt>
      <trkpt lat="32.034273874014616" lon="-3.040670827031136">
        <ele>869.64990234375</ele>
        <time>2011-04-19T19:02:52Z</time>
      </trkpt>
      <trkpt lat="32.034484092146158" lon="-3.039038619026542">
        <ele>873.4951171875</ele>
        <time>2011-04-19T19:03:04Z</time>
      </trkpt>
      <trkpt lat="32.034766059368849" lon="-3.037154199555516">
        <ele>866.765869140625</ele>
        <time>2011-04-19T19:03:15Z</time>
      </trkpt>
      <trkpt lat="32.035050289705396" lon="-3.035205574706197">
        <ele>860.998046875</ele>
        <time>2011-04-19T19:03:24Z</time>
      </trkpt>
      <trkpt lat="32.035526717081666" lon="-3.031737478449941">
        <ele>858.114013671875</ele>
        <time>2011-04-19T19:03:39Z</time>
      </trkpt>
      <trkpt lat="32.035973556339741" lon="-3.028432074934244">
        <ele>856.191162109375</ele>
        <time>2011-04-19T19:03:52Z</time>
      </trkpt>
      <trkpt lat="32.036515865474939" lon="-3.024415131658316">
        <ele>856.191162109375</ele>
        <time>2011-04-19T19:04:08Z</time>
      </trkpt>
      <trkpt lat="32.036856925114989" lon="-3.021824369207025">
        <ele>857.63330078125</ele>
        <time>2011-04-19T19:04:18Z</time>
      </trkpt>
      <trkpt lat="32.037316672503948" lon="-3.018462555482984">
        <ele>860.517333984375</ele>
        <time>2011-04-19T19:04:30Z</time>
      </trkpt>
      <trkpt lat="32.037763595581055" lon="-3.015162851661444">
        <ele>863.4013671875</ele>
        <time>2011-04-19T19:04:41Z</time>
      </trkpt>
      <trkpt lat="32.038352843374014" lon="-3.010785151273012">
        <ele>866.28515625</ele>
        <time>2011-04-19T19:04:55Z</time>
      </trkpt>
      <trkpt lat="32.038951897993684" lon="-3.006110899150372">
        <ele>870.611083984375</ele>
        <time>2011-04-19T19:05:10Z</time>
      </trkpt>
      <trkpt lat="32.039520693942904" lon="-3.001585844904184">
        <ele>876.85986328125</ele>
        <time>2011-04-19T19:05:25Z</time>
      </trkpt>
      <trkpt lat="32.040229216217995" lon="-2.998169800266624">
        <ele>875.41748046875</ele>
        <time>2011-04-19T19:05:37Z</time>
      </trkpt>
      <trkpt lat="32.040731962770224" lon="-2.993922522291541">
        <ele>884.069580078125</ele>
        <time>2011-04-19T19:05:51Z</time>
      </trkpt>
      <trkpt lat="32.041302854195237" lon="-2.989286659285426">
        <ele>890.798583984375</ele>
        <time>2011-04-19T19:06:06Z</time>
      </trkpt>
      <trkpt lat="32.041853964328766" lon="-2.98506461083889">
        <ele>892.240966796875</ele>
        <time>2011-04-19T19:06:20Z</time>
      </trkpt>
      <trkpt lat="32.042198209092021" lon="-2.982518440112472">
        <ele>896.56689453125</ele>
        <time>2011-04-19T19:06:29Z</time>
      </trkpt>
      <trkpt lat="32.04262082464993" lon="-2.981250761076808">
        <ele>890.798583984375</ele>
        <time>2011-04-19T19:06:34Z</time>
      </trkpt>
      <trkpt lat="32.043428756296635" lon="-2.979982830584049">
        <ele>888.876220703125</ele>
        <time>2011-04-19T19:06:40Z</time>
      </trkpt>
      <trkpt lat="32.044709678739309" lon="-2.978058010339737">
        <ele>889.356689453125</ele>
        <time>2011-04-19T19:06:50Z</time>
      </trkpt>
      <trkpt lat="32.044951748102903" lon="-2.977682333439589">
        <ele>889.83740234375</ele>
        <time>2011-04-19T19:06:54Z</time>
      </trkpt>
      <trkpt lat="32.044814955443144" lon="-2.977894647046924">
        <ele>888.876220703125</ele>
        <time>2011-04-19T19:07:07Z</time>
      </trkpt>
      <trkpt lat="32.044652597978711" lon="-2.978146690875292">
        <ele>888.876220703125</ele>
        <time>2011-04-19T19:07:11Z</time>
      </trkpt>
      <trkpt lat="32.04429879784584" lon="-2.978124562650919">
        <ele>890.318115234375</ele>
        <time>2011-04-19T19:07:17Z</time>
      </trkpt>
      <trkpt lat="32.043738635256886" lon="-2.978120455518365">
        <ele>896.086181640625</ele>
        <time>2011-04-19T19:07:26Z</time>
      </trkpt>
      <trkpt lat="32.042970769107342" lon="-2.978102182969451">
        <ele>899.45068359375</ele>
        <time>2011-04-19T19:07:34Z</time>
      </trkpt>
      <trkpt lat="32.042120760306716" lon="-2.978140488266945">
        <ele>902.33447265625</ele>
        <time>2011-04-19T19:07:42Z</time>
      </trkpt>
      <trkpt lat="32.040944695472717" lon="-2.978073181584477">
        <ele>903.2958984375</ele>
        <time>2011-04-19T19:07:52Z</time>
      </trkpt>
      <trkpt lat="32.039648769423366" lon="-2.977749723941088">
        <ele>892.7216796875</ele>
        <time>2011-04-19T19:08:04Z</time>
      </trkpt>
      <trkpt lat="32.038975954055786" lon="-2.977710328996182">
        <ele>888.876220703125</ele>
        <time>2011-04-19T19:08:11Z</time>
      </trkpt>
      <trkpt lat="32.038329457864165" lon="-2.977586276829243">
        <ele>889.83740234375</ele>
        <time>2011-04-19T19:08:18Z</time>
      </trkpt>
      <trkpt lat="32.037613559514284" lon="-2.977442778646946">
        <ele>886.953369140625</ele>
        <time>2011-04-19T19:08:28Z</time>
      </trkpt>
      <trkpt lat="32.036928925663233" lon="-2.977182855829597">
        <ele>885.031005859375</ele>
        <time>2011-04-19T19:08:37Z</time>
      </trkpt>
      <trkpt lat="32.035886971279979" lon="-2.976759066805244">
        <ele>885.9921875</ele>
        <time>2011-04-19T19:08:49Z</time>
      </trkpt>
      <trkpt lat="32.034997567534447" lon="-2.976378863677383">
        <ele>887.43408203125</ele>
        <time>2011-04-19T19:09:01Z</time>
      </trkpt>
      <trkpt lat="32.034303126856685" lon="-2.976124221459031">
        <ele>887.43408203125</ele>
        <time>2011-04-19T19:09:12Z</time>
      </trkpt>
      <trkpt lat="32.033545821905136" lon="-2.975758099928498">
        <ele>886.953369140625</ele>
        <time>2011-04-19T19:09:24Z</time>
      </trkpt>
      <trkpt lat="32.032832270488143" lon="-2.975449562072754">
        <ele>885.9921875</ele>
        <time>2011-04-19T19:09:34Z</time>
      </trkpt>
      <trkpt lat="32.031855778768659" lon="-2.975062234327197">
        <ele>882.627685546875</ele>
        <time>2011-04-19T19:09:48Z</time>
      </trkpt>
      <trkpt lat="32.030739057809114" lon="-2.97462604008615">
        <ele>879.74365234375</ele>
        <time>2011-04-19T19:10:03Z</time>
      </trkpt>
      <trkpt lat="32.030127262696624" lon="-2.974405847489834">
        <ele>877.821044921875</ele>
        <time>2011-04-19T19:10:12Z</time>
      </trkpt>
      <trkpt lat="32.029129145666957" lon="-2.974128741770983">
        <ele>869.169189453125</ele>
        <time>2011-04-19T19:10:24Z</time>
      </trkpt>
      <trkpt lat="32.028177045285702" lon="-2.973772929981351">
        <ele>862.920654296875</ele>
        <time>2011-04-19T19:10:36Z</time>
      </trkpt>
      <trkpt lat="32.027372466400266" lon="-2.97343228943646">
        <ele>861.478759765625</ele>
        <time>2011-04-19T19:10:46Z</time>
      </trkpt>
      <trkpt lat="32.026686072349548" lon="-2.973038842901588">
        <ele>860.998046875</ele>
        <time>2011-04-19T19:10:56Z</time>
      </trkpt>
      <trkpt lat="32.025796668604016" lon="-2.972695184871554">
        <ele>860.517333984375</ele>
        <time>2011-04-19T19:11:06Z</time>
      </trkpt>
      <trkpt lat="32.02464759349823" lon="-2.972324872389436">
        <ele>857.152587890625</ele>
        <time>2011-04-19T19:11:17Z</time>
      </trkpt>
      <trkpt lat="32.023088559508324" lon="-2.971817683428526">
        <ele>849.462158203125</ele>
        <time>2011-04-19T19:11:30Z</time>
      </trkpt>
      <trkpt lat="32.021429194137454" lon="-2.971297837793827">
        <ele>843.21337890625</ele>
        <time>2011-04-19T19:11:43Z</time>
      </trkpt>
      <trkpt lat="32.019996643066406" lon="-2.970795845612884">
        <ele>837.92626953125</ele>
        <time>2011-04-19T19:11:55Z</time>
      </trkpt>
      <trkpt lat="32.018931889906526" lon="-2.970494935289025">
        <ele>833.11962890625</ele>
        <time>2011-04-19T19:12:05Z</time>
      </trkpt>
      <trkpt lat="32.018024632707238" lon="-2.970295445993543">
        <ele>831.677734375</ele>
        <time>2011-04-19T19:12:14Z</time>
      </trkpt>
      <trkpt lat="32.017134055495262" lon="-2.970169298350811">
        <ele>835.04248046875</ele>
        <time>2011-04-19T19:12:23Z</time>
      </trkpt>
      <trkpt lat="32.016386222094297" lon="-2.969905938953161">
        <ele>834.561767578125</ele>
        <time>2011-04-19T19:12:31Z</time>
      </trkpt>
      <trkpt lat="32.015245780348778" lon="-2.969631347805262">
        <ele>834.561767578125</ele>
        <time>2011-04-19T19:12:43Z</time>
      </trkpt>
      <trkpt lat="32.01426912099123" lon="-2.969546942040324">
        <ele>836.003662109375</ele>
        <time>2011-04-19T19:12:53Z</time>
      </trkpt>
      <trkpt lat="32.013886068016291" lon="-2.969515174627304">
        <ele>837.445556640625</ele>
        <time>2011-04-19T19:12:57Z</time>
      </trkpt>
      <trkpt lat="32.013089451938868" lon="-2.969302861019969">
        <ele>838.8876953125</ele>
        <time>2011-04-19T19:13:06Z</time>
      </trkpt>
      <trkpt lat="32.012167777866125" lon="-2.968972781673074">
        <ele>839.3681640625</ele>
        <time>2011-04-19T19:13:15Z</time>
      </trkpt>
      <trkpt lat="32.011140994727612" lon="-2.968592159450054">
        <ele>839.3681640625</ele>
        <time>2011-04-19T19:13:24Z</time>
      </trkpt>
      <trkpt lat="32.010549232363701" lon="-2.968468526378274">
        <ele>837.445556640625</ele>
        <time>2011-04-19T19:13:30Z</time>
      </trkpt>
      <trkpt lat="32.010058388113976" lon="-2.968208519741893">
        <ele>837.92626953125</ele>
        <time>2011-04-19T19:13:36Z</time>
      </trkpt>
      <trkpt lat="32.009366629645228" lon="-2.968054292723537">
        <ele>837.92626953125</ele>
        <time>2011-04-19T19:13:44Z</time>
      </trkpt>
      <trkpt lat="32.009029174223542" lon="-2.968049431219697">
        <ele>838.406982421875</ele>
        <time>2011-04-19T19:13:49Z</time>
      </trkpt>
      <trkpt lat="32.008827840909362" lon="-2.968139536678791">
        <ele>837.92626953125</ele>
        <time>2011-04-19T19:13:53Z</time>
      </trkpt>
      <trkpt lat="32.008553333580494" lon="-2.968512363731861">
        <ele>835.04248046875</ele>
        <time>2011-04-19T19:14:00Z</time>
      </trkpt>
      <trkpt lat="32.008480746299028" lon="-2.968785194680095">
        <ele>832.158447265625</ele>
        <time>2011-04-19T19:14:04Z</time>
      </trkpt>
      <trkpt lat="32.008473118767142" lon="-2.969222646206617">
        <ele>829.755126953125</ele>
        <time>2011-04-19T19:14:12Z</time>
      </trkpt>
      <trkpt lat="32.00839826837182" lon="-2.969409646466374">
        <ele>828.7939453125</ele>
        <time>2011-04-19T19:14:21Z</time>
      </trkpt>
      <trkpt lat="32.008273126557469" lon="-2.96949346549809">
        <ele>828.7939453125</ele>
        <time>2011-04-19T19:14:30Z</time>
      </trkpt>
      <trkpt lat="32.008073050528765" lon="-2.969498075544834">
        <ele>830.716552734375</ele>
        <time>2011-04-19T19:14:40Z</time>
      </trkpt>
      <trkpt lat="32.007802985608578" lon="-2.969509474933147">
        <ele>829.2744140625</ele>
        <time>2011-04-19T19:15:05Z</time>
      </trkpt>
      <trkpt lat="32.007552618160844" lon="-2.969573931768537">
        <ele>828.313232421875</ele>
        <time>2011-04-19T19:15:12Z</time>
      </trkpt>
      <trkpt lat="32.007244331762195" lon="-2.969555323943496">
        <ele>828.313232421875</ele>
        <time>2011-04-19T19:15:19Z</time>
      </trkpt>
      <trkpt lat="32.007049871608615" lon="-2.969639394432306">
        <ele>828.7939453125</ele>
        <time>2011-04-19T19:15:24Z</time>
      </trkpt>
      <trkpt lat="32.006940152496099" lon="-2.969820024445653">
        <ele>837.92626953125</ele>
        <time>2011-04-19T19:17:50Z</time>
      </trkpt>
      <trkpt lat="32.006837641820312" lon="-2.970003671944141">
        <ele>839.3681640625</ele>
        <time>2011-04-19T19:17:56Z</time>
      </trkpt>
      <trkpt lat="32.006881479173899" lon="-2.969866627827287">
        <ele>837.445556640625</ele>
        <time>2011-04-19T19:18:18Z</time>
      </trkpt>
      <trkpt lat="32.007003938779235" lon="-2.969678621739149">
        <ele>836.484375</ele>
        <time>2011-04-19T19:18:28Z</time>
      </trkpt>
      <trkpt lat="32.007201835513115" lon="-2.969580050557852">
        <ele>833.600341796875</ele>
        <time>2011-04-19T19:18:59Z</time>
      </trkpt>
      <trkpt lat="32.007589917629957" lon="-2.969548450782895">
        <ele>833.11962890625</ele>
        <time>2011-04-19T19:19:09Z</time>
      </trkpt>
      <trkpt lat="32.007952686399221" lon="-2.969487179070711">
        <ele>831.677734375</ele>
        <time>2011-04-19T19:19:19Z</time>
      </trkpt>
      <trkpt lat="32.008172795176506" lon="-2.969489442184568">
        <ele>830.716552734375</ele>
        <time>2011-04-19T19:19:28Z</time>
      </trkpt>
      <trkpt lat="32.008243873715401" lon="-2.969154417514801">
        <ele>842.73291015625</ele>
        <time>2011-04-19T19:20:09Z</time>
      </trkpt>
      <trkpt lat="32.00823993422091" lon="-2.968960795551539">
        <ele>847.058837890625</ele>
        <time>2011-04-19T19:20:15Z</time>
      </trkpt>
      <trkpt lat="32.008191738277674" lon="-2.968641947954893">
        <ele>852.82666015625</ele>
        <time>2011-04-19T19:20:24Z</time>
      </trkpt>
      <trkpt lat="32.008091239258647" lon="-2.968425862491131">
        <ele>857.152587890625</ele>
        <time>2011-04-19T19:20:32Z</time>
      </trkpt>
      <trkpt lat="32.007865430787206" lon="-2.968243137001991">
        <ele>862.920654296875</ele>
        <time>2011-04-19T19:20:42Z</time>
      </trkpt>
      <trkpt lat="32.007555887103081" lon="-2.967939544469118">
        <ele>866.765869140625</ele>
        <time>2011-04-19T19:20:53Z</time>
      </trkpt>
      <trkpt lat="32.007357655093074" lon="-2.967801745980978">
        <ele>869.64990234375</ele>
        <time>2011-04-19T19:21:01Z</time>
      </trkpt>
      <trkpt lat="32.00720451772213" lon="-2.967668557539582">
        <ele>874.456298828125</ele>
        <time>2011-04-19T19:21:10Z</time>
      </trkpt>
      <trkpt lat="32.007255731150508" lon="-2.967553390190005">
        <ele>873.4951171875</ele>
        <time>2011-04-19T19:22:04Z</time>
      </trkpt>
      <trkpt lat="32.007346088066697" lon="-2.967377454042435">
        <ele>873.4951171875</ele>
        <time>2011-04-19T19:22:12Z</time>
      </trkpt>
      <trkpt lat="32.007249360904098" lon="-2.967237560078502">
        <ele>932.6162109375</ele>
        <time>2011-04-19T19:24:47Z</time>
      </trkpt>
      <trkpt lat="32.007077783346176" lon="-2.967275362461805">
        <ele>896.086181640625</ele>
        <time>2011-04-19T19:26:40Z</time>
      </trkpt>
      <trkpt lat="32.006957251578569" lon="-2.967291371896863">
        <ele>885.511474609375</ele>
        <time>2011-04-19T19:26:51Z</time>
      </trkpt>
      <trkpt lat="32.006919030100107" lon="-2.967190956696868">
        <ele>910.986572265625</ele>
        <time>2011-04-19T19:27:43Z</time>
      </trkpt>
      <trkpt lat="32.00715959072113" lon="-2.967584319412708">
        <ele>847.53955078125</ele>
        <time>2011-04-19T19:39:42Z</time>
      </trkpt>
      <trkpt lat="32.007147520780563" lon="-2.967658750712872">
        <ele>789.379638671875</ele>
        <time>2011-04-19T19:55:38Z</time>
      </trkpt>
    </trkseg>
  </trk>

  <trk>
    <name>110420</name>
    <extensions>
      <gpxx:TrackExtension xmlns:gpxx="http://www.garmin.com/xmlschemas/GpxExtensions/v3">
        <gpxx:DisplayColor>Red</gpxx:DisplayColor>
      </gpxx:TrackExtension>
    </extensions>
    <trkseg>
      <trkpt lat="32.007190687581897" lon="-2.967694876715541">
        <ele>823.987060546875</ele>
        <time>2011-04-20T07:35:34Z</time>
      </trkpt>
      <trkpt lat="32.006605127826333" lon="-2.967534027993679">
        <ele>822.064453125</ele>
        <time>2011-04-20T07:47:11Z</time>
      </trkpt>
      <trkpt lat="32.006709650158882" lon="-2.967480635270476">
        <ele>819.661376953125</ele>
        <time>2011-04-20T07:47:22Z</time>
      </trkpt>
      <trkpt lat="32.006913246586919" lon="-2.967716669663787">
        <ele>821.583740234375</ele>
        <time>2011-04-20T07:47:30Z</time>
      </trkpt>
      <trkpt lat="32.006908133625984" lon="-2.967874584719539">
        <ele>821.583740234375</ele>
        <time>2011-04-20T07:47:35Z</time>
      </trkpt>
      <trkpt lat="32.006953479722142" lon="-2.967970473691821">
        <ele>823.02587890625</ele>
        <time>2011-04-20T07:48:10Z</time>
      </trkpt>
      <trkpt lat="32.00725288130343" lon="-2.968363920226693">
        <ele>826.390380859375</ele>
        <time>2011-04-20T07:48:21Z</time>
      </trkpt>
      <trkpt lat="32.007326055318117" lon="-2.968506244942546">
        <ele>827.351806640625</ele>
        <time>2011-04-20T07:48:24Z</time>
      </trkpt>
      <trkpt lat="32.007362768054008" lon="-2.968732472509146">
        <ele>827.351806640625</ele>
        <time>2011-04-20T07:48:28Z</time>
      </trkpt>
      <trkpt lat="32.007328318431973" lon="-2.969076130539179">
        <ele>826.390380859375</ele>
        <time>2011-04-20T07:48:34Z</time>
      </trkpt>
      <trkpt lat="32.007266292348504" lon="-2.969285342842341">
        <ele>824.948486328125</ele>
        <time>2011-04-20T07:48:38Z</time>
      </trkpt>
      <trkpt lat="32.007053140550852" lon="-2.969443090260029">
        <ele>822.064453125</ele>
        <time>2011-04-20T07:48:45Z</time>
      </trkpt>
      <trkpt lat="32.006929758936167" lon="-2.969461949542165">
        <ele>821.103271484375</ele>
        <time>2011-04-20T07:48:52Z</time>
      </trkpt>
      <trkpt lat="32.006734125316143" lon="-2.969517521560192">
        <ele>819.661376953125</ele>
        <time>2011-04-20T07:48:58Z</time>
      </trkpt>
      <trkpt lat="32.006291644647717" lon="-2.969474773854017">
        <ele>821.583740234375</ele>
        <time>2011-04-20T07:49:06Z</time>
      </trkpt>
      <trkpt lat="32.005539871752262" lon="-2.969331946223974">
        <ele>824.948486328125</ele>
        <time>2011-04-20T07:49:17Z</time>
      </trkpt>
      <trkpt lat="32.004799665883183" lon="-2.969292970374227">
        <ele>827.351806640625</ele>
        <time>2011-04-20T07:49:28Z</time>
      </trkpt>
      <trkpt lat="32.003890732303262" lon="-2.96908593736589">
        <ele>827.832275390625</ele>
        <time>2011-04-20T07:49:38Z</time>
      </trkpt>
      <trkpt lat="32.002725647762418" lon="-2.968955766409636">
        <ele>828.7939453125</ele>
        <time>2011-04-20T07:49:51Z</time>
      </trkpt>
      <trkpt lat="32.001728620380163" lon="-2.968763569369912">
        <ele>827.351806640625</ele>
        <time>2011-04-20T07:50:02Z</time>
      </trkpt>
      <trkpt lat="32.000992689281702" lon="-2.968529462814331">
        <ele>826.87109375</ele>
        <time>2011-04-20T07:50:11Z</time>
      </trkpt>
      <trkpt lat="32.000047378242016" lon="-2.967807780951262">
        <ele>824.4677734375</ele>
        <time>2011-04-20T07:50:24Z</time>
      </trkpt>
      <trkpt lat="31.999436253681779" lon="-2.967460937798023">
        <ele>823.506591796875</ele>
        <time>2011-04-20T07:50:33Z</time>
      </trkpt>
      <trkpt lat="31.999306585639715" lon="-2.967434283345938">
        <ele>823.02587890625</ele>
        <time>2011-04-20T07:50:35Z</time>
      </trkpt>
      <trkpt lat="31.998931998386979" lon="-2.967438139021397">
        <ele>822.064453125</ele>
        <time>2011-04-20T07:50:41Z</time>
      </trkpt>
      <trkpt lat="31.998338224366307" lon="-2.967192381620407">
        <ele>819.1806640625</ele>
        <time>2011-04-20T07:50:50Z</time>
      </trkpt>
      <trkpt lat="31.997434319928288" lon="-2.966676894575357">
        <ele>817.738525390625</ele>
        <time>2011-04-20T07:51:03Z</time>
      </trkpt>
      <trkpt lat="31.997306076809764" lon="-2.966571534052491">
        <ele>817.738525390625</ele>
        <time>2011-04-20T07:51:05Z</time>
      </trkpt>
      <trkpt lat="31.996974991634488" lon="-2.966121090576053">
        <ele>816.296630859375</ele>
        <time>2011-04-20T07:51:12Z</time>
      </trkpt>
      <trkpt lat="31.996671818196774" lon="-2.966043977066875">
        <ele>815.33544921875</ele>
        <time>2011-04-20T07:51:18Z</time>
      </trkpt>
      <trkpt lat="31.996501246467233" lon="-2.966317143291235">
        <ele>816.296630859375</ele>
        <time>2011-04-20T07:51:23Z</time>
      </trkpt>
      <trkpt lat="31.996452966704965" lon="-2.966453433036804">
        <ele>816.77734375</ele>
        <time>2011-04-20T07:51:25Z</time>
      </trkpt>
      <trkpt lat="31.9960833247751" lon="-2.966774376109242">
        <ele>816.77734375</ele>
        <time>2011-04-20T07:51:33Z</time>
      </trkpt>
      <trkpt lat="31.995691638439894" lon="-2.967034885659814">
        <ele>815.816162109375</ele>
        <time>2011-04-20T07:51:43Z</time>
      </trkpt>
      <trkpt lat="31.995555851608515" lon="-2.96704494394362">
        <ele>816.296630859375</ele>
        <time>2011-04-20T07:51:49Z</time>
      </trkpt>
      <trkpt lat="31.995800351724029" lon="-2.966783680021763">
        <ele>857.63330078125</ele>
        <time>2011-04-20T08:03:12Z</time>
      </trkpt>
      <trkpt lat="31.99556247331202" lon="-2.966383276507258">
        <ele>853.307373046875</ele>
        <time>2011-04-20T08:03:20Z</time>
      </trkpt>
      <trkpt lat="31.995347058400512" lon="-2.96605353243649">
        <ele>848.500732421875</ele>
        <time>2011-04-20T08:03:29Z</time>
      </trkpt>
      <trkpt lat="31.995152179151773" lon="-2.966206083074212">
        <ele>824.4677734375</ele>
        <time>2011-04-20T08:03:46Z</time>
      </trkpt>
      <trkpt lat="31.995089733973145" lon="-2.966411272063851">
        <ele>812.93212890625</ele>
        <time>2011-04-20T08:03:53Z</time>
      </trkpt>
      <trkpt lat="31.994895944371819" lon="-2.966371038928628">
        <ele>808.12548828125</ele>
        <time>2011-04-20T08:03:59Z</time>
      </trkpt>
      <trkpt lat="31.994744148105383" lon="-2.966278083622456">
        <ele>811.00927734375</ele>
        <time>2011-04-20T08:04:07Z</time>
      </trkpt>
      <trkpt lat="31.994694275781512" lon="-2.9661531932652">
        <ele>812.451416015625</ele>
        <time>2011-04-20T08:04:11Z</time>
      </trkpt>
      <trkpt lat="31.994635853916407" lon="-2.96606183052063">
        <ele>812.93212890625</ele>
        <time>2011-04-20T08:04:13Z</time>
      </trkpt>
      <trkpt lat="31.994545580819249" lon="-2.965770894661546">
        <ele>813.893310546875</ele>
        <time>2011-04-20T08:04:18Z</time>
      </trkpt>
      <trkpt lat="31.994310384616256" lon="-2.965216850861907">
        <ele>814.3740234375</ele>
        <time>2011-04-20T08:04:27Z</time>
      </trkpt>
      <trkpt lat="31.993985921144485" lon="-2.964488044381142">
        <ele>812.451416015625</ele>
        <time>2011-04-20T08:04:37Z</time>
      </trkpt>
      <trkpt lat="31.993598844856024" lon="-2.963869879022241">
        <ele>805.72216796875</ele>
        <time>2011-04-20T08:04:47Z</time>
      </trkpt>
      <trkpt lat="31.99344034306705" lon="-2.96359377913177">
        <ele>803.799560546875</ele>
        <time>2011-04-20T08:04:54Z</time>
      </trkpt>
      <trkpt lat="31.99340907856822" lon="-2.9634730797261">
        <ele>801.396240234375</ele>
        <time>2011-04-20T08:05:02Z</time>
      </trkpt>
      <trkpt lat="31.993506392464042" lon="-2.963515827432275">
        <ele>795.628173828125</ele>
        <time>2011-04-20T08:05:11Z</time>
      </trkpt>
      <trkpt lat="31.993540339171886" lon="-2.963657397776842">
        <ele>793.70556640625</ele>
        <time>2011-04-20T08:05:18Z</time>
      </trkpt>
      <trkpt lat="31.993835130706429" lon="-2.964154025539756">
        <ele>794.186279296875</ele>
        <time>2011-04-20T08:05:28Z</time>
      </trkpt>
      <trkpt lat="31.9940887670964" lon="-2.964559122920036">
        <ele>794.666748046875</ele>
        <time>2011-04-20T08:05:36Z</time>
      </trkpt>
      <trkpt lat="31.994264954701066" lon="-2.964687533676624">
        <ele>795.628173828125</ele>
        <time>2011-04-20T08:05:40Z</time>
      </trkpt>
      <trkpt lat="31.994567038491368" lon="-2.964893393218517">
        <ele>796.58984375</ele>
        <time>2011-04-20T08:05:46Z</time>
      </trkpt>
      <trkpt lat="31.994906673207879" lon="-2.965015936642885">
        <ele>799.4736328125</ele>
        <time>2011-04-20T08:05:54Z</time>
      </trkpt>
      <trkpt lat="31.995216635987163" lon="-2.964966651052237">
        <ele>800.43505859375</ele>
        <time>2011-04-20T08:06:02Z</time>
      </trkpt>
      <trkpt lat="31.995599688962102" lon="-2.964944271370769">
        <ele>798.51220703125</ele>
        <time>2011-04-20T08:06:13Z</time>
      </trkpt>
      <trkpt lat="31.99562014080584" lon="-2.964816363528371">
        <ele>792.263671875</ele>
        <time>2011-04-20T08:06:38Z</time>
      </trkpt>
      <trkpt lat="31.995869753882289" lon="-2.964756265282631">
        <ele>790.821533203125</ele>
        <time>2011-04-20T08:06:47Z</time>
      </trkpt>
      <trkpt lat="31.996139651164412" lon="-2.964907726272941">
        <ele>792.263671875</ele>
        <time>2011-04-20T08:06:58Z</time>
      </trkpt>
      <trkpt lat="31.996276192367077" lon="-2.964980145916343">
        <ele>792.744384765625</ele>
        <time>2011-04-20T08:07:01Z</time>
      </trkpt>
      <trkpt lat="31.996554136276245" lon="-2.965117692947388">
        <ele>794.666748046875</ele>
        <time>2011-04-20T08:07:08Z</time>
      </trkpt>
      <trkpt lat="31.996647259220481" lon="-2.964858273044229">
        <ele>793.70556640625</ele>
        <time>2011-04-20T08:07:24Z</time>
      </trkpt>
      <trkpt lat="31.996845155954361" lon="-2.964212195947766">
        <ele>792.263671875</ele>
        <time>2011-04-20T08:07:34Z</time>
      </trkpt>
      <trkpt lat="31.996911959722638" lon="-2.963935090228915">
        <ele>792.263671875</ele>
        <time>2011-04-20T08:07:38Z</time>
      </trkpt>
      <trkpt lat="31.996877426281571" lon="-2.963474169373512">
        <ele>795.1474609375</ele>
        <time>2011-04-20T08:07:45Z</time>
      </trkpt>
      <trkpt lat="31.996854543685913" lon="-2.963218186050654">
        <ele>797.0703125</ele>
        <time>2011-04-20T08:07:49Z</time>
      </trkpt>
      <trkpt lat="31.996886478736997" lon="-2.962947031483054">
        <ele>798.03173828125</ele>
        <time>2011-04-20T08:07:53Z</time>
      </trkpt>
      <trkpt lat="31.996866194531322" lon="-2.962761959061027">
        <ele>798.992919921875</ele>
        <time>2011-04-20T08:07:57Z</time>
      </trkpt>
      <trkpt lat="31.996852364391088" lon="-2.962526427581906">
        <ele>798.03173828125</ele>
        <time>2011-04-20T08:08:05Z</time>
      </trkpt>
      <trkpt lat="31.997025869786739" lon="-2.962358873337507">
        <ele>796.109130859375</ele>
        <time>2011-04-20T08:08:12Z</time>
      </trkpt>
      <trkpt lat="31.997594330459833" lon="-2.962119486182928">
        <ele>794.666748046875</ele>
        <time>2011-04-20T08:08:24Z</time>
      </trkpt>
      <trkpt lat="31.997811254113913" lon="-2.962018232792616">
        <ele>794.666748046875</ele>
        <time>2011-04-20T08:08:31Z</time>
      </trkpt>
      <trkpt lat="31.998170334845781" lon="-2.962028291076422">
        <ele>794.666748046875</ele>
        <time>2011-04-20T08:08:48Z</time>
      </trkpt>
      <trkpt lat="31.998688085004687" lon="-2.962314616888762">
        <ele>794.666748046875</ele>
        <time>2011-04-20T08:09:01Z</time>
      </trkpt>
      <trkpt lat="31.998955551534891" lon="-2.962446380406618">
        <ele>796.109130859375</ele>
        <time>2011-04-20T08:09:10Z</time>
      </trkpt>
      <trkpt lat="31.999202147126198" lon="-2.962703285738826">
        <ele>800.43505859375</ele>
        <time>2011-04-20T08:09:19Z</time>
      </trkpt>
      <trkpt lat="31.99926576577127" lon="-2.96255593188107">
        <ele>795.628173828125</ele>
        <time>2011-04-20T08:10:06Z</time>
      </trkpt>
      <trkpt lat="31.999496938660741" lon="-2.961994344368577">
        <ele>793.70556640625</ele>
        <time>2011-04-20T08:10:17Z</time>
      </trkpt>
      <trkpt lat="31.999822072684765" lon="-2.961221029981971">
        <ele>792.263671875</ele>
        <time>2011-04-20T08:10:29Z</time>
      </trkpt>
      <trkpt lat="32.000073865056038" lon="-2.961075017228723">
        <ele>791.782958984375</ele>
        <time>2011-04-20T08:10:35Z</time>
      </trkpt>
      <trkpt lat="32.000241419300437" lon="-2.961154896765947">
        <ele>791.782958984375</ele>
        <time>2011-04-20T08:10:39Z</time>
      </trkpt>
      <trkpt lat="32.000455996021628" lon="-2.961328653618693">
        <ele>793.70556640625</ele>
        <time>2011-04-20T08:10:44Z</time>
      </trkpt>
      <trkpt lat="32.000660682097077" lon="-2.96133485622704">
        <ele>793.224853515625</ele>
        <time>2011-04-20T08:10:49Z</time>
      </trkpt>
      <trkpt lat="32.001147754490376" lon="-2.961049452424049">
        <ele>791.782958984375</ele>
        <time>2011-04-20T08:11:00Z</time>
      </trkpt>
      <trkpt lat="32.001591324806213" lon="-2.961244834586978">
        <ele>831.677734375</ele>
        <time>2011-04-20T08:12:50Z</time>
      </trkpt>
      <trkpt lat="32.001758124679327" lon="-2.961160931736231">
        <ele>832.63916015625</ele>
        <time>2011-04-20T08:12:54Z</time>
      </trkpt>
      <trkpt lat="32.002157941460609" lon="-2.961014667525888">
        <ele>837.92626953125</ele>
        <time>2011-04-20T08:13:03Z</time>
      </trkpt>
      <trkpt lat="32.002358017489314" lon="-2.961090188473463">
        <ele>840.32958984375</ele>
        <time>2011-04-20T08:13:11Z</time>
      </trkpt>
      <trkpt lat="32.002409733831882" lon="-2.96121172606945">
        <ele>835.52294921875</ele>
        <time>2011-04-20T08:18:46Z</time>
      </trkpt>
      <trkpt lat="32.002216028049588" lon="-2.961500063538551">
        <ele>826.87109375</ele>
        <time>2011-04-20T08:19:49Z</time>
      </trkpt>
      <trkpt lat="32.001652428880334" lon="-2.961695864796639">
        <ele>822.064453125</ele>
        <time>2011-04-20T08:20:05Z</time>
      </trkpt>
      <trkpt lat="32.001314889639616" lon="-2.961792089045048">
        <ele>820.141845703125</ele>
        <time>2011-04-20T08:20:13Z</time>
      </trkpt>
      <trkpt lat="32.001080866903067" lon="-2.961963079869747">
        <ele>818.699951171875</ele>
        <time>2011-04-20T08:20:19Z</time>
      </trkpt>
      <trkpt lat="32.000737795606256" lon="-2.962631788104773">
        <ele>815.816162109375</ele>
        <time>2011-04-20T08:20:32Z</time>
      </trkpt>
      <trkpt lat="32.000412158668041" lon="-2.963572489097714">
        <ele>813.412841796875</ele>
        <time>2011-04-20T08:20:48Z</time>
      </trkpt>
      <trkpt lat="32.000210154801607" lon="-2.964367596432567">
        <ele>812.451416015625</ele>
        <time>2011-04-20T08:21:02Z</time>
      </trkpt>
      <trkpt lat="31.999861299991608" lon="-2.965098498389125">
        <ele>812.451416015625</ele>
        <time>2011-04-20T08:21:14Z</time>
      </trkpt>
      <trkpt lat="31.999940676614642" lon="-2.965378370136023">
        <ele>813.893310546875</ele>
        <time>2011-04-20T08:21:20Z</time>
      </trkpt>
      <trkpt lat="32.000397490337491" lon="-2.965603927150369">
        <ele>816.296630859375</ele>
        <time>2011-04-20T08:21:27Z</time>
      </trkpt>
      <trkpt lat="32.001244816929102" lon="-2.966428538784385">
        <ele>821.583740234375</ele>
        <time>2011-04-20T08:21:41Z</time>
      </trkpt>
      <trkpt lat="32.002005642279983" lon="-2.966972189024091">
        <ele>827.832275390625</ele>
        <time>2011-04-20T08:21:51Z</time>
      </trkpt>
      <trkpt lat="32.002766132354736" lon="-2.967461356893182">
        <ele>831.677734375</ele>
        <time>2011-04-20T08:22:01Z</time>
      </trkpt>
      <trkpt lat="32.003584038466215" lon="-2.967998720705509">
        <ele>834.561767578125</ele>
        <time>2011-04-20T08:22:13Z</time>
      </trkpt>
      <trkpt lat="32.004616353660822" lon="-2.968692490831018">
        <ele>836.003662109375</ele>
        <time>2011-04-20T08:22:28Z</time>
      </trkpt>
      <trkpt lat="32.005253629758954" lon="-2.969239745289087">
        <ele>836.484375</ele>
        <time>2011-04-20T08:22:40Z</time>
      </trkpt>
      <trkpt lat="32.005921332165599" lon="-2.969370083883405">
        <ele>834.561767578125</ele>
        <time>2011-04-20T08:22:50Z</time>
      </trkpt>
      <trkpt lat="32.006589872762561" lon="-2.969432696700096">
        <ele>832.63916015625</ele>
        <time>2011-04-20T08:23:00Z</time>
      </trkpt>
      <trkpt lat="32.007177695631981" lon="-2.96958876773715">
        <ele>831.197265625</ele>
        <time>2011-04-20T08:23:10Z</time>
      </trkpt>
      <trkpt lat="32.007394954562187" lon="-2.969528082758188">
        <ele>830.23583984375</ele>
        <time>2011-04-20T08:23:14Z</time>
      </trkpt>
      <trkpt lat="32.007610537111759" lon="-2.969505367800593">
        <ele>829.2744140625</ele>
        <time>2011-04-20T08:23:18Z</time>
      </trkpt>
      <trkpt lat="32.008060561493039" lon="-2.969457171857357">
        <ele>827.832275390625</ele>
        <time>2011-04-20T08:23:26Z</time>
      </trkpt>
      <trkpt lat="32.008411260321736" lon="-2.969445856288075">
        <ele>823.02587890625</ele>
        <time>2011-04-20T08:23:39Z</time>
      </trkpt>
      <trkpt lat="32.008679397404194" lon="-2.969117453321815">
        <ele>823.506591796875</ele>
        <time>2011-04-20T08:23:49Z</time>
      </trkpt>
      <trkpt lat="32.00868752785027" lon="-2.968757953494787">
        <ele>823.987060546875</ele>
        <time>2011-04-20T08:23:54Z</time>
      </trkpt>
      <trkpt lat="32.008798336610198" lon="-2.968390742316842">
        <ele>826.87109375</ele>
        <time>2011-04-20T08:23:59Z</time>
      </trkpt>
      <trkpt lat="32.009163619950414" lon="-2.968013053759933">
        <ele>827.351806640625</ele>
        <time>2011-04-20T08:24:06Z</time>
      </trkpt>
      <trkpt lat="32.009314494207501" lon="-2.96795915812254">
        <ele>827.832275390625</ele>
        <time>2011-04-20T08:24:08Z</time>
      </trkpt>
      <trkpt lat="32.009584726765752" lon="-2.967977682128549">
        <ele>828.7939453125</ele>
        <time>2011-04-20T08:24:12Z</time>
      </trkpt>
      <trkpt lat="32.010205741971731" lon="-2.968114726245403">
        <ele>828.313232421875</ele>
        <time>2011-04-20T08:24:22Z</time>
      </trkpt>
      <trkpt lat="32.010691724717617" lon="-2.968360483646393">
        <ele>829.755126953125</ele>
        <time>2011-04-20T08:24:30Z</time>
      </trkpt>
      <trkpt lat="32.011344255879521" lon="-2.968519320711494">
        <ele>828.7939453125</ele>
        <time>2011-04-20T08:24:39Z</time>
      </trkpt>
      <trkpt lat="32.012142883613706" lon="-2.968764826655388">
        <ele>828.313232421875</ele>
        <time>2011-04-20T08:24:50Z</time>
      </trkpt>
      <trkpt lat="32.012994317337871" lon="-2.969157434999943">
        <ele>834.561767578125</ele>
        <time>2011-04-20T08:25:02Z</time>
      </trkpt>
      <trkpt lat="32.01383912935853" lon="-2.969348458573222">
        <ele>836.96484375</ele>
        <time>2011-04-20T08:25:13Z</time>
      </trkpt>
      <trkpt lat="32.01416652649641" lon="-2.969471085816622">
        <ele>837.445556640625</ele>
        <time>2011-04-20T08:25:18Z</time>
      </trkpt>
      <trkpt lat="32.014531642198563" lon="-2.969481395557523">
        <ele>836.003662109375</ele>
        <time>2011-04-20T08:25:24Z</time>
      </trkpt>
      <trkpt lat="32.014721827581525" lon="-2.969455244019628">
        <ele>834.561767578125</ele>
        <time>2011-04-20T08:25:31Z</time>
      </trkpt>
      <trkpt lat="32.014816626906395" lon="-2.96942993067205">
        <ele>823.987060546875</ele>
        <time>2011-04-20T08:29:06Z</time>
      </trkpt>
      <trkpt lat="32.015377543866634" lon="-2.969492040574551">
        <ele>820.62255859375</ele>
        <time>2011-04-20T08:29:14Z</time>
      </trkpt>
      <trkpt lat="32.01645428314805" lon="-2.96972849406302">
        <ele>817.258056640625</ele>
        <time>2011-04-20T08:29:26Z</time>
      </trkpt>
      <trkpt lat="32.017259281128645" lon="-2.970045581459999">
        <ele>827.832275390625</ele>
        <time>2011-04-20T08:29:35Z</time>
      </trkpt>
      <trkpt lat="32.018005857244134" lon="-2.970146499574184">
        <ele>830.23583984375</ele>
        <time>2011-04-20T08:29:44Z</time>
      </trkpt>
      <trkpt lat="32.01880507171154" lon="-2.970322016626597">
        <ele>829.755126953125</ele>
        <time>2011-04-20T08:29:53Z</time>
      </trkpt>
      <trkpt lat="32.019743174314499" lon="-2.970561152324081">
        <ele>831.677734375</ele>
        <time>2011-04-20T08:30:03Z</time>
      </trkpt>
      <trkpt lat="32.020801221951842" lon="-2.97090657055378">
        <ele>836.96484375</ele>
        <time>2011-04-20T08:30:14Z</time>
      </trkpt>
      <trkpt lat="32.022208794951439" lon="-2.971393140032888">
        <ele>840.81005859375</ele>
        <time>2011-04-20T08:30:28Z</time>
      </trkpt>
      <trkpt lat="32.023961953818798" lon="-2.971971658989787">
        <ele>846.09765625</ele>
        <time>2011-04-20T08:30:44Z</time>
      </trkpt>
      <trkpt lat="32.025231728330255" lon="-2.972372146323323">
        <ele>850.904052734375</ele>
        <time>2011-04-20T08:30:57Z</time>
      </trkpt>
      <trkpt lat="32.026313664391637" lon="-2.972730891779065">
        <ele>852.345947265625</ele>
        <time>2011-04-20T08:31:09Z</time>
      </trkpt>
      <trkpt lat="32.027149256318808" lon="-2.973070694133639">
        <ele>854.749267578125</ele>
        <time>2011-04-20T08:31:18Z</time>
      </trkpt>
      <trkpt lat="32.02755686827004" lon="-2.973335981369019">
        <ele>855.710693359375</ele>
        <time>2011-04-20T08:31:24Z</time>
      </trkpt>
      <trkpt lat="32.028296571224928" lon="-2.973668742924929">
        <ele>857.63330078125</ele>
        <time>2011-04-20T08:31:33Z</time>
      </trkpt>
      <trkpt lat="32.029551090672612" lon="-2.97413544729352">
        <ele>861.478759765625</ele>
        <time>2011-04-20T08:31:46Z</time>
      </trkpt>
      <trkpt lat="32.030793791636825" lon="-2.974502993747592">
        <ele>862.920654296875</ele>
        <time>2011-04-20T08:31:58Z</time>
      </trkpt>
      <trkpt lat="32.031576577574015" lon="-2.974817734211683">
        <ele>864.362548828125</ele>
        <time>2011-04-20T08:32:06Z</time>
      </trkpt>
      <trkpt lat="32.032458437606692" lon="-2.975156446918845">
        <ele>865.8046875</ele>
        <time>2011-04-20T08:32:15Z</time>
      </trkpt>
      <trkpt lat="32.032550051808357" lon="-2.97520799562335">
        <ele>866.28515625</ele>
        <time>2011-04-20T08:32:16Z</time>
      </trkpt>
      <trkpt lat="32.033450184389949" lon="-2.975534219294787">
        <ele>868.207763671875</ele>
        <time>2011-04-20T08:32:25Z</time>
      </trkpt>
      <trkpt lat="32.034454084932804" lon="-2.97602841630578">
        <ele>870.611083984375</ele>
        <time>2011-04-20T08:32:36Z</time>
      </trkpt>
      <trkpt lat="32.035331334918737" lon="-2.976356651633978">
        <ele>872.53369140625</ele>
        <time>2011-04-20T08:32:46Z</time>
      </trkpt>
      <trkpt lat="32.036159466952085" lon="-2.976714391261339">
        <ele>873.9755859375</ele>
        <time>2011-04-20T08:32:55Z</time>
      </trkpt>
      <trkpt lat="32.037214329466224" lon="-2.977135498076677">
        <ele>875.898193359375</ele>
        <time>2011-04-20T08:33:06Z</time>
      </trkpt>
      <trkpt lat="32.038372037932277" lon="-2.97748452052474">
        <ele>878.3017578125</ele>
        <time>2011-04-20T08:33:18Z</time>
      </trkpt>
      <trkpt lat="32.039263034239411" lon="-2.977670934051275">
        <ele>879.262939453125</ele>
        <time>2011-04-20T08:33:27Z</time>
      </trkpt>
      <trkpt lat="32.040145229548216" lon="-2.977769589051604">
        <ele>880.224365234375</ele>
        <time>2011-04-20T08:33:36Z</time>
      </trkpt>
      <trkpt lat="32.041191877797246" lon="-2.978041749447584">
        <ele>881.666259765625</ele>
        <time>2011-04-20T08:33:47Z</time>
      </trkpt>
      <trkpt lat="32.042168956249952" lon="-2.978110481053591">
        <ele>882.627685546875</ele>
        <time>2011-04-20T08:33:57Z</time>
      </trkpt>
      <trkpt lat="32.0429418515414" lon="-2.978106876835227">
        <ele>883.5888671875</ele>
        <time>2011-04-20T08:34:05Z</time>
      </trkpt>
      <trkpt lat="32.04312214627862" lon="-2.978077791631222">
        <ele>884.069580078125</ele>
        <time>2011-04-20T08:34:07Z</time>
      </trkpt>
      <trkpt lat="32.043989840894938" lon="-2.978083826601505">
        <ele>884.55029296875</ele>
        <time>2011-04-20T08:34:17Z</time>
      </trkpt>
      <trkpt lat="32.044593002647161" lon="-2.978239143267274">
        <ele>885.031005859375</ele>
        <time>2011-04-20T08:34:22Z</time>
      </trkpt>
      <trkpt lat="32.044518738985062" lon="-2.978354478254914">
        <ele>892.240966796875</ele>
        <time>2011-04-20T08:35:25Z</time>
      </trkpt>
      <trkpt lat="32.044060248881578" lon="-2.97906618565321">
        <ele>891.279296875</ele>
        <time>2011-04-20T08:35:34Z</time>
      </trkpt>
      <trkpt lat="32.043264722451568" lon="-2.980217188596726">
        <ele>887.914794921875</ele>
        <time>2011-04-20T08:35:44Z</time>
      </trkpt>
      <trkpt lat="32.042556200176477" lon="-2.981403646990657">
        <ele>883.5888671875</ele>
        <time>2011-04-20T08:35:52Z</time>
      </trkpt>
      <trkpt lat="32.042144313454628" lon="-2.982752127572894">
        <ele>879.74365234375</ele>
        <time>2011-04-20T08:35:59Z</time>
      </trkpt>
      <trkpt lat="32.041871566325426" lon="-2.984904851764441">
        <ele>875.898193359375</ele>
        <time>2011-04-20T08:36:09Z</time>
      </trkpt>
      <trkpt lat="32.041455823928118" lon="-2.988150157034397">
        <ele>880.705078125</ele>
        <time>2011-04-20T08:36:24Z</time>
      </trkpt>
      <trkpt lat="32.04106749035418" lon="-2.99113143235445">
        <ele>882.14697265625</ele>
        <time>2011-04-20T08:36:37Z</time>
      </trkpt>
      <trkpt lat="32.040610676631331" lon="-2.994936229661107">
        <ele>881.666259765625</ele>
        <time>2011-04-20T08:36:53Z</time>
      </trkpt>
      <trkpt lat="32.040199795737863" lon="-2.998418742790818">
        <ele>877.340576171875</ele>
        <time>2011-04-20T08:37:07Z</time>
      </trkpt>
      <trkpt lat="32.039789417758584" lon="-3.001717273145914">
        <ele>881.185791015625</ele>
        <time>2011-04-20T08:37:21Z</time>
      </trkpt>
      <trkpt lat="32.039355151355267" lon="-3.005164163187146">
        <ele>876.85986328125</ele>
        <time>2011-04-20T08:37:36Z</time>
      </trkpt>
      <trkpt lat="32.03887302428484" lon="-3.008978348225355">
        <ele>871.572265625</ele>
        <time>2011-04-20T08:37:53Z</time>
      </trkpt>
      <trkpt lat="32.038423251360655" lon="-3.012424064800143">
        <ele>869.64990234375</ele>
        <time>2011-04-20T08:38:09Z</time>
      </trkpt>
      <trkpt lat="32.038164250552654" lon="-3.01428115926683">
        <ele>868.6884765625</ele>
        <time>2011-04-20T08:38:18Z</time>
      </trkpt>
      <trkpt lat="32.03781807795167" lon="-3.016857085749507">
        <ele>865.8046875</ele>
        <time>2011-04-20T08:38:31Z</time>
      </trkpt>
      <trkpt lat="32.037461595609784" lon="-3.019509371370077">
        <ele>861.95947265625</ele>
        <time>2011-04-20T08:38:44Z</time>
      </trkpt>
      <trkpt lat="32.037103520706296" lon="-3.022156124934554">
        <ele>858.594482421875</ele>
        <time>2011-04-20T08:38:56Z</time>
      </trkpt>
      <trkpt lat="32.036645198240876" lon="-3.025627993047237">
        <ele>855.22998046875</ele>
        <time>2011-04-20T08:39:11Z</time>
      </trkpt>
      <trkpt lat="32.036265162751079" lon="-3.028403660282493">
        <ele>853.307373046875</ele>
        <time>2011-04-20T08:39:24Z</time>
      </trkpt>
      <trkpt lat="32.0357511844486" lon="-3.032153472304344">
        <ele>852.345947265625</ele>
        <time>2011-04-20T08:39:42Z</time>
      </trkpt>
      <trkpt lat="32.035339465364814" lon="-3.035169867798686">
        <ele>848.9814453125</ele>
        <time>2011-04-20T08:39:57Z</time>
      </trkpt>
      <trkpt lat="32.035057749599218" lon="-3.037223936989904">
        <ele>848.020263671875</ele>
        <time>2011-04-20T08:40:09Z</time>
      </trkpt>
      <trkpt lat="32.034765388816595" lon="-3.039324525743723">
        <ele>846.578369140625</ele>
        <time>2011-04-20T08:40:23Z</time>
      </trkpt>
      <trkpt lat="32.03451937995851" lon="-3.041259068995714">
        <ele>848.020263671875</ele>
        <time>2011-04-20T08:40:37Z</time>
      </trkpt>
      <trkpt lat="32.0343644823879" lon="-3.04265096783638">
        <ele>851.865478515625</ele>
        <time>2011-04-20T08:40:48Z</time>
      </trkpt>
      <trkpt lat="32.03434394672513" lon="-3.04332235828042">
        <ele>852.345947265625</ele>
        <time>2011-04-20T08:40:54Z</time>
      </trkpt>
      <trkpt lat="32.034566821530461" lon="-3.044612668454647">
        <ele>854.749267578125</ele>
        <time>2011-04-20T08:41:05Z</time>
      </trkpt>
      <trkpt lat="32.034964291378856" lon="-3.045714721083641">
        <ele>855.710693359375</ele>
        <time>2011-04-20T08:41:15Z</time>
      </trkpt>
      <trkpt lat="32.035327730700374" lon="-3.046608399599791">
        <ele>858.114013671875</ele>
        <time>2011-04-20T08:41:25Z</time>
      </trkpt>
      <trkpt lat="32.035815138369799" lon="-3.047769041731954">
        <ele>859.0751953125</ele>
        <time>2011-04-20T08:41:37Z</time>
      </trkpt>
      <trkpt lat="32.036135494709015" lon="-3.04853456094861">
        <ele>859.555908203125</ele>
        <time>2011-04-20T08:41:45Z</time>
      </trkpt>
      <trkpt lat="32.036448139697313" lon="-3.049311731010675">
        <ele>859.0751953125</ele>
        <time>2011-04-20T08:41:54Z</time>
      </trkpt>
      <trkpt lat="32.036691550165415" lon="-3.049902068451047">
        <ele>859.555908203125</ele>
        <time>2011-04-20T08:42:04Z</time>
      </trkpt>
      <trkpt lat="32.036928087472916" lon="-3.050516964867711">
        <ele>861.478759765625</ele>
        <time>2011-04-20T08:42:12Z</time>
      </trkpt>
      <trkpt lat="32.037139479070902" lon="-3.051425646990538">
        <ele>862.920654296875</ele>
        <time>2011-04-20T08:42:20Z</time>
      </trkpt>
      <trkpt lat="32.037382554262877" lon="-3.05302944034338">
        <ele>859.555908203125</ele>
        <time>2011-04-20T08:42:32Z</time>
      </trkpt>
      <trkpt lat="32.037606267258525" lon="-3.054482862353325">
        <ele>859.0751953125</ele>
        <time>2011-04-20T08:42:42Z</time>
      </trkpt>
      <trkpt lat="32.037909692153335" lon="-3.056533159688115">
        <ele>860.03662109375</ele>
        <time>2011-04-20T08:42:54Z</time>
      </trkpt>
      <trkpt lat="32.038215547800064" lon="-3.058518664911389">
        <ele>859.0751953125</ele>
        <time>2011-04-20T08:43:05Z</time>
      </trkpt>
      <trkpt lat="32.038476560264826" lon="-3.060210971161723">
        <ele>859.555908203125</ele>
        <time>2011-04-20T08:43:16Z</time>
      </trkpt>
      <trkpt lat="32.03858963213861" lon="-3.060905998572707">
        <ele>860.517333984375</ele>
        <time>2011-04-20T08:43:22Z</time>
      </trkpt>
      <trkpt lat="32.038605725392699" lon="-3.061339342966676">
        <ele>857.63330078125</ele>
        <time>2011-04-20T08:43:30Z</time>
      </trkpt>
      <trkpt lat="32.038104487583041" lon="-3.061727927997708">
        <ele>849.462158203125</ele>
        <time>2011-04-20T08:43:42Z</time>
      </trkpt>
      <trkpt lat="32.037628730759025" lon="-3.062114166095853">
        <ele>847.058837890625</ele>
        <time>2011-04-20T08:43:50Z</time>
      </trkpt>
      <trkpt lat="32.03710519708693" lon="-3.062561675906181">
        <ele>842.252197265625</ele>
        <time>2011-04-20T08:43:59Z</time>
      </trkpt>
      <trkpt lat="32.03686036169529" lon="-3.062844648957253">
        <ele>842.73291015625</ele>
        <time>2011-04-20T08:44:03Z</time>
      </trkpt>
      <trkpt lat="32.036352669820189" lon="-3.063048832118511">
        <ele>843.21337890625</ele>
        <time>2011-04-20T08:44:10Z</time>
      </trkpt>
      <trkpt lat="32.035603579133749" lon="-3.063530120998621">
        <ele>841.771484375</ele>
        <time>2011-04-20T08:44:21Z</time>
      </trkpt>
      <trkpt lat="32.035474078729749" lon="-3.063646461814642">
        <ele>841.290771484375</ele>
        <time>2011-04-20T08:44:23Z</time>
      </trkpt>
      <trkpt lat="32.035176269710064" lon="-3.063782248646021">
        <ele>840.32958984375</ele>
        <time>2011-04-20T08:44:27Z</time>
      </trkpt>
      <trkpt lat="32.034452157095075" lon="-3.064181981608272">
        <ele>838.406982421875</ele>
        <time>2011-04-20T08:44:36Z</time>
      </trkpt>
      <trkpt lat="32.033666940405965" lon="-3.06470425799489">
        <ele>837.92626953125</ele>
        <time>2011-04-20T08:44:46Z</time>
      </trkpt>
      <trkpt lat="32.032584669068456" lon="-3.065143888816237">
        <ele>836.96484375</ele>
        <time>2011-04-20T08:44:59Z</time>
      </trkpt>
      <trkpt lat="32.0313217677176" lon="-3.065605899319053">
        <ele>836.96484375</ele>
        <time>2011-04-20T08:45:11Z</time>
      </trkpt>
      <trkpt lat="32.030504532158375" lon="-3.065987527370453">
        <ele>836.96484375</ele>
        <time>2011-04-20T08:45:20Z</time>
      </trkpt>
      <trkpt lat="32.030327087268233" lon="-3.066058186814189">
        <ele>837.445556640625</ele>
        <time>2011-04-20T08:45:22Z</time>
      </trkpt>
      <trkpt lat="32.02984026633203" lon="-3.066096240654588">
        <ele>837.445556640625</ele>
        <time>2011-04-20T08:45:28Z</time>
      </trkpt>
      <trkpt lat="32.029067622497678" lon="-3.066327581182122">
        <ele>837.445556640625</ele>
        <time>2011-04-20T08:45:37Z</time>
      </trkpt>
      <trkpt lat="32.028116025030613" lon="-3.066754387691617">
        <ele>835.52294921875</ele>
        <time>2011-04-20T08:45:48Z</time>
      </trkpt>
      <trkpt lat="32.0272187422961" lon="-3.067175326868892">
        <ele>835.52294921875</ele>
        <time>2011-04-20T08:45:58Z</time>
      </trkpt>
      <trkpt lat="32.026081150397658" lon="-3.067718893289566">
        <ele>836.484375</ele>
        <time>2011-04-20T08:46:10Z</time>
      </trkpt>
      <trkpt lat="32.025331556797028" lon="-3.067995496094227">
        <ele>836.484375</ele>
        <time>2011-04-20T08:46:18Z</time>
      </trkpt>
      <trkpt lat="32.024523541331291" lon="-3.06828835979104">
        <ele>830.23583984375</ele>
        <time>2011-04-20T08:46:28Z</time>
      </trkpt>
      <trkpt lat="32.023467589169741" lon="-3.068665293976665">
        <ele>826.390380859375</ele>
        <time>2011-04-20T08:46:40Z</time>
      </trkpt>
      <trkpt lat="32.02236033976078" lon="-3.069077851250768">
        <ele>823.987060546875</ele>
        <time>2011-04-20T08:46:51Z</time>
      </trkpt>
      <trkpt lat="32.021640334278345" lon="-3.069412121549249">
        <ele>822.064453125</ele>
        <time>2011-04-20T08:46:59Z</time>
      </trkpt>
      <trkpt lat="32.020389083772898" lon="-3.069813782349229">
        <ele>820.62255859375</ele>
        <time>2011-04-20T08:47:12Z</time>
      </trkpt>
      <trkpt lat="32.019506050273776" lon="-3.070069262757897">
        <ele>819.661376953125</ele>
        <time>2011-04-20T08:47:22Z</time>
      </trkpt>
      <trkpt lat="32.019219137728214" lon="-3.070206139236689">
        <ele>819.661376953125</ele>
        <time>2011-04-20T08:47:26Z</time>
      </trkpt>
      <trkpt lat="32.018488822504878" lon="-3.070608135312796">
        <ele>820.62255859375</ele>
        <time>2011-04-20T08:47:36Z</time>
      </trkpt>
      <trkpt lat="32.018265444785357" lon="-3.070746771991253">
        <ele>820.62255859375</ele>
        <time>2011-04-20T08:47:39Z</time>
      </trkpt>
      <trkpt lat="32.017989596351981" lon="-3.070895550772548">
        <ele>821.103271484375</ele>
        <time>2011-04-20T08:47:43Z</time>
      </trkpt>
      <trkpt lat="32.017598580569029" lon="-3.071020524948835">
        <ele>822.545166015625</ele>
        <time>2011-04-20T08:47:49Z</time>
      </trkpt>
      <trkpt lat="32.016672967001796" lon="-3.071774141862989">
        <ele>820.62255859375</ele>
        <time>2011-04-20T08:48:02Z</time>
      </trkpt>
      <trkpt lat="32.016189582645893" lon="-3.072320139035583">
        <ele>820.62255859375</ele>
        <time>2011-04-20T08:48:10Z</time>
      </trkpt>
      <trkpt lat="32.015452142804861" lon="-3.072878876700997">
        <ele>821.583740234375</ele>
        <time>2011-04-20T08:48:20Z</time>
      </trkpt>
      <trkpt lat="32.014701962471008" lon="-3.073271317407489">
        <ele>822.545166015625</ele>
        <time>2011-04-20T08:48:29Z</time>
      </trkpt>
      <trkpt lat="32.013739719986916" lon="-3.073689071461558">
        <ele>824.948486328125</ele>
        <time>2011-04-20T08:48:40Z</time>
      </trkpt>
      <trkpt lat="32.013322552666068" lon="-3.074013032019138">
        <ele>823.506591796875</ele>
        <time>2011-04-20T08:48:46Z</time>
      </trkpt>
      <trkpt lat="32.01246558688581" lon="-3.074553580954671">
        <ele>825.90966796875</ele>
        <time>2011-04-20T08:48:57Z</time>
      </trkpt>
      <trkpt lat="32.011769469827414" lon="-3.074824064970017">
        <ele>829.2744140625</ele>
        <time>2011-04-20T08:49:05Z</time>
      </trkpt>
      <trkpt lat="32.011130349710584" lon="-3.075199574232101">
        <ele>829.755126953125</ele>
        <time>2011-04-20T08:49:13Z</time>
      </trkpt>
      <trkpt lat="32.010804796591401" lon="-3.075581286102533">
        <ele>828.313232421875</ele>
        <time>2011-04-20T08:49:19Z</time>
      </trkpt>
      <trkpt lat="32.010165257379413" lon="-3.076108591631055">
        <ele>829.2744140625</ele>
        <time>2011-04-20T08:49:28Z</time>
      </trkpt>
      <trkpt lat="32.00938087888062" lon="-3.076718878000975">
        <ele>829.755126953125</ele>
        <time>2011-04-20T08:49:39Z</time>
      </trkpt>
      <trkpt lat="32.008453086018562" lon="-3.077397728338838">
        <ele>830.23583984375</ele>
        <time>2011-04-20T08:49:50Z</time>
      </trkpt>
      <trkpt lat="32.007650686427951" lon="-3.078014720231295">
        <ele>829.2744140625</ele>
        <time>2011-04-20T08:49:59Z</time>
      </trkpt>
      <trkpt lat="32.007409874349833" lon="-3.078185375779867">
        <ele>829.2744140625</ele>
        <time>2011-04-20T08:50:02Z</time>
      </trkpt>
      <trkpt lat="32.006737645715475" lon="-3.078790130093694">
        <ele>827.832275390625</ele>
        <time>2011-04-20T08:50:12Z</time>
      </trkpt>
      <trkpt lat="32.006513345986605" lon="-3.078989870846272">
        <ele>828.7939453125</ele>
        <time>2011-04-20T08:50:16Z</time>
      </trkpt>
      <trkpt lat="32.006229534745216" lon="-3.079285081475973">
        <ele>829.2744140625</ele>
        <time>2011-04-20T08:50:21Z</time>
      </trkpt>
      <trkpt lat="32.005732571706176" lon="-3.079551374539733">
        <ele>829.755126953125</ele>
        <time>2011-04-20T08:50:27Z</time>
      </trkpt>
      <trkpt lat="32.005549091845751" lon="-3.079627649858594">
        <ele>830.23583984375</ele>
        <time>2011-04-20T08:50:29Z</time>
      </trkpt>
      <trkpt lat="32.004855992272496" lon="-3.080088319256902">
        <ele>830.23583984375</ele>
        <time>2011-04-20T08:50:37Z</time>
      </trkpt>
      <trkpt lat="32.004216536879539" lon="-3.080458799377084">
        <ele>828.313232421875</ele>
        <time>2011-04-20T08:50:45Z</time>
      </trkpt>
      <trkpt lat="32.003722339868546" lon="-3.080744119361043">
        <ele>827.351806640625</ele>
        <time>2011-04-20T08:50:51Z</time>
      </trkpt>
      <trkpt lat="32.00285623781383" lon="-3.081126250326634">
        <ele>826.87109375</ele>
        <time>2011-04-20T08:51:00Z</time>
      </trkpt>
      <trkpt lat="32.002132628113031" lon="-3.081577280536294">
        <ele>824.948486328125</ele>
        <time>2011-04-20T08:51:08Z</time>
      </trkpt>
      <trkpt lat="32.001573974266648" lon="-3.081934433430433">
        <ele>823.987060546875</ele>
        <time>2011-04-20T08:51:15Z</time>
      </trkpt>
      <trkpt lat="32.00121489353478" lon="-3.082320839166641">
        <ele>822.545166015625</ele>
        <time>2011-04-20T08:51:21Z</time>
      </trkpt>
      <trkpt lat="32.00113769620657" lon="-3.082621498033404">
        <ele>822.545166015625</ele>
        <time>2011-04-20T08:51:24Z</time>
      </trkpt>
      <trkpt lat="32.000924376770854" lon="-3.083993699401617">
        <ele>819.661376953125</ele>
        <time>2011-04-20T08:51:36Z</time>
      </trkpt>
      <trkpt lat="32.000791691243649" lon="-3.085032971575856">
        <ele>818.21923828125</ele>
        <time>2011-04-20T08:51:45Z</time>
      </trkpt>
      <trkpt lat="32.000846676528454" lon="-3.08595716021955">
        <ele>818.21923828125</ele>
        <time>2011-04-20T08:51:53Z</time>
      </trkpt>
      <trkpt lat="32.000856231898069" lon="-3.086066292598844">
        <ele>818.21923828125</ele>
        <time>2011-04-20T08:51:54Z</time>
      </trkpt>
      <trkpt lat="32.000748524442315" lon="-3.08669107966125">
        <ele>819.661376953125</ele>
        <time>2011-04-20T08:52:01Z</time>
      </trkpt>
      <trkpt lat="32.000698065385222" lon="-3.086825357750058">
        <ele>819.1806640625</ele>
        <time>2011-04-20T08:52:03Z</time>
      </trkpt>
      <trkpt lat="32.000364298000932" lon="-3.087316621094942">
        <ele>820.62255859375</ele>
        <time>2011-04-20T08:52:11Z</time>
      </trkpt>
      <trkpt lat="32.000232869759202" lon="-3.087718449532986">
        <ele>821.583740234375</ele>
        <time>2011-04-20T08:52:16Z</time>
      </trkpt>
      <trkpt lat="31.999945789575577" lon="-3.088151458650827">
        <ele>822.064453125</ele>
        <time>2011-04-20T08:52:22Z</time>
      </trkpt>
      <trkpt lat="31.999677484855056" lon="-3.088673148304224">
        <ele>822.545166015625</ele>
        <time>2011-04-20T08:52:28Z</time>
      </trkpt>
      <trkpt lat="31.999323768541217" lon="-3.089190060272813">
        <ele>825.428955078125</ele>
        <time>2011-04-20T08:52:35Z</time>
      </trkpt>
      <trkpt lat="31.998845245689154" lon="-3.089552745223045">
        <ele>827.832275390625</ele>
        <time>2011-04-20T08:52:42Z</time>
      </trkpt>
      <trkpt lat="31.9984370470047" lon="-3.089979132637382">
        <ele>829.2744140625</ele>
        <time>2011-04-20T08:52:48Z</time>
      </trkpt>
      <trkpt lat="31.998106548562646" lon="-3.090158421546221">
        <ele>830.23583984375</ele>
        <time>2011-04-20T08:52:52Z</time>
      </trkpt>
      <trkpt lat="31.997714694589376" lon="-3.090465031564236">
        <ele>831.677734375</ele>
        <time>2011-04-20T08:52:57Z</time>
      </trkpt>
      <trkpt lat="31.997092254459858" lon="-3.091181684285402">
        <ele>832.158447265625</ele>
        <time>2011-04-20T08:53:07Z</time>
      </trkpt>
      <trkpt lat="31.996919754892588" lon="-3.09139852412045">
        <ele>832.158447265625</ele>
        <time>2011-04-20T08:53:10Z</time>
      </trkpt>
      <trkpt lat="31.996395047754049" lon="-3.091873275116086">
        <ele>833.600341796875</ele>
        <time>2011-04-20T08:53:17Z</time>
      </trkpt>
      <trkpt lat="31.995835723355412" lon="-3.092228667810559">
        <ele>834.0810546875</ele>
        <time>2011-04-20T08:53:23Z</time>
      </trkpt>
      <trkpt lat="31.994956461712718" lon="-3.092554975301027">
        <ele>834.561767578125</ele>
        <time>2011-04-20T08:53:32Z</time>
      </trkpt>
      <trkpt lat="31.993978545069695" lon="-3.093048585578799">
        <ele>835.52294921875</ele>
        <time>2011-04-20T08:53:42Z</time>
      </trkpt>
      <trkpt lat="31.993032647296786" lon="-3.093571029603481">
        <ele>835.52294921875</ele>
        <time>2011-04-20T08:53:51Z</time>
      </trkpt>
      <trkpt lat="31.992043163627386" lon="-3.094028932973743">
        <ele>835.52294921875</ele>
        <time>2011-04-20T08:54:00Z</time>
      </trkpt>
      <trkpt lat="31.991079747676849" lon="-3.094626730307937">
        <ele>835.52294921875</ele>
        <time>2011-04-20T08:54:09Z</time>
      </trkpt>
      <trkpt lat="31.990179279819131" lon="-3.095187479630113">
        <ele>835.04248046875</ele>
        <time>2011-04-20T08:54:17Z</time>
      </trkpt>
      <trkpt lat="31.989326421171427" lon="-3.095476571470499">
        <ele>835.04248046875</ele>
        <time>2011-04-20T08:54:24Z</time>
      </trkpt>
      <trkpt lat="31.988201569765806" lon="-3.095865994691849">
        <ele>834.561767578125</ele>
        <time>2011-04-20T08:54:34Z</time>
      </trkpt>
      <trkpt lat="31.988107860088348" lon="-3.095893235877156">
        <ele>835.04248046875</ele>
        <time>2011-04-20T08:54:35Z</time>
      </trkpt>
      <trkpt lat="31.987402439117432" lon="-3.09584017843008">
        <ele>834.0810546875</ele>
        <time>2011-04-20T08:54:43Z</time>
      </trkpt>
      <trkpt lat="31.987079819664359" lon="-3.095733392983675">
        <ele>833.600341796875</ele>
        <time>2011-04-20T08:54:47Z</time>
      </trkpt>
      <trkpt lat="31.986853843554854" lon="-3.095694081857801">
        <ele>832.63916015625</ele>
        <time>2011-04-20T08:54:50Z</time>
      </trkpt>
      <trkpt lat="31.986537678167224" lon="-3.095792988315225">
        <ele>832.158447265625</ele>
        <time>2011-04-20T08:54:54Z</time>
      </trkpt>
      <trkpt lat="31.986015569418669" lon="-3.095827857032418">
        <ele>831.677734375</ele>
        <time>2011-04-20T08:55:01Z</time>
      </trkpt>
      <trkpt lat="31.985698482021689" lon="-3.095689555630088">
        <ele>830.716552734375</ele>
        <time>2011-04-20T08:55:06Z</time>
      </trkpt>
      <trkpt lat="31.985353650525212" lon="-3.09574973769486">
        <ele>830.716552734375</ele>
        <time>2011-04-20T08:55:10Z</time>
      </trkpt>
      <trkpt lat="31.98502323590219" lon="-3.09573314152658">
        <ele>830.23583984375</ele>
        <time>2011-04-20T08:55:14Z</time>
      </trkpt>
      <trkpt lat="31.984749734401703" lon="-3.095848560333252">
        <ele>829.2744140625</ele>
        <time>2011-04-20T08:55:19Z</time>
      </trkpt>
      <trkpt lat="31.984421331435442" lon="-3.096149135380983">
        <ele>828.7939453125</ele>
        <time>2011-04-20T08:55:25Z</time>
      </trkpt>
      <trkpt lat="31.984281772747636" lon="-3.096219962462783">
        <ele>828.313232421875</ele>
        <time>2011-04-20T08:55:27Z</time>
      </trkpt>
      <trkpt lat="31.983707780018449" lon="-3.096681470051408">
        <ele>826.390380859375</ele>
        <time>2011-04-20T08:55:35Z</time>
      </trkpt>
      <trkpt lat="31.982847126200795" lon="-3.097356799989939">
        <ele>822.064453125</ele>
        <time>2011-04-20T08:55:46Z</time>
      </trkpt>
      <trkpt lat="31.982133239507675" lon="-3.097929451614618">
        <ele>818.21923828125</ele>
        <time>2011-04-20T08:55:55Z</time>
      </trkpt>
      <trkpt lat="31.981583219021559" lon="-3.098381822928786">
        <ele>816.77734375</ele>
        <time>2011-04-20T08:56:02Z</time>
      </trkpt>
      <trkpt lat="31.980875618755817" lon="-3.098988337442279">
        <ele>813.893310546875</ele>
        <time>2011-04-20T08:56:12Z</time>
      </trkpt>
      <trkpt lat="31.980364993214607" lon="-3.099517989903688">
        <ele>811.489990234375</ele>
        <time>2011-04-20T08:56:20Z</time>
      </trkpt>
      <trkpt lat="31.979698883369565" lon="-3.09994806535542">
        <ele>810.0478515625</ele>
        <time>2011-04-20T08:56:28Z</time>
      </trkpt>
      <trkpt lat="31.97894811630249" lon="-3.100374955683947">
        <ele>811.00927734375</ele>
        <time>2011-04-20T08:56:37Z</time>
      </trkpt>
      <trkpt lat="31.977928373962641" lon="-3.100960096344352">
        <ele>809.5673828125</ele>
        <time>2011-04-20T08:56:50Z</time>
      </trkpt>
      <trkpt lat="31.977531490847468" lon="-3.101115496829152">
        <ele>809.086669921875</ele>
        <time>2011-04-20T08:56:55Z</time>
      </trkpt>
      <trkpt lat="31.977068725973368" lon="-3.101270562037826">
        <ele>808.60595703125</ele>
        <time>2011-04-20T08:57:02Z</time>
      </trkpt>
      <trkpt lat="31.976861525326967" lon="-3.101266957819462">
        <ele>808.12548828125</ele>
        <time>2011-04-20T08:57:05Z</time>
      </trkpt>
      <trkpt lat="31.976700173690915" lon="-3.101385980844498">
        <ele>806.20263671875</ele>
        <time>2011-04-20T08:57:09Z</time>
      </trkpt>
      <trkpt lat="31.976569918915629" lon="-3.101707175374031">
        <ele>803.799560546875</ele>
        <time>2011-04-20T08:57:15Z</time>
      </trkpt>
      <trkpt lat="31.976456176489592" lon="-3.101910352706909">
        <ele>803.799560546875</ele>
        <time>2011-04-20T08:57:20Z</time>
      </trkpt>
      <trkpt lat="31.976266577839851" lon="-3.10200322419405">
        <ele>804.2802734375</ele>
        <time>2011-04-20T08:57:26Z</time>
      </trkpt>
      <trkpt lat="31.976064741611481" lon="-3.101933989673853">
        <ele>804.7607421875</ele>
        <time>2011-04-20T08:57:30Z</time>
      </trkpt>
      <trkpt lat="31.975821331143379" lon="-3.101930720731616">
        <ele>804.7607421875</ele>
        <time>2011-04-20T08:57:34Z</time>
      </trkpt>
      <trkpt lat="31.975622177124023" lon="-3.101991573348641">
        <ele>804.2802734375</ele>
        <time>2011-04-20T08:57:37Z</time>
      </trkpt>
      <trkpt lat="31.974690025672317" lon="-3.102227272465825">
        <ele>802.838134765625</ele>
        <time>2011-04-20T08:57:48Z</time>
      </trkpt>
      <trkpt lat="31.973848817870021" lon="-3.102529356256127">
        <ele>802.838134765625</ele>
        <time>2011-04-20T08:57:57Z</time>
      </trkpt>
      <trkpt lat="31.973157394677401" lon="-3.103021793067455">
        <ele>803.799560546875</ele>
        <time>2011-04-20T08:58:05Z</time>
      </trkpt>
      <trkpt lat="31.972467396408319" lon="-3.103577261790633">
        <ele>806.683349609375</ele>
        <time>2011-04-20T08:58:14Z</time>
      </trkpt>
      <trkpt lat="31.971962051466107" lon="-3.103932067751885">
        <ele>809.5673828125</ele>
        <time>2011-04-20T08:58:21Z</time>
      </trkpt>
      <trkpt lat="31.971082957461476" lon="-3.10440924949944">
        <ele>813.893310546875</ele>
        <time>2011-04-20T08:58:30Z</time>
      </trkpt>
      <trkpt lat="31.97013664059341" lon="-3.104997742921114">
        <ele>815.33544921875</ele>
        <time>2011-04-20T08:58:40Z</time>
      </trkpt>
      <trkpt lat="31.969938995316625" lon="-3.105053817853332">
        <ele>816.296630859375</ele>
        <time>2011-04-20T08:58:42Z</time>
      </trkpt>
      <trkpt lat="31.969455694779754" lon="-3.105052057653666">
        <ele>817.258056640625</ele>
        <time>2011-04-20T08:58:47Z</time>
      </trkpt>
      <trkpt lat="31.968665365129709" lon="-3.105097319930792">
        <ele>818.21923828125</ele>
        <time>2011-04-20T08:58:56Z</time>
      </trkpt>
      <trkpt lat="31.968535277992487" lon="-3.105086674913764">
        <ele>818.21923828125</ele>
        <time>2011-04-20T08:58:58Z</time>
      </trkpt>
      <trkpt lat="31.967923231422901" lon="-3.105009561404586">
        <ele>819.1806640625</ele>
        <time>2011-04-20T08:59:06Z</time>
      </trkpt>
      <trkpt lat="31.967058135196567" lon="-3.104994893074036">
        <ele>820.62255859375</ele>
        <time>2011-04-20T08:59:16Z</time>
      </trkpt>
      <trkpt lat="31.966888485476375" lon="-3.105001179501414">
        <ele>822.064453125</ele>
        <time>2011-04-20T08:59:18Z</time>
      </trkpt>
      <trkpt lat="31.966648930683732" lon="-3.105060523375869">
        <ele>823.02587890625</ele>
        <time>2011-04-20T08:59:21Z</time>
      </trkpt>
      <trkpt lat="31.966418595984578" lon="-3.105182060971856">
        <ele>823.506591796875</ele>
        <time>2011-04-20T08:59:24Z</time>
      </trkpt>
      <trkpt lat="31.965736895799637" lon="-3.105265041813254">
        <ele>824.948486328125</ele>
        <time>2011-04-20T08:59:32Z</time>
      </trkpt>
      <trkpt lat="31.965468591079116" lon="-3.1053058616817">
        <ele>823.987060546875</ele>
        <time>2011-04-20T08:59:35Z</time>
      </trkpt>
      <trkpt lat="31.96513113565743" lon="-3.105418430641294">
        <ele>823.987060546875</ele>
        <time>2011-04-20T08:59:39Z</time>
      </trkpt>
      <trkpt lat="31.964770127087831" lon="-3.105408623814583">
        <ele>825.90966796875</ele>
        <time>2011-04-20T08:59:43Z</time>
      </trkpt>
      <trkpt lat="31.964155398309231" lon="-3.105465788394213">
        <ele>828.7939453125</ele>
        <time>2011-04-20T08:59:52Z</time>
      </trkpt>
      <trkpt lat="31.964013995602727" lon="-3.105462519451976">
        <ele>827.832275390625</ele>
        <time>2011-04-20T08:59:59Z</time>
      </trkpt>
      <trkpt lat="31.963812159374356" lon="-3.105680784210563">
        <ele>825.90966796875</ele>
        <time>2011-04-20T09:00:07Z</time>
      </trkpt>
      <trkpt lat="31.963693555444479" lon="-3.10578178614378">
        <ele>825.90966796875</ele>
        <time>2011-04-20T09:00:10Z</time>
      </trkpt>
      <trkpt lat="31.963498592376709" lon="-3.105964679270983">
        <ele>823.987060546875</ele>
        <time>2011-04-20T09:00:14Z</time>
      </trkpt>
      <trkpt lat="31.963229533284903" lon="-3.106121085584164">
        <ele>823.506591796875</ele>
        <time>2011-04-20T09:00:18Z</time>
      </trkpt>
      <trkpt lat="31.962764924392104" lon="-3.106535570695996">
        <ele>822.064453125</ele>
        <time>2011-04-20T09:00:26Z</time>
      </trkpt>
      <trkpt lat="31.962666856124997" lon="-3.106659455224872">
        <ele>822.064453125</ele>
        <time>2011-04-20T09:00:28Z</time>
      </trkpt>
      <trkpt lat="31.962187243625522" lon="-3.107006046921015">
        <ele>822.545166015625</ele>
        <time>2011-04-20T09:00:36Z</time>
      </trkpt>
      <trkpt lat="31.961600678041577" lon="-3.10726379044354">
        <ele>821.103271484375</ele>
        <time>2011-04-20T09:00:45Z</time>
      </trkpt>
      <trkpt lat="31.961383083835244" lon="-3.107422459870577">
        <ele>820.62255859375</ele>
        <time>2011-04-20T09:00:50Z</time>
      </trkpt>
      <trkpt lat="31.961109917610884" lon="-3.107667630538344">
        <ele>818.699951171875</ele>
        <time>2011-04-20T09:00:56Z</time>
      </trkpt>
      <trkpt lat="31.960816970095038" lon="-3.107685064896941">
        <ele>816.77734375</ele>
        <time>2011-04-20T09:01:02Z</time>
      </trkpt>
      <trkpt lat="31.960627287626266" lon="-3.107488341629505">
        <ele>816.296630859375</ele>
        <time>2011-04-20T09:01:08Z</time>
      </trkpt>
      <trkpt lat="31.960544055327773" lon="-3.107337551191449">
        <ele>815.816162109375</ele>
        <time>2011-04-20T09:01:11Z</time>
      </trkpt>
      <trkpt lat="31.96040608920157" lon="-3.106774957850575">
        <ele>815.33544921875</ele>
        <time>2011-04-20T09:01:19Z</time>
      </trkpt>
      <trkpt lat="31.960309278219938" lon="-3.106407830491662">
        <ele>814.854736328125</ele>
        <time>2011-04-20T09:01:24Z</time>
      </trkpt>
      <trkpt lat="31.960201570764184" lon="-3.106229631230235">
        <ele>814.3740234375</ele>
        <time>2011-04-20T09:01:27Z</time>
      </trkpt>
      <trkpt lat="31.959946677088737" lon="-3.105496885254979">
        <ele>813.412841796875</ele>
        <time>2011-04-20T09:01:37Z</time>
      </trkpt>
      <trkpt lat="31.959899067878723" lon="-3.105358751490712">
        <ele>812.93212890625</ele>
        <time>2011-04-20T09:01:39Z</time>
      </trkpt>
      <trkpt lat="31.959712570533156" lon="-3.105227574706078">
        <ele>811.970703125</ele>
        <time>2011-04-20T09:01:43Z</time>
      </trkpt>
      <trkpt lat="31.959541579708457" lon="-3.105195136740804">
        <ele>811.00927734375</ele>
        <time>2011-04-20T09:01:46Z</time>
      </trkpt>
      <trkpt lat="31.959317196160555" lon="-3.10509379953146">
        <ele>809.5673828125</ele>
        <time>2011-04-20T09:01:50Z</time>
      </trkpt>
      <trkpt lat="31.95905995555222" lon="-3.105006543919444">
        <ele>808.12548828125</ele>
        <time>2011-04-20T09:01:54Z</time>
      </trkpt>
      <trkpt lat="31.958914361894131" lon="-3.104947367683053">
        <ele>808.12548828125</ele>
        <time>2011-04-20T09:01:57Z</time>
      </trkpt>
      <trkpt lat="31.958620576187968" lon="-3.104999419301748">
        <ele>806.20263671875</ele>
        <time>2011-04-20T09:02:03Z</time>
      </trkpt>
      <trkpt lat="31.958402646705508" lon="-3.105062954127789">
        <ele>806.683349609375</ele>
        <time>2011-04-20T09:02:07Z</time>
      </trkpt>
      <trkpt lat="31.958292843773961" lon="-3.105078041553497">
        <ele>805.72216796875</ele>
        <time>2011-04-20T09:02:09Z</time>
      </trkpt>
      <trkpt lat="31.958129145205021" lon="-3.105058260262013">
        <ele>804.2802734375</ele>
        <time>2011-04-20T09:02:12Z</time>
      </trkpt>
      <trkpt lat="31.957663362845778" lon="-3.105136882513762">
        <ele>803.31884765625</ele>
        <time>2011-04-20T09:02:19Z</time>
      </trkpt>
      <trkpt lat="31.957495054230094" lon="-3.105155490338802">
        <ele>804.2802734375</ele>
        <time>2011-04-20T09:02:21Z</time>
      </trkpt>
      <trkpt lat="31.957168327644467" lon="-3.105275267735124">
        <ele>803.799560546875</ele>
        <time>2011-04-20T09:02:27Z</time>
      </trkpt>
      <trkpt lat="31.956905471161008" lon="-3.105195472016931">
        <ele>803.799560546875</ele>
        <time>2011-04-20T09:02:31Z</time>
      </trkpt>
      <trkpt lat="31.956652253866196" lon="-3.105023391544819">
        <ele>805.241455078125</ele>
        <time>2011-04-20T09:02:35Z</time>
      </trkpt>
      <trkpt lat="31.955866366624832" lon="-3.103982945904136">
        <ele>812.451416015625</ele>
        <time>2011-04-20T09:02:49Z</time>
      </trkpt>
      <trkpt lat="31.955066816881299" lon="-3.102989690378308">
        <ele>816.77734375</ele>
        <time>2011-04-20T09:03:01Z</time>
      </trkpt>
      <trkpt lat="31.954656522721052" lon="-3.102588783949614">
        <ele>815.816162109375</ele>
        <time>2011-04-20T09:03:06Z</time>
      </trkpt>
      <trkpt lat="31.953822355717421" lon="-3.102267337962985">
        <ele>813.412841796875</ele>
        <time>2011-04-20T09:03:14Z</time>
      </trkpt>
      <trkpt lat="31.952994894236326" lon="-3.101992746815085">
        <ele>819.1806640625</ele>
        <time>2011-04-20T09:03:23Z</time>
      </trkpt>
      <trkpt lat="31.952771348878741" lon="-3.101858217269182">
        <ele>823.506591796875</ele>
        <time>2011-04-20T09:05:26Z</time>
      </trkpt>
      <trkpt lat="31.952289221808314" lon="-3.101586727425456">
        <ele>825.90966796875</ele>
        <time>2011-04-20T09:05:37Z</time>
      </trkpt>
      <trkpt lat="31.951672565191984" lon="-3.101271819323301">
        <ele>823.987060546875</ele>
        <time>2011-04-20T09:05:48Z</time>
      </trkpt>
      <trkpt lat="31.950973346829414" lon="-3.10090041719377">
        <ele>822.545166015625</ele>
        <time>2011-04-20T09:05:59Z</time>
      </trkpt>
      <trkpt lat="31.950150830671191" lon="-3.100563380867243">
        <ele>822.064453125</ele>
        <time>2011-04-20T09:06:08Z</time>
      </trkpt>
      <trkpt lat="31.948909470811486" lon="-3.100056862458587">
        <ele>822.064453125</ele>
        <time>2011-04-20T09:06:20Z</time>
      </trkpt>
      <trkpt lat="31.947589572519064" lon="-3.099513966590166">
        <ele>823.02587890625</ele>
        <time>2011-04-20T09:06:33Z</time>
      </trkpt>
      <trkpt lat="31.946508558467031" lon="-3.0991046782583">
        <ele>821.583740234375</ele>
        <time>2011-04-20T09:06:43Z</time>
      </trkpt>
      <trkpt lat="31.945520751178265" lon="-3.098690360784531">
        <ele>823.02587890625</ele>
        <time>2011-04-20T09:06:52Z</time>
      </trkpt>
      <trkpt lat="31.944487849250436" lon="-3.098214855417609">
        <ele>823.02587890625</ele>
        <time>2011-04-20T09:07:03Z</time>
      </trkpt>
      <trkpt lat="31.943165687844157" lon="-3.097696099430323">
        <ele>824.4677734375</ele>
        <time>2011-04-20T09:07:16Z</time>
      </trkpt>
      <trkpt lat="31.942259687930346" lon="-3.097713533788919">
        <ele>823.02587890625</ele>
        <time>2011-04-20T09:07:24Z</time>
      </trkpt>
      <trkpt lat="31.941190576180816" lon="-3.097506081685424">
        <ele>820.141845703125</ele>
        <time>2011-04-20T09:07:33Z</time>
      </trkpt>
      <trkpt lat="31.940085673704743" lon="-3.097401140257716">
        <ele>816.296630859375</ele>
        <time>2011-04-20T09:07:42Z</time>
      </trkpt>
      <trkpt lat="31.939218398183584" lon="-3.097074329853058">
        <ele>816.77734375</ele>
        <time>2011-04-20T09:07:50Z</time>
      </trkpt>
      <trkpt lat="31.938380375504494" lon="-3.096634782850742">
        <ele>814.854736328125</ele>
        <time>2011-04-20T09:07:59Z</time>
      </trkpt>
      <trkpt lat="31.938063120469451" lon="-3.096545347943902">
        <ele>815.816162109375</ele>
        <time>2011-04-20T09:08:02Z</time>
      </trkpt>
      <trkpt lat="31.937751146033406" lon="-3.096411740407348">
        <ele>816.296630859375</ele>
        <time>2011-04-20T09:08:05Z</time>
      </trkpt>
      <trkpt lat="31.936983782798052" lon="-3.096365388482809">
        <ele>815.816162109375</ele>
        <time>2011-04-20T09:08:12Z</time>
      </trkpt>
      <trkpt lat="31.935867145657539" lon="-3.096162965521216">
        <ele>815.33544921875</ele>
        <time>2011-04-20T09:08:22Z</time>
      </trkpt>
      <trkpt lat="31.934584379196167" lon="-3.095822660252452">
        <ele>816.296630859375</ele>
        <time>2011-04-20T09:08:34Z</time>
      </trkpt>
      <trkpt lat="31.933601265773177" lon="-3.095728196203709">
        <ele>816.296630859375</ele>
        <time>2011-04-20T09:08:43Z</time>
      </trkpt>
      <trkpt lat="31.93220492452383" lon="-3.095566090196371">
        <ele>817.738525390625</ele>
        <time>2011-04-20T09:08:55Z</time>
      </trkpt>
      <trkpt lat="31.931353742256761" lon="-3.095173565670848">
        <ele>813.412841796875</ele>
        <time>2011-04-20T09:09:03Z</time>
      </trkpt>
      <trkpt lat="31.930373981595039" lon="-3.094876846298575">
        <ele>811.489990234375</ele>
        <time>2011-04-20T09:09:12Z</time>
      </trkpt>
      <trkpt lat="31.928830621764064" lon="-3.094507623463869">
        <ele>805.241455078125</ele>
        <time>2011-04-20T09:09:26Z</time>
      </trkpt>
      <trkpt lat="31.927866535261273" lon="-3.094322718679905">
        <ele>808.60595703125</ele>
        <time>2011-04-20T09:09:36Z</time>
      </trkpt>
      <trkpt lat="31.92760887555778" lon="-3.094280138611794">
        <ele>809.5673828125</ele>
        <time>2011-04-20T09:09:42Z</time>
      </trkpt>
      <trkpt lat="31.926965229213238" lon="-3.094233786687255">
        <ele>810.528564453125</ele>
        <time>2011-04-20T09:09:50Z</time>
      </trkpt>
      <trkpt lat="31.926112873479724" lon="-3.094258764758706">
        <ele>811.970703125</ele>
        <time>2011-04-20T09:09:59Z</time>
      </trkpt>
      <trkpt lat="31.925214249640703" lon="-3.094331184402108">
        <ele>813.412841796875</ele>
        <time>2011-04-20T09:10:08Z</time>
      </trkpt>
      <trkpt lat="31.924722483381629" lon="-3.09448666870594">
        <ele>812.93212890625</ele>
        <time>2011-04-20T09:10:15Z</time>
      </trkpt>
      <trkpt lat="31.924581499770284" lon="-3.094550622627139">
        <ele>811.489990234375</ele>
        <time>2011-04-20T09:10:20Z</time>
      </trkpt>
      <trkpt lat="31.924506146460772" lon="-3.094864524900913">
        <ele>807.644775390625</ele>
        <time>2011-04-20T09:10:25Z</time>
      </trkpt>
      <trkpt lat="31.924721477553248" lon="-3.096136478707194">
        <ele>790.341064453125</ele>
        <time>2011-04-20T09:10:37Z</time>
      </trkpt>
      <trkpt lat="31.924831867218018" lon="-3.09719854965806">
        <ele>778.80517578125</ele>
        <time>2011-04-20T09:10:47Z</time>
      </trkpt>
      <trkpt lat="31.924879392609" lon="-3.098147381097078">
        <ele>776.882568359375</ele>
        <time>2011-04-20T09:10:55Z</time>
      </trkpt>
      <trkpt lat="31.92488819360733" lon="-3.099786043167114">
        <ele>773.037353515625</ele>
        <time>2011-04-20T09:11:08Z</time>
      </trkpt>
      <trkpt lat="31.924887355417013" lon="-3.101912029087544">
        <ele>768.71142578125</ele>
        <time>2011-04-20T09:11:23Z</time>
      </trkpt>
      <trkpt lat="31.924847373738885" lon="-3.103681029751897">
        <ele>765.346923828125</ele>
        <time>2011-04-20T09:11:36Z</time>
      </trkpt>
      <trkpt lat="31.924897162243724" lon="-3.105631833896041">
        <ele>766.788818359375</ele>
        <time>2011-04-20T09:11:51Z</time>
      </trkpt>
      <trkpt lat="31.924998918548226" lon="-3.107215845957398">
        <ele>769.6728515625</ele>
        <time>2011-04-20T09:12:03Z</time>
      </trkpt>
      <trkpt lat="31.925092963501811" lon="-3.108670273795724">
        <ele>771.59521484375</ele>
        <time>2011-04-20T09:12:14Z</time>
      </trkpt>
      <trkpt lat="31.925347186625004" lon="-3.110537258908153">
        <ele>774.9599609375</ele>
        <time>2011-04-20T09:12:27Z</time>
      </trkpt>
      <trkpt lat="31.925797881558537" lon="-3.112348588183522">
        <ele>778.324462890625</ele>
        <time>2011-04-20T09:12:39Z</time>
      </trkpt>
      <trkpt lat="31.926386961713433" lon="-3.113411832600832">
        <ele>782.169921875</ele>
        <time>2011-04-20T09:12:47Z</time>
      </trkpt>
      <trkpt lat="31.927089868113399" lon="-3.11438262462616">
        <ele>786.495849609375</ele>
        <time>2011-04-20T09:12:56Z</time>
      </trkpt>
      <trkpt lat="31.927257589995861" lon="-3.114597452804446">
        <ele>789.8603515625</ele>
        <time>2011-04-20T09:13:01Z</time>
      </trkpt>
      <trkpt lat="31.927155163139105" lon="-3.114584963768721">
        <ele>792.263671875</ele>
        <time>2011-04-20T09:13:10Z</time>
      </trkpt>
      <trkpt lat="31.927064973860979" lon="-3.114496534690261">
        <ele>792.744384765625</ele>
        <time>2011-04-20T09:13:12Z</time>
      </trkpt>
      <trkpt lat="31.926877554506063" lon="-3.114279024302959">
        <ele>791.30224609375</ele>
        <time>2011-04-20T09:13:16Z</time>
      </trkpt>
      <trkpt lat="31.92639366723597" lon="-3.113633953034878">
        <ele>785.053955078125</ele>
        <time>2011-04-20T09:13:26Z</time>
      </trkpt>
      <trkpt lat="31.925807185471058" lon="-3.112659975886345">
        <ele>780.247314453125</ele>
        <time>2011-04-20T09:13:38Z</time>
      </trkpt>
      <trkpt lat="31.925373673439026" lon="-3.111926559358835">
        <ele>778.80517578125</ele>
        <time>2011-04-20T09:13:47Z</time>
      </trkpt>
      <trkpt lat="31.925192456692457" lon="-3.111657835543156">
        <ele>777.84375</ele>
        <time>2011-04-20T09:13:54Z</time>
      </trkpt>
      <trkpt lat="31.925091538578272" lon="-3.111623050644994">
        <ele>779.766357421875</ele>
        <time>2011-04-20T09:14:03Z</time>
      </trkpt>
      <trkpt lat="31.925129843875766" lon="-3.112098136916757">
        <ele>780.72802734375</ele>
        <time>2011-04-20T09:14:10Z</time>
      </trkpt>
      <trkpt lat="31.92508801817894" lon="-3.113065576180816">
        <ele>780.247314453125</ele>
        <time>2011-04-20T09:14:19Z</time>
      </trkpt>
      <trkpt lat="31.924947369843721" lon="-3.114199731498957">
        <ele>779.766357421875</ele>
        <time>2011-04-20T09:14:29Z</time>
      </trkpt>
      <trkpt lat="31.924888445064425" lon="-3.11540873721242">
        <ele>778.80517578125</ele>
        <time>2011-04-20T09:14:38Z</time>
      </trkpt>
      <trkpt lat="31.924877548590302" lon="-3.116702483966947">
        <ele>778.80517578125</ele>
        <time>2011-04-20T09:14:47Z</time>
      </trkpt>
      <trkpt lat="31.9248569291085" lon="-3.118169233202934">
        <ele>777.84375</ele>
        <time>2011-04-20T09:14:58Z</time>
      </trkpt>
      <trkpt lat="31.924796244129539" lon="-3.119753329083324">
        <ele>778.324462890625</ele>
        <time>2011-04-20T09:15:09Z</time>
      </trkpt>
      <trkpt lat="31.924729440361261" lon="-3.121274476870894">
        <ele>778.324462890625</ele>
        <time>2011-04-20T09:15:19Z</time>
      </trkpt>
      <trkpt lat="31.924600442871451" lon="-3.123450670391321">
        <ele>778.80517578125</ele>
        <time>2011-04-20T09:15:33Z</time>
      </trkpt>
      <trkpt lat="31.92433649674058" lon="-3.125461488962174">
        <ele>779.28564453125</ele>
        <time>2011-04-20T09:15:46Z</time>
      </trkpt>
      <trkpt lat="31.924032233655453" lon="-3.127823760733008">
        <ele>781.208740234375</ele>
        <time>2011-04-20T09:16:01Z</time>
      </trkpt>
      <trkpt lat="31.923788990825415" lon="-3.129438366740942">
        <ele>780.72802734375</ele>
        <time>2011-04-20T09:16:12Z</time>
      </trkpt>
      <trkpt lat="31.923752781003714" lon="-3.130160132423043">
        <ele>779.766357421875</ele>
        <time>2011-04-20T09:16:17Z</time>
      </trkpt>
      <trkpt lat="31.923571899533272" lon="-3.131258999928832">
        <ele>780.247314453125</ele>
        <time>2011-04-20T09:16:25Z</time>
      </trkpt>
      <trkpt lat="31.923417588695884" lon="-3.132686773315072">
        <ele>781.689208984375</ele>
        <time>2011-04-20T09:16:35Z</time>
      </trkpt>
      <trkpt lat="31.923249950632453" lon="-3.134648641571403">
        <ele>782.169921875</ele>
        <time>2011-04-20T09:16:48Z</time>
      </trkpt>
      <trkpt lat="31.923073846846819" lon="-3.136617131531239">
        <ele>783.131103515625</ele>
        <time>2011-04-20T09:17:01Z</time>
      </trkpt>
      <trkpt lat="31.922910735011101" lon="-3.137701582163572">
        <ele>783.61181640625</ele>
        <time>2011-04-20T09:17:09Z</time>
      </trkpt>
      <trkpt lat="31.922814343124628" lon="-3.138520997017622">
        <ele>784.092529296875</ele>
        <time>2011-04-20T09:17:15Z</time>
      </trkpt>
      <trkpt lat="31.922717951238155" lon="-3.139805272221565">
        <ele>784.092529296875</ele>
        <time>2011-04-20T09:17:25Z</time>
      </trkpt>
      <trkpt lat="31.922534136101604" lon="-3.141169091686606">
        <ele>785.534423828125</ele>
        <time>2011-04-20T09:17:35Z</time>
      </trkpt>
      <trkpt lat="31.922391392290592" lon="-3.142481446266174">
        <ele>786.01513671875</ele>
        <time>2011-04-20T09:17:44Z</time>
      </trkpt>
      <trkpt lat="31.92237664014101" lon="-3.143967054784298">
        <ele>786.495849609375</ele>
        <time>2011-04-20T09:17:54Z</time>
      </trkpt>
      <trkpt lat="31.922325929626822" lon="-3.145733373239636">
        <ele>786.976318359375</ele>
        <time>2011-04-20T09:18:05Z</time>
      </trkpt>
      <trkpt lat="31.92230237647891" lon="-3.147185286507011">
        <ele>787.937744140625</ele>
        <time>2011-04-20T09:18:15Z</time>
      </trkpt>
      <trkpt lat="31.922407653182745" lon="-3.148547932505608">
        <ele>788.41845703125</ele>
        <time>2011-04-20T09:18:24Z</time>
      </trkpt>
      <trkpt lat="31.922368593513966" lon="-3.150082658976317">
        <ele>789.379638671875</ele>
        <time>2011-04-20T09:18:35Z</time>
      </trkpt>
      <trkpt lat="31.922440594062209" lon="-3.15172266215086">
        <ele>790.341064453125</ele>
        <time>2011-04-20T09:18:47Z</time>
      </trkpt>
      <trkpt lat="31.922430284321308" lon="-3.152987156063318">
        <ele>791.30224609375</ele>
        <time>2011-04-20T09:18:56Z</time>
      </trkpt>
      <trkpt lat="31.922428943216801" lon="-3.154488354921341">
        <ele>791.782958984375</ele>
        <time>2011-04-20T09:19:07Z</time>
      </trkpt>
      <trkpt lat="31.922585433349013" lon="-3.156597577035427">
        <ele>793.224853515625</ele>
        <time>2011-04-20T09:19:21Z</time>
      </trkpt>
      <trkpt lat="31.922847954556346" lon="-3.158160718157888">
        <ele>794.186279296875</ele>
        <time>2011-04-20T09:19:32Z</time>
      </trkpt>
      <trkpt lat="31.922916350886226" lon="-3.158533042296767">
        <ele>794.186279296875</ele>
        <time>2011-04-20T09:19:35Z</time>
      </trkpt>
      <trkpt lat="31.922969575971365" lon="-3.159418422728777">
        <ele>795.1474609375</ele>
        <time>2011-04-20T09:19:43Z</time>
      </trkpt>
      <trkpt lat="31.923230672255158" lon="-3.161029843613505">
        <ele>798.51220703125</ele>
        <time>2011-04-20T09:19:55Z</time>
      </trkpt>
      <trkpt lat="31.92332019098103" lon="-3.162417886778712">
        <ele>798.992919921875</ele>
        <time>2011-04-20T09:20:04Z</time>
      </trkpt>
      <trkpt lat="31.923409793525934" lon="-3.164187557995319">
        <ele>799.4736328125</ele>
        <time>2011-04-20T09:20:15Z</time>
      </trkpt>
      <trkpt lat="31.923453882336617" lon="-3.165479963645339">
        <ele>800.43505859375</ele>
        <time>2011-04-20T09:20:24Z</time>
      </trkpt>
      <trkpt lat="31.923590591177344" lon="-3.167320797219873">
        <ele>800.43505859375</ele>
        <time>2011-04-20T09:20:37Z</time>
      </trkpt>
      <trkpt lat="31.923715146258473" lon="-3.169085523113608">
        <ele>800.91552734375</ele>
        <time>2011-04-20T09:20:49Z</time>
      </trkpt>
      <trkpt lat="31.923950258642435" lon="-3.17050944082439">
        <ele>803.31884765625</ele>
        <time>2011-04-20T09:20:59Z</time>
      </trkpt>
      <trkpt lat="31.924032736569643" lon="-3.171469755470753">
        <ele>804.2802734375</ele>
        <time>2011-04-20T09:21:06Z</time>
      </trkpt>
      <trkpt lat="31.924109682440758" lon="-3.172465022653341">
        <ele>804.2802734375</ele>
        <time>2011-04-20T09:21:14Z</time>
      </trkpt>
      <trkpt lat="31.924103898927569" lon="-3.172587063163519">
        <ele>804.2802734375</ele>
        <time>2011-04-20T09:21:15Z</time>
      </trkpt>
      <trkpt lat="31.923984456807375" lon="-3.172893337905407">
        <ele>803.799560546875</ele>
        <time>2011-04-20T09:21:19Z</time>
      </trkpt>
      <trkpt lat="31.923714140430093" lon="-3.173119397833943">
        <ele>802.838134765625</ele>
        <time>2011-04-20T09:21:24Z</time>
      </trkpt>
      <trkpt lat="31.923199994489551" lon="-3.173206066712737">
        <ele>803.799560546875</ele>
        <time>2011-04-20T09:21:30Z</time>
      </trkpt>
      <trkpt lat="31.92299866117537" lon="-3.173155691474676">
        <ele>804.7607421875</ele>
        <time>2011-04-20T09:21:32Z</time>
      </trkpt>
      <trkpt lat="31.922314362600446" lon="-3.173196176066995">
        <ele>807.1640625</ele>
        <time>2011-04-20T09:21:38Z</time>
      </trkpt>
      <trkpt lat="31.921817986294627" lon="-3.173244036734104">
        <ele>808.60595703125</ele>
        <time>2011-04-20T09:21:44Z</time>
      </trkpt>
      <trkpt lat="31.921652443706989" lon="-3.173153595998883">
        <ele>808.60595703125</ele>
        <time>2011-04-20T09:21:46Z</time>
      </trkpt>
      <trkpt lat="31.920820288360119" lon="-3.172871377319098">
        <ele>810.0478515625</ele>
        <time>2011-04-20T09:21:54Z</time>
      </trkpt>
      <trkpt lat="31.919948235154152" lon="-3.172764424234629">
        <ele>813.412841796875</ele>
        <time>2011-04-20T09:22:02Z</time>
      </trkpt>
      <trkpt lat="31.919393939897418" lon="-3.172752019017935">
        <ele>814.854736328125</ele>
        <time>2011-04-20T09:22:08Z</time>
      </trkpt>
      <trkpt lat="31.918152831494808" lon="-3.172736093401909">
        <ele>818.21923828125</ele>
        <time>2011-04-20T09:22:18Z</time>
      </trkpt>
      <trkpt lat="31.91712336614728" lon="-3.17268094047904">
        <ele>820.141845703125</ele>
        <time>2011-04-20T09:22:26Z</time>
      </trkpt>
      <trkpt lat="31.916664792224765" lon="-3.172385143116117">
        <ele>819.661376953125</ele>
        <time>2011-04-20T09:22:31Z</time>
      </trkpt>
      <trkpt lat="31.916559096425772" lon="-3.172157155349851">
        <ele>818.21923828125</ele>
        <time>2011-04-20T09:22:33Z</time>
      </trkpt>
      <trkpt lat="31.916271178051829" lon="-3.171575032174587">
        <ele>815.33544921875</ele>
        <time>2011-04-20T09:22:38Z</time>
      </trkpt>
      <trkpt lat="31.915784943848848" lon="-3.171214191243053">
        <ele>817.258056640625</ele>
        <time>2011-04-20T09:22:44Z</time>
      </trkpt>
      <trkpt lat="31.915047336369753" lon="-3.171294657513499">
        <ele>813.412841796875</ele>
        <time>2011-04-20T09:22:54Z</time>
      </trkpt>
      <trkpt lat="31.91442372277379" lon="-3.171362550929189">
        <ele>813.412841796875</ele>
        <time>2011-04-20T09:23:04Z</time>
      </trkpt>
      <trkpt lat="31.913749985396862" lon="-3.171446872875094">
        <ele>814.3740234375</ele>
        <time>2011-04-20T09:23:13Z</time>
      </trkpt>
      <trkpt lat="31.912569478154182" lon="-3.171609146520495">
        <ele>814.3740234375</ele>
        <time>2011-04-20T09:23:27Z</time>
      </trkpt>
      <trkpt lat="31.912250882014632" lon="-3.171660779044032">
        <ele>813.893310546875</ele>
        <time>2011-04-20T09:23:31Z</time>
      </trkpt>
      <trkpt lat="31.911858692765236" lon="-3.172028996050358">
        <ele>813.893310546875</ele>
        <time>2011-04-20T09:23:38Z</time>
      </trkpt>
      <trkpt lat="31.911562979221344" lon="-3.172597289085388">
        <ele>813.893310546875</ele>
        <time>2011-04-20T09:23:45Z</time>
      </trkpt>
      <trkpt lat="31.911233318969607" lon="-3.17295653745532">
        <ele>812.451416015625</ele>
        <time>2011-04-20T09:23:51Z</time>
      </trkpt>
      <trkpt lat="31.910058679059148" lon="-3.173406394198537">
        <ele>813.412841796875</ele>
        <time>2011-04-20T09:24:03Z</time>
      </trkpt>
      <trkpt lat="31.909325178712606" lon="-3.173554837703705">
        <ele>815.816162109375</ele>
        <time>2011-04-20T09:24:11Z</time>
      </trkpt>
      <trkpt lat="31.908466871827841" lon="-3.173404633998871">
        <ele>819.1806640625</ele>
        <time>2011-04-20T09:24:20Z</time>
      </trkpt>
      <trkpt lat="31.908148191869259" lon="-3.173412680625916">
        <ele>820.141845703125</ele>
        <time>2011-04-20T09:24:26Z</time>
      </trkpt>
      <trkpt lat="31.907960688695312" lon="-3.173423744738102">
        <ele>821.583740234375</ele>
        <time>2011-04-20T09:24:29Z</time>
      </trkpt>
      <trkpt lat="31.907379319891334" lon="-3.173328777775168">
        <ele>824.948486328125</ele>
        <time>2011-04-20T09:24:36Z</time>
      </trkpt>
      <trkpt lat="31.906915130093694" lon="-3.173433132469654">
        <ele>826.87109375</ele>
        <time>2011-04-20T09:24:41Z</time>
      </trkpt>
      <trkpt lat="31.906141061335802" lon="-3.174002431333065">
        <ele>824.948486328125</ele>
        <time>2011-04-20T09:24:50Z</time>
      </trkpt>
      <trkpt lat="31.905182087793946" lon="-3.174504088237882">
        <ele>824.4677734375</ele>
        <time>2011-04-20T09:24:59Z</time>
      </trkpt>
      <trkpt lat="31.90430274233222" lon="-3.17485386505723">
        <ele>828.7939453125</ele>
        <time>2011-04-20T09:25:08Z</time>
      </trkpt>
      <trkpt lat="31.90360888838768" lon="-3.174937097355723">
        <ele>831.677734375</ele>
        <time>2011-04-20T09:25:15Z</time>
      </trkpt>
      <trkpt lat="31.902580093592405" lon="-3.175076991319656">
        <ele>834.561767578125</ele>
        <time>2011-04-20T09:25:26Z</time>
      </trkpt>
      <trkpt lat="31.901646684855223" lon="-3.175043379887939">
        <ele>836.96484375</ele>
        <time>2011-04-20T09:25:35Z</time>
      </trkpt>
      <trkpt lat="31.900592241436243" lon="-3.174731740728021">
        <ele>833.600341796875</ele>
        <time>2011-04-20T09:25:45Z</time>
      </trkpt>
      <trkpt lat="31.899545174092054" lon="-3.174549769610167">
        <ele>837.445556640625</ele>
        <time>2011-04-20T09:25:55Z</time>
      </trkpt>
      <trkpt lat="31.899034548550844" lon="-3.174393363296986">
        <ele>839.3681640625</ele>
        <time>2011-04-20T09:26:00Z</time>
      </trkpt>
      <trkpt lat="31.898487964645028" lon="-3.173879384994507">
        <ele>839.3681640625</ele>
        <time>2011-04-20T09:26:07Z</time>
      </trkpt>
      <trkpt lat="31.898419568315148" lon="-3.173809479922056">
        <ele>839.848876953125</ele>
        <time>2011-04-20T09:26:08Z</time>
      </trkpt>
      <trkpt lat="31.89791196025908" lon="-3.173657096922398">
        <ele>840.81005859375</ele>
        <time>2011-04-20T09:26:14Z</time>
      </trkpt>
      <trkpt lat="31.897723870351911" lon="-3.173685595393181">
        <ele>840.32958984375</ele>
        <time>2011-04-20T09:26:16Z</time>
      </trkpt>
      <trkpt lat="31.897121546790004" lon="-3.173551065847278">
        <ele>843.694091796875</ele>
        <time>2011-04-20T09:26:23Z</time>
      </trkpt>
      <trkpt lat="31.896890038624406" lon="-3.173485770821571">
        <ele>846.578369140625</ele>
        <time>2011-04-20T09:26:26Z</time>
      </trkpt>
      <trkpt lat="31.896153017878532" lon="-3.173475041985512">
        <ele>849.462158203125</ele>
        <time>2011-04-20T09:26:34Z</time>
      </trkpt>
      <trkpt lat="31.895570727065206" lon="-3.173515945672989">
        <ele>852.82666015625</ele>
        <time>2011-04-20T09:26:40Z</time>
      </trkpt>
      <trkpt lat="31.895051635801792" lon="-3.173664389178157">
        <ele>851.865478515625</ele>
        <time>2011-04-20T09:26:49Z</time>
      </trkpt>
      <trkpt lat="31.894596749916673" lon="-3.173670927062631">
        <ele>853.307373046875</ele>
        <time>2011-04-20T09:26:54Z</time>
      </trkpt>
      <trkpt lat="31.894032144919038" lon="-3.173412596806884">
        <ele>854.268798828125</ele>
        <time>2011-04-20T09:27:00Z</time>
      </trkpt>
      <trkpt lat="31.89375763759017" lon="-3.173120571300387">
        <ele>853.7880859375</ele>
        <time>2011-04-20T09:27:04Z</time>
      </trkpt>
      <trkpt lat="31.893071159720421" lon="-3.17213268019259">
        <ele>854.749267578125</ele>
        <time>2011-04-20T09:27:14Z</time>
      </trkpt>
      <trkpt lat="31.892307735979557" lon="-3.171733366325498">
        <ele>851.865478515625</ele>
        <time>2011-04-20T09:27:22Z</time>
      </trkpt>
      <trkpt lat="31.892211679369211" lon="-3.171688355505467">
        <ele>851.865478515625</ele>
        <time>2011-04-20T09:27:23Z</time>
      </trkpt>
      <trkpt lat="31.891760649159551" lon="-3.171303458511829">
        <ele>852.82666015625</ele>
        <time>2011-04-20T09:27:29Z</time>
      </trkpt>
      <trkpt lat="31.891380529850721" lon="-3.171140933409333">
        <ele>852.345947265625</ele>
        <time>2011-04-20T09:27:35Z</time>
      </trkpt>
      <trkpt lat="31.89044276252389" lon="-3.17109189927578">
        <ele>850.904052734375</ele>
        <time>2011-04-20T09:27:45Z</time>
      </trkpt>
      <trkpt lat="31.889725774526596" lon="-3.170867767184973">
        <ele>848.500732421875</ele>
        <time>2011-04-20T09:27:54Z</time>
      </trkpt>
      <trkpt lat="31.889473060145974" lon="-3.170844381675124">
        <ele>848.020263671875</ele>
        <time>2011-04-20T09:27:57Z</time>
      </trkpt>
      <trkpt lat="31.88910199329257" lon="-3.170934990048409">
        <ele>847.53955078125</ele>
        <time>2011-04-20T09:28:01Z</time>
      </trkpt>
      <trkpt lat="31.888177553191781" lon="-3.1713274307549">
        <ele>843.694091796875</ele>
        <time>2011-04-20T09:28:10Z</time>
      </trkpt>
      <trkpt lat="31.887361658737063" lon="-3.171215280890465">
        <ele>843.21337890625</ele>
        <time>2011-04-20T09:28:18Z</time>
      </trkpt>
      <trkpt lat="31.886999728158116" lon="-3.171011097729206">
        <ele>842.73291015625</ele>
        <time>2011-04-20T09:28:22Z</time>
      </trkpt>
      <trkpt lat="31.886238567531109" lon="-3.170839017257094">
        <ele>842.252197265625</ele>
        <time>2011-04-20T09:28:30Z</time>
      </trkpt>
      <trkpt lat="31.885298788547516" lon="-3.170877741649747">
        <ele>843.694091796875</ele>
        <time>2011-04-20T09:28:39Z</time>
      </trkpt>
      <trkpt lat="31.884423969313502" lon="-3.170812949538231">
        <ele>845.13623046875</ele>
        <time>2011-04-20T09:28:48Z</time>
      </trkpt>
      <trkpt lat="31.884221881628036" lon="-3.170797526836395">
        <ele>845.616943359375</ele>
        <time>2011-04-20T09:28:50Z</time>
      </trkpt>
      <trkpt lat="31.883825166150928" lon="-3.170888721942902">
        <ele>847.53955078125</ele>
        <time>2011-04-20T09:28:54Z</time>
      </trkpt>
      <trkpt lat="31.882549775764346" lon="-3.171401526778936">
        <ele>842.73291015625</ele>
        <time>2011-04-20T09:29:06Z</time>
      </trkpt>
      <trkpt lat="31.880892422050238" lon="-3.171890778467059">
        <ele>840.81005859375</ele>
        <time>2011-04-20T09:29:19Z</time>
      </trkpt>
      <trkpt lat="31.879298435524106" lon="-3.172294953837991">
        <ele>840.32958984375</ele>
        <time>2011-04-20T09:29:32Z</time>
      </trkpt>
      <trkpt lat="31.878175344318151" lon="-3.172429483383894">
        <ele>842.252197265625</ele>
        <time>2011-04-20T09:29:42Z</time>
      </trkpt>
      <trkpt lat="31.877333298325539" lon="-3.172596031799913">
        <ele>842.252197265625</ele>
        <time>2011-04-20T09:29:50Z</time>
      </trkpt>
      <trkpt lat="31.876939265057445" lon="-3.172548254951835">
        <ele>843.694091796875</ele>
        <time>2011-04-20T09:29:54Z</time>
      </trkpt>
      <trkpt lat="31.876767938956618" lon="-3.172479523345828">
        <ele>843.21337890625</ele>
        <time>2011-04-20T09:29:56Z</time>
      </trkpt>
      <trkpt lat="31.875952379778028" lon="-3.172470554709435">
        <ele>844.175048828125</ele>
        <time>2011-04-20T09:30:04Z</time>
      </trkpt>
      <trkpt lat="31.87490975484252" lon="-3.172386987134814">
        <ele>844.175048828125</ele>
        <time>2011-04-20T09:30:13Z</time>
      </trkpt>
      <trkpt lat="31.874026888981462" lon="-3.172093369066715">
        <ele>843.694091796875</ele>
        <time>2011-04-20T09:30:21Z</time>
      </trkpt>
      <trkpt lat="31.873619193211198" lon="-3.171761361882091">
        <ele>844.175048828125</ele>
        <time>2011-04-20T09:30:25Z</time>
      </trkpt>
      <trkpt lat="31.872461568564177" lon="-3.170680431649089">
        <ele>843.694091796875</ele>
        <time>2011-04-20T09:30:36Z</time>
      </trkpt>
      <trkpt lat="31.872248835861683" lon="-3.170510279014707">
        <ele>844.175048828125</ele>
        <time>2011-04-20T09:30:38Z</time>
      </trkpt>
      <trkpt lat="31.871667131781578" lon="-3.170334845781326">
        <ele>845.13623046875</ele>
        <time>2011-04-20T09:30:43Z</time>
      </trkpt>
      <trkpt lat="31.870720228180289" lon="-3.170197298750281">
        <ele>847.53955078125</ele>
        <time>2011-04-20T09:30:51Z</time>
      </trkpt>
      <trkpt lat="31.87035134062171" lon="-3.170087160542607">
        <ele>846.09765625</ele>
        <time>2011-04-20T09:30:55Z</time>
      </trkpt>
      <trkpt lat="31.869900478050113" lon="-3.1697335280478">
        <ele>845.13623046875</ele>
        <time>2011-04-20T09:31:01Z</time>
      </trkpt>
      <trkpt lat="31.869444083422422" lon="-3.168852925300598">
        <ele>843.694091796875</ele>
        <time>2011-04-20T09:31:08Z</time>
      </trkpt>
      <trkpt lat="31.868769340217113" lon="-3.167258352041245">
        <ele>844.175048828125</ele>
        <time>2011-04-20T09:31:18Z</time>
      </trkpt>
      <trkpt lat="31.867930982261896" lon="-3.165431683883071">
        <ele>843.21337890625</ele>
        <time>2011-04-20T09:31:30Z</time>
      </trkpt>
      <trkpt lat="31.867032190784812" lon="-3.163391193374991">
        <ele>843.21337890625</ele>
        <time>2011-04-20T09:31:43Z</time>
      </trkpt>
      <trkpt lat="31.866394076496363" lon="-3.161763427779079">
        <ele>843.694091796875</ele>
        <time>2011-04-20T09:31:54Z</time>
      </trkpt>
      <trkpt lat="31.86597959138453" lon="-3.160516284406185">
        <ele>842.73291015625</ele>
        <time>2011-04-20T09:32:04Z</time>
      </trkpt>
      <trkpt lat="31.865781024098396" lon="-3.159953858703375">
        <ele>841.771484375</ele>
        <time>2011-04-20T09:32:09Z</time>
      </trkpt>
      <trkpt lat="31.865576840937138" lon="-3.159811533987522">
        <ele>837.92626953125</ele>
        <time>2011-04-20T09:32:14Z</time>
      </trkpt>
      <trkpt lat="31.865058252587914" lon="-3.159855287522078">
        <ele>838.406982421875</ele>
        <time>2011-04-20T09:32:22Z</time>
      </trkpt>
      <trkpt lat="31.864858930930495" lon="-3.159998198971152">
        <ele>837.445556640625</ele>
        <time>2011-04-20T09:32:26Z</time>
      </trkpt>
      <trkpt lat="31.864603031426668" lon="-3.160385023802519">
        <ele>835.52294921875</ele>
        <time>2011-04-20T09:32:35Z</time>
      </trkpt>
      <trkpt lat="31.864512925967574" lon="-3.160351160913706">
        <ele>836.003662109375</ele>
        <time>2011-04-20T09:32:43Z</time>
      </trkpt>
      <trkpt lat="31.864410918205976" lon="-3.160298774018884">
        <ele>856.191162109375</ele>
        <time>2011-04-20T09:35:39Z</time>
      </trkpt>
      <trkpt lat="31.864286279305816" lon="-3.16015494056046">
        <ele>852.82666015625</ele>
        <time>2011-04-20T09:35:46Z</time>
      </trkpt>
      <trkpt lat="31.863978495821357" lon="-3.159609697759152">
        <ele>850.423583984375</ele>
        <time>2011-04-20T09:35:56Z</time>
      </trkpt>
      <trkpt lat="31.863767439499497" lon="-3.159121787175536">
        <ele>849.462158203125</ele>
        <time>2011-04-20T09:36:06Z</time>
      </trkpt>
      <trkpt lat="31.863683369010687" lon="-3.158934284001589">
        <ele>849.462158203125</ele>
        <time>2011-04-20T09:36:16Z</time>
      </trkpt>
      <trkpt lat="31.863796021789312" lon="-3.159004775807262">
        <ele>843.694091796875</ele>
        <time>2011-04-20T09:36:29Z</time>
      </trkpt>
      <trkpt lat="31.863793674856424" lon="-3.159168642014265">
        <ele>835.04248046875</ele>
        <time>2011-04-20T09:36:36Z</time>
      </trkpt>
      <trkpt lat="31.864024344831705" lon="-3.159793680533767">
        <ele>830.716552734375</ele>
        <time>2011-04-20T09:36:47Z</time>
      </trkpt>
      <trkpt lat="31.864056782796979" lon="-3.160465573891997">
        <ele>827.832275390625</ele>
        <time>2011-04-20T09:36:58Z</time>
      </trkpt>
      <trkpt lat="31.863841954618692" lon="-3.161077871918678">
        <ele>827.351806640625</ele>
        <time>2011-04-20T09:37:06Z</time>
      </trkpt>
      <trkpt lat="31.863189339637756" lon="-3.161781448870897">
        <ele>825.90966796875</ele>
        <time>2011-04-20T09:37:17Z</time>
      </trkpt>
      <trkpt lat="31.862729759886861" lon="-3.162325099110603">
        <ele>823.506591796875</ele>
        <time>2011-04-20T09:37:26Z</time>
      </trkpt>
      <trkpt lat="31.862524822354317" lon="-3.162547554820776">
        <ele>823.506591796875</ele>
        <time>2011-04-20T09:37:37Z</time>
      </trkpt>
      <trkpt lat="31.862578382715583" lon="-3.162650736048818">
        <ele>822.545166015625</ele>
        <time>2011-04-20T09:37:41Z</time>
      </trkpt>
      <trkpt lat="31.862796898931265" lon="-3.16310134716332">
        <ele>821.583740234375</ele>
        <time>2011-04-20T09:37:49Z</time>
      </trkpt>
      <trkpt lat="31.862645018845797" lon="-3.163097156211734">
        <ele>821.583740234375</ele>
        <time>2011-04-20T09:37:53Z</time>
      </trkpt>
      <trkpt lat="31.86255038715899" lon="-3.162984838709235">
        <ele>822.545166015625</ele>
        <time>2011-04-20T09:37:56Z</time>
      </trkpt>
      <trkpt lat="31.862462544813752" lon="-3.1628761254251">
        <ele>823.506591796875</ele>
        <time>2011-04-20T09:38:00Z</time>
      </trkpt>
      <trkpt lat="31.862306641414762" lon="-3.16300411708653">
        <ele>824.4677734375</ele>
        <time>2011-04-20T09:38:06Z</time>
      </trkpt>
      <trkpt lat="31.862106649205089" lon="-3.163571823388338">
        <ele>822.545166015625</ele>
        <time>2011-04-20T09:38:17Z</time>
      </trkpt>
      <trkpt lat="31.862085359171033" lon="-3.163701826706529">
        <ele>822.064453125</ele>
        <time>2011-04-20T09:38:20Z</time>
      </trkpt>
      <trkpt lat="31.861832896247506" lon="-3.16400189884007">
        <ele>822.064453125</ele>
        <time>2011-04-20T09:38:27Z</time>
      </trkpt>
      <trkpt lat="31.861471468582749" lon="-3.164465418085456">
        <ele>824.4677734375</ele>
        <time>2011-04-20T09:38:35Z</time>
      </trkpt>
      <trkpt lat="31.860817763954401" lon="-3.165023820474744">
        <ele>824.4677734375</ele>
        <time>2011-04-20T09:38:44Z</time>
      </trkpt>
      <trkpt lat="31.859834734350443" lon="-3.165669646114111">
        <ele>823.987060546875</ele>
        <time>2011-04-20T09:38:55Z</time>
      </trkpt>
      <trkpt lat="31.858978774398565" lon="-3.166270041838288">
        <ele>823.987060546875</ele>
        <time>2011-04-20T09:39:04Z</time>
      </trkpt>
      <trkpt lat="31.85776918195188" lon="-3.167365724220872">
        <ele>827.351806640625</ele>
        <time>2011-04-20T09:39:17Z</time>
      </trkpt>
      <trkpt lat="31.85685396194458" lon="-3.168027056381106">
        <ele>829.2744140625</ele>
        <time>2011-04-20T09:39:27Z</time>
      </trkpt>
      <trkpt lat="31.856675846502185" lon="-3.168128645047545">
        <ele>830.23583984375</ele>
        <time>2011-04-20T09:39:29Z</time>
      </trkpt>
      <trkpt lat="31.855869758874178" lon="-3.168826019391418">
        <ele>832.63916015625</ele>
        <time>2011-04-20T09:39:38Z</time>
      </trkpt>
      <trkpt lat="31.854966189712286" lon="-3.169506965205073">
        <ele>829.2744140625</ele>
        <time>2011-04-20T09:39:48Z</time>
      </trkpt>
      <trkpt lat="31.853621480986476" lon="-3.170468537136912">
        <ele>825.428955078125</ele>
        <time>2011-04-20T09:40:03Z</time>
      </trkpt>
      <trkpt lat="31.852819584310055" lon="-3.171278648078442">
        <ele>824.4677734375</ele>
        <time>2011-04-20T09:40:13Z</time>
      </trkpt>
      <trkpt lat="31.852340642362833" lon="-3.171947356313467">
        <ele>822.545166015625</ele>
        <time>2011-04-20T09:40:21Z</time>
      </trkpt>
      <trkpt lat="31.852033194154501" lon="-3.172063194215298">
        <ele>823.987060546875</ele>
        <time>2011-04-20T09:40:27Z</time>
      </trkpt>
      <trkpt lat="31.851766817271709" lon="-3.172022458165884">
        <ele>825.428955078125</ele>
        <time>2011-04-20T09:40:33Z</time>
      </trkpt>
      <trkpt lat="31.851561041548848" lon="-3.172013824805617">
        <ele>825.428955078125</ele>
        <time>2011-04-20T09:40:37Z</time>
      </trkpt>
      <trkpt lat="31.85076953843236" lon="-3.171861860901117">
        <ele>826.87109375</ele>
        <time>2011-04-20T09:40:46Z</time>
      </trkpt>
      <trkpt lat="31.850120946764946" lon="-3.171658432111144">
        <ele>826.390380859375</ele>
        <time>2011-04-20T09:40:53Z</time>
      </trkpt>
      <trkpt lat="31.849918439984322" lon="-3.171511832624674">
        <ele>826.87109375</ele>
        <time>2011-04-20T09:40:56Z</time>
      </trkpt>
      <trkpt lat="31.849744347855449" lon="-3.17140999250114">
        <ele>826.390380859375</ele>
        <time>2011-04-20T09:40:59Z</time>
      </trkpt>
      <trkpt lat="31.849536979570985" lon="-3.171185776591301">
        <ele>826.390380859375</ele>
        <time>2011-04-20T09:41:05Z</time>
      </trkpt>
      <trkpt lat="31.84928853996098" lon="-3.171250317245722">
        <ele>824.948486328125</ele>
        <time>2011-04-20T09:41:11Z</time>
      </trkpt>
      <trkpt lat="31.849130289629102" lon="-3.171179490163922">
        <ele>824.4677734375</ele>
        <time>2011-04-20T09:41:14Z</time>
      </trkpt>
      <trkpt lat="31.84882678091526" lon="-3.171224584802985">
        <ele>823.987060546875</ele>
        <time>2011-04-20T09:41:21Z</time>
      </trkpt>
      <trkpt lat="31.848628548905253" lon="-3.171463217586279">
        <ele>823.02587890625</ele>
        <time>2011-04-20T09:41:26Z</time>
      </trkpt>
      <trkpt lat="31.848426125943661" lon="-3.171552233397961">
        <ele>823.506591796875</ele>
        <time>2011-04-20T09:41:29Z</time>
      </trkpt>
      <trkpt lat="31.84772883541882" lon="-3.171958588063717">
        <ele>825.428955078125</ele>
        <time>2011-04-20T09:41:39Z</time>
      </trkpt>
      <trkpt lat="31.847455753013492" lon="-3.172117425128818">
        <ele>826.87109375</ele>
        <time>2011-04-20T09:41:43Z</time>
      </trkpt>
      <trkpt lat="31.847056271508336" lon="-3.172062523663044">
        <ele>826.390380859375</ele>
        <time>2011-04-20T09:41:49Z</time>
      </trkpt>
      <trkpt lat="31.846945127472281" lon="-3.171931179240346">
        <ele>825.90966796875</ele>
        <time>2011-04-20T09:41:51Z</time>
      </trkpt>
      <trkpt lat="31.846790229901671" lon="-3.17170025780797">
        <ele>825.428955078125</ele>
        <time>2011-04-20T09:41:54Z</time>
      </trkpt>
      <trkpt lat="31.846332661807537" lon="-3.171388283371925">
        <ele>825.428955078125</ele>
        <time>2011-04-20T09:42:01Z</time>
      </trkpt>
      <trkpt lat="31.846179021522403" lon="-3.1713982578367">
        <ele>825.428955078125</ele>
        <time>2011-04-20T09:42:03Z</time>
      </trkpt>
      <trkpt lat="31.845447197556496" lon="-3.171582575887442">
        <ele>825.428955078125</ele>
        <time>2011-04-20T09:42:13Z</time>
      </trkpt>
      <trkpt lat="31.845302442088723" lon="-3.171651726588607">
        <ele>826.390380859375</ele>
        <time>2011-04-20T09:42:15Z</time>
      </trkpt>
      <trkpt lat="31.844580927863717" lon="-3.171828668564558">
        <ele>826.390380859375</ele>
        <time>2011-04-20T09:42:24Z</time>
      </trkpt>
      <trkpt lat="31.843539727851748" lon="-3.172067133709788">
        <ele>827.832275390625</ele>
        <time>2011-04-20T09:42:36Z</time>
      </trkpt>
      <trkpt lat="31.84280195273459" lon="-3.172143660485745">
        <ele>826.87109375</ele>
        <time>2011-04-20T09:42:44Z</time>
      </trkpt>
      <trkpt lat="31.841982789337635" lon="-3.172286320477724">
        <ele>827.351806640625</ele>
        <time>2011-04-20T09:42:53Z</time>
      </trkpt>
      <trkpt lat="31.841472331434488" lon="-3.172528389841318">
        <ele>828.313232421875</ele>
        <time>2011-04-20T09:43:01Z</time>
      </trkpt>
      <trkpt lat="31.841222466900945" lon="-3.172624530270696">
        <ele>827.832275390625</ele>
        <time>2011-04-20T09:43:04Z</time>
      </trkpt>
      <trkpt lat="31.840369775891304" lon="-3.173200869932771">
        <ele>827.832275390625</ele>
        <time>2011-04-20T09:43:14Z</time>
      </trkpt>
      <trkpt lat="31.839493196457624" lon="-3.17366992123425">
        <ele>830.23583984375</ele>
        <time>2011-04-20T09:43:23Z</time>
      </trkpt>
      <trkpt lat="31.839225646108389" lon="-3.173816269263625">
        <ele>830.716552734375</ele>
        <time>2011-04-20T09:43:26Z</time>
      </trkpt>
      <trkpt lat="31.838473957031965" lon="-3.174064122140408">
        <ele>826.87109375</ele>
        <time>2011-04-20T09:43:35Z</time>
      </trkpt>
      <trkpt lat="31.838383516296744" lon="-3.174094296991825">
        <ele>826.87109375</ele>
        <time>2011-04-20T09:43:36Z</time>
      </trkpt>
      <trkpt lat="31.837480366230011" lon="-3.17412044852972">
        <ele>822.545166015625</ele>
        <time>2011-04-20T09:43:45Z</time>
      </trkpt>
      <trkpt lat="31.836341936141253" lon="-3.174091279506683">
        <ele>821.583740234375</ele>
        <time>2011-04-20T09:43:56Z</time>
      </trkpt>
      <trkpt lat="31.835600472986698" lon="-3.174100751057267">
        <ele>820.62255859375</ele>
        <time>2011-04-20T09:44:04Z</time>
      </trkpt>
      <trkpt lat="31.835337365046144" lon="-3.174055572599173">
        <ele>820.62255859375</ele>
        <time>2011-04-20T09:44:07Z</time>
      </trkpt>
      <trkpt lat="31.835033353418112" lon="-3.173900172114372">
        <ele>819.661376953125</ele>
        <time>2011-04-20T09:44:11Z</time>
      </trkpt>
      <trkpt lat="31.834542341530323" lon="-3.173693055287004">
        <ele>819.661376953125</ele>
        <time>2011-04-20T09:44:17Z</time>
      </trkpt>
      <trkpt lat="31.833585882559419" lon="-3.173745861276984">
        <ele>820.141845703125</ele>
        <time>2011-04-20T09:44:28Z</time>
      </trkpt>
      <trkpt lat="31.833025384694338" lon="-3.17373001947999">
        <ele>820.141845703125</ele>
        <time>2011-04-20T09:44:35Z</time>
      </trkpt>
      <trkpt lat="31.832760684192181" lon="-3.173678135499358">
        <ele>820.141845703125</ele>
        <time>2011-04-20T09:44:39Z</time>
      </trkpt>
      <trkpt lat="31.832280484959483" lon="-3.173471437767148">
        <ele>820.62255859375</ele>
        <time>2011-04-20T09:44:46Z</time>
      </trkpt>
      <trkpt lat="31.832045624032617" lon="-3.173353923484683">
        <ele>821.103271484375</ele>
        <time>2011-04-20T09:44:49Z</time>
      </trkpt>
      <trkpt lat="31.831279182806611" lon="-3.173195337876678">
        <ele>822.064453125</ele>
        <time>2011-04-20T09:44:58Z</time>
      </trkpt>
      <trkpt lat="31.831022528931499" lon="-3.17320229485631">
        <ele>822.064453125</ele>
        <time>2011-04-20T09:45:01Z</time>
      </trkpt>
      <trkpt lat="31.83027159422636" lon="-3.173399521037936">
        <ele>824.4677734375</ele>
        <time>2011-04-20T09:45:11Z</time>
      </trkpt>
      <trkpt lat="31.829700451344252" lon="-3.173256693407893">
        <ele>824.4677734375</ele>
        <time>2011-04-20T09:45:19Z</time>
      </trkpt>
      <trkpt lat="31.829002071171999" lon="-3.173313774168491">
        <ele>825.90966796875</ele>
        <time>2011-04-20T09:45:28Z</time>
      </trkpt>
      <trkpt lat="31.828797133639455" lon="-3.173367166891694">
        <ele>826.87109375</ele>
        <time>2011-04-20T09:45:31Z</time>
      </trkpt>
      <trkpt lat="31.82817586697638" lon="-3.173541259020567">
        <ele>828.313232421875</ele>
        <time>2011-04-20T09:45:39Z</time>
      </trkpt>
      <trkpt lat="31.827443791553378" lon="-3.173917522653937">
        <ele>827.351806640625</ele>
        <time>2011-04-20T09:45:50Z</time>
      </trkpt>
      <trkpt lat="31.827198369428515" lon="-3.17417224869132">
        <ele>826.87109375</ele>
        <time>2011-04-20T09:45:57Z</time>
      </trkpt>
      <trkpt lat="31.827004998922348" lon="-3.174368217587471">
        <ele>827.351806640625</ele>
        <time>2011-04-20T09:46:03Z</time>
      </trkpt>
      <trkpt lat="31.826790422201157" lon="-3.174447175115347">
        <ele>827.832275390625</ele>
        <time>2011-04-20T09:46:07Z</time>
      </trkpt>
      <trkpt lat="31.826179884374142" lon="-3.174619842320681">
        <ele>830.23583984375</ele>
        <time>2011-04-20T09:46:16Z</time>
      </trkpt>
      <trkpt lat="31.825907556340098" lon="-3.174867443740368">
        <ele>832.63916015625</ele>
        <time>2011-04-20T09:46:21Z</time>
      </trkpt>
      <trkpt lat="31.825603041797876" lon="-3.175333058461547">
        <ele>833.600341796875</ele>
        <time>2011-04-20T09:46:29Z</time>
      </trkpt>
      <trkpt lat="31.825148742645979" lon="-3.17553011700511">
        <ele>836.484375</ele>
        <time>2011-04-20T09:46:38Z</time>
      </trkpt>
      <trkpt lat="31.824728893116117" lon="-3.175695240497589">
        <ele>839.3681640625</ele>
        <time>2011-04-20T09:46:46Z</time>
      </trkpt>
      <trkpt lat="31.824427060782909" lon="-3.175844438374043">
        <ele>841.290771484375</ele>
        <time>2011-04-20T09:46:51Z</time>
      </trkpt>
      <trkpt lat="31.823684927076101" lon="-3.176332851871848">
        <ele>848.020263671875</ele>
        <time>2011-04-20T09:47:02Z</time>
      </trkpt>
      <trkpt lat="31.822973387315869" lon="-3.176755551248789">
        <ele>852.82666015625</ele>
        <time>2011-04-20T09:47:12Z</time>
      </trkpt>
      <trkpt lat="31.822195127606392" lon="-3.177033327519894">
        <ele>856.671875</ele>
        <time>2011-04-20T09:47:22Z</time>
      </trkpt>
      <trkpt lat="31.821624990552664" lon="-3.177131563425064">
        <ele>859.0751953125</ele>
        <time>2011-04-20T09:47:30Z</time>
      </trkpt>
      <trkpt lat="31.821219138801098" lon="-3.177226530387998">
        <ele>861.478759765625</ele>
        <time>2011-04-20T09:47:36Z</time>
      </trkpt>
      <trkpt lat="31.821101121604443" lon="-3.177220160141587">
        <ele>862.43994140625</ele>
        <time>2011-04-20T09:47:42Z</time>
      </trkpt>
      <trkpt lat="31.820938847959042" lon="-3.177195684984326">
        <ele>865.8046875</ele>
        <time>2011-04-20T09:48:10Z</time>
      </trkpt>
      <trkpt lat="31.820490751415491" lon="-3.177150338888168">
        <ele>867.72705078125</ele>
        <time>2011-04-20T09:48:18Z</time>
      </trkpt>
      <trkpt lat="31.819831430912018" lon="-3.177029471844435">
        <ele>873.9755859375</ele>
        <time>2011-04-20T09:48:31Z</time>
      </trkpt>
      <trkpt lat="31.819233130663633" lon="-3.176966775208712">
        <ele>878.782470703125</ele>
        <time>2011-04-20T09:48:42Z</time>
      </trkpt>
      <trkpt lat="31.818839935585856" lon="-3.176897624507546">
        <ele>878.3017578125</ele>
        <time>2011-04-20T09:48:53Z</time>
      </trkpt>
      <trkpt lat="31.818330064415932" lon="-3.176775583997369">
        <ele>877.821044921875</ele>
        <time>2011-04-20T09:49:19Z</time>
      </trkpt>
      <trkpt lat="31.817846093326807" lon="-3.176556816324592">
        <ele>881.185791015625</ele>
        <time>2011-04-20T09:49:28Z</time>
      </trkpt>
      <trkpt lat="31.817233040928841" lon="-3.176347268745303">
        <ele>888.3955078125</ele>
        <time>2011-04-20T09:49:39Z</time>
      </trkpt>
      <trkpt lat="31.816948726773262" lon="-3.176263365894556">
        <ele>892.7216796875</ele>
        <time>2011-04-20T09:49:44Z</time>
      </trkpt>
      <trkpt lat="31.816552178934216" lon="-3.176315668970347">
        <ele>899.931396484375</ele>
        <time>2011-04-20T09:49:51Z</time>
      </trkpt>
      <trkpt lat="31.816466432064772" lon="-3.176229167729616">
        <ele>902.815185546875</ele>
        <time>2011-04-20T09:49:55Z</time>
      </trkpt>
      <trkpt lat="31.816364675760269" lon="-3.176024984568358">
        <ele>907.621826171875</ele>
        <time>2011-04-20T09:50:03Z</time>
      </trkpt>
      <trkpt lat="31.816259399056435" lon="-3.175705634057522">
        <ele>912.9091796875</ele>
        <time>2011-04-20T09:50:36Z</time>
      </trkpt>
      <trkpt lat="31.816179351881146" lon="-3.17544512450695">
        <ele>917.715576171875</ele>
        <time>2011-04-20T09:50:42Z</time>
      </trkpt>
      <trkpt lat="31.816178932785988" lon="-3.175249239429832">
        <ele>922.522216796875</ele>
        <time>2011-04-20T09:50:49Z</time>
      </trkpt>
      <trkpt lat="31.816203743219376" lon="-3.175086630508304">
        <ele>931.65478515625</ele>
        <time>2011-04-20T09:51:14Z</time>
      </trkpt>
      <trkpt lat="31.816286640241742" lon="-3.174800388514996">
        <ele>939.34521484375</ele>
        <time>2011-04-20T09:51:20Z</time>
      </trkpt>
      <trkpt lat="31.816378338262439" lon="-3.174669044092298">
        <ele>942.710205078125</ele>
        <time>2011-04-20T09:51:23Z</time>
      </trkpt>
      <trkpt lat="31.816448075696826" lon="-3.174438374117017">
        <ele>946.07470703125</ele>
        <time>2011-04-20T09:51:27Z</time>
      </trkpt>
      <trkpt lat="31.81637255474925" lon="-3.174135871231556">
        <ele>945.11328125</ele>
        <time>2011-04-20T09:51:33Z</time>
      </trkpt>
      <trkpt lat="31.816269876435399" lon="-3.174112569540739">
        <ele>940.787353515625</ele>
        <time>2011-04-20T09:51:41Z</time>
      </trkpt>
      <trkpt lat="31.816510520875454" lon="-3.174074599519372">
        <ele>895.124755859375</ele>
        <time>2011-04-20T09:56:06Z</time>
      </trkpt>
      <trkpt lat="31.816381942480803" lon="-3.174121957272291">
        <ele>928.77099609375</ele>
        <time>2011-04-20T09:57:02Z</time>
      </trkpt>
      <trkpt lat="31.816290495917201" lon="-3.174232598394156">
        <ele>954.245849609375</ele>
        <time>2011-04-20T09:57:46Z</time>
      </trkpt>
      <trkpt lat="31.81618052534759" lon="-3.174434434622526">
        <ele>956.16845703125</ele>
        <time>2011-04-20T10:13:19Z</time>
      </trkpt>
      <trkpt lat="31.81580912321806" lon="-3.174847327172756">
        <ele>957.1298828125</ele>
        <time>2011-04-20T10:13:26Z</time>
      </trkpt>
      <trkpt lat="31.814968753606081" lon="-3.175536068156362">
        <ele>957.610595703125</ele>
        <time>2011-04-20T10:13:36Z</time>
      </trkpt>
      <trkpt lat="31.814193930476904" lon="-3.176097823306918">
        <ele>957.610595703125</ele>
        <time>2011-04-20T10:13:44Z</time>
      </trkpt>
      <trkpt lat="31.812750147655606" lon="-3.176949173212051">
        <ele>956.16845703125</ele>
        <time>2011-04-20T10:13:58Z</time>
      </trkpt>
      <trkpt lat="31.811764854937792" lon="-3.177553592249751">
        <ele>955.687744140625</ele>
        <time>2011-04-20T10:14:08Z</time>
      </trkpt>
      <trkpt lat="31.811085334047675" lon="-3.178331349045038">
        <ele>957.1298828125</ele>
        <time>2011-04-20T10:14:16Z</time>
      </trkpt>
      <trkpt lat="31.810366166755557" lon="-3.179436586797237">
        <ele>959.052490234375</ele>
        <time>2011-04-20T10:14:27Z</time>
      </trkpt>
      <trkpt lat="31.809724783524871" lon="-3.180416934192181">
        <ele>961.455810546875</ele>
        <time>2011-04-20T10:14:36Z</time>
      </trkpt>
      <trkpt lat="31.80928104557097" lon="-3.181388564407826">
        <ele>963.37841796875</ele>
        <time>2011-04-20T10:14:44Z</time>
      </trkpt>
      <trkpt lat="31.809000335633755" lon="-3.18232842721045">
        <ele>965.301025390625</ele>
        <time>2011-04-20T10:14:52Z</time>
      </trkpt>
      <trkpt lat="31.808648128062487" lon="-3.183579677715898">
        <ele>968.184814453125</ele>
        <time>2011-04-20T10:15:04Z</time>
      </trkpt>
      <trkpt lat="31.808496247977018" lon="-3.183992486447096">
        <ele>970.107421875</ele>
        <time>2011-04-20T10:15:09Z</time>
      </trkpt>
      <trkpt lat="31.808292986825109" lon="-3.184981383383274">
        <ele>971.06884765625</ele>
        <time>2011-04-20T10:15:21Z</time>
      </trkpt>
      <trkpt lat="31.80809416808188" lon="-3.18587095476687">
        <ele>972.99169921875</ele>
        <time>2011-04-20T10:15:32Z</time>
      </trkpt>
      <trkpt lat="31.807953771203756" lon="-3.186357524245977">
        <ele>974.914306640625</ele>
        <time>2011-04-20T10:15:38Z</time>
      </trkpt>
      <trkpt lat="31.808013785630465" lon="-3.18669673986733">
        <ele>975.87548828125</ele>
        <time>2011-04-20T10:15:43Z</time>
      </trkpt>
      <trkpt lat="31.808465570211411" lon="-3.187304679304361">
        <ele>979.720703125</ele>
        <time>2011-04-20T10:15:55Z</time>
      </trkpt>
      <trkpt lat="31.808602195233107" lon="-3.18747416138649">
        <ele>982.1240234375</ele>
        <time>2011-04-20T10:16:01Z</time>
      </trkpt>
      <trkpt lat="31.808600854128599" lon="-3.187324879691005">
        <ele>978.759521484375</ele>
        <time>2011-04-20T10:27:18Z</time>
      </trkpt>
      <trkpt lat="31.808514185249805" lon="-3.18738573230803">
        <ele>961.9365234375</ele>
        <time>2011-04-20T10:27:42Z</time>
      </trkpt>
      <trkpt lat="31.808357024565339" lon="-3.187354635447264">
        <ele>949.919921875</ele>
        <time>2011-04-20T10:28:11Z</time>
      </trkpt>
      <trkpt lat="31.80824613198638" lon="-3.187266960740089">
        <ele>946.555419921875</ele>
        <time>2011-04-20T10:28:19Z</time>
      </trkpt>
      <trkpt lat="31.808137921616435" lon="-3.187125977128744">
        <ele>944.632568359375</ele>
        <time>2011-04-20T10:29:02Z</time>
      </trkpt>
      <trkpt lat="31.807908844202757" lon="-3.186787096783519">
        <ele>943.67138671875</ele>
        <time>2011-04-20T10:29:08Z</time>
      </trkpt>
      <trkpt lat="31.807866431772709" lon="-3.186398092657328">
        <ele>944.152099609375</ele>
        <time>2011-04-20T10:29:13Z</time>
      </trkpt>
      <trkpt lat="31.808145716786385" lon="-3.185240216553211">
        <ele>950.881103515625</ele>
        <time>2011-04-20T10:29:25Z</time>
      </trkpt>
      <trkpt lat="31.808338165283203" lon="-3.184292055666447">
        <ele>953.76513671875</ele>
        <time>2011-04-20T10:29:36Z</time>
      </trkpt>
      <trkpt lat="31.808592975139618" lon="-3.183461828157306">
        <ele>951.842529296875</ele>
        <time>2011-04-20T10:29:47Z</time>
      </trkpt>
      <trkpt lat="31.80885792709887" lon="-3.182514170184732">
        <ele>950.881103515625</ele>
        <time>2011-04-20T10:29:58Z</time>
      </trkpt>
      <trkpt lat="31.80919555015862" lon="-3.181388732045889">
        <ele>948.95849609375</ele>
        <time>2011-04-20T10:30:12Z</time>
      </trkpt>
      <trkpt lat="31.809625877067447" lon="-3.18044132553041">
        <ele>947.997314453125</ele>
        <time>2011-04-20T10:30:24Z</time>
      </trkpt>
      <trkpt lat="31.810211855918169" lon="-3.179572876542807">
        <ele>947.997314453125</ele>
        <time>2011-04-20T10:30:36Z</time>
      </trkpt>
      <trkpt lat="31.810865728184581" lon="-3.178577860817313">
        <ele>949.439208984375</ele>
        <time>2011-04-20T10:30:48Z</time>
      </trkpt>
      <trkpt lat="31.811576848849654" lon="-3.177658785134554">
        <ele>949.919921875</ele>
        <time>2011-04-20T10:30:59Z</time>
      </trkpt>
      <trkpt lat="31.812412524595857" lon="-3.177086217328906">
        <ele>949.919921875</ele>
        <time>2011-04-20T10:31:09Z</time>
      </trkpt>
      <trkpt lat="31.813385160639882" lon="-3.176540052518249">
        <ele>949.439208984375</ele>
        <time>2011-04-20T10:31:19Z</time>
      </trkpt>
      <trkpt lat="31.814896333962679" lon="-3.175548389554024">
        <ele>948.477783203125</ele>
        <time>2011-04-20T10:31:34Z</time>
      </trkpt>
      <trkpt lat="31.815827144309878" lon="-3.174719922244549">
        <ele>966.26220703125</ele>
        <time>2011-04-20T10:31:45Z</time>
      </trkpt>
      <trkpt lat="31.81618882343173" lon="-3.174285488203168">
        <ele>975.87548828125</ele>
        <time>2011-04-20T10:31:51Z</time>
      </trkpt>
      <trkpt lat="31.816346989944577" lon="-3.174304598942399">
        <ele>981.162841796875</ele>
        <time>2011-04-20T10:31:56Z</time>
      </trkpt>
      <trkpt lat="31.816199887543917" lon="-3.174699386581779">
        <ele>985.008056640625</ele>
        <time>2011-04-20T10:32:08Z</time>
      </trkpt>
      <trkpt lat="31.816002577543259" lon="-3.174977581948042">
        <ele>981.162841796875</ele>
        <time>2011-04-20T10:32:19Z</time>
      </trkpt>
      <trkpt lat="31.815878273919225" lon="-3.175317049026489">
        <ele>970.107421875</ele>
        <time>2011-04-20T10:32:31Z</time>
      </trkpt>
      <trkpt lat="31.815896797925234" lon="-3.175671854987741">
        <ele>957.610595703125</ele>
        <time>2011-04-20T10:32:42Z</time>
      </trkpt>
      <trkpt lat="31.816066531464458" lon="-3.176171667873859">
        <ele>947.997314453125</ele>
        <time>2011-04-20T10:32:57Z</time>
      </trkpt>
      <trkpt lat="31.816337769851089" lon="-3.176362775266171">
        <ele>943.190673828125</ele>
        <time>2011-04-20T10:33:07Z</time>
      </trkpt>
      <trkpt lat="31.816672459244728" lon="-3.176309382542968">
        <ele>939.825927734375</ele>
        <time>2011-04-20T10:33:19Z</time>
      </trkpt>
      <trkpt lat="31.817102450877428" lon="-3.176438966766">
        <ele>930.693603515625</ele>
        <time>2011-04-20T10:33:28Z</time>
      </trkpt>
      <trkpt lat="31.817882051691413" lon="-3.176710875704885">
        <ele>914.35107421875</ele>
        <time>2011-04-20T10:33:42Z</time>
      </trkpt>
      <trkpt lat="31.818027980625629" lon="-3.176786229014397">
        <ele>912.428466796875</ele>
        <time>2011-04-20T10:33:46Z</time>
      </trkpt>
      <trkpt lat="31.818616725504398" lon="-3.176873233169317">
        <ele>909.544677734375</ele>
        <time>2011-04-20T10:33:59Z</time>
      </trkpt>
      <trkpt lat="31.81925056502223" lon="-3.176941964775324">
        <ele>906.660400390625</ele>
        <time>2011-04-20T10:34:09Z</time>
      </trkpt>
      <trkpt lat="31.819688938558102" lon="-3.176965517923236">
        <ele>904.73779296875</ele>
        <time>2011-04-20T10:34:15Z</time>
      </trkpt>
      <trkpt lat="31.820170478895307" lon="-3.177103651687503">
        <ele>898.969970703125</ele>
        <time>2011-04-20T10:34:22Z</time>
      </trkpt>
      <trkpt lat="31.82109072804451" lon="-3.177236337214708">
        <ele>897.04736328125</ele>
        <time>2011-04-20T10:34:33Z</time>
      </trkpt>
      <trkpt lat="31.821774691343307" lon="-3.177110189571977">
        <ele>892.240966796875</ele>
        <time>2011-04-20T10:34:42Z</time>
      </trkpt>
      <trkpt lat="31.822391599416733" lon="-3.176991166546941">
        <ele>890.798583984375</ele>
        <time>2011-04-20T10:34:49Z</time>
      </trkpt>
      <trkpt lat="31.823157034814358" lon="-3.176631163805723">
        <ele>885.9921875</ele>
        <time>2011-04-20T10:34:58Z</time>
      </trkpt>
      <trkpt lat="31.823985753580928" lon="-3.176099248230457">
        <ele>878.782470703125</ele>
        <time>2011-04-20T10:35:08Z</time>
      </trkpt>
      <trkpt lat="31.824652450159192" lon="-3.175730025395751">
        <ele>873.014404296875</ele>
        <time>2011-04-20T10:35:16Z</time>
      </trkpt>
      <trkpt lat="31.825276231393218" lon="-3.175497762858868">
        <ele>872.53369140625</ele>
        <time>2011-04-20T10:35:24Z</time>
      </trkpt>
      <trkpt lat="31.825412772595882" lon="-3.175443867221475">
        <ele>872.53369140625</ele>
        <time>2011-04-20T10:35:26Z</time>
      </trkpt>
      <trkpt lat="31.82565157301724" lon="-3.17519148811698">
        <ele>870.13037109375</ele>
        <time>2011-04-20T10:35:32Z</time>
      </trkpt>
      <trkpt lat="31.825854079797864" lon="-3.174858642742038">
        <ele>870.611083984375</ele>
        <time>2011-04-20T10:35:37Z</time>
      </trkpt>
      <trkpt lat="31.826212657615542" lon="-3.174641551449895">
        <ele>869.169189453125</ele>
        <time>2011-04-20T10:35:42Z</time>
      </trkpt>
      <trkpt lat="31.826707441359758" lon="-3.174499226734042">
        <ele>869.169189453125</ele>
        <time>2011-04-20T10:35:48Z</time>
      </trkpt>
      <trkpt lat="31.826994437724352" lon="-3.174389926716685">
        <ele>868.6884765625</ele>
        <time>2011-04-20T10:35:52Z</time>
      </trkpt>
      <trkpt lat="31.827195771038532" lon="-3.174191694706678">
        <ele>867.24658203125</ele>
        <time>2011-04-20T10:35:56Z</time>
      </trkpt>
      <trkpt lat="31.827737996354699" lon="-3.173784585669637">
        <ele>867.72705078125</ele>
        <time>2011-04-20T10:36:04Z</time>
      </trkpt>
      <trkpt lat="31.828653886914253" lon="-3.173470431938767">
        <ele>868.207763671875</ele>
        <time>2011-04-20T10:36:14Z</time>
      </trkpt>
      <trkpt lat="31.828911378979683" lon="-3.17338552325964">
        <ele>868.207763671875</ele>
        <time>2011-04-20T10:36:17Z</time>
      </trkpt>
      <trkpt lat="31.829600455239415" lon="-3.173295836895704">
        <ele>868.207763671875</ele>
        <time>2011-04-20T10:36:25Z</time>
      </trkpt>
      <trkpt lat="31.829691482707858" lon="-3.173292735591531">
        <ele>868.207763671875</ele>
        <time>2011-04-20T10:36:26Z</time>
      </trkpt>
      <trkpt lat="31.830232869833708" lon="-3.173419134691358">
        <ele>868.207763671875</ele>
        <time>2011-04-20T10:36:32Z</time>
      </trkpt>
      <trkpt lat="31.83088825084269" lon="-3.17331469617784">
        <ele>867.72705078125</ele>
        <time>2011-04-20T10:36:40Z</time>
      </trkpt>
      <trkpt lat="31.831135265529156" lon="-3.173238839954138">
        <ele>868.207763671875</ele>
        <time>2011-04-20T10:36:43Z</time>
      </trkpt>
      <trkpt lat="31.831871531903744" lon="-3.173319054767489">
        <ele>868.6884765625</ele>
        <time>2011-04-20T10:36:51Z</time>
      </trkpt>
      <trkpt lat="31.832155594602227" lon="-3.173388289287686">
        <ele>868.6884765625</ele>
        <time>2011-04-20T10:36:54Z</time>
      </trkpt>
      <trkpt lat="31.832940140739083" lon="-3.17370462231338">
        <ele>871.091796875</ele>
        <time>2011-04-20T10:37:04Z</time>
      </trkpt>
      <trkpt lat="31.833674060180783" lon="-3.173715937882662">
        <ele>873.9755859375</ele>
        <time>2011-04-20T10:37:14Z</time>
      </trkpt>
      <trkpt lat="31.834529349580407" lon="-3.173636645078659">
        <ele>871.572265625</ele>
        <time>2011-04-20T10:37:23Z</time>
      </trkpt>
      <trkpt lat="31.834744429215789" lon="-3.173659360036254">
        <ele>869.169189453125</ele>
        <time>2011-04-20T10:37:25Z</time>
      </trkpt>
      <trkpt lat="31.835072664543986" lon="-3.173797493800521">
        <ele>869.64990234375</ele>
        <time>2011-04-20T10:37:29Z</time>
      </trkpt>
      <trkpt lat="31.835444821044803" lon="-3.173993462696672">
        <ele>869.64990234375</ele>
        <time>2011-04-20T10:37:34Z</time>
      </trkpt>
      <trkpt lat="31.836611246690154" lon="-3.17397971637547">
        <ele>868.6884765625</ele>
        <time>2011-04-20T10:37:46Z</time>
      </trkpt>
      <trkpt lat="31.837696619331837" lon="-3.174023637548089">
        <ele>867.72705078125</ele>
        <time>2011-04-20T10:37:56Z</time>
      </trkpt>
      <trkpt lat="31.838361052796245" lon="-3.173997150734067">
        <ele>867.72705078125</ele>
        <time>2011-04-20T10:38:02Z</time>
      </trkpt>
      <trkpt lat="31.839402168989182" lon="-3.173626586794853">
        <ele>868.6884765625</ele>
        <time>2011-04-20T10:38:12Z</time>
      </trkpt>
      <trkpt lat="31.840267516672611" lon="-3.173151668161154">
        <ele>866.28515625</ele>
        <time>2011-04-20T10:38:20Z</time>
      </trkpt>
      <trkpt lat="31.841112077236176" lon="-3.172573316842318">
        <ele>862.920654296875</ele>
        <time>2011-04-20T10:38:28Z</time>
      </trkpt>
      <trkpt lat="31.841885223984718" lon="-3.172230245545507">
        <ele>862.43994140625</ele>
        <time>2011-04-20T10:38:36Z</time>
      </trkpt>
      <trkpt lat="31.842353520914912" lon="-3.172083394601941">
        <ele>862.920654296875</ele>
        <time>2011-04-20T10:38:43Z</time>
      </trkpt>
      <trkpt lat="31.842839755117893" lon="-3.172050369903445">
        <ele>863.4013671875</ele>
        <time>2011-04-20T10:38:50Z</time>
      </trkpt>
      <trkpt lat="31.843280140310526" lon="-3.172018183395267">
        <ele>863.8818359375</ele>
        <time>2011-04-20T10:38:57Z</time>
      </trkpt>
      <trkpt lat="31.843928229063749" lon="-3.171916427090764">
        <ele>863.8818359375</ele>
        <time>2011-04-20T10:39:04Z</time>
      </trkpt>
      <trkpt lat="31.84500815346837" lon="-3.171637058258057">
        <ele>863.8818359375</ele>
        <time>2011-04-20T10:39:15Z</time>
      </trkpt>
      <trkpt lat="31.845181155949831" lon="-3.171602273359895">
        <ele>863.8818359375</ele>
        <time>2011-04-20T10:39:17Z</time>
      </trkpt>
      <trkpt lat="31.845684573054314" lon="-3.171405466273427">
        <ele>863.8818359375</ele>
        <time>2011-04-20T10:39:24Z</time>
      </trkpt>
      <trkpt lat="31.846147086471319" lon="-3.171325251460075">
        <ele>864.362548828125</ele>
        <time>2011-04-20T10:39:30Z</time>
      </trkpt>
      <trkpt lat="31.846432741731405" lon="-3.171341177076101">
        <ele>864.84326171875</ele>
        <time>2011-04-20T10:39:34Z</time>
      </trkpt>
      <trkpt lat="31.846624854952097" lon="-3.171455757692456">
        <ele>864.84326171875</ele>
        <time>2011-04-20T10:39:37Z</time>
      </trkpt>
      <trkpt lat="31.847002040594816" lon="-3.171937884762883">
        <ele>862.920654296875</ele>
        <time>2011-04-20T10:39:44Z</time>
      </trkpt>
      <trkpt lat="31.847431445494294" lon="-3.172018686309457">
        <ele>862.920654296875</ele>
        <time>2011-04-20T10:39:50Z</time>
      </trkpt>
      <trkpt lat="31.848203083500266" lon="-3.17155659198761">
        <ele>860.03662109375</ele>
        <time>2011-04-20T10:40:01Z</time>
      </trkpt>
      <trkpt lat="31.84843928553164" lon="-3.171444358304143">
        <ele>858.594482421875</ele>
        <time>2011-04-20T10:40:04Z</time>
      </trkpt>
      <trkpt lat="31.84901537373662" lon="-3.171187872067094">
        <ele>859.0751953125</ele>
        <time>2011-04-20T10:40:11Z</time>
      </trkpt>
      <trkpt lat="31.849435726180673" lon="-3.171170689165592">
        <ele>861.95947265625</ele>
        <time>2011-04-20T10:40:18Z</time>
      </trkpt>
      <trkpt lat="31.849584253504872" lon="-3.171246042475104">
        <ele>862.920654296875</ele>
        <time>2011-04-20T10:40:21Z</time>
      </trkpt>
      <trkpt lat="31.84978986158967" lon="-3.171404292806983">
        <ele>863.4013671875</ele>
        <time>2011-04-20T10:40:25Z</time>
      </trkpt>
      <trkpt lat="31.850085156038404" lon="-3.171609565615654">
        <ele>863.8818359375</ele>
        <time>2011-04-20T10:40:30Z</time>
      </trkpt>
      <trkpt lat="31.851087799295783" lon="-3.171885749325156">
        <ele>864.84326171875</ele>
        <time>2011-04-20T10:40:42Z</time>
      </trkpt>
      <trkpt lat="31.851906962692738" lon="-3.172006784006953">
        <ele>865.8046875</ele>
        <time>2011-04-20T10:40:51Z</time>
      </trkpt>
      <trkpt lat="31.852165041491389" lon="-3.172021117061377">
        <ele>866.28515625</ele>
        <time>2011-04-20T10:40:58Z</time>
      </trkpt>
      <trkpt lat="31.852295380085707" lon="-3.172007035464048">
        <ele>869.64990234375</ele>
        <time>2011-04-20T10:42:24Z</time>
      </trkpt>
      <trkpt lat="31.852884795516729" lon="-3.17189471796155">
        <ele>869.169189453125</ele>
        <time>2011-04-20T10:42:34Z</time>
      </trkpt>
      <trkpt lat="31.853172965347767" lon="-3.171941488981247">
        <ele>869.169189453125</ele>
        <time>2011-04-20T10:42:38Z</time>
      </trkpt>
      <trkpt lat="31.853820132091641" lon="-3.172419592738152">
        <ele>868.6884765625</ele>
        <time>2011-04-20T10:42:47Z</time>
      </trkpt>
      <trkpt lat="31.854434441775084" lon="-3.172977659851313">
        <ele>866.765869140625</ele>
        <time>2011-04-20T10:42:55Z</time>
      </trkpt>
      <trkpt lat="31.855173390358686" lon="-3.173387870192528">
        <ele>866.765869140625</ele>
        <time>2011-04-20T10:43:03Z</time>
      </trkpt>
      <trkpt lat="31.855272045359015" lon="-3.17340949550271">
        <ele>866.765869140625</ele>
        <time>2011-04-20T10:43:04Z</time>
      </trkpt>
      <trkpt lat="31.855567926540971" lon="-3.173414776101708">
        <ele>867.24658203125</ele>
        <time>2011-04-20T10:43:07Z</time>
      </trkpt>
      <trkpt lat="31.856787158176303" lon="-3.173553580418229">
        <ele>866.765869140625</ele>
        <time>2011-04-20T10:43:18Z</time>
      </trkpt>
      <trkpt lat="31.858015777543187" lon="-3.17375298589468">
        <ele>868.6884765625</ele>
        <time>2011-04-20T10:43:28Z</time>
      </trkpt>
      <trkpt lat="31.859290078282356" lon="-3.173615522682667">
        <ele>869.169189453125</ele>
        <time>2011-04-20T10:43:38Z</time>
      </trkpt>
      <trkpt lat="31.859710263088346" lon="-3.173392228782177">
        <ele>868.207763671875</ele>
        <time>2011-04-20T10:43:42Z</time>
      </trkpt>
      <trkpt lat="31.860355334356427" lon="-3.172811027616262">
        <ele>864.84326171875</ele>
        <time>2011-04-20T10:43:50Z</time>
      </trkpt>
      <trkpt lat="31.860703434795141" lon="-3.172384556382895">
        <ele>866.28515625</ele>
        <time>2011-04-20T10:43:55Z</time>
      </trkpt>
      <trkpt lat="31.861126972362399" lon="-3.172050788998604">
        <ele>867.24658203125</ele>
        <time>2011-04-20T10:44:02Z</time>
      </trkpt>
      <trkpt lat="31.861603399738669" lon="-3.171819280833006">
        <ele>867.72705078125</ele>
        <time>2011-04-20T10:44:09Z</time>
      </trkpt>
      <trkpt lat="31.861938340589404" lon="-3.172021117061377">
        <ele>867.72705078125</ele>
        <time>2011-04-20T10:44:14Z</time>
      </trkpt>
      <trkpt lat="31.862413343042135" lon="-3.17267557606101">
        <ele>863.4013671875</ele>
        <time>2011-04-20T10:44:23Z</time>
      </trkpt>
      <trkpt lat="31.862898739054799" lon="-3.173297932371497">
        <ele>858.114013671875</ele>
        <time>2011-04-20T10:44:32Z</time>
      </trkpt>
      <trkpt lat="31.863603740930557" lon="-3.173592640087009">
        <ele>859.555908203125</ele>
        <time>2011-04-20T10:44:40Z</time>
      </trkpt>
      <trkpt lat="31.864550476893783" lon="-3.173595322296023">
        <ele>860.998046875</ele>
        <time>2011-04-20T10:44:49Z</time>
      </trkpt>
      <trkpt lat="31.864982731640339" lon="-3.173572774976492">
        <ele>862.43994140625</ele>
        <time>2011-04-20T10:44:53Z</time>
      </trkpt>
      <trkpt lat="31.865181466564536" lon="-3.173541091382504">
        <ele>862.43994140625</ele>
        <time>2011-04-20T10:44:55Z</time>
      </trkpt>
      <trkpt lat="31.865480951964855" lon="-3.173537319526076">
        <ele>862.920654296875</ele>
        <time>2011-04-20T10:44:58Z</time>
      </trkpt>
      <trkpt lat="31.866172626614571" lon="-3.173791961744428">
        <ele>864.84326171875</ele>
        <time>2011-04-20T10:45:06Z</time>
      </trkpt>
      <trkpt lat="31.866929680109024" lon="-3.173943338915706">
        <ele>865.8046875</ele>
        <time>2011-04-20T10:45:14Z</time>
      </trkpt>
      <trkpt lat="31.867113243788481" lon="-3.17397678270936">
        <ele>865.323974609375</ele>
        <time>2011-04-20T10:45:17Z</time>
      </trkpt>
      <trkpt lat="31.86743569560349" lon="-3.173846276476979">
        <ele>866.28515625</ele>
        <time>2011-04-20T10:45:23Z</time>
      </trkpt>
      <trkpt lat="31.867855293676257" lon="-3.173527177423239">
        <ele>869.169189453125</ele>
        <time>2011-04-20T10:45:30Z</time>
      </trkpt>
      <trkpt lat="31.868385029956698" lon="-3.173521226271987">
        <ele>870.13037109375</ele>
        <time>2011-04-20T10:45:38Z</time>
      </trkpt>
      <trkpt lat="31.868769843131304" lon="-3.173637147992849">
        <ele>871.572265625</ele>
        <time>2011-04-20T10:45:43Z</time>
      </trkpt>
      <trkpt lat="31.869145184755325" lon="-3.173673693090677">
        <ele>873.4951171875</ele>
        <time>2011-04-20T10:45:47Z</time>
      </trkpt>
      <trkpt lat="31.870199544355273" lon="-3.173663299530745">
        <ele>874.93701171875</ele>
        <time>2011-04-20T10:45:56Z</time>
      </trkpt>
      <trkpt lat="31.870315717533231" lon="-3.173677297309041">
        <ele>875.41748046875</ele>
        <time>2011-04-20T10:45:57Z</time>
      </trkpt>
      <trkpt lat="31.870588967576623" lon="-3.173749297857285">
        <ele>875.41748046875</ele>
        <time>2011-04-20T10:46:00Z</time>
      </trkpt>
      <trkpt lat="31.870929021388292" lon="-3.17375055514276">
        <ele>872.53369140625</ele>
        <time>2011-04-20T10:46:05Z</time>
      </trkpt>
      <trkpt lat="31.871588258072734" lon="-3.173577133566141">
        <ele>871.091796875</ele>
        <time>2011-04-20T10:46:12Z</time>
      </trkpt>
      <trkpt lat="31.872544717043638" lon="-3.17354922182858">
        <ele>875.898193359375</ele>
        <time>2011-04-20T10:46:20Z</time>
      </trkpt>
      <trkpt lat="31.873792363330722" lon="-3.173448638990521">
        <ele>880.224365234375</ele>
        <time>2011-04-20T10:46:31Z</time>
      </trkpt>
      <trkpt lat="31.874185893684626" lon="-3.173434557393193">
        <ele>880.705078125</ele>
        <time>2011-04-20T10:46:36Z</time>
      </trkpt>
      <trkpt lat="31.874820068478584" lon="-3.173426175490022">
        <ele>880.705078125</ele>
        <time>2011-04-20T10:46:43Z</time>
      </trkpt>
      <trkpt lat="31.876195874065161" lon="-3.17341435700655">
        <ele>885.031005859375</ele>
        <time>2011-04-20T10:46:55Z</time>
      </trkpt>
      <trkpt lat="31.876702392473817" lon="-3.173418547958136">
        <ele>885.031005859375</ele>
        <time>2011-04-20T10:47:01Z</time>
      </trkpt>
      <trkpt lat="31.876961896196008" lon="-3.173396168276668">
        <ele>884.069580078125</ele>
        <time>2011-04-20T10:47:08Z</time>
      </trkpt>
      <trkpt lat="31.877275798469782" lon="-3.173373285681009">
        <ele>882.14697265625</ele>
        <time>2011-04-20T10:47:18Z</time>
      </trkpt>
      <trkpt lat="31.877390379086137" lon="-3.173370268195868">
        <ele>882.14697265625</ele>
        <time>2011-04-20T10:47:22Z</time>
      </trkpt>
      <trkpt lat="31.878004940226674" lon="-3.173095844686031">
        <ele>881.185791015625</ele>
        <time>2011-04-20T10:47:32Z</time>
      </trkpt>
      <trkpt lat="31.878151036798954" lon="-3.172982186079025">
        <ele>879.74365234375</ele>
        <time>2011-04-20T10:47:37Z</time>
      </trkpt>
      <trkpt lat="31.878369972109795" lon="-3.172742044553161">
        <ele>879.262939453125</ele>
        <time>2011-04-20T10:47:46Z</time>
      </trkpt>
      <trkpt lat="31.878472147509456" lon="-3.172635762020946">
        <ele>879.74365234375</ele>
        <time>2011-04-20T10:47:48Z</time>
      </trkpt>
      <trkpt lat="31.878797197714448" lon="-3.172466447576881">
        <ele>879.74365234375</ele>
        <time>2011-04-20T10:47:52Z</time>
      </trkpt>
      <trkpt lat="31.879738653078675" lon="-3.172275340184569">
        <ele>878.3017578125</ele>
        <time>2011-04-20T10:48:00Z</time>
      </trkpt>
      <trkpt lat="31.881139939650893" lon="-3.171913828700781">
        <ele>877.340576171875</ele>
        <time>2011-04-20T10:48:11Z</time>
      </trkpt>
      <trkpt lat="31.882534939795732" lon="-3.171443771570921">
        <ele>877.340576171875</ele>
        <time>2011-04-20T10:48:22Z</time>
      </trkpt>
      <trkpt lat="31.883087558671832" lon="-3.171309996396303">
        <ele>877.821044921875</ele>
        <time>2011-04-20T10:48:26Z</time>
      </trkpt>
      <trkpt lat="31.884014848619699" lon="-3.171352995559573">
        <ele>878.3017578125</ele>
        <time>2011-04-20T10:48:33Z</time>
      </trkpt>
      <trkpt lat="31.884620357304811" lon="-3.171317456290126">
        <ele>878.3017578125</ele>
        <time>2011-04-20T10:48:39Z</time>
      </trkpt>
      <trkpt lat="31.884888578206301" lon="-3.171316031366587">
        <ele>878.782470703125</ele>
        <time>2011-04-20T10:48:45Z</time>
      </trkpt>
      <trkpt lat="31.885323347523808" lon="-3.171394821256399">
        <ele>879.262939453125</ele>
        <time>2011-04-20T10:48:51Z</time>
      </trkpt>
      <trkpt lat="31.886162040755153" lon="-3.171575870364904">
        <ele>878.782470703125</ele>
        <time>2011-04-20T10:48:59Z</time>
      </trkpt>
      <trkpt lat="31.886354489251971" lon="-3.171615852043033">
        <ele>878.782470703125</ele>
        <time>2011-04-20T10:49:01Z</time>
      </trkpt>
      <trkpt lat="31.886648861691356" lon="-3.171587940305471">
        <ele>878.3017578125</ele>
        <time>2011-04-20T10:49:06Z</time>
      </trkpt>
      <trkpt lat="31.886875675991178" lon="-3.17140563391149">
        <ele>878.3017578125</ele>
        <time>2011-04-20T10:49:13Z</time>
      </trkpt>
      <trkpt lat="31.88715479336679" lon="-3.171346122398973">
        <ele>877.821044921875</ele>
        <time>2011-04-20T10:49:17Z</time>
      </trkpt>
      <trkpt lat="31.888039587065578" lon="-3.171463971957564">
        <ele>879.262939453125</ele>
        <time>2011-04-20T10:49:25Z</time>
      </trkpt>
      <trkpt lat="31.889014570042491" lon="-3.171550640836358">
        <ele>880.705078125</ele>
        <time>2011-04-20T10:49:34Z</time>
      </trkpt>
      <trkpt lat="31.889408938586712" lon="-3.171664886176586">
        <ele>881.666259765625</ele>
        <time>2011-04-20T10:49:40Z</time>
      </trkpt>
      <trkpt lat="31.890143528580666" lon="-3.171776365488768">
        <ele>882.627685546875</ele>
        <time>2011-04-20T10:49:47Z</time>
      </trkpt>
      <trkpt lat="31.890738140791655" lon="-3.171764966100454">
        <ele>884.069580078125</ele>
        <time>2011-04-20T10:49:54Z</time>
      </trkpt>
      <trkpt lat="31.891517741605639" lon="-3.171708639711142">
        <ele>885.031005859375</ele>
        <time>2011-04-20T10:50:03Z</time>
      </trkpt>
      <trkpt lat="31.892013028264046" lon="-3.171677459031344">
        <ele>885.511474609375</ele>
        <time>2011-04-20T10:50:09Z</time>
      </trkpt>
      <trkpt lat="31.892663799226284" lon="-3.171939477324486">
        <ele>885.511474609375</ele>
        <time>2011-04-20T10:50:16Z</time>
      </trkpt>
      <trkpt lat="31.892919950187206" lon="-3.172072833403945">
        <ele>885.511474609375</ele>
        <time>2011-04-20T10:50:19Z</time>
      </trkpt>
      <trkpt lat="31.893390761688352" lon="-3.172682281583548">
        <ele>878.3017578125</ele>
        <time>2011-04-20T10:50:26Z</time>
      </trkpt>
      <trkpt lat="31.893770964816213" lon="-3.173286868259311">
        <ele>873.4951171875</ele>
        <time>2011-04-20T10:50:32Z</time>
      </trkpt>
      <trkpt lat="31.894073383882642" lon="-3.173533966764808">
        <ele>873.014404296875</ele>
        <time>2011-04-20T10:50:36Z</time>
      </trkpt>
      <trkpt lat="31.894342862069607" lon="-3.173671178519726">
        <ele>872.53369140625</ele>
        <time>2011-04-20T10:50:39Z</time>
      </trkpt>
      <trkpt lat="31.894847871735692" lon="-3.17374074831605">
        <ele>872.052978515625</ele>
        <time>2011-04-20T10:50:44Z</time>
      </trkpt>
      <trkpt lat="31.895485231652856" lon="-3.173593226820231">
        <ele>872.53369140625</ele>
        <time>2011-04-20T10:50:52Z</time>
      </trkpt>
      <trkpt lat="31.896003484725952" lon="-3.173536648973823">
        <ele>873.014404296875</ele>
        <time>2011-04-20T10:50:58Z</time>
      </trkpt>
      <trkpt lat="31.89678568392992" lon="-3.173511754721403">
        <ele>874.456298828125</ele>
        <time>2011-04-20T10:51:06Z</time>
      </trkpt>
      <trkpt lat="31.897489177063107" lon="-3.173693055287004">
        <ele>871.091796875</ele>
        <time>2011-04-20T10:51:15Z</time>
      </trkpt>
      <trkpt lat="31.897817580029368" lon="-3.17371342331171">
        <ele>870.13037109375</ele>
        <time>2011-04-20T10:51:19Z</time>
      </trkpt>
      <trkpt lat="31.898421747609973" lon="-3.173854826018214">
        <ele>869.64990234375</ele>
        <time>2011-04-20T10:51:26Z</time>
      </trkpt>
      <trkpt lat="31.898567676544189" lon="-3.174005197361112">
        <ele>869.169189453125</ele>
        <time>2011-04-20T10:51:28Z</time>
      </trkpt>
      <trkpt lat="31.898755682632327" lon="-3.174245674163103">
        <ele>866.28515625</ele>
        <time>2011-04-20T10:51:31Z</time>
      </trkpt>
      <trkpt lat="31.899161618202925" lon="-3.17451037466526">
        <ele>864.84326171875</ele>
        <time>2011-04-20T10:51:36Z</time>
      </trkpt>
      <trkpt lat="31.900179516524076" lon="-3.174685388803482">
        <ele>866.28515625</ele>
        <time>2011-04-20T10:51:46Z</time>
      </trkpt>
      <trkpt lat="31.901376117020845" lon="-3.174998285248876">
        <ele>868.6884765625</ele>
        <time>2011-04-20T10:51:57Z</time>
      </trkpt>
      <trkpt lat="31.901485081762075" lon="-3.175036925822496">
        <ele>869.64990234375</ele>
        <time>2011-04-20T10:51:58Z</time>
      </trkpt>
      <trkpt lat="31.902370797470212" lon="-3.175101382657886">
        <ele>870.611083984375</ele>
        <time>2011-04-20T10:52:06Z</time>
      </trkpt>
      <trkpt lat="31.90336556173861" lon="-3.174988478422165">
        <ele>872.53369140625</ele>
        <time>2011-04-20T10:52:15Z</time>
      </trkpt>
      <trkpt lat="31.904140887781978" lon="-3.174891248345375">
        <ele>872.052978515625</ele>
        <time>2011-04-20T10:52:23Z</time>
      </trkpt>
      <trkpt lat="31.904774224385619" lon="-3.174701146781445">
        <ele>867.24658203125</ele>
        <time>2011-04-20T10:52:30Z</time>
      </trkpt>
      <trkpt lat="31.9060945417732" lon="-3.174050459638238">
        <ele>861.478759765625</ele>
        <time>2011-04-20T10:52:43Z</time>
      </trkpt>
      <trkpt lat="31.906911442056298" lon="-3.17353161983192">
        <ele>857.152587890625</ele>
        <time>2011-04-20T10:52:52Z</time>
      </trkpt>
      <trkpt lat="31.907517872750759" lon="-3.173373369500041">
        <ele>848.9814453125</ele>
        <time>2011-04-20T10:52:59Z</time>
      </trkpt>
      <trkpt lat="31.908135619014502" lon="-3.173449728637934">
        <ele>842.73291015625</ele>
        <time>2011-04-20T10:53:06Z</time>
      </trkpt>
      <trkpt lat="31.908551026135683" lon="-3.173424247652292">
        <ele>838.406982421875</ele>
        <time>2011-04-20T10:53:14Z</time>
      </trkpt>
      <trkpt lat="31.908700056374073" lon="-3.173413770273328">
        <ele>837.445556640625</ele>
        <time>2011-04-20T10:53:18Z</time>
      </trkpt>
      <trkpt lat="31.909269355237484" lon="-3.173519968986511">
        <ele>835.52294921875</ele>
        <time>2011-04-20T10:53:26Z</time>
      </trkpt>
      <trkpt lat="31.909825326874852" lon="-3.173585431650281">
        <ele>834.0810546875</ele>
        <time>2011-04-20T10:53:32Z</time>
      </trkpt>
      <trkpt lat="31.910626720637083" lon="-3.173352498561144">
        <ele>833.600341796875</ele>
        <time>2011-04-20T10:53:40Z</time>
      </trkpt>
      <trkpt lat="31.911561638116837" lon="-3.172983527183533">
        <ele>832.63916015625</ele>
        <time>2011-04-20T10:53:48Z</time>
      </trkpt>
      <trkpt lat="31.911942763254046" lon="-3.172534173354507">
        <ele>834.0810546875</ele>
        <time>2011-04-20T10:53:53Z</time>
      </trkpt>
      <trkpt lat="31.912163374945521" lon="-3.172093788161874">
        <ele>832.63916015625</ele>
        <time>2011-04-20T10:53:59Z</time>
      </trkpt>
      <trkpt lat="31.912366887554526" lon="-3.171858759596944">
        <ele>830.716552734375</ele>
        <time>2011-04-20T10:54:14Z</time>
      </trkpt>
      <trkpt lat="31.91252488642931" lon="-3.171709142625332">
        <ele>829.2744140625</ele>
        <time>2011-04-20T10:54:20Z</time>
      </trkpt>
      <trkpt lat="31.912916656583548" lon="-3.171624150127173">
        <ele>826.390380859375</ele>
        <time>2011-04-20T10:54:38Z</time>
      </trkpt>
      <trkpt lat="31.913082199171185" lon="-3.171605123206973">
        <ele>825.428955078125</ele>
        <time>2011-04-20T10:55:14Z</time>
      </trkpt>
      <trkpt lat="31.913371793925762" lon="-3.171569751575589">
        <ele>830.716552734375</ele>
        <time>2011-04-20T10:55:22Z</time>
      </trkpt>
      <trkpt lat="31.913736239075661" lon="-3.171508396044374">
        <ele>836.484375</ele>
        <time>2011-04-20T10:55:28Z</time>
      </trkpt>
      <trkpt lat="31.914438894018531" lon="-3.171401442959905">
        <ele>844.175048828125</ele>
        <time>2011-04-20T10:55:36Z</time>
      </trkpt>
      <trkpt lat="31.914946585893631" lon="-3.171336483210325">
        <ele>848.9814453125</ele>
        <time>2011-04-20T10:55:43Z</time>
      </trkpt>
      <trkpt lat="31.915567349642515" lon="-3.171259118244052">
        <ele>853.307373046875</ele>
        <time>2011-04-20T10:55:51Z</time>
      </trkpt>
      <trkpt lat="31.915771951898932" lon="-3.171239672228694">
        <ele>855.710693359375</ele>
        <time>2011-04-20T10:55:53Z</time>
      </trkpt>
      <trkpt lat="31.916235890239477" lon="-3.171423487365246">
        <ele>858.594482421875</ele>
        <time>2011-04-20T10:55:58Z</time>
      </trkpt>
      <trkpt lat="31.916498076170683" lon="-3.171858927235007">
        <ele>857.63330078125</ele>
        <time>2011-04-20T10:56:02Z</time>
      </trkpt>
      <trkpt lat="31.916700080037117" lon="-3.172381790354848">
        <ele>857.152587890625</ele>
        <time>2011-04-20T10:56:06Z</time>
      </trkpt>
      <trkpt lat="31.917139878496528" lon="-3.172734081745148">
        <ele>857.152587890625</ele>
        <time>2011-04-20T10:56:11Z</time>
      </trkpt>
      <trkpt lat="31.917268792167306" lon="-3.172748247161508">
        <ele>857.63330078125</ele>
        <time>2011-04-20T10:56:12Z</time>
      </trkpt>
      <trkpt lat="31.918713329359889" lon="-3.172780517488718">
        <ele>858.594482421875</ele>
        <time>2011-04-20T10:56:21Z</time>
      </trkpt>
      <trkpt lat="31.919607594609261" lon="-3.172804741188884">
        <ele>859.0751953125</ele>
        <time>2011-04-20T10:56:26Z</time>
      </trkpt>
      <trkpt lat="31.920859683305025" lon="-3.173306146636605">
        <ele>860.517333984375</ele>
        <time>2011-04-20T10:56:34Z</time>
      </trkpt>
      <trkpt lat="31.922183353453875" lon="-3.17370998673141">
        <ele>862.43994140625</ele>
        <time>2011-04-20T10:56:42Z</time>
      </trkpt>
      <trkpt lat="31.9233079534024" lon="-3.174153976142407">
        <ele>862.920654296875</ele>
        <time>2011-04-20T10:56:49Z</time>
      </trkpt>
      <trkpt lat="31.924968492239714" lon="-3.174879094585776">
        <ele>863.4013671875</ele>
        <time>2011-04-20T10:56:59Z</time>
      </trkpt>
      <trkpt lat="31.926649231463671" lon="-3.175613433122635">
        <ele>865.8046875</ele>
        <time>2011-04-20T10:57:09Z</time>
      </trkpt>
      <trkpt lat="31.928027048707008" lon="-3.17631826736033">
        <ele>867.24658203125</ele>
        <time>2011-04-20T10:57:18Z</time>
      </trkpt>
      <trkpt lat="31.929125245660543" lon="-3.176880273967981">
        <ele>870.611083984375</ele>
        <time>2011-04-20T10:57:25Z</time>
      </trkpt>
      <trkpt lat="31.929566217586398" lon="-3.177179591730237">
        <ele>873.014404296875</ele>
        <time>2011-04-20T10:57:28Z</time>
      </trkpt>
      <trkpt lat="31.930527035146952" lon="-3.1774992775172">
        <ele>875.41748046875</ele>
        <time>2011-04-20T10:57:34Z</time>
      </trkpt>
      <trkpt lat="31.931634284555912" lon="-3.178063044324517">
        <ele>875.898193359375</ele>
        <time>2011-04-20T10:57:41Z</time>
      </trkpt>
      <trkpt lat="31.932856617495418" lon="-3.178549949079752">
        <ele>875.898193359375</ele>
        <time>2011-04-20T10:57:49Z</time>
      </trkpt>
      <trkpt lat="31.934691835194826" lon="-3.179320832714438">
        <ele>876.379150390625</ele>
        <time>2011-04-20T10:58:02Z</time>
      </trkpt>
      <trkpt lat="31.935714930295944" lon="-3.179746633395553">
        <ele>877.340576171875</ele>
        <time>2011-04-20T10:58:10Z</time>
      </trkpt>
      <trkpt lat="31.936676418408751" lon="-3.180061625316739">
        <ele>876.379150390625</ele>
        <time>2011-04-20T10:58:18Z</time>
      </trkpt>
      <trkpt lat="31.937785847112536" lon="-3.180516427382827">
        <ele>874.456298828125</ele>
        <time>2011-04-20T10:58:27Z</time>
      </trkpt>
      <trkpt lat="31.939055370166898" lon="-3.181050354614854">
        <ele>873.9755859375</ele>
        <time>2011-04-20T10:58:38Z</time>
      </trkpt>
      <trkpt lat="31.940138563513756" lon="-3.181603727862239">
        <ele>874.456298828125</ele>
        <time>2011-04-20T10:58:47Z</time>
      </trkpt>
      <trkpt lat="31.941251931712031" lon="-3.182068755850196">
        <ele>872.53369140625</ele>
        <time>2011-04-20T10:58:56Z</time>
      </trkpt>
      <trkpt lat="31.942291036248207" lon="-3.182488018646836">
        <ele>873.014404296875</ele>
        <time>2011-04-20T10:59:04Z</time>
      </trkpt>
      <trkpt lat="31.943633984774351" lon="-3.183076176792383">
        <ele>874.456298828125</ele>
        <time>2011-04-20T10:59:14Z</time>
      </trkpt>
      <trkpt lat="31.945109870284796" lon="-3.183705490082502">
        <ele>874.93701171875</ele>
        <time>2011-04-20T10:59:25Z</time>
      </trkpt>
      <trkpt lat="31.94649682380259" lon="-3.184193149209023">
        <ele>877.340576171875</ele>
        <time>2011-04-20T10:59:35Z</time>
      </trkpt>
      <trkpt lat="31.947786882519722" lon="-3.184885997325182">
        <ele>880.224365234375</ele>
        <time>2011-04-20T10:59:45Z</time>
      </trkpt>
      <trkpt lat="31.948877451941371" lon="-3.185503240674734">
        <ele>885.031005859375</ele>
        <time>2011-04-20T10:59:53Z</time>
      </trkpt>
      <trkpt lat="31.950387032702565" lon="-3.186132218688726">
        <ele>887.914794921875</ele>
        <time>2011-04-20T11:00:04Z</time>
      </trkpt>
      <trkpt lat="31.951339468359947" lon="-3.186519630253315">
        <ele>889.356689453125</ele>
        <time>2011-04-20T11:00:12Z</time>
      </trkpt>
      <trkpt lat="31.952533470466733" lon="-3.187154140323401">
        <ele>891.279296875</ele>
        <time>2011-04-20T11:00:23Z</time>
      </trkpt>
      <trkpt lat="31.953420024365187" lon="-3.18761195987463">
        <ele>885.031005859375</ele>
        <time>2011-04-20T11:00:31Z</time>
      </trkpt>
      <trkpt lat="31.954049756750464" lon="-3.187670968472958">
        <ele>879.74365234375</ele>
        <time>2011-04-20T11:00:36Z</time>
      </trkpt>
      <trkpt lat="31.955040246248245" lon="-3.188066426664591">
        <ele>878.3017578125</ele>
        <time>2011-04-20T11:00:44Z</time>
      </trkpt>
      <trkpt lat="31.956501295790076" lon="-3.188702948391438">
        <ele>876.85986328125</ele>
        <time>2011-04-20T11:00:55Z</time>
      </trkpt>
      <trkpt lat="31.957923453301191" lon="-3.189345924183726">
        <ele>878.3017578125</ele>
        <time>2011-04-20T11:01:06Z</time>
      </trkpt>
      <trkpt lat="31.959724053740501" lon="-3.190291989594698">
        <ele>881.185791015625</ele>
        <time>2011-04-20T11:01:20Z</time>
      </trkpt>
      <trkpt lat="31.961417868733406" lon="-3.191018030047417">
        <ele>884.069580078125</ele>
        <time>2011-04-20T11:01:33Z</time>
      </trkpt>
      <trkpt lat="31.962435180321336" lon="-3.191286586225033">
        <ele>886.472900390625</ele>
        <time>2011-04-20T11:01:41Z</time>
      </trkpt>
      <trkpt lat="31.963677881285548" lon="-3.191702077165246">
        <ele>887.43408203125</ele>
        <time>2011-04-20T11:01:52Z</time>
      </trkpt>
      <trkpt lat="31.964700892567635" lon="-3.191902320832014">
        <ele>886.472900390625</ele>
        <time>2011-04-20T11:02:00Z</time>
      </trkpt>
      <trkpt lat="31.965511171147227" lon="-3.192103989422321">
        <ele>884.069580078125</ele>
        <time>2011-04-20T11:02:07Z</time>
      </trkpt>
      <trkpt lat="31.965737231075764" lon="-3.192222090438008">
        <ele>884.069580078125</ele>
        <time>2011-04-20T11:02:09Z</time>
      </trkpt>
      <trkpt lat="31.966503253206611" lon="-3.19289498962462">
        <ele>882.627685546875</ele>
        <time>2011-04-20T11:02:16Z</time>
      </trkpt>
      <trkpt lat="31.967631625011563" lon="-3.19354634732008">
        <ele>886.472900390625</ele>
        <time>2011-04-20T11:02:24Z</time>
      </trkpt>
      <trkpt lat="31.968349954113364" lon="-3.19386544637382">
        <ele>890.798583984375</ele>
        <time>2011-04-20T11:02:29Z</time>
      </trkpt>
      <trkpt lat="31.968950852751732" lon="-3.194423262029886">
        <ele>891.760009765625</ele>
        <time>2011-04-20T11:02:35Z</time>
      </trkpt>
      <trkpt lat="31.96903282776475" lon="-3.194533819332719">
        <ele>891.279296875</ele>
        <time>2011-04-20T11:02:36Z</time>
      </trkpt>
      <trkpt lat="31.969409426674247" lon="-3.195273773744702">
        <ele>896.086181640625</ele>
        <time>2011-04-20T11:02:42Z</time>
      </trkpt>
      <trkpt lat="31.970026334747672" lon="-3.196076424792409">
        <ele>898.4892578125</ele>
        <time>2011-04-20T11:02:50Z</time>
      </trkpt>
      <trkpt lat="31.970715997740626" lon="-3.197136651724577">
        <ele>895.60546875</ele>
        <time>2011-04-20T11:02:58Z</time>
      </trkpt>
      <trkpt lat="31.971549158915877" lon="-3.198349680751562">
        <ele>895.60546875</ele>
        <time>2011-04-20T11:03:08Z</time>
      </trkpt>
      <trkpt lat="31.972798984497786" lon="-3.199883988127112">
        <ele>896.086181640625</ele>
        <time>2011-04-20T11:03:20Z</time>
      </trkpt>
      <trkpt lat="31.974156098440289" lon="-3.201623987406492">
        <ele>896.086181640625</ele>
        <time>2011-04-20T11:03:33Z</time>
      </trkpt>
      <trkpt lat="31.975204674527049" lon="-3.202759316191077">
        <ele>896.56689453125</ele>
        <time>2011-04-20T11:03:43Z</time>
      </trkpt>
      <trkpt lat="31.976735545322299" lon="-3.204097067937255">
        <ele>898.969970703125</ele>
        <time>2011-04-20T11:03:55Z</time>
      </trkpt>
      <trkpt lat="31.977756377309561" lon="-3.204808440059423">
        <ele>898.969970703125</ele>
        <time>2011-04-20T11:04:03Z</time>
      </trkpt>
      <trkpt lat="31.978670172393322" lon="-3.205497097223997">
        <ele>900.412109375</ele>
        <time>2011-04-20T11:04:11Z</time>
      </trkpt>
      <trkpt lat="31.979686059057713" lon="-3.206366719678044">
        <ele>901.373291015625</ele>
        <time>2011-04-20T11:04:20Z</time>
      </trkpt>
      <trkpt lat="31.980799846351147" lon="-3.207296440377832">
        <ele>901.85400390625</ele>
        <time>2011-04-20T11:04:30Z</time>
      </trkpt>
      <trkpt lat="31.98222242295742" lon="-3.20844316855073">
        <ele>903.776611328125</ele>
        <time>2011-04-20T11:04:42Z</time>
      </trkpt>
      <trkpt lat="31.983619267120957" lon="-3.209557039663196">
        <ele>905.218505859375</ele>
        <time>2011-04-20T11:04:54Z</time>
      </trkpt>
      <trkpt lat="31.984944948926568" lon="-3.210566556081176">
        <ele>906.1796875</ele>
        <time>2011-04-20T11:05:05Z</time>
      </trkpt>
      <trkpt lat="31.986016072332859" lon="-3.211120935156941">
        <ele>906.660400390625</ele>
        <time>2011-04-20T11:05:13Z</time>
      </trkpt>
      <trkpt lat="31.987587427720428" lon="-3.211906319484115">
        <ele>910.025146484375</ele>
        <time>2011-04-20T11:05:25Z</time>
      </trkpt>
      <trkpt lat="31.989077478647232" lon="-3.212684579193592">
        <ele>912.9091796875</ele>
        <time>2011-04-20T11:05:37Z</time>
      </trkpt>
      <trkpt lat="31.99045093730092" lon="-3.213491756469011">
        <ele>915.793212890625</ele>
        <time>2011-04-20T11:05:49Z</time>
      </trkpt>
      <trkpt lat="31.991762956604362" lon="-3.214285941794515">
        <ele>912.9091796875</ele>
        <time>2011-04-20T11:06:01Z</time>
      </trkpt>
      <trkpt lat="31.992573067545891" lon="-3.214666061103344">
        <ele>911.46728515625</ele>
        <time>2011-04-20T11:06:09Z</time>
      </trkpt>
      <trkpt lat="31.9929179828614" lon="-3.214860269799829">
        <ele>910.986572265625</ele>
        <time>2011-04-20T11:06:16Z</time>
      </trkpt>
      <trkpt lat="31.993050249293447" lon="-3.215009132400155">
        <ele>914.35107421875</ele>
        <time>2011-04-20T11:06:42Z</time>
      </trkpt>
      <trkpt lat="31.993186287581921" lon="-3.215549513697624">
        <ele>913.870361328125</ele>
        <time>2011-04-20T11:06:48Z</time>
      </trkpt>
      <trkpt lat="31.992911109700799" lon="-3.216532459482551">
        <ele>913.870361328125</ele>
        <time>2011-04-20T11:06:55Z</time>
      </trkpt>
      <trkpt lat="31.992352036759257" lon="-3.218230716884136">
        <ele>914.35107421875</ele>
        <time>2011-04-20T11:07:05Z</time>
      </trkpt>
      <trkpt lat="31.99173697270453" lon="-3.220101557672024">
        <ele>911.46728515625</ele>
        <time>2011-04-20T11:07:15Z</time>
      </trkpt>
      <trkpt lat="31.99102115817368" lon="-3.22234908118844">
        <ele>913.389892578125</ele>
        <time>2011-04-20T11:07:26Z</time>
      </trkpt>
      <trkpt lat="31.990180453285575" lon="-3.224945040419698">
        <ele>915.793212890625</ele>
        <time>2011-04-20T11:07:39Z</time>
      </trkpt>
      <trkpt lat="31.989274704828858" lon="-3.227701848372817">
        <ele>917.715576171875</ele>
        <time>2011-04-20T11:07:52Z</time>
      </trkpt>
      <trkpt lat="31.988250100985169" lon="-3.230749676004052">
        <ele>923.483642578125</ele>
        <time>2011-04-20T11:08:07Z</time>
      </trkpt>
      <trkpt lat="31.987407384440303" lon="-3.233315795660019">
        <ele>920.599609375</ele>
        <time>2011-04-20T11:08:20Z</time>
      </trkpt>
      <trkpt lat="31.986590232700109" lon="-3.235853416845202">
        <ele>919.15771484375</ele>
        <time>2011-04-20T11:08:32Z</time>
      </trkpt>
      <trkpt lat="31.985366558656096" lon="-3.23953265324235">
        <ele>919.15771484375</ele>
        <time>2011-04-20T11:08:49Z</time>
      </trkpt>
      <trkpt lat="31.984691396355629" lon="-3.242032891139388">
        <ele>918.1962890625</ele>
        <time>2011-04-20T11:09:01Z</time>
      </trkpt>
      <trkpt lat="31.984067196026444" lon="-3.244640082120895">
        <ele>915.793212890625</ele>
        <time>2011-04-20T11:09:13Z</time>
      </trkpt>
      <trkpt lat="31.983537878841162" lon="-3.246776713058353">
        <ele>911.947998046875</ele>
        <time>2011-04-20T11:09:22Z</time>
      </trkpt>
      <trkpt lat="31.982865231111646" lon="-3.24943813495338">
        <ele>912.428466796875</ele>
        <time>2011-04-20T11:09:33Z</time>
      </trkpt>
      <trkpt lat="31.982215382158756" lon="-3.252352941781282">
        <ele>911.46728515625</ele>
        <time>2011-04-20T11:09:46Z</time>
      </trkpt>
      <trkpt lat="31.981455981731415" lon="-3.255624398589134">
        <ele>911.947998046875</ele>
        <time>2011-04-20T11:10:00Z</time>
      </trkpt>
      <trkpt lat="31.98080001398921" lon="-3.258460247889161">
        <ele>914.831787109375</ele>
        <time>2011-04-20T11:10:12Z</time>
      </trkpt>
      <trkpt lat="31.980025945231318" lon="-3.261910490691662">
        <ele>915.3125</ele>
        <time>2011-04-20T11:10:27Z</time>
      </trkpt>
      <trkpt lat="31.979403086006641" lon="-3.264721278101206">
        <ele>916.273681640625</ele>
        <time>2011-04-20T11:10:39Z</time>
      </trkpt>
      <trkpt lat="31.978491637855768" lon="-3.266375195235014">
        <ele>918.1962890625</ele>
        <time>2011-04-20T11:10:47Z</time>
      </trkpt>
      <trkpt lat="31.977408612146974" lon="-3.267461657524109">
        <ele>917.235107421875</ele>
        <time>2011-04-20T11:10:54Z</time>
      </trkpt>
      <trkpt lat="31.976283509284258" lon="-3.268918097019196">
        <ele>915.793212890625</ele>
        <time>2011-04-20T11:11:02Z</time>
      </trkpt>
      <trkpt lat="31.975176762789488" lon="-3.270216202363372">
        <ele>915.3125</ele>
        <time>2011-04-20T11:11:10Z</time>
      </trkpt>
      <trkpt lat="31.973221767693758" lon="-3.271363768726587">
        <ele>919.15771484375</ele>
        <time>2011-04-20T11:11:21Z</time>
      </trkpt>
      <trkpt lat="31.972399838268757" lon="-3.272277228534222">
        <ele>921.080322265625</ele>
        <time>2011-04-20T11:11:27Z</time>
      </trkpt>
      <trkpt lat="31.971830623224378" lon="-3.273513978347182">
        <ele>921.080322265625</ele>
        <time>2011-04-20T11:11:33Z</time>
      </trkpt>
      <trkpt lat="31.971650999039412" lon="-3.274720720946789">
        <ele>921.080322265625</ele>
        <time>2011-04-20T11:11:38Z</time>
      </trkpt>
      <trkpt lat="31.971780667081475" lon="-3.275931151583791">
        <ele>921.080322265625</ele>
        <time>2011-04-20T11:11:43Z</time>
      </trkpt>
      <trkpt lat="31.972205545753241" lon="-3.277302766218782">
        <ele>921.560791015625</ele>
        <time>2011-04-20T11:11:49Z</time>
      </trkpt>
      <trkpt lat="31.973006268963218" lon="-3.279741229489446">
        <ele>923.0029296875</ele>
        <time>2011-04-20T11:12:00Z</time>
      </trkpt>
      <trkpt lat="31.974071944132447" lon="-3.283049063757062">
        <ele>924.445068359375</ele>
        <time>2011-04-20T11:12:14Z</time>
      </trkpt>
      <trkpt lat="31.975697614252567" lon="-3.286603577435017">
        <ele>928.77099609375</ele>
        <time>2011-04-20T11:12:30Z</time>
      </trkpt>
      <trkpt lat="31.976684750989079" lon="-3.289721393957734">
        <ele>929.25146484375</ele>
        <time>2011-04-20T11:12:44Z</time>
      </trkpt>
      <trkpt lat="31.977644981816411" lon="-3.292484236881137">
        <ele>927.3291015625</ele>
        <time>2011-04-20T11:12:56Z</time>
      </trkpt>
      <trkpt lat="31.978541426360607" lon="-3.295301645994186">
        <ele>925.40625</ele>
        <time>2011-04-20T11:13:08Z</time>
      </trkpt>
      <trkpt lat="31.97944357059896" lon="-3.298711236566305">
        <ele>926.848388671875</ele>
        <time>2011-04-20T11:13:22Z</time>
      </trkpt>
      <trkpt lat="31.979690166190267" lon="-3.300735214725137">
        <ele>925.886962890625</ele>
        <time>2011-04-20T11:13:30Z</time>
      </trkpt>
      <trkpt lat="31.979958470910788" lon="-3.302867570891976">
        <ele>925.886962890625</ele>
        <time>2011-04-20T11:13:38Z</time>
      </trkpt>
      <trkpt lat="31.980408495292068" lon="-3.30690479837358">
        <ele>934.05810546875</ele>
        <time>2011-04-20T11:13:53Z</time>
      </trkpt>
      <trkpt lat="31.98072575032711" lon="-3.309291545301676">
        <ele>938.86474609375</ele>
        <time>2011-04-20T11:14:03Z</time>
      </trkpt>
      <trkpt lat="31.981093883514404" lon="-3.312924094498158">
        <ele>943.67138671875</ele>
        <time>2011-04-20T11:14:19Z</time>
      </trkpt>
      <trkpt lat="31.981432009488344" lon="-3.316295631229878">
        <ele>945.593994140625</ele>
        <time>2011-04-20T11:14:33Z</time>
      </trkpt>
      <trkpt lat="31.981813469901681" lon="-3.320044353604317">
        <ele>945.11328125</ele>
        <time>2011-04-20T11:14:48Z</time>
      </trkpt>
      <trkpt lat="31.982157714664936" lon="-3.32376541569829">
        <ele>947.5166015625</ele>
        <time>2011-04-20T11:15:03Z</time>
      </trkpt>
      <trkpt lat="31.982492571696639" lon="-3.327334430068731">
        <ele>948.95849609375</ele>
        <time>2011-04-20T11:15:18Z</time>
      </trkpt>
      <trkpt lat="31.982823489233851" lon="-3.330738069489598">
        <ele>951.36181640625</ele>
        <time>2011-04-20T11:15:32Z</time>
      </trkpt>
      <trkpt lat="31.98320503346622" lon="-3.334727771580219">
        <ele>954.726318359375</ele>
        <time>2011-04-20T11:15:48Z</time>
      </trkpt>
      <trkpt lat="31.983473841100931" lon="-3.337910799309611">
        <ele>958.57177734375</ele>
        <time>2011-04-20T11:16:01Z</time>
      </trkpt>
      <trkpt lat="31.983356410637498" lon="-3.340981928631663">
        <ele>962.4169921875</ele>
        <time>2011-04-20T11:16:14Z</time>
      </trkpt>
      <trkpt lat="31.983244428411126" lon="-3.342936253175139">
        <ele>960.97509765625</ele>
        <time>2011-04-20T11:16:22Z</time>
      </trkpt>
      <trkpt lat="31.982779148966074" lon="-3.346948670223355">
        <ele>960.494384765625</ele>
        <time>2011-04-20T11:16:38Z</time>
      </trkpt>
      <trkpt lat="31.982528446242213" lon="-3.350195484235883">
        <ele>961.455810546875</ele>
        <time>2011-04-20T11:16:51Z</time>
      </trkpt>
      <trkpt lat="31.982005247846246" lon="-3.353614462539554">
        <ele>961.9365234375</ele>
        <time>2011-04-20T11:17:05Z</time>
      </trkpt>
      <trkpt lat="31.981527311727405" lon="-3.356838813051581">
        <ele>961.9365234375</ele>
        <time>2011-04-20T11:17:18Z</time>
      </trkpt>
      <trkpt lat="31.980929179117084" lon="-3.361098663881421">
        <ele>961.9365234375</ele>
        <time>2011-04-20T11:17:34Z</time>
      </trkpt>
      <trkpt lat="31.980319479480386" lon="-3.36526564322412">
        <ele>961.9365234375</ele>
        <time>2011-04-20T11:17:49Z</time>
      </trkpt>
      <trkpt lat="31.979700643569231" lon="-3.369363052770495">
        <ele>962.4169921875</ele>
        <time>2011-04-20T11:18:04Z</time>
      </trkpt>
      <trkpt lat="31.979158250615001" lon="-3.37304849177599">
        <ele>962.897705078125</ele>
        <time>2011-04-20T11:18:18Z</time>
      </trkpt>
      <trkpt lat="31.978659862652421" lon="-3.376493789255619">
        <ele>962.4169921875</ele>
        <time>2011-04-20T11:18:32Z</time>
      </trkpt>
      <trkpt lat="31.978078577667475" lon="-3.379888460040093">
        <ele>962.4169921875</ele>
        <time>2011-04-20T11:18:46Z</time>
      </trkpt>
      <trkpt lat="31.977497963234782" lon="-3.383510950952768">
        <ele>963.85888671875</ele>
        <time>2011-04-20T11:19:00Z</time>
      </trkpt>
      <trkpt lat="31.976736718788743" lon="-3.388168020173907">
        <ele>965.301025390625</ele>
        <time>2011-04-20T11:19:18Z</time>
      </trkpt>
      <trkpt lat="31.976360958069563" lon="-3.390210857614875">
        <ele>963.85888671875</ele>
        <time>2011-04-20T11:19:26Z</time>
      </trkpt>
      <trkpt lat="31.97552083991468" lon="-3.393160030245781">
        <ele>962.897705078125</ele>
        <time>2011-04-20T11:19:38Z</time>
      </trkpt>
      <trkpt lat="31.974938046187162" lon="-3.395071439445019">
        <ele>964.8203125</ele>
        <time>2011-04-20T11:19:47Z</time>
      </trkpt>
      <trkpt lat="31.974132210016251" lon="-3.397712493315339">
        <ele>968.66552734375</ele>
        <time>2011-04-20T11:19:59Z</time>
      </trkpt>
      <trkpt lat="31.973156221210957" lon="-3.4009765740484">
        <ele>971.06884765625</ele>
        <time>2011-04-20T11:20:13Z</time>
      </trkpt>
      <trkpt lat="31.971930619329214" lon="-3.404770055785775">
        <ele>972.0302734375</ele>
        <time>2011-04-20T11:20:29Z</time>
      </trkpt>
      <trkpt lat="31.970588760450482" lon="-3.408736120909452">
        <ele>972.510986328125</ele>
        <time>2011-04-20T11:20:45Z</time>
      </trkpt>
      <trkpt lat="31.969816032797098" lon="-3.411041395738721">
        <ele>974.43359375</ele>
        <time>2011-04-20T11:20:54Z</time>
      </trkpt>
      <trkpt lat="31.96837417781353" lon="-3.414245042949915">
        <ele>981.162841796875</ele>
        <time>2011-04-20T11:21:07Z</time>
      </trkpt>
      <trkpt lat="31.967174056917429" lon="-3.417181391268969">
        <ele>988.372802734375</ele>
        <time>2011-04-20T11:21:19Z</time>
      </trkpt>
      <trkpt lat="31.966773150488734" lon="-3.419096153229475">
        <ele>975.394775390625</ele>
        <time>2011-04-20T11:21:27Z</time>
      </trkpt>
      <trkpt lat="31.966290436685085" lon="-3.422007523477078">
        <ele>967.7041015625</ele>
        <time>2011-04-20T11:21:39Z</time>
      </trkpt>
      <trkpt lat="31.966254897415638" lon="-3.423758838325739">
        <ele>965.301025390625</ele>
        <time>2011-04-20T11:21:46Z</time>
      </trkpt>
      <trkpt lat="31.966428905725479" lon="-3.427460789680481">
        <ele>966.26220703125</ele>
        <time>2011-04-20T11:22:01Z</time>
      </trkpt>
      <trkpt lat="31.966502079740167" lon="-3.431179840117693">
        <ele>966.742919921875</ele>
        <time>2011-04-20T11:22:16Z</time>
      </trkpt>
      <trkpt lat="31.966254645958543" lon="-3.435317650437355">
        <ele>968.184814453125</ele>
        <time>2011-04-20T11:22:32Z</time>
      </trkpt>
      <trkpt lat="31.9659632910043" lon="-3.439709935337305">
        <ele>970.588134765625</ele>
        <time>2011-04-20T11:22:49Z</time>
      </trkpt>
      <trkpt lat="31.965654920786619" lon="-3.443431500345469">
        <ele>972.510986328125</ele>
        <time>2011-04-20T11:23:04Z</time>
      </trkpt>
      <trkpt lat="31.965419137850404" lon="-3.446866404265165">
        <ele>974.43359375</ele>
        <time>2011-04-20T11:23:18Z</time>
      </trkpt>
      <trkpt lat="31.965184947475791" lon="-3.450485458597541">
        <ele>974.914306640625</ele>
        <time>2011-04-20T11:23:32Z</time>
      </trkpt>
      <trkpt lat="31.964992582798004" lon="-3.45338542945683">
        <ele>970.107421875</ele>
        <time>2011-04-20T11:23:43Z</time>
      </trkpt>
      <trkpt lat="31.964696031063795" lon="-3.45728955231607">
        <ele>969.626953125</ele>
        <time>2011-04-20T11:23:58Z</time>
      </trkpt>
      <trkpt lat="31.964442227035761" lon="-3.46115218475461">
        <ele>970.588134765625</ele>
        <time>2011-04-20T11:24:13Z</time>
      </trkpt>
      <trkpt lat="31.964164702221751" lon="-3.464200096204877">
        <ele>970.588134765625</ele>
        <time>2011-04-20T11:24:25Z</time>
      </trkpt>
      <trkpt lat="31.963751474395394" lon="-3.467424865812063">
        <ele>970.107421875</ele>
        <time>2011-04-20T11:24:37Z</time>
      </trkpt>
      <trkpt lat="31.963235065340996" lon="-3.470996227115393">
        <ele>970.107421875</ele>
        <time>2011-04-20T11:24:50Z</time>
      </trkpt>
      <trkpt lat="31.962737096473575" lon="-3.474587872624397">
        <ele>970.588134765625</ele>
        <time>2011-04-20T11:25:03Z</time>
      </trkpt>
      <trkpt lat="31.962141897529364" lon="-3.478661393746734">
        <ele>972.99169921875</ele>
        <time>2011-04-20T11:25:18Z</time>
      </trkpt>
      <trkpt lat="31.961654741317034" lon="-3.481964450329542">
        <ele>971.54931640625</ele>
        <time>2011-04-20T11:25:31Z</time>
      </trkpt>
      <trkpt lat="31.961287530139089" lon="-3.484405344352126">
        <ele>972.0302734375</ele>
        <time>2011-04-20T11:25:41Z</time>
      </trkpt>
      <trkpt lat="31.961165992543101" lon="-3.48523180000484">
        <ele>972.510986328125</ele>
        <time>2011-04-20T11:25:47Z</time>
      </trkpt>
      <trkpt lat="31.96098905056715" lon="-3.48651104606688">
        <ele>974.43359375</ele>
        <time>2011-04-20T11:25:55Z</time>
      </trkpt>
      <trkpt lat="31.960880756378174" lon="-3.48855690099299">
        <ele>973.472412109375</ele>
        <time>2011-04-20T11:26:06Z</time>
      </trkpt>
      <trkpt lat="31.961024589836597" lon="-3.489626599475741">
        <ele>974.43359375</ele>
        <time>2011-04-20T11:26:11Z</time>
      </trkpt>
      <trkpt lat="31.961528928950429" lon="-3.491432061418891">
        <ele>978.759521484375</ele>
        <time>2011-04-20T11:26:20Z</time>
      </trkpt>
      <trkpt lat="31.962335519492626" lon="-3.494338486343622">
        <ele>985.008056640625</ele>
        <time>2011-04-20T11:26:34Z</time>
      </trkpt>
      <trkpt lat="31.963351741433144" lon="-3.498054938390851">
        <ele>993.659912109375</ele>
        <time>2011-04-20T11:26:50Z</time>
      </trkpt>
      <trkpt lat="31.964306607842445" lon="-3.501575672999024">
        <ele>991.7373046875</ele>
        <time>2011-04-20T11:27:05Z</time>
      </trkpt>
      <trkpt lat="31.965388962998986" lon="-3.505557663738728">
        <ele>1000.38916015625</ele>
        <time>2011-04-20T11:27:21Z</time>
      </trkpt>
      <trkpt lat="31.965834461152554" lon="-3.507918259128928">
        <ele>1005.19580078125</ele>
        <time>2011-04-20T11:27:30Z</time>
      </trkpt>
      <trkpt lat="31.965919202193618" lon="-3.510112976655364">
        <ele>1007.59912109375</ele>
        <time>2011-04-20T11:27:38Z</time>
      </trkpt>
      <trkpt lat="31.965800346806645" lon="-3.513438664376736">
        <ele>991.7373046875</ele>
        <time>2011-04-20T11:27:50Z</time>
      </trkpt>
      <trkpt lat="31.965628350153565" lon="-3.517214627936482">
        <ele>986.449951171875</ele>
        <time>2011-04-20T11:28:04Z</time>
      </trkpt>
      <trkpt lat="31.965501867234707" lon="-3.520238064229488">
        <ele>990.29541015625</ele>
        <time>2011-04-20T11:28:16Z</time>
      </trkpt>
      <trkpt lat="31.965386364609003" lon="-3.523667436093092">
        <ele>988.853515625</ele>
        <time>2011-04-20T11:28:29Z</time>
      </trkpt>
      <trkpt lat="31.965062152594328" lon="-3.527177944779396">
        <ele>990.29541015625</ele>
        <time>2011-04-20T11:28:42Z</time>
      </trkpt>
      <trkpt lat="31.964533505961299" lon="-3.529308624565601">
        <ele>990.77587890625</ele>
        <time>2011-04-20T11:28:50Z</time>
      </trkpt>
      <trkpt lat="31.963452575728297" lon="-3.533176956698299">
        <ele>989.814697265625</ele>
        <time>2011-04-20T11:29:05Z</time>
      </trkpt>
      <trkpt lat="31.962555041536689" lon="-3.536697188392282">
        <ele>986.449951171875</ele>
        <time>2011-04-20T11:29:19Z</time>
      </trkpt>
      <trkpt lat="31.96156756952405" lon="-3.540476504713297">
        <ele>993.17919921875</ele>
        <time>2011-04-20T11:29:34Z</time>
      </trkpt>
      <trkpt lat="31.960677998140454" lon="-3.543851478025317">
        <ele>996.5439453125</ele>
        <time>2011-04-20T11:29:48Z</time>
      </trkpt>
      <trkpt lat="31.960068382322788" lon="-3.546186927706003">
        <ele>1000.86962890625</ele>
        <time>2011-04-20T11:29:58Z</time>
      </trkpt>
      <trkpt lat="31.959163639694452" lon="-3.549444805830717">
        <ele>1003.753662109375</ele>
        <time>2011-04-20T11:30:12Z</time>
      </trkpt>
      <trkpt lat="31.958221765235066" lon="-3.55294156819582">
        <ele>996.063232421875</ele>
        <time>2011-04-20T11:30:27Z</time>
      </trkpt>
      <trkpt lat="31.957445098087192" lon="-3.555889734998345">
        <ele>980.68212890625</ele>
        <time>2011-04-20T11:30:39Z</time>
      </trkpt>
      <trkpt lat="31.956618558615446" lon="-3.559004198759794">
        <ele>962.4169921875</ele>
        <time>2011-04-20T11:30:51Z</time>
      </trkpt>
      <trkpt lat="31.955840298905969" lon="-3.56184734031558">
        <ele>955.687744140625</ele>
        <time>2011-04-20T11:31:02Z</time>
      </trkpt>
      <trkpt lat="31.955027170479298" lon="-3.564677070826292">
        <ele>953.76513671875</ele>
        <time>2011-04-20T11:31:13Z</time>
      </trkpt>
      <trkpt lat="31.954236924648285" lon="-3.566727703437209">
        <ele>950.881103515625</ele>
        <time>2011-04-20T11:31:22Z</time>
      </trkpt>
      <trkpt lat="31.953644407913089" lon="-3.568581528961659">
        <ele>949.439208984375</ele>
        <time>2011-04-20T11:31:30Z</time>
      </trkpt>
      <trkpt lat="31.953307371586561" lon="-3.570555131882429">
        <ele>952.8037109375</ele>
        <time>2011-04-20T11:31:38Z</time>
      </trkpt>
      <trkpt lat="31.95284016430378" lon="-3.57457266189158">
        <ele>957.1298828125</ele>
        <time>2011-04-20T11:31:54Z</time>
      </trkpt>
      <trkpt lat="31.952454010024667" lon="-3.577843112871051">
        <ele>958.57177734375</ele>
        <time>2011-04-20T11:32:06Z</time>
      </trkpt>
      <trkpt lat="31.952031310647726" lon="-3.581370804458857">
        <ele>960.97509765625</ele>
        <time>2011-04-20T11:32:19Z</time>
      </trkpt>
      <trkpt lat="31.951621267944574" lon="-3.584950966760516">
        <ele>960.97509765625</ele>
        <time>2011-04-20T11:32:33Z</time>
      </trkpt>
      <trkpt lat="31.951169734820724" lon="-3.588857520371676">
        <ele>965.78173828125</ele>
        <time>2011-04-20T11:32:48Z</time>
      </trkpt>
      <trkpt lat="31.950919115915895" lon="-3.590477742254734">
        <ele>972.510986328125</ele>
        <time>2011-04-20T11:32:55Z</time>
      </trkpt>
      <trkpt lat="31.950627006590366" lon="-3.592147082090378">
        <ele>972.99169921875</ele>
        <time>2011-04-20T11:33:05Z</time>
      </trkpt>
      <trkpt lat="31.950441598892212" lon="-3.593446025624871">
        <ele>974.43359375</ele>
        <time>2011-04-20T11:33:14Z</time>
      </trkpt>
      <trkpt lat="31.950400695204735" lon="-3.594666766002774">
        <ele>978.759521484375</ele>
        <time>2011-04-20T11:33:21Z</time>
      </trkpt>
      <trkpt lat="31.950387954711914" lon="-3.595594726502895">
        <ele>980.201416015625</ele>
        <time>2011-04-20T11:33:28Z</time>
      </trkpt>
      <trkpt lat="31.950456602498889" lon="-3.596927616745234">
        <ele>981.643310546875</ele>
        <time>2011-04-20T11:33:37Z</time>
      </trkpt>
      <trkpt lat="31.950590210035443" lon="-3.598507270216942">
        <ele>983.085205078125</ele>
        <time>2011-04-20T11:33:47Z</time>
      </trkpt>
      <trkpt lat="31.950623989105225" lon="-3.599445037543774">
        <ele>983.085205078125</ele>
        <time>2011-04-20T11:33:55Z</time>
      </trkpt>
      <trkpt lat="31.950592137873173" lon="-3.600473077967763">
        <ele>983.085205078125</ele>
        <time>2011-04-20T11:34:04Z</time>
      </trkpt>
      <trkpt lat="31.950564477592707" lon="-3.600931232795119">
        <ele>982.1240234375</ele>
        <time>2011-04-20T11:34:09Z</time>
      </trkpt>
      <trkpt lat="31.950479988008738" lon="-3.601481672376394">
        <ele>978.27880859375</ele>
        <time>2011-04-20T11:34:17Z</time>
      </trkpt>
      <trkpt lat="31.950192991644144" lon="-3.602374596521258">
        <ele>973.952880859375</ele>
        <time>2011-04-20T11:34:26Z</time>
      </trkpt>
      <trkpt lat="31.949896020814776" lon="-3.603149754926562">
        <ele>970.107421875</ele>
        <time>2011-04-20T11:34:35Z</time>
      </trkpt>
      <trkpt lat="31.949648335576057" lon="-3.603846039623022">
        <ele>964.339599609375</ele>
        <time>2011-04-20T11:34:45Z</time>
      </trkpt>
      <trkpt lat="31.94937827065587" lon="-3.604491027072072">
        <ele>960.97509765625</ele>
        <time>2011-04-20T11:34:55Z</time>
      </trkpt>
      <trkpt lat="31.949084820225835" lon="-3.605330558493733">
        <ele>954.245849609375</ele>
        <time>2011-04-20T11:35:08Z</time>
      </trkpt>
      <trkpt lat="31.948809055611491" lon="-3.606045702472329">
        <ele>949.919921875</ele>
        <time>2011-04-20T11:35:19Z</time>
      </trkpt>
      <trkpt lat="31.948537984862924" lon="-3.606924461200833">
        <ele>949.439208984375</ele>
        <time>2011-04-20T11:35:31Z</time>
      </trkpt>
      <trkpt lat="31.948540583252907" lon="-3.607759717851877">
        <ele>958.09130859375</ele>
        <time>2011-04-20T11:35:39Z</time>
      </trkpt>
      <trkpt lat="31.948785921558738" lon="-3.60843613743782">
        <ele>957.610595703125</ele>
        <time>2011-04-20T11:35:48Z</time>
      </trkpt>
      <trkpt lat="31.949098398908973" lon="-3.609259910881519">
        <ele>958.57177734375</ele>
        <time>2011-04-20T11:35:59Z</time>
      </trkpt>
      <trkpt lat="31.949407272040844" lon="-3.610244616866112">
        <ele>961.9365234375</ele>
        <time>2011-04-20T11:36:11Z</time>
      </trkpt>
      <trkpt lat="31.949521936476231" lon="-3.6112139839679">
        <ele>964.8203125</ele>
        <time>2011-04-20T11:36:23Z</time>
      </trkpt>
      <trkpt lat="31.949546495452523" lon="-3.611740618944168">
        <ele>971.54931640625</ele>
        <time>2011-04-20T11:36:31Z</time>
      </trkpt>
      <trkpt lat="31.949542053043842" lon="-3.611991573125124">
        <ele>984.52734375</ele>
        <time>2011-04-20T11:36:48Z</time>
      </trkpt>
      <trkpt lat="31.949513806030154" lon="-3.611037964001298">
        <ele>994.140625</ele>
        <time>2011-04-20T11:41:10Z</time>
      </trkpt>
      <trkpt lat="31.949335774406791" lon="-3.609999362379313">
        <ele>995.101806640625</ele>
        <time>2011-04-20T11:41:22Z</time>
      </trkpt>
      <trkpt lat="31.949153887107968" lon="-3.609426375478506">
        <ele>986.449951171875</ele>
        <time>2011-04-20T11:41:32Z</time>
      </trkpt>
      <trkpt lat="31.948928581550717" lon="-3.608779292553663">
        <ele>976.8369140625</ele>
        <time>2011-04-20T11:41:42Z</time>
      </trkpt>
      <trkpt lat="31.948564639315009" lon="-3.607877651229501">
        <ele>980.68212890625</ele>
        <time>2011-04-20T11:41:53Z</time>
      </trkpt>
      <trkpt lat="31.94852951914072" lon="-3.60711925663054">
        <ele>981.643310546875</ele>
        <time>2011-04-20T11:42:01Z</time>
      </trkpt>
      <trkpt lat="31.94873227737844" lon="-3.606231110170484">
        <ele>982.604736328125</ele>
        <time>2011-04-20T11:42:11Z</time>
      </trkpt>
      <trkpt lat="31.94917056709528" lon="-3.60508949495852">
        <ele>983.085205078125</ele>
        <time>2011-04-20T11:42:24Z</time>
      </trkpt>
      <trkpt lat="31.949557391926646" lon="-3.604026166722179">
        <ele>984.046630859375</ele>
        <time>2011-04-20T11:42:37Z</time>
      </trkpt>
      <trkpt lat="31.949751684442163" lon="-3.60353616066277">
        <ele>985.488525390625</ele>
        <time>2011-04-20T11:42:46Z</time>
      </trkpt>
      <trkpt lat="31.949784709140658" lon="-3.603437086567283">
        <ele>985.96923828125</ele>
        <time>2011-04-20T11:42:56Z</time>
      </trkpt>
      <trkpt lat="31.94983558729291" lon="-3.603305406868458">
        <ele>985.008056640625</ele>
        <time>2011-04-20T11:43:03Z</time>
      </trkpt>
      <trkpt lat="31.950031472370028" lon="-3.603397943079472">
        <ele>980.201416015625</ele>
        <time>2011-04-20T11:43:13Z</time>
      </trkpt>
      <trkpt lat="31.950389798730612" lon="-3.603571029379964">
        <ele>975.394775390625</ele>
        <time>2011-04-20T11:43:27Z</time>
      </trkpt>
      <trkpt lat="31.950591299682856" lon="-3.603692147880793">
        <ele>972.510986328125</ele>
        <time>2011-04-20T11:43:36Z</time>
      </trkpt>
      <trkpt lat="31.950720716267824" lon="-3.603711342439055">
        <ele>959.533203125</ele>
        <time>2011-04-20T11:44:40Z</time>
      </trkpt>
      <trkpt lat="31.950863879173994" lon="-3.603713186457753">
        <ele>966.26220703125</ele>
        <time>2011-04-20T11:45:09Z</time>
      </trkpt>
      <trkpt lat="31.950920289382339" lon="-3.603613944724202">
        <ele>974.914306640625</ele>
        <time>2011-04-20T11:45:18Z</time>
      </trkpt>
      <trkpt lat="31.950839487835765" lon="-3.603566670790315">
        <ele>990.77587890625</ele>
        <time>2011-04-20T11:47:39Z</time>
      </trkpt>
      <trkpt lat="31.950705125927925" lon="-3.603665996342897">
        <ele>950.881103515625</ele>
        <time>2011-04-20T12:00:30Z</time>
      </trkpt>
      <trkpt lat="31.950522819533944" lon="-3.603726262226701">
        <ele>948.95849609375</ele>
        <time>2011-04-20T12:08:46Z</time>
      </trkpt>
      <trkpt lat="31.950559783726931" lon="-3.60383422113955">
        <ele>950.400634765625</ele>
        <time>2011-04-20T12:13:09Z</time>
      </trkpt>
      <trkpt lat="31.950731445103884" lon="-3.603737829253078">
        <ele>967.7041015625</ele>
        <time>2011-04-20T12:18:11Z</time>
      </trkpt>
      <trkpt lat="31.950905537232757" lon="-3.603721149265766">
        <ele>974.43359375</ele>
        <time>2011-04-20T12:18:59Z</time>
      </trkpt>
      <trkpt lat="31.951005617156625" lon="-3.603708241134882">
        <ele>978.27880859375</ele>
        <time>2011-04-20T12:21:26Z</time>
      </trkpt>
      <trkpt lat="31.950847450643778" lon="-3.603575052693486">
        <ele>950.881103515625</ele>
        <time>2011-04-20T12:42:19Z</time>
      </trkpt>
      <trkpt lat="31.950884163379669" lon="-3.603694159537554">
        <ele>939.34521484375</ele>
        <time>2011-04-20T12:45:08Z</time>
      </trkpt>
      <trkpt lat="31.950959851965308" lon="-3.603751994669437">
        <ele>940.306884765625</ele>
        <time>2011-04-20T12:52:00Z</time>
      </trkpt>
      <trkpt lat="31.950886594131589" lon="-3.603878645226359">
        <ele>956.16845703125</ele>
        <time>2011-04-20T13:40:17Z</time>
      </trkpt>
      <trkpt lat="31.950961276888847" lon="-3.603983083739877">
        <ele>960.013671875</ele>
        <time>2011-04-20T13:40:55Z</time>
      </trkpt>
      <trkpt lat="31.950974352657795" lon="-3.604272594675422">
        <ele>962.897705078125</ele>
        <time>2011-04-20T13:47:14Z</time>
      </trkpt>
      <trkpt lat="31.950781736522913" lon="-3.604294722899795">
        <ele>960.97509765625</ele>
        <time>2011-04-20T13:47:20Z</time>
      </trkpt>
      <trkpt lat="31.950583588331938" lon="-3.604147536680102">
        <ele>957.1298828125</ele>
        <time>2011-04-20T13:47:26Z</time>
      </trkpt>
      <trkpt lat="31.950166756287217" lon="-3.603897169232369">
        <ele>954.245849609375</ele>
        <time>2011-04-20T13:47:36Z</time>
      </trkpt>
      <trkpt lat="31.949701560661197" lon="-3.603610089048743">
        <ele>948.95849609375</ele>
        <time>2011-04-20T13:47:50Z</time>
      </trkpt>
      <trkpt lat="31.94967239163816" lon="-3.603482181206346">
        <ele>947.035888671875</ele>
        <time>2011-04-20T13:47:54Z</time>
      </trkpt>
      <trkpt lat="31.949976403266191" lon="-3.60295076854527">
        <ele>943.67138671875</ele>
        <time>2011-04-20T13:48:06Z</time>
      </trkpt>
      <trkpt lat="31.950189890339971" lon="-3.602384235709906">
        <ele>940.306884765625</ele>
        <time>2011-04-20T13:48:16Z</time>
      </trkpt>
      <trkpt lat="31.950266668573022" lon="-3.602145267650485">
        <ele>937.9033203125</ele>
        <time>2011-04-20T13:48:24Z</time>
      </trkpt>
      <trkpt lat="31.949884286150336" lon="-3.601799681782723">
        <ele>936.46142578125</ele>
        <time>2011-04-20T13:48:33Z</time>
      </trkpt>
      <trkpt lat="31.949605755507946" lon="-3.601683592423797">
        <ele>937.9033203125</ele>
        <time>2011-04-20T13:48:40Z</time>
      </trkpt>
      <trkpt lat="31.949478099122643" lon="-3.601605473086238">
        <ele>937.422607421875</ele>
        <time>2011-04-20T13:48:43Z</time>
      </trkpt>
      <trkpt lat="31.949340216815472" lon="-3.601560043171048">
        <ele>934.538818359375</ele>
        <time>2011-04-20T13:48:46Z</time>
      </trkpt>
      <trkpt lat="31.949142571538687" lon="-3.601418472826481">
        <ele>935.5</ele>
        <time>2011-04-20T13:48:50Z</time>
      </trkpt>
      <trkpt lat="31.948806457221508" lon="-3.601199872791767">
        <ele>934.05810546875</ele>
        <time>2011-04-20T13:48:57Z</time>
      </trkpt>
      <trkpt lat="31.948548462241888" lon="-3.601160561665893">
        <ele>931.17431640625</ele>
        <time>2011-04-20T13:49:04Z</time>
      </trkpt>
      <trkpt lat="31.9482715241611" lon="-3.601097697392106">
        <ele>929.732177734375</ele>
        <time>2011-04-20T13:49:12Z</time>
      </trkpt>
      <trkpt lat="31.948151327669621" lon="-3.600896783173084">
        <ele>931.65478515625</ele>
        <time>2011-04-20T13:49:19Z</time>
      </trkpt>
      <trkpt lat="31.948066838085651" lon="-3.600815059617162">
        <ele>933.0966796875</ele>
        <time>2011-04-20T13:49:24Z</time>
      </trkpt>
      <trkpt lat="31.947768023237586" lon="-3.60039277933538">
        <ele>946.07470703125</ele>
        <time>2011-04-20T13:50:35Z</time>
      </trkpt>
      <trkpt lat="31.947715720161796" lon="-3.600167389959097">
        <ele>946.555419921875</ele>
        <time>2011-04-20T13:50:40Z</time>
      </trkpt>
      <trkpt lat="31.94741397164762" lon="-3.599590882658958">
        <ele>938.384033203125</ele>
        <time>2011-04-20T13:50:52Z</time>
      </trkpt>
      <trkpt lat="31.947329398244619" lon="-3.599454928189516">
        <ele>936.94189453125</ele>
        <time>2011-04-20T13:50:55Z</time>
      </trkpt>
      <trkpt lat="31.947285644710064" lon="-3.599110180512071">
        <ele>938.86474609375</ele>
        <time>2011-04-20T13:51:02Z</time>
      </trkpt>
      <trkpt lat="31.947273490950465" lon="-3.598958048969507">
        <ele>942.2294921875</ele>
        <time>2011-04-20T13:51:07Z</time>
      </trkpt>
      <trkpt lat="31.946950284764171" lon="-3.598660072311759">
        <ele>942.710205078125</ele>
        <time>2011-04-20T13:51:16Z</time>
      </trkpt>
      <trkpt lat="31.946840230375528" lon="-3.598386738449335">
        <ele>941.748779296875</ele>
        <time>2011-04-20T13:51:20Z</time>
      </trkpt>
      <trkpt lat="31.946667982265353" lon="-3.597258199006319">
        <ele>943.67138671875</ele>
        <time>2011-04-20T13:51:33Z</time>
      </trkpt>
      <trkpt lat="31.946375370025635" lon="-3.596458816900849">
        <ele>944.632568359375</ele>
        <time>2011-04-20T13:51:44Z</time>
      </trkpt>
      <trkpt lat="31.946136318147182" lon="-3.596225129440427">
        <ele>942.710205078125</ele>
        <time>2011-04-20T13:51:50Z</time>
      </trkpt>
      <trkpt lat="31.946023916825652" lon="-3.595960848033428">
        <ele>937.9033203125</ele>
        <time>2011-04-20T13:52:02Z</time>
      </trkpt>
      <trkpt lat="31.945898691192269" lon="-3.595620794221759">
        <ele>933.577392578125</ele>
        <time>2011-04-20T13:52:13Z</time>
      </trkpt>
      <trkpt lat="31.945773381739855" lon="-3.595508392900229">
        <ele>916.273681640625</ele>
        <time>2011-04-20T13:53:06Z</time>
      </trkpt>
      <trkpt lat="31.945512536913157" lon="-3.595131123438478">
        <ele>918.1962890625</ele>
        <time>2011-04-20T13:53:17Z</time>
      </trkpt>
      <trkpt lat="31.945201652124524" lon="-3.594918390735984">
        <ele>921.560791015625</ele>
        <time>2011-04-20T13:53:25Z</time>
      </trkpt>
      <trkpt lat="31.944978442043066" lon="-3.594615552574396">
        <ele>921.560791015625</ele>
        <time>2011-04-20T13:53:33Z</time>
      </trkpt>
      <trkpt lat="31.944438396021724" lon="-3.594185560941696">
        <ele>926.36767578125</ele>
        <time>2011-04-20T13:53:50Z</time>
      </trkpt>
      <trkpt lat="31.944333286955953" lon="-3.594086989760399">
        <ele>928.77099609375</ele>
        <time>2011-04-20T13:53:54Z</time>
      </trkpt>
      <trkpt lat="31.94405266083777" lon="-3.593648532405496">
        <ele>927.8095703125</ele>
        <time>2011-04-20T13:54:05Z</time>
      </trkpt>
      <trkpt lat="31.943628955632448" lon="-3.593230359256268">
        <ele>929.732177734375</ele>
        <time>2011-04-20T13:54:16Z</time>
      </trkpt>
      <trkpt lat="31.943270461633801" lon="-3.592908661812544">
        <ele>926.848388671875</ele>
        <time>2011-04-20T13:54:26Z</time>
      </trkpt>
      <trkpt lat="31.943025374785066" lon="-3.59266709536314">
        <ele>933.577392578125</ele>
        <time>2011-04-20T13:54:36Z</time>
      </trkpt>
      <trkpt lat="31.942951027303934" lon="-3.591927140951157">
        <ele>934.538818359375</ele>
        <time>2011-04-20T13:54:48Z</time>
      </trkpt>
      <trkpt lat="31.942921774461865" lon="-3.591600079089403">
        <ele>934.05810546875</ele>
        <time>2011-04-20T13:54:56Z</time>
      </trkpt>
      <trkpt lat="31.942835776135325" lon="-3.591673085466027">
        <ele>932.135498046875</ele>
        <time>2011-04-20T13:55:05Z</time>
      </trkpt>
      <trkpt lat="31.942965192720294" lon="-3.592090336605907">
        <ele>935.01953125</ele>
        <time>2011-04-20T13:55:13Z</time>
      </trkpt>
      <trkpt lat="31.942844660952687" lon="-3.59243106096983">
        <ele>932.135498046875</ele>
        <time>2011-04-20T13:55:20Z</time>
      </trkpt>
      <trkpt lat="31.942715495824814" lon="-3.592429719865322">
        <ele>931.17431640625</ele>
        <time>2011-04-20T13:55:23Z</time>
      </trkpt>
      <trkpt lat="31.942448951303959" lon="-3.592398623004556">
        <ele>931.17431640625</ele>
        <time>2011-04-20T13:55:29Z</time>
      </trkpt>
      <trkpt lat="31.942322636023164" lon="-3.592374147847295">
        <ele>930.693603515625</ele>
        <time>2011-04-20T13:55:32Z</time>
      </trkpt>
      <trkpt lat="31.941807065159082" lon="-3.592383451759815">
        <ele>928.290283203125</ele>
        <time>2011-04-20T13:55:44Z</time>
      </trkpt>
      <trkpt lat="31.941493665799499" lon="-3.5924809332937">
        <ele>930.212890625</ele>
        <time>2011-04-20T13:55:53Z</time>
      </trkpt>
      <trkpt lat="31.941324770450592" lon="-3.592578582465649">
        <ele>931.65478515625</ele>
        <time>2011-04-20T13:56:02Z</time>
      </trkpt>
      <trkpt lat="31.941068451851606" lon="-3.592578498646617">
        <ele>925.40625</ele>
        <time>2011-04-20T13:56:12Z</time>
      </trkpt>
      <trkpt lat="31.940803080797195" lon="-3.592623425647616">
        <ele>921.080322265625</ele>
        <time>2011-04-20T13:56:22Z</time>
      </trkpt>
      <trkpt lat="31.940771145746112" lon="-3.5923807695508">
        <ele>921.560791015625</ele>
        <time>2011-04-20T13:56:39Z</time>
      </trkpt>
      <trkpt lat="31.940813641995192" lon="-3.592150518670678">
        <ele>915.793212890625</ele>
        <time>2011-04-20T13:56:50Z</time>
      </trkpt>
      <trkpt lat="31.940899640321732" lon="-3.592112045735121">
        <ele>918.677001953125</ele>
        <time>2011-04-20T13:57:06Z</time>
      </trkpt>
      <trkpt lat="31.940938532352448" lon="-3.591754725202918">
        <ele>919.15771484375</ele>
        <time>2011-04-20T13:57:19Z</time>
      </trkpt>
      <trkpt lat="31.940937945619226" lon="-3.591490443795919">
        <ele>915.3125</ele>
        <time>2011-04-20T13:57:30Z</time>
      </trkpt>
      <trkpt lat="31.940969964489341" lon="-3.591383155435324">
        <ele>931.65478515625</ele>
        <time>2011-04-20T13:59:30Z</time>
      </trkpt>
      <trkpt lat="31.940997876226902" lon="-3.591717844828963">
        <ele>946.07470703125</ele>
        <time>2011-04-20T13:59:58Z</time>
      </trkpt>
      <trkpt lat="31.940875332802534" lon="-3.592106262221932">
        <ele>965.301025390625</ele>
        <time>2011-04-20T14:00:09Z</time>
      </trkpt>
      <trkpt lat="31.940765446051955" lon="-3.592150937765837">
        <ele>969.146240234375</ele>
        <time>2011-04-20T14:00:25Z</time>
      </trkpt>
      <trkpt lat="31.94069386459887" lon="-3.592074662446976">
        <ele>992.69873046875</ele>
        <time>2011-04-20T14:01:28Z</time>
      </trkpt>
      <trkpt lat="31.940702330321074" lon="-3.592304242774844">
        <ele>990.29541015625</ele>
        <time>2011-04-20T14:01:42Z</time>
      </trkpt>
      <trkpt lat="31.940742647275329" lon="-3.592674639075995">
        <ele>987.4111328125</ele>
        <time>2011-04-20T14:01:59Z</time>
      </trkpt>
      <trkpt lat="31.940755387768149" lon="-3.592865830287337">
        <ele>985.96923828125</ele>
        <time>2011-04-20T14:02:09Z</time>
      </trkpt>
      <trkpt lat="31.940711131319404" lon="-3.593287859112024">
        <ele>986.449951171875</ele>
        <time>2011-04-20T14:02:19Z</time>
      </trkpt>
      <trkpt lat="31.940734349191189" lon="-3.593767723068595">
        <ele>989.333984375</ele>
        <time>2011-04-20T14:02:30Z</time>
      </trkpt>
      <trkpt lat="31.940744826570153" lon="-3.594241216778755">
        <ele>990.29541015625</ele>
        <time>2011-04-20T14:02:40Z</time>
      </trkpt>
      <trkpt lat="31.940712723881006" lon="-3.594539361074567">
        <ele>990.29541015625</ele>
        <time>2011-04-20T14:02:49Z</time>
      </trkpt>
      <trkpt lat="31.940598143264651" lon="-3.594622844830155">
        <ele>989.333984375</ele>
        <time>2011-04-20T14:02:57Z</time>
      </trkpt>
      <trkpt lat="31.940413238480687" lon="-3.594575570896268">
        <ele>992.218017578125</ele>
        <time>2011-04-20T14:03:35Z</time>
      </trkpt>
      <trkpt lat="31.940189776942134" lon="-3.594554029405117">
        <ele>992.218017578125</ele>
        <time>2011-04-20T14:03:40Z</time>
      </trkpt>
      <trkpt lat="31.939798844978213" lon="-3.594540450721979">
        <ele>992.218017578125</ele>
        <time>2011-04-20T14:03:50Z</time>
      </trkpt>
      <trkpt lat="31.93965065293014" lon="-3.594701467081904">
        <ele>993.17919921875</ele>
        <time>2011-04-20T14:04:03Z</time>
      </trkpt>
      <trkpt lat="31.939440434798598" lon="-3.595093991607428">
        <ele>990.29541015625</ele>
        <time>2011-04-20T14:04:13Z</time>
      </trkpt>
      <trkpt lat="31.939285788685083" lon="-3.595155347138643">
        <ele>988.372802734375</ele>
        <time>2011-04-20T14:04:34Z</time>
      </trkpt>
      <trkpt lat="31.93893676623702" lon="-3.595161968842149">
        <ele>985.96923828125</ele>
        <time>2011-04-20T14:04:46Z</time>
      </trkpt>
      <trkpt lat="31.938471486791968" lon="-3.595159118995071">
        <ele>992.218017578125</ele>
        <time>2011-04-20T14:05:01Z</time>
      </trkpt>
      <trkpt lat="31.938365120440722" lon="-3.595146629959345">
        <ele>992.69873046875</ele>
        <time>2011-04-20T14:05:09Z</time>
      </trkpt>
      <trkpt lat="31.938533848151565" lon="-3.595164064317942">
        <ele>995.101806640625</ele>
        <time>2011-04-20T14:05:49Z</time>
      </trkpt>
      <trkpt lat="31.938944729045033" lon="-3.595227180048823">
        <ele>997.0244140625</ele>
        <time>2011-04-20T14:06:00Z</time>
      </trkpt>
      <trkpt lat="31.939419563859701" lon="-3.595269089564681">
        <ele>997.505126953125</ele>
        <time>2011-04-20T14:06:12Z</time>
      </trkpt>
      <trkpt lat="31.939496258273721" lon="-3.595467824488878">
        <ele>999.427734375</ele>
        <time>2011-04-20T14:06:20Z</time>
      </trkpt>
      <trkpt lat="31.939301462844014" lon="-3.596076769754291">
        <ele>1004.715087890625</ele>
        <time>2011-04-20T14:06:31Z</time>
      </trkpt>
      <trkpt lat="31.939148493111134" lon="-3.596487399190664">
        <ele>1006.156982421875</ele>
        <time>2011-04-20T14:06:37Z</time>
      </trkpt>
      <trkpt lat="31.939063416793942" lon="-3.59673734754324">
        <ele>1005.19580078125</ele>
        <time>2011-04-20T14:06:40Z</time>
      </trkpt>
      <trkpt lat="31.938698133453727" lon="-3.597648795694113">
        <ele>1006.6376953125</ele>
        <time>2011-04-20T14:06:51Z</time>
      </trkpt>
      <trkpt lat="31.938569052144885" lon="-3.59797946177423">
        <ele>1008.079833984375</ele>
        <time>2011-04-20T14:06:55Z</time>
      </trkpt>
      <trkpt lat="31.938459081575274" lon="-3.598371483385563">
        <ele>1006.156982421875</ele>
        <time>2011-04-20T14:07:00Z</time>
      </trkpt>
      <trkpt lat="31.938258334994316" lon="-3.599022841081023">
        <ele>1004.234619140625</ele>
        <time>2011-04-20T14:07:10Z</time>
      </trkpt>
      <trkpt lat="31.938208462670445" lon="-3.599141193553805">
        <ele>1005.19580078125</ele>
        <time>2011-04-20T14:07:12Z</time>
      </trkpt>
      <trkpt lat="31.938168983906507" lon="-3.599324421957135">
        <ele>1006.156982421875</ele>
        <time>2011-04-20T14:07:15Z</time>
      </trkpt>
      <trkpt lat="31.938004028052092" lon="-3.599900174885988">
        <ele>1002.3115234375</ele>
        <time>2011-04-20T14:07:26Z</time>
      </trkpt>
      <trkpt lat="31.937898583710194" lon="-3.600208880379796">
        <ele>1001.350341796875</ele>
        <time>2011-04-20T14:07:31Z</time>
      </trkpt>
      <trkpt lat="31.937799090519547" lon="-3.600724283605814">
        <ele>1000.38916015625</ele>
        <time>2011-04-20T14:07:39Z</time>
      </trkpt>
      <trkpt lat="31.937714349478483" lon="-3.601195681840181">
        <ele>999.427734375</ele>
        <time>2011-04-20T14:07:48Z</time>
      </trkpt>
      <trkpt lat="31.937660034745932" lon="-3.601332390680909">
        <ele>998.46630859375</ele>
        <time>2011-04-20T14:07:50Z</time>
      </trkpt>
      <trkpt lat="31.937607899308205" lon="-3.601599438115954">
        <ele>995.58251953125</ele>
        <time>2011-04-20T14:07:54Z</time>
      </trkpt>
      <trkpt lat="31.937568252906203" lon="-3.60190068371594">
        <ele>997.98583984375</ele>
        <time>2011-04-20T14:08:01Z</time>
      </trkpt>
      <trkpt lat="31.93741268478334" lon="-3.602069243788719">
        <ele>996.063232421875</ele>
        <time>2011-04-20T14:08:07Z</time>
      </trkpt>
      <trkpt lat="31.93721872754395" lon="-3.60222271643579">
        <ele>997.505126953125</ele>
        <time>2011-04-20T14:08:13Z</time>
      </trkpt>
      <trkpt lat="31.937177237123251" lon="-3.602368226274848">
        <ele>998.46630859375</ele>
        <time>2011-04-20T14:08:17Z</time>
      </trkpt>
      <trkpt lat="31.936921840533614" lon="-3.602591436356306">
        <ele>1001.8310546875</ele>
        <time>2011-04-20T14:08:24Z</time>
      </trkpt>
      <trkpt lat="31.936691086739302" lon="-3.602760164067149">
        <ele>1000.86962890625</ele>
        <time>2011-04-20T14:08:32Z</time>
      </trkpt>
      <trkpt lat="31.936459075659513" lon="-3.602889161556959">
        <ele>999.427734375</ele>
        <time>2011-04-20T14:08:39Z</time>
      </trkpt>
      <trkpt lat="31.936374250799417" lon="-3.60302846878767">
        <ele>992.69873046875</ele>
        <time>2011-04-20T14:08:59Z</time>
      </trkpt>
      <trkpt lat="31.936229076236486" lon="-3.603269532322884">
        <ele>998.947021484375</ele>
        <time>2011-04-20T14:09:14Z</time>
      </trkpt>
      <trkpt lat="31.936218850314617" lon="-3.603554852306843">
        <ele>1000.86962890625</ele>
        <time>2011-04-20T14:09:21Z</time>
      </trkpt>
      <trkpt lat="31.936159087345004" lon="-3.603770937770605">
        <ele>997.505126953125</ele>
        <time>2011-04-20T14:09:30Z</time>
      </trkpt>
      <trkpt lat="31.935943169519305" lon="-3.603874957188964">
        <ele>994.62109375</ele>
        <time>2011-04-20T14:09:37Z</time>
      </trkpt>
      <trkpt lat="31.935707973316312" lon="-3.604016527533531">
        <ele>992.69873046875</ele>
        <time>2011-04-20T14:09:45Z</time>
      </trkpt>
      <trkpt lat="31.935613425448537" lon="-3.604015773162246">
        <ele>991.7373046875</ele>
        <time>2011-04-20T14:09:52Z</time>
      </trkpt>
      <trkpt lat="31.93550462834537" lon="-3.60400278121233">
        <ele>989.814697265625</ele>
        <time>2011-04-20T14:09:59Z</time>
      </trkpt>
      <trkpt lat="31.935400692746043" lon="-3.604138651862741">
        <ele>989.333984375</ele>
        <time>2011-04-20T14:10:03Z</time>
      </trkpt>
      <trkpt lat="31.935190474614501" lon="-3.604486249387264">
        <ele>990.77587890625</ele>
        <time>2011-04-20T14:10:10Z</time>
      </trkpt>
      <trkpt lat="31.935013197362423" lon="-3.604644499719143">
        <ele>991.7373046875</ele>
        <time>2011-04-20T14:10:14Z</time>
      </trkpt>
      <trkpt lat="31.934893084689975" lon="-3.604709878563881">
        <ele>992.218017578125</ele>
        <time>2011-04-20T14:10:17Z</time>
      </trkpt>
      <trkpt lat="31.934603825211525" lon="-3.604651624336839">
        <ele>992.218017578125</ele>
        <time>2011-04-20T14:10:25Z</time>
      </trkpt>
      <trkpt lat="31.934358319267631" lon="-3.604728737846017">
        <ele>993.659912109375</ele>
        <time>2011-04-20T14:10:33Z</time>
      </trkpt>
      <trkpt lat="31.934007871896029" lon="-3.604777436703444">
        <ele>995.58251953125</ele>
        <time>2011-04-20T14:10:43Z</time>
      </trkpt>
      <trkpt lat="31.933927154168487" lon="-3.604848850518465">
        <ele>996.063232421875</ele>
        <time>2011-04-20T14:10:46Z</time>
      </trkpt>
      <trkpt lat="31.933676032349467" lon="-3.604786824434996">
        <ele>995.101806640625</ele>
        <time>2011-04-20T14:10:53Z</time>
      </trkpt>
      <trkpt lat="31.933375038206577" lon="-3.604670399799943">
        <ele>992.69873046875</ele>
        <time>2011-04-20T14:11:02Z</time>
      </trkpt>
      <trkpt lat="31.933262217789888" lon="-3.604675428941846">
        <ele>992.69873046875</ele>
        <time>2011-04-20T14:11:05Z</time>
      </trkpt>
      <trkpt lat="31.933071529492736" lon="-3.604605440050364">
        <ele>991.7373046875</ele>
        <time>2011-04-20T14:11:11Z</time>
      </trkpt>
      <trkpt lat="31.932937251403928" lon="-3.604702837765217">
        <ele>991.7373046875</ele>
        <time>2011-04-20T14:11:17Z</time>
      </trkpt>
      <trkpt lat="31.932728458195925" lon="-3.604779867455363">
        <ele>991.7373046875</ele>
        <time>2011-04-20T14:11:25Z</time>
      </trkpt>
      <trkpt lat="31.932561993598938" lon="-3.604812724515796">
        <ele>983.56591796875</ele>
        <time>2011-04-20T14:13:35Z</time>
      </trkpt>
      <trkpt lat="31.932463254779577" lon="-3.604854885488749">
        <ele>984.52734375</ele>
        <time>2011-04-20T14:13:43Z</time>
      </trkpt>
      <trkpt lat="31.932395529001951" lon="-3.605098044499755">
        <ele>985.008056640625</ele>
        <time>2011-04-20T14:15:09Z</time>
      </trkpt>
      <trkpt lat="31.93215798586607" lon="-3.60531966201961">
        <ele>984.52734375</ele>
        <time>2011-04-20T14:15:15Z</time>
      </trkpt>
      <trkpt lat="31.93203778937459" lon="-3.605460394173861">
        <ele>984.52734375</ele>
        <time>2011-04-20T14:15:18Z</time>
      </trkpt>
      <trkpt lat="31.931759845465422" lon="-3.605875130742788">
        <ele>985.008056640625</ele>
        <time>2011-04-20T14:15:28Z</time>
      </trkpt>
      <trkpt lat="31.931688096374273" lon="-3.606060119345784">
        <ele>985.488525390625</ele>
        <time>2011-04-20T14:15:32Z</time>
      </trkpt>
      <trkpt lat="31.93162296898663" lon="-3.606307385489345">
        <ele>985.488525390625</ele>
        <time>2011-04-20T14:15:37Z</time>
      </trkpt>
      <trkpt lat="31.931624729186296" lon="-3.606495559215546">
        <ele>983.56591796875</ele>
        <time>2011-04-20T14:15:45Z</time>
      </trkpt>
      <trkpt lat="31.931702680885792" lon="-3.606617683544755">
        <ele>981.643310546875</ele>
        <time>2011-04-20T14:16:17Z</time>
      </trkpt>
      <trkpt lat="31.931918263435364" lon="-3.606640230864286">
        <ele>954.245849609375</ele>
        <time>2011-04-20T14:19:34Z</time>
      </trkpt>
      <trkpt lat="31.931865541264415" lon="-3.606819938868284">
        <ele>954.726318359375</ele>
        <time>2011-04-20T14:19:39Z</time>
      </trkpt>
      <trkpt lat="31.931842155754566" lon="-3.607038455083966">
        <ele>955.687744140625</ele>
        <time>2011-04-20T14:19:43Z</time>
      </trkpt>
      <trkpt lat="31.931681474670768" lon="-3.60751211643219">
        <ele>955.687744140625</ele>
        <time>2011-04-20T14:19:50Z</time>
      </trkpt>
      <trkpt lat="31.931298254057765" lon="-3.608030620962381">
        <ele>955.687744140625</ele>
        <time>2011-04-20T14:19:58Z</time>
      </trkpt>
      <trkpt lat="31.930854683741927" lon="-3.60844736918807">
        <ele>955.20703125</ele>
        <time>2011-04-20T14:20:06Z</time>
      </trkpt>
      <trkpt lat="31.930674556642771" lon="-3.608587849885225">
        <ele>955.20703125</ele>
        <time>2011-04-20T14:20:09Z</time>
      </trkpt>
      <trkpt lat="31.930408179759979" lon="-3.608893370255828">
        <ele>954.245849609375</ele>
        <time>2011-04-20T14:20:17Z</time>
      </trkpt>
      <trkpt lat="31.930307177826762" lon="-3.60906008630991">
        <ele>953.76513671875</ele>
        <time>2011-04-20T14:20:22Z</time>
      </trkpt>
      <trkpt lat="31.930251438170671" lon="-3.609232334420085">
        <ele>954.726318359375</ele>
        <time>2011-04-20T14:20:26Z</time>
      </trkpt>
      <trkpt lat="31.930037029087543" lon="-3.609504997730255">
        <ele>955.20703125</ele>
        <time>2011-04-20T14:20:34Z</time>
      </trkpt>
      <trkpt lat="31.929925382137299" lon="-3.609860558062792">
        <ele>956.649169921875</ele>
        <time>2011-04-20T14:20:42Z</time>
      </trkpt>
      <trkpt lat="31.929747434332967" lon="-3.610393479466438">
        <ele>956.16845703125</ele>
        <time>2011-04-20T14:20:51Z</time>
      </trkpt>
      <trkpt lat="31.929596979171038" lon="-3.610883066430688">
        <ele>955.687744140625</ele>
        <time>2011-04-20T14:20:59Z</time>
      </trkpt>
      <trkpt lat="31.929435878992081" lon="-3.611224880442023">
        <ele>956.16845703125</ele>
        <time>2011-04-20T14:21:05Z</time>
      </trkpt>
      <trkpt lat="31.929250555112958" lon="-3.611456388607621">
        <ele>956.649169921875</ele>
        <time>2011-04-20T14:21:12Z</time>
      </trkpt>
      <trkpt lat="31.929122395813465" lon="-3.61145144328475">
        <ele>967.7041015625</ele>
        <time>2011-04-20T14:22:59Z</time>
      </trkpt>
      <trkpt lat="31.928981579840183" lon="-3.611392853781581">
        <ele>968.184814453125</ele>
        <time>2011-04-20T14:23:08Z</time>
      </trkpt>
      <trkpt lat="31.928781671449542" lon="-3.611451694741845">
        <ele>936.46142578125</ele>
        <time>2011-04-20T14:25:08Z</time>
      </trkpt>
      <trkpt lat="31.928710341453552" lon="-3.611744223162532">
        <ele>926.848388671875</ele>
        <time>2011-04-20T14:25:18Z</time>
      </trkpt>
      <trkpt lat="31.928572794422507" lon="-3.612173292785883">
        <ele>922.522216796875</ele>
        <time>2011-04-20T14:25:28Z</time>
      </trkpt>
      <trkpt lat="31.928089577704668" lon="-3.612900171428919">
        <ele>906.1796875</ele>
        <time>2011-04-20T14:25:41Z</time>
      </trkpt>
      <trkpt lat="31.927705770358443" lon="-3.613440720364451">
        <ele>893.682861328125</ele>
        <time>2011-04-20T14:25:50Z</time>
      </trkpt>
      <trkpt lat="31.927536288276315" lon="-3.613699888810515">
        <ele>889.83740234375</ele>
        <time>2011-04-20T14:25:54Z</time>
      </trkpt>
      <trkpt lat="31.927362028509378" lon="-3.614326268434525">
        <ele>894.64404296875</ele>
        <time>2011-04-20T14:26:04Z</time>
      </trkpt>
      <trkpt lat="31.927254153415561" lon="-3.61482298001647">
        <ele>902.33447265625</ele>
        <time>2011-04-20T14:26:11Z</time>
      </trkpt>
      <trkpt lat="31.927049132063985" lon="-3.615819588303566">
        <ele>908.102783203125</ele>
        <time>2011-04-20T14:26:23Z</time>
      </trkpt>
      <trkpt lat="31.926932036876678" lon="-3.616368686780334">
        <ele>909.544677734375</ele>
        <time>2011-04-20T14:26:30Z</time>
      </trkpt>
      <trkpt lat="31.926639676094055" lon="-3.616976123303175">
        <ele>907.621826171875</ele>
        <time>2011-04-20T14:26:39Z</time>
      </trkpt>
      <trkpt lat="31.926502883434296" lon="-3.617187850177288">
        <ele>905.69921875</ele>
        <time>2011-04-20T14:26:43Z</time>
      </trkpt>
      <trkpt lat="31.926443539559841" lon="-3.617614824324846">
        <ele>909.06396484375</ele>
        <time>2011-04-20T14:26:50Z</time>
      </trkpt>
      <trkpt lat="31.926307836547494" lon="-3.617781875655055">
        <ele>908.583251953125</ele>
        <time>2011-04-20T14:26:55Z</time>
      </trkpt>
      <trkpt lat="31.926097450777888" lon="-3.617703253403306">
        <ele>907.14111328125</ele>
        <time>2011-04-20T14:27:00Z</time>
      </trkpt>
      <trkpt lat="31.925925370305777" lon="-3.617896120995283">
        <ele>905.69921875</ele>
        <time>2011-04-20T14:27:06Z</time>
      </trkpt>
      <trkpt lat="31.925369231030345" lon="-3.618684690445662">
        <ele>901.373291015625</ele>
        <time>2011-04-20T14:27:20Z</time>
      </trkpt>
      <trkpt lat="31.924983998760581" lon="-3.619257090613246">
        <ele>898.4892578125</ele>
        <time>2011-04-20T14:27:31Z</time>
      </trkpt>
      <trkpt lat="31.924864137545228" lon="-3.619483150541782">
        <ele>897.528076171875</ele>
        <time>2011-04-20T14:27:35Z</time>
      </trkpt>
      <trkpt lat="31.92469222471118" lon="-3.619699571281672">
        <ele>897.04736328125</ele>
        <time>2011-04-20T14:27:39Z</time>
      </trkpt>
      <trkpt lat="31.92408537492156" lon="-3.6206029728055">
        <ele>896.086181640625</ele>
        <time>2011-04-20T14:27:50Z</time>
      </trkpt>
      <trkpt lat="31.923722773790359" lon="-3.620902458205819">
        <ele>894.16357421875</ele>
        <time>2011-04-20T14:27:57Z</time>
      </trkpt>
      <trkpt lat="31.923491936177015" lon="-3.621102785691619">
        <ele>892.7216796875</ele>
        <time>2011-04-20T14:28:04Z</time>
      </trkpt>
      <trkpt lat="31.923373751342297" lon="-3.621412999927998">
        <ele>895.60546875</ele>
        <time>2011-04-20T14:28:09Z</time>
      </trkpt>
      <trkpt lat="31.923361932858825" lon="-3.621565131470561">
        <ele>897.04736328125</ele>
        <time>2011-04-20T14:28:11Z</time>
      </trkpt>
      <trkpt lat="31.923279371112585" lon="-3.62180644646287">
        <ele>896.56689453125</ele>
        <time>2011-04-20T14:28:15Z</time>
      </trkpt>
      <trkpt lat="31.923007881268859" lon="-3.622182542458177">
        <ele>892.240966796875</ele>
        <time>2011-04-20T14:28:23Z</time>
      </trkpt>
      <trkpt lat="31.922919871285558" lon="-3.622547322884202">
        <ele>895.124755859375</ele>
        <time>2011-04-20T14:28:29Z</time>
      </trkpt>
      <trkpt lat="31.922953566536307" lon="-3.622738933190703">
        <ele>898.0087890625</ele>
        <time>2011-04-20T14:28:32Z</time>
      </trkpt>
      <trkpt lat="31.922836387529969" lon="-3.623130954802036">
        <ele>899.931396484375</ele>
        <time>2011-04-20T14:28:39Z</time>
      </trkpt>
      <trkpt lat="31.922727255150676" lon="-3.623197339475155">
        <ele>897.528076171875</ele>
        <time>2011-04-20T14:28:42Z</time>
      </trkpt>
      <trkpt lat="31.92225594073534" lon="-3.62341845408082">
        <ele>892.240966796875</ele>
        <time>2011-04-20T14:28:52Z</time>
      </trkpt>
      <trkpt lat="31.922013284638524" lon="-3.623654320836067">
        <ele>891.760009765625</ele>
        <time>2011-04-20T14:28:57Z</time>
      </trkpt>
      <trkpt lat="31.921793427318335" lon="-3.623920446261764">
        <ele>890.318115234375</ele>
        <time>2011-04-20T14:29:02Z</time>
      </trkpt>
      <trkpt lat="31.92168764770031" lon="-3.623996218666434">
        <ele>890.318115234375</ele>
        <time>2011-04-20T14:29:04Z</time>
      </trkpt>
      <trkpt lat="31.921534091234207" lon="-3.624199395999312">
        <ele>889.356689453125</ele>
        <time>2011-04-20T14:29:08Z</time>
      </trkpt>
      <trkpt lat="31.921284981071949" lon="-3.624626537784934">
        <ele>886.953369140625</ele>
        <time>2011-04-20T14:29:16Z</time>
      </trkpt>
      <trkpt lat="31.921095130965114" lon="-3.624763498082757">
        <ele>887.43408203125</ele>
        <time>2011-04-20T14:29:20Z</time>
      </trkpt>
      <trkpt lat="31.92051887512207" lon="-3.624993497505784">
        <ele>885.9921875</ele>
        <time>2011-04-20T14:29:30Z</time>
      </trkpt>
      <trkpt lat="31.920240260660648" lon="-3.625188376754522">
        <ele>885.511474609375</ele>
        <time>2011-04-20T14:29:35Z</time>
      </trkpt>
      <trkpt lat="31.919590495526791" lon="-3.625377221032977">
        <ele>885.9921875</ele>
        <time>2011-04-20T14:29:45Z</time>
      </trkpt>
      <trkpt lat="31.918588690459728" lon="-3.625573273748159">
        <ele>889.83740234375</ele>
        <time>2011-04-20T14:29:57Z</time>
      </trkpt>
      <trkpt lat="31.918087368831038" lon="-3.625765722244978">
        <ele>892.7216796875</ele>
        <time>2011-04-20T14:30:05Z</time>
      </trkpt>
      <trkpt lat="31.91787782125175" lon="-3.625950459390879">
        <ele>894.16357421875</ele>
        <time>2011-04-20T14:30:13Z</time>
      </trkpt>
      <trkpt lat="31.917944876477122" lon="-3.625867981463671">
        <ele>885.511474609375</ele>
        <time>2011-04-20T14:30:42Z</time>
      </trkpt>
      <trkpt lat="31.917901877313852" lon="-3.626238545402885">
        <ele>885.511474609375</ele>
        <time>2011-04-20T14:30:54Z</time>
      </trkpt>
      <trkpt lat="31.917978571727872" lon="-3.6265969555825">
        <ele>894.16357421875</ele>
        <time>2011-04-20T14:31:04Z</time>
      </trkpt>
      <trkpt lat="31.918099271133542" lon="-3.626882694661617">
        <ele>905.218505859375</ele>
        <time>2011-04-20T14:31:13Z</time>
      </trkpt>
      <trkpt lat="31.918148724362254" lon="-3.626986630260944">
        <ele>912.428466796875</ele>
        <time>2011-04-20T14:31:15Z</time>
      </trkpt>
      <trkpt lat="31.918188789859414" lon="-3.627385944128037">
        <ele>921.560791015625</ele>
        <time>2011-04-20T14:31:22Z</time>
      </trkpt>
      <trkpt lat="31.918029533699155" lon="-3.627678472548723">
        <ele>924.92578125</ele>
        <time>2011-04-20T14:31:27Z</time>
      </trkpt>
      <trkpt lat="31.917290752753615" lon="-3.628507358953357">
        <ele>936.94189453125</ele>
        <time>2011-04-20T14:31:40Z</time>
      </trkpt>
      <trkpt lat="31.916724890470505" lon="-3.629188891500235">
        <ele>944.152099609375</ele>
        <time>2011-04-20T14:31:48Z</time>
      </trkpt>
      <trkpt lat="31.91644225269556" lon="-3.629385447129607">
        <ele>947.035888671875</ele>
        <time>2011-04-20T14:31:52Z</time>
      </trkpt>
      <trkpt lat="31.91591645590961" lon="-3.629494495689869">
        <ele>948.477783203125</ele>
        <time>2011-04-20T14:32:01Z</time>
      </trkpt>
      <trkpt lat="31.91552703268826" lon="-3.629495585337281">
        <ele>948.95849609375</ele>
        <time>2011-04-20T14:32:10Z</time>
      </trkpt>
      <trkpt lat="31.915234755724669" lon="-3.6295101698488">
        <ele>948.95849609375</ele>
        <time>2011-04-20T14:32:16Z</time>
      </trkpt>
      <trkpt lat="31.914906771853566" lon="-3.629807392135263">
        <ele>954.245849609375</ele>
        <time>2011-04-20T14:32:22Z</time>
      </trkpt>
      <trkpt lat="31.914866287261248" lon="-3.629990955814719">
        <ele>957.1298828125</ele>
        <time>2011-04-20T14:32:24Z</time>
      </trkpt>
      <trkpt lat="31.914756651967764" lon="-3.630385240539908">
        <ele>962.4169921875</ele>
        <time>2011-04-20T14:32:29Z</time>
      </trkpt>
      <trkpt lat="31.914336550980806" lon="-3.630843395367265">
        <ele>962.4169921875</ele>
        <time>2011-04-20T14:32:36Z</time>
      </trkpt>
      <trkpt lat="31.913752080872655" lon="-3.631337592378259">
        <ele>969.626953125</ele>
        <time>2011-04-20T14:32:46Z</time>
      </trkpt>
      <trkpt lat="31.913384450599551" lon="-3.631547642871738">
        <ele>973.952880859375</ele>
        <time>2011-04-20T14:32:53Z</time>
      </trkpt>
      <trkpt lat="31.913037691265345" lon="-3.631777642294765">
        <ele>978.759521484375</ele>
        <time>2011-04-20T14:33:03Z</time>
      </trkpt>
      <trkpt lat="31.912767793983221" lon="-3.632049048319459">
        <ele>983.56591796875</ele>
        <time>2011-04-20T14:33:14Z</time>
      </trkpt>
      <trkpt lat="31.912397732958198" lon="-3.632409553974867">
        <ele>989.333984375</ele>
        <time>2011-04-20T14:33:29Z</time>
      </trkpt>
      <trkpt lat="31.912270495668054" lon="-3.632556740194559">
        <ele>992.218017578125</ele>
        <time>2011-04-20T14:33:39Z</time>
      </trkpt>
      <trkpt lat="31.912122722715139" lon="-3.632690934464335">
        <ele>995.101806640625</ele>
        <time>2011-04-20T14:33:49Z</time>
      </trkpt>
      <trkpt lat="31.911763641983271" lon="-3.633034089580178">
        <ele>998.46630859375</ele>
        <time>2011-04-20T14:34:02Z</time>
      </trkpt>
      <trkpt lat="31.91160773858428" lon="-3.633324773982167">
        <ele>1000.38916015625</ele>
        <time>2011-04-20T14:34:10Z</time>
      </trkpt>
      <trkpt lat="31.911497851833701" lon="-3.63368209451437">
        <ele>1002.3115234375</ele>
        <time>2011-04-20T14:34:20Z</time>
      </trkpt>
      <trkpt lat="31.911368435248733" lon="-3.634053077548742">
        <ele>1002.3115234375</ele>
        <time>2011-04-20T14:34:31Z</time>
      </trkpt>
      <trkpt lat="31.911269528791308" lon="-3.634525733068585">
        <ele>1009.041015625</ele>
        <time>2011-04-20T14:34:42Z</time>
      </trkpt>
      <trkpt lat="31.911240946501493" lon="-3.634805269539356">
        <ele>1012.88623046875</ele>
        <time>2011-04-20T14:34:49Z</time>
      </trkpt>
      <trkpt lat="31.911128461360931" lon="-3.635084470734">
        <ele>1014.328125</ele>
        <time>2011-04-20T14:34:54Z</time>
      </trkpt>
      <trkpt lat="31.910927630960941" lon="-3.635387057438493">
        <ele>1014.808837890625</ele>
        <time>2011-04-20T14:35:00Z</time>
      </trkpt>
      <trkpt lat="31.910694027319551" lon="-3.635879997164011">
        <ele>1013.847412109375</ele>
        <time>2011-04-20T14:35:09Z</time>
      </trkpt>
      <trkpt lat="31.910596545785666" lon="-3.636114522814751">
        <ele>1013.366943359375</ele>
        <time>2011-04-20T14:35:13Z</time>
      </trkpt>
      <trkpt lat="31.910461680963635" lon="-3.636264391243458">
        <ele>1012.88623046875</ele>
        <time>2011-04-20T14:35:17Z</time>
      </trkpt>
      <trkpt lat="31.909993970766664" lon="-3.636640571057797">
        <ele>1012.405517578125</ele>
        <time>2011-04-20T14:35:25Z</time>
      </trkpt>
      <trkpt lat="31.909374045208097" lon="-3.637351775541902">
        <ele>1010.963623046875</ele>
        <time>2011-04-20T14:35:35Z</time>
      </trkpt>
      <trkpt lat="31.90882159397006" lon="-3.638033391907811">
        <ele>1010.002197265625</ele>
        <time>2011-04-20T14:35:45Z</time>
      </trkpt>
      <trkpt lat="31.9083964638412" lon="-3.638667734339833">
        <ele>1010.963623046875</ele>
        <time>2011-04-20T14:35:53Z</time>
      </trkpt>
      <trkpt lat="31.907778298482299" lon="-3.639327390119433">
        <ele>1013.366943359375</ele>
        <time>2011-04-20T14:36:04Z</time>
      </trkpt>
      <trkpt lat="31.90729315392673" lon="-3.639952763915062">
        <ele>1015.770263671875</ele>
        <time>2011-04-20T14:36:12Z</time>
      </trkpt>
      <trkpt lat="31.906709522008896" lon="-3.640678217634559">
        <ele>1019.134765625</ele>
        <time>2011-04-20T14:36:22Z</time>
      </trkpt>
      <trkpt lat="31.905834786593914" lon="-3.641511043533683">
        <ele>1017.212158203125</ele>
        <time>2011-04-20T14:36:34Z</time>
      </trkpt>
      <trkpt lat="31.904950328171253" lon="-3.642099117860198">
        <ele>1015.28955078125</ele>
        <time>2011-04-20T14:36:45Z</time>
      </trkpt>
      <trkpt lat="31.904151365160942" lon="-3.64243246614933">
        <ele>1015.28955078125</ele>
        <time>2011-04-20T14:36:54Z</time>
      </trkpt>
      <trkpt lat="31.903833523392677" lon="-3.642553668469191">
        <ele>1016.250732421875</ele>
        <time>2011-04-20T14:36:58Z</time>
      </trkpt>
      <trkpt lat="31.903621880337596" lon="-3.642596248537302">
        <ele>1016.7314453125</ele>
        <time>2011-04-20T14:37:01Z</time>
      </trkpt>
      <trkpt lat="31.903356174007058" lon="-3.642689539119601">
        <ele>1015.770263671875</ele>
        <time>2011-04-20T14:37:06Z</time>
      </trkpt>
      <trkpt lat="31.902629295364022" lon="-3.643158422783017">
        <ele>1013.847412109375</ele>
        <time>2011-04-20T14:37:16Z</time>
      </trkpt>
      <trkpt lat="31.901998054236174" lon="-3.643308039754629">
        <ele>1013.366943359375</ele>
        <time>2011-04-20T14:37:25Z</time>
      </trkpt>
      <trkpt lat="31.901894453912973" lon="-3.643347267061472">
        <ele>1012.88623046875</ele>
        <time>2011-04-20T14:37:27Z</time>
      </trkpt>
      <trkpt lat="31.901720026507974" lon="-3.643455980345607">
        <ele>1013.366943359375</ele>
        <time>2011-04-20T14:37:31Z</time>
      </trkpt>
      <trkpt lat="31.90155565738678" lon="-3.643540889024735">
        <ele>1013.847412109375</ele>
        <time>2011-04-20T14:37:34Z</time>
      </trkpt>
      <trkpt lat="31.900777481496334" lon="-3.643891923129559">
        <ele>1015.770263671875</ele>
        <time>2011-04-20T14:37:44Z</time>
      </trkpt>
      <trkpt lat="31.900100726634264" lon="-3.644104236736894">
        <ele>1016.7314453125</ele>
        <time>2011-04-20T14:37:53Z</time>
      </trkpt>
      <trkpt lat="31.899339985102415" lon="-3.644489720463753">
        <ele>1018.17333984375</ele>
        <time>2011-04-20T14:38:04Z</time>
      </trkpt>
      <trkpt lat="31.898725926876068" lon="-3.644999759271741">
        <ele>1019.134765625</ele>
        <time>2011-04-20T14:38:13Z</time>
      </trkpt>
      <trkpt lat="31.898436583578587" lon="-3.645198158919811">
        <ele>1019.134765625</ele>
        <time>2011-04-20T14:38:17Z</time>
      </trkpt>
      <trkpt lat="31.897889664396644" lon="-3.645931156352162">
        <ele>1016.7314453125</ele>
        <time>2011-04-20T14:38:26Z</time>
      </trkpt>
      <trkpt lat="31.897149123251438" lon="-3.64667035639286">
        <ele>1014.808837890625</ele>
        <time>2011-04-20T14:38:37Z</time>
      </trkpt>
      <trkpt lat="31.896571777760983" lon="-3.647378459572792">
        <ele>1013.366943359375</ele>
        <time>2011-04-20T14:38:46Z</time>
      </trkpt>
      <trkpt lat="31.895953025668859" lon="-3.647972736507654">
        <ele>1012.405517578125</ele>
        <time>2011-04-20T14:38:54Z</time>
      </trkpt>
      <trkpt lat="31.895604589954019" lon="-3.648302229121327">
        <ele>1012.405517578125</ele>
        <time>2011-04-20T14:38:59Z</time>
      </trkpt>
      <trkpt lat="31.895218770951033" lon="-3.648484870791435">
        <ele>1010.963623046875</ele>
        <time>2011-04-20T14:39:05Z</time>
      </trkpt>
      <trkpt lat="31.894900426268578" lon="-3.648699698969722">
        <ele>1010.963623046875</ele>
        <time>2011-04-20T14:39:10Z</time>
      </trkpt>
      <trkpt lat="31.894052680581808" lon="-3.648998094722629">
        <ele>1013.847412109375</ele>
        <time>2011-04-20T14:39:20Z</time>
      </trkpt>
      <trkpt lat="31.893306439742446" lon="-3.649418447166681">
        <ele>1015.770263671875</ele>
        <time>2011-04-20T14:39:29Z</time>
      </trkpt>
      <trkpt lat="31.892604874446988" lon="-3.649893030524254">
        <ele>1018.17333984375</ele>
        <time>2011-04-20T14:39:38Z</time>
      </trkpt>
      <trkpt lat="31.891529140993953" lon="-3.650613790377975">
        <ele>1022.49951171875</ele>
        <time>2011-04-20T14:39:52Z</time>
      </trkpt>
      <trkpt lat="31.890862360596657" lon="-3.650793163105846">
        <ele>1024.422119140625</ele>
        <time>2011-04-20T14:40:00Z</time>
      </trkpt>
      <trkpt lat="31.889852089807391" lon="-3.650983683764935">
        <ele>1027.30615234375</ele>
        <time>2011-04-20T14:40:11Z</time>
      </trkpt>
      <trkpt lat="31.8889778573066" lon="-3.650972116738558">
        <ele>1026.3447265625</ele>
        <time>2011-04-20T14:40:20Z</time>
      </trkpt>
      <trkpt lat="31.888108737766743" lon="-3.651001621037722">
        <ele>1024.90283203125</ele>
        <time>2011-04-20T14:40:29Z</time>
      </trkpt>
      <trkpt lat="31.887196535244584" lon="-3.651150483638048">
        <ele>1021.5380859375</ele>
        <time>2011-04-20T14:40:39Z</time>
      </trkpt>
      <trkpt lat="31.8868503626436" lon="-3.651157943531871">
        <ele>1023.94140625</ele>
        <time>2011-04-20T14:40:43Z</time>
      </trkpt>
      <trkpt lat="31.886500418186188" lon="-3.651186861097813">
        <ele>1023.4609375</ele>
        <time>2011-04-20T14:40:47Z</time>
      </trkpt>
      <trkpt lat="31.88618584536016" lon="-3.651106143370271">
        <ele>1024.422119140625</ele>
        <time>2011-04-20T14:40:51Z</time>
      </trkpt>
      <trkpt lat="31.885794997215271" lon="-3.651096923276782">
        <ele>1026.825439453125</ele>
        <time>2011-04-20T14:40:56Z</time>
      </trkpt>
      <trkpt lat="31.88466913998127" lon="-3.651282750070095">
        <ele>1023.94140625</ele>
        <time>2011-04-20T14:41:09Z</time>
      </trkpt>
      <trkpt lat="31.883810833096504" lon="-3.651358941569924">
        <ele>1021.0576171875</ele>
        <time>2011-04-20T14:41:18Z</time>
      </trkpt>
      <trkpt lat="31.883387546986341" lon="-3.651575949043036">
        <ele>1019.615478515625</ele>
        <time>2011-04-20T14:41:23Z</time>
      </trkpt>
      <trkpt lat="31.88234768807888" lon="-3.652333421632648">
        <ele>1018.17333984375</ele>
        <time>2011-04-20T14:41:35Z</time>
      </trkpt>
      <trkpt lat="31.882175272330642" lon="-3.652472225949168">
        <ele>1018.17333984375</ele>
        <time>2011-04-20T14:41:37Z</time>
      </trkpt>
      <trkpt lat="31.88136356882751" lon="-3.652795264497399">
        <ele>1018.17333984375</ele>
        <time>2011-04-20T14:41:45Z</time>
      </trkpt>
      <trkpt lat="31.879944177344441" lon="-3.653337992727757">
        <ele>1019.134765625</ele>
        <time>2011-04-20T14:41:58Z</time>
      </trkpt>
      <trkpt lat="31.878431746736169" lon="-3.654135363176465">
        <ele>1017.692626953125</ele>
        <time>2011-04-20T14:42:12Z</time>
      </trkpt>
      <trkpt lat="31.87717747874558" lon="-3.654821421951056">
        <ele>1014.808837890625</ele>
        <time>2011-04-20T14:42:26Z</time>
      </trkpt>
      <trkpt lat="31.875573769211769" lon="-3.65567134693265">
        <ele>1012.405517578125</ele>
        <time>2011-04-20T14:42:43Z</time>
      </trkpt>
      <trkpt lat="31.873982464894652" lon="-3.656490426510572">
        <ele>1014.808837890625</ele>
        <time>2011-04-20T14:42:58Z</time>
      </trkpt>
      <trkpt lat="31.872489396482706" lon="-3.657192159444094">
        <ele>1019.615478515625</ele>
        <time>2011-04-20T14:43:11Z</time>
      </trkpt>
      <trkpt lat="31.870907563716173" lon="-3.658040072768927">
        <ele>1022.980224609375</ele>
        <time>2011-04-20T14:43:24Z</time>
      </trkpt>
      <trkpt lat="31.869237637147307" lon="-3.658805591985583">
        <ele>1027.30615234375</ele>
        <time>2011-04-20T14:43:38Z</time>
      </trkpt>
      <trkpt lat="31.867180718109012" lon="-3.659767834469676">
        <ele>1032.59326171875</ele>
        <time>2011-04-20T14:43:55Z</time>
      </trkpt>
      <trkpt lat="31.865607937797904" lon="-3.660514829680324">
        <ele>1036.438720703125</ele>
        <time>2011-04-20T14:44:07Z</time>
      </trkpt>
      <trkpt lat="31.864374792203307" lon="-3.661169288679957">
        <ele>1039.322509765625</ele>
        <time>2011-04-20T14:44:17Z</time>
      </trkpt>
      <trkpt lat="31.863766936585307" lon="-3.66146257147193">
        <ele>1039.322509765625</ele>
        <time>2011-04-20T14:44:24Z</time>
      </trkpt>
      <trkpt lat="31.86327843926847" lon="-3.661688379943371">
        <ele>1040.764404296875</ele>
        <time>2011-04-20T14:44:31Z</time>
      </trkpt>
      <trkpt lat="31.862641666084528" lon="-3.661779658868909">
        <ele>1044.129150390625</ele>
        <time>2011-04-20T14:44:39Z</time>
      </trkpt>
      <trkpt lat="31.861899197101593" lon="-3.662131782621145">
        <ele>1045.571044921875</ele>
        <time>2011-04-20T14:44:48Z</time>
      </trkpt>
      <trkpt lat="31.860407888889313" lon="-3.662866456434131">
        <ele>1049.416259765625</ele>
        <time>2011-04-20T14:45:04Z</time>
      </trkpt>
      <trkpt lat="31.859286976978183" lon="-3.663587383925915">
        <ele>1050.858154296875</ele>
        <time>2011-04-20T14:45:16Z</time>
      </trkpt>
      <trkpt lat="31.858423054218292" lon="-3.66394973360002">
        <ele>1052.30029296875</ele>
        <time>2011-04-20T14:45:25Z</time>
      </trkpt>
      <trkpt lat="31.857711430639029" lon="-3.664362290874124">
        <ele>1053.742431640625</ele>
        <time>2011-04-20T14:45:34Z</time>
      </trkpt>
      <trkpt lat="31.857292922213674" lon="-3.664516936987639">
        <ele>1055.184326171875</ele>
        <time>2011-04-20T14:45:40Z</time>
      </trkpt>
      <trkpt lat="31.857003578916192" lon="-3.664708966389298">
        <ele>1055.6650390625</ele>
        <time>2011-04-20T14:45:45Z</time>
      </trkpt>
      <trkpt lat="31.856554057449102" lon="-3.664834192022681">
        <ele>1057.10693359375</ele>
        <time>2011-04-20T14:45:52Z</time>
      </trkpt>
      <trkpt lat="31.85571645386517" lon="-3.665280528366566">
        <ele>1059.99072265625</ele>
        <time>2011-04-20T14:46:03Z</time>
      </trkpt>
      <trkpt lat="31.855406239628792" lon="-3.665617564693093">
        <ele>1060.471435546875</ele>
        <time>2011-04-20T14:46:08Z</time>
      </trkpt>
      <trkpt lat="31.85516525991261" lon="-3.666011849418283">
        <ele>1060.9521484375</ele>
        <time>2011-04-20T14:46:13Z</time>
      </trkpt>
      <trkpt lat="31.854633260518312" lon="-3.6668467707932">
        <ele>1061.91357421875</ele>
        <time>2011-04-20T14:46:23Z</time>
      </trkpt>
      <trkpt lat="31.85456813313067" lon="-3.666997477412224">
        <ele>1063.35546875</ele>
        <time>2011-04-20T14:46:25Z</time>
      </trkpt>
      <trkpt lat="31.854275520890951" lon="-3.66724893450737">
        <ele>1061.91357421875</ele>
        <time>2011-04-20T14:46:32Z</time>
      </trkpt>
      <trkpt lat="31.853957679122686" lon="-3.667262177914381">
        <ele>1059.99072265625</ele>
        <time>2011-04-20T14:46:43Z</time>
      </trkpt>
      <trkpt lat="31.853594994172454" lon="-3.667259998619556">
        <ele>1063.8359375</ele>
        <time>2011-04-20T14:46:53Z</time>
      </trkpt>
      <trkpt lat="31.853129882365465" lon="-3.667366448789835">
        <ele>1064.79736328125</ele>
        <time>2011-04-20T14:47:03Z</time>
      </trkpt>
      <trkpt lat="31.852575754746795" lon="-3.667553868144751">
        <ele>1066.2392578125</ele>
        <time>2011-04-20T14:47:12Z</time>
      </trkpt>
      <trkpt lat="31.851763967424631" lon="-3.667924096807838">
        <ele>1067.68115234375</ele>
        <time>2011-04-20T14:47:23Z</time>
      </trkpt>
      <trkpt lat="31.851231884211302" lon="-3.668228946626186">
        <ele>1068.642822265625</ele>
        <time>2011-04-20T14:47:30Z</time>
      </trkpt>
      <trkpt lat="31.850821673870087" lon="-3.668358949944377">
        <ele>1070.084716796875</ele>
        <time>2011-04-20T14:47:35Z</time>
      </trkpt>
      <trkpt lat="31.850371984764934" lon="-3.668625326827169">
        <ele>1071.526611328125</ele>
        <time>2011-04-20T14:47:41Z</time>
      </trkpt>
      <trkpt lat="31.849849121645093" lon="-3.668814422562718">
        <ele>1072.488037109375</ele>
        <time>2011-04-20T14:47:48Z</time>
      </trkpt>
      <trkpt lat="31.849380573257804" lon="-3.669062778353691">
        <ele>1074.41064453125</ele>
        <time>2011-04-20T14:47:56Z</time>
      </trkpt>
      <trkpt lat="31.848532659932971" lon="-3.669346924871206">
        <ele>1087.388427734375</ele>
        <time>2011-04-20T14:48:07Z</time>
      </trkpt>
      <trkpt lat="31.847732188180089" lon="-3.669645069167018">
        <ele>1105.1728515625</ele>
        <time>2011-04-20T14:48:18Z</time>
      </trkpt>
      <trkpt lat="31.846869690343738" lon="-3.669987637549639">
        <ele>1116.22802734375</ele>
        <time>2011-04-20T14:48:29Z</time>
      </trkpt>
      <trkpt lat="31.8460479285568" lon="-3.670336324721575">
        <ele>1125.841064453125</ele>
        <time>2011-04-20T14:48:40Z</time>
      </trkpt>
      <trkpt lat="31.845510983839631" lon="-3.670562384650111">
        <ele>1131.12841796875</ele>
        <time>2011-04-20T14:48:49Z</time>
      </trkpt>
      <trkpt lat="31.845355583354831" lon="-3.670616447925568">
        <ele>1132.570556640625</ele>
        <time>2011-04-20T14:48:52Z</time>
      </trkpt>
      <trkpt lat="31.845089541748166" lon="-3.670668667182326">
        <ele>1134.973876953125</ele>
        <time>2011-04-20T14:48:56Z</time>
      </trkpt>
      <trkpt lat="31.844344642013311" lon="-3.671012995764613">
        <ele>1140.741455078125</ele>
        <time>2011-04-20T14:49:06Z</time>
      </trkpt>
      <trkpt lat="31.843939376994967" lon="-3.671216927468777">
        <ele>1141.702880859375</ele>
        <time>2011-04-20T14:49:11Z</time>
      </trkpt>
      <trkpt lat="31.843268740922213" lon="-3.671368891373277">
        <ele>1141.702880859375</ele>
        <time>2011-04-20T14:49:20Z</time>
      </trkpt>
      <trkpt lat="31.842008689418435" lon="-3.671719254925847">
        <ele>1139.299560546875</ele>
        <time>2011-04-20T14:49:37Z</time>
      </trkpt>
      <trkpt lat="31.840805718675256" lon="-3.672143965959549">
        <ele>1148.43212890625</ele>
        <time>2011-04-20T14:49:52Z</time>
      </trkpt>
      <trkpt lat="31.839607022702694" lon="-3.6726731993258">
        <ele>1150.83544921875</ele>
        <time>2011-04-20T14:50:08Z</time>
      </trkpt>
      <trkpt lat="31.838594488799572" lon="-3.672924740239978">
        <ele>1153.719482421875</ele>
        <time>2011-04-20T14:50:21Z</time>
      </trkpt>
      <trkpt lat="31.838009851053357" lon="-3.673092965036631">
        <ele>1155.161376953125</ele>
        <time>2011-04-20T14:50:30Z</time>
      </trkpt>
      <trkpt lat="31.837818827480078" lon="-3.67311391979456">
        <ele>1156.603271484375</ele>
        <time>2011-04-20T14:51:17Z</time>
      </trkpt>
      <trkpt lat="31.837631743401289" lon="-3.673158595338464">
        <ele>1155.161376953125</ele>
        <time>2011-04-20T14:51:21Z</time>
      </trkpt>
      <trkpt lat="31.837466033175588" lon="-3.67322045378387">
        <ele>1155.161376953125</ele>
        <time>2011-04-20T14:51:24Z</time>
      </trkpt>
      <trkpt lat="31.836756840348244" lon="-3.673266721889377">
        <ele>1152.758056640625</ele>
        <time>2011-04-20T14:51:35Z</time>
      </trkpt>
      <trkpt lat="31.836539665237069" lon="-3.673291364684701">
        <ele>1152.27734375</ele>
        <time>2011-04-20T14:51:38Z</time>
      </trkpt>
      <trkpt lat="31.836212771013379" lon="-3.673177286982536">
        <ele>1158.52587890625</ele>
        <time>2011-04-20T14:51:43Z</time>
      </trkpt>
      <trkpt lat="31.83589618653059" lon="-3.673013253137469">
        <ele>1161.409912109375</ele>
        <time>2011-04-20T14:51:48Z</time>
      </trkpt>
      <trkpt lat="31.83534893207252" lon="-3.672638749703765">
        <ele>1165.736083984375</ele>
        <time>2011-04-20T14:51:56Z</time>
      </trkpt>
      <trkpt lat="31.834938051179051" lon="-3.672321243211627">
        <ele>1170.54248046875</ele>
        <time>2011-04-20T14:52:02Z</time>
      </trkpt>
      <trkpt lat="31.834696233272552" lon="-3.671975824981928">
        <ele>1168.13916015625</ele>
        <time>2011-04-20T14:52:07Z</time>
      </trkpt>
      <trkpt lat="31.834586430341005" lon="-3.671727133914828">
        <ele>1168.13916015625</ele>
        <time>2011-04-20T14:52:10Z</time>
      </trkpt>
      <trkpt lat="31.83427101932466" lon="-3.671395042911172">
        <ele>1166.697265625</ele>
        <time>2011-04-20T14:52:16Z</time>
      </trkpt>
      <trkpt lat="31.833969773724675" lon="-3.67126889526844">
        <ele>1167.658447265625</ele>
        <time>2011-04-20T14:52:20Z</time>
      </trkpt>
      <trkpt lat="31.833676490932703" lon="-3.671206030994654">
        <ele>1167.177978515625</ele>
        <time>2011-04-20T14:52:24Z</time>
      </trkpt>
      <trkpt lat="31.833408437669277" lon="-3.671076446771622">
        <ele>1169.1005859375</ele>
        <time>2011-04-20T14:52:28Z</time>
      </trkpt>
      <trkpt lat="31.832974841818213" lon="-3.670747540891171">
        <ele>1171.984375</ele>
        <time>2011-04-20T14:52:34Z</time>
      </trkpt>
      <trkpt lat="31.832719948142767" lon="-3.670417042449117">
        <ele>1171.503662109375</ele>
        <time>2011-04-20T14:52:39Z</time>
      </trkpt>
      <trkpt lat="31.832319041714072" lon="-3.670177320018411">
        <ele>1171.023193359375</ele>
        <time>2011-04-20T14:52:46Z</time>
      </trkpt>
      <trkpt lat="31.831857785582542" lon="-3.670212188735604">
        <ele>1173.426513671875</ele>
        <time>2011-04-20T14:52:53Z</time>
      </trkpt>
      <trkpt lat="31.831664834171534" lon="-3.670168267562985">
        <ele>1175.82958984375</ele>
        <time>2011-04-20T14:52:56Z</time>
      </trkpt>
      <trkpt lat="31.831103079020977" lon="-3.670156616717577">
        <ele>1173.906982421875</ele>
        <time>2011-04-20T14:53:06Z</time>
      </trkpt>
      <trkpt lat="31.830273857340217" lon="-3.670076653361321">
        <ele>1177.752197265625</ele>
        <time>2011-04-20T14:53:20Z</time>
      </trkpt>
      <trkpt lat="31.829822743311524" lon="-3.669975064694881">
        <ele>1178.713623046875</ele>
        <time>2011-04-20T14:53:28Z</time>
      </trkpt>
      <trkpt lat="31.829360146075487" lon="-3.670093836262822">
        <ele>1180.15576171875</ele>
        <time>2011-04-20T14:53:37Z</time>
      </trkpt>
      <trkpt lat="31.829005591571331" lon="-3.670132728293538">
        <ele>1180.15576171875</ele>
        <time>2011-04-20T14:53:43Z</time>
      </trkpt>
      <trkpt lat="31.828252226114273" lon="-3.670146893709898">
        <ele>1180.15576171875</ele>
        <time>2011-04-20T14:53:54Z</time>
      </trkpt>
      <trkpt lat="31.827480839565396" lon="-3.670134656131268">
        <ele>1180.636474609375</ele>
        <time>2011-04-20T14:54:05Z</time>
      </trkpt>
      <trkpt lat="31.826459253206849" lon="-3.670104229822755">
        <ele>1182.078369140625</ele>
        <time>2011-04-20T14:54:19Z</time>
      </trkpt>
      <trkpt lat="31.826174352318048" lon="-3.669984368607402">
        <ele>1183.03955078125</ele>
        <time>2011-04-20T14:54:23Z</time>
      </trkpt>
      <trkpt lat="31.825776882469654" lon="-3.669554125517607">
        <ele>1179.6748046875</ele>
        <time>2011-04-20T14:54:31Z</time>
      </trkpt>
      <trkpt lat="31.825594073161483" lon="-3.668895056471229">
        <ele>1181.59765625</ele>
        <time>2011-04-20T14:54:40Z</time>
      </trkpt>
      <trkpt lat="31.825564568862319" lon="-3.668477218598127">
        <ele>1180.15576171875</ele>
        <time>2011-04-20T14:54:45Z</time>
      </trkpt>
      <trkpt lat="31.825582087039948" lon="-3.668311592191458">
        <ele>1179.6748046875</ele>
        <time>2011-04-20T14:54:47Z</time>
      </trkpt>
      <trkpt lat="31.825575632974505" lon="-3.668145127594471">
        <ele>1179.194091796875</ele>
        <time>2011-04-20T14:54:49Z</time>
      </trkpt>
      <trkpt lat="31.825607316568494" lon="-3.66780842654407">
        <ele>1178.713623046875</ele>
        <time>2011-04-20T14:54:53Z</time>
      </trkpt>
      <trkpt lat="31.825611423701048" lon="-3.667600220069289">
        <ele>1178.23291015625</ele>
        <time>2011-04-20T14:54:58Z</time>
      </trkpt>
      <trkpt lat="31.825548224151134" lon="-3.66726066917181">
        <ele>1183.520263671875</ele>
        <time>2011-04-20T14:55:06Z</time>
      </trkpt>
      <trkpt lat="31.825534058734775" lon="-3.667086996138096">
        <ele>1184.0009765625</ele>
        <time>2011-04-20T14:55:09Z</time>
      </trkpt>
      <trkpt lat="31.825439846143126" lon="-3.666837047785521">
        <ele>1189.768798828125</ele>
        <time>2011-04-20T14:55:14Z</time>
      </trkpt>
      <trkpt lat="31.825178330764174" lon="-3.666420551016927">
        <ele>1196.498291015625</ele>
        <time>2011-04-20T14:55:23Z</time>
      </trkpt>
      <trkpt lat="31.825032569468021" lon="-3.666282668709755">
        <ele>1197.45947265625</ele>
        <time>2011-04-20T14:55:27Z</time>
      </trkpt>
      <trkpt lat="31.824594866484404" lon="-3.666075551882386">
        <ele>1204.669189453125</ele>
        <time>2011-04-20T14:55:35Z</time>
      </trkpt>
      <trkpt lat="31.824394119903445" lon="-3.665929874405265">
        <ele>1204.188720703125</ele>
        <time>2011-04-20T14:55:39Z</time>
      </trkpt>
      <trkpt lat="31.823909562081099" lon="-3.665789477527142">
        <ele>1207.55322265625</ele>
        <time>2011-04-20T14:55:48Z</time>
      </trkpt>
      <trkpt lat="31.823615273460746" lon="-3.66574589163065">
        <ele>1206.591796875</ele>
        <time>2011-04-20T14:55:54Z</time>
      </trkpt>
      <trkpt lat="31.823392063379288" lon="-3.665630053728819">
        <ele>1205.14990234375</ele>
        <time>2011-04-20T14:56:00Z</time>
      </trkpt>
      <trkpt lat="31.823254516348243" lon="-3.665425032377243">
        <ele>1199.382080078125</ele>
        <time>2011-04-20T14:56:06Z</time>
      </trkpt>
      <trkpt lat="31.823180839419365" lon="-3.66490937769413">
        <ele>1185.923583984375</ele>
        <time>2011-04-20T14:56:17Z</time>
      </trkpt>
      <trkpt lat="31.823204392567277" lon="-3.664743080735207">
        <ele>1185.923583984375</ele>
        <time>2011-04-20T14:56:20Z</time>
      </trkpt>
      <trkpt lat="31.823287457227707" lon="-3.664564294740558">
        <ele>1184.96240234375</ele>
        <time>2011-04-20T14:56:24Z</time>
      </trkpt>
      <trkpt lat="31.823624996468425" lon="-3.664117455482483">
        <ele>1183.520263671875</ele>
        <time>2011-04-20T14:56:34Z</time>
      </trkpt>
      <trkpt lat="31.823968235403299" lon="-3.663693247362971">
        <ele>1183.520263671875</ele>
        <time>2011-04-20T14:56:44Z</time>
      </trkpt>
      <trkpt lat="31.824440890923142" lon="-3.663278426975012">
        <ele>1184.481689453125</ele>
        <time>2011-04-20T14:56:55Z</time>
      </trkpt>
      <trkpt lat="31.824508281424642" lon="-3.663195529952645">
        <ele>1184.481689453125</ele>
        <time>2011-04-20T14:56:57Z</time>
      </trkpt>
      <trkpt lat="31.824445081874728" lon="-3.662966033443809">
        <ele>1186.884765625</ele>
        <time>2011-04-20T14:57:03Z</time>
      </trkpt>
      <trkpt lat="31.824354557320476" lon="-3.662939127534628">
        <ele>1188.326904296875</ele>
        <time>2011-04-20T14:57:05Z</time>
      </trkpt>
      <trkpt lat="31.823907047510147" lon="-3.662962345406413">
        <ele>1190.24951171875</ele>
        <time>2011-04-20T14:57:17Z</time>
      </trkpt>
      <trkpt lat="31.823478061705828" lon="-3.663180358707905">
        <ele>1191.210693359375</ele>
        <time>2011-04-20T14:57:30Z</time>
      </trkpt>
      <trkpt lat="31.823254097253084" lon="-3.663392253220081">
        <ele>1191.69140625</ele>
        <time>2011-04-20T14:57:35Z</time>
      </trkpt>
      <trkpt lat="31.823065839707851" lon="-3.663725098595023">
        <ele>1188.8076171875</ele>
        <time>2011-04-20T14:57:40Z</time>
      </trkpt>
      <trkpt lat="31.822691252455115" lon="-3.664747271686792">
        <ele>1182.55908203125</ele>
        <time>2011-04-20T14:57:52Z</time>
      </trkpt>
      <trkpt lat="31.822295039892197" lon="-3.665492171421647">
        <ele>1181.1171875</ele>
        <time>2011-04-20T14:58:00Z</time>
      </trkpt>
      <trkpt lat="31.821840489283204" lon="-3.666123747825623">
        <ele>1186.884765625</ele>
        <time>2011-04-20T14:58:08Z</time>
      </trkpt>
      <trkpt lat="31.821324918419123" lon="-3.666603276506066">
        <ele>1194.5751953125</ele>
        <time>2011-04-20T14:58:17Z</time>
      </trkpt>
      <trkpt lat="31.820920826867223" lon="-3.666934194043279">
        <ele>1195.055908203125</ele>
        <time>2011-04-20T14:58:25Z</time>
      </trkpt>
      <trkpt lat="31.820381786674261" lon="-3.667250275611877">
        <ele>1197.940185546875</ele>
        <time>2011-04-20T14:58:33Z</time>
      </trkpt>
      <trkpt lat="31.820024130865932" lon="-3.667369550094008">
        <ele>1198.9013671875</ele>
        <time>2011-04-20T14:58:38Z</time>
      </trkpt>
      <trkpt lat="31.81966588832438" lon="-3.667347421869636">
        <ele>1201.785400390625</ele>
        <time>2011-04-20T14:58:43Z</time>
      </trkpt>
      <trkpt lat="31.819537142291665" lon="-3.667309116572142">
        <ele>1203.227294921875</ele>
        <time>2011-04-20T14:58:45Z</time>
      </trkpt>
      <trkpt lat="31.81927596218884" lon="-3.66734717041254">
        <ele>1204.188720703125</ele>
        <time>2011-04-20T14:58:49Z</time>
      </trkpt>
      <trkpt lat="31.818730970844626" lon="-3.667410286143422">
        <ele>1205.14990234375</ele>
        <time>2011-04-20T14:58:58Z</time>
      </trkpt>
      <trkpt lat="31.818591663613915" lon="-3.667420344427228">
        <ele>1203.7080078125</ele>
        <time>2011-04-20T14:59:05Z</time>
      </trkpt>
      <trkpt lat="31.818457636982203" lon="-3.6673803627491">
        <ele>1202.74658203125</ele>
        <time>2011-04-20T14:59:17Z</time>
      </trkpt>
      <trkpt lat="31.818289076909423" lon="-3.667298136278987">
        <ele>1207.55322265625</ele>
        <time>2011-04-20T14:59:25Z</time>
      </trkpt>
      <trkpt lat="31.81810668669641" lon="-3.667182885110378">
        <ele>1208.514404296875</ele>
        <time>2011-04-20T14:59:30Z</time>
      </trkpt>
      <trkpt lat="31.817737547680736" lon="-3.667234433814883">
        <ele>1209.475830078125</ele>
        <time>2011-04-20T14:59:40Z</time>
      </trkpt>
      <trkpt lat="31.817583069205284" lon="-3.667371058836579">
        <ele>1208.514404296875</ele>
        <time>2011-04-20T14:59:50Z</time>
      </trkpt>
      <trkpt lat="31.817491455003619" lon="-3.667387319728732">
        <ele>1226.779541015625</ele>
        <time>2011-04-20T15:01:49Z</time>
      </trkpt>
      <trkpt lat="31.817347873002291" lon="-3.667363096028566">
        <ele>1245.525390625</ele>
        <time>2011-04-20T15:02:27Z</time>
      </trkpt>
      <trkpt lat="31.817266652360559" lon="-3.667419841513038">
        <ele>1247.9287109375</ele>
        <time>2011-04-20T15:02:45Z</time>
      </trkpt>
      <trkpt lat="31.817249385640025" lon="-3.667313558980823">
        <ele>1253.2158203125</ele>
        <time>2011-04-20T15:02:52Z</time>
      </trkpt>
      <trkpt lat="31.817635037004948" lon="-3.667140975594521">
        <ele>1249.851318359375</ele>
        <time>2011-04-20T15:03:05Z</time>
      </trkpt>
      <trkpt lat="31.817947933450341" lon="-3.667218927294016">
        <ele>1247.447998046875</ele>
        <time>2011-04-20T15:03:12Z</time>
      </trkpt>
      <trkpt lat="31.818216489627957" lon="-3.66736963391304">
        <ele>1244.56396484375</ele>
        <time>2011-04-20T15:03:18Z</time>
      </trkpt>
      <trkpt lat="31.818749997764826" lon="-3.667370723560453">
        <ele>1245.044677734375</ele>
        <time>2011-04-20T15:03:28Z</time>
      </trkpt>
      <trkpt lat="31.8189343996346" lon="-3.66734717041254">
        <ele>1244.56396484375</ele>
        <time>2011-04-20T15:03:32Z</time>
      </trkpt>
      <trkpt lat="31.819152999669313" lon="-3.667273325845599">
        <ele>1243.6025390625</ele>
        <time>2011-04-20T15:03:37Z</time>
      </trkpt>
      <trkpt lat="31.819365061819553" lon="-3.667276259511709">
        <ele>1242.641357421875</ele>
        <time>2011-04-20T15:03:41Z</time>
      </trkpt>
      <trkpt lat="31.819484336301684" lon="-3.667320935055614">
        <ele>1241.679931640625</ele>
        <time>2011-04-20T15:03:43Z</time>
      </trkpt>
      <trkpt lat="31.819743337109685" lon="-3.667334765195847">
        <ele>1241.19921875</ele>
        <time>2011-04-20T15:03:47Z</time>
      </trkpt>
      <trkpt lat="31.82051807641983" lon="-3.667041147127748">
        <ele>1237.834716796875</ele>
        <time>2011-04-20T15:03:57Z</time>
      </trkpt>
      <trkpt lat="31.821061139926314" lon="-3.666605539619923">
        <ele>1235.912109375</ele>
        <time>2011-04-20T15:04:06Z</time>
      </trkpt>
      <trkpt lat="31.821555253118277" lon="-3.66615979000926">
        <ele>1231.586181640625</ele>
        <time>2011-04-20T15:04:14Z</time>
      </trkpt>
      <trkpt lat="31.822192277759314" lon="-3.66527147591114">
        <ele>1222.45361328125</ele>
        <time>2011-04-20T15:04:26Z</time>
      </trkpt>
      <trkpt lat="31.822575917467475" lon="-3.66444518789649">
        <ele>1214.76318359375</ele>
        <time>2011-04-20T15:04:35Z</time>
      </trkpt>
      <trkpt lat="31.822774484753609" lon="-3.663731385022402">
        <ele>1210.917724609375</ele>
        <time>2011-04-20T15:04:43Z</time>
      </trkpt>
      <trkpt lat="31.82313172146678" lon="-3.663231069222093">
        <ele>1207.072509765625</ele>
        <time>2011-04-20T15:04:51Z</time>
      </trkpt>
      <trkpt lat="31.823532460257411" lon="-3.663024371489883">
        <ele>1204.188720703125</ele>
        <time>2011-04-20T15:05:01Z</time>
      </trkpt>
      <trkpt lat="31.823990363627672" lon="-3.662943737581372">
        <ele>1204.669189453125</ele>
        <time>2011-04-20T15:05:15Z</time>
      </trkpt>
      <trkpt lat="31.824284819886088" lon="-3.663107687607408">
        <ele>1207.072509765625</ele>
        <time>2011-04-20T15:05:24Z</time>
      </trkpt>
      <trkpt lat="31.824216172099113" lon="-3.663258561864495">
        <ele>1207.072509765625</ele>
        <time>2011-04-20T15:05:28Z</time>
      </trkpt>
      <trkpt lat="31.823779391124845" lon="-3.663636669516563">
        <ele>1207.072509765625</ele>
        <time>2011-04-20T15:05:42Z</time>
      </trkpt>
      <trkpt lat="31.823486778885126" lon="-3.66401226259768">
        <ele>1206.591796875</ele>
        <time>2011-04-20T15:05:53Z</time>
      </trkpt>
      <trkpt lat="31.823142031207681" lon="-3.664522049948573">
        <ele>1206.111083984375</ele>
        <time>2011-04-20T15:06:08Z</time>
      </trkpt>
      <trkpt lat="31.823052344843745" lon="-3.665021443739533">
        <ele>1206.591796875</ele>
        <time>2011-04-20T15:06:19Z</time>
      </trkpt>
      <trkpt lat="31.823177738115191" lon="-3.665337441489101">
        <ele>1206.111083984375</ele>
        <time>2011-04-20T15:06:27Z</time>
      </trkpt>
      <trkpt lat="31.823511254042387" lon="-3.66566869430244">
        <ele>1205.630615234375</ele>
        <time>2011-04-20T15:06:38Z</time>
      </trkpt>
      <trkpt lat="31.823689788579941" lon="-3.665723176673055">
        <ele>1201.785400390625</ele>
        <time>2011-04-20T15:06:42Z</time>
      </trkpt>
      <trkpt lat="31.824272749945521" lon="-3.665832225233316">
        <ele>1197.940185546875</ele>
        <time>2011-04-20T15:06:53Z</time>
      </trkpt>
      <trkpt lat="31.824511969462037" lon="-3.665960971266031">
        <ele>1196.498291015625</ele>
        <time>2011-04-20T15:06:58Z</time>
      </trkpt>
      <trkpt lat="31.825109263882041" lon="-3.666289541870356">
        <ele>1192.172119140625</ele>
        <time>2011-04-20T15:07:10Z</time>
      </trkpt>
      <trkpt lat="31.825215043500066" lon="-3.666419796645641">
        <ele>1190.72998046875</ele>
        <time>2011-04-20T15:07:14Z</time>
      </trkpt>
      <trkpt lat="31.825492652133107" lon="-3.666888428851962">
        <ele>1184.96240234375</ele>
        <time>2011-04-20T15:07:25Z</time>
      </trkpt>
      <trkpt lat="31.825550822541118" lon="-3.667084481567144">
        <ele>1182.55908203125</ele>
        <time>2011-04-20T15:07:29Z</time>
      </trkpt>
      <trkpt lat="31.825633719563484" lon="-3.667689319700003">
        <ele>1174.3876953125</ele>
        <time>2011-04-20T15:07:42Z</time>
      </trkpt>
      <trkpt lat="31.825584936887026" lon="-3.668122664093971">
        <ele>1171.023193359375</ele>
        <time>2011-04-20T15:07:51Z</time>
      </trkpt>
      <trkpt lat="31.825569095090032" lon="-3.66863907314837">
        <ele>1169.1005859375</ele>
        <time>2011-04-20T15:08:00Z</time>
      </trkpt>
      <trkpt lat="31.82561444118619" lon="-3.668935373425484">
        <ele>1168.619873046875</ele>
        <time>2011-04-20T15:08:05Z</time>
      </trkpt>
      <trkpt lat="31.825755760073662" lon="-3.669428061693907">
        <ele>1166.697265625</ele>
        <time>2011-04-20T15:08:13Z</time>
      </trkpt>
      <trkpt lat="31.82589246891439" lon="-3.669674657285214">
        <ele>1165.25537109375</ele>
        <time>2011-04-20T15:08:18Z</time>
      </trkpt>
      <trkpt lat="31.825999673455954" lon="-3.669776748865843">
        <ele>1165.25537109375</ele>
        <time>2011-04-20T15:08:24Z</time>
      </trkpt>
      <trkpt lat="31.826032949611545" lon="-3.669902896508575">
        <ele>1151.316162109375</ele>
        <time>2011-04-20T15:08:59Z</time>
      </trkpt>
      <trkpt lat="31.826255992054939" lon="-3.670052597299218">
        <ele>1151.316162109375</ele>
        <time>2011-04-20T15:09:04Z</time>
      </trkpt>
      <trkpt lat="31.826976165175438" lon="-3.670160556212068">
        <ele>1149.874267578125</ele>
        <time>2011-04-20T15:09:15Z</time>
      </trkpt>
      <trkpt lat="31.827819468453526" lon="-3.6701122764498">
        <ele>1150.83544921875</ele>
        <time>2011-04-20T15:09:27Z</time>
      </trkpt>
      <trkpt lat="31.828616252169013" lon="-3.67016214877367">
        <ele>1134.4931640625</ele>
        <time>2011-04-20T15:09:38Z</time>
      </trkpt>
      <trkpt lat="31.829268950968981" lon="-3.670152090489864">
        <ele>1123.91845703125</ele>
        <time>2011-04-20T15:09:48Z</time>
      </trkpt>
      <trkpt lat="31.82956944219768" lon="-3.670169776305556">
        <ele>1110.940673828125</ele>
        <time>2011-04-20T15:10:18Z</time>
      </trkpt>
      <trkpt lat="31.829945873469114" lon="-3.670097272843123">
        <ele>1108.537353515625</ele>
        <time>2011-04-20T15:10:28Z</time>
      </trkpt>
      <trkpt lat="31.830239575356245" lon="-3.670055447146297">
        <ele>1106.134033203125</ele>
        <time>2011-04-20T15:10:36Z</time>
      </trkpt>
      <trkpt lat="31.830670991912484" lon="-3.670164160430431">
        <ele>1104.692138671875</ele>
        <time>2011-04-20T15:10:44Z</time>
      </trkpt>
      <trkpt lat="31.831515384837985" lon="-3.670265162363648">
        <ele>1103.250244140625</ele>
        <time>2011-04-20T15:10:57Z</time>
      </trkpt>
      <trkpt lat="31.831674640998244" lon="-3.670278238132596">
        <ele>1103.73095703125</ele>
        <time>2011-04-20T15:10:59Z</time>
      </trkpt>
      <trkpt lat="31.831902461126447" lon="-3.670249320566654">
        <ele>1103.73095703125</ele>
        <time>2011-04-20T15:11:02Z</time>
      </trkpt>
      <trkpt lat="31.83209951967001" lon="-3.670280920341611">
        <ele>1103.73095703125</ele>
        <time>2011-04-20T15:11:05Z</time>
      </trkpt>
      <trkpt lat="31.832229942083359" lon="-3.670315034687519">
        <ele>1102.76953125</ele>
        <time>2011-04-20T15:11:07Z</time>
      </trkpt>
      <trkpt lat="31.832479471340775" lon="-3.670295923948288">
        <ele>1101.808349609375</ele>
        <time>2011-04-20T15:11:11Z</time>
      </trkpt>
      <trkpt lat="31.833031754940748" lon="-3.670408325269818">
        <ele>1100.366455078125</ele>
        <time>2011-04-20T15:11:20Z</time>
      </trkpt>
      <trkpt lat="31.833422770723701" lon="-3.670922052115202">
        <ele>1099.40478515625</ele>
        <time>2011-04-20T15:11:29Z</time>
      </trkpt>
      <trkpt lat="31.833687471225858" lon="-3.67111005820334">
        <ele>1097.482177734375</ele>
        <time>2011-04-20T15:11:33Z</time>
      </trkpt>
      <trkpt lat="31.833892576396465" lon="-3.67125665768981">
        <ele>1097.00146484375</ele>
        <time>2011-04-20T15:11:36Z</time>
      </trkpt>
      <trkpt lat="31.834185775369406" lon="-3.67133435793221">
        <ele>1097.482177734375</ele>
        <time>2011-04-20T15:11:40Z</time>
      </trkpt>
      <trkpt lat="31.834663795307279" lon="-3.67151859216392">
        <ele>1097.482177734375</ele>
        <time>2011-04-20T15:11:48Z</time>
      </trkpt>
      <trkpt lat="31.834939895197749" lon="-3.671783125028014">
        <ele>1096.52099609375</ele>
        <time>2011-04-20T15:11:53Z</time>
      </trkpt>
      <trkpt lat="31.835032179951668" lon="-3.671935759484768">
        <ele>1096.040283203125</ele>
        <time>2011-04-20T15:11:55Z</time>
      </trkpt>
      <trkpt lat="31.835130248218775" lon="-3.672173637896776">
        <ele>1094.59814453125</ele>
        <time>2011-04-20T15:11:58Z</time>
      </trkpt>
      <trkpt lat="31.835414227098227" lon="-3.672526851296425">
        <ele>1094.11767578125</ele>
        <time>2011-04-20T15:12:03Z</time>
      </trkpt>
      <trkpt lat="31.83569049462676" lon="-3.67274796590209">
        <ele>1094.11767578125</ele>
        <time>2011-04-20T15:12:07Z</time>
      </trkpt>
      <trkpt lat="31.835860144346952" lon="-3.672952987253666">
        <ele>1093.636962890625</ele>
        <time>2011-04-20T15:12:10Z</time>
      </trkpt>
      <trkpt lat="31.836124928668141" lon="-3.673103526234627">
        <ele>1092.67578125</ele>
        <time>2011-04-20T15:12:14Z</time>
      </trkpt>
      <trkpt lat="31.836276892572641" lon="-3.67312666028738">
        <ele>1092.195068359375</ele>
        <time>2011-04-20T15:12:16Z</time>
      </trkpt>
      <trkpt lat="31.836577299982309" lon="-3.673266218975186">
        <ele>1092.67578125</ele>
        <time>2011-04-20T15:12:20Z</time>
      </trkpt>
      <trkpt lat="31.836951971054077" lon="-3.673400832340121">
        <ele>1092.195068359375</ele>
        <time>2011-04-20T15:12:25Z</time>
      </trkpt>
      <trkpt lat="31.837598886340857" lon="-3.673389432951808">
        <ele>1091.71435546875</ele>
        <time>2011-04-20T15:12:33Z</time>
      </trkpt>
      <trkpt lat="31.838088054209948" lon="-3.673274349421263">
        <ele>1092.67578125</ele>
        <time>2011-04-20T15:12:41Z</time>
      </trkpt>
      <trkpt lat="31.838245717808604" lon="-3.673251047730446">
        <ele>1092.67578125</ele>
        <time>2011-04-20T15:12:55Z</time>
      </trkpt>
      <trkpt lat="31.838102135807276" lon="-3.673509042710066">
        <ele>1090.2724609375</ele>
        <time>2011-04-20T15:13:36Z</time>
      </trkpt>
      <trkpt lat="31.838081935420632" lon="-3.673950852826238">
        <ele>1089.791748046875</ele>
        <time>2011-04-20T15:13:46Z</time>
      </trkpt>
      <trkpt lat="31.83833347633481" lon="-3.674665577709675">
        <ele>1088.83056640625</ele>
        <time>2011-04-20T15:13:57Z</time>
      </trkpt>
      <trkpt lat="31.83876246213913" lon="-3.67511929012835">
        <ele>1087.388427734375</ele>
        <time>2011-04-20T15:14:07Z</time>
      </trkpt>
      <trkpt lat="31.838910486549139" lon="-3.67544568143785">
        <ele>1085.946533203125</ele>
        <time>2011-04-20T15:14:15Z</time>
      </trkpt>
      <trkpt lat="31.838870085775852" lon="-3.675574595108628">
        <ele>1084.504638671875</ele>
        <time>2011-04-20T15:14:20Z</time>
      </trkpt>
      <trkpt lat="31.838711332529783" lon="-3.67560837417841">
        <ele>1083.062255859375</ele>
        <time>2011-04-20T15:14:24Z</time>
      </trkpt>
      <trkpt lat="31.838543862104416" lon="-3.675807192921639">
        <ele>1082.581787109375</ele>
        <time>2011-04-20T15:14:31Z</time>
      </trkpt>
      <trkpt lat="31.838583759963512" lon="-3.676004838198423">
        <ele>1082.581787109375</ele>
        <time>2011-04-20T15:14:34Z</time>
      </trkpt>
      <trkpt lat="31.838698424398899" lon="-3.676307760179043">
        <ele>1082.581787109375</ele>
        <time>2011-04-20T15:14:38Z</time>
      </trkpt>
      <trkpt lat="31.83873069472611" lon="-3.676634822040796">
        <ele>1082.581787109375</ele>
        <time>2011-04-20T15:14:42Z</time>
      </trkpt>
      <trkpt lat="31.838621981441975" lon="-3.677364131435752">
        <ele>1083.54296875</ele>
        <time>2011-04-20T15:14:51Z</time>
      </trkpt>
      <trkpt lat="31.838203137740493" lon="-3.677960755303502">
        <ele>1084.9853515625</ele>
        <time>2011-04-20T15:15:01Z</time>
      </trkpt>
      <trkpt lat="31.838012617081404" lon="-3.678192431107163">
        <ele>1086.42724609375</ele>
        <time>2011-04-20T15:15:05Z</time>
      </trkpt>
      <trkpt lat="31.837879596278071" lon="-3.678661147132516">
        <ele>1087.869140625</ele>
        <time>2011-04-20T15:15:11Z</time>
      </trkpt>
      <trkpt lat="31.837892923504114" lon="-3.679739227518439">
        <ele>1090.7529296875</ele>
        <time>2011-04-20T15:15:21Z</time>
      </trkpt>
      <trkpt lat="31.837830897420645" lon="-3.681074799969792">
        <ele>1092.195068359375</ele>
        <time>2011-04-20T15:15:33Z</time>
      </trkpt>
      <trkpt lat="31.837949920445681" lon="-3.682460496202111">
        <ele>1087.388427734375</ele>
        <time>2011-04-20T15:15:45Z</time>
      </trkpt>
      <trkpt lat="31.838020160794258" lon="-3.682934576645494">
        <ele>1087.869140625</ele>
        <time>2011-04-20T15:15:49Z</time>
      </trkpt>
      <trkpt lat="31.837892672047019" lon="-3.683478562161326">
        <ele>1089.791748046875</ele>
        <time>2011-04-20T15:15:55Z</time>
      </trkpt>
      <trkpt lat="31.837761830538511" lon="-3.683717530220747">
        <ele>1089.31103515625</ele>
        <time>2011-04-20T15:15:58Z</time>
      </trkpt>
      <trkpt lat="31.837672060355544" lon="-3.683986673131585">
        <ele>1088.349853515625</ele>
        <time>2011-04-20T15:16:01Z</time>
      </trkpt>
      <trkpt lat="31.837645657360554" lon="-3.684465195983648">
        <ele>1088.349853515625</ele>
        <time>2011-04-20T15:16:06Z</time>
      </trkpt>
      <trkpt lat="31.837909771129489" lon="-3.685560040175915">
        <ele>1084.9853515625</ele>
        <time>2011-04-20T15:16:18Z</time>
      </trkpt>
      <trkpt lat="31.838001469150186" lon="-3.686019871383905">
        <ele>1084.9853515625</ele>
        <time>2011-04-20T15:16:23Z</time>
      </trkpt>
      <trkpt lat="31.837861826643348" lon="-3.686862085014582">
        <ele>1086.90771484375</ele>
        <time>2011-04-20T15:16:33Z</time>
      </trkpt>
      <trkpt lat="31.837818995118141" lon="-3.687862632796168">
        <ele>1084.02392578125</ele>
        <time>2011-04-20T15:16:44Z</time>
      </trkpt>
      <trkpt lat="31.837714556604624" lon="-3.688592193648219">
        <ele>1081.620361328125</ele>
        <time>2011-04-20T15:16:53Z</time>
      </trkpt>
      <trkpt lat="31.837471062317491" lon="-3.689201977103949">
        <ele>1080.6591796875</ele>
        <time>2011-04-20T15:17:02Z</time>
      </trkpt>
      <trkpt lat="31.837331084534526" lon="-3.689506491646171">
        <ele>1081.620361328125</ele>
        <time>2011-04-20T15:17:08Z</time>
      </trkpt>
      <trkpt lat="31.837005196139216" lon="-3.690060451626778">
        <ele>1084.02392578125</ele>
        <time>2011-04-20T15:17:16Z</time>
      </trkpt>
      <trkpt lat="31.836871756240726" lon="-3.690383825451136">
        <ele>1084.9853515625</ele>
        <time>2011-04-20T15:17:23Z</time>
      </trkpt>
      <trkpt lat="31.836911151185632" lon="-3.690682221204042">
        <ele>1083.54296875</ele>
        <time>2011-04-20T15:17:29Z</time>
      </trkpt>
      <trkpt lat="31.836862619966269" lon="-3.690900066867471">
        <ele>1084.9853515625</ele>
        <time>2011-04-20T15:17:34Z</time>
      </trkpt>
      <trkpt lat="31.836768742650747" lon="-3.69104121811688">
        <ele>1085.4658203125</ele>
        <time>2011-04-20T15:17:37Z</time>
      </trkpt>
      <trkpt lat="31.836658017709851" lon="-3.691459223628044">
        <ele>1084.9853515625</ele>
        <time>2011-04-20T15:17:43Z</time>
      </trkpt>
      <trkpt lat="31.836716355755925" lon="-3.691992983222008">
        <ele>1083.54296875</ele>
        <time>2011-04-20T15:17:49Z</time>
      </trkpt>
      <trkpt lat="31.836660699918866" lon="-3.69257896207273">
        <ele>1085.4658203125</ele>
        <time>2011-04-20T15:17:55Z</time>
      </trkpt>
      <trkpt lat="31.83644293807447" lon="-3.692944161593914">
        <ele>1088.83056640625</ele>
        <time>2011-04-20T15:18:00Z</time>
      </trkpt>
      <trkpt lat="31.836318718269467" lon="-3.693049773573875">
        <ele>1089.791748046875</ele>
        <time>2011-04-20T15:18:02Z</time>
      </trkpt>
      <trkpt lat="31.835630061104894" lon="-3.693646816536784">
        <ele>1093.15625</ele>
        <time>2011-04-20T15:18:12Z</time>
      </trkpt>
      <trkpt lat="31.835377095267177" lon="-3.694033389911056">
        <ele>1094.11767578125</ele>
        <time>2011-04-20T15:18:17Z</time>
      </trkpt>
      <trkpt lat="31.83527659624815" lon="-3.69450755417347">
        <ele>1092.195068359375</ele>
        <time>2011-04-20T15:18:22Z</time>
      </trkpt>
      <trkpt lat="31.835348764434457" lon="-3.695792583748698">
        <ele>1084.9853515625</ele>
        <time>2011-04-20T15:18:34Z</time>
      </trkpt>
      <trkpt lat="31.835469296202064" lon="-3.697227733209729">
        <ele>1078.255859375</ele>
        <time>2011-04-20T15:18:47Z</time>
      </trkpt>
      <trkpt lat="31.835450939834118" lon="-3.698514271527529">
        <ele>1075.8525390625</ele>
        <time>2011-04-20T15:18:59Z</time>
      </trkpt>
      <trkpt lat="31.8352619279176" lon="-3.699070662260056">
        <ele>1076.81396484375</ele>
        <time>2011-04-20T15:19:05Z</time>
      </trkpt>
      <trkpt lat="31.835224460810423" lon="-3.699419684708118">
        <ele>1077.775146484375</ele>
        <time>2011-04-20T15:19:09Z</time>
      </trkpt>
      <trkpt lat="31.835264526307583" lon="-3.699874235317111">
        <ele>1076.333251953125</ele>
        <time>2011-04-20T15:19:15Z</time>
      </trkpt>
      <trkpt lat="31.835154639557004" lon="-3.70052894577384">
        <ele>1077.294677734375</ele>
        <time>2011-04-20T15:19:23Z</time>
      </trkpt>
      <trkpt lat="31.834971327334642" lon="-3.701541228219867">
        <ele>1078.736572265625</ele>
        <time>2011-04-20T15:19:33Z</time>
      </trkpt>
      <trkpt lat="31.834795642644167" lon="-3.702398277819157">
        <ele>1080.178466796875</ele>
        <time>2011-04-20T15:19:42Z</time>
      </trkpt>
      <trkpt lat="31.834549466148019" lon="-3.702852996066213">
        <ele>1081.139892578125</ele>
        <time>2011-04-20T15:19:48Z</time>
      </trkpt>
      <trkpt lat="31.833975054323673" lon="-3.703272175043821">
        <ele>1084.02392578125</ele>
        <time>2011-04-20T15:19:58Z</time>
      </trkpt>
      <trkpt lat="31.833255467936397" lon="-3.703647097572684">
        <ele>1089.31103515625</ele>
        <time>2011-04-20T15:20:09Z</time>
      </trkpt>
      <trkpt lat="31.832432867959142" lon="-3.704060995951295">
        <ele>1094.59814453125</ele>
        <time>2011-04-20T15:20:18Z</time>
      </trkpt>
      <trkpt lat="31.831204248592257" lon="-3.704718388617039">
        <ele>1099.885498046875</ele>
        <time>2011-04-20T15:20:30Z</time>
      </trkpt>
      <trkpt lat="31.830259440466762" lon="-3.705228930339217">
        <ele>1105.1728515625</ele>
        <time>2011-04-20T15:20:40Z</time>
      </trkpt>
      <trkpt lat="31.829600287601352" lon="-3.705598572269082">
        <ele>1110.4599609375</ele>
        <time>2011-04-20T15:20:50Z</time>
      </trkpt>
      <trkpt lat="31.828667633235455" lon="-3.706090170890093">
        <ele>1115.2666015625</ele>
        <time>2011-04-20T15:21:02Z</time>
      </trkpt>
      <trkpt lat="31.827714024111629" lon="-3.706600461155176">
        <ele>1119.5927734375</ele>
        <time>2011-04-20T15:21:13Z</time>
      </trkpt>
      <trkpt lat="31.826318437233567" lon="-3.707352988421917">
        <ele>1126.802490234375</ele>
        <time>2011-04-20T15:21:27Z</time>
      </trkpt>
      <trkpt lat="31.824971716850996" lon="-3.708065198734403">
        <ele>1132.08984375</ele>
        <time>2011-04-20T15:21:40Z</time>
      </trkpt>
      <trkpt lat="31.823797579854727" lon="-3.70868026278913">
        <ele>1135.454345703125</ele>
        <time>2011-04-20T15:21:51Z</time>
      </trkpt>
      <trkpt lat="31.822967352345586" lon="-3.709091059863567">
        <ele>1131.60888671875</ele>
        <time>2011-04-20T15:21:59Z</time>
      </trkpt>
      <trkpt lat="31.822006870061159" lon="-3.709612246602774">
        <ele>1135.454345703125</ele>
        <time>2011-04-20T15:22:08Z</time>
      </trkpt>
      <trkpt lat="31.820790488272905" lon="-3.710294449701905">
        <ele>1139.299560546875</ele>
        <time>2011-04-20T15:22:20Z</time>
      </trkpt>
      <trkpt lat="31.819920362904668" lon="-3.710807338356972">
        <ele>1140.260986328125</ele>
        <time>2011-04-20T15:22:30Z</time>
      </trkpt>
      <trkpt lat="31.819205051288009" lon="-3.711198857054114">
        <ele>1142.18359375</ele>
        <time>2011-04-20T15:22:38Z</time>
      </trkpt>
      <trkpt lat="31.818475238978863" lon="-3.711581155657768">
        <ele>1142.664306640625</ele>
        <time>2011-04-20T15:22:47Z</time>
      </trkpt>
      <trkpt lat="31.818086234852672" lon="-3.711792379617691">
        <ele>1143.144775390625</ele>
        <time>2011-04-20T15:22:54Z</time>
      </trkpt>
      <trkpt lat="31.81758139282465" lon="-3.712052972987294">
        <ele>1145.548095703125</ele>
        <time>2011-04-20T15:23:02Z</time>
      </trkpt>
      <trkpt lat="31.817019553855062" lon="-3.712347764521837">
        <ele>1147.470703125</ele>
        <time>2011-04-20T15:23:11Z</time>
      </trkpt>
      <trkpt lat="31.816269289702177" lon="-3.712749341502786">
        <ele>1148.43212890625</ele>
        <time>2011-04-20T15:23:21Z</time>
      </trkpt>
      <trkpt lat="31.815322218462825" lon="-3.713235575705767">
        <ele>1148.43212890625</ele>
        <time>2011-04-20T15:23:31Z</time>
      </trkpt>
      <trkpt lat="31.814101226627827" lon="-3.713856674730778">
        <ele>1149.874267578125</ele>
        <time>2011-04-20T15:23:43Z</time>
      </trkpt>
      <trkpt lat="31.812982158735394" lon="-3.714482551440597">
        <ele>1150.83544921875</ele>
        <time>2011-04-20T15:23:54Z</time>
      </trkpt>
      <trkpt lat="31.811960740014911" lon="-3.714983956888318">
        <ele>1153.23876953125</ele>
        <time>2011-04-20T15:24:04Z</time>
      </trkpt>
      <trkpt lat="31.810690043494105" lon="-3.715626178309321">
        <ele>1154.2001953125</ele>
        <time>2011-04-20T15:24:17Z</time>
      </trkpt>
      <trkpt lat="31.809951849281788" lon="-3.716121967881918">
        <ele>1154.2001953125</ele>
        <time>2011-04-20T15:24:25Z</time>
      </trkpt>
      <trkpt lat="31.809204099699855" lon="-3.716515665873885">
        <ele>1155.161376953125</ele>
        <time>2011-04-20T15:24:34Z</time>
      </trkpt>
      <trkpt lat="31.808727588504553" lon="-3.716762848198414">
        <ele>1155.64208984375</ele>
        <time>2011-04-20T15:24:41Z</time>
      </trkpt>
      <trkpt lat="31.808077655732632" lon="-3.717096783220768">
        <ele>1159.9677734375</ele>
        <time>2011-04-20T15:24:51Z</time>
      </trkpt>
      <trkpt lat="31.807774398475885" lon="-3.71725763194263">
        <ele>1162.851806640625</ele>
        <time>2011-04-20T15:24:59Z</time>
      </trkpt>
      <trkpt lat="31.807496538385749" lon="-3.717414457350969">
        <ele>1164.2939453125</ele>
        <time>2011-04-20T15:25:05Z</time>
      </trkpt>
      <trkpt lat="31.806738143786788" lon="-3.717818632721901">
        <ele>1166.216552734375</ele>
        <time>2011-04-20T15:25:14Z</time>
      </trkpt>
      <trkpt lat="31.805575992912054" lon="-3.718476863577962">
        <ele>1168.13916015625</ele>
        <time>2011-04-20T15:25:25Z</time>
      </trkpt>
      <trkpt lat="31.804632442072034" lon="-3.718922026455402">
        <ele>1165.25537109375</ele>
        <time>2011-04-20T15:25:34Z</time>
      </trkpt>
      <trkpt lat="31.804436892271042" lon="-3.719006599858403">
        <ele>1165.736083984375</ele>
        <time>2011-04-20T15:25:36Z</time>
      </trkpt>
      <trkpt lat="31.804028023034334" lon="-3.718945160508156">
        <ele>1158.52587890625</ele>
        <time>2011-04-20T15:25:41Z</time>
      </trkpt>
      <trkpt lat="31.803863318637013" lon="-3.71880903840065">
        <ele>1147.951416015625</ele>
        <time>2011-04-20T15:25:44Z</time>
      </trkpt>
      <trkpt lat="31.803563917055726" lon="-3.718794453889132">
        <ele>1137.376953125</ele>
        <time>2011-04-20T15:25:51Z</time>
      </trkpt>
      <trkpt lat="31.80346786044538" lon="-3.718907525762916">
        <ele>1137.376953125</ele>
        <time>2011-04-20T15:25:54Z</time>
      </trkpt>
      <trkpt lat="31.803222773596644" lon="-3.719432735815644">
        <ele>1139.7802734375</ele>
        <time>2011-04-20T15:26:02Z</time>
      </trkpt>
      <trkpt lat="31.803127471357584" lon="-3.71958302333951">
        <ele>1140.741455078125</ele>
        <time>2011-04-20T15:26:04Z</time>
      </trkpt>
      <trkpt lat="31.802806947380304" lon="-3.719863230362535">
        <ele>1142.664306640625</ele>
        <time>2011-04-20T15:26:09Z</time>
      </trkpt>
      <trkpt lat="31.801650328561664" lon="-3.720476534217596">
        <ele>1147.470703125</ele>
        <time>2011-04-20T15:26:22Z</time>
      </trkpt>
      <trkpt lat="31.800352726131678" lon="-3.721173824742436">
        <ele>1151.316162109375</ele>
        <time>2011-04-20T15:26:37Z</time>
      </trkpt>
      <trkpt lat="31.799100888893008" lon="-3.721833229064941">
        <ele>1156.12255859375</ele>
        <time>2011-04-20T15:26:52Z</time>
      </trkpt>
      <trkpt lat="31.798104364424944" lon="-3.722373358905315">
        <ele>1159.4873046875</ele>
        <time>2011-04-20T15:27:05Z</time>
      </trkpt>
      <trkpt lat="31.796875325962901" lon="-3.723021280020475">
        <ele>1161.409912109375</ele>
        <time>2011-04-20T15:27:19Z</time>
      </trkpt>
      <trkpt lat="31.795713426545262" lon="-3.723639864474535">
        <ele>1163.33251953125</ele>
        <time>2011-04-20T15:27:31Z</time>
      </trkpt>
      <trkpt lat="31.794301746413112" lon="-3.7243876978755">
        <ele>1169.581298828125</ele>
        <time>2011-04-20T15:27:46Z</time>
      </trkpt>
      <trkpt lat="31.793126687407494" lon="-3.724998319521546">
        <ele>1173.906982421875</ele>
        <time>2011-04-20T15:27:58Z</time>
      </trkpt>
      <trkpt lat="31.792197050526738" lon="-3.725489499047399">
        <ele>1175.82958984375</ele>
        <time>2011-04-20T15:28:09Z</time>
      </trkpt>
      <trkpt lat="31.791894044727087" lon="-3.725521266460419">
        <ele>1175.348876953125</ele>
        <time>2011-04-20T15:28:13Z</time>
      </trkpt>
      <trkpt lat="31.79165817797184" lon="-3.725498048588634">
        <ele>1167.658447265625</ele>
        <time>2011-04-20T15:28:19Z</time>
      </trkpt>
      <trkpt lat="31.791548542678356" lon="-3.725554877892137">
        <ele>1170.061767578125</ele>
        <time>2011-04-20T15:28:22Z</time>
      </trkpt>
      <trkpt lat="31.791302030906081" lon="-3.725830726325512">
        <ele>1174.3876953125</ele>
        <time>2011-04-20T15:28:27Z</time>
      </trkpt>
      <trkpt lat="31.7909125238657" lon="-3.726089475676417">
        <ele>1178.713623046875</ele>
        <time>2011-04-20T15:28:34Z</time>
      </trkpt>
      <trkpt lat="31.790493261069059" lon="-3.726294999942184">
        <ele>1184.0009765625</ele>
        <time>2011-04-20T15:28:41Z</time>
      </trkpt>
      <trkpt lat="31.790228225290775" lon="-3.726425422355533">
        <ele>1189.768798828125</ele>
        <time>2011-04-20T15:28:55Z</time>
      </trkpt>
      <trkpt lat="31.789800999686122" lon="-3.726697331294417">
        <ele>1194.5751953125</ele>
        <time>2011-04-20T15:29:03Z</time>
      </trkpt>
      <trkpt lat="31.788915786892176" lon="-3.727110642939806">
        <ele>1193.13330078125</ele>
        <time>2011-04-20T15:29:16Z</time>
      </trkpt>
      <trkpt lat="31.788099557161331" lon="-3.727545663714409">
        <ele>1196.017578125</ele>
        <time>2011-04-20T15:29:26Z</time>
      </trkpt>
      <trkpt lat="31.786316642537713" lon="-3.728488795459271">
        <ele>1201.3046875</ele>
        <time>2011-04-20T15:29:45Z</time>
      </trkpt>
      <trkpt lat="31.785388262942433" lon="-3.728981986641884">
        <ele>1203.227294921875</ele>
        <time>2011-04-20T15:29:55Z</time>
      </trkpt>
      <trkpt lat="31.78442258387804" lon="-3.729480793699622">
        <ele>1203.7080078125</ele>
        <time>2011-04-20T15:30:07Z</time>
      </trkpt>
      <trkpt lat="31.783647174015641" lon="-3.729922184720635">
        <ele>1208.514404296875</ele>
        <time>2011-04-20T15:30:17Z</time>
      </trkpt>
      <trkpt lat="31.782556436955929" lon="-3.730490226298571">
        <ele>1210.917724609375</ele>
        <time>2011-04-20T15:30:29Z</time>
      </trkpt>
      <trkpt lat="31.780739240348339" lon="-3.731446769088507">
        <ele>1215.724609375</ele>
        <time>2011-04-20T15:30:48Z</time>
      </trkpt>
      <trkpt lat="31.779384054243565" lon="-3.73222385533154">
        <ele>1217.64697265625</ele>
        <time>2011-04-20T15:31:02Z</time>
      </trkpt>
      <trkpt lat="31.777977151796222" lon="-3.733011921867728">
        <ele>1218.127685546875</ele>
        <time>2011-04-20T15:31:16Z</time>
      </trkpt>
      <trkpt lat="31.776973335072398" lon="-3.733581472188234">
        <ele>1219.56982421875</ele>
        <time>2011-04-20T15:31:27Z</time>
      </trkpt>
      <trkpt lat="31.776585420593619" lon="-3.733796048909426">
        <ele>1221.4921875</ele>
        <time>2011-04-20T15:31:34Z</time>
      </trkpt>
      <trkpt lat="31.775867594406009" lon="-3.734181616455317">
        <ele>1223.4150390625</ele>
        <time>2011-04-20T15:31:43Z</time>
      </trkpt>
      <trkpt lat="31.775498874485493" lon="-3.734692074358463">
        <ele>1224.85693359375</ele>
        <time>2011-04-20T15:31:50Z</time>
      </trkpt>
      <trkpt lat="31.775147253647447" lon="-3.735142685472965">
        <ele>1225.33740234375</ele>
        <time>2011-04-20T15:31:57Z</time>
      </trkpt>
      <trkpt lat="31.77498372271657" lon="-3.735145786777139">
        <ele>1193.13330078125</ele>
        <time>2011-04-20T15:32:04Z</time>
      </trkpt>
      <trkpt lat="31.774916248396039" lon="-3.735016286373138">
        <ele>1173.906982421875</ele>
        <time>2011-04-20T15:32:09Z</time>
      </trkpt>
      <trkpt lat="31.774598574265838" lon="-3.734827190637589">
        <ele>1156.12255859375</ele>
        <time>2011-04-20T15:32:18Z</time>
      </trkpt>
      <trkpt lat="31.774443760514259" lon="-3.73484973795712">
        <ele>1154.6806640625</ele>
        <time>2011-04-20T15:32:22Z</time>
      </trkpt>
      <trkpt lat="31.773856272920966" lon="-3.735171435400844">
        <ele>1157.564697265625</ele>
        <time>2011-04-20T15:32:33Z</time>
      </trkpt>
      <trkpt lat="31.773591237142682" lon="-3.735322896391153">
        <ele>1159.4873046875</ele>
        <time>2011-04-20T15:32:40Z</time>
      </trkpt>
      <trkpt lat="31.773230647668242" lon="-3.735510986298323">
        <ele>1161.890625</ele>
        <time>2011-04-20T15:32:47Z</time>
      </trkpt>
      <trkpt lat="31.772299082949758" lon="-3.736031586304307">
        <ele>1157.564697265625</ele>
        <time>2011-04-20T15:33:02Z</time>
      </trkpt>
      <trkpt lat="31.772160530090332" lon="-3.73611188493669">
        <ele>1151.796875</ele>
        <time>2011-04-20T15:33:08Z</time>
      </trkpt>
      <trkpt lat="31.771942181512713" lon="-3.736192435026169">
        <ele>1126.32177734375</ele>
        <time>2011-04-20T15:35:13Z</time>
      </trkpt>
      <trkpt lat="31.771620316430926" lon="-3.736361330375075">
        <ele>1132.08984375</ele>
        <time>2011-04-20T15:35:23Z</time>
      </trkpt>
      <trkpt lat="31.770938783884048" lon="-3.736729882657528">
        <ele>1141.702880859375</ele>
        <time>2011-04-20T15:35:37Z</time>
      </trkpt>
      <trkpt lat="31.770254485309124" lon="-3.737111678346992">
        <ele>1146.989990234375</ele>
        <time>2011-04-20T15:35:50Z</time>
      </trkpt>
      <trkpt lat="31.769133824855089" lon="-3.737700423225761">
        <ele>1154.2001953125</ele>
        <time>2011-04-20T15:36:09Z</time>
      </trkpt>
      <trkpt lat="31.768139228224754" lon="-3.738218089565635">
        <ele>1151.316162109375</ele>
        <time>2011-04-20T15:36:26Z</time>
      </trkpt>
      <trkpt lat="31.767362644895911" lon="-3.738652355968952">
        <ele>1141.702880859375</ele>
        <time>2011-04-20T15:36:38Z</time>
      </trkpt>
      <trkpt lat="31.766557730734348" lon="-3.739079246297479">
        <ele>1132.08984375</ele>
        <time>2011-04-20T15:36:47Z</time>
      </trkpt>
      <trkpt lat="31.76524386741221" lon="-3.739769579842687">
        <ele>1116.708740234375</ele>
        <time>2011-04-20T15:37:01Z</time>
      </trkpt>
      <trkpt lat="31.764027820900083" lon="-3.740435354411602">
        <ele>1105.1728515625</ele>
        <time>2011-04-20T15:37:15Z</time>
      </trkpt>
      <trkpt lat="31.763542843982577" lon="-3.740669377148151">
        <ele>1095.5595703125</ele>
        <time>2011-04-20T15:37:23Z</time>
      </trkpt>
      <trkpt lat="31.76342373713851" lon="-3.740745820105076">
        <ele>1092.67578125</ele>
        <time>2011-04-20T15:37:26Z</time>
      </trkpt>
      <trkpt lat="31.762831471860409" lon="-3.741056872531772">
        <ele>1083.54296875</ele>
        <time>2011-04-20T15:37:37Z</time>
      </trkpt>
      <trkpt lat="31.761982468888164" lon="-3.741485774517059">
        <ele>1076.81396484375</ele>
        <time>2011-04-20T15:37:49Z</time>
      </trkpt>
      <trkpt lat="31.761021399870515" lon="-3.742008972913027">
        <ele>1074.41064453125</ele>
        <time>2011-04-20T15:37:59Z</time>
      </trkpt>
      <trkpt lat="31.760574141517282" lon="-3.742230841889978">
        <ele>1073.449462890625</ele>
        <time>2011-04-20T15:38:04Z</time>
      </trkpt>
      <trkpt lat="31.760272979736328" lon="-3.742557149380446">
        <ele>1072.96875</ele>
        <time>2011-04-20T15:38:08Z</time>
      </trkpt>
      <trkpt lat="31.75966277718544" lon="-3.743728687986732">
        <ele>1071.526611328125</ele>
        <time>2011-04-20T15:38:18Z</time>
      </trkpt>
      <trkpt lat="31.759476782754064" lon="-3.744206875562668">
        <ele>1071.046142578125</ele>
        <time>2011-04-20T15:38:22Z</time>
      </trkpt>
      <trkpt lat="31.759179141372442" lon="-3.74470048584044">
        <ele>1069.12353515625</ele>
        <time>2011-04-20T15:38:29Z</time>
      </trkpt>
      <trkpt lat="31.758964397013187" lon="-3.745255786925554">
        <ele>1070.084716796875</ele>
        <time>2011-04-20T15:38:37Z</time>
      </trkpt>
      <trkpt lat="31.758841266855597" lon="-3.745543453842402">
        <ele>1068.162109375</ele>
        <time>2011-04-20T15:38:40Z</time>
      </trkpt>
      <trkpt lat="31.758458716794848" lon="-3.745962549000979">
        <ele>1072.00732421875</ele>
        <time>2011-04-20T15:38:45Z</time>
      </trkpt>
      <trkpt lat="31.75737208686769" lon="-3.746653385460377">
        <ele>1070.5654296875</ele>
        <time>2011-04-20T15:38:56Z</time>
      </trkpt>
      <trkpt lat="31.757106799632311" lon="-3.746786657720804">
        <ele>1070.084716796875</ele>
        <time>2011-04-20T15:38:59Z</time>
      </trkpt>
      <trkpt lat="31.75649693235755" lon="-3.746875254437327">
        <ele>1081.620361328125</ele>
        <time>2011-04-20T15:39:06Z</time>
      </trkpt>
      <trkpt lat="31.756062330678105" lon="-3.747105086222291">
        <ele>1083.062255859375</ele>
        <time>2011-04-20T15:39:12Z</time>
      </trkpt>
      <trkpt lat="31.755854962393641" lon="-3.747276328504086">
        <ele>1082.10107421875</ele>
        <time>2011-04-20T15:39:15Z</time>
      </trkpt>
      <trkpt lat="31.755597554147243" lon="-3.747384957969189">
        <ele>1082.10107421875</ele>
        <time>2011-04-20T15:39:19Z</time>
      </trkpt>
      <trkpt lat="31.755426647141576" lon="-3.747405577450991">
        <ele>1082.10107421875</ele>
        <time>2011-04-20T15:39:22Z</time>
      </trkpt>
      <trkpt lat="31.755074691027403" lon="-3.747410187497735">
        <ele>1087.388427734375</ele>
        <time>2011-04-20T15:39:29Z</time>
      </trkpt>
      <trkpt lat="31.754364157095551" lon="-3.747618058696389">
        <ele>1090.2724609375</ele>
        <time>2011-04-20T15:39:38Z</time>
      </trkpt>
      <trkpt lat="31.754044471308589" lon="-3.748039081692696">
        <ele>1086.42724609375</ele>
        <time>2011-04-20T15:39:44Z</time>
      </trkpt>
      <trkpt lat="31.753965681418777" lon="-3.748360946774483">
        <ele>1084.504638671875</ele>
        <time>2011-04-20T15:39:47Z</time>
      </trkpt>
      <trkpt lat="31.753804748877883" lon="-3.749601552262902">
        <ele>1063.8359375</ele>
        <time>2011-04-20T15:39:58Z</time>
      </trkpt>
      <trkpt lat="31.75380315631628" lon="-3.751046760007739">
        <ele>1057.10693359375</ele>
        <time>2011-04-20T15:40:09Z</time>
      </trkpt>
      <trkpt lat="31.753849340602756" lon="-3.752588192000985">
        <ele>1054.70361328125</ele>
        <time>2011-04-20T15:40:20Z</time>
      </trkpt>
      <trkpt lat="31.753635769709945" lon="-3.753750678151846">
        <ele>1052.30029296875</ele>
        <time>2011-04-20T15:40:29Z</time>
      </trkpt>
      <trkpt lat="31.753365620970726" lon="-3.755124220624566">
        <ele>1049.89697265625</ele>
        <time>2011-04-20T15:40:40Z</time>
      </trkpt>
      <trkpt lat="31.753060687333345" lon="-3.75618226826191">
        <ele>1048.935546875</ele>
        <time>2011-04-20T15:40:49Z</time>
      </trkpt>
      <trkpt lat="31.752728344872594" lon="-3.757499316707254">
        <ele>1047.974365234375</ele>
        <time>2011-04-20T15:40:59Z</time>
      </trkpt>
      <trkpt lat="31.752298520877957" lon="-3.758773533627391">
        <ele>1046.532470703125</ele>
        <time>2011-04-20T15:41:09Z</time>
      </trkpt>
      <trkpt lat="31.752097019925714" lon="-3.759641563519836">
        <ele>1045.09033203125</ele>
        <time>2011-04-20T15:41:16Z</time>
      </trkpt>
      <trkpt lat="31.752044716849923" lon="-3.760923743247986">
        <ele>1041.725830078125</ele>
        <time>2011-04-20T15:41:27Z</time>
      </trkpt>
      <trkpt lat="31.752003729343414" lon="-3.761728154495359">
        <ele>1040.283935546875</ele>
        <time>2011-04-20T15:41:34Z</time>
      </trkpt>
      <trkpt lat="31.75175185315311" lon="-3.762332489714027">
        <ele>1039.80322265625</ele>
        <time>2011-04-20T15:41:40Z</time>
      </trkpt>
      <trkpt lat="31.751588825136423" lon="-3.763305125758052">
        <ele>1038.842041015625</ele>
        <time>2011-04-20T15:41:48Z</time>
      </trkpt>
      <trkpt lat="31.751683373004198" lon="-3.764311959967017">
        <ele>1037.880615234375</ele>
        <time>2011-04-20T15:41:55Z</time>
      </trkpt>
      <trkpt lat="31.751602990552783" lon="-3.765326756983995">
        <ele>1036.919189453125</ele>
        <time>2011-04-20T15:42:03Z</time>
      </trkpt>
      <trkpt lat="31.75110544078052" lon="-3.766312720254064">
        <ele>1036.438720703125</ele>
        <time>2011-04-20T15:42:12Z</time>
      </trkpt>
      <trkpt lat="31.75103553570807" lon="-3.766405256465077">
        <ele>1036.438720703125</ele>
        <time>2011-04-20T15:42:13Z</time>
      </trkpt>
      <trkpt lat="31.750824395567179" lon="-3.766855699941516">
        <ele>1036.438720703125</ele>
        <time>2011-04-20T15:42:17Z</time>
      </trkpt>
      <trkpt lat="31.75071844831109" lon="-3.767297342419624">
        <ele>1035.47705078125</ele>
        <time>2011-04-20T15:42:21Z</time>
      </trkpt>
      <trkpt lat="31.75045114941895" lon="-3.767479984089732">
        <ele>1038.361328125</ele>
        <time>2011-04-20T15:42:26Z</time>
      </trkpt>
      <trkpt lat="31.750309579074383" lon="-3.767443019896746">
        <ele>1038.842041015625</ele>
        <time>2011-04-20T15:42:28Z</time>
      </trkpt>
      <trkpt lat="31.749833067879081" lon="-3.767224419862032">
        <ele>1039.80322265625</ele>
        <time>2011-04-20T15:42:37Z</time>
      </trkpt>
      <trkpt lat="31.749535342678428" lon="-3.767285859212279">
        <ele>1042.20654296875</ele>
        <time>2011-04-20T15:42:44Z</time>
      </trkpt>
      <trkpt lat="31.749460659921169" lon="-3.767435979098082">
        <ele>1043.167724609375</ele>
        <time>2011-04-20T15:42:52Z</time>
      </trkpt>
      <trkpt lat="31.749118091538548" lon="-3.767588865011931">
        <ele>1140.741455078125</ele>
        <time>2011-04-20T15:48:34Z</time>
      </trkpt>
      <trkpt lat="31.749014155939221" lon="-3.767658267170191">
        <ele>1172.94580078125</ele>
        <time>2011-04-20T15:49:22Z</time>
      </trkpt>
      <trkpt lat="31.749128568917513" lon="-3.767726076766849">
        <ele>1167.658447265625</ele>
        <time>2011-04-20T15:51:07Z</time>
      </trkpt>
      <trkpt lat="31.749358652159572" lon="-3.767531951889396">
        <ele>1126.802490234375</ele>
        <time>2011-04-20T15:51:14Z</time>
      </trkpt>
      <trkpt lat="31.749491924419999" lon="-3.767268760129809">
        <ele>1100.846923828125</ele>
        <time>2011-04-20T15:51:23Z</time>
      </trkpt>
      <trkpt lat="31.749390419572592" lon="-3.767186617478728">
        <ele>1072.96875</ele>
        <time>2011-04-20T15:53:44Z</time>
      </trkpt>
      <trkpt lat="31.748955566436052" lon="-3.767111767083406">
        <ele>1074.891357421875</ele>
        <time>2011-04-20T15:53:53Z</time>
      </trkpt>
      <trkpt lat="31.7487648781389" lon="-3.767123250290752">
        <ele>1078.736572265625</ele>
        <time>2011-04-20T15:54:00Z</time>
      </trkpt>
      <trkpt lat="31.748645938932896" lon="-3.767149988561869">
        <ele>1080.6591796875</ele>
        <time>2011-04-20T15:54:06Z</time>
      </trkpt>
      <trkpt lat="31.74834075383842" lon="-3.767471769824624">
        <ele>1082.10107421875</ele>
        <time>2011-04-20T15:54:14Z</time>
      </trkpt>
      <trkpt lat="31.747650755569339" lon="-3.76821817830205">
        <ele>1082.10107421875</ele>
        <time>2011-04-20T15:54:28Z</time>
      </trkpt>
      <trkpt lat="31.747096963226795" lon="-3.76867457292974">
        <ele>1080.6591796875</ele>
        <time>2011-04-20T15:54:39Z</time>
      </trkpt>
      <trkpt lat="31.746624475345016" lon="-3.769282763823867">
        <ele>1072.488037109375</ele>
        <time>2011-04-20T15:54:50Z</time>
      </trkpt>
      <trkpt lat="31.746432948857546" lon="-3.769669588655233">
        <ele>1063.8359375</ele>
        <time>2011-04-20T15:54:56Z</time>
      </trkpt>
      <trkpt lat="31.746370336040854" lon="-3.769941665232182">
        <ele>1057.10693359375</ele>
        <time>2011-04-20T15:55:00Z</time>
      </trkpt>
      <trkpt lat="31.74627872183919" lon="-3.770977333188057">
        <ele>1044.129150390625</ele>
        <time>2011-04-20T15:55:12Z</time>
      </trkpt>
      <trkpt lat="31.746069760993123" lon="-3.772224895656109">
        <ele>1042.20654296875</ele>
        <time>2011-04-20T15:55:25Z</time>
      </trkpt>
      <trkpt lat="31.745903883129358" lon="-3.773666080087423">
        <ele>1038.842041015625</ele>
        <time>2011-04-20T15:55:39Z</time>
      </trkpt>
      <trkpt lat="31.745708165690303" lon="-3.775559216737747">
        <ele>1039.80322265625</ele>
        <time>2011-04-20T15:55:58Z</time>
      </trkpt>
      <trkpt lat="31.745576234534383" lon="-3.776921024546027">
        <ele>1040.283935546875</ele>
        <time>2011-04-20T15:56:11Z</time>
      </trkpt>
      <trkpt lat="31.745450254529715" lon="-3.77819892950356">
        <ele>1040.283935546875</ele>
        <time>2011-04-20T15:56:24Z</time>
      </trkpt>
      <trkpt lat="31.745425025001168" lon="-3.778525069355965">
        <ele>1040.283935546875</ele>
        <time>2011-04-20T15:56:31Z</time>
      </trkpt>
      <trkpt lat="31.745395353063941" lon="-3.77882338128984">
        <ele>1040.283935546875</ele>
        <time>2011-04-20T15:56:39Z</time>
      </trkpt>
      <trkpt lat="31.745322849601507" lon="-3.779550259932876">
        <ele>1040.764404296875</ele>
        <time>2011-04-20T15:56:49Z</time>
      </trkpt>
      <trkpt lat="31.745217237621546" lon="-3.780438238754869">
        <ele>1040.283935546875</ele>
        <time>2011-04-20T15:57:02Z</time>
      </trkpt>
      <trkpt lat="31.745230229571462" lon="-3.781453371047974">
        <ele>1039.80322265625</ele>
        <time>2011-04-20T15:57:13Z</time>
      </trkpt>
      <trkpt lat="31.744975838810205" lon="-3.781580943614245">
        <ele>1038.842041015625</ele>
        <time>2011-04-20T15:57:24Z</time>
      </trkpt>
      <trkpt lat="31.743990378454328" lon="-3.782073715701699">
        <ele>1048.454833984375</ele>
        <time>2011-04-20T15:57:38Z</time>
      </trkpt>
      <trkpt lat="31.742955213412642" lon="-3.782627340406179">
        <ele>1057.10693359375</ele>
        <time>2011-04-20T15:57:52Z</time>
      </trkpt>
      <trkpt lat="31.741904122754931" lon="-3.783096643164754">
        <ele>1060.9521484375</ele>
        <time>2011-04-20T15:58:05Z</time>
      </trkpt>
      <trkpt lat="31.741027291864157" lon="-3.783515822142363">
        <ele>1062.39404296875</ele>
        <time>2011-04-20T15:58:15Z</time>
      </trkpt>
      <trkpt lat="31.739839408546686" lon="-3.784005157649517">
        <ele>1062.874755859375</ele>
        <time>2011-04-20T15:58:28Z</time>
      </trkpt>
      <trkpt lat="31.739236079156399" lon="-3.784286119043827">
        <ele>1062.874755859375</ele>
        <time>2011-04-20T15:58:36Z</time>
      </trkpt>
      <trkpt lat="31.738887391984463" lon="-3.784433137625456">
        <ele>1061.91357421875</ele>
        <time>2011-04-20T15:58:43Z</time>
      </trkpt>
      <trkpt lat="31.738712042570114" lon="-3.784501785412431">
        <ele>1061.432861328125</ele>
        <time>2011-04-20T15:58:48Z</time>
      </trkpt>
      <trkpt lat="31.738212648779154" lon="-3.784805964678526">
        <ele>1060.9521484375</ele>
        <time>2011-04-20T15:58:56Z</time>
      </trkpt>
      <trkpt lat="31.737317712977529" lon="-3.785238638520241">
        <ele>1060.471435546875</ele>
        <time>2011-04-20T15:59:07Z</time>
      </trkpt>
      <trkpt lat="31.736264945939183" lon="-3.78572185523808">
        <ele>1059.99072265625</ele>
        <time>2011-04-20T15:59:19Z</time>
      </trkpt>
      <trkpt lat="31.73508326523006" lon="-3.786341948434711">
        <ele>1059.99072265625</ele>
        <time>2011-04-20T15:59:32Z</time>
      </trkpt>
      <trkpt lat="31.73404541797936" lon="-3.786816028878093">
        <ele>1059.99072265625</ele>
        <time>2011-04-20T15:59:44Z</time>
      </trkpt>
      <trkpt lat="31.733538564294577" lon="-3.787068827077746">
        <ele>1059.99072265625</ele>
        <time>2011-04-20T15:59:51Z</time>
      </trkpt>
      <trkpt lat="31.733326837420464" lon="-3.787226071581245">
        <ele>1059.99072265625</ele>
        <time>2011-04-20T15:59:55Z</time>
      </trkpt>
      <trkpt lat="31.732888044789433" lon="-3.787460764870048">
        <ele>1059.029541015625</ele>
        <time>2011-04-20T16:00:03Z</time>
      </trkpt>
      <trkpt lat="31.732062678784132" lon="-3.787777181714773">
        <ele>1059.029541015625</ele>
        <time>2011-04-20T16:00:13Z</time>
      </trkpt>
      <trkpt lat="31.731454823166132" lon="-3.788080522790551">
        <ele>1058.068359375</ele>
        <time>2011-04-20T16:00:22Z</time>
      </trkpt>
      <trkpt lat="31.730416808277369" lon="-3.788672955706716">
        <ele>1058.548828125</ele>
        <time>2011-04-20T16:00:36Z</time>
      </trkpt>
      <trkpt lat="31.730249337852001" lon="-3.788776639848948">
        <ele>1058.548828125</ele>
        <time>2011-04-20T16:00:41Z</time>
      </trkpt>
      <trkpt lat="31.730139032006264" lon="-3.788844952359796">
        <ele>1055.184326171875</ele>
        <time>2011-04-20T16:01:26Z</time>
      </trkpt>
      <trkpt lat="31.729595800861716" lon="-3.789136307314038">
        <ele>1053.742431640625</ele>
        <time>2011-04-20T16:01:34Z</time>
      </trkpt>
      <trkpt lat="31.728905886411667" lon="-3.789383741095662">
        <ele>1052.781005859375</ele>
        <time>2011-04-20T16:01:42Z</time>
      </trkpt>
      <trkpt lat="31.728475727140903" lon="-3.789621535688639">
        <ele>1053.26171875</ele>
        <time>2011-04-20T16:01:49Z</time>
      </trkpt>
      <trkpt lat="31.727337213233113" lon="-3.790179686620832">
        <ele>1053.26171875</ele>
        <time>2011-04-20T16:02:02Z</time>
      </trkpt>
      <trkpt lat="31.726047992706299" lon="-3.790841102600098">
        <ele>1053.742431640625</ele>
        <time>2011-04-20T16:02:17Z</time>
      </trkpt>
      <trkpt lat="31.72526772134006" lon="-3.791230274364352">
        <ele>1054.22314453125</ele>
        <time>2011-04-20T16:02:27Z</time>
      </trkpt>
      <trkpt lat="31.724707558751106" lon="-3.791518108919263">
        <ele>1055.184326171875</ele>
        <time>2011-04-20T16:02:35Z</time>
      </trkpt>
      <trkpt lat="31.723748333752155" lon="-3.792016496881843">
        <ele>1056.626220703125</ele>
        <time>2011-04-20T16:02:46Z</time>
      </trkpt>
      <trkpt lat="31.722695734351873" lon="-3.792677661404014">
        <ele>1054.70361328125</ele>
        <time>2011-04-20T16:02:57Z</time>
      </trkpt>
      <trkpt lat="31.722185360267758" lon="-3.792909672483802">
        <ele>1052.30029296875</ele>
        <time>2011-04-20T16:03:03Z</time>
      </trkpt>
      <trkpt lat="31.722050160169601" lon="-3.792972872033715">
        <ele>1053.26171875</ele>
        <time>2011-04-20T16:03:06Z</time>
      </trkpt>
      <trkpt lat="31.721875313669443" lon="-3.79305618815124">
        <ele>1052.781005859375</ele>
        <time>2011-04-20T16:03:09Z</time>
      </trkpt>
      <trkpt lat="31.721463343128562" lon="-3.793262215331197">
        <ele>1053.742431640625</ele>
        <time>2011-04-20T16:03:16Z</time>
      </trkpt>
      <trkpt lat="31.720729088410735" lon="-3.793551307171583">
        <ele>1054.70361328125</ele>
        <time>2011-04-20T16:03:24Z</time>
      </trkpt>
      <trkpt lat="31.720022074878216" lon="-3.79391323775053">
        <ele>1055.6650390625</ele>
        <time>2011-04-20T16:03:31Z</time>
      </trkpt>
      <trkpt lat="31.71886176802218" lon="-3.794487817212939">
        <ele>1056.626220703125</ele>
        <time>2011-04-20T16:03:42Z</time>
      </trkpt>
      <trkpt lat="31.718254582956433" lon="-3.794786799699068">
        <ele>1056.626220703125</ele>
        <time>2011-04-20T16:03:49Z</time>
      </trkpt>
      <trkpt lat="31.7177105974406" lon="-3.795047560706735">
        <ele>1057.587646484375</ele>
        <time>2011-04-20T16:03:55Z</time>
      </trkpt>
      <trkpt lat="31.716577364131808" lon="-3.795729009434581">
        <ele>1058.068359375</ele>
        <time>2011-04-20T16:04:06Z</time>
      </trkpt>
      <trkpt lat="31.71588652767241" lon="-3.796165455132723">
        <ele>1057.587646484375</ele>
        <time>2011-04-20T16:04:13Z</time>
      </trkpt>
      <trkpt lat="31.715042302384973" lon="-3.796554291620851">
        <ele>1058.548828125</ele>
        <time>2011-04-20T16:04:21Z</time>
      </trkpt>
      <trkpt lat="31.714471913874149" lon="-3.796717403456569">
        <ele>1059.029541015625</ele>
        <time>2011-04-20T16:04:28Z</time>
      </trkpt>
      <trkpt lat="31.714148372411728" lon="-3.796928795054555">
        <ele>1059.51025390625</ele>
        <time>2011-04-20T16:04:32Z</time>
      </trkpt>
      <trkpt lat="31.713282857090235" lon="-3.797383680939674">
        <ele>1059.51025390625</ele>
        <time>2011-04-20T16:04:41Z</time>
      </trkpt>
      <trkpt lat="31.711952649056911" lon="-3.798086252063513">
        <ele>1061.432861328125</ele>
        <time>2011-04-20T16:04:54Z</time>
      </trkpt>
      <trkpt lat="31.7108463216573" lon="-3.798676924780011">
        <ele>1065.278076171875</ele>
        <time>2011-04-20T16:05:05Z</time>
      </trkpt>
      <trkpt lat="31.709833284839988" lon="-3.799214204773307">
        <ele>1066.719970703125</ele>
        <time>2011-04-20T16:05:16Z</time>
      </trkpt>
      <trkpt lat="31.709040272980928" lon="-3.79960966296494">
        <ele>1066.719970703125</ele>
        <time>2011-04-20T16:05:26Z</time>
      </trkpt>
      <trkpt lat="31.708650095388293" lon="-3.799700774252415">
        <ele>1062.39404296875</ele>
        <time>2011-04-20T16:05:34Z</time>
      </trkpt>
      <trkpt lat="31.708438703790307" lon="-3.799785682931542">
        <ele>1060.9521484375</ele>
        <time>2011-04-20T16:05:38Z</time>
      </trkpt>
      <trkpt lat="31.707983985543251" lon="-3.80014032125473">
        <ele>1059.99072265625</ele>
        <time>2011-04-20T16:05:48Z</time>
      </trkpt>
      <trkpt lat="31.707303542643785" lon="-3.800485152751207">
        <ele>1059.51025390625</ele>
        <time>2011-04-20T16:05:57Z</time>
      </trkpt>
      <trkpt lat="31.707149734720588" lon="-3.800543826073408">
        <ele>1059.51025390625</ele>
        <time>2011-04-20T16:05:59Z</time>
      </trkpt>
      <trkpt lat="31.706674145534635" lon="-3.800522787496448">
        <ele>1059.99072265625</ele>
        <time>2011-04-20T16:06:05Z</time>
      </trkpt>
      <trkpt lat="31.706522013992071" lon="-3.800598559901118">
        <ele>1059.99072265625</ele>
        <time>2011-04-20T16:06:07Z</time>
      </trkpt>
      <trkpt lat="31.706284722313285" lon="-3.80087424069643">
        <ele>1058.068359375</ele>
        <time>2011-04-20T16:06:14Z</time>
      </trkpt>
      <trkpt lat="31.706130830571055" lon="-3.800994269549847">
        <ele>1057.10693359375</ele>
        <time>2011-04-20T16:06:19Z</time>
      </trkpt>
      <trkpt lat="31.705653313547373" lon="-3.801324851810932">
        <ele>1059.51025390625</ele>
        <time>2011-04-20T16:06:29Z</time>
      </trkpt>
      <trkpt lat="31.704936157912016" lon="-3.801707401871681">
        <ele>1059.99072265625</ele>
        <time>2011-04-20T16:06:38Z</time>
      </trkpt>
      <trkpt lat="31.70392882078886" lon="-3.802195815369487">
        <ele>1060.471435546875</ele>
        <time>2011-04-20T16:06:49Z</time>
      </trkpt>
      <trkpt lat="31.702791480347514" lon="-3.802775172516704">
        <ele>1061.432861328125</ele>
        <time>2011-04-20T16:07:02Z</time>
      </trkpt>
      <trkpt lat="31.702531557530165" lon="-3.802902661263943">
        <ele>1059.51025390625</ele>
        <time>2011-04-20T16:07:07Z</time>
      </trkpt>
      <trkpt lat="31.702252104878426" lon="-3.803039621561766">
        <ele>1059.99072265625</ele>
        <time>2011-04-20T16:07:15Z</time>
      </trkpt>
      <trkpt lat="31.701634023338556" lon="-3.803387805819511">
        <ele>1061.432861328125</ele>
        <time>2011-04-20T16:07:24Z</time>
      </trkpt>
      <trkpt lat="31.700909659266472" lon="-3.803774630650878">
        <ele>1060.9521484375</ele>
        <time>2011-04-20T16:07:34Z</time>
      </trkpt>
      <trkpt lat="31.700017070397735" lon="-3.804181152954698">
        <ele>1064.79736328125</ele>
        <time>2011-04-20T16:07:46Z</time>
      </trkpt>
      <trkpt lat="31.69950476847589" lon="-3.804444679990411">
        <ele>1062.874755859375</ele>
        <time>2011-04-20T16:07:56Z</time>
      </trkpt>
      <trkpt lat="31.699227327480912" lon="-3.804596140980721">
        <ele>1061.91357421875</ele>
        <time>2011-04-20T16:08:04Z</time>
      </trkpt>
      <trkpt lat="31.69900193810463" lon="-3.804720444604754">
        <ele>1062.874755859375</ele>
        <time>2011-04-20T16:08:10Z</time>
      </trkpt>
      <trkpt lat="31.698459964245558" lon="-3.804989084601402">
        <ele>1063.8359375</ele>
        <time>2011-04-20T16:08:19Z</time>
      </trkpt>
      <trkpt lat="31.69767583720386" lon="-3.805416226387024">
        <ele>1064.79736328125</ele>
        <time>2011-04-20T16:08:30Z</time>
      </trkpt>
      <trkpt lat="31.696895062923431" lon="-3.805794836953282">
        <ele>1064.316650390625</ele>
        <time>2011-04-20T16:08:41Z</time>
      </trkpt>
      <trkpt lat="31.696208333596587" lon="-3.806186523288488">
        <ele>1065.7587890625</ele>
        <time>2011-04-20T16:08:52Z</time>
      </trkpt>
      <trkpt lat="31.695368550717831" lon="-3.806574773043394">
        <ele>1067.20068359375</ele>
        <time>2011-04-20T16:09:03Z</time>
      </trkpt>
      <trkpt lat="31.694165579974651" lon="-3.807240882888436">
        <ele>1067.68115234375</ele>
        <time>2011-04-20T16:09:18Z</time>
      </trkpt>
      <trkpt lat="31.69311884790659" lon="-3.807748574763537">
        <ele>1068.162109375</ele>
        <time>2011-04-20T16:09:31Z</time>
      </trkpt>
      <trkpt lat="31.692457683384418" lon="-3.807984190061688">
        <ele>1066.2392578125</ele>
        <time>2011-04-20T16:09:41Z</time>
      </trkpt>
      <trkpt lat="31.692290548235178" lon="-3.807942867279053">
        <ele>1063.8359375</ele>
        <time>2011-04-20T16:09:48Z</time>
      </trkpt>
      <trkpt lat="31.692199436947703" lon="-3.807942867279053">
        <ele>1064.79736328125</ele>
        <time>2011-04-20T16:10:46Z</time>
      </trkpt>
      <trkpt lat="31.69194370508194" lon="-3.807994667440653">
        <ele>1059.029541015625</ele>
        <time>2011-04-20T16:10:53Z</time>
      </trkpt>
      <trkpt lat="31.691652685403824" lon="-3.808282669633627">
        <ele>1057.587646484375</ele>
        <time>2011-04-20T16:11:01Z</time>
      </trkpt>
      <trkpt lat="31.691512959077954" lon="-3.808375457301736">
        <ele>1059.029541015625</ele>
        <time>2011-04-20T16:11:04Z</time>
      </trkpt>
      <trkpt lat="31.691420758143067" lon="-3.808495150879026">
        <ele>1061.432861328125</ele>
        <time>2011-04-20T16:11:08Z</time>
      </trkpt>
      <trkpt lat="31.691138120368123" lon="-3.808761946856976">
        <ele>1064.316650390625</ele>
        <time>2011-04-20T16:11:12Z</time>
      </trkpt>
      <trkpt lat="31.690848357975483" lon="-3.808772088959813">
        <ele>1066.2392578125</ele>
        <time>2011-04-20T16:11:19Z</time>
      </trkpt>
      <trkpt lat="31.690727742388844" lon="-3.808668740093708">
        <ele>1065.278076171875</ele>
        <time>2011-04-20T16:11:22Z</time>
      </trkpt>
      <trkpt lat="31.690417947247624" lon="-3.808383252471685">
        <ele>1068.642822265625</ele>
        <time>2011-04-20T16:11:32Z</time>
      </trkpt>
      <trkpt lat="31.690084934234619" lon="-3.808329105377197">
        <ele>1072.96875</ele>
        <time>2011-04-20T16:11:40Z</time>
      </trkpt>
      <trkpt lat="31.690027434378862" lon="-3.808458605781198">
        <ele>1076.333251953125</ele>
        <time>2011-04-20T16:11:46Z</time>
      </trkpt>
      <trkpt lat="31.689735157415271" lon="-3.809114489704371">
        <ele>1078.736572265625</ele>
        <time>2011-04-20T16:11:57Z</time>
      </trkpt>
      <trkpt lat="31.689485460519791" lon="-3.809536769986153">
        <ele>1081.620361328125</ele>
        <time>2011-04-20T16:12:03Z</time>
      </trkpt>
      <trkpt lat="31.689151274040341" lon="-3.809838434681296">
        <ele>1084.9853515625</ele>
        <time>2011-04-20T16:12:08Z</time>
      </trkpt>
      <trkpt lat="31.688781380653381" lon="-3.810025015845895">
        <ele>1086.90771484375</ele>
        <time>2011-04-20T16:12:14Z</time>
      </trkpt>
      <trkpt lat="31.688534952700138" lon="-3.810272701084614">
        <ele>1084.9853515625</ele>
        <time>2011-04-20T16:12:20Z</time>
      </trkpt>
      <trkpt lat="31.688232952728868" lon="-3.810389041900635">
        <ele>1085.946533203125</ele>
        <time>2011-04-20T16:12:28Z</time>
      </trkpt>
      <trkpt lat="31.687917541712523" lon="-3.810414774343371">
        <ele>1087.388427734375</ele>
        <time>2011-04-20T16:12:33Z</time>
      </trkpt>
      <trkpt lat="31.687503643333912" lon="-3.810609821230173">
        <ele>1087.869140625</ele>
        <time>2011-04-20T16:12:41Z</time>
      </trkpt>
      <trkpt lat="31.687175994738936" lon="-3.810758516192436">
        <ele>1089.31103515625</ele>
        <time>2011-04-20T16:12:48Z</time>
      </trkpt>
      <trkpt lat="31.68707063421607" lon="-3.810812579467893">
        <ele>1090.7529296875</ele>
        <time>2011-04-20T16:12:53Z</time>
      </trkpt>
      <trkpt lat="31.686853710561991" lon="-3.810936044901609">
        <ele>1089.31103515625</ele>
        <time>2011-04-20T16:12:58Z</time>
      </trkpt>
      <trkpt lat="31.686628237366676" lon="-3.810933781787753">
        <ele>1088.83056640625</ele>
        <time>2011-04-20T16:13:04Z</time>
      </trkpt>
      <trkpt lat="31.686371751129627" lon="-3.810904026031494">
        <ele>1091.233642578125</ele>
        <time>2011-04-20T16:13:11Z</time>
      </trkpt>
      <trkpt lat="31.686102189123631" lon="-3.810994382947683">
        <ele>1090.7529296875</ele>
        <time>2011-04-20T16:13:18Z</time>
      </trkpt>
      <trkpt lat="31.686000265181065" lon="-3.811114998534322">
        <ele>1089.31103515625</ele>
        <time>2011-04-20T16:13:21Z</time>
      </trkpt>
      <trkpt lat="31.685692984610796" lon="-3.811156321316958">
        <ele>1090.2724609375</ele>
        <time>2011-04-20T16:13:28Z</time>
      </trkpt>
      <trkpt lat="31.685591815039515" lon="-3.811103766784072">
        <ele>1090.7529296875</ele>
        <time>2011-04-20T16:13:30Z</time>
      </trkpt>
      <trkpt lat="31.685339938849211" lon="-3.811160093173385">
        <ele>1092.195068359375</ele>
        <time>2011-04-20T16:13:36Z</time>
      </trkpt>
      <trkpt lat="31.684744488447905" lon="-3.811609614640474">
        <ele>1090.2724609375</ele>
        <time>2011-04-20T16:13:46Z</time>
      </trkpt>
      <trkpt lat="31.684582214802504" lon="-3.811771888285875">
        <ele>1088.349853515625</ele>
        <time>2011-04-20T16:13:50Z</time>
      </trkpt>
      <trkpt lat="31.684419019147754" lon="-3.811891749501228">
        <ele>1086.90771484375</ele>
        <time>2011-04-20T16:13:53Z</time>
      </trkpt>
      <trkpt lat="31.684120539575815" lon="-3.811970120295882">
        <ele>1087.388427734375</ele>
        <time>2011-04-20T16:13:59Z</time>
      </trkpt>
      <trkpt lat="31.683863298967481" lon="-3.812022171914578">
        <ele>1091.233642578125</ele>
        <time>2011-04-20T16:14:05Z</time>
      </trkpt>
      <trkpt lat="31.683446718379855" lon="-3.812270276248455">
        <ele>1091.71435546875</ele>
        <time>2011-04-20T16:14:13Z</time>
      </trkpt>
      <trkpt lat="31.683184951543808" lon="-3.812763467431068">
        <ele>1087.869140625</ele>
        <time>2011-04-20T16:14:21Z</time>
      </trkpt>
      <trkpt lat="31.682960567995906" lon="-3.812993802130222">
        <ele>1086.42724609375</ele>
        <time>2011-04-20T16:14:25Z</time>
      </trkpt>
      <trkpt lat="31.682021962478757" lon="-3.813448520377278">
        <ele>1086.90771484375</ele>
        <time>2011-04-20T16:14:37Z</time>
      </trkpt>
      <trkpt lat="31.681847870349884" lon="-3.813521778210998">
        <ele>1088.83056640625</ele>
        <time>2011-04-20T16:14:40Z</time>
      </trkpt>
      <trkpt lat="31.681331377476454" lon="-3.813788238912821">
        <ele>1095.078857421875</ele>
        <time>2011-04-20T16:14:48Z</time>
      </trkpt>
      <trkpt lat="31.680999621748924" lon="-3.813974317163229">
        <ele>1095.078857421875</ele>
        <time>2011-04-20T16:14:55Z</time>
      </trkpt>
      <trkpt lat="31.680781105533242" lon="-3.814099207520485">
        <ele>1093.636962890625</ele>
        <time>2011-04-20T16:15:01Z</time>
      </trkpt>
      <trkpt lat="31.680554542690516" lon="-3.814199538901448">
        <ele>1092.67578125</ele>
        <time>2011-04-20T16:15:05Z</time>
      </trkpt>
      <trkpt lat="31.680341893807054" lon="-3.81425142288208">
        <ele>1092.67578125</ele>
        <time>2011-04-20T16:15:09Z</time>
      </trkpt>
      <trkpt lat="31.680127987638116" lon="-3.81425142288208">
        <ele>1092.195068359375</ele>
        <time>2011-04-20T16:15:15Z</time>
      </trkpt>
      <trkpt lat="31.679992200806737" lon="-3.814344964921475">
        <ele>1092.195068359375</ele>
        <time>2011-04-20T16:15:21Z</time>
      </trkpt>
      <trkpt lat="31.679585846140981" lon="-3.814306659623981">
        <ele>1093.15625</ele>
        <time>2011-04-20T16:15:32Z</time>
      </trkpt>
      <trkpt lat="31.679445281624794" lon="-3.814323926344514">
        <ele>1093.636962890625</ele>
        <time>2011-04-20T16:15:37Z</time>
      </trkpt>
      <trkpt lat="31.67925987392664" lon="-3.814569683745503">
        <ele>1093.15625</ele>
        <time>2011-04-20T16:15:44Z</time>
      </trkpt>
      <trkpt lat="31.678959717974067" lon="-3.814793899655342">
        <ele>1097.482177734375</ele>
        <time>2011-04-20T16:15:51Z</time>
      </trkpt>
      <trkpt lat="31.678737262263894" lon="-3.814956257119775">
        <ele>1097.482177734375</ele>
        <time>2011-04-20T16:15:56Z</time>
      </trkpt>
      <trkpt lat="31.678551938384771" lon="-3.815269991755486">
        <ele>1096.52099609375</ele>
        <time>2011-04-20T16:16:01Z</time>
      </trkpt>
      <trkpt lat="31.677573686465621" lon="-3.815744994208217">
        <ele>1095.5595703125</ele>
        <time>2011-04-20T16:16:13Z</time>
      </trkpt>
      <trkpt lat="31.677366653457284" lon="-3.815863346680999">
        <ele>1094.59814453125</ele>
        <time>2011-04-20T16:16:16Z</time>
      </trkpt>
      <trkpt lat="31.677159368991852" lon="-3.815984129905701">
        <ele>1091.233642578125</ele>
        <time>2011-04-20T16:16:19Z</time>
      </trkpt>
      <trkpt lat="31.676875473931432" lon="-3.816155539825559">
        <ele>1085.946533203125</ele>
        <time>2011-04-20T16:16:23Z</time>
      </trkpt>
      <trkpt lat="31.676084976643324" lon="-3.816523756831884">
        <ele>1073.929931640625</ele>
        <time>2011-04-20T16:16:33Z</time>
      </trkpt>
      <trkpt lat="31.675799489021301" lon="-3.81665644235909">
        <ele>1068.162109375</ele>
        <time>2011-04-20T16:16:39Z</time>
      </trkpt>
      <trkpt lat="31.675589689984918" lon="-3.816772950813174">
        <ele>1065.7587890625</ele>
        <time>2011-04-20T16:16:46Z</time>
      </trkpt>
      <trkpt lat="31.675225077196956" lon="-3.816973697394133">
        <ele>1061.91357421875</ele>
        <time>2011-04-20T16:16:55Z</time>
      </trkpt>
      <trkpt lat="31.675089709460735" lon="-3.817045614123344">
        <ele>1060.471435546875</ele>
        <time>2011-04-20T16:17:01Z</time>
      </trkpt>
      <trkpt lat="31.674822913482785" lon="-3.817187435925007">
        <ele>1059.99072265625</ele>
        <time>2011-04-20T16:17:07Z</time>
      </trkpt>
      <trkpt lat="31.674131155014038" lon="-3.817539727315307">
        <ele>1054.22314453125</ele>
        <time>2011-04-20T16:17:19Z</time>
      </trkpt>
      <trkpt lat="31.673389188945293" lon="-3.817915404215455">
        <ele>1050.858154296875</ele>
        <time>2011-04-20T16:17:30Z</time>
      </trkpt>
      <trkpt lat="31.672557201236486" lon="-3.818325446918607">
        <ele>1046.532470703125</ele>
        <time>2011-04-20T16:17:41Z</time>
      </trkpt>
      <trkpt lat="31.67178338393569" lon="-3.818716127425432">
        <ele>1038.361328125</ele>
        <time>2011-04-20T16:17:52Z</time>
      </trkpt>
      <trkpt lat="31.671078633517027" lon="-3.819103036075831">
        <ele>1030.18994140625</ele>
        <time>2011-04-20T16:18:04Z</time>
      </trkpt>
      <trkpt lat="31.670546717941761" lon="-3.819407047703862">
        <ele>1027.78662109375</ele>
        <time>2011-04-20T16:18:13Z</time>
      </trkpt>
      <trkpt lat="31.670288722962141" lon="-3.819512575864792">
        <ele>1029.228515625</ele>
        <time>2011-04-20T16:18:20Z</time>
      </trkpt>
      <trkpt lat="31.669984040781856" lon="-3.819645596668124">
        <ele>1033.554443359375</ele>
        <time>2011-04-20T16:18:27Z</time>
      </trkpt>
      <trkpt lat="31.669886223971844" lon="-3.819690523669124">
        <ele>1034.03515625</ele>
        <time>2011-04-20T16:18:29Z</time>
      </trkpt>
      <trkpt lat="31.669750940054655" lon="-3.819739725440741">
        <ele>1034.03515625</ele>
        <time>2011-04-20T16:18:33Z</time>
      </trkpt>
      <trkpt lat="31.66957383044064" lon="-3.819736205041409">
        <ele>1037.880615234375</ele>
        <time>2011-04-20T16:18:49Z</time>
      </trkpt>
      <trkpt lat="31.669292198494077" lon="-3.819759087637067">
        <ele>1039.80322265625</ele>
        <time>2011-04-20T16:18:56Z</time>
      </trkpt>
      <trkpt lat="31.669034454971552" lon="-3.819918679073453">
        <ele>1039.80322265625</ele>
        <time>2011-04-20T16:19:01Z</time>
      </trkpt>
      <trkpt lat="31.668475801125169" lon="-3.819916248321533">
        <ele>1039.322509765625</ele>
        <time>2011-04-20T16:19:10Z</time>
      </trkpt>
      <trkpt lat="31.668231301009655" lon="-3.819904681295157">
        <ele>1040.283935546875</ele>
        <time>2011-04-20T16:19:14Z</time>
      </trkpt>
      <trkpt lat="31.667831903323531" lon="-3.819614499807358">
        <ele>1041.2451171875</ele>
        <time>2011-04-20T16:19:23Z</time>
      </trkpt>
      <trkpt lat="31.667734757065773" lon="-3.81950268521905">
        <ele>1040.283935546875</ele>
        <time>2011-04-20T16:19:26Z</time>
      </trkpt>
      <trkpt lat="31.667570639401674" lon="-3.819288862869144">
        <ele>1040.283935546875</ele>
        <time>2011-04-20T16:19:34Z</time>
      </trkpt>
      <trkpt lat="31.6673828009516" lon="-3.819198841229081">
        <ele>1041.725830078125</ele>
        <time>2011-04-20T16:19:40Z</time>
      </trkpt>
      <trkpt lat="31.666992707177997" lon="-3.819503523409367">
        <ele>1039.80322265625</ele>
        <time>2011-04-20T16:19:51Z</time>
      </trkpt>
      <trkpt lat="31.666721804067492" lon="-3.819929156452417">
        <ele>1038.842041015625</ele>
        <time>2011-04-20T16:20:01Z</time>
      </trkpt>
      <trkpt lat="31.666518962010741" lon="-3.820490660145879">
        <ele>1037.39990234375</ele>
        <time>2011-04-20T16:20:12Z</time>
      </trkpt>
      <trkpt lat="31.666400860995054" lon="-3.820699620991945">
        <ele>1036.919189453125</ele>
        <time>2011-04-20T16:20:17Z</time>
      </trkpt>
      <trkpt lat="31.666283933445811" lon="-3.820840017870069">
        <ele>1035.957763671875</ele>
        <time>2011-04-20T16:20:21Z</time>
      </trkpt>
      <trkpt lat="31.666295919567347" lon="-3.821405544877052">
        <ele>1032.112548828125</ele>
        <time>2011-04-20T16:20:33Z</time>
      </trkpt>
      <trkpt lat="31.666207490488887" lon="-3.821548875421286">
        <ele>1034.515869140625</ele>
        <time>2011-04-20T16:20:44Z</time>
      </trkpt>
      <trkpt lat="31.66607472114265" lon="-3.8214479573071">
        <ele>1070.5654296875</ele>
        <time>2011-04-20T16:23:29Z</time>
      </trkpt>
      <trkpt lat="31.665880680084229" lon="-3.821482658386231">
        <ele>1063.35546875</ele>
        <time>2011-04-20T16:23:57Z</time>
      </trkpt>
      <trkpt lat="31.665434008464217" lon="-3.821600172668695">
        <ele>1072.96875</ele>
        <time>2011-04-20T16:24:06Z</time>
      </trkpt>
      <trkpt lat="31.664837636053562" lon="-3.821632862091065">
        <ele>1075.371826171875</ele>
        <time>2011-04-20T16:24:16Z</time>
      </trkpt>
      <trkpt lat="31.664459193125367" lon="-3.821469163522124">
        <ele>1069.12353515625</ele>
        <time>2011-04-20T16:24:22Z</time>
      </trkpt>
      <trkpt lat="31.664116960018873" lon="-3.821512162685394">
        <ele>1062.874755859375</ele>
        <time>2011-04-20T16:24:29Z</time>
      </trkpt>
      <trkpt lat="31.663943286985159" lon="-3.821454746648669">
        <ele>1061.432861328125</ele>
        <time>2011-04-20T16:24:32Z</time>
      </trkpt>
      <trkpt lat="31.663742372766137" lon="-3.821367407217622">
        <ele>1059.99072265625</ele>
        <time>2011-04-20T16:24:35Z</time>
      </trkpt>
      <trkpt lat="31.663389075547457" lon="-3.821350056678057">
        <ele>1055.6650390625</ele>
        <time>2011-04-20T16:24:42Z</time>
      </trkpt>
      <trkpt lat="31.663240296766162" lon="-3.821526244282723">
        <ele>1044.609619140625</ele>
        <time>2011-04-20T16:24:50Z</time>
      </trkpt>
      <trkpt lat="31.663113981485367" lon="-3.821605201810598">
        <ele>1038.842041015625</ele>
        <time>2011-04-20T16:24:57Z</time>
      </trkpt>
      <trkpt lat="31.663018511608243" lon="-3.821646776050329">
        <ele>1038.842041015625</ele>
        <time>2011-04-20T16:24:59Z</time>
      </trkpt>
      <trkpt lat="31.662701675668359" lon="-3.821844169870019">
        <ele>1039.80322265625</ele>
        <time>2011-04-20T16:25:08Z</time>
      </trkpt>
      <trkpt lat="31.662534959614277" lon="-3.822036283090711">
        <ele>1038.842041015625</ele>
        <time>2011-04-20T16:25:12Z</time>
      </trkpt>
      <trkpt lat="31.661902712658048" lon="-3.822018345817924">
        <ele>1037.880615234375</ele>
        <time>2011-04-20T16:25:19Z</time>
      </trkpt>
      <trkpt lat="31.660849610343575" lon="-3.821164900436997">
        <ele>1041.725830078125</ele>
        <time>2011-04-20T16:25:33Z</time>
      </trkpt>
      <trkpt lat="31.660423306748271" lon="-3.821117877960205">
        <ele>1039.80322265625</ele>
        <time>2011-04-20T16:25:39Z</time>
      </trkpt>
      <trkpt lat="31.660259272903204" lon="-3.82119725458324">
        <ele>1038.842041015625</ele>
        <time>2011-04-20T16:25:44Z</time>
      </trkpt>
      <trkpt lat="31.660148212686181" lon="-3.821251485496759">
        <ele>1033.07373046875</ele>
        <time>2011-04-20T16:25:48Z</time>
      </trkpt>
      <trkpt lat="31.659911423921585" lon="-3.821320720016956">
        <ele>1022.49951171875</ele>
        <time>2011-04-20T16:25:55Z</time>
      </trkpt>
      <trkpt lat="31.659741187468171" lon="-3.821442257612944">
        <ele>1014.328125</ele>
        <time>2011-04-20T16:26:01Z</time>
      </trkpt>
      <trkpt lat="31.659511020407081" lon="-3.821564884856343">
        <ele>968.184814453125</ele>
        <time>2011-04-20T16:29:17Z</time>
      </trkpt>
      <trkpt lat="31.659205751493573" lon="-3.821549294516444">
        <ele>964.339599609375</ele>
        <time>2011-04-20T16:29:29Z</time>
      </trkpt>
      <trkpt lat="31.659000311046839" lon="-3.821605453267694">
        <ele>971.54931640625</ele>
        <time>2011-04-20T16:29:39Z</time>
      </trkpt>
      <trkpt lat="31.658952115103602" lon="-3.821734199300408">
        <ele>972.0302734375</ele>
        <time>2011-04-20T16:29:48Z</time>
      </trkpt>
      <trkpt lat="31.658884976059198" lon="-3.821853725239635">
        <ele>977.798095703125</ele>
        <time>2011-04-20T16:29:56Z</time>
      </trkpt>
      <trkpt lat="31.658682050183415" lon="-3.822127059102058">
        <ele>981.643310546875</ele>
        <time>2011-04-20T16:30:03Z</time>
      </trkpt>
      <trkpt lat="31.658324142917991" lon="-3.822580687701702">
        <ele>983.085205078125</ele>
        <time>2011-04-20T16:30:12Z</time>
      </trkpt>
      <trkpt lat="31.657947544008493" lon="-3.82303356193006">
        <ele>984.52734375</ele>
        <time>2011-04-20T16:30:20Z</time>
      </trkpt>
      <trkpt lat="31.657587289810181" lon="-3.823486268520355">
        <ele>989.333984375</ele>
        <time>2011-04-20T16:30:28Z</time>
      </trkpt>
      <trkpt lat="31.657386207953095" lon="-3.823637058958411">
        <ele>991.256591796875</ele>
        <time>2011-04-20T16:30:32Z</time>
      </trkpt>
      <trkpt lat="31.657249918207526" lon="-3.823902597650886">
        <ele>992.218017578125</ele>
        <time>2011-04-20T16:30:38Z</time>
      </trkpt>
      <trkpt lat="31.657328959554434" lon="-3.824262684211135">
        <ele>992.69873046875</ele>
        <time>2011-04-20T16:30:49Z</time>
      </trkpt>
      <trkpt lat="31.657490227371454" lon="-3.824488408863545">
        <ele>992.218017578125</ele>
        <time>2011-04-20T16:30:54Z</time>
      </trkpt>
      <trkpt lat="31.657605227082968" lon="-3.824658561497927">
        <ele>991.7373046875</ele>
        <time>2011-04-20T16:30:59Z</time>
      </trkpt>
      <trkpt lat="31.65759994648397" lon="-3.82499392144382">
        <ele>989.814697265625</ele>
        <time>2011-04-20T16:31:03Z</time>
      </trkpt>
      <trkpt lat="31.65747195482254" lon="-3.825240265578032">
        <ele>989.333984375</ele>
        <time>2011-04-20T16:31:09Z</time>
      </trkpt>
      <trkpt lat="31.657395930960774" lon="-3.825405891984701">
        <ele>987.891845703125</ele>
        <time>2011-04-20T16:31:13Z</time>
      </trkpt>
      <trkpt lat="31.657356536015868" lon="-3.825803110376">
        <ele>986.449951171875</ele>
        <time>2011-04-20T16:31:21Z</time>
      </trkpt>
      <trkpt lat="31.657383441925049" lon="-3.826023973524571">
        <ele>985.488525390625</ele>
        <time>2011-04-20T16:31:28Z</time>
      </trkpt>
      <trkpt lat="31.656844234094024" lon="-3.826320441439748">
        <ele>986.449951171875</ele>
        <time>2011-04-20T16:31:34Z</time>
      </trkpt>
      <trkpt lat="31.656591100618243" lon="-3.826173674315214">
        <ele>988.853515625</ele>
        <time>2011-04-20T16:31:39Z</time>
      </trkpt>
      <trkpt lat="31.656296895816922" lon="-3.826130256056786">
        <ele>993.659912109375</ele>
        <time>2011-04-20T16:31:43Z</time>
      </trkpt>
      <trkpt lat="31.655907304957509" lon="-3.826032858341932">
        <ele>999.427734375</ele>
        <time>2011-04-20T16:31:49Z</time>
      </trkpt>
      <trkpt lat="31.655667833983898" lon="-3.826010227203369">
        <ele>1004.715087890625</ele>
        <time>2011-04-20T16:31:53Z</time>
      </trkpt>
      <trkpt lat="31.655575046315789" lon="-3.826022297143936">
        <ele>1006.6376953125</ele>
        <time>2011-04-20T16:31:55Z</time>
      </trkpt>
      <trkpt lat="31.655379831790924" lon="-3.826155234128237">
        <ele>1005.676513671875</ele>
        <time>2011-04-20T16:32:01Z</time>
      </trkpt>
      <trkpt lat="31.65526675991714" lon="-3.826398812234402">
        <ele>1004.234619140625</ele>
        <time>2011-04-20T16:32:06Z</time>
      </trkpt>
      <trkpt lat="31.655044220387936" lon="-3.826616406440735">
        <ele>1003.753662109375</ele>
        <time>2011-04-20T16:32:11Z</time>
      </trkpt>
      <trkpt lat="31.654857806861401" lon="-3.826632499694824">
        <ele>1007.118408203125</ele>
        <time>2011-04-20T16:32:15Z</time>
      </trkpt>
      <trkpt lat="31.654738783836365" lon="-3.826632499694824">
        <ele>1009.041015625</ele>
        <time>2011-04-20T16:32:18Z</time>
      </trkpt>
      <trkpt lat="31.654487745836377" lon="-3.826727466657758">
        <ele>1011.4443359375</ele>
        <time>2011-04-20T16:32:24Z</time>
      </trkpt>
      <trkpt lat="31.654356485232711" lon="-3.826929051429033">
        <ele>1008.560302734375</ele>
        <time>2011-04-20T16:32:29Z</time>
      </trkpt>
      <trkpt lat="31.654175855219364" lon="-3.827109765261412">
        <ele>1008.079833984375</ele>
        <time>2011-04-20T16:32:34Z</time>
      </trkpt>
      <trkpt lat="31.654070829972625" lon="-3.827234823256731">
        <ele>1007.118408203125</ele>
        <time>2011-04-20T16:32:39Z</time>
      </trkpt>
      <trkpt lat="31.654007295146585" lon="-3.827343536540866">
        <ele>1002.792236328125</ele>
        <time>2011-04-20T16:32:48Z</time>
      </trkpt>
      <trkpt lat="31.653915513306856" lon="-3.827603124082089">
        <ele>1000.86962890625</ele>
        <time>2011-04-20T16:32:54Z</time>
      </trkpt>
      <trkpt lat="31.653724489733577" lon="-3.827997492626309">
        <ele>998.947021484375</ele>
        <time>2011-04-20T16:33:02Z</time>
      </trkpt>
      <trkpt lat="31.653361134231091" lon="-3.828245848417282">
        <ele>1003.27294921875</ele>
        <time>2011-04-20T16:33:11Z</time>
      </trkpt>
      <trkpt lat="31.653134487569332" lon="-3.828340228646994">
        <ele>1008.560302734375</ele>
        <time>2011-04-20T16:33:15Z</time>
      </trkpt>
      <trkpt lat="31.652939692139626" lon="-3.828404014930129">
        <ele>1013.366943359375</ele>
        <time>2011-04-20T16:33:21Z</time>
      </trkpt>
      <trkpt lat="31.652836175635457" lon="-3.828552039340138">
        <ele>1011.925048828125</ele>
        <time>2011-04-20T16:33:27Z</time>
      </trkpt>
      <trkpt lat="31.652739699929953" lon="-3.82878664880991">
        <ele>1010.002197265625</ele>
        <time>2011-04-20T16:33:32Z</time>
      </trkpt>
      <trkpt lat="31.652673482894897" lon="-3.828874826431274">
        <ele>1009.041015625</ele>
        <time>2011-04-20T16:33:35Z</time>
      </trkpt>
      <trkpt lat="31.652444405481219" lon="-3.828959483653307">
        <ele>1012.405517578125</ele>
        <time>2011-04-20T16:33:39Z</time>
      </trkpt>
      <trkpt lat="31.65219034999609" lon="-3.828908521682024">
        <ele>1015.770263671875</ele>
        <time>2011-04-20T16:33:45Z</time>
      </trkpt>
      <trkpt lat="31.651783911511302" lon="-3.828796371817589">
        <ele>1021.0576171875</ele>
        <time>2011-04-20T16:33:54Z</time>
      </trkpt>
      <trkpt lat="31.651481660082936" lon="-3.828796874731779">
        <ele>1025.38330078125</ele>
        <time>2011-04-20T16:34:05Z</time>
      </trkpt>
      <trkpt lat="31.65134453214705" lon="-3.828926542773843">
        <ele>1025.38330078125</ele>
        <time>2011-04-20T16:34:13Z</time>
      </trkpt>
      <trkpt lat="31.651246547698975" lon="-3.829057216644287">
        <ele>1019.134765625</ele>
        <time>2011-04-20T16:34:26Z</time>
      </trkpt>
      <trkpt lat="31.651185527443886" lon="-3.829194596037269">
        <ele>1002.3115234375</ele>
        <time>2011-04-20T16:35:03Z</time>
      </trkpt>
      <trkpt lat="31.651001209393144" lon="-3.829379081726074">
        <ele>1002.792236328125</ele>
        <time>2011-04-20T16:35:10Z</time>
      </trkpt>
      <trkpt lat="31.650747656822205" lon="-3.829373801127076">
        <ele>1004.715087890625</ele>
        <time>2011-04-20T16:35:17Z</time>
      </trkpt>
      <trkpt lat="31.650483459234238" lon="-3.829387379810214">
        <ele>1005.676513671875</ele>
        <time>2011-04-20T16:35:26Z</time>
      </trkpt>
      <trkpt lat="31.650288328528404" lon="-3.829472623765469">
        <ele>1010.002197265625</ele>
        <time>2011-04-20T16:35:35Z</time>
      </trkpt>
      <trkpt lat="31.650099819526076" lon="-3.829639758914709">
        <ele>1011.4443359375</ele>
        <time>2011-04-20T16:35:43Z</time>
      </trkpt>
      <trkpt lat="31.649779295548797" lon="-3.829919882118702">
        <ele>1009.521728515625</ele>
        <time>2011-04-20T16:35:54Z</time>
      </trkpt>
      <trkpt lat="31.649525407701731" lon="-3.830058434978128">
        <ele>1009.521728515625</ele>
        <time>2011-04-20T16:36:04Z</time>
      </trkpt>
      <trkpt lat="31.649129865691066" lon="-3.830293882638216">
        <ele>1009.521728515625</ele>
        <time>2011-04-20T16:36:12Z</time>
      </trkpt>
      <trkpt lat="31.649037497118115" lon="-3.830354232341051">
        <ele>1009.041015625</ele>
        <time>2011-04-20T16:36:14Z</time>
      </trkpt>
      <trkpt lat="31.648658635094762" lon="-3.830611389130354">
        <ele>1009.041015625</ele>
        <time>2011-04-20T16:36:22Z</time>
      </trkpt>
      <trkpt lat="31.648390162736177" lon="-3.830768465995789">
        <ele>1011.925048828125</ele>
        <time>2011-04-20T16:36:30Z</time>
      </trkpt>
      <trkpt lat="31.648284550756216" lon="-3.830816075205803">
        <ele>1014.328125</ele>
        <time>2011-04-20T16:36:34Z</time>
      </trkpt>
      <trkpt lat="31.647993782535195" lon="-3.830954125151038">
        <ele>1021.5380859375</ele>
        <time>2011-04-20T16:36:43Z</time>
      </trkpt>
      <trkpt lat="31.647750623524189" lon="-3.831081530079246">
        <ele>1023.94140625</ele>
        <time>2011-04-20T16:36:52Z</time>
      </trkpt>
      <trkpt lat="31.647623721510172" lon="-3.831146825104952">
        <ele>1025.864013671875</ele>
        <time>2011-04-20T16:37:00Z</time>
      </trkpt>
      <trkpt lat="31.647349130362272" lon="-3.831273643299937">
        <ele>1024.90283203125</ele>
        <time>2011-04-20T16:37:11Z</time>
      </trkpt>
      <trkpt lat="31.647183923050761" lon="-3.831349834799767">
        <ele>1025.38330078125</ele>
        <time>2011-04-20T16:37:21Z</time>
      </trkpt>
      <trkpt lat="31.647090297192335" lon="-3.831393085420132">
        <ele>1025.864013671875</ele>
        <time>2011-04-20T16:37:28Z</time>
      </trkpt>
      <trkpt lat="31.646789219230413" lon="-3.831519987434149">
        <ele>1032.112548828125</ele>
        <time>2011-04-20T16:37:43Z</time>
      </trkpt>
      <trkpt lat="31.646385379135609" lon="-3.831772953271866">
        <ele>1032.59326171875</ele>
        <time>2011-04-20T16:37:52Z</time>
      </trkpt>
      <trkpt lat="31.646183459088206" lon="-3.831927515566349">
        <ele>1034.03515625</ele>
        <time>2011-04-20T16:37:58Z</time>
      </trkpt>
      <trkpt lat="31.646102070808411" lon="-3.831992726773024">
        <ele>1034.99658203125</ele>
        <time>2011-04-20T16:38:01Z</time>
      </trkpt>
      <trkpt lat="31.645864108577371" lon="-3.832208057865501">
        <ele>1034.99658203125</ele>
        <time>2011-04-20T16:38:08Z</time>
      </trkpt>
      <trkpt lat="31.6453290078789" lon="-3.832786157727242">
        <ele>1039.80322265625</ele>
        <time>2011-04-20T16:38:20Z</time>
      </trkpt>
      <trkpt lat="31.644912930205464" lon="-3.833297118544579">
        <ele>1040.764404296875</ele>
        <time>2011-04-20T16:38:30Z</time>
      </trkpt>
      <trkpt lat="31.644827099516988" lon="-3.833430977538228">
        <ele>1040.283935546875</ele>
        <time>2011-04-20T16:38:32Z</time>
      </trkpt>
      <trkpt lat="31.644401047378778" lon="-3.833827944472432">
        <ele>1042.687255859375</ele>
        <time>2011-04-20T16:38:39Z</time>
      </trkpt>
      <trkpt lat="31.64409183897078" lon="-3.833923665806651">
        <ele>1044.609619140625</ele>
        <time>2011-04-20T16:38:44Z</time>
      </trkpt>
      <trkpt lat="31.64377030916512" lon="-3.834282662719488">
        <ele>1045.571044921875</ele>
        <time>2011-04-20T16:38:51Z</time>
      </trkpt>
      <trkpt lat="31.643507704138756" lon="-3.834742996841669">
        <ele>1045.571044921875</ele>
        <time>2011-04-20T16:38:58Z</time>
      </trkpt>
      <trkpt lat="31.643441990017891" lon="-3.835187321528792">
        <ele>1046.0517578125</ele>
        <time>2011-04-20T16:39:03Z</time>
      </trkpt>
      <trkpt lat="31.64374097250402" lon="-3.835935406386852">
        <ele>1048.935546875</ele>
        <time>2011-04-20T16:39:11Z</time>
      </trkpt>
      <trkpt lat="31.644221926108003" lon="-3.836537227034569">
        <ele>1047.49365234375</ele>
        <time>2011-04-20T16:39:20Z</time>
      </trkpt>
      <trkpt lat="31.644813101738691" lon="-3.837050115689635">
        <ele>1047.012939453125</ele>
        <time>2011-04-20T16:39:32Z</time>
      </trkpt>
      <trkpt lat="31.645087273791432" lon="-3.837381536141038">
        <ele>1047.49365234375</ele>
        <time>2011-04-20T16:39:38Z</time>
      </trkpt>
      <trkpt lat="31.645294306799769" lon="-3.837644727900624">
        <ele>1047.49365234375</ele>
        <time>2011-04-20T16:39:46Z</time>
      </trkpt>
      <trkpt lat="31.645180229097605" lon="-3.837505504488945">
        <ele>1047.012939453125</ele>
        <time>2011-04-20T16:40:53Z</time>
      </trkpt>
      <trkpt lat="31.644874541088939" lon="-3.83711775764823">
        <ele>1054.70361328125</ele>
        <time>2011-04-20T16:41:02Z</time>
      </trkpt>
      <trkpt lat="31.644431389868259" lon="-3.836747445166111">
        <ele>1061.91357421875</ele>
        <time>2011-04-20T16:41:13Z</time>
      </trkpt>
      <trkpt lat="31.643992345780134" lon="-3.836280405521393">
        <ele>1064.79736328125</ele>
        <time>2011-04-20T16:41:25Z</time>
      </trkpt>
      <trkpt lat="31.643573585897684" lon="-3.835684033110738">
        <ele>1067.20068359375</ele>
        <time>2011-04-20T16:41:36Z</time>
      </trkpt>
      <trkpt lat="31.643455903977156" lon="-3.834923375397921">
        <ele>1070.5654296875</ele>
        <time>2011-04-20T16:41:45Z</time>
      </trkpt>
      <trkpt lat="31.643582219257951" lon="-3.834545519202948">
        <ele>1070.5654296875</ele>
        <time>2011-04-20T16:41:52Z</time>
      </trkpt>
      <trkpt lat="31.64314535446465" lon="-3.834030954167247">
        <ele>1075.8525390625</ele>
        <time>2011-04-20T16:42:32Z</time>
      </trkpt>
      <trkpt lat="31.643197825178504" lon="-3.834341419860721">
        <ele>1064.79736328125</ele>
        <time>2011-04-20T16:43:34Z</time>
      </trkpt>
      <trkpt lat="31.643257085233927" lon="-3.834484918043017">
        <ele>1073.449462890625</ele>
        <time>2011-04-20T16:53:46Z</time>
      </trkpt>
      <trkpt lat="31.643562857061625" lon="-3.834359776228666">
        <ele>1071.526611328125</ele>
        <time>2011-04-20T16:53:56Z</time>
      </trkpt>
      <trkpt lat="31.643939120694995" lon="-3.834144528955221">
        <ele>1069.12353515625</ele>
        <time>2011-04-20T16:54:05Z</time>
      </trkpt>
      <trkpt lat="31.6440131329" lon="-3.833782346919179">
        <ele>1068.162109375</ele>
        <time>2011-04-20T16:54:12Z</time>
      </trkpt>
      <trkpt lat="31.643929397687316" lon="-3.833552096039057">
        <ele>1068.642822265625</ele>
        <time>2011-04-20T16:54:20Z</time>
      </trkpt>
      <trkpt lat="31.643757987767458" lon="-3.833501636981964">
        <ele>1068.642822265625</ele>
        <time>2011-04-20T16:54:30Z</time>
      </trkpt>
      <trkpt lat="31.643552295863628" lon="-3.833262082189322">
        <ele>1066.719970703125</ele>
        <time>2011-04-20T16:54:37Z</time>
      </trkpt>
      <trkpt lat="31.643416173756123" lon="-3.833010122179985">
        <ele>1068.162109375</ele>
        <time>2011-04-20T16:54:44Z</time>
      </trkpt>
      <trkpt lat="31.64325918070972" lon="-3.833101484924555">
        <ele>1071.046142578125</ele>
        <time>2011-04-20T16:55:15Z</time>
      </trkpt>
      <trkpt lat="31.643112329766154" lon="-3.833340452983975">
        <ele>1068.162109375</ele>
        <time>2011-04-20T16:55:24Z</time>
      </trkpt>
      <trkpt lat="31.643088022246957" lon="-3.833499122411013">
        <ele>1067.68115234375</ele>
        <time>2011-04-20T16:55:29Z</time>
      </trkpt>
      <trkpt lat="31.642975369468331" lon="-3.833450842648745">
        <ele>1067.68115234375</ele>
        <time>2011-04-20T16:55:33Z</time>
      </trkpt>
      <trkpt lat="31.642727181315422" lon="-3.833321593701839">
        <ele>1068.162109375</ele>
        <time>2011-04-20T16:55:40Z</time>
      </trkpt>
      <trkpt lat="31.642403472214937" lon="-3.833556370809674">
        <ele>1066.719970703125</ele>
        <time>2011-04-20T16:55:47Z</time>
      </trkpt>
      <trkpt lat="31.64215637370944" lon="-3.833707077428699">
        <ele>1065.278076171875</ele>
        <time>2011-04-20T16:55:52Z</time>
      </trkpt>
      <trkpt lat="31.64178254082799" lon="-3.833904471248388">
        <ele>1064.316650390625</ele>
        <time>2011-04-20T16:56:01Z</time>
      </trkpt>
      <trkpt lat="31.641681035980582" lon="-3.833934059366584">
        <ele>1064.79736328125</ele>
        <time>2011-04-20T16:56:06Z</time>
      </trkpt>
      <trkpt lat="31.641520773991942" lon="-3.83395534940064">
        <ele>1065.278076171875</ele>
        <time>2011-04-20T16:56:14Z</time>
      </trkpt>
      <trkpt lat="31.641408372670412" lon="-3.834078395739198">
        <ele>1065.278076171875</ele>
        <time>2011-04-20T16:56:18Z</time>
      </trkpt>
      <trkpt lat="31.641059517860413" lon="-3.834235640242696">
        <ele>1063.8359375</ele>
        <time>2011-04-20T16:56:27Z</time>
      </trkpt>
      <trkpt lat="31.640861034393311" lon="-3.834319626912475">
        <ele>1063.35546875</ele>
        <time>2011-04-20T16:56:34Z</time>
      </trkpt>
      <trkpt lat="31.64064209908247" lon="-3.834432531148195">
        <ele>1064.316650390625</ele>
        <time>2011-04-20T16:56:41Z</time>
      </trkpt>
      <trkpt lat="31.640245467424393" lon="-3.834676863625646">
        <ele>1068.162109375</ele>
        <time>2011-04-20T16:56:49Z</time>
      </trkpt>
      <trkpt lat="31.639687651768327" lon="-3.834975427016616">
        <ele>1069.12353515625</ele>
        <time>2011-04-20T16:56:59Z</time>
      </trkpt>
      <trkpt lat="31.639492772519588" lon="-3.835146920755506">
        <ele>1063.8359375</ele>
        <time>2011-04-20T16:57:07Z</time>
      </trkpt>
      <trkpt lat="31.639362098649144" lon="-3.8351696357131">
        <ele>1059.029541015625</ele>
        <time>2011-04-20T16:57:20Z</time>
      </trkpt>
      <trkpt lat="31.639242824167013" lon="-3.835153626278043">
        <ele>1054.70361328125</ele>
        <time>2011-04-20T16:57:27Z</time>
      </trkpt>
      <trkpt lat="31.639087675139308" lon="-3.835263093933463">
        <ele>1052.781005859375</ele>
        <time>2011-04-20T16:57:37Z</time>
      </trkpt>
      <trkpt lat="31.638882653787732" lon="-3.835257980972529">
        <ele>1059.51025390625</ele>
        <time>2011-04-20T16:57:46Z</time>
      </trkpt>
      <trkpt lat="31.638549892231822" lon="-3.835321767255664">
        <ele>1059.99072265625</ele>
        <time>2011-04-20T16:57:55Z</time>
      </trkpt>
      <trkpt lat="31.638421732932329" lon="-3.83538362570107">
        <ele>1063.35546875</ele>
        <time>2011-04-20T16:57:59Z</time>
      </trkpt>
      <trkpt lat="31.63805971853435" lon="-3.835731977596879">
        <ele>1060.9521484375</ele>
        <time>2011-04-20T16:58:09Z</time>
      </trkpt>
      <trkpt lat="31.637964332476258" lon="-3.835821161046624">
        <ele>1059.029541015625</ele>
        <time>2011-04-20T16:58:15Z</time>
      </trkpt>
      <trkpt lat="31.637638360261917" lon="-3.836105642840266">
        <ele>1056.1455078125</ele>
        <time>2011-04-20T16:58:25Z</time>
      </trkpt>
      <trkpt lat="31.637562839314342" lon="-3.836259199306369">
        <ele>1054.22314453125</ele>
        <time>2011-04-20T16:58:33Z</time>
      </trkpt>
      <trkpt lat="31.637224042788148" lon="-3.836451480165124">
        <ele>1053.26171875</ele>
        <time>2011-04-20T16:58:41Z</time>
      </trkpt>
      <trkpt lat="31.637137373909354" lon="-3.836484672501683">
        <ele>1053.742431640625</ele>
        <time>2011-04-20T16:58:43Z</time>
      </trkpt>
      <trkpt lat="31.636856244876981" lon="-3.836481487378478">
        <ele>1060.471435546875</ele>
        <time>2011-04-20T16:58:49Z</time>
      </trkpt>
      <trkpt lat="31.636653067544103" lon="-3.83638383820653">
        <ele>1065.278076171875</ele>
        <time>2011-04-20T16:58:54Z</time>
      </trkpt>
      <trkpt lat="31.636482831090689" lon="-3.836352657526732">
        <ele>1069.12353515625</ele>
        <time>2011-04-20T16:58:58Z</time>
      </trkpt>
      <trkpt lat="31.636281497776508" lon="-3.836280489340425">
        <ele>1072.488037109375</ele>
        <time>2011-04-20T16:59:02Z</time>
      </trkpt>
      <trkpt lat="31.636174377053976" lon="-3.836237154901028">
        <ele>1073.449462890625</ele>
        <time>2011-04-20T16:59:04Z</time>
      </trkpt>
      <trkpt lat="31.636002883315086" lon="-3.836228437721729">
        <ele>1075.8525390625</ele>
        <time>2011-04-20T16:59:08Z</time>
      </trkpt>
      <trkpt lat="31.635620081797242" lon="-3.836381323635578">
        <ele>1073.449462890625</ele>
        <time>2011-04-20T16:59:20Z</time>
      </trkpt>
      <trkpt lat="31.635505249723792" lon="-3.836437230929732">
        <ele>1072.488037109375</ele>
        <time>2011-04-20T16:59:26Z</time>
      </trkpt>
      <trkpt lat="31.635401984676719" lon="-3.836458353325725">
        <ele>1069.12353515625</ele>
        <time>2011-04-20T16:59:37Z</time>
      </trkpt>
      <trkpt lat="31.635142061859369" lon="-3.836614424362779">
        <ele>1070.084716796875</ele>
        <time>2011-04-20T16:59:45Z</time>
      </trkpt>
      <trkpt lat="31.634844420477748" lon="-3.836820367723703">
        <ele>1072.96875</ele>
        <time>2011-04-20T16:59:54Z</time>
      </trkpt>
      <trkpt lat="31.634820867329836" lon="-3.836949532851577">
        <ele>1072.488037109375</ele>
        <time>2011-04-20T16:59:57Z</time>
      </trkpt>
      <trkpt lat="31.634759930893779" lon="-3.837239546701312">
        <ele>1074.41064453125</ele>
        <time>2011-04-20T17:00:03Z</time>
      </trkpt>
      <trkpt lat="31.634764457121491" lon="-3.837483627721667">
        <ele>1077.294677734375</ele>
        <time>2011-04-20T17:00:07Z</time>
      </trkpt>
      <trkpt lat="31.634955732151866" lon="-3.838235149160028">
        <ele>1082.581787109375</ele>
        <time>2011-04-20T17:00:16Z</time>
      </trkpt>
      <trkpt lat="31.635112389922142" lon="-3.838872676715255">
        <ele>1084.504638671875</ele>
        <time>2011-04-20T17:00:24Z</time>
      </trkpt>
      <trkpt lat="31.635227221995592" lon="-3.839075854048133">
        <ele>1084.02392578125</ele>
        <time>2011-04-20T17:00:29Z</time>
      </trkpt>
      <trkpt lat="31.635202746838331" lon="-3.839396629482508">
        <ele>1085.4658203125</ele>
        <time>2011-04-20T17:00:35Z</time>
      </trkpt>
      <trkpt lat="31.634618695825338" lon="-3.839835422113538">
        <ele>1086.42724609375</ele>
        <time>2011-04-20T17:00:47Z</time>
      </trkpt>
      <trkpt lat="31.634508473798633" lon="-3.840099284425378">
        <ele>1086.42724609375</ele>
        <time>2011-04-20T17:00:53Z</time>
      </trkpt>
      <trkpt lat="31.634633950889111" lon="-3.840250242501497">
        <ele>1084.9853515625</ele>
        <time>2011-04-20T17:00:57Z</time>
      </trkpt>
      <trkpt lat="31.634914828464389" lon="-3.8404262624681">
        <ele>1084.504638671875</ele>
        <time>2011-04-20T17:01:06Z</time>
      </trkpt>
      <trkpt lat="31.635024547576904" lon="-3.840554924681783">
        <ele>1076.81396484375</ele>
        <time>2011-04-20T17:01:33Z</time>
      </trkpt>
      <trkpt lat="31.635092943906784" lon="-3.840626757591963">
        <ele>1078.255859375</ele>
        <time>2011-04-20T17:01:50Z</time>
      </trkpt>
      <trkpt lat="31.63529209792614" lon="-3.840708648785949">
        <ele>1080.6591796875</ele>
        <time>2011-04-20T17:02:06Z</time>
      </trkpt>
      <trkpt lat="31.635395362973213" lon="-3.840736644342542">
        <ele>1081.139892578125</ele>
        <time>2011-04-20T17:02:27Z</time>
      </trkpt>
      <trkpt lat="31.635486725717783" lon="-3.840777883306146">
        <ele>1079.217041015625</ele>
        <time>2011-04-20T17:03:01Z</time>
      </trkpt>
      <trkpt lat="31.635657297447324" lon="-3.840882489457727">
        <ele>1073.449462890625</ele>
        <time>2011-04-20T17:07:01Z</time>
      </trkpt>
      <trkpt lat="31.635835748165846" lon="-3.8410927914083">
        <ele>1074.41064453125</ele>
        <time>2011-04-20T17:07:06Z</time>
      </trkpt>
      <trkpt lat="31.635950244963169" lon="-3.841261519119144">
        <ele>1074.891357421875</ele>
        <time>2011-04-20T17:07:09Z</time>
      </trkpt>
      <trkpt lat="31.636073458939791" lon="-3.841495122760534">
        <ele>1077.294677734375</ele>
        <time>2011-04-20T17:07:13Z</time>
      </trkpt>
      <trkpt lat="31.636150823906064" lon="-3.841587156057358">
        <ele>1079.69775390625</ele>
        <time>2011-04-20T17:07:19Z</time>
      </trkpt>
      <trkpt lat="31.636305553838611" lon="-3.841711627319455">
        <ele>1083.062255859375</ele>
        <time>2011-04-20T17:07:30Z</time>
      </trkpt>
      <trkpt lat="31.636665472760797" lon="-3.841875661164522">
        <ele>1082.10107421875</ele>
        <time>2011-04-20T17:07:38Z</time>
      </trkpt>
      <trkpt lat="31.63682984188199" lon="-3.841947996988893">
        <ele>1075.8525390625</ele>
        <time>2011-04-20T17:08:17Z</time>
      </trkpt>
      <trkpt lat="31.637219181284308" lon="-3.842188976705074">
        <ele>1074.891357421875</ele>
        <time>2011-04-20T17:08:28Z</time>
      </trkpt>
      <trkpt lat="31.637316746637225" lon="-3.842253433540463">
        <ele>1074.41064453125</ele>
        <time>2011-04-20T17:08:30Z</time>
      </trkpt>
      <trkpt lat="31.637414060533047" lon="-3.842334235087037">
        <ele>1074.41064453125</ele>
        <time>2011-04-20T17:08:32Z</time>
      </trkpt>
      <trkpt lat="31.637643724679947" lon="-3.842419562861323">
        <ele>1075.8525390625</ele>
        <time>2011-04-20T17:08:36Z</time>
      </trkpt>
      <trkpt lat="31.638116631656885" lon="-3.84237689897418">
        <ele>1074.891357421875</ele>
        <time>2011-04-20T17:08:42Z</time>
      </trkpt>
      <trkpt lat="31.638739993795753" lon="-3.84255476295948">
        <ele>1076.333251953125</ele>
        <time>2011-04-20T17:08:50Z</time>
      </trkpt>
      <trkpt lat="31.638849964365363" lon="-3.842648724094033">
        <ele>1078.255859375</ele>
        <time>2011-04-20T17:08:52Z</time>
      </trkpt>
      <trkpt lat="31.639201836660504" lon="-3.843069327995181">
        <ele>1081.139892578125</ele>
        <time>2011-04-20T17:09:00Z</time>
      </trkpt>
      <trkpt lat="31.63950115442276" lon="-3.843673998489976">
        <ele>1084.504638671875</ele>
        <time>2011-04-20T17:09:08Z</time>
      </trkpt>
      <trkpt lat="31.639620261266828" lon="-3.843915816396475">
        <ele>1084.9853515625</ele>
        <time>2011-04-20T17:09:13Z</time>
      </trkpt>
      <trkpt lat="31.639721849933267" lon="-3.844210524111986">
        <ele>1085.946533203125</ele>
        <time>2011-04-20T17:09:17Z</time>
      </trkpt>
      <trkpt lat="31.640075147151947" lon="-3.844740595668554">
        <ele>1086.90771484375</ele>
        <time>2011-04-20T17:09:25Z</time>
      </trkpt>
      <trkpt lat="31.640435485169291" lon="-3.845209563151002">
        <ele>1086.90771484375</ele>
        <time>2011-04-20T17:09:32Z</time>
      </trkpt>
      <trkpt lat="31.640527183189988" lon="-3.845341075211763">
        <ele>1087.388427734375</ele>
        <time>2011-04-20T17:09:36Z</time>
      </trkpt>
      <trkpt lat="31.640700688585639" lon="-3.845837116241455">
        <ele>1088.349853515625</ele>
        <time>2011-04-20T17:09:44Z</time>
      </trkpt>
      <trkpt lat="31.640789788216352" lon="-3.846061918884516">
        <ele>1090.2724609375</ele>
        <time>2011-04-20T17:09:50Z</time>
      </trkpt>
      <trkpt lat="31.640887688845396" lon="-3.84629275649786">
        <ele>1091.71435546875</ele>
        <time>2011-04-20T17:09:56Z</time>
      </trkpt>
      <trkpt lat="31.640976117923856" lon="-3.846463328227401">
        <ele>1102.76953125</ele>
        <time>2011-04-20T17:16:28Z</time>
      </trkpt>
      <trkpt lat="31.641161357983947" lon="-3.846844537183642">
        <ele>1102.76953125</ele>
        <time>2011-04-20T17:16:35Z</time>
      </trkpt>
      <trkpt lat="31.641218522563577" lon="-3.847262961789966">
        <ele>1099.40478515625</ele>
        <time>2011-04-20T17:16:45Z</time>
      </trkpt>
      <trkpt lat="31.641239728778601" lon="-3.847865620627999">
        <ele>1095.078857421875</ele>
        <time>2011-04-20T17:16:55Z</time>
      </trkpt>
      <trkpt lat="31.640985924750566" lon="-3.848440954461694">
        <ele>1090.2724609375</ele>
        <time>2011-04-20T17:17:04Z</time>
      </trkpt>
      <trkpt lat="31.640703538432717" lon="-3.848781595006585">
        <ele>1088.349853515625</ele>
        <time>2011-04-20T17:17:10Z</time>
      </trkpt>
      <trkpt lat="31.640083361417055" lon="-3.849077392369509">
        <ele>1087.388427734375</ele>
        <time>2011-04-20T17:17:21Z</time>
      </trkpt>
      <trkpt lat="31.639587320387363" lon="-3.849290041252971">
        <ele>1086.90771484375</ele>
        <time>2011-04-20T17:17:30Z</time>
      </trkpt>
      <trkpt lat="31.639374252408743" lon="-3.849645350128412">
        <ele>1087.388427734375</ele>
        <time>2011-04-20T17:17:37Z</time>
      </trkpt>
      <trkpt lat="31.639382382854819" lon="-3.850116496905685">
        <ele>1087.388427734375</ele>
        <time>2011-04-20T17:17:45Z</time>
      </trkpt>
      <trkpt lat="31.63942152634263" lon="-3.850433668121696">
        <ele>1087.869140625</ele>
        <time>2011-04-20T17:17:53Z</time>
      </trkpt>
      <trkpt lat="31.639534179121256" lon="-3.850812278687954">
        <ele>1089.791748046875</ele>
        <time>2011-04-20T17:18:02Z</time>
      </trkpt>
      <trkpt lat="31.639714725315571" lon="-3.851362634450197">
        <ele>1093.15625</ele>
        <time>2011-04-20T17:18:12Z</time>
      </trkpt>
      <trkpt lat="31.639768537133932" lon="-3.851595399901271">
        <ele>1095.078857421875</ele>
        <time>2011-04-20T17:18:21Z</time>
      </trkpt>
      <trkpt lat="31.639817235991359" lon="-3.851826572790742">
        <ele>1097.482177734375</ele>
        <time>2011-04-20T17:18:30Z</time>
      </trkpt>
      <trkpt lat="31.639884375035763" lon="-3.852389752864838">
        <ele>1098.924072265625</ele>
        <time>2011-04-20T17:18:37Z</time>
      </trkpt>
      <trkpt lat="31.639776080846786" lon="-3.852898869663477">
        <ele>1096.040283203125</ele>
        <time>2011-04-20T17:18:45Z</time>
      </trkpt>
      <trkpt lat="31.639809021726251" lon="-3.85312233120203">
        <ele>1093.15625</ele>
        <time>2011-04-20T17:18:53Z</time>
      </trkpt>
      <trkpt lat="31.639988729730248" lon="-3.853475963696837">
        <ele>1093.636962890625</ele>
        <time>2011-04-20T17:18:59Z</time>
      </trkpt>
      <trkpt lat="31.640130886808038" lon="-3.853845354169607">
        <ele>1095.078857421875</ele>
        <time>2011-04-20T17:19:07Z</time>
      </trkpt>
      <trkpt lat="31.640180926769972" lon="-3.854141822084785">
        <ele>1095.5595703125</ele>
        <time>2011-04-20T17:19:15Z</time>
      </trkpt>
      <trkpt lat="31.640156116336584" lon="-3.854684047400951">
        <ele>1093.636962890625</ele>
        <time>2011-04-20T17:19:23Z</time>
      </trkpt>
      <trkpt lat="31.640138849616051" lon="-3.854909185320139">
        <ele>1092.67578125</ele>
        <time>2011-04-20T17:19:30Z</time>
      </trkpt>
      <trkpt lat="31.640196098014712" lon="-3.855373291298747">
        <ele>1093.15625</ele>
        <time>2011-04-20T17:19:38Z</time>
      </trkpt>
      <trkpt lat="31.640233648940921" lon="-3.855911158025265">
        <ele>1092.67578125</ele>
        <time>2011-04-20T17:19:46Z</time>
      </trkpt>
      <trkpt lat="31.64016324095428" lon="-3.85620754212141">
        <ele>1091.233642578125</ele>
        <time>2011-04-20T17:19:55Z</time>
      </trkpt>
      <trkpt lat="31.640089647844434" lon="-3.856581961736083">
        <ele>1094.11767578125</ele>
        <time>2011-04-20T17:20:03Z</time>
      </trkpt>
      <trkpt lat="31.640171790495515" lon="-3.856741134077311">
        <ele>1094.59814453125</ele>
        <time>2011-04-20T17:20:07Z</time>
      </trkpt>
      <trkpt lat="31.640375219285488" lon="-3.857257543131709">
        <ele>1093.636962890625</ele>
        <time>2011-04-20T17:20:16Z</time>
      </trkpt>
      <trkpt lat="31.640295758843422" lon="-3.857495421543717">
        <ele>1091.71435546875</ele>
        <time>2011-04-20T17:20:23Z</time>
      </trkpt>
      <trkpt lat="31.640144633129239" lon="-3.857539677992463">
        <ele>1091.233642578125</ele>
        <time>2011-04-20T17:20:27Z</time>
      </trkpt>
      <trkpt lat="31.63997364230454" lon="-3.857557196170092">
        <ele>1090.2724609375</ele>
        <time>2011-04-20T17:20:52Z</time>
      </trkpt>
      <trkpt lat="31.639523031190038" lon="-3.857796331867576">
        <ele>1089.791748046875</ele>
        <time>2011-04-20T17:21:03Z</time>
      </trkpt>
      <trkpt lat="31.639438038691878" lon="-3.857957432046533">
        <ele>1090.2724609375</ele>
        <time>2011-04-20T17:21:06Z</time>
      </trkpt>
      <trkpt lat="31.63928959518671" lon="-3.858414245769382">
        <ele>1089.791748046875</ele>
        <time>2011-04-20T17:21:13Z</time>
      </trkpt>
      <trkpt lat="31.639013746753335" lon="-3.858711635693908">
        <ele>1088.83056640625</ele>
        <time>2011-04-20T17:21:20Z</time>
      </trkpt>
      <trkpt lat="31.638643853366375" lon="-3.858630582690239">
        <ele>1088.83056640625</ele>
        <time>2011-04-20T17:21:27Z</time>
      </trkpt>
      <trkpt lat="31.638308996334672" lon="-3.858219869434834">
        <ele>1087.869140625</ele>
        <time>2011-04-20T17:21:36Z</time>
      </trkpt>
      <trkpt lat="31.638141525909305" lon="-3.858089447021484">
        <ele>1088.83056640625</ele>
        <time>2011-04-20T17:21:44Z</time>
      </trkpt>
      <trkpt lat="31.638131719082594" lon="-3.857929687947035">
        <ele>1088.349853515625</ele>
        <time>2011-04-20T17:21:57Z</time>
      </trkpt>
      <trkpt lat="31.638012025505304" lon="-3.857699437066913">
        <ele>1090.7529296875</ele>
        <time>2011-04-20T17:22:05Z</time>
      </trkpt>
      <trkpt lat="31.637599552050233" lon="-3.85759525001049">
        <ele>1090.7529296875</ele>
        <time>2011-04-20T17:22:15Z</time>
      </trkpt>
      <trkpt lat="31.637321691960096" lon="-3.857574965804815">
        <ele>1091.233642578125</ele>
        <time>2011-04-20T17:22:24Z</time>
      </trkpt>
      <trkpt lat="31.636979375034571" lon="-3.857553089037538">
        <ele>1092.67578125</ele>
        <time>2011-04-20T17:22:33Z</time>
      </trkpt>
      <trkpt lat="31.636738730594516" lon="-3.857514699921012">
        <ele>1089.791748046875</ele>
        <time>2011-04-20T17:22:41Z</time>
      </trkpt>
      <trkpt lat="31.636598417535424" lon="-3.857406824827194">
        <ele>1089.791748046875</ele>
        <time>2011-04-20T17:22:48Z</time>
      </trkpt>
      <trkpt lat="31.636689361184835" lon="-3.857564153149724">
        <ele>1094.59814453125</ele>
        <time>2011-04-20T17:25:06Z</time>
      </trkpt>
      <trkpt lat="31.636876529082656" lon="-3.85754931718111">
        <ele>1091.233642578125</ele>
        <time>2011-04-20T17:25:21Z</time>
      </trkpt>
      <trkpt lat="31.637094374746084" lon="-3.857572954148054">
        <ele>1093.636962890625</ele>
        <time>2011-04-20T17:25:28Z</time>
      </trkpt>
      <trkpt lat="31.637401822954416" lon="-3.857602039352059">
        <ele>1091.233642578125</ele>
        <time>2011-04-20T17:25:41Z</time>
      </trkpt>
      <trkpt lat="31.637633834034204" lon="-3.857630537822843">
        <ele>1090.2724609375</ele>
        <time>2011-04-20T17:25:49Z</time>
      </trkpt>
      <trkpt lat="31.637728968635201" lon="-3.857564153149724">
        <ele>1095.5595703125</ele>
        <time>2011-04-20T17:26:14Z</time>
      </trkpt>
      <trkpt lat="31.637905826792121" lon="-3.857613941654563">
        <ele>1099.885498046875</ele>
        <time>2011-04-20T17:26:18Z</time>
      </trkpt>
      <trkpt lat="31.63803624920547" lon="-3.857744531705976">
        <ele>1105.653564453125</ele>
        <time>2011-04-20T17:26:23Z</time>
      </trkpt>
      <trkpt lat="31.638059969991446" lon="-3.858007052913308">
        <ele>1114.30517578125</ele>
        <time>2011-04-20T17:26:29Z</time>
      </trkpt>
      <trkpt lat="31.638180082663894" lon="-3.85816153138876">
        <ele>1119.112060546875</ele>
        <time>2011-04-20T17:26:33Z</time>
      </trkpt>
      <trkpt lat="31.638452159240842" lon="-3.85846939869225">
        <ele>1125.841064453125</ele>
        <time>2011-04-20T17:26:39Z</time>
      </trkpt>
      <trkpt lat="31.638787686824799" lon="-3.858756143599749">
        <ele>1132.570556640625</ele>
        <time>2011-04-20T17:26:46Z</time>
      </trkpt>
      <trkpt lat="31.63912002928555" lon="-3.858562521636486">
        <ele>1131.60888671875</ele>
        <time>2011-04-20T17:26:52Z</time>
      </trkpt>
      <trkpt lat="31.63916646502912" lon="-3.858421118929982">
        <ele>1130.647705078125</ele>
        <time>2011-04-20T17:26:54Z</time>
      </trkpt>
      <trkpt lat="31.639313651248813" lon="-3.857920384034514">
        <ele>1128.244384765625</ele>
        <time>2011-04-20T17:27:01Z</time>
      </trkpt>
      <trkpt lat="31.639543147757649" lon="-3.857683762907982">
        <ele>1126.802490234375</ele>
        <time>2011-04-20T17:27:06Z</time>
      </trkpt>
      <trkpt lat="31.63966728374362" lon="-3.857626430690289">
        <ele>1126.802490234375</ele>
        <time>2011-04-20T17:27:08Z</time>
      </trkpt>
      <trkpt lat="31.639934498816729" lon="-3.857563566416502">
        <ele>1125.841064453125</ele>
        <time>2011-04-20T17:27:12Z</time>
      </trkpt>
      <trkpt lat="31.640144297853112" lon="-3.857418727129698">
        <ele>1123.43798828125</ele>
        <time>2011-04-20T17:27:19Z</time>
      </trkpt>
      <trkpt lat="31.640096521005034" lon="-3.857134748250246">
        <ele>1119.112060546875</ele>
        <time>2011-04-20T17:27:24Z</time>
      </trkpt>
      <trkpt lat="31.639853529632092" lon="-3.856688579544425">
        <ele>1115.747314453125</ele>
        <time>2011-04-20T17:27:32Z</time>
      </trkpt>
      <trkpt lat="31.639825198799372" lon="-3.856449024751782">
        <ele>1112.86328125</ele>
        <time>2011-04-20T17:27:37Z</time>
      </trkpt>
      <trkpt lat="31.639855792745948" lon="-3.856200333684683">
        <ele>1106.134033203125</ele>
        <time>2011-04-20T17:27:44Z</time>
      </trkpt>
      <trkpt lat="31.639863252639771" lon="-3.856073934584856">
        <ele>1104.692138671875</ele>
        <time>2011-04-20T17:27:48Z</time>
      </trkpt>
      <trkpt lat="31.639919998124242" lon="-3.855739831924439">
        <ele>1106.61474609375</ele>
        <time>2011-04-20T17:27:54Z</time>
      </trkpt>
      <trkpt lat="31.639829473569989" lon="-3.855143375694752">
        <ele>1102.288818359375</ele>
        <time>2011-04-20T17:28:04Z</time>
      </trkpt>
      <trkpt lat="31.639807345345616" lon="-3.854847075417638">
        <ele>1098.924072265625</ele>
        <time>2011-04-20T17:28:12Z</time>
      </trkpt>
      <trkpt lat="31.639832155779004" lon="-3.854562342166901">
        <ele>1097.962890625</ele>
        <time>2011-04-20T17:28:18Z</time>
      </trkpt>
      <trkpt lat="31.639832574874163" lon="-3.854066720232368">
        <ele>1096.52099609375</ele>
        <time>2011-04-20T17:28:26Z</time>
      </trkpt>
      <trkpt lat="31.639788150787354" lon="-3.853870667517185">
        <ele>1093.15625</ele>
        <time>2011-04-20T17:28:35Z</time>
      </trkpt>
      <trkpt lat="31.639629146084189" lon="-3.853519046679139">
        <ele>1090.2724609375</ele>
        <time>2011-04-20T17:28:41Z</time>
      </trkpt>
      <trkpt lat="31.639454551041126" lon="-3.853177316486836">
        <ele>1086.42724609375</ele>
        <time>2011-04-20T17:28:49Z</time>
      </trkpt>
      <trkpt lat="31.63944105617702" lon="-3.852962823584676">
        <ele>1084.02392578125</ele>
        <time>2011-04-20T17:28:57Z</time>
      </trkpt>
      <trkpt lat="31.63952462375164" lon="-3.852608520537615">
        <ele>1082.581787109375</ele>
        <time>2011-04-20T17:29:02Z</time>
      </trkpt>
      <trkpt lat="31.639462681487203" lon="-3.851891616359353">
        <ele>1080.178466796875</ele>
        <time>2011-04-20T17:29:10Z</time>
      </trkpt>
      <trkpt lat="31.639414066448808" lon="-3.85167645290494">
        <ele>1078.255859375</ele>
        <time>2011-04-20T17:29:16Z</time>
      </trkpt>
      <trkpt lat="31.639308286830783" lon="-3.851281329989433">
        <ele>1075.371826171875</ele>
        <time>2011-04-20T17:29:24Z</time>
      </trkpt>
      <trkpt lat="31.639130255207419" lon="-3.850803393870592">
        <ele>1072.488037109375</ele>
        <time>2011-04-20T17:29:33Z</time>
      </trkpt>
      <trkpt lat="31.639052638784051" lon="-3.850388992577791">
        <ele>1071.526611328125</ele>
        <time>2011-04-20T17:29:42Z</time>
      </trkpt>
      <trkpt lat="31.639044340699911" lon="-3.849893286824226">
        <ele>1073.929931640625</ele>
        <time>2011-04-20T17:29:51Z</time>
      </trkpt>
      <trkpt lat="31.639050794765353" lon="-3.849763367325068">
        <ele>1074.41064453125</ele>
        <time>2011-04-20T17:29:53Z</time>
      </trkpt>
      <trkpt lat="31.639258498325944" lon="-3.849450889974833">
        <ele>1072.488037109375</ele>
        <time>2011-04-20T17:30:00Z</time>
      </trkpt>
      <trkpt lat="31.640048492699862" lon="-3.84900413453579">
        <ele>1090.2724609375</ele>
        <time>2011-04-20T17:30:12Z</time>
      </trkpt>
      <trkpt lat="31.640352420508862" lon="-3.848822247236967">
        <ele>1092.67578125</ele>
        <time>2011-04-20T17:30:16Z</time>
      </trkpt>
      <trkpt lat="31.640707226470113" lon="-3.848327379673719">
        <ele>1093.636962890625</ele>
        <time>2011-04-20T17:30:22Z</time>
      </trkpt>
      <trkpt lat="31.640909481793642" lon="-3.847727151587606">
        <ele>1088.83056640625</ele>
        <time>2011-04-20T17:30:30Z</time>
      </trkpt>
      <trkpt lat="31.640859944745898" lon="-3.847305038943887">
        <ele>1087.869140625</ele>
        <time>2011-04-20T17:30:37Z</time>
      </trkpt>
      <trkpt lat="31.640806635841727" lon="-3.846972277387977">
        <ele>1085.4658203125</ele>
        <time>2011-04-20T17:30:44Z</time>
      </trkpt>
      <trkpt lat="31.640709070488811" lon="-3.846674636006355">
        <ele>1083.54296875</ele>
        <time>2011-04-20T17:30:49Z</time>
      </trkpt>
      <trkpt lat="31.640445124357939" lon="-3.846171470358968">
        <ele>1080.178466796875</ele>
        <time>2011-04-20T17:30:58Z</time>
      </trkpt>
      <trkpt lat="31.640387373045087" lon="-3.846054542809725">
        <ele>1075.8525390625</ele>
        <time>2011-04-20T17:31:08Z</time>
      </trkpt>
      <trkpt lat="31.640297854319215" lon="-3.845849689096212">
        <ele>1073.929931640625</ele>
        <time>2011-04-20T17:31:14Z</time>
      </trkpt>
      <trkpt lat="31.640201630070806" lon="-3.845552299171686">
        <ele>1072.488037109375</ele>
        <time>2011-04-20T17:31:19Z</time>
      </trkpt>
      <trkpt lat="31.640049079433084" lon="-3.845313834026456">
        <ele>1073.929931640625</ele>
        <time>2011-04-20T17:31:27Z</time>
      </trkpt>
      <trkpt lat="31.639880519360304" lon="-3.84509464725852">
        <ele>1074.891357421875</ele>
        <time>2011-04-20T17:31:32Z</time>
      </trkpt>
      <trkpt lat="31.639474080875516" lon="-3.844562228769064">
        <ele>1077.294677734375</ele>
        <time>2011-04-20T17:31:41Z</time>
      </trkpt>
      <trkpt lat="31.639249864965677" lon="-3.844034839421511">
        <ele>1076.333251953125</ele>
        <time>2011-04-20T17:31:49Z</time>
      </trkpt>
      <trkpt lat="31.638952223584056" lon="-3.843397228047252">
        <ele>1075.371826171875</ele>
        <time>2011-04-20T17:31:58Z</time>
      </trkpt>
      <trkpt lat="31.638605128973722" lon="-3.842924991622567">
        <ele>1075.371826171875</ele>
        <time>2011-04-20T17:32:06Z</time>
      </trkpt>
      <trkpt lat="31.638262644410133" lon="-3.842638665810227">
        <ele>1072.96875</ele>
        <time>2011-04-20T17:32:14Z</time>
      </trkpt>
      <trkpt lat="31.638002637773752" lon="-3.842558870092034">
        <ele>1072.96875</ele>
        <time>2011-04-20T17:32:18Z</time>
      </trkpt>
      <trkpt lat="31.63730819709599" lon="-3.842547386884689">
        <ele>1079.69775390625</ele>
        <time>2011-04-20T17:32:29Z</time>
      </trkpt>
      <trkpt lat="31.636873260140419" lon="-3.84228402748704">
        <ele>1080.6591796875</ele>
        <time>2011-04-20T17:32:37Z</time>
      </trkpt>
      <trkpt lat="31.636601183563471" lon="-3.842109264805913">
        <ele>1079.217041015625</ele>
        <time>2011-04-20T17:32:43Z</time>
      </trkpt>
      <trkpt lat="31.636124840006232" lon="-3.841886222362518">
        <ele>1076.333251953125</ele>
        <time>2011-04-20T17:32:52Z</time>
      </trkpt>
      <trkpt lat="31.6358173917979" lon="-3.841710370033979">
        <ele>1074.41064453125</ele>
        <time>2011-04-20T17:33:01Z</time>
      </trkpt>
      <trkpt lat="31.635614382103086" lon="-3.841363526880741">
        <ele>1073.929931640625</ele>
        <time>2011-04-20T17:33:08Z</time>
      </trkpt>
      <trkpt lat="31.635439535602927" lon="-3.841099748387933">
        <ele>1070.5654296875</ele>
        <time>2011-04-20T17:33:16Z</time>
      </trkpt>
      <trkpt lat="31.635164357721806" lon="-3.840950131416321">
        <ele>1071.046142578125</ele>
        <time>2011-04-20T17:33:25Z</time>
      </trkpt>
      <trkpt lat="31.634971741586924" lon="-3.840866480022669">
        <ele>1077.775146484375</ele>
        <time>2011-04-20T17:33:34Z</time>
      </trkpt>
      <trkpt lat="31.634851880371571" lon="-3.840750474482775">
        <ele>1086.90771484375</ele>
        <time>2011-04-20T17:33:55Z</time>
      </trkpt>
      <trkpt lat="31.634639985859394" lon="-3.840561546385288">
        <ele>1084.9853515625</ele>
        <time>2011-04-20T17:34:14Z</time>
      </trkpt>
      <trkpt lat="31.634480142965913" lon="-3.840484265238047">
        <ele>1081.139892578125</ele>
        <time>2011-04-20T17:34:35Z</time>
      </trkpt>
      <trkpt lat="31.634301943704486" lon="-3.840378317981958">
        <ele>1080.6591796875</ele>
        <time>2011-04-20T17:34:40Z</time>
      </trkpt>
      <trkpt lat="31.634243940934539" lon="-3.840089393779635">
        <ele>1079.69775390625</ele>
        <time>2011-04-20T17:34:46Z</time>
      </trkpt>
      <trkpt lat="31.634430773556232" lon="-3.839913876727223">
        <ele>1081.139892578125</ele>
        <time>2011-04-20T17:34:49Z</time>
      </trkpt>
      <trkpt lat="31.634673764929175" lon="-3.839746238663793">
        <ele>1083.062255859375</ele>
        <time>2011-04-20T17:34:52Z</time>
      </trkpt>
      <trkpt lat="31.634958833456039" lon="-3.839321359992027">
        <ele>1080.6591796875</ele>
        <time>2011-04-20T17:34:58Z</time>
      </trkpt>
      <trkpt lat="31.634893119335175" lon="-3.839141232892871">
        <ele>1080.178466796875</ele>
        <time>2011-04-20T17:35:01Z</time>
      </trkpt>
      <trkpt lat="31.634817849844694" lon="-3.839000584557653">
        <ele>1080.6591796875</ele>
        <time>2011-04-20T17:35:03Z</time>
      </trkpt>
      <trkpt lat="31.634626490995288" lon="-3.838197430595756">
        <ele>1078.736572265625</ele>
        <time>2011-04-20T17:35:12Z</time>
      </trkpt>
      <trkpt lat="31.63447754457593" lon="-3.837667694315314">
        <ele>1076.81396484375</ele>
        <time>2011-04-20T17:35:18Z</time>
      </trkpt>
      <trkpt lat="31.634493470191956" lon="-3.83743048645556">
        <ele>1074.41064453125</ele>
        <time>2011-04-20T17:35:22Z</time>
      </trkpt>
      <trkpt lat="31.634554155170918" lon="-3.837127648293972">
        <ele>1067.20068359375</ele>
        <time>2011-04-20T17:35:31Z</time>
      </trkpt>
      <trkpt lat="31.634692624211311" lon="-3.836920531466603">
        <ele>1067.20068359375</ele>
        <time>2011-04-20T17:35:37Z</time>
      </trkpt>
      <trkpt lat="31.635028487071395" lon="-3.836707295849919">
        <ele>1074.891357421875</ele>
        <time>2011-04-20T17:35:49Z</time>
      </trkpt>
      <trkpt lat="31.635330487042665" lon="-3.836577376350761">
        <ele>1082.10107421875</ele>
        <time>2011-04-20T17:35:58Z</time>
      </trkpt>
      <trkpt lat="31.635675318539143" lon="-3.836417282000184">
        <ele>1087.869140625</ele>
        <time>2011-04-20T17:36:08Z</time>
      </trkpt>
      <trkpt lat="31.635848237201571" lon="-3.836364140734077">
        <ele>1089.31103515625</ele>
        <time>2011-04-20T17:36:12Z</time>
      </trkpt>
      <trkpt lat="31.636163480579853" lon="-3.836454078555107">
        <ele>1090.2724609375</ele>
        <time>2011-04-20T17:36:19Z</time>
      </trkpt>
      <trkpt lat="31.636456176638603" lon="-3.83651384152472">
        <ele>1093.15625</ele>
        <time>2011-04-20T17:36:25Z</time>
      </trkpt>
      <trkpt lat="31.636773431673646" lon="-3.836654322221875">
        <ele>1100.846923828125</ele>
        <time>2011-04-20T17:36:33Z</time>
      </trkpt>
      <trkpt lat="31.637021116912365" lon="-3.83663454093039">
        <ele>1101.32763671875</ele>
        <time>2011-04-20T17:36:38Z</time>
      </trkpt>
      <trkpt lat="31.637626038864255" lon="-3.83633254095912">
        <ele>1101.32763671875</ele>
        <time>2011-04-20T17:36:49Z</time>
      </trkpt>
      <trkpt lat="31.637780098244548" lon="-3.836100278422236">
        <ele>1100.846923828125</ele>
        <time>2011-04-20T17:36:55Z</time>
      </trkpt>
      <trkpt lat="31.637861737981439" lon="-3.835943536832929">
        <ele>1099.40478515625</ele>
        <time>2011-04-20T17:37:01Z</time>
      </trkpt>
      <trkpt lat="31.638045888394117" lon="-3.835779838263989">
        <ele>1097.482177734375</ele>
        <time>2011-04-20T17:37:09Z</time>
      </trkpt>
      <trkpt lat="31.638282425701618" lon="-3.835538774728775">
        <ele>1096.52099609375</ele>
        <time>2011-04-20T17:37:19Z</time>
      </trkpt>
      <trkpt lat="31.638565063476563" lon="-3.835430899634957">
        <ele>1097.482177734375</ele>
        <time>2011-04-20T17:37:27Z</time>
      </trkpt>
      <trkpt lat="31.638824818655849" lon="-3.835438443347812">
        <ele>1099.885498046875</ele>
        <time>2011-04-20T17:37:35Z</time>
      </trkpt>
      <trkpt lat="31.638943171128631" lon="-3.835465181618929">
        <ele>1102.288818359375</ele>
        <time>2011-04-20T17:37:44Z</time>
      </trkpt>
      <trkpt lat="31.639124639332294" lon="-3.83536116220057">
        <ele>1106.134033203125</ele>
        <time>2011-04-20T17:38:04Z</time>
      </trkpt>
      <trkpt lat="31.639288673177361" lon="-3.835341297090054">
        <ele>1105.1728515625</ele>
        <time>2011-04-20T17:38:17Z</time>
      </trkpt>
      <trkpt lat="31.639327229931951" lon="-3.83520576171577">
        <ele>1105.653564453125</ele>
        <time>2011-04-20T17:38:22Z</time>
      </trkpt>
      <trkpt lat="31.639377856627107" lon="-3.835091767832637">
        <ele>1108.537353515625</ele>
        <time>2011-04-20T17:38:49Z</time>
      </trkpt>
      <trkpt lat="31.639494951814413" lon="-3.835074752569199">
        <ele>1107.576171875</ele>
        <time>2011-04-20T17:38:51Z</time>
      </trkpt>
      <trkpt lat="31.64010364562273" lon="-3.834774931892753">
        <ele>1106.134033203125</ele>
        <time>2011-04-20T17:39:00Z</time>
      </trkpt>
      <trkpt lat="31.640650983899832" lon="-3.834469327703118">
        <ele>1102.288818359375</ele>
        <time>2011-04-20T17:39:10Z</time>
      </trkpt>
      <trkpt lat="31.640749638900161" lon="-3.834415851160884">
        <ele>1102.76953125</ele>
        <time>2011-04-20T17:39:13Z</time>
      </trkpt>
      <trkpt lat="31.641176696866751" lon="-3.834221474826336">
        <ele>1103.250244140625</ele>
        <time>2011-04-20T17:39:21Z</time>
      </trkpt>
      <trkpt lat="31.641397140920162" lon="-3.834037072956562">
        <ele>1100.846923828125</ele>
        <time>2011-04-20T17:39:27Z</time>
      </trkpt>
      <trkpt lat="31.641580453142524" lon="-3.834043778479099">
        <ele>1102.288818359375</ele>
        <time>2011-04-20T17:39:38Z</time>
      </trkpt>
      <trkpt lat="31.641682460904121" lon="-3.834006143733859">
        <ele>1103.250244140625</ele>
        <time>2011-04-20T17:39:42Z</time>
      </trkpt>
      <trkpt lat="31.641929056495428" lon="-3.833874631673098">
        <ele>1103.250244140625</ele>
        <time>2011-04-20T17:39:48Z</time>
      </trkpt>
      <trkpt lat="31.642124522477388" lon="-3.833736665546894">
        <ele>1103.250244140625</ele>
        <time>2011-04-20T17:39:52Z</time>
      </trkpt>
      <trkpt lat="31.642613941803575" lon="-3.833420919254422">
        <ele>1103.73095703125</ele>
        <time>2011-04-20T17:40:00Z</time>
      </trkpt>
      <trkpt lat="31.642792979255319" lon="-3.833508091047406">
        <ele>1106.134033203125</ele>
        <time>2011-04-20T17:40:04Z</time>
      </trkpt>
      <trkpt lat="31.6429528221488" lon="-3.833608087152243">
        <ele>1109.01806640625</ele>
        <time>2011-04-20T17:40:09Z</time>
      </trkpt>
      <trkpt lat="31.643014345318079" lon="-3.833318240940571">
        <ele>1107.095458984375</ele>
        <time>2011-04-20T17:40:14Z</time>
      </trkpt>
      <trkpt lat="31.643110988661647" lon="-3.833222687244415">
        <ele>1106.134033203125</ele>
        <time>2011-04-20T17:40:16Z</time>
      </trkpt>
      <trkpt lat="31.643219450488687" lon="-3.833142640069127">
        <ele>1108.056884765625</ele>
        <time>2011-04-20T17:40:18Z</time>
      </trkpt>
      <trkpt lat="31.643462693318725" lon="-3.83331136777997">
        <ele>1112.382568359375</ele>
        <time>2011-04-20T17:40:24Z</time>
      </trkpt>
      <trkpt lat="31.644079685211182" lon="-3.833928108215332">
        <ele>1121.03466796875</ele>
        <time>2011-04-20T17:40:31Z</time>
      </trkpt>
      <trkpt lat="31.64387927390635" lon="-3.833744376897812">
        <ele>1124.8798828125</ele>
        <time>2011-04-20T17:40:38Z</time>
      </trkpt>
      <trkpt lat="31.643936857581139" lon="-3.834146289154887">
        <ele>1130.1669921875</ele>
        <time>2011-04-20T17:40:44Z</time>
      </trkpt>
      <trkpt lat="31.64382504299283" lon="-3.834237903356552">
        <ele>1132.08984375</ele>
        <time>2011-04-20T17:40:46Z</time>
      </trkpt>
      <trkpt lat="31.643492700532079" lon="-3.834787840023637">
        <ele>1140.741455078125</ele>
        <time>2011-04-20T17:40:53Z</time>
      </trkpt>
      <trkpt lat="31.643451629206538" lon="-3.835411453619599">
        <ele>1141.702880859375</ele>
        <time>2011-04-20T17:40:59Z</time>
      </trkpt>
      <trkpt lat="31.643639551475644" lon="-3.835787046700716">
        <ele>1143.144775390625</ele>
        <time>2011-04-20T17:41:03Z</time>
      </trkpt>
      <trkpt lat="31.644000476226211" lon="-3.836290882900357">
        <ele>1145.548095703125</ele>
        <time>2011-04-20T17:41:11Z</time>
      </trkpt>
      <trkpt lat="31.64415922947228" lon="-3.836468160152435">
        <ele>1168.13916015625</ele>
        <time>2011-04-20T17:42:11Z</time>
      </trkpt>
      <trkpt lat="31.644526608288288" lon="-3.83684266358614">
        <ele>1170.061767578125</ele>
        <time>2011-04-20T17:42:21Z</time>
      </trkpt>
      <trkpt lat="31.644907398149371" lon="-3.837153883650899">
        <ele>1170.061767578125</ele>
        <time>2011-04-20T17:42:31Z</time>
      </trkpt>
      <trkpt lat="31.645221887156367" lon="-3.837560238316655">
        <ele>1167.658447265625</ele>
        <time>2011-04-20T17:42:37Z</time>
      </trkpt>
      <trkpt lat="31.645702589303255" lon="-3.837880846112967">
        <ele>1165.25537109375</ele>
        <time>2011-04-20T17:42:43Z</time>
      </trkpt>
      <trkpt lat="31.646798942238092" lon="-3.838087962940335">
        <ele>1155.161376953125</ele>
        <time>2011-04-20T17:42:54Z</time>
      </trkpt>
      <trkpt lat="31.647950112819672" lon="-3.838580567389727">
        <ele>1145.0673828125</ele>
        <time>2011-04-20T17:43:06Z</time>
      </trkpt>
      <trkpt lat="31.648503569886088" lon="-3.838512506335974">
        <ele>1142.18359375</ele>
        <time>2011-04-20T17:43:12Z</time>
      </trkpt>
      <trkpt lat="31.648868015035987" lon="-3.838619794696569">
        <ele>1141.22216796875</ele>
        <time>2011-04-20T17:43:17Z</time>
      </trkpt>
      <trkpt lat="31.649611406028271" lon="-3.839008044451475">
        <ele>1139.299560546875</ele>
        <time>2011-04-20T17:43:26Z</time>
      </trkpt>
      <trkpt lat="31.650193948298693" lon="-3.839230751618743">
        <ele>1137.376953125</ele>
        <time>2011-04-20T17:43:33Z</time>
      </trkpt>
      <trkpt lat="31.650688061490655" lon="-3.839742550626397">
        <ele>1136.896240234375</ele>
        <time>2011-04-20T17:43:40Z</time>
      </trkpt>
      <trkpt lat="31.651402786374092" lon="-3.840363565832377">
        <ele>1138.819091796875</ele>
        <time>2011-04-20T17:43:50Z</time>
      </trkpt>
      <trkpt lat="31.651898492127657" lon="-3.840995896607637">
        <ele>1141.702880859375</ele>
        <time>2011-04-20T17:43:59Z</time>
      </trkpt>
      <trkpt lat="31.652160929515958" lon="-3.841373836621642">
        <ele>1144.106201171875</ele>
        <time>2011-04-20T17:44:04Z</time>
      </trkpt>
      <trkpt lat="31.652223207056522" lon="-3.841671561822295">
        <ele>1146.509521484375</ele>
        <time>2011-04-20T17:44:08Z</time>
      </trkpt>
      <trkpt lat="31.652451865375042" lon="-3.841976495459676">
        <ele>1147.470703125</ele>
        <time>2011-04-20T17:44:15Z</time>
      </trkpt>
      <trkpt lat="31.65261740796268" lon="-3.842059392482042">
        <ele>1141.702880859375</ele>
        <time>2011-04-20T17:44:22Z</time>
      </trkpt>
      <trkpt lat="31.652813293039799" lon="-3.842354854568839">
        <ele>1112.382568359375</ele>
        <time>2011-04-20T17:44:43Z</time>
      </trkpt>
      <trkpt lat="31.652942961081862" lon="-3.842721646651626">
        <ele>1098.443359375</ele>
        <time>2011-04-20T17:44:49Z</time>
      </trkpt>
      <trkpt lat="31.653048573061824" lon="-3.843258004635572">
        <ele>1084.02392578125</ele>
        <time>2011-04-20T17:44:58Z</time>
      </trkpt>
      <trkpt lat="31.653070449829102" lon="-3.843823112547398">
        <ele>1076.333251953125</ele>
        <time>2011-04-20T17:45:06Z</time>
      </trkpt>
      <trkpt lat="31.653070449829102" lon="-3.845007475465536">
        <ele>1066.719970703125</ele>
        <time>2011-04-20T17:45:18Z</time>
      </trkpt>
      <trkpt lat="31.65288713760674" lon="-3.846261156722903">
        <ele>1059.99072265625</ele>
        <time>2011-04-20T17:45:29Z</time>
      </trkpt>
      <trkpt lat="31.652624784037471" lon="-3.847862938418984">
        <ele>1054.22314453125</ele>
        <time>2011-04-20T17:45:42Z</time>
      </trkpt>
      <trkpt lat="31.65243124589324" lon="-3.848991561681032">
        <ele>1050.377685546875</ele>
        <time>2011-04-20T17:45:53Z</time>
      </trkpt>
      <trkpt lat="31.652211137115955" lon="-3.849963694810867">
        <ele>1046.0517578125</ele>
        <time>2011-04-20T17:46:02Z</time>
      </trkpt>
      <trkpt lat="31.651850380003452" lon="-3.850956531241536">
        <ele>1043.167724609375</ele>
        <time>2011-04-20T17:46:12Z</time>
      </trkpt>
      <trkpt lat="31.651417957618833" lon="-3.852089093998075">
        <ele>1042.20654296875</ele>
        <time>2011-04-20T17:46:23Z</time>
      </trkpt>
      <trkpt lat="31.651041945442557" lon="-3.853113865479827">
        <ele>1040.283935546875</ele>
        <time>2011-04-20T17:46:34Z</time>
      </trkpt>
      <trkpt lat="31.650847317650914" lon="-3.853791961446405">
        <ele>1038.361328125</ele>
        <time>2011-04-20T17:46:42Z</time>
      </trkpt>
      <trkpt lat="31.650638608261943" lon="-3.85426277294755">
        <ele>1036.438720703125</ele>
        <time>2011-04-20T17:46:50Z</time>
      </trkpt>
      <trkpt lat="31.650463929399848" lon="-3.854570975527167">
        <ele>1034.515869140625</ele>
        <time>2011-04-20T17:46:55Z</time>
      </trkpt>
      <trkpt lat="31.650342140346766" lon="-3.8549888972193">
        <ele>1033.554443359375</ele>
        <time>2011-04-20T17:47:03Z</time>
      </trkpt>
      <trkpt lat="31.650329986587167" lon="-3.855354683473706">
        <ele>1032.59326171875</ele>
        <time>2011-04-20T17:47:09Z</time>
      </trkpt>
      <trkpt lat="31.650351695716381" lon="-3.855661377310753">
        <ele>1033.07373046875</ele>
        <time>2011-04-20T17:47:14Z</time>
      </trkpt>
      <trkpt lat="31.650413889437914" lon="-3.855905709788203">
        <ele>1033.07373046875</ele>
        <time>2011-04-20T17:47:18Z</time>
      </trkpt>
      <trkpt lat="31.650389414280653" lon="-3.856680449098349">
        <ele>1033.07373046875</ele>
        <time>2011-04-20T17:47:28Z</time>
      </trkpt>
      <trkpt lat="31.650348762050271" lon="-3.856990830972791">
        <ele>1034.515869140625</ele>
        <time>2011-04-20T17:47:32Z</time>
      </trkpt>
      <trkpt lat="31.650360496714711" lon="-3.858149209991098">
        <ele>1032.59326171875</ele>
        <time>2011-04-20T17:47:46Z</time>
      </trkpt>
      <trkpt lat="31.650710022076964" lon="-3.859265176579356">
        <ele>1030.670654296875</ele>
        <time>2011-04-20T17:47:59Z</time>
      </trkpt>
      <trkpt lat="31.650750003755093" lon="-3.859942853450775">
        <ele>1029.709228515625</ele>
        <time>2011-04-20T17:48:07Z</time>
      </trkpt>
      <trkpt lat="31.650859387591481" lon="-3.860297659412026">
        <ele>1028.748046875</ele>
        <time>2011-04-20T17:48:12Z</time>
      </trkpt>
      <trkpt lat="31.650942033156753" lon="-3.860463118180633">
        <ele>1028.267333984375</ele>
        <time>2011-04-20T17:48:15Z</time>
      </trkpt>
      <trkpt lat="31.651049153879285" lon="-3.860824378207326">
        <ele>1027.30615234375</ele>
        <time>2011-04-20T17:48:21Z</time>
      </trkpt>
      <trkpt lat="31.651102546602488" lon="-3.861001068726182">
        <ele>1026.825439453125</ele>
        <time>2011-04-20T17:48:24Z</time>
      </trkpt>
      <trkpt lat="31.651234645396471" lon="-3.86128094047308">
        <ele>1026.825439453125</ele>
        <time>2011-04-20T17:48:31Z</time>
      </trkpt>
      <trkpt lat="31.651337658986449" lon="-3.861399125307798">
        <ele>1028.267333984375</ele>
        <time>2011-04-20T17:48:39Z</time>
      </trkpt>
      <trkpt lat="31.651135487481952" lon="-3.861860381439328">
        <ele>1027.78662109375</ele>
        <time>2011-04-20T17:48:46Z</time>
      </trkpt>
      <trkpt lat="31.65108016692102" lon="-3.862280817702413">
        <ele>1027.30615234375</ele>
        <time>2011-04-20T17:48:52Z</time>
      </trkpt>
      <trkpt lat="31.651009172201157" lon="-3.862572591751814">
        <ele>1026.825439453125</ele>
        <time>2011-04-20T17:48:56Z</time>
      </trkpt>
      <trkpt lat="31.650993665680289" lon="-3.86275858618319">
        <ele>1026.3447265625</ele>
        <time>2011-04-20T17:48:59Z</time>
      </trkpt>
      <trkpt lat="31.651235818862915" lon="-3.863357305526733">
        <ele>1025.864013671875</ele>
        <time>2011-04-20T17:49:03Z</time>
      </trkpt>
      <trkpt lat="31.65108653716743" lon="-3.863526452332735">
        <ele>1027.78662109375</ele>
        <time>2011-04-20T17:49:11Z</time>
      </trkpt>
      <trkpt lat="31.650805743411183" lon="-3.863927610218525">
        <ele>1026.825439453125</ele>
        <time>2011-04-20T17:49:19Z</time>
      </trkpt>
      <trkpt lat="31.650742376223207" lon="-3.864333545789123">
        <ele>1026.3447265625</ele>
        <time>2011-04-20T17:49:27Z</time>
      </trkpt>
      <trkpt lat="31.650691833347082" lon="-3.86511423625052">
        <ele>1027.30615234375</ele>
        <time>2011-04-20T17:49:39Z</time>
      </trkpt>
      <trkpt lat="31.650587227195501" lon="-3.865642547607422">
        <ele>1027.30615234375</ele>
        <time>2011-04-20T17:49:48Z</time>
      </trkpt>
      <trkpt lat="31.650367956608534" lon="-3.86636808514595">
        <ele>1023.4609375</ele>
        <time>2011-04-20T17:50:01Z</time>
      </trkpt>
      <trkpt lat="31.650316072627902" lon="-3.866543769836426">
        <ele>1022.018798828125</ele>
        <time>2011-04-20T17:50:04Z</time>
      </trkpt>
      <trkpt lat="31.650162348523736" lon="-3.866834035143256">
        <ele>1017.692626953125</ele>
        <time>2011-04-20T17:50:10Z</time>
      </trkpt>
      <trkpt lat="31.649946682155132" lon="-3.867039810866118">
        <ele>1012.405517578125</ele>
        <time>2011-04-20T17:50:21Z</time>
      </trkpt>
      <trkpt lat="31.649846686050296" lon="-3.867326471954584">
        <ele>1010.002197265625</ele>
        <time>2011-04-20T17:50:27Z</time>
      </trkpt>
      <trkpt lat="31.649762783199549" lon="-3.867506682872772">
        <ele>1009.041015625</ele>
        <time>2011-04-20T17:50:31Z</time>
      </trkpt>
      <trkpt lat="31.649398086592555" lon="-3.867828547954559">
        <ele>1007.118408203125</ele>
        <time>2011-04-20T17:50:40Z</time>
      </trkpt>
      <trkpt lat="31.64922684431076" lon="-3.86810565367341">
        <ele>1006.6376953125</ele>
        <time>2011-04-20T17:50:46Z</time>
      </trkpt>
      <trkpt lat="31.649186611175537" lon="-3.868706971406937">
        <ele>1006.6376953125</ele>
        <time>2011-04-20T17:50:55Z</time>
      </trkpt>
      <trkpt lat="31.649184264242649" lon="-3.86885373853147">
        <ele>1006.156982421875</ele>
        <time>2011-04-20T17:50:57Z</time>
      </trkpt>
      <trkpt lat="31.649103378877044" lon="-3.869171999394894">
        <ele>1004.715087890625</ele>
        <time>2011-04-20T17:51:02Z</time>
      </trkpt>
      <trkpt lat="31.648892993107438" lon="-3.869521357119083">
        <ele>1002.3115234375</ele>
        <time>2011-04-20T17:51:11Z</time>
      </trkpt>
      <trkpt lat="31.648767851293087" lon="-3.869681702926755">
        <ele>1001.8310546875</ele>
        <time>2011-04-20T17:51:14Z</time>
      </trkpt>
      <trkpt lat="31.648556711152196" lon="-3.869867278262973">
        <ele>999.908447265625</ele>
        <time>2011-04-20T17:51:19Z</time>
      </trkpt>
      <trkpt lat="31.648320257663727" lon="-3.870466835796833">
        <ele>1000.86962890625</ele>
        <time>2011-04-20T17:51:28Z</time>
      </trkpt>
      <trkpt lat="31.6478640306741" lon="-3.871129844337702">
        <ele>1002.792236328125</ele>
        <time>2011-04-20T17:51:37Z</time>
      </trkpt>
      <trkpt lat="31.647255336865783" lon="-3.871997622773051">
        <ele>1003.753662109375</ele>
        <time>2011-04-20T17:51:47Z</time>
      </trkpt>
      <trkpt lat="31.646439358592033" lon="-3.873153738677502">
        <ele>1001.8310546875</ele>
        <time>2011-04-20T17:52:00Z</time>
      </trkpt>
      <trkpt lat="31.64607223123312" lon="-3.873859914019704">
        <ele>1001.350341796875</ele>
        <time>2011-04-20T17:52:08Z</time>
      </trkpt>
      <trkpt lat="31.645872239023447" lon="-3.874441953375936">
        <ele>1000.86962890625</ele>
        <time>2011-04-20T17:52:16Z</time>
      </trkpt>
      <trkpt lat="31.645328756421804" lon="-3.875208646059036">
        <ele>1000.38916015625</ele>
        <time>2011-04-20T17:52:26Z</time>
      </trkpt>
      <trkpt lat="31.645253906026483" lon="-3.875333201140165">
        <ele>1000.38916015625</ele>
        <time>2011-04-20T17:52:28Z</time>
      </trkpt>
      <trkpt lat="31.645142175257206" lon="-3.875492876395583">
        <ele>992.218017578125</ele>
        <time>2011-04-20T17:52:35Z</time>
      </trkpt>
      <trkpt lat="31.645043520256877" lon="-3.875563368201256">
        <ele>991.7373046875</ele>
        <time>2011-04-20T17:52:39Z</time>
      </trkpt>
      <trkpt lat="31.644876385107636" lon="-3.875952707603574">
        <ele>993.17919921875</ele>
        <time>2011-04-20T17:52:48Z</time>
      </trkpt>
      <trkpt lat="31.644826931878924" lon="-3.876147922128439">
        <ele>993.17919921875</ele>
        <time>2011-04-20T17:52:51Z</time>
      </trkpt>
      <trkpt lat="31.64454479701817" lon="-3.876943113282323">
        <ele>997.0244140625</ele>
        <time>2011-04-20T17:53:02Z</time>
      </trkpt>
      <trkpt lat="31.644298620522022" lon="-3.87775749899447">
        <ele>999.908447265625</ele>
        <time>2011-04-20T17:53:11Z</time>
      </trkpt>
      <trkpt lat="31.644221507012844" lon="-3.878023037686944">
        <ele>1001.350341796875</ele>
        <time>2011-04-20T17:53:14Z</time>
      </trkpt>
      <trkpt lat="31.643932834267616" lon="-3.878616141155362">
        <ele>1006.6376953125</ele>
        <time>2011-04-20T17:53:22Z</time>
      </trkpt>
      <trkpt lat="31.643854128196836" lon="-3.878812780603766">
        <ele>1006.6376953125</ele>
        <time>2011-04-20T17:53:25Z</time>
      </trkpt>
      <trkpt lat="31.643410138785839" lon="-3.879278227686882">
        <ele>1007.59912109375</ele>
        <time>2011-04-20T17:53:34Z</time>
      </trkpt>
      <trkpt lat="31.643303269520402" lon="-3.879451230168343">
        <ele>1009.041015625</ele>
        <time>2011-04-20T17:53:38Z</time>
      </trkpt>
      <trkpt lat="31.643274100497365" lon="-3.879599589854479">
        <ele>1010.002197265625</ele>
        <time>2011-04-20T17:53:46Z</time>
      </trkpt>
      <trkpt lat="31.643264293670654" lon="-3.879794888198376">
        <ele>1008.560302734375</ele>
        <time>2011-04-20T17:54:34Z</time>
      </trkpt>
      <trkpt lat="31.643191538751125" lon="-3.880176264792681">
        <ele>1000.86962890625</ele>
        <time>2011-04-20T17:54:40Z</time>
      </trkpt>
      <trkpt lat="31.64313311688602" lon="-3.881064578890801">
        <ele>993.659912109375</ele>
        <time>2011-04-20T17:54:51Z</time>
      </trkpt>
      <trkpt lat="31.64307058788836" lon="-3.881932022050023">
        <ele>991.256591796875</ele>
        <time>2011-04-20T17:55:02Z</time>
      </trkpt>
      <trkpt lat="31.642887275665998" lon="-3.882955703884363">
        <ele>989.333984375</ele>
        <time>2011-04-20T17:55:12Z</time>
      </trkpt>
      <trkpt lat="31.642750985920429" lon="-3.883606055751443">
        <ele>988.372802734375</ele>
        <time>2011-04-20T17:55:20Z</time>
      </trkpt>
      <trkpt lat="31.642593909054995" lon="-3.884212151169777">
        <ele>988.372802734375</ele>
        <time>2011-04-20T17:55:28Z</time>
      </trkpt>
      <trkpt lat="31.642498355358839" lon="-3.884835597127676">
        <ele>988.372802734375</ele>
        <time>2011-04-20T17:55:34Z</time>
      </trkpt>
      <trkpt lat="31.642430126667023" lon="-3.885167771950364">
        <ele>988.372802734375</ele>
        <time>2011-04-20T17:55:37Z</time>
      </trkpt>
      <trkpt lat="31.642303308472037" lon="-3.886179719120264">
        <ele>987.4111328125</ele>
        <time>2011-04-20T17:55:45Z</time>
      </trkpt>
      <trkpt lat="31.642090072855353" lon="-3.886640723794699">
        <ele>987.4111328125</ele>
        <time>2011-04-20T17:55:49Z</time>
      </trkpt>
      <trkpt lat="31.641711294651031" lon="-3.887217063456774">
        <ele>986.930419921875</ele>
        <time>2011-04-20T17:55:56Z</time>
      </trkpt>
      <trkpt lat="31.641533598303795" lon="-3.887514704838395">
        <ele>985.96923828125</ele>
        <time>2011-04-20T17:56:02Z</time>
      </trkpt>
      <trkpt lat="31.64164524525404" lon="-3.888071849942207">
        <ele>987.891845703125</ele>
        <time>2011-04-20T17:56:11Z</time>
      </trkpt>
      <trkpt lat="31.641680784523487" lon="-3.888214258477092">
        <ele>987.891845703125</ele>
        <time>2011-04-20T17:56:13Z</time>
      </trkpt>
      <trkpt lat="31.641788156703115" lon="-3.888790179044008">
        <ele>988.372802734375</ele>
        <time>2011-04-20T17:56:20Z</time>
      </trkpt>
      <trkpt lat="31.641661254689097" lon="-3.889636248350143">
        <ele>986.930419921875</ele>
        <time>2011-04-20T17:56:28Z</time>
      </trkpt>
      <trkpt lat="31.641533179208636" lon="-3.89043646864593">
        <ele>985.96923828125</ele>
        <time>2011-04-20T17:56:35Z</time>
      </trkpt>
      <trkpt lat="31.641448605805635" lon="-3.891262924298644">
        <ele>985.008056640625</ele>
        <time>2011-04-20T17:56:43Z</time>
      </trkpt>
      <trkpt lat="31.641441816464067" lon="-3.891405835747719">
        <ele>985.008056640625</ele>
        <time>2011-04-20T17:56:45Z</time>
      </trkpt>
      <trkpt lat="31.641359925270081" lon="-3.891728790476918">
        <ele>984.52734375</ele>
        <time>2011-04-20T17:56:49Z</time>
      </trkpt>
      <trkpt lat="31.641290774568915" lon="-3.891977649182081">
        <ele>984.52734375</ele>
        <time>2011-04-20T17:56:52Z</time>
      </trkpt>
      <trkpt lat="31.641131434589624" lon="-3.892301442101598">
        <ele>984.046630859375</ele>
        <time>2011-04-20T17:56:56Z</time>
      </trkpt>
      <trkpt lat="31.640822142362595" lon="-3.893305007368326">
        <ele>984.046630859375</ele>
        <time>2011-04-20T17:57:05Z</time>
      </trkpt>
      <trkpt lat="31.640553334727883" lon="-3.894411502406001">
        <ele>983.085205078125</ele>
        <time>2011-04-20T17:57:14Z</time>
      </trkpt>
      <trkpt lat="31.640394162386656" lon="-3.894882313907147">
        <ele>983.085205078125</ele>
        <time>2011-04-20T17:57:18Z</time>
      </trkpt>
      <trkpt lat="31.640341021120548" lon="-3.895281879231334">
        <ele>982.1240234375</ele>
        <time>2011-04-20T17:57:23Z</time>
      </trkpt>
      <trkpt lat="31.640151254832745" lon="-3.895663507282734">
        <ele>981.643310546875</ele>
        <time>2011-04-20T17:57:28Z</time>
      </trkpt>
      <trkpt lat="31.639909688383341" lon="-3.895954191684723">
        <ele>982.1240234375</ele>
        <time>2011-04-20T17:57:34Z</time>
      </trkpt>
      <trkpt lat="31.639891415834427" lon="-3.896307656541467">
        <ele>981.162841796875</ele>
        <time>2011-04-20T17:57:39Z</time>
      </trkpt>
      <trkpt lat="31.639877837151289" lon="-3.89645685441792">
        <ele>982.1240234375</ele>
        <time>2011-04-20T17:57:44Z</time>
      </trkpt>
      <trkpt lat="31.63987398147583" lon="-3.896636478602886">
        <ele>982.1240234375</ele>
        <time>2011-04-20T17:57:48Z</time>
      </trkpt>
      <trkpt lat="31.639907006174326" lon="-3.896867483854294">
        <ele>981.643310546875</ele>
        <time>2011-04-20T17:57:51Z</time>
      </trkpt>
      <trkpt lat="31.640002727508545" lon="-3.897293787449598">
        <ele>978.759521484375</ele>
        <time>2011-04-20T17:57:58Z</time>
      </trkpt>
      <trkpt lat="31.640002727508545" lon="-3.897540885955095">
        <ele>978.27880859375</ele>
        <time>2011-04-20T17:58:04Z</time>
      </trkpt>
      <trkpt lat="31.639990238472819" lon="-3.89765202999115">
        <ele>977.798095703125</ele>
        <time>2011-04-20T17:58:10Z</time>
      </trkpt>
      <trkpt lat="31.639786558225751" lon="-3.897858140990138">
        <ele>976.356201171875</ele>
        <time>2011-04-20T17:58:27Z</time>
      </trkpt>
      <trkpt lat="31.639567287638783" lon="-3.897916311398149">
        <ele>977.798095703125</ele>
        <time>2011-04-20T17:58:34Z</time>
      </trkpt>
      <trkpt lat="31.639448516070843" lon="-3.898131893947721">
        <ele>978.759521484375</ele>
        <time>2011-04-20T17:58:40Z</time>
      </trkpt>
      <trkpt lat="31.639376096427441" lon="-3.898283271118999">
        <ele>979.720703125</ele>
        <time>2011-04-20T17:58:43Z</time>
      </trkpt>
      <trkpt lat="31.639247182756662" lon="-3.898485191166401">
        <ele>980.68212890625</ele>
        <time>2011-04-20T17:58:47Z</time>
      </trkpt>
      <trkpt lat="31.639133188873529" lon="-3.89866498298943">
        <ele>980.68212890625</ele>
        <time>2011-04-20T17:58:52Z</time>
      </trkpt>
      <trkpt lat="31.639017937704921" lon="-3.899263283237815">
        <ele>981.643310546875</ele>
        <time>2011-04-20T17:59:02Z</time>
      </trkpt>
      <trkpt lat="31.639009974896908" lon="-3.899380546063185">
        <ele>977.798095703125</ele>
        <time>2011-04-20T17:59:05Z</time>
      </trkpt>
      <trkpt lat="31.639025984331965" lon="-3.899679109454155">
        <ele>978.27880859375</ele>
        <time>2011-04-20T17:59:11Z</time>
      </trkpt>
      <trkpt lat="31.639104606583714" lon="-3.899797042831779">
        <ele>981.643310546875</ele>
        <time>2011-04-20T17:59:14Z</time>
      </trkpt>
      <trkpt lat="31.639324547722936" lon="-3.900007931515575">
        <ele>983.56591796875</ele>
        <time>2011-04-20T17:59:20Z</time>
      </trkpt>
      <trkpt lat="31.639364697039127" lon="-3.900114297866821">
        <ele>984.046630859375</ele>
        <time>2011-04-20T17:59:21Z</time>
      </trkpt>
      <trkpt lat="31.639203177765012" lon="-3.901115851476789">
        <ele>986.449951171875</ele>
        <time>2011-04-20T17:59:34Z</time>
      </trkpt>
      <trkpt lat="31.639168141409755" lon="-3.901775842532516">
        <ele>988.853515625</ele>
        <time>2011-04-20T17:59:42Z</time>
      </trkpt>
      <trkpt lat="31.63919429294765" lon="-3.902021935209632">
        <ele>987.891845703125</ele>
        <time>2011-04-20T17:59:48Z</time>
      </trkpt>
      <trkpt lat="31.639260007068515" lon="-3.902353523299098">
        <ele>989.333984375</ele>
        <time>2011-04-20T17:59:56Z</time>
      </trkpt>
      <trkpt lat="31.639331253245473" lon="-3.902853839099407">
        <ele>988.853515625</ele>
        <time>2011-04-20T18:00:06Z</time>
      </trkpt>
      <trkpt lat="31.639220276847482" lon="-3.903320711106062">
        <ele>990.29541015625</ele>
        <time>2011-04-20T18:00:13Z</time>
      </trkpt>
      <trkpt lat="31.638838648796082" lon="-3.903674259781838">
        <ele>992.69873046875</ele>
        <time>2011-04-20T18:00:22Z</time>
      </trkpt>
      <trkpt lat="31.638699928298593" lon="-3.903898894786835">
        <ele>990.77587890625</ele>
        <time>2011-04-20T18:00:38Z</time>
      </trkpt>
      <trkpt lat="31.638739155605435" lon="-3.904233248904347">
        <ele>990.77587890625</ele>
        <time>2011-04-20T18:00:47Z</time>
      </trkpt>
      <trkpt lat="31.638805875554681" lon="-3.904500212520361">
        <ele>989.814697265625</ele>
        <time>2011-04-20T18:00:56Z</time>
      </trkpt>
      <trkpt lat="31.638859771192074" lon="-3.904684027656913">
        <ele>988.853515625</ele>
        <time>2011-04-20T18:01:00Z</time>
      </trkpt>
      <trkpt lat="31.638949792832136" lon="-3.904864238575101">
        <ele>987.891845703125</ele>
        <time>2011-04-20T18:01:05Z</time>
      </trkpt>
      <trkpt lat="31.63905113004148" lon="-3.90514419414103">
        <ele>986.449951171875</ele>
        <time>2011-04-20T18:01:11Z</time>
      </trkpt>
      <trkpt lat="31.639082310721278" lon="-3.90537922270596">
        <ele>985.488525390625</ele>
        <time>2011-04-20T18:01:16Z</time>
      </trkpt>
      <trkpt lat="31.63908876478672" lon="-3.905634786933661">
        <ele>985.488525390625</ele>
        <time>2011-04-20T18:01:21Z</time>
      </trkpt>
      <trkpt lat="31.638764468953013" lon="-3.906280109658837">
        <ele>986.930419921875</ele>
        <time>2011-04-20T18:01:30Z</time>
      </trkpt>
      <trkpt lat="31.638477556407452" lon="-3.906630724668503">
        <ele>987.4111328125</ele>
        <time>2011-04-20T18:01:38Z</time>
      </trkpt>
      <trkpt lat="31.638342188671231" lon="-3.906803140416741">
        <ele>987.4111328125</ele>
        <time>2011-04-20T18:01:42Z</time>
      </trkpt>
      <trkpt lat="31.637943210080266" lon="-3.906948566436768">
        <ele>987.891845703125</ele>
        <time>2011-04-20T18:01:49Z</time>
      </trkpt>
      <trkpt lat="31.637748833745718" lon="-3.906992236152291">
        <ele>988.853515625</ele>
        <time>2011-04-20T18:01:59Z</time>
      </trkpt>
      <trkpt lat="31.637615896761417" lon="-3.907173201441765">
        <ele>988.853515625</ele>
        <time>2011-04-20T18:02:08Z</time>
      </trkpt>
      <trkpt lat="31.637559738010168" lon="-3.907293481752276">
        <ele>987.4111328125</ele>
        <time>2011-04-20T18:02:13Z</time>
      </trkpt>
      <trkpt lat="31.637507602572441" lon="-3.907408230006695">
        <ele>989.814697265625</ele>
        <time>2011-04-20T18:02:17Z</time>
      </trkpt>
      <trkpt lat="31.637270310893655" lon="-3.907470675185323">
        <ele>991.7373046875</ele>
        <time>2011-04-20T18:02:20Z</time>
      </trkpt>
      <trkpt lat="31.636782567948103" lon="-3.907358609139919">
        <ele>999.908447265625</ele>
        <time>2011-04-20T18:02:31Z</time>
      </trkpt>
      <trkpt lat="31.636660108342767" lon="-3.907391969114542">
        <ele>999.908447265625</ele>
        <time>2011-04-20T18:02:35Z</time>
      </trkpt>
      <trkpt lat="31.636356599628925" lon="-3.907328601926565">
        <ele>1001.8310546875</ele>
        <time>2011-04-20T18:02:41Z</time>
      </trkpt>
      <trkpt lat="31.636086199432611" lon="-3.90745785087347">
        <ele>1011.925048828125</ele>
        <time>2011-04-20T18:02:51Z</time>
      </trkpt>
      <trkpt lat="31.635927446186543" lon="-3.907557595521212">
        <ele>1018.17333984375</ele>
        <time>2011-04-20T18:03:00Z</time>
      </trkpt>
      <trkpt lat="31.635646484792233" lon="-3.907508058473468">
        <ele>1022.49951171875</ele>
        <time>2011-04-20T18:03:09Z</time>
      </trkpt>
      <trkpt lat="31.63535756058991" lon="-3.907426167279482">
        <ele>1028.748046875</ele>
        <time>2011-04-20T18:03:19Z</time>
      </trkpt>
      <trkpt lat="31.634969897568226" lon="-3.907418120652437">
        <ele>1031.1513671875</ele>
        <time>2011-04-20T18:03:30Z</time>
      </trkpt>
      <trkpt lat="31.634699497371912" lon="-3.907446954399347">
        <ele>1027.78662109375</ele>
        <time>2011-04-20T18:03:37Z</time>
      </trkpt>
      <trkpt lat="31.6344980802387" lon="-3.907520715147257">
        <ele>1026.3447265625</ele>
        <time>2011-04-20T18:03:45Z</time>
      </trkpt>
      <trkpt lat="31.634357431903481" lon="-3.907716181129217">
        <ele>1025.38330078125</ele>
        <time>2011-04-20T18:03:53Z</time>
      </trkpt>
      <trkpt lat="31.634218040853739" lon="-3.907806873321533">
        <ele>1023.94140625</ele>
        <time>2011-04-20T18:03:57Z</time>
      </trkpt>
      <trkpt lat="31.633804310113192" lon="-3.907893961295486">
        <ele>1021.5380859375</ele>
        <time>2011-04-20T18:04:05Z</time>
      </trkpt>
      <trkpt lat="31.633425615727901" lon="-3.908028239384294">
        <ele>1017.212158203125</ele>
        <time>2011-04-20T18:04:15Z</time>
      </trkpt>
      <trkpt lat="31.633094530552626" lon="-3.908108621835709">
        <ele>1017.692626953125</ele>
        <time>2011-04-20T18:04:23Z</time>
      </trkpt>
      <trkpt lat="31.632851958274841" lon="-3.908190093934536">
        <ele>1017.692626953125</ele>
        <time>2011-04-20T18:04:28Z</time>
      </trkpt>
      <trkpt lat="31.632653307169676" lon="-3.908319007605314">
        <ele>1019.134765625</ele>
        <time>2011-04-20T18:04:32Z</time>
      </trkpt>
      <trkpt lat="31.632237816229463" lon="-3.908811695873737">
        <ele>1022.018798828125</ele>
        <time>2011-04-20T18:04:43Z</time>
      </trkpt>
      <trkpt lat="31.632157433778048" lon="-3.908920241519809">
        <ele>1020.09619140625</ele>
        <time>2011-04-20T18:04:49Z</time>
      </trkpt>
      <trkpt lat="31.631882674992085" lon="-3.909334391355515">
        <ele>1022.49951171875</ele>
        <time>2011-04-20T18:04:58Z</time>
      </trkpt>
      <trkpt lat="31.631663236767054" lon="-3.909640498459339">
        <ele>1023.4609375</ele>
        <time>2011-04-20T18:05:03Z</time>
      </trkpt>
      <trkpt lat="31.630843570455909" lon="-3.910053474828601">
        <ele>1025.864013671875</ele>
        <time>2011-04-20T18:05:12Z</time>
      </trkpt>
      <trkpt lat="31.629990711808205" lon="-3.910274505615234">
        <ele>1027.30615234375</ele>
        <time>2011-04-20T18:05:22Z</time>
      </trkpt>
      <trkpt lat="31.629673708230257" lon="-3.910262016579509">
        <ele>1027.78662109375</ele>
        <time>2011-04-20T18:05:26Z</time>
      </trkpt>
      <trkpt lat="31.628805678337812" lon="-3.910105610266328">
        <ele>1030.18994140625</ele>
        <time>2011-04-20T18:05:36Z</time>
      </trkpt>
      <trkpt lat="31.627836311236024" lon="-3.909968985244632">
        <ele>1035.957763671875</ele>
        <time>2011-04-20T18:05:46Z</time>
      </trkpt>
      <trkpt lat="31.626810282468796" lon="-3.909735381603241">
        <ele>1038.361328125</ele>
        <time>2011-04-20T18:05:57Z</time>
      </trkpt>
      <trkpt lat="31.625470519065857" lon="-3.90938987955451">
        <ele>1038.361328125</ele>
        <time>2011-04-20T18:06:13Z</time>
      </trkpt>
      <trkpt lat="31.624200912192464" lon="-3.909050077199936">
        <ele>1039.80322265625</ele>
        <time>2011-04-20T18:06:28Z</time>
      </trkpt>
      <trkpt lat="31.622854946181178" lon="-3.908656630665064">
        <ele>1041.2451171875</ele>
        <time>2011-04-20T18:06:43Z</time>
      </trkpt>
      <trkpt lat="31.621682569384575" lon="-3.908344656229019">
        <ele>1041.725830078125</ele>
        <time>2011-04-20T18:06:56Z</time>
      </trkpt>
      <trkpt lat="31.620860388502479" lon="-3.907888764515519">
        <ele>1042.687255859375</ele>
        <time>2011-04-20T18:07:05Z</time>
      </trkpt>
      <trkpt lat="31.620263429358602" lon="-3.907209746539593">
        <ele>1042.20654296875</ele>
        <time>2011-04-20T18:07:14Z</time>
      </trkpt>
      <trkpt lat="31.61940336227417" lon="-3.906669616699219">
        <ele>1045.09033203125</ele>
        <time>2011-04-20T18:07:25Z</time>
      </trkpt>
      <trkpt lat="31.618613032624125" lon="-3.906594347208738">
        <ele>1046.532470703125</ele>
        <time>2011-04-20T18:07:34Z</time>
      </trkpt>
      <trkpt lat="31.617877688258886" lon="-3.906472893431783">
        <ele>1048.454833984375</ele>
        <time>2011-04-20T18:07:43Z</time>
      </trkpt>
      <trkpt lat="31.617500921711326" lon="-3.906022030860186">
        <ele>1047.012939453125</ele>
        <time>2011-04-20T18:07:50Z</time>
      </trkpt>
      <trkpt lat="31.61733060143888" lon="-3.905896302312613">
        <ele>1042.687255859375</ele>
        <time>2011-04-20T18:08:00Z</time>
      </trkpt>
      <trkpt lat="31.617140667513013" lon="-3.905806615948677">
        <ele>1037.880615234375</ele>
        <time>2011-04-20T18:08:09Z</time>
      </trkpt>
      <trkpt lat="31.616968419402838" lon="-3.905721874907613">
        <ele>1037.880615234375</ele>
        <time>2011-04-20T18:08:13Z</time>
      </trkpt>
      <trkpt lat="31.616549491882324" lon="-3.905661106109619">
        <ele>1038.361328125</ele>
        <time>2011-04-20T18:08:21Z</time>
      </trkpt>
      <trkpt lat="31.616327287629247" lon="-3.905790019780397">
        <ele>1037.39990234375</ele>
        <time>2011-04-20T18:08:26Z</time>
      </trkpt>
      <trkpt lat="31.616141796112061" lon="-3.905918598175049">
        <ele>1037.880615234375</ele>
        <time>2011-04-20T18:08:33Z</time>
      </trkpt>
      <trkpt lat="31.616062084212899" lon="-3.906014235690236">
        <ele>1037.880615234375</ele>
        <time>2011-04-20T18:08:36Z</time>
      </trkpt>
      <trkpt lat="31.615948844701052" lon="-3.906218754127622">
        <ele>1035.957763671875</ele>
        <time>2011-04-20T18:08:41Z</time>
      </trkpt>
      <trkpt lat="31.615503514185548" lon="-3.906433582305908">
        <ele>1034.99658203125</ele>
        <time>2011-04-20T18:08:48Z</time>
      </trkpt>
      <trkpt lat="31.615157844498754" lon="-3.906453112140298">
        <ele>1036.438720703125</ele>
        <time>2011-04-20T18:08:53Z</time>
      </trkpt>
      <trkpt lat="31.614894066005945" lon="-3.90657196752727">
        <ele>1036.438720703125</ele>
        <time>2011-04-20T18:08:57Z</time>
      </trkpt>
      <trkpt lat="31.614129217341542" lon="-3.907029954716563">
        <ele>1034.515869140625</ele>
        <time>2011-04-20T18:09:08Z</time>
      </trkpt>
      <trkpt lat="31.61390483379364" lon="-3.907175464555621">
        <ele>1033.554443359375</ele>
        <time>2011-04-20T18:09:12Z</time>
      </trkpt>
      <trkpt lat="31.613653963431716" lon="-3.907220978289843">
        <ele>1033.07373046875</ele>
        <time>2011-04-20T18:09:16Z</time>
      </trkpt>
      <trkpt lat="31.612790711224079" lon="-3.907334804534912">
        <ele>1037.880615234375</ele>
        <time>2011-04-20T18:09:29Z</time>
      </trkpt>
      <trkpt lat="31.612681411206722" lon="-3.907352909445763">
        <ele>1038.361328125</ele>
        <time>2011-04-20T18:09:31Z</time>
      </trkpt>
      <trkpt lat="31.612480580806732" lon="-3.907559607177973">
        <ele>1039.80322265625</ele>
        <time>2011-04-20T18:09:36Z</time>
      </trkpt>
      <trkpt lat="31.612119488418102" lon="-3.90798163600266">
        <ele>1041.2451171875</ele>
        <time>2011-04-20T18:09:44Z</time>
      </trkpt>
      <trkpt lat="31.611631326377392" lon="-3.908645231276751">
        <ele>1037.39990234375</ele>
        <time>2011-04-20T18:09:55Z</time>
      </trkpt>
      <trkpt lat="31.611445415765047" lon="-3.909221990033984">
        <ele>1031.1513671875</ele>
        <time>2011-04-20T18:10:03Z</time>
      </trkpt>
      <trkpt lat="31.611395291984081" lon="-3.909334810450673">
        <ele>1030.18994140625</ele>
        <time>2011-04-20T18:10:05Z</time>
      </trkpt>
      <trkpt lat="31.611362602561712" lon="-3.909592302516103">
        <ele>1027.30615234375</ele>
        <time>2011-04-20T18:10:09Z</time>
      </trkpt>
      <trkpt lat="31.6113321762532" lon="-3.909772094339132">
        <ele>1026.825439453125</ele>
        <time>2011-04-20T18:10:12Z</time>
      </trkpt>
      <trkpt lat="31.611248608678579" lon="-3.909943252801895">
        <ele>1024.90283203125</ele>
        <time>2011-04-20T18:10:16Z</time>
      </trkpt>
      <trkpt lat="31.611145846545696" lon="-3.910175934433937">
        <ele>1022.980224609375</ele>
        <time>2011-04-20T18:10:21Z</time>
      </trkpt>
      <trkpt lat="31.61104828119278" lon="-3.910447340458632">
        <ele>1022.980224609375</ele>
        <time>2011-04-20T18:10:29Z</time>
      </trkpt>
      <trkpt lat="31.610868740826845" lon="-3.910724194720388">
        <ele>1011.4443359375</ele>
        <time>2011-04-20T18:11:40Z</time>
      </trkpt>
      <trkpt lat="31.610650727525353" lon="-3.911234820261598">
        <ele>1011.925048828125</ele>
        <time>2011-04-20T18:11:46Z</time>
      </trkpt>
      <trkpt lat="31.610451657325029" lon="-3.911544950678945">
        <ele>1013.847412109375</ele>
        <time>2011-04-20T18:11:50Z</time>
      </trkpt>
      <trkpt lat="31.610325090587139" lon="-3.911615358665586">
        <ele>1014.808837890625</ele>
        <time>2011-04-20T18:11:52Z</time>
      </trkpt>
      <trkpt lat="31.610115710645914" lon="-3.911841921508312">
        <ele>1017.692626953125</ele>
        <time>2011-04-20T18:12:00Z</time>
      </trkpt>
      <trkpt lat="31.610030382871628" lon="-3.91196396201849">
        <ele>1037.880615234375</ele>
        <time>2011-04-20T18:14:11Z</time>
      </trkpt>
      <trkpt lat="31.609871713444591" lon="-3.912247773259878">
        <ele>1031.1513671875</ele>
        <time>2011-04-20T18:14:20Z</time>
      </trkpt>
      <trkpt lat="31.60946854390204" lon="-3.912349361926317">
        <ele>1028.267333984375</ele>
        <time>2011-04-20T18:14:30Z</time>
      </trkpt>
      <trkpt lat="31.609232425689697" lon="-3.912312984466553">
        <ele>1026.3447265625</ele>
        <time>2011-04-20T18:14:39Z</time>
      </trkpt>
      <trkpt lat="31.609132429584861" lon="-3.912243833765388">
        <ele>1024.90283203125</ele>
        <time>2011-04-20T18:14:41Z</time>
      </trkpt>
      <trkpt lat="31.609074342995882" lon="-3.912436533719301">
        <ele>1023.4609375</ele>
        <time>2011-04-20T18:14:45Z</time>
      </trkpt>
      <trkpt lat="31.609139051288366" lon="-3.912841882556677">
        <ele>1014.808837890625</ele>
        <time>2011-04-20T18:14:56Z</time>
      </trkpt>
      <trkpt lat="31.609271736815572" lon="-3.913064086809754">
        <ele>1008.560302734375</ele>
        <time>2011-04-20T18:15:04Z</time>
      </trkpt>
      <trkpt lat="31.609318424016237" lon="-3.913175482302904">
        <ele>999.427734375</ele>
        <time>2011-04-20T18:15:24Z</time>
      </trkpt>
      <trkpt lat="31.609523193910718" lon="-3.913801442831755">
        <ele>997.0244140625</ele>
        <time>2011-04-20T18:15:37Z</time>
      </trkpt>
      <trkpt lat="31.609624195843935" lon="-3.913924153894186">
        <ele>996.063232421875</ele>
        <time>2011-04-20T18:15:45Z</time>
      </trkpt>
      <trkpt lat="31.609544651582837" lon="-3.913816781714559">
        <ele>996.5439453125</ele>
        <time>2011-04-20T18:15:58Z</time>
      </trkpt>
      <trkpt lat="31.609350442886353" lon="-3.913331050425768">
        <ele>998.46630859375</ele>
        <time>2011-04-20T18:16:09Z</time>
      </trkpt>
      <trkpt lat="31.609283722937107" lon="-3.913166932761669">
        <ele>999.427734375</ele>
        <time>2011-04-20T18:16:18Z</time>
      </trkpt>
      <trkpt lat="31.609131088480353" lon="-3.913040030747652">
        <ele>1039.80322265625</ele>
        <time>2011-04-20T18:16:55Z</time>
      </trkpt>
      <trkpt lat="31.60899949260056" lon="-3.912840373814106">
        <ele>1057.10693359375</ele>
        <time>2011-04-20T18:17:08Z</time>
      </trkpt>
      <trkpt lat="31.60884459502995" lon="-3.912681872025132">
        <ele>1062.39404296875</ele>
        <time>2011-04-20T18:17:16Z</time>
      </trkpt>
      <trkpt lat="31.608697576448321" lon="-3.912656642496586">
        <ele>1121.995849609375</ele>
        <time>2011-04-20T18:18:08Z</time>
      </trkpt>
      <trkpt lat="31.608570255339146" lon="-3.912662928923965">
        <ele>1207.55322265625</ele>
        <time>2011-04-20T18:20:49Z</time>
      </trkpt>
      <trkpt lat="31.608661618083715" lon="-3.912597466260195">
        <ele>1194.0947265625</ele>
        <time>2011-04-20T18:21:09Z</time>
      </trkpt>
      <trkpt lat="31.608706042170525" lon="-3.912718249484897">
        <ele>1179.6748046875</ele>
        <time>2011-04-20T18:21:14Z</time>
      </trkpt>
      <trkpt lat="31.608846941962838" lon="-3.912826124578714">
        <ele>1103.73095703125</ele>
        <time>2011-04-20T18:22:23Z</time>
      </trkpt>
      <trkpt lat="31.609274754300714" lon="-3.912970963865519">
        <ele>1043.6484375</ele>
        <time>2011-04-20T18:23:44Z</time>
      </trkpt>
      <trkpt lat="31.609142823144794" lon="-3.913082191720605">
        <ele>1051.819580078125</ele>
        <time>2011-04-20T18:25:41Z</time>
      </trkpt>
      <trkpt lat="31.609005862846971" lon="-3.912723949179053">
        <ele>956.649169921875</ele>
        <time>2011-04-20T18:29:28Z</time>
      </trkpt>
    </trkseg>
  </trk>

  <trk>
    <name>110421</name>
    <extensions>
      <gpxx:TrackExtension xmlns:gpxx="http://www.garmin.com/xmlschemas/GpxExtensions/v3">
        <gpxx:DisplayColor>Blue</gpxx:DisplayColor>
      </gpxx:TrackExtension>
    </extensions>
    <trkseg>
      <trkpt lat="31.608928665518761" lon="-3.912876918911934">
        <ele>1033.554443359375</ele>
        <time>2011-04-21T07:46:08Z</time>
      </trkpt>
      <trkpt lat="31.609391933307052" lon="-3.913200963288546">
        <ele>1012.405517578125</ele>
        <time>2011-04-21T07:46:51Z</time>
      </trkpt>
      <trkpt lat="31.60947734490037" lon="-3.913120832294226">
        <ele>1010.963623046875</ele>
        <time>2011-04-21T07:47:56Z</time>
      </trkpt>
      <trkpt lat="31.609425377100706" lon="-3.913020836189389">
        <ele>1010.002197265625</ele>
        <time>2011-04-21T07:48:01Z</time>
      </trkpt>
      <trkpt lat="31.60938698798418" lon="-3.91277608461678">
        <ele>1010.002197265625</ele>
        <time>2011-04-21T07:48:09Z</time>
      </trkpt>
      <trkpt lat="31.609327392652631" lon="-3.912535775452852">
        <ele>1010.002197265625</ele>
        <time>2011-04-21T07:48:18Z</time>
      </trkpt>
      <trkpt lat="31.609411463141441" lon="-3.912359420210123">
        <ele>1010.48291015625</ele>
        <time>2011-04-21T07:48:27Z</time>
      </trkpt>
      <trkpt lat="31.609204681590199" lon="-3.912214497104287">
        <ele>1010.48291015625</ele>
        <time>2011-04-21T07:48:37Z</time>
      </trkpt>
      <trkpt lat="31.608975939452648" lon="-3.91218189150095">
        <ele>1011.925048828125</ele>
        <time>2011-04-21T07:48:52Z</time>
      </trkpt>
      <trkpt lat="31.60865013487637" lon="-3.91188089735806">
        <ele>1015.28955078125</ele>
        <time>2011-04-21T07:49:02Z</time>
      </trkpt>
      <trkpt lat="31.608359115198255" lon="-3.911949628964067">
        <ele>1014.808837890625</ele>
        <time>2011-04-21T07:49:09Z</time>
      </trkpt>
      <trkpt lat="31.608249060809612" lon="-3.912027161568403">
        <ele>1014.328125</ele>
        <time>2011-04-21T07:49:12Z</time>
      </trkpt>
      <trkpt lat="31.608075052499771" lon="-3.912070579826832">
        <ele>1013.366943359375</ele>
        <time>2011-04-21T07:49:16Z</time>
      </trkpt>
      <trkpt lat="31.607444398105145" lon="-3.912034034729004">
        <ele>1015.28955078125</ele>
        <time>2011-04-21T07:49:26Z</time>
      </trkpt>
      <trkpt lat="31.606895551085472" lon="-3.912069154903293">
        <ele>1026.825439453125</ele>
        <time>2011-04-21T07:49:37Z</time>
      </trkpt>
      <trkpt lat="31.606223909184337" lon="-3.91240811906755">
        <ele>1028.267333984375</ele>
        <time>2011-04-21T07:49:52Z</time>
      </trkpt>
      <trkpt lat="31.605361243709922" lon="-3.913049250841141">
        <ele>1027.30615234375</ele>
        <time>2011-04-21T07:50:05Z</time>
      </trkpt>
      <trkpt lat="31.604442000389099" lon="-3.914078883826733">
        <ele>1026.3447265625</ele>
        <time>2011-04-21T07:50:20Z</time>
      </trkpt>
      <trkpt lat="31.603865996003151" lon="-3.914638878777623">
        <ele>1020.576904296875</ele>
        <time>2011-04-21T07:50:30Z</time>
      </trkpt>
      <trkpt lat="31.603301307186484" lon="-3.915254781022668">
        <ele>1013.366943359375</ele>
        <time>2011-04-21T07:50:43Z</time>
      </trkpt>
      <trkpt lat="31.602359935641289" lon="-3.916169749572873">
        <ele>998.46630859375</ele>
        <time>2011-04-21T07:50:59Z</time>
      </trkpt>
      <trkpt lat="31.601601541042328" lon="-3.916957061737776">
        <ele>973.952880859375</ele>
        <time>2011-04-21T07:51:12Z</time>
      </trkpt>
      <trkpt lat="31.600993014872074" lon="-3.917585788294673">
        <ele>958.09130859375</ele>
        <time>2011-04-21T07:51:23Z</time>
      </trkpt>
      <trkpt lat="31.600586408749223" lon="-3.918046709150076">
        <ele>947.5166015625</ele>
        <time>2011-04-21T07:51:32Z</time>
      </trkpt>
      <trkpt lat="31.599847041070461" lon="-3.918830081820488">
        <ele>932.135498046875</ele>
        <time>2011-04-21T07:51:46Z</time>
      </trkpt>
      <trkpt lat="31.599048748612404" lon="-3.919797018170357">
        <ele>921.560791015625</ele>
        <time>2011-04-21T07:52:02Z</time>
      </trkpt>
      <trkpt lat="31.598360342904925" lon="-3.920712321996689">
        <ele>923.483642578125</ele>
        <time>2011-04-21T07:52:14Z</time>
      </trkpt>
      <trkpt lat="31.597725665196776" lon="-3.921551266685128">
        <ele>924.445068359375</ele>
        <time>2011-04-21T07:52:26Z</time>
      </trkpt>
      <trkpt lat="31.597075061872602" lon="-3.922550305724144">
        <ele>918.1962890625</ele>
        <time>2011-04-21T07:52:41Z</time>
      </trkpt>
      <trkpt lat="31.596531998366117" lon="-3.923323871567845">
        <ele>924.445068359375</ele>
        <time>2011-04-21T07:52:54Z</time>
      </trkpt>
      <trkpt lat="31.595829762518406" lon="-3.924362976104021">
        <ele>923.483642578125</ele>
        <time>2011-04-21T07:53:09Z</time>
      </trkpt>
      <trkpt lat="31.594893839210272" lon="-3.925324799492955">
        <ele>923.483642578125</ele>
        <time>2011-04-21T07:53:24Z</time>
      </trkpt>
      <trkpt lat="31.594133265316486" lon="-3.925709696486592">
        <ele>919.15771484375</ele>
        <time>2011-04-21T07:53:33Z</time>
      </trkpt>
      <trkpt lat="31.593231959268451" lon="-3.925846237689257">
        <ele>914.831787109375</ele>
        <time>2011-04-21T07:53:44Z</time>
      </trkpt>
      <trkpt lat="31.592496782541275" lon="-3.925954615697265">
        <ele>910.986572265625</ele>
        <time>2011-04-21T07:53:53Z</time>
      </trkpt>
      <trkpt lat="31.592352278530598" lon="-3.92593533731997">
        <ele>909.544677734375</ele>
        <time>2011-04-21T07:53:55Z</time>
      </trkpt>
      <trkpt lat="31.592082381248474" lon="-3.925887476652861">
        <ele>909.06396484375</ele>
        <time>2011-04-21T07:53:59Z</time>
      </trkpt>
      <trkpt lat="31.591733526438475" lon="-3.926028711721301">
        <ele>906.660400390625</ele>
        <time>2011-04-21T07:54:05Z</time>
      </trkpt>
      <trkpt lat="31.591586424037814" lon="-3.926076488569379">
        <ele>905.69921875</ele>
        <time>2011-04-21T07:54:07Z</time>
      </trkpt>
      <trkpt lat="31.590812606737018" lon="-3.926207916811109">
        <ele>903.2958984375</ele>
        <time>2011-04-21T07:54:16Z</time>
      </trkpt>
      <trkpt lat="31.590013559907675" lon="-3.92636138945818">
        <ele>898.4892578125</ele>
        <time>2011-04-21T07:54:26Z</time>
      </trkpt>
      <trkpt lat="31.589474016800523" lon="-3.926409166306257">
        <ele>896.086181640625</ele>
        <time>2011-04-21T07:54:33Z</time>
      </trkpt>
      <trkpt lat="31.588970432057977" lon="-3.926389217376709">
        <ele>899.45068359375</ele>
        <time>2011-04-21T07:54:42Z</time>
      </trkpt>
      <trkpt lat="31.588796256110072" lon="-3.926389217376709">
        <ele>898.969970703125</ele>
        <time>2011-04-21T07:54:46Z</time>
      </trkpt>
      <trkpt lat="31.588502218946815" lon="-3.926474042236805">
        <ele>898.4892578125</ele>
        <time>2011-04-21T07:54:55Z</time>
      </trkpt>
      <trkpt lat="31.588242882862687" lon="-3.926583593711257">
        <ele>899.45068359375</ele>
        <time>2011-04-21T07:55:04Z</time>
      </trkpt>
      <trkpt lat="31.587818004190922" lon="-3.926523495465517">
        <ele>906.1796875</ele>
        <time>2011-04-21T07:55:11Z</time>
      </trkpt>
      <trkpt lat="31.587257171049714" lon="-3.926403131335974">
        <ele>903.776611328125</ele>
        <time>2011-04-21T07:55:21Z</time>
      </trkpt>
      <trkpt lat="31.586749479174614" lon="-3.926223255693913">
        <ele>900.412109375</ele>
        <time>2011-04-21T07:55:32Z</time>
      </trkpt>
      <trkpt lat="31.586408335715532" lon="-3.926194841042161">
        <ele>898.969970703125</ele>
        <time>2011-04-21T07:55:39Z</time>
      </trkpt>
      <trkpt lat="31.586237512528896" lon="-3.926225854083896">
        <ele>899.45068359375</ele>
        <time>2011-04-21T07:55:44Z</time>
      </trkpt>
      <trkpt lat="31.585679110139608" lon="-3.926260471343994">
        <ele>901.373291015625</ele>
        <time>2011-04-21T07:55:54Z</time>
      </trkpt>
      <trkpt lat="31.585254231467843" lon="-3.926279498264194">
        <ele>908.583251953125</ele>
        <time>2011-04-21T07:56:02Z</time>
      </trkpt>
      <trkpt lat="31.585104530677199" lon="-3.926295340061188">
        <ele>915.3125</ele>
        <time>2011-04-21T07:58:48Z</time>
      </trkpt>
      <trkpt lat="31.584689458832145" lon="-3.926372872665525">
        <ele>909.06396484375</ele>
        <time>2011-04-21T07:58:55Z</time>
      </trkpt>
      <trkpt lat="31.583979511633515" lon="-3.926598094403744">
        <ele>903.2958984375</ele>
        <time>2011-04-21T07:59:04Z</time>
      </trkpt>
      <trkpt lat="31.583280796185136" lon="-3.926989026367664">
        <ele>899.45068359375</ele>
        <time>2011-04-21T07:59:14Z</time>
      </trkpt>
      <trkpt lat="31.582568334415555" lon="-3.927251882851124">
        <ele>894.64404296875</ele>
        <time>2011-04-21T07:59:23Z</time>
      </trkpt>
      <trkpt lat="31.582061145454645" lon="-3.927227910608053">
        <ele>898.4892578125</ele>
        <time>2011-04-21T07:59:31Z</time>
      </trkpt>
      <trkpt lat="31.581862326711416" lon="-3.927254229784012">
        <ele>901.373291015625</ele>
        <time>2011-04-21T07:59:39Z</time>
      </trkpt>
      <trkpt lat="31.581759648397565" lon="-3.927268981933594">
        <ele>901.85400390625</ele>
        <time>2011-04-21T07:59:41Z</time>
      </trkpt>
      <trkpt lat="31.581047102808952" lon="-3.927185581997037">
        <ele>906.1796875</ele>
        <time>2011-04-21T07:59:51Z</time>
      </trkpt>
      <trkpt lat="31.580257611349225" lon="-3.927161693572998">
        <ele>909.06396484375</ele>
        <time>2011-04-21T08:00:00Z</time>
      </trkpt>
      <trkpt lat="31.579476501792669" lon="-3.926910404115915">
        <ele>910.505859375</ele>
        <time>2011-04-21T08:00:08Z</time>
      </trkpt>
      <trkpt lat="31.578543344512582" lon="-3.926285784691572">
        <ele>912.428466796875</ele>
        <time>2011-04-21T08:00:19Z</time>
      </trkpt>
      <trkpt lat="31.577704064548016" lon="-3.925637360662222">
        <ele>922.04150390625</ele>
        <time>2011-04-21T08:00:28Z</time>
      </trkpt>
      <trkpt lat="31.577168963849545" lon="-3.925224132835865">
        <ele>928.290283203125</ele>
        <time>2011-04-21T08:00:34Z</time>
      </trkpt>
      <trkpt lat="31.576442420482635" lon="-3.924422571435571">
        <ele>925.886962890625</ele>
        <time>2011-04-21T08:00:42Z</time>
      </trkpt>
      <trkpt lat="31.576146958395839" lon="-3.924197684973478">
        <ele>924.92578125</ele>
        <time>2011-04-21T08:00:47Z</time>
      </trkpt>
      <trkpt lat="31.575915282592177" lon="-3.924157619476318">
        <ele>920.599609375</ele>
        <time>2011-04-21T08:00:53Z</time>
      </trkpt>
      <trkpt lat="31.575601045042276" lon="-3.924193410202861">
        <ele>918.1962890625</ele>
        <time>2011-04-21T08:00:59Z</time>
      </trkpt>
      <trkpt lat="31.574877183884382" lon="-3.924132473766804">
        <ele>925.886962890625</ele>
        <time>2011-04-21T08:01:08Z</time>
      </trkpt>
      <trkpt lat="31.574489017948508" lon="-3.923834748566151">
        <ele>932.6162109375</ele>
        <time>2011-04-21T08:01:14Z</time>
      </trkpt>
      <trkpt lat="31.574215767905116" lon="-3.92374774441123">
        <ele>929.732177734375</ele>
        <time>2011-04-21T08:01:20Z</time>
      </trkpt>
      <trkpt lat="31.574013344943523" lon="-3.923724023625255">
        <ele>928.77099609375</ele>
        <time>2011-04-21T08:01:27Z</time>
      </trkpt>
      <trkpt lat="31.573875965550542" lon="-3.923707762733102">
        <ele>933.0966796875</ele>
        <time>2011-04-21T08:01:32Z</time>
      </trkpt>
      <trkpt lat="31.573777310550213" lon="-3.923758557066321">
        <ele>944.152099609375</ele>
        <time>2011-04-21T08:01:36Z</time>
      </trkpt>
      <trkpt lat="31.573509676381946" lon="-3.923795856535435">
        <ele>948.477783203125</ele>
        <time>2011-04-21T08:01:41Z</time>
      </trkpt>
      <trkpt lat="31.573256039991975" lon="-3.923827959224582">
        <ele>963.85888671875</ele>
        <time>2011-04-21T08:01:48Z</time>
      </trkpt>
      <trkpt lat="31.573042301461101" lon="-3.923806250095367">
        <ele>967.2236328125</ele>
        <time>2011-04-21T08:01:56Z</time>
      </trkpt>
      <trkpt lat="31.572938868775964" lon="-3.923796527087688">
        <ele>967.2236328125</ele>
        <time>2011-04-21T08:02:00Z</time>
      </trkpt>
      <trkpt lat="31.572699230164289" lon="-3.923884285613895">
        <ele>970.588134765625</ele>
        <time>2011-04-21T08:02:06Z</time>
      </trkpt>
      <trkpt lat="31.572601245716214" lon="-3.924013366922736">
        <ele>967.7041015625</ele>
        <time>2011-04-21T08:02:13Z</time>
      </trkpt>
      <trkpt lat="31.572555061429739" lon="-3.924105735495687">
        <ele>963.37841796875</ele>
        <time>2011-04-21T08:02:18Z</time>
      </trkpt>
      <trkpt lat="31.571938320994377" lon="-3.924405220896006">
        <ele>960.013671875</ele>
        <time>2011-04-21T08:02:27Z</time>
      </trkpt>
      <trkpt lat="31.571616791188717" lon="-3.924533296376467">
        <ele>952.322998046875</ele>
        <time>2011-04-21T08:02:37Z</time>
      </trkpt>
      <trkpt lat="31.571470778435469" lon="-3.924606218934059">
        <ele>949.919921875</ele>
        <time>2011-04-21T08:02:40Z</time>
      </trkpt>
      <trkpt lat="31.571229211986065" lon="-3.924707723781467">
        <ele>946.07470703125</ele>
        <time>2011-04-21T08:02:45Z</time>
      </trkpt>
      <trkpt lat="31.571109350770712" lon="-3.924705209210515">
        <ele>945.593994140625</ele>
        <time>2011-04-21T08:02:47Z</time>
      </trkpt>
      <trkpt lat="31.57094556838274" lon="-3.924675453454256">
        <ele>945.11328125</ele>
        <time>2011-04-21T08:02:50Z</time>
      </trkpt>
      <trkpt lat="31.570726716890931" lon="-3.92467612400651">
        <ele>940.787353515625</ele>
        <time>2011-04-21T08:02:54Z</time>
      </trkpt>
      <trkpt lat="31.570403426885605" lon="-3.924787016585469">
        <ele>940.787353515625</ele>
        <time>2011-04-21T08:03:00Z</time>
      </trkpt>
      <trkpt lat="31.569947618991137" lon="-3.924975609406829">
        <ele>931.17431640625</ele>
        <time>2011-04-21T08:03:09Z</time>
      </trkpt>
      <trkpt lat="31.569488123059273" lon="-3.924979297444224">
        <ele>929.25146484375</ele>
        <time>2011-04-21T08:03:16Z</time>
      </trkpt>
      <trkpt lat="31.569345882162452" lon="-3.92491064965725">
        <ele>927.8095703125</ele>
        <time>2011-04-21T08:03:18Z</time>
      </trkpt>
      <trkpt lat="31.569014377892017" lon="-3.92462968826294">
        <ele>926.848388671875</ele>
        <time>2011-04-21T08:03:24Z</time>
      </trkpt>
      <trkpt lat="31.56895243562758" lon="-3.924128953367472">
        <ele>925.886962890625</ele>
        <time>2011-04-21T08:03:26Z</time>
      </trkpt>
      <trkpt lat="31.568866018205881" lon="-3.92381027340889">
        <ele>924.92578125</ele>
        <time>2011-04-21T08:03:30Z</time>
      </trkpt>
      <trkpt lat="31.568819582462311" lon="-3.923408193513751">
        <ele>927.3291015625</ele>
        <time>2011-04-21T08:03:35Z</time>
      </trkpt>
      <trkpt lat="31.568599389865994" lon="-3.923256816342473">
        <ele>933.577392578125</ele>
        <time>2011-04-21T08:03:41Z</time>
      </trkpt>
      <trkpt lat="31.568552367389202" lon="-3.923406517133117">
        <ele>936.46142578125</ele>
        <time>2011-04-21T08:03:45Z</time>
      </trkpt>
      <trkpt lat="31.568495118990541" lon="-3.923633666709065">
        <ele>937.422607421875</ele>
        <time>2011-04-21T08:03:52Z</time>
      </trkpt>
      <trkpt lat="31.568304933607578" lon="-3.92379124648869">
        <ele>938.86474609375</ele>
        <time>2011-04-21T08:04:01Z</time>
      </trkpt>
      <trkpt lat="31.568222874775529" lon="-3.923978917300701">
        <ele>938.384033203125</ele>
        <time>2011-04-21T08:04:07Z</time>
      </trkpt>
      <trkpt lat="31.568188676610589" lon="-3.924269769340754">
        <ele>938.384033203125</ele>
        <time>2011-04-21T08:04:16Z</time>
      </trkpt>
      <trkpt lat="31.568309543654323" lon="-3.9243692625314">
        <ele>943.190673828125</ele>
        <time>2011-04-21T08:04:25Z</time>
      </trkpt>
      <trkpt lat="31.568397553637624" lon="-3.924515191465616">
        <ele>945.593994140625</ele>
        <time>2011-04-21T08:04:30Z</time>
      </trkpt>
      <trkpt lat="31.56829328276217" lon="-3.924583336338401">
        <ele>941.748779296875</ele>
        <time>2011-04-21T08:04:37Z</time>
      </trkpt>
      <trkpt lat="31.56803872436285" lon="-3.924566153436899">
        <ele>939.34521484375</ele>
        <time>2011-04-21T08:04:45Z</time>
      </trkpt>
      <trkpt lat="31.568143162876368" lon="-3.925127740949392">
        <ele>938.86474609375</ele>
        <time>2011-04-21T08:04:46Z</time>
      </trkpt>
      <trkpt lat="31.567984828725457" lon="-3.925290266051889">
        <ele>939.825927734375</ele>
        <time>2011-04-21T08:04:55Z</time>
      </trkpt>
      <trkpt lat="31.567306313663721" lon="-3.925911616533995">
        <ele>940.787353515625</ele>
        <time>2011-04-21T08:05:08Z</time>
      </trkpt>
      <trkpt lat="31.567163318395615" lon="-3.92606190405786">
        <ele>940.787353515625</ele>
        <time>2011-04-21T08:05:13Z</time>
      </trkpt>
      <trkpt lat="31.566927954554558" lon="-3.926555598154664">
        <ele>942.710205078125</ele>
        <time>2011-04-21T08:05:23Z</time>
      </trkpt>
      <trkpt lat="31.56599379144609" lon="-3.926616786047816">
        <ele>943.67138671875</ele>
        <time>2011-04-21T08:05:31Z</time>
      </trkpt>
      <trkpt lat="31.566038131713867" lon="-3.927397727966309">
        <ele>943.67138671875</ele>
        <time>2011-04-21T08:05:35Z</time>
      </trkpt>
      <trkpt lat="31.565532451495528" lon="-3.927026828750968">
        <ele>944.152099609375</ele>
        <time>2011-04-21T08:05:41Z</time>
      </trkpt>
      <trkpt lat="31.564949322491884" lon="-3.927584644407034">
        <ele>942.2294921875</ele>
        <time>2011-04-21T08:05:51Z</time>
      </trkpt>
      <trkpt lat="31.564601305872202" lon="-3.928705556318164">
        <ele>942.710205078125</ele>
        <time>2011-04-21T08:06:02Z</time>
      </trkpt>
      <trkpt lat="31.564145162701607" lon="-3.929325733333826">
        <ele>941.26806640625</ele>
        <time>2011-04-21T08:06:12Z</time>
      </trkpt>
      <trkpt lat="31.563825309276581" lon="-3.929996285587549">
        <ele>940.306884765625</ele>
        <time>2011-04-21T08:06:21Z</time>
      </trkpt>
      <trkpt lat="31.563741825520992" lon="-3.930193344131112">
        <ele>938.86474609375</ele>
        <time>2011-04-21T08:06:24Z</time>
      </trkpt>
      <trkpt lat="31.563251316547394" lon="-3.930139699950814">
        <ele>939.825927734375</ele>
        <time>2011-04-21T08:06:29Z</time>
      </trkpt>
      <trkpt lat="31.563582653179765" lon="-3.930815365165472">
        <ele>946.07470703125</ele>
        <time>2011-04-21T08:06:37Z</time>
      </trkpt>
      <trkpt lat="31.563575780019164" lon="-3.931265892460942">
        <ele>947.5166015625</ele>
        <time>2011-04-21T08:06:42Z</time>
      </trkpt>
      <trkpt lat="31.563485423102975" lon="-3.931721951812506">
        <ele>948.477783203125</ele>
        <time>2011-04-21T08:06:48Z</time>
      </trkpt>
      <trkpt lat="31.56340504065156" lon="-3.931897971779108">
        <ele>948.477783203125</ele>
        <time>2011-04-21T08:06:49Z</time>
      </trkpt>
      <trkpt lat="31.563212927430868" lon="-3.932103998959065">
        <ele>947.997314453125</ele>
        <time>2011-04-21T08:06:51Z</time>
      </trkpt>
      <trkpt lat="31.563055515289307" lon="-3.932204246520996">
        <ele>946.07470703125</ele>
        <time>2011-04-21T08:06:55Z</time>
      </trkpt>
      <trkpt lat="31.562883853912354" lon="-3.932397365570068">
        <ele>946.07470703125</ele>
        <time>2011-04-21T08:07:04Z</time>
      </trkpt>
      <trkpt lat="31.562597192823887" lon="-3.932668603956699">
        <ele>946.07470703125</ele>
        <time>2011-04-21T08:07:09Z</time>
      </trkpt>
      <trkpt lat="31.5623081009835" lon="-3.932982925325632">
        <ele>945.593994140625</ele>
        <time>2011-04-21T08:07:16Z</time>
      </trkpt>
      <trkpt lat="31.561717512086034" lon="-3.933784319087863">
        <ele>944.632568359375</ele>
        <time>2011-04-21T08:07:25Z</time>
      </trkpt>
      <trkpt lat="31.560998009517789" lon="-3.934375829994679">
        <ele>944.152099609375</ele>
        <time>2011-04-21T08:07:36Z</time>
      </trkpt>
      <trkpt lat="31.560020679607987" lon="-3.934555789455771">
        <ele>945.593994140625</ele>
        <time>2011-04-21T08:07:46Z</time>
      </trkpt>
      <trkpt lat="31.559378374367952" lon="-3.935394231230021">
        <ele>945.593994140625</ele>
        <time>2011-04-21T08:07:58Z</time>
      </trkpt>
      <trkpt lat="31.55911099165678" lon="-3.935540663078427">
        <ele>938.384033203125</ele>
        <time>2011-04-21T08:08:06Z</time>
      </trkpt>
      <trkpt lat="31.558863893151283" lon="-3.935728836804628">
        <ele>931.65478515625</ele>
        <time>2011-04-21T08:08:18Z</time>
      </trkpt>
      <trkpt lat="31.558598941192031" lon="-3.936010636389256">
        <ele>929.732177734375</ele>
        <time>2011-04-21T08:08:28Z</time>
      </trkpt>
      <trkpt lat="31.558152018114924" lon="-3.936196714639664">
        <ele>930.212890625</ele>
        <time>2011-04-21T08:08:36Z</time>
      </trkpt>
      <trkpt lat="31.55808680690825" lon="-3.935991022735834">
        <ele>925.886962890625</ele>
        <time>2011-04-21T08:08:46Z</time>
      </trkpt>
      <trkpt lat="31.557962084189057" lon="-3.935651974752545">
        <ele>921.080322265625</ele>
        <time>2011-04-21T08:08:56Z</time>
      </trkpt>
      <trkpt lat="31.557827554643154" lon="-3.935474865138531">
        <ele>920.599609375</ele>
        <time>2011-04-21T08:09:06Z</time>
      </trkpt>
      <trkpt lat="31.557669639587402" lon="-3.935294151306152">
        <ele>924.92578125</ele>
        <time>2011-04-21T08:09:14Z</time>
      </trkpt>
      <trkpt lat="31.557044349610806" lon="-3.935566898435354">
        <ele>924.92578125</ele>
        <time>2011-04-21T08:09:18Z</time>
      </trkpt>
      <trkpt lat="31.556865395978093" lon="-3.935790192335844">
        <ele>926.36767578125</ele>
        <time>2011-04-21T08:09:24Z</time>
      </trkpt>
      <trkpt lat="31.556663140654564" lon="-3.93602748401463">
        <ele>924.445068359375</ele>
        <time>2011-04-21T08:09:29Z</time>
      </trkpt>
      <trkpt lat="31.556432638317347" lon="-3.936531990766525">
        <ele>928.290283203125</ele>
        <time>2011-04-21T08:09:39Z</time>
      </trkpt>
      <trkpt lat="31.55637270770967" lon="-3.936756541952491">
        <ele>930.693603515625</ele>
        <time>2011-04-21T08:09:44Z</time>
      </trkpt>
      <trkpt lat="31.556339263916016" lon="-3.936930550262332">
        <ele>933.0966796875</ele>
        <time>2011-04-21T08:09:52Z</time>
      </trkpt>
      <trkpt lat="31.556339263916016" lon="-3.937114784494042">
        <ele>935.01953125</ele>
        <time>2011-04-21T08:10:02Z</time>
      </trkpt>
      <trkpt lat="31.555796870961785" lon="-3.937985161319375">
        <ele>938.384033203125</ele>
        <time>2011-04-21T08:10:15Z</time>
      </trkpt>
      <trkpt lat="31.554822474718094" lon="-3.938145926222205">
        <ele>938.86474609375</ele>
        <time>2011-04-21T08:10:27Z</time>
      </trkpt>
      <trkpt lat="31.554220654070377" lon="-3.938517579808831">
        <ele>939.34521484375</ele>
        <time>2011-04-21T08:10:37Z</time>
      </trkpt>
      <trkpt lat="31.553654372692108" lon="-3.939494909718633">
        <ele>933.577392578125</ele>
        <time>2011-04-21T08:10:50Z</time>
      </trkpt>
      <trkpt lat="31.553158415481448" lon="-3.940000254660845">
        <ele>930.693603515625</ele>
        <time>2011-04-21T08:10:59Z</time>
      </trkpt>
      <trkpt lat="31.552808973938227" lon="-3.940379954874516">
        <ele>931.17431640625</ele>
        <time>2011-04-21T08:11:05Z</time>
      </trkpt>
      <trkpt lat="31.552731776610017" lon="-3.94044172950089">
        <ele>931.17431640625</ele>
        <time>2011-04-21T08:11:07Z</time>
      </trkpt>
      <trkpt lat="31.552589451894164" lon="-3.940646247938275">
        <ele>933.0966796875</ele>
        <time>2011-04-21T08:11:14Z</time>
      </trkpt>
      <trkpt lat="31.552519798278809" lon="-3.940808773040772">
        <ele>935.01953125</ele>
        <time>2011-04-21T08:11:17Z</time>
      </trkpt>
      <trkpt lat="31.552552571520209" lon="-3.941087890416384">
        <ele>935.5</ele>
        <time>2011-04-21T08:11:22Z</time>
      </trkpt>
      <trkpt lat="31.552326679229736" lon="-3.941624164581299">
        <ele>935.5</ele>
        <time>2011-04-21T08:11:27Z</time>
      </trkpt>
      <trkpt lat="31.552165579050779" lon="-3.941946364939213">
        <ele>935.01953125</ele>
        <time>2011-04-21T08:11:34Z</time>
      </trkpt>
      <trkpt lat="31.551827453076839" lon="-3.942380882799625">
        <ele>935.980712890625</ele>
        <time>2011-04-21T08:11:42Z</time>
      </trkpt>
      <trkpt lat="31.551437024027109" lon="-3.942723199725151">
        <ele>935.980712890625</ele>
        <time>2011-04-21T08:11:51Z</time>
      </trkpt>
      <trkpt lat="31.551175760105252" lon="-3.943039448931813">
        <ele>936.46142578125</ele>
        <time>2011-04-21T08:12:00Z</time>
      </trkpt>
      <trkpt lat="31.550676869228482" lon="-3.943667924031615">
        <ele>935.980712890625</ele>
        <time>2011-04-21T08:12:11Z</time>
      </trkpt>
      <trkpt lat="31.549862399697304" lon="-3.943868586793542">
        <ele>935.01953125</ele>
        <time>2011-04-21T08:12:21Z</time>
      </trkpt>
      <trkpt lat="31.549496194347739" lon="-3.944527991116047">
        <ele>934.05810546875</ele>
        <time>2011-04-21T08:12:31Z</time>
      </trkpt>
      <trkpt lat="31.549260830506682" lon="-3.946015276014805">
        <ele>933.0966796875</ele>
        <time>2011-04-21T08:12:46Z</time>
      </trkpt>
      <trkpt lat="31.548545099794865" lon="-3.947174241766334">
        <ele>931.17431640625</ele>
        <time>2011-04-21T08:13:00Z</time>
      </trkpt>
      <trkpt lat="31.54827076010406" lon="-3.94759719260037">
        <ele>930.212890625</ele>
        <time>2011-04-21T08:13:07Z</time>
      </trkpt>
      <trkpt lat="31.54819842427969" lon="-3.947717808187008">
        <ele>930.212890625</ele>
        <time>2011-04-21T08:13:09Z</time>
      </trkpt>
      <trkpt lat="31.54799222946167" lon="-3.948061466217041">
        <ele>930.212890625</ele>
        <time>2011-04-21T08:13:15Z</time>
      </trkpt>
      <trkpt lat="31.547949984669685" lon="-3.948272690176964">
        <ele>928.290283203125</ele>
        <time>2011-04-21T08:13:20Z</time>
      </trkpt>
      <trkpt lat="31.547766672447324" lon="-3.948790021240711">
        <ele>927.8095703125</ele>
        <time>2011-04-21T08:13:27Z</time>
      </trkpt>
      <trkpt lat="31.547157224267721" lon="-3.948542922735214">
        <ele>927.8095703125</ele>
        <time>2011-04-21T08:13:32Z</time>
      </trkpt>
      <trkpt lat="31.547434162348509" lon="-3.949167625978589">
        <ele>929.25146484375</ele>
        <time>2011-04-21T08:13:37Z</time>
      </trkpt>
      <trkpt lat="31.546462113037705" lon="-3.949632570147514">
        <ele>928.290283203125</ele>
        <time>2011-04-21T08:13:50Z</time>
      </trkpt>
      <trkpt lat="31.546160699799657" lon="-3.949741870164871">
        <ele>925.40625</ele>
        <time>2011-04-21T08:13:56Z</time>
      </trkpt>
      <trkpt lat="31.545649068430066" lon="-3.949331240728498">
        <ele>922.522216796875</ele>
        <time>2011-04-21T08:14:03Z</time>
      </trkpt>
      <trkpt lat="31.545050852000713" lon="-3.95021041855216">
        <ele>922.522216796875</ele>
        <time>2011-04-21T08:14:16Z</time>
      </trkpt>
      <trkpt lat="31.544559672474861" lon="-3.951030839234591">
        <ele>926.36767578125</ele>
        <time>2011-04-21T08:14:27Z</time>
      </trkpt>
      <trkpt lat="31.544720772653818" lon="-3.951756795868278">
        <ele>929.732177734375</ele>
        <time>2011-04-21T08:14:33Z</time>
      </trkpt>
      <trkpt lat="31.544386418536305" lon="-3.952416786924005">
        <ele>935.5</ele>
        <time>2011-04-21T08:14:41Z</time>
      </trkpt>
      <trkpt lat="31.544065810739994" lon="-3.952738903462887">
        <ele>940.787353515625</ele>
        <time>2011-04-21T08:14:45Z</time>
      </trkpt>
      <trkpt lat="31.543488884344697" lon="-3.953093206509948">
        <ele>954.726318359375</ele>
        <time>2011-04-21T08:14:52Z</time>
      </trkpt>
      <trkpt lat="31.543288724496961" lon="-3.953066803514957">
        <ele>957.1298828125</ele>
        <time>2011-04-21T08:14:54Z</time>
      </trkpt>
      <trkpt lat="31.542185330763459" lon="-3.952812580391765">
        <ele>968.66552734375</ele>
        <time>2011-04-21T08:15:06Z</time>
      </trkpt>
      <trkpt lat="31.541841337457299" lon="-3.952736221253872">
        <ele>971.54931640625</ele>
        <time>2011-04-21T08:15:11Z</time>
      </trkpt>
      <trkpt lat="31.541692977771163" lon="-3.952703280374408">
        <ele>972.510986328125</ele>
        <time>2011-04-21T08:15:13Z</time>
      </trkpt>
      <trkpt lat="31.540799047797918" lon="-3.952567828819156">
        <ele>978.759521484375</ele>
        <time>2011-04-21T08:15:23Z</time>
      </trkpt>
      <trkpt lat="31.539672520011663" lon="-3.952278988435864">
        <ele>983.56591796875</ele>
        <time>2011-04-21T08:15:35Z</time>
      </trkpt>
      <trkpt lat="31.538859391584992" lon="-3.952023675665259">
        <ele>985.96923828125</ele>
        <time>2011-04-21T08:15:44Z</time>
      </trkpt>
      <trkpt lat="31.538035869598389" lon="-3.951796442270279">
        <ele>985.008056640625</ele>
        <time>2011-04-21T08:15:52Z</time>
      </trkpt>
      <trkpt lat="31.536797108128667" lon="-3.951499471440911">
        <ele>985.96923828125</ele>
        <time>2011-04-21T08:16:03Z</time>
      </trkpt>
      <trkpt lat="31.535322312265635" lon="-3.95091307349503">
        <ele>993.17919921875</ele>
        <time>2011-04-21T08:16:15Z</time>
      </trkpt>
      <trkpt lat="31.533931670710444" lon="-3.950402112677693">
        <ele>997.0244140625</ele>
        <time>2011-04-21T08:16:26Z</time>
      </trkpt>
      <trkpt lat="31.532842693850398" lon="-3.950018975883722">
        <ele>998.947021484375</ele>
        <time>2011-04-21T08:16:35Z</time>
      </trkpt>
      <trkpt lat="31.532017160207033" lon="-3.949754862114787">
        <ele>1000.38916015625</ele>
        <time>2011-04-21T08:16:44Z</time>
      </trkpt>
      <trkpt lat="31.531509971246123" lon="-3.949536429718137">
        <ele>1001.8310546875</ele>
        <time>2011-04-21T08:16:51Z</time>
      </trkpt>
      <trkpt lat="31.530838077887893" lon="-3.94932746887207">
        <ele>1003.753662109375</ele>
        <time>2011-04-21T08:17:00Z</time>
      </trkpt>
      <trkpt lat="31.530335834249854" lon="-3.949233507737517">
        <ele>995.58251953125</ele>
        <time>2011-04-21T08:17:09Z</time>
      </trkpt>
      <trkpt lat="31.529901567846537" lon="-3.94916569814086">
        <ele>992.69873046875</ele>
        <time>2011-04-21T08:17:18Z</time>
      </trkpt>
      <trkpt lat="31.529305363073945" lon="-3.949187155812979">
        <ele>991.256591796875</ele>
        <time>2011-04-21T08:17:26Z</time>
      </trkpt>
      <trkpt lat="31.52851645834744" lon="-3.949217079207301">
        <ele>987.4111328125</ele>
        <time>2011-04-21T08:17:37Z</time>
      </trkpt>
      <trkpt lat="31.52807230129838" lon="-3.949117753654718">
        <ele>987.4111328125</ele>
        <time>2011-04-21T08:17:46Z</time>
      </trkpt>
      <trkpt lat="31.527238050475717" lon="-3.948853136971593">
        <ele>989.333984375</ele>
        <time>2011-04-21T08:17:59Z</time>
      </trkpt>
      <trkpt lat="31.526593901216984" lon="-3.948452146723867">
        <ele>993.17919921875</ele>
        <time>2011-04-21T08:18:09Z</time>
      </trkpt>
      <trkpt lat="31.525823017582297" lon="-3.947917548939586">
        <ele>995.101806640625</ele>
        <time>2011-04-21T08:18:19Z</time>
      </trkpt>
      <trkpt lat="31.525110304355621" lon="-3.94717700779438">
        <ele>996.063232421875</ele>
        <time>2011-04-21T08:18:31Z</time>
      </trkpt>
      <trkpt lat="31.524394489824772" lon="-3.946271594613791">
        <ele>995.58251953125</ele>
        <time>2011-04-21T08:18:44Z</time>
      </trkpt>
      <trkpt lat="31.523615811020136" lon="-3.945335671305656">
        <ele>996.063232421875</ele>
        <time>2011-04-21T08:18:57Z</time>
      </trkpt>
      <trkpt lat="31.523154554888606" lon="-3.944657323881984">
        <ele>997.0244140625</ele>
        <time>2011-04-21T08:19:07Z</time>
      </trkpt>
      <trkpt lat="31.522569581866264" lon="-3.943901946768165">
        <ele>997.505126953125</ele>
        <time>2011-04-21T08:19:19Z</time>
      </trkpt>
      <trkpt lat="31.52199718169868" lon="-3.943225694820285">
        <ele>997.505126953125</ele>
        <time>2011-04-21T08:19:30Z</time>
      </trkpt>
      <trkpt lat="31.521495440974832" lon="-3.942641308531165">
        <ele>998.947021484375</ele>
        <time>2011-04-21T08:19:40Z</time>
      </trkpt>
      <trkpt lat="31.520955394953489" lon="-3.941953741014004">
        <ele>1003.27294921875</ele>
        <time>2011-04-21T08:19:52Z</time>
      </trkpt>
      <trkpt lat="31.520552979782224" lon="-3.941212696954608">
        <ele>1004.234619140625</ele>
        <time>2011-04-21T08:20:02Z</time>
      </trkpt>
      <trkpt lat="31.520246202126145" lon="-3.940551867708564">
        <ele>1007.59912109375</ele>
        <time>2011-04-21T08:20:10Z</time>
      </trkpt>
      <trkpt lat="31.519442461431026" lon="-3.939407486468554">
        <ele>1012.405517578125</ele>
        <time>2011-04-21T08:20:23Z</time>
      </trkpt>
      <trkpt lat="31.519104754552245" lon="-3.93905159085989">
        <ele>1013.847412109375</ele>
        <time>2011-04-21T08:20:29Z</time>
      </trkpt>
      <trkpt lat="31.518724132329226" lon="-3.938675411045551">
        <ele>1015.28955078125</ele>
        <time>2011-04-21T08:20:36Z</time>
      </trkpt>
      <trkpt lat="31.518028182908893" lon="-3.937914837151766">
        <ele>1015.770263671875</ele>
        <time>2011-04-21T08:20:45Z</time>
      </trkpt>
      <trkpt lat="31.51697407476604" lon="-3.936552777886391">
        <ele>1017.212158203125</ele>
        <time>2011-04-21T08:20:59Z</time>
      </trkpt>
      <trkpt lat="31.515870429575443" lon="-3.935151156038046">
        <ele>1017.692626953125</ele>
        <time>2011-04-21T08:21:13Z</time>
      </trkpt>
      <trkpt lat="31.515370113775134" lon="-3.934519328176975">
        <ele>1015.770263671875</ele>
        <time>2011-04-21T08:21:21Z</time>
      </trkpt>
      <trkpt lat="31.514776591211557" lon="-3.93383402377367">
        <ele>1016.7314453125</ele>
        <time>2011-04-21T08:21:30Z</time>
      </trkpt>
      <trkpt lat="31.514142416417599" lon="-3.933384418487549">
        <ele>1017.212158203125</ele>
        <time>2011-04-21T08:21:39Z</time>
      </trkpt>
      <trkpt lat="31.51402473449707" lon="-3.933320045471191">
        <ele>1017.692626953125</ele>
        <time>2011-04-21T08:21:41Z</time>
      </trkpt>
      <trkpt lat="31.513749975711107" lon="-3.933280985802412">
        <ele>1017.212158203125</ele>
        <time>2011-04-21T08:21:45Z</time>
      </trkpt>
      <trkpt lat="31.51309191249311" lon="-3.933286936953664">
        <ele>1010.002197265625</ele>
        <time>2011-04-21T08:21:54Z</time>
      </trkpt>
      <trkpt lat="31.512950006872416" lon="-3.933324739336968">
        <ele>1008.560302734375</ele>
        <time>2011-04-21T08:21:57Z</time>
      </trkpt>
      <trkpt lat="31.512414654716849" lon="-3.93336296081543">
        <ele>1005.19580078125</ele>
        <time>2011-04-21T08:22:07Z</time>
      </trkpt>
      <trkpt lat="31.512082479894161" lon="-3.933320045471191">
        <ele>1006.156982421875</ele>
        <time>2011-04-21T08:22:14Z</time>
      </trkpt>
      <trkpt lat="31.511847283691168" lon="-3.933231364935637">
        <ele>1007.59912109375</ele>
        <time>2011-04-21T08:22:20Z</time>
      </trkpt>
      <trkpt lat="31.511523323133588" lon="-3.932985942810774">
        <ele>1012.88623046875</ele>
        <time>2011-04-21T08:22:30Z</time>
      </trkpt>
      <trkpt lat="31.511422237381339" lon="-3.932831883430481">
        <ele>1014.808837890625</ele>
        <time>2011-04-21T08:22:34Z</time>
      </trkpt>
      <trkpt lat="31.511259879916906" lon="-3.932512113824487">
        <ele>1016.250732421875</ele>
        <time>2011-04-21T08:22:39Z</time>
      </trkpt>
      <trkpt lat="31.511052930727601" lon="-3.932043565437198">
        <ele>1019.134765625</ele>
        <time>2011-04-21T08:22:44Z</time>
      </trkpt>
      <trkpt lat="31.510531324893236" lon="-3.931447025388479">
        <ele>1025.38330078125</ele>
        <time>2011-04-21T08:22:51Z</time>
      </trkpt>
      <trkpt lat="31.510139303281903" lon="-3.931142091751099">
        <ele>1025.864013671875</ele>
        <time>2011-04-21T08:22:57Z</time>
      </trkpt>
      <trkpt lat="31.509519126266241" lon="-3.930417224764824">
        <ele>1026.3447265625</ele>
        <time>2011-04-21T08:23:06Z</time>
      </trkpt>
      <trkpt lat="31.508635003119707" lon="-3.929287176579237">
        <ele>1028.748046875</ele>
        <time>2011-04-21T08:23:17Z</time>
      </trkpt>
      <trkpt lat="31.507704947143793" lon="-3.92826902680099">
        <ele>1030.18994140625</ele>
        <time>2011-04-21T08:23:27Z</time>
      </trkpt>
      <trkpt lat="31.506598787382245" lon="-3.927074270322919">
        <ele>1032.112548828125</ele>
        <time>2011-04-21T08:23:38Z</time>
      </trkpt>
      <trkpt lat="31.505670994520187" lon="-3.926119152456522">
        <ele>1033.07373046875</ele>
        <time>2011-04-21T08:23:47Z</time>
      </trkpt>
      <trkpt lat="31.504686791449785" lon="-3.924996564164758">
        <ele>1034.99658203125</ele>
        <time>2011-04-21T08:23:57Z</time>
      </trkpt>
      <trkpt lat="31.503792107105255" lon="-3.924134988337755">
        <ele>1036.919189453125</ele>
        <time>2011-04-21T08:24:05Z</time>
      </trkpt>
      <trkpt lat="31.502506406977773" lon="-3.922887844964862">
        <ele>1038.361328125</ele>
        <time>2011-04-21T08:24:16Z</time>
      </trkpt>
      <trkpt lat="31.501470571383834" lon="-3.921781349927187">
        <ele>1040.283935546875</ele>
        <time>2011-04-21T08:24:25Z</time>
      </trkpt>
      <trkpt lat="31.500425850972533" lon="-3.920531943440437">
        <ele>1042.20654296875</ele>
        <time>2011-04-21T08:24:35Z</time>
      </trkpt>
      <trkpt lat="31.499570477753878" lon="-3.919398542493582">
        <ele>1040.764404296875</ele>
        <time>2011-04-21T08:24:43Z</time>
      </trkpt>
      <trkpt lat="31.498248735442758" lon="-3.917576149106026">
        <ele>1039.80322265625</ele>
        <time>2011-04-21T08:24:55Z</time>
      </trkpt>
      <trkpt lat="31.497252630069852" lon="-3.916251556947827">
        <ele>1038.361328125</ele>
        <time>2011-04-21T08:25:04Z</time>
      </trkpt>
      <trkpt lat="31.496365070343018" lon="-3.914687745273113">
        <ele>1038.842041015625</ele>
        <time>2011-04-21T08:25:14Z</time>
      </trkpt>
      <trkpt lat="31.495804823935032" lon="-3.913488546386361">
        <ele>1038.361328125</ele>
        <time>2011-04-21T08:25:22Z</time>
      </trkpt>
      <trkpt lat="31.495515648275614" lon="-3.91250241547823">
        <ele>1037.39990234375</ele>
        <time>2011-04-21T08:25:30Z</time>
      </trkpt>
      <trkpt lat="31.495506763458252" lon="-3.911539753898978">
        <ele>1037.39990234375</ele>
        <time>2011-04-21T08:25:39Z</time>
      </trkpt>
      <trkpt lat="31.495581613853574" lon="-3.90998650342226">
        <ele>1036.438720703125</ele>
        <time>2011-04-21T08:25:53Z</time>
      </trkpt>
      <trkpt lat="31.495778504759073" lon="-3.90891931951046">
        <ele>1034.99658203125</ele>
        <time>2011-04-21T08:26:04Z</time>
      </trkpt>
      <trkpt lat="31.495985118672252" lon="-3.90784777700901">
        <ele>1034.515869140625</ele>
        <time>2011-04-21T08:26:15Z</time>
      </trkpt>
      <trkpt lat="31.496287789195776" lon="-3.906171647831798">
        <ele>1033.07373046875</ele>
        <time>2011-04-21T08:26:28Z</time>
      </trkpt>
      <trkpt lat="31.49636272341013" lon="-3.904745802283287">
        <ele>1032.112548828125</ele>
        <time>2011-04-21T08:26:38Z</time>
      </trkpt>
      <trkpt lat="31.49619952775538" lon="-3.903621369972825">
        <ele>1033.07373046875</ele>
        <time>2011-04-21T08:26:46Z</time>
      </trkpt>
      <trkpt lat="31.496176896616817" lon="-3.903516763821244">
        <ele>1032.59326171875</ele>
        <time>2011-04-21T08:26:47Z</time>
      </trkpt>
      <trkpt lat="31.496069608256221" lon="-3.902850402519107">
        <ele>1032.59326171875</ele>
        <time>2011-04-21T08:26:56Z</time>
      </trkpt>
      <trkpt lat="31.49597036652267" lon="-3.902189740911126">
        <ele>1033.07373046875</ele>
        <time>2011-04-21T08:27:06Z</time>
      </trkpt>
      <trkpt lat="31.49591906927526" lon="-3.902027299627662">
        <ele>1034.03515625</ele>
        <time>2011-04-21T08:27:09Z</time>
      </trkpt>
      <trkpt lat="31.495748749002814" lon="-3.901721863076091">
        <ele>1034.515869140625</ele>
        <time>2011-04-21T08:27:14Z</time>
      </trkpt>
      <trkpt lat="31.495614051818848" lon="-3.901519775390625">
        <ele>1035.47705078125</ele>
        <time>2011-04-21T08:27:18Z</time>
      </trkpt>
      <trkpt lat="31.495084902271628" lon="-3.901229929178953">
        <ele>1035.957763671875</ele>
        <time>2011-04-21T08:27:26Z</time>
      </trkpt>
      <trkpt lat="31.494955318048596" lon="-3.901125239208341">
        <ele>1035.957763671875</ele>
        <time>2011-04-21T08:27:28Z</time>
      </trkpt>
      <trkpt lat="31.494777202606201" lon="-3.900961875915527">
        <ele>1035.957763671875</ele>
        <time>2011-04-21T08:27:31Z</time>
      </trkpt>
      <trkpt lat="31.494173537939787" lon="-3.900588126853108">
        <ele>1036.438720703125</ele>
        <time>2011-04-21T08:27:40Z</time>
      </trkpt>
      <trkpt lat="31.493879836052656" lon="-3.900046655908227">
        <ele>1037.880615234375</ele>
        <time>2011-04-21T08:27:47Z</time>
      </trkpt>
      <trkpt lat="31.493630306795239" lon="-3.899167561903596">
        <ele>1036.438720703125</ele>
        <time>2011-04-21T08:27:58Z</time>
      </trkpt>
      <trkpt lat="31.493362756446004" lon="-3.898651488125324">
        <ele>1036.438720703125</ele>
        <time>2011-04-21T08:28:05Z</time>
      </trkpt>
      <trkpt lat="31.49320132099092" lon="-3.898211438208818">
        <ele>1036.919189453125</ele>
        <time>2011-04-21T08:28:10Z</time>
      </trkpt>
      <trkpt lat="31.493124961853027" lon="-3.897798545658588">
        <ele>1036.919189453125</ele>
        <time>2011-04-21T08:28:14Z</time>
      </trkpt>
      <trkpt lat="31.493169637396932" lon="-3.89708524569869">
        <ele>1036.919189453125</ele>
        <time>2011-04-21T08:28:21Z</time>
      </trkpt>
      <trkpt lat="31.493232250213623" lon="-3.896279996261001">
        <ele>1034.99658203125</ele>
        <time>2011-04-21T08:28:30Z</time>
      </trkpt>
      <trkpt lat="31.493103001266718" lon="-3.895681779831648">
        <ele>1037.880615234375</ele>
        <time>2011-04-21T08:28:36Z</time>
      </trkpt>
      <trkpt lat="31.492849783971906" lon="-3.895322280004621">
        <ele>1039.80322265625</ele>
        <time>2011-04-21T08:28:41Z</time>
      </trkpt>
      <trkpt lat="31.492677368223667" lon="-3.895149948075414">
        <ele>1042.687255859375</ele>
        <time>2011-04-21T08:28:44Z</time>
      </trkpt>
      <trkpt lat="31.492472179234028" lon="-3.894928162917495">
        <ele>1045.571044921875</ele>
        <time>2011-04-21T08:28:48Z</time>
      </trkpt>
      <trkpt lat="31.49196314625442" lon="-3.894370514899492">
        <ele>1047.49365234375</ele>
        <time>2011-04-21T08:28:55Z</time>
      </trkpt>
      <trkpt lat="31.491045663133264" lon="-3.893307438120246">
        <ele>1047.49365234375</ele>
        <time>2011-04-21T08:29:06Z</time>
      </trkpt>
      <trkpt lat="31.490075876936316" lon="-3.892189543694258">
        <ele>1047.012939453125</ele>
        <time>2011-04-21T08:29:17Z</time>
      </trkpt>
      <trkpt lat="31.489219665527344" lon="-3.891263008117676">
        <ele>1046.532470703125</ele>
        <time>2011-04-21T08:29:26Z</time>
      </trkpt>
      <trkpt lat="31.488881120458245" lon="-3.890864616259933">
        <ele>1045.571044921875</ele>
        <time>2011-04-21T08:29:30Z</time>
      </trkpt>
      <trkpt lat="31.488574929535389" lon="-3.890422470867634">
        <ele>1044.129150390625</ele>
        <time>2011-04-21T08:29:34Z</time>
      </trkpt>
      <trkpt lat="31.488406201824546" lon="-3.890221640467644">
        <ele>1043.6484375</ele>
        <time>2011-04-21T08:29:36Z</time>
      </trkpt>
      <trkpt lat="31.487610591575503" lon="-3.889417899772525">
        <ele>1041.725830078125</ele>
        <time>2011-04-21T08:29:44Z</time>
      </trkpt>
      <trkpt lat="31.486419774591923" lon="-3.888217946514487">
        <ele>1041.2451171875</ele>
        <time>2011-04-21T08:29:54Z</time>
      </trkpt>
      <trkpt lat="31.485192412510514" lon="-3.886862173676491">
        <ele>1039.80322265625</ele>
        <time>2011-04-21T08:30:05Z</time>
      </trkpt>
      <trkpt lat="31.484003439545631" lon="-3.88568208552897">
        <ele>1038.361328125</ele>
        <time>2011-04-21T08:30:16Z</time>
      </trkpt>
      <trkpt lat="31.482813712209463" lon="-3.884466206654906">
        <ele>1037.880615234375</ele>
        <time>2011-04-21T08:30:26Z</time>
      </trkpt>
      <trkpt lat="31.481408653780818" lon="-3.882862916216254">
        <ele>1035.957763671875</ele>
        <time>2011-04-21T08:30:38Z</time>
      </trkpt>
      <trkpt lat="31.480478178709745" lon="-3.881698250770569">
        <ele>1034.99658203125</ele>
        <time>2011-04-21T08:30:47Z</time>
      </trkpt>
      <trkpt lat="31.479982053861022" lon="-3.881018897518516">
        <ele>1034.515869140625</ele>
        <time>2011-04-21T08:30:55Z</time>
      </trkpt>
      <trkpt lat="31.479895720258355" lon="-3.880777163431048">
        <ele>1034.515869140625</ele>
        <time>2011-04-21T08:30:58Z</time>
      </trkpt>
      <trkpt lat="31.479816008359194" lon="-3.880314063280821">
        <ele>1034.03515625</ele>
        <time>2011-04-21T08:31:04Z</time>
      </trkpt>
      <trkpt lat="31.47970980964601" lon="-3.879882479086518">
        <ele>1032.59326171875</ele>
        <time>2011-04-21T08:31:12Z</time>
      </trkpt>
      <trkpt lat="31.479586595669389" lon="-3.879289962351322">
        <ele>1032.59326171875</ele>
        <time>2011-04-21T08:31:19Z</time>
      </trkpt>
      <trkpt lat="31.479405043646693" lon="-3.878693422302604">
        <ele>1031.1513671875</ele>
        <time>2011-04-21T08:31:27Z</time>
      </trkpt>
      <trkpt lat="31.479312255978584" lon="-3.878544727340341">
        <ele>1031.1513671875</ele>
        <time>2011-04-21T08:31:30Z</time>
      </trkpt>
      <trkpt lat="31.479088878259063" lon="-3.878357224166393">
        <ele>1030.670654296875</ele>
        <time>2011-04-21T08:31:36Z</time>
      </trkpt>
      <trkpt lat="31.478610103949904" lon="-3.878020942211151">
        <ele>1031.1513671875</ele>
        <time>2011-04-21T08:31:47Z</time>
      </trkpt>
      <trkpt lat="31.478479597717524" lon="-3.877423061057925">
        <ele>999.908447265625</ele>
        <time>2011-04-21T08:42:33Z</time>
      </trkpt>
      <trkpt lat="31.478318581357598" lon="-3.877181075513363">
        <ele>1000.86962890625</ele>
        <time>2011-04-21T08:42:41Z</time>
      </trkpt>
      <trkpt lat="31.478080535307527" lon="-3.876886954531074">
        <ele>1003.753662109375</ele>
        <time>2011-04-21T08:42:52Z</time>
      </trkpt>
      <trkpt lat="31.477755485102534" lon="-3.876417232677341">
        <ele>1007.118408203125</ele>
        <time>2011-04-21T08:43:02Z</time>
      </trkpt>
      <trkpt lat="31.477253241464496" lon="-3.875803174450994">
        <ele>1014.808837890625</ele>
        <time>2011-04-21T08:43:13Z</time>
      </trkpt>
      <trkpt lat="31.476803971454501" lon="-3.875267570838332">
        <ele>1018.17333984375</ele>
        <time>2011-04-21T08:43:22Z</time>
      </trkpt>
      <trkpt lat="31.476106764748693" lon="-3.874422004446387">
        <ele>1016.250732421875</ele>
        <time>2011-04-21T08:43:33Z</time>
      </trkpt>
      <trkpt lat="31.475725807249546" lon="-3.873808868229389">
        <ele>1017.212158203125</ele>
        <time>2011-04-21T08:43:41Z</time>
      </trkpt>
      <trkpt lat="31.475438894703984" lon="-3.873237641528249">
        <ele>1017.692626953125</ele>
        <time>2011-04-21T08:43:49Z</time>
      </trkpt>
      <trkpt lat="31.475035892799497" lon="-3.8721246086061">
        <ele>1017.212158203125</ele>
        <time>2011-04-21T08:44:01Z</time>
      </trkpt>
      <trkpt lat="31.474732384085655" lon="-3.871249705553055">
        <ele>1016.7314453125</ele>
        <time>2011-04-21T08:44:11Z</time>
      </trkpt>
      <trkpt lat="31.474393922835588" lon="-3.870338592678309">
        <ele>1021.0576171875</ele>
        <time>2011-04-21T08:44:21Z</time>
      </trkpt>
      <trkpt lat="31.473848260939121" lon="-3.868702277541161">
        <ele>1027.78662109375</ele>
        <time>2011-04-21T08:44:36Z</time>
      </trkpt>
      <trkpt lat="31.473651034757495" lon="-3.867548424750567">
        <ele>1028.748046875</ele>
        <time>2011-04-21T08:44:46Z</time>
      </trkpt>
      <trkpt lat="31.473479960113764" lon="-3.866472691297531">
        <ele>1025.38330078125</ele>
        <time>2011-04-21T08:44:56Z</time>
      </trkpt>
      <trkpt lat="31.47334199398756" lon="-3.864810895174742">
        <ele>1016.250732421875</ele>
        <time>2011-04-21T08:45:10Z</time>
      </trkpt>
      <trkpt lat="31.473077042028308" lon="-3.863718146458268">
        <ele>1015.28955078125</ele>
        <time>2011-04-21T08:45:19Z</time>
      </trkpt>
      <trkpt lat="31.472467174753547" lon="-3.862650375813246">
        <ele>1020.09619140625</ele>
        <time>2011-04-21T08:45:28Z</time>
      </trkpt>
      <trkpt lat="31.472096694633365" lon="-3.861868930980563">
        <ele>1019.615478515625</ele>
        <time>2011-04-21T08:45:37Z</time>
      </trkpt>
      <trkpt lat="31.471598306670785" lon="-3.860770650207996">
        <ele>1021.0576171875</ele>
        <time>2011-04-21T08:45:47Z</time>
      </trkpt>
      <trkpt lat="31.47106253542006" lon="-3.859618809074163">
        <ele>1022.980224609375</ele>
        <time>2011-04-21T08:45:57Z</time>
      </trkpt>
      <trkpt lat="31.470397431403399" lon="-3.85831156745553">
        <ele>1025.38330078125</ele>
        <time>2011-04-21T08:46:07Z</time>
      </trkpt>
      <trkpt lat="31.469883285462856" lon="-3.857088144868612">
        <ele>1027.78662109375</ele>
        <time>2011-04-21T08:46:17Z</time>
      </trkpt>
      <trkpt lat="31.469558570533991" lon="-3.856123052537441">
        <ele>1028.267333984375</ele>
        <time>2011-04-21T08:46:25Z</time>
      </trkpt>
      <trkpt lat="31.469414234161377" lon="-3.855278491973877">
        <ele>1027.78662109375</ele>
        <time>2011-04-21T08:46:32Z</time>
      </trkpt>
      <trkpt lat="31.469414234161377" lon="-3.854306610301137">
        <ele>1026.3447265625</ele>
        <time>2011-04-21T08:46:39Z</time>
      </trkpt>
      <trkpt lat="31.469433596357703" lon="-3.853011019527912">
        <ele>1030.18994140625</ele>
        <time>2011-04-21T08:46:48Z</time>
      </trkpt>
      <trkpt lat="31.469525042921305" lon="-3.85229411534965">
        <ele>1036.438720703125</ele>
        <time>2011-04-21T08:46:56Z</time>
      </trkpt>
      <trkpt lat="31.469533760100603" lon="-3.851537983864546">
        <ele>1039.322509765625</ele>
        <time>2011-04-21T08:47:05Z</time>
      </trkpt>
      <trkpt lat="31.469500064849854" lon="-3.850666517391801">
        <ele>1040.764404296875</ele>
        <time>2011-04-21T08:47:13Z</time>
      </trkpt>
      <trkpt lat="31.469500064849854" lon="-3.849416775628924">
        <ele>1042.20654296875</ele>
        <time>2011-04-21T08:47:23Z</time>
      </trkpt>
      <trkpt lat="31.469543566927314" lon="-3.847767300903797">
        <ele>1043.6484375</ele>
        <time>2011-04-21T08:47:34Z</time>
      </trkpt>
      <trkpt lat="31.469644149765372" lon="-3.845924288034439">
        <ele>1044.129150390625</ele>
        <time>2011-04-21T08:47:46Z</time>
      </trkpt>
      <trkpt lat="31.46967675536871" lon="-3.843908440321684">
        <ele>1044.609619140625</ele>
        <time>2011-04-21T08:47:58Z</time>
      </trkpt>
      <trkpt lat="31.469512386247516" lon="-3.841455476358533">
        <ele>1046.0517578125</ele>
        <time>2011-04-21T08:48:12Z</time>
      </trkpt>
      <trkpt lat="31.469611879438162" lon="-3.840757934376597">
        <ele>1045.571044921875</ele>
        <time>2011-04-21T08:48:17Z</time>
      </trkpt>
      <trkpt lat="31.469708690419793" lon="-3.840002892538905">
        <ele>1042.20654296875</ele>
        <time>2011-04-21T08:48:25Z</time>
      </trkpt>
      <trkpt lat="31.469651442021132" lon="-3.839583713561297">
        <ele>1042.20654296875</ele>
        <time>2011-04-21T08:48:31Z</time>
      </trkpt>
      <trkpt lat="31.469427226111293" lon="-3.838998572900891">
        <ele>1040.764404296875</ele>
        <time>2011-04-21T08:48:38Z</time>
      </trkpt>
      <trkpt lat="31.468980889767408" lon="-3.837983105331659">
        <ele>1037.39990234375</ele>
        <time>2011-04-21T08:48:49Z</time>
      </trkpt>
      <trkpt lat="31.46873664110899" lon="-3.837481029331684">
        <ele>1035.47705078125</ele>
        <time>2011-04-21T08:48:57Z</time>
      </trkpt>
      <trkpt lat="31.468491051346064" lon="-3.836922962218523">
        <ele>1034.99658203125</ele>
        <time>2011-04-21T08:49:05Z</time>
      </trkpt>
      <trkpt lat="31.468170695006847" lon="-3.836169261485338">
        <ele>1035.47705078125</ele>
        <time>2011-04-21T08:49:14Z</time>
      </trkpt>
      <trkpt lat="31.46794656291604" lon="-3.835653103888035">
        <ele>1034.99658203125</ele>
        <time>2011-04-21T08:49:20Z</time>
      </trkpt>
      <trkpt lat="31.467387238517404" lon="-3.834349634125829">
        <ele>1032.59326171875</ele>
        <time>2011-04-21T08:49:31Z</time>
      </trkpt>
      <trkpt lat="31.466688942164183" lon="-3.83284323848784">
        <ele>1030.670654296875</ele>
        <time>2011-04-21T08:49:43Z</time>
      </trkpt>
      <trkpt lat="31.466005817055702" lon="-3.831356707960367">
        <ele>1029.228515625</ele>
        <time>2011-04-21T08:49:55Z</time>
      </trkpt>
      <trkpt lat="31.465630810707808" lon="-3.830583645030856">
        <ele>1028.267333984375</ele>
        <time>2011-04-21T08:50:03Z</time>
      </trkpt>
      <trkpt lat="31.465452695265412" lon="-3.830177709460259">
        <ele>1027.78662109375</ele>
        <time>2011-04-21T08:50:08Z</time>
      </trkpt>
      <trkpt lat="31.46526443772018" lon="-3.829703293740749">
        <ele>1027.78662109375</ele>
        <time>2011-04-21T08:50:13Z</time>
      </trkpt>
      <trkpt lat="31.465009460225701" lon="-3.828811123967171">
        <ele>1026.3447265625</ele>
        <time>2011-04-21T08:50:22Z</time>
      </trkpt>
      <trkpt lat="31.46472355350852" lon="-3.827836979180574">
        <ele>1027.30615234375</ele>
        <time>2011-04-21T08:50:32Z</time>
      </trkpt>
      <trkpt lat="31.464512748643756" lon="-3.827009936794639">
        <ele>1027.78662109375</ele>
        <time>2011-04-21T08:50:41Z</time>
      </trkpt>
      <trkpt lat="31.464458601549268" lon="-3.826576760038734">
        <ele>1027.78662109375</ele>
        <time>2011-04-21T08:50:45Z</time>
      </trkpt>
      <trkpt lat="31.464267410337925" lon="-3.825552994385362">
        <ele>1027.30615234375</ele>
        <time>2011-04-21T08:50:55Z</time>
      </trkpt>
      <trkpt lat="31.463971361517906" lon="-3.824421856552362">
        <ele>1027.30615234375</ele>
        <time>2011-04-21T08:51:07Z</time>
      </trkpt>
      <trkpt lat="31.463729459792376" lon="-3.823343440890312">
        <ele>1026.3447265625</ele>
        <time>2011-04-21T08:51:18Z</time>
      </trkpt>
      <trkpt lat="31.46353717893362" lon="-3.822352783754468">
        <ele>1023.4609375</ele>
        <time>2011-04-21T08:51:29Z</time>
      </trkpt>
      <trkpt lat="31.463416814804077" lon="-3.821622049435973">
        <ele>1022.018798828125</ele>
        <time>2011-04-21T08:51:40Z</time>
      </trkpt>
      <trkpt lat="31.463380604982376" lon="-3.821227932348847">
        <ele>1025.38330078125</ele>
        <time>2011-04-21T08:51:45Z</time>
      </trkpt>
      <trkpt lat="31.463366439566016" lon="-3.8208591286093">
        <ele>1026.3447265625</ele>
        <time>2011-04-21T08:51:50Z</time>
      </trkpt>
      <trkpt lat="31.463363170623779" lon="-3.819686332717538">
        <ele>1028.267333984375</ele>
        <time>2011-04-21T08:52:03Z</time>
      </trkpt>
      <trkpt lat="31.463337186723948" lon="-3.818979570642114">
        <ele>1025.864013671875</ele>
        <time>2011-04-21T08:52:13Z</time>
      </trkpt>
      <trkpt lat="31.463320255279541" lon="-3.818165771663189">
        <ele>1029.709228515625</ele>
        <time>2011-04-21T08:52:24Z</time>
      </trkpt>
      <trkpt lat="31.463320255279541" lon="-3.817251892760396">
        <ele>1030.18994140625</ele>
        <time>2011-04-21T08:52:34Z</time>
      </trkpt>
      <trkpt lat="31.463320255279541" lon="-3.816090160980821">
        <ele>1027.30615234375</ele>
        <time>2011-04-21T08:52:46Z</time>
      </trkpt>
      <trkpt lat="31.463259235024452" lon="-3.81509330123663">
        <ele>1023.94140625</ele>
        <time>2011-04-21T08:52:54Z</time>
      </trkpt>
      <trkpt lat="31.462955977767706" lon="-3.813475677743554">
        <ele>1021.5380859375</ele>
        <time>2011-04-21T08:53:05Z</time>
      </trkpt>
      <trkpt lat="31.462618689984083" lon="-3.811613470315933">
        <ele>1019.134765625</ele>
        <time>2011-04-21T08:53:17Z</time>
      </trkpt>
      <trkpt lat="31.462479382753372" lon="-3.810172285884619">
        <ele>1017.212158203125</ele>
        <time>2011-04-21T08:53:27Z</time>
      </trkpt>
      <trkpt lat="31.462400928139687" lon="-3.808484422042966">
        <ele>1016.7314453125</ele>
        <time>2011-04-21T08:53:37Z</time>
      </trkpt>
      <trkpt lat="31.46223840303719" lon="-3.807502901181579">
        <ele>1019.134765625</ele>
        <time>2011-04-21T08:53:44Z</time>
      </trkpt>
      <trkpt lat="31.462069675326347" lon="-3.806905103847385">
        <ele>1018.17333984375</ele>
        <time>2011-04-21T08:53:51Z</time>
      </trkpt>
      <trkpt lat="31.462032794952393" lon="-3.806252824142575">
        <ele>1014.328125</ele>
        <time>2011-04-21T08:53:59Z</time>
      </trkpt>
      <trkpt lat="31.462082080543041" lon="-3.805074747651815">
        <ele>1011.925048828125</ele>
        <time>2011-04-21T08:54:09Z</time>
      </trkpt>
      <trkpt lat="31.462174952030182" lon="-3.804116612300277">
        <ele>1011.4443359375</ele>
        <time>2011-04-21T08:54:17Z</time>
      </trkpt>
      <trkpt lat="31.462321383878589" lon="-3.80375568754971">
        <ele>1010.963623046875</ele>
        <time>2011-04-21T08:54:20Z</time>
      </trkpt>
      <trkpt lat="31.462578708305955" lon="-3.803244642913342">
        <ele>1010.48291015625</ele>
        <time>2011-04-21T08:54:27Z</time>
      </trkpt>
      <trkpt lat="31.462636962532997" lon="-3.803055547177792">
        <ele>1009.521728515625</ele>
        <time>2011-04-21T08:54:31Z</time>
      </trkpt>
      <trkpt lat="31.462586922571063" lon="-3.802394298836589">
        <ele>1009.041015625</ele>
        <time>2011-04-21T08:54:38Z</time>
      </trkpt>
      <trkpt lat="31.46241869777441" lon="-3.802148792892695">
        <ele>1009.521728515625</ele>
        <time>2011-04-21T08:54:42Z</time>
      </trkpt>
      <trkpt lat="31.462099011987448" lon="-3.801731625571847">
        <ele>1010.48291015625</ele>
        <time>2011-04-21T08:54:50Z</time>
      </trkpt>
      <trkpt lat="31.461608251556754" lon="-3.801330300047994">
        <ele>1010.963623046875</ele>
        <time>2011-04-21T08:54:58Z</time>
      </trkpt>
      <trkpt lat="31.461401553824544" lon="-3.801120249554515">
        <ele>1012.405517578125</ele>
        <time>2011-04-21T08:55:01Z</time>
      </trkpt>
      <trkpt lat="31.461166776716709" lon="-3.800817243754864">
        <ele>1014.328125</ele>
        <time>2011-04-21T08:55:05Z</time>
      </trkpt>
      <trkpt lat="31.461018584668636" lon="-3.800511639565229">
        <ele>1013.366943359375</ele>
        <time>2011-04-21T08:55:09Z</time>
      </trkpt>
      <trkpt lat="31.460661264136434" lon="-3.799479492008686">
        <ele>1012.88623046875</ele>
        <time>2011-04-21T08:55:20Z</time>
      </trkpt>
      <trkpt lat="31.460538804531097" lon="-3.798738699406385">
        <ele>1011.4443359375</ele>
        <time>2011-04-21T08:55:29Z</time>
      </trkpt>
      <trkpt lat="31.460394971072674" lon="-3.797691380605102">
        <ele>1010.963623046875</ele>
        <time>2011-04-21T08:55:40Z</time>
      </trkpt>
      <trkpt lat="31.460225069895387" lon="-3.796587148681283">
        <ele>1013.366943359375</ele>
        <time>2011-04-21T08:55:51Z</time>
      </trkpt>
      <trkpt lat="31.460161367431283" lon="-3.795793214812875">
        <ele>1015.28955078125</ele>
        <time>2011-04-21T08:56:02Z</time>
      </trkpt>
      <trkpt lat="31.46002440713346" lon="-3.795106988400221">
        <ele>1013.847412109375</ele>
        <time>2011-04-21T08:56:12Z</time>
      </trkpt>
      <trkpt lat="31.459726598113775" lon="-3.794289752840996">
        <ele>1012.405517578125</ele>
        <time>2011-04-21T08:56:21Z</time>
      </trkpt>
      <trkpt lat="31.459542028605938" lon="-3.79368994385004">
        <ele>1011.925048828125</ele>
        <time>2011-04-21T08:56:27Z</time>
      </trkpt>
      <trkpt lat="31.459364583715796" lon="-3.793118549510837">
        <ele>1010.963623046875</ele>
        <time>2011-04-21T08:56:33Z</time>
      </trkpt>
      <trkpt lat="31.458801655098796" lon="-3.79327118396759">
        <ele>1010.48291015625</ele>
        <time>2011-04-21T08:56:34Z</time>
      </trkpt>
      <trkpt lat="31.458310475572944" lon="-3.793183257803321">
        <ele>1010.002197265625</ele>
        <time>2011-04-21T08:56:39Z</time>
      </trkpt>
      <trkpt lat="31.457790629938245" lon="-3.793232124298811">
        <ele>1009.521728515625</ele>
        <time>2011-04-21T08:56:45Z</time>
      </trkpt>
      <trkpt lat="31.457272125408053" lon="-3.793379226699472">
        <ele>1007.59912109375</ele>
        <time>2011-04-21T08:56:51Z</time>
      </trkpt>
      <trkpt lat="31.456548096612096" lon="-3.793432535603643">
        <ele>1007.59912109375</ele>
        <time>2011-04-21T08:56:58Z</time>
      </trkpt>
      <trkpt lat="31.456232182681561" lon="-3.793567148968577">
        <ele>1007.59912109375</ele>
        <time>2011-04-21T08:57:02Z</time>
      </trkpt>
      <trkpt lat="31.455545034259558" lon="-3.793843919411302">
        <ele>1008.079833984375</ele>
        <time>2011-04-21T08:57:11Z</time>
      </trkpt>
      <trkpt lat="31.455251332372427" lon="-3.793787090107799">
        <ele>1007.59912109375</ele>
        <time>2011-04-21T08:57:15Z</time>
      </trkpt>
      <trkpt lat="31.455127531662583" lon="-3.793730344623327">
        <ele>1007.59912109375</ele>
        <time>2011-04-21T08:57:17Z</time>
      </trkpt>
      <trkpt lat="31.454941369593143" lon="-3.793432032689452">
        <ele>1006.6376953125</ele>
        <time>2011-04-21T08:57:23Z</time>
      </trkpt>
      <trkpt lat="31.454887976869941" lon="-3.79323304630816">
        <ele>1004.234619140625</ele>
        <time>2011-04-21T08:57:29Z</time>
      </trkpt>
      <trkpt lat="31.454713465645909" lon="-3.793082674965262">
        <ele>1010.48291015625</ele>
        <time>2011-04-21T08:58:10Z</time>
      </trkpt>
      <trkpt lat="31.454587234184146" lon="-3.792943535372615">
        <ele>1018.654052734375</ele>
        <time>2011-04-21T08:58:43Z</time>
      </trkpt>
      <trkpt lat="31.454345416277647" lon="-3.792814454063773">
        <ele>1020.09619140625</ele>
        <time>2011-04-21T08:58:48Z</time>
      </trkpt>
      <trkpt lat="31.454204265028238" lon="-3.792799031361938">
        <ele>1019.615478515625</ele>
        <time>2011-04-21T08:58:50Z</time>
      </trkpt>
      <trkpt lat="31.453801766037941" lon="-3.792537851259112">
        <ele>1020.09619140625</ele>
        <time>2011-04-21T08:58:57Z</time>
      </trkpt>
      <trkpt lat="31.453252835199237" lon="-3.792110877111554">
        <ele>1022.49951171875</ele>
        <time>2011-04-21T08:59:06Z</time>
      </trkpt>
      <trkpt lat="31.452940357849002" lon="-3.791775684803724">
        <ele>1023.94140625</ele>
        <time>2011-04-21T08:59:11Z</time>
      </trkpt>
      <trkpt lat="31.452802056446671" lon="-3.791276961565018">
        <ele>1020.09619140625</ele>
        <time>2011-04-21T08:59:17Z</time>
      </trkpt>
      <trkpt lat="31.452607680112123" lon="-3.79096825607121">
        <ele>1019.134765625</ele>
        <time>2011-04-21T08:59:23Z</time>
      </trkpt>
      <trkpt lat="31.452479688450694" lon="-3.790871948003769">
        <ele>1018.654052734375</ele>
        <time>2011-04-21T08:59:25Z</time>
      </trkpt>
      <trkpt lat="31.451721042394638" lon="-3.790125958621502">
        <ele>1020.09619140625</ele>
        <time>2011-04-21T08:59:37Z</time>
      </trkpt>
      <trkpt lat="31.451502274721861" lon="-3.789790598675609">
        <ele>1021.0576171875</ele>
        <time>2011-04-21T08:59:41Z</time>
      </trkpt>
      <trkpt lat="31.450945716351271" lon="-3.789300341159105">
        <ele>1020.09619140625</ele>
        <time>2011-04-21T08:59:50Z</time>
      </trkpt>
      <trkpt lat="31.450386475771666" lon="-3.788507832214236">
        <ele>1022.018798828125</ele>
        <time>2011-04-21T09:00:00Z</time>
      </trkpt>
      <trkpt lat="31.449884567409754" lon="-3.787828143686056">
        <ele>1022.018798828125</ele>
        <time>2011-04-21T09:00:10Z</time>
      </trkpt>
      <trkpt lat="31.449710140004754" lon="-3.787303688004613">
        <ele>1022.018798828125</ele>
        <time>2011-04-21T09:00:20Z</time>
      </trkpt>
      <trkpt lat="31.449922369793057" lon="-3.786996239796281">
        <ele>1022.018798828125</ele>
        <time>2011-04-21T09:00:27Z</time>
      </trkpt>
      <trkpt lat="31.450294526293874" lon="-3.786738747730851">
        <ele>1020.576904296875</ele>
        <time>2011-04-21T09:00:35Z</time>
      </trkpt>
      <trkpt lat="31.450454788282514" lon="-3.786572450771928">
        <ele>1018.654052734375</ele>
        <time>2011-04-21T09:00:39Z</time>
      </trkpt>
      <trkpt lat="31.450996175408363" lon="-3.785688076168299">
        <ele>1011.925048828125</ele>
        <time>2011-04-21T09:00:53Z</time>
      </trkpt>
      <trkpt lat="31.451303791254759" lon="-3.785036550834775">
        <ele>1005.19580078125</ele>
        <time>2011-04-21T09:01:04Z</time>
      </trkpt>
      <trkpt lat="31.451459275558591" lon="-3.784767994657159">
        <ele>1003.27294921875</ele>
        <time>2011-04-21T09:01:09Z</time>
      </trkpt>
      <trkpt lat="31.45153739489615" lon="-3.784658443182707">
        <ele>1001.8310546875</ele>
        <time>2011-04-21T09:01:11Z</time>
      </trkpt>
      <trkpt lat="31.451770327985287" lon="-3.783975737169385">
        <ele>997.98583984375</ele>
        <time>2011-04-21T09:01:19Z</time>
      </trkpt>
      <trkpt lat="31.452151872217655" lon="-3.783333264291287">
        <ele>996.5439453125</ele>
        <time>2011-04-21T09:01:25Z</time>
      </trkpt>
      <trkpt lat="31.452561495825648" lon="-3.783018020913005">
        <ele>995.58251953125</ele>
        <time>2011-04-21T09:01:29Z</time>
      </trkpt>
      <trkpt lat="31.453631445765495" lon="-3.782419553026557">
        <ele>995.58251953125</ele>
        <time>2011-04-21T09:01:37Z</time>
      </trkpt>
      <trkpt lat="31.454124553129077" lon="-3.782062316313386">
        <ele>996.5439453125</ele>
        <time>2011-04-21T09:01:41Z</time>
      </trkpt>
      <trkpt lat="31.454788651317358" lon="-3.781677670776844">
        <ele>999.427734375</ele>
        <time>2011-04-21T09:01:47Z</time>
      </trkpt>
      <trkpt lat="31.455146726220846" lon="-3.781524617224932">
        <ele>1001.8310546875</ele>
        <time>2011-04-21T09:01:52Z</time>
      </trkpt>
      <trkpt lat="31.455331379547715" lon="-3.78146636299789">
        <ele>1003.27294921875</ele>
        <time>2011-04-21T09:01:55Z</time>
      </trkpt>
      <trkpt lat="31.45577528513968" lon="-3.78117416985333">
        <ele>1005.19580078125</ele>
        <time>2011-04-21T09:02:01Z</time>
      </trkpt>
      <trkpt lat="31.455951891839504" lon="-3.781037293374538">
        <ele>1005.676513671875</ele>
        <time>2011-04-21T09:02:03Z</time>
      </trkpt>
      <trkpt lat="31.456488333642483" lon="-3.780375961214304">
        <ele>1006.156982421875</ele>
        <time>2011-04-21T09:02:09Z</time>
      </trkpt>
      <trkpt lat="31.456481041386724" lon="-3.780119055882096">
        <ele>1006.156982421875</ele>
        <time>2011-04-21T09:02:11Z</time>
      </trkpt>
      <trkpt lat="31.456451956182718" lon="-3.778992025181651">
        <ele>1007.59912109375</ele>
        <time>2011-04-21T09:02:21Z</time>
      </trkpt>
      <trkpt lat="31.456407029181719" lon="-3.778350977227092">
        <ele>1007.59912109375</ele>
        <time>2011-04-21T09:02:28Z</time>
      </trkpt>
      <trkpt lat="31.456238720566034" lon="-3.777438858523965">
        <ele>1010.48291015625</ele>
        <time>2011-04-21T09:02:37Z</time>
      </trkpt>
      <trkpt lat="31.455849045887589" lon="-3.776160953566432">
        <ele>1013.847412109375</ele>
        <time>2011-04-21T09:02:50Z</time>
      </trkpt>
      <trkpt lat="31.455608904361725" lon="-3.77538881264627">
        <ele>1011.4443359375</ele>
        <time>2011-04-21T09:03:00Z</time>
      </trkpt>
      <trkpt lat="31.455370774492621" lon="-3.77474918961525">
        <ele>1009.041015625</ele>
        <time>2011-04-21T09:03:12Z</time>
      </trkpt>
      <trkpt lat="31.455009346827865" lon="-3.773903790861368">
        <ele>1006.156982421875</ele>
        <time>2011-04-21T09:03:26Z</time>
      </trkpt>
      <trkpt lat="31.454626377671957" lon="-3.773086136206985">
        <ele>1003.753662109375</ele>
        <time>2011-04-21T09:03:39Z</time>
      </trkpt>
      <trkpt lat="31.454258747398853" lon="-3.772247275337577">
        <ele>1003.27294921875</ele>
        <time>2011-04-21T09:03:50Z</time>
      </trkpt>
      <trkpt lat="31.453848453238606" lon="-3.771158885210753">
        <ele>1004.234619140625</ele>
        <time>2011-04-21T09:04:00Z</time>
      </trkpt>
      <trkpt lat="31.453661704435945" lon="-3.770340727642179">
        <ele>1005.676513671875</ele>
        <time>2011-04-21T09:04:08Z</time>
      </trkpt>
      <trkpt lat="31.453519128262997" lon="-3.769584344699979">
        <ele>1008.079833984375</ele>
        <time>2011-04-21T09:04:18Z</time>
      </trkpt>
      <trkpt lat="31.453308239579201" lon="-3.769003143534064">
        <ele>1003.753662109375</ele>
        <time>2011-04-21T09:04:27Z</time>
      </trkpt>
      <trkpt lat="31.453218637034297" lon="-3.768666945397854">
        <ele>1003.27294921875</ele>
        <time>2011-04-21T09:04:35Z</time>
      </trkpt>
      <trkpt lat="31.453062482178211" lon="-3.768178699538112">
        <ele>1000.86962890625</ele>
        <time>2011-04-21T09:04:43Z</time>
      </trkpt>
      <trkpt lat="31.452851090580225" lon="-3.767251409590244">
        <ele>998.46630859375</ele>
        <time>2011-04-21T09:04:54Z</time>
      </trkpt>
      <trkpt lat="31.452690241858363" lon="-3.766104010865092">
        <ele>997.0244140625</ele>
        <time>2011-04-21T09:05:05Z</time>
      </trkpt>
      <trkpt lat="31.452547665685415" lon="-3.764997432008386">
        <ele>997.98583984375</ele>
        <time>2011-04-21T09:05:15Z</time>
      </trkpt>
      <trkpt lat="31.452329400926828" lon="-3.763325326144695">
        <ele>997.505126953125</ele>
        <time>2011-04-21T09:05:28Z</time>
      </trkpt>
      <trkpt lat="31.452170480042696" lon="-3.761992854997516">
        <ele>997.98583984375</ele>
        <time>2011-04-21T09:05:37Z</time>
      </trkpt>
      <trkpt lat="31.45193612203002" lon="-3.759894026443362">
        <ele>998.46630859375</ele>
        <time>2011-04-21T09:05:50Z</time>
      </trkpt>
      <trkpt lat="31.451751384884119" lon="-3.758475724607706">
        <ele>998.947021484375</ele>
        <time>2011-04-21T09:05:59Z</time>
      </trkpt>
      <trkpt lat="31.451542926952243" lon="-3.756656097248197">
        <ele>1001.350341796875</ele>
        <time>2011-04-21T09:06:11Z</time>
      </trkpt>
      <trkpt lat="31.451381407678127" lon="-3.756176317110658">
        <ele>1003.753662109375</ele>
        <time>2011-04-21T09:06:15Z</time>
      </trkpt>
      <trkpt lat="31.451186528429389" lon="-3.755673402920365">
        <ele>1003.753662109375</ele>
        <time>2011-04-21T09:06:20Z</time>
      </trkpt>
      <trkpt lat="31.450505498796701" lon="-3.75436314381659">
        <ele>1001.8310546875</ele>
        <time>2011-04-21T09:06:31Z</time>
      </trkpt>
      <trkpt lat="31.449766214936972" lon="-3.752962863072753">
        <ele>1000.86962890625</ele>
        <time>2011-04-21T09:06:43Z</time>
      </trkpt>
      <trkpt lat="31.448966832831502" lon="-3.751586386933923">
        <ele>999.427734375</ele>
        <time>2011-04-21T09:06:58Z</time>
      </trkpt>
      <trkpt lat="31.448487639427185" lon="-3.750550718978047">
        <ele>998.947021484375</ele>
        <time>2011-04-21T09:07:08Z</time>
      </trkpt>
      <trkpt lat="31.448377333581448" lon="-3.749583447352052">
        <ele>997.0244140625</ele>
        <time>2011-04-21T09:07:18Z</time>
      </trkpt>
      <trkpt lat="31.448205756023526" lon="-3.74844535253942">
        <ele>995.58251953125</ele>
        <time>2011-04-21T09:07:30Z</time>
      </trkpt>
      <trkpt lat="31.44809109158814" lon="-3.747350759804249">
        <ele>994.62109375</ele>
        <time>2011-04-21T09:07:42Z</time>
      </trkpt>
      <trkpt lat="31.447995202615857" lon="-3.746983045712113">
        <ele>995.101806640625</ele>
        <time>2011-04-21T09:07:47Z</time>
      </trkpt>
      <trkpt lat="31.447849776595831" lon="-3.746644835919142">
        <ele>995.101806640625</ele>
        <time>2011-04-21T09:07:53Z</time>
      </trkpt>
      <trkpt lat="31.447718013077974" lon="-3.746375860646367">
        <ele>992.69873046875</ele>
        <time>2011-04-21T09:07:57Z</time>
      </trkpt>
      <trkpt lat="31.447600079700351" lon="-3.746104957535863">
        <ele>992.69873046875</ele>
        <time>2011-04-21T09:08:01Z</time>
      </trkpt>
      <trkpt lat="31.447375612333417" lon="-3.745552590116859">
        <ele>992.218017578125</ele>
        <time>2011-04-21T09:08:09Z</time>
      </trkpt>
      <trkpt lat="31.447084592655301" lon="-3.744959989562631">
        <ele>991.7373046875</ele>
        <time>2011-04-21T09:08:18Z</time>
      </trkpt>
      <trkpt lat="31.446788040921092" lon="-3.744109142571688">
        <ele>990.77587890625</ele>
        <time>2011-04-21T09:08:30Z</time>
      </trkpt>
      <trkpt lat="31.446622498333454" lon="-3.743636989966035">
        <ele>991.256591796875</ele>
        <time>2011-04-21T09:08:36Z</time>
      </trkpt>
      <trkpt lat="31.44645519554615" lon="-3.743274556472898">
        <ele>991.7373046875</ele>
        <time>2011-04-21T09:08:41Z</time>
      </trkpt>
      <trkpt lat="31.446321252733469" lon="-3.742712717503309">
        <ele>990.77587890625</ele>
        <time>2011-04-21T09:08:48Z</time>
      </trkpt>
      <trkpt lat="31.446006679907441" lon="-3.741803281009197">
        <ele>990.29541015625</ele>
        <time>2011-04-21T09:08:58Z</time>
      </trkpt>
      <trkpt lat="31.445889249444008" lon="-3.741497006267309">
        <ele>989.814697265625</ele>
        <time>2011-04-21T09:09:02Z</time>
      </trkpt>
      <trkpt lat="31.445598648861051" lon="-3.740460332483053">
        <ele>989.333984375</ele>
        <time>2011-04-21T09:09:14Z</time>
      </trkpt>
      <trkpt lat="31.445621699094772" lon="-3.740275846794248">
        <ele>989.333984375</ele>
        <time>2011-04-21T09:09:16Z</time>
      </trkpt>
      <trkpt lat="31.445689927786589" lon="-3.739695399999619">
        <ele>988.372802734375</ele>
        <time>2011-04-21T09:09:23Z</time>
      </trkpt>
      <trkpt lat="31.445666207000613" lon="-3.739174380898476">
        <ele>988.853515625</ele>
        <time>2011-04-21T09:09:29Z</time>
      </trkpt>
      <trkpt lat="31.445725047960877" lon="-3.738238038495183">
        <ele>990.29541015625</ele>
        <time>2011-04-21T09:09:39Z</time>
      </trkpt>
      <trkpt lat="31.445629829540849" lon="-3.737069936469197">
        <ele>992.218017578125</ele>
        <time>2011-04-21T09:09:50Z</time>
      </trkpt>
      <trkpt lat="31.445333613082767" lon="-3.735717432573438">
        <ele>993.17919921875</ele>
        <time>2011-04-21T09:10:02Z</time>
      </trkpt>
      <trkpt lat="31.445037564262748" lon="-3.734407844021916">
        <ele>992.69873046875</ele>
        <time>2011-04-21T09:10:13Z</time>
      </trkpt>
      <trkpt lat="31.444688625633717" lon="-3.73263574205339">
        <ele>991.7373046875</ele>
        <time>2011-04-21T09:10:29Z</time>
      </trkpt>
      <trkpt lat="31.444439934566617" lon="-3.73158129863441">
        <ele>991.256591796875</ele>
        <time>2011-04-21T09:10:41Z</time>
      </trkpt>
      <trkpt lat="31.444247318431735" lon="-3.730876967310906">
        <ele>990.29541015625</ele>
        <time>2011-04-21T09:10:52Z</time>
      </trkpt>
      <trkpt lat="31.444077836349607" lon="-3.729922017082572">
        <ele>990.29541015625</ele>
        <time>2011-04-21T09:11:03Z</time>
      </trkpt>
      <trkpt lat="31.444187890738249" lon="-3.729144092649221">
        <ele>990.29541015625</ele>
        <time>2011-04-21T09:11:12Z</time>
      </trkpt>
      <trkpt lat="31.44440540112555" lon="-3.728245971724391">
        <ele>991.256591796875</ele>
        <time>2011-04-21T09:11:22Z</time>
      </trkpt>
      <trkpt lat="31.444480419158936" lon="-3.727382635697722">
        <ele>991.256591796875</ele>
        <time>2011-04-21T09:11:31Z</time>
      </trkpt>
      <trkpt lat="31.444389475509524" lon="-3.726240266114473">
        <ele>992.69873046875</ele>
        <time>2011-04-21T09:11:43Z</time>
      </trkpt>
      <trkpt lat="31.444258969277143" lon="-3.725336361676455">
        <ele>993.17919921875</ele>
        <time>2011-04-21T09:11:53Z</time>
      </trkpt>
      <trkpt lat="31.444244384765625" lon="-3.724503954872489">
        <ele>992.69873046875</ele>
        <time>2011-04-21T09:12:02Z</time>
      </trkpt>
      <trkpt lat="31.444244384765625" lon="-3.724230956286192">
        <ele>992.69873046875</ele>
        <time>2011-04-21T09:12:05Z</time>
      </trkpt>
      <trkpt lat="31.444244384765625" lon="-3.72340215370059">
        <ele>993.17919921875</ele>
        <time>2011-04-21T09:12:15Z</time>
      </trkpt>
      <trkpt lat="31.444171378389001" lon="-3.723008958622813">
        <ele>992.69873046875</ele>
        <time>2011-04-21T09:12:19Z</time>
      </trkpt>
      <trkpt lat="31.444027125835419" lon="-3.722653985023499">
        <ele>991.256591796875</ele>
        <time>2011-04-21T09:12:23Z</time>
      </trkpt>
      <trkpt lat="31.443556733429432" lon="-3.721736585721374">
        <ele>989.333984375</ele>
        <time>2011-04-21T09:12:34Z</time>
      </trkpt>
      <trkpt lat="31.443295134231448" lon="-3.721190672367811">
        <ele>986.449951171875</ele>
        <time>2011-04-21T09:12:43Z</time>
      </trkpt>
      <trkpt lat="31.443197652697563" lon="-3.721013478934765">
        <ele>984.52734375</ele>
        <time>2011-04-21T09:12:48Z</time>
      </trkpt>
      <trkpt lat="31.442926581948996" lon="-3.720611650496721">
        <ele>964.339599609375</ele>
        <time>2011-04-21T09:13:57Z</time>
      </trkpt>
      <trkpt lat="31.442445209249854" lon="-3.720065234228969">
        <ele>968.184814453125</ele>
        <time>2011-04-21T09:14:08Z</time>
      </trkpt>
      <trkpt lat="31.44193584099412" lon="-3.719441452994943">
        <ele>970.588134765625</ele>
        <time>2011-04-21T09:14:18Z</time>
      </trkpt>
      <trkpt lat="31.441354975104332" lon="-3.718691440299153">
        <ele>970.588134765625</ele>
        <time>2011-04-21T09:14:29Z</time>
      </trkpt>
      <trkpt lat="31.440803278237581" lon="-3.71803161688149">
        <ele>967.7041015625</ele>
        <time>2011-04-21T09:14:38Z</time>
      </trkpt>
      <trkpt lat="31.439835000783205" lon="-3.717414373531938">
        <ele>969.146240234375</ele>
        <time>2011-04-21T09:14:48Z</time>
      </trkpt>
      <trkpt lat="31.439244747161865" lon="-3.717253860086203">
        <ele>969.626953125</ele>
        <time>2011-04-21T09:14:53Z</time>
      </trkpt>
      <trkpt lat="31.438924139365554" lon="-3.71712033636868">
        <ele>969.146240234375</ele>
        <time>2011-04-21T09:14:56Z</time>
      </trkpt>
      <trkpt lat="31.437737010419369" lon="-3.716704426333308">
        <ele>964.339599609375</ele>
        <time>2011-04-21T09:15:06Z</time>
      </trkpt>
      <trkpt lat="31.436585504561663" lon="-3.716344591230154">
        <ele>962.897705078125</ele>
        <time>2011-04-21T09:15:15Z</time>
      </trkpt>
      <trkpt lat="31.435672799125314" lon="-3.716085003688932">
        <ele>962.4169921875</ele>
        <time>2011-04-21T09:15:23Z</time>
      </trkpt>
      <trkpt lat="31.435464425012469" lon="-3.716014176607132">
        <ele>962.4169921875</ele>
        <time>2011-04-21T09:15:25Z</time>
      </trkpt>
      <trkpt lat="31.434704940766096" lon="-3.715615198016167">
        <ele>964.339599609375</ele>
        <time>2011-04-21T09:15:34Z</time>
      </trkpt>
      <trkpt lat="31.434082668274641" lon="-3.715434148907661">
        <ele>965.301025390625</ele>
        <time>2011-04-21T09:15:41Z</time>
      </trkpt>
      <trkpt lat="31.433298122137785" lon="-3.715433478355408">
        <ele>963.37841796875</ele>
        <time>2011-04-21T09:15:49Z</time>
      </trkpt>
      <trkpt lat="31.432129601016641" lon="-3.71552349999547">
        <ele>962.4169921875</ele>
        <time>2011-04-21T09:16:00Z</time>
      </trkpt>
      <trkpt lat="31.431764401495457" lon="-3.71542283333838">
        <ele>963.37841796875</ele>
        <time>2011-04-21T09:16:04Z</time>
      </trkpt>
      <trkpt lat="31.43103308044374" lon="-3.715258128941059">
        <ele>962.4169921875</ele>
        <time>2011-04-21T09:16:14Z</time>
      </trkpt>
      <trkpt lat="31.430014930665493" lon="-3.715017568320036">
        <ele>963.85888671875</ele>
        <time>2011-04-21T09:16:27Z</time>
      </trkpt>
      <trkpt lat="31.428830651566386" lon="-3.714713724330068">
        <ele>969.146240234375</ele>
        <time>2011-04-21T09:16:40Z</time>
      </trkpt>
      <trkpt lat="31.428015511482954" lon="-3.714411808177829">
        <ele>971.54931640625</ele>
        <time>2011-04-21T09:16:49Z</time>
      </trkpt>
      <trkpt lat="31.427529947832227" lon="-3.714251294732094">
        <ele>973.472412109375</ele>
        <time>2011-04-21T09:16:56Z</time>
      </trkpt>
      <trkpt lat="31.427146391943097" lon="-3.714237213134766">
        <ele>974.914306640625</ele>
        <time>2011-04-21T09:17:05Z</time>
      </trkpt>
      <trkpt lat="31.426899041980505" lon="-3.714221036061645">
        <ele>975.87548828125</ele>
        <time>2011-04-21T09:17:11Z</time>
      </trkpt>
      <trkpt lat="31.425949707627296" lon="-3.714283229783177">
        <ele>978.759521484375</ele>
        <time>2011-04-21T09:17:24Z</time>
      </trkpt>
      <trkpt lat="31.424943041056395" lon="-3.714323043823242">
        <ele>983.085205078125</ele>
        <time>2011-04-21T09:17:37Z</time>
      </trkpt>
      <trkpt lat="31.424037460237741" lon="-3.714347183704376">
        <ele>983.56591796875</ele>
        <time>2011-04-21T09:17:48Z</time>
      </trkpt>
      <trkpt lat="31.42305132932961" lon="-3.715236922726035">
        <ele>981.162841796875</ele>
        <time>2011-04-21T09:17:59Z</time>
      </trkpt>
      <trkpt lat="31.422259239479899" lon="-3.715957598760724">
        <ele>978.27880859375</ele>
        <time>2011-04-21T09:18:09Z</time>
      </trkpt>
      <trkpt lat="31.421857075765729" lon="-3.716565873473883">
        <ele>976.8369140625</ele>
        <time>2011-04-21T09:18:17Z</time>
      </trkpt>
      <trkpt lat="31.421332117170095" lon="-3.717280430719256">
        <ele>975.394775390625</ele>
        <time>2011-04-21T09:18:26Z</time>
      </trkpt>
      <trkpt lat="31.420576991513371" lon="-3.717798097059131">
        <ele>972.510986328125</ele>
        <time>2011-04-21T09:18:35Z</time>
      </trkpt>
      <trkpt lat="31.419526487588882" lon="-3.718129433691502">
        <ele>972.0302734375</ele>
        <time>2011-04-21T09:18:46Z</time>
      </trkpt>
      <trkpt lat="31.418416136875749" lon="-3.718334957957268">
        <ele>974.43359375</ele>
        <time>2011-04-21T09:18:58Z</time>
      </trkpt>
      <trkpt lat="31.417120965197682" lon="-3.718457166105509">
        <ele>981.162841796875</ele>
        <time>2011-04-21T09:19:12Z</time>
      </trkpt>
      <trkpt lat="31.416757106781006" lon="-3.718271255493164">
        <ele>983.56591796875</ele>
        <time>2011-04-21T09:19:19Z</time>
      </trkpt>
      <trkpt lat="31.416563987731934" lon="-3.718013763427734">
        <ele>985.488525390625</ele>
        <time>2011-04-21T09:19:28Z</time>
      </trkpt>
      <trkpt lat="31.416154783219099" lon="-3.71760263107717">
        <ele>984.046630859375</ele>
        <time>2011-04-21T09:19:47Z</time>
      </trkpt>
      <trkpt lat="31.416258215904236" lon="-3.717473298311234">
        <ele>1005.19580078125</ele>
        <time>2011-04-21T09:25:23Z</time>
      </trkpt>
      <trkpt lat="31.41640255227685" lon="-3.717355197295547">
        <ele>995.58251953125</ele>
        <time>2011-04-21T09:25:59Z</time>
      </trkpt>
      <trkpt lat="31.416388554498553" lon="-3.717460557818413">
        <ele>991.7373046875</ele>
        <time>2011-04-21T09:26:17Z</time>
      </trkpt>
      <trkpt lat="31.416303981095552" lon="-3.717750990763307">
        <ele>990.77587890625</ele>
        <time>2011-04-21T09:26:28Z</time>
      </trkpt>
      <trkpt lat="31.416402468457818" lon="-3.71792022138834">
        <ele>987.891845703125</ele>
        <time>2011-04-21T09:27:09Z</time>
      </trkpt>
      <trkpt lat="31.416622074320912" lon="-3.718100935220718">
        <ele>992.218017578125</ele>
        <time>2011-04-21T09:27:14Z</time>
      </trkpt>
      <trkpt lat="31.416766662150621" lon="-3.718276200816035">
        <ele>995.101806640625</ele>
        <time>2011-04-21T09:27:18Z</time>
      </trkpt>
      <trkpt lat="31.417057681828737" lon="-3.718446604907513">
        <ele>997.0244140625</ele>
        <time>2011-04-21T09:27:24Z</time>
      </trkpt>
      <trkpt lat="31.417252896353602" lon="-3.718464374542236">
        <ele>997.505126953125</ele>
        <time>2011-04-21T09:27:28Z</time>
      </trkpt>
      <trkpt lat="31.417476106435061" lon="-3.718430511653423">
        <ele>997.505126953125</ele>
        <time>2011-04-21T09:27:32Z</time>
      </trkpt>
      <trkpt lat="31.417980445548892" lon="-3.717927597463131">
        <ele>996.5439453125</ele>
        <time>2011-04-21T09:27:40Z</time>
      </trkpt>
      <trkpt lat="31.418520575389266" lon="-3.717123605310917">
        <ele>995.101806640625</ele>
        <time>2011-04-21T09:27:52Z</time>
      </trkpt>
      <trkpt lat="31.419012509286404" lon="-3.716575847938657">
        <ele>994.62109375</ele>
        <time>2011-04-21T09:28:01Z</time>
      </trkpt>
      <trkpt lat="31.419206466525793" lon="-3.716342244297266">
        <ele>994.62109375</ele>
        <time>2011-04-21T09:28:05Z</time>
      </trkpt>
      <trkpt lat="31.419445015490055" lon="-3.715779148042202">
        <ele>994.62109375</ele>
        <time>2011-04-21T09:28:13Z</time>
      </trkpt>
      <trkpt lat="31.419655987992883" lon="-3.715212028473616">
        <ele>995.101806640625</ele>
        <time>2011-04-21T09:28:23Z</time>
      </trkpt>
      <trkpt lat="31.418963558971882" lon="-3.714272752404213">
        <ele>1000.86962890625</ele>
        <time>2011-04-21T09:28:30Z</time>
      </trkpt>
      <trkpt lat="31.418243469670415" lon="-3.713769083842635">
        <ele>1005.19580078125</ele>
        <time>2011-04-21T09:28:42Z</time>
      </trkpt>
      <trkpt lat="31.417582891881466" lon="-3.713499773293734">
        <ele>1006.6376953125</ele>
        <time>2011-04-21T09:28:52Z</time>
      </trkpt>
      <trkpt lat="31.417306372895837" lon="-3.71346247382462">
        <ele>1002.3115234375</ele>
        <time>2011-04-21T09:28:58Z</time>
      </trkpt>
      <trkpt lat="31.417107889428735" lon="-3.713241945952177">
        <ele>1003.27294921875</ele>
        <time>2011-04-21T09:29:04Z</time>
      </trkpt>
      <trkpt lat="31.41695567406714" lon="-3.713149158284068">
        <ele>1003.753662109375</ele>
        <time>2011-04-21T09:29:08Z</time>
      </trkpt>
      <trkpt lat="31.41672408208251" lon="-3.713060393929482">
        <ele>1001.350341796875</ele>
        <time>2011-04-21T09:29:14Z</time>
      </trkpt>
      <trkpt lat="31.416541775688529" lon="-3.713010270148516">
        <ele>1000.38916015625</ele>
        <time>2011-04-21T09:29:18Z</time>
      </trkpt>
      <trkpt lat="31.416155621409416" lon="-3.712873477488756">
        <ele>999.908447265625</ele>
        <time>2011-04-21T09:29:25Z</time>
      </trkpt>
      <trkpt lat="31.415923861786723" lon="-3.712849672883749">
        <ele>1000.86962890625</ele>
        <time>2011-04-21T09:29:29Z</time>
      </trkpt>
      <trkpt lat="31.415036134421825" lon="-3.71284581720829">
        <ele>1005.19580078125</ele>
        <time>2011-04-21T09:29:43Z</time>
      </trkpt>
      <trkpt lat="31.414143964648247" lon="-3.712575752288103">
        <ele>1008.560302734375</ele>
        <time>2011-04-21T09:29:57Z</time>
      </trkpt>
      <trkpt lat="31.413421528413892" lon="-3.712333682924509">
        <ele>1011.4443359375</ele>
        <time>2011-04-21T09:30:09Z</time>
      </trkpt>
      <trkpt lat="31.413036631420255" lon="-3.712309375405312">
        <ele>1006.6376953125</ele>
        <time>2011-04-21T09:30:18Z</time>
      </trkpt>
      <trkpt lat="31.413117684423923" lon="-3.71222865767777">
        <ele>987.4111328125</ele>
        <time>2011-04-21T09:31:30Z</time>
      </trkpt>
      <trkpt lat="31.413182392716408" lon="-3.712329743430018">
        <ele>989.333984375</ele>
        <time>2011-04-21T09:31:35Z</time>
      </trkpt>
      <trkpt lat="31.413528732955456" lon="-3.712363271042705">
        <ele>994.140625</ele>
        <time>2011-04-21T09:31:43Z</time>
      </trkpt>
      <trkpt lat="31.41449298709631" lon="-3.712723441421986">
        <ele>997.0244140625</ele>
        <time>2011-04-21T09:31:55Z</time>
      </trkpt>
      <trkpt lat="31.415529996156693" lon="-3.712943634018302">
        <ele>997.505126953125</ele>
        <time>2011-04-21T09:32:06Z</time>
      </trkpt>
      <trkpt lat="31.415976248681545" lon="-3.712898120284081">
        <ele>997.0244140625</ele>
        <time>2011-04-21T09:32:11Z</time>
      </trkpt>
      <trkpt lat="31.416244637221098" lon="-3.712957296520472">
        <ele>996.063232421875</ele>
        <time>2011-04-21T09:32:15Z</time>
      </trkpt>
      <trkpt lat="31.416354943066835" lon="-3.713025441393256">
        <ele>995.58251953125</ele>
        <time>2011-04-21T09:32:17Z</time>
      </trkpt>
      <trkpt lat="31.41659801825881" lon="-3.713087635114789">
        <ele>995.101806640625</ele>
        <time>2011-04-21T09:32:21Z</time>
      </trkpt>
      <trkpt lat="31.416817456483841" lon="-3.713186625391245">
        <ele>995.101806640625</ele>
        <time>2011-04-21T09:32:25Z</time>
      </trkpt>
      <trkpt lat="31.417138231918216" lon="-3.713353760540485">
        <ele>995.101806640625</ele>
        <time>2011-04-21T09:32:32Z</time>
      </trkpt>
      <trkpt lat="31.417197324335575" lon="-3.713466748595238">
        <ele>995.101806640625</ele>
        <time>2011-04-21T09:32:34Z</time>
      </trkpt>
      <trkpt lat="31.417493624612689" lon="-3.713597590103746">
        <ele>994.62109375</ele>
        <time>2011-04-21T09:32:40Z</time>
      </trkpt>
      <trkpt lat="31.418075747787952" lon="-3.713782746344805">
        <ele>995.101806640625</ele>
        <time>2011-04-21T09:32:49Z</time>
      </trkpt>
      <trkpt lat="31.418672790750861" lon="-3.714151047170162">
        <ele>997.0244140625</ele>
        <time>2011-04-21T09:32:59Z</time>
      </trkpt>
      <trkpt lat="31.419078726321459" lon="-3.71444215066731">
        <ele>997.0244140625</ele>
        <time>2011-04-21T09:33:06Z</time>
      </trkpt>
      <trkpt lat="31.419632434844971" lon="-3.715245723724365">
        <ele>996.5439453125</ele>
        <time>2011-04-21T09:33:13Z</time>
      </trkpt>
      <trkpt lat="31.419441495090723" lon="-3.715794319286943">
        <ele>993.659912109375</ele>
        <time>2011-04-21T09:33:24Z</time>
      </trkpt>
      <trkpt lat="31.419340409338474" lon="-3.716159770265222">
        <ele>991.7373046875</ele>
        <time>2011-04-21T09:33:30Z</time>
      </trkpt>
      <trkpt lat="31.418938580900431" lon="-3.716657906770706">
        <ele>986.930419921875</ele>
        <time>2011-04-21T09:33:39Z</time>
      </trkpt>
      <trkpt lat="31.418453184887767" lon="-3.717209352180362">
        <ele>985.008056640625</ele>
        <time>2011-04-21T09:33:48Z</time>
      </trkpt>
      <trkpt lat="31.418008524924517" lon="-3.717885436490178">
        <ele>985.008056640625</ele>
        <time>2011-04-21T09:33:59Z</time>
      </trkpt>
      <trkpt lat="31.417480297386646" lon="-3.718429338186979">
        <ele>983.56591796875</ele>
        <time>2011-04-21T09:34:09Z</time>
      </trkpt>
      <trkpt lat="31.417345348745584" lon="-3.718464374542236">
        <ele>983.56591796875</ele>
        <time>2011-04-21T09:34:11Z</time>
      </trkpt>
      <trkpt lat="31.41698551364243" lon="-3.718409305438399">
        <ele>985.488525390625</ele>
        <time>2011-04-21T09:34:18Z</time>
      </trkpt>
      <trkpt lat="31.41664981842041" lon="-3.718142509460449">
        <ele>992.218017578125</ele>
        <time>2011-04-21T09:34:25Z</time>
      </trkpt>
      <trkpt lat="31.41658435575664" lon="-3.718044441193342">
        <ele>994.140625</ele>
        <time>2011-04-21T09:34:27Z</time>
      </trkpt>
      <trkpt lat="31.416521072387695" lon="-3.71788501739502">
        <ele>997.0244140625</ele>
        <time>2011-04-21T09:34:31Z</time>
      </trkpt>
      <trkpt lat="31.416290821507573" lon="-3.717432478442788">
        <ele>996.063232421875</ele>
        <time>2011-04-21T09:34:40Z</time>
      </trkpt>
      <trkpt lat="31.416526017710567" lon="-3.71719216927886">
        <ele>992.69873046875</ele>
        <time>2011-04-21T09:34:52Z</time>
      </trkpt>
      <trkpt lat="31.416411688551307" lon="-3.717170041054487">
        <ele>992.69873046875</ele>
        <time>2011-04-21T09:35:01Z</time>
      </trkpt>
      <trkpt lat="31.416322672739625" lon="-3.717258553951979">
        <ele>993.659912109375</ele>
        <time>2011-04-21T09:35:06Z</time>
      </trkpt>
      <trkpt lat="31.41619149595499" lon="-3.717393083497882">
        <ele>996.063232421875</ele>
        <time>2011-04-21T09:35:25Z</time>
      </trkpt>
      <trkpt lat="31.415997538715601" lon="-3.717744117602706">
        <ele>996.063232421875</ele>
        <time>2011-04-21T09:35:33Z</time>
      </trkpt>
      <trkpt lat="31.415803581476212" lon="-3.717882419005036">
        <ele>996.5439453125</ele>
        <time>2011-04-21T09:35:40Z</time>
      </trkpt>
      <trkpt lat="31.415670895949006" lon="-3.718048548325896">
        <ele>996.063232421875</ele>
        <time>2011-04-21T09:35:44Z</time>
      </trkpt>
      <trkpt lat="31.415475513786077" lon="-3.718151729553938">
        <ele>996.5439453125</ele>
        <time>2011-04-21T09:35:49Z</time>
      </trkpt>
      <trkpt lat="31.41501484438777" lon="-3.7184455152601">
        <ele>994.140625</ele>
        <time>2011-04-21T09:36:00Z</time>
      </trkpt>
      <trkpt lat="31.414759447798133" lon="-3.718616673722863">
        <ele>991.7373046875</ele>
        <time>2011-04-21T09:36:06Z</time>
      </trkpt>
      <trkpt lat="31.414393074810505" lon="-3.719021519646049">
        <ele>989.333984375</ele>
        <time>2011-04-21T09:36:16Z</time>
      </trkpt>
      <trkpt lat="31.414035754278302" lon="-3.719450505450368">
        <ele>986.930419921875</ele>
        <time>2011-04-21T09:36:26Z</time>
      </trkpt>
      <trkpt lat="31.413741800934076" lon="-3.719854010269046">
        <ele>982.1240234375</ele>
        <time>2011-04-21T09:36:37Z</time>
      </trkpt>
      <trkpt lat="31.413570726290345" lon="-3.719923496246338">
        <ele>979.720703125</ele>
        <time>2011-04-21T09:36:46Z</time>
      </trkpt>
      <trkpt lat="31.413480956107378" lon="-3.719904469326139">
        <ele>977.798095703125</ele>
        <time>2011-04-21T09:37:01Z</time>
      </trkpt>
      <trkpt lat="31.413312060758471" lon="-3.7200066447258">
        <ele>975.394775390625</ele>
        <time>2011-04-21T09:37:12Z</time>
      </trkpt>
      <trkpt lat="31.413099495694041" lon="-3.719949899241328">
        <ele>964.8203125</ele>
        <time>2011-04-21T09:37:30Z</time>
      </trkpt>
      <trkpt lat="31.413039481267333" lon="-3.720092978328466">
        <ele>960.494384765625</ele>
        <time>2011-04-21T09:37:52Z</time>
      </trkpt>
      <trkpt lat="31.413068985566497" lon="-3.720194734632969">
        <ele>955.687744140625</ele>
        <time>2011-04-21T09:38:02Z</time>
      </trkpt>
      <trkpt lat="31.413133023306727" lon="-3.720340579748154">
        <ele>954.245849609375</ele>
        <time>2011-04-21T09:38:37Z</time>
      </trkpt>
      <trkpt lat="31.413123719394207" lon="-3.720446527004242">
        <ele>947.035888671875</ele>
        <time>2011-04-21T09:39:11Z</time>
      </trkpt>
      <trkpt lat="31.412966977804899" lon="-3.720513079315424">
        <ele>945.11328125</ele>
        <time>2011-04-21T09:39:23Z</time>
      </trkpt>
      <trkpt lat="31.412845021113753" lon="-3.720516096800566">
        <ele>943.190673828125</ele>
        <time>2011-04-21T09:39:34Z</time>
      </trkpt>
      <trkpt lat="31.41267042607069" lon="-3.720483994111419">
        <ele>941.26806640625</ele>
        <time>2011-04-21T09:39:44Z</time>
      </trkpt>
      <trkpt lat="31.412407150492072" lon="-3.720476450398564">
        <ele>936.46142578125</ele>
        <time>2011-04-21T09:39:56Z</time>
      </trkpt>
      <trkpt lat="31.412155861034989" lon="-3.720509558916092">
        <ele>935.01953125</ele>
        <time>2011-04-21T09:40:06Z</time>
      </trkpt>
      <trkpt lat="31.411799881607294" lon="-3.720849277451634">
        <ele>932.135498046875</ele>
        <time>2011-04-21T09:40:17Z</time>
      </trkpt>
      <trkpt lat="31.411226140335202" lon="-3.721378678455949">
        <ele>930.212890625</ele>
        <time>2011-04-21T09:40:28Z</time>
      </trkpt>
      <trkpt lat="31.411101836711168" lon="-3.721471969038248">
        <ele>929.25146484375</ele>
        <time>2011-04-21T09:40:30Z</time>
      </trkpt>
      <trkpt lat="31.410108916461468" lon="-3.722154591232538">
        <ele>927.3291015625</ele>
        <time>2011-04-21T09:40:42Z</time>
      </trkpt>
      <trkpt lat="31.409340128302574" lon="-3.722623810172081">
        <ele>927.8095703125</ele>
        <time>2011-04-21T09:40:52Z</time>
      </trkpt>
      <trkpt lat="31.408652476966381" lon="-3.722957745194435">
        <ele>925.886962890625</ele>
        <time>2011-04-21T09:41:02Z</time>
      </trkpt>
      <trkpt lat="31.408466817811131" lon="-3.72336795553565">
        <ele>925.886962890625</ele>
        <time>2011-04-21T09:41:09Z</time>
      </trkpt>
      <trkpt lat="31.408431529998779" lon="-3.723485469818115">
        <ele>924.92578125</ele>
        <time>2011-04-21T09:41:11Z</time>
      </trkpt>
      <trkpt lat="31.408339580520988" lon="-3.724245959892869">
        <ele>921.560791015625</ele>
        <time>2011-04-21T09:41:20Z</time>
      </trkpt>
      <trkpt lat="31.408111173659563" lon="-3.725453540682793">
        <ele>919.638427734375</ele>
        <time>2011-04-21T09:41:31Z</time>
      </trkpt>
      <trkpt lat="31.407778412103653" lon="-3.72661242261529">
        <ele>916.273681640625</ele>
        <time>2011-04-21T09:41:43Z</time>
      </trkpt>
      <trkpt lat="31.407358227297664" lon="-3.727273503318429">
        <ele>915.3125</ele>
        <time>2011-04-21T09:41:51Z</time>
      </trkpt>
      <trkpt lat="31.406872244551778" lon="-3.728175312280655">
        <ele>910.986572265625</ele>
        <time>2011-04-21T09:42:00Z</time>
      </trkpt>
      <trkpt lat="31.406120304018259" lon="-3.729543155059218">
        <ele>906.1796875</ele>
        <time>2011-04-21T09:42:14Z</time>
      </trkpt>
      <trkpt lat="31.40553935430944" lon="-3.730931282043457">
        <ele>907.621826171875</ele>
        <time>2011-04-21T09:42:28Z</time>
      </trkpt>
      <trkpt lat="31.405448913574219" lon="-3.731660842895508">
        <ele>907.621826171875</ele>
        <time>2011-04-21T09:42:36Z</time>
      </trkpt>
      <trkpt lat="31.405489230528474" lon="-3.732206504791975">
        <ele>907.621826171875</ele>
        <time>2011-04-21T09:42:43Z</time>
      </trkpt>
      <trkpt lat="31.4055379293859" lon="-3.732486376538873">
        <ele>907.14111328125</ele>
        <time>2011-04-21T09:42:49Z</time>
      </trkpt>
      <trkpt lat="31.405563829466701" lon="-3.732611602172256">
        <ele>898.0087890625</ele>
        <time>2011-04-21T09:44:08Z</time>
      </trkpt>
      <trkpt lat="31.405670698732138" lon="-3.733235048130155">
        <ele>896.56689453125</ele>
        <time>2011-04-21T09:44:15Z</time>
      </trkpt>
      <trkpt lat="31.405816460028291" lon="-3.734413795173168">
        <ele>894.16357421875</ele>
        <time>2011-04-21T09:44:26Z</time>
      </trkpt>
      <trkpt lat="31.405929699540138" lon="-3.735481901094317">
        <ele>893.2021484375</ele>
        <time>2011-04-21T09:44:37Z</time>
      </trkpt>
      <trkpt lat="31.405924335122108" lon="-3.735772501677275">
        <ele>893.682861328125</ele>
        <time>2011-04-21T09:44:40Z</time>
      </trkpt>
      <trkpt lat="31.405880581587553" lon="-3.736830884590745">
        <ele>903.776611328125</ele>
        <time>2011-04-21T09:44:50Z</time>
      </trkpt>
      <trkpt lat="31.406006813049316" lon="-3.737649293616414">
        <ele>906.1796875</ele>
        <time>2011-04-21T09:44:58Z</time>
      </trkpt>
      <trkpt lat="31.406019469723105" lon="-3.73798037879169">
        <ele>907.14111328125</ele>
        <time>2011-04-21T09:45:02Z</time>
      </trkpt>
      <trkpt lat="31.406101528555155" lon="-3.738904902711511">
        <ele>907.14111328125</ele>
        <time>2011-04-21T09:45:11Z</time>
      </trkpt>
      <trkpt lat="31.406183419749141" lon="-3.740493524819613">
        <ele>906.1796875</ele>
        <time>2011-04-21T09:45:24Z</time>
      </trkpt>
      <trkpt lat="31.406242847442627" lon="-3.742137718945742">
        <ele>907.621826171875</ele>
        <time>2011-04-21T09:45:36Z</time>
      </trkpt>
      <trkpt lat="31.406254498288035" lon="-3.743357369676232">
        <ele>910.025146484375</ele>
        <time>2011-04-21T09:45:46Z</time>
      </trkpt>
      <trkpt lat="31.406182078644633" lon="-3.744478700682521">
        <ele>909.06396484375</ele>
        <time>2011-04-21T09:45:55Z</time>
      </trkpt>
      <trkpt lat="31.406184006482363" lon="-3.744874829426408">
        <ele>909.06396484375</ele>
        <time>2011-04-21T09:45:58Z</time>
      </trkpt>
      <trkpt lat="31.406242847442627" lon="-3.745361734181643">
        <ele>909.06396484375</ele>
        <time>2011-04-21T09:46:02Z</time>
      </trkpt>
      <trkpt lat="31.406612154096365" lon="-3.746653469279409">
        <ele>910.986572265625</ele>
        <time>2011-04-21T09:46:14Z</time>
      </trkpt>
      <trkpt lat="31.406706366688013" lon="-3.746967539191246">
        <ele>910.986572265625</ele>
        <time>2011-04-21T09:46:17Z</time>
      </trkpt>
      <trkpt lat="31.406879536807537" lon="-3.7477832660079">
        <ele>908.102783203125</ele>
        <time>2011-04-21T09:46:25Z</time>
      </trkpt>
      <trkpt lat="31.407022615894675" lon="-3.748799320310354">
        <ele>908.102783203125</ele>
        <time>2011-04-21T09:46:33Z</time>
      </trkpt>
      <trkpt lat="31.407176172360778" lon="-3.750253664329648">
        <ele>911.46728515625</ele>
        <time>2011-04-21T09:46:44Z</time>
      </trkpt>
      <trkpt lat="31.407192014157772" lon="-3.751160753890872">
        <ele>906.660400390625</ele>
        <time>2011-04-21T09:46:53Z</time>
      </trkpt>
      <trkpt lat="31.407186985015869" lon="-3.751268796622753">
        <ele>906.1796875</ele>
        <time>2011-04-21T09:46:54Z</time>
      </trkpt>
      <trkpt lat="31.407033177092671" lon="-3.752217460423708">
        <ele>903.2958984375</ele>
        <time>2011-04-21T09:47:03Z</time>
      </trkpt>
      <trkpt lat="31.406843829900026" lon="-3.753117676824331">
        <ele>900.412109375</ele>
        <time>2011-04-21T09:47:13Z</time>
      </trkpt>
      <trkpt lat="31.406823713332415" lon="-3.753320686519146">
        <ele>899.931396484375</ele>
        <time>2011-04-21T09:47:20Z</time>
      </trkpt>
      <trkpt lat="31.406843662261963" lon="-3.753533251583576">
        <ele>905.69921875</ele>
        <time>2011-04-21T09:51:30Z</time>
      </trkpt>
      <trkpt lat="31.406831089407206" lon="-3.753923596814275">
        <ele>904.73779296875</ele>
        <time>2011-04-21T09:51:35Z</time>
      </trkpt>
      <trkpt lat="31.406651632860303" lon="-3.754258118569851">
        <ele>903.2958984375</ele>
        <time>2011-04-21T09:51:40Z</time>
      </trkpt>
      <trkpt lat="31.40647703781724" lon="-3.754876954481006">
        <ele>904.25732421875</ele>
        <time>2011-04-21T09:51:48Z</time>
      </trkpt>
      <trkpt lat="31.406301185488701" lon="-3.755889404565096">
        <ele>905.218505859375</ele>
        <time>2011-04-21T09:51:58Z</time>
      </trkpt>
      <trkpt lat="31.406129943206906" lon="-3.757417928427458">
        <ele>903.776611328125</ele>
        <time>2011-04-21T09:52:11Z</time>
      </trkpt>
      <trkpt lat="31.405862057581544" lon="-3.758345050737262">
        <ele>903.776611328125</ele>
        <time>2011-04-21T09:52:19Z</time>
      </trkpt>
      <trkpt lat="31.405560476705432" lon="-3.759066816419363">
        <ele>900.412109375</ele>
        <time>2011-04-21T09:52:27Z</time>
      </trkpt>
      <trkpt lat="31.405587550252676" lon="-3.759489767253399">
        <ele>901.373291015625</ele>
        <time>2011-04-21T09:52:33Z</time>
      </trkpt>
      <trkpt lat="31.405687127262354" lon="-3.760097706690431">
        <ele>900.412109375</ele>
        <time>2011-04-21T09:52:41Z</time>
      </trkpt>
      <trkpt lat="31.405701460316777" lon="-3.760948888957501">
        <ele>901.373291015625</ele>
        <time>2011-04-21T09:52:50Z</time>
      </trkpt>
      <trkpt lat="31.405577659606934" lon="-3.761797724291682">
        <ele>905.218505859375</ele>
        <time>2011-04-21T09:52:59Z</time>
      </trkpt>
      <trkpt lat="31.405584113672376" lon="-3.762090420350432">
        <ele>906.1796875</ele>
        <time>2011-04-21T09:53:03Z</time>
      </trkpt>
      <trkpt lat="31.405636081472039" lon="-3.762391917407513">
        <ele>907.14111328125</ele>
        <time>2011-04-21T09:53:11Z</time>
      </trkpt>
      <trkpt lat="31.40566349029541" lon="-3.762753009796143">
        <ele>895.124755859375</ele>
        <time>2011-04-21T09:58:41Z</time>
      </trkpt>
      <trkpt lat="31.405642032623291" lon="-3.763363547623158">
        <ele>897.528076171875</ele>
        <time>2011-04-21T09:58:52Z</time>
      </trkpt>
      <trkpt lat="31.405542455613613" lon="-3.763880962505937">
        <ele>898.969970703125</ele>
        <time>2011-04-21T09:59:01Z</time>
      </trkpt>
      <trkpt lat="31.405431227758527" lon="-3.76441421918571">
        <ele>899.45068359375</ele>
        <time>2011-04-21T09:59:11Z</time>
      </trkpt>
      <trkpt lat="31.405448913574219" lon="-3.764672046527267">
        <ele>898.969970703125</ele>
        <time>2011-04-21T09:59:17Z</time>
      </trkpt>
      <trkpt lat="31.405470371246338" lon="-3.764875140041113">
        <ele>897.528076171875</ele>
        <time>2011-04-21T09:59:21Z</time>
      </trkpt>
      <trkpt lat="31.405327040702105" lon="-3.765516942366958">
        <ele>893.682861328125</ele>
        <time>2011-04-21T09:59:30Z</time>
      </trkpt>
      <trkpt lat="31.40516996383667" lon="-3.766301739960909">
        <ele>893.682861328125</ele>
        <time>2011-04-21T09:59:39Z</time>
      </trkpt>
      <trkpt lat="31.405199635773897" lon="-3.766681523993611">
        <ele>894.16357421875</ele>
        <time>2011-04-21T09:59:43Z</time>
      </trkpt>
      <trkpt lat="31.405234588310122" lon="-3.767046555876732">
        <ele>894.64404296875</ele>
        <time>2011-04-21T09:59:47Z</time>
      </trkpt>
      <trkpt lat="31.405206508934498" lon="-3.767397757619619">
        <ele>894.64404296875</ele>
        <time>2011-04-21T09:59:52Z</time>
      </trkpt>
      <trkpt lat="31.405062675476074" lon="-3.768028831109405">
        <ele>891.760009765625</ele>
        <time>2011-04-21T10:00:02Z</time>
      </trkpt>
      <trkpt lat="31.404863689094782" lon="-3.768649930134416">
        <ele>893.682861328125</ele>
        <time>2011-04-21T10:00:11Z</time>
      </trkpt>
      <trkpt lat="31.404687836766243" lon="-3.769535981118679">
        <ele>894.64404296875</ele>
        <time>2011-04-21T10:00:21Z</time>
      </trkpt>
      <trkpt lat="31.404431853443384" lon="-3.770619006827474">
        <ele>891.279296875</ele>
        <time>2011-04-21T10:00:33Z</time>
      </trkpt>
      <trkpt lat="31.404294474050403" lon="-3.771583009511232">
        <ele>891.760009765625</ele>
        <time>2011-04-21T10:00:42Z</time>
      </trkpt>
      <trkpt lat="31.404123567044735" lon="-3.773062499240041">
        <ele>892.7216796875</ele>
        <time>2011-04-21T10:00:55Z</time>
      </trkpt>
      <trkpt lat="31.404099510982633" lon="-3.773669935762882">
        <ele>892.7216796875</ele>
        <time>2011-04-21T10:01:02Z</time>
      </trkpt>
      <trkpt lat="31.404102528467774" lon="-3.773970929905772">
        <ele>893.682861328125</ele>
        <time>2011-04-21T10:01:06Z</time>
      </trkpt>
      <trkpt lat="31.40423521399498" lon="-3.774691773578525">
        <ele>894.64404296875</ele>
        <time>2011-04-21T10:01:15Z</time>
      </trkpt>
      <trkpt lat="31.404266059398651" lon="-3.774888999760151">
        <ele>895.124755859375</ele>
        <time>2011-04-21T10:01:18Z</time>
      </trkpt>
      <trkpt lat="31.404447946697474" lon="-3.775514708831906">
        <ele>896.086181640625</ele>
        <time>2011-04-21T10:01:27Z</time>
      </trkpt>
      <trkpt lat="31.404750868678093" lon="-3.776473179459572">
        <ele>896.086181640625</ele>
        <time>2011-04-21T10:01:38Z</time>
      </trkpt>
      <trkpt lat="31.405051946640015" lon="-3.777279853820801">
        <ele>898.0087890625</ele>
        <time>2011-04-21T10:01:47Z</time>
      </trkpt>
      <trkpt lat="31.405325951054692" lon="-3.777833227068186">
        <ele>901.373291015625</ele>
        <time>2011-04-21T10:01:54Z</time>
      </trkpt>
      <trkpt lat="31.405375236645341" lon="-3.778094910085201">
        <ele>901.373291015625</ele>
        <time>2011-04-21T10:01:58Z</time>
      </trkpt>
      <trkpt lat="31.405385378748178" lon="-3.778466898947954">
        <ele>901.373291015625</ele>
        <time>2011-04-21T10:02:03Z</time>
      </trkpt>
      <trkpt lat="31.405409686267376" lon="-3.778644511476159">
        <ele>901.85400390625</ele>
        <time>2011-04-21T10:02:06Z</time>
      </trkpt>
      <trkpt lat="31.405540192499757" lon="-3.778922706842423">
        <ele>901.85400390625</ele>
        <time>2011-04-21T10:02:12Z</time>
      </trkpt>
      <trkpt lat="31.405983678996563" lon="-3.779396619647741">
        <ele>898.4892578125</ele>
        <time>2011-04-21T10:02:23Z</time>
      </trkpt>
      <trkpt lat="31.406419621780515" lon="-3.780080918222666">
        <ele>896.56689453125</ele>
        <time>2011-04-21T10:02:34Z</time>
      </trkpt>
      <trkpt lat="31.406691027805209" lon="-3.780485596507788">
        <ele>895.124755859375</ele>
        <time>2011-04-21T10:02:41Z</time>
      </trkpt>
      <trkpt lat="31.406831424683332" lon="-3.78075004555285">
        <ele>895.124755859375</ele>
        <time>2011-04-21T10:02:46Z</time>
      </trkpt>
      <trkpt lat="31.406989926472306" lon="-3.780917432159185">
        <ele>893.682861328125</ele>
        <time>2011-04-21T10:02:54Z</time>
      </trkpt>
      <trkpt lat="31.407168712466955" lon="-3.780893124639988">
        <ele>891.760009765625</ele>
        <time>2011-04-21T10:03:00Z</time>
      </trkpt>
      <trkpt lat="31.407401561737061" lon="-3.780605792999268">
        <ele>889.83740234375</ele>
        <time>2011-04-21T10:03:07Z</time>
      </trkpt>
      <trkpt lat="31.407594680786133" lon="-3.780412673950195">
        <ele>889.356689453125</ele>
        <time>2011-04-21T10:03:11Z</time>
      </trkpt>
      <trkpt lat="31.407950576394796" lon="-3.780161887407303">
        <ele>891.279296875</ele>
        <time>2011-04-21T10:03:18Z</time>
      </trkpt>
      <trkpt lat="31.408240757882595" lon="-3.780292561277747">
        <ele>891.279296875</ele>
        <time>2011-04-21T10:03:23Z</time>
      </trkpt>
      <trkpt lat="31.408435134217143" lon="-3.780536139383912">
        <ele>892.240966796875</ele>
        <time>2011-04-21T10:03:27Z</time>
      </trkpt>
      <trkpt lat="31.408703019842505" lon="-3.780877199023962">
        <ele>893.682861328125</ele>
        <time>2011-04-21T10:03:32Z</time>
      </trkpt>
      <trkpt lat="31.409073835238814" lon="-3.781345915049315">
        <ele>895.60546875</ele>
        <time>2011-04-21T10:03:38Z</time>
      </trkpt>
      <trkpt lat="31.409109877422452" lon="-3.781739277765155">
        <ele>896.56689453125</ele>
        <time>2011-04-21T10:03:42Z</time>
      </trkpt>
      <trkpt lat="31.409085150808096" lon="-3.782483842223883">
        <ele>897.04736328125</ele>
        <time>2011-04-21T10:03:51Z</time>
      </trkpt>
      <trkpt lat="31.409057741984725" lon="-3.782661538571119">
        <ele>896.086181640625</ele>
        <time>2011-04-21T10:04:09Z</time>
      </trkpt>
      <trkpt lat="31.409075260162354" lon="-3.783496962860227">
        <ele>895.124755859375</ele>
        <time>2011-04-21T10:04:19Z</time>
      </trkpt>
      <trkpt lat="31.409126054495573" lon="-3.784324927255511">
        <ele>895.124755859375</ele>
        <time>2011-04-21T10:04:28Z</time>
      </trkpt>
      <trkpt lat="31.409182548522949" lon="-3.784825913608074">
        <ele>893.2021484375</ele>
        <time>2011-04-21T10:04:34Z</time>
      </trkpt>
      <trkpt lat="31.409138040617108" lon="-3.78516630269587">
        <ele>893.2021484375</ele>
        <time>2011-04-21T10:04:37Z</time>
      </trkpt>
      <trkpt lat="31.408722382038832" lon="-3.786218650639057">
        <ele>891.760009765625</ele>
        <time>2011-04-21T10:04:47Z</time>
      </trkpt>
      <trkpt lat="31.408635210245848" lon="-3.786841761320829">
        <ele>890.318115234375</ele>
        <time>2011-04-21T10:04:53Z</time>
      </trkpt>
      <trkpt lat="31.408560276031494" lon="-3.78747409209609">
        <ele>888.876220703125</ele>
        <time>2011-04-21T10:05:01Z</time>
      </trkpt>
      <trkpt lat="31.408527586609125" lon="-3.787977090105414">
        <ele>886.953369140625</ele>
        <time>2011-04-21T10:05:08Z</time>
      </trkpt>
      <trkpt lat="31.40845550224185" lon="-3.788378750905395">
        <ele>886.953369140625</ele>
        <time>2011-04-21T10:05:14Z</time>
      </trkpt>
      <trkpt lat="31.409064363688231" lon="-3.789405450224876">
        <ele>885.511474609375</ele>
        <time>2011-04-21T10:05:22Z</time>
      </trkpt>
      <trkpt lat="31.409440627321601" lon="-3.79092282615602">
        <ele>883.5888671875</ele>
        <time>2011-04-21T10:05:34Z</time>
      </trkpt>
      <trkpt lat="31.409662747755647" lon="-3.792106769979">
        <ele>881.185791015625</ele>
        <time>2011-04-21T10:05:43Z</time>
      </trkpt>
      <trkpt lat="31.409727036952972" lon="-3.792341882362962">
        <ele>880.705078125</ele>
        <time>2011-04-21T10:05:45Z</time>
      </trkpt>
      <trkpt lat="31.409755786880851" lon="-3.793083848431706">
        <ele>880.705078125</ele>
        <time>2011-04-21T10:05:53Z</time>
      </trkpt>
      <trkpt lat="31.409728042781353" lon="-3.79375297576189">
        <ele>881.666259765625</ele>
        <time>2011-04-21T10:06:01Z</time>
      </trkpt>
      <trkpt lat="31.409777831286192" lon="-3.794741537421942">
        <ele>881.185791015625</ele>
        <time>2011-04-21T10:06:10Z</time>
      </trkpt>
      <trkpt lat="31.409836672246456" lon="-3.795117130503058">
        <ele>879.74365234375</ele>
        <time>2011-04-21T10:06:15Z</time>
      </trkpt>
      <trkpt lat="31.409806665033102" lon="-3.79550077021122">
        <ele>881.185791015625</ele>
        <time>2011-04-21T10:06:22Z</time>
      </trkpt>
      <trkpt lat="31.409786464646459" lon="-3.796128490939736">
        <ele>883.108154296875</ele>
        <time>2011-04-21T10:06:28Z</time>
      </trkpt>
      <trkpt lat="31.409868691116571" lon="-3.796692090108991">
        <ele>882.14697265625</ele>
        <time>2011-04-21T10:06:33Z</time>
      </trkpt>
      <trkpt lat="31.409845976158977" lon="-3.797113699838519">
        <ele>882.14697265625</ele>
        <time>2011-04-21T10:06:37Z</time>
      </trkpt>
      <trkpt lat="31.40987447462976" lon="-3.797946190461516">
        <ele>884.069580078125</ele>
        <time>2011-04-21T10:06:44Z</time>
      </trkpt>
      <trkpt lat="31.409900793805718" lon="-3.799250666052103">
        <ele>886.472900390625</ele>
        <time>2011-04-21T10:06:53Z</time>
      </trkpt>
      <trkpt lat="31.410110928118229" lon="-3.800720768049359">
        <ele>885.031005859375</ele>
        <time>2011-04-21T10:07:04Z</time>
      </trkpt>
      <trkpt lat="31.410145377740264" lon="-3.800997287034988">
        <ele>884.55029296875</ele>
        <time>2011-04-21T10:07:07Z</time>
      </trkpt>
      <trkpt lat="31.410251157358289" lon="-3.801269447430968">
        <ele>885.031005859375</ele>
        <time>2011-04-21T10:07:14Z</time>
      </trkpt>
      <trkpt lat="31.410394487902522" lon="-3.801820389926434">
        <ele>886.953369140625</ele>
        <time>2011-04-21T10:07:22Z</time>
      </trkpt>
      <trkpt lat="31.410553827881813" lon="-3.802822949364781">
        <ele>889.356689453125</ele>
        <time>2011-04-21T10:07:32Z</time>
      </trkpt>
      <trkpt lat="31.410748371854424" lon="-3.803935227915645">
        <ele>889.356689453125</ele>
        <time>2011-04-21T10:07:43Z</time>
      </trkpt>
      <trkpt lat="31.411045426502824" lon="-3.805258562788367">
        <ele>889.83740234375</ele>
        <time>2011-04-21T10:07:55Z</time>
      </trkpt>
      <trkpt lat="31.411364441737533" lon="-3.806000277400017">
        <ele>888.876220703125</ele>
        <time>2011-04-21T10:08:02Z</time>
      </trkpt>
      <trkpt lat="31.411866433918476" lon="-3.806878868490458">
        <ele>887.43408203125</ele>
        <time>2011-04-21T10:08:11Z</time>
      </trkpt>
      <trkpt lat="31.412325091660023" lon="-3.807535674422979">
        <ele>885.9921875</ele>
        <time>2011-04-21T10:08:18Z</time>
      </trkpt>
      <trkpt lat="31.412465488538146" lon="-3.808208322152495">
        <ele>885.511474609375</ele>
        <time>2011-04-21T10:08:24Z</time>
      </trkpt>
      <trkpt lat="31.412457441911101" lon="-3.808421976864338">
        <ele>885.511474609375</ele>
        <time>2011-04-21T10:08:26Z</time>
      </trkpt>
      <trkpt lat="31.412667157128453" lon="-3.808812741190195">
        <ele>883.5888671875</ele>
        <time>2011-04-21T10:08:32Z</time>
      </trkpt>
      <trkpt lat="31.412842757999897" lon="-3.808896644040942">
        <ele>883.5888671875</ele>
        <time>2011-04-21T10:08:35Z</time>
      </trkpt>
      <trkpt lat="31.413117265328765" lon="-3.809116249904037">
        <ele>883.108154296875</ele>
        <time>2011-04-21T10:08:39Z</time>
      </trkpt>
      <trkpt lat="31.41372436657548" lon="-3.809855785220861">
        <ele>883.5888671875</ele>
        <time>2011-04-21T10:08:49Z</time>
      </trkpt>
      <trkpt lat="31.413972219452262" lon="-3.810448385775089">
        <ele>884.069580078125</ele>
        <time>2011-04-21T10:08:56Z</time>
      </trkpt>
      <trkpt lat="31.414365163072944" lon="-3.811152298003435">
        <ele>884.069580078125</ele>
        <time>2011-04-21T10:09:03Z</time>
      </trkpt>
      <trkpt lat="31.414692727848887" lon="-3.811527974903584">
        <ele>884.069580078125</ele>
        <time>2011-04-21T10:09:07Z</time>
      </trkpt>
      <trkpt lat="31.415076535195112" lon="-3.812334397807717">
        <ele>882.627685546875</ele>
        <time>2011-04-21T10:09:15Z</time>
      </trkpt>
      <trkpt lat="31.41545757651329" lon="-3.813378782942891">
        <ele>881.185791015625</ele>
        <time>2011-04-21T10:09:25Z</time>
      </trkpt>
      <trkpt lat="31.415645750239491" lon="-3.814016059041023">
        <ele>881.185791015625</ele>
        <time>2011-04-21T10:09:31Z</time>
      </trkpt>
      <trkpt lat="31.415756894275546" lon="-3.814263660460711">
        <ele>880.705078125</ele>
        <time>2011-04-21T10:09:34Z</time>
      </trkpt>
      <trkpt lat="31.415804252028465" lon="-3.814554680138826">
        <ele>881.185791015625</ele>
        <time>2011-04-21T10:09:38Z</time>
      </trkpt>
      <trkpt lat="31.415795618668199" lon="-3.814863050356507">
        <ele>881.185791015625</ele>
        <time>2011-04-21T10:09:41Z</time>
      </trkpt>
      <trkpt lat="31.415987983345985" lon="-3.815469983965159">
        <ele>880.705078125</ele>
        <time>2011-04-21T10:09:47Z</time>
      </trkpt>
      <trkpt lat="31.416098792105913" lon="-3.815647680312395">
        <ele>880.705078125</ele>
        <time>2011-04-21T10:09:49Z</time>
      </trkpt>
      <trkpt lat="31.416411772370338" lon="-3.816568935289979">
        <ele>879.74365234375</ele>
        <time>2011-04-21T10:09:59Z</time>
      </trkpt>
      <trkpt lat="31.416737493127584" lon="-3.81707763299346">
        <ele>879.262939453125</ele>
        <time>2011-04-21T10:10:07Z</time>
      </trkpt>
      <trkpt lat="31.41678225249052" lon="-3.817262621596456">
        <ele>880.224365234375</ele>
        <time>2011-04-21T10:10:09Z</time>
      </trkpt>
      <trkpt lat="31.417208136990666" lon="-3.818218493834138">
        <ele>881.666259765625</ele>
        <time>2011-04-21T10:10:19Z</time>
      </trkpt>
      <trkpt lat="31.417424976825714" lon="-3.818989880383015">
        <ele>882.627685546875</ele>
        <time>2011-04-21T10:10:27Z</time>
      </trkpt>
      <trkpt lat="31.417725048959255" lon="-3.820053962990642">
        <ele>883.5888671875</ele>
        <time>2011-04-21T10:10:38Z</time>
      </trkpt>
      <trkpt lat="31.418123692274094" lon="-3.821049397811294">
        <ele>884.55029296875</ele>
        <time>2011-04-21T10:10:48Z</time>
      </trkpt>
      <trkpt lat="31.418222179636359" lon="-3.821233129128814">
        <ele>884.55029296875</ele>
        <time>2011-04-21T10:10:50Z</time>
      </trkpt>
      <trkpt lat="31.418611267581582" lon="-3.822365524247289">
        <ele>885.9921875</ele>
        <time>2011-04-21T10:11:01Z</time>
      </trkpt>
      <trkpt lat="31.419331692159176" lon="-3.82399027235806">
        <ele>886.472900390625</ele>
        <time>2011-04-21T10:11:16Z</time>
      </trkpt>
      <trkpt lat="31.419723462313414" lon="-3.824704075232148">
        <ele>884.55029296875</ele>
        <time>2011-04-21T10:11:25Z</time>
      </trkpt>
      <trkpt lat="31.420291252434254" lon="-3.825345542281866">
        <ele>882.627685546875</ele>
        <time>2011-04-21T10:11:35Z</time>
      </trkpt>
      <trkpt lat="31.420791987329721" lon="-3.825766146183014">
        <ele>880.224365234375</ele>
        <time>2011-04-21T10:11:44Z</time>
      </trkpt>
      <trkpt lat="31.420918637886643" lon="-3.825921630486846">
        <ele>878.3017578125</ele>
        <time>2011-04-21T10:11:57Z</time>
      </trkpt>
      <trkpt lat="31.421045623719692" lon="-3.826094968244433">
        <ele>876.85986328125</ele>
        <time>2011-04-21T10:12:11Z</time>
      </trkpt>
      <trkpt lat="31.421157186850905" lon="-3.826290098950267">
        <ele>875.898193359375</ele>
        <time>2011-04-21T10:12:16Z</time>
      </trkpt>
      <trkpt lat="31.421211333945394" lon="-3.826614478603005">
        <ele>874.93701171875</ele>
        <time>2011-04-21T10:12:25Z</time>
      </trkpt>
      <trkpt lat="31.421004133298993" lon="-3.826810531318188">
        <ele>874.456298828125</ele>
        <time>2011-04-21T10:12:33Z</time>
      </trkpt>
      <trkpt lat="31.420846218243241" lon="-3.826918741688132">
        <ele>873.4951171875</ele>
        <time>2011-04-21T10:12:41Z</time>
      </trkpt>
      <trkpt lat="31.420718478038907" lon="-3.827060144394636">
        <ele>870.611083984375</ele>
        <time>2011-04-21T10:13:09Z</time>
      </trkpt>
      <trkpt lat="31.42057154327631" lon="-3.827174557372928">
        <ele>870.13037109375</ele>
        <time>2011-04-21T10:13:13Z</time>
      </trkpt>
      <trkpt lat="31.420425195246935" lon="-3.827248234301806">
        <ele>870.13037109375</ele>
        <time>2011-04-21T10:13:17Z</time>
      </trkpt>
      <trkpt lat="31.420250935479999" lon="-3.827309338375926">
        <ele>870.611083984375</ele>
        <time>2011-04-21T10:13:21Z</time>
      </trkpt>
      <trkpt lat="31.42010441981256" lon="-3.827322917059064">
        <ele>871.091796875</ele>
        <time>2011-04-21T10:13:25Z</time>
      </trkpt>
      <trkpt lat="31.41979462467134" lon="-3.82759197615087">
        <ele>871.091796875</ele>
        <time>2011-04-21T10:13:35Z</time>
      </trkpt>
      <trkpt lat="31.419597147032619" lon="-3.827727092429996">
        <ele>870.611083984375</ele>
        <time>2011-04-21T10:13:40Z</time>
      </trkpt>
      <trkpt lat="31.419502180069685" lon="-3.82801073603332">
        <ele>871.572265625</ele>
        <time>2011-04-21T10:13:46Z</time>
      </trkpt>
      <trkpt lat="31.41934996470809" lon="-3.828226989135146">
        <ele>872.052978515625</ele>
        <time>2011-04-21T10:13:51Z</time>
      </trkpt>
      <trkpt lat="31.419297661632299" lon="-3.828385071828961">
        <ele>872.53369140625</ele>
        <time>2011-04-21T10:13:54Z</time>
      </trkpt>
      <trkpt lat="31.419273773208261" lon="-3.828665697947145">
        <ele>873.4951171875</ele>
        <time>2011-04-21T10:13:59Z</time>
      </trkpt>
      <trkpt lat="31.41928156837821" lon="-3.828883124515414">
        <ele>873.9755859375</ele>
        <time>2011-04-21T10:14:04Z</time>
      </trkpt>
      <trkpt lat="31.419412242248654" lon="-3.829014133661985">
        <ele>875.41748046875</ele>
        <time>2011-04-21T10:14:26Z</time>
      </trkpt>
      <trkpt lat="31.419611983001232" lon="-3.829024527221918">
        <ele>874.456298828125</ele>
        <time>2011-04-21T10:14:34Z</time>
      </trkpt>
      <trkpt lat="31.419594045728445" lon="-3.829216221347451">
        <ele>872.53369140625</ele>
        <time>2011-04-21T10:14:39Z</time>
      </trkpt>
      <trkpt lat="31.41948533244431" lon="-3.829430546611548">
        <ele>871.091796875</ele>
        <time>2011-04-21T10:14:44Z</time>
      </trkpt>
      <trkpt lat="31.419336972758174" lon="-3.829816449433565">
        <ele>867.24658203125</ele>
        <time>2011-04-21T10:14:53Z</time>
      </trkpt>
      <trkpt lat="31.41911149956286" lon="-3.830000096932054">
        <ele>866.28515625</ele>
        <time>2011-04-21T10:14:59Z</time>
      </trkpt>
      <trkpt lat="31.418860293924809" lon="-3.830049047246575">
        <ele>867.24658203125</ele>
        <time>2011-04-21T10:15:05Z</time>
      </trkpt>
      <trkpt lat="31.418563155457377" lon="-3.830079725012183">
        <ele>864.84326171875</ele>
        <time>2011-04-21T10:15:14Z</time>
      </trkpt>
      <trkpt lat="31.418297532945871" lon="-3.830131525173783">
        <ele>861.478759765625</ele>
        <time>2011-04-21T10:15:23Z</time>
      </trkpt>
      <trkpt lat="31.418091841042042" lon="-3.830113839358091">
        <ele>858.114013671875</ele>
        <time>2011-04-21T10:15:31Z</time>
      </trkpt>
      <trkpt lat="31.417941469699144" lon="-3.830133620649576">
        <ele>859.555908203125</ele>
        <time>2011-04-21T10:15:38Z</time>
      </trkpt>
      <trkpt lat="31.417735358700156" lon="-3.830124568194151">
        <ele>858.594482421875</ele>
        <time>2011-04-21T10:15:44Z</time>
      </trkpt>
      <trkpt lat="31.417634356766939" lon="-3.830079222097993">
        <ele>856.191162109375</ele>
        <time>2011-04-21T10:15:47Z</time>
      </trkpt>
      <trkpt lat="31.41750929877162" lon="-3.830017950385809">
        <ele>854.268798828125</ele>
        <time>2011-04-21T10:15:58Z</time>
      </trkpt>
      <trkpt lat="31.417404022067785" lon="-3.83004535920918">
        <ele>854.749267578125</ele>
        <time>2011-04-21T10:16:06Z</time>
      </trkpt>
      <trkpt lat="31.417199587449431" lon="-3.83020369336009">
        <ele>854.749267578125</ele>
        <time>2011-04-21T10:16:18Z</time>
      </trkpt>
      <trkpt lat="31.416974533349276" lon="-3.830354232341051">
        <ele>852.82666015625</ele>
        <time>2011-04-21T10:16:29Z</time>
      </trkpt>
      <trkpt lat="31.416882332414389" lon="-3.830336295068264">
        <ele>853.7880859375</ele>
        <time>2011-04-21T10:16:36Z</time>
      </trkpt>
      <trkpt lat="31.416677897796035" lon="-3.83026571944356">
        <ele>897.04736328125</ele>
        <time>2011-04-21T10:49:49Z</time>
      </trkpt>
      <trkpt lat="31.416608327999711" lon="-3.830169076099992">
        <ele>930.693603515625</ele>
        <time>2011-04-21T10:50:27Z</time>
      </trkpt>
      <trkpt lat="31.41656432300806" lon="-3.829933628439903">
        <ele>925.40625</ele>
        <time>2011-04-21T10:52:34Z</time>
      </trkpt>
      <trkpt lat="31.416463740170002" lon="-3.82983036339283">
        <ele>916.273681640625</ele>
        <time>2011-04-21T10:52:59Z</time>
      </trkpt>
      <trkpt lat="31.416223263368011" lon="-3.829690217971802">
        <ele>915.793212890625</ele>
        <time>2011-04-21T10:53:05Z</time>
      </trkpt>
      <trkpt lat="31.415834426879883" lon="-3.829553090035915">
        <ele>918.677001953125</ele>
        <time>2011-04-21T10:53:14Z</time>
      </trkpt>
      <trkpt lat="31.415536282584071" lon="-3.829375980421901">
        <ele>919.15771484375</ele>
        <time>2011-04-21T10:53:25Z</time>
      </trkpt>
      <trkpt lat="31.41524794511497" lon="-3.829017067328095">
        <ele>919.15771484375</ele>
        <time>2011-04-21T10:53:33Z</time>
      </trkpt>
      <trkpt lat="31.415080223232508" lon="-3.828702829778194">
        <ele>920.118896484375</ele>
        <time>2011-04-21T10:53:41Z</time>
      </trkpt>
      <trkpt lat="31.414919625967741" lon="-3.828423880040646">
        <ele>921.560791015625</ele>
        <time>2011-04-21T10:53:50Z</time>
      </trkpt>
      <trkpt lat="31.414570854976773" lon="-3.82826529443264">
        <ele>921.560791015625</ele>
        <time>2011-04-21T10:53:58Z</time>
      </trkpt>
      <trkpt lat="31.413913797587156" lon="-3.828350035473704">
        <ele>917.235107421875</ele>
        <time>2011-04-21T10:54:07Z</time>
      </trkpt>
      <trkpt lat="31.413515321910381" lon="-3.828221959993243">
        <ele>914.35107421875</ele>
        <time>2011-04-21T10:54:12Z</time>
      </trkpt>
      <trkpt lat="31.412986926734447" lon="-3.827880816534162">
        <ele>910.505859375</ele>
        <time>2011-04-21T10:54:19Z</time>
      </trkpt>
      <trkpt lat="31.412714933976531" lon="-3.827291149646044">
        <ele>905.218505859375</ele>
        <time>2011-04-21T10:54:26Z</time>
      </trkpt>
      <trkpt lat="31.412845524027944" lon="-3.826829139143229">
        <ele>903.776611328125</ele>
        <time>2011-04-21T10:54:31Z</time>
      </trkpt>
      <trkpt lat="31.413053730502725" lon="-3.826695028692484">
        <ele>903.2958984375</ele>
        <time>2011-04-21T10:54:34Z</time>
      </trkpt>
      <trkpt lat="31.413339050486684" lon="-3.826579693704844">
        <ele>903.776611328125</ele>
        <time>2011-04-21T10:54:38Z</time>
      </trkpt>
      <trkpt lat="31.413598973304033" lon="-3.826209381222725">
        <ele>909.06396484375</ele>
        <time>2011-04-21T10:54:45Z</time>
      </trkpt>
      <trkpt lat="31.413788488134742" lon="-3.826058087870479">
        <ele>912.428466796875</ele>
        <time>2011-04-21T10:54:50Z</time>
      </trkpt>
      <trkpt lat="31.413912875577807" lon="-3.826038977131248">
        <ele>912.9091796875</ele>
        <time>2011-04-21T10:54:52Z</time>
      </trkpt>
      <trkpt lat="31.414173720404506" lon="-3.825912829488516">
        <ele>913.389892578125</ele>
        <time>2011-04-21T10:54:56Z</time>
      </trkpt>
      <trkpt lat="31.414995733648539" lon="-3.825306985527277">
        <ele>913.870361328125</ele>
        <time>2011-04-21T10:55:09Z</time>
      </trkpt>
      <trkpt lat="31.415651366114616" lon="-3.824917562305927">
        <ele>914.35107421875</ele>
        <time>2011-04-21T10:55:19Z</time>
      </trkpt>
      <trkpt lat="31.415854459628463" lon="-3.824824774637818">
        <ele>914.831787109375</ele>
        <time>2011-04-21T10:55:22Z</time>
      </trkpt>
      <trkpt lat="31.416101641952991" lon="-3.824644396081567">
        <ele>914.831787109375</ele>
        <time>2011-04-21T10:55:26Z</time>
      </trkpt>
      <trkpt lat="31.416330635547638" lon="-3.824354549869895">
        <ele>913.389892578125</ele>
        <time>2011-04-21T10:55:30Z</time>
      </trkpt>
      <trkpt lat="31.416648896411061" lon="-3.823412759229541">
        <ele>914.35107421875</ele>
        <time>2011-04-21T10:55:40Z</time>
      </trkpt>
      <trkpt lat="31.416866658255458" lon="-3.822236694395542">
        <ele>910.505859375</ele>
        <time>2011-04-21T10:55:50Z</time>
      </trkpt>
      <trkpt lat="31.417127922177315" lon="-3.820805735886097">
        <ele>907.14111328125</ele>
        <time>2011-04-21T10:56:02Z</time>
      </trkpt>
      <trkpt lat="31.417259182780981" lon="-3.819911470636725">
        <ele>904.73779296875</ele>
        <time>2011-04-21T10:56:09Z</time>
      </trkpt>
      <trkpt lat="31.417036475613713" lon="-3.819008069112897">
        <ele>902.33447265625</ele>
        <time>2011-04-21T10:56:16Z</time>
      </trkpt>
      <trkpt lat="31.416613943874836" lon="-3.817784730345011">
        <ele>898.4892578125</ele>
        <time>2011-04-21T10:56:26Z</time>
      </trkpt>
      <trkpt lat="31.416427195072174" lon="-3.81745875813067">
        <ele>897.528076171875</ele>
        <time>2011-04-21T10:56:29Z</time>
      </trkpt>
      <trkpt lat="31.41629409044981" lon="-3.816990880295634">
        <ele>894.64404296875</ele>
        <time>2011-04-21T10:56:34Z</time>
      </trkpt>
      <trkpt lat="31.416132152080536" lon="-3.816698184236884">
        <ele>893.2021484375</ele>
        <time>2011-04-21T10:56:38Z</time>
      </trkpt>
      <trkpt lat="31.415808526799083" lon="-3.816023860126734">
        <ele>891.760009765625</ele>
        <time>2011-04-21T10:56:47Z</time>
      </trkpt>
      <trkpt lat="31.415697131305933" lon="-3.815637538209558">
        <ele>893.2021484375</ele>
        <time>2011-04-21T10:56:51Z</time>
      </trkpt>
      <trkpt lat="31.415425390005112" lon="-3.815143592655659">
        <ele>892.7216796875</ele>
        <time>2011-04-21T10:56:57Z</time>
      </trkpt>
      <trkpt lat="31.415336541831493" lon="-3.814603881910443">
        <ele>892.240966796875</ele>
        <time>2011-04-21T10:57:02Z</time>
      </trkpt>
      <trkpt lat="31.415343498811126" lon="-3.814396178349853">
        <ele>891.760009765625</ele>
        <time>2011-04-21T10:57:04Z</time>
      </trkpt>
      <trkpt lat="31.415267139673233" lon="-3.814066182821989">
        <ele>891.279296875</ele>
        <time>2011-04-21T10:57:08Z</time>
      </trkpt>
      <trkpt lat="31.415030853822827" lon="-3.813378866761923">
        <ele>891.279296875</ele>
        <time>2011-04-21T10:57:16Z</time>
      </trkpt>
      <trkpt lat="31.414656350389123" lon="-3.812365662306547">
        <ele>891.279296875</ele>
        <time>2011-04-21T10:57:26Z</time>
      </trkpt>
      <trkpt lat="31.41429902985692" lon="-3.81153903901577">
        <ele>891.760009765625</ele>
        <time>2011-04-21T10:57:34Z</time>
      </trkpt>
      <trkpt lat="31.413592351600528" lon="-3.810746446251869">
        <ele>889.356689453125</ele>
        <time>2011-04-21T10:57:43Z</time>
      </trkpt>
      <trkpt lat="31.413511717692018" lon="-3.81067369133234">
        <ele>889.356689453125</ele>
        <time>2011-04-21T10:57:44Z</time>
      </trkpt>
      <trkpt lat="31.413167389109731" lon="-3.8104806561023">
        <ele>887.914794921875</ele>
        <time>2011-04-21T10:57:48Z</time>
      </trkpt>
      <trkpt lat="31.412349734455347" lon="-3.81019676104188">
        <ele>884.55029296875</ele>
        <time>2011-04-21T10:57:57Z</time>
      </trkpt>
      <trkpt lat="31.411774065345526" lon="-3.80986257456243">
        <ele>884.55029296875</ele>
        <time>2011-04-21T10:58:05Z</time>
      </trkpt>
      <trkpt lat="31.411097394302487" lon="-3.809486730024219">
        <ele>887.43408203125</ele>
        <time>2011-04-21T10:58:14Z</time>
      </trkpt>
      <trkpt lat="31.41030689701438" lon="-3.809235943481326">
        <ele>891.279296875</ele>
        <time>2011-04-21T10:58:22Z</time>
      </trkpt>
      <trkpt lat="31.409421684220433" lon="-3.809022875502706">
        <ele>893.2021484375</ele>
        <time>2011-04-21T10:58:30Z</time>
      </trkpt>
      <trkpt lat="31.408194657415152" lon="-3.808879042044282">
        <ele>897.528076171875</ele>
        <time>2011-04-21T10:58:40Z</time>
      </trkpt>
      <trkpt lat="31.407124539837241" lon="-3.808650551363826">
        <ele>898.4892578125</ele>
        <time>2011-04-21T10:58:50Z</time>
      </trkpt>
      <trkpt lat="31.406751461327076" lon="-3.808495067059994">
        <ele>896.56689453125</ele>
        <time>2011-04-21T10:58:55Z</time>
      </trkpt>
      <trkpt lat="31.40603824518621" lon="-3.808263726532459">
        <ele>892.240966796875</ele>
        <time>2011-04-21T10:59:03Z</time>
      </trkpt>
      <trkpt lat="31.405475484207273" lon="-3.808134142309427">
        <ele>890.318115234375</ele>
        <time>2011-04-21T10:59:09Z</time>
      </trkpt>
      <trkpt lat="31.405220171436667" lon="-3.808040181174874">
        <ele>891.760009765625</ele>
        <time>2011-04-21T10:59:12Z</time>
      </trkpt>
      <trkpt lat="31.404896462336183" lon="-3.807997265830636">
        <ele>894.64404296875</ele>
        <time>2011-04-21T10:59:16Z</time>
      </trkpt>
      <trkpt lat="31.404723292216659" lon="-3.808011598885059">
        <ele>898.0087890625</ele>
        <time>2011-04-21T10:59:18Z</time>
      </trkpt>
      <trkpt lat="31.404491532593966" lon="-3.807983938604593">
        <ele>902.33447265625</ele>
        <time>2011-04-21T10:59:21Z</time>
      </trkpt>
      <trkpt lat="31.40425331890583" lon="-3.808057950809598">
        <ele>905.69921875</ele>
        <time>2011-04-21T10:59:25Z</time>
      </trkpt>
      <trkpt lat="31.403679996728897" lon="-3.808449972420931">
        <ele>909.06396484375</ele>
        <time>2011-04-21T10:59:34Z</time>
      </trkpt>
      <trkpt lat="31.403396856039762" lon="-3.808700842782855">
        <ele>910.986572265625</ele>
        <time>2011-04-21T10:59:38Z</time>
      </trkpt>
      <trkpt lat="31.402934677898884" lon="-3.808979457244277">
        <ele>915.3125</ele>
        <time>2011-04-21T10:59:45Z</time>
      </trkpt>
      <trkpt lat="31.402744576334953" lon="-3.8093426451087">
        <ele>914.831787109375</ele>
        <time>2011-04-21T10:59:52Z</time>
      </trkpt>
      <trkpt lat="31.402582386508584" lon="-3.809683620929718">
        <ele>914.35107421875</ele>
        <time>2011-04-21T10:59:57Z</time>
      </trkpt>
      <trkpt lat="31.402375688776374" lon="-3.809758052229881">
        <ele>915.3125</ele>
        <time>2011-04-21T11:00:00Z</time>
      </trkpt>
      <trkpt lat="31.4017319586128" lon="-3.809899790212512">
        <ele>916.273681640625</ele>
        <time>2011-04-21T11:00:10Z</time>
      </trkpt>
      <trkpt lat="31.401205323636532" lon="-3.810220146551728">
        <ele>917.715576171875</ele>
        <time>2011-04-21T11:00:20Z</time>
      </trkpt>
      <trkpt lat="31.401041960343719" lon="-3.810312766581774">
        <ele>919.15771484375</ele>
        <time>2011-04-21T11:00:25Z</time>
      </trkpt>
      <trkpt lat="31.400863761082292" lon="-3.81032139994204">
        <ele>919.15771484375</ele>
        <time>2011-04-21T11:00:29Z</time>
      </trkpt>
      <trkpt lat="31.400623368099332" lon="-3.810225930064917">
        <ele>917.715576171875</ele>
        <time>2011-04-21T11:00:34Z</time>
      </trkpt>
      <trkpt lat="31.400515995919704" lon="-3.810150995850563">
        <ele>917.235107421875</ele>
        <time>2011-04-21T11:00:37Z</time>
      </trkpt>
      <trkpt lat="31.400188766419888" lon="-3.810001881793141">
        <ele>915.3125</ele>
        <time>2011-04-21T11:00:44Z</time>
      </trkpt>
      <trkpt lat="31.400008387863636" lon="-3.80963584408164">
        <ele>911.947998046875</ele>
        <time>2011-04-21T11:00:51Z</time>
      </trkpt>
      <trkpt lat="31.399648636579514" lon="-3.809494189918041">
        <ele>910.025146484375</ele>
        <time>2011-04-21T11:00:59Z</time>
      </trkpt>
      <trkpt lat="31.399425091221929" lon="-3.809314733371139">
        <ele>909.06396484375</ele>
        <time>2011-04-21T11:01:04Z</time>
      </trkpt>
      <trkpt lat="31.39925024472177" lon="-3.809116668999195">
        <ele>908.102783203125</ele>
        <time>2011-04-21T11:01:09Z</time>
      </trkpt>
      <trkpt lat="31.398963667452335" lon="-3.80892095156014">
        <ele>906.660400390625</ele>
        <time>2011-04-21T11:01:15Z</time>
      </trkpt>
      <trkpt lat="31.398764932528138" lon="-3.808565558865666">
        <ele>904.25732421875</ele>
        <time>2011-04-21T11:01:21Z</time>
      </trkpt>
      <trkpt lat="31.398685555905104" lon="-3.80801796913147">
        <ele>901.373291015625</ele>
        <time>2011-04-21T11:01:28Z</time>
      </trkpt>
      <trkpt lat="31.398720843717456" lon="-3.807778330519795">
        <ele>901.373291015625</ele>
        <time>2011-04-21T11:01:32Z</time>
      </trkpt>
      <trkpt lat="31.398969450965524" lon="-3.807490579783917">
        <ele>900.412109375</ele>
        <time>2011-04-21T11:01:41Z</time>
      </trkpt>
      <trkpt lat="31.39906307682395" lon="-3.807392930611968">
        <ele>900.892578125</ele>
        <time>2011-04-21T11:01:44Z</time>
      </trkpt>
      <trkpt lat="31.399135161191225" lon="-3.807105179876089">
        <ele>901.373291015625</ele>
        <time>2011-04-21T11:01:50Z</time>
      </trkpt>
      <trkpt lat="31.399130886420608" lon="-3.80695765838027">
        <ele>901.373291015625</ele>
        <time>2011-04-21T11:01:53Z</time>
      </trkpt>
      <trkpt lat="31.399152427911758" lon="-3.80650419741869">
        <ele>901.373291015625</ele>
        <time>2011-04-21T11:02:02Z</time>
      </trkpt>
      <trkpt lat="31.398843387141824" lon="-3.805986363440752">
        <ele>901.85400390625</ele>
        <time>2011-04-21T11:02:13Z</time>
      </trkpt>
      <trkpt lat="31.398540465161204" lon="-3.80563004873693">
        <ele>900.412109375</ele>
        <time>2011-04-21T11:02:22Z</time>
      </trkpt>
      <trkpt lat="31.3983921892941" lon="-3.805498369038105">
        <ele>899.931396484375</ele>
        <time>2011-04-21T11:02:26Z</time>
      </trkpt>
      <trkpt lat="31.398259755223989" lon="-3.805437935516238">
        <ele>899.45068359375</ele>
        <time>2011-04-21T11:02:29Z</time>
      </trkpt>
      <trkpt lat="31.398429907858372" lon="-3.805583277717233">
        <ele>898.969970703125</ele>
        <time>2011-04-21T11:02:33Z</time>
      </trkpt>
      <trkpt lat="31.398239135742188" lon="-3.805947303771973">
        <ele>901.373291015625</ele>
        <time>2011-04-21T11:02:40Z</time>
      </trkpt>
      <trkpt lat="31.398184318095446" lon="-3.806056939065456">
        <ele>903.776611328125</ele>
        <time>2011-04-21T11:02:43Z</time>
      </trkpt>
      <trkpt lat="31.398131847381592" lon="-3.806397914886475">
        <ele>910.986572265625</ele>
        <time>2011-04-21T11:02:55Z</time>
      </trkpt>
      <trkpt lat="31.398052051663399" lon="-3.806658759713173">
        <ele>914.35107421875</ele>
        <time>2011-04-21T11:03:03Z</time>
      </trkpt>
      <trkpt lat="31.398006873205304" lon="-3.807179443538189">
        <ele>915.793212890625</ele>
        <time>2011-04-21T11:03:16Z</time>
      </trkpt>
      <trkpt lat="31.398003101348877" lon="-3.807542128488421">
        <ele>918.677001953125</ele>
        <time>2011-04-21T11:03:27Z</time>
      </trkpt>
      <trkpt lat="31.397998826578259" lon="-3.807707251980901">
        <ele>920.599609375</ele>
        <time>2011-04-21T11:04:05Z</time>
      </trkpt>
      <trkpt lat="31.397987008094788" lon="-3.808187870308757">
        <ele>921.560791015625</ele>
        <time>2011-04-21T11:04:15Z</time>
      </trkpt>
      <trkpt lat="31.397883659228683" lon="-3.808354334905744">
        <ele>922.522216796875</ele>
        <time>2011-04-21T11:04:18Z</time>
      </trkpt>
      <trkpt lat="31.397682158276439" lon="-3.808505460619927">
        <ele>923.964111328125</ele>
        <time>2011-04-21T11:04:22Z</time>
      </trkpt>
      <trkpt lat="31.397274881601334" lon="-3.808744177222252">
        <ele>928.290283203125</ele>
        <time>2011-04-21T11:04:29Z</time>
      </trkpt>
      <trkpt lat="31.396980090066791" lon="-3.808904103934765">
        <ele>930.212890625</ele>
        <time>2011-04-21T11:04:34Z</time>
      </trkpt>
      <trkpt lat="31.396453874185681" lon="-3.80906755104661">
        <ele>934.538818359375</ele>
        <time>2011-04-21T11:04:43Z</time>
      </trkpt>
      <trkpt lat="31.395833529531956" lon="-3.809270309284329">
        <ele>937.422607421875</ele>
        <time>2011-04-21T11:04:53Z</time>
      </trkpt>
      <trkpt lat="31.395645439624786" lon="-3.809410538524389">
        <ele>938.384033203125</ele>
        <time>2011-04-21T11:05:00Z</time>
      </trkpt>
      <trkpt lat="31.395556926727295" lon="-3.809552192687988">
        <ele>938.86474609375</ele>
        <time>2011-04-21T11:05:04Z</time>
      </trkpt>
      <trkpt lat="31.395264901220798" lon="-3.809692421928048">
        <ele>938.86474609375</ele>
        <time>2011-04-21T11:05:07Z</time>
      </trkpt>
      <trkpt lat="31.39492685906589" lon="-3.809745311737061">
        <ele>938.86474609375</ele>
        <time>2011-04-21T11:05:12Z</time>
      </trkpt>
      <trkpt lat="31.394462417811155" lon="-3.809664426371455">
        <ele>940.306884765625</ele>
        <time>2011-04-21T11:05:18Z</time>
      </trkpt>
      <trkpt lat="31.394216241315007" lon="-3.809683537110686">
        <ele>938.384033203125</ele>
        <time>2011-04-21T11:05:22Z</time>
      </trkpt>
      <trkpt lat="31.394001916050911" lon="-3.809701390564442">
        <ele>936.94189453125</ele>
        <time>2011-04-21T11:05:26Z</time>
      </trkpt>
      <trkpt lat="31.393754482269287" lon="-3.809831142425537">
        <ele>937.422607421875</ele>
        <time>2011-04-21T11:05:37Z</time>
      </trkpt>
      <trkpt lat="31.39367401599884" lon="-3.809891492128372">
        <ele>938.86474609375</ele>
        <time>2011-04-21T11:05:40Z</time>
      </trkpt>
      <trkpt lat="31.393171269446611" lon="-3.810167340561748">
        <ele>942.2294921875</ele>
        <time>2011-04-21T11:05:50Z</time>
      </trkpt>
      <trkpt lat="31.392666595056653" lon="-3.810218218713999">
        <ele>945.593994140625</ele>
        <time>2011-04-21T11:05:58Z</time>
      </trkpt>
      <trkpt lat="31.392346238717437" lon="-3.810067847371101">
        <ele>946.07470703125</ele>
        <time>2011-04-21T11:06:05Z</time>
      </trkpt>
      <trkpt lat="31.391855143010616" lon="-3.80980490706861">
        <ele>946.555419921875</ele>
        <time>2011-04-21T11:06:12Z</time>
      </trkpt>
      <trkpt lat="31.391526823863387" lon="-3.809785712510347">
        <ele>947.035888671875</ele>
        <time>2011-04-21T11:06:17Z</time>
      </trkpt>
      <trkpt lat="31.391199929639697" lon="-3.809723183512688">
        <ele>947.5166015625</ele>
        <time>2011-04-21T11:06:23Z</time>
      </trkpt>
      <trkpt lat="31.390876304358244" lon="-3.809675825759769">
        <ele>949.439208984375</ele>
        <time>2011-04-21T11:06:28Z</time>
      </trkpt>
      <trkpt lat="31.390750408172607" lon="-3.80974967032671">
        <ele>948.477783203125</ele>
        <time>2011-04-21T11:06:31Z</time>
      </trkpt>
      <trkpt lat="31.390702212229371" lon="-3.809846984222531">
        <ele>950.881103515625</ele>
        <time>2011-04-21T11:06:37Z</time>
      </trkpt>
      <trkpt lat="31.390664577484131" lon="-3.809983944520354">
        <ele>951.36181640625</ele>
        <time>2011-04-21T11:06:43Z</time>
      </trkpt>
      <trkpt lat="31.390120591968298" lon="-3.810591045767069">
        <ele>950.400634765625</ele>
        <time>2011-04-21T11:06:51Z</time>
      </trkpt>
      <trkpt lat="31.389944823458791" lon="-3.810697244480252">
        <ele>951.842529296875</ele>
        <time>2011-04-21T11:06:54Z</time>
      </trkpt>
      <trkpt lat="31.389763355255127" lon="-3.811054229736328">
        <ele>953.284423828125</ele>
        <time>2011-04-21T11:07:02Z</time>
      </trkpt>
      <trkpt lat="31.389747764915228" lon="-3.811163697391748">
        <ele>952.8037109375</ele>
        <time>2011-04-21T11:07:04Z</time>
      </trkpt>
      <trkpt lat="31.389681631699204" lon="-3.811355223879218">
        <ele>952.322998046875</ele>
        <time>2011-04-21T11:07:06Z</time>
      </trkpt>
      <trkpt lat="31.389313247054815" lon="-3.811700390651822">
        <ele>952.322998046875</ele>
        <time>2011-04-21T11:07:11Z</time>
      </trkpt>
      <trkpt lat="31.388961290940642" lon="-3.812336074188352">
        <ele>956.16845703125</ele>
        <time>2011-04-21T11:07:20Z</time>
      </trkpt>
      <trkpt lat="31.388851320371032" lon="-3.812488960102201">
        <ele>956.649169921875</ele>
        <time>2011-04-21T11:07:22Z</time>
      </trkpt>
      <trkpt lat="31.388487964868546" lon="-3.812769250944257">
        <ele>958.09130859375</ele>
        <time>2011-04-21T11:07:27Z</time>
      </trkpt>
      <trkpt lat="31.388391992077231" lon="-3.812908977270126">
        <ele>959.052490234375</ele>
        <time>2011-04-21T11:07:29Z</time>
      </trkpt>
      <trkpt lat="31.388181019574404" lon="-3.81321064196527">
        <ele>960.97509765625</ele>
        <time>2011-04-21T11:07:33Z</time>
      </trkpt>
      <trkpt lat="31.387881534174085" lon="-3.813034538179636">
        <ele>961.9365234375</ele>
        <time>2011-04-21T11:07:35Z</time>
      </trkpt>
      <trkpt lat="31.387767791748047" lon="-3.813114166259766">
        <ele>962.897705078125</ele>
        <time>2011-04-21T11:07:41Z</time>
      </trkpt>
      <trkpt lat="31.387433018535376" lon="-3.812740920111537">
        <ele>960.494384765625</ele>
        <time>2011-04-21T11:07:47Z</time>
      </trkpt>
      <trkpt lat="31.387015348300338" lon="-3.812320902943611">
        <ele>957.610595703125</ele>
        <time>2011-04-21T11:07:52Z</time>
      </trkpt>
      <trkpt lat="31.386685436591506" lon="-3.812163574621081">
        <ele>956.16845703125</ele>
        <time>2011-04-21T11:07:56Z</time>
      </trkpt>
      <trkpt lat="31.385469641536474" lon="-3.811546163633466">
        <ele>951.36181640625</ele>
        <time>2011-04-21T11:08:08Z</time>
      </trkpt>
      <trkpt lat="31.384191317483783" lon="-3.810950126498938">
        <ele>948.477783203125</ele>
        <time>2011-04-21T11:08:19Z</time>
      </trkpt>
      <trkpt lat="31.383786890655756" lon="-3.810603283345699">
        <ele>948.477783203125</ele>
        <time>2011-04-21T11:08:23Z</time>
      </trkpt>
      <trkpt lat="31.383177610114217" lon="-3.81027203053236">
        <ele>947.5166015625</ele>
        <time>2011-04-21T11:08:29Z</time>
      </trkpt>
      <trkpt lat="31.382092908024788" lon="-3.809929378330708">
        <ele>947.5166015625</ele>
        <time>2011-04-21T11:08:38Z</time>
      </trkpt>
      <trkpt lat="31.380922794342041" lon="-3.809530735015869">
        <ele>947.5166015625</ele>
        <time>2011-04-21T11:08:48Z</time>
      </trkpt>
      <trkpt lat="31.380421221256256" lon="-3.809647494927049">
        <ele>947.997314453125</ele>
        <time>2011-04-21T11:08:54Z</time>
      </trkpt>
      <trkpt lat="31.37979693710804" lon="-3.809926947578788">
        <ele>955.687744140625</ele>
        <time>2011-04-21T11:09:01Z</time>
      </trkpt>
      <trkpt lat="31.379212131723762" lon="-3.810485685244203">
        <ele>961.9365234375</ele>
        <time>2011-04-21T11:09:09Z</time>
      </trkpt>
      <trkpt lat="31.37849816121161" lon="-3.810983151197434">
        <ele>966.742919921875</ele>
        <time>2011-04-21T11:09:17Z</time>
      </trkpt>
      <trkpt lat="31.377928862348199" lon="-3.811322618275881">
        <ele>970.588134765625</ele>
        <time>2011-04-21T11:09:23Z</time>
      </trkpt>
      <trkpt lat="31.37746567837894" lon="-3.811365701258183">
        <ele>973.952880859375</ele>
        <time>2011-04-21T11:09:28Z</time>
      </trkpt>
      <trkpt lat="31.376877017319202" lon="-3.811109215021133">
        <ele>971.54931640625</ele>
        <time>2011-04-21T11:09:34Z</time>
      </trkpt>
      <trkpt lat="31.375575307756662" lon="-3.810591381043196">
        <ele>967.2236328125</ele>
        <time>2011-04-21T11:09:45Z</time>
      </trkpt>
      <trkpt lat="31.374066146090627" lon="-3.810030547901988">
        <ele>965.301025390625</ele>
        <time>2011-04-21T11:09:57Z</time>
      </trkpt>
      <trkpt lat="31.373131647706032" lon="-3.809781689196825">
        <ele>964.339599609375</ele>
        <time>2011-04-21T11:10:05Z</time>
      </trkpt>
      <trkpt lat="31.372910114005208" lon="-3.809758722782135">
        <ele>963.85888671875</ele>
        <time>2011-04-21T11:10:07Z</time>
      </trkpt>
      <trkpt lat="31.372319608926773" lon="-3.809462506324053">
        <ele>961.9365234375</ele>
        <time>2011-04-21T11:10:14Z</time>
      </trkpt>
      <trkpt lat="31.372160017490387" lon="-3.809286737814546">
        <ele>961.455810546875</ele>
        <time>2011-04-21T11:10:16Z</time>
      </trkpt>
      <trkpt lat="31.371817365288734" lon="-3.80890435539186">
        <ele>960.494384765625</ele>
        <time>2011-04-21T11:10:20Z</time>
      </trkpt>
      <trkpt lat="31.371454261243343" lon="-3.808559607714415">
        <ele>960.013671875</ele>
        <time>2011-04-21T11:10:24Z</time>
      </trkpt>
      <trkpt lat="31.370674492791295" lon="-3.808028362691402">
        <ele>960.013671875</ele>
        <time>2011-04-21T11:10:32Z</time>
      </trkpt>
      <trkpt lat="31.370501825585961" lon="-3.808011095970869">
        <ele>960.013671875</ele>
        <time>2011-04-21T11:10:34Z</time>
      </trkpt>
      <trkpt lat="31.369956750422716" lon="-3.808114780113101">
        <ele>963.85888671875</ele>
        <time>2011-04-21T11:10:40Z</time>
      </trkpt>
      <trkpt lat="31.369862454012036" lon="-3.808139087632299">
        <ele>964.8203125</ele>
        <time>2011-04-21T11:10:41Z</time>
      </trkpt>
      <trkpt lat="31.368686305359006" lon="-3.808391718193889">
        <ele>970.107421875</ele>
        <time>2011-04-21T11:10:50Z</time>
      </trkpt>
      <trkpt lat="31.366832563653588" lon="-3.808667566627264">
        <ele>978.27880859375</ele>
        <time>2011-04-21T11:11:03Z</time>
      </trkpt>
      <trkpt lat="31.365409987047315" lon="-3.808650970458984">
        <ele>983.56591796875</ele>
        <time>2011-04-21T11:11:13Z</time>
      </trkpt>
      <trkpt lat="31.364022614434361" lon="-3.808803269639611">
        <ele>982.1240234375</ele>
        <time>2011-04-21T11:11:23Z</time>
      </trkpt>
      <trkpt lat="31.363227171823382" lon="-3.809180958196521">
        <ele>983.085205078125</ele>
        <time>2011-04-21T11:11:29Z</time>
      </trkpt>
      <trkpt lat="31.362812854349613" lon="-3.809294700622559">
        <ele>984.046630859375</ele>
        <time>2011-04-21T11:11:32Z</time>
      </trkpt>
      <trkpt lat="31.361896544694901" lon="-3.80925178527832">
        <ele>986.449951171875</ele>
        <time>2011-04-21T11:11:39Z</time>
      </trkpt>
      <trkpt lat="31.360956598073244" lon="-3.809404168277979">
        <ele>982.1240234375</ele>
        <time>2011-04-21T11:11:47Z</time>
      </trkpt>
      <trkpt lat="31.360079767182469" lon="-3.809668868780136">
        <ele>985.008056640625</ele>
        <time>2011-04-21T11:11:55Z</time>
      </trkpt>
      <trkpt lat="31.359063293784857" lon="-3.810093244537711">
        <ele>990.29541015625</ele>
        <time>2011-04-21T11:12:05Z</time>
      </trkpt>
      <trkpt lat="31.357947830110788" lon="-3.810278568416834">
        <ele>993.659912109375</ele>
        <time>2011-04-21T11:12:16Z</time>
      </trkpt>
      <trkpt lat="31.357249869033694" lon="-3.810448385775089">
        <ele>996.5439453125</ele>
        <time>2011-04-21T11:12:23Z</time>
      </trkpt>
      <trkpt lat="31.356191150844097" lon="-3.810530276969075">
        <ele>993.659912109375</ele>
        <time>2011-04-21T11:12:33Z</time>
      </trkpt>
      <trkpt lat="31.35517300106585" lon="-3.810866810381413">
        <ele>992.218017578125</ele>
        <time>2011-04-21T11:12:42Z</time>
      </trkpt>
      <trkpt lat="31.353790489956737" lon="-3.811430828645825">
        <ele>996.063232421875</ele>
        <time>2011-04-21T11:12:53Z</time>
      </trkpt>
      <trkpt lat="31.352727245539427" lon="-3.811829052865505">
        <ele>997.98583984375</ele>
        <time>2011-04-21T11:13:02Z</time>
      </trkpt>
      <trkpt lat="31.352291470393538" lon="-3.812576802447438">
        <ele>994.140625</ele>
        <time>2011-04-21T11:13:10Z</time>
      </trkpt>
      <trkpt lat="31.352248890325427" lon="-3.812704375013709">
        <ele>993.659912109375</ele>
        <time>2011-04-21T11:13:11Z</time>
      </trkpt>
      <trkpt lat="31.352186696603894" lon="-3.81388689391315">
        <ele>978.27880859375</ele>
        <time>2011-04-21T11:13:20Z</time>
      </trkpt>
      <trkpt lat="31.352183846756816" lon="-3.814730951562524">
        <ele>972.510986328125</ele>
        <time>2011-04-21T11:13:27Z</time>
      </trkpt>
      <trkpt lat="31.352227684110403" lon="-3.815072178840637">
        <ele>971.54931640625</ele>
        <time>2011-04-21T11:13:30Z</time>
      </trkpt>
      <trkpt lat="31.35221435688436" lon="-3.815633933991194">
        <ele>969.146240234375</ele>
        <time>2011-04-21T11:13:35Z</time>
      </trkpt>
      <trkpt lat="31.352076642215252" lon="-3.81590198725462">
        <ele>968.66552734375</ele>
        <time>2011-04-21T11:13:38Z</time>
      </trkpt>
      <trkpt lat="31.351813869550824" lon="-3.816878478974104">
        <ele>962.897705078125</ele>
        <time>2011-04-21T11:13:48Z</time>
      </trkpt>
      <trkpt lat="31.351732648909092" lon="-3.816934302449226">
        <ele>962.897705078125</ele>
        <time>2011-04-21T11:13:49Z</time>
      </trkpt>
      <trkpt lat="31.351458560675383" lon="-3.816971853375435">
        <ele>962.4169921875</ele>
        <time>2011-04-21T11:13:53Z</time>
      </trkpt>
      <trkpt lat="31.350840060040355" lon="-3.817495638504624">
        <ele>957.1298828125</ele>
        <time>2011-04-21T11:14:00Z</time>
      </trkpt>
      <trkpt lat="31.350777531042695" lon="-3.817828986793757">
        <ele>954.726318359375</ele>
        <time>2011-04-21T11:14:04Z</time>
      </trkpt>
      <trkpt lat="31.350774765014648" lon="-3.817959409207106">
        <ele>954.726318359375</ele>
        <time>2011-04-21T11:14:07Z</time>
      </trkpt>
      <trkpt lat="31.350774765014648" lon="-3.81834464147687">
        <ele>953.284423828125</ele>
        <time>2011-04-21T11:14:12Z</time>
      </trkpt>
      <trkpt lat="31.350774765014648" lon="-3.818452265113592">
        <ele>952.8037109375</ele>
        <time>2011-04-21T11:14:13Z</time>
      </trkpt>
      <trkpt lat="31.350774765014648" lon="-3.819114184007049">
        <ele>949.919921875</ele>
        <time>2011-04-21T11:14:19Z</time>
      </trkpt>
      <trkpt lat="31.3507030159235" lon="-3.81979051977396">
        <ele>945.11328125</ele>
        <time>2011-04-21T11:14:26Z</time>
      </trkpt>
      <trkpt lat="31.350693209096789" lon="-3.820547740906477">
        <ele>942.710205078125</ele>
        <time>2011-04-21T11:14:34Z</time>
      </trkpt>
      <trkpt lat="31.350695807486773" lon="-3.820862816646695">
        <ele>941.748779296875</ele>
        <time>2011-04-21T11:14:37Z</time>
      </trkpt>
      <trkpt lat="31.350619113072753" lon="-3.821300938725472">
        <ele>940.787353515625</ele>
        <time>2011-04-21T11:14:41Z</time>
      </trkpt>
      <trkpt lat="31.350246118381619" lon="-3.8219781126827">
        <ele>937.9033203125</ele>
        <time>2011-04-21T11:14:48Z</time>
      </trkpt>
      <trkpt lat="31.350073032081127" lon="-3.822120856493712">
        <ele>937.9033203125</ele>
        <time>2011-04-21T11:14:50Z</time>
      </trkpt>
      <trkpt lat="31.349945710971951" lon="-3.822307856753469">
        <ele>937.9033203125</ele>
        <time>2011-04-21T11:14:52Z</time>
      </trkpt>
      <trkpt lat="31.349604735150933" lon="-3.822897523641586">
        <ele>938.384033203125</ele>
        <time>2011-04-21T11:14:58Z</time>
      </trkpt>
      <trkpt lat="31.34926987811923" lon="-3.823158955201507">
        <ele>938.86474609375</ele>
        <time>2011-04-21T11:15:02Z</time>
      </trkpt>
      <trkpt lat="31.348759001120925" lon="-3.823227435350418">
        <ele>939.825927734375</ele>
        <time>2011-04-21T11:15:07Z</time>
      </trkpt>
      <trkpt lat="31.348392963409424" lon="-3.823392391204834">
        <ele>935.5</ele>
        <time>2011-04-21T11:15:12Z</time>
      </trkpt>
      <trkpt lat="31.348179979249835" lon="-3.823586013168097">
        <ele>933.577392578125</ele>
        <time>2011-04-21T11:15:17Z</time>
      </trkpt>
      <trkpt lat="31.347683686763048" lon="-3.824300151318312">
        <ele>933.0966796875</ele>
        <time>2011-04-21T11:15:26Z</time>
      </trkpt>
      <trkpt lat="31.347322510555387" lon="-3.825328778475523">
        <ele>931.65478515625</ele>
        <time>2011-04-21T11:15:34Z</time>
      </trkpt>
      <trkpt lat="31.347110532224178" lon="-3.825698336586356">
        <ele>929.732177734375</ele>
        <time>2011-04-21T11:15:37Z</time>
      </trkpt>
      <trkpt lat="31.34677735157311" lon="-3.825987428426743">
        <ele>928.290283203125</ele>
        <time>2011-04-21T11:15:42Z</time>
      </trkpt>
      <trkpt lat="31.346629830077291" lon="-3.826535269618034">
        <ele>929.25146484375</ele>
        <time>2011-04-21T11:15:49Z</time>
      </trkpt>
      <trkpt lat="31.346392706036568" lon="-3.826867528259754">
        <ele>930.212890625</ele>
        <time>2011-04-21T11:15:53Z</time>
      </trkpt>
      <trkpt lat="31.346051814034581" lon="-3.827321408316493">
        <ele>930.693603515625</ele>
        <time>2011-04-21T11:15:58Z</time>
      </trkpt>
      <trkpt lat="31.345802787691355" lon="-3.827687948942184">
        <ele>930.212890625</ele>
        <time>2011-04-21T11:16:02Z</time>
      </trkpt>
      <trkpt lat="31.345569435507059" lon="-3.827953906729817">
        <ele>930.693603515625</ele>
        <time>2011-04-21T11:16:08Z</time>
      </trkpt>
      <trkpt lat="31.344873150810599" lon="-3.82738427259028">
        <ele>926.36767578125</ele>
        <time>2011-04-21T11:16:14Z</time>
      </trkpt>
      <trkpt lat="31.344712050631642" lon="-3.827144633978605">
        <ele>925.886962890625</ele>
        <time>2011-04-21T11:16:17Z</time>
      </trkpt>
      <trkpt lat="31.34444416500628" lon="-3.826884627342224">
        <ele>924.445068359375</ele>
        <time>2011-04-21T11:16:21Z</time>
      </trkpt>
      <trkpt lat="31.343890791758895" lon="-3.826472740620375">
        <ele>920.599609375</ele>
        <time>2011-04-21T11:16:29Z</time>
      </trkpt>
      <trkpt lat="31.343559790402651" lon="-3.826392693445087">
        <ele>922.04150390625</ele>
        <time>2011-04-21T11:16:33Z</time>
      </trkpt>
      <trkpt lat="31.343181850388646" lon="-3.826006455346942">
        <ele>919.638427734375</ele>
        <time>2011-04-21T11:16:40Z</time>
      </trkpt>
      <trkpt lat="31.342874737456441" lon="-3.825765391811729">
        <ele>916.273681640625</ele>
        <time>2011-04-21T11:16:45Z</time>
      </trkpt>
      <trkpt lat="31.342763928696513" lon="-3.825736474245787">
        <ele>915.793212890625</ele>
        <time>2011-04-21T11:16:47Z</time>
      </trkpt>
      <trkpt lat="31.342455977573991" lon="-3.825410334393382">
        <ele>913.870361328125</ele>
        <time>2011-04-21T11:16:53Z</time>
      </trkpt>
      <trkpt lat="31.342088431119919" lon="-3.825022336095572">
        <ele>912.9091796875</ele>
        <time>2011-04-21T11:17:00Z</time>
      </trkpt>
      <trkpt lat="31.341805122792721" lon="-3.824625955894589">
        <ele>912.9091796875</ele>
        <time>2011-04-21T11:17:07Z</time>
      </trkpt>
      <trkpt lat="31.341575458645821" lon="-3.824500059708953">
        <ele>911.947998046875</ele>
        <time>2011-04-21T11:17:11Z</time>
      </trkpt>
      <trkpt lat="31.340992748737335" lon="-3.824326051399112">
        <ele>910.986572265625</ele>
        <time>2011-04-21T11:17:20Z</time>
      </trkpt>
      <trkpt lat="31.340524284169078" lon="-3.824397465214133">
        <ele>912.9091796875</ele>
        <time>2011-04-21T11:17:27Z</time>
      </trkpt>
      <trkpt lat="31.339627336710691" lon="-3.824397549033165">
        <ele>918.1962890625</ele>
        <time>2011-04-21T11:17:37Z</time>
      </trkpt>
      <trkpt lat="31.338573480024934" lon="-3.824388664215803">
        <ele>916.273681640625</ele>
        <time>2011-04-21T11:17:47Z</time>
      </trkpt>
      <trkpt lat="31.337940227240324" lon="-3.824364524334669">
        <ele>914.35107421875</ele>
        <time>2011-04-21T11:17:53Z</time>
      </trkpt>
      <trkpt lat="31.337625989690423" lon="-3.824213398620486">
        <ele>912.428466796875</ele>
        <time>2011-04-21T11:17:57Z</time>
      </trkpt>
      <trkpt lat="31.33703364059329" lon="-3.823736635968089">
        <ele>911.46728515625</ele>
        <time>2011-04-21T11:18:05Z</time>
      </trkpt>
      <trkpt lat="31.336607839912176" lon="-3.823618954047561">
        <ele>910.986572265625</ele>
        <time>2011-04-21T11:18:10Z</time>
      </trkpt>
      <trkpt lat="31.336430059745908" lon="-3.823619540780783">
        <ele>910.025146484375</ele>
        <time>2011-04-21T11:18:12Z</time>
      </trkpt>
      <trkpt lat="31.336092855781317" lon="-3.823461290448904">
        <ele>909.06396484375</ele>
        <time>2011-04-21T11:18:16Z</time>
      </trkpt>
      <trkpt lat="31.335943657904863" lon="-3.823320642113686">
        <ele>908.102783203125</ele>
        <time>2011-04-21T11:18:18Z</time>
      </trkpt>
      <trkpt lat="31.335364216938615" lon="-3.82309952750802">
        <ele>907.14111328125</ele>
        <time>2011-04-21T11:18:25Z</time>
      </trkpt>
      <trkpt lat="31.335077052935958" lon="-3.823250317946076">
        <ele>909.06396484375</ele>
        <time>2011-04-21T11:18:31Z</time>
      </trkpt>
      <trkpt lat="31.334769017994404" lon="-3.823359282687306">
        <ele>908.583251953125</ele>
        <time>2011-04-21T11:18:37Z</time>
      </trkpt>
      <trkpt lat="31.33449275046587" lon="-3.823256772011519">
        <ele>907.14111328125</ele>
        <time>2011-04-21T11:18:41Z</time>
      </trkpt>
      <trkpt lat="31.334251519292593" lon="-3.823043536394835">
        <ele>906.660400390625</ele>
        <time>2011-04-21T11:18:45Z</time>
      </trkpt>
      <trkpt lat="31.333856480196118" lon="-3.822539448738098">
        <ele>906.1796875</ele>
        <time>2011-04-21T11:18:52Z</time>
      </trkpt>
      <trkpt lat="31.333715999498963" lon="-3.822210459038615">
        <ele>906.1796875</ele>
        <time>2011-04-21T11:18:56Z</time>
      </trkpt>
      <trkpt lat="31.333730332553387" lon="-3.82202597334981">
        <ele>906.660400390625</ele>
        <time>2011-04-21T11:18:58Z</time>
      </trkpt>
      <trkpt lat="31.333566550165415" lon="-3.821600675582886">
        <ele>907.14111328125</ele>
        <time>2011-04-21T11:19:03Z</time>
      </trkpt>
      <trkpt lat="31.333465296775103" lon="-3.821428343653679">
        <ele>907.621826171875</ele>
        <time>2011-04-21T11:19:05Z</time>
      </trkpt>
      <trkpt lat="31.333345854654908" lon="-3.82125542499125">
        <ele>907.621826171875</ele>
        <time>2011-04-21T11:19:07Z</time>
      </trkpt>
      <trkpt lat="31.333049554377794" lon="-3.820955352857709">
        <ele>908.102783203125</ele>
        <time>2011-04-21T11:19:11Z</time>
      </trkpt>
      <trkpt lat="31.332859117537737" lon="-3.820839179679751">
        <ele>908.102783203125</ele>
        <time>2011-04-21T11:19:13Z</time>
      </trkpt>
      <trkpt lat="31.332593243569136" lon="-3.820635247975588">
        <ele>909.06396484375</ele>
        <time>2011-04-21T11:19:16Z</time>
      </trkpt>
      <trkpt lat="31.332198455929756" lon="-3.820505663752556">
        <ele>910.505859375</ele>
        <time>2011-04-21T11:19:20Z</time>
      </trkpt>
      <trkpt lat="31.331985723227262" lon="-3.820504071190953">
        <ele>910.986572265625</ele>
        <time>2011-04-21T11:19:22Z</time>
      </trkpt>
      <trkpt lat="31.331696128472686" lon="-3.820460317656398">
        <ele>911.947998046875</ele>
        <time>2011-04-21T11:19:25Z</time>
      </trkpt>
      <trkpt lat="31.331309052184224" lon="-3.820491163060069">
        <ele>913.389892578125</ele>
        <time>2011-04-21T11:19:29Z</time>
      </trkpt>
      <trkpt lat="31.330484440550208" lon="-3.820557547733188">
        <ele>915.3125</ele>
        <time>2011-04-21T11:19:37Z</time>
      </trkpt>
      <trkpt lat="31.329715820029378" lon="-3.820681935176253">
        <ele>927.8095703125</ele>
        <time>2011-04-21T11:19:45Z</time>
      </trkpt>
      <trkpt lat="31.329033616930246" lon="-3.820860218256712">
        <ele>932.135498046875</ele>
        <time>2011-04-21T11:19:52Z</time>
      </trkpt>
      <trkpt lat="31.328432131558657" lon="-3.821156183257699">
        <ele>939.34521484375</ele>
        <time>2011-04-21T11:20:00Z</time>
      </trkpt>
      <trkpt lat="31.327937180176377" lon="-3.821117458865047">
        <ele>934.538818359375</ele>
        <time>2011-04-21T11:20:08Z</time>
      </trkpt>
      <trkpt lat="31.327764680609107" lon="-3.821116285398603">
        <ele>933.577392578125</ele>
        <time>2011-04-21T11:20:10Z</time>
      </trkpt>
      <trkpt lat="31.326902937144041" lon="-3.821265064179897">
        <ele>943.190673828125</ele>
        <time>2011-04-21T11:20:19Z</time>
      </trkpt>
      <trkpt lat="31.325899120420218" lon="-3.821557089686394">
        <ele>951.842529296875</ele>
        <time>2011-04-21T11:20:28Z</time>
      </trkpt>
      <trkpt lat="31.324950875714421" lon="-3.821865040808916">
        <ele>957.610595703125</ele>
        <time>2011-04-21T11:20:37Z</time>
      </trkpt>
      <trkpt lat="31.324155181646347" lon="-3.822159077972174">
        <ele>964.339599609375</ele>
        <time>2011-04-21T11:20:45Z</time>
      </trkpt>
      <trkpt lat="31.323686968535185" lon="-3.822310538962483">
        <ele>967.7041015625</ele>
        <time>2011-04-21T11:20:50Z</time>
      </trkpt>
      <trkpt lat="31.32324306294322" lon="-3.822600049898028">
        <ele>968.184814453125</ele>
        <time>2011-04-21T11:20:55Z</time>
      </trkpt>
      <trkpt lat="31.322975931689143" lon="-3.822983521968126">
        <ele>968.66552734375</ele>
        <time>2011-04-21T11:21:00Z</time>
      </trkpt>
      <trkpt lat="31.322762863710523" lon="-3.823294322937727">
        <ele>969.146240234375</ele>
        <time>2011-04-21T11:21:04Z</time>
      </trkpt>
      <trkpt lat="31.322415266185999" lon="-3.823564136400819">
        <ele>966.742919921875</ele>
        <time>2011-04-21T11:21:09Z</time>
      </trkpt>
      <trkpt lat="31.32211091928184" lon="-3.823823472484946">
        <ele>964.8203125</ele>
        <time>2011-04-21T11:21:13Z</time>
      </trkpt>
      <trkpt lat="31.321805231273174" lon="-3.823978118598461">
        <ele>966.742919921875</ele>
        <time>2011-04-21T11:21:19Z</time>
      </trkpt>
      <trkpt lat="31.322151571512222" lon="-3.823963617905974">
        <ele>894.64404296875</ele>
        <time>2011-04-21T11:23:57Z</time>
      </trkpt>
      <trkpt lat="31.322087282314897" lon="-3.82386714220047">
        <ele>890.318115234375</ele>
        <time>2011-04-21T11:24:03Z</time>
      </trkpt>
      <trkpt lat="31.322254836559296" lon="-3.823811570182443">
        <ele>888.3955078125</ele>
        <time>2011-04-21T11:24:10Z</time>
      </trkpt>
      <trkpt lat="31.322372434660792" lon="-3.823843589052558">
        <ele>886.953369140625</ele>
        <time>2011-04-21T11:24:18Z</time>
      </trkpt>
      <trkpt lat="31.322584077715874" lon="-3.823699923232198">
        <ele>884.55029296875</ele>
        <time>2011-04-21T11:24:25Z</time>
      </trkpt>
      <trkpt lat="31.323079196736217" lon="-3.823344865813851">
        <ele>881.666259765625</ele>
        <time>2011-04-21T11:24:37Z</time>
      </trkpt>
      <trkpt lat="31.323446156457067" lon="-3.822828540578485">
        <ele>877.821044921875</ele>
        <time>2011-04-21T11:24:47Z</time>
      </trkpt>
      <trkpt lat="31.323498878628016" lon="-3.822711696848273">
        <ele>877.821044921875</ele>
        <time>2011-04-21T11:24:49Z</time>
      </trkpt>
      <trkpt lat="31.323657380416989" lon="-3.822529390454292">
        <ele>876.85986328125</ele>
        <time>2011-04-21T11:24:53Z</time>
      </trkpt>
      <trkpt lat="31.324336985126138" lon="-3.822154048830271">
        <ele>873.9755859375</ele>
        <time>2011-04-21T11:25:04Z</time>
      </trkpt>
      <trkpt lat="31.324552483856678" lon="-3.822106691077352">
        <ele>873.9755859375</ele>
        <time>2011-04-21T11:25:07Z</time>
      </trkpt>
      <trkpt lat="31.32526402361691" lon="-3.82184668444097">
        <ele>872.53369140625</ele>
        <time>2011-04-21T11:25:17Z</time>
      </trkpt>
      <trkpt lat="31.326141776517034" lon="-3.821571590378881">
        <ele>873.014404296875</ele>
        <time>2011-04-21T11:25:28Z</time>
      </trkpt>
      <trkpt lat="31.326988935470581" lon="-3.821311164647341">
        <ele>872.052978515625</ele>
        <time>2011-04-21T11:25:39Z</time>
      </trkpt>
      <trkpt lat="31.327838944271207" lon="-3.821155177429318">
        <ele>869.64990234375</ele>
        <time>2011-04-21T11:25:49Z</time>
      </trkpt>
      <trkpt lat="31.328101716935635" lon="-3.821107149124146">
        <ele>868.6884765625</ele>
        <time>2011-04-21T11:25:52Z</time>
      </trkpt>
      <trkpt lat="31.328718792647123" lon="-3.821148220449686">
        <ele>866.765869140625</ele>
        <time>2011-04-21T11:25:59Z</time>
      </trkpt>
      <trkpt lat="31.329038729891181" lon="-3.821061970666051">
        <ele>867.24658203125</ele>
        <time>2011-04-21T11:26:04Z</time>
      </trkpt>
      <trkpt lat="31.329711126163602" lon="-3.820760054513812">
        <ele>867.72705078125</ele>
        <time>2011-04-21T11:26:13Z</time>
      </trkpt>
      <trkpt lat="31.330569684505463" lon="-3.820597780868411">
        <ele>869.64990234375</ele>
        <time>2011-04-21T11:26:22Z</time>
      </trkpt>
      <trkpt lat="31.33139094337821" lon="-3.820581519976258">
        <ele>866.765869140625</ele>
        <time>2011-04-21T11:26:30Z</time>
      </trkpt>
      <trkpt lat="31.331765362992883" lon="-3.820511028170586">
        <ele>865.8046875</ele>
        <time>2011-04-21T11:26:34Z</time>
      </trkpt>
      <trkpt lat="31.332157971337438" lon="-3.820498874410987">
        <ele>864.362548828125</ele>
        <time>2011-04-21T11:26:38Z</time>
      </trkpt>
      <trkpt lat="31.332356538623571" lon="-3.820538185536861">
        <ele>864.362548828125</ele>
        <time>2011-04-21T11:26:40Z</time>
      </trkpt>
      <trkpt lat="31.332669435068965" lon="-3.820550255477428">
        <ele>863.8818359375</ele>
        <time>2011-04-21T11:26:43Z</time>
      </trkpt>
      <trkpt lat="31.333048045635223" lon="-3.820706829428673">
        <ele>863.4013671875</ele>
        <time>2011-04-21T11:26:47Z</time>
      </trkpt>
      <trkpt lat="31.333218449726701" lon="-3.820850076153874">
        <ele>863.8818359375</ele>
        <time>2011-04-21T11:26:49Z</time>
      </trkpt>
      <trkpt lat="31.333497567102313" lon="-3.821027772501111">
        <ele>864.362548828125</ele>
        <time>2011-04-21T11:26:52Z</time>
      </trkpt>
      <trkpt lat="31.333921356126666" lon="-3.82153881713748">
        <ele>864.362548828125</ele>
        <time>2011-04-21T11:26:58Z</time>
      </trkpt>
      <trkpt lat="31.334015652537346" lon="-3.821724392473698">
        <ele>864.362548828125</ele>
        <time>2011-04-21T11:27:00Z</time>
      </trkpt>
      <trkpt lat="31.334108775481582" lon="-3.82189747877419">
        <ele>864.362548828125</ele>
        <time>2011-04-21T11:27:02Z</time>
      </trkpt>
      <trkpt lat="31.334141129627824" lon="-3.822222948074341">
        <ele>864.84326171875</ele>
        <time>2011-04-21T11:27:06Z</time>
      </trkpt>
      <trkpt lat="31.334274485707283" lon="-3.8226084318012">
        <ele>864.362548828125</ele>
        <time>2011-04-21T11:27:11Z</time>
      </trkpt>
      <trkpt lat="31.334693161770701" lon="-3.823130875825882">
        <ele>862.920654296875</ele>
        <time>2011-04-21T11:27:18Z</time>
      </trkpt>
      <trkpt lat="31.3350092433393" lon="-3.823355594649911">
        <ele>860.998046875</ele>
        <time>2011-04-21T11:27:23Z</time>
      </trkpt>
      <trkpt lat="31.335136480629444" lon="-3.823398426175118">
        <ele>860.03662109375</ele>
        <time>2011-04-21T11:27:25Z</time>
      </trkpt>
      <trkpt lat="31.335460860282183" lon="-3.823338747024536">
        <ele>859.0751953125</ele>
        <time>2011-04-21T11:27:31Z</time>
      </trkpt>
      <trkpt lat="31.335539231076837" lon="-3.82327102124691">
        <ele>859.555908203125</ele>
        <time>2011-04-21T11:27:41Z</time>
      </trkpt>
      <trkpt lat="31.335768727585673" lon="-3.823117380961776">
        <ele>860.998046875</ele>
        <time>2011-04-21T11:28:38Z</time>
      </trkpt>
      <trkpt lat="31.336047425866127" lon="-3.823190722614527">
        <ele>860.03662109375</ele>
        <time>2011-04-21T11:28:42Z</time>
      </trkpt>
      <trkpt lat="31.336412793025374" lon="-3.823397839441896">
        <ele>860.517333984375</ele>
        <time>2011-04-21T11:28:47Z</time>
      </trkpt>
      <trkpt lat="31.336544640362263" lon="-3.823521137237549">
        <ele>860.517333984375</ele>
        <time>2011-04-21T11:28:49Z</time>
      </trkpt>
      <trkpt lat="31.33683867752552" lon="-3.823636723682284">
        <ele>860.517333984375</ele>
        <time>2011-04-21T11:28:53Z</time>
      </trkpt>
      <trkpt lat="31.337159536778927" lon="-3.823647620156407">
        <ele>860.998046875</ele>
        <time>2011-04-21T11:28:57Z</time>
      </trkpt>
      <trkpt lat="31.337493220344186" lon="-3.823793549090624">
        <ele>860.998046875</ele>
        <time>2011-04-21T11:29:02Z</time>
      </trkpt>
      <trkpt lat="31.337917177006602" lon="-3.824114156886935">
        <ele>860.998046875</ele>
        <time>2011-04-21T11:29:09Z</time>
      </trkpt>
      <trkpt lat="31.33804558776319" lon="-3.824236616492271">
        <ele>860.998046875</ele>
        <time>2011-04-21T11:29:11Z</time>
      </trkpt>
      <trkpt lat="31.338386982679367" lon="-3.824387239292264">
        <ele>860.517333984375</ele>
        <time>2011-04-21T11:29:16Z</time>
      </trkpt>
      <trkpt lat="31.338694263249636" lon="-3.824408361688256">
        <ele>860.03662109375</ele>
        <time>2011-04-21T11:29:20Z</time>
      </trkpt>
      <trkpt lat="31.338914874941111" lon="-3.824672643095255">
        <ele>860.03662109375</ele>
        <time>2011-04-21T11:29:25Z</time>
      </trkpt>
      <trkpt lat="31.338947983458638" lon="-3.824867270886898">
        <ele>859.555908203125</ele>
        <time>2011-04-21T11:29:27Z</time>
      </trkpt>
      <trkpt lat="31.339044962078333" lon="-3.825882989913225">
        <ele>859.555908203125</ele>
        <time>2011-04-21T11:29:36Z</time>
      </trkpt>
      <trkpt lat="31.339045548811555" lon="-3.827094677835703">
        <ele>861.95947265625</ele>
        <time>2011-04-21T11:29:45Z</time>
      </trkpt>
      <trkpt lat="31.33900573477149" lon="-3.828149372711778">
        <ele>861.95947265625</ele>
        <time>2011-04-21T11:29:53Z</time>
      </trkpt>
      <trkpt lat="31.338772885501385" lon="-3.829427780583501">
        <ele>859.555908203125</ele>
        <time>2011-04-21T11:30:03Z</time>
      </trkpt>
      <trkpt lat="31.338503994047642" lon="-3.830621363595128">
        <ele>858.114013671875</ele>
        <time>2011-04-21T11:30:13Z</time>
      </trkpt>
      <trkpt lat="31.338330740109086" lon="-3.831211868673563">
        <ele>856.671875</ele>
        <time>2011-04-21T11:30:20Z</time>
      </trkpt>
      <trkpt lat="31.338250860571861" lon="-3.831668933853507">
        <ele>857.63330078125</ele>
        <time>2011-04-21T11:30:29Z</time>
      </trkpt>
      <trkpt lat="31.338229570537806" lon="-3.83239421993494">
        <ele>858.594482421875</ele>
        <time>2011-04-21T11:30:38Z</time>
      </trkpt>
      <trkpt lat="31.338258236646652" lon="-3.833169126883149">
        <ele>857.152587890625</ele>
        <time>2011-04-21T11:30:46Z</time>
      </trkpt>
      <trkpt lat="31.338275587186217" lon="-3.833482442423701">
        <ele>857.152587890625</ele>
        <time>2011-04-21T11:30:49Z</time>
      </trkpt>
      <trkpt lat="31.338592590764165" lon="-3.834249638020992">
        <ele>854.268798828125</ele>
        <time>2011-04-21T11:30:58Z</time>
      </trkpt>
      <trkpt lat="31.339296670630574" lon="-3.835382033139467">
        <ele>854.268798828125</ele>
        <time>2011-04-21T11:31:08Z</time>
      </trkpt>
      <trkpt lat="31.339255766943097" lon="-3.835508264601231">
        <ele>854.268798828125</ele>
        <time>2011-04-21T11:31:10Z</time>
      </trkpt>
      <trkpt lat="31.33912006393075" lon="-3.835921660065651">
        <ele>854.268798828125</ele>
        <time>2011-04-21T11:31:15Z</time>
      </trkpt>
      <trkpt lat="31.339050242677331" lon="-3.83622701279819">
        <ele>854.268798828125</ele>
        <time>2011-04-21T11:31:18Z</time>
      </trkpt>
      <trkpt lat="31.339109754189849" lon="-3.836942492052913">
        <ele>853.7880859375</ele>
        <time>2011-04-21T11:31:25Z</time>
      </trkpt>
      <trkpt lat="31.339224083349109" lon="-3.837544899433851">
        <ele>854.268798828125</ele>
        <time>2011-04-21T11:31:31Z</time>
      </trkpt>
      <trkpt lat="31.33925199508667" lon="-3.837737096473575">
        <ele>853.7880859375</ele>
        <time>2011-04-21T11:31:33Z</time>
      </trkpt>
      <trkpt lat="31.339160464704037" lon="-3.838316285982728">
        <ele>852.82666015625</ele>
        <time>2011-04-21T11:31:39Z</time>
      </trkpt>
      <trkpt lat="31.33899400010705" lon="-3.839244330301881">
        <ele>850.904052734375</ele>
        <time>2011-04-21T11:31:50Z</time>
      </trkpt>
      <trkpt lat="31.338785039260983" lon="-3.840263402089477">
        <ele>849.94287109375</ele>
        <time>2011-04-21T11:32:00Z</time>
      </trkpt>
      <trkpt lat="31.338617904111743" lon="-3.841623952612281">
        <ele>848.020263671875</ele>
        <time>2011-04-21T11:32:12Z</time>
      </trkpt>
      <trkpt lat="31.33861580863595" lon="-3.842177242040634">
        <ele>848.020263671875</ele>
        <time>2011-04-21T11:32:17Z</time>
      </trkpt>
      <trkpt lat="31.338629722595215" lon="-3.843201929703355">
        <ele>854.749267578125</ele>
        <time>2011-04-21T11:32:27Z</time>
      </trkpt>
      <trkpt lat="31.338638942688704" lon="-3.84396149776876">
        <ele>859.555908203125</ele>
        <time>2011-04-21T11:32:34Z</time>
      </trkpt>
      <trkpt lat="31.338388323783875" lon="-3.844862636178732">
        <ele>860.03662109375</ele>
        <time>2011-04-21T11:32:43Z</time>
      </trkpt>
      <trkpt lat="31.3379932846874" lon="-3.845804007723928">
        <ele>859.0751953125</ele>
        <time>2011-04-21T11:32:53Z</time>
      </trkpt>
      <trkpt lat="31.337549798190594" lon="-3.846834395080805">
        <ele>851.865478515625</ele>
        <time>2011-04-21T11:33:04Z</time>
      </trkpt>
      <trkpt lat="31.337179569527507" lon="-3.847504276782274">
        <ele>846.578369140625</ele>
        <time>2011-04-21T11:33:13Z</time>
      </trkpt>
      <trkpt lat="31.337050991132855" lon="-3.847891185432673">
        <ele>842.252197265625</ele>
        <time>2011-04-21T11:33:19Z</time>
      </trkpt>
      <trkpt lat="31.337007572874427" lon="-3.848021440207958">
        <ele>840.81005859375</ele>
        <time>2011-04-21T11:33:21Z</time>
      </trkpt>
      <trkpt lat="31.336814621463418" lon="-3.848281698301435">
        <ele>838.406982421875</ele>
        <time>2011-04-21T11:33:25Z</time>
      </trkpt>
      <trkpt lat="31.336671290919185" lon="-3.848504237830639">
        <ele>837.445556640625</ele>
        <time>2011-04-21T11:33:28Z</time>
      </trkpt>
      <trkpt lat="31.336284214630723" lon="-3.84908233769238">
        <ele>837.445556640625</ele>
        <time>2011-04-21T11:33:35Z</time>
      </trkpt>
      <trkpt lat="31.336022615432739" lon="-3.849874343723059">
        <ele>834.561767578125</ele>
        <time>2011-04-21T11:33:43Z</time>
      </trkpt>
      <trkpt lat="31.335770571604371" lon="-3.850852260366082">
        <ele>831.197265625</ele>
        <time>2011-04-21T11:33:52Z</time>
      </trkpt>
      <trkpt lat="31.335711479187012" lon="-3.85202631354332">
        <ele>840.32958984375</ele>
        <time>2011-04-21T11:34:03Z</time>
      </trkpt>
      <trkpt lat="31.335732936859131" lon="-3.852660236880183">
        <ele>848.020263671875</ele>
        <time>2011-04-21T11:34:09Z</time>
      </trkpt>
      <trkpt lat="31.335689099505544" lon="-3.853101460263133">
        <ele>847.058837890625</ele>
        <time>2011-04-21T11:34:14Z</time>
      </trkpt>
      <trkpt lat="31.335308393463492" lon="-3.853848958387971">
        <ele>845.13623046875</ele>
        <time>2011-04-21T11:34:23Z</time>
      </trkpt>
      <trkpt lat="31.334850154817104" lon="-3.854486821219325">
        <ele>845.616943359375</ele>
        <time>2011-04-21T11:34:33Z</time>
      </trkpt>
      <trkpt lat="31.334729371592402" lon="-3.854705840349197">
        <ele>845.616943359375</ele>
        <time>2011-04-21T11:34:36Z</time>
      </trkpt>
      <trkpt lat="31.334696849808097" lon="-3.855116134509444">
        <ele>854.749267578125</ele>
        <time>2011-04-21T11:34:41Z</time>
      </trkpt>
      <trkpt lat="31.334479004144669" lon="-3.855470940470696">
        <ele>854.749267578125</ele>
        <time>2011-04-21T11:34:47Z</time>
      </trkpt>
      <trkpt lat="31.334342295303941" lon="-3.855540426447988">
        <ele>853.307373046875</ele>
        <time>2011-04-21T11:34:49Z</time>
      </trkpt>
      <trkpt lat="31.33390593342483" lon="-3.85601107031107">
        <ele>848.500732421875</ele>
        <time>2011-04-21T11:34:57Z</time>
      </trkpt>
      <trkpt lat="31.333658332005143" lon="-3.856399487704039">
        <ele>847.53955078125</ele>
        <time>2011-04-21T11:35:03Z</time>
      </trkpt>
      <trkpt lat="31.33337183855474" lon="-3.856794610619545">
        <ele>844.655517578125</ele>
        <time>2011-04-21T11:35:09Z</time>
      </trkpt>
      <trkpt lat="31.333187017589808" lon="-3.856973899528384">
        <ele>842.73291015625</ele>
        <time>2011-04-21T11:35:12Z</time>
      </trkpt>
      <trkpt lat="31.332909325137734" lon="-3.857278078794479">
        <ele>844.655517578125</ele>
        <time>2011-04-21T11:35:17Z</time>
      </trkpt>
      <trkpt lat="31.332755098119378" lon="-3.857500534504652">
        <ele>842.252197265625</ele>
        <time>2011-04-21T11:35:21Z</time>
      </trkpt>
      <trkpt lat="31.332276994362473" lon="-3.858437379822135">
        <ele>835.52294921875</ele>
        <time>2011-04-21T11:35:34Z</time>
      </trkpt>
      <trkpt lat="31.332177417352796" lon="-3.858787072822452">
        <ele>833.600341796875</ele>
        <time>2011-04-21T11:35:38Z</time>
      </trkpt>
      <trkpt lat="31.331986393779516" lon="-3.859359305351973">
        <ele>831.197265625</ele>
        <time>2011-04-21T11:35:44Z</time>
      </trkpt>
      <trkpt lat="31.331881452351809" lon="-3.85973833501339">
        <ele>829.755126953125</ele>
        <time>2011-04-21T11:35:48Z</time>
      </trkpt>
      <trkpt lat="31.331627313047647" lon="-3.860501507297158">
        <ele>827.832275390625</ele>
        <time>2011-04-21T11:35:56Z</time>
      </trkpt>
      <trkpt lat="31.33160300552845" lon="-3.860603850334883">
        <ele>827.351806640625</ele>
        <time>2011-04-21T11:35:57Z</time>
      </trkpt>
      <trkpt lat="31.331283822655678" lon="-3.861697688698769">
        <ele>824.4677734375</ele>
        <time>2011-04-21T11:36:08Z</time>
      </trkpt>
      <trkpt lat="31.330911079421639" lon="-3.862860007211566">
        <ele>821.103271484375</ele>
        <time>2011-04-21T11:36:19Z</time>
      </trkpt>
      <trkpt lat="31.330615198239684" lon="-3.863920904695988">
        <ele>818.21923828125</ele>
        <time>2011-04-21T11:36:29Z</time>
      </trkpt>
      <trkpt lat="31.330179674550891" lon="-3.86524859815836">
        <ele>816.296630859375</ele>
        <time>2011-04-21T11:36:41Z</time>
      </trkpt>
      <trkpt lat="31.329893851652741" lon="-3.866159040480852">
        <ele>817.258056640625</ele>
        <time>2011-04-21T11:36:51Z</time>
      </trkpt>
      <trkpt lat="31.329587660729885" lon="-3.866962445899844">
        <ele>816.296630859375</ele>
        <time>2011-04-21T11:36:59Z</time>
      </trkpt>
      <trkpt lat="31.329362606629729" lon="-3.867344912141562">
        <ele>815.816162109375</ele>
        <time>2011-04-21T11:37:03Z</time>
      </trkpt>
      <trkpt lat="31.329212067648768" lon="-3.867727126926184">
        <ele>814.854736328125</ele>
        <time>2011-04-21T11:37:07Z</time>
      </trkpt>
      <trkpt lat="31.32889062166214" lon="-3.868757765740156">
        <ele>812.93212890625</ele>
        <time>2011-04-21T11:37:18Z</time>
      </trkpt>
      <trkpt lat="31.328646037727594" lon="-3.869444662705064">
        <ele>814.854736328125</ele>
        <time>2011-04-21T11:37:25Z</time>
      </trkpt>
      <trkpt lat="31.328098783269525" lon="-3.87009241618216">
        <ele>816.296630859375</ele>
        <time>2011-04-21T11:37:33Z</time>
      </trkpt>
      <trkpt lat="31.327413562685251" lon="-3.870588792487979">
        <ele>825.90966796875</ele>
        <time>2011-04-21T11:37:41Z</time>
      </trkpt>
      <trkpt lat="31.327015422284603" lon="-3.870689375326037">
        <ele>828.313232421875</ele>
        <time>2011-04-21T11:37:45Z</time>
      </trkpt>
      <trkpt lat="31.326536564156413" lon="-3.8707085698843">
        <ele>830.716552734375</ele>
        <time>2011-04-21T11:37:50Z</time>
      </trkpt>
      <trkpt lat="31.326091149821877" lon="-3.87107452377677">
        <ele>830.716552734375</ele>
        <time>2011-04-21T11:37:57Z</time>
      </trkpt>
      <trkpt lat="31.32601018063724" lon="-3.871243083849549">
        <ele>829.755126953125</ele>
        <time>2011-04-21T11:37:59Z</time>
      </trkpt>
      <trkpt lat="31.325562335550785" lon="-3.871934590861201">
        <ele>824.948486328125</ele>
        <time>2011-04-21T11:38:08Z</time>
      </trkpt>
      <trkpt lat="31.324877282604575" lon="-3.87277889996767">
        <ele>821.583740234375</ele>
        <time>2011-04-21T11:38:19Z</time>
      </trkpt>
      <trkpt lat="31.324690701439977" lon="-3.873093808069825">
        <ele>820.62255859375</ele>
        <time>2011-04-21T11:38:23Z</time>
      </trkpt>
      <trkpt lat="31.324076475575566" lon="-3.873813645914197">
        <ele>819.1806640625</ele>
        <time>2011-04-21T11:38:33Z</time>
      </trkpt>
      <trkpt lat="31.323232417926192" lon="-3.874709755182266">
        <ele>817.738525390625</ele>
        <time>2011-04-21T11:38:44Z</time>
      </trkpt>
      <trkpt lat="31.322496486827731" lon="-3.875518525019288">
        <ele>817.738525390625</ele>
        <time>2011-04-21T11:38:53Z</time>
      </trkpt>
      <trkpt lat="31.32188955321908" lon="-3.876361157745123">
        <ele>817.258056640625</ele>
        <time>2011-04-21T11:39:02Z</time>
      </trkpt>
      <trkpt lat="31.321365432813764" lon="-3.877092143520713">
        <ele>815.33544921875</ele>
        <time>2011-04-21T11:39:11Z</time>
      </trkpt>
      <trkpt lat="31.321249091997743" lon="-3.877250980585814">
        <ele>814.3740234375</ele>
        <time>2011-04-21T11:39:13Z</time>
      </trkpt>
      <trkpt lat="31.321014482527971" lon="-3.877696646377444">
        <ele>813.412841796875</ele>
        <time>2011-04-21T11:39:18Z</time>
      </trkpt>
      <trkpt lat="31.320511568337679" lon="-3.878232501447201">
        <ele>811.489990234375</ele>
        <time>2011-04-21T11:39:26Z</time>
      </trkpt>
      <trkpt lat="31.319863311946392" lon="-3.878808505833149">
        <ele>808.12548828125</ele>
        <time>2011-04-21T11:39:34Z</time>
      </trkpt>
      <trkpt lat="31.319043394178152" lon="-3.879541084170342">
        <ele>805.241455078125</ele>
        <time>2011-04-21T11:39:44Z</time>
      </trkpt>
      <trkpt lat="31.318293130025268" lon="-3.880139216780663">
        <ele>804.7607421875</ele>
        <time>2011-04-21T11:39:52Z</time>
      </trkpt>
      <trkpt lat="31.31737656891346" lon="-3.880935162305832">
        <ele>802.357421875</ele>
        <time>2011-04-21T11:40:02Z</time>
      </trkpt>
      <trkpt lat="31.316661089658737" lon="-3.881730772554874">
        <ele>799.4736328125</ele>
        <time>2011-04-21T11:40:11Z</time>
      </trkpt>
      <trkpt lat="31.315777553245425" lon="-3.882679771631956">
        <ele>797.551025390625</ele>
        <time>2011-04-21T11:40:21Z</time>
      </trkpt>
      <trkpt lat="31.315313950181007" lon="-3.883040277287364">
        <ele>797.0703125</ele>
        <time>2011-04-21T11:40:26Z</time>
      </trkpt>
      <trkpt lat="31.31498814560473" lon="-3.883526846766472">
        <ele>796.109130859375</ele>
        <time>2011-04-21T11:40:31Z</time>
      </trkpt>
      <trkpt lat="31.314909607172012" lon="-3.883945858106017">
        <ele>796.109130859375</ele>
        <time>2011-04-21T11:40:35Z</time>
      </trkpt>
      <trkpt lat="31.314756888896227" lon="-3.884864849969745">
        <ele>795.1474609375</ele>
        <time>2011-04-21T11:40:43Z</time>
      </trkpt>
      <trkpt lat="31.31476828828454" lon="-3.885321244597435">
        <ele>795.1474609375</ele>
        <time>2011-04-21T11:40:47Z</time>
      </trkpt>
      <trkpt lat="31.314917905256152" lon="-3.885963633656502">
        <ele>795.628173828125</ele>
        <time>2011-04-21T11:40:53Z</time>
      </trkpt>
      <trkpt lat="31.314701903611422" lon="-3.887403309345245">
        <ele>793.70556640625</ele>
        <time>2011-04-21T11:41:05Z</time>
      </trkpt>
      <trkpt lat="31.314380960538983" lon="-3.888287348672748">
        <ele>792.263671875</ele>
        <time>2011-04-21T11:41:13Z</time>
      </trkpt>
      <trkpt lat="31.314304852858186" lon="-3.888806942850351">
        <ele>794.186279296875</ele>
        <time>2011-04-21T11:41:18Z</time>
      </trkpt>
      <trkpt lat="31.314382553100586" lon="-3.88966147787869">
        <ele>792.744384765625</ele>
        <time>2011-04-21T11:41:26Z</time>
      </trkpt>
      <trkpt lat="31.314347432926297" lon="-3.890695804730058">
        <ele>790.341064453125</ele>
        <time>2011-04-21T11:41:34Z</time>
      </trkpt>
      <trkpt lat="31.31432119756937" lon="-3.891813699156046">
        <ele>788.899169921875</ele>
        <time>2011-04-21T11:41:43Z</time>
      </trkpt>
      <trkpt lat="31.314273253083229" lon="-3.892541415989399">
        <ele>788.41845703125</ele>
        <time>2011-04-21T11:41:49Z</time>
      </trkpt>
      <trkpt lat="31.314203348010778" lon="-3.893328309059143">
        <ele>789.8603515625</ele>
        <time>2011-04-21T11:41:56Z</time>
      </trkpt>
      <trkpt lat="31.314210891723633" lon="-3.894723309203982">
        <ele>792.744384765625</ele>
        <time>2011-04-21T11:42:06Z</time>
      </trkpt>
      <trkpt lat="31.314210891723633" lon="-3.895702818408608">
        <ele>794.666748046875</ele>
        <time>2011-04-21T11:42:13Z</time>
      </trkpt>
      <trkpt lat="31.313952980563045" lon="-3.896782156080008">
        <ele>791.782958984375</ele>
        <time>2011-04-21T11:42:21Z</time>
      </trkpt>
      <trkpt lat="31.313331127166748" lon="-3.897914886474609">
        <ele>788.41845703125</ele>
        <time>2011-04-21T11:42:30Z</time>
      </trkpt>
      <trkpt lat="31.312956036999822" lon="-3.89985328540206">
        <ele>785.534423828125</ele>
        <time>2011-04-21T11:42:42Z</time>
      </trkpt>
      <trkpt lat="31.312601398676634" lon="-3.901401925832033">
        <ele>782.650634765625</ele>
        <time>2011-04-21T11:42:52Z</time>
      </trkpt>
      <trkpt lat="31.312248939648271" lon="-3.902444886043668">
        <ele>781.689208984375</ele>
        <time>2011-04-21T11:42:59Z</time>
      </trkpt>
      <trkpt lat="31.311422819271684" lon="-3.904242049902678">
        <ele>782.650634765625</ele>
        <time>2011-04-21T11:43:11Z</time>
      </trkpt>
      <trkpt lat="31.310756960883737" lon="-3.905595727264881">
        <ele>784.5732421875</ele>
        <time>2011-04-21T11:43:21Z</time>
      </trkpt>
      <trkpt lat="31.310119517147541" lon="-3.907005060464144">
        <ele>783.131103515625</ele>
        <time>2011-04-21T11:43:31Z</time>
      </trkpt>
      <trkpt lat="31.309672677889466" lon="-3.908520257100463">
        <ele>781.689208984375</ele>
        <time>2011-04-21T11:43:41Z</time>
      </trkpt>
      <trkpt lat="31.309240842238069" lon="-3.909784248098731">
        <ele>783.131103515625</ele>
        <time>2011-04-21T11:43:50Z</time>
      </trkpt>
      <trkpt lat="31.308541540056467" lon="-3.911097273230553">
        <ele>780.247314453125</ele>
        <time>2011-04-21T11:44:01Z</time>
      </trkpt>
      <trkpt lat="31.308269798755646" lon="-3.911527851596475">
        <ele>778.80517578125</ele>
        <time>2011-04-21T11:44:05Z</time>
      </trkpt>
      <trkpt lat="31.307942233979702" lon="-3.912566537037492">
        <ele>778.324462890625</ele>
        <time>2011-04-21T11:44:13Z</time>
      </trkpt>
      <trkpt lat="31.307455077767372" lon="-3.91406362876296">
        <ele>779.28564453125</ele>
        <time>2011-04-21T11:44:23Z</time>
      </trkpt>
      <trkpt lat="31.306442292407155" lon="-3.916087774559856">
        <ele>778.80517578125</ele>
        <time>2011-04-21T11:44:37Z</time>
      </trkpt>
      <trkpt lat="31.305521540343761" lon="-3.917722078040242">
        <ele>780.247314453125</ele>
        <time>2011-04-21T11:44:48Z</time>
      </trkpt>
      <trkpt lat="31.304812431335449" lon="-3.918721619993448">
        <ele>778.80517578125</ele>
        <time>2011-04-21T11:44:57Z</time>
      </trkpt>
      <trkpt lat="31.304655773565173" lon="-3.919973038136959">
        <ele>777.36328125</ele>
        <time>2011-04-21T11:45:08Z</time>
      </trkpt>
      <trkpt lat="31.304519400000572" lon="-3.920368747785687">
        <ele>776.882568359375</ele>
        <time>2011-04-21T11:45:15Z</time>
      </trkpt>
      <trkpt lat="31.304325107485056" lon="-3.920862190425396">
        <ele>776.882568359375</ele>
        <time>2011-04-21T11:45:22Z</time>
      </trkpt>
      <trkpt lat="31.303770644590259" lon="-3.921709600836039">
        <ele>775.4404296875</ele>
        <time>2011-04-21T11:45:34Z</time>
      </trkpt>
      <trkpt lat="31.303309137001634" lon="-3.922474281862378">
        <ele>773.99853515625</ele>
        <time>2011-04-21T11:45:45Z</time>
      </trkpt>
      <trkpt lat="31.30313060246408" lon="-3.922997899353504">
        <ele>773.51806640625</ele>
        <time>2011-04-21T11:45:53Z</time>
      </trkpt>
      <trkpt lat="31.302767666056752" lon="-3.922763960435987">
        <ele>776.40185546875</ele>
        <time>2011-04-21T11:46:06Z</time>
      </trkpt>
      <trkpt lat="31.303154239431024" lon="-3.922930927947164">
        <ele>778.324462890625</ele>
        <time>2011-04-21T11:46:07Z</time>
      </trkpt>
      <trkpt lat="31.302639087662101" lon="-3.922096844762564">
        <ele>795.1474609375</ele>
        <time>2011-04-21T11:46:17Z</time>
      </trkpt>
      <trkpt lat="31.302205827087164" lon="-3.920934442430735">
        <ele>817.738525390625</ele>
        <time>2011-04-21T11:46:30Z</time>
      </trkpt>
      <trkpt lat="31.301921429112554" lon="-3.919980749487877">
        <ele>825.428955078125</ele>
        <time>2011-04-21T11:46:40Z</time>
      </trkpt>
      <trkpt lat="31.301859486848116" lon="-3.919827863574028">
        <ele>826.390380859375</ele>
        <time>2011-04-21T11:46:42Z</time>
      </trkpt>
      <trkpt lat="31.301866862922907" lon="-3.919569784775376">
        <ele>825.90966796875</ele>
        <time>2011-04-21T11:46:46Z</time>
      </trkpt>
      <trkpt lat="31.302166180685163" lon="-3.918788675218821">
        <ele>820.62255859375</ele>
        <time>2011-04-21T11:46:55Z</time>
      </trkpt>
      <trkpt lat="31.302416631951928" lon="-3.918197499588132">
        <ele>817.738525390625</ele>
        <time>2011-04-21T11:47:02Z</time>
      </trkpt>
      <trkpt lat="31.302382349967957" lon="-3.917852668091655">
        <ele>818.21923828125</ele>
        <time>2011-04-21T11:47:08Z</time>
      </trkpt>
      <trkpt lat="31.301977671682835" lon="-3.917369870468974">
        <ele>821.583740234375</ele>
        <time>2011-04-21T11:47:16Z</time>
      </trkpt>
      <trkpt lat="31.30184599198401" lon="-3.917143642902374">
        <ele>822.545166015625</ele>
        <time>2011-04-21T11:47:19Z</time>
      </trkpt>
      <trkpt lat="31.301707774400711" lon="-3.916951948776841">
        <ele>823.506591796875</ele>
        <time>2011-04-21T11:47:22Z</time>
      </trkpt>
      <trkpt lat="31.301528066396713" lon="-3.916523130610585">
        <ele>824.948486328125</ele>
        <time>2011-04-21T11:47:27Z</time>
      </trkpt>
      <trkpt lat="31.301171416416764" lon="-3.915354693308473">
        <ele>827.351806640625</ele>
        <time>2011-04-21T11:47:37Z</time>
      </trkpt>
      <trkpt lat="31.300750141963363" lon="-3.91440711915493">
        <ele>828.313232421875</ele>
        <time>2011-04-21T11:47:46Z</time>
      </trkpt>
      <trkpt lat="31.30033272318542" lon="-3.913218146190047">
        <ele>829.2744140625</ele>
        <time>2011-04-21T11:47:56Z</time>
      </trkpt>
      <trkpt lat="31.299940617755055" lon="-3.911943593993783">
        <ele>830.23583984375</ele>
        <time>2011-04-21T11:48:06Z</time>
      </trkpt>
      <trkpt lat="31.299730818718672" lon="-3.911233060061932">
        <ele>831.677734375</ele>
        <time>2011-04-21T11:48:14Z</time>
      </trkpt>
      <trkpt lat="31.299677593633533" lon="-3.91102384775877">
        <ele>832.158447265625</ele>
        <time>2011-04-21T11:48:19Z</time>
      </trkpt>
      <trkpt lat="31.299554631114006" lon="-3.910702066496015">
        <ele>832.158447265625</ele>
        <time>2011-04-21T11:48:27Z</time>
      </trkpt>
      <trkpt lat="31.299336282536387" lon="-3.91018582507968">
        <ele>832.158447265625</ele>
        <time>2011-04-21T11:48:37Z</time>
      </trkpt>
      <trkpt lat="31.298969741910696" lon="-3.909602025523782">
        <ele>832.158447265625</ele>
        <time>2011-04-21T11:48:48Z</time>
      </trkpt>
      <trkpt lat="31.298648295924067" lon="-3.9091607183218">
        <ele>830.23583984375</ele>
        <time>2011-04-21T11:48:56Z</time>
      </trkpt>
      <trkpt lat="31.29837965592742" lon="-3.90875612385571">
        <ele>823.506591796875</ele>
        <time>2011-04-21T11:49:03Z</time>
      </trkpt>
      <trkpt lat="31.298198522999883" lon="-3.90831096097827">
        <ele>821.583740234375</ele>
        <time>2011-04-21T11:49:10Z</time>
      </trkpt>
      <trkpt lat="31.298023592680693" lon="-3.908075597137213">
        <ele>821.103271484375</ele>
        <time>2011-04-21T11:49:14Z</time>
      </trkpt>
      <trkpt lat="31.297358153387904" lon="-3.907505627721548">
        <ele>819.1806640625</ele>
        <time>2011-04-21T11:49:25Z</time>
      </trkpt>
      <trkpt lat="31.296610152348876" lon="-3.906845385208726">
        <ele>817.738525390625</ele>
        <time>2011-04-21T11:49:36Z</time>
      </trkpt>
      <trkpt lat="31.296319467946887" lon="-3.906469373032451">
        <ele>814.854736328125</ele>
        <time>2011-04-21T11:49:42Z</time>
      </trkpt>
      <trkpt lat="31.295934990048409" lon="-3.906299555674195">
        <ele>812.93212890625</ele>
        <time>2011-04-21T11:49:48Z</time>
      </trkpt>
      <trkpt lat="31.295046675950289" lon="-3.906349595636129">
        <ele>803.799560546875</ele>
        <time>2011-04-21T11:49:59Z</time>
      </trkpt>
      <trkpt lat="31.294273361563683" lon="-3.906100820749998">
        <ele>797.0703125</ele>
        <time>2011-04-21T11:50:09Z</time>
      </trkpt>
      <trkpt lat="31.294023832306266" lon="-3.906068885698915">
        <ele>798.03173828125</ele>
        <time>2011-04-21T11:50:12Z</time>
      </trkpt>
      <trkpt lat="31.293427795171738" lon="-3.906180029734969">
        <ele>793.70556640625</ele>
        <time>2011-04-21T11:50:19Z</time>
      </trkpt>
      <trkpt lat="31.292819939553738" lon="-3.905997220426798">
        <ele>791.30224609375</ele>
        <time>2011-04-21T11:50:26Z</time>
      </trkpt>
      <trkpt lat="31.291989544406533" lon="-3.905276460573077">
        <ele>789.379638671875</ele>
        <time>2011-04-21T11:50:36Z</time>
      </trkpt>
      <trkpt lat="31.291319243609905" lon="-3.904569363221526">
        <ele>795.1474609375</ele>
        <time>2011-04-21T11:50:44Z</time>
      </trkpt>
      <trkpt lat="31.290784059092402" lon="-3.903912389650941">
        <ele>796.109130859375</ele>
        <time>2011-04-21T11:50:51Z</time>
      </trkpt>
      <trkpt lat="31.29007201641798" lon="-3.903405871242285">
        <ele>796.58984375</ele>
        <time>2011-04-21T11:50:58Z</time>
      </trkpt>
      <trkpt lat="31.289144475013018" lon="-3.902961127460003">
        <ele>792.744384765625</ele>
        <time>2011-04-21T11:51:07Z</time>
      </trkpt>
      <trkpt lat="31.288157757371664" lon="-3.902413286268711">
        <ele>787.45703125</ele>
        <time>2011-04-21T11:51:17Z</time>
      </trkpt>
      <trkpt lat="31.287600276991725" lon="-3.902064263820648">
        <ele>784.5732421875</ele>
        <time>2011-04-21T11:51:23Z</time>
      </trkpt>
      <trkpt lat="31.287066685035825" lon="-3.901843233034015">
        <ele>777.84375</ele>
        <time>2011-04-21T11:51:29Z</time>
      </trkpt>
      <trkpt lat="31.286864764988422" lon="-3.901678863912821">
        <ele>775.4404296875</ele>
        <time>2011-04-21T11:51:33Z</time>
      </trkpt>
      <trkpt lat="31.286369143053889" lon="-3.901496473699808">
        <ele>768.71142578125</ele>
        <time>2011-04-21T11:51:40Z</time>
      </trkpt>
      <trkpt lat="31.285650730133057" lon="-3.90139689669013">
        <ele>760.5400390625</ele>
        <time>2011-04-21T11:51:49Z</time>
      </trkpt>
      <trkpt lat="31.285509243607521" lon="-3.901399662718177">
        <ele>759.09814453125</ele>
        <time>2011-04-21T11:51:51Z</time>
      </trkpt>
      <trkpt lat="31.285293577238917" lon="-3.90130402520299">
        <ele>756.69482421875</ele>
        <time>2011-04-21T11:51:55Z</time>
      </trkpt>
      <trkpt lat="31.285200454294682" lon="-3.9012102317065">
        <ele>756.69482421875</ele>
        <time>2011-04-21T11:51:57Z</time>
      </trkpt>
      <trkpt lat="31.284918654710054" lon="-3.901110570877791">
        <ele>755.733642578125</ele>
        <time>2011-04-21T11:52:01Z</time>
      </trkpt>
      <trkpt lat="31.284662671387196" lon="-3.901094393804669">
        <ele>754.291748046875</ele>
        <time>2011-04-21T11:52:04Z</time>
      </trkpt>
      <trkpt lat="31.284093540161848" lon="-3.900760961696506">
        <ele>752.368896484375</ele>
        <time>2011-04-21T11:52:11Z</time>
      </trkpt>
      <trkpt lat="31.283434554934502" lon="-3.900376651436091">
        <ele>749.9658203125</ele>
        <time>2011-04-21T11:52:20Z</time>
      </trkpt>
      <trkpt lat="31.283201621845365" lon="-3.900245893746615">
        <ele>749.00439453125</ele>
        <time>2011-04-21T11:52:23Z</time>
      </trkpt>
      <trkpt lat="31.28250265493989" lon="-3.900162493810058">
        <ele>746.60107421875</ele>
        <time>2011-04-21T11:52:31Z</time>
      </trkpt>
      <trkpt lat="31.281895637512207" lon="-3.899858566001058">
        <ele>743.717041015625</ele>
        <time>2011-04-21T11:52:39Z</time>
      </trkpt>
      <trkpt lat="31.281752893701196" lon="-3.899780195206404">
        <ele>743.236328125</ele>
        <time>2011-04-21T11:52:41Z</time>
      </trkpt>
      <trkpt lat="31.281587267294526" lon="-3.899654131382704">
        <ele>742.275146484375</ele>
        <time>2011-04-21T11:52:44Z</time>
      </trkpt>
      <trkpt lat="31.281180242076516" lon="-3.899482050910592">
        <ele>739.39111328125</ele>
        <time>2011-04-21T11:52:51Z</time>
      </trkpt>
      <trkpt lat="31.280954517424107" lon="-3.899301923811436">
        <ele>742.755859375</ele>
        <time>2011-04-21T11:52:55Z</time>
      </trkpt>
      <trkpt lat="31.280738348141313" lon="-3.898863131180406">
        <ele>743.717041015625</ele>
        <time>2011-04-21T11:53:00Z</time>
      </trkpt>
      <trkpt lat="31.280212718993425" lon="-3.89823641628027">
        <ele>749.485107421875</ele>
        <time>2011-04-21T11:53:08Z</time>
      </trkpt>
      <trkpt lat="31.27954107709229" lon="-3.897384479641914">
        <ele>757.65625</ele>
        <time>2011-04-21T11:53:18Z</time>
      </trkpt>
      <trkpt lat="31.27895325422287" lon="-3.896702444180846">
        <ele>766.30810546875</ele>
        <time>2011-04-21T11:53:27Z</time>
      </trkpt>
      <trkpt lat="31.278466768562794" lon="-3.896149741485715">
        <ele>772.075927734375</ele>
        <time>2011-04-21T11:53:35Z</time>
      </trkpt>
      <trkpt lat="31.278366521000862" lon="-3.896042788401246">
        <ele>773.037353515625</ele>
        <time>2011-04-21T11:53:41Z</time>
      </trkpt>
      <trkpt lat="31.278561316430569" lon="-3.896055780351162">
        <ele>768.230712890625</ele>
        <time>2011-04-21T11:54:06Z</time>
      </trkpt>
      <trkpt lat="31.279052160680294" lon="-3.895889734849334">
        <ele>768.230712890625</ele>
        <time>2011-04-21T11:54:13Z</time>
      </trkpt>
      <trkpt lat="31.279989089816809" lon="-3.895346755161881">
        <ele>771.11474609375</ele>
        <time>2011-04-21T11:54:25Z</time>
      </trkpt>
      <trkpt lat="31.280655451118946" lon="-3.894774774089456">
        <ele>771.11474609375</ele>
        <time>2011-04-21T11:54:34Z</time>
      </trkpt>
      <trkpt lat="31.28137243911624" lon="-3.893782943487167">
        <ele>767.75</ele>
        <time>2011-04-21T11:54:45Z</time>
      </trkpt>
      <trkpt lat="31.282060761004686" lon="-3.893094873055816">
        <ele>765.82763671875</ele>
        <time>2011-04-21T11:54:54Z</time>
      </trkpt>
      <trkpt lat="31.282838098704815" lon="-3.892280738800764">
        <ele>764.8662109375</ele>
        <time>2011-04-21T11:55:04Z</time>
      </trkpt>
      <trkpt lat="31.283734794706106" lon="-3.89147674664855">
        <ele>763.904541015625</ele>
        <time>2011-04-21T11:55:15Z</time>
      </trkpt>
      <trkpt lat="31.2843516189605" lon="-3.890943070873618">
        <ele>764.8662109375</ele>
        <time>2011-04-21T11:55:23Z</time>
      </trkpt>
      <trkpt lat="31.285056285560131" lon="-3.890186855569482">
        <ele>764.8662109375</ele>
        <time>2011-04-21T11:55:32Z</time>
      </trkpt>
      <trkpt lat="31.285687023773789" lon="-3.889774717390537">
        <ele>767.75</ele>
        <time>2011-04-21T11:55:39Z</time>
      </trkpt>
      <trkpt lat="31.286464696750045" lon="-3.889458552002907">
        <ele>774.479248046875</ele>
        <time>2011-04-21T11:55:48Z</time>
      </trkpt>
      <trkpt lat="31.286999965086579" lon="-3.889207178726792">
        <ele>778.324462890625</ele>
        <time>2011-04-21T11:55:54Z</time>
      </trkpt>
      <trkpt lat="31.287686191499233" lon="-3.888458926230669">
        <ele>777.36328125</ele>
        <time>2011-04-21T11:56:04Z</time>
      </trkpt>
      <trkpt lat="31.288320533931255" lon="-3.887680750340223">
        <ele>775.921142578125</ele>
        <time>2011-04-21T11:56:13Z</time>
      </trkpt>
      <trkpt lat="31.289050178602338" lon="-3.886969545856118">
        <ele>776.40185546875</ele>
        <time>2011-04-21T11:56:23Z</time>
      </trkpt>
      <trkpt lat="31.289475979283452" lon="-3.886366970837116">
        <ele>776.40185546875</ele>
        <time>2011-04-21T11:56:31Z</time>
      </trkpt>
      <trkpt lat="31.290177796036005" lon="-3.885760875418782">
        <ele>777.36328125</ele>
        <time>2011-04-21T11:56:40Z</time>
      </trkpt>
      <trkpt lat="31.290684817358851" lon="-3.885141536593437">
        <ele>777.36328125</ele>
        <time>2011-04-21T11:56:47Z</time>
      </trkpt>
      <trkpt lat="31.291397446766496" lon="-3.884352380409837">
        <ele>775.4404296875</ele>
        <time>2011-04-21T11:56:57Z</time>
      </trkpt>
      <trkpt lat="31.292166151106358" lon="-3.883699597790837">
        <ele>774.479248046875</ele>
        <time>2011-04-21T11:57:07Z</time>
      </trkpt>
      <trkpt lat="31.292791524901986" lon="-3.883065422996879">
        <ele>774.479248046875</ele>
        <time>2011-04-21T11:57:16Z</time>
      </trkpt>
      <trkpt lat="31.293543381616473" lon="-3.882527640089393">
        <ele>780.247314453125</ele>
        <time>2011-04-21T11:57:25Z</time>
      </trkpt>
      <trkpt lat="31.294155260547996" lon="-3.882126146927476">
        <ele>783.61181640625</ele>
        <time>2011-04-21T11:57:33Z</time>
      </trkpt>
      <trkpt lat="31.294710896909237" lon="-3.881642762571573">
        <ele>783.61181640625</ele>
        <time>2011-04-21T11:57:41Z</time>
      </trkpt>
      <trkpt lat="31.295392429456115" lon="-3.881080336868763">
        <ele>784.5732421875</ele>
        <time>2011-04-21T11:57:51Z</time>
      </trkpt>
      <trkpt lat="31.29600296728313" lon="-3.880626540631056">
        <ele>786.976318359375</ele>
        <time>2011-04-21T11:58:00Z</time>
      </trkpt>
      <trkpt lat="31.296682236716151" lon="-3.880123877897859">
        <ele>787.937744140625</ele>
        <time>2011-04-21T11:58:09Z</time>
      </trkpt>
      <trkpt lat="31.297451192513108" lon="-3.879491379484534">
        <ele>789.379638671875</ele>
        <time>2011-04-21T11:58:19Z</time>
      </trkpt>
      <trkpt lat="31.298135155811906" lon="-3.878817893564701">
        <ele>789.379638671875</ele>
        <time>2011-04-21T11:58:28Z</time>
      </trkpt>
      <trkpt lat="31.298811743035913" lon="-3.878473732620478">
        <ele>793.70556640625</ele>
        <time>2011-04-21T11:58:35Z</time>
      </trkpt>
      <trkpt lat="31.299540381878614" lon="-3.878106689080596">
        <ele>800.43505859375</ele>
        <time>2011-04-21T11:58:43Z</time>
      </trkpt>
      <trkpt lat="31.299636354669929" lon="-3.878076849505305">
        <ele>800.91552734375</ele>
        <time>2011-04-21T11:58:44Z</time>
      </trkpt>
      <trkpt lat="31.300626760348678" lon="-3.877554321661592">
        <ele>808.12548828125</ele>
        <time>2011-04-21T11:58:55Z</time>
      </trkpt>
      <trkpt lat="31.301119364798069" lon="-3.877298757433891">
        <ele>812.93212890625</ele>
        <time>2011-04-21T11:59:03Z</time>
      </trkpt>
      <trkpt lat="31.301744654774666" lon="-3.876844123005867">
        <ele>817.258056640625</ele>
        <time>2011-04-21T11:59:11Z</time>
      </trkpt>
      <trkpt lat="31.301960991695523" lon="-3.876686291769147">
        <ele>818.21923828125</ele>
        <time>2011-04-21T11:59:14Z</time>
      </trkpt>
      <trkpt lat="31.302200127393007" lon="-3.876524772495031">
        <ele>814.854736328125</ele>
        <time>2011-04-21T11:59:19Z</time>
      </trkpt>
      <trkpt lat="31.302463570609689" lon="-3.876220844686031">
        <ele>811.970703125</ele>
        <time>2011-04-21T11:59:27Z</time>
      </trkpt>
      <trkpt lat="31.302921390160918" lon="-3.876133672893047">
        <ele>811.489990234375</ele>
        <time>2011-04-21T11:59:35Z</time>
      </trkpt>
      <trkpt lat="31.303038317710161" lon="-3.87616753578186">
        <ele>811.489990234375</ele>
        <time>2011-04-21T11:59:37Z</time>
      </trkpt>
      <trkpt lat="31.30341399461031" lon="-3.876276751980186">
        <ele>810.0478515625</ele>
        <time>2011-04-21T11:59:45Z</time>
      </trkpt>
      <trkpt lat="31.303555564954877" lon="-3.876338778063655">
        <ele>810.0478515625</ele>
        <time>2011-04-21T11:59:48Z</time>
      </trkpt>
      <trkpt lat="31.303902491927147" lon="-3.876334670931101">
        <ele>810.528564453125</ele>
        <time>2011-04-21T11:59:53Z</time>
      </trkpt>
      <trkpt lat="31.304278085008264" lon="-3.876202991232276">
        <ele>810.528564453125</ele>
        <time>2011-04-21T11:59:58Z</time>
      </trkpt>
      <trkpt lat="31.30452174693346" lon="-3.87603996321559">
        <ele>810.528564453125</ele>
        <time>2011-04-21T12:00:02Z</time>
      </trkpt>
      <trkpt lat="31.304869176819921" lon="-3.875865368172526">
        <ele>811.970703125</ele>
        <time>2011-04-21T12:00:07Z</time>
      </trkpt>
      <trkpt lat="31.305506536737084" lon="-3.875377289950848">
        <ele>812.93212890625</ele>
        <time>2011-04-21T12:00:16Z</time>
      </trkpt>
      <trkpt lat="31.306383199989796" lon="-3.874772535637021">
        <ele>815.33544921875</ele>
        <time>2011-04-21T12:00:27Z</time>
      </trkpt>
      <trkpt lat="31.307049728929996" lon="-3.87418856844306">
        <ele>817.258056640625</ele>
        <time>2011-04-21T12:00:36Z</time>
      </trkpt>
      <trkpt lat="31.307307556271553" lon="-3.873429084196687">
        <ele>815.33544921875</ele>
        <time>2011-04-21T12:00:44Z</time>
      </trkpt>
      <trkpt lat="31.307588517665863" lon="-3.872987776994705">
        <ele>814.3740234375</ele>
        <time>2011-04-21T12:00:49Z</time>
      </trkpt>
      <trkpt lat="31.307698655873537" lon="-3.872813265770674">
        <ele>813.893310546875</ele>
        <time>2011-04-21T12:00:51Z</time>
      </trkpt>
      <trkpt lat="31.308297123759985" lon="-3.872247487306595">
        <ele>812.93212890625</ele>
        <time>2011-04-21T12:00:59Z</time>
      </trkpt>
      <trkpt lat="31.308814790099859" lon="-3.871700232848525">
        <ele>813.893310546875</ele>
        <time>2011-04-21T12:01:07Z</time>
      </trkpt>
      <trkpt lat="31.309312172234058" lon="-3.870825162157416">
        <ele>814.3740234375</ele>
        <time>2011-04-21T12:01:18Z</time>
      </trkpt>
      <trkpt lat="31.309734787791967" lon="-3.870119992643595">
        <ele>814.3740234375</ele>
        <time>2011-04-21T12:01:27Z</time>
      </trkpt>
      <trkpt lat="31.310170982033014" lon="-3.869102178141475">
        <ele>814.3740234375</ele>
        <time>2011-04-21T12:01:39Z</time>
      </trkpt>
      <trkpt lat="31.310504078865051" lon="-3.868318470194936">
        <ele>814.854736328125</ele>
        <time>2011-04-21T12:01:48Z</time>
      </trkpt>
      <trkpt lat="31.310819070786238" lon="-3.867811532691121">
        <ele>816.296630859375</ele>
        <time>2011-04-21T12:01:55Z</time>
      </trkpt>
      <trkpt lat="31.310872128233314" lon="-3.867568876594305">
        <ele>818.699951171875</ele>
        <time>2011-04-21T12:02:02Z</time>
      </trkpt>
      <trkpt lat="31.310878163203597" lon="-3.867676919326186">
        <ele>821.103271484375</ele>
        <time>2011-04-21T12:02:41Z</time>
      </trkpt>
      <trkpt lat="31.310795433819294" lon="-3.867783034220338">
        <ele>821.583740234375</ele>
        <time>2011-04-21T12:05:03Z</time>
      </trkpt>
      <trkpt lat="31.310719326138496" lon="-3.868061397224665">
        <ele>818.699951171875</ele>
        <time>2011-04-21T12:05:14Z</time>
      </trkpt>
      <trkpt lat="31.310574067756534" lon="-3.868296425789595">
        <ele>818.699951171875</ele>
        <time>2011-04-21T12:05:25Z</time>
      </trkpt>
      <trkpt lat="31.310336776077747" lon="-3.868322828784585">
        <ele>791.30224609375</ele>
        <time>2011-04-21T12:06:45Z</time>
      </trkpt>
      <trkpt lat="31.310130665078759" lon="-3.868808727711439">
        <ele>792.263671875</ele>
        <time>2011-04-21T12:06:56Z</time>
      </trkpt>
      <trkpt lat="31.310075679793954" lon="-3.868928086012602">
        <ele>788.899169921875</ele>
        <time>2011-04-21T12:07:04Z</time>
      </trkpt>
      <trkpt lat="31.309918854385614" lon="-3.868984831497073">
        <ele>802.357421875</ele>
        <time>2011-04-21T12:07:35Z</time>
      </trkpt>
      <trkpt lat="31.309715341776609" lon="-3.869485734030604">
        <ele>808.60595703125</ele>
        <time>2011-04-21T12:07:43Z</time>
      </trkpt>
      <trkpt lat="31.309406887739897" lon="-3.870149832218885">
        <ele>813.412841796875</ele>
        <time>2011-04-21T12:07:52Z</time>
      </trkpt>
      <trkpt lat="31.308920653536916" lon="-3.870948292315006">
        <ele>812.451416015625</ele>
        <time>2011-04-21T12:08:02Z</time>
      </trkpt>
      <trkpt lat="31.308332746848464" lon="-3.871952276676893">
        <ele>812.451416015625</ele>
        <time>2011-04-21T12:08:14Z</time>
      </trkpt>
      <trkpt lat="31.308037452399731" lon="-3.872285038232803">
        <ele>811.489990234375</ele>
        <time>2011-04-21T12:08:19Z</time>
      </trkpt>
      <trkpt lat="31.307333623990417" lon="-3.872925080358982">
        <ele>808.12548828125</ele>
        <time>2011-04-21T12:08:29Z</time>
      </trkpt>
      <trkpt lat="31.307090297341347" lon="-3.873243592679501">
        <ele>805.241455078125</ele>
        <time>2011-04-21T12:08:33Z</time>
      </trkpt>
      <trkpt lat="31.306968927383423" lon="-3.873382564634085">
        <ele>802.357421875</ele>
        <time>2011-04-21T12:08:35Z</time>
      </trkpt>
      <trkpt lat="31.306677237153053" lon="-3.874087398871779">
        <ele>796.109130859375</ele>
        <time>2011-04-21T12:08:43Z</time>
      </trkpt>
      <trkpt lat="31.306419745087624" lon="-3.874458465725184">
        <ele>793.70556640625</ele>
        <time>2011-04-21T12:08:48Z</time>
      </trkpt>
      <trkpt lat="31.305718682706356" lon="-3.874947046861053">
        <ele>779.766357421875</ele>
        <time>2011-04-21T12:08:58Z</time>
      </trkpt>
      <trkpt lat="31.305061792954803" lon="-3.875400172546506">
        <ele>768.230712890625</ele>
        <time>2011-04-21T12:09:08Z</time>
      </trkpt>
      <trkpt lat="31.304494924843311" lon="-3.87584206648171">
        <ele>760.059326171875</ele>
        <time>2011-04-21T12:09:16Z</time>
      </trkpt>
      <trkpt lat="31.304135341197252" lon="-3.876014985144138">
        <ele>755.733642578125</ele>
        <time>2011-04-21T12:09:21Z</time>
      </trkpt>
      <trkpt lat="31.30373502150178" lon="-3.876257389783859">
        <ele>751.40771484375</ele>
        <time>2011-04-21T12:09:27Z</time>
      </trkpt>
      <trkpt lat="31.303389854729176" lon="-3.876372892409563">
        <ele>749.00439453125</ele>
        <time>2011-04-21T12:09:32Z</time>
      </trkpt>
      <trkpt lat="31.303025996312499" lon="-3.876334838569164">
        <ele>747.562255859375</ele>
        <time>2011-04-21T12:09:37Z</time>
      </trkpt>
      <trkpt lat="31.302892891690135" lon="-3.876274069771171">
        <ele>748.043212890625</ele>
        <time>2011-04-21T12:09:39Z</time>
      </trkpt>
      <trkpt lat="31.302470276132226" lon="-3.876167368143797">
        <ele>749.9658203125</ele>
        <time>2011-04-21T12:09:45Z</time>
      </trkpt>
      <trkpt lat="31.302015976980329" lon="-3.87627842836082">
        <ele>752.368896484375</ele>
        <time>2011-04-21T12:09:51Z</time>
      </trkpt>
      <trkpt lat="31.301780445501208" lon="-3.876554863527417">
        <ele>760.059326171875</ele>
        <time>2011-04-21T12:09:58Z</time>
      </trkpt>
      <trkpt lat="31.301690591499209" lon="-3.876595180481672">
        <ele>761.020751953125</ele>
        <time>2011-04-21T12:10:00Z</time>
      </trkpt>
      <trkpt lat="31.301061864942312" lon="-3.877017628401518">
        <ele>759.09814453125</ele>
        <time>2011-04-21T12:10:10Z</time>
      </trkpt>
      <trkpt lat="31.300568338483572" lon="-3.877288699150085">
        <ele>756.214111328125</ele>
        <time>2011-04-21T12:10:17Z</time>
      </trkpt>
      <trkpt lat="31.299996273592114" lon="-3.877619449049234">
        <ele>750.927001953125</ele>
        <time>2011-04-21T12:10:25Z</time>
      </trkpt>
      <trkpt lat="31.299200830981135" lon="-3.878005854785442">
        <ele>744.67822265625</ele>
        <time>2011-04-21T12:10:34Z</time>
      </trkpt>
      <trkpt lat="31.298421481624246" lon="-3.878449173644185">
        <ele>737.94921875</ele>
        <time>2011-04-21T12:10:43Z</time>
      </trkpt>
      <trkpt lat="31.298138424754143" lon="-3.878576997667551">
        <ele>736.026611328125</ele>
        <time>2011-04-21T12:10:46Z</time>
      </trkpt>
      <trkpt lat="31.297492682933807" lon="-3.879160126671195">
        <ele>731.219970703125</ele>
        <time>2011-04-21T12:10:54Z</time>
      </trkpt>
      <trkpt lat="31.296338746324182" lon="-3.880104767158628">
        <ele>725.9326171875</ele>
        <time>2011-04-21T12:11:06Z</time>
      </trkpt>
      <trkpt lat="31.296163061633706" lon="-3.880245583131909">
        <ele>724.971435546875</ele>
        <time>2011-04-21T12:11:08Z</time>
      </trkpt>
      <trkpt lat="31.295410953462124" lon="-3.880743468180299">
        <ele>718.2421875</ele>
        <time>2011-04-21T12:11:17Z</time>
      </trkpt>
      <trkpt lat="31.294653061777353" lon="-3.881333973258734">
        <ele>712.954833984375</ele>
        <time>2011-04-21T12:11:26Z</time>
      </trkpt>
      <trkpt lat="31.293885363265872" lon="-3.881934620440006">
        <ele>704.30322265625</ele>
        <time>2011-04-21T12:11:35Z</time>
      </trkpt>
      <trkpt lat="31.293208692222834" lon="-3.88243074528873">
        <ele>698.054443359375</ele>
        <time>2011-04-21T12:11:43Z</time>
      </trkpt>
      <trkpt lat="31.292985063046217" lon="-3.882625289261341">
        <ele>694.689697265625</ele>
        <time>2011-04-21T12:11:46Z</time>
      </trkpt>
      <trkpt lat="31.292671579867601" lon="-3.882831232622266">
        <ele>688.44140625</ele>
        <time>2011-04-21T12:11:50Z</time>
      </trkpt>
      <trkpt lat="31.292050648480654" lon="-3.883458450436592">
        <ele>682.67333984375</ele>
        <time>2011-04-21T12:11:59Z</time>
      </trkpt>
      <trkpt lat="31.291234837844968" lon="-3.88417418114841">
        <ele>674.021484375</ele>
        <time>2011-04-21T12:12:09Z</time>
      </trkpt>
      <trkpt lat="31.290546264499426" lon="-3.884960152208805">
        <ele>671.1376953125</ele>
        <time>2011-04-21T12:12:17Z</time>
      </trkpt>
      <trkpt lat="31.289897421374917" lon="-3.8856649864465">
        <ele>673.541015625</ele>
        <time>2011-04-21T12:12:24Z</time>
      </trkpt>
      <trkpt lat="31.28907029516995" lon="-3.886540224775672">
        <ele>676.4248046875</ele>
        <time>2011-04-21T12:12:33Z</time>
      </trkpt>
      <trkpt lat="31.288532093167305" lon="-3.88714992441237">
        <ele>677.86669921875</ele>
        <time>2011-04-21T12:12:39Z</time>
      </trkpt>
      <trkpt lat="31.288045942783356" lon="-3.887543622404337">
        <ele>677.86669921875</ele>
        <time>2011-04-21T12:12:44Z</time>
      </trkpt>
      <trkpt lat="31.287258882075548" lon="-3.88852396979928">
        <ele>679.789306640625</ele>
        <time>2011-04-21T12:12:53Z</time>
      </trkpt>
      <trkpt lat="31.286904579028487" lon="-3.888844661414623">
        <ele>678.828125</ele>
        <time>2011-04-21T12:12:57Z</time>
      </trkpt>
      <trkpt lat="31.285943426191807" lon="-3.889342965558171">
        <ele>673.060302734375</ele>
        <time>2011-04-21T12:13:06Z</time>
      </trkpt>
      <trkpt lat="31.285461885854602" lon="-3.889531474560499">
        <ele>670.656982421875</ele>
        <time>2011-04-21T12:13:10Z</time>
      </trkpt>
      <trkpt lat="31.284629898145795" lon="-3.890258269384503">
        <ele>669.215087890625</ele>
        <time>2011-04-21T12:13:18Z</time>
      </trkpt>
      <trkpt lat="31.284181633964181" lon="-3.890774259343743">
        <ele>670.17626953125</ele>
        <time>2011-04-21T12:13:23Z</time>
      </trkpt>
      <trkpt lat="31.283456347882748" lon="-3.891304079443216">
        <ele>671.1376953125</ele>
        <time>2011-04-21T12:13:30Z</time>
      </trkpt>
      <trkpt lat="31.282827369868755" lon="-3.891936745494604">
        <ele>671.1376953125</ele>
        <time>2011-04-21T12:13:37Z</time>
      </trkpt>
      <trkpt lat="31.282060258090496" lon="-3.892731852829456">
        <ele>671.1376953125</ele>
        <time>2011-04-21T12:13:45Z</time>
      </trkpt>
      <trkpt lat="31.281192395836115" lon="-3.893641456961632">
        <ele>671.6181640625</ele>
        <time>2011-04-21T12:13:54Z</time>
      </trkpt>
      <trkpt lat="31.28045286051929" lon="-3.894643345847726">
        <ele>673.541015625</ele>
        <time>2011-04-21T12:14:03Z</time>
      </trkpt>
      <trkpt lat="31.280075339600444" lon="-3.894966719672084">
        <ele>673.541015625</ele>
        <time>2011-04-21T12:14:09Z</time>
      </trkpt>
      <trkpt lat="31.27986847423017" lon="-3.895092783495784">
        <ele>672.57958984375</ele>
        <time>2011-04-21T12:14:16Z</time>
      </trkpt>
      <trkpt lat="31.27976244315505" lon="-3.895224966108799">
        <ele>652.391845703125</ele>
        <time>2011-04-21T12:15:00Z</time>
      </trkpt>
      <trkpt lat="31.279269335791469" lon="-3.895574072375894">
        <ele>650.94970703125</ele>
        <time>2011-04-21T12:15:07Z</time>
      </trkpt>
      <trkpt lat="31.278937663882971" lon="-3.895785296335816">
        <ele>649.988525390625</ele>
        <time>2011-04-21T12:15:11Z</time>
      </trkpt>
      <trkpt lat="31.278384793549776" lon="-3.895792253315449">
        <ele>651.9111328125</ele>
        <time>2011-04-21T12:15:17Z</time>
      </trkpt>
      <trkpt lat="31.27822763286531" lon="-3.89567406848073">
        <ele>654.795166015625</ele>
        <time>2011-04-21T12:15:19Z</time>
      </trkpt>
      <trkpt lat="31.277827983722091" lon="-3.895438117906451">
        <ele>663.927490234375</ele>
        <time>2011-04-21T12:15:24Z</time>
      </trkpt>
      <trkpt lat="31.27763737924397" lon="-3.895386988297105">
        <ele>667.772705078125</ele>
        <time>2011-04-21T12:15:26Z</time>
      </trkpt>
      <trkpt lat="31.277306880801916" lon="-3.895207531750202">
        <ele>671.6181640625</ele>
        <time>2011-04-21T12:15:30Z</time>
      </trkpt>
      <trkpt lat="31.276636496186256" lon="-3.894652063027024">
        <ele>682.67333984375</ele>
        <time>2011-04-21T12:15:40Z</time>
      </trkpt>
      <trkpt lat="31.276100724935532" lon="-3.894319469109178">
        <ele>687.960693359375</ele>
        <time>2011-04-21T12:15:49Z</time>
      </trkpt>
      <trkpt lat="31.275714235380292" lon="-3.893885370343924">
        <ele>691.3251953125</ele>
        <time>2011-04-21T12:15:58Z</time>
      </trkpt>
      <trkpt lat="31.275374516844749" lon="-3.89354364015162">
        <ele>693.247802734375</ele>
        <time>2011-04-21T12:16:05Z</time>
      </trkpt>
      <trkpt lat="31.275057094171643" lon="-3.893377594649792">
        <ele>694.689697265625</ele>
        <time>2011-04-21T12:16:10Z</time>
      </trkpt>
      <trkpt lat="31.274838577955961" lon="-3.893324453383684">
        <ele>696.1318359375</ele>
        <time>2011-04-21T12:16:13Z</time>
      </trkpt>
      <trkpt lat="31.274099545553327" lon="-3.893009126186371">
        <ele>699.015625</ele>
        <time>2011-04-21T12:16:23Z</time>
      </trkpt>
      <trkpt lat="31.273621525615454" lon="-3.892739899456501">
        <ele>699.496337890625</ele>
        <time>2011-04-21T12:16:29Z</time>
      </trkpt>
      <trkpt lat="31.273206118494272" lon="-3.892209324985743">
        <ele>700.4580078125</ele>
        <time>2011-04-21T12:16:36Z</time>
      </trkpt>
      <trkpt lat="31.27293823286891" lon="-3.892015954479575">
        <ele>700.9384765625</ele>
        <time>2011-04-21T12:16:40Z</time>
      </trkpt>
      <trkpt lat="31.272667245939374" lon="-3.891818393021822">
        <ele>701.419189453125</ele>
        <time>2011-04-21T12:16:44Z</time>
      </trkpt>
      <trkpt lat="31.272366419434547" lon="-3.891720995306969">
        <ele>701.89990234375</ele>
        <time>2011-04-21T12:16:48Z</time>
      </trkpt>
      <trkpt lat="31.271889489144087" lon="-3.891510693356395">
        <ele>703.341796875</ele>
        <time>2011-04-21T12:16:54Z</time>
      </trkpt>
      <trkpt lat="31.271373331546783" lon="-3.89109562151134">
        <ele>702.38037109375</ele>
        <time>2011-04-21T12:17:02Z</time>
      </trkpt>
      <trkpt lat="31.271035876125097" lon="-3.890893869102001">
        <ele>702.861083984375</ele>
        <time>2011-04-21T12:17:10Z</time>
      </trkpt>
      <trkpt lat="31.270688194781542" lon="-3.890887917950749">
        <ele>705.264404296875</ele>
        <time>2011-04-21T12:17:19Z</time>
      </trkpt>
      <trkpt lat="31.270575039088726" lon="-3.890867047011852">
        <ele>705.7451171875</ele>
        <time>2011-04-21T12:17:22Z</time>
      </trkpt>
      <trkpt lat="31.270278487354517" lon="-3.890608632937074">
        <ele>705.7451171875</ele>
        <time>2011-04-21T12:17:29Z</time>
      </trkpt>
      <trkpt lat="31.270167343318462" lon="-3.89045599848032">
        <ele>706.2255859375</ele>
        <time>2011-04-21T12:17:32Z</time>
      </trkpt>
      <trkpt lat="31.269828882068396" lon="-3.890350135043263">
        <ele>704.30322265625</ele>
        <time>2011-04-21T12:17:40Z</time>
      </trkpt>
      <trkpt lat="31.269639870151877" lon="-3.890356086194515">
        <ele>704.78369140625</ele>
        <time>2011-04-21T12:17:43Z</time>
      </trkpt>
      <trkpt lat="31.269205519929528" lon="-3.890182245522738">
        <ele>703.822509765625</ele>
        <time>2011-04-21T12:17:51Z</time>
      </trkpt>
      <trkpt lat="31.26890117302537" lon="-3.890166655182838">
        <ele>700.9384765625</ele>
        <time>2011-04-21T12:17:56Z</time>
      </trkpt>
      <trkpt lat="31.268263561651111" lon="-3.889960879459977">
        <ele>699.496337890625</ele>
        <time>2011-04-21T12:18:04Z</time>
      </trkpt>
      <trkpt lat="31.26800648868084" lon="-3.889789385721088">
        <ele>700.4580078125</ele>
        <time>2011-04-21T12:18:08Z</time>
      </trkpt>
      <trkpt lat="31.267680767923594" lon="-3.889705566689372">
        <ele>699.97705078125</ele>
        <time>2011-04-21T12:18:13Z</time>
      </trkpt>
      <trkpt lat="31.266917595639825" lon="-3.889836492016912">
        <ele>693.728515625</ele>
        <time>2011-04-21T12:18:21Z</time>
      </trkpt>
      <trkpt lat="31.265959460288286" lon="-3.889997843652964">
        <ele>689.88330078125</ele>
        <time>2011-04-21T12:18:30Z</time>
      </trkpt>
      <trkpt lat="31.26470242626965" lon="-3.890528837218881">
        <ele>682.192626953125</ele>
        <time>2011-04-21T12:18:41Z</time>
      </trkpt>
      <trkpt lat="31.263700369745493" lon="-3.890891522169113">
        <ele>678.828125</ele>
        <time>2011-04-21T12:18:50Z</time>
      </trkpt>
      <trkpt lat="31.262517850846052" lon="-3.891314724460244">
        <ele>675.46337890625</ele>
        <time>2011-04-21T12:19:01Z</time>
      </trkpt>
      <trkpt lat="31.26239706762135" lon="-3.891333835199475">
        <ele>675.46337890625</ele>
        <time>2011-04-21T12:19:02Z</time>
      </trkpt>
      <trkpt lat="31.261719474568963" lon="-3.891168376430869">
        <ele>677.86669921875</ele>
        <time>2011-04-21T12:19:08Z</time>
      </trkpt>
      <trkpt lat="31.260596970096231" lon="-3.890392379835248">
        <ele>677.38623046875</ele>
        <time>2011-04-21T12:19:19Z</time>
      </trkpt>
      <trkpt lat="31.25962165184319" lon="-3.889806233346462">
        <ele>679.30859375</ele>
        <time>2011-04-21T12:19:29Z</time>
      </trkpt>
      <trkpt lat="31.258795699104667" lon="-3.889716379344463">
        <ele>682.192626953125</ele>
        <time>2011-04-21T12:19:37Z</time>
      </trkpt>
      <trkpt lat="31.258560419082642" lon="-3.889735825359821">
        <ele>682.67333984375</ele>
        <time>2011-04-21T12:19:39Z</time>
      </trkpt>
      <trkpt lat="31.258239140734076" lon="-3.889720989391208">
        <ele>683.634521484375</ele>
        <time>2011-04-21T12:19:42Z</time>
      </trkpt>
      <trkpt lat="31.257382091134787" lon="-3.889895165339112">
        <ele>684.59619140625</ele>
        <time>2011-04-21T12:19:51Z</time>
      </trkpt>
      <trkpt lat="31.25723373144865" lon="-3.889929866418243">
        <ele>686.0380859375</ele>
        <time>2011-04-21T12:19:56Z</time>
      </trkpt>
      <trkpt lat="31.257073720917106" lon="-3.889953084290028">
        <ele>692.767333984375</ele>
        <time>2011-04-21T12:20:13Z</time>
      </trkpt>
      <trkpt lat="31.256454298272729" lon="-3.890067329630256">
        <ele>690.364013671875</ele>
        <time>2011-04-21T12:20:20Z</time>
      </trkpt>
      <trkpt lat="31.255686935037374" lon="-3.890260448679328">
        <ele>687.960693359375</ele>
        <time>2011-04-21T12:20:27Z</time>
      </trkpt>
      <trkpt lat="31.255305642262101" lon="-3.890541158616543">
        <ele>687.960693359375</ele>
        <time>2011-04-21T12:20:31Z</time>
      </trkpt>
      <trkpt lat="31.254224376752973" lon="-3.891603481024504">
        <ele>686.0380859375</ele>
        <time>2011-04-21T12:20:43Z</time>
      </trkpt>
      <trkpt lat="31.253478722646832" lon="-3.892603442072868">
        <ele>682.67333984375</ele>
        <time>2011-04-21T12:20:52Z</time>
      </trkpt>
      <trkpt lat="31.252742288634181" lon="-3.893860643729568">
        <ele>679.789306640625</ele>
        <time>2011-04-21T12:21:02Z</time>
      </trkpt>
      <trkpt lat="31.252060923725367" lon="-3.895013574510813">
        <ele>675.944091796875</ele>
        <time>2011-04-21T12:21:12Z</time>
      </trkpt>
      <trkpt lat="31.251260116696358" lon="-3.895708853378892">
        <ele>674.502197265625</ele>
        <time>2011-04-21T12:21:21Z</time>
      </trkpt>
      <trkpt lat="31.250443970784545" lon="-3.896371442824602">
        <ele>672.098876953125</ele>
        <time>2011-04-21T12:21:30Z</time>
      </trkpt>
      <trkpt lat="31.249787583947182" lon="-3.897163365036249">
        <ele>667.772705078125</ele>
        <time>2011-04-21T12:21:40Z</time>
      </trkpt>
      <trkpt lat="31.249452643096447" lon="-3.897349275648594">
        <ele>669.215087890625</ele>
        <time>2011-04-21T12:21:48Z</time>
      </trkpt>
      <trkpt lat="31.249226918444037" lon="-3.897110894322395">
        <ele>670.656982421875</ele>
        <time>2011-04-21T12:21:53Z</time>
      </trkpt>
      <trkpt lat="31.248591737821698" lon="-3.896173294633627">
        <ele>675.46337890625</ele>
        <time>2011-04-21T12:22:06Z</time>
      </trkpt>
      <trkpt lat="31.247672494500875" lon="-3.895182553678751">
        <ele>680.27001953125</ele>
        <time>2011-04-21T12:22:20Z</time>
      </trkpt>
      <trkpt lat="31.246844697743654" lon="-3.894478557631373">
        <ele>680.750732421875</ele>
        <time>2011-04-21T12:22:30Z</time>
      </trkpt>
      <trkpt lat="31.246209852397442" lon="-3.894001375883818">
        <ele>682.192626953125</ele>
        <time>2011-04-21T12:22:37Z</time>
      </trkpt>
      <trkpt lat="31.245738621801138" lon="-3.893999699503183">
        <ele>681.7119140625</ele>
        <time>2011-04-21T12:22:42Z</time>
      </trkpt>
      <trkpt lat="31.245535779744387" lon="-3.894094666466117">
        <ele>681.2314453125</ele>
        <time>2011-04-21T12:22:44Z</time>
      </trkpt>
      <trkpt lat="31.244449652731419" lon="-3.894207319244742">
        <ele>681.7119140625</ele>
        <time>2011-04-21T12:22:53Z</time>
      </trkpt>
      <trkpt lat="31.242821048945189" lon="-3.894322151318193">
        <ele>682.192626953125</ele>
        <time>2011-04-21T12:23:05Z</time>
      </trkpt>
      <trkpt lat="31.241110386326909" lon="-3.894644435495138">
        <ele>682.67333984375</ele>
        <time>2011-04-21T12:23:17Z</time>
      </trkpt>
      <trkpt lat="31.23945839703083" lon="-3.895195964723826">
        <ele>682.67333984375</ele>
        <time>2011-04-21T12:23:29Z</time>
      </trkpt>
      <trkpt lat="31.23774915933609" lon="-3.895762078464031">
        <ele>680.750732421875</ele>
        <time>2011-04-21T12:23:42Z</time>
      </trkpt>
      <trkpt lat="31.23631551861763" lon="-3.896107999607921">
        <ele>677.38623046875</ele>
        <time>2011-04-21T12:23:53Z</time>
      </trkpt>
      <trkpt lat="31.234508128836751" lon="-3.896458949893713">
        <ele>674.502197265625</ele>
        <time>2011-04-21T12:24:07Z</time>
      </trkpt>
      <trkpt lat="31.23220126144588" lon="-3.89700653962791">
        <ele>679.30859375</ele>
        <time>2011-04-21T12:24:24Z</time>
      </trkpt>
      <trkpt lat="31.230055242776871" lon="-3.897459162399173">
        <ele>680.27001953125</ele>
        <time>2011-04-21T12:24:40Z</time>
      </trkpt>
      <trkpt lat="31.228854535147548" lon="-3.897634092718363">
        <ele>677.86669921875</ele>
        <time>2011-04-21T12:24:50Z</time>
      </trkpt>
      <trkpt lat="31.228251960128546" lon="-3.897783542051911">
        <ele>677.38623046875</ele>
        <time>2011-04-21T12:24:55Z</time>
      </trkpt>
      <trkpt lat="31.227822136133909" lon="-3.898051092401147">
        <ele>676.905517578125</ele>
        <time>2011-04-21T12:24:59Z</time>
      </trkpt>
      <trkpt lat="31.226699883118272" lon="-3.899253979325295">
        <ele>672.57958984375</ele>
        <time>2011-04-21T12:25:10Z</time>
      </trkpt>
      <trkpt lat="31.225782819092274" lon="-3.900235332548618">
        <ele>670.17626953125</ele>
        <time>2011-04-21T12:25:19Z</time>
      </trkpt>
      <trkpt lat="31.224956447258592" lon="-3.900603465735912">
        <ele>668.734375</ele>
        <time>2011-04-21T12:25:26Z</time>
      </trkpt>
      <trkpt lat="31.223497577011585" lon="-3.900976879522204">
        <ele>671.1376953125</ele>
        <time>2011-04-21T12:25:37Z</time>
      </trkpt>
      <trkpt lat="31.223042858764529" lon="-3.901232695207">
        <ele>670.656982421875</ele>
        <time>2011-04-21T12:25:41Z</time>
      </trkpt>
      <trkpt lat="31.221829829737544" lon="-3.902227878570557">
        <ele>667.292236328125</ele>
        <time>2011-04-21T12:25:52Z</time>
      </trkpt>
      <trkpt lat="31.220778152346611" lon="-3.903203029185534">
        <ele>663.927490234375</ele>
        <time>2011-04-21T12:26:02Z</time>
      </trkpt>
      <trkpt lat="31.219753297045827" lon="-3.904182286933065">
        <ele>660.56298828125</ele>
        <time>2011-04-21T12:26:12Z</time>
      </trkpt>
      <trkpt lat="31.218618722632527" lon="-3.904885863885284">
        <ele>656.237060546875</ele>
        <time>2011-04-21T12:26:21Z</time>
      </trkpt>
      <trkpt lat="31.217456068843603" lon="-3.9057363756001">
        <ele>650.46923828125</ele>
        <time>2011-04-21T12:26:31Z</time>
      </trkpt>
      <trkpt lat="31.216921219602227" lon="-3.906497787684202">
        <ele>648.54638671875</ele>
        <time>2011-04-21T12:26:37Z</time>
      </trkpt>
      <trkpt lat="31.216233987361193" lon="-3.907733699306846">
        <ele>649.027099609375</ele>
        <time>2011-04-21T12:26:46Z</time>
      </trkpt>
      <trkpt lat="31.215737694874406" lon="-3.908497877418995">
        <ele>649.027099609375</ele>
        <time>2011-04-21T12:26:52Z</time>
      </trkpt>
      <trkpt lat="31.21477235108614" lon="-3.909853063523769">
        <ele>646.6240234375</ele>
        <time>2011-04-21T12:27:03Z</time>
      </trkpt>
      <trkpt lat="31.213944889605045" lon="-3.911359794437885">
        <ele>646.143310546875</ele>
        <time>2011-04-21T12:27:14Z</time>
      </trkpt>
      <trkpt lat="31.212911149486899" lon="-3.913379330188036">
        <ele>646.143310546875</ele>
        <time>2011-04-21T12:27:28Z</time>
      </trkpt>
      <trkpt lat="31.212145630270243" lon="-3.914269655942917">
        <ele>645.66259765625</ele>
        <time>2011-04-21T12:27:36Z</time>
      </trkpt>
      <trkpt lat="31.211882941424847" lon="-3.914528572931886">
        <ele>645.66259765625</ele>
        <time>2011-04-21T12:27:39Z</time>
      </trkpt>
      <trkpt lat="31.211438616737723" lon="-3.914647847414017">
        <ele>647.1044921875</ele>
        <time>2011-04-21T12:27:44Z</time>
      </trkpt>
      <trkpt lat="31.211350355297327" lon="-3.914626389741898">
        <ele>647.1044921875</ele>
        <time>2011-04-21T12:27:45Z</time>
      </trkpt>
      <trkpt lat="31.210406050086021" lon="-3.914370490238071">
        <ele>657.198486328125</ele>
        <time>2011-04-21T12:27:54Z</time>
      </trkpt>
      <trkpt lat="31.210108660161495" lon="-3.914299244061112">
        <ele>660.56298828125</ele>
        <time>2011-04-21T12:27:58Z</time>
      </trkpt>
      <trkpt lat="31.209683194756508" lon="-3.914145939052105">
        <ele>665.36962890625</ele>
        <time>2011-04-21T12:28:06Z</time>
      </trkpt>
      <trkpt lat="31.209364598616958" lon="-3.914127079769969">
        <ele>666.8115234375</ele>
        <time>2011-04-21T12:28:10Z</time>
      </trkpt>
      <trkpt lat="31.208540657535195" lon="-3.914104783907533">
        <ele>667.772705078125</ele>
        <time>2011-04-21T12:28:18Z</time>
      </trkpt>
      <trkpt lat="31.207311451435089" lon="-3.914091875776649">
        <ele>669.69580078125</ele>
        <time>2011-04-21T12:28:28Z</time>
      </trkpt>
      <trkpt lat="31.206261618062854" lon="-3.914268231019378">
        <ele>671.6181640625</ele>
        <time>2011-04-21T12:28:37Z</time>
      </trkpt>
      <trkpt lat="31.205589473247528" lon="-3.914287090301514">
        <ele>673.060302734375</ele>
        <time>2011-04-21T12:28:44Z</time>
      </trkpt>
      <trkpt lat="31.204261695966125" lon="-3.914372669532895">
        <ele>674.98291015625</ele>
        <time>2011-04-21T12:28:56Z</time>
      </trkpt>
      <trkpt lat="31.203198786824942" lon="-3.914649356156588">
        <ele>673.541015625</ele>
        <time>2011-04-21T12:29:05Z</time>
      </trkpt>
      <trkpt lat="31.202179966494441" lon="-3.915151264518499">
        <ele>666.330810546875</ele>
        <time>2011-04-21T12:29:15Z</time>
      </trkpt>
      <trkpt lat="31.201393576338887" lon="-3.915243968367577">
        <ele>666.8115234375</ele>
        <time>2011-04-21T12:29:22Z</time>
      </trkpt>
      <trkpt lat="31.199918277561665" lon="-3.915172722190619">
        <ele>669.215087890625</ele>
        <time>2011-04-21T12:29:34Z</time>
      </trkpt>
      <trkpt lat="31.19929357431829" lon="-3.915083454921842">
        <ele>671.1376953125</ele>
        <time>2011-04-21T12:29:41Z</time>
      </trkpt>
      <trkpt lat="31.199134485796094" lon="-3.915053196251392">
        <ele>671.6181640625</ele>
        <time>2011-04-21T12:29:43Z</time>
      </trkpt>
      <trkpt lat="31.198555799201131" lon="-3.914707191288471">
        <ele>674.98291015625</ele>
        <time>2011-04-21T12:29:50Z</time>
      </trkpt>
      <trkpt lat="31.197612751275301" lon="-3.914066730067134">
        <ele>680.27001953125</ele>
        <time>2011-04-21T12:29:59Z</time>
      </trkpt>
      <trkpt lat="31.196938678622246" lon="-3.91394485719502">
        <ele>685.557373046875</ele>
        <time>2011-04-21T12:30:05Z</time>
      </trkpt>
      <trkpt lat="31.196002755314112" lon="-3.913800353184342">
        <ele>687.960693359375</ele>
        <time>2011-04-21T12:30:13Z</time>
      </trkpt>
      <trkpt lat="31.194560397416353" lon="-3.913557277992368">
        <ele>692.767333984375</ele>
        <time>2011-04-21T12:30:24Z</time>
      </trkpt>
      <trkpt lat="31.192953670397401" lon="-3.913222253322601">
        <ele>704.30322265625</ele>
        <time>2011-04-21T12:30:36Z</time>
      </trkpt>
      <trkpt lat="31.191184669733047" lon="-3.913298193365336">
        <ele>713.916015625</ele>
        <time>2011-04-21T12:30:47Z</time>
      </trkpt>
      <trkpt lat="31.190197449177504" lon="-3.912892760708928">
        <ele>720.164794921875</ele>
        <time>2011-04-21T12:30:56Z</time>
      </trkpt>
      <trkpt lat="31.18905876763165" lon="-3.912849426269531">
        <ele>724.010009765625</ele>
        <time>2011-04-21T12:31:05Z</time>
      </trkpt>
      <trkpt lat="31.187351373955607" lon="-3.912960486486554">
        <ele>724.010009765625</ele>
        <time>2011-04-21T12:31:18Z</time>
      </trkpt>
      <trkpt lat="31.18622375652194" lon="-3.913042042404413">
        <ele>722.568115234375</ele>
        <time>2011-04-21T12:31:27Z</time>
      </trkpt>
      <trkpt lat="31.184926321730018" lon="-3.913411851972342">
        <ele>721.606689453125</ele>
        <time>2011-04-21T12:31:38Z</time>
      </trkpt>
      <trkpt lat="31.183294951915741" lon="-3.913884423673153">
        <ele>722.08740234375</ele>
        <time>2011-04-21T12:31:51Z</time>
      </trkpt>
      <trkpt lat="31.182226845994592" lon="-3.914332604035735">
        <ele>721.126220703125</ele>
        <time>2011-04-21T12:32:00Z</time>
      </trkpt>
      <trkpt lat="31.180813824757934" lon="-3.915345221757889">
        <ele>715.358154296875</ele>
        <time>2011-04-21T12:32:13Z</time>
      </trkpt>
      <trkpt lat="31.180500006303191" lon="-3.915581004694104">
        <ele>713.916015625</ele>
        <time>2011-04-21T12:32:16Z</time>
      </trkpt>
      <trkpt lat="31.179132834076881" lon="-3.915362823754549">
        <ele>711.99365234375</ele>
        <time>2011-04-21T12:32:25Z</time>
      </trkpt>
      <trkpt lat="31.178909623995423" lon="-3.915431471541524">
        <ele>711.512939453125</ele>
        <time>2011-04-21T12:32:27Z</time>
      </trkpt>
      <trkpt lat="31.178529839962721" lon="-3.915694830939174">
        <ele>707.18701171875</ele>
        <time>2011-04-21T12:32:31Z</time>
      </trkpt>
      <trkpt lat="31.177825927734375" lon="-3.916518688201904">
        <ele>702.861083984375</ele>
        <time>2011-04-21T12:32:41Z</time>
      </trkpt>
      <trkpt lat="31.177418231964111" lon="-3.916475772857666">
        <ele>699.496337890625</ele>
        <time>2011-04-21T12:32:47Z</time>
      </trkpt>
      <trkpt lat="31.177302896976471" lon="-3.916435707360506">
        <ele>699.015625</ele>
        <time>2011-04-21T12:32:49Z</time>
      </trkpt>
      <trkpt lat="31.176984636113048" lon="-3.916325066238642">
        <ele>698.054443359375</ele>
        <time>2011-04-21T12:32:53Z</time>
      </trkpt>
      <trkpt lat="31.176440734416246" lon="-3.916135802865028">
        <ele>697.093017578125</ele>
        <time>2011-04-21T12:33:00Z</time>
      </trkpt>
      <trkpt lat="31.176181146875024" lon="-3.916038740426302">
        <ele>696.612548828125</ele>
        <time>2011-04-21T12:33:03Z</time>
      </trkpt>
      <trkpt lat="31.175516545772552" lon="-3.91551143489778">
        <ele>697.57373046875</ele>
        <time>2011-04-21T12:33:11Z</time>
      </trkpt>
      <trkpt lat="31.175140533596277" lon="-3.91495487652719">
        <ele>696.1318359375</ele>
        <time>2011-04-21T12:33:17Z</time>
      </trkpt>
      <trkpt lat="31.174942217767239" lon="-3.914721608161926">
        <ele>696.612548828125</ele>
        <time>2011-04-21T12:33:20Z</time>
      </trkpt>
      <trkpt lat="31.174309635534883" lon="-3.914304776117206">
        <ele>696.1318359375</ele>
        <time>2011-04-21T12:33:27Z</time>
      </trkpt>
      <trkpt lat="31.174207124859095" lon="-3.914264375343919">
        <ele>696.612548828125</ele>
        <time>2011-04-21T12:33:28Z</time>
      </trkpt>
      <trkpt lat="31.17385508492589" lon="-3.914187513291836">
        <ele>696.612548828125</ele>
        <time>2011-04-21T12:33:32Z</time>
      </trkpt>
      <trkpt lat="31.173446970060468" lon="-3.914169492200017">
        <ele>695.17041015625</ele>
        <time>2011-04-21T12:33:36Z</time>
      </trkpt>
      <trkpt lat="31.173085290938616" lon="-3.914105957373977">
        <ele>692.28662109375</ele>
        <time>2011-04-21T12:33:40Z</time>
      </trkpt>
      <trkpt lat="31.172820590436459" lon="-3.913979977369309">
        <ele>688.922119140625</ele>
        <time>2011-04-21T12:33:44Z</time>
      </trkpt>
      <trkpt lat="31.172546250745654" lon="-3.91380705870688">
        <ele>686.0380859375</ele>
        <time>2011-04-21T12:33:49Z</time>
      </trkpt>
      <trkpt lat="31.172333098948002" lon="-3.913622321560979">
        <ele>684.59619140625</ele>
        <time>2011-04-21T12:33:53Z</time>
      </trkpt>
      <trkpt lat="31.171665647998452" lon="-3.912966186180711">
        <ele>682.192626953125</ele>
        <time>2011-04-21T12:34:05Z</time>
      </trkpt>
      <trkpt lat="31.1715595331043" lon="-3.912889575585723">
        <ele>681.7119140625</ele>
        <time>2011-04-21T12:34:07Z</time>
      </trkpt>
      <trkpt lat="31.17095896974206" lon="-3.912585228681564">
        <ele>683.15380859375</ele>
        <time>2011-04-21T12:34:16Z</time>
      </trkpt>
      <trkpt lat="31.170296128839254" lon="-3.912315163761377">
        <ele>682.67333984375</ele>
        <time>2011-04-21T12:34:24Z</time>
      </trkpt>
      <trkpt lat="31.169340591877699" lon="-3.91199522651732">
        <ele>680.27001953125</ele>
        <time>2011-04-21T12:34:35Z</time>
      </trkpt>
      <trkpt lat="31.1687982827425" lon="-3.911639330908656">
        <ele>682.192626953125</ele>
        <time>2011-04-21T12:34:43Z</time>
      </trkpt>
      <trkpt lat="31.168575491756201" lon="-3.911512261256576">
        <ele>683.634521484375</ele>
        <time>2011-04-21T12:34:46Z</time>
      </trkpt>
      <trkpt lat="31.167998313903809" lon="-3.911240100860596">
        <ele>682.67333984375</ele>
        <time>2011-04-21T12:34:53Z</time>
      </trkpt>
      <trkpt lat="31.166865164414048" lon="-3.911167178303003">
        <ele>681.7119140625</ele>
        <time>2011-04-21T12:35:03Z</time>
      </trkpt>
      <trkpt lat="31.165340160951018" lon="-3.91100088134408">
        <ele>683.15380859375</ele>
        <time>2011-04-21T12:35:16Z</time>
      </trkpt>
      <trkpt lat="31.164158061146736" lon="-3.911213530227542">
        <ele>684.59619140625</ele>
        <time>2011-04-21T12:35:26Z</time>
      </trkpt>
      <trkpt lat="31.162472376599908" lon="-3.910751352086663">
        <ele>685.557373046875</ele>
        <time>2011-04-21T12:35:38Z</time>
      </trkpt>
      <trkpt lat="31.160683091729879" lon="-3.910618918016553">
        <ele>686.0380859375</ele>
        <time>2011-04-21T12:35:51Z</time>
      </trkpt>
      <trkpt lat="31.159591265022755" lon="-3.910424038767815">
        <ele>683.634521484375</ele>
        <time>2011-04-21T12:36:00Z</time>
      </trkpt>
      <trkpt lat="31.158558363094926" lon="-3.910115836188197">
        <ele>684.115478515625</ele>
        <time>2011-04-21T12:36:10Z</time>
      </trkpt>
      <trkpt lat="31.158359041437507" lon="-3.910065041854978">
        <ele>684.115478515625</ele>
        <time>2011-04-21T12:36:12Z</time>
      </trkpt>
      <trkpt lat="31.157620679587126" lon="-3.910200828686357">
        <ele>680.27001953125</ele>
        <time>2011-04-21T12:36:19Z</time>
      </trkpt>
      <trkpt lat="31.157417083159089" lon="-3.910318426787853">
        <ele>679.30859375</ele>
        <time>2011-04-21T12:36:21Z</time>
      </trkpt>
      <trkpt lat="31.156490296125412" lon="-3.910885043442249">
        <ele>674.021484375</ele>
        <time>2011-04-21T12:36:30Z</time>
      </trkpt>
      <trkpt lat="31.155873388051987" lon="-3.911298774182797">
        <ele>669.215087890625</ele>
        <time>2011-04-21T12:36:37Z</time>
      </trkpt>
      <trkpt lat="31.154611995443702" lon="-3.912067981436849">
        <ele>662.005126953125</ele>
        <time>2011-04-21T12:36:49Z</time>
      </trkpt>
      <trkpt lat="31.152787338942289" lon="-3.912995522841811">
        <ele>660.56298828125</ele>
        <time>2011-04-21T12:37:04Z</time>
      </trkpt>
      <trkpt lat="31.150916246697307" lon="-3.91391602344811">
        <ele>659.12109375</ele>
        <time>2011-04-21T12:37:19Z</time>
      </trkpt>
      <trkpt lat="31.149888457730412" lon="-3.914264878258109">
        <ele>659.12109375</ele>
        <time>2011-04-21T12:37:27Z</time>
      </trkpt>
      <trkpt lat="31.148796966299415" lon="-3.914321037009358">
        <ele>667.292236328125</ele>
        <time>2011-04-21T12:37:36Z</time>
      </trkpt>
      <trkpt lat="31.147791892290115" lon="-3.91444475390017">
        <ele>671.6181640625</ele>
        <time>2011-04-21T12:37:44Z</time>
      </trkpt>
      <trkpt lat="31.146069495007396" lon="-3.914508456364274">
        <ele>676.4248046875</ele>
        <time>2011-04-21T12:37:57Z</time>
      </trkpt>
      <trkpt lat="31.14506802521646" lon="-3.914674753323197">
        <ele>677.38623046875</ele>
        <time>2011-04-21T12:38:05Z</time>
      </trkpt>
      <trkpt lat="31.144395377486944" lon="-3.914729151874781">
        <ele>676.4248046875</ele>
        <time>2011-04-21T12:38:12Z</time>
      </trkpt>
      <trkpt lat="31.143634049221873" lon="-3.914739293977618">
        <ele>677.38623046875</ele>
        <time>2011-04-21T12:38:20Z</time>
      </trkpt>
      <trkpt lat="31.142771048471332" lon="-3.914546677842736">
        <ele>676.905517578125</ele>
        <time>2011-04-21T12:38:29Z</time>
      </trkpt>
      <trkpt lat="31.142050037160516" lon="-3.914572997018695">
        <ele>676.905517578125</ele>
        <time>2011-04-21T12:38:36Z</time>
      </trkpt>
      <trkpt lat="31.141259372234344" lon="-3.914624797180295">
        <ele>675.46337890625</ele>
        <time>2011-04-21T12:38:43Z</time>
      </trkpt>
      <trkpt lat="31.140317162498832" lon="-3.914368394762278">
        <ele>679.30859375</ele>
        <time>2011-04-21T12:38:51Z</time>
      </trkpt>
      <trkpt lat="31.139217121526599" lon="-3.914260352030397">
        <ele>682.67333984375</ele>
        <time>2011-04-21T12:39:01Z</time>
      </trkpt>
      <trkpt lat="31.138116577640176" lon="-3.914291029796004">
        <ele>683.634521484375</ele>
        <time>2011-04-21T12:39:11Z</time>
      </trkpt>
      <trkpt lat="31.13678184337914" lon="-3.914296394214034">
        <ele>682.192626953125</ele>
        <time>2011-04-21T12:39:21Z</time>
      </trkpt>
      <trkpt lat="31.135659841820598" lon="-3.91422682441771">
        <ele>682.192626953125</ele>
        <time>2011-04-21T12:39:30Z</time>
      </trkpt>
      <trkpt lat="31.13465191796422" lon="-3.914134874939919">
        <ele>682.67333984375</ele>
        <time>2011-04-21T12:39:39Z</time>
      </trkpt>
      <trkpt lat="31.133640725165606" lon="-3.913723826408386">
        <ele>683.634521484375</ele>
        <time>2011-04-21T12:39:48Z</time>
      </trkpt>
      <trkpt lat="31.132978051900864" lon="-3.913714187219739">
        <ele>682.192626953125</ele>
        <time>2011-04-21T12:39:54Z</time>
      </trkpt>
      <trkpt lat="31.1325410194695" lon="-3.91391895711422">
        <ele>678.828125</ele>
        <time>2011-04-21T12:39:58Z</time>
      </trkpt>
      <trkpt lat="31.13134827464819" lon="-3.914625467732549">
        <ele>673.060302734375</ele>
        <time>2011-04-21T12:40:08Z</time>
      </trkpt>
      <trkpt lat="31.130240187048912" lon="-3.915253523737192">
        <ele>668.253662109375</ele>
        <time>2011-04-21T12:40:17Z</time>
      </trkpt>
      <trkpt lat="31.128934789448977" lon="-3.915719389915466">
        <ele>665.850341796875</ele>
        <time>2011-04-21T12:40:27Z</time>
      </trkpt>
      <trkpt lat="31.127781188115478" lon="-3.915999932214618">
        <ele>664.408203125</ele>
        <time>2011-04-21T12:40:36Z</time>
      </trkpt>
      <trkpt lat="31.126535972580314" lon="-3.916476359590888">
        <ele>661.5244140625</ele>
        <time>2011-04-21T12:40:45Z</time>
      </trkpt>
      <trkpt lat="31.125490497797728" lon="-3.917026296257973">
        <ele>659.601806640625</ele>
        <time>2011-04-21T12:40:54Z</time>
      </trkpt>
      <trkpt lat="31.124999653548002" lon="-3.91717566177249">
        <ele>658.159912109375</ele>
        <time>2011-04-21T12:40:58Z</time>
      </trkpt>
      <trkpt lat="31.124093485996127" lon="-3.917420748621225">
        <ele>657.67919921875</ele>
        <time>2011-04-21T12:41:06Z</time>
      </trkpt>
      <trkpt lat="31.122529674321413" lon="-3.918104963377118">
        <ele>657.198486328125</ele>
        <time>2011-04-21T12:41:18Z</time>
      </trkpt>
      <trkpt lat="31.12113056704402" lon="-3.918704688549042">
        <ele>657.198486328125</ele>
        <time>2011-04-21T12:41:28Z</time>
      </trkpt>
      <trkpt lat="31.119667170569301" lon="-3.91934079118073">
        <ele>659.601806640625</ele>
        <time>2011-04-21T12:41:39Z</time>
      </trkpt>
      <trkpt lat="31.118123224005103" lon="-3.919990975409746">
        <ele>658.640380859375</ele>
        <time>2011-04-21T12:41:51Z</time>
      </trkpt>
      <trkpt lat="31.116563016548753" lon="-3.92068306915462">
        <ele>660.56298828125</ele>
        <time>2011-04-21T12:42:03Z</time>
      </trkpt>
      <trkpt lat="31.114982776343822" lon="-3.921291762962937">
        <ele>659.12109375</ele>
        <time>2011-04-21T12:42:14Z</time>
      </trkpt>
      <trkpt lat="31.113308072090149" lon="-3.921708259731531">
        <ele>660.082275390625</ele>
        <time>2011-04-21T12:42:26Z</time>
      </trkpt>
      <trkpt lat="31.111452151089907" lon="-3.922063652426004">
        <ele>660.082275390625</ele>
        <time>2011-04-21T12:42:38Z</time>
      </trkpt>
      <trkpt lat="31.10970544628799" lon="-3.922522980719805">
        <ele>660.082275390625</ele>
        <time>2011-04-21T12:42:49Z</time>
      </trkpt>
      <trkpt lat="31.108239535242319" lon="-3.923111138865352">
        <ele>657.67919921875</ele>
        <time>2011-04-21T12:42:59Z</time>
      </trkpt>
      <trkpt lat="31.10678544268012" lon="-3.923717737197876">
        <ele>655.756591796875</ele>
        <time>2011-04-21T12:43:09Z</time>
      </trkpt>
      <trkpt lat="31.105319447815418" lon="-3.924349984154105">
        <ele>656.237060546875</ele>
        <time>2011-04-21T12:43:20Z</time>
      </trkpt>
      <trkpt lat="31.10368019901216" lon="-3.925015339627862">
        <ele>656.7177734375</ele>
        <time>2011-04-21T12:43:33Z</time>
      </trkpt>
      <trkpt lat="31.102765733376145" lon="-3.925444325432181">
        <ele>656.237060546875</ele>
        <time>2011-04-21T12:43:41Z</time>
      </trkpt>
      <trkpt lat="31.101757474243641" lon="-3.925800891593099">
        <ele>656.237060546875</ele>
        <time>2011-04-21T12:43:49Z</time>
      </trkpt>
      <trkpt lat="31.099903648719192" lon="-3.926279749721289">
        <ele>660.56298828125</ele>
        <time>2011-04-21T12:44:02Z</time>
      </trkpt>
      <trkpt lat="31.098327180370688" lon="-3.926847288385034">
        <ele>662.005126953125</ele>
        <time>2011-04-21T12:44:13Z</time>
      </trkpt>
      <trkpt lat="31.097088251262903" lon="-3.927375935018063">
        <ele>661.043701171875</ele>
        <time>2011-04-21T12:44:22Z</time>
      </trkpt>
      <trkpt lat="31.095976978540421" lon="-3.928172299638391">
        <ele>662.485595703125</ele>
        <time>2011-04-21T12:44:31Z</time>
      </trkpt>
      <trkpt lat="31.094298250973225" lon="-3.929487336426973">
        <ele>666.8115234375</ele>
        <time>2011-04-21T12:44:45Z</time>
      </trkpt>
      <trkpt lat="31.093104584142566" lon="-3.9305220823735">
        <ele>669.69580078125</ele>
        <time>2011-04-21T12:44:56Z</time>
      </trkpt>
      <trkpt lat="31.092056259512901" lon="-3.931171344593167">
        <ele>666.8115234375</ele>
        <time>2011-04-21T12:45:06Z</time>
      </trkpt>
      <trkpt lat="31.090899389237165" lon="-3.931740056723356">
        <ele>663.447021484375</ele>
        <time>2011-04-21T12:45:16Z</time>
      </trkpt>
      <trkpt lat="31.090227328240871" lon="-3.93238621763885">
        <ele>664.408203125</ele>
        <time>2011-04-21T12:45:23Z</time>
      </trkpt>
      <trkpt lat="31.089461976662278" lon="-3.932907655835152">
        <ele>662.485595703125</ele>
        <time>2011-04-21T12:45:30Z</time>
      </trkpt>
      <trkpt lat="31.087829517200589" lon="-3.933820696547627">
        <ele>660.56298828125</ele>
        <time>2011-04-21T12:45:44Z</time>
      </trkpt>
      <trkpt lat="31.086540631949902" lon="-3.934572553262115">
        <ele>662.96630859375</ele>
        <time>2011-04-21T12:45:54Z</time>
      </trkpt>
      <trkpt lat="31.084796525537968" lon="-3.935357183218002">
        <ele>665.850341796875</ele>
        <time>2011-04-21T12:46:07Z</time>
      </trkpt>
      <trkpt lat="31.083460533991456" lon="-3.935824893414974">
        <ele>666.330810546875</ele>
        <time>2011-04-21T12:46:17Z</time>
      </trkpt>
      <trkpt lat="31.082714041694999" lon="-3.936495445668697">
        <ele>667.292236328125</ele>
        <time>2011-04-21T12:46:24Z</time>
      </trkpt>
      <trkpt lat="31.08175884000957" lon="-3.937188629060984">
        <ele>667.772705078125</ele>
        <time>2011-04-21T12:46:33Z</time>
      </trkpt>
      <trkpt lat="31.08040189370513" lon="-3.937945263460279">
        <ele>668.253662109375</ele>
        <time>2011-04-21T12:46:45Z</time>
      </trkpt>
      <trkpt lat="31.079104878008366" lon="-3.938688151538372">
        <ele>667.292236328125</ele>
        <time>2011-04-21T12:46:56Z</time>
      </trkpt>
      <trkpt lat="31.077757235616446" lon="-3.939655590802431">
        <ele>666.8115234375</ele>
        <time>2011-04-21T12:47:07Z</time>
      </trkpt>
      <trkpt lat="31.076534148305655" lon="-3.940026490017772">
        <ele>665.850341796875</ele>
        <time>2011-04-21T12:47:16Z</time>
      </trkpt>
      <trkpt lat="31.075023477897048" lon="-3.94016713835299">
        <ele>663.447021484375</ele>
        <time>2011-04-21T12:47:27Z</time>
      </trkpt>
      <trkpt lat="31.074179755523801" lon="-3.940497552976012">
        <ele>662.96630859375</ele>
        <time>2011-04-21T12:47:33Z</time>
      </trkpt>
      <trkpt lat="31.073916563764215" lon="-3.940595285966992">
        <ele>662.005126953125</ele>
        <time>2011-04-21T12:47:35Z</time>
      </trkpt>
      <trkpt lat="31.073052389547229" lon="-3.940817322582007">
        <ele>660.082275390625</ele>
        <time>2011-04-21T12:47:42Z</time>
      </trkpt>
      <trkpt lat="31.072945687919855" lon="-3.940891167148948">
        <ele>660.082275390625</ele>
        <time>2011-04-21T12:47:43Z</time>
      </trkpt>
      <trkpt lat="31.072026528418064" lon="-3.941775374114513">
        <ele>662.485595703125</ele>
        <time>2011-04-21T12:47:52Z</time>
      </trkpt>
      <trkpt lat="31.071836678311229" lon="-3.941967068240047">
        <ele>662.96630859375</ele>
        <time>2011-04-21T12:47:54Z</time>
      </trkpt>
      <trkpt lat="31.071159839630127" lon="-3.942546844482422">
        <ele>664.888916015625</ele>
        <time>2011-04-21T12:47:59Z</time>
      </trkpt>
      <trkpt lat="31.070981388911605" lon="-3.944788249209523">
        <ele>674.502197265625</ele>
        <time>2011-04-21T12:48:13Z</time>
      </trkpt>
      <trkpt lat="31.070693470537663" lon="-3.945469949394465">
        <ele>676.905517578125</ele>
        <time>2011-04-21T12:48:19Z</time>
      </trkpt>
      <trkpt lat="31.070387531071901" lon="-3.945813691243529">
        <ele>677.38623046875</ele>
        <time>2011-04-21T12:48:24Z</time>
      </trkpt>
      <trkpt lat="31.07018225826323" lon="-3.94611326046288">
        <ele>676.905517578125</ele>
        <time>2011-04-21T12:48:31Z</time>
      </trkpt>
      <trkpt lat="31.06999265961349" lon="-3.946521542966366">
        <ele>676.905517578125</ele>
        <time>2011-04-21T12:48:37Z</time>
      </trkpt>
      <trkpt lat="31.069898530840874" lon="-3.946724468842149">
        <ele>677.38623046875</ele>
        <time>2011-04-21T12:48:41Z</time>
      </trkpt>
      <trkpt lat="31.069521093741059" lon="-3.947230819612742">
        <ele>678.347412109375</ele>
        <time>2011-04-21T12:48:48Z</time>
      </trkpt>
      <trkpt lat="31.0694585647434" lon="-3.947709342464805">
        <ele>680.750732421875</ele>
        <time>2011-04-21T12:48:53Z</time>
      </trkpt>
      <trkpt lat="31.069523273035884" lon="-3.947941521182656">
        <ele>681.7119140625</ele>
        <time>2011-04-21T12:48:55Z</time>
      </trkpt>
      <trkpt lat="31.069946978241205" lon="-3.949267538264394">
        <ele>685.076904296875</ele>
        <time>2011-04-21T12:49:05Z</time>
      </trkpt>
      <trkpt lat="31.07001562602818" lon="-3.949478259310126">
        <ele>686.0380859375</ele>
        <time>2011-04-21T12:49:07Z</time>
      </trkpt>
      <trkpt lat="31.070017050951719" lon="-3.949966756626964">
        <ele>686.0380859375</ele>
        <time>2011-04-21T12:49:12Z</time>
      </trkpt>
      <trkpt lat="31.069844551384449" lon="-3.950967136770487">
        <ele>683.15380859375</ele>
        <time>2011-04-21T12:49:21Z</time>
      </trkpt>
      <trkpt lat="31.069839186966419" lon="-3.951082639396191">
        <ele>683.634521484375</ele>
        <time>2011-04-21T12:49:22Z</time>
      </trkpt>
      <trkpt lat="31.069813035428524" lon="-3.951794682070613">
        <ele>683.634521484375</ele>
        <time>2011-04-21T12:49:25Z</time>
      </trkpt>
      <trkpt lat="31.070095673203468" lon="-3.952454924583435">
        <ele>683.15380859375</ele>
        <time>2011-04-21T12:49:31Z</time>
      </trkpt>
      <trkpt lat="31.069883778691292" lon="-3.952645780518651">
        <ele>682.192626953125</ele>
        <time>2011-04-21T12:49:34Z</time>
      </trkpt>
      <trkpt lat="31.06927047483623" lon="-3.953258749097586">
        <ele>679.789306640625</ele>
        <time>2011-04-21T12:49:43Z</time>
      </trkpt>
      <trkpt lat="31.068777367472649" lon="-3.953828299418092">
        <ele>679.30859375</ele>
        <time>2011-04-21T12:49:50Z</time>
      </trkpt>
      <trkpt lat="31.068582404404879" lon="-3.954289220273495">
        <ele>680.750732421875</ele>
        <time>2011-04-21T12:49:55Z</time>
      </trkpt>
      <trkpt lat="31.068477630615234" lon="-3.954498767852783">
        <ele>682.192626953125</ele>
        <time>2011-04-21T12:50:02Z</time>
      </trkpt>
      <trkpt lat="31.068584332242608" lon="-3.955264454707503">
        <ele>683.634521484375</ele>
        <time>2011-04-21T12:50:08Z</time>
      </trkpt>
      <trkpt lat="31.06855558231473" lon="-3.955372665077448">
        <ele>683.15380859375</ele>
        <time>2011-04-21T12:50:09Z</time>
      </trkpt>
      <trkpt lat="31.068391380831599" lon="-3.955691093578935">
        <ele>681.7119140625</ele>
        <time>2011-04-21T12:50:13Z</time>
      </trkpt>
      <trkpt lat="31.067861141636968" lon="-3.956420151516795">
        <ele>679.789306640625</ele>
        <time>2011-04-21T12:50:24Z</time>
      </trkpt>
      <trkpt lat="31.06779626570642" lon="-3.956841928884387">
        <ele>680.750732421875</ele>
        <time>2011-04-21T12:50:29Z</time>
      </trkpt>
      <trkpt lat="31.067701131105423" lon="-3.957245098426938">
        <ele>680.750732421875</ele>
        <time>2011-04-21T12:50:35Z</time>
      </trkpt>
      <trkpt lat="31.067509856075048" lon="-3.957536453381181">
        <ele>680.27001953125</ele>
        <time>2011-04-21T12:50:39Z</time>
      </trkpt>
      <trkpt lat="31.06726317666471" lon="-3.957776427268982">
        <ele>678.828125</ele>
        <time>2011-04-21T12:50:43Z</time>
      </trkpt>
      <trkpt lat="31.066805943846703" lon="-3.958115391433239">
        <ele>676.905517578125</ele>
        <time>2011-04-21T12:50:49Z</time>
      </trkpt>
      <trkpt lat="31.066224155947566" lon="-3.958895578980446">
        <ele>676.4248046875</ele>
        <time>2011-04-21T12:50:58Z</time>
      </trkpt>
      <trkpt lat="31.066021397709846" lon="-3.959147538989782">
        <ele>676.905517578125</ele>
        <time>2011-04-21T12:51:01Z</time>
      </trkpt>
      <trkpt lat="31.065730042755604" lon="-3.959741732105613">
        <ele>677.86669921875</ele>
        <time>2011-04-21T12:51:07Z</time>
      </trkpt>
      <trkpt lat="31.065269876271486" lon="-3.960404489189386">
        <ele>677.86669921875</ele>
        <time>2011-04-21T12:51:15Z</time>
      </trkpt>
      <trkpt lat="31.06514934450388" lon="-3.960592327639461">
        <ele>678.347412109375</ele>
        <time>2011-04-21T12:51:17Z</time>
      </trkpt>
      <trkpt lat="31.06482588686049" lon="-3.960867086425424">
        <ele>677.86669921875</ele>
        <time>2011-04-21T12:51:21Z</time>
      </trkpt>
      <trkpt lat="31.063961461186409" lon="-3.961847852915525">
        <ele>679.30859375</ele>
        <time>2011-04-21T12:51:32Z</time>
      </trkpt>
      <trkpt lat="31.063658706843853" lon="-3.962995586916804">
        <ele>678.828125</ele>
        <time>2011-04-21T12:51:40Z</time>
      </trkpt>
      <trkpt lat="31.063204407691956" lon="-3.963501853868365">
        <ele>679.30859375</ele>
        <time>2011-04-21T12:51:47Z</time>
      </trkpt>
      <trkpt lat="31.063129138201475" lon="-3.963580979034305">
        <ele>678.828125</ele>
        <time>2011-04-21T12:51:48Z</time>
      </trkpt>
      <trkpt lat="31.062419861555099" lon="-3.964093783870339">
        <ele>679.30859375</ele>
        <time>2011-04-21T12:51:56Z</time>
      </trkpt>
      <trkpt lat="31.06167814694345" lon="-3.964432580396533">
        <ele>678.828125</ele>
        <time>2011-04-21T12:52:04Z</time>
      </trkpt>
      <trkpt lat="31.061116810888052" lon="-3.96470457315445">
        <ele>680.750732421875</ele>
        <time>2011-04-21T12:52:11Z</time>
      </trkpt>
      <trkpt lat="31.060785055160522" lon="-3.964915545657277">
        <ele>680.750732421875</ele>
        <time>2011-04-21T12:52:15Z</time>
      </trkpt>
      <trkpt lat="31.060518678277731" lon="-3.965065833181143">
        <ele>681.7119140625</ele>
        <time>2011-04-21T12:52:23Z</time>
      </trkpt>
      <trkpt lat="31.060425136238337" lon="-3.965124255046248">
        <ele>681.7119140625</ele>
        <time>2011-04-21T12:52:25Z</time>
      </trkpt>
      <trkpt lat="31.060094637796283" lon="-3.965438241139054">
        <ele>681.2314453125</ele>
        <time>2011-04-21T12:52:31Z</time>
      </trkpt>
      <trkpt lat="31.059650145471096" lon="-3.966228235512972">
        <ele>681.2314453125</ele>
        <time>2011-04-21T12:52:39Z</time>
      </trkpt>
      <trkpt lat="31.059350743889809" lon="-3.967183604836464">
        <ele>683.15380859375</ele>
        <time>2011-04-21T12:52:47Z</time>
      </trkpt>
      <trkpt lat="31.059071877971292" lon="-3.968119444325566">
        <ele>684.115478515625</ele>
        <time>2011-04-21T12:52:53Z</time>
      </trkpt>
      <trkpt lat="31.058508697897196" lon="-3.969288049265742">
        <ele>685.076904296875</ele>
        <time>2011-04-21T12:53:01Z</time>
      </trkpt>
      <trkpt lat="31.058362852782011" lon="-3.969430038705468">
        <ele>684.59619140625</ele>
        <time>2011-04-21T12:53:04Z</time>
      </trkpt>
      <trkpt lat="31.057952893897891" lon="-3.970533013343811">
        <ele>682.67333984375</ele>
        <time>2011-04-21T12:53:14Z</time>
      </trkpt>
      <trkpt lat="31.056966343894601" lon="-3.971579158678651">
        <ele>685.076904296875</ele>
        <time>2011-04-21T12:53:23Z</time>
      </trkpt>
      <trkpt lat="31.056877160444856" lon="-3.972990084439516">
        <ele>687.47998046875</ele>
        <time>2011-04-21T12:53:32Z</time>
      </trkpt>
      <trkpt lat="31.056860229000449" lon="-3.974003456532955">
        <ele>686.999267578125</ele>
        <time>2011-04-21T12:53:39Z</time>
      </trkpt>
      <trkpt lat="31.056748079136014" lon="-3.974322136491537">
        <ele>686.0380859375</ele>
        <time>2011-04-21T12:53:42Z</time>
      </trkpt>
      <trkpt lat="31.05658907443285" lon="-3.975397869944572">
        <ele>685.557373046875</ele>
        <time>2011-04-21T12:53:51Z</time>
      </trkpt>
      <trkpt lat="31.05656853877008" lon="-3.975844457745552">
        <ele>685.557373046875</ele>
        <time>2011-04-21T12:53:55Z</time>
      </trkpt>
      <trkpt lat="31.056749755516648" lon="-3.976626489311457">
        <ele>686.0380859375</ele>
        <time>2011-04-21T12:54:02Z</time>
      </trkpt>
      <trkpt lat="31.057300111278892" lon="-3.977706246078014">
        <ele>687.960693359375</ele>
        <time>2011-04-21T12:54:10Z</time>
      </trkpt>
      <trkpt lat="31.057250155135989" lon="-3.977955942973495">
        <ele>689.402587890625</ele>
        <time>2011-04-21T12:54:13Z</time>
      </trkpt>
      <trkpt lat="31.057208748534322" lon="-3.978170435875654">
        <ele>691.805908203125</ele>
        <time>2011-04-21T12:54:16Z</time>
      </trkpt>
      <trkpt lat="31.057169437408447" lon="-3.97889387793839">
        <ele>688.922119140625</ele>
        <time>2011-04-21T12:54:24Z</time>
      </trkpt>
      <trkpt lat="31.057169437408447" lon="-3.979476084932685">
        <ele>688.44140625</ele>
        <time>2011-04-21T12:54:29Z</time>
      </trkpt>
      <trkpt lat="31.057212352752686" lon="-3.980700010433793">
        <ele>688.922119140625</ele>
        <time>2011-04-21T12:54:39Z</time>
      </trkpt>
      <trkpt lat="31.057177986949682" lon="-3.981342567130923">
        <ele>690.844482421875</ele>
        <time>2011-04-21T12:54:44Z</time>
      </trkpt>
      <trkpt lat="31.057100286707282" lon="-3.98216625675559">
        <ele>694.689697265625</ele>
        <time>2011-04-21T12:54:52Z</time>
      </trkpt>
      <trkpt lat="31.057056616991758" lon="-3.983026575297117">
        <ele>697.57373046875</ele>
        <time>2011-04-21T12:55:00Z</time>
      </trkpt>
      <trkpt lat="31.057019233703613" lon="-3.983905669301748">
        <ele>689.88330078125</ele>
        <time>2011-04-21T12:55:07Z</time>
      </trkpt>
      <trkpt lat="31.056866766884923" lon="-3.985164128243923">
        <ele>686.0380859375</ele>
        <time>2011-04-21T12:55:16Z</time>
      </trkpt>
      <trkpt lat="31.056694686412811" lon="-3.985868627205491">
        <ele>685.076904296875</ele>
        <time>2011-04-21T12:55:22Z</time>
      </trkpt>
      <trkpt lat="31.056306352838874" lon="-3.986713271588087">
        <ele>684.59619140625</ele>
        <time>2011-04-21T12:55:29Z</time>
      </trkpt>
      <trkpt lat="31.055739736184478" lon="-3.987520448863506">
        <ele>684.115478515625</ele>
        <time>2011-04-21T12:55:37Z</time>
      </trkpt>
      <trkpt lat="31.055126516148448" lon="-3.988204160705209">
        <ele>684.115478515625</ele>
        <time>2011-04-21T12:55:45Z</time>
      </trkpt>
      <trkpt lat="31.054687472060323" lon="-3.988800030201674">
        <ele>685.076904296875</ele>
        <time>2011-04-21T12:55:52Z</time>
      </trkpt>
      <trkpt lat="31.054591415449977" lon="-3.988930368795991">
        <ele>685.076904296875</ele>
        <time>2011-04-21T12:55:54Z</time>
      </trkpt>
      <trkpt lat="31.05427642352879" lon="-3.989320881664753">
        <ele>683.634521484375</ele>
        <time>2011-04-21T12:55:59Z</time>
      </trkpt>
      <trkpt lat="31.053402777761221" lon="-3.990125544369221">
        <ele>683.15380859375</ele>
        <time>2011-04-21T12:56:08Z</time>
      </trkpt>
      <trkpt lat="31.052472135052085" lon="-3.990682270377874">
        <ele>684.59619140625</ele>
        <time>2011-04-21T12:56:16Z</time>
      </trkpt>
      <trkpt lat="31.051354743540287" lon="-3.99105241522193">
        <ele>682.192626953125</ele>
        <time>2011-04-21T12:56:24Z</time>
      </trkpt>
      <trkpt lat="31.050235508009791" lon="-3.991426751017571">
        <ele>683.634521484375</ele>
        <time>2011-04-21T12:56:32Z</time>
      </trkpt>
      <trkpt lat="31.049158684909344" lon="-3.992123873904347">
        <ele>680.750732421875</ele>
        <time>2011-04-21T12:56:41Z</time>
      </trkpt>
      <trkpt lat="31.048296689987183" lon="-3.992811189964414">
        <ele>679.30859375</ele>
        <time>2011-04-21T12:56:50Z</time>
      </trkpt>
      <trkpt lat="31.047559753060341" lon="-3.993084020912647">
        <ele>675.944091796875</ele>
        <time>2011-04-21T12:56:58Z</time>
      </trkpt>
      <trkpt lat="31.047444082796574" lon="-3.99385909549892">
        <ele>678.347412109375</ele>
        <time>2011-04-21T12:57:03Z</time>
      </trkpt>
      <trkpt lat="31.047409549355507" lon="-3.994332253932953">
        <ele>679.789306640625</ele>
        <time>2011-04-21T12:57:08Z</time>
      </trkpt>
      <trkpt lat="31.047219950705767" lon="-3.994571473449469">
        <ele>683.634521484375</ele>
        <time>2011-04-21T12:57:13Z</time>
      </trkpt>
      <trkpt lat="31.046953490003943" lon="-3.994722431525588">
        <ele>686.518798828125</ele>
        <time>2011-04-21T12:57:17Z</time>
      </trkpt>
      <trkpt lat="31.046553840860724" lon="-3.994692089036107">
        <ele>688.44140625</ele>
        <time>2011-04-21T12:57:23Z</time>
      </trkpt>
      <trkpt lat="31.046458873897791" lon="-3.99475964717567">
        <ele>688.44140625</ele>
        <time>2011-04-21T12:57:27Z</time>
      </trkpt>
      <trkpt lat="31.046639923006296" lon="-3.994670631363988">
        <ele>688.44140625</ele>
        <time>2011-04-21T12:57:42Z</time>
      </trkpt>
      <trkpt lat="31.046473458409309" lon="-3.994637187570334">
        <ele>686.518798828125</ele>
        <time>2011-04-21T12:57:53Z</time>
      </trkpt>
      <trkpt lat="31.046232562512159" lon="-3.994787894189358">
        <ele>685.076904296875</ele>
        <time>2011-04-21T12:57:59Z</time>
      </trkpt>
      <trkpt lat="31.046289894729853" lon="-3.994972966611385">
        <ele>685.076904296875</ele>
        <time>2011-04-21T12:58:03Z</time>
      </trkpt>
      <trkpt lat="31.046404559165239" lon="-3.995207995176315">
        <ele>684.59619140625</ele>
        <time>2011-04-21T12:58:08Z</time>
      </trkpt>
      <trkpt lat="31.046486450359225" lon="-3.995622647926211">
        <ele>687.47998046875</ele>
        <time>2011-04-21T12:58:15Z</time>
      </trkpt>
      <trkpt lat="31.046555936336517" lon="-3.996222373098135">
        <ele>689.88330078125</ele>
        <time>2011-04-21T12:58:24Z</time>
      </trkpt>
      <trkpt lat="31.046453174203634" lon="-3.996394453570247">
        <ele>689.402587890625</ele>
        <time>2011-04-21T12:58:30Z</time>
      </trkpt>
      <trkpt lat="31.046327194198966" lon="-3.99648598395288">
        <ele>688.922119140625</ele>
        <time>2011-04-21T13:02:03Z</time>
      </trkpt>
      <trkpt lat="31.046587787568569" lon="-3.996448516845703">
        <ele>642.77880859375</ele>
        <time>2011-04-21T13:06:02Z</time>
      </trkpt>
      <trkpt lat="31.046349490061402" lon="-3.996575167402625">
        <ele>734.10400390625</ele>
        <time>2011-04-21T13:20:29Z</time>
      </trkpt>
      <trkpt lat="31.046401122584939" lon="-3.996456144377589">
        <ele>704.78369140625</ele>
        <time>2011-04-21T13:22:47Z</time>
      </trkpt>
      <trkpt lat="31.046557193621993" lon="-3.996366541832686">
        <ele>718.722900390625</ele>
        <time>2011-04-21T13:38:13Z</time>
      </trkpt>
      <trkpt lat="31.046383772045374" lon="-3.996343575417996">
        <ele>740.8330078125</ele>
        <time>2011-04-21T13:57:57Z</time>
      </trkpt>
      <trkpt lat="31.04649106040597" lon="-3.996487241238356">
        <ele>789.379638671875</ele>
        <time>2011-04-21T14:00:52Z</time>
      </trkpt>
      <trkpt lat="31.046309173107147" lon="-3.996364781633019">
        <ele>745.6396484375</ele>
        <time>2011-04-21T14:09:52Z</time>
      </trkpt>
      <trkpt lat="31.046289391815662" lon="-3.996247434988618">
        <ele>722.08740234375</ele>
        <time>2011-04-21T14:13:55Z</time>
      </trkpt>
      <trkpt lat="31.046344041824341" lon="-3.996153054758906">
        <ele>695.17041015625</ele>
        <time>2011-04-21T14:15:47Z</time>
      </trkpt>
      <trkpt lat="31.046595498919487" lon="-3.996365536004305">
        <ele>705.7451171875</ele>
        <time>2011-04-21T14:20:51Z</time>
      </trkpt>
      <trkpt lat="31.046298695728183" lon="-3.996217176318169">
        <ele>767.75</ele>
        <time>2011-04-21T14:52:02Z</time>
      </trkpt>
      <trkpt lat="31.046412689611316" lon="-3.996126232668757">
        <ele>699.015625</ele>
        <time>2011-04-21T15:06:04Z</time>
      </trkpt>
      <trkpt lat="31.046407492831349" lon="-3.99629688821733">
        <ele>717.281005859375</ele>
        <time>2011-04-21T15:09:06Z</time>
      </trkpt>
      <trkpt lat="31.046264078468084" lon="-3.996289176866412">
        <ele>730.7392578125</ele>
        <time>2011-04-21T15:25:29Z</time>
      </trkpt>
      <trkpt lat="31.046098284423351" lon="-3.996352544054389">
        <ele>765.346923828125</ele>
        <time>2011-04-21T15:35:39Z</time>
      </trkpt>
      <trkpt lat="31.045965766534209" lon="-3.996443068608642">
        <ele>750.927001953125</ele>
        <time>2011-04-21T15:41:23Z</time>
      </trkpt>
      <trkpt lat="31.046624584123492" lon="-3.996367882937193">
        <ele>720.164794921875</ele>
        <time>2011-04-21T17:19:52Z</time>
      </trkpt>
      <trkpt lat="31.046757185831666" lon="-3.996383640915155">
        <ele>715.8388671875</ele>
        <time>2011-04-21T17:20:07Z</time>
      </trkpt>
      <trkpt lat="31.046687364578247" lon="-3.995955577120185">
        <ele>714.87744140625</ele>
        <time>2011-04-21T17:20:24Z</time>
      </trkpt>
      <trkpt lat="31.046678479760885" lon="-3.995848624035716">
        <ele>711.99365234375</ele>
        <time>2011-04-21T17:21:29Z</time>
      </trkpt>
      <trkpt lat="31.04670463129878" lon="-3.995707724243403">
        <ele>713.435546875</ele>
        <time>2011-04-21T17:21:54Z</time>
      </trkpt>
      <trkpt lat="31.046666326001287" lon="-3.995586941018701">
        <ele>713.435546875</ele>
        <time>2011-04-21T17:21:57Z</time>
      </trkpt>
      <trkpt lat="31.046598851680756" lon="-3.995293490588665">
        <ele>711.512939453125</ele>
        <time>2011-04-21T17:22:03Z</time>
      </trkpt>
      <trkpt lat="31.046580746769905" lon="-3.995125098153949">
        <ele>712.954833984375</ele>
        <time>2011-04-21T17:22:06Z</time>
      </trkpt>
      <trkpt lat="31.046478152275085" lon="-3.994842544198036">
        <ele>713.916015625</ele>
        <time>2011-04-21T17:22:12Z</time>
      </trkpt>
      <trkpt lat="31.046453090384603" lon="-3.994741374626756">
        <ele>714.396728515625</ele>
        <time>2011-04-21T17:22:14Z</time>
      </trkpt>
      <trkpt lat="31.046445379033685" lon="-3.994463179260492">
        <ele>714.396728515625</ele>
        <time>2011-04-21T17:22:19Z</time>
      </trkpt>
      <trkpt lat="31.046365248039365" lon="-3.99426368996501">
        <ele>714.396728515625</ele>
        <time>2011-04-21T17:22:23Z</time>
      </trkpt>
      <trkpt lat="31.046257959678769" lon="-3.993366826325655">
        <ele>713.916015625</ele>
        <time>2011-04-21T17:22:30Z</time>
      </trkpt>
      <trkpt lat="31.046568090096116" lon="-3.993303207680583">
        <ele>711.99365234375</ele>
        <time>2011-04-21T17:22:37Z</time>
      </trkpt>
      <trkpt lat="31.047160439193249" lon="-3.993177143856883">
        <ele>712.47412109375</ele>
        <time>2011-04-21T17:22:46Z</time>
      </trkpt>
      <trkpt lat="31.047686571255326" lon="-3.993048649281263">
        <ele>712.47412109375</ele>
        <time>2011-04-21T17:22:54Z</time>
      </trkpt>
      <trkpt lat="31.047800062224269" lon="-3.993016295135021">
        <ele>716.319580078125</ele>
        <time>2011-04-21T17:23:00Z</time>
      </trkpt>
      <trkpt lat="31.047506695613265" lon="-3.992303246632218">
        <ele>718.2421875</ele>
        <time>2011-04-21T17:23:03Z</time>
      </trkpt>
      <trkpt lat="31.047331430017948" lon="-3.992237197235227">
        <ele>721.606689453125</ele>
        <time>2011-04-21T17:23:06Z</time>
      </trkpt>
      <trkpt lat="31.047198073938489" lon="-3.992036785930395">
        <ele>724.971435546875</ele>
        <time>2011-04-21T17:23:11Z</time>
      </trkpt>
      <trkpt lat="31.047248365357518" lon="-3.991782227531076">
        <ele>732.181396484375</ele>
        <time>2011-04-21T17:23:18Z</time>
      </trkpt>
      <trkpt lat="31.047175778076053" lon="-3.991680974140763">
        <ele>733.142578125</ele>
        <time>2011-04-21T17:23:20Z</time>
      </trkpt>
      <trkpt lat="31.047087265178561" lon="-3.9915840793401">
        <ele>734.10400390625</ele>
        <time>2011-04-21T17:23:22Z</time>
      </trkpt>
      <trkpt lat="31.046939240768552" lon="-3.991349553689361">
        <ele>737.468505859375</ele>
        <time>2011-04-21T17:23:26Z</time>
      </trkpt>
      <trkpt lat="31.046826420351863" lon="-3.991037327796221">
        <ele>738.429931640625</ele>
        <time>2011-04-21T17:23:33Z</time>
      </trkpt>
      <trkpt lat="31.046779230237007" lon="-3.990854769945145">
        <ele>740.3525390625</ele>
        <time>2011-04-21T17:23:37Z</time>
      </trkpt>
      <trkpt lat="31.046586949378252" lon="-3.990615634247661">
        <ele>743.236328125</ele>
        <time>2011-04-21T17:23:42Z</time>
      </trkpt>
      <trkpt lat="31.04640212841332" lon="-3.990496695041657">
        <ele>746.120361328125</ele>
        <time>2011-04-21T17:23:46Z</time>
      </trkpt>
      <trkpt lat="31.046062745153904" lon="-3.990311119705439">
        <ele>748.523681640625</ele>
        <time>2011-04-21T17:23:53Z</time>
      </trkpt>
      <trkpt lat="31.045978926122189" lon="-3.990130489692092">
        <ele>749.00439453125</ele>
        <time>2011-04-21T17:23:56Z</time>
      </trkpt>
      <trkpt lat="31.045682542026043" lon="-3.98969697766006">
        <ele>751.40771484375</ele>
        <time>2011-04-21T17:24:05Z</time>
      </trkpt>
      <trkpt lat="31.045479029417038" lon="-3.989351475611329">
        <ele>753.330322265625</ele>
        <time>2011-04-21T17:24:12Z</time>
      </trkpt>
      <trkpt lat="31.04548548348248" lon="-3.98913505487144">
        <ele>751.40771484375</ele>
        <time>2011-04-21T17:24:16Z</time>
      </trkpt>
      <trkpt lat="31.045637698844075" lon="-3.988708667457104">
        <ele>745.6396484375</ele>
        <time>2011-04-21T17:24:26Z</time>
      </trkpt>
      <trkpt lat="31.045795697718859" lon="-3.98837766610086">
        <ele>739.39111328125</ele>
        <time>2011-04-21T17:24:36Z</time>
      </trkpt>
      <trkpt lat="31.045829895883799" lon="-3.988100979477167">
        <ele>735.5458984375</ele>
        <time>2011-04-21T17:24:41Z</time>
      </trkpt>
      <trkpt lat="31.045867698267102" lon="-3.987892353907228">
        <ele>733.623291015625</ele>
        <time>2011-04-21T17:24:44Z</time>
      </trkpt>
      <trkpt lat="31.045719338580966" lon="-3.987489184364677">
        <ele>735.5458984375</ele>
        <time>2011-04-21T17:24:50Z</time>
      </trkpt>
      <trkpt lat="31.045539630576968" lon="-3.987303776666522">
        <ele>733.142578125</ele>
        <time>2011-04-21T17:24:55Z</time>
      </trkpt>
      <trkpt lat="31.045385571196675" lon="-3.987238230183721">
        <ele>732.181396484375</ele>
        <time>2011-04-21T17:24:58Z</time>
      </trkpt>
      <trkpt lat="31.045239726081491" lon="-3.987132953479886">
        <ele>731.700439453125</ele>
        <time>2011-04-21T17:25:01Z</time>
      </trkpt>
      <trkpt lat="31.044799843803048" lon="-3.986806394532323">
        <ele>730.258544921875</ele>
        <time>2011-04-21T17:25:09Z</time>
      </trkpt>
      <trkpt lat="31.044610748067498" lon="-3.986689718440175">
        <ele>728.816650390625</ele>
        <time>2011-04-21T17:25:13Z</time>
      </trkpt>
      <trkpt lat="31.044399775564671" lon="-3.986613443121314">
        <ele>727.374755859375</ele>
        <time>2011-04-21T17:25:18Z</time>
      </trkpt>
      <trkpt lat="31.044220486655831" lon="-3.986608330160379">
        <ele>726.413330078125</ele>
        <time>2011-04-21T17:25:25Z</time>
      </trkpt>
      <trkpt lat="31.044182181358337" lon="-3.986489893868566">
        <ele>729.77783203125</ele>
        <time>2011-04-21T17:25:42Z</time>
      </trkpt>
      <trkpt lat="31.043943883851171" lon="-3.986424179747701">
        <ele>728.3359375</ele>
        <time>2011-04-21T17:25:51Z</time>
      </trkpt>
      <trkpt lat="31.043717237189412" lon="-3.986361147835851">
        <ele>728.816650390625</ele>
        <time>2011-04-21T17:25:56Z</time>
      </trkpt>
      <trkpt lat="31.043470893055201" lon="-3.986162329092622">
        <ele>727.374755859375</ele>
        <time>2011-04-21T17:26:01Z</time>
      </trkpt>
      <trkpt lat="31.043017348274589" lon="-3.985680788755417">
        <ele>724.49072265625</ele>
        <time>2011-04-21T17:26:10Z</time>
      </trkpt>
      <trkpt lat="31.042608479037881" lon="-3.985380884259939">
        <ele>723.048828125</ele>
        <time>2011-04-21T17:26:16Z</time>
      </trkpt>
      <trkpt lat="31.042411169037223" lon="-3.985048457980156">
        <ele>721.126220703125</ele>
        <time>2011-04-21T17:26:22Z</time>
      </trkpt>
      <trkpt lat="31.042369594797492" lon="-3.984312526881695">
        <ele>717.761474609375</ele>
        <time>2011-04-21T17:26:33Z</time>
      </trkpt>
      <trkpt lat="31.042308155447245" lon="-3.983770553022623">
        <ele>716.319580078125</ele>
        <time>2011-04-21T17:26:40Z</time>
      </trkpt>
      <trkpt lat="31.042248979210854" lon="-3.983558658510447">
        <ele>716.319580078125</ele>
        <time>2011-04-21T17:26:43Z</time>
      </trkpt>
      <trkpt lat="31.042185360565782" lon="-3.98344743065536">
        <ele>716.319580078125</ele>
        <time>2011-04-21T17:26:45Z</time>
      </trkpt>
      <trkpt lat="31.042152252048254" lon="-3.98304233327508">
        <ele>716.80029296875</ele>
        <time>2011-04-21T17:26:52Z</time>
      </trkpt>
      <trkpt lat="31.041898615658283" lon="-3.982090400531888">
        <ele>715.358154296875</ele>
        <time>2011-04-21T17:27:04Z</time>
      </trkpt>
      <trkpt lat="31.041978495195508" lon="-3.98187548853457">
        <ele>714.87744140625</ele>
        <time>2011-04-21T17:27:09Z</time>
      </trkpt>
      <trkpt lat="31.042068265378475" lon="-3.981606345623732">
        <ele>715.358154296875</ele>
        <time>2011-04-21T17:27:15Z</time>
      </trkpt>
      <trkpt lat="31.042112270370126" lon="-3.981474079191685">
        <ele>716.80029296875</ele>
        <time>2011-04-21T17:27:17Z</time>
      </trkpt>
      <trkpt lat="31.042192820459604" lon="-3.981362851336598">
        <ele>724.010009765625</ele>
        <time>2011-04-21T17:27:21Z</time>
      </trkpt>
      <trkpt lat="31.042408738285303" lon="-3.9811469335109">
        <ele>729.297119140625</ele>
        <time>2011-04-21T17:27:27Z</time>
      </trkpt>
      <trkpt lat="31.042332127690315" lon="-3.980713840574026">
        <ele>734.10400390625</ele>
        <time>2011-04-21T17:27:32Z</time>
      </trkpt>
      <trkpt lat="31.042042784392834" lon="-3.980423072353005">
        <ele>734.584716796875</ele>
        <time>2011-04-21T17:27:38Z</time>
      </trkpt>
      <trkpt lat="31.041951840743423" lon="-3.980395244434476">
        <ele>736.026611328125</ele>
        <time>2011-04-21T17:27:40Z</time>
      </trkpt>
      <trkpt lat="31.041739191859961" lon="-3.980281921103597">
        <ele>741.313720703125</ele>
        <time>2011-04-21T17:27:48Z</time>
      </trkpt>
      <trkpt lat="31.041626622900367" lon="-3.980160551145673">
        <ele>743.236328125</ele>
        <time>2011-04-21T17:27:55Z</time>
      </trkpt>
      <trkpt lat="31.041662748903036" lon="-3.980306228622794">
        <ele>727.374755859375</ele>
        <time>2011-04-21T17:28:47Z</time>
      </trkpt>
      <trkpt lat="31.041740532964468" lon="-3.980419132858515">
        <ele>721.606689453125</ele>
        <time>2011-04-21T17:28:59Z</time>
      </trkpt>
      <trkpt lat="31.04179778136313" lon="-3.980319136753678">
        <ele>722.08740234375</ele>
        <time>2011-04-21T17:29:11Z</time>
      </trkpt>
      <trkpt lat="31.041909847408533" lon="-3.980052759870887">
        <ele>719.20361328125</ele>
        <time>2011-04-21T17:29:21Z</time>
      </trkpt>
      <trkpt lat="31.042030462995172" lon="-3.97988872602582">
        <ele>716.319580078125</ele>
        <time>2011-04-21T17:29:29Z</time>
      </trkpt>
      <trkpt lat="31.042161220684648" lon="-3.979608938097954">
        <ele>711.0322265625</ele>
        <time>2011-04-21T17:29:38Z</time>
      </trkpt>
      <trkpt lat="31.042102128267288" lon="-3.979282882064581">
        <ele>710.551513671875</ele>
        <time>2011-04-21T17:29:46Z</time>
      </trkpt>
      <trkpt lat="31.042017051950097" lon="-3.979049026966095">
        <ele>711.512939453125</ele>
        <time>2011-04-21T17:29:51Z</time>
      </trkpt>
      <trkpt lat="31.041891491040587" lon="-3.978899074718356">
        <ele>711.0322265625</ele>
        <time>2011-04-21T17:29:55Z</time>
      </trkpt>
      <trkpt lat="31.04181244969368" lon="-3.978842999786139">
        <ele>711.0322265625</ele>
        <time>2011-04-21T17:29:57Z</time>
      </trkpt>
      <trkpt lat="31.04173332452774" lon="-3.978736633434892">
        <ele>711.512939453125</ele>
        <time>2011-04-21T17:30:00Z</time>
      </trkpt>
      <trkpt lat="31.041486393660307" lon="-3.978530438616872">
        <ele>710.551513671875</ele>
        <time>2011-04-21T17:30:09Z</time>
      </trkpt>
      <trkpt lat="31.041249856352806" lon="-3.978353329002857">
        <ele>716.80029296875</ele>
        <time>2011-04-21T17:30:15Z</time>
      </trkpt>
      <trkpt lat="31.041057240217924" lon="-3.978068176656961">
        <ele>717.761474609375</ele>
        <time>2011-04-21T17:30:22Z</time>
      </trkpt>
      <trkpt lat="31.0410325974226" lon="-3.977802973240614">
        <ele>716.319580078125</ele>
        <time>2011-04-21T17:30:27Z</time>
      </trkpt>
      <trkpt lat="31.041330154985189" lon="-3.977062264457345">
        <ele>715.8388671875</ele>
        <time>2011-04-21T17:30:36Z</time>
      </trkpt>
      <trkpt lat="31.041607931256294" lon="-3.976191384717822">
        <ele>712.47412109375</ele>
        <time>2011-04-21T17:30:47Z</time>
      </trkpt>
      <trkpt lat="31.041683284565806" lon="-3.975638179108501">
        <ele>710.551513671875</ele>
        <time>2011-04-21T17:30:54Z</time>
      </trkpt>
      <trkpt lat="31.041913954541087" lon="-3.974885065108538">
        <ele>707.667724609375</ele>
        <time>2011-04-21T17:31:03Z</time>
      </trkpt>
      <trkpt lat="31.042004730552435" lon="-3.973970264196396">
        <ele>707.667724609375</ele>
        <time>2011-04-21T17:31:13Z</time>
      </trkpt>
      <trkpt lat="31.041828962042928" lon="-3.97286175750196">
        <ele>707.667724609375</ele>
        <time>2011-04-21T17:31:23Z</time>
      </trkpt>
      <trkpt lat="31.041795182973146" lon="-3.972637625411153">
        <ele>707.667724609375</ele>
        <time>2011-04-21T17:31:25Z</time>
      </trkpt>
      <trkpt lat="31.041588317602873" lon="-3.971661971881986">
        <ele>705.7451171875</ele>
        <time>2011-04-21T17:31:34Z</time>
      </trkpt>
      <trkpt lat="31.041361754760146" lon="-3.970895446836948">
        <ele>703.822509765625</ele>
        <time>2011-04-21T17:31:42Z</time>
      </trkpt>
      <trkpt lat="31.041117925196886" lon="-3.970622951164842">
        <ele>698.534912109375</ele>
        <time>2011-04-21T17:31:46Z</time>
      </trkpt>
      <trkpt lat="31.040908293798566" lon="-3.970438297837973">
        <ele>698.054443359375</ele>
        <time>2011-04-21T17:31:49Z</time>
      </trkpt>
      <trkpt lat="31.040438488125801" lon="-3.970000678673387">
        <ele>692.767333984375</ele>
        <time>2011-04-21T17:31:57Z</time>
      </trkpt>
      <trkpt lat="31.039778832346201" lon="-3.969737151637673">
        <ele>691.805908203125</ele>
        <time>2011-04-21T17:32:04Z</time>
      </trkpt>
      <trkpt lat="31.038692118600011" lon="-3.96948485635221">
        <ele>690.844482421875</ele>
        <time>2011-04-21T17:32:16Z</time>
      </trkpt>
      <trkpt lat="31.037986529991031" lon="-3.969369353726506">
        <ele>687.960693359375</ele>
        <time>2011-04-21T17:32:25Z</time>
      </trkpt>
      <trkpt lat="31.037647733464837" lon="-3.969049835577607">
        <ele>685.076904296875</ele>
        <time>2011-04-21T17:32:30Z</time>
      </trkpt>
      <trkpt lat="31.037227967754006" lon="-3.968348689377308">
        <ele>682.192626953125</ele>
        <time>2011-04-21T17:32:38Z</time>
      </trkpt>
      <trkpt lat="31.036870731040835" lon="-3.968084659427404">
        <ele>679.30859375</ele>
        <time>2011-04-21T17:32:43Z</time>
      </trkpt>
      <trkpt lat="31.035956684499979" lon="-3.967642597854137">
        <ele>674.502197265625</ele>
        <time>2011-04-21T17:32:54Z</time>
      </trkpt>
      <trkpt lat="31.035707155242562" lon="-3.967613680288196">
        <ele>672.57958984375</ele>
        <time>2011-04-21T17:32:57Z</time>
      </trkpt>
      <trkpt lat="31.035301219671965" lon="-3.967323079705238">
        <ele>672.57958984375</ele>
        <time>2011-04-21T17:33:03Z</time>
      </trkpt>
      <trkpt lat="31.035140873864293" lon="-3.966970453038812">
        <ele>672.57958984375</ele>
        <time>2011-04-21T17:33:07Z</time>
      </trkpt>
      <trkpt lat="31.035046074539423" lon="-3.966540461406112">
        <ele>674.021484375</ele>
        <time>2011-04-21T17:33:12Z</time>
      </trkpt>
      <trkpt lat="31.03492135182023" lon="-3.966281125321984">
        <ele>674.502197265625</ele>
        <time>2011-04-21T17:33:16Z</time>
      </trkpt>
      <trkpt lat="31.034659836441278" lon="-3.965757843106985">
        <ele>674.502197265625</ele>
        <time>2011-04-21T17:33:24Z</time>
      </trkpt>
      <trkpt lat="31.034593535587192" lon="-3.965594060719013">
        <ele>674.502197265625</ele>
        <time>2011-04-21T17:33:26Z</time>
      </trkpt>
      <trkpt lat="31.034332355484366" lon="-3.96455948241055">
        <ele>674.502197265625</ele>
        <time>2011-04-21T17:33:38Z</time>
      </trkpt>
      <trkpt lat="31.034018453210592" lon="-3.963402444496751">
        <ele>685.076904296875</ele>
        <time>2011-04-21T17:33:49Z</time>
      </trkpt>
      <trkpt lat="31.034089783206582" lon="-3.963279230520129">
        <ele>685.557373046875</ele>
        <time>2011-04-21T17:33:51Z</time>
      </trkpt>
      <trkpt lat="31.03424702771008" lon="-3.962995754554868">
        <ele>686.0380859375</ele>
        <time>2011-04-21T17:33:58Z</time>
      </trkpt>
      <trkpt lat="31.034666877239943" lon="-3.962298715487123">
        <ele>684.59619140625</ele>
        <time>2011-04-21T17:34:09Z</time>
      </trkpt>
      <trkpt lat="31.035247324034572" lon="-3.961349381133914">
        <ele>685.076904296875</ele>
        <time>2011-04-21T17:34:20Z</time>
      </trkpt>
      <trkpt lat="31.035352349281311" lon="-3.961214181035757">
        <ele>685.076904296875</ele>
        <time>2011-04-21T17:34:24Z</time>
      </trkpt>
      <trkpt lat="31.035531554371119" lon="-3.960958030074835">
        <ele>684.115478515625</ele>
        <time>2011-04-21T17:34:31Z</time>
      </trkpt>
      <trkpt lat="31.03594645857811" lon="-3.960365680977702">
        <ele>683.634521484375</ele>
        <time>2011-04-21T17:34:39Z</time>
      </trkpt>
      <trkpt lat="31.036627572029829" lon="-3.959474265575409">
        <ele>683.15380859375</ele>
        <time>2011-04-21T17:34:50Z</time>
      </trkpt>
      <trkpt lat="31.037200810387731" lon="-3.958877390250564">
        <ele>688.44140625</ele>
        <time>2011-04-21T17:34:58Z</time>
      </trkpt>
      <trkpt lat="31.037923665717244" lon="-3.958371626213193">
        <ele>694.209228515625</ele>
        <time>2011-04-21T17:35:07Z</time>
      </trkpt>
      <trkpt lat="31.038270425051451" lon="-3.958144644275308">
        <ele>697.093017578125</ele>
        <time>2011-04-21T17:35:11Z</time>
      </trkpt>
      <trkpt lat="31.038902923464775" lon="-3.957800064235926">
        <ele>698.054443359375</ele>
        <time>2011-04-21T17:35:19Z</time>
      </trkpt>
      <trkpt lat="31.038986574858427" lon="-3.957725632935762">
        <ele>698.534912109375</ele>
        <time>2011-04-21T17:35:20Z</time>
      </trkpt>
      <trkpt lat="31.039178939536214" lon="-3.957478366792202">
        <ele>699.496337890625</ele>
        <time>2011-04-21T17:35:23Z</time>
      </trkpt>
      <trkpt lat="31.039402568712831" lon="-3.957073520869017">
        <ele>699.97705078125</ele>
        <time>2011-04-21T17:35:28Z</time>
      </trkpt>
      <trkpt lat="31.039563082158566" lon="-3.956360220909119">
        <ele>713.435546875</ele>
        <time>2011-04-21T17:35:35Z</time>
      </trkpt>
      <trkpt lat="31.039509773254395" lon="-3.955389512702823">
        <ele>713.435546875</ele>
        <time>2011-04-21T17:35:45Z</time>
      </trkpt>
      <trkpt lat="31.039535589516163" lon="-3.955021044239402">
        <ele>714.396728515625</ele>
        <time>2011-04-21T17:35:50Z</time>
      </trkpt>
      <trkpt lat="31.039785705506802" lon="-3.954314785078168">
        <ele>712.47412109375</ele>
        <time>2011-04-21T17:35:59Z</time>
      </trkpt>
      <trkpt lat="31.040202956646681" lon="-3.953129583969712">
        <ele>708.62890625</ele>
        <time>2011-04-21T17:36:14Z</time>
      </trkpt>
      <trkpt lat="31.040508896112442" lon="-3.952418211847544">
        <ele>712.47412109375</ele>
        <time>2011-04-21T17:36:23Z</time>
      </trkpt>
      <trkpt lat="31.040699752047658" lon="-3.951951088383794">
        <ele>717.281005859375</ele>
        <time>2011-04-21T17:36:31Z</time>
      </trkpt>
      <trkpt lat="31.04082447476685" lon="-3.951717233285308">
        <ele>712.47412109375</ele>
        <time>2011-04-21T17:36:42Z</time>
      </trkpt>
      <trkpt lat="31.040940647944808" lon="-3.951587229967117">
        <ele>714.87744140625</ele>
        <time>2011-04-21T17:36:49Z</time>
      </trkpt>
      <trkpt lat="31.041140891611576" lon="-3.951353123411536">
        <ele>720.6455078125</ele>
        <time>2011-04-21T17:36:59Z</time>
      </trkpt>
      <trkpt lat="31.041284473612905" lon="-3.951123543083668">
        <ele>731.219970703125</ele>
        <time>2011-04-21T17:37:41Z</time>
      </trkpt>
      <trkpt lat="31.041638189926744" lon="-3.950492972508073">
        <ele>727.374755859375</ele>
        <time>2011-04-21T17:37:53Z</time>
      </trkpt>
      <trkpt lat="31.041905404999852" lon="-3.950117295607925">
        <ele>724.971435546875</ele>
        <time>2011-04-21T17:37:59Z</time>
      </trkpt>
      <trkpt lat="31.042384179309011" lon="-3.949373988434672">
        <ele>726.413330078125</ele>
        <time>2011-04-21T17:38:10Z</time>
      </trkpt>
      <trkpt lat="31.042799251154065" lon="-3.948654737323523">
        <ele>732.662109375</ele>
        <time>2011-04-21T17:38:21Z</time>
      </trkpt>
      <trkpt lat="31.043289843946695" lon="-3.948037577793002">
        <ele>736.026611328125</ele>
        <time>2011-04-21T17:38:31Z</time>
      </trkpt>
      <trkpt lat="31.043773731216788" lon="-3.947325283661485">
        <ele>738.91064453125</ele>
        <time>2011-04-21T17:38:43Z</time>
      </trkpt>
      <trkpt lat="31.044121664017439" lon="-3.946875426918268">
        <ele>741.313720703125</ele>
        <time>2011-04-21T17:38:52Z</time>
      </trkpt>
      <trkpt lat="31.043815389275551" lon="-3.946043774485588">
        <ele>743.717041015625</ele>
        <time>2011-04-21T17:39:00Z</time>
      </trkpt>
      <trkpt lat="31.043698126450181" lon="-3.946013180539012">
        <ele>744.67822265625</ele>
        <time>2011-04-21T17:39:18Z</time>
      </trkpt>
      <trkpt lat="31.043770126998425" lon="-3.946285089477897">
        <ele>747.562255859375</ele>
        <time>2011-04-21T17:39:28Z</time>
      </trkpt>
      <trkpt lat="31.044206656515598" lon="-3.946765456348658">
        <ele>738.91064453125</ele>
        <time>2011-04-21T17:39:55Z</time>
      </trkpt>
      <trkpt lat="31.043848497793078" lon="-3.947216318920255">
        <ele>740.3525390625</ele>
        <time>2011-04-21T17:40:03Z</time>
      </trkpt>
      <trkpt lat="31.043320270255208" lon="-3.947992566972971">
        <ele>738.91064453125</ele>
        <time>2011-04-21T17:40:14Z</time>
      </trkpt>
      <trkpt lat="31.042711576446891" lon="-3.948811227455735">
        <ele>740.8330078125</ele>
        <time>2011-04-21T17:40:26Z</time>
      </trkpt>
      <trkpt lat="31.042199525982141" lon="-3.949660565704107">
        <ele>742.755859375</ele>
        <time>2011-04-21T17:40:38Z</time>
      </trkpt>
      <trkpt lat="31.041993079707026" lon="-3.949986537918448">
        <ele>746.120361328125</ele>
        <time>2011-04-21T17:40:42Z</time>
      </trkpt>
      <trkpt lat="31.041451776400208" lon="-3.950823219493032">
        <ele>748.523681640625</ele>
        <time>2011-04-21T17:40:53Z</time>
      </trkpt>
      <trkpt lat="31.041273828595877" lon="-3.951143072918057">
        <ele>749.485107421875</ele>
        <time>2011-04-21T17:40:57Z</time>
      </trkpt>
      <trkpt lat="31.041083643212914" lon="-3.951428728178144">
        <ele>751.888427734375</ele>
        <time>2011-04-21T17:41:01Z</time>
      </trkpt>
      <trkpt lat="31.040847357362509" lon="-3.951680604368448">
        <ele>752.849609375</ele>
        <time>2011-04-21T17:41:05Z</time>
      </trkpt>
      <trkpt lat="31.040632864460349" lon="-3.952092910185456">
        <ele>755.2529296875</ele>
        <time>2011-04-21T17:41:12Z</time>
      </trkpt>
      <trkpt lat="31.04037394747138" lon="-3.952761618420482">
        <ele>753.81103515625</ele>
        <time>2011-04-21T17:41:21Z</time>
      </trkpt>
      <trkpt lat="31.040113940834999" lon="-3.953367043286562">
        <ele>754.291748046875</ele>
        <time>2011-04-21T17:41:32Z</time>
      </trkpt>
      <trkpt lat="31.039835326373577" lon="-3.954166006296873">
        <ele>748.523681640625</ele>
        <time>2011-04-21T17:41:43Z</time>
      </trkpt>
      <trkpt lat="31.039589988067746" lon="-3.954844353720546">
        <ele>743.236328125</ele>
        <time>2011-04-21T17:41:55Z</time>
      </trkpt>
      <trkpt lat="31.039522429928184" lon="-3.955176193267107">
        <ele>741.313720703125</ele>
        <time>2011-04-21T17:42:02Z</time>
      </trkpt>
      <trkpt lat="31.039509773254395" lon="-3.955751527100802">
        <ele>739.39111328125</ele>
        <time>2011-04-21T17:42:12Z</time>
      </trkpt>
      <trkpt lat="31.039564507082105" lon="-3.956384276971221">
        <ele>740.8330078125</ele>
        <time>2011-04-21T17:42:22Z</time>
      </trkpt>
      <trkpt lat="31.039522010833025" lon="-3.956735478714109">
        <ele>739.39111328125</ele>
        <time>2011-04-21T17:42:27Z</time>
      </trkpt>
      <trkpt lat="31.03948219679296" lon="-3.956886855885387">
        <ele>739.39111328125</ele>
        <time>2011-04-21T17:42:29Z</time>
      </trkpt>
      <trkpt lat="31.039420086890459" lon="-3.95703848451376">
        <ele>738.91064453125</ele>
        <time>2011-04-21T17:42:31Z</time>
      </trkpt>
      <trkpt lat="31.039269883185625" lon="-3.957320954650641">
        <ele>738.429931640625</ele>
        <time>2011-04-21T17:42:35Z</time>
      </trkpt>
      <trkpt lat="31.039091516286135" lon="-3.957620691508055">
        <ele>736.98779296875</ele>
        <time>2011-04-21T17:42:39Z</time>
      </trkpt>
      <trkpt lat="31.038721036165953" lon="-3.957920847460628">
        <ele>734.10400390625</ele>
        <time>2011-04-21T17:42:45Z</time>
      </trkpt>
      <trkpt lat="31.038455162197351" lon="-3.958077421411872">
        <ele>734.10400390625</ele>
        <time>2011-04-21T17:42:49Z</time>
      </trkpt>
      <trkpt lat="31.037589143961668" lon="-3.95863875746727">
        <ele>724.010009765625</ele>
        <time>2011-04-21T17:43:02Z</time>
      </trkpt>
      <trkpt lat="31.036896547302604" lon="-3.959114262834191">
        <ele>721.126220703125</ele>
        <time>2011-04-21T17:43:13Z</time>
      </trkpt>
      <trkpt lat="31.036528581753373" lon="-3.959589768201113">
        <ele>720.6455078125</ele>
        <time>2011-04-21T17:43:20Z</time>
      </trkpt>
      <trkpt lat="31.035914858803153" lon="-3.960407758131623">
        <ele>718.2421875</ele>
        <time>2011-04-21T17:43:30Z</time>
      </trkpt>
      <trkpt lat="31.035693744197488" lon="-3.960716295987368">
        <ele>717.281005859375</ele>
        <time>2011-04-21T17:43:34Z</time>
      </trkpt>
      <trkpt lat="31.03541093878448" lon="-3.961132122203708">
        <ele>716.319580078125</ele>
        <time>2011-04-21T17:43:39Z</time>
      </trkpt>
      <trkpt lat="31.034855218604207" lon="-3.9619873277843">
        <ele>707.667724609375</ele>
        <time>2011-04-21T17:43:50Z</time>
      </trkpt>
      <trkpt lat="31.034462694078684" lon="-3.962611444294453">
        <ele>708.62890625</ele>
        <time>2011-04-21T17:43:57Z</time>
      </trkpt>
      <trkpt lat="31.034319279715419" lon="-3.962860386818647">
        <ele>709.109619140625</ele>
        <time>2011-04-21T17:44:00Z</time>
      </trkpt>
      <trkpt lat="31.033914517611265" lon="-3.963576201349497">
        <ele>709.109619140625</ele>
        <time>2011-04-21T17:44:08Z</time>
      </trkpt>
      <trkpt lat="31.0336450394243" lon="-3.964003846049309">
        <ele>709.109619140625</ele>
        <time>2011-04-21T17:44:13Z</time>
      </trkpt>
      <trkpt lat="31.033293083310127" lon="-3.964695017784834">
        <ele>710.07080078125</ele>
        <time>2011-04-21T17:44:22Z</time>
      </trkpt>
      <trkpt lat="31.032955795526505" lon="-3.965545110404491">
        <ele>706.2255859375</ele>
        <time>2011-04-21T17:44:32Z</time>
      </trkpt>
      <trkpt lat="31.032898128032684" lon="-3.96573412232101">
        <ele>705.7451171875</ele>
        <time>2011-04-21T17:44:34Z</time>
      </trkpt>
      <trkpt lat="31.032776003703475" lon="-3.966063447296619">
        <ele>704.78369140625</ele>
        <time>2011-04-21T17:44:38Z</time>
      </trkpt>
      <trkpt lat="31.032620100304484" lon="-3.966339463368058">
        <ele>704.30322265625</ele>
        <time>2011-04-21T17:44:42Z</time>
      </trkpt>
      <trkpt lat="31.032155910506845" lon="-3.967022420838475">
        <ele>702.38037109375</ele>
        <time>2011-04-21T17:44:51Z</time>
      </trkpt>
      <trkpt lat="31.031449316069484" lon="-3.96789338439703">
        <ele>702.38037109375</ele>
        <time>2011-04-21T17:45:01Z</time>
      </trkpt>
      <trkpt lat="31.031231805682182" lon="-3.968258500099182">
        <ele>701.89990234375</ele>
        <time>2011-04-21T17:45:05Z</time>
      </trkpt>
      <trkpt lat="31.031080931425095" lon="-3.968650354072452">
        <ele>701.419189453125</ele>
        <time>2011-04-21T17:45:09Z</time>
      </trkpt>
      <trkpt lat="31.030918071046472" lon="-3.969426518306136">
        <ele>698.054443359375</ele>
        <time>2011-04-21T17:45:17Z</time>
      </trkpt>
      <trkpt lat="31.030876915901899" lon="-3.969706976786256">
        <ele>696.612548828125</ele>
        <time>2011-04-21T17:45:23Z</time>
      </trkpt>
      <trkpt lat="31.030771974474192" lon="-3.970121294260025">
        <ele>639.894775390625</ele>
        <time>2011-04-21T17:47:23Z</time>
      </trkpt>
      <trkpt lat="31.030629314482212" lon="-3.97063409909606">
        <ele>640.37548828125</ele>
        <time>2011-04-21T17:47:30Z</time>
      </trkpt>
      <trkpt lat="31.030566366389394" lon="-3.970783883705735">
        <ele>641.336669921875</ele>
        <time>2011-04-21T17:47:32Z</time>
      </trkpt>
      <trkpt lat="31.030494198203087" lon="-3.970946660265327">
        <ele>643.25927734375</ele>
        <time>2011-04-21T17:47:34Z</time>
      </trkpt>
      <trkpt lat="31.03005507029593" lon="-3.971837237477303">
        <ele>646.6240234375</ele>
        <time>2011-04-21T17:47:44Z</time>
      </trkpt>
      <trkpt lat="31.029336405918002" lon="-3.973038699477911">
        <ele>647.1044921875</ele>
        <time>2011-04-21T17:47:56Z</time>
      </trkpt>
      <trkpt lat="31.028494024649262" lon="-3.974614916369319">
        <ele>651.9111328125</ele>
        <time>2011-04-21T17:48:10Z</time>
      </trkpt>
      <trkpt lat="31.027880217880011" lon="-3.975580092519522">
        <ele>652.87255859375</ele>
        <time>2011-04-21T17:48:20Z</time>
      </trkpt>
      <trkpt lat="31.027290467172861" lon="-3.976352484896779">
        <ele>655.27587890625</ele>
        <time>2011-04-21T17:48:28Z</time>
      </trkpt>
      <trkpt lat="31.026460574939847" lon="-3.977297879755497">
        <ele>662.005126953125</ele>
        <time>2011-04-21T17:48:38Z</time>
      </trkpt>
      <trkpt lat="31.025826232507825" lon="-3.978125844150782">
        <ele>665.36962890625</ele>
        <time>2011-04-21T17:48:46Z</time>
      </trkpt>
      <trkpt lat="31.02489517070353" lon="-3.979242481291294">
        <ele>669.69580078125</ele>
        <time>2011-04-21T17:48:57Z</time>
      </trkpt>
      <trkpt lat="31.024222187697887" lon="-3.980132387951016">
        <ele>671.6181640625</ele>
        <time>2011-04-21T17:49:06Z</time>
      </trkpt>
      <trkpt lat="31.023957822471857" lon="-3.980471603572369">
        <ele>672.098876953125</ele>
        <time>2011-04-21T17:49:10Z</time>
      </trkpt>
      <trkpt lat="31.023325826972723" lon="-3.980849292129278">
        <ele>675.46337890625</ele>
        <time>2011-04-21T17:49:17Z</time>
      </trkpt>
      <trkpt lat="31.023229183629155" lon="-3.980859937146306">
        <ele>675.944091796875</ele>
        <time>2011-04-21T17:49:18Z</time>
      </trkpt>
      <trkpt lat="31.022272389382124" lon="-3.980978960171342">
        <ele>679.789306640625</ele>
        <time>2011-04-21T17:49:28Z</time>
      </trkpt>
      <trkpt lat="31.02207088842988" lon="-3.981028078123927">
        <ele>680.27001953125</ele>
        <time>2011-04-21T17:49:30Z</time>
      </trkpt>
      <trkpt lat="31.021249126642942" lon="-3.981578350067139">
        <ele>680.750732421875</ele>
        <time>2011-04-21T17:49:38Z</time>
      </trkpt>
      <trkpt lat="31.020787199959159" lon="-3.981710867956281">
        <ele>683.634521484375</ele>
        <time>2011-04-21T17:49:42Z</time>
      </trkpt>
      <trkpt lat="31.020559631288052" lon="-3.981727212667465">
        <ele>685.557373046875</ele>
        <time>2011-04-21T17:49:44Z</time>
      </trkpt>
      <trkpt lat="31.020348994061351" lon="-3.981771133840084">
        <ele>687.960693359375</ele>
        <time>2011-04-21T17:49:46Z</time>
      </trkpt>
      <trkpt lat="31.019825376570225" lon="-3.981757806614041">
        <ele>690.364013671875</ele>
        <time>2011-04-21T17:49:51Z</time>
      </trkpt>
      <trkpt lat="31.019302681088448" lon="-3.981543397530913">
        <ele>693.728515625</ele>
        <time>2011-04-21T17:49:58Z</time>
      </trkpt>
      <trkpt lat="31.019174521788955" lon="-3.981471480801702">
        <ele>693.728515625</ele>
        <time>2011-04-21T17:50:01Z</time>
      </trkpt>
      <trkpt lat="31.019288850948215" lon="-3.981535099446774">
        <ele>692.28662109375</ele>
        <time>2011-04-21T17:50:14Z</time>
      </trkpt>
      <trkpt lat="31.0190599411726" lon="-3.982280837371945">
        <ele>692.28662109375</ele>
        <time>2011-04-21T17:50:17Z</time>
      </trkpt>
      <trkpt lat="31.018992634490132" lon="-3.982842424884439">
        <ele>687.47998046875</ele>
        <time>2011-04-21T17:50:25Z</time>
      </trkpt>
      <trkpt lat="31.018825080245733" lon="-3.983394373208284">
        <ele>688.44140625</ele>
        <time>2011-04-21T17:50:33Z</time>
      </trkpt>
      <trkpt lat="31.018661130219698" lon="-3.983958894386888">
        <ele>689.88330078125</ele>
        <time>2011-04-21T17:50:42Z</time>
      </trkpt>
      <trkpt lat="31.018647719174623" lon="-3.984348988160491">
        <ele>690.364013671875</ele>
        <time>2011-04-21T17:50:48Z</time>
      </trkpt>
      <trkpt lat="31.018515536561608" lon="-3.984675798565149">
        <ele>690.364013671875</ele>
        <time>2011-04-21T17:50:54Z</time>
      </trkpt>
      <trkpt lat="31.018367428332567" lon="-3.984735561534762">
        <ele>691.3251953125</ele>
        <time>2011-04-21T17:50:57Z</time>
      </trkpt>
      <trkpt lat="31.018075151368976" lon="-3.984700692817569">
        <ele>693.247802734375</ele>
        <time>2011-04-21T17:51:02Z</time>
      </trkpt>
      <trkpt lat="31.017841380089521" lon="-3.984555182978511">
        <ele>694.689697265625</ele>
        <time>2011-04-21T17:51:07Z</time>
      </trkpt>
      <trkpt lat="31.01768103428185" lon="-3.984467256814241">
        <ele>697.093017578125</ele>
        <time>2011-04-21T17:51:14Z</time>
      </trkpt>
      <trkpt lat="31.017467379570007" lon="-3.984592733904719">
        <ele>703.341796875</ele>
        <time>2011-04-21T17:52:56Z</time>
      </trkpt>
      <trkpt lat="31.017356151714921" lon="-3.98489473387599">
        <ele>703.341796875</ele>
        <time>2011-04-21T17:53:02Z</time>
      </trkpt>
      <trkpt lat="31.017480455338955" lon="-3.98505792953074">
        <ele>703.341796875</ele>
        <time>2011-04-21T17:53:06Z</time>
      </trkpt>
      <trkpt lat="31.017803577706218" lon="-3.985226489603519">
        <ele>702.861083984375</ele>
        <time>2011-04-21T17:53:12Z</time>
      </trkpt>
      <trkpt lat="31.018042294308543" lon="-3.985270578414202">
        <ele>701.419189453125</ele>
        <time>2011-04-21T17:53:18Z</time>
      </trkpt>
      <trkpt lat="31.018238766118884" lon="-3.985119368880987">
        <ele>700.9384765625</ele>
        <time>2011-04-21T17:53:23Z</time>
      </trkpt>
      <trkpt lat="31.018568929284811" lon="-3.984758863225579">
        <ele>701.419189453125</ele>
        <time>2011-04-21T17:53:30Z</time>
      </trkpt>
      <trkpt lat="31.018641935661435" lon="-3.984562894329429">
        <ele>701.419189453125</ele>
        <time>2011-04-21T17:53:33Z</time>
      </trkpt>
      <trkpt lat="31.018697172403336" lon="-3.984347647055984">
        <ele>701.89990234375</ele>
        <time>2011-04-21T17:53:36Z</time>
      </trkpt>
      <trkpt lat="31.018751487135887" lon="-3.983718333765864">
        <ele>702.861083984375</ele>
        <time>2011-04-21T17:53:44Z</time>
      </trkpt>
      <trkpt lat="31.018920466303825" lon="-3.983235117048025">
        <ele>703.822509765625</ele>
        <time>2011-04-21T17:53:51Z</time>
      </trkpt>
      <trkpt lat="31.019255323335528" lon="-3.982493486255407">
        <ele>702.38037109375</ele>
        <time>2011-04-21T17:54:01Z</time>
      </trkpt>
      <trkpt lat="31.019358420744538" lon="-3.982300283387303">
        <ele>702.38037109375</ele>
        <time>2011-04-21T17:54:05Z</time>
      </trkpt>
      <trkpt lat="31.01966293528676" lon="-3.981723943725228">
        <ele>700.4580078125</ele>
        <time>2011-04-21T17:54:09Z</time>
      </trkpt>
      <trkpt lat="31.019224980846047" lon="-3.981498554348946">
        <ele>703.822509765625</ele>
        <time>2011-04-21T17:54:23Z</time>
      </trkpt>
      <trkpt lat="31.018781661987305" lon="-3.981127738952637">
        <ele>706.2255859375</ele>
        <time>2011-04-21T17:54:30Z</time>
      </trkpt>
      <trkpt lat="31.018328033387661" lon="-3.98096077144146">
        <ele>707.667724609375</ele>
        <time>2011-04-21T17:54:36Z</time>
      </trkpt>
      <trkpt lat="31.01719924248755" lon="-3.98077704012394">
        <ele>704.78369140625</ele>
        <time>2011-04-21T17:54:48Z</time>
      </trkpt>
      <trkpt lat="31.016706554219127" lon="-3.980659274384379">
        <ele>705.7451171875</ele>
        <time>2011-04-21T17:54:54Z</time>
      </trkpt>
      <trkpt lat="31.016332553699613" lon="-3.9804907143116">
        <ele>705.7451171875</ele>
        <time>2011-04-21T17:54:59Z</time>
      </trkpt>
      <trkpt lat="31.016104817390442" lon="-3.980229534208775">
        <ele>707.18701171875</ele>
        <time>2011-04-21T17:55:04Z</time>
      </trkpt>
      <trkpt lat="31.015751520171762" lon="-3.979794848710299">
        <ele>709.59033203125</ele>
        <time>2011-04-21T17:55:11Z</time>
      </trkpt>
      <trkpt lat="31.015650099143386" lon="-3.979719579219818">
        <ele>710.07080078125</ele>
        <time>2011-04-21T17:55:13Z</time>
      </trkpt>
      <trkpt lat="31.015466786921024" lon="-3.979591252282262">
        <ele>709.59033203125</ele>
        <time>2011-04-21T17:55:16Z</time>
      </trkpt>
      <trkpt lat="31.015056408941746" lon="-3.979169055819511">
        <ele>710.551513671875</ele>
        <time>2011-04-21T17:55:22Z</time>
      </trkpt>
      <trkpt lat="31.014298014342785" lon="-3.978718025609851">
        <ele>710.551513671875</ele>
        <time>2011-04-21T17:55:32Z</time>
      </trkpt>
      <trkpt lat="31.01400950923562" lon="-3.978573773056269">
        <ele>710.07080078125</ele>
        <time>2011-04-21T17:55:36Z</time>
      </trkpt>
      <trkpt lat="31.013689152896404" lon="-3.978414852172136">
        <ele>710.07080078125</ele>
        <time>2011-04-21T17:55:41Z</time>
      </trkpt>
      <trkpt lat="31.013428224250674" lon="-3.97827529348433">
        <ele>711.0322265625</ele>
        <time>2011-04-21T17:55:45Z</time>
      </trkpt>
      <trkpt lat="31.013157488778234" lon="-3.978124838322401">
        <ele>711.99365234375</ele>
        <time>2011-04-21T17:55:49Z</time>
      </trkpt>
      <trkpt lat="31.012576622888446" lon="-3.977781180292368">
        <ele>714.87744140625</ele>
        <time>2011-04-21T17:55:57Z</time>
      </trkpt>
      <trkpt lat="31.01193917915225" lon="-3.977355044335127">
        <ele>717.281005859375</ele>
        <time>2011-04-21T17:56:07Z</time>
      </trkpt>
      <trkpt lat="31.011752597987652" lon="-3.977233758196235">
        <ele>717.761474609375</ele>
        <time>2011-04-21T17:56:10Z</time>
      </trkpt>
      <trkpt lat="31.011141305789351" lon="-3.976840814575553">
        <ele>717.281005859375</ele>
        <time>2011-04-21T17:56:19Z</time>
      </trkpt>
      <trkpt lat="31.010273862630129" lon="-3.976327674463391">
        <ele>722.08740234375</ele>
        <time>2011-04-21T17:56:31Z</time>
      </trkpt>
      <trkpt lat="31.01000371389091" lon="-3.976248046383262">
        <ele>722.568115234375</ele>
        <time>2011-04-21T17:56:35Z</time>
      </trkpt>
      <trkpt lat="31.009338442236185" lon="-3.976013101637363">
        <ele>718.722900390625</ele>
        <time>2011-04-21T17:56:43Z</time>
      </trkpt>
      <trkpt lat="31.008889004588127" lon="-3.975874884054065">
        <ele>718.2421875</ele>
        <time>2011-04-21T17:56:48Z</time>
      </trkpt>
      <trkpt lat="31.008152151480317" lon="-3.975736582651734">
        <ele>717.281005859375</ele>
        <time>2011-04-21T17:56:57Z</time>
      </trkpt>
      <trkpt lat="31.007346818223596" lon="-3.975691320374608">
        <ele>719.20361328125</ele>
        <time>2011-04-21T17:57:06Z</time>
      </trkpt>
      <trkpt lat="31.006352892145514" lon="-3.975642453879118">
        <ele>717.761474609375</ele>
        <time>2011-04-21T17:57:17Z</time>
      </trkpt>
      <trkpt lat="31.005423590540886" lon="-3.975586211308837">
        <ele>715.8388671875</ele>
        <time>2011-04-21T17:57:28Z</time>
      </trkpt>
      <trkpt lat="31.00488094612956" lon="-3.975546481087804">
        <ele>712.47412109375</ele>
        <time>2011-04-21T17:57:36Z</time>
      </trkpt>
      <trkpt lat="31.003923648968339" lon="-3.975440366193652">
        <ele>711.512939453125</ele>
        <time>2011-04-21T17:57:48Z</time>
      </trkpt>
      <trkpt lat="31.003208421170712" lon="-3.975348584353924">
        <ele>711.99365234375</ele>
        <time>2011-04-21T17:57:57Z</time>
      </trkpt>
      <trkpt lat="31.002769041806459" lon="-3.975318409502506">
        <ele>714.396728515625</ele>
        <time>2011-04-21T17:58:04Z</time>
      </trkpt>
      <trkpt lat="31.002175351604819" lon="-3.975248672068119">
        <ele>714.396728515625</ele>
        <time>2011-04-21T17:58:13Z</time>
      </trkpt>
      <trkpt lat="31.001957589760423" lon="-3.975191675126553">
        <ele>717.281005859375</ele>
        <time>2011-04-21T17:58:39Z</time>
      </trkpt>
      <trkpt lat="31.001424249261618" lon="-3.975037280470133">
        <ele>717.281005859375</ele>
        <time>2011-04-21T17:58:46Z</time>
      </trkpt>
      <trkpt lat="31.001164745539427" lon="-3.974926471710205">
        <ele>717.761474609375</ele>
        <time>2011-04-21T17:58:49Z</time>
      </trkpt>
      <trkpt lat="31.00045588798821" lon="-3.974606199190021">
        <ele>718.722900390625</ele>
        <time>2011-04-21T17:58:58Z</time>
      </trkpt>
      <trkpt lat="31.000036960467696" lon="-3.974444596096873">
        <ele>719.20361328125</ele>
        <time>2011-04-21T17:59:03Z</time>
      </trkpt>
      <trkpt lat="30.999362384900451" lon="-3.97422012872994">
        <ele>718.722900390625</ele>
        <time>2011-04-21T17:59:11Z</time>
      </trkpt>
      <trkpt lat="30.998273156583309" lon="-3.973928689956665">
        <ele>715.358154296875</ele>
        <time>2011-04-21T17:59:23Z</time>
      </trkpt>
      <trkpt lat="30.997392386198044" lon="-3.973669437691569">
        <ele>716.319580078125</ele>
        <time>2011-04-21T17:59:33Z</time>
      </trkpt>
      <trkpt lat="30.996536174789071" lon="-3.973394762724638">
        <ele>715.8388671875</ele>
        <time>2011-04-21T17:59:43Z</time>
      </trkpt>
      <trkpt lat="30.995825724676251" lon="-3.973564831539989">
        <ele>713.916015625</ele>
        <time>2011-04-21T17:59:51Z</time>
      </trkpt>
      <trkpt lat="30.995027851313353" lon="-3.973682429641485">
        <ele>714.87744140625</ele>
        <time>2011-04-21T17:59:58Z</time>
      </trkpt>
      <trkpt lat="30.993905430659652" lon="-3.973743449896574">
        <ele>715.8388671875</ele>
        <time>2011-04-21T18:00:06Z</time>
      </trkpt>
      <trkpt lat="30.991812720894814" lon="-3.973741354420781">
        <ele>714.87744140625</ele>
        <time>2011-04-21T18:00:20Z</time>
      </trkpt>
      <trkpt lat="30.99058167077601" lon="-3.973911926150322">
        <ele>714.396728515625</ele>
        <time>2011-04-21T18:00:28Z</time>
      </trkpt>
      <trkpt lat="30.989137049764395" lon="-3.974240748211741">
        <ele>716.319580078125</ele>
        <time>2011-04-21T18:00:38Z</time>
      </trkpt>
      <trkpt lat="30.987844141200185" lon="-3.974601337686181">
        <ele>717.761474609375</ele>
        <time>2011-04-21T18:00:49Z</time>
      </trkpt>
      <trkpt lat="30.987546667456627" lon="-3.974733268842101">
        <ele>716.80029296875</ele>
        <time>2011-04-21T18:00:52Z</time>
      </trkpt>
      <trkpt lat="30.986721469089389" lon="-3.975104838609695">
        <ele>710.551513671875</ele>
        <time>2011-04-21T18:01:01Z</time>
      </trkpt>
      <trkpt lat="30.986073799431324" lon="-3.975383369252086">
        <ele>709.59033203125</ele>
        <time>2011-04-21T18:01:08Z</time>
      </trkpt>
      <trkpt lat="30.985700888559222" lon="-3.975791148841381">
        <ele>709.109619140625</ele>
        <time>2011-04-21T18:01:13Z</time>
      </trkpt>
      <trkpt lat="30.98553123883903" lon="-3.97638919763267">
        <ele>706.706298828125</ele>
        <time>2011-04-21T18:01:18Z</time>
      </trkpt>
      <trkpt lat="30.985095631331205" lon="-3.976716930046678">
        <ele>706.2255859375</ele>
        <time>2011-04-21T18:01:23Z</time>
      </trkpt>
      <trkpt lat="30.984986079856753" lon="-3.97674928419292">
        <ele>706.706298828125</ele>
        <time>2011-04-21T18:01:24Z</time>
      </trkpt>
      <trkpt lat="30.983585128560662" lon="-3.977092187851667">
        <ele>708.62890625</ele>
        <time>2011-04-21T18:01:36Z</time>
      </trkpt>
      <trkpt lat="30.982972076162696" lon="-3.977377340197563">
        <ele>707.18701171875</ele>
        <time>2011-04-21T18:01:43Z</time>
      </trkpt>
      <trkpt lat="30.982695054262877" lon="-3.977431152015925">
        <ele>708.62890625</ele>
        <time>2011-04-21T18:01:49Z</time>
      </trkpt>
      <trkpt lat="30.982495984062552" lon="-3.977482952177525">
        <ele>709.59033203125</ele>
        <time>2011-04-21T18:02:03Z</time>
      </trkpt>
      <trkpt lat="30.981964068487287" lon="-3.977688057348132">
        <ele>711.99365234375</ele>
        <time>2011-04-21T18:02:11Z</time>
      </trkpt>
      <trkpt lat="30.981789724901319" lon="-3.977802973240614">
        <ele>711.0322265625</ele>
        <time>2011-04-21T18:02:13Z</time>
      </trkpt>
      <trkpt lat="30.981450425460935" lon="-3.978103799745441">
        <ele>709.109619140625</ele>
        <time>2011-04-21T18:02:17Z</time>
      </trkpt>
      <trkpt lat="30.980919767171144" lon="-3.978261966258287">
        <ele>707.667724609375</ele>
        <time>2011-04-21T18:02:24Z</time>
      </trkpt>
      <trkpt lat="30.980292716994882" lon="-3.978427844122052">
        <ele>707.18701171875</ele>
        <time>2011-04-21T18:02:31Z</time>
      </trkpt>
      <trkpt lat="30.9794438816607" lon="-3.978751637041569">
        <ele>705.7451171875</ele>
        <time>2011-04-21T18:02:39Z</time>
      </trkpt>
      <trkpt lat="30.979279344901443" lon="-3.979084482416511">
        <ele>701.419189453125</ele>
        <time>2011-04-21T18:02:44Z</time>
      </trkpt>
      <trkpt lat="30.979420663788915" lon="-3.979345578700304">
        <ele>695.17041015625</ele>
        <time>2011-04-21T18:02:49Z</time>
      </trkpt>
      <trkpt lat="30.97952694632113" lon="-3.979477258399129">
        <ele>687.960693359375</ele>
        <time>2011-04-21T18:03:19Z</time>
      </trkpt>
      <trkpt lat="30.979624930769205" lon="-3.979299142956734">
        <ele>686.0380859375</ele>
        <time>2011-04-21T18:03:24Z</time>
      </trkpt>
      <trkpt lat="30.979429380968213" lon="-3.979019438847899">
        <ele>686.999267578125</ele>
        <time>2011-04-21T18:03:29Z</time>
      </trkpt>
      <trkpt lat="30.979261575266719" lon="-3.97900627925992">
        <ele>689.402587890625</ele>
        <time>2011-04-21T18:03:32Z</time>
      </trkpt>
      <trkpt lat="30.978655563667417" lon="-3.979200152680278">
        <ele>692.767333984375</ele>
        <time>2011-04-21T18:03:41Z</time>
      </trkpt>
      <trkpt lat="30.978083247318864" lon="-3.979468289762735">
        <ele>691.3251953125</ele>
        <time>2011-04-21T18:03:49Z</time>
      </trkpt>
      <trkpt lat="30.977711929008365" lon="-3.979577673599124">
        <ele>692.28662109375</ele>
        <time>2011-04-21T18:03:54Z</time>
      </trkpt>
      <trkpt lat="30.977213038131595" lon="-3.97959653288126">
        <ele>691.805908203125</ele>
        <time>2011-04-21T18:04:00Z</time>
      </trkpt>
      <trkpt lat="30.976625382900238" lon="-3.979655876755714">
        <ele>698.534912109375</ele>
        <time>2011-04-21T18:04:09Z</time>
      </trkpt>
      <trkpt lat="30.976053569465876" lon="-3.979744641110301">
        <ele>704.30322265625</ele>
        <time>2011-04-21T18:04:18Z</time>
      </trkpt>
      <trkpt lat="30.975630953907967" lon="-3.979797698557377">
        <ele>707.667724609375</ele>
        <time>2011-04-21T18:04:24Z</time>
      </trkpt>
      <trkpt lat="30.97512049600482" lon="-3.979805242270231">
        <ele>710.551513671875</ele>
        <time>2011-04-21T18:04:30Z</time>
      </trkpt>
      <trkpt lat="30.974807096645236" lon="-3.979665348306298">
        <ele>712.954833984375</ele>
        <time>2011-04-21T18:04:35Z</time>
      </trkpt>
      <trkpt lat="30.974692096933722" lon="-3.9796272944659">
        <ele>713.916015625</ele>
        <time>2011-04-21T18:04:37Z</time>
      </trkpt>
      <trkpt lat="30.974576426669955" lon="-3.979569794610143">
        <ele>715.358154296875</ele>
        <time>2011-04-21T18:04:39Z</time>
      </trkpt>
      <trkpt lat="30.974378529936075" lon="-3.97947927005589">
        <ele>716.80029296875</ele>
        <time>2011-04-21T18:04:42Z</time>
      </trkpt>
      <trkpt lat="30.974021879956126" lon="-3.979419758543372">
        <ele>718.722900390625</ele>
        <time>2011-04-21T18:04:49Z</time>
      </trkpt>
      <trkpt lat="30.973902689293027" lon="-3.979415064677596">
        <ele>720.6455078125</ele>
        <time>2011-04-21T18:04:53Z</time>
      </trkpt>
      <trkpt lat="30.973777044564486" lon="-3.97959653288126">
        <ele>715.8388671875</ele>
        <time>2011-04-21T18:05:00Z</time>
      </trkpt>
      <trkpt lat="30.973495496436954" lon="-3.979558646678925">
        <ele>716.80029296875</ele>
        <time>2011-04-21T18:05:06Z</time>
      </trkpt>
      <trkpt lat="30.973373539745808" lon="-3.979353038594127">
        <ele>716.80029296875</ele>
        <time>2011-04-21T18:05:09Z</time>
      </trkpt>
      <trkpt lat="30.973262563347816" lon="-3.979110466316342">
        <ele>716.319580078125</ele>
        <time>2011-04-21T18:05:12Z</time>
      </trkpt>
      <trkpt lat="30.973011022433639" lon="-3.978906031697989">
        <ele>718.2421875</ele>
        <time>2011-04-21T18:05:16Z</time>
      </trkpt>
      <trkpt lat="30.972020616754889" lon="-3.978585256263614">
        <ele>722.568115234375</ele>
        <time>2011-04-21T18:05:27Z</time>
      </trkpt>
      <trkpt lat="30.971224419772625" lon="-3.978239418938756">
        <ele>724.010009765625</ele>
        <time>2011-04-21T18:05:37Z</time>
      </trkpt>
      <trkpt lat="30.97063441760838" lon="-3.977951835840941">
        <ele>726.413330078125</ele>
        <time>2011-04-21T18:05:46Z</time>
      </trkpt>
      <trkpt lat="30.97014868631959" lon="-3.977560987696052">
        <ele>724.010009765625</ele>
        <time>2011-04-21T18:05:52Z</time>
      </trkpt>
      <trkpt lat="30.969620794057846" lon="-3.976987497881055">
        <ele>724.49072265625</ele>
        <time>2011-04-21T18:06:01Z</time>
      </trkpt>
      <trkpt lat="30.969619285315275" lon="-3.976725060492754">
        <ele>720.6455078125</ele>
        <time>2011-04-21T18:06:06Z</time>
      </trkpt>
      <trkpt lat="30.969655998051167" lon="-3.976591788232327">
        <ele>717.281005859375</ele>
        <time>2011-04-21T18:06:09Z</time>
      </trkpt>
      <trkpt lat="30.969645269215107" lon="-3.976358771324158">
        <ele>714.396728515625</ele>
        <time>2011-04-21T18:06:15Z</time>
      </trkpt>
      <trkpt lat="30.96955943852663" lon="-3.9761096611619">
        <ele>714.87744140625</ele>
        <time>2011-04-21T18:06:19Z</time>
      </trkpt>
      <trkpt lat="30.96908938139677" lon="-3.975357888266444">
        <ele>719.20361328125</ele>
        <time>2011-04-21T18:06:28Z</time>
      </trkpt>
      <trkpt lat="30.968842031434178" lon="-3.974935775622726">
        <ele>722.08740234375</ele>
        <time>2011-04-21T18:06:33Z</time>
      </trkpt>
      <trkpt lat="30.968592669814825" lon="-3.97480795159936">
        <ele>722.568115234375</ele>
        <time>2011-04-21T18:06:37Z</time>
      </trkpt>
      <trkpt lat="30.967846177518368" lon="-3.974847430363298">
        <ele>720.6455078125</ele>
        <time>2011-04-21T18:06:46Z</time>
      </trkpt>
      <trkpt lat="30.967442588880658" lon="-3.97500878199935">
        <ele>720.6455078125</ele>
        <time>2011-04-21T18:06:51Z</time>
      </trkpt>
      <trkpt lat="30.966826770454645" lon="-3.975440450012684">
        <ele>723.529541015625</ele>
        <time>2011-04-21T18:07:00Z</time>
      </trkpt>
      <trkpt lat="30.966391749680042" lon="-3.975911177694798">
        <ele>718.2421875</ele>
        <time>2011-04-21T18:07:08Z</time>
      </trkpt>
      <trkpt lat="30.966335255652666" lon="-3.975993320345879">
        <ele>717.281005859375</ele>
        <time>2011-04-21T18:07:09Z</time>
      </trkpt>
      <trkpt lat="30.96620642580092" lon="-3.976250728592277">
        <ele>714.87744140625</ele>
        <time>2011-04-21T18:07:12Z</time>
      </trkpt>
      <trkpt lat="30.965906186029315" lon="-3.976410236209631">
        <ele>714.87744140625</ele>
        <time>2011-04-21T18:07:17Z</time>
      </trkpt>
      <trkpt lat="30.965555990114808" lon="-3.976250477135181">
        <ele>716.80029296875</ele>
        <time>2011-04-21T18:07:22Z</time>
      </trkpt>
      <trkpt lat="30.964768929407001" lon="-3.976321639493108">
        <ele>719.20361328125</ele>
        <time>2011-04-21T18:07:31Z</time>
      </trkpt>
      <trkpt lat="30.963993184268475" lon="-3.976362626999617">
        <ele>724.010009765625</ele>
        <time>2011-04-21T18:07:38Z</time>
      </trkpt>
      <trkpt lat="30.963711971417069" lon="-3.976432280614972">
        <ele>724.49072265625</ele>
        <time>2011-04-21T18:07:41Z</time>
      </trkpt>
      <trkpt lat="30.963365044444799" lon="-3.976402441039681">
        <ele>726.89404296875</ele>
        <time>2011-04-21T18:07:45Z</time>
      </trkpt>
      <trkpt lat="30.962677644565701" lon="-3.976223738864064">
        <ele>728.3359375</ele>
        <time>2011-04-21T18:07:52Z</time>
      </trkpt>
      <trkpt lat="30.962461140006781" lon="-3.976173279806972">
        <ele>729.297119140625</ele>
        <time>2011-04-21T18:07:54Z</time>
      </trkpt>
      <trkpt lat="30.961956549435854" lon="-3.976238491013646">
        <ele>728.816650390625</ele>
        <time>2011-04-21T18:07:59Z</time>
      </trkpt>
      <trkpt lat="30.961403176188469" lon="-3.976512243971229">
        <ele>720.6455078125</ele>
        <time>2011-04-21T18:08:07Z</time>
      </trkpt>
      <trkpt lat="30.960942087695003" lon="-3.976847687736154">
        <ele>717.281005859375</ele>
        <time>2011-04-21T18:08:15Z</time>
      </trkpt>
      <trkpt lat="30.960205653682351" lon="-3.977289581671357">
        <ele>714.396728515625</ele>
        <time>2011-04-21T18:08:26Z</time>
      </trkpt>
      <trkpt lat="30.960029466077685" lon="-3.977386895567179">
        <ele>713.916015625</ele>
        <time>2011-04-21T18:08:29Z</time>
      </trkpt>
      <trkpt lat="30.959704583510756" lon="-3.977790819481015">
        <ele>712.954833984375</ele>
        <time>2011-04-21T18:08:36Z</time>
      </trkpt>
      <trkpt lat="30.959493527188897" lon="-3.977912943810225">
        <ele>711.99365234375</ele>
        <time>2011-04-21T18:08:40Z</time>
      </trkpt>
      <trkpt lat="30.959106869995594" lon="-3.977969018742442">
        <ele>707.667724609375</ele>
        <time>2011-04-21T18:08:45Z</time>
      </trkpt>
      <trkpt lat="30.958339842036366" lon="-3.977870950475335">
        <ele>704.78369140625</ele>
        <time>2011-04-21T18:08:52Z</time>
      </trkpt>
      <trkpt lat="30.957741793245077" lon="-3.977870028465986">
        <ele>705.7451171875</ele>
        <time>2011-04-21T18:08:57Z</time>
      </trkpt>
      <trkpt lat="30.957370894029737" lon="-3.978004055097699">
        <ele>705.264404296875</ele>
        <time>2011-04-21T18:09:01Z</time>
      </trkpt>
      <trkpt lat="30.957023883238435" lon="-3.978183679282665">
        <ele>703.822509765625</ele>
        <time>2011-04-21T18:09:06Z</time>
      </trkpt>
      <trkpt lat="30.956731773912907" lon="-3.978227684274316">
        <ele>704.78369140625</ele>
        <time>2011-04-21T18:09:09Z</time>
      </trkpt>
      <trkpt lat="30.955671546980739" lon="-3.978426335379481">
        <ele>707.18701171875</ele>
        <time>2011-04-21T18:09:18Z</time>
      </trkpt>
      <trkpt lat="30.95502513460815" lon="-3.978463718667626">
        <ele>711.99365234375</ele>
        <time>2011-04-21T18:09:25Z</time>
      </trkpt>
      <trkpt lat="30.954085187986493" lon="-3.978420635685325">
        <ele>716.80029296875</ele>
        <time>2011-04-21T18:09:34Z</time>
      </trkpt>
      <trkpt lat="30.952952541410923" lon="-3.978609060868621">
        <ele>722.568115234375</ele>
        <time>2011-04-21T18:09:44Z</time>
      </trkpt>
      <trkpt lat="30.951991723850369" lon="-3.978817351162434">
        <ele>722.568115234375</ele>
        <time>2011-04-21T18:09:52Z</time>
      </trkpt>
      <trkpt lat="30.951107768341899" lon="-3.979483963921666">
        <ele>721.126220703125</ele>
        <time>2011-04-21T18:10:01Z</time>
      </trkpt>
      <trkpt lat="30.950507875531912" lon="-3.980091232806444">
        <ele>717.761474609375</ele>
        <time>2011-04-21T18:10:07Z</time>
      </trkpt>
      <trkpt lat="30.950199589133263" lon="-3.980542682111263">
        <ele>715.8388671875</ele>
        <time>2011-04-21T18:10:11Z</time>
      </trkpt>
      <trkpt lat="30.949988951906562" lon="-3.980931770056486">
        <ele>713.916015625</ele>
        <time>2011-04-21T18:10:14Z</time>
      </trkpt>
      <trkpt lat="30.949484193697572" lon="-3.981354553252459">
        <ele>711.0322265625</ele>
        <time>2011-04-21T18:10:19Z</time>
      </trkpt>
      <trkpt lat="30.948938196524978" lon="-3.981429068371654">
        <ele>711.512939453125</ele>
        <time>2011-04-21T18:10:23Z</time>
      </trkpt>
      <trkpt lat="30.947498017922044" lon="-3.981248857453466">
        <ele>715.8388671875</ele>
        <time>2011-04-21T18:10:33Z</time>
      </trkpt>
      <trkpt lat="30.946788573637605" lon="-3.9810536429286">
        <ele>718.2421875</ele>
        <time>2011-04-21T18:10:38Z</time>
      </trkpt>
      <trkpt lat="30.946131097152829" lon="-3.981068562716246">
        <ele>721.126220703125</ele>
        <time>2011-04-21T18:10:44Z</time>
      </trkpt>
      <trkpt lat="30.945569425821304" lon="-3.981047440320253">
        <ele>724.971435546875</ele>
        <time>2011-04-21T18:10:51Z</time>
      </trkpt>
      <trkpt lat="30.944699384272099" lon="-3.981025563552976">
        <ele>728.816650390625</ele>
        <time>2011-04-21T18:10:59Z</time>
      </trkpt>
      <trkpt lat="30.944339465349913" lon="-3.981074430048466">
        <ele>730.258544921875</ele>
        <time>2011-04-21T18:11:02Z</time>
      </trkpt>
      <trkpt lat="30.943483589217067" lon="-3.981552785262466">
        <ele>730.7392578125</ele>
        <time>2011-04-21T18:11:09Z</time>
      </trkpt>
      <trkpt lat="30.942711196839809" lon="-3.982001719996333">
        <ele>729.77783203125</ele>
        <time>2011-04-21T18:11:17Z</time>
      </trkpt>
      <trkpt lat="30.942399641498923" lon="-3.981833998113871">
        <ele>729.77783203125</ele>
        <time>2011-04-21T18:11:24Z</time>
      </trkpt>
      <trkpt lat="30.942335687577724" lon="-3.981624450534582">
        <ele>728.816650390625</ele>
        <time>2011-04-21T18:11:27Z</time>
      </trkpt>
      <trkpt lat="30.942006362602115" lon="-3.98121683858335">
        <ele>730.258544921875</ele>
        <time>2011-04-21T18:11:33Z</time>
      </trkpt>
      <trkpt lat="30.941819278523326" lon="-3.981083817780018">
        <ele>730.7392578125</ele>
        <time>2011-04-21T18:11:36Z</time>
      </trkpt>
      <trkpt lat="30.941692292690277" lon="-3.98075507953763">
        <ele>727.855224609375</ele>
        <time>2011-04-21T18:11:41Z</time>
      </trkpt>
      <trkpt lat="30.941525492817163" lon="-3.980382336303592">
        <ele>725.9326171875</ele>
        <time>2011-04-21T18:11:47Z</time>
      </trkpt>
      <trkpt lat="30.94127269461751" lon="-3.980294158682227">
        <ele>727.855224609375</ele>
        <time>2011-04-21T18:11:52Z</time>
      </trkpt>
      <trkpt lat="30.941098351031542" lon="-3.9802903868258">
        <ele>729.77783203125</ele>
        <time>2011-04-21T18:11:55Z</time>
      </trkpt>
      <trkpt lat="30.940924929454923" lon="-3.980229953303933">
        <ele>731.219970703125</ele>
        <time>2011-04-21T18:11:58Z</time>
      </trkpt>
      <trkpt lat="30.940733989700675" lon="-3.980213860049844">
        <ele>733.623291015625</ele>
        <time>2011-04-21T18:12:02Z</time>
      </trkpt>
      <trkpt lat="30.940584959462285" lon="-3.980213943868876">
        <ele>734.584716796875</ele>
        <time>2011-04-21T18:12:05Z</time>
      </trkpt>
      <trkpt lat="30.940368371084332" lon="-3.98027672432363">
        <ele>733.623291015625</ele>
        <time>2011-04-21T18:12:09Z</time>
      </trkpt>
      <trkpt lat="30.940109118819237" lon="-3.980214195325971">
        <ele>732.181396484375</ele>
        <time>2011-04-21T18:12:15Z</time>
      </trkpt>
      <trkpt lat="30.939988922327757" lon="-3.980129286646843">
        <ele>733.142578125</ele>
        <time>2011-04-21T18:12:18Z</time>
      </trkpt>
      <trkpt lat="30.939867720007896" lon="-3.979931892827153">
        <ele>732.181396484375</ele>
        <time>2011-04-21T18:12:22Z</time>
      </trkpt>
      <trkpt lat="30.9398053586483" lon="-3.979618074372411">
        <ele>728.816650390625</ele>
        <time>2011-04-21T18:12:27Z</time>
      </trkpt>
      <trkpt lat="30.939692789688706" lon="-3.979403832927346">
        <ele>726.413330078125</ele>
        <time>2011-04-21T18:12:31Z</time>
      </trkpt>
      <trkpt lat="30.939514171332121" lon="-3.978984821587801">
        <ele>719.684326171875</ele>
        <time>2011-04-21T18:12:38Z</time>
      </trkpt>
      <trkpt lat="30.939439656212926" lon="-3.978701094165444">
        <ele>714.87744140625</ele>
        <time>2011-04-21T18:12:42Z</time>
      </trkpt>
      <trkpt lat="30.939309569075704" lon="-3.978389874100685">
        <ele>710.551513671875</ele>
        <time>2011-04-21T18:12:46Z</time>
      </trkpt>
      <trkpt lat="30.939123323187232" lon="-3.978123245760799">
        <ele>710.07080078125</ele>
        <time>2011-04-21T18:12:50Z</time>
      </trkpt>
      <trkpt lat="30.938901538029313" lon="-3.977744719013572">
        <ele>709.59033203125</ele>
        <time>2011-04-21T18:12:57Z</time>
      </trkpt>
      <trkpt lat="30.938839931041002" lon="-3.977499799802899">
        <ele>706.706298828125</ele>
        <time>2011-04-21T18:13:03Z</time>
      </trkpt>
      <trkpt lat="30.938939843326807" lon="-3.977543972432613">
        <ele>702.861083984375</ele>
        <time>2011-04-21T18:13:13Z</time>
      </trkpt>
      <trkpt lat="30.939225498586893" lon="-3.977414136752486">
        <ele>690.364013671875</ele>
        <time>2011-04-21T18:13:21Z</time>
      </trkpt>
      <trkpt lat="30.939051825553179" lon="-3.977256556972861">
        <ele>690.844482421875</ele>
        <time>2011-04-21T18:13:30Z</time>
      </trkpt>
      <trkpt lat="30.938870022073388" lon="-3.977242056280375">
        <ele>692.28662109375</ele>
        <time>2011-04-21T18:13:33Z</time>
      </trkpt>
      <trkpt lat="30.93827155418694" lon="-3.977150190621615">
        <ele>698.054443359375</ele>
        <time>2011-04-21T18:13:45Z</time>
      </trkpt>
      <trkpt lat="30.938453273847699" lon="-3.977077268064022">
        <ele>703.822509765625</ele>
        <time>2011-04-21T18:13:54Z</time>
      </trkpt>
      <trkpt lat="30.939165651798248" lon="-3.977217245846987">
        <ele>699.496337890625</ele>
        <time>2011-04-21T18:14:00Z</time>
      </trkpt>
      <trkpt lat="30.940168797969818" lon="-3.977379519492388">
        <ele>687.47998046875</ele>
        <time>2011-04-21T18:14:06Z</time>
      </trkpt>
      <trkpt lat="30.941587686538696" lon="-3.977608596906066">
        <ele>681.2314453125</ele>
        <time>2011-04-21T18:14:13Z</time>
      </trkpt>
      <trkpt lat="30.943242441862822" lon="-3.977838763967156">
        <ele>678.828125</ele>
        <time>2011-04-21T18:14:20Z</time>
      </trkpt>
      <trkpt lat="30.945605551823974" lon="-3.978149732574821">
        <ele>677.86669921875</ele>
        <time>2011-04-21T18:14:30Z</time>
      </trkpt>
      <trkpt lat="30.949103320017457" lon="-3.978637643158436">
        <ele>679.30859375</ele>
        <time>2011-04-21T18:14:45Z</time>
      </trkpt>
      <trkpt lat="30.950804930180311" lon="-3.978716265410185">
        <ele>680.750732421875</ele>
        <time>2011-04-21T18:14:52Z</time>
      </trkpt>
      <trkpt lat="30.953372558578849" lon="-3.978355675935745">
        <ele>684.115478515625</ele>
        <time>2011-04-21T18:15:02Z</time>
      </trkpt>
      <trkpt lat="30.955714546144009" lon="-3.97799969650805">
        <ele>685.557373046875</ele>
        <time>2011-04-21T18:15:12Z</time>
      </trkpt>
      <trkpt lat="30.958544528111815" lon="-3.977562161162496">
        <ele>687.47998046875</ele>
        <time>2011-04-21T18:15:25Z</time>
      </trkpt>
      <trkpt lat="30.960188889876008" lon="-3.977212551981211">
        <ele>693.728515625</ele>
        <time>2011-04-21T18:15:33Z</time>
      </trkpt>
      <trkpt lat="30.961212236434221" lon="-3.97662028670311">
        <ele>697.57373046875</ele>
        <time>2011-04-21T18:15:39Z</time>
      </trkpt>
      <trkpt lat="30.963544836267829" lon="-3.975045159459114">
        <ele>706.2255859375</ele>
        <time>2011-04-21T18:15:52Z</time>
      </trkpt>
      <trkpt lat="30.965996459126472" lon="-3.973372634500265">
        <ele>709.59033203125</ele>
        <time>2011-04-21T18:16:05Z</time>
      </trkpt>
      <trkpt lat="30.96745784394443" lon="-3.972579957917333">
        <ele>709.59033203125</ele>
        <time>2011-04-21T18:16:13Z</time>
      </trkpt>
      <trkpt lat="30.968703478574753" lon="-3.972430424764752">
        <ele>706.706298828125</ele>
        <time>2011-04-21T18:16:19Z</time>
      </trkpt>
      <trkpt lat="30.970873637124896" lon="-3.972538886591792">
        <ele>702.38037109375</ele>
        <time>2011-04-21T18:16:29Z</time>
      </trkpt>
      <trkpt lat="30.972760571166873" lon="-3.972752457484603">
        <ele>694.689697265625</ele>
        <time>2011-04-21T18:16:38Z</time>
      </trkpt>
      <trkpt lat="30.974733168259263" lon="-3.972987150773406">
        <ele>683.15380859375</ele>
        <time>2011-04-21T18:16:49Z</time>
      </trkpt>
      <trkpt lat="30.977113964036107" lon="-3.973295772448182">
        <ele>677.38623046875</ele>
        <time>2011-04-21T18:17:02Z</time>
      </trkpt>
      <trkpt lat="30.979046579450369" lon="-3.973583858460188">
        <ele>680.750732421875</ele>
        <time>2011-04-21T18:17:13Z</time>
      </trkpt>
      <trkpt lat="30.980325071141124" lon="-3.97412097081542">
        <ele>680.750732421875</ele>
        <time>2011-04-21T18:17:21Z</time>
      </trkpt>
      <trkpt lat="30.981517899781466" lon="-3.97491842508316">
        <ele>680.750732421875</ele>
        <time>2011-04-21T18:17:29Z</time>
      </trkpt>
      <trkpt lat="30.982287526130676" lon="-3.975977059453726">
        <ele>682.192626953125</ele>
        <time>2011-04-21T18:17:36Z</time>
      </trkpt>
      <trkpt lat="30.982813742011786" lon="-3.977399049326778">
        <ele>682.192626953125</ele>
        <time>2011-04-21T18:17:44Z</time>
      </trkpt>
      <trkpt lat="30.983829544857144" lon="-3.980208579450846">
        <ele>679.30859375</ele>
        <time>2011-04-21T18:18:00Z</time>
      </trkpt>
      <trkpt lat="30.985030084848404" lon="-3.982345042750239">
        <ele>672.098876953125</ele>
        <time>2011-04-21T18:18:13Z</time>
      </trkpt>
      <trkpt lat="30.985996937379241" lon="-3.984026284888387">
        <ele>670.656982421875</ele>
        <time>2011-04-21T18:18:24Z</time>
      </trkpt>
      <trkpt lat="30.987375173717737" lon="-3.986442368477583">
        <ele>669.215087890625</ele>
        <time>2011-04-21T18:18:41Z</time>
      </trkpt>
      <trkpt lat="30.988539084792137" lon="-3.988482942804694">
        <ele>669.69580078125</ele>
        <time>2011-04-21T18:18:54Z</time>
      </trkpt>
      <trkpt lat="30.989591684192419" lon="-3.990312544628978">
        <ele>669.69580078125</ele>
        <time>2011-04-21T18:19:06Z</time>
      </trkpt>
      <trkpt lat="30.990478573367" lon="-3.991514844819903">
        <ele>681.2314453125</ele>
        <time>2011-04-21T18:19:15Z</time>
      </trkpt>
      <trkpt lat="30.991437798365951" lon="-3.992252787575126">
        <ele>688.44140625</ele>
        <time>2011-04-21T18:19:22Z</time>
      </trkpt>
      <trkpt lat="30.993326744064689" lon="-3.993600765243173">
        <ele>698.054443359375</ele>
        <time>2011-04-21T18:19:34Z</time>
      </trkpt>
      <trkpt lat="30.995898731052876" lon="-3.995432546362281">
        <ele>706.2255859375</ele>
        <time>2011-04-21T18:19:50Z</time>
      </trkpt>
      <trkpt lat="30.997209325432777" lon="-3.996186833828688">
        <ele>710.551513671875</ele>
        <time>2011-04-21T18:19:58Z</time>
      </trkpt>
      <trkpt lat="30.998547077178955" lon="-3.996602240949869">
        <ele>713.916015625</ele>
        <time>2011-04-21T18:20:05Z</time>
      </trkpt>
      <trkpt lat="31.000941619277" lon="-3.997542606666684">
        <ele>720.164794921875</ele>
        <time>2011-04-21T18:20:17Z</time>
      </trkpt>
      <trkpt lat="31.004407200962305" lon="-3.998560337349773">
        <ele>725.9326171875</ele>
        <time>2011-04-21T18:20:33Z</time>
      </trkpt>
      <trkpt lat="31.007543625310063" lon="-3.999533643946052">
        <ele>726.89404296875</ele>
        <time>2011-04-21T18:20:47Z</time>
      </trkpt>
      <trkpt lat="31.011004596948624" lon="-4.00035448372364">
        <ele>729.77783203125</ele>
        <time>2011-04-21T18:21:02Z</time>
      </trkpt>
      <trkpt lat="31.014542430639267" lon="-4.001408256590366">
        <ele>732.181396484375</ele>
        <time>2011-04-21T18:21:18Z</time>
      </trkpt>
      <trkpt lat="31.018178667873144" lon="-4.00248977355659">
        <ele>735.0654296875</ele>
        <time>2011-04-21T18:21:35Z</time>
      </trkpt>
      <trkpt lat="31.021326743066311" lon="-4.003438018262386">
        <ele>735.5458984375</ele>
        <time>2011-04-21T18:21:49Z</time>
      </trkpt>
      <trkpt lat="31.023501260206103" lon="-4.004168836399913">
        <ele>736.98779296875</ele>
        <time>2011-04-21T18:21:59Z</time>
      </trkpt>
      <trkpt lat="31.02698989212513" lon="-4.005339536815882">
        <ele>736.98779296875</ele>
        <time>2011-04-21T18:22:16Z</time>
      </trkpt>
      <trkpt lat="31.029339423403144" lon="-4.006133554503322">
        <ele>738.429931640625</ele>
        <time>2011-04-21T18:22:28Z</time>
      </trkpt>
      <trkpt lat="31.030944557860494" lon="-4.006553152576089">
        <ele>737.94921875</ele>
        <time>2011-04-21T18:22:37Z</time>
      </trkpt>
      <trkpt lat="31.032267976552248" lon="-4.006491042673588">
        <ele>740.3525390625</ele>
        <time>2011-04-21T18:22:44Z</time>
      </trkpt>
      <trkpt lat="31.035029562190175" lon="-4.006237490102649">
        <ele>740.3525390625</ele>
        <time>2011-04-21T18:22:59Z</time>
      </trkpt>
      <trkpt lat="31.037763739004731" lon="-4.005992989987135">
        <ele>740.3525390625</ele>
        <time>2011-04-21T18:23:14Z</time>
      </trkpt>
      <trkpt lat="31.040697237476707" lon="-4.005733234807849">
        <ele>739.871826171875</ele>
        <time>2011-04-21T18:23:30Z</time>
      </trkpt>
      <trkpt lat="31.042598588392138" lon="-4.005565429106355">
        <ele>739.39111328125</ele>
        <time>2011-04-21T18:23:41Z</time>
      </trkpt>
      <trkpt lat="31.043448345735669" lon="-4.005517149344087">
        <ele>738.91064453125</ele>
        <time>2011-04-21T18:23:48Z</time>
      </trkpt>
      <trkpt lat="31.044285697862506" lon="-4.005725188180804">
        <ele>737.94921875</ele>
        <time>2011-04-21T18:23:56Z</time>
      </trkpt>
      <trkpt lat="31.044755922630429" lon="-4.005957031622529">
        <ele>735.0654296875</ele>
        <time>2011-04-21T18:24:01Z</time>
      </trkpt>
      <trkpt lat="31.044909982010722" lon="-4.005919396877289">
        <ele>734.10400390625</ele>
        <time>2011-04-21T18:24:06Z</time>
      </trkpt>
      <trkpt lat="31.045055827125907" lon="-4.005345487967134">
        <ele>739.39111328125</ele>
        <time>2011-04-21T18:24:13Z</time>
      </trkpt>
      <trkpt lat="31.045298399403691" lon="-4.004405038431287">
        <ele>749.00439453125</ele>
        <time>2011-04-21T18:24:21Z</time>
      </trkpt>
      <trkpt lat="31.045300159603357" lon="-4.003845965489745">
        <ele>752.849609375</ele>
        <time>2011-04-21T18:24:26Z</time>
      </trkpt>
      <trkpt lat="31.045219525694847" lon="-4.002948682755232">
        <ele>756.214111328125</ele>
        <time>2011-04-21T18:24:34Z</time>
      </trkpt>
      <trkpt lat="31.04530418291688" lon="-4.00238323956728">
        <ele>757.65625</ele>
        <time>2011-04-21T18:24:39Z</time>
      </trkpt>
      <trkpt lat="31.045619174838066" lon="-4.001341452822089">
        <ele>763.424072265625</ele>
        <time>2011-04-21T18:24:48Z</time>
      </trkpt>
      <trkpt lat="31.045773318037391" lon="-4.000726221129298">
        <ele>769.192138671875</ele>
        <time>2011-04-21T18:24:55Z</time>
      </trkpt>
      <trkpt lat="31.046485528349876" lon="-3.99936156347394">
        <ele>776.882568359375</ele>
        <time>2011-04-21T18:25:05Z</time>
      </trkpt>
      <trkpt lat="31.046387292444706" lon="-3.998557822778821">
        <ele>781.208740234375</ele>
        <time>2011-04-21T18:25:12Z</time>
      </trkpt>
      <trkpt lat="31.046305485069752" lon="-3.997599016875029">
        <ele>785.053955078125</ele>
        <time>2011-04-21T18:25:20Z</time>
      </trkpt>
      <trkpt lat="31.046416293829679" lon="-3.997238343581557">
        <ele>796.109130859375</ele>
        <time>2011-04-21T18:25:27Z</time>
      </trkpt>
      <trkpt lat="31.046504806727171" lon="-3.996985545381904">
        <ele>800.43505859375</ele>
        <time>2011-04-21T18:25:31Z</time>
      </trkpt>
      <trkpt lat="31.046624081209302" lon="-3.996196473017335">
        <ele>786.495849609375</ele>
        <time>2011-04-21T18:25:42Z</time>
      </trkpt>
      <trkpt lat="31.046461053192616" lon="-3.995980639010668">
        <ele>792.744384765625</ele>
        <time>2011-04-21T18:25:47Z</time>
      </trkpt>
      <trkpt lat="31.046653417870402" lon="-3.996402332559228">
        <ele>721.606689453125</ele>
        <time>2011-04-21T18:49:22Z</time>
      </trkpt>
      <trkpt lat="31.046762131154537" lon="-3.996332595124841">
        <ele>715.8388671875</ele>
        <time>2011-04-21T18:51:22Z</time>
      </trkpt>
      <trkpt lat="31.046788617968559" lon="-3.996602324768901">
        <ele>712.47412109375</ele>
        <time>2011-04-21T18:52:35Z</time>
      </trkpt>
      <trkpt lat="31.0467070620507" lon="-3.996827295050025">
        <ele>711.99365234375</ele>
        <time>2011-04-21T18:52:43Z</time>
      </trkpt>
      <trkpt lat="31.04646666906774" lon="-3.997061736881733">
        <ele>710.551513671875</ele>
        <time>2011-04-21T18:52:52Z</time>
      </trkpt>
      <trkpt lat="31.046331217512488" lon="-3.997502624988556">
        <ele>711.0322265625</ele>
        <time>2011-04-21T18:53:03Z</time>
      </trkpt>
      <trkpt lat="31.046291068196297" lon="-3.997653080150485">
        <ele>711.99365234375</ele>
        <time>2011-04-21T18:53:12Z</time>
      </trkpt>
      <trkpt lat="31.046287966892123" lon="-3.998022386804223">
        <ele>712.47412109375</ele>
        <time>2011-04-21T18:53:24Z</time>
      </trkpt>
      <trkpt lat="31.046385280787945" lon="-3.998541226610541">
        <ele>711.99365234375</ele>
        <time>2011-04-21T18:53:34Z</time>
      </trkpt>
      <trkpt lat="31.046406151726842" lon="-3.998714983463287">
        <ele>711.99365234375</ele>
        <time>2011-04-21T18:53:37Z</time>
      </trkpt>
      <trkpt lat="31.046487288549542" lon="-3.9993757288903">
        <ele>711.512939453125</ele>
        <time>2011-04-21T18:53:45Z</time>
      </trkpt>
      <trkpt lat="31.046695159748197" lon="-4.000493120402098">
        <ele>711.0322265625</ele>
        <time>2011-04-21T18:53:57Z</time>
      </trkpt>
      <trkpt lat="31.046817284077406" lon="-4.001510934904218">
        <ele>711.512939453125</ele>
        <time>2011-04-21T18:54:09Z</time>
      </trkpt>
      <trkpt lat="31.046953490003943" lon="-4.002434620633721">
        <ele>711.99365234375</ele>
        <time>2011-04-21T18:54:20Z</time>
      </trkpt>
      <trkpt lat="31.047142334282398" lon="-4.002948431298137">
        <ele>711.512939453125</ele>
        <time>2011-04-21T18:54:26Z</time>
      </trkpt>
      <trkpt lat="31.047307960689068" lon="-4.003245569765568">
        <ele>711.512939453125</ele>
        <time>2011-04-21T18:54:29Z</time>
      </trkpt>
      <trkpt lat="31.047783885151148" lon="-4.004340581595898">
        <ele>711.0322265625</ele>
        <time>2011-04-21T18:54:39Z</time>
      </trkpt>
      <trkpt lat="31.048193173483014" lon="-4.005313972011209">
        <ele>710.551513671875</ele>
        <time>2011-04-21T18:54:48Z</time>
      </trkpt>
      <trkpt lat="31.048684688284993" lon="-4.006471345201135">
        <ele>710.07080078125</ele>
        <time>2011-04-21T18:54:59Z</time>
      </trkpt>
      <trkpt lat="31.049069333821535" lon="-4.007573565468192">
        <ele>710.07080078125</ele>
        <time>2011-04-21T18:55:09Z</time>
      </trkpt>
      <trkpt lat="31.049339147284627" lon="-4.008550895377994">
        <ele>711.0322265625</ele>
        <time>2011-04-21T18:55:20Z</time>
      </trkpt>
      <trkpt lat="31.049399329349399" lon="-4.008906288072467">
        <ele>711.512939453125</ele>
        <time>2011-04-21T18:55:26Z</time>
      </trkpt>
      <trkpt lat="31.049466468393803" lon="-4.009462930262089">
        <ele>711.512939453125</ele>
        <time>2011-04-21T18:55:35Z</time>
      </trkpt>
      <trkpt lat="31.049741478636861" lon="-4.009842546656728">
        <ele>711.512939453125</ele>
        <time>2011-04-21T18:55:41Z</time>
      </trkpt>
      <trkpt lat="31.050786199048162" lon="-4.01057168841362">
        <ele>710.551513671875</ele>
        <time>2011-04-21T18:55:51Z</time>
      </trkpt>
      <trkpt lat="31.052109785377979" lon="-4.011508198454976">
        <ele>710.07080078125</ele>
        <time>2011-04-21T18:56:01Z</time>
      </trkpt>
      <trkpt lat="31.054113227874041" lon="-4.012898588553071">
        <ele>709.59033203125</ele>
        <time>2011-04-21T18:56:15Z</time>
      </trkpt>
      <trkpt lat="31.055274875834584" lon="-4.013276528567076">
        <ele>710.07080078125</ele>
        <time>2011-04-21T18:56:22Z</time>
      </trkpt>
      <trkpt lat="31.057360880076885" lon="-4.013594789430499">
        <ele>710.551513671875</ele>
        <time>2011-04-21T18:56:33Z</time>
      </trkpt>
      <trkpt lat="31.060174265876412" lon="-4.013976752758026">
        <ele>708.62890625</ele>
        <time>2011-04-21T18:56:47Z</time>
      </trkpt>
      <trkpt lat="31.061400035396218" lon="-4.013795955106616">
        <ele>706.2255859375</ele>
        <time>2011-04-21T18:56:53Z</time>
      </trkpt>
      <trkpt lat="31.065136352553964" lon="-4.013050217181444">
        <ele>701.89990234375</ele>
        <time>2011-04-21T18:57:11Z</time>
      </trkpt>
      <trkpt lat="31.069260751828551" lon="-4.012238262221217">
        <ele>700.4580078125</ele>
        <time>2011-04-21T18:57:31Z</time>
      </trkpt>
      <trkpt lat="31.072934456169605" lon="-4.011525632813573">
        <ele>699.496337890625</ele>
        <time>2011-04-21T18:57:49Z</time>
      </trkpt>
      <trkpt lat="31.074775625020266" lon="-4.011168060824275">
        <ele>699.496337890625</ele>
        <time>2011-04-21T18:57:59Z</time>
      </trkpt>
      <trkpt lat="31.076623164117336" lon="-4.01080914773047">
        <ele>699.015625</ele>
        <time>2011-04-21T18:58:10Z</time>
      </trkpt>
      <trkpt lat="31.077905176207423" lon="-4.010672438889742">
        <ele>697.093017578125</ele>
        <time>2011-04-21T18:58:18Z</time>
      </trkpt>
      <trkpt lat="31.080706072971225" lon="-4.010488791391254">
        <ele>693.728515625</ele>
        <time>2011-04-21T18:58:34Z</time>
      </trkpt>
      <trkpt lat="31.082793166860938" lon="-4.01047395542264">
        <ele>693.247802734375</ele>
        <time>2011-04-21T18:58:46Z</time>
      </trkpt>
      <trkpt lat="31.083840318024158" lon="-4.010848375037313">
        <ele>692.28662109375</ele>
        <time>2011-04-21T18:58:52Z</time>
      </trkpt>
      <trkpt lat="31.085354760289192" lon="-4.011770552024245">
        <ele>693.247802734375</ele>
        <time>2011-04-21T18:59:01Z</time>
      </trkpt>
      <trkpt lat="31.087869498878717" lon="-4.013337884098291">
        <ele>691.3251953125</ele>
        <time>2011-04-21T18:59:16Z</time>
      </trkpt>
      <trkpt lat="31.090496387332678" lon="-4.014988532289863">
        <ele>693.247802734375</ele>
        <time>2011-04-21T18:59:32Z</time>
      </trkpt>
      <trkpt lat="31.092813648283482" lon="-4.016430387273431">
        <ele>689.88330078125</ele>
        <time>2011-04-21T18:59:46Z</time>
      </trkpt>
      <trkpt lat="31.095233922824264" lon="-4.017954552546144">
        <ele>702.38037109375</ele>
        <time>2011-04-21T19:00:02Z</time>
      </trkpt>
      <trkpt lat="31.0962491389364" lon="-4.018377671018243">
        <ele>707.18701171875</ele>
        <time>2011-04-21T19:00:08Z</time>
      </trkpt>
      <trkpt lat="31.097226636484265" lon="-4.018428046256304">
        <ele>709.59033203125</ele>
        <time>2011-04-21T19:00:13Z</time>
      </trkpt>
      <trkpt lat="31.099055567756295" lon="-4.018162675201893">
        <ele>710.551513671875</ele>
        <time>2011-04-21T19:00:22Z</time>
      </trkpt>
      <trkpt lat="31.099605336785316" lon="-4.018073659390211">
        <ele>710.551513671875</ele>
        <time>2011-04-21T19:00:26Z</time>
      </trkpt>
      <trkpt lat="31.099987383931875" lon="-4.018014566972852">
        <ele>710.07080078125</ele>
        <time>2011-04-21T19:00:31Z</time>
      </trkpt>
      <trkpt lat="31.100183688104153" lon="-4.017975339666009">
        <ele>709.109619140625</ele>
        <time>2011-04-21T19:00:37Z</time>
      </trkpt>
      <trkpt lat="31.100397342815995" lon="-4.017948182299733">
        <ele>708.62890625</ele>
        <time>2011-04-21T19:00:42Z</time>
      </trkpt>
      <trkpt lat="31.100656343623996" lon="-4.018056141212583">
        <ele>708.1484375</ele>
        <time>2011-04-21T19:00:47Z</time>
      </trkpt>
      <trkpt lat="31.101359417662024" lon="-4.01862476952374">
        <ele>706.706298828125</ele>
        <time>2011-04-21T19:00:55Z</time>
      </trkpt>
      <trkpt lat="31.10250455327332" lon="-4.01941585354507">
        <ele>706.2255859375</ele>
        <time>2011-04-21T19:01:04Z</time>
      </trkpt>
      <trkpt lat="31.104181939736009" lon="-4.020209284499288">
        <ele>703.822509765625</ele>
        <time>2011-04-21T19:01:15Z</time>
      </trkpt>
      <trkpt lat="31.106148669496179" lon="-4.02113146148622">
        <ele>705.7451171875</ele>
        <time>2011-04-21T19:01:27Z</time>
      </trkpt>
      <trkpt lat="31.108418153598905" lon="-4.022233849391341">
        <ele>707.18701171875</ele>
        <time>2011-04-21T19:01:40Z</time>
      </trkpt>
      <trkpt lat="31.109301270917058" lon="-4.022967433556914">
        <ele>709.59033203125</ele>
        <time>2011-04-21T19:01:46Z</time>
      </trkpt>
      <trkpt lat="31.110199224203825" lon="-4.024123968556523">
        <ele>712.954833984375</ele>
        <time>2011-04-21T19:01:53Z</time>
      </trkpt>
      <trkpt lat="31.111920950934291" lon="-4.026561342179775">
        <ele>718.722900390625</ele>
        <time>2011-04-21T19:02:07Z</time>
      </trkpt>
      <trkpt lat="31.113534718751907" lon="-4.028983293101192">
        <ele>723.529541015625</ele>
        <time>2011-04-21T19:02:20Z</time>
      </trkpt>
      <trkpt lat="31.11523624509573" lon="-4.03179969638586">
        <ele>730.258544921875</ele>
        <time>2011-04-21T19:02:34Z</time>
      </trkpt>
      <trkpt lat="31.116947829723358" lon="-4.034446617588401">
        <ele>733.623291015625</ele>
        <time>2011-04-21T19:02:48Z</time>
      </trkpt>
      <trkpt lat="31.11836202442646" lon="-4.036228945478797">
        <ele>731.700439453125</ele>
        <time>2011-04-21T19:02:58Z</time>
      </trkpt>
      <trkpt lat="31.120309643447399" lon="-4.038639329373837">
        <ele>730.7392578125</ele>
        <time>2011-04-21T19:03:11Z</time>
      </trkpt>
      <trkpt lat="31.122129522264004" lon="-4.04087838716805">
        <ele>731.219970703125</ele>
        <time>2011-04-21T19:03:24Z</time>
      </trkpt>
      <trkpt lat="31.123679922893643" lon="-4.042620733380318">
        <ele>732.662109375</ele>
        <time>2011-04-21T19:03:35Z</time>
      </trkpt>
      <trkpt lat="31.12558295018971" lon="-4.044296946376562">
        <ele>732.181396484375</ele>
        <time>2011-04-21T19:03:47Z</time>
      </trkpt>
      <trkpt lat="31.128435228019953" lon="-4.046805649995804">
        <ele>735.5458984375</ele>
        <time>2011-04-21T19:04:05Z</time>
      </trkpt>
      <trkpt lat="31.130511173978448" lon="-4.048529723659158">
        <ele>733.142578125</ele>
        <time>2011-04-21T19:04:19Z</time>
      </trkpt>
      <trkpt lat="31.132021341472864" lon="-4.049501521512866">
        <ele>735.5458984375</ele>
        <time>2011-04-21T19:04:29Z</time>
      </trkpt>
      <trkpt lat="31.134157553315163" lon="-4.050778839737177">
        <ele>745.158935546875</ele>
        <time>2011-04-21T19:04:43Z</time>
      </trkpt>
      <trkpt lat="31.135920351371169" lon="-4.051726162433624">
        <ele>747.562255859375</ele>
        <time>2011-04-21T19:04:54Z</time>
      </trkpt>
      <trkpt lat="31.136865327134728" lon="-4.052233351394534">
        <ele>749.9658203125</ele>
        <time>2011-04-21T19:05:01Z</time>
      </trkpt>
      <trkpt lat="31.137390118092299" lon="-4.052517497912049">
        <ele>751.888427734375</ele>
        <time>2011-04-21T19:05:07Z</time>
      </trkpt>
      <trkpt lat="31.137960255146027" lon="-4.052827041596174">
        <ele>753.330322265625</ele>
        <time>2011-04-21T19:05:13Z</time>
      </trkpt>
      <trkpt lat="31.13909063860774" lon="-4.053416959941387">
        <ele>753.81103515625</ele>
        <time>2011-04-21T19:05:21Z</time>
      </trkpt>
      <trkpt lat="31.140842875465751" lon="-4.054356571286917">
        <ele>754.291748046875</ele>
        <time>2011-04-21T19:05:31Z</time>
      </trkpt>
      <trkpt lat="31.144362520426512" lon="-4.056244092062116">
        <ele>758.617431640625</ele>
        <time>2011-04-21T19:05:50Z</time>
      </trkpt>
      <trkpt lat="31.146717080846429" lon="-4.057504143565893">
        <ele>751.888427734375</ele>
        <time>2011-04-21T19:06:03Z</time>
      </trkpt>
      <trkpt lat="31.148131191730499" lon="-4.058437217026949">
        <ele>745.158935546875</ele>
        <time>2011-04-21T19:06:12Z</time>
      </trkpt>
      <trkpt lat="31.149695254862309" lon="-4.059792570769787">
        <ele>736.50732421875</ele>
        <time>2011-04-21T19:06:22Z</time>
      </trkpt>
      <trkpt lat="31.151989633217454" lon="-4.061831049621105">
        <ele>728.3359375</ele>
        <time>2011-04-21T19:06:36Z</time>
      </trkpt>
      <trkpt lat="31.154393898323178" lon="-4.063957035541534">
        <ele>725.451904296875</ele>
        <time>2011-04-21T19:06:50Z</time>
      </trkpt>
      <trkpt lat="31.157084153965116" lon="-4.066322660073638">
        <ele>724.49072265625</ele>
        <time>2011-04-21T19:07:05Z</time>
      </trkpt>
      <trkpt lat="31.159577099606395" lon="-4.068521233275533">
        <ele>725.9326171875</ele>
        <time>2011-04-21T19:07:19Z</time>
      </trkpt>
      <trkpt lat="31.162178842350841" lon="-4.070816282182932">
        <ele>727.374755859375</ele>
        <time>2011-04-21T19:07:33Z</time>
      </trkpt>
      <trkpt lat="31.164988121017814" lon="-4.073317442089319">
        <ele>727.374755859375</ele>
        <time>2011-04-21T19:07:48Z</time>
      </trkpt>
      <trkpt lat="31.166465682908893" lon="-4.074955936521292">
        <ele>732.662109375</ele>
        <time>2011-04-21T19:07:57Z</time>
      </trkpt>
      <trkpt lat="31.168197216466069" lon="-4.077172195538878">
        <ele>738.91064453125</ele>
        <time>2011-04-21T19:08:09Z</time>
      </trkpt>
      <trkpt lat="31.170447086915374" lon="-4.080056576058269">
        <ele>740.8330078125</ele>
        <time>2011-04-21T19:08:25Z</time>
      </trkpt>
      <trkpt lat="31.171751227229834" lon="-4.081565653905273">
        <ele>741.79443359375</ele>
        <time>2011-04-21T19:08:34Z</time>
      </trkpt>
      <trkpt lat="31.173002477735281" lon="-4.082448519766331">
        <ele>740.8330078125</ele>
        <time>2011-04-21T19:08:41Z</time>
      </trkpt>
      <trkpt lat="31.175857521593571" lon="-4.084291867911816">
        <ele>749.485107421875</ele>
        <time>2011-04-21T19:08:56Z</time>
      </trkpt>
      <trkpt lat="31.179158566519618" lon="-4.086431264877319">
        <ele>759.09814453125</ele>
        <time>2011-04-21T19:09:13Z</time>
      </trkpt>
      <trkpt lat="31.180940475314856" lon="-4.087821152061224">
        <ele>752.368896484375</ele>
        <time>2011-04-21T19:09:22Z</time>
      </trkpt>
      <trkpt lat="31.183554623275995" lon="-4.089997764676809">
        <ele>744.19775390625</ele>
        <time>2011-04-21T19:09:35Z</time>
      </trkpt>
      <trkpt lat="31.186590632423759" lon="-4.092385265976191">
        <ele>738.429931640625</ele>
        <time>2011-04-21T19:09:50Z</time>
      </trkpt>
      <trkpt lat="31.18961725383997" lon="-4.094489375129342">
        <ele>728.816650390625</ele>
        <time>2011-04-21T19:10:04Z</time>
      </trkpt>
      <trkpt lat="31.1914496216923" lon="-4.095753449946642">
        <ele>725.9326171875</ele>
        <time>2011-04-21T19:10:13Z</time>
      </trkpt>
      <trkpt lat="31.194363841786981" lon="-4.09773618914187">
        <ele>716.319580078125</ele>
        <time>2011-04-21T19:10:28Z</time>
      </trkpt>
      <trkpt lat="31.197181083261967" lon="-4.099684478715062">
        <ele>705.264404296875</ele>
        <time>2011-04-21T19:10:42Z</time>
      </trkpt>
      <trkpt lat="31.199884582310915" lon="-4.101589098572731">
        <ele>697.57373046875</ele>
        <time>2011-04-21T19:10:56Z</time>
      </trkpt>
      <trkpt lat="31.201721644029021" lon="-4.103094069287181">
        <ele>690.844482421875</ele>
        <time>2011-04-21T19:11:06Z</time>
      </trkpt>
      <trkpt lat="31.203715447336435" lon="-4.105286439880729">
        <ele>696.612548828125</ele>
        <time>2011-04-21T19:11:18Z</time>
      </trkpt>
      <trkpt lat="31.206357255578041" lon="-4.108200995251536">
        <ele>701.89990234375</ele>
        <time>2011-04-21T19:11:34Z</time>
      </trkpt>
      <trkpt lat="31.208362374454737" lon="-4.110405771061778">
        <ele>703.341796875</ele>
        <time>2011-04-21T19:11:46Z</time>
      </trkpt>
      <trkpt lat="31.210188372060657" lon="-4.112414745613933">
        <ele>705.264404296875</ele>
        <time>2011-04-21T19:11:58Z</time>
      </trkpt>
      <trkpt lat="31.212285943329334" lon="-4.114735778421164">
        <ele>703.822509765625</ele>
        <time>2011-04-21T19:12:12Z</time>
      </trkpt>
      <trkpt lat="31.214675037190318" lon="-4.117369037121534">
        <ele>703.341796875</ele>
        <time>2011-04-21T19:12:27Z</time>
      </trkpt>
      <trkpt lat="31.21678895317018" lon="-4.119601473212242">
        <ele>707.667724609375</ele>
        <time>2011-04-21T19:12:40Z</time>
      </trkpt>
      <trkpt lat="31.21794599108398" lon="-4.120356431230903">
        <ele>707.18701171875</ele>
        <time>2011-04-21T19:12:46Z</time>
      </trkpt>
      <trkpt lat="31.220869766548276" lon="-4.121903730556369">
        <ele>698.054443359375</ele>
        <time>2011-04-21T19:13:00Z</time>
      </trkpt>
      <trkpt lat="31.223857160657644" lon="-4.123478773981333">
        <ele>685.557373046875</ele>
        <time>2011-04-21T19:13:14Z</time>
      </trkpt>
      <trkpt lat="31.226727375760674" lon="-4.124979134649038">
        <ele>670.656982421875</ele>
        <time>2011-04-21T19:13:28Z</time>
      </trkpt>
      <trkpt lat="31.229428444057703" lon="-4.126393245533109">
        <ele>655.27587890625</ele>
        <time>2011-04-21T19:13:41Z</time>
      </trkpt>
      <trkpt lat="31.233281018212438" lon="-4.128443291410804">
        <ele>645.66259765625</ele>
        <time>2011-04-21T19:13:59Z</time>
      </trkpt>
      <trkpt lat="31.236661775037646" lon="-4.130236683413386">
        <ele>644.220703125</ele>
        <time>2011-04-21T19:14:15Z</time>
      </trkpt>
      <trkpt lat="31.238353075459599" lon="-4.130863649770618">
        <ele>646.143310546875</ele>
        <time>2011-04-21T19:14:23Z</time>
      </trkpt>
      <trkpt lat="31.24117442406714" lon="-4.131917674094439">
        <ele>644.701171875</ele>
        <time>2011-04-21T19:14:36Z</time>
      </trkpt>
      <trkpt lat="31.244091829285026" lon="-4.133353075012565">
        <ele>647.585205078125</ele>
        <time>2011-04-21T19:14:49Z</time>
      </trkpt>
      <trkpt lat="31.247316263616085" lon="-4.134922586381435">
        <ele>642.298095703125</ele>
        <time>2011-04-21T19:15:03Z</time>
      </trkpt>
      <trkpt lat="31.250410191714764" lon="-4.13644633255899">
        <ele>639.4140625</ele>
        <time>2011-04-21T19:15:17Z</time>
      </trkpt>
      <trkpt lat="31.251817932352424" lon="-4.137470098212361">
        <ele>637.97216796875</ele>
        <time>2011-04-21T19:15:24Z</time>
      </trkpt>
      <trkpt lat="31.253384258598089" lon="-4.139150166884065">
        <ele>636.049560546875</ele>
        <time>2011-04-21T19:15:33Z</time>
      </trkpt>
      <trkpt lat="31.256428817287087" lon="-4.14249999448657">
        <ele>632.684814453125</ele>
        <time>2011-04-21T19:15:51Z</time>
      </trkpt>
      <trkpt lat="31.258644154295325" lon="-4.144920185208321">
        <ele>629.80078125</ele>
        <time>2011-04-21T19:16:04Z</time>
      </trkpt>
      <trkpt lat="31.261515375226736" lon="-4.148092987015843">
        <ele>628.839599609375</ele>
        <time>2011-04-21T19:16:21Z</time>
      </trkpt>
      <trkpt lat="31.262346273288131" lon="-4.149378351867199">
        <ele>637.0107421875</ele>
        <time>2011-04-21T19:16:27Z</time>
      </trkpt>
      <trkpt lat="31.262866873294115" lon="-4.150591632351279">
        <ele>641.336669921875</ele>
        <time>2011-04-21T19:16:33Z</time>
      </trkpt>
      <trkpt lat="31.263813357800245" lon="-4.15305289439857">
        <ele>652.391845703125</ele>
        <time>2011-04-21T19:16:46Z</time>
      </trkpt>
      <trkpt lat="31.264846259728074" lon="-4.155701491981745">
        <ele>665.36962890625</ele>
        <time>2011-04-21T19:16:59Z</time>
      </trkpt>
      <trkpt lat="31.266132798045874" lon="-4.15899314917624">
        <ele>683.634521484375</ele>
        <time>2011-04-21T19:17:14Z</time>
      </trkpt>
      <trkpt lat="31.267394861206412" lon="-4.161857245489955">
        <ele>699.015625</ele>
        <time>2011-04-21T19:17:27Z</time>
      </trkpt>
      <trkpt lat="31.268180664628744" lon="-4.162744050845504">
        <ele>698.054443359375</ele>
        <time>2011-04-21T19:17:32Z</time>
      </trkpt>
      <trkpt lat="31.269713379442692" lon="-4.163900250568986">
        <ele>689.88330078125</ele>
        <time>2011-04-21T19:17:40Z</time>
      </trkpt>
      <trkpt lat="31.272525591775775" lon="-4.165945770218968">
        <ele>692.767333984375</ele>
        <time>2011-04-21T19:17:54Z</time>
      </trkpt>
      <trkpt lat="31.275319866836071" lon="-4.168001264333725">
        <ele>698.534912109375</ele>
        <time>2011-04-21T19:18:08Z</time>
      </trkpt>
      <trkpt lat="31.278185555711389" lon="-4.170127585530281">
        <ele>702.861083984375</ele>
        <time>2011-04-21T19:18:22Z</time>
      </trkpt>
      <trkpt lat="31.281188372522593" lon="-4.172357087954879">
        <ele>704.30322265625</ele>
        <time>2011-04-21T19:18:36Z</time>
      </trkpt>
      <trkpt lat="31.28421968780458" lon="-4.174644676968455">
        <ele>706.2255859375</ele>
        <time>2011-04-21T19:18:50Z</time>
      </trkpt>
      <trkpt lat="31.286359336227179" lon="-4.176478050649166">
        <ele>691.805908203125</ele>
        <time>2011-04-21T19:19:00Z</time>
      </trkpt>
      <trkpt lat="31.288174772635102" lon="-4.17804965749383">
        <ele>683.634521484375</ele>
        <time>2011-04-21T19:19:09Z</time>
      </trkpt>
      <trkpt lat="31.28974755294621" lon="-4.179665436968207">
        <ele>674.502197265625</ele>
        <time>2011-04-21T19:19:18Z</time>
      </trkpt>
      <trkpt lat="31.291990047320724" lon="-4.182212948799133">
        <ele>662.485595703125</ele>
        <time>2011-04-21T19:19:32Z</time>
      </trkpt>
      <trkpt lat="31.292957570403814" lon="-4.183311648666859">
        <ele>657.198486328125</ele>
        <time>2011-04-21T19:19:39Z</time>
      </trkpt>
      <trkpt lat="31.293857451528311" lon="-4.184508584439755">
        <ele>659.601806640625</ele>
        <time>2011-04-21T19:19:46Z</time>
      </trkpt>
      <trkpt lat="31.293952250853181" lon="-4.184713941067457">
        <ele>659.601806640625</ele>
        <time>2011-04-21T19:19:47Z</time>
      </trkpt>
      <trkpt lat="31.294168336316943" lon="-4.186053955927491">
        <ele>663.927490234375</ele>
        <time>2011-04-21T19:19:53Z</time>
      </trkpt>
      <trkpt lat="31.294020647183061" lon="-4.190462250262499">
        <ele>681.7119140625</ele>
        <time>2011-04-21T19:20:12Z</time>
      </trkpt>
      <trkpt lat="31.293940851464868" lon="-4.193397928029299">
        <ele>694.209228515625</ele>
        <time>2011-04-21T19:20:24Z</time>
      </trkpt>
      <trkpt lat="31.293866084888577" lon="-4.196695368736982">
        <ele>705.7451171875</ele>
        <time>2011-04-21T19:20:37Z</time>
      </trkpt>
      <trkpt lat="31.293804980814457" lon="-4.199222764000297">
        <ele>710.551513671875</ele>
        <time>2011-04-21T19:20:46Z</time>
      </trkpt>
      <trkpt lat="31.293721999973059" lon="-4.203192181885243">
        <ele>716.80029296875</ele>
        <time>2011-04-21T19:21:00Z</time>
      </trkpt>
      <trkpt lat="31.293609263375401" lon="-4.208003981038928">
        <ele>725.9326171875</ele>
        <time>2011-04-21T19:21:17Z</time>
      </trkpt>
      <trkpt lat="31.293533239513636" lon="-4.211602499708533">
        <ele>728.816650390625</ele>
        <time>2011-04-21T19:21:30Z</time>
      </trkpt>
      <trkpt lat="31.293505160138011" lon="-4.214777732267976">
        <ele>732.181396484375</ele>
        <time>2011-04-21T19:21:42Z</time>
      </trkpt>
      <trkpt lat="31.293507171794772" lon="-4.215130945667625">
        <ele>734.584716796875</ele>
        <time>2011-04-21T19:21:45Z</time>
      </trkpt>
      <trkpt lat="31.293455036357045" lon="-4.215701585635543">
        <ele>738.91064453125</ele>
        <time>2011-04-21T19:21:51Z</time>
      </trkpt>
      <trkpt lat="31.293283794075251" lon="-4.216667264699936">
        <ele>741.79443359375</ele>
        <time>2011-04-21T19:21:57Z</time>
      </trkpt>
      <trkpt lat="31.292820693925023" lon="-4.218417070806027">
        <ele>736.50732421875</ele>
        <time>2011-04-21T19:22:07Z</time>
      </trkpt>
      <trkpt lat="31.292570745572448" lon="-4.220180287957192">
        <ele>733.623291015625</ele>
        <time>2011-04-21T19:22:16Z</time>
      </trkpt>
      <trkpt lat="31.292421547695994" lon="-4.222025061026216">
        <ele>736.98779296875</ele>
        <time>2011-04-21T19:22:26Z</time>
      </trkpt>
      <trkpt lat="31.292410148307681" lon="-4.223123257979751">
        <ele>738.429931640625</ele>
        <time>2011-04-21T19:22:33Z</time>
      </trkpt>
      <trkpt lat="31.292419033125043" lon="-4.22356397844851">
        <ele>737.94921875</ele>
        <time>2011-04-21T19:22:36Z</time>
      </trkpt>
      <trkpt lat="31.292284755036235" lon="-4.224108550697565">
        <ele>736.98779296875</ele>
        <time>2011-04-21T19:22:40Z</time>
      </trkpt>
      <trkpt lat="31.291440529748797" lon="-4.22558544203639">
        <ele>725.9326171875</ele>
        <time>2011-04-21T19:22:51Z</time>
      </trkpt>
      <trkpt lat="31.291136685758829" lon="-4.226254317909479">
        <ele>724.49072265625</ele>
        <time>2011-04-21T19:22:56Z</time>
      </trkpt>
      <trkpt lat="31.290735276415944" lon="-4.226566879078746">
        <ele>720.164794921875</ele>
        <time>2011-04-21T19:23:01Z</time>
      </trkpt>
      <trkpt lat="31.290404442697763" lon="-4.226580960676074">
        <ele>716.319580078125</ele>
        <time>2011-04-21T19:23:04Z</time>
      </trkpt>
      <trkpt lat="31.290026335045695" lon="-4.226866699755192">
        <ele>711.512939453125</ele>
        <time>2011-04-21T19:23:09Z</time>
      </trkpt>
      <trkpt lat="31.289942264556885" lon="-4.22721404582262">
        <ele>710.551513671875</ele>
        <time>2011-04-21T19:23:12Z</time>
      </trkpt>
      <trkpt lat="31.289642779156566" lon="-4.228517934679985">
        <ele>709.109619140625</ele>
        <time>2011-04-21T19:23:21Z</time>
      </trkpt>
      <trkpt lat="31.289123687893152" lon="-4.22982819378376">
        <ele>709.59033203125</ele>
        <time>2011-04-21T19:23:31Z</time>
      </trkpt>
      <trkpt lat="31.288804756477475" lon="-4.230252066627145">
        <ele>708.62890625</ele>
        <time>2011-04-21T19:23:35Z</time>
      </trkpt>
      <trkpt lat="31.288556568324566" lon="-4.230888839811087">
        <ele>709.109619140625</ele>
        <time>2011-04-21T19:23:40Z</time>
      </trkpt>
      <trkpt lat="31.28812188282609" lon="-4.232706539332867">
        <ele>708.1484375</ele>
        <time>2011-04-21T19:23:52Z</time>
      </trkpt>
      <trkpt lat="31.287963381037116" lon="-4.233407434076071">
        <ele>707.667724609375</ele>
        <time>2011-04-21T19:23:57Z</time>
      </trkpt>
      <trkpt lat="31.288092127069831" lon="-4.233934236690402">
        <ele>708.62890625</ele>
        <time>2011-04-21T19:24:02Z</time>
      </trkpt>
      <trkpt lat="31.288259597495198" lon="-4.234077231958509">
        <ele>707.667724609375</ele>
        <time>2011-04-21T19:24:04Z</time>
      </trkpt>
      <trkpt lat="31.288611553609371" lon="-4.234335981309414">
        <ele>704.78369140625</ele>
        <time>2011-04-21T19:24:08Z</time>
      </trkpt>
      <trkpt lat="31.288788076490164" lon="-4.234842583537102">
        <ele>705.264404296875</ele>
        <time>2011-04-21T19:24:13Z</time>
      </trkpt>
      <trkpt lat="31.288615660741925" lon="-4.235657388344407">
        <ele>704.78369140625</ele>
        <time>2011-04-21T19:24:19Z</time>
      </trkpt>
      <trkpt lat="31.288665030151606" lon="-4.236233728006482">
        <ele>704.30322265625</ele>
        <time>2011-04-21T19:24:23Z</time>
      </trkpt>
      <trkpt lat="31.288651116192341" lon="-4.236776372417808">
        <ele>703.822509765625</ele>
        <time>2011-04-21T19:24:28Z</time>
      </trkpt>
      <trkpt lat="31.288400329649448" lon="-4.237833833321929">
        <ele>701.419189453125</ele>
        <time>2011-04-21T19:24:37Z</time>
      </trkpt>
      <trkpt lat="31.28809405490756" lon="-4.2393584176898">
        <ele>700.4580078125</ele>
        <time>2011-04-21T19:24:47Z</time>
      </trkpt>
      <trkpt lat="31.288016270846128" lon="-4.241086933761835">
        <ele>703.822509765625</ele>
        <time>2011-04-21T19:24:57Z</time>
      </trkpt>
      <trkpt lat="31.288024066016078" lon="-4.241583058610559">
        <ele>703.341796875</ele>
        <time>2011-04-21T19:25:00Z</time>
      </trkpt>
      <trkpt lat="31.288233026862144" lon="-4.241984467953444">
        <ele>703.822509765625</ele>
        <time>2011-04-21T19:25:04Z</time>
      </trkpt>
      <trkpt lat="31.28831977955997" lon="-4.242014642804861">
        <ele>702.861083984375</ele>
        <time>2011-04-21T19:25:05Z</time>
      </trkpt>
      <trkpt lat="31.28917783498764" lon="-4.242314882576466">
        <ele>695.651123046875</ele>
        <time>2011-04-21T19:25:12Z</time>
      </trkpt>
      <trkpt lat="31.29036613740027" lon="-4.24286968074739">
        <ele>686.518798828125</ele>
        <time>2011-04-21T19:25:20Z</time>
      </trkpt>
      <trkpt lat="31.292337058112025" lon="-4.24382446333766">
        <ele>668.734375</ele>
        <time>2011-04-21T19:25:33Z</time>
      </trkpt>
      <trkpt lat="31.29320508800447" lon="-4.244118249043822">
        <ele>663.927490234375</ele>
        <time>2011-04-21T19:25:39Z</time>
      </trkpt>
      <trkpt lat="31.293822079896927" lon="-4.244676483795047">
        <ele>659.601806640625</ele>
        <time>2011-04-21T19:25:45Z</time>
      </trkpt>
      <trkpt lat="31.293906653299928" lon="-4.245153330266476">
        <ele>666.330810546875</ele>
        <time>2011-04-21T19:25:49Z</time>
      </trkpt>
      <trkpt lat="31.293871616944671" lon="-4.24527176655829">
        <ele>667.772705078125</ele>
        <time>2011-04-21T19:25:50Z</time>
      </trkpt>
      <trkpt lat="31.293385718017817" lon="-4.246548330411315">
        <ele>675.46337890625</ele>
        <time>2011-04-21T19:25:59Z</time>
      </trkpt>
      <trkpt lat="31.292760847136378" lon="-4.248153381049633">
        <ele>682.192626953125</ele>
        <time>2011-04-21T19:26:09Z</time>
      </trkpt>
      <trkpt lat="31.292196661233902" lon="-4.249207321554422">
        <ele>684.115478515625</ele>
        <time>2011-04-21T19:26:16Z</time>
      </trkpt>
      <trkpt lat="31.291451258584857" lon="-4.250462092459202">
        <ele>685.076904296875</ele>
        <time>2011-04-21T19:26:26Z</time>
      </trkpt>
      <trkpt lat="31.290638549253345" lon="-4.251838987693191">
        <ele>684.115478515625</ele>
        <time>2011-04-21T19:26:37Z</time>
      </trkpt>
      <trkpt lat="31.290028346702456" lon="-4.252883289009333">
        <ele>683.15380859375</ele>
        <time>2011-04-21T19:26:47Z</time>
      </trkpt>
      <trkpt lat="31.289559546858072" lon="-4.253729525953531">
        <ele>684.115478515625</ele>
        <time>2011-04-21T19:26:56Z</time>
      </trkpt>
      <trkpt lat="31.289013717323542" lon="-4.25471012480557">
        <ele>682.67333984375</ele>
        <time>2011-04-21T19:27:06Z</time>
      </trkpt>
      <trkpt lat="31.288613397628069" lon="-4.255348239094019">
        <ele>678.347412109375</ele>
        <time>2011-04-21T19:27:16Z</time>
      </trkpt>
      <trkpt lat="31.28821374848485" lon="-4.255980821326375">
        <ele>665.850341796875</ele>
        <time>2011-04-21T19:27:24Z</time>
      </trkpt>
      <trkpt lat="31.287660961970687" lon="-4.257130986079574">
        <ele>662.96630859375</ele>
        <time>2011-04-21T19:27:37Z</time>
      </trkpt>
      <trkpt lat="31.287420066073537" lon="-4.257889799773693">
        <ele>670.17626953125</ele>
        <time>2011-04-21T19:27:45Z</time>
      </trkpt>
      <trkpt lat="31.287192832678556" lon="-4.258836871013045">
        <ele>676.4248046875</ele>
        <time>2011-04-21T19:27:55Z</time>
      </trkpt>
      <trkpt lat="31.286954451352358" lon="-4.259864827618003">
        <ele>684.59619140625</ele>
        <time>2011-04-21T19:28:07Z</time>
      </trkpt>
      <trkpt lat="31.286765523254871" lon="-4.26060545258224">
        <ele>688.922119140625</ele>
        <time>2011-04-21T19:28:17Z</time>
      </trkpt>
      <trkpt lat="31.286588665097952" lon="-4.261393016204238">
        <ele>694.689697265625</ele>
        <time>2011-04-21T19:28:30Z</time>
      </trkpt>
      <trkpt lat="31.286459248512983" lon="-4.261994753032923">
        <ele>704.78369140625</ele>
        <time>2011-04-21T19:28:40Z</time>
      </trkpt>
      <trkpt lat="31.286340979859233" lon="-4.262546617537737">
        <ele>718.722900390625</ele>
        <time>2011-04-21T19:28:51Z</time>
      </trkpt>
      <trkpt lat="31.28631885163486" lon="-4.263142235577107">
        <ele>731.219970703125</ele>
        <time>2011-04-21T19:28:58Z</time>
      </trkpt>
      <trkpt lat="31.286172587424517" lon="-4.263510452583432">
        <ele>744.19775390625</ele>
        <time>2011-04-21T19:29:09Z</time>
      </trkpt>
      <trkpt lat="31.286047780886292" lon="-4.263766016811132">
        <ele>756.69482421875</ele>
        <time>2011-04-21T19:29:16Z</time>
      </trkpt>
      <trkpt lat="31.285802777856588" lon="-4.264235654845834">
        <ele>768.230712890625</ele>
        <time>2011-04-21T19:29:26Z</time>
      </trkpt>
      <trkpt lat="31.285444954410195" lon="-4.264874355867505">
        <ele>779.766357421875</ele>
        <time>2011-04-21T19:29:39Z</time>
      </trkpt>
      <trkpt lat="31.285134991630912" lon="-4.26518046297133">
        <ele>777.84375</ele>
        <time>2011-04-21T19:29:45Z</time>
      </trkpt>
      <trkpt lat="31.284759482368827" lon="-4.265321949496865">
        <ele>771.11474609375</ele>
        <time>2011-04-21T19:29:50Z</time>
      </trkpt>
      <trkpt lat="31.284027490764856" lon="-4.265400320291519">
        <ele>749.00439453125</ele>
        <time>2011-04-21T19:30:00Z</time>
      </trkpt>
      <trkpt lat="31.283799335360527" lon="-4.26540526561439">
        <ele>751.40771484375</ele>
        <time>2011-04-21T19:30:07Z</time>
      </trkpt>
      <trkpt lat="31.283687856048346" lon="-4.265486234799027">
        <ele>755.2529296875</ele>
        <time>2011-04-21T19:30:17Z</time>
      </trkpt>
      <trkpt lat="31.283708140254021" lon="-4.265816565603018">
        <ele>759.09814453125</ele>
        <time>2011-04-21T19:30:23Z</time>
      </trkpt>
      <trkpt lat="31.283753151074052" lon="-4.266612594947219">
        <ele>760.5400390625</ele>
        <time>2011-04-21T19:30:33Z</time>
      </trkpt>
      <trkpt lat="31.283718952909112" lon="-4.267516164109111">
        <ele>765.346923828125</ele>
        <time>2011-04-21T19:30:42Z</time>
      </trkpt>
      <trkpt lat="31.283713253214955" lon="-4.268491650000215">
        <ele>766.30810546875</ele>
        <time>2011-04-21T19:30:53Z</time>
      </trkpt>
      <trkpt lat="31.283678384497762" lon="-4.268820472061634">
        <ele>768.230712890625</ele>
        <time>2011-04-21T19:31:00Z</time>
      </trkpt>
      <trkpt lat="31.2835952360183" lon="-4.269106965512037">
        <ele>771.11474609375</ele>
        <time>2011-04-21T19:31:09Z</time>
      </trkpt>
      <trkpt lat="31.283275969326496" lon="-4.269575597718358">
        <ele>774.9599609375</ele>
        <time>2011-04-21T19:31:17Z</time>
      </trkpt>
      <trkpt lat="31.282596699893475" lon="-4.270363161340356">
        <ele>778.80517578125</ele>
        <time>2011-04-21T19:31:30Z</time>
      </trkpt>
      <trkpt lat="31.281964369118214" lon="-4.271067325025797">
        <ele>781.689208984375</ele>
        <time>2011-04-21T19:31:42Z</time>
      </trkpt>
      <trkpt lat="31.281534042209387" lon="-4.271579459309578">
        <ele>782.169921875</ele>
        <time>2011-04-21T19:31:51Z</time>
      </trkpt>
      <trkpt lat="31.28106121905148" lon="-4.272162085399032">
        <ele>781.689208984375</ele>
        <time>2011-04-21T19:32:00Z</time>
      </trkpt>
      <trkpt lat="31.280553694814444" lon="-4.272887371480465">
        <ele>781.689208984375</ele>
        <time>2011-04-21T19:32:10Z</time>
      </trkpt>
      <trkpt lat="31.280257645994425" lon="-4.273517690598965">
        <ele>781.689208984375</ele>
        <time>2011-04-21T19:32:16Z</time>
      </trkpt>
      <trkpt lat="31.279579466208816" lon="-4.274928951635957">
        <ele>780.72802734375</ele>
        <time>2011-04-21T19:32:27Z</time>
      </trkpt>
      <trkpt lat="31.278915368020535" lon="-4.276300482451916">
        <ele>780.247314453125</ele>
        <time>2011-04-21T19:32:38Z</time>
      </trkpt>
      <trkpt lat="31.278392756357789" lon="-4.277473194524646">
        <ele>775.921142578125</ele>
        <time>2011-04-21T19:32:48Z</time>
      </trkpt>
      <trkpt lat="31.278227549046278" lon="-4.278332255780697">
        <ele>772.075927734375</ele>
        <time>2011-04-21T19:32:54Z</time>
      </trkpt>
      <trkpt lat="31.278079524636269" lon="-4.279685597866774">
        <ele>769.6728515625</ele>
        <time>2011-04-21T19:33:04Z</time>
      </trkpt>
      <trkpt lat="31.277946336194873" lon="-4.280972136184573">
        <ele>766.788818359375</ele>
        <time>2011-04-21T19:33:12Z</time>
      </trkpt>
      <trkpt lat="31.277803843840957" lon="-4.283010447397828">
        <ele>762.462646484375</ele>
        <time>2011-04-21T19:33:24Z</time>
      </trkpt>
      <trkpt lat="31.277714744210243" lon="-4.284674171358347">
        <ele>760.059326171875</ele>
        <time>2011-04-21T19:33:35Z</time>
      </trkpt>
      <trkpt lat="31.277712732553482" lon="-4.285147832706571">
        <ele>759.09814453125</ele>
        <time>2011-04-21T19:33:39Z</time>
      </trkpt>
      <trkpt lat="31.27803023904562" lon="-4.285943694412708">
        <ele>757.65625</ele>
        <time>2011-04-21T19:33:46Z</time>
      </trkpt>
      <trkpt lat="31.27811967395246" lon="-4.286056347191334">
        <ele>757.65625</ele>
        <time>2011-04-21T19:33:47Z</time>
      </trkpt>
      <trkpt lat="31.278428547084332" lon="-4.28637083619833">
        <ele>757.65625</ele>
        <time>2011-04-21T19:33:50Z</time>
      </trkpt>
      <trkpt lat="31.278916792944074" lon="-4.286653641611338">
        <ele>758.617431640625</ele>
        <time>2011-04-21T19:33:54Z</time>
      </trkpt>
      <trkpt lat="31.280387649312615" lon="-4.287100061774254">
        <ele>759.09814453125</ele>
        <time>2011-04-21T19:34:04Z</time>
      </trkpt>
      <trkpt lat="31.281969984993339" lon="-4.287737840786576">
        <ele>760.059326171875</ele>
        <time>2011-04-21T19:34:14Z</time>
      </trkpt>
      <trkpt lat="31.28322584554553" lon="-4.288201192393899">
        <ele>760.059326171875</ele>
        <time>2011-04-21T19:34:22Z</time>
      </trkpt>
      <trkpt lat="31.284738443791866" lon="-4.288783567026258">
        <ele>761.50146484375</ele>
        <time>2011-04-21T19:34:32Z</time>
      </trkpt>
      <trkpt lat="31.286146938800812" lon="-4.289514720439911">
        <ele>762.943359375</ele>
        <time>2011-04-21T19:34:41Z</time>
      </trkpt>
      <trkpt lat="31.287795826792717" lon="-4.290403118357062">
        <ele>764.8662109375</ele>
        <time>2011-04-21T19:34:52Z</time>
      </trkpt>
      <trkpt lat="31.288615828379989" lon="-4.290831852704287">
        <ele>765.346923828125</ele>
        <time>2011-04-21T19:34:58Z</time>
      </trkpt>
      <trkpt lat="31.289729028940201" lon="-4.291376592591405">
        <ele>765.346923828125</ele>
        <time>2011-04-21T19:35:07Z</time>
      </trkpt>
      <trkpt lat="31.290850527584553" lon="-4.29161237552762">
        <ele>764.8662109375</ele>
        <time>2011-04-21T19:35:14Z</time>
      </trkpt>
      <trkpt lat="31.29191268235445" lon="-4.291532998904586">
        <ele>764.385498046875</ele>
        <time>2011-04-21T19:35:20Z</time>
      </trkpt>
      <trkpt lat="31.294161882251501" lon="-4.291070988401771">
        <ele>764.8662109375</ele>
        <time>2011-04-21T19:35:32Z</time>
      </trkpt>
      <trkpt lat="31.295363260433078" lon="-4.290743842720985">
        <ele>763.424072265625</ele>
        <time>2011-04-21T19:35:39Z</time>
      </trkpt>
      <trkpt lat="31.296726576983929" lon="-4.289952171966434">
        <ele>761.50146484375</ele>
        <time>2011-04-21T19:35:48Z</time>
      </trkpt>
      <trkpt lat="31.298379823565483" lon="-4.288946930319071">
        <ele>762.943359375</ele>
        <time>2011-04-21T19:35:59Z</time>
      </trkpt>
      <trkpt lat="31.300542438402772" lon="-4.287698194384575">
        <ele>763.904541015625</ele>
        <time>2011-04-21T19:36:12Z</time>
      </trkpt>
      <trkpt lat="31.301738619804382" lon="-4.287154879420996">
        <ele>763.904541015625</ele>
        <time>2011-04-21T19:36:19Z</time>
      </trkpt>
      <trkpt lat="31.303786067292094" lon="-4.286481393501163">
        <ele>764.8662109375</ele>
        <time>2011-04-21T19:36:30Z</time>
      </trkpt>
      <trkpt lat="31.305717676877975" lon="-4.285854259505868">
        <ele>766.788818359375</ele>
        <time>2011-04-21T19:36:41Z</time>
      </trkpt>
      <trkpt lat="31.30747402086854" lon="-4.285368025302887">
        <ele>767.75</ele>
        <time>2011-04-21T19:36:52Z</time>
      </trkpt>
      <trkpt lat="31.308510862290859" lon="-4.285505823791027">
        <ele>768.230712890625</ele>
        <time>2011-04-21T19:36:58Z</time>
      </trkpt>
      <trkpt lat="31.310741873458028" lon="-4.285934725776315">
        <ele>770.1533203125</ele>
        <time>2011-04-21T19:37:10Z</time>
      </trkpt>
      <trkpt lat="31.31279225461185" lon="-4.286382319405675">
        <ele>770.1533203125</ele>
        <time>2011-04-21T19:37:22Z</time>
      </trkpt>
      <trkpt lat="31.314959563314915" lon="-4.287183126434684">
        <ele>770.634033203125</ele>
        <time>2011-04-21T19:37:35Z</time>
      </trkpt>
      <trkpt lat="31.315899677574635" lon="-4.287392841652036">
        <ele>770.634033203125</ele>
        <time>2011-04-21T19:37:42Z</time>
      </trkpt>
      <trkpt lat="31.317494250833988" lon="-4.287649495527148">
        <ele>770.634033203125</ele>
        <time>2011-04-21T19:37:51Z</time>
      </trkpt>
      <trkpt lat="31.318925628438592" lon="-4.288068925961852">
        <ele>770.634033203125</ele>
        <time>2011-04-21T19:37:59Z</time>
      </trkpt>
      <trkpt lat="31.320390030741692" lon="-4.288384588435292">
        <ele>771.11474609375</ele>
        <time>2011-04-21T19:38:07Z</time>
      </trkpt>
      <trkpt lat="31.322531942278147" lon="-4.288351647555828">
        <ele>772.075927734375</ele>
        <time>2011-04-21T19:38:18Z</time>
      </trkpt>
      <trkpt lat="31.324760438874364" lon="-4.288317449390888">
        <ele>772.556640625</ele>
        <time>2011-04-21T19:38:30Z</time>
      </trkpt>
      <trkpt lat="31.326245125383139" lon="-4.288295656442642">
        <ele>773.037353515625</ele>
        <time>2011-04-21T19:38:39Z</time>
      </trkpt>
      <trkpt lat="31.327346758916974" lon="-4.288503862917423">
        <ele>773.51806640625</ele>
        <time>2011-04-21T19:38:46Z</time>
      </trkpt>
      <trkpt lat="31.328559368848801" lon="-4.288800247013569">
        <ele>773.99853515625</ele>
        <time>2011-04-21T19:38:54Z</time>
      </trkpt>
      <trkpt lat="31.329485485330224" lon="-4.289031336084008">
        <ele>773.51806640625</ele>
        <time>2011-04-21T19:39:02Z</time>
      </trkpt>
      <trkpt lat="31.33079381659627" lon="-4.289299473166466">
        <ele>773.037353515625</ele>
        <time>2011-04-21T19:39:13Z</time>
      </trkpt>
      <trkpt lat="31.330922646448016" lon="-4.289300395175815">
        <ele>773.037353515625</ele>
        <time>2011-04-21T19:39:14Z</time>
      </trkpt>
      <trkpt lat="31.331742983311415" lon="-4.289027061313391">
        <ele>772.075927734375</ele>
        <time>2011-04-21T19:39:20Z</time>
      </trkpt>
      <trkpt lat="31.3331563398242" lon="-4.288118463009596">
        <ele>771.11474609375</ele>
        <time>2011-04-21T19:39:32Z</time>
      </trkpt>
      <trkpt lat="31.333354320377111" lon="-4.28803414106369">
        <ele>771.11474609375</ele>
        <time>2011-04-21T19:39:34Z</time>
      </trkpt>
      <trkpt lat="31.334193348884583" lon="-4.287903970107436">
        <ele>771.59521484375</ele>
        <time>2011-04-21T19:39:41Z</time>
      </trkpt>
      <trkpt lat="31.335644675418735" lon="-4.28781227208674">
        <ele>771.59521484375</ele>
        <time>2011-04-21T19:39:50Z</time>
      </trkpt>
      <trkpt lat="31.337500344961882" lon="-4.287691740319133">
        <ele>773.037353515625</ele>
        <time>2011-04-21T19:40:00Z</time>
      </trkpt>
      <trkpt lat="31.339858258143067" lon="-4.287541788071394">
        <ele>774.479248046875</ele>
        <time>2011-04-21T19:40:12Z</time>
      </trkpt>
      <trkpt lat="31.34077113121748" lon="-4.287504237145186">
        <ele>775.921142578125</ele>
        <time>2011-04-21T19:40:17Z</time>
      </trkpt>
      <trkpt lat="31.341798417270184" lon="-4.287861557677388">
        <ele>776.882568359375</ele>
        <time>2011-04-21T19:40:23Z</time>
      </trkpt>
      <trkpt lat="31.343991626054049" lon="-4.28901432082057">
        <ele>775.4404296875</ele>
        <time>2011-04-21T19:40:36Z</time>
      </trkpt>
      <trkpt lat="31.345582092180848" lon="-4.289682526141405">
        <ele>773.51806640625</ele>
        <time>2011-04-21T19:40:45Z</time>
      </trkpt>
      <trkpt lat="31.347396858036518" lon="-4.289885116741061">
        <ele>773.037353515625</ele>
        <time>2011-04-21T19:40:54Z</time>
      </trkpt>
      <trkpt lat="31.350395483896136" lon="-4.290205473080277">
        <ele>773.037353515625</ele>
        <time>2011-04-21T19:41:09Z</time>
      </trkpt>
      <trkpt lat="31.351814037188888" lon="-4.290287783369422">
        <ele>773.51806640625</ele>
        <time>2011-04-21T19:41:17Z</time>
      </trkpt>
      <trkpt lat="31.351953595876694" lon="-4.290262050926685">
        <ele>773.51806640625</ele>
        <time>2011-04-21T19:41:18Z</time>
      </trkpt>
      <trkpt lat="31.352965543046594" lon="-4.289803979918361">
        <ele>772.556640625</ele>
        <time>2011-04-21T19:41:27Z</time>
      </trkpt>
      <trkpt lat="31.354133393615484" lon="-4.28922981955111">
        <ele>772.075927734375</ele>
        <time>2011-04-21T19:41:37Z</time>
      </trkpt>
      <trkpt lat="31.355479778721929" lon="-4.288433287292719">
        <ele>771.11474609375</ele>
        <time>2011-04-21T19:41:47Z</time>
      </trkpt>
      <trkpt lat="31.3566002715379" lon="-4.287782181054354">
        <ele>772.556640625</ele>
        <time>2011-04-21T19:41:55Z</time>
      </trkpt>
      <trkpt lat="31.358183361589909" lon="-4.287300640717149">
        <ele>781.208740234375</ele>
        <time>2011-04-21T19:42:04Z</time>
      </trkpt>
      <trkpt lat="31.360766161233187" lon="-4.286565380170941">
        <ele>785.534423828125</ele>
        <time>2011-04-21T19:42:18Z</time>
      </trkpt>
      <trkpt lat="31.363060958683491" lon="-4.28588418290019">
        <ele>785.053955078125</ele>
        <time>2011-04-21T19:42:30Z</time>
      </trkpt>
      <trkpt lat="31.36410953477025" lon="-4.285216899588704">
        <ele>786.01513671875</ele>
        <time>2011-04-21T19:42:36Z</time>
      </trkpt>
      <trkpt lat="31.365290461108088" lon="-4.284260524436832">
        <ele>787.937744140625</ele>
        <time>2011-04-21T19:42:44Z</time>
      </trkpt>
      <trkpt lat="31.366550177335739" lon="-4.283202644437552">
        <ele>791.782958984375</ele>
        <time>2011-04-21T19:42:54Z</time>
      </trkpt>
      <trkpt lat="31.368130752816796" lon="-4.281876627355814">
        <ele>796.109130859375</ele>
        <time>2011-04-21T19:43:06Z</time>
      </trkpt>
      <trkpt lat="31.370140230283141" lon="-4.280191278085113">
        <ele>798.03173828125</ele>
        <time>2011-04-21T19:43:21Z</time>
      </trkpt>
      <trkpt lat="31.37167252600193" lon="-4.278897531330586">
        <ele>799.4736328125</ele>
        <time>2011-04-21T19:43:31Z</time>
      </trkpt>
      <trkpt lat="31.37374478392303" lon="-4.277148898690939">
        <ele>800.91552734375</ele>
        <time>2011-04-21T19:43:43Z</time>
      </trkpt>
      <trkpt lat="31.375497356057167" lon="-4.275724394246936">
        <ele>802.357421875</ele>
        <time>2011-04-21T19:43:53Z</time>
      </trkpt>
      <trkpt lat="31.378015866503119" lon="-4.273720867931843">
        <ele>800.43505859375</ele>
        <time>2011-04-21T19:44:07Z</time>
      </trkpt>
      <trkpt lat="31.380723640322685" lon="-4.271582392975688">
        <ele>795.1474609375</ele>
        <time>2011-04-21T19:44:22Z</time>
      </trkpt>
      <trkpt lat="31.383011229336262" lon="-4.269801825284958">
        <ele>777.36328125</ele>
        <time>2011-04-21T19:44:35Z</time>
      </trkpt>
      <trkpt lat="31.38519236817956" lon="-4.268108680844307">
        <ele>764.8662109375</ele>
        <time>2011-04-21T19:44:48Z</time>
      </trkpt>
      <trkpt lat="31.3876096252352" lon="-4.266249323263764">
        <ele>752.849609375</ele>
        <time>2011-04-21T19:45:02Z</time>
      </trkpt>
      <trkpt lat="31.390459220856428" lon="-4.264074135571718">
        <ele>741.313720703125</ele>
        <time>2011-04-21T19:45:18Z</time>
      </trkpt>
      <trkpt lat="31.393042020499706" lon="-4.262091647833586">
        <ele>730.258544921875</ele>
        <time>2011-04-21T19:45:33Z</time>
      </trkpt>
      <trkpt lat="31.395007744431496" lon="-4.260590616613627">
        <ele>722.08740234375</ele>
        <time>2011-04-21T19:45:45Z</time>
      </trkpt>
      <trkpt lat="31.397389294579625" lon="-4.258754057809711">
        <ele>714.396728515625</ele>
        <time>2011-04-21T19:46:00Z</time>
      </trkpt>
      <trkpt lat="31.399679817259312" lon="-4.256986146792769">
        <ele>709.109619140625</ele>
        <time>2011-04-21T19:46:15Z</time>
      </trkpt>
      <trkpt lat="31.40231978148222" lon="-4.254958732053638">
        <ele>707.18701171875</ele>
        <time>2011-04-21T19:46:32Z</time>
      </trkpt>
      <trkpt lat="31.404774589464068" lon="-4.2530507594347">
        <ele>717.281005859375</ele>
        <time>2011-04-21T19:46:47Z</time>
      </trkpt>
      <trkpt lat="31.406667558476329" lon="-4.251597337424755">
        <ele>721.606689453125</ele>
        <time>2011-04-21T19:46:59Z</time>
      </trkpt>
      <trkpt lat="31.408091224730015" lon="-4.250515988096595">
        <ele>730.7392578125</ele>
        <time>2011-04-21T19:47:09Z</time>
      </trkpt>
      <trkpt lat="31.409759391099215" lon="-4.249396249651909">
        <ele>740.8330078125</ele>
        <time>2011-04-21T19:47:22Z</time>
      </trkpt>
      <trkpt lat="31.411575498059392" lon="-4.248227477073669">
        <ele>754.291748046875</ele>
        <time>2011-04-21T19:47:36Z</time>
      </trkpt>
      <trkpt lat="31.413122126832604" lon="-4.247195161879063">
        <ele>763.424072265625</ele>
        <time>2011-04-21T19:47:47Z</time>
      </trkpt>
      <trkpt lat="31.415253477171063" lon="-4.245747942477465">
        <ele>770.1533203125</ele>
        <time>2011-04-21T19:48:01Z</time>
      </trkpt>
      <trkpt lat="31.416660295799375" lon="-4.244785197079182">
        <ele>773.51806640625</ele>
        <time>2011-04-21T19:48:11Z</time>
      </trkpt>
      <trkpt lat="31.418681172654033" lon="-4.243383072316647">
        <ele>776.40185546875</ele>
        <time>2011-04-21T19:48:27Z</time>
      </trkpt>
      <trkpt lat="31.419830331578851" lon="-4.242574470117688">
        <ele>778.80517578125</ele>
        <time>2011-04-21T19:48:37Z</time>
      </trkpt>
      <trkpt lat="31.421326417475939" lon="-4.241515919566155">
        <ele>780.247314453125</ele>
        <time>2011-04-21T19:48:51Z</time>
      </trkpt>
      <trkpt lat="31.42295946367085" lon="-4.240427697077394">
        <ele>782.169921875</ele>
        <time>2011-04-21T19:49:05Z</time>
      </trkpt>
      <trkpt lat="31.424224376678467" lon="-4.239650946110487">
        <ele>785.053955078125</ele>
        <time>2011-04-21T19:49:17Z</time>
      </trkpt>
      <trkpt lat="31.425690371543169" lon="-4.238767325878143">
        <ele>788.41845703125</ele>
        <time>2011-04-21T19:49:31Z</time>
      </trkpt>
      <trkpt lat="31.426745485514402" lon="-4.238096186891198">
        <ele>790.821533203125</ele>
        <time>2011-04-21T19:49:42Z</time>
      </trkpt>
      <trkpt lat="31.42785013653338" lon="-4.237420186400414">
        <ele>792.744384765625</ele>
        <time>2011-04-21T19:49:54Z</time>
      </trkpt>
      <trkpt lat="31.428654128685594" lon="-4.236930347979069">
        <ele>794.666748046875</ele>
        <time>2011-04-21T19:50:04Z</time>
      </trkpt>
      <trkpt lat="31.429554261267185" lon="-4.236374124884605">
        <ele>795.628173828125</ele>
        <time>2011-04-21T19:50:16Z</time>
      </trkpt>
      <trkpt lat="31.430429834872484" lon="-4.235845729708672">
        <ele>794.666748046875</ele>
        <time>2011-04-21T19:50:29Z</time>
      </trkpt>
      <trkpt lat="31.431222092360258" lon="-4.235355975106359">
        <ele>793.70556640625</ele>
        <time>2011-04-21T19:50:40Z</time>
      </trkpt>
      <trkpt lat="31.431992556899786" lon="-4.234967725351453">
        <ele>792.263671875</ele>
        <time>2011-04-21T19:50:51Z</time>
      </trkpt>
      <trkpt lat="31.432756232097745" lon="-4.234655918553472">
        <ele>793.70556640625</ele>
        <time>2011-04-21T19:51:02Z</time>
      </trkpt>
      <trkpt lat="31.433726856485009" lon="-4.234222238883376">
        <ele>797.0703125</ele>
        <time>2011-04-21T19:51:17Z</time>
      </trkpt>
      <trkpt lat="31.434309147298336" lon="-4.233929794281721">
        <ele>798.992919921875</ele>
        <time>2011-04-21T19:51:27Z</time>
      </trkpt>
      <trkpt lat="31.434549540281296" lon="-4.23379585146904">
        <ele>796.109130859375</ele>
        <time>2011-04-21T19:51:34Z</time>
      </trkpt>
      <trkpt lat="31.435022782534361" lon="-4.233552357181907">
        <ele>795.628173828125</ele>
        <time>2011-04-21T19:51:47Z</time>
      </trkpt>
      <trkpt lat="31.435523768886924" lon="-4.23330768942833">
        <ele>793.224853515625</ele>
        <time>2011-04-21T19:51:59Z</time>
      </trkpt>
      <trkpt lat="31.436178898438811" lon="-4.23295933753252">
        <ele>794.186279296875</ele>
        <time>2011-04-21T19:52:10Z</time>
      </trkpt>
      <trkpt lat="31.436583660542965" lon="-4.232771331444383">
        <ele>793.70556640625</ele>
        <time>2011-04-21T19:52:19Z</time>
      </trkpt>
      <trkpt lat="31.437545316293836" lon="-4.232297251001">
        <ele>793.70556640625</ele>
        <time>2011-04-21T19:52:35Z</time>
      </trkpt>
      <trkpt lat="31.438418794423342" lon="-4.231892237439752">
        <ele>792.744384765625</ele>
        <time>2011-04-21T19:52:50Z</time>
      </trkpt>
      <trkpt lat="31.438973173499107" lon="-4.231640277430415">
        <ele>788.899169921875</ele>
        <time>2011-04-21T19:53:02Z</time>
      </trkpt>
      <trkpt lat="31.439595445990562" lon="-4.231358226388693">
        <ele>792.744384765625</ele>
        <time>2011-04-21T19:53:13Z</time>
      </trkpt>
      <trkpt lat="31.440476886928082" lon="-4.230965366587043">
        <ele>794.666748046875</ele>
        <time>2011-04-21T19:53:27Z</time>
      </trkpt>
      <trkpt lat="31.441189097240567" lon="-4.230634197592735">
        <ele>795.628173828125</ele>
        <time>2011-04-21T19:53:40Z</time>
      </trkpt>
      <trkpt lat="31.441557398065925" lon="-4.230456836521626">
        <ele>794.666748046875</ele>
        <time>2011-04-21T19:53:49Z</time>
      </trkpt>
      <trkpt lat="31.441641384735703" lon="-4.230199176818132">
        <ele>790.821533203125</ele>
        <time>2011-04-21T19:53:57Z</time>
      </trkpt>
      <trkpt lat="31.441748170182109" lon="-4.230076298117638">
        <ele>794.666748046875</ele>
        <time>2011-04-21T19:54:09Z</time>
      </trkpt>
      <trkpt lat="31.441876664757729" lon="-4.230102533474565">
        <ele>798.51220703125</ele>
        <time>2011-04-21T20:00:08Z</time>
      </trkpt>
      <trkpt lat="31.44193047657609" lon="-4.230220383033156">
        <ele>796.58984375</ele>
        <time>2011-04-21T20:00:22Z</time>
      </trkpt>
      <trkpt lat="31.442114124074578" lon="-4.230214683339">
        <ele>790.341064453125</ele>
        <time>2011-04-21T20:00:43Z</time>
      </trkpt>
      <trkpt lat="31.442223843187094" lon="-4.230186771601439">
        <ele>791.782958984375</ele>
        <time>2011-04-21T20:00:51Z</time>
      </trkpt>
      <trkpt lat="31.4417071826756" lon="-4.230131786316633">
        <ele>907.621826171875</ele>
        <time>2011-04-21T21:55:10Z</time>
      </trkpt>
      <trkpt lat="31.44145748578012" lon="-4.230365976691246">
        <ele>770.634033203125</ele>
        <time>2011-04-21T22:03:51Z</time>
      </trkpt>
      <trkpt lat="31.441169148311019" lon="-4.230562280863524">
        <ele>775.4404296875</ele>
        <time>2011-04-21T22:04:08Z</time>
      </trkpt>
      <trkpt lat="31.440693726763129" lon="-4.230750454589725">
        <ele>785.053955078125</ele>
        <time>2011-04-21T22:04:19Z</time>
      </trkpt>
      <trkpt lat="31.440000040456653" lon="-4.231072654947639">
        <ele>779.28564453125</ele>
        <time>2011-04-21T22:04:31Z</time>
      </trkpt>
      <trkpt lat="31.439257487654686" lon="-4.231406338512898">
        <ele>781.208740234375</ele>
        <time>2011-04-21T22:04:42Z</time>
      </trkpt>
      <trkpt lat="31.438471181318164" lon="-4.231768436729908">
        <ele>782.169921875</ele>
        <time>2011-04-21T22:04:55Z</time>
      </trkpt>
      <trkpt lat="31.437806244939566" lon="-4.232077058404684">
        <ele>781.689208984375</ele>
        <time>2011-04-21T22:05:06Z</time>
      </trkpt>
      <trkpt lat="31.436759429052472" lon="-4.232588773593307">
        <ele>776.40185546875</ele>
        <time>2011-04-21T22:05:21Z</time>
      </trkpt>
      <trkpt lat="31.435715463012457" lon="-4.233125131577253">
        <ele>770.634033203125</ele>
        <time>2011-04-21T22:05:35Z</time>
      </trkpt>
      <trkpt lat="31.434484245255589" lon="-4.233739273622632">
        <ele>767.26953125</ele>
        <time>2011-04-21T22:05:52Z</time>
      </trkpt>
      <trkpt lat="31.433258140459657" lon="-4.234378729015589">
        <ele>765.82763671875</ele>
        <time>2011-04-21T22:06:08Z</time>
      </trkpt>
      <trkpt lat="31.432479294016957" lon="-4.2347511369735">
        <ele>765.346923828125</ele>
        <time>2011-04-21T22:06:19Z</time>
      </trkpt>
      <trkpt lat="31.431734394282103" lon="-4.23505456186831">
        <ele>763.424072265625</ele>
        <time>2011-04-21T22:06:28Z</time>
      </trkpt>
      <trkpt lat="31.430743485689163" lon="-4.23552704975009">
        <ele>765.346923828125</ele>
        <time>2011-04-21T22:06:40Z</time>
      </trkpt>
      <trkpt lat="31.429715864360332" lon="-4.236247641965747">
        <ele>772.075927734375</ele>
        <time>2011-04-21T22:06:53Z</time>
      </trkpt>
      <trkpt lat="31.428985632956028" lon="-4.236723817884922">
        <ele>781.208740234375</ele>
        <time>2011-04-21T22:07:02Z</time>
      </trkpt>
      <trkpt lat="31.427993467077613" lon="-4.2373017501086">
        <ele>791.30224609375</ele>
        <time>2011-04-21T22:07:12Z</time>
      </trkpt>
      <trkpt lat="31.426726961508393" lon="-4.238034998998046">
        <ele>803.31884765625</ele>
        <time>2011-04-21T22:07:23Z</time>
      </trkpt>
      <trkpt lat="31.424690075218678" lon="-4.239255571737886">
        <ele>819.661376953125</ele>
        <time>2011-04-21T22:07:39Z</time>
      </trkpt>
      <trkpt lat="31.422624019905925" lon="-4.240507995709777">
        <ele>833.600341796875</ele>
        <time>2011-04-21T22:07:55Z</time>
      </trkpt>
      <trkpt lat="31.420585121959448" lon="-4.241845495998859">
        <ele>842.252197265625</ele>
        <time>2011-04-21T22:08:11Z</time>
      </trkpt>
      <trkpt lat="31.41871377825737" lon="-4.243201436474919">
        <ele>844.175048828125</ele>
        <time>2011-04-21T22:08:26Z</time>
      </trkpt>
      <trkpt lat="31.417052652686834" lon="-4.244389655068517">
        <ele>845.13623046875</ele>
        <time>2011-04-21T22:08:39Z</time>
      </trkpt>
      <trkpt lat="31.415266888216138" lon="-4.245671331882477">
        <ele>848.9814453125</ele>
        <time>2011-04-21T22:08:53Z</time>
      </trkpt>
      <trkpt lat="31.413156576454639" lon="-4.247185690328479">
        <ele>855.22998046875</ele>
        <time>2011-04-21T22:09:08Z</time>
      </trkpt>
      <trkpt lat="31.411103596910834" lon="-4.248659731820226">
        <ele>859.0751953125</ele>
        <time>2011-04-21T22:09:22Z</time>
      </trkpt>
      <trkpt lat="31.408737972378731" lon="-4.250366119667888">
        <ele>861.95947265625</ele>
        <time>2011-04-21T22:09:37Z</time>
      </trkpt>
      <trkpt lat="31.40646094456315" lon="-4.252112237736583">
        <ele>864.84326171875</ele>
        <time>2011-04-21T22:09:51Z</time>
      </trkpt>
      <trkpt lat="31.404447946697474" lon="-4.253649478778243">
        <ele>864.362548828125</ele>
        <time>2011-04-21T22:10:02Z</time>
      </trkpt>
      <trkpt lat="31.401828266680241" lon="-4.255643533542752">
        <ele>861.95947265625</ele>
        <time>2011-04-21T22:10:16Z</time>
      </trkpt>
      <trkpt lat="31.399404220283031" lon="-4.257504483684897">
        <ele>862.920654296875</ele>
        <time>2011-04-21T22:10:29Z</time>
      </trkpt>
      <trkpt lat="31.396018853411078" lon="-4.26012902520597">
        <ele>865.323974609375</ele>
        <time>2011-04-21T22:10:47Z</time>
      </trkpt>
      <trkpt lat="31.39313162304461" lon="-4.262343691661954">
        <ele>865.323974609375</ele>
        <time>2011-04-21T22:11:03Z</time>
      </trkpt>
      <trkpt lat="31.390751749277115" lon="-4.26418025046587">
        <ele>866.765869140625</ele>
        <time>2011-04-21T22:11:17Z</time>
      </trkpt>
      <trkpt lat="31.388206668198109" lon="-4.26612745039165">
        <ele>866.765869140625</ele>
        <time>2011-04-21T22:11:32Z</time>
      </trkpt>
      <trkpt lat="31.385932825505733" lon="-4.267868287861347">
        <ele>866.28515625</ele>
        <time>2011-04-21T22:11:44Z</time>
      </trkpt>
      <trkpt lat="31.382636222988367" lon="-4.270386965945363">
        <ele>864.84326171875</ele>
        <time>2011-04-21T22:12:00Z</time>
      </trkpt>
      <trkpt lat="31.378926979377866" lon="-4.273252571001649">
        <ele>858.114013671875</ele>
        <time>2011-04-21T22:12:18Z</time>
      </trkpt>
      <trkpt lat="31.375015648081899" lon="-4.276281790807843">
        <ele>854.268798828125</ele>
        <time>2011-04-21T22:12:37Z</time>
      </trkpt>
      <trkpt lat="31.372047699987888" lon="-4.278701646253467">
        <ele>852.345947265625</ele>
        <time>2011-04-21T22:12:52Z</time>
      </trkpt>
      <trkpt lat="31.368878670036793" lon="-4.281336246058345">
        <ele>851.384765625</ele>
        <time>2011-04-21T22:13:08Z</time>
      </trkpt>
      <trkpt lat="31.366339456290007" lon="-4.283437673002482">
        <ele>850.423583984375</ele>
        <time>2011-04-21T22:13:21Z</time>
      </trkpt>
      <trkpt lat="31.364433076232672" lon="-4.285012632608414">
        <ele>849.462158203125</ele>
        <time>2011-04-21T22:13:32Z</time>
      </trkpt>
      <trkpt lat="31.36320604942739" lon="-4.285969426855445">
        <ele>848.500732421875</ele>
        <time>2011-04-21T22:13:40Z</time>
      </trkpt>
      <trkpt lat="31.362123358994722" lon="-4.286471419036388">
        <ele>848.020263671875</ele>
        <time>2011-04-21T22:13:47Z</time>
      </trkpt>
      <trkpt lat="31.360135758295655" lon="-4.286984223872423">
        <ele>845.13623046875</ele>
        <time>2011-04-21T22:13:59Z</time>
      </trkpt>
      <trkpt lat="31.358981654047966" lon="-4.287278428673744">
        <ele>842.73291015625</ele>
        <time>2011-04-21T22:14:07Z</time>
      </trkpt>
      <trkpt lat="31.358267180621624" lon="-4.287469619885087">
        <ele>841.290771484375</ele>
        <time>2011-04-21T22:14:14Z</time>
      </trkpt>
      <trkpt lat="31.357244253158569" lon="-4.287720154970884">
        <ele>838.406982421875</ele>
        <time>2011-04-21T22:14:24Z</time>
      </trkpt>
      <trkpt lat="31.356084449216723" lon="-4.288017628714442">
        <ele>837.92626953125</ele>
        <time>2011-04-21T22:14:32Z</time>
      </trkpt>
      <trkpt lat="31.355605171993375" lon="-4.288167748600245">
        <ele>837.445556640625</ele>
        <time>2011-04-21T22:14:35Z</time>
      </trkpt>
      <trkpt lat="31.354572018608451" lon="-4.288865625858307">
        <ele>837.92626953125</ele>
        <time>2011-04-21T22:14:42Z</time>
      </trkpt>
      <trkpt lat="31.353469463065267" lon="-4.289477923884988">
        <ele>838.406982421875</ele>
        <time>2011-04-21T22:14:49Z</time>
      </trkpt>
      <trkpt lat="31.351503739133477" lon="-4.290428096428514">
        <ele>842.252197265625</ele>
        <time>2011-04-21T22:15:02Z</time>
      </trkpt>
      <trkpt lat="31.350751798599958" lon="-4.290550891309977">
        <ele>844.175048828125</ele>
        <time>2011-04-21T22:15:07Z</time>
      </trkpt>
      <trkpt lat="31.34935243986547" lon="-4.290387444198132">
        <ele>845.616943359375</ele>
        <time>2011-04-21T22:15:15Z</time>
      </trkpt>
      <trkpt lat="31.347327874973416" lon="-4.290151074528694">
        <ele>847.53955078125</ele>
        <time>2011-04-21T22:15:25Z</time>
      </trkpt>
      <trkpt lat="31.344649018719792" lon="-4.289802219718695">
        <ele>848.9814453125</ele>
        <time>2011-04-21T22:15:38Z</time>
      </trkpt>
      <trkpt lat="31.343565322458744" lon="-4.289302490651608">
        <ele>847.058837890625</ele>
        <time>2011-04-21T22:15:44Z</time>
      </trkpt>
      <trkpt lat="31.341296257451177" lon="-4.288087449967861">
        <ele>845.13623046875</ele>
        <time>2011-04-21T22:15:57Z</time>
      </trkpt>
      <trkpt lat="31.340636517852545" lon="-4.287764830514789">
        <ele>844.175048828125</ele>
        <time>2011-04-21T22:16:01Z</time>
      </trkpt>
      <trkpt lat="31.339647872373462" lon="-4.28768034093082">
        <ele>844.655517578125</ele>
        <time>2011-04-21T22:16:07Z</time>
      </trkpt>
      <trkpt lat="31.337747443467379" lon="-4.287807326763868">
        <ele>845.616943359375</ele>
        <time>2011-04-21T22:16:18Z</time>
      </trkpt>
      <trkpt lat="31.335563287138939" lon="-4.287936156615615">
        <ele>845.13623046875</ele>
        <time>2011-04-21T22:16:30Z</time>
      </trkpt>
      <trkpt lat="31.333450125530362" lon="-4.288075044751167">
        <ele>843.21337890625</ele>
        <time>2011-04-21T22:16:41Z</time>
      </trkpt>
      <trkpt lat="31.332766329869628" lon="-4.288219967857003">
        <ele>842.73291015625</ele>
        <time>2011-04-21T22:16:45Z</time>
      </trkpt>
      <trkpt lat="31.331501584500074" lon="-4.288997054100037">
        <ele>843.694091796875</ele>
        <time>2011-04-21T22:16:53Z</time>
      </trkpt>
      <trkpt lat="31.330876545980573" lon="-4.289363259449601">
        <ele>844.655517578125</ele>
        <time>2011-04-21T22:16:57Z</time>
      </trkpt>
      <trkpt lat="31.329859988763928" lon="-4.28944724611938">
        <ele>844.655517578125</ele>
        <time>2011-04-21T22:17:03Z</time>
      </trkpt>
      <trkpt lat="31.327796196565032" lon="-4.288931339979172">
        <ele>843.21337890625</ele>
        <time>2011-04-21T22:17:14Z</time>
      </trkpt>
      <trkpt lat="31.325561497360468" lon="-4.288458684459329">
        <ele>842.252197265625</ele>
        <time>2011-04-21T22:17:26Z</time>
      </trkpt>
      <trkpt lat="31.324490625411272" lon="-4.288463462144136">
        <ele>843.21337890625</ele>
        <time>2011-04-21T22:17:33Z</time>
      </trkpt>
      <trkpt lat="31.322925388813019" lon="-4.288482824340463">
        <ele>843.694091796875</ele>
        <time>2011-04-21T22:17:42Z</time>
      </trkpt>
      <trkpt lat="31.320389695465565" lon="-4.288516687229276">
        <ele>844.655517578125</ele>
        <time>2011-04-21T22:17:55Z</time>
      </trkpt>
      <trkpt lat="31.319079520180821" lon="-4.288422223180533">
        <ele>845.13623046875</ele>
        <time>2011-04-21T22:18:02Z</time>
      </trkpt>
      <trkpt lat="31.317198034375906" lon="-4.2878298740834">
        <ele>844.175048828125</ele>
        <time>2011-04-21T22:18:12Z</time>
      </trkpt>
      <trkpt lat="31.314790584146976" lon="-4.287382699549198">
        <ele>844.175048828125</ele>
        <time>2011-04-21T22:18:24Z</time>
      </trkpt>
      <trkpt lat="31.313258623704314" lon="-4.286873918026686">
        <ele>842.73291015625</ele>
        <time>2011-04-21T22:18:32Z</time>
      </trkpt>
      <trkpt lat="31.311165746301413" lon="-4.286231445148587">
        <ele>842.73291015625</ele>
        <time>2011-04-21T22:18:43Z</time>
      </trkpt>
      <trkpt lat="31.308581437915564" lon="-4.285755939781666">
        <ele>842.252197265625</ele>
        <time>2011-04-21T22:18:56Z</time>
      </trkpt>
      <trkpt lat="31.306884521618485" lon="-4.285512277856469">
        <ele>841.771484375</ele>
        <time>2011-04-21T22:19:05Z</time>
      </trkpt>
      <trkpt lat="31.305458676069975" lon="-4.285902371630073">
        <ele>840.32958984375</ele>
        <time>2011-04-21T22:19:13Z</time>
      </trkpt>
      <trkpt lat="31.302960449829698" lon="-4.286733856424689">
        <ele>840.32958984375</ele>
        <time>2011-04-21T22:19:26Z</time>
      </trkpt>
      <trkpt lat="31.300414446741343" lon="-4.287645723670721">
        <ele>838.8876953125</ele>
        <time>2011-04-21T22:19:39Z</time>
      </trkpt>
      <trkpt lat="31.299064625054598" lon="-4.288426330313087">
        <ele>837.92626953125</ele>
        <time>2011-04-21T22:19:47Z</time>
      </trkpt>
      <trkpt lat="31.297962069511414" lon="-4.289070731028915">
        <ele>838.406982421875</ele>
        <time>2011-04-21T22:19:55Z</time>
      </trkpt>
      <trkpt lat="31.296991445124149" lon="-4.289661152288318">
        <ele>837.92626953125</ele>
        <time>2011-04-21T22:20:04Z</time>
      </trkpt>
      <trkpt lat="31.296731354668736" lon="-4.289958039298654">
        <ele>836.96484375</ele>
        <time>2011-04-21T22:20:11Z</time>
      </trkpt>
      <trkpt lat="31.296511916443706" lon="-4.290089048445225">
        <ele>836.484375</ele>
        <time>2011-04-21T22:20:19Z</time>
      </trkpt>
      <trkpt lat="31.296430695801973" lon="-4.290193067863584">
        <ele>836.484375</ele>
        <time>2011-04-21T22:20:28Z</time>
      </trkpt>
      <trkpt lat="31.296661617234349" lon="-4.290213687345386">
        <ele>866.28515625</ele>
        <time>2011-04-21T22:24:31Z</time>
      </trkpt>
      <trkpt lat="31.296787597239017" lon="-4.290011432021856">
        <ele>859.0751953125</ele>
        <time>2011-04-21T22:26:32Z</time>
      </trkpt>
      <trkpt lat="31.296590371057391" lon="-4.289999948814511">
        <ele>862.920654296875</ele>
        <time>2011-04-21T22:26:42Z</time>
      </trkpt>
      <trkpt lat="31.296108243986964" lon="-4.290244868025184">
        <ele>864.84326171875</ele>
        <time>2011-04-21T22:26:51Z</time>
      </trkpt>
      <trkpt lat="31.295419670641422" lon="-4.290655162185431">
        <ele>867.24658203125</ele>
        <time>2011-04-21T22:26:58Z</time>
      </trkpt>
      <trkpt lat="31.294418787583709" lon="-4.291044669225812">
        <ele>868.207763671875</ele>
        <time>2011-04-21T22:27:06Z</time>
      </trkpt>
      <trkpt lat="31.292392127215862" lon="-4.291462255641818">
        <ele>868.207763671875</ele>
        <time>2011-04-21T22:27:20Z</time>
      </trkpt>
      <trkpt lat="31.290616923943162" lon="-4.291685465723276">
        <ele>868.6884765625</ele>
        <time>2011-04-21T22:27:31Z</time>
      </trkpt>
      <trkpt lat="31.289565078914165" lon="-4.291498465463519">
        <ele>869.169189453125</ele>
        <time>2011-04-21T22:27:38Z</time>
      </trkpt>
      <trkpt lat="31.288636950775981" lon="-4.291056822985411">
        <ele>869.169189453125</ele>
        <time>2011-04-21T22:27:46Z</time>
      </trkpt>
      <trkpt lat="31.28742903470993" lon="-4.290398675948381">
        <ele>868.6884765625</ele>
        <time>2011-04-21T22:27:57Z</time>
      </trkpt>
      <trkpt lat="31.286017522215843" lon="-4.289637263864279">
        <ele>868.207763671875</ele>
        <time>2011-04-21T22:28:08Z</time>
      </trkpt>
      <trkpt lat="31.284293616190553" lon="-4.2887382209301">
        <ele>868.6884765625</ele>
        <time>2011-04-21T22:28:20Z</time>
      </trkpt>
      <trkpt lat="31.282068556174636" lon="-4.287864323705435">
        <ele>867.24658203125</ele>
        <time>2011-04-21T22:28:34Z</time>
      </trkpt>
      <trkpt lat="31.280320761725307" lon="-4.287188742309809">
        <ele>865.323974609375</ele>
        <time>2011-04-21T22:28:45Z</time>
      </trkpt>
      <trkpt lat="31.279192473739386" lon="-4.286811472848058">
        <ele>864.362548828125</ele>
        <time>2011-04-21T22:28:53Z</time>
      </trkpt>
      <trkpt lat="31.278264932334423" lon="-4.28644216619432">
        <ele>864.362548828125</ele>
        <time>2011-04-21T22:29:01Z</time>
      </trkpt>
      <trkpt lat="31.277693454176188" lon="-4.285783264786005">
        <ele>864.84326171875</ele>
        <time>2011-04-21T22:29:07Z</time>
      </trkpt>
      <trkpt lat="31.277455240488052" lon="-4.284852873533964">
        <ele>864.362548828125</ele>
        <time>2011-04-21T22:29:13Z</time>
      </trkpt>
      <trkpt lat="31.277632853016257" lon="-4.281876627355814">
        <ele>861.95947265625</ele>
        <time>2011-04-21T22:29:30Z</time>
      </trkpt>
      <trkpt lat="31.277790768072009" lon="-4.280307367444038">
        <ele>859.555908203125</ele>
        <time>2011-04-21T22:29:40Z</time>
      </trkpt>
      <trkpt lat="31.278034681454301" lon="-4.278267966583371">
        <ele>860.517333984375</ele>
        <time>2011-04-21T22:29:54Z</time>
      </trkpt>
      <trkpt lat="31.278374567627907" lon="-4.276970196515322">
        <ele>863.4013671875</ele>
        <time>2011-04-21T22:30:03Z</time>
      </trkpt>
      <trkpt lat="31.278943866491318" lon="-4.275809051468968">
        <ele>865.8046875</ele>
        <time>2011-04-21T22:30:13Z</time>
      </trkpt>
      <trkpt lat="31.279538730159402" lon="-4.274633741006255">
        <ele>865.323974609375</ele>
        <time>2011-04-21T22:30:23Z</time>
      </trkpt>
      <trkpt lat="31.280341716483235" lon="-4.273020392283797">
        <ele>865.323974609375</ele>
        <time>2011-04-21T22:30:36Z</time>
      </trkpt>
      <trkpt lat="31.280979495495558" lon="-4.272055719047785">
        <ele>866.765869140625</ele>
        <time>2011-04-21T22:30:45Z</time>
      </trkpt>
      <trkpt lat="31.281846016645432" lon="-4.271040670573711">
        <ele>870.611083984375</ele>
        <time>2011-04-21T22:30:57Z</time>
      </trkpt>
      <trkpt lat="31.282414393499494" lon="-4.270401047542691">
        <ele>871.091796875</ele>
        <time>2011-04-21T22:31:06Z</time>
      </trkpt>
      <trkpt lat="31.283238753676414" lon="-4.269407289102674">
        <ele>873.4951171875</ele>
        <time>2011-04-21T22:31:19Z</time>
      </trkpt>
      <trkpt lat="31.283383090049028" lon="-4.269190616905689">
        <ele>871.572265625</ele>
        <time>2011-04-21T22:31:22Z</time>
      </trkpt>
      <trkpt lat="31.283579645678401" lon="-4.268356366083026">
        <ele>869.64990234375</ele>
        <time>2011-04-21T22:31:30Z</time>
      </trkpt>
      <trkpt lat="31.283596241846681" lon="-4.267115090042353">
        <ele>867.72705078125</ele>
        <time>2011-04-21T22:31:40Z</time>
      </trkpt>
      <trkpt lat="31.283592972904444" lon="-4.266007756814361">
        <ele>866.28515625</ele>
        <time>2011-04-21T22:31:50Z</time>
      </trkpt>
      <trkpt lat="31.283564055338502" lon="-4.265455137938261">
        <ele>864.84326171875</ele>
        <time>2011-04-21T22:31:58Z</time>
      </trkpt>
      <trkpt lat="31.283813584595919" lon="-4.265313232317567">
        <ele>861.95947265625</ele>
        <time>2011-04-21T22:32:05Z</time>
      </trkpt>
      <trkpt lat="31.284644566476345" lon="-4.265272077172995">
        <ele>859.555908203125</ele>
        <time>2011-04-21T22:32:15Z</time>
      </trkpt>
      <trkpt lat="31.284884875640273" lon="-4.265213068574667">
        <ele>859.0751953125</ele>
        <time>2011-04-21T22:32:18Z</time>
      </trkpt>
      <trkpt lat="31.285140356048942" lon="-4.265044089406729">
        <ele>859.555908203125</ele>
        <time>2011-04-21T22:32:22Z</time>
      </trkpt>
      <trkpt lat="31.28557956777513" lon="-4.264347217977047">
        <ele>860.517333984375</ele>
        <time>2011-04-21T22:32:32Z</time>
      </trkpt>
      <trkpt lat="31.285896738991141" lon="-4.263600893318653">
        <ele>856.671875</ele>
        <time>2011-04-21T22:32:42Z</time>
      </trkpt>
      <trkpt lat="31.286150794476271" lon="-4.262752141803503">
        <ele>855.710693359375</ele>
        <time>2011-04-21T22:32:51Z</time>
      </trkpt>
      <trkpt lat="31.286466121673584" lon="-4.261514889076352">
        <ele>855.710693359375</ele>
        <time>2011-04-21T22:33:03Z</time>
      </trkpt>
      <trkpt lat="31.286779269576073" lon="-4.260135143995285">
        <ele>855.710693359375</ele>
        <time>2011-04-21T22:33:16Z</time>
      </trkpt>
      <trkpt lat="31.287120748311281" lon="-4.258707789704204">
        <ele>859.0751953125</ele>
        <time>2011-04-21T22:33:28Z</time>
      </trkpt>
      <trkpt lat="31.28742802888155" lon="-4.257565587759018">
        <ele>860.03662109375</ele>
        <time>2011-04-21T22:33:38Z</time>
      </trkpt>
      <trkpt lat="31.287276986986399" lon="-4.256773162633181">
        <ele>859.555908203125</ele>
        <time>2011-04-21T22:33:45Z</time>
      </trkpt>
      <trkpt lat="31.286918157711625" lon="-4.256397569552064">
        <ele>859.0751953125</ele>
        <time>2011-04-21T22:33:50Z</time>
      </trkpt>
      <trkpt lat="31.285304389894009" lon="-4.255577567964792">
        <ele>859.555908203125</ele>
        <time>2011-04-21T22:34:05Z</time>
      </trkpt>
      <trkpt lat="31.284093540161848" lon="-4.255082197487354">
        <ele>859.555908203125</ele>
        <time>2011-04-21T22:34:15Z</time>
      </trkpt>
      <trkpt lat="31.283749043941498" lon="-4.254710543900728">
        <ele>860.998046875</ele>
        <time>2011-04-21T22:34:20Z</time>
      </trkpt>
      <trkpt lat="31.283615436404943" lon="-4.254245180636644">
        <ele>860.517333984375</ele>
        <time>2011-04-21T22:34:24Z</time>
      </trkpt>
      <trkpt lat="31.283413181081414" lon="-4.253946533426642">
        <ele>859.555908203125</ele>
        <time>2011-04-21T22:34:28Z</time>
      </trkpt>
      <trkpt lat="31.282519167289138" lon="-4.253477063030005">
        <ele>860.03662109375</ele>
        <time>2011-04-21T22:34:37Z</time>
      </trkpt>
      <trkpt lat="31.281818440183997" lon="-4.253243459388614">
        <ele>860.03662109375</ele>
        <time>2011-04-21T22:34:44Z</time>
      </trkpt>
      <trkpt lat="31.281030960381031" lon="-4.253309844061732">
        <ele>860.517333984375</ele>
        <time>2011-04-21T22:34:53Z</time>
      </trkpt>
      <trkpt lat="31.280199056491256" lon="-4.253395674750209">
        <ele>860.517333984375</ele>
        <time>2011-04-21T22:35:01Z</time>
      </trkpt>
      <trkpt lat="31.279731597751379" lon="-4.25342408940196">
        <ele>860.998046875</ele>
        <time>2011-04-21T22:35:07Z</time>
      </trkpt>
      <trkpt lat="31.279985569417477" lon="-4.253417048603296">
        <ele>850.904052734375</ele>
        <time>2011-04-21T22:35:49Z</time>
      </trkpt>
      <trkpt lat="31.280104676261544" lon="-4.253426687791944">
        <ele>850.423583984375</ele>
        <time>2011-04-21T22:35:51Z</time>
      </trkpt>
      <trkpt lat="31.280942531302571" lon="-4.253343623131514">
        <ele>844.175048828125</ele>
        <time>2011-04-21T22:36:03Z</time>
      </trkpt>
      <trkpt lat="31.281602187082171" lon="-4.253226527944207">
        <ele>847.058837890625</ele>
        <time>2011-04-21T22:36:12Z</time>
      </trkpt>
      <trkpt lat="31.282361838966608" lon="-4.253349490463734">
        <ele>850.904052734375</ele>
        <time>2011-04-21T22:36:20Z</time>
      </trkpt>
      <trkpt lat="31.283273873850703" lon="-4.253804963082075">
        <ele>848.9814453125</ele>
        <time>2011-04-21T22:36:29Z</time>
      </trkpt>
      <trkpt lat="31.283691460266709" lon="-4.254035130143166">
        <ele>850.423583984375</ele>
        <time>2011-04-21T22:36:33Z</time>
      </trkpt>
      <trkpt lat="31.283865636214614" lon="-4.254337884485722">
        <ele>847.058837890625</ele>
        <time>2011-04-21T22:36:37Z</time>
      </trkpt>
      <trkpt lat="31.283946270123124" lon="-4.25471113063395">
        <ele>843.21337890625</ele>
        <time>2011-04-21T22:36:41Z</time>
      </trkpt>
      <trkpt lat="31.284203762188554" lon="-4.255036348477006">
        <ele>841.771484375</ele>
        <time>2011-04-21T22:36:46Z</time>
      </trkpt>
      <trkpt lat="31.28528393805027" lon="-4.255442032590509">
        <ele>836.003662109375</ele>
        <time>2011-04-21T22:36:57Z</time>
      </trkpt>
      <trkpt lat="31.286112489178777" lon="-4.255827097222209">
        <ele>831.197265625</ele>
        <time>2011-04-21T22:37:05Z</time>
      </trkpt>
      <trkpt lat="31.287009939551353" lon="-4.256301345303655">
        <ele>827.832275390625</ele>
        <time>2011-04-21T22:37:14Z</time>
      </trkpt>
      <trkpt lat="31.287328954786062" lon="-4.256481388583779">
        <ele>825.90966796875</ele>
        <time>2011-04-21T22:37:20Z</time>
      </trkpt>
      <trkpt lat="31.287637576460838" lon="-4.256647266447544">
        <ele>823.987060546875</ele>
        <time>2011-04-21T22:37:26Z</time>
      </trkpt>
      <trkpt lat="31.287907473742962" lon="-4.256584150716662">
        <ele>824.4677734375</ele>
        <time>2011-04-21T22:37:32Z</time>
      </trkpt>
      <trkpt lat="31.287986682727933" lon="-4.256447358056903">
        <ele>824.948486328125</ele>
        <time>2011-04-21T22:37:34Z</time>
      </trkpt>
      <trkpt lat="31.288498230278492" lon="-4.255610844120383">
        <ele>836.96484375</ele>
        <time>2011-04-21T22:37:44Z</time>
      </trkpt>
      <trkpt lat="31.289033917710185" lon="-4.254820263013244">
        <ele>842.73291015625</ele>
        <time>2011-04-21T22:37:53Z</time>
      </trkpt>
      <trkpt lat="31.289620734751225" lon="-4.253760036081076">
        <ele>847.058837890625</ele>
        <time>2011-04-21T22:38:02Z</time>
      </trkpt>
      <trkpt lat="31.290378039702773" lon="-4.252424044534564">
        <ele>849.94287109375</ele>
        <time>2011-04-21T22:38:12Z</time>
      </trkpt>
      <trkpt lat="31.291376324370503" lon="-4.250716734677553">
        <ele>851.865478515625</ele>
        <time>2011-04-21T22:38:23Z</time>
      </trkpt>
      <trkpt lat="31.292632855474949" lon="-4.248495865613222">
        <ele>853.307373046875</ele>
        <time>2011-04-21T22:38:36Z</time>
      </trkpt>
      <trkpt lat="31.293219840154052" lon="-4.247020734474063">
        <ele>855.710693359375</ele>
        <time>2011-04-21T22:38:44Z</time>
      </trkpt>
      <trkpt lat="31.293740859255195" lon="-4.245514590293169">
        <ele>857.63330078125</ele>
        <time>2011-04-21T22:38:53Z</time>
      </trkpt>
      <trkpt lat="31.293640360236168" lon="-4.244932718575001">
        <ele>859.0751953125</ele>
        <time>2011-04-21T22:38:58Z</time>
      </trkpt>
      <trkpt lat="31.293477080762386" lon="-4.244783688336611">
        <ele>859.555908203125</ele>
        <time>2011-04-21T22:39:00Z</time>
      </trkpt>
      <trkpt lat="31.292905854061246" lon="-4.244482358917594">
        <ele>860.03662109375</ele>
        <time>2011-04-21T22:39:05Z</time>
      </trkpt>
      <trkpt lat="31.291444720700383" lon="-4.243931248784065">
        <ele>859.555908203125</ele>
        <time>2011-04-21T22:39:15Z</time>
      </trkpt>
      <trkpt lat="31.289691058918834" lon="-4.243086520582438">
        <ele>858.594482421875</ele>
        <time>2011-04-21T22:39:26Z</time>
      </trkpt>
      <trkpt lat="31.288151470944285" lon="-4.242463242262602">
        <ele>859.0751953125</ele>
        <time>2011-04-21T22:39:36Z</time>
      </trkpt>
      <trkpt lat="31.287922728806734" lon="-4.242127044126391">
        <ele>859.0751953125</ele>
        <time>2011-04-21T22:39:40Z</time>
      </trkpt>
      <trkpt lat="31.287913760170341" lon="-4.241906516253948">
        <ele>859.0751953125</ele>
        <time>2011-04-21T22:39:42Z</time>
      </trkpt>
      <trkpt lat="31.287921136245131" lon="-4.240783425047994">
        <ele>860.998046875</ele>
        <time>2011-04-21T22:39:50Z</time>
      </trkpt>
      <trkpt lat="31.288056168705225" lon="-4.239414241164923">
        <ele>863.8818359375</ele>
        <time>2011-04-21T22:39:58Z</time>
      </trkpt>
      <trkpt lat="31.288358420133591" lon="-4.238073052838445">
        <ele>863.4013671875</ele>
        <time>2011-04-21T22:40:06Z</time>
      </trkpt>
      <trkpt lat="31.288608284667134" lon="-4.236910985782743">
        <ele>863.4013671875</ele>
        <time>2011-04-21T22:40:14Z</time>
      </trkpt>
      <trkpt lat="31.288546677678823" lon="-4.235957125201821">
        <ele>864.84326171875</ele>
        <time>2011-04-21T22:40:21Z</time>
      </trkpt>
      <trkpt lat="31.288688164204359" lon="-4.235265785828233">
        <ele>864.84326171875</ele>
        <time>2011-04-21T22:40:26Z</time>
      </trkpt>
      <trkpt lat="31.288555897772312" lon="-4.23474183306098">
        <ele>865.8046875</ele>
        <time>2011-04-21T22:40:31Z</time>
      </trkpt>
      <trkpt lat="31.288471156731248" lon="-4.234682489186525">
        <ele>865.8046875</ele>
        <time>2011-04-21T22:40:32Z</time>
      </trkpt>
      <trkpt lat="31.288022473454475" lon="-4.234321732074022">
        <ele>865.323974609375</ele>
        <time>2011-04-21T22:40:37Z</time>
      </trkpt>
      <trkpt lat="31.287877550348639" lon="-4.233805658295751">
        <ele>863.8818359375</ele>
        <time>2011-04-21T22:40:42Z</time>
      </trkpt>
      <trkpt lat="31.288154069334269" lon="-4.232627749443054">
        <ele>863.8818359375</ele>
        <time>2011-04-21T22:40:50Z</time>
      </trkpt>
      <trkpt lat="31.28852404654026" lon="-4.231136525049806">
        <ele>862.920654296875</ele>
        <time>2011-04-21T22:40:59Z</time>
      </trkpt>
      <trkpt lat="31.288564782589674" lon="-4.230986321344972">
        <ele>862.920654296875</ele>
        <time>2011-04-21T22:41:00Z</time>
      </trkpt>
      <trkpt lat="31.288850773125887" lon="-4.23045608215034">
        <ele>863.8818359375</ele>
        <time>2011-04-21T22:41:04Z</time>
      </trkpt>
      <trkpt lat="31.289424682036042" lon="-4.22935419715941">
        <ele>862.920654296875</ele>
        <time>2011-04-21T22:41:12Z</time>
      </trkpt>
      <trkpt lat="31.289823995903134" lon="-4.227981828153133">
        <ele>862.43994140625</ele>
        <time>2011-04-21T22:41:21Z</time>
      </trkpt>
      <trkpt lat="31.289961040019989" lon="-4.227259894832969">
        <ele>862.43994140625</ele>
        <time>2011-04-21T22:41:26Z</time>
      </trkpt>
      <trkpt lat="31.290289191529155" lon="-4.226884134113789">
        <ele>862.920654296875</ele>
        <time>2011-04-21T22:41:31Z</time>
      </trkpt>
      <trkpt lat="31.290670819580555" lon="-4.226858820766211">
        <ele>862.920654296875</ele>
        <time>2011-04-21T22:41:35Z</time>
      </trkpt>
      <trkpt lat="31.291041634976864" lon="-4.226616332307458">
        <ele>862.920654296875</ele>
        <time>2011-04-21T22:41:40Z</time>
      </trkpt>
      <trkpt lat="31.29109175875783" lon="-4.226512899622321">
        <ele>862.43994140625</ele>
        <time>2011-04-21T22:41:41Z</time>
      </trkpt>
      <trkpt lat="31.291601965203881" lon="-4.225475639104843">
        <ele>861.478759765625</ele>
        <time>2011-04-21T22:41:49Z</time>
      </trkpt>
      <trkpt lat="31.29227863624692" lon="-4.224242242053151">
        <ele>860.998046875</ele>
        <time>2011-04-21T22:41:58Z</time>
      </trkpt>
      <trkpt lat="31.29237737506628" lon="-4.223336242139339">
        <ele>861.478759765625</ele>
        <time>2011-04-21T22:42:04Z</time>
      </trkpt>
      <trkpt lat="31.292377291247249" lon="-4.221739321947098">
        <ele>861.95947265625</ele>
        <time>2011-04-21T22:42:13Z</time>
      </trkpt>
      <trkpt lat="31.29254937171936" lon="-4.219974344596267">
        <ele>861.95947265625</ele>
        <time>2011-04-21T22:42:22Z</time>
      </trkpt>
      <trkpt lat="31.292950781062245" lon="-4.217760264873505">
        <ele>862.43994140625</ele>
        <time>2011-04-21T22:42:33Z</time>
      </trkpt>
      <trkpt lat="31.293427795171738" lon="-4.215491954237223">
        <ele>863.8818359375</ele>
        <time>2011-04-21T22:42:44Z</time>
      </trkpt>
      <trkpt lat="31.29347825422883" lon="-4.213378541171551">
        <ele>864.84326171875</ele>
        <time>2011-04-21T22:42:54Z</time>
      </trkpt>
      <trkpt lat="31.293515553697944" lon="-4.211196145042777">
        <ele>865.8046875</ele>
        <time>2011-04-21T22:43:03Z</time>
      </trkpt>
      <trkpt lat="31.293600127100945" lon="-4.206919195130467">
        <ele>868.207763671875</ele>
        <time>2011-04-21T22:43:19Z</time>
      </trkpt>
      <trkpt lat="31.293678916990757" lon="-4.202938880771399">
        <ele>868.6884765625</ele>
        <time>2011-04-21T22:43:34Z</time>
      </trkpt>
      <trkpt lat="31.293748067691922" lon="-4.199282359331846">
        <ele>869.64990234375</ele>
        <time>2011-04-21T22:43:48Z</time>
      </trkpt>
      <trkpt lat="31.293821074068546" lon="-4.195600524544716">
        <ele>871.091796875</ele>
        <time>2011-04-21T22:44:03Z</time>
      </trkpt>
      <trkpt lat="31.293907994404435" lon="-4.191334052011371">
        <ele>871.091796875</ele>
        <time>2011-04-21T22:44:20Z</time>
      </trkpt>
      <trkpt lat="31.293981168419123" lon="-4.188100565224886">
        <ele>871.091796875</ele>
        <time>2011-04-21T22:44:32Z</time>
      </trkpt>
      <trkpt lat="31.29398494027555" lon="-4.185811467468739">
        <ele>870.611083984375</ele>
        <time>2011-04-21T22:44:41Z</time>
      </trkpt>
      <trkpt lat="31.293907072395086" lon="-4.185353480279446">
        <ele>870.611083984375</ele>
        <time>2011-04-21T22:44:43Z</time>
      </trkpt>
      <trkpt lat="31.29356718622148" lon="-4.184563737362623">
        <ele>868.6884765625</ele>
        <time>2011-04-21T22:44:47Z</time>
      </trkpt>
      <trkpt lat="31.292629670351744" lon="-4.183399239555001">
        <ele>866.765869140625</ele>
        <time>2011-04-21T22:44:54Z</time>
      </trkpt>
      <trkpt lat="31.290900986641645" lon="-4.181492440402508">
        <ele>864.362548828125</ele>
        <time>2011-04-21T22:45:05Z</time>
      </trkpt>
      <trkpt lat="31.288148034363985" lon="-4.178535472601652">
        <ele>864.362548828125</ele>
        <time>2011-04-21T22:45:23Z</time>
      </trkpt>
      <trkpt lat="31.286058174446225" lon="-4.176756916567683">
        <ele>862.43994140625</ele>
        <time>2011-04-21T22:45:36Z</time>
      </trkpt>
      <trkpt lat="31.284261262044311" lon="-4.175230991095305">
        <ele>862.43994140625</ele>
        <time>2011-04-21T22:45:47Z</time>
      </trkpt>
      <trkpt lat="31.282451273873448" lon="-4.173839930444956">
        <ele>860.517333984375</ele>
        <time>2011-04-21T22:45:58Z</time>
      </trkpt>
      <trkpt lat="31.279757497832179" lon="-4.171837326139212">
        <ele>859.555908203125</ele>
        <time>2011-04-21T22:46:14Z</time>
      </trkpt>
      <trkpt lat="31.277996962890029" lon="-4.170524636283517">
        <ele>859.0751953125</ele>
        <time>2011-04-21T22:46:24Z</time>
      </trkpt>
      <trkpt lat="31.275724461302161" lon="-4.168835850432515">
        <ele>858.114013671875</ele>
        <time>2011-04-21T22:46:36Z</time>
      </trkpt>
      <trkpt lat="31.273818835616112" lon="-4.167372789233923">
        <ele>857.63330078125</ele>
        <time>2011-04-21T22:46:46Z</time>
      </trkpt>
      <trkpt lat="31.271732663735747" lon="-4.165852563455701">
        <ele>858.114013671875</ele>
        <time>2011-04-21T22:46:57Z</time>
      </trkpt>
      <trkpt lat="31.269443985074759" lon="-4.16412865743041">
        <ele>857.152587890625</ele>
        <time>2011-04-21T22:47:10Z</time>
      </trkpt>
      <trkpt lat="31.267673224210739" lon="-4.162667859345675">
        <ele>858.114013671875</ele>
        <time>2011-04-21T22:47:21Z</time>
      </trkpt>
      <trkpt lat="31.266938885673881" lon="-4.161574272438884">
        <ele>859.0751953125</ele>
        <time>2011-04-21T22:47:27Z</time>
      </trkpt>
      <trkpt lat="31.266252156347036" lon="-4.159904597327113">
        <ele>859.0751953125</ele>
        <time>2011-04-21T22:47:35Z</time>
      </trkpt>
      <trkpt lat="31.265304330736399" lon="-4.157487256452441">
        <ele>858.114013671875</ele>
        <time>2011-04-21T22:47:47Z</time>
      </trkpt>
      <trkpt lat="31.264189118519425" lon="-4.154606983065605">
        <ele>859.555908203125</ele>
        <time>2011-04-21T22:48:02Z</time>
      </trkpt>
      <trkpt lat="31.263015232980251" lon="-4.151624953374267">
        <ele>865.8046875</ele>
        <time>2011-04-21T22:48:17Z</time>
      </trkpt>
      <trkpt lat="31.262131026014686" lon="-4.149545570835471">
        <ele>869.64990234375</ele>
        <time>2011-04-21T22:48:28Z</time>
      </trkpt>
      <trkpt lat="31.261265594512224" lon="-4.148249980062246">
        <ele>869.64990234375</ele>
        <time>2011-04-21T22:48:36Z</time>
      </trkpt>
      <trkpt lat="31.259781243279576" lon="-4.146623974665999">
        <ele>869.64990234375</ele>
        <time>2011-04-21T22:48:47Z</time>
      </trkpt>
      <trkpt lat="31.257739076390862" lon="-4.144407799467444">
        <ele>871.091796875</ele>
        <time>2011-04-21T22:49:01Z</time>
      </trkpt>
      <trkpt lat="31.254839189350605" lon="-4.14122854359448">
        <ele>873.014404296875</ele>
        <time>2011-04-21T22:49:20Z</time>
      </trkpt>
      <trkpt lat="31.25238748267293" lon="-4.13854356855154">
        <ele>875.41748046875</ele>
        <time>2011-04-21T22:49:36Z</time>
      </trkpt>
      <trkpt lat="31.250922996550798" lon="-4.137203637510538">
        <ele>875.898193359375</ele>
        <time>2011-04-21T22:49:45Z</time>
      </trkpt>
      <trkpt lat="31.249317862093449" lon="-4.136319933459163">
        <ele>873.9755859375</ele>
        <time>2011-04-21T22:49:54Z</time>
      </trkpt>
      <trkpt lat="31.246982496231794" lon="-4.135195836424828">
        <ele>871.091796875</ele>
        <time>2011-04-21T22:50:07Z</time>
      </trkpt>
      <trkpt lat="31.244522240012884" lon="-4.134006528183818">
        <ele>869.64990234375</ele>
        <time>2011-04-21T22:50:20Z</time>
      </trkpt>
      <trkpt lat="31.24165085144341" lon="-4.132603816688061">
        <ele>869.64990234375</ele>
        <time>2011-04-21T22:50:35Z</time>
      </trkpt>
      <trkpt lat="31.239485219120979" lon="-4.131661774590612">
        <ele>868.6884765625</ele>
        <time>2011-04-21T22:50:46Z</time>
      </trkpt>
      <trkpt lat="31.237144153565168" lon="-4.130901116877794">
        <ele>867.24658203125</ele>
        <time>2011-04-21T22:50:58Z</time>
      </trkpt>
      <trkpt lat="31.235466431826353" lon="-4.130080696195364">
        <ele>862.43994140625</ele>
        <time>2011-04-21T22:51:07Z</time>
      </trkpt>
      <trkpt lat="31.232704594731331" lon="-4.12858578376472">
        <ele>859.0751953125</ele>
        <time>2011-04-21T22:51:22Z</time>
      </trkpt>
      <trkpt lat="31.230114251375198" lon="-4.127189191058278">
        <ele>857.63330078125</ele>
        <time>2011-04-21T22:51:37Z</time>
      </trkpt>
      <trkpt lat="31.228575082495809" lon="-4.126362651586533">
        <ele>856.671875</ele>
        <time>2011-04-21T22:51:45Z</time>
      </trkpt>
      <trkpt lat="31.225285017862916" lon="-4.12460052408278">
        <ele>856.191162109375</ele>
        <time>2011-04-21T22:52:01Z</time>
      </trkpt>
      <trkpt lat="31.222513876855373" lon="-4.123111981898546">
        <ele>856.191162109375</ele>
        <time>2011-04-21T22:52:15Z</time>
      </trkpt>
      <trkpt lat="31.220709336921573" lon="-4.122147643938661">
        <ele>857.152587890625</ele>
        <time>2011-04-21T22:52:25Z</time>
      </trkpt>
      <trkpt lat="31.218745792284608" lon="-4.121086746454239">
        <ele>857.63330078125</ele>
        <time>2011-04-21T22:52:37Z</time>
      </trkpt>
      <trkpt lat="31.216880064457655" lon="-4.119992572814226">
        <ele>857.152587890625</ele>
        <time>2011-04-21T22:52:49Z</time>
      </trkpt>
      <trkpt lat="31.215755045413971" lon="-4.118874846026301">
        <ele>856.671875</ele>
        <time>2011-04-21T22:52:57Z</time>
      </trkpt>
      <trkpt lat="31.214276645332575" lon="-4.117221180349588">
        <ele>858.594482421875</ele>
        <time>2011-04-21T22:53:08Z</time>
      </trkpt>
      <trkpt lat="31.212452156469226" lon="-4.115158393979073">
        <ele>862.920654296875</ele>
        <time>2011-04-21T22:53:22Z</time>
      </trkpt>
      <trkpt lat="31.21005074121058" lon="-4.112480292096734">
        <ele>867.24658203125</ele>
        <time>2011-04-21T22:53:40Z</time>
      </trkpt>
      <trkpt lat="31.208531856536865" lon="-4.110787231475115">
        <ele>868.6884765625</ele>
        <time>2011-04-21T22:53:52Z</time>
      </trkpt>
      <trkpt lat="31.206883722916245" lon="-4.108973722904921">
        <ele>868.207763671875</ele>
        <time>2011-04-21T22:54:05Z</time>
      </trkpt>
      <trkpt lat="31.204990250989795" lon="-4.10692049190402">
        <ele>862.43994140625</ele>
        <time>2011-04-21T22:54:19Z</time>
      </trkpt>
      <trkpt lat="31.203428199514747" lon="-4.105203794315457">
        <ele>860.03662109375</ele>
        <time>2011-04-21T22:54:29Z</time>
      </trkpt>
      <trkpt lat="31.202076785266399" lon="-4.103726148605347">
        <ele>860.03662109375</ele>
        <time>2011-04-21T22:54:38Z</time>
      </trkpt>
      <trkpt lat="31.20058405213058" lon="-4.102347828447819">
        <ele>857.152587890625</ele>
        <time>2011-04-21T22:54:48Z</time>
      </trkpt>
      <trkpt lat="31.19887288659811" lon="-4.101105630397797">
        <ele>854.749267578125</ele>
        <time>2011-04-21T22:54:59Z</time>
      </trkpt>
      <trkpt lat="31.197164235636592" lon="-4.099882962182164">
        <ele>852.82666015625</ele>
        <time>2011-04-21T22:55:09Z</time>
      </trkpt>
      <trkpt lat="31.194476075470448" lon="-4.097956968471408">
        <ele>853.307373046875</ele>
        <time>2011-04-21T22:55:25Z</time>
      </trkpt>
      <trkpt lat="31.192264091223478" lon="-4.096367340534926">
        <ele>852.82666015625</ele>
        <time>2011-04-21T22:55:38Z</time>
      </trkpt>
      <trkpt lat="31.190307922661304" lon="-4.094973346218467">
        <ele>853.7880859375</ele>
        <time>2011-04-21T22:55:49Z</time>
      </trkpt>
      <trkpt lat="31.187390936538577" lon="-4.092878624796867">
        <ele>854.749267578125</ele>
        <time>2011-04-21T22:56:06Z</time>
      </trkpt>
      <trkpt lat="31.185214659199119" lon="-4.091285727918148">
        <ele>857.63330078125</ele>
        <time>2011-04-21T22:56:19Z</time>
      </trkpt>
      <trkpt lat="31.183326216414571" lon="-4.089716887101531">
        <ele>855.710693359375</ele>
        <time>2011-04-21T22:56:30Z</time>
      </trkpt>
      <trkpt lat="31.180804017931223" lon="-4.087606323882937">
        <ele>853.307373046875</ele>
        <time>2011-04-21T22:56:44Z</time>
      </trkpt>
      <trkpt lat="31.178966956213117" lon="-4.086210569366813">
        <ele>854.749267578125</ele>
        <time>2011-04-21T22:56:55Z</time>
      </trkpt>
      <trkpt lat="31.176429837942123" lon="-4.084585150703788">
        <ele>850.423583984375</ele>
        <time>2011-04-21T22:57:09Z</time>
      </trkpt>
      <trkpt lat="31.173594240099192" lon="-4.082754543051124">
        <ele>844.655517578125</ele>
        <time>2011-04-21T22:57:25Z</time>
      </trkpt>
      <trkpt lat="31.171947279945016" lon="-4.081621477380395">
        <ele>840.81005859375</ele>
        <time>2011-04-21T22:57:35Z</time>
      </trkpt>
      <trkpt lat="31.171086793765426" lon="-4.080691589042544">
        <ele>830.23583984375</ele>
        <time>2011-04-21T22:57:42Z</time>
      </trkpt>
      <trkpt lat="31.169380657374859" lon="-4.07842805609107">
        <ele>812.451416015625</ele>
        <time>2011-04-21T22:57:57Z</time>
      </trkpt>
      <trkpt lat="31.167840650305152" lon="-4.076420338824391">
        <ele>802.357421875</ele>
        <time>2011-04-21T22:58:10Z</time>
      </trkpt>
      <trkpt lat="31.166425365954638" lon="-4.074593838304281">
        <ele>794.666748046875</ele>
        <time>2011-04-21T22:58:21Z</time>
      </trkpt>
      <trkpt lat="31.165065988898277" lon="-4.07310445792973">
        <ele>790.821533203125</ele>
        <time>2011-04-21T22:58:31Z</time>
      </trkpt>
      <trkpt lat="31.163209145888686" lon="-4.071450456976891">
        <ele>785.053955078125</ele>
        <time>2011-04-21T22:58:44Z</time>
      </trkpt>
      <trkpt lat="31.161100761964917" lon="-4.069584393873811">
        <ele>780.72802734375</ele>
        <time>2011-04-21T22:58:58Z</time>
      </trkpt>
      <trkpt lat="31.159248277544975" lon="-4.067929722368717">
        <ele>775.4404296875</ele>
        <time>2011-04-21T22:59:10Z</time>
      </trkpt>
      <trkpt lat="31.157549433410168" lon="-4.066441180184484">
        <ele>772.075927734375</ele>
        <time>2011-04-21T22:59:21Z</time>
      </trkpt>
      <trkpt lat="31.155345579609275" lon="-4.064498841762543">
        <ele>767.26953125</ele>
        <time>2011-04-21T22:59:35Z</time>
      </trkpt>
      <trkpt lat="31.152953552082181" lon="-4.062386266887188">
        <ele>764.385498046875</ele>
        <time>2011-04-21T22:59:50Z</time>
      </trkpt>
      <trkpt lat="31.15108497440815" lon="-4.060729667544365">
        <ele>761.50146484375</ele>
        <time>2011-04-21T23:00:02Z</time>
      </trkpt>
      <trkpt lat="31.148858154192567" lon="-4.058789424598217">
        <ele>771.59521484375</ele>
        <time>2011-04-21T23:00:16Z</time>
      </trkpt>
      <trkpt lat="31.147122094407678" lon="-4.057558123022318">
        <ele>789.8603515625</ele>
        <time>2011-04-21T23:00:27Z</time>
      </trkpt>
      <trkpt lat="31.145416796207428" lon="-4.056666288524866">
        <ele>797.551025390625</ele>
        <time>2011-04-21T23:00:37Z</time>
      </trkpt>
      <trkpt lat="31.143139684572816" lon="-4.055481841787696">
        <ele>805.72216796875</ele>
        <time>2011-04-21T23:00:50Z</time>
      </trkpt>
      <trkpt lat="31.141086956486106" lon="-4.054398396983743">
        <ele>810.0478515625</ele>
        <time>2011-04-21T23:01:01Z</time>
      </trkpt>
      <trkpt lat="31.138771539554" lon="-4.053172795102">
        <ele>815.816162109375</ele>
        <time>2011-04-21T23:01:13Z</time>
      </trkpt>
      <trkpt lat="31.136267445981503" lon="-4.05184468254447">
        <ele>822.064453125</ele>
        <time>2011-04-21T23:01:27Z</time>
      </trkpt>
      <trkpt lat="31.13441688939929" lon="-4.050856791436672">
        <ele>826.390380859375</ele>
        <time>2011-04-21T23:01:38Z</time>
      </trkpt>
      <trkpt lat="31.132389977574348" lon="-4.04966052621603">
        <ele>827.832275390625</ele>
        <time>2011-04-21T23:01:50Z</time>
      </trkpt>
      <trkpt lat="31.131181390956044" lon="-4.048915123566985">
        <ele>829.2744140625</ele>
        <time>2011-04-21T23:01:58Z</time>
      </trkpt>
      <trkpt lat="31.129732159897685" lon="-4.047860177233815">
        <ele>831.197265625</ele>
        <time>2011-04-21T23:02:07Z</time>
      </trkpt>
      <trkpt lat="31.128173796460032" lon="-4.046504152938724">
        <ele>831.197265625</ele>
        <time>2011-04-21T23:02:16Z</time>
      </trkpt>
      <trkpt lat="31.125477086752653" lon="-4.044126374647021">
        <ele>831.197265625</ele>
        <time>2011-04-21T23:02:31Z</time>
      </trkpt>
      <trkpt lat="31.123922327533364" lon="-4.042758699506521">
        <ele>831.677734375</ele>
        <time>2011-04-21T23:02:41Z</time>
      </trkpt>
      <trkpt lat="31.122888838872313" lon="-4.041702747344971">
        <ele>834.561767578125</ele>
        <time>2011-04-21T23:02:49Z</time>
      </trkpt>
      <trkpt lat="31.121904719620943" lon="-4.040515953674913">
        <ele>833.600341796875</ele>
        <time>2011-04-21T23:02:58Z</time>
      </trkpt>
      <trkpt lat="31.120463954284787" lon="-4.038699762895703">
        <ele>836.484375</ele>
        <time>2011-04-21T23:03:10Z</time>
      </trkpt>
      <trkpt lat="31.118790842592716" lon="-4.036602275446057">
        <ele>838.406982421875</ele>
        <time>2011-04-21T23:03:23Z</time>
      </trkpt>
      <trkpt lat="31.117048328742385" lon="-4.034418119117618">
        <ele>840.81005859375</ele>
        <time>2011-04-21T23:03:37Z</time>
      </trkpt>
      <trkpt lat="31.115915346890688" lon="-4.03273687697947">
        <ele>839.3681640625</ele>
        <time>2011-04-21T23:03:48Z</time>
      </trkpt>
      <trkpt lat="31.115035163238645" lon="-4.031331734731793">
        <ele>838.406982421875</ele>
        <time>2011-04-21T23:03:56Z</time>
      </trkpt>
      <trkpt lat="31.113758096471429" lon="-4.029284622520208">
        <ele>837.445556640625</ele>
        <time>2011-04-21T23:04:06Z</time>
      </trkpt>
      <trkpt lat="31.112010385841131" lon="-4.026693860068917">
        <ele>836.484375</ele>
        <time>2011-04-21T23:04:19Z</time>
      </trkpt>
      <trkpt lat="31.110287988558412" lon="-4.024360422044992">
        <ele>835.04248046875</ele>
        <time>2011-04-21T23:04:32Z</time>
      </trkpt>
      <trkpt lat="31.109190881252289" lon="-4.022959554567933">
        <ele>834.561767578125</ele>
        <time>2011-04-21T23:04:41Z</time>
      </trkpt>
      <trkpt lat="31.108113136142492" lon="-4.022109126672149">
        <ele>833.600341796875</ele>
        <time>2011-04-21T23:04:48Z</time>
      </trkpt>
      <trkpt lat="31.106551587581635" lon="-4.021365148946643">
        <ele>831.197265625</ele>
        <time>2011-04-21T23:04:57Z</time>
      </trkpt>
      <trkpt lat="31.104133492335677" lon="-4.020242895931006">
        <ele>828.313232421875</ele>
        <time>2011-04-21T23:05:11Z</time>
      </trkpt>
      <trkpt lat="31.101766945794225" lon="-4.019049564376473">
        <ele>827.832275390625</ele>
        <time>2011-04-21T23:05:25Z</time>
      </trkpt>
      <trkpt lat="31.10063798725605" lon="-4.018168123438954">
        <ele>829.755126953125</ele>
        <time>2011-04-21T23:05:33Z</time>
      </trkpt>
      <trkpt lat="31.100452076643705" lon="-4.018036779016256">
        <ele>830.23583984375</ele>
        <time>2011-04-21T23:05:35Z</time>
      </trkpt>
      <trkpt lat="31.100174048915505" lon="-4.017979865893722">
        <ele>829.755126953125</ele>
        <time>2011-04-21T23:05:39Z</time>
      </trkpt>
      <trkpt lat="31.099595865234733" lon="-4.018079275265336">
        <ele>828.7939453125</ele>
        <time>2011-04-21T23:05:46Z</time>
      </trkpt>
      <trkpt lat="31.098561622202396" lon="-4.018244063481689">
        <ele>827.832275390625</ele>
        <time>2011-04-21T23:05:54Z</time>
      </trkpt>
      <trkpt lat="31.096810726448894" lon="-4.018474062904716">
        <ele>825.90966796875</ele>
        <time>2011-04-21T23:06:05Z</time>
      </trkpt>
      <trkpt lat="31.095838090404868" lon="-4.018342886120081">
        <ele>825.428955078125</ele>
        <time>2011-04-21T23:06:11Z</time>
      </trkpt>
      <trkpt lat="31.094807032495737" lon="-4.017836367711425">
        <ele>824.948486328125</ele>
        <time>2011-04-21T23:06:18Z</time>
      </trkpt>
      <trkpt lat="31.093117827549577" lon="-4.016788545995951">
        <ele>823.02587890625</ele>
        <time>2011-04-21T23:06:29Z</time>
      </trkpt>
      <trkpt lat="31.091258386150002" lon="-4.015595465898514">
        <ele>823.02587890625</ele>
        <time>2011-04-21T23:06:41Z</time>
      </trkpt>
      <trkpt lat="31.089722821488976" lon="-4.014663062989712">
        <ele>824.4677734375</ele>
        <time>2011-04-21T23:06:52Z</time>
      </trkpt>
      <trkpt lat="31.087615024298429" lon="-4.013365628197789">
        <ele>825.428955078125</ele>
        <time>2011-04-21T23:07:06Z</time>
      </trkpt>
      <trkpt lat="31.085601942613721" lon="-4.012120747938752">
        <ele>826.390380859375</ele>
        <time>2011-04-21T23:07:18Z</time>
      </trkpt>
      <trkpt lat="31.083655161783099" lon="-4.010929763317108">
        <ele>826.390380859375</ele>
        <time>2011-04-21T23:07:30Z</time>
      </trkpt>
      <trkpt lat="31.082582278177142" lon="-4.010533299297094">
        <ele>824.948486328125</ele>
        <time>2011-04-21T23:07:37Z</time>
      </trkpt>
      <trkpt lat="31.081455331295729" lon="-4.010482588782907">
        <ele>823.506591796875</ele>
        <time>2011-04-21T23:07:44Z</time>
      </trkpt>
      <trkpt lat="31.079474268481135" lon="-4.010633127763867">
        <ele>822.064453125</ele>
        <time>2011-04-21T23:07:56Z</time>
      </trkpt>
      <trkpt lat="31.077424976974726" lon="-4.010778050869703">
        <ele>821.583740234375</ele>
        <time>2011-04-21T23:08:08Z</time>
      </trkpt>
      <trkpt lat="31.075883796438575" lon="-4.01100117713213">
        <ele>823.02587890625</ele>
        <time>2011-04-21T23:08:17Z</time>
      </trkpt>
      <trkpt lat="31.07356108725071" lon="-4.011466037482023">
        <ele>821.583740234375</ele>
        <time>2011-04-21T23:08:31Z</time>
      </trkpt>
      <trkpt lat="31.071438789367676" lon="-4.011884545907378">
        <ele>820.62255859375</ele>
        <time>2011-04-21T23:08:44Z</time>
      </trkpt>
      <trkpt lat="31.069746818393469" lon="-4.012199873104692">
        <ele>820.141845703125</ele>
        <time>2011-04-21T23:08:53Z</time>
      </trkpt>
      <trkpt lat="31.067185141146183" lon="-4.01269868016243">
        <ele>820.141845703125</ele>
        <time>2011-04-21T23:09:06Z</time>
      </trkpt>
      <trkpt lat="31.06433386914432" lon="-4.013256244361401">
        <ele>819.661376953125</ele>
        <time>2011-04-21T23:09:21Z</time>
      </trkpt>
      <trkpt lat="31.061674794182181" lon="-4.013774581253529">
        <ele>819.661376953125</ele>
        <time>2011-04-21T23:09:35Z</time>
      </trkpt>
      <trkpt lat="31.059886934235692" lon="-4.014047998934984">
        <ele>820.141845703125</ele>
        <time>2011-04-21T23:09:45Z</time>
      </trkpt>
      <trkpt lat="31.058328319340944" lon="-4.013853454962373">
        <ele>820.62255859375</ele>
        <time>2011-04-21T23:09:54Z</time>
      </trkpt>
      <trkpt lat="31.055831266567111" lon="-4.01343603618443">
        <ele>823.506591796875</ele>
        <time>2011-04-21T23:10:08Z</time>
      </trkpt>
      <trkpt lat="31.054048184305429" lon="-4.013026999309659">
        <ele>825.428955078125</ele>
        <time>2011-04-21T23:10:18Z</time>
      </trkpt>
      <trkpt lat="31.053029866889119" lon="-4.012376898899674">
        <ele>825.428955078125</ele>
        <time>2011-04-21T23:10:25Z</time>
      </trkpt>
      <trkpt lat="31.051487596705556" lon="-4.011257076635957">
        <ele>827.351806640625</ele>
        <time>2011-04-21T23:10:36Z</time>
      </trkpt>
      <trkpt lat="31.049871733412147" lon="-4.010088052600622">
        <ele>828.7939453125</ele>
        <time>2011-04-21T23:10:47Z</time>
      </trkpt>
      <trkpt lat="31.049135969951749" lon="-4.009562339633703">
        <ele>829.2744140625</ele>
        <time>2011-04-21T23:10:53Z</time>
      </trkpt>
      <trkpt lat="31.048961039632559" lon="-4.00943024083972">
        <ele>829.2744140625</ele>
        <time>2011-04-21T23:10:57Z</time>
      </trkpt>
      <trkpt lat="31.049306457862258" lon="-4.009433761239052">
        <ele>824.4677734375</ele>
        <time>2011-04-21T23:11:18Z</time>
      </trkpt>
      <trkpt lat="31.049238983541727" lon="-4.009219352155924">
        <ele>824.948486328125</ele>
        <time>2011-04-21T23:11:27Z</time>
      </trkpt>
      <trkpt lat="31.049184165894985" lon="-4.009101167321205">
        <ele>825.428955078125</ele>
        <time>2011-04-21T23:11:29Z</time>
      </trkpt>
      <trkpt lat="31.048911083489656" lon="-4.008051417768002">
        <ele>824.4677734375</ele>
        <time>2011-04-21T23:11:42Z</time>
      </trkpt>
      <trkpt lat="31.048826761543751" lon="-4.007550766691566">
        <ele>823.987060546875</ele>
        <time>2011-04-21T23:11:47Z</time>
      </trkpt>
      <trkpt lat="31.04844069108367" lon="-4.006598917767406">
        <ele>825.428955078125</ele>
        <time>2011-04-21T23:11:56Z</time>
      </trkpt>
      <trkpt lat="31.048039030283689" lon="-4.005397371947765">
        <ele>825.428955078125</ele>
        <time>2011-04-21T23:12:07Z</time>
      </trkpt>
      <trkpt lat="31.047714482992887" lon="-4.004400176927447">
        <ele>825.428955078125</ele>
        <time>2011-04-21T23:12:15Z</time>
      </trkpt>
      <trkpt lat="31.047415919601917" lon="-4.00303166359663">
        <ele>825.428955078125</ele>
        <time>2011-04-21T23:12:25Z</time>
      </trkpt>
      <trkpt lat="31.047381972894073" lon="-4.002797976136208">
        <ele>825.428955078125</ele>
        <time>2011-04-21T23:12:27Z</time>
      </trkpt>
      <trkpt lat="31.047183992341161" lon="-4.002585159614682">
        <ele>825.428955078125</ele>
        <time>2011-04-21T23:12:32Z</time>
      </trkpt>
      <trkpt lat="31.046925662085414" lon="-4.002777356654406">
        <ele>823.02587890625</ele>
        <time>2011-04-21T23:12:37Z</time>
      </trkpt>
      <trkpt lat="31.046812422573566" lon="-4.002613741904497">
        <ele>823.02587890625</ele>
        <time>2011-04-21T23:12:40Z</time>
      </trkpt>
      <trkpt lat="31.046597929671407" lon="-4.00187018327415">
        <ele>822.545166015625</ele>
        <time>2011-04-21T23:12:48Z</time>
      </trkpt>
      <trkpt lat="31.046566246077418" lon="-4.000992430374026">
        <ele>821.583740234375</ele>
        <time>2011-04-21T23:12:56Z</time>
      </trkpt>
      <trkpt lat="31.046515954658389" lon="-3.999597514048219">
        <ele>821.583740234375</ele>
        <time>2011-04-21T23:13:08Z</time>
      </trkpt>
      <trkpt lat="31.046423083171248" lon="-3.998856637626886">
        <ele>822.064453125</ele>
        <time>2011-04-21T23:13:16Z</time>
      </trkpt>
      <trkpt lat="31.046287966892123" lon="-3.998022302985191">
        <ele>821.583740234375</ele>
        <time>2011-04-21T23:13:26Z</time>
      </trkpt>
      <trkpt lat="31.046304227784276" lon="-3.997603878378868">
        <ele>822.064453125</ele>
        <time>2011-04-21T23:13:34Z</time>
      </trkpt>
      <trkpt lat="31.04641486890614" lon="-3.997242534533143">
        <ele>821.583740234375</ele>
        <time>2011-04-21T23:13:41Z</time>
      </trkpt>
      <trkpt lat="31.046504974365234" lon="-3.996984958648682">
        <ele>821.103271484375</ele>
        <time>2011-04-21T23:13:47Z</time>
      </trkpt>
      <trkpt lat="31.046550236642361" lon="-3.996377857401967">
        <ele>821.103271484375</ele>
        <time>2011-04-21T23:14:00Z</time>
      </trkpt>
      <trkpt lat="31.046413276344538" lon="-3.996472069993615">
        <ele>823.506591796875</ele>
        <time>2011-04-21T23:14:38Z</time>
      </trkpt>
    </trkseg>
  </trk>

  <trk>
    <name>110422</name>
    <extensions>
      <gpxx:TrackExtension xmlns:gpxx="http://www.garmin.com/xmlschemas/GpxExtensions/v3">
        <gpxx:DisplayColor>Magenta</gpxx:DisplayColor>
      </gpxx:TrackExtension>
    </extensions>
    <trkseg>
      <trkpt lat="31.046576974913478" lon="-3.996400991454721">
        <ele>703</ele>
        <time>2011-04-22T08:45:34Z</time>
      </trkpt>
      <trkpt lat="31.046706978231668" lon="-3.996466035023332">
        <ele>704.60000000000002</ele>
        <time>2011-04-22T08:47:22Z</time>
      </trkpt>
      <trkpt lat="31.046712007373571" lon="-3.996588997542858">
        <ele>704.5</ele>
        <time>2011-04-22T08:47:25Z</time>
      </trkpt>
      <trkpt lat="31.046675965189934" lon="-3.99672101251781">
        <ele>704.20000000000005</ele>
        <time>2011-04-22T08:47:28Z</time>
      </trkpt>
      <trkpt lat="31.046621985733509" lon="-3.996827965602279">
        <ele>704.60000000000002</ele>
        <time>2011-04-22T08:47:31Z</time>
      </trkpt>
      <trkpt lat="31.046529030427337" lon="-3.996910024434328">
        <ele>704.89999999999998</ele>
        <time>2011-04-22T08:47:34Z</time>
      </trkpt>
      <trkpt lat="31.046419981867075" lon="-3.996988981962204">
        <ele>705.29999999999995</ele>
        <time>2011-04-22T08:47:37Z</time>
      </trkpt>
      <trkpt lat="31.046371031552553" lon="-3.997129965573549">
        <ele>705</ele>
        <time>2011-04-22T08:47:40Z</time>
      </trkpt>
      <trkpt lat="31.046389974653721" lon="-3.99730397388339">
        <ele>704.79999999999995</ele>
        <time>2011-04-22T08:47:43Z</time>
      </trkpt>
      <trkpt lat="31.046539004892111" lon="-3.998209973797202">
        <ele>704.20000000000005</ele>
        <time>2011-04-22T08:47:58Z</time>
      </trkpt>
      <trkpt lat="31.046530036255717" lon="-3.998356992378831">
        <ele>703.89999999999998</ele>
        <time>2011-04-22T08:48:00Z</time>
      </trkpt>
      <trkpt lat="31.046374971047044" lon="-3.998966021463275">
        <ele>702.20000000000005</ele>
        <time>2011-04-22T08:48:07Z</time>
      </trkpt>
      <trkpt lat="31.046272041276097" lon="-3.999275984242559">
        <ele>702.89999999999998</ele>
        <time>2011-04-22T08:48:10Z</time>
      </trkpt>
      <trkpt lat="31.046146983280778" lon="-3.99957999587059">
        <ele>703.29999999999995</ele>
        <time>2011-04-22T08:48:13Z</time>
      </trkpt>
      <trkpt lat="31.045972974970937" lon="-3.999996995553374">
        <ele>703.10000000000002</ele>
        <time>2011-04-22T08:48:18Z</time>
      </trkpt>
      <trkpt lat="31.045323964208364" lon="-4.002406960353255">
        <ele>703.29999999999995</ele>
        <time>2011-04-22T08:48:46Z</time>
      </trkpt>
      <trkpt lat="31.045121038332582" lon="-4.002907024696469">
        <ele>703.10000000000002</ele>
        <time>2011-04-22T08:48:52Z</time>
      </trkpt>
      <trkpt lat="31.045083990320563" lon="-4.003062006086111">
        <ele>703.10000000000002</ele>
        <time>2011-04-22T08:48:54Z</time>
      </trkpt>
      <trkpt lat="31.045050965622067" lon="-4.003215981647372">
        <ele>701.70000000000005</ele>
        <time>2011-04-22T08:48:56Z</time>
      </trkpt>
      <trkpt lat="31.044971002265811" lon="-4.003347996622324">
        <ele>701.60000000000002</ele>
        <time>2011-04-22T08:48:58Z</time>
      </trkpt>
      <trkpt lat="31.04451703839004" lon="-4.003709005191922">
        <ele>699.5</ele>
        <time>2011-04-22T08:49:05Z</time>
      </trkpt>
      <trkpt lat="31.044449983164668" lon="-4.003781005740166">
        <ele>699</ele>
        <time>2011-04-22T08:49:06Z</time>
      </trkpt>
      <trkpt lat="31.044258959591389" lon="-4.003989966586232">
        <ele>699.20000000000005</ele>
        <time>2011-04-22T08:49:09Z</time>
      </trkpt>
      <trkpt lat="31.04411001317203" lon="-4.004098009318113">
        <ele>698.60000000000002</ele>
        <time>2011-04-22T08:49:11Z</time>
      </trkpt>
      <trkpt lat="31.044027032330632" lon="-4.004142014309764">
        <ele>698.5</ele>
        <time>2011-04-22T08:49:12Z</time>
      </trkpt>
      <trkpt lat="31.04393801651895" lon="-4.004179984331131">
        <ele>698.70000000000005</ele>
        <time>2011-04-22T08:49:13Z</time>
      </trkpt>
      <trkpt lat="31.043843971565366" lon="-4.004209991544485">
        <ele>698.39999999999998</ele>
        <time>2011-04-22T08:49:14Z</time>
      </trkpt>
      <trkpt lat="31.043457984924316" lon="-4.004282997921109">
        <ele>697.10000000000002</ele>
        <time>2011-04-22T08:49:18Z</time>
      </trkpt>
      <trkpt lat="31.042796988040209" lon="-4.004403026774526">
        <ele>694.39999999999998</ele>
        <time>2011-04-22T08:49:25Z</time>
      </trkpt>
      <trkpt lat="31.042710989713669" lon="-4.004442002624273">
        <ele>694</ele>
        <time>2011-04-22T08:49:26Z</time>
      </trkpt>
      <trkpt lat="31.042631026357412" lon="-4.004491958767176">
        <ele>693.79999999999995</ele>
        <time>2011-04-22T08:49:27Z</time>
      </trkpt>
      <trkpt lat="31.042555002495646" lon="-4.004550967365503">
        <ele>693.70000000000005</ele>
        <time>2011-04-22T08:49:28Z</time>
      </trkpt>
      <trkpt lat="31.041331999003887" lon="-4.005526034161449">
        <ele>691.39999999999998</ele>
        <time>2011-04-22T08:49:44Z</time>
      </trkpt>
      <trkpt lat="31.041212975978851" lon="-4.00565997697413">
        <ele>691.29999999999995</ele>
        <time>2011-04-22T08:49:46Z</time>
      </trkpt>
      <trkpt lat="31.041127983480692" lon="-4.005794003605843">
        <ele>691.29999999999995</ele>
        <time>2011-04-22T08:49:48Z</time>
      </trkpt>
      <trkpt lat="31.041037039831281" lon="-4.005974968895316">
        <ele>691.5</ele>
        <time>2011-04-22T08:49:52Z</time>
      </trkpt>
      <trkpt lat="31.0409099701792" lon="-4.006055016070604">
        <ele>691.79999999999995</ele>
        <time>2011-04-22T08:49:55Z</time>
      </trkpt>
      <trkpt lat="31.031172964721918" lon="-4.006869988515973">
        <ele>690</ele>
        <time>2011-04-22T08:51:03Z</time>
      </trkpt>
      <trkpt lat="31.030998034402728" lon="-4.006875017657876">
        <ele>690.10000000000002</ele>
        <time>2011-04-22T08:51:04Z</time>
      </trkpt>
      <trkpt lat="31.030645994469523" lon="-4.006863031536341">
        <ele>690.20000000000005</ele>
        <time>2011-04-22T08:51:06Z</time>
      </trkpt>
      <trkpt lat="31.030292026698589" lon="-4.006811985746026">
        <ele>689.89999999999998</ele>
        <time>2011-04-22T08:51:08Z</time>
      </trkpt>
      <trkpt lat="31.029781987890601" lon="-4.006691034883261">
        <ele>690.20000000000005</ele>
        <time>2011-04-22T08:51:11Z</time>
      </trkpt>
      <trkpt lat="30.997072029858828" lon="-3.996471986174583">
        <ele>683.89999999999998</ele>
        <time>2011-04-22T08:53:50Z</time>
      </trkpt>
      <trkpt lat="30.996834989637136" lon="-3.996376013383269">
        <ele>683</ele>
        <time>2011-04-22T08:53:51Z</time>
      </trkpt>
      <trkpt lat="30.996613958850503" lon="-3.996268976479769">
        <ele>682.70000000000005</ele>
        <time>2011-04-22T08:53:52Z</time>
      </trkpt>
      <trkpt lat="30.996186984702945" lon="-3.996018022298813">
        <ele>682.20000000000005</ele>
        <time>2011-04-22T08:53:54Z</time>
      </trkpt>
      <trkpt lat="30.990732964128256" lon="-3.991979034617543">
        <ele>671</ele>
        <time>2011-04-22T08:54:20Z</time>
      </trkpt>
      <trkpt lat="30.990540012717247" lon="-3.99182204157114">
        <ele>670.70000000000005</ele>
        <time>2011-04-22T08:54:21Z</time>
      </trkpt>
      <trkpt lat="30.990180009976029" lon="-3.991489028558135">
        <ele>670.20000000000005</ele>
        <time>2011-04-22T08:54:23Z</time>
      </trkpt>
      <trkpt lat="30.990012958645821" lon="-3.991306973621249">
        <ele>669.79999999999995</ele>
        <time>2011-04-22T08:54:24Z</time>
      </trkpt>
      <trkpt lat="30.989854959771037" lon="-3.991115028038621">
        <ele>669.5</ele>
        <time>2011-04-22T08:54:25Z</time>
      </trkpt>
      <trkpt lat="30.989707019180059" lon="-3.990914030000567">
        <ele>669.10000000000002</ele>
        <time>2011-04-22T08:54:26Z</time>
      </trkpt>
      <trkpt lat="30.989570980891585" lon="-3.990703979507089">
        <ele>669.20000000000005</ele>
        <time>2011-04-22T08:54:27Z</time>
      </trkpt>
      <trkpt lat="30.983486976474524" lon="-3.980244034901261">
        <ele>699.79999999999995</ele>
        <time>2011-04-22T08:55:16Z</time>
      </trkpt>
      <trkpt lat="30.983388992026448" lon="-3.980053011327982">
        <ele>700.39999999999998</ele>
        <time>2011-04-22T08:55:17Z</time>
      </trkpt>
      <trkpt lat="30.983039969578385" lon="-3.979240972548723">
        <ele>701.70000000000005</ele>
        <time>2011-04-22T08:55:21Z</time>
      </trkpt>
      <trkpt lat="30.981557965278625" lon="-3.975543966516852">
        <ele>701.20000000000005</ele>
        <time>2011-04-22T08:55:38Z</time>
      </trkpt>
      <trkpt lat="30.981429973617196" lon="-3.975355960428715">
        <ele>701.5</ele>
        <time>2011-04-22T08:55:39Z</time>
      </trkpt>
      <trkpt lat="30.981144988909364" lon="-3.9750009868294">
        <ele>701.5</ele>
        <time>2011-04-22T08:55:41Z</time>
      </trkpt>
      <trkpt lat="30.980990007519722" lon="-3.974834019318223">
        <ele>701.39999999999998</ele>
        <time>2011-04-22T08:55:42Z</time>
      </trkpt>
      <trkpt lat="30.980826979503036" lon="-3.97467995993793">
        <ele>700.89999999999998</ele>
        <time>2011-04-22T08:55:43Z</time>
      </trkpt>
      <trkpt lat="30.98047100007534" lon="-3.974412996321917">
        <ele>698.89999999999998</ele>
        <time>2011-04-22T08:55:45Z</time>
      </trkpt>
      <trkpt lat="30.980081995949149" lon="-3.974193977192044">
        <ele>697</ele>
        <time>2011-04-22T08:55:47Z</time>
      </trkpt>
      <trkpt lat="30.978899979963899" lon="-3.973673963919282">
        <ele>691.79999999999995</ele>
        <time>2011-04-22T08:55:53Z</time>
      </trkpt>
      <trkpt lat="30.978518016636372" lon="-3.973543960601091">
        <ele>689.89999999999998</ele>
        <time>2011-04-22T08:55:55Z</time>
      </trkpt>
      <trkpt lat="30.978105962276459" lon="-3.973451005294919">
        <ele>688</ele>
        <time>2011-04-22T08:55:57Z</time>
      </trkpt>
      <trkpt lat="30.96938400529325" lon="-3.972278041765094">
        <ele>688.39999999999998</ele>
        <time>2011-04-22T08:56:37Z</time>
      </trkpt>
      <trkpt lat="30.969177978113294" lon="-3.97227200679481">
        <ele>688.39999999999998</ele>
        <time>2011-04-22T08:56:38Z</time>
      </trkpt>
      <trkpt lat="30.967305963858962" lon="-3.97235800512135">
        <ele>687.79999999999995</ele>
        <time>2011-04-22T08:56:47Z</time>
      </trkpt>
      <trkpt lat="30.966887958347797" lon="-3.972455989569426">
        <ele>687.10000000000002</ele>
        <time>2011-04-22T08:56:49Z</time>
      </trkpt>
      <trkpt lat="30.966675980016589" lon="-3.972525978460908">
        <ele>687</ele>
        <time>2011-04-22T08:56:50Z</time>
      </trkpt>
      <trkpt lat="30.966467019170523" lon="-3.972611976787448">
        <ele>686.89999999999998</ele>
        <time>2011-04-22T08:56:51Z</time>
      </trkpt>
      <trkpt lat="30.966053958982229" lon="-3.972834013402462">
        <ele>686.79999999999995</ele>
        <time>2011-04-22T08:56:53Z</time>
      </trkpt>
      <trkpt lat="30.959711037576199" lon="-3.977140970528126">
        <ele>677.39999999999998</ele>
        <time>2011-04-22T08:57:24Z</time>
      </trkpt>
      <trkpt lat="30.959490006789565" lon="-3.977230992168188">
        <ele>675.20000000000005</ele>
        <time>2011-04-22T08:57:25Z</time>
      </trkpt>
      <trkpt lat="30.95926595851779" lon="-3.977306010201573">
        <ele>672.29999999999995</ele>
        <time>2011-04-22T08:57:26Z</time>
      </trkpt>
      <trkpt lat="30.95902799628675" lon="-3.977369964122772">
        <ele>670.89999999999998</ele>
        <time>2011-04-22T08:57:27Z</time>
      </trkpt>
      <trkpt lat="30.95047602429986" lon="-3.978605959564447">
        <ele>665.10000000000002</ele>
        <time>2011-04-22T08:58:03Z</time>
      </trkpt>
      <trkpt lat="30.950237978249788" lon="-3.978634038940072">
        <ele>665.29999999999995</ele>
        <time>2011-04-22T08:58:04Z</time>
      </trkpt>
      <trkpt lat="30.949517972767353" lon="-3.97865398786962">
        <ele>665.79999999999995</ele>
        <time>2011-04-22T08:58:07Z</time>
      </trkpt>
      <trkpt lat="30.936733977869153" lon="-3.97693301551044">
        <ele>668.29999999999995</ele>
        <time>2011-04-22T08:59:01Z</time>
      </trkpt>
      <trkpt lat="30.929677002131939" lon="-3.976001031696796">
        <ele>667.79999999999995</ele>
        <time>2011-04-22T08:59:34Z</time>
      </trkpt>
      <trkpt lat="30.929461000487208" lon="-3.976013017818332">
        <ele>667.79999999999995</ele>
        <time>2011-04-22T08:59:35Z</time>
      </trkpt>
      <trkpt lat="30.926293982192874" lon="-3.976500006392598">
        <ele>676.70000000000005</ele>
        <time>2011-04-22T08:59:49Z</time>
      </trkpt>
      <trkpt lat="30.92606901191175" lon="-3.976560020819306">
        <ele>677.29999999999995</ele>
        <time>2011-04-22T08:59:50Z</time>
      </trkpt>
      <trkpt lat="30.925630973652005" lon="-3.976725982502103">
        <ele>677.5</ele>
        <time>2011-04-22T08:59:52Z</time>
      </trkpt>
      <trkpt lat="30.9218580275774" lon="-3.978553991764784">
        <ele>673.5</ele>
        <time>2011-04-22T09:00:11Z</time>
      </trkpt>
      <trkpt lat="30.921304989606142" lon="-3.978916006162763">
        <ele>674.20000000000005</ele>
        <time>2011-04-22T09:00:14Z</time>
      </trkpt>
      <trkpt lat="30.917287962511182" lon="-3.982304977253079">
        <ele>664.5</ele>
        <time>2011-04-22T09:00:37Z</time>
      </trkpt>
      <trkpt lat="30.917123006656766" lon="-3.982457024976611">
        <ele>664.20000000000005</ele>
        <time>2011-04-22T09:00:38Z</time>
      </trkpt>
      <trkpt lat="30.909738969057798" lon="-3.989804014563561">
        <ele>648.39999999999998</ele>
        <time>2011-04-22T09:01:25Z</time>
      </trkpt>
      <trkpt lat="30.909535037353635" lon="-3.990134010091424">
        <ele>643.60000000000002</ele>
        <time>2011-04-22T09:01:27Z</time>
      </trkpt>
      <trkpt lat="30.909184003248811" lon="-3.990829037502408">
        <ele>639.79999999999995</ele>
        <time>2011-04-22T09:01:31Z</time>
      </trkpt>
      <trkpt lat="30.909029021859169" lon="-3.991204965859652">
        <ele>639</ele>
        <time>2011-04-22T09:01:33Z</time>
      </trkpt>
      <trkpt lat="30.908524012193084" lon="-3.992685964331031">
        <ele>638.5</ele>
        <time>2011-04-22T09:01:41Z</time>
      </trkpt>
      <trkpt lat="30.908480007201433" lon="-3.992865001782775">
        <ele>637.79999999999995</ele>
        <time>2011-04-22T09:01:42Z</time>
      </trkpt>
      <trkpt lat="30.908026965335011" lon="-3.995409999042749">
        <ele>630.5</ele>
        <time>2011-04-22T09:01:58Z</time>
      </trkpt>
      <trkpt lat="30.907998969778419" lon="-3.995542014017701">
        <ele>630.10000000000002</ele>
        <time>2011-04-22T09:01:59Z</time>
      </trkpt>
      <trkpt lat="30.90795798227191" lon="-3.995665982365608">
        <ele>629.5</ele>
        <time>2011-04-22T09:02:00Z</time>
      </trkpt>
      <trkpt lat="30.907904002815485" lon="-3.995783999562264">
        <ele>629</ele>
        <time>2011-04-22T09:02:01Z</time>
      </trkpt>
      <trkpt lat="30.907838037237525" lon="-3.995895981788635">
        <ele>628.29999999999995</ele>
        <time>2011-04-22T09:02:02Z</time>
      </trkpt>
      <trkpt lat="30.907758995890617" lon="-3.996001007035375">
        <ele>627.89999999999998</ele>
        <time>2011-04-22T09:02:03Z</time>
      </trkpt>
      <trkpt lat="30.907670985907316" lon="-3.996096979826689">
        <ele>627.5</ele>
        <time>2011-04-22T09:02:04Z</time>
      </trkpt>
      <trkpt lat="30.907579958438873" lon="-3.99618498980999">
        <ele>627.20000000000005</ele>
        <time>2011-04-22T09:02:05Z</time>
      </trkpt>
      <trkpt lat="30.907246023416519" lon="-3.996456982567906">
        <ele>625.89999999999998</ele>
        <time>2011-04-22T09:02:09Z</time>
      </trkpt>
      <trkpt lat="30.906296018511057" lon="-3.997157039120793">
        <ele>624.70000000000005</ele>
        <time>2011-04-22T09:02:30Z</time>
      </trkpt>
      <trkpt lat="30.906176995486021" lon="-3.996994011104107">
        <ele>622.20000000000005</ele>
        <time>2011-04-22T09:03:00Z</time>
      </trkpt>
      <trkpt lat="30.906116981059313" lon="-3.996911030262709">
        <ele>623.70000000000005</ele>
        <time>2011-04-22T09:03:03Z</time>
      </trkpt>
      <trkpt lat="30.906096026301384" lon="-3.996780021116138">
        <ele>623.29999999999995</ele>
        <time>2011-04-22T09:03:08Z</time>
      </trkpt>
      <trkpt lat="30.906127961352468" lon="-3.996625961735845">
        <ele>625.10000000000002</ele>
        <time>2011-04-22T09:03:12Z</time>
      </trkpt>
      <trkpt lat="30.906095020473003" lon="-3.996440973132849">
        <ele>628.60000000000002</ele>
        <time>2011-04-22T09:03:18Z</time>
      </trkpt>
      <trkpt lat="30.906030982732773" lon="-3.996304012835026">
        <ele>628.20000000000005</ele>
        <time>2011-04-22T09:03:25Z</time>
      </trkpt>
      <trkpt lat="30.904810996726155" lon="-3.994685970246792">
        <ele>633.20000000000005</ele>
        <time>2011-04-22T09:04:04Z</time>
      </trkpt>
      <trkpt lat="30.904672024771571" lon="-3.994390005245805">
        <ele>632.39999999999998</ele>
        <time>2011-04-22T09:04:09Z</time>
      </trkpt>
      <trkpt lat="30.90458401478827" lon="-3.994294032454491">
        <ele>633.10000000000002</ele>
        <time>2011-04-22T09:04:11Z</time>
      </trkpt>
      <trkpt lat="30.904487958177924" lon="-3.99427299387753">
        <ele>632.79999999999995</ele>
        <time>2011-04-22T09:04:13Z</time>
      </trkpt>
      <trkpt lat="30.904195010662079" lon="-3.994365027174354">
        <ele>632.70000000000005</ele>
        <time>2011-04-22T09:04:18Z</time>
      </trkpt>
      <trkpt lat="30.904052015393972" lon="-3.994436021894217">
        <ele>631</ele>
        <time>2011-04-22T09:04:24Z</time>
      </trkpt>
      <trkpt lat="30.903858980163932" lon="-3.994208034127951">
        <ele>629.70000000000005</ele>
        <time>2011-04-22T09:04:36Z</time>
      </trkpt>
      <trkpt lat="30.903770970180631" lon="-3.994169980287552">
        <ele>629.39999999999998</ele>
        <time>2011-04-22T09:04:40Z</time>
      </trkpt>
      <trkpt lat="30.903278030455112" lon="-3.994786972180009">
        <ele>624.70000000000005</ele>
        <time>2011-04-22T09:05:08Z</time>
      </trkpt>
      <trkpt lat="30.903174011036754" lon="-3.994980007410049">
        <ele>627.5</ele>
        <time>2011-04-22T09:05:14Z</time>
      </trkpt>
      <trkpt lat="30.90305901132524" lon="-3.995149992406368">
        <ele>629.70000000000005</ele>
        <time>2011-04-22T09:05:19Z</time>
      </trkpt>
      <trkpt lat="30.902968989685178" lon="-3.995254011824727">
        <ele>630.29999999999995</ele>
        <time>2011-04-22T09:05:22Z</time>
      </trkpt>
      <trkpt lat="30.901437029242516" lon="-3.996715983375907">
        <ele>620.29999999999995</ele>
        <time>2011-04-22T09:05:55Z</time>
      </trkpt>
      <trkpt lat="30.901252962648869" lon="-3.996981019154191">
        <ele>619.5</ele>
        <time>2011-04-22T09:05:59Z</time>
      </trkpt>
      <trkpt lat="30.901134023442864" lon="-3.997094007208943">
        <ele>618.10000000000002</ele>
        <time>2011-04-22T09:06:01Z</time>
      </trkpt>
      <trkpt lat="30.89467803016305" lon="-4.003314971923828">
        <ele>614.60000000000002</ele>
        <time>2011-04-22T09:07:30Z</time>
      </trkpt>
      <trkpt lat="30.894608041271567" lon="-4.003399964421988">
        <ele>614.70000000000005</ele>
        <time>2011-04-22T09:07:31Z</time>
      </trkpt>
      <trkpt lat="30.891866991296411" lon="-4.006684999912977">
        <ele>626.5</ele>
        <time>2011-04-22T09:08:06Z</time>
      </trkpt>
      <trkpt lat="30.885939979925752" lon="-4.015343002974987">
        <ele>654.70000000000005</ele>
        <time>2011-04-22T09:09:28Z</time>
      </trkpt>
      <trkpt lat="30.885880971327424" lon="-4.015463031828404">
        <ele>654.70000000000005</ele>
        <time>2011-04-22T09:09:29Z</time>
      </trkpt>
      <trkpt lat="30.881468988955021" lon="-4.024825030937791">
        <ele>662.5</ele>
        <time>2011-04-22T09:10:49Z</time>
      </trkpt>
      <trkpt lat="30.88142498396337" lon="-4.024948999285698">
        <ele>662.29999999999995</ele>
        <time>2011-04-22T09:10:50Z</time>
      </trkpt>
      <trkpt lat="30.881310990080237" lon="-4.025329034775496">
        <ele>662.10000000000002</ele>
        <time>2011-04-22T09:10:53Z</time>
      </trkpt>
      <trkpt lat="30.881257010623813" lon="-4.0254479739815">
        <ele>661.60000000000002</ele>
        <time>2011-04-22T09:10:54Z</time>
      </trkpt>
      <trkpt lat="30.881199007853866" lon="-4.025547970086336">
        <ele>661.10000000000002</ele>
        <time>2011-04-22T09:10:55Z</time>
      </trkpt>
      <trkpt lat="30.881129018962383" lon="-4.025644026696682">
        <ele>660.39999999999998</ele>
        <time>2011-04-22T09:10:56Z</time>
      </trkpt>
      <trkpt lat="30.880986023694277" lon="-4.025843013077974">
        <ele>659.79999999999995</ele>
        <time>2011-04-22T09:10:58Z</time>
      </trkpt>
      <trkpt lat="30.880925003439188" lon="-4.025956001132727">
        <ele>659.5</ele>
        <time>2011-04-22T09:10:59Z</time>
      </trkpt>
      <trkpt lat="30.879100011661649" lon="-4.029927011579275">
        <ele>658.39999999999998</ele>
        <time>2011-04-22T09:11:33Z</time>
      </trkpt>
      <trkpt lat="30.879056006669998" lon="-4.030042011290789">
        <ele>658.5</ele>
        <time>2011-04-22T09:11:34Z</time>
      </trkpt>
      <trkpt lat="30.879018036648631" lon="-4.030160028487444">
        <ele>658.39999999999998</ele>
        <time>2011-04-22T09:11:35Z</time>
      </trkpt>
      <trkpt lat="30.878886021673679" lon="-4.030652968212962">
        <ele>658.79999999999995</ele>
        <time>2011-04-22T09:11:39Z</time>
      </trkpt>
      <trkpt lat="30.878840005025268" lon="-4.030764028429985">
        <ele>658.5</ele>
        <time>2011-04-22T09:11:40Z</time>
      </trkpt>
      <trkpt lat="30.877871979027987" lon="-4.033650001510978">
        <ele>656</ele>
        <time>2011-04-22T09:12:02Z</time>
      </trkpt>
      <trkpt lat="30.877838032320142" lon="-4.033777993172407">
        <ele>655.89999999999998</ele>
        <time>2011-04-22T09:12:03Z</time>
      </trkpt>
      <trkpt lat="30.876962961629033" lon="-4.035978997126222">
        <ele>655.5</ele>
        <time>2011-04-22T09:12:19Z</time>
      </trkpt>
      <trkpt lat="30.876027960330248" lon="-4.037742968648672">
        <ele>655.39999999999998</ele>
        <time>2011-04-22T09:12:36Z</time>
      </trkpt>
      <trkpt lat="30.871789986267686" lon="-4.046209026128054">
        <ele>661.20000000000005</ele>
        <time>2011-04-22T09:13:54Z</time>
      </trkpt>
      <trkpt lat="30.871743969619274" lon="-4.046326037496328">
        <ele>660.79999999999995</ele>
        <time>2011-04-22T09:13:55Z</time>
      </trkpt>
      <trkpt lat="30.870043030008674" lon="-4.050492011010647">
        <ele>659.60000000000002</ele>
        <time>2011-04-22T09:14:32Z</time>
      </trkpt>
      <trkpt lat="30.869983015581965" lon="-4.050602987408638">
        <ele>660.60000000000002</ele>
        <time>2011-04-22T09:14:33Z</time>
      </trkpt>
      <trkpt lat="30.869625024497509" lon="-4.051363980397582">
        <ele>663.39999999999998</ele>
        <time>2011-04-22T09:14:40Z</time>
      </trkpt>
      <trkpt lat="30.86958697065711" lon="-4.051549974828959">
        <ele>663.29999999999995</ele>
        <time>2011-04-22T09:14:42Z</time>
      </trkpt>
      <trkpt lat="30.869627958163619" lon="-4.051822973415256">
        <ele>665.39999999999998</ele>
        <time>2011-04-22T09:14:45Z</time>
      </trkpt>
      <trkpt lat="30.869608009234071" lon="-4.051986001431942">
        <ele>665.29999999999995</ele>
        <time>2011-04-22T09:14:47Z</time>
      </trkpt>
      <trkpt lat="30.86952100507915" lon="-4.052137965336442">
        <ele>664.20000000000005</ele>
        <time>2011-04-22T09:14:49Z</time>
      </trkpt>
      <trkpt lat="30.869407011196017" lon="-4.052298981696367">
        <ele>663.70000000000005</ele>
        <time>2011-04-22T09:14:51Z</time>
      </trkpt>
      <trkpt lat="30.869341967627406" lon="-4.052379028871656">
        <ele>663.39999999999998</ele>
        <time>2011-04-22T09:14:52Z</time>
      </trkpt>
      <trkpt lat="30.869202995672822" lon="-4.052536021918058">
        <ele>663.20000000000005</ele>
        <time>2011-04-22T09:14:54Z</time>
      </trkpt>
      <trkpt lat="30.869143987074494" lon="-4.05262696556747">
        <ele>663.10000000000002</ele>
        <time>2011-04-22T09:14:55Z</time>
      </trkpt>
      <trkpt lat="30.86909101344645" lon="-4.052727967500687">
        <ele>662.70000000000005</ele>
        <time>2011-04-22T09:14:56Z</time>
      </trkpt>
      <trkpt lat="30.868580974638462" lon="-4.05387201346457">
        <ele>660.29999999999995</ele>
        <time>2011-04-22T09:15:06Z</time>
      </trkpt>
      <trkpt lat="30.867727026343346" lon="-4.05546298250556">
        <ele>662.5</ele>
        <time>2011-04-22T09:15:21Z</time>
      </trkpt>
      <trkpt lat="30.865502972155809" lon="-4.059538012370467">
        <ele>663.89999999999998</ele>
        <time>2011-04-22T09:16:00Z</time>
      </trkpt>
      <trkpt lat="30.865461984649301" lon="-4.059645971283317">
        <ele>663.89999999999998</ele>
        <time>2011-04-22T09:16:01Z</time>
      </trkpt>
      <trkpt lat="30.865430971607566" lon="-4.059756025671959">
        <ele>663.79999999999995</ele>
        <time>2011-04-22T09:16:02Z</time>
      </trkpt>
      <trkpt lat="30.865372968837619" lon="-4.059978984296322">
        <ele>663.5</ele>
        <time>2011-04-22T09:16:04Z</time>
      </trkpt>
      <trkpt lat="30.865333992987871" lon="-4.060089038684964">
        <ele>663.39999999999998</ele>
        <time>2011-04-22T09:16:05Z</time>
      </trkpt>
      <trkpt lat="30.86528898216784" lon="-4.060196997597814">
        <ele>663.39999999999998</ele>
        <time>2011-04-22T09:16:06Z</time>
      </trkpt>
      <trkpt lat="30.865239026024938" lon="-4.060303028672934">
        <ele>663.29999999999995</ele>
        <time>2011-04-22T09:16:07Z</time>
      </trkpt>
      <trkpt lat="30.864056004211307" lon="-4.063094034790993">
        <ele>661.70000000000005</ele>
        <time>2011-04-22T09:16:30Z</time>
      </trkpt>
      <trkpt lat="30.863941004499793" lon="-4.063441967591643">
        <ele>661.70000000000005</ele>
        <time>2011-04-22T09:16:33Z</time>
      </trkpt>
      <trkpt lat="30.863885013386607" lon="-4.063550010323525">
        <ele>661.60000000000002</ele>
        <time>2011-04-22T09:16:34Z</time>
      </trkpt>
      <trkpt lat="30.861136000603437" lon="-4.070154028013349">
        <ele>655.89999999999998</ele>
        <time>2011-04-22T09:17:26Z</time>
      </trkpt>
      <trkpt lat="30.861091995611787" lon="-4.07028503715992">
        <ele>655.79999999999995</ele>
        <time>2011-04-22T09:17:27Z</time>
      </trkpt>
      <trkpt lat="30.860679019242525" lon="-4.072015983983874">
        <ele>654.60000000000002</ele>
        <time>2011-04-22T09:17:40Z</time>
      </trkpt>
      <trkpt lat="30.859972005710006" lon="-4.075370002537966">
        <ele>657.70000000000005</ele>
        <time>2011-04-22T09:18:04Z</time>
      </trkpt>
      <trkpt lat="30.859925989061594" lon="-4.075496988371015">
        <ele>657.89999999999998</ele>
        <time>2011-04-22T09:18:05Z</time>
      </trkpt>
      <trkpt lat="30.859865974634886" lon="-4.075611988082528">
        <ele>658</ele>
        <time>2011-04-22T09:18:06Z</time>
      </trkpt>
      <trkpt lat="30.859804032370448" lon="-4.075697986409068">
        <ele>658.5</ele>
        <time>2011-04-22T09:18:07Z</time>
      </trkpt>
      <trkpt lat="30.859532039612532" lon="-4.076048014685512">
        <ele>659.79999999999995</ele>
        <time>2011-04-22T09:18:11Z</time>
      </trkpt>
      <trkpt lat="30.859475964680314" lon="-4.07615102827549">
        <ele>659.89999999999998</ele>
        <time>2011-04-22T09:18:12Z</time>
      </trkpt>
      <trkpt lat="30.859428020194173" lon="-4.07625999301672">
        <ele>660</ele>
        <time>2011-04-22T09:18:13Z</time>
      </trkpt>
      <trkpt lat="30.859388038516045" lon="-4.076379016041756">
        <ele>659.89999999999998</ele>
        <time>2011-04-22T09:18:14Z</time>
      </trkpt>
      <trkpt lat="30.859356019645929" lon="-4.076504996046424">
        <ele>659.79999999999995</ele>
        <time>2011-04-22T09:18:15Z</time>
      </trkpt>
      <trkpt lat="30.859330035746098" lon="-4.076638016849756">
        <ele>659.79999999999995</ele>
        <time>2011-04-22T09:18:16Z</time>
      </trkpt>
      <trkpt lat="30.859094001352787" lon="-4.077831013128161">
        <ele>659.79999999999995</ele>
        <time>2011-04-22T09:18:25Z</time>
      </trkpt>
      <trkpt lat="30.859052008017898" lon="-4.077967973425984">
        <ele>659.89999999999998</ele>
        <time>2011-04-22T09:18:26Z</time>
      </trkpt>
      <trkpt lat="30.858458988368511" lon="-4.080017013475299">
        <ele>661.60000000000002</ele>
        <time>2011-04-22T09:18:41Z</time>
      </trkpt>
      <trkpt lat="30.858433004468679" lon="-4.080150034278631">
        <ele>661.5</ele>
        <time>2011-04-22T09:18:42Z</time>
      </trkpt>
      <trkpt lat="30.857754992321134" lon="-4.08373799175024">
        <ele>662</ele>
        <time>2011-04-22T09:19:07Z</time>
      </trkpt>
      <trkpt lat="30.857619037851691" lon="-4.084687996655703">
        <ele>662.10000000000002</ele>
        <time>2011-04-22T09:19:14Z</time>
      </trkpt>
      <trkpt lat="30.857576038688421" lon="-4.084826968610287">
        <ele>662.20000000000005</ele>
        <time>2011-04-22T09:19:15Z</time>
      </trkpt>
      <trkpt lat="30.857348972931504" lon="-4.085486037656665">
        <ele>661.89999999999998</ele>
        <time>2011-04-22T09:19:20Z</time>
      </trkpt>
      <trkpt lat="30.857329024001956" lon="-4.085617968812585">
        <ele>661.79999999999995</ele>
        <time>2011-04-22T09:19:21Z</time>
      </trkpt>
      <trkpt lat="30.857319971546531" lon="-4.085751995444298">
        <ele>661.79999999999995</ele>
        <time>2011-04-22T09:19:22Z</time>
      </trkpt>
      <trkpt lat="30.857327012345195" lon="-4.086694037541747">
        <ele>660.60000000000002</ele>
        <time>2011-04-22T09:19:29Z</time>
      </trkpt>
      <trkpt lat="30.857376968488097" lon="-4.08734698779881">
        <ele>660.10000000000002</ele>
        <time>2011-04-22T09:19:34Z</time>
      </trkpt>
      <trkpt lat="30.857408987358212" lon="-4.087608000263572">
        <ele>661.20000000000005</ele>
        <time>2011-04-22T09:19:36Z</time>
      </trkpt>
      <trkpt lat="30.857432037591934" lon="-4.087732974439859">
        <ele>661.89999999999998</ele>
        <time>2011-04-22T09:19:37Z</time>
      </trkpt>
      <trkpt lat="30.857471013441682" lon="-4.087853003293276">
        <ele>662.5</ele>
        <time>2011-04-22T09:19:38Z</time>
      </trkpt>
      <trkpt lat="30.857588024809957" lon="-4.088232032954693">
        <ele>664.60000000000002</ele>
        <time>2011-04-22T09:19:41Z</time>
      </trkpt>
      <trkpt lat="30.857606967911124" lon="-4.088362958282232">
        <ele>665.20000000000005</ele>
        <time>2011-04-22T09:19:42Z</time>
      </trkpt>
      <trkpt lat="30.857613002881408" lon="-4.088490027934313">
        <ele>664.89999999999998</ele>
        <time>2011-04-22T09:19:43Z</time>
      </trkpt>
      <trkpt lat="30.857604034245014" lon="-4.088727990165353">
        <ele>664.5</ele>
        <time>2011-04-22T09:19:45Z</time>
      </trkpt>
      <trkpt lat="30.85759598761797" lon="-4.088834021240473">
        <ele>664.29999999999995</ele>
        <time>2011-04-22T09:19:46Z</time>
      </trkpt>
      <trkpt lat="30.857557011768222" lon="-4.089034013450146">
        <ele>662.89999999999998</ele>
        <time>2011-04-22T09:19:48Z</time>
      </trkpt>
      <trkpt lat="30.857375040650368" lon="-4.089771034196019">
        <ele>659.79999999999995</ele>
        <time>2011-04-22T09:19:54Z</time>
      </trkpt>
      <trkpt lat="30.857367999851704" lon="-4.089914029464126">
        <ele>659.20000000000005</ele>
        <time>2011-04-22T09:19:55Z</time>
      </trkpt>
      <trkpt lat="30.857145041227341" lon="-4.095283979550004">
        <ele>649.60000000000002</ele>
        <time>2011-04-22T09:20:30Z</time>
      </trkpt>
      <trkpt lat="30.857126014307141" lon="-4.095432003960013">
        <ele>649.39999999999998</ele>
        <time>2011-04-22T09:20:31Z</time>
      </trkpt>
      <trkpt lat="30.857097012922168" lon="-4.095579022541642">
        <ele>649.39999999999998</ele>
        <time>2011-04-22T09:20:32Z</time>
      </trkpt>
      <trkpt lat="30.856767017394304" lon="-4.096860028803349">
        <ele>649.5</ele>
        <time>2011-04-22T09:20:41Z</time>
      </trkpt>
      <trkpt lat="30.854834988713264" lon="-4.102802965790033">
        <ele>650.39999999999998</ele>
        <time>2011-04-22T09:21:21Z</time>
      </trkpt>
      <trkpt lat="30.85478100925684" lon="-4.102948978543282">
        <ele>650.10000000000002</ele>
        <time>2011-04-22T09:21:22Z</time>
      </trkpt>
      <trkpt lat="30.854066032916307" lon="-4.104794003069401">
        <ele>648.70000000000005</ele>
        <time>2011-04-22T09:21:36Z</time>
      </trkpt>
      <trkpt lat="30.853808037936687" lon="-4.10528501495719">
        <ele>649.20000000000005</ele>
        <time>2011-04-22T09:21:40Z</time>
      </trkpt>
      <trkpt lat="30.853738971054554" lon="-4.105404037982225">
        <ele>649.5</ele>
        <time>2011-04-22T09:21:41Z</time>
      </trkpt>
      <trkpt lat="30.8536640368402" lon="-4.105516020208597">
        <ele>649.79999999999995</ele>
        <time>2011-04-22T09:21:42Z</time>
      </trkpt>
      <trkpt lat="30.85358097217977" lon="-4.105620039626956">
        <ele>650.10000000000002</ele>
        <time>2011-04-22T09:21:43Z</time>
      </trkpt>
      <trkpt lat="30.853414004668593" lon="-4.105811985209584">
        <ele>650.79999999999995</ele>
        <time>2011-04-22T09:21:45Z</time>
      </trkpt>
      <trkpt lat="30.853327000513673" lon="-4.105898989364505">
        <ele>651</ele>
        <time>2011-04-22T09:21:46Z</time>
      </trkpt>
      <trkpt lat="30.85323597304523" lon="-4.105979958549142">
        <ele>651.20000000000005</ele>
        <time>2011-04-22T09:21:47Z</time>
      </trkpt>
      <trkpt lat="30.852566007524729" lon="-4.10657498985529">
        <ele>653.89999999999998</ele>
        <time>2011-04-22T09:21:55Z</time>
      </trkpt>
      <trkpt lat="30.852480009198189" lon="-4.106633998453617">
        <ele>654.10000000000002</ele>
        <time>2011-04-22T09:21:56Z</time>
      </trkpt>
      <trkpt lat="30.852381018921733" lon="-4.106686972081661">
        <ele>655.10000000000002</ele>
        <time>2011-04-22T09:21:57Z</time>
      </trkpt>
      <trkpt lat="30.852275993674994" lon="-4.106727037578821">
        <ele>656</ele>
        <time>2011-04-22T09:21:58Z</time>
      </trkpt>
      <trkpt lat="30.852069966495037" lon="-4.106803983449936">
        <ele>657.79999999999995</ele>
        <time>2011-04-22T09:22:00Z</time>
      </trkpt>
      <trkpt lat="30.851977011188865" lon="-4.106853017583489">
        <ele>658.10000000000002</ele>
        <time>2011-04-22T09:22:01Z</time>
      </trkpt>
      <trkpt lat="30.851803002879024" lon="-4.106959970667958">
        <ele>659</ele>
        <time>2011-04-22T09:22:03Z</time>
      </trkpt>
      <trkpt lat="30.851721027866006" lon="-4.107020990923047">
        <ele>659.79999999999995</ele>
        <time>2011-04-22T09:22:04Z</time>
      </trkpt>
      <trkpt lat="30.851647015661001" lon="-4.107086034491658">
        <ele>660.10000000000002</ele>
        <time>2011-04-22T09:22:05Z</time>
      </trkpt>
      <trkpt lat="30.851579960435629" lon="-4.107163986191154">
        <ele>660.10000000000002</ele>
        <time>2011-04-22T09:22:06Z</time>
      </trkpt>
      <trkpt lat="30.851518018171191" lon="-4.107251996174455">
        <ele>660.10000000000002</ele>
        <time>2011-04-22T09:22:07Z</time>
      </trkpt>
      <trkpt lat="30.851461021229625" lon="-4.107352998107672">
        <ele>660.5</ele>
        <time>2011-04-22T09:22:08Z</time>
      </trkpt>
      <trkpt lat="30.851410981267691" lon="-4.107461962848902">
        <ele>660.20000000000005</ele>
        <time>2011-04-22T09:22:09Z</time>
      </trkpt>
      <trkpt lat="30.851374017074704" lon="-4.107571011409164">
        <ele>659.79999999999995</ele>
        <time>2011-04-22T09:22:10Z</time>
      </trkpt>
      <trkpt lat="30.851347027346492" lon="-4.107682993635535">
        <ele>659.29999999999995</ele>
        <time>2011-04-22T09:22:11Z</time>
      </trkpt>
      <trkpt lat="30.851331017911434" lon="-4.107798999175429">
        <ele>658.60000000000002</ele>
        <time>2011-04-22T09:22:12Z</time>
      </trkpt>
      <trkpt lat="30.851246025413275" lon="-4.108447004109621">
        <ele>655.29999999999995</ele>
        <time>2011-04-22T09:22:19Z</time>
      </trkpt>
      <trkpt lat="30.850926004350185" lon="-4.109547967091203">
        <ele>654.29999999999995</ele>
        <time>2011-04-22T09:22:33Z</time>
      </trkpt>
      <trkpt lat="30.850829025730491" lon="-4.109719963744283">
        <ele>655.10000000000002</ele>
        <time>2011-04-22T09:22:35Z</time>
      </trkpt>
      <trkpt lat="30.850489977747202" lon="-4.110366040840745">
        <ele>653.89999999999998</ele>
        <time>2011-04-22T09:22:42Z</time>
      </trkpt>
      <trkpt lat="30.850348994135857" lon="-4.110688995569944">
        <ele>653.5</ele>
        <time>2011-04-22T09:22:45Z</time>
      </trkpt>
      <trkpt lat="30.850277999415994" lon="-4.110906003043056">
        <ele>653.29999999999995</ele>
        <time>2011-04-22T09:22:47Z</time>
      </trkpt>
      <trkpt lat="30.849466966465116" lon="-4.113684017211199">
        <ele>649.79999999999995</ele>
        <time>2011-04-22T09:23:10Z</time>
      </trkpt>
      <trkpt lat="30.849137976765633" lon="-4.11525503732264">
        <ele>648.39999999999998</ele>
        <time>2011-04-22T09:23:25Z</time>
      </trkpt>
      <trkpt lat="30.848962962627411" lon="-4.1155990306288">
        <ele>648.89999999999998</ele>
        <time>2011-04-22T09:23:29Z</time>
      </trkpt>
      <trkpt lat="30.848953993991017" lon="-4.115763986483216">
        <ele>648.70000000000005</ele>
        <time>2011-04-22T09:23:31Z</time>
      </trkpt>
      <trkpt lat="30.848990958184004" lon="-4.115959033370018">
        <ele>649.89999999999998</ele>
        <time>2011-04-22T09:23:33Z</time>
      </trkpt>
      <trkpt lat="30.849048038944602" lon="-4.11613798700273">
        <ele>650.79999999999995</ele>
        <time>2011-04-22T09:23:35Z</time>
      </trkpt>
      <trkpt lat="30.849106963723898" lon="-4.116267990320921">
        <ele>651.79999999999995</ele>
        <time>2011-04-22T09:23:37Z</time>
      </trkpt>
      <trkpt lat="30.849264962598681" lon="-4.116449039429426">
        <ele>655.10000000000002</ele>
        <time>2011-04-22T09:23:44Z</time>
      </trkpt>
      <trkpt lat="30.849335035309196" lon="-4.116573007777333">
        <ele>656.39999999999998</ele>
        <time>2011-04-22T09:23:47Z</time>
      </trkpt>
      <trkpt lat="30.849369987845421" lon="-4.116807030513883">
        <ele>657.60000000000002</ele>
        <time>2011-04-22T09:23:52Z</time>
      </trkpt>
      <trkpt lat="30.849408963695168" lon="-4.116905014961958">
        <ele>658.39999999999998</ele>
        <time>2011-04-22T09:23:54Z</time>
      </trkpt>
      <trkpt lat="30.849417010322213" lon="-4.117011968046427">
        <ele>658.5</ele>
        <time>2011-04-22T09:23:56Z</time>
      </trkpt>
      <trkpt lat="30.849379962310195" lon="-4.117108024656773">
        <ele>658.29999999999995</ele>
        <time>2011-04-22T09:23:58Z</time>
      </trkpt>
      <trkpt lat="30.8492829836905" lon="-4.11718899384141">
        <ele>658.89999999999998</ele>
        <time>2011-04-22T09:24:02Z</time>
      </trkpt>
      <trkpt lat="30.849231015890837" lon="-4.117281027138233">
        <ele>659.39999999999998</ele>
        <time>2011-04-22T09:24:05Z</time>
      </trkpt>
      <trkpt lat="30.849210983142257" lon="-4.117439026013017">
        <ele>658.89999999999998</ele>
        <time>2011-04-22T09:24:08Z</time>
      </trkpt>
      <trkpt lat="30.849211988970637" lon="-4.117629965767264">
        <ele>658</ele>
        <time>2011-04-22T09:24:11Z</time>
      </trkpt>
      <trkpt lat="30.849177036434412" lon="-4.117832975462079">
        <ele>657.39999999999998</ele>
        <time>2011-04-22T09:24:14Z</time>
      </trkpt>
      <trkpt lat="30.849182987585664" lon="-4.117974964901805">
        <ele>656.79999999999995</ele>
        <time>2011-04-22T09:24:16Z</time>
      </trkpt>
      <trkpt lat="30.849221963435411" lon="-4.118144027888775">
        <ele>657.89999999999998</ele>
        <time>2011-04-22T09:24:18Z</time>
      </trkpt>
      <trkpt lat="30.849299998953938" lon="-4.118418032303453">
        <ele>659.60000000000002</ele>
        <time>2011-04-22T09:24:21Z</time>
      </trkpt>
      <trkpt lat="30.849317014217377" lon="-4.118603020906448">
        <ele>660.10000000000002</ele>
        <time>2011-04-22T09:24:23Z</time>
      </trkpt>
      <trkpt lat="30.849264040589333" lon="-4.119297964498401">
        <ele>657.5</ele>
        <time>2011-04-22T09:24:30Z</time>
      </trkpt>
      <trkpt lat="30.849235039204359" lon="-4.11940198391676">
        <ele>657.20000000000005</ele>
        <time>2011-04-22T09:24:31Z</time>
      </trkpt>
      <trkpt lat="30.849189022555947" lon="-4.119502985849977">
        <ele>656.79999999999995</ele>
        <time>2011-04-22T09:24:32Z</time>
      </trkpt>
      <trkpt lat="30.849133031442761" lon="-4.119585966691375">
        <ele>656.79999999999995</ele>
        <time>2011-04-22T09:24:33Z</time>
      </trkpt>
      <trkpt lat="30.849013002589345" lon="-4.119738014414907">
        <ele>656.70000000000005</ele>
        <time>2011-04-22T09:24:35Z</time>
      </trkpt>
      <trkpt lat="30.848923986777663" lon="-4.119920991361141">
        <ele>656.70000000000005</ele>
        <time>2011-04-22T09:24:37Z</time>
      </trkpt>
      <trkpt lat="30.848798006772995" lon="-4.12017404101789">
        <ele>656.10000000000002</ele>
        <time>2011-04-22T09:24:40Z</time>
      </trkpt>
      <trkpt lat="30.848692981526256" lon="-4.120289040729404">
        <ele>655.20000000000005</ele>
        <time>2011-04-22T09:24:42Z</time>
      </trkpt>
      <trkpt lat="30.848559960722923" lon="-4.120408985763788">
        <ele>654.29999999999995</ele>
        <time>2011-04-22T09:24:44Z</time>
      </trkpt>
      <trkpt lat="30.848418977111578" lon="-4.120509987697005">
        <ele>653.79999999999995</ele>
        <time>2011-04-22T09:24:46Z</time>
      </trkpt>
      <trkpt lat="30.848258966580033" lon="-4.120589029043913">
        <ele>653.70000000000005</ele>
        <time>2011-04-22T09:24:48Z</time>
      </trkpt>
      <trkpt lat="30.847920002415776" lon="-4.120702017098665">
        <ele>654.5</ele>
        <time>2011-04-22T09:24:52Z</time>
      </trkpt>
      <trkpt lat="30.847751023247838" lon="-4.120747027918696">
        <ele>654.70000000000005</ele>
        <time>2011-04-22T09:24:54Z</time>
      </trkpt>
      <trkpt lat="30.846822978928685" lon="-4.120966969057918">
        <ele>658.60000000000002</ele>
        <time>2011-04-22T09:25:04Z</time>
      </trkpt>
      <trkpt lat="30.846736980602145" lon="-4.121005022898316">
        <ele>659.10000000000002</ele>
        <time>2011-04-22T09:25:05Z</time>
      </trkpt>
      <trkpt lat="30.846589040011168" lon="-4.121089009568095">
        <ele>659.70000000000005</ele>
        <time>2011-04-22T09:25:07Z</time>
      </trkpt>
      <trkpt lat="30.846483008936048" lon="-4.121193028986454">
        <ele>659.5</ele>
        <time>2011-04-22T09:25:09Z</time>
      </trkpt>
      <trkpt lat="30.845810025930405" lon="-4.122080001980066">
        <ele>658.60000000000002</ele>
        <time>2011-04-22T09:25:21Z</time>
      </trkpt>
      <trkpt lat="30.845664013177156" lon="-4.122189972549677">
        <ele>657.89999999999998</ele>
        <time>2011-04-22T09:25:23Z</time>
      </trkpt>
      <trkpt lat="30.845574997365475" lon="-4.122224003076553">
        <ele>657.79999999999995</ele>
        <time>2011-04-22T09:25:24Z</time>
      </trkpt>
      <trkpt lat="30.84547801874578" lon="-4.122241018339992">
        <ele>657.79999999999995</ele>
        <time>2011-04-22T09:25:25Z</time>
      </trkpt>
      <trkpt lat="30.845375005155802" lon="-4.12225903943181">
        <ele>658.79999999999995</ele>
        <time>2011-04-22T09:25:26Z</time>
      </trkpt>
      <trkpt lat="30.845272997394204" lon="-4.122265996411443">
        <ele>659.89999999999998</ele>
        <time>2011-04-22T09:25:27Z</time>
      </trkpt>
      <trkpt lat="30.844978960230947" lon="-4.122290974482894">
        <ele>664.70000000000005</ele>
        <time>2011-04-22T09:25:30Z</time>
      </trkpt>
      <trkpt lat="30.844881981611252" lon="-4.122315030544996">
        <ele>666.89999999999998</ele>
        <time>2011-04-22T09:25:31Z</time>
      </trkpt>
      <trkpt lat="30.844794977456331" lon="-4.122348977252841">
        <ele>669</ele>
        <time>2011-04-22T09:25:32Z</time>
      </trkpt>
      <trkpt lat="30.844672014936805" lon="-4.122460037469864">
        <ele>670.60000000000002</ele>
        <time>2011-04-22T09:25:34Z</time>
      </trkpt>
      <trkpt lat="30.844604037702084" lon="-4.122590962797403">
        <ele>669.79999999999995</ele>
        <time>2011-04-22T09:25:36Z</time>
      </trkpt>
      <trkpt lat="30.844592973589897" lon="-4.122752984985709">
        <ele>668.5</ele>
        <time>2011-04-22T09:25:38Z</time>
      </trkpt>
      <trkpt lat="30.844622980803251" lon="-4.122934034094214">
        <ele>666.89999999999998</ele>
        <time>2011-04-22T09:25:40Z</time>
      </trkpt>
      <trkpt lat="30.844651982188225" lon="-4.123034030199051">
        <ele>666.79999999999995</ele>
        <time>2011-04-22T09:25:41Z</time>
      </trkpt>
      <trkpt lat="30.844689030200243" lon="-4.123134026303887">
        <ele>666.89999999999998</ele>
        <time>2011-04-22T09:25:42Z</time>
      </trkpt>
      <trkpt lat="30.844776034355164" lon="-4.123324966058135">
        <ele>666.79999999999995</ele>
        <time>2011-04-22T09:25:44Z</time>
      </trkpt>
      <trkpt lat="30.844807969406247" lon="-4.123423034325242">
        <ele>666.89999999999998</ele>
        <time>2011-04-22T09:25:45Z</time>
      </trkpt>
      <trkpt lat="30.844845017418265" lon="-4.124080007895827">
        <ele>664.60000000000002</ele>
        <time>2011-04-22T09:25:52Z</time>
      </trkpt>
      <trkpt lat="30.844802018254995" lon="-4.124685013666749">
        <ele>662</ele>
        <time>2011-04-22T09:25:58Z</time>
      </trkpt>
      <trkpt lat="30.844810986891389" lon="-4.124792972579598">
        <ele>661.70000000000005</ele>
        <time>2011-04-22T09:25:59Z</time>
      </trkpt>
      <trkpt lat="30.845011984929442" lon="-4.126121001318097">
        <ele>657.79999999999995</ele>
        <time>2011-04-22T09:26:12Z</time>
      </trkpt>
      <trkpt lat="30.845174007117748" lon="-4.126850981265307">
        <ele>656.39999999999998</ele>
        <time>2011-04-22T09:26:19Z</time>
      </trkpt>
      <trkpt lat="30.84517702460289" lon="-4.126966986805201">
        <ele>656.20000000000005</ele>
        <time>2011-04-22T09:26:20Z</time>
      </trkpt>
      <trkpt lat="30.845348015427589" lon="-4.129803003743291">
        <ele>653.70000000000005</ele>
        <time>2011-04-22T09:26:42Z</time>
      </trkpt>
      <trkpt lat="30.845361007377505" lon="-4.129912974312902">
        <ele>653.89999999999998</ele>
        <time>2011-04-22T09:26:43Z</time>
      </trkpt>
      <trkpt lat="30.845585977658629" lon="-4.131288025528193">
        <ele>659.10000000000002</ele>
        <time>2011-04-22T09:26:56Z</time>
      </trkpt>
      <trkpt lat="30.845613973215222" lon="-4.131393972784281">
        <ele>659.29999999999995</ele>
        <time>2011-04-22T09:26:57Z</time>
      </trkpt>
      <trkpt lat="30.845802985131741" lon="-4.131923960521817">
        <ele>660.39999999999998</ele>
        <time>2011-04-22T09:27:02Z</time>
      </trkpt>
      <trkpt lat="30.845889989286661" lon="-4.13212101906538">
        <ele>660.79999999999995</ele>
        <time>2011-04-22T09:27:04Z</time>
      </trkpt>
      <trkpt lat="30.845940029248595" lon="-4.132210034877062">
        <ele>661.29999999999995</ele>
        <time>2011-04-22T09:27:05Z</time>
      </trkpt>
      <trkpt lat="30.846232976764441" lon="-4.132587974891067">
        <ele>662.89999999999998</ele>
        <time>2011-04-22T09:27:10Z</time>
      </trkpt>
      <trkpt lat="30.846281005069613" lon="-4.13267900235951">
        <ele>663.60000000000002</ele>
        <time>2011-04-22T09:27:11Z</time>
      </trkpt>
      <trkpt lat="30.846318975090981" lon="-4.132775980979204">
        <ele>664</ele>
        <time>2011-04-22T09:27:12Z</time>
      </trkpt>
      <trkpt lat="30.846346970647573" lon="-4.132878994569182">
        <ele>664.5</ele>
        <time>2011-04-22T09:27:13Z</time>
      </trkpt>
      <trkpt lat="30.846361974254251" lon="-4.132988965138793">
        <ele>664.70000000000005</ele>
        <time>2011-04-22T09:27:14Z</time>
      </trkpt>
      <trkpt lat="30.846364991739392" lon="-4.133098013699055">
        <ele>664.60000000000002</ele>
        <time>2011-04-22T09:27:15Z</time>
      </trkpt>
      <trkpt lat="30.84636096842587" lon="-4.133203960955143">
        <ele>664.5</ele>
        <time>2011-04-22T09:27:16Z</time>
      </trkpt>
      <trkpt lat="30.846326015889645" lon="-4.133401019498706">
        <ele>664.20000000000005</ele>
        <time>2011-04-22T09:27:18Z</time>
      </trkpt>
      <trkpt lat="30.846239011734724" lon="-4.133778959512711">
        <ele>663.5</ele>
        <time>2011-04-22T09:27:22Z</time>
      </trkpt>
      <trkpt lat="30.846247980371118" lon="-4.13396998308599">
        <ele>663.60000000000002</ele>
        <time>2011-04-22T09:27:24Z</time>
      </trkpt>
      <trkpt lat="30.846312018111348" lon="-4.134243987500668">
        <ele>664.10000000000002</ele>
        <time>2011-04-22T09:27:27Z</time>
      </trkpt>
      <trkpt lat="30.846307994797826" lon="-4.134349012747407">
        <ele>664.29999999999995</ele>
        <time>2011-04-22T09:27:28Z</time>
      </trkpt>
      <trkpt lat="30.846291985362768" lon="-4.134454960003495">
        <ele>664.79999999999995</ele>
        <time>2011-04-22T09:27:29Z</time>
      </trkpt>
      <trkpt lat="30.846258960664272" lon="-4.134556967765093">
        <ele>665.20000000000005</ele>
        <time>2011-04-22T09:27:30Z</time>
      </trkpt>
      <trkpt lat="30.846157036721706" lon="-4.134713038802147">
        <ele>665.20000000000005</ele>
        <time>2011-04-22T09:27:32Z</time>
      </trkpt>
      <trkpt lat="30.845991997048259" lon="-4.134808005765081">
        <ele>666.60000000000002</ele>
        <time>2011-04-22T09:27:34Z</time>
      </trkpt>
      <trkpt lat="30.843187998980284" lon="-4.136088006198406">
        <ele>679.89999999999998</ele>
        <time>2011-04-22T09:28:06Z</time>
      </trkpt>
      <trkpt lat="30.842931009829044" lon="-4.136131005361676">
        <ele>679.89999999999998</ele>
        <time>2011-04-22T09:28:09Z</time>
      </trkpt>
      <trkpt lat="30.842280993238091" lon="-4.136221027001739">
        <ele>679.10000000000002</ele>
        <time>2011-04-22T09:28:17Z</time>
      </trkpt>
      <trkpt lat="30.842102961614728" lon="-4.136274000629783">
        <ele>678.79999999999995</ele>
        <time>2011-04-22T09:28:19Z</time>
      </trkpt>
      <trkpt lat="30.841814037412405" lon="-4.136391011998057">
        <ele>678.5</ele>
        <time>2011-04-22T09:28:23Z</time>
      </trkpt>
      <trkpt lat="30.841502984985709" lon="-4.13656803779304">
        <ele>676.5</ele>
        <time>2011-04-22T09:28:36Z</time>
      </trkpt>
      <trkpt lat="30.840854980051517" lon="-4.137038011103869">
        <ele>678.20000000000005</ele>
        <time>2011-04-22T09:28:44Z</time>
      </trkpt>
      <trkpt lat="30.836032032966614" lon="-4.140529995784164">
        <ele>666.60000000000002</ele>
        <time>2011-04-22T09:29:33Z</time>
      </trkpt>
      <trkpt lat="30.835922984406352" lon="-4.140592021867633">
        <ele>666.29999999999995</ele>
        <time>2011-04-22T09:29:34Z</time>
      </trkpt>
      <trkpt lat="30.835581002756953" lon="-4.140756977722049">
        <ele>665.10000000000002</ele>
        <time>2011-04-22T09:29:37Z</time>
      </trkpt>
      <trkpt lat="30.835348991677165" lon="-4.140845993533731">
        <ele>664.70000000000005</ele>
        <time>2011-04-22T09:29:39Z</time>
      </trkpt>
      <trkpt lat="30.835006004199386" lon="-4.140943977981806">
        <ele>664.39999999999998</ele>
        <time>2011-04-22T09:29:42Z</time>
      </trkpt>
      <trkpt lat="30.834883963689208" lon="-4.140969961881638">
        <ele>664.29999999999995</ele>
        <time>2011-04-22T09:29:43Z</time>
      </trkpt>
      <trkpt lat="30.8345200214535" lon="-4.141013966873288">
        <ele>662.89999999999998</ele>
        <time>2011-04-22T09:29:46Z</time>
      </trkpt>
      <trkpt lat="30.83428599871695" lon="-4.141022013500333">
        <ele>661.89999999999998</ele>
        <time>2011-04-22T09:29:48Z</time>
      </trkpt>
      <trkpt lat="30.832376014441252" lon="-4.140970967710018">
        <ele>660.39999999999998</ele>
        <time>2011-04-22T09:30:05Z</time>
      </trkpt>
      <trkpt lat="30.832168981432915" lon="-4.140953030437231">
        <ele>660</ele>
        <time>2011-04-22T09:30:07Z</time>
      </trkpt>
      <trkpt lat="30.832068985328078" lon="-4.140936015173793">
        <ele>659.5</ele>
        <time>2011-04-22T09:30:08Z</time>
      </trkpt>
      <trkpt lat="30.831772014498711" lon="-4.140857979655266">
        <ele>658.70000000000005</ele>
        <time>2011-04-22T09:30:11Z</time>
      </trkpt>
      <trkpt lat="30.831579985097051" lon="-4.140793019905686">
        <ele>658.20000000000005</ele>
        <time>2011-04-22T09:30:13Z</time>
      </trkpt>
      <trkpt lat="30.831094002351165" lon="-4.140578024089336">
        <ele>658.29999999999995</ele>
        <time>2011-04-22T09:30:18Z</time>
      </trkpt>
      <trkpt lat="30.826789978891611" lon="-4.138639038428664">
        <ele>666.70000000000005</ele>
        <time>2011-04-22T09:31:06Z</time>
      </trkpt>
      <trkpt lat="30.826689982786775" lon="-4.138612970709801">
        <ele>666.70000000000005</ele>
        <time>2011-04-22T09:31:07Z</time>
      </trkpt>
      <trkpt lat="30.82152497023344" lon="-4.137733960524201">
        <ele>662.79999999999995</ele>
        <time>2011-04-22T09:32:08Z</time>
      </trkpt>
      <trkpt lat="30.821428997442126" lon="-4.13772800937295">
        <ele>663.20000000000005</ele>
        <time>2011-04-22T09:32:09Z</time>
      </trkpt>
      <trkpt lat="30.814938973635435" lon="-4.137544026598334">
        <ele>656.5</ele>
        <time>2011-04-22T09:33:13Z</time>
      </trkpt>
      <trkpt lat="30.814836965873837" lon="-4.137528017163277">
        <ele>656.20000000000005</ele>
        <time>2011-04-22T09:33:14Z</time>
      </trkpt>
      <trkpt lat="30.814544018357992" lon="-4.137460039928556">
        <ele>655.5</ele>
        <time>2011-04-22T09:33:17Z</time>
      </trkpt>
      <trkpt lat="30.814356012269855" lon="-4.137400025501847">
        <ele>655.29999999999995</ele>
        <time>2011-04-22T09:33:19Z</time>
      </trkpt>
      <trkpt lat="30.814091982319951" lon="-4.137285025790334">
        <ele>654.39999999999998</ele>
        <time>2011-04-22T09:33:22Z</time>
      </trkpt>
      <trkpt lat="30.81099403090775" lon="-4.135935958474875">
        <ele>650.29999999999995</ele>
        <time>2011-04-22T09:34:06Z</time>
      </trkpt>
      <trkpt lat="30.810895962640643" lon="-4.135923972353339">
        <ele>650.89999999999998</ele>
        <time>2011-04-22T09:34:08Z</time>
      </trkpt>
      <trkpt lat="30.810798984020948" lon="-4.135960014536977">
        <ele>652.20000000000005</ele>
        <time>2011-04-22T09:34:10Z</time>
      </trkpt>
      <trkpt lat="30.81071600317955" lon="-4.136046012863517">
        <ele>653.20000000000005</ele>
        <time>2011-04-22T09:34:12Z</time>
      </trkpt>
      <trkpt lat="30.809472966939211" lon="-4.137458028271794">
        <ele>656.29999999999995</ele>
        <time>2011-04-22T09:34:34Z</time>
      </trkpt>
      <trkpt lat="30.806742981076241" lon="-4.139757016673684">
        <ele>646.20000000000005</ele>
        <time>2011-04-22T09:35:14Z</time>
      </trkpt>
      <trkpt lat="30.806656982749701" lon="-4.139806972816587">
        <ele>646.10000000000002</ele>
        <time>2011-04-22T09:35:15Z</time>
      </trkpt>
      <trkpt lat="30.806479034945369" lon="-4.139900011941791">
        <ele>646.29999999999995</ele>
        <time>2011-04-22T09:35:17Z</time>
      </trkpt>
      <trkpt lat="30.806381972506642" lon="-4.139951979741454">
        <ele>647.29999999999995</ele>
        <time>2011-04-22T09:35:18Z</time>
      </trkpt>
      <trkpt lat="30.806280970573425" lon="-4.139988021925092">
        <ele>647.39999999999998</ele>
        <time>2011-04-22T09:35:19Z</time>
      </trkpt>
      <trkpt lat="30.80437601543963" lon="-4.140453971922398">
        <ele>659</ele>
        <time>2011-04-22T09:35:35Z</time>
      </trkpt>
      <trkpt lat="30.80427099019289" lon="-4.140476016327739">
        <ele>659.60000000000002</ele>
        <time>2011-04-22T09:35:36Z</time>
      </trkpt>
      <trkpt lat="30.800781017169356" lon="-4.141433984041214">
        <ele>655.39999999999998</ele>
        <time>2011-04-22T09:36:16Z</time>
      </trkpt>
      <trkpt lat="30.799177978187799" lon="-4.142382983118296">
        <ele>654.70000000000005</ele>
        <time>2011-04-22T09:36:37Z</time>
      </trkpt>
      <trkpt lat="30.799030959606171" lon="-4.142419025301933">
        <ele>653.20000000000005</ele>
        <time>2011-04-22T09:36:39Z</time>
      </trkpt>
      <trkpt lat="30.798886036500335" lon="-4.142398992553353">
        <ele>651.60000000000002</ele>
        <time>2011-04-22T09:36:41Z</time>
      </trkpt>
      <trkpt lat="30.798351019620895" lon="-4.142329003661871">
        <ele>649</ele>
        <time>2011-04-22T09:36:49Z</time>
      </trkpt>
      <trkpt lat="30.798079026862979" lon="-4.142330009490252">
        <ele>648.89999999999998</ele>
        <time>2011-04-22T09:36:53Z</time>
      </trkpt>
      <trkpt lat="30.797135978937149" lon="-4.14234702475369">
        <ele>649.70000000000005</ele>
        <time>2011-04-22T09:37:08Z</time>
      </trkpt>
      <trkpt lat="30.795846004039049" lon="-4.142467975616455">
        <ele>652.20000000000005</ele>
        <time>2011-04-22T09:37:27Z</time>
      </trkpt>
      <trkpt lat="30.795392962172627" lon="-4.142580963671207">
        <ele>653.29999999999995</ele>
        <time>2011-04-22T09:37:33Z</time>
      </trkpt>
      <trkpt lat="30.794986020773649" lon="-4.142693029716611">
        <ele>653.70000000000005</ele>
        <time>2011-04-22T09:37:38Z</time>
      </trkpt>
      <trkpt lat="30.794894993305206" lon="-4.142706021666527">
        <ele>653.70000000000005</ele>
        <time>2011-04-22T09:37:39Z</time>
      </trkpt>
      <trkpt lat="30.788362976163626" lon="-4.143847972154617">
        <ele>655.70000000000005</ele>
        <time>2011-04-22T09:38:44Z</time>
      </trkpt>
      <trkpt lat="30.788262980058789" lon="-4.143848977982998">
        <ele>655.79999999999995</ele>
        <time>2011-04-22T09:38:45Z</time>
      </trkpt>
      <trkpt lat="30.788166001439095" lon="-4.143835986033082">
        <ele>655.89999999999998</ele>
        <time>2011-04-22T09:38:46Z</time>
      </trkpt>
      <trkpt lat="30.787358991801739" lon="-4.143747976049781">
        <ele>656.29999999999995</ele>
        <time>2011-04-22T09:38:55Z</time>
      </trkpt>
      <trkpt lat="30.787243992090225" lon="-4.143695002421737">
        <ele>656.79999999999995</ele>
        <time>2011-04-22T09:38:57Z</time>
      </trkpt>
      <trkpt lat="30.786331035196781" lon="-4.143215976655483">
        <ele>660.5</ele>
        <time>2011-04-22T09:39:08Z</time>
      </trkpt>
      <trkpt lat="30.786239001899958" lon="-4.14318697527051">
        <ele>660.79999999999995</ele>
        <time>2011-04-22T09:39:09Z</time>
      </trkpt>
      <trkpt lat="30.786143029108644" lon="-4.143166020512581">
        <ele>660.89999999999998</ele>
        <time>2011-04-22T09:39:10Z</time>
      </trkpt>
      <trkpt lat="30.785848991945386" lon="-4.14314397610724">
        <ele>660.5</ele>
        <time>2011-04-22T09:39:13Z</time>
      </trkpt>
      <trkpt lat="30.784431025385857" lon="-4.143127966672182">
        <ele>659.70000000000005</ele>
        <time>2011-04-22T09:39:27Z</time>
      </trkpt>
      <trkpt lat="30.784336980432272" lon="-4.143138024955988">
        <ele>659.29999999999995</ele>
        <time>2011-04-22T09:39:28Z</time>
      </trkpt>
      <trkpt lat="30.783792994916439" lon="-4.143276996910572">
        <ele>658.29999999999995</ele>
        <time>2011-04-22T09:39:34Z</time>
      </trkpt>
      <trkpt lat="30.783014986664057" lon="-4.14352803491056">
        <ele>657.29999999999995</ele>
        <time>2011-04-22T09:39:42Z</time>
      </trkpt>
      <trkpt lat="30.78291398473084" lon="-4.143543038517237">
        <ele>656.79999999999995</ele>
        <time>2011-04-22T09:39:43Z</time>
      </trkpt>
      <trkpt lat="30.782078979536891" lon="-4.143634987995029">
        <ele>656</ele>
        <time>2011-04-22T09:39:52Z</time>
      </trkpt>
      <trkpt lat="30.781984012573957" lon="-4.143664995208383">
        <ele>655.89999999999998</ele>
        <time>2011-04-22T09:39:53Z</time>
      </trkpt>
      <trkpt lat="30.778288012370467" lon="-4.144271006807685">
        <ele>655.39999999999998</ele>
        <time>2011-04-22T09:40:29Z</time>
      </trkpt>
      <trkpt lat="30.777826001867652" lon="-4.144437974318862">
        <ele>655.60000000000002</ele>
        <time>2011-04-22T09:40:34Z</time>
      </trkpt>
      <trkpt lat="30.777734974399209" lon="-4.144490025937557">
        <ele>655.60000000000002</ele>
        <time>2011-04-22T09:40:35Z</time>
      </trkpt>
      <trkpt lat="30.776945985853672" lon="-4.145058989524841">
        <ele>656.70000000000005</ele>
        <time>2011-04-22T09:40:43Z</time>
      </trkpt>
      <trkpt lat="30.776639962568879" lon="-4.145304998382926">
        <ele>658.20000000000005</ele>
        <time>2011-04-22T09:40:46Z</time>
      </trkpt>
      <trkpt lat="30.776349026709795" lon="-4.145576991140842">
        <ele>659.10000000000002</ele>
        <time>2011-04-22T09:40:49Z</time>
      </trkpt>
      <trkpt lat="30.77601601369679" lon="-4.145953003317118">
        <ele>658.60000000000002</ele>
        <time>2011-04-22T09:40:53Z</time>
      </trkpt>
      <trkpt lat="30.775939989835024" lon="-4.146048976108432">
        <ele>658.29999999999995</ele>
        <time>2011-04-22T09:40:54Z</time>
      </trkpt>
      <trkpt lat="30.775423999875784" lon="-4.146811980754137">
        <ele>655.39999999999998</ele>
        <time>2011-04-22T09:41:02Z</time>
      </trkpt>
      <trkpt lat="30.775370020419359" lon="-4.146906025707722">
        <ele>655.10000000000002</ele>
        <time>2011-04-22T09:41:03Z</time>
      </trkpt>
      <trkpt lat="30.774881020188332" lon="-4.147872962057591">
        <ele>652.70000000000005</ele>
        <time>2011-04-22T09:41:15Z</time>
      </trkpt>
      <trkpt lat="30.774816982448101" lon="-4.148029033094645">
        <ele>652.29999999999995</ele>
        <time>2011-04-22T09:41:17Z</time>
      </trkpt>
      <trkpt lat="30.774703994393349" lon="-4.148377971723676">
        <ele>652.39999999999998</ele>
        <time>2011-04-22T09:41:21Z</time>
      </trkpt>
      <trkpt lat="30.774644985795021" lon="-4.14866697974503">
        <ele>652.60000000000002</ele>
        <time>2011-04-22T09:41:24Z</time>
      </trkpt>
      <trkpt lat="30.774463014677167" lon="-4.149811025708914">
        <ele>653.5</ele>
        <time>2011-04-22T09:41:35Z</time>
      </trkpt>
      <trkpt lat="30.774459997192025" lon="-4.15008301846683">
        <ele>653.5</ele>
        <time>2011-04-22T09:41:38Z</time>
      </trkpt>
      <trkpt lat="30.774495033547282" lon="-4.150408990681171">
        <ele>653.60000000000002</ele>
        <time>2011-04-22T09:41:42Z</time>
      </trkpt>
      <trkpt lat="30.774634005501866" lon="-4.151386991143227">
        <ele>652</ele>
        <time>2011-04-22T09:41:52Z</time>
      </trkpt>
      <trkpt lat="30.774727966636419" lon="-4.151810025796294">
        <ele>651.70000000000005</ele>
        <time>2011-04-22T09:41:58Z</time>
      </trkpt>
      <trkpt lat="30.774784963577986" lon="-4.152057962492108">
        <ele>651.79999999999995</ele>
        <time>2011-04-22T09:42:01Z</time>
      </trkpt>
      <trkpt lat="30.774788986891508" lon="-4.152329033240676">
        <ele>652</ele>
        <time>2011-04-22T09:42:04Z</time>
      </trkpt>
      <trkpt lat="30.7748550362885" lon="-4.152786014601588">
        <ele>652.29999999999995</ele>
        <time>2011-04-22T09:42:09Z</time>
      </trkpt>
      <trkpt lat="30.774817988276482" lon="-4.153151968494058">
        <ele>652.5</ele>
        <time>2011-04-22T09:42:13Z</time>
      </trkpt>
      <trkpt lat="30.774841038510203" lon="-4.153302004560828">
        <ele>652.5</ele>
        <time>2011-04-22T09:42:15Z</time>
      </trkpt>
      <trkpt lat="30.774907004088163" lon="-4.153394037857652">
        <ele>653.5</ele>
        <time>2011-04-22T09:42:17Z</time>
      </trkpt>
      <trkpt lat="30.774988979101181" lon="-4.153515994548798">
        <ele>654</ele>
        <time>2011-04-22T09:42:20Z</time>
      </trkpt>
      <trkpt lat="30.775175979360938" lon="-4.153846995905042">
        <ele>655.5</ele>
        <time>2011-04-22T09:42:26Z</time>
      </trkpt>
      <trkpt lat="30.775258038192987" lon="-4.153955960646272">
        <ele>656.29999999999995</ele>
        <time>2011-04-22T09:42:28Z</time>
      </trkpt>
      <trkpt lat="30.775680989027023" lon="-4.154464993625879">
        <ele>656</ele>
        <time>2011-04-22T09:42:38Z</time>
      </trkpt>
      <trkpt lat="30.77573899179697" lon="-4.154563983902335">
        <ele>656.29999999999995</ele>
        <time>2011-04-22T09:42:40Z</time>
      </trkpt>
      <trkpt lat="30.776840960606933" lon="-4.156362991780043">
        <ele>655.89999999999998</ele>
        <time>2011-04-22T09:43:49Z</time>
      </trkpt>
      <trkpt lat="30.777013041079044" lon="-4.156386964023113">
        <ele>653.60000000000002</ele>
        <time>2011-04-22T10:05:18Z</time>
      </trkpt>
      <trkpt lat="30.777107002213597" lon="-4.156340025365353">
        <ele>653.70000000000005</ele>
        <time>2011-04-22T10:05:21Z</time>
      </trkpt>
      <trkpt lat="30.777195012196898" lon="-4.156242962926626">
        <ele>654</ele>
        <time>2011-04-22T10:05:24Z</time>
      </trkpt>
      <trkpt lat="30.777387041598558" lon="-4.156032996252179">
        <ele>654.60000000000002</ele>
        <time>2011-04-22T10:05:30Z</time>
      </trkpt>
      <trkpt lat="30.777555014938116" lon="-4.155888995155692">
        <ele>655.20000000000005</ele>
        <time>2011-04-22T10:05:35Z</time>
      </trkpt>
      <trkpt lat="30.777839999645948" lon="-4.155494961887598">
        <ele>655.79999999999995</ele>
        <time>2011-04-22T10:05:45Z</time>
      </trkpt>
      <trkpt lat="30.777957011014223" lon="-4.15538901463151">
        <ele>656</ele>
        <time>2011-04-22T10:05:49Z</time>
      </trkpt>
      <trkpt lat="30.778161026537418" lon="-4.155077962204814">
        <ele>656.29999999999995</ele>
        <time>2011-04-22T10:05:57Z</time>
      </trkpt>
      <trkpt lat="30.778205031529069" lon="-4.154980983585119">
        <ele>656.20000000000005</ele>
        <time>2011-04-22T10:06:00Z</time>
      </trkpt>
      <trkpt lat="30.778305027633905" lon="-4.154827008023858">
        <ele>656.29999999999995</ele>
        <time>2011-04-22T10:06:05Z</time>
      </trkpt>
      <trkpt lat="30.778382979333401" lon="-4.154746038839221">
        <ele>656.39999999999998</ele>
        <time>2011-04-22T10:06:08Z</time>
      </trkpt>
      <trkpt lat="30.778456991538405" lon="-4.154641013592482">
        <ele>656.70000000000005</ele>
        <time>2011-04-22T10:06:14Z</time>
      </trkpt>
      <trkpt lat="30.778542989864945" lon="-4.154489971697331">
        <ele>657</ele>
        <time>2011-04-22T10:06:21Z</time>
      </trkpt>
      <trkpt lat="30.778623037040234" lon="-4.154418976977468">
        <ele>656.89999999999998</ele>
        <time>2011-04-22T10:06:25Z</time>
      </trkpt>
      <trkpt lat="30.778710963204503" lon="-4.154255026951432">
        <ele>656.79999999999995</ele>
        <time>2011-04-22T10:06:31Z</time>
      </trkpt>
      <trkpt lat="30.778935011476278" lon="-4.154006000608206">
        <ele>656.39999999999998</ele>
        <time>2011-04-22T10:06:41Z</time>
      </trkpt>
      <trkpt lat="30.779013969004154" lon="-4.153898041695356">
        <ele>656.29999999999995</ele>
        <time>2011-04-22T10:06:45Z</time>
      </trkpt>
      <trkpt lat="30.779097033664584" lon="-4.153808020055294">
        <ele>656.29999999999995</ele>
        <time>2011-04-22T10:06:49Z</time>
      </trkpt>
      <trkpt lat="30.779184959828854" lon="-4.153678016737104">
        <ele>656.5</ele>
        <time>2011-04-22T10:06:54Z</time>
      </trkpt>
      <trkpt lat="30.779272969812155" lon="-4.153615990653634">
        <ele>656.39999999999998</ele>
        <time>2011-04-22T10:06:57Z</time>
      </trkpt>
      <trkpt lat="30.779366008937359" lon="-4.153557987883687">
        <ele>656.29999999999995</ele>
        <time>2011-04-22T10:07:00Z</time>
      </trkpt>
      <trkpt lat="30.779468016698956" lon="-4.153448017314076">
        <ele>656.5</ele>
        <time>2011-04-22T10:07:04Z</time>
      </trkpt>
      <trkpt lat="30.779576981440187" lon="-4.153288006782532">
        <ele>656.60000000000002</ele>
        <time>2011-04-22T10:07:11Z</time>
      </trkpt>
      <trkpt lat="30.779668008908629" lon="-4.153183987364173">
        <ele>656.5</ele>
        <time>2011-04-22T10:07:16Z</time>
      </trkpt>
      <trkpt lat="30.779864983633161" lon="-4.152892967686057">
        <ele>656.89999999999998</ele>
        <time>2011-04-22T10:07:27Z</time>
      </trkpt>
      <trkpt lat="30.780000016093254" lon="-4.152880981564522">
        <ele>657.39999999999998</ele>
        <time>2011-04-22T10:07:32Z</time>
      </trkpt>
      <trkpt lat="30.780101018026471" lon="-4.152836976572871">
        <ele>657.60000000000002</ele>
        <time>2011-04-22T10:07:37Z</time>
      </trkpt>
      <trkpt lat="30.780236972495914" lon="-4.152700016275048">
        <ele>658.20000000000005</ele>
        <time>2011-04-22T10:07:46Z</time>
      </trkpt>
      <trkpt lat="30.780416009947658" lon="-4.152661040425301">
        <ele>658.60000000000002</ele>
        <time>2011-04-22T10:07:56Z</time>
      </trkpt>
      <trkpt lat="30.78050603158772" lon="-4.152612006291747">
        <ele>659</ele>
        <time>2011-04-22T10:08:02Z</time>
      </trkpt>
      <trkpt lat="30.780497984960675" lon="-4.152506981045008">
        <ele>659.29999999999995</ele>
        <time>2011-04-22T10:08:08Z</time>
      </trkpt>
      <trkpt lat="30.780441993847489" lon="-4.152420982718468">
        <ele>658.70000000000005</ele>
        <time>2011-04-22T10:08:19Z</time>
      </trkpt>
      <trkpt lat="30.78042296692729" lon="-4.152220990508795">
        <ele>658.20000000000005</ele>
        <time>2011-04-22T10:08:41Z</time>
      </trkpt>
      <trkpt lat="30.780408969148993" lon="-4.152114037424326">
        <ele>659</ele>
        <time>2011-04-22T10:08:54Z</time>
      </trkpt>
      <trkpt lat="30.780453979969025" lon="-4.152018986642361">
        <ele>658.60000000000002</ele>
        <time>2011-04-22T10:09:07Z</time>
      </trkpt>
      <trkpt lat="30.780531009659171" lon="-4.151965007185936">
        <ele>658.39999999999998</ele>
        <time>2011-04-22T10:09:13Z</time>
      </trkpt>
      <trkpt lat="30.780493039637804" lon="-4.151811031624675">
        <ele>658.79999999999995</ele>
        <time>2011-04-22T10:09:52Z</time>
      </trkpt>
      <trkpt lat="30.780490022152662" lon="-4.151684967800975">
        <ele>658.70000000000005</ele>
        <time>2011-04-22T10:10:00Z</time>
      </trkpt>
      <trkpt lat="30.780546013265848" lon="-4.151545995846391">
        <ele>659</ele>
        <time>2011-04-22T10:10:09Z</time>
      </trkpt>
      <trkpt lat="30.780483987182379" lon="-4.151356983929873">
        <ele>659.39999999999998</ele>
        <time>2011-04-22T10:10:24Z</time>
      </trkpt>
      <trkpt lat="30.780521035194397" lon="-4.151231003925204">
        <ele>659.60000000000002</ele>
        <time>2011-04-22T10:10:44Z</time>
      </trkpt>
      <trkpt lat="30.780680039897561" lon="-4.151108041405678">
        <ele>659.60000000000002</ele>
        <time>2011-04-22T10:10:57Z</time>
      </trkpt>
      <trkpt lat="30.780771989375353" lon="-4.151016008108854">
        <ele>659.39999999999998</ele>
        <time>2011-04-22T10:11:01Z</time>
      </trkpt>
      <trkpt lat="30.781076001003385" lon="-4.150809980928898">
        <ele>657.70000000000005</ele>
        <time>2011-04-22T10:11:11Z</time>
      </trkpt>
      <trkpt lat="30.781139032915235" lon="-4.150734040886164">
        <ele>657.10000000000002</ele>
        <time>2011-04-22T10:11:24Z</time>
      </trkpt>
      <trkpt lat="30.781126040965319" lon="-4.15061904117465">
        <ele>655.5</ele>
        <time>2011-04-22T10:11:33Z</time>
      </trkpt>
      <trkpt lat="30.781043982133269" lon="-4.150518039241433">
        <ele>654</ele>
        <time>2011-04-22T10:11:39Z</time>
      </trkpt>
      <trkpt lat="30.780978016555309" lon="-4.150644019246101">
        <ele>645.89999999999998</ele>
        <time>2011-04-22T10:16:22Z</time>
      </trkpt>
      <trkpt lat="30.780847007408738" lon="-4.150748960673809">
        <ele>644.89999999999998</ele>
        <time>2011-04-22T10:16:28Z</time>
      </trkpt>
      <trkpt lat="30.780791016295552" lon="-4.150831019505858">
        <ele>644.29999999999995</ele>
        <time>2011-04-22T10:16:32Z</time>
      </trkpt>
      <trkpt lat="30.780664030462503" lon="-4.150940990075469">
        <ele>644.60000000000002</ele>
        <time>2011-04-22T10:16:38Z</time>
      </trkpt>
      <trkpt lat="30.780604016035795" lon="-4.151038974523544">
        <ele>644.20000000000005</ele>
        <time>2011-04-22T10:16:43Z</time>
      </trkpt>
      <trkpt lat="30.780524974688888" lon="-4.151090020313859">
        <ele>644.10000000000002</ele>
        <time>2011-04-22T10:16:49Z</time>
      </trkpt>
      <trkpt lat="30.780430007725954" lon="-4.151059007272124">
        <ele>644.20000000000005</ele>
        <time>2011-04-22T10:16:54Z</time>
      </trkpt>
      <trkpt lat="30.780337974429131" lon="-4.15109496563673">
        <ele>644.10000000000002</ele>
        <time>2011-04-22T10:16:58Z</time>
      </trkpt>
      <trkpt lat="30.780251976102591" lon="-4.151147017255426">
        <ele>643.89999999999998</ele>
        <time>2011-04-22T10:17:04Z</time>
      </trkpt>
      <trkpt lat="30.780194979161024" lon="-4.151260005310178">
        <ele>642.70000000000005</ele>
        <time>2011-04-22T10:17:12Z</time>
      </trkpt>
      <trkpt lat="30.780117027461529" lon="-4.151327982544899">
        <ele>642.10000000000002</ele>
        <time>2011-04-22T10:17:16Z</time>
      </trkpt>
      <trkpt lat="30.78001300804317" lon="-4.151352038607001">
        <ele>642.29999999999995</ele>
        <time>2011-04-22T10:17:19Z</time>
      </trkpt>
      <trkpt lat="30.779630960896611" lon="-4.151624031364918">
        <ele>641.39999999999998</ele>
        <time>2011-04-22T10:17:29Z</time>
      </trkpt>
      <trkpt lat="30.779529958963394" lon="-4.151669964194298">
        <ele>641</ele>
        <time>2011-04-22T10:17:33Z</time>
      </trkpt>
      <trkpt lat="30.77941101975739" lon="-4.1516940202564">
        <ele>641.39999999999998</ele>
        <time>2011-04-22T10:17:37Z</time>
      </trkpt>
      <trkpt lat="30.779170962050557" lon="-4.15175898000598">
        <ele>641.60000000000002</ele>
        <time>2011-04-22T10:17:43Z</time>
      </trkpt>
      <trkpt lat="30.779069038107991" lon="-4.152030972763896">
        <ele>639.60000000000002</ele>
        <time>2011-04-22T10:18:09Z</time>
      </trkpt>
      <trkpt lat="30.778992008417845" lon="-4.152129041031003">
        <ele>639.20000000000005</ele>
        <time>2011-04-22T10:18:19Z</time>
      </trkpt>
      <trkpt lat="30.778944985941052" lon="-4.152479991316795">
        <ele>638.29999999999995</ele>
        <time>2011-04-22T10:19:04Z</time>
      </trkpt>
      <trkpt lat="30.778906010091305" lon="-4.152577975764871">
        <ele>638.20000000000005</ele>
        <time>2011-04-22T10:19:06Z</time>
      </trkpt>
      <trkpt lat="30.778778018429875" lon="-4.152820967137814">
        <ele>638.10000000000002</ele>
        <time>2011-04-22T10:19:13Z</time>
      </trkpt>
      <trkpt lat="30.778730995953083" lon="-4.152936972677708">
        <ele>637.79999999999995</ele>
        <time>2011-04-22T10:19:18Z</time>
      </trkpt>
      <trkpt lat="30.77863996848464" lon="-4.152977038174868">
        <ele>638.39999999999998</ele>
        <time>2011-04-22T10:19:28Z</time>
      </trkpt>
      <trkpt lat="30.778754968196154" lon="-4.152992963790894">
        <ele>645.29999999999995</ele>
        <time>2011-04-22T10:23:03Z</time>
      </trkpt>
      <trkpt lat="30.778843984007835" lon="-4.15296396240592">
        <ele>647.39999999999998</ele>
        <time>2011-04-22T10:23:08Z</time>
      </trkpt>
      <trkpt lat="30.778881032019854" lon="-4.152862038463354">
        <ele>651.29999999999995</ele>
        <time>2011-04-22T10:23:20Z</time>
      </trkpt>
      <trkpt lat="30.778748011216521" lon="-4.152862038463354">
        <ele>648.70000000000005</ele>
        <time>2011-04-22T10:23:33Z</time>
      </trkpt>
      <trkpt lat="30.778655977919698" lon="-4.152772016823292">
        <ele>643.20000000000005</ele>
        <time>2011-04-22T10:24:10Z</time>
      </trkpt>
      <trkpt lat="30.778670981526375" lon="-4.152235994115472">
        <ele>649.29999999999995</ele>
        <time>2011-04-22T10:26:25Z</time>
      </trkpt>
      <trkpt lat="30.778692020103335" lon="-4.152073971927166">
        <ele>649.20000000000005</ele>
        <time>2011-04-22T10:26:28Z</time>
      </trkpt>
      <trkpt lat="30.77874499373138" lon="-4.151941034942865">
        <ele>649</ele>
        <time>2011-04-22T10:26:31Z</time>
      </trkpt>
      <trkpt lat="30.77898102812469" lon="-4.151542978361249">
        <ele>648.39999999999998</ele>
        <time>2011-04-22T10:26:42Z</time>
      </trkpt>
      <trkpt lat="30.779055962339044" lon="-4.151464020833373">
        <ele>648.79999999999995</ele>
        <time>2011-04-22T10:26:45Z</time>
      </trkpt>
      <trkpt lat="30.779333990067244" lon="-4.15135002695024">
        <ele>648.29999999999995</ele>
        <time>2011-04-22T10:26:57Z</time>
      </trkpt>
      <trkpt lat="30.779716959223151" lon="-4.151294035837054">
        <ele>647.70000000000005</ele>
        <time>2011-04-22T10:27:13Z</time>
      </trkpt>
      <trkpt lat="30.779848974198103" lon="-4.15124299004674">
        <ele>648.10000000000002</ele>
        <time>2011-04-22T10:27:19Z</time>
      </trkpt>
      <trkpt lat="30.779932960867882" lon="-4.151191022247076">
        <ele>643.79999999999995</ele>
        <time>2011-04-22T10:27:59Z</time>
      </trkpt>
      <trkpt lat="30.780023988336325" lon="-4.151111980900168">
        <ele>643</ele>
        <time>2011-04-22T10:28:02Z</time>
      </trkpt>
      <trkpt lat="30.780238984152675" lon="-4.150887010619044">
        <ele>642.60000000000002</ele>
        <time>2011-04-22T10:28:08Z</time>
      </trkpt>
      <trkpt lat="30.780300004407763" lon="-4.150807969272137">
        <ele>642.79999999999995</ele>
        <time>2011-04-22T10:28:10Z</time>
      </trkpt>
      <trkpt lat="30.780424978584051" lon="-4.150639995932579">
        <ele>643.29999999999995</ele>
        <time>2011-04-22T10:28:15Z</time>
      </trkpt>
      <trkpt lat="30.780768971890211" lon="-4.150379989296198">
        <ele>641.79999999999995</ele>
        <time>2011-04-22T10:28:26Z</time>
      </trkpt>
      <trkpt lat="30.780855976045132" lon="-4.150344030931592">
        <ele>641.60000000000002</ele>
        <time>2011-04-22T10:28:28Z</time>
      </trkpt>
      <trkpt lat="30.781089998781681" lon="-4.150279993191361">
        <ele>642.5</ele>
        <time>2011-04-22T10:28:33Z</time>
      </trkpt>
      <trkpt lat="30.781170967966318" lon="-4.150230037048459">
        <ele>642.10000000000002</ele>
        <time>2011-04-22T10:28:35Z</time>
      </trkpt>
      <trkpt lat="30.781269958242774" lon="-4.150133980438113">
        <ele>641.70000000000005</ele>
        <time>2011-04-22T10:28:38Z</time>
      </trkpt>
      <trkpt lat="30.781430974602699" lon="-4.149857964366674">
        <ele>640.10000000000002</ele>
        <time>2011-04-22T10:28:44Z</time>
      </trkpt>
      <trkpt lat="30.781529964879155" lon="-4.149639029055834">
        <ele>639.29999999999995</ele>
        <time>2011-04-22T10:28:48Z</time>
      </trkpt>
      <trkpt lat="30.781587967649102" lon="-4.149454962462187">
        <ele>638.70000000000005</ele>
        <time>2011-04-22T10:28:51Z</time>
      </trkpt>
      <trkpt lat="30.781615041196346" lon="-4.149239966645837">
        <ele>638.20000000000005</ele>
        <time>2011-04-22T10:28:55Z</time>
      </trkpt>
      <trkpt lat="30.781615963205695" lon="-4.149134019389749">
        <ele>638.10000000000002</ele>
        <time>2011-04-22T10:28:58Z</time>
      </trkpt>
      <trkpt lat="30.781640019267797" lon="-4.149005021899939">
        <ele>637.89999999999998</ele>
        <time>2011-04-22T10:29:03Z</time>
      </trkpt>
      <trkpt lat="30.781762981787324" lon="-4.148702016100287">
        <ele>637.70000000000005</ele>
        <time>2011-04-22T10:29:16Z</time>
      </trkpt>
      <trkpt lat="30.781821990385652" lon="-4.148464975878596">
        <ele>637</ele>
        <time>2011-04-22T10:29:21Z</time>
      </trkpt>
      <trkpt lat="30.781867001205683" lon="-4.148362968116999">
        <ele>637.10000000000002</ele>
        <time>2011-04-22T10:29:23Z</time>
      </trkpt>
      <trkpt lat="30.781964985653758" lon="-4.148216033354402">
        <ele>637</ele>
        <time>2011-04-22T10:29:26Z</time>
      </trkpt>
      <trkpt lat="30.782218035310507" lon="-4.147911015897989">
        <ele>636.39999999999998</ele>
        <time>2011-04-22T10:29:32Z</time>
      </trkpt>
      <trkpt lat="30.782566973939538" lon="-4.147517988458276">
        <ele>635.5</ele>
        <time>2011-04-22T10:29:40Z</time>
      </trkpt>
      <trkpt lat="30.782662024721503" lon="-4.147430984303355">
        <ele>635.39999999999998</ele>
        <time>2011-04-22T10:29:42Z</time>
      </trkpt>
      <trkpt lat="30.78289101831615" lon="-4.147306010127068">
        <ele>635</ele>
        <time>2011-04-22T10:29:46Z</time>
      </trkpt>
      <trkpt lat="30.783313969150186" lon="-4.147108029574156">
        <ele>635.39999999999998</ele>
        <time>2011-04-22T10:29:55Z</time>
      </trkpt>
      <trkpt lat="30.78342704102397" lon="-4.147080034017563">
        <ele>636.20000000000005</ele>
        <time>2011-04-22T10:29:58Z</time>
      </trkpt>
      <trkpt lat="30.783548997715116" lon="-4.147052960470319">
        <ele>637.5</ele>
        <time>2011-04-22T10:30:01Z</time>
      </trkpt>
      <trkpt lat="30.783869018778205" lon="-4.146900996565819">
        <ele>638.70000000000005</ele>
        <time>2011-04-22T10:30:08Z</time>
      </trkpt>
      <trkpt lat="30.783950993791223" lon="-4.146849028766155">
        <ele>639.10000000000002</ele>
        <time>2011-04-22T10:30:10Z</time>
      </trkpt>
      <trkpt lat="30.784024000167847" lon="-4.146778034046292">
        <ele>639.39999999999998</ele>
        <time>2011-04-22T10:30:12Z</time>
      </trkpt>
      <trkpt lat="30.784203037619591" lon="-4.146536970511079">
        <ele>639.79999999999995</ele>
        <time>2011-04-22T10:30:18Z</time>
      </trkpt>
      <trkpt lat="30.784307979047298" lon="-4.146448960527778">
        <ele>640.10000000000002</ele>
        <time>2011-04-22T10:30:21Z</time>
      </trkpt>
      <trkpt lat="30.784422978758812" lon="-4.146382994949818">
        <ele>640.29999999999995</ele>
        <time>2011-04-22T10:30:24Z</time>
      </trkpt>
      <trkpt lat="30.784523980692029" lon="-4.146368997171521">
        <ele>640.60000000000002</ele>
        <time>2011-04-22T10:30:27Z</time>
      </trkpt>
      <trkpt lat="30.784620959311724" lon="-4.146397998556495">
        <ele>642</ele>
        <time>2011-04-22T10:30:36Z</time>
      </trkpt>
      <trkpt lat="30.784770995378494" lon="-4.146478967741132">
        <ele>652.39999999999998</ele>
        <time>2011-04-22T10:32:12Z</time>
      </trkpt>
      <trkpt lat="30.78482698649168" lon="-4.146563038229942">
        <ele>651.79999999999995</ele>
        <time>2011-04-22T10:32:31Z</time>
      </trkpt>
      <trkpt lat="30.784606961533427" lon="-4.146535964682698">
        <ele>699.20000000000005</ele>
        <time>2011-04-22T10:37:05Z</time>
      </trkpt>
      <trkpt lat="30.784811982885003" lon="-4.146683989092708">
        <ele>701.20000000000005</ele>
        <time>2011-04-22T10:45:00Z</time>
      </trkpt>
      <trkpt lat="30.784908961504698" lon="-4.146708967164159">
        <ele>701.89999999999998</ele>
        <time>2011-04-22T10:45:04Z</time>
      </trkpt>
      <trkpt lat="30.785419000312686" lon="-4.146517021581531">
        <ele>699.89999999999998</ele>
        <time>2011-04-22T10:45:19Z</time>
      </trkpt>
      <trkpt lat="30.785724017769098" lon="-4.146381989121437">
        <ele>698.79999999999995</ele>
        <time>2011-04-22T10:45:27Z</time>
      </trkpt>
      <trkpt lat="30.785958040505648" lon="-4.146252991631627">
        <ele>699.79999999999995</ele>
        <time>2011-04-22T10:45:33Z</time>
      </trkpt>
      <trkpt lat="30.786573020741343" lon="-4.146077977493405">
        <ele>699</ele>
        <time>2011-04-22T10:45:46Z</time>
      </trkpt>
      <trkpt lat="30.786718027666211" lon="-4.146058028563857">
        <ele>699.60000000000002</ele>
        <time>2011-04-22T10:45:50Z</time>
      </trkpt>
      <trkpt lat="30.786835039034486" lon="-4.145858036354184">
        <ele>698.60000000000002</ele>
        <time>2011-04-22T10:45:56Z</time>
      </trkpt>
      <trkpt lat="30.786921959370375" lon="-4.145758040249348">
        <ele>698</ele>
        <time>2011-04-22T10:45:59Z</time>
      </trkpt>
      <trkpt lat="30.787042994052172" lon="-4.145732978358865">
        <ele>698.39999999999998</ele>
        <time>2011-04-22T10:46:02Z</time>
      </trkpt>
      <trkpt lat="30.787257989868522" lon="-4.145753011107445">
        <ele>699.10000000000002</ele>
        <time>2011-04-22T10:46:07Z</time>
      </trkpt>
      <trkpt lat="30.787430992349982" lon="-4.145739013329148">
        <ele>699.20000000000005</ele>
        <time>2011-04-22T10:46:11Z</time>
      </trkpt>
      <trkpt lat="30.787557978183031" lon="-4.145772960036993">
        <ele>698.89999999999998</ele>
        <time>2011-04-22T10:46:14Z</time>
      </trkpt>
      <trkpt lat="30.787741960957646" lon="-4.145915033295751">
        <ele>698.89999999999998</ele>
        <time>2011-04-22T10:46:19Z</time>
      </trkpt>
      <trkpt lat="30.787859978154302" lon="-4.145960966125131">
        <ele>699</ele>
        <time>2011-04-22T10:46:22Z</time>
      </trkpt>
      <trkpt lat="30.787981012836099" lon="-4.145990973338485">
        <ele>699.10000000000002</ele>
        <time>2011-04-22T10:46:25Z</time>
      </trkpt>
      <trkpt lat="30.788215035572648" lon="-4.146189037710428">
        <ele>699.5</ele>
        <time>2011-04-22T10:46:33Z</time>
      </trkpt>
      <trkpt lat="30.788431959226727" lon="-4.14638701826334">
        <ele>698.79999999999995</ele>
        <time>2011-04-22T10:46:39Z</time>
      </trkpt>
      <trkpt lat="30.788536984473467" lon="-4.146445021033287">
        <ele>698.39999999999998</ele>
        <time>2011-04-22T10:46:42Z</time>
      </trkpt>
      <trkpt lat="30.788635974749923" lon="-4.146466981619597">
        <ele>698</ele>
        <time>2011-04-22T10:46:45Z</time>
      </trkpt>
      <trkpt lat="30.788739994168282" lon="-4.146464969962835">
        <ele>697.79999999999995</ele>
        <time>2011-04-22T10:46:48Z</time>
      </trkpt>
      <trkpt lat="30.788880977779627" lon="-4.146462958306074">
        <ele>698.79999999999995</ele>
        <time>2011-04-22T10:46:52Z</time>
      </trkpt>
      <trkpt lat="30.789007963612676" lon="-4.146478967741132">
        <ele>699.10000000000002</ele>
        <time>2011-04-22T10:46:55Z</time>
      </trkpt>
      <trkpt lat="30.789140984416008" lon="-4.146459018811584">
        <ele>699.5</ele>
        <time>2011-04-22T10:46:58Z</time>
      </trkpt>
      <trkpt lat="30.789734004065394" lon="-4.146310994401574">
        <ele>699.5</ele>
        <time>2011-04-22T10:47:10Z</time>
      </trkpt>
      <trkpt lat="30.790048995986581" lon="-4.146179985255003">
        <ele>699.70000000000005</ele>
        <time>2011-04-22T10:47:16Z</time>
      </trkpt>
      <trkpt lat="30.790221998468041" lon="-4.146121982485056">
        <ele>700.10000000000002</ele>
        <time>2011-04-22T10:47:19Z</time>
      </trkpt>
      <trkpt lat="30.790637992322445" lon="-4.145911009982228">
        <ele>701</ele>
        <time>2011-04-22T10:47:26Z</time>
      </trkpt>
      <trkpt lat="30.790802026167512" lon="-4.145839009433985">
        <ele>701.5</ele>
        <time>2011-04-22T10:47:29Z</time>
      </trkpt>
      <trkpt lat="30.79094803892076" lon="-4.145723003894091">
        <ele>701.39999999999998</ele>
        <time>2011-04-22T10:47:33Z</time>
      </trkpt>
      <trkpt lat="30.791080975905061" lon="-4.145700037479401">
        <ele>701.29999999999995</ele>
        <time>2011-04-22T10:47:36Z</time>
      </trkpt>
      <trkpt lat="30.791250038892031" lon="-4.145715041086078">
        <ele>701</ele>
        <time>2011-04-22T10:47:39Z</time>
      </trkpt>
      <trkpt lat="30.791426980867982" lon="-4.145709006115794">
        <ele>700.89999999999998</ele>
        <time>2011-04-22T10:47:42Z</time>
      </trkpt>
      <trkpt lat="30.79159596003592" lon="-4.14572099223733">
        <ele>701.29999999999995</ele>
        <time>2011-04-22T10:47:45Z</time>
      </trkpt>
      <trkpt lat="30.791699979454279" lon="-4.14574102498591">
        <ele>701.10000000000002</ele>
        <time>2011-04-22T10:47:47Z</time>
      </trkpt>
      <trkpt lat="30.791799975559115" lon="-4.145782012492418">
        <ele>701.29999999999995</ele>
        <time>2011-04-22T10:47:49Z</time>
      </trkpt>
      <trkpt lat="30.791944982483983" lon="-4.14587002247572">
        <ele>701.20000000000005</ele>
        <time>2011-04-22T10:47:52Z</time>
      </trkpt>
      <trkpt lat="30.792032992467284" lon="-4.145939005538821">
        <ele>701.10000000000002</ele>
        <time>2011-04-22T10:47:54Z</time>
      </trkpt>
      <trkpt lat="30.792148998007178" lon="-4.146049981936812">
        <ele>701</ele>
        <time>2011-04-22T10:47:57Z</time>
      </trkpt>
      <trkpt lat="30.792265003547072" lon="-4.146077977493405">
        <ele>700.60000000000002</ele>
        <time>2011-04-22T10:48:00Z</time>
      </trkpt>
      <trkpt lat="30.792366005480289" lon="-4.146059034392238">
        <ele>700.70000000000005</ele>
        <time>2011-04-22T10:48:02Z</time>
      </trkpt>
      <trkpt lat="30.792780993506312" lon="-4.145884020254016">
        <ele>701.39999999999998</ele>
        <time>2011-04-22T10:48:10Z</time>
      </trkpt>
      <trkpt lat="30.792900016531348" lon="-4.145858036354184">
        <ele>701.60000000000002</ele>
        <time>2011-04-22T10:48:12Z</time>
      </trkpt>
      <trkpt lat="30.793154994025826" lon="-4.145821994170547">
        <ele>701.5</ele>
        <time>2011-04-22T10:48:16Z</time>
      </trkpt>
      <trkpt lat="30.793460011482239" lon="-4.145702971145511">
        <ele>701.39999999999998</ele>
        <time>2011-04-22T10:48:21Z</time>
      </trkpt>
      <trkpt lat="30.793562019243836" lon="-4.145686039701104">
        <ele>701.5</ele>
        <time>2011-04-22T10:48:23Z</time>
      </trkpt>
      <trkpt lat="30.793723035603762" lon="-4.145697019994259">
        <ele>701.39999999999998</ele>
        <time>2011-04-22T10:48:26Z</time>
      </trkpt>
      <trkpt lat="30.793836023658514" lon="-4.145724009722471">
        <ele>701.20000000000005</ele>
        <time>2011-04-22T10:48:28Z</time>
      </trkpt>
      <trkpt lat="30.793951023370028" lon="-4.145766003057361">
        <ele>701.10000000000002</ele>
        <time>2011-04-22T10:48:30Z</time>
      </trkpt>
      <trkpt lat="30.79442803747952" lon="-4.145943028852344">
        <ele>701.29999999999995</ele>
        <time>2011-04-22T10:48:38Z</time>
      </trkpt>
      <trkpt lat="30.794563991948962" lon="-4.145956020802259">
        <ele>701.20000000000005</ele>
        <time>2011-04-22T10:48:40Z</time>
      </trkpt>
      <trkpt lat="30.794698018580675" lon="-4.145953003317118">
        <ele>701.29999999999995</ele>
        <time>2011-04-22T10:48:42Z</time>
      </trkpt>
      <trkpt lat="30.794825004413724" lon="-4.145933976396918">
        <ele>701.10000000000002</ele>
        <time>2011-04-22T10:48:44Z</time>
      </trkpt>
      <trkpt lat="30.79494796693325" lon="-4.145901035517454">
        <ele>701.10000000000002</ele>
        <time>2011-04-22T10:48:46Z</time>
      </trkpt>
      <trkpt lat="30.795060032978654" lon="-4.145853007212281">
        <ele>701</ele>
        <time>2011-04-22T10:48:48Z</time>
      </trkpt>
      <trkpt lat="30.795148964971304" lon="-4.145787041634321">
        <ele>700.79999999999995</ele>
        <time>2011-04-22T10:48:50Z</time>
      </trkpt>
      <trkpt lat="30.795234963297844" lon="-4.145691990852356">
        <ele>700.39999999999998</ele>
        <time>2011-04-22T10:48:53Z</time>
      </trkpt>
      <trkpt lat="30.795319033786654" lon="-4.145608004182577">
        <ele>700.5</ele>
        <time>2011-04-22T10:48:57Z</time>
      </trkpt>
      <trkpt lat="30.795423975214362" lon="-4.145521000027657">
        <ele>700.70000000000005</ele>
        <time>2011-04-22T10:49:02Z</time>
      </trkpt>
      <trkpt lat="30.795576022937894" lon="-4.145448999479413">
        <ele>700.79999999999995</ele>
        <time>2011-04-22T10:49:07Z</time>
      </trkpt>
      <trkpt lat="30.795681970193982" lon="-4.145366018638015">
        <ele>700.5</ele>
        <time>2011-04-22T10:49:11Z</time>
      </trkpt>
      <trkpt lat="30.795996962115169" lon="-4.145197039470077">
        <ele>705.60000000000002</ele>
        <time>2011-04-22T10:49:53Z</time>
      </trkpt>
      <trkpt lat="30.796098969876766" lon="-4.145151022821665">
        <ele>706.10000000000002</ele>
        <time>2011-04-22T10:49:57Z</time>
      </trkpt>
      <trkpt lat="30.796167030930519" lon="-4.145078016445041">
        <ele>706.10000000000002</ele>
        <time>2011-04-22T10:50:00Z</time>
      </trkpt>
      <trkpt lat="30.79619200900197" lon="-4.14497097954154">
        <ele>705</ele>
        <time>2011-04-22T10:50:03Z</time>
      </trkpt>
      <trkpt lat="30.796187985688448" lon="-4.144705021753907">
        <ele>702.29999999999995</ele>
        <time>2011-04-22T10:50:09Z</time>
      </trkpt>
      <trkpt lat="30.796223022043705" lon="-4.144567977637053">
        <ele>700.70000000000005</ele>
        <time>2011-04-22T10:50:12Z</time>
      </trkpt>
      <trkpt lat="30.796289993450046" lon="-4.144459012895823">
        <ele>700</ele>
        <time>2011-04-22T10:50:15Z</time>
      </trkpt>
      <trkpt lat="30.796399964019656" lon="-4.14441098459065">
        <ele>700.10000000000002</ele>
        <time>2011-04-22T10:50:18Z</time>
      </trkpt>
      <trkpt lat="30.796490991488099" lon="-4.144406039267778">
        <ele>700.20000000000005</ele>
        <time>2011-04-22T10:50:20Z</time>
      </trkpt>
      <trkpt lat="30.796703975647688" lon="-4.144433028995991">
        <ele>700.60000000000002</ele>
        <time>2011-04-22T10:50:24Z</time>
      </trkpt>
      <trkpt lat="30.797112006694078" lon="-4.144527995958924">
        <ele>701.5</ele>
        <time>2011-04-22T10:50:31Z</time>
      </trkpt>
      <trkpt lat="30.797489024698734" lon="-4.144639978185296">
        <ele>702.29999999999995</ele>
        <time>2011-04-22T10:50:37Z</time>
      </trkpt>
      <trkpt lat="30.797613998875022" lon="-4.14468901231885">
        <ele>702.79999999999995</ele>
        <time>2011-04-22T10:50:39Z</time>
      </trkpt>
      <trkpt lat="30.797732016071677" lon="-4.144751038402319">
        <ele>703</ele>
        <time>2011-04-22T10:50:41Z</time>
      </trkpt>
      <trkpt lat="30.79829796217382" lon="-4.145031999796629">
        <ele>703.89999999999998</ele>
        <time>2011-04-22T10:50:50Z</time>
      </trkpt>
      <trkpt lat="30.799622973427176" lon="-4.145945040509105">
        <ele>703</ele>
        <time>2011-04-22T10:51:09Z</time>
      </trkpt>
      <trkpt lat="30.799745013937354" lon="-4.145992984995246">
        <ele>702.89999999999998</ele>
        <time>2011-04-22T10:51:11Z</time>
      </trkpt>
      <trkpt lat="30.800306014716625" lon="-4.146049981936812">
        <ele>703.20000000000005</ele>
        <time>2011-04-22T10:51:19Z</time>
      </trkpt>
      <trkpt lat="30.800546994432807" lon="-4.146130029112101">
        <ele>703.29999999999995</ele>
        <time>2011-04-22T10:51:23Z</time>
      </trkpt>
      <trkpt lat="30.800679009407759" lon="-4.146132040768862">
        <ele>703.29999999999995</ele>
        <time>2011-04-22T10:51:25Z</time>
      </trkpt>
      <trkpt lat="30.800814963877201" lon="-4.146119970828295">
        <ele>703.29999999999995</ele>
        <time>2011-04-22T10:51:27Z</time>
      </trkpt>
      <trkpt lat="30.800948990508914" lon="-4.146135980263352">
        <ele>703.29999999999995</ele>
        <time>2011-04-22T10:51:29Z</time>
      </trkpt>
      <trkpt lat="30.801206985488534" lon="-4.146223990246654">
        <ele>703.79999999999995</ele>
        <time>2011-04-22T10:51:33Z</time>
      </trkpt>
      <trkpt lat="30.80139297991991" lon="-4.146307976916432">
        <ele>704</ele>
        <time>2011-04-22T10:51:36Z</time>
      </trkpt>
      <trkpt lat="30.801848033443093" lon="-4.146611988544464">
        <ele>703.29999999999995</ele>
        <time>2011-04-22T10:51:43Z</time>
      </trkpt>
      <trkpt lat="30.802900968119502" lon="-4.147273991256952">
        <ele>702.79999999999995</ele>
        <time>2011-04-22T10:51:58Z</time>
      </trkpt>
      <trkpt lat="30.803054021671414" lon="-4.147340040653944">
        <ele>702.79999999999995</ele>
        <time>2011-04-22T10:52:00Z</time>
      </trkpt>
      <trkpt lat="30.803451994433999" lon="-4.147486975416541">
        <ele>703.29999999999995</ele>
        <time>2011-04-22T10:52:05Z</time>
      </trkpt>
      <trkpt lat="30.803730022162199" lon="-4.14765402674675">
        <ele>703.39999999999998</ele>
        <time>2011-04-22T10:52:09Z</time>
      </trkpt>
      <trkpt lat="30.803827000781894" lon="-4.147754022851586">
        <ele>703.5</ele>
        <time>2011-04-22T10:52:11Z</time>
      </trkpt>
      <trkpt lat="30.803914004936814" lon="-4.147864999249578">
        <ele>703.20000000000005</ele>
        <time>2011-04-22T10:52:13Z</time>
      </trkpt>
      <trkpt lat="30.80422698520124" lon="-4.148156018927693">
        <ele>702.39999999999998</ele>
        <time>2011-04-22T10:52:19Z</time>
      </trkpt>
      <trkpt lat="30.804343996569514" lon="-4.148217039182782">
        <ele>702.20000000000005</ele>
        <time>2011-04-22T10:52:21Z</time>
      </trkpt>
      <trkpt lat="30.804602997377515" lon="-4.148295996710658">
        <ele>702.10000000000002</ele>
        <time>2011-04-22T10:52:25Z</time>
      </trkpt>
      <trkpt lat="30.805381005629897" lon="-4.148461958393455">
        <ele>702.89999999999998</ele>
        <time>2011-04-22T10:52:36Z</time>
      </trkpt>
      <trkpt lat="30.805516038089991" lon="-4.148466987535358">
        <ele>703</ele>
        <time>2011-04-22T10:52:38Z</time>
      </trkpt>
      <trkpt lat="30.805637994781137" lon="-4.148447038605809">
        <ele>703.10000000000002</ele>
        <time>2011-04-22T10:52:40Z</time>
      </trkpt>
      <trkpt lat="30.805737990885973" lon="-4.148467993363738">
        <ele>703.20000000000005</ele>
        <time>2011-04-22T10:52:42Z</time>
      </trkpt>
      <trkpt lat="30.805846033617854" lon="-4.14849498309195">
        <ele>703.20000000000005</ele>
        <time>2011-04-22T10:52:44Z</time>
      </trkpt>
      <trkpt lat="30.806085001677275" lon="-4.148511998355389">
        <ele>703.5</ele>
        <time>2011-04-22T10:52:48Z</time>
      </trkpt>
      <trkpt lat="30.806192038580775" lon="-4.148509986698628">
        <ele>703.70000000000005</ele>
        <time>2011-04-22T10:52:50Z</time>
      </trkpt>
      <trkpt lat="30.806413991376758" lon="-4.148489031940699">
        <ele>704</ele>
        <time>2011-04-22T10:52:54Z</time>
      </trkpt>
      <trkpt lat="30.806804001331329" lon="-4.148381995037198">
        <ele>704.60000000000002</ele>
        <time>2011-04-22T10:53:01Z</time>
      </trkpt>
      <trkpt lat="30.806924030184746" lon="-4.148373026400805">
        <ele>704.70000000000005</ele>
        <time>2011-04-22T10:53:03Z</time>
      </trkpt>
      <trkpt lat="30.807055039331317" lon="-4.148374032229185">
        <ele>704.79999999999995</ele>
        <time>2011-04-22T10:53:05Z</time>
      </trkpt>
      <trkpt lat="30.80719300545752" lon="-4.148376965895295">
        <ele>704.89999999999998</ele>
        <time>2011-04-22T10:53:07Z</time>
      </trkpt>
      <trkpt lat="30.807461980730295" lon="-4.14834201335907">
        <ele>705.10000000000002</ele>
        <time>2011-04-22T10:53:11Z</time>
      </trkpt>
      <trkpt lat="30.807587960734963" lon="-4.148345030844212">
        <ele>705.39999999999998</ele>
        <time>2011-04-22T10:53:13Z</time>
      </trkpt>
      <trkpt lat="30.807703966274858" lon="-4.148351987823844">
        <ele>705.39999999999998</ele>
        <time>2011-04-22T10:53:15Z</time>
      </trkpt>
      <trkpt lat="30.80805198289454" lon="-4.148263977840543">
        <ele>705.5</ele>
        <time>2011-04-22T10:53:21Z</time>
      </trkpt>
      <trkpt lat="30.808162037283182" lon="-4.148203963413835">
        <ele>705.29999999999995</ele>
        <time>2011-04-22T10:53:23Z</time>
      </trkpt>
      <trkpt lat="30.808252980932593" lon="-4.148099021986127">
        <ele>705.20000000000005</ele>
        <time>2011-04-22T10:53:25Z</time>
      </trkpt>
      <trkpt lat="30.808582976460457" lon="-4.147642040625215">
        <ele>705.5</ele>
        <time>2011-04-22T10:53:35Z</time>
      </trkpt>
      <trkpt lat="30.808627987280488" lon="-4.147545984014869">
        <ele>705.10000000000002</ele>
        <time>2011-04-22T10:53:37Z</time>
      </trkpt>
      <trkpt lat="30.808635028079152" lon="-4.147379016503692">
        <ele>703.70000000000005</ele>
        <time>2011-04-22T10:53:40Z</time>
      </trkpt>
      <trkpt lat="30.808677021414042" lon="-4.147235015407205">
        <ele>702.79999999999995</ele>
        <time>2011-04-22T10:53:43Z</time>
      </trkpt>
      <trkpt lat="30.808752961456776" lon="-4.147165026515722">
        <ele>703</ele>
        <time>2011-04-22T10:53:45Z</time>
      </trkpt>
      <trkpt lat="30.808853041380644" lon="-4.147104006260634">
        <ele>703.29999999999995</ele>
        <time>2011-04-22T10:53:47Z</time>
      </trkpt>
      <trkpt lat="30.809330977499485" lon="-4.146897979080677">
        <ele>704.29999999999995</ele>
        <time>2011-04-22T10:53:56Z</time>
      </trkpt>
      <trkpt lat="30.809440026059747" lon="-4.146877024322748">
        <ele>704.5</ele>
        <time>2011-04-22T10:53:58Z</time>
      </trkpt>
      <trkpt lat="30.809664996340871" lon="-4.146877024322748">
        <ele>705</ele>
        <time>2011-04-22T10:54:02Z</time>
      </trkpt>
      <trkpt lat="30.809783013537526" lon="-4.146890016272664">
        <ele>705.29999999999995</ele>
        <time>2011-04-22T10:54:04Z</time>
      </trkpt>
      <trkpt lat="30.810103034600616" lon="-4.146970985457301">
        <ele>705.39999999999998</ele>
        <time>2011-04-22T10:54:09Z</time>
      </trkpt>
      <trkpt lat="30.810368992388248" lon="-4.147038040682674">
        <ele>705.5</ele>
        <time>2011-04-22T10:54:13Z</time>
      </trkpt>
      <trkpt lat="30.811855020001531" lon="-4.147546989843249">
        <ele>705.29999999999995</ele>
        <time>2011-04-22T10:54:35Z</time>
      </trkpt>
      <trkpt lat="30.812041014432907" lon="-4.147641034796834">
        <ele>705.20000000000005</ele>
        <time>2011-04-22T10:54:38Z</time>
      </trkpt>
      <trkpt lat="30.812203958630562" lon="-4.147726027294993">
        <ele>705</ele>
        <time>2011-04-22T10:54:41Z</time>
      </trkpt>
      <trkpt lat="30.812450973317027" lon="-4.147766008973122">
        <ele>704.60000000000002</ele>
        <time>2011-04-22T10:54:45Z</time>
      </trkpt>
      <trkpt lat="30.812579970806837" lon="-4.147770032286644">
        <ele>704.70000000000005</ele>
        <time>2011-04-22T10:54:47Z</time>
      </trkpt>
      <trkpt lat="30.812772000208497" lon="-4.147749999538064">
        <ele>704.79999999999995</ele>
        <time>2011-04-22T10:54:50Z</time>
      </trkpt>
      <trkpt lat="30.812894040718675" lon="-4.147749999538064">
        <ele>704.60000000000002</ele>
        <time>2011-04-22T10:54:52Z</time>
      </trkpt>
      <trkpt lat="30.813046004623175" lon="-4.147767014801502">
        <ele>704.70000000000005</ele>
        <time>2011-04-22T10:54:55Z</time>
      </trkpt>
      <trkpt lat="30.813138959929347" lon="-4.147780006751418">
        <ele>704.60000000000002</ele>
        <time>2011-04-22T10:54:57Z</time>
      </trkpt>
      <trkpt lat="30.813247002661228" lon="-4.147770032286644">
        <ele>704.39999999999998</ele>
        <time>2011-04-22T10:54:59Z</time>
      </trkpt>
      <trkpt lat="30.813365019857883" lon="-4.147741030901671">
        <ele>704.29999999999995</ele>
        <time>2011-04-22T10:55:01Z</time>
      </trkpt>
      <trkpt lat="30.813632989302278" lon="-4.147652015089989">
        <ele>704.10000000000002</ele>
        <time>2011-04-22T10:55:06Z</time>
      </trkpt>
      <trkpt lat="30.813905987888575" lon="-4.147607004269958">
        <ele>704.29999999999995</ele>
        <time>2011-04-22T10:55:11Z</time>
      </trkpt>
      <trkpt lat="30.814010007306933" lon="-4.147565010935068">
        <ele>704.39999999999998</ele>
        <time>2011-04-22T10:55:13Z</time>
      </trkpt>
      <trkpt lat="30.814683996140957" lon="-4.147238032892346">
        <ele>705.20000000000005</ele>
        <time>2011-04-22T10:55:24Z</time>
      </trkpt>
      <trkpt lat="30.814807964488864" lon="-4.147200984880328">
        <ele>705.39999999999998</ele>
        <time>2011-04-22T10:55:26Z</time>
      </trkpt>
      <trkpt lat="30.814932016655803" lon="-4.14718396961689">
        <ele>705.60000000000002</ele>
        <time>2011-04-22T10:55:28Z</time>
      </trkpt>
      <trkpt lat="30.815053973346949" lon="-4.147192016243935">
        <ele>705.70000000000005</ele>
        <time>2011-04-22T10:55:30Z</time>
      </trkpt>
      <trkpt lat="30.815168973058462" lon="-4.147225962951779">
        <ele>705.5</ele>
        <time>2011-04-22T10:55:32Z</time>
      </trkpt>
      <trkpt lat="30.815276009961963" lon="-4.147291006520391">
        <ele>705.5</ele>
        <time>2011-04-22T10:55:34Z</time>
      </trkpt>
      <trkpt lat="30.815520007163286" lon="-4.147521005943418">
        <ele>705</ele>
        <time>2011-04-22T10:55:39Z</time>
      </trkpt>
      <trkpt lat="30.81599903292954" lon="-4.147800961509347">
        <ele>705.10000000000002</ele>
        <time>2011-04-22T10:55:47Z</time>
      </trkpt>
      <trkpt lat="30.816133981570601" lon="-4.147857036441565">
        <ele>705.29999999999995</ele>
        <time>2011-04-22T10:55:49Z</time>
      </trkpt>
      <trkpt lat="30.816349983215332" lon="-4.147885031998158">
        <ele>705.39999999999998</ele>
        <time>2011-04-22T10:55:52Z</time>
      </trkpt>
      <trkpt lat="30.817070994526148" lon="-4.147950997576118">
        <ele>705.39999999999998</ele>
        <time>2011-04-22T10:56:02Z</time>
      </trkpt>
      <trkpt lat="30.817823018878698" lon="-4.148059040307999">
        <ele>704.29999999999995</ele>
        <time>2011-04-22T10:56:14Z</time>
      </trkpt>
      <trkpt lat="30.81793500110507" lon="-4.14810698479414">
        <ele>704.10000000000002</ele>
        <time>2011-04-22T10:56:16Z</time>
      </trkpt>
      <trkpt lat="30.81834202632308" lon="-4.148405967280269">
        <ele>703.39999999999998</ele>
        <time>2011-04-22T10:56:24Z</time>
      </trkpt>
      <trkpt lat="30.818418972194195" lon="-4.148476962000132">
        <ele>703.29999999999995</ele>
        <time>2011-04-22T10:56:26Z</time>
      </trkpt>
      <trkpt lat="30.818502036854625" lon="-4.148566983640194">
        <ele>703.5</ele>
        <time>2011-04-22T10:56:29Z</time>
      </trkpt>
      <trkpt lat="30.818626005202532" lon="-4.148602019995451">
        <ele>703.70000000000005</ele>
        <time>2011-04-22T10:56:32Z</time>
      </trkpt>
      <trkpt lat="30.818908978253603" lon="-4.148568995296955">
        <ele>703.89999999999998</ele>
        <time>2011-04-22T10:56:38Z</time>
      </trkpt>
      <trkpt lat="30.819022972136736" lon="-4.148461958393455">
        <ele>703.79999999999995</ele>
        <time>2011-04-22T10:56:42Z</time>
      </trkpt>
      <trkpt lat="30.819111987948418" lon="-4.148413008078933">
        <ele>701.79999999999995</ele>
        <time>2011-04-22T10:56:44Z</time>
      </trkpt>
      <trkpt lat="30.819219024851918" lon="-4.148378977552056">
        <ele>699.89999999999998</ele>
        <time>2011-04-22T10:56:46Z</time>
      </trkpt>
      <trkpt lat="30.819452041760087" lon="-4.148340001702309">
        <ele>694.79999999999995</ele>
        <time>2011-04-22T10:56:50Z</time>
      </trkpt>
      <trkpt lat="30.819572992622852" lon="-4.148291973397136">
        <ele>692.89999999999998</ele>
        <time>2011-04-22T10:56:52Z</time>
      </trkpt>
      <trkpt lat="30.819855965673923" lon="-4.148168005049229">
        <ele>691</ele>
        <time>2011-04-22T10:56:57Z</time>
      </trkpt>
      <trkpt lat="30.819980017840862" lon="-4.148159958422184">
        <ele>690.39999999999998</ele>
        <time>2011-04-22T10:56:59Z</time>
      </trkpt>
      <trkpt lat="30.820112032815814" lon="-4.148179991170764">
        <ele>689.5</ele>
        <time>2011-04-22T10:57:01Z</time>
      </trkpt>
      <trkpt lat="30.820238012820482" lon="-4.148217961192131">
        <ele>687.60000000000002</ele>
        <time>2011-04-22T10:57:03Z</time>
      </trkpt>
      <trkpt lat="30.820357035845518" lon="-4.148268001154065">
        <ele>685.29999999999995</ele>
        <time>2011-04-22T10:57:05Z</time>
      </trkpt>
      <trkpt lat="30.820778980851173" lon="-4.148449972271919">
        <ele>678.79999999999995</ele>
        <time>2011-04-22T10:57:12Z</time>
      </trkpt>
      <trkpt lat="30.820891968905926" lon="-4.148478973656893">
        <ele>677.5</ele>
        <time>2011-04-22T10:57:14Z</time>
      </trkpt>
      <trkpt lat="30.821014009416103" lon="-4.148484002798796">
        <ele>676.20000000000005</ele>
        <time>2011-04-22T10:57:16Z</time>
      </trkpt>
      <trkpt lat="30.821292959153652" lon="-4.148445026949048">
        <ele>674</ele>
        <time>2011-04-22T10:57:21Z</time>
      </trkpt>
      <trkpt lat="30.821421034634113" lon="-4.148433040827513">
        <ele>672.60000000000002</ele>
        <time>2011-04-22T10:57:24Z</time>
      </trkpt>
      <trkpt lat="30.821514995768666" lon="-4.14845198392868">
        <ele>671.39999999999998</ele>
        <time>2011-04-22T10:57:26Z</time>
      </trkpt>
      <trkpt lat="30.821670982986689" lon="-4.148507975041866">
        <ele>669.70000000000005</ele>
        <time>2011-04-22T10:57:29Z</time>
      </trkpt>
      <trkpt lat="30.821775002405047" lon="-4.148513004183769">
        <ele>668.60000000000002</ele>
        <time>2011-04-22T10:57:31Z</time>
      </trkpt>
      <trkpt lat="30.821895031258464" lon="-4.148475034162402">
        <ele>668.60000000000002</ele>
        <time>2011-04-22T10:57:34Z</time>
      </trkpt>
      <trkpt lat="30.821984969079494" lon="-4.148474028334022">
        <ele>674.60000000000002</ele>
        <time>2011-04-22T10:57:37Z</time>
      </trkpt>
      <trkpt lat="30.822025034576654" lon="-4.148353999480605">
        <ele>677.60000000000002</ele>
        <time>2011-04-22T10:57:41Z</time>
      </trkpt>
      <trkpt lat="30.821987986564636" lon="-4.148219972848892">
        <ele>678.20000000000005</ele>
        <time>2011-04-22T10:57:44Z</time>
      </trkpt>
      <trkpt lat="30.821979017928243" lon="-4.148115031421185">
        <ele>679</ele>
        <time>2011-04-22T10:57:46Z</time>
      </trkpt>
      <trkpt lat="30.822026040405035" lon="-4.147983016446233">
        <ele>680.20000000000005</ele>
        <time>2011-04-22T10:57:49Z</time>
      </trkpt>
      <trkpt lat="30.822136010974646" lon="-4.147905986756086">
        <ele>683.79999999999995</ele>
        <time>2011-04-22T10:57:52Z</time>
      </trkpt>
      <trkpt lat="30.822258973494172" lon="-4.147860975936055">
        <ele>687.29999999999995</ele>
        <time>2011-04-22T10:57:55Z</time>
      </trkpt>
      <trkpt lat="30.822387970983982" lon="-4.147825017571449">
        <ele>689.60000000000002</ele>
        <time>2011-04-22T10:57:58Z</time>
      </trkpt>
      <trkpt lat="30.822481010109186" lon="-4.147818982601166">
        <ele>690.5</ele>
        <time>2011-04-22T10:58:00Z</time>
      </trkpt>
      <trkpt lat="30.8225769829005" lon="-4.147845972329378">
        <ele>691.70000000000005</ele>
        <time>2011-04-22T10:58:02Z</time>
      </trkpt>
      <trkpt lat="30.822761971503496" lon="-4.147943034768105">
        <ele>694.10000000000002</ele>
        <time>2011-04-22T10:58:06Z</time>
      </trkpt>
      <trkpt lat="30.823064977303147" lon="-4.147947980090976">
        <ele>695.5</ele>
        <time>2011-04-22T10:58:12Z</time>
      </trkpt>
      <trkpt lat="30.823167990893126" lon="-4.147943034768105">
        <ele>696.10000000000002</ele>
        <time>2011-04-22T10:58:14Z</time>
      </trkpt>
      <trkpt lat="30.823402013629675" lon="-4.147873967885971">
        <ele>697.60000000000002</ele>
        <time>2011-04-22T10:58:19Z</time>
      </trkpt>
      <trkpt lat="30.823654979467392" lon="-4.14778302423656">
        <ele>699.29999999999995</ele>
        <time>2011-04-22T10:58:24Z</time>
      </trkpt>
      <trkpt lat="30.823748018592596" lon="-4.147724015638232">
        <ele>699.79999999999995</ele>
        <time>2011-04-22T10:58:26Z</time>
      </trkpt>
      <trkpt lat="30.82382102496922" lon="-4.147639023140073">
        <ele>700</ele>
        <time>2011-04-22T10:58:28Z</time>
      </trkpt>
      <trkpt lat="30.823899982497096" lon="-4.147561993449926">
        <ele>699.89999999999998</ele>
        <time>2011-04-22T10:58:30Z</time>
      </trkpt>
      <trkpt lat="30.823990004137158" lon="-4.147507008165121">
        <ele>700.20000000000005</ele>
        <time>2011-04-22T10:58:32Z</time>
      </trkpt>
      <trkpt lat="30.824556034058332" lon="-4.147173995152116">
        <ele>703.20000000000005</ele>
        <time>2011-04-22T10:58:42Z</time>
      </trkpt>
      <trkpt lat="30.824836995452642" lon="-4.147070981562138">
        <ele>703.60000000000002</ele>
        <time>2011-04-22T10:58:47Z</time>
      </trkpt>
      <trkpt lat="30.82493900321424" lon="-4.147048015147448">
        <ele>703.70000000000005</ele>
        <time>2011-04-22T10:58:49Z</time>
      </trkpt>
      <trkpt lat="30.825287019833922" lon="-4.146998981013894">
        <ele>704.10000000000002</ele>
        <time>2011-04-22T10:58:58Z</time>
      </trkpt>
      <trkpt lat="30.825744001194835" lon="-4.146819021552801">
        <ele>705.5</ele>
        <time>2011-04-22T10:59:08Z</time>
      </trkpt>
      <trkpt lat="30.825840979814529" lon="-4.146807035431266">
        <ele>705.5</ele>
        <time>2011-04-22T10:59:10Z</time>
      </trkpt>
      <trkpt lat="30.825947010889649" lon="-4.146725982427597">
        <ele>705.39999999999998</ele>
        <time>2011-04-22T10:59:13Z</time>
      </trkpt>
      <trkpt lat="30.826005013659596" lon="-4.146644007414579">
        <ele>705.5</ele>
        <time>2011-04-22T10:59:15Z</time>
      </trkpt>
      <trkpt lat="30.826054969802499" lon="-4.146541999652982">
        <ele>705.5</ele>
        <time>2011-04-22T10:59:17Z</time>
      </trkpt>
      <trkpt lat="30.826145997270942" lon="-4.146295990794897">
        <ele>705.5</ele>
        <time>2011-04-22T10:59:21Z</time>
      </trkpt>
      <trkpt lat="30.826211962848902" lon="-4.146190965548158">
        <ele>705.89999999999998</ele>
        <time>2011-04-22T10:59:23Z</time>
      </trkpt>
      <trkpt lat="30.826287986710668" lon="-4.146098010241985">
        <ele>706</ele>
        <time>2011-04-22T10:59:25Z</time>
      </trkpt>
      <trkpt lat="30.826379014179111" lon="-4.146031960844994">
        <ele>706</ele>
        <time>2011-04-22T10:59:27Z</time>
      </trkpt>
      <trkpt lat="30.82648403942585" lon="-4.146012011915445">
        <ele>706.10000000000002</ele>
        <time>2011-04-22T10:59:29Z</time>
      </trkpt>
      <trkpt lat="30.826595015823841" lon="-4.146019974723458">
        <ele>706.20000000000005</ele>
        <time>2011-04-22T10:59:31Z</time>
      </trkpt>
      <trkpt lat="30.826810011640191" lon="-4.146075965836644">
        <ele>705.89999999999998</ele>
        <time>2011-04-22T10:59:35Z</time>
      </trkpt>
      <trkpt lat="30.827119974419475" lon="-4.146175039932132">
        <ele>706.10000000000002</ele>
        <time>2011-04-22T10:59:41Z</time>
      </trkpt>
      <trkpt lat="30.82721603102982" lon="-4.146165987476707">
        <ele>706.10000000000002</ele>
        <time>2011-04-22T10:59:43Z</time>
      </trkpt>
      <trkpt lat="30.827318038791418" lon="-4.146119970828295">
        <ele>706</ele>
        <time>2011-04-22T10:59:45Z</time>
      </trkpt>
      <trkpt lat="30.827417029067874" lon="-4.14604302495718">
        <ele>705.89999999999998</ele>
        <time>2011-04-22T10:59:47Z</time>
      </trkpt>
      <trkpt lat="30.827502021566033" lon="-4.145950991660357">
        <ele>705.79999999999995</ele>
        <time>2011-04-22T10:59:49Z</time>
      </trkpt>
      <trkpt lat="30.827660020440817" lon="-4.145756028592587">
        <ele>706.10000000000002</ele>
        <time>2011-04-22T10:59:53Z</time>
      </trkpt>
      <trkpt lat="30.827979035675526" lon="-4.145521000027657">
        <ele>706.5</ele>
        <time>2011-04-22T11:00:00Z</time>
      </trkpt>
      <trkpt lat="30.828074002638459" lon="-4.145466014742851">
        <ele>706.60000000000002</ele>
        <time>2011-04-22T11:00:02Z</time>
      </trkpt>
      <trkpt lat="30.828179027885199" lon="-4.145428966730833">
        <ele>706.60000000000002</ele>
        <time>2011-04-22T11:00:04Z</time>
      </trkpt>
      <trkpt lat="30.82829000428319" lon="-4.145406000316143">
        <ele>706.79999999999995</ele>
        <time>2011-04-22T11:00:06Z</time>
      </trkpt>
      <trkpt lat="30.828406009823084" lon="-4.14540097117424">
        <ele>706.89999999999998</ele>
        <time>2011-04-22T11:00:08Z</time>
      </trkpt>
      <trkpt lat="30.828796019777656" lon="-4.145417986437678">
        <ele>707.39999999999998</ele>
        <time>2011-04-22T11:00:15Z</time>
      </trkpt>
      <trkpt lat="30.828905990347266" lon="-4.14544397033751">
        <ele>707.39999999999998</ele>
        <time>2011-04-22T11:00:17Z</time>
      </trkpt>
      <trkpt lat="30.829007998108864" lon="-4.145491998642683">
        <ele>707.39999999999998</ele>
        <time>2011-04-22T11:00:19Z</time>
      </trkpt>
      <trkpt lat="30.829095002263784" lon="-4.145558970049024">
        <ele>707.89999999999998</ele>
        <time>2011-04-22T11:00:21Z</time>
      </trkpt>
      <trkpt lat="30.82921695895493" lon="-4.145672963932157">
        <ele>708.60000000000002</ele>
        <time>2011-04-22T11:00:24Z</time>
      </trkpt>
      <trkpt lat="30.829308992251754" lon="-4.145724009722471">
        <ele>708.5</ele>
        <time>2011-04-22T11:00:26Z</time>
      </trkpt>
      <trkpt lat="30.829581990838051" lon="-4.145840015262365">
        <ele>708.39999999999998</ele>
        <time>2011-04-22T11:00:32Z</time>
      </trkpt>
      <trkpt lat="30.829667989164591" lon="-4.145897012203932">
        <ele>708.5</ele>
        <time>2011-04-22T11:00:34Z</time>
      </trkpt>
      <trkpt lat="30.829874016344547" lon="-4.146054005250335">
        <ele>709.39999999999998</ele>
        <time>2011-04-22T11:00:39Z</time>
      </trkpt>
      <trkpt lat="30.830014999955893" lon="-4.146113013848662">
        <ele>709.39999999999998</ele>
        <time>2011-04-22T11:00:42Z</time>
      </trkpt>
      <trkpt lat="30.830359999090433" lon="-4.146208986639977">
        <ele>709.20000000000005</ele>
        <time>2011-04-22T11:00:49Z</time>
      </trkpt>
      <trkpt lat="30.830463012680411" lon="-4.146207980811596">
        <ele>709.10000000000002</ele>
        <time>2011-04-22T11:00:51Z</time>
      </trkpt>
      <trkpt lat="30.830687982961535" lon="-4.146087029948831">
        <ele>708.89999999999998</ele>
        <time>2011-04-22T11:00:56Z</time>
      </trkpt>
      <trkpt lat="30.830886969342828" lon="-4.146039001643658">
        <ele>708.79999999999995</ele>
        <time>2011-04-22T11:01:00Z</time>
      </trkpt>
      <trkpt lat="30.831052009016275" lon="-4.146023998036981">
        <ele>708.79999999999995</ele>
        <time>2011-04-22T11:01:04Z</time>
      </trkpt>
      <trkpt lat="30.831250995397568" lon="-4.146062973886728">
        <ele>708.5</ele>
        <time>2011-04-22T11:01:09Z</time>
      </trkpt>
      <trkpt lat="30.831358032301068" lon="-4.146095998585224">
        <ele>708.29999999999995</ele>
        <time>2011-04-22T11:01:12Z</time>
      </trkpt>
      <trkpt lat="30.831456016749144" lon="-4.146146960556507">
        <ele>708.20000000000005</ele>
        <time>2011-04-22T11:01:15Z</time>
      </trkpt>
      <trkpt lat="30.831537991762161" lon="-4.146235976368189">
        <ele>709.60000000000002</ele>
        <time>2011-04-22T11:01:18Z</time>
      </trkpt>
      <trkpt lat="30.831604963168502" lon="-4.146352987736464">
        <ele>710.10000000000002</ele>
        <time>2011-04-22T11:01:21Z</time>
      </trkpt>
      <trkpt lat="30.831682998687029" lon="-4.146414007991552">
        <ele>710.10000000000002</ele>
        <time>2011-04-22T11:01:23Z</time>
      </trkpt>
      <trkpt lat="30.831885002553463" lon="-4.146526996046305">
        <ele>710.10000000000002</ele>
        <time>2011-04-22T11:01:27Z</time>
      </trkpt>
      <trkpt lat="30.832249028608203" lon="-4.146677032113075">
        <ele>709.20000000000005</ele>
        <time>2011-04-22T11:01:34Z</time>
      </trkpt>
      <trkpt lat="30.832637026906013" lon="-4.146804017946124">
        <ele>708.10000000000002</ele>
        <time>2011-04-22T11:01:45Z</time>
      </trkpt>
      <trkpt lat="30.833016978576779" lon="-4.146819021552801">
        <ele>708</ele>
        <time>2011-04-22T11:01:53Z</time>
      </trkpt>
      <trkpt lat="30.83312401548028" lon="-4.146811980754137">
        <ele>707.89999999999998</ele>
        <time>2011-04-22T11:01:55Z</time>
      </trkpt>
      <trkpt lat="30.833531962707639" lon="-4.146693041548133">
        <ele>707.20000000000005</ele>
        <time>2011-04-22T11:02:02Z</time>
      </trkpt>
      <trkpt lat="30.833809990435839" lon="-4.146658005192876">
        <ele>706.79999999999995</ele>
        <time>2011-04-22T11:02:08Z</time>
      </trkpt>
      <trkpt lat="30.833937982097268" lon="-4.146663034334779">
        <ele>705.60000000000002</ele>
        <time>2011-04-22T11:02:12Z</time>
      </trkpt>
      <trkpt lat="30.83404803648591" lon="-4.146623974665999">
        <ele>705.5</ele>
        <time>2011-04-22T11:02:16Z</time>
      </trkpt>
      <trkpt lat="30.83413302898407" lon="-4.146590027958155">
        <ele>705.79999999999995</ele>
        <time>2011-04-22T11:02:21Z</time>
      </trkpt>
      <trkpt lat="30.834294967353344" lon="-4.146618023514748">
        <ele>705.79999999999995</ele>
        <time>2011-04-22T11:02:27Z</time>
      </trkpt>
      <trkpt lat="30.83443402312696" lon="-4.146665968000889">
        <ele>706.10000000000002</ele>
        <time>2011-04-22T11:02:31Z</time>
      </trkpt>
      <trkpt lat="30.834532007575035" lon="-4.146697986871004">
        <ele>706.39999999999998</ele>
        <time>2011-04-22T11:02:34Z</time>
      </trkpt>
      <trkpt lat="30.834647007286549" lon="-4.146682983264327">
        <ele>706.89999999999998</ele>
        <time>2011-04-22T11:02:38Z</time>
      </trkpt>
      <trkpt lat="30.83469302393496" lon="-4.146578963845968">
        <ele>706.70000000000005</ele>
        <time>2011-04-22T11:02:43Z</time>
      </trkpt>
      <trkpt lat="30.83469201810658" lon="-4.146432029083371">
        <ele>706</ele>
        <time>2011-04-22T11:02:47Z</time>
      </trkpt>
      <trkpt lat="30.834739040583372" lon="-4.146325998008251">
        <ele>705.89999999999998</ele>
        <time>2011-04-22T11:02:50Z</time>
      </trkpt>
      <trkpt lat="30.834836019203067" lon="-4.146252991631627">
        <ele>706.10000000000002</ele>
        <time>2011-04-22T11:02:53Z</time>
      </trkpt>
      <trkpt lat="30.834925035014749" lon="-4.146224996075034">
        <ele>706.29999999999995</ele>
        <time>2011-04-22T11:02:55Z</time>
      </trkpt>
      <trkpt lat="30.835014972835779" lon="-4.146236982196569">
        <ele>706.29999999999995</ele>
        <time>2011-04-22T11:02:57Z</time>
      </trkpt>
      <trkpt lat="30.835205996409059" lon="-4.146281993016601">
        <ele>706.39999999999998</ele>
        <time>2011-04-22T11:03:01Z</time>
      </trkpt>
      <trkpt lat="30.835296018049121" lon="-4.146329015493393">
        <ele>706.10000000000002</ele>
        <time>2011-04-22T11:03:03Z</time>
      </trkpt>
      <trkpt lat="30.83548603579402" lon="-4.146520039066672">
        <ele>705.39999999999998</ele>
        <time>2011-04-22T11:03:10Z</time>
      </trkpt>
      <trkpt lat="30.835563987493515" lon="-4.146636966615915">
        <ele>705.79999999999995</ele>
        <time>2011-04-22T11:03:14Z</time>
      </trkpt>
      <trkpt lat="30.835649985820055" lon="-4.146738974377513">
        <ele>706.10000000000002</ele>
        <time>2011-04-22T11:03:18Z</time>
      </trkpt>
      <trkpt lat="30.835823994129896" lon="-4.146734029054642">
        <ele>706.20000000000005</ele>
        <time>2011-04-22T11:03:29Z</time>
      </trkpt>
      <trkpt lat="30.835936982184649" lon="-4.146697986871004">
        <ele>706.5</ele>
        <time>2011-04-22T11:03:33Z</time>
      </trkpt>
      <trkpt lat="30.836143009364605" lon="-4.146696981042624">
        <ele>704.89999999999998</ele>
        <time>2011-04-22T11:05:40Z</time>
      </trkpt>
      <trkpt lat="30.836246022954583" lon="-4.146708967164159">
        <ele>704.5</ele>
        <time>2011-04-22T11:05:44Z</time>
      </trkpt>
      <trkpt lat="30.836352976039052" lon="-4.146740986034274">
        <ele>704.39999999999998</ele>
        <time>2011-04-22T11:05:48Z</time>
      </trkpt>
      <trkpt lat="30.836448026821017" lon="-4.146744003519416">
        <ele>704.89999999999998</ele>
        <time>2011-04-22T11:05:52Z</time>
      </trkpt>
      <trkpt lat="30.836621029302478" lon="-4.146712990477681">
        <ele>705.20000000000005</ele>
        <time>2011-04-22T11:05:58Z</time>
      </trkpt>
      <trkpt lat="30.836727982386947" lon="-4.146702010184526">
        <ele>704.60000000000002</ele>
        <time>2011-04-22T11:06:02Z</time>
      </trkpt>
      <trkpt lat="30.836879024282098" lon="-4.146621040999889">
        <ele>705.10000000000002</ele>
        <time>2011-04-22T11:06:07Z</time>
      </trkpt>
      <trkpt lat="30.836973991245031" lon="-4.146524984389544">
        <ele>705</ele>
        <time>2011-04-22T11:06:10Z</time>
      </trkpt>
      <trkpt lat="30.837181024253368" lon="-4.146264977753162">
        <ele>706</ele>
        <time>2011-04-22T11:06:17Z</time>
      </trkpt>
      <trkpt lat="30.837298035621643" lon="-4.146191971376538">
        <ele>706.29999999999995</ele>
        <time>2011-04-22T11:06:20Z</time>
      </trkpt>
      <trkpt lat="30.837393002584577" lon="-4.146171016618609">
        <ele>706.39999999999998</ele>
        <time>2011-04-22T11:06:22Z</time>
      </trkpt>
      <trkpt lat="30.837494004517794" lon="-4.146162969991565">
        <ele>706.5</ele>
        <time>2011-04-22T11:06:24Z</time>
      </trkpt>
      <trkpt lat="30.837596012279391" lon="-4.146180991083384">
        <ele>706.60000000000002</ele>
        <time>2011-04-22T11:06:26Z</time>
      </trkpt>
      <trkpt lat="30.838062968105078" lon="-4.146411996334791">
        <ele>707.29999999999995</ele>
        <time>2011-04-22T11:06:36Z</time>
      </trkpt>
      <trkpt lat="30.838265977799892" lon="-4.146550968289375">
        <ele>707.60000000000002</ele>
        <time>2011-04-22T11:06:44Z</time>
      </trkpt>
      <trkpt lat="30.838336972519755" lon="-4.146620035171509">
        <ele>707.60000000000002</ele>
        <time>2011-04-22T11:06:47Z</time>
      </trkpt>
      <trkpt lat="30.838425988331437" lon="-4.146687006577849">
        <ele>707.60000000000002</ele>
        <time>2011-04-22T11:06:52Z</time>
      </trkpt>
      <trkpt lat="30.83860301412642" lon="-4.146898984909058">
        <ele>710.89999999999998</ele>
        <time>2011-04-22T11:07:00Z</time>
      </trkpt>
      <trkpt lat="30.838716002181172" lon="-4.146985989063978">
        <ele>713.70000000000005</ele>
        <time>2011-04-22T11:07:08Z</time>
      </trkpt>
      <trkpt lat="30.838807029649615" lon="-4.147023959085345">
        <ele>713.39999999999998</ele>
        <time>2011-04-22T11:07:13Z</time>
      </trkpt>
      <trkpt lat="30.838971985504031" lon="-4.147033011540771">
        <ele>711.79999999999995</ele>
        <time>2011-04-22T11:07:21Z</time>
      </trkpt>
      <trkpt lat="30.839122021570802" lon="-4.146992024034262">
        <ele>709.70000000000005</ele>
        <time>2011-04-22T11:07:28Z</time>
      </trkpt>
      <trkpt lat="30.839413041248918" lon="-4.146881969645619">
        <ele>708.20000000000005</ele>
        <time>2011-04-22T11:07:37Z</time>
      </trkpt>
      <trkpt lat="30.839537009596825" lon="-4.146866966038942">
        <ele>708</ele>
        <time>2011-04-22T11:07:41Z</time>
      </trkpt>
      <trkpt lat="30.839632982388139" lon="-4.146884987130761">
        <ele>708</ele>
        <time>2011-04-22T11:07:47Z</time>
      </trkpt>
      <trkpt lat="30.839749993756413" lon="-4.146880963817239">
        <ele>710.10000000000002</ele>
        <time>2011-04-22T11:07:53Z</time>
      </trkpt>
      <trkpt lat="30.839846972376108" lon="-4.146884987130761">
        <ele>709.79999999999995</ele>
        <time>2011-04-22T11:07:57Z</time>
      </trkpt>
      <trkpt lat="30.839949985966086" lon="-4.146840982139111">
        <ele>709.60000000000002</ele>
        <time>2011-04-22T11:08:01Z</time>
      </trkpt>
      <trkpt lat="30.840027015656233" lon="-4.146759007126093">
        <ele>709.20000000000005</ele>
        <time>2011-04-22T11:08:05Z</time>
      </trkpt>
      <trkpt lat="30.840121982619166" lon="-4.146723970770836">
        <ele>708.79999999999995</ele>
        <time>2011-04-22T11:08:09Z</time>
      </trkpt>
      <trkpt lat="30.840229019522667" lon="-4.146719025447965">
        <ele>708.5</ele>
        <time>2011-04-22T11:08:13Z</time>
      </trkpt>
      <trkpt lat="30.840317029505968" lon="-4.146687006577849">
        <ele>708.29999999999995</ele>
        <time>2011-04-22T11:08:16Z</time>
      </trkpt>
      <trkpt lat="30.84040998481214" lon="-4.146641995757818">
        <ele>708.60000000000002</ele>
        <time>2011-04-22T11:08:19Z</time>
      </trkpt>
      <trkpt lat="30.840543005615473" lon="-4.146558009088039">
        <ele>708.79999999999995</ele>
        <time>2011-04-22T11:08:23Z</time>
      </trkpt>
      <trkpt lat="30.840616011992097" lon="-4.146488020196557">
        <ele>708.70000000000005</ele>
        <time>2011-04-22T11:08:26Z</time>
      </trkpt>
      <trkpt lat="30.84068801254034" lon="-4.146290039643645">
        <ele>708.70000000000005</ele>
        <time>2011-04-22T11:08:31Z</time>
      </trkpt>
      <trkpt lat="30.840684995055199" lon="-4.145933976396918">
        <ele>708.10000000000002</ele>
        <time>2011-04-22T11:08:38Z</time>
      </trkpt>
      <trkpt lat="30.840726988390088" lon="-4.145782012492418">
        <ele>708.10000000000002</ele>
        <time>2011-04-22T11:08:41Z</time>
      </trkpt>
      <trkpt lat="30.840719025582075" lon="-4.145642034709454">
        <ele>708</ele>
        <time>2011-04-22T11:08:44Z</time>
      </trkpt>
      <trkpt lat="30.840678960084915" lon="-4.145490992814302">
        <ele>707.70000000000005</ele>
        <time>2011-04-22T11:08:47Z</time>
      </trkpt>
      <trkpt lat="30.840668985620141" lon="-4.14537699893117">
        <ele>707.5</ele>
        <time>2011-04-22T11:08:49Z</time>
      </trkpt>
      <trkpt lat="30.840680971741676" lon="-4.145269962027669">
        <ele>707.29999999999995</ele>
        <time>2011-04-22T11:08:51Z</time>
      </trkpt>
      <trkpt lat="30.840718019753695" lon="-4.145173989236355">
        <ele>708.20000000000005</ele>
        <time>2011-04-22T11:08:53Z</time>
      </trkpt>
      <trkpt lat="30.840793959796429" lon="-4.14505697786808">
        <ele>708.20000000000005</ele>
        <time>2011-04-22T11:08:56Z</time>
      </trkpt>
      <trkpt lat="30.840880963951349" lon="-4.14497097954154">
        <ele>708.39999999999998</ele>
        <time>2011-04-22T11:08:59Z</time>
      </trkpt>
      <trkpt lat="30.840980038046837" lon="-4.144930997863412">
        <ele>708.20000000000005</ele>
        <time>2011-04-22T11:09:02Z</time>
      </trkpt>
      <trkpt lat="30.841086991131306" lon="-4.144932003691793">
        <ele>709</ele>
        <time>2011-04-22T11:09:07Z</time>
      </trkpt>
      <trkpt lat="30.841187993064523" lon="-4.144890010356903">
        <ele>708.70000000000005</ele>
        <time>2011-04-22T11:09:11Z</time>
      </trkpt>
      <trkpt lat="30.841257981956005" lon="-4.144804012030363">
        <ele>709.10000000000002</ele>
        <time>2011-04-22T11:09:15Z</time>
      </trkpt>
      <trkpt lat="30.841303998604417" lon="-4.144710972905159">
        <ele>709.20000000000005</ele>
        <time>2011-04-22T11:09:19Z</time>
      </trkpt>
      <trkpt lat="30.841391002759337" lon="-4.144678032025695">
        <ele>709.39999999999998</ele>
        <time>2011-04-22T11:09:23Z</time>
      </trkpt>
      <trkpt lat="30.841440036892891" lon="-4.144558003172278">
        <ele>708.89999999999998</ele>
        <time>2011-04-22T11:09:27Z</time>
      </trkpt>
      <trkpt lat="30.841451017186046" lon="-4.144380977377296">
        <ele>709.10000000000002</ele>
        <time>2011-04-22T11:09:31Z</time>
      </trkpt>
      <trkpt lat="30.841494016349316" lon="-4.144266983494163">
        <ele>709.20000000000005</ele>
        <time>2011-04-22T11:09:34Z</time>
      </trkpt>
      <trkpt lat="30.841572973877192" lon="-4.14419699460268">
        <ele>709.60000000000002</ele>
        <time>2011-04-22T11:09:37Z</time>
      </trkpt>
      <trkpt lat="30.841627037152648" lon="-4.144074032083154">
        <ele>710</ele>
        <time>2011-04-22T11:09:40Z</time>
      </trkpt>
      <trkpt lat="30.841729966923594" lon="-4.143634987995029">
        <ele>710.89999999999998</ele>
        <time>2011-04-22T11:09:50Z</time>
      </trkpt>
      <trkpt lat="30.841787969693542" lon="-4.14353197440505">
        <ele>711.29999999999995</ele>
        <time>2011-04-22T11:09:53Z</time>
      </trkpt>
      <trkpt lat="30.842102961614728" lon="-4.143123021349311">
        <ele>710.10000000000002</ele>
        <time>2011-04-22T11:10:03Z</time>
      </trkpt>
      <trkpt lat="30.84264300763607" lon="-4.142532013356686">
        <ele>711.10000000000002</ele>
        <time>2011-04-22T11:10:15Z</time>
      </trkpt>
      <trkpt lat="30.842778040096164" lon="-4.142360016703606">
        <ele>710.29999999999995</ele>
        <time>2011-04-22T11:10:19Z</time>
      </trkpt>
      <trkpt lat="30.84285800345242" lon="-4.142276030033827">
        <ele>710.29999999999995</ele>
        <time>2011-04-22T11:10:22Z</time>
      </trkpt>
      <trkpt lat="30.842889016494155" lon="-4.142172010615468">
        <ele>710.79999999999995</ele>
        <time>2011-04-22T11:10:26Z</time>
      </trkpt>
      <trkpt lat="30.843113986775279" lon="-4.142150972038508">
        <ele>711.39999999999998</ele>
        <time>2011-04-22T11:10:37Z</time>
      </trkpt>
      <trkpt lat="30.843439036980271" lon="-4.142249962314963">
        <ele>710.70000000000005</ele>
        <time>2011-04-22T11:10:46Z</time>
      </trkpt>
      <trkpt lat="30.843688985332847" lon="-4.142352975904942">
        <ele>710.10000000000002</ele>
        <time>2011-04-22T11:10:53Z</time>
      </trkpt>
      <trkpt lat="30.843784958124161" lon="-4.142401004210115">
        <ele>710</ele>
        <time>2011-04-22T11:10:56Z</time>
      </trkpt>
      <trkpt lat="30.843914039433002" lon="-4.142424976453185">
        <ele>709.29999999999995</ele>
        <time>2011-04-22T11:11:00Z</time>
      </trkpt>
      <trkpt lat="30.844004983082414" lon="-4.142411984503269">
        <ele>709.10000000000002</ele>
        <time>2011-04-22T11:11:03Z</time>
      </trkpt>
      <trkpt lat="30.84412400610745" lon="-4.142364962026477">
        <ele>709.10000000000002</ele>
        <time>2011-04-22T11:11:07Z</time>
      </trkpt>
      <trkpt lat="30.844231965020299" lon="-4.142378037795425">
        <ele>709.29999999999995</ele>
        <time>2011-04-22T11:11:10Z</time>
      </trkpt>
      <trkpt lat="30.844385018572211" lon="-4.142418019473553">
        <ele>711.39999999999998</ele>
        <time>2011-04-22T11:11:25Z</time>
      </trkpt>
      <trkpt lat="30.844532959163189" lon="-4.14239102974534">
        <ele>716.10000000000002</ele>
        <time>2011-04-22T11:11:32Z</time>
      </trkpt>
      <trkpt lat="30.844619041308761" lon="-4.142353981733322">
        <ele>715.79999999999995</ele>
        <time>2011-04-22T11:11:37Z</time>
      </trkpt>
      <trkpt lat="30.844711996614933" lon="-4.14235096424818">
        <ele>714.60000000000002</ele>
        <time>2011-04-22T11:11:46Z</time>
      </trkpt>
      <trkpt lat="30.844887010753155" lon="-4.142341995611787">
        <ele>713.5</ele>
        <time>2011-04-22T11:11:52Z</time>
      </trkpt>
      <trkpt lat="30.844976026564837" lon="-4.142301008105278">
        <ele>712.89999999999998</ele>
        <time>2011-04-22T11:11:56Z</time>
      </trkpt>
      <trkpt lat="30.845065964385867" lon="-4.142214003950357">
        <ele>712.79999999999995</ele>
        <time>2011-04-22T11:12:00Z</time>
      </trkpt>
      <trkpt lat="30.845205020159483" lon="-4.142143009230495">
        <ele>712.29999999999995</ele>
        <time>2011-04-22T11:12:05Z</time>
      </trkpt>
      <trkpt lat="30.845277020707726" lon="-4.142065979540348">
        <ele>712.60000000000002</ele>
        <time>2011-04-22T11:12:08Z</time>
      </trkpt>
      <trkpt lat="30.845320019870996" lon="-4.141969000920653">
        <ele>713.10000000000002</ele>
        <time>2011-04-22T11:12:12Z</time>
      </trkpt>
      <trkpt lat="30.845541972666979" lon="-4.14181200787425">
        <ele>713.70000000000005</ele>
        <time>2011-04-22T11:12:22Z</time>
      </trkpt>
      <trkpt lat="30.845611039549112" lon="-4.141729027032852">
        <ele>713.79999999999995</ele>
        <time>2011-04-22T11:12:26Z</time>
      </trkpt>
      <trkpt lat="30.845717992633581" lon="-4.141678987070918">
        <ele>713.10000000000002</ele>
        <time>2011-04-22T11:12:30Z</time>
      </trkpt>
      <trkpt lat="30.845795022323728" lon="-4.141620984300971">
        <ele>713.10000000000002</ele>
        <time>2011-04-22T11:12:33Z</time>
      </trkpt>
      <trkpt lat="30.845878003165126" lon="-4.14151101373136">
        <ele>712.89999999999998</ele>
        <time>2011-04-22T11:12:37Z</time>
      </trkpt>
      <trkpt lat="30.845932988449931" lon="-4.14140397682786">
        <ele>713.10000000000002</ele>
        <time>2011-04-22T11:12:41Z</time>
      </trkpt>
      <trkpt lat="30.845997026190162" lon="-4.141323007643223">
        <ele>712.89999999999998</ele>
        <time>2011-04-22T11:12:44Z</time>
      </trkpt>
      <trkpt lat="30.846223002299666" lon="-4.141097031533718">
        <ele>712.60000000000002</ele>
        <time>2011-04-22T11:12:53Z</time>
      </trkpt>
      <trkpt lat="30.846304977312684" lon="-4.14101698435843">
        <ele>712.70000000000005</ele>
        <time>2011-04-22T11:12:56Z</time>
      </trkpt>
      <trkpt lat="30.846378989517689" lon="-4.140938026830554">
        <ele>712.39999999999998</ele>
        <time>2011-04-22T11:13:00Z</time>
      </trkpt>
      <trkpt lat="30.846483008936048" lon="-4.140862002968788">
        <ele>712.89999999999998</ele>
        <time>2011-04-22T11:13:04Z</time>
      </trkpt>
      <trkpt lat="30.846560038626194" lon="-4.140780027955771">
        <ele>712.79999999999995</ele>
        <time>2011-04-22T11:13:07Z</time>
      </trkpt>
      <trkpt lat="30.846674032509327" lon="-4.140689000487328">
        <ele>713.10000000000002</ele>
        <time>2011-04-22T11:13:11Z</time>
      </trkpt>
      <trkpt lat="30.846739998087287" lon="-4.140609037131071">
        <ele>713</ele>
        <time>2011-04-22T11:13:15Z</time>
      </trkpt>
      <trkpt lat="30.84687796421349" lon="-4.1404780279845">
        <ele>713</ele>
        <time>2011-04-22T11:13:24Z</time>
      </trkpt>
      <trkpt lat="30.846876036375761" lon="-4.140365961939097">
        <ele>712.89999999999998</ele>
        <time>2011-04-22T11:13:29Z</time>
      </trkpt>
      <trkpt lat="30.846945019438863" lon="-4.140235036611557">
        <ele>712.89999999999998</ele>
        <time>2011-04-22T11:13:34Z</time>
      </trkpt>
      <trkpt lat="30.846954993903637" lon="-4.140066979452968">
        <ele>713.10000000000002</ele>
        <time>2011-04-22T11:13:40Z</time>
      </trkpt>
      <trkpt lat="30.846991958096623" lon="-4.13996203802526">
        <ele>712.89999999999998</ele>
        <time>2011-04-22T11:13:44Z</time>
      </trkpt>
      <trkpt lat="30.847077034413815" lon="-4.139853995293379">
        <ele>711.70000000000005</ele>
        <time>2011-04-22T11:13:48Z</time>
      </trkpt>
      <trkpt lat="30.847153980284929" lon="-4.139799010008574">
        <ele>711.20000000000005</ele>
        <time>2011-04-22T11:13:51Z</time>
      </trkpt>
      <trkpt lat="30.84724199026823" lon="-4.139741007238627">
        <ele>711.5</ele>
        <time>2011-04-22T11:13:55Z</time>
      </trkpt>
      <trkpt lat="30.847362019121647" lon="-4.139415035024285">
        <ele>713.89999999999998</ele>
        <time>2011-04-22T11:14:11Z</time>
      </trkpt>
      <trkpt lat="30.847417004406452" lon="-4.139251001179218">
        <ele>714.29999999999995</ele>
        <time>2011-04-22T11:14:17Z</time>
      </trkpt>
      <trkpt lat="30.847509959712625" lon="-4.139079004526138">
        <ele>715.39999999999998</ele>
        <time>2011-04-22T11:14:24Z</time>
      </trkpt>
      <trkpt lat="30.847582966089249" lon="-4.138998035341501">
        <ele>715.10000000000002</ele>
        <time>2011-04-22T11:14:30Z</time>
      </trkpt>
      <trkpt lat="30.847593024373055" lon="-4.138839030638337">
        <ele>713.39999999999998</ele>
        <time>2011-04-22T11:14:39Z</time>
      </trkpt>
      <trkpt lat="30.847630994394422" lon="-4.138722019270062">
        <ele>713.29999999999995</ele>
        <time>2011-04-22T11:14:43Z</time>
      </trkpt>
      <trkpt lat="30.847635017707944" lon="-4.138614982366562">
        <ele>713</ele>
        <time>2011-04-22T11:14:47Z</time>
      </trkpt>
      <trkpt lat="30.84760601632297" lon="-4.138493025675416">
        <ele>712.29999999999995</ele>
        <time>2011-04-22T11:14:51Z</time>
      </trkpt>
      <trkpt lat="30.847579026594758" lon="-4.138367967680097">
        <ele>712</ele>
        <time>2011-04-22T11:14:56Z</time>
      </trkpt>
      <trkpt lat="30.847594030201435" lon="-4.138261014595628">
        <ele>712</ele>
        <time>2011-04-22T11:15:00Z</time>
      </trkpt>
      <trkpt lat="30.847553964704275" lon="-4.138146014884114">
        <ele>711.79999999999995</ele>
        <time>2011-04-22T11:15:06Z</time>
      </trkpt>
      <trkpt lat="30.847453968599439" lon="-4.138027997687459">
        <ele>711.79999999999995</ele>
        <time>2011-04-22T11:15:12Z</time>
      </trkpt>
      <trkpt lat="30.847328994423151" lon="-4.137862036004663">
        <ele>702.70000000000005</ele>
        <time>2011-04-22T11:19:12Z</time>
      </trkpt>
      <trkpt lat="30.847299993038177" lon="-4.137756004929543">
        <ele>703.70000000000005</ele>
        <time>2011-04-22T11:19:19Z</time>
      </trkpt>
      <trkpt lat="30.84721801802516" lon="-4.137632958590984">
        <ele>704.20000000000005</ele>
        <time>2011-04-22T11:19:28Z</time>
      </trkpt>
      <trkpt lat="30.847145011648536" lon="-4.137461967766285">
        <ele>704.89999999999998</ele>
        <time>2011-04-22T11:19:42Z</time>
      </trkpt>
      <trkpt lat="30.847164038568735" lon="-4.137358032166958">
        <ele>707.5</ele>
        <time>2011-04-22T11:19:55Z</time>
      </trkpt>
      <trkpt lat="30.84708902053535" lon="-4.137163991108537">
        <ele>707.60000000000002</ele>
        <time>2011-04-22T11:20:04Z</time>
      </trkpt>
      <trkpt lat="30.847084997221828" lon="-4.137028958648443">
        <ele>707.39999999999998</ele>
        <time>2011-04-22T11:20:11Z</time>
      </trkpt>
      <trkpt lat="30.847118021920323" lon="-4.136928040534258">
        <ele>707.60000000000002</ele>
        <time>2011-04-22T11:20:17Z</time>
      </trkpt>
      <trkpt lat="30.847107041627169" lon="-4.136775992810726">
        <ele>708.60000000000002</ele>
        <time>2011-04-22T11:20:24Z</time>
      </trkpt>
      <trkpt lat="30.847139982506633" lon="-4.136667028069496">
        <ele>709.39999999999998</ele>
        <time>2011-04-22T11:20:28Z</time>
      </trkpt>
      <trkpt lat="30.84721801802516" lon="-4.13659100420773">
        <ele>709.89999999999998</ele>
        <time>2011-04-22T11:20:33Z</time>
      </trkpt>
      <trkpt lat="30.847311979159713" lon="-4.136555967852473">
        <ele>709.89999999999998</ele>
        <time>2011-04-22T11:20:38Z</time>
      </trkpt>
      <trkpt lat="30.847409963607788" lon="-4.136552028357983">
        <ele>710.20000000000005</ele>
        <time>2011-04-22T11:20:43Z</time>
      </trkpt>
      <trkpt lat="30.847586989402771" lon="-4.136467035859823">
        <ele>702.39999999999998</ele>
        <time>2011-04-22T11:20:53Z</time>
      </trkpt>
      <trkpt lat="30.847688997164369" lon="-4.136472987011075">
        <ele>697.70000000000005</ele>
        <time>2011-04-22T11:20:57Z</time>
      </trkpt>
      <trkpt lat="30.847784969955683" lon="-4.136473992839456">
        <ele>694</ele>
        <time>2011-04-22T11:21:01Z</time>
      </trkpt>
      <trkpt lat="30.847860993817449" lon="-4.136410960927606">
        <ele>689.29999999999995</ele>
        <time>2011-04-22T11:21:04Z</time>
      </trkpt>
      <trkpt lat="30.847925031557679" lon="-4.136336026713252">
        <ele>683.89999999999998</ele>
        <time>2011-04-22T11:21:08Z</time>
      </trkpt>
      <trkpt lat="30.847986973822117" lon="-4.13624600507319">
        <ele>680</ele>
        <time>2011-04-22T11:21:13Z</time>
      </trkpt>
      <trkpt lat="30.848129969090223" lon="-4.136019023135305">
        <ele>649.39999999999998</ele>
        <time>2011-04-22T11:23:32Z</time>
      </trkpt>
      <trkpt lat="30.848134998232126" lon="-4.135893965139985">
        <ele>655.70000000000005</ele>
        <time>2011-04-22T11:23:36Z</time>
      </trkpt>
      <trkpt lat="30.848087975755334" lon="-4.135786006227136">
        <ele>658.39999999999998</ele>
        <time>2011-04-22T11:23:39Z</time>
      </trkpt>
      <trkpt lat="30.848028967157006" lon="-4.13568701595068">
        <ele>660</ele>
        <time>2011-04-22T11:23:42Z</time>
      </trkpt>
      <trkpt lat="30.847896030172706" lon="-4.135547038167715">
        <ele>662.20000000000005</ele>
        <time>2011-04-22T11:23:47Z</time>
      </trkpt>
      <trkpt lat="30.847828974947333" lon="-4.135435977950692">
        <ele>663.20000000000005</ele>
        <time>2011-04-22T11:23:50Z</time>
      </trkpt>
      <trkpt lat="30.847789999097586" lon="-4.135296000167728">
        <ele>664</ele>
        <time>2011-04-22T11:23:53Z</time>
      </trkpt>
      <trkpt lat="30.847782036289573" lon="-4.135139007121325">
        <ele>664.5</ele>
        <time>2011-04-22T11:23:56Z</time>
      </trkpt>
      <trkpt lat="30.847803996875882" lon="-4.134975979104638">
        <ele>664.5</ele>
        <time>2011-04-22T11:23:59Z</time>
      </trkpt>
      <trkpt lat="30.847904998809099" lon="-4.134536013007164">
        <ele>665.29999999999995</ele>
        <time>2011-04-22T11:24:08Z</time>
      </trkpt>
      <trkpt lat="30.84797297604382" lon="-4.134339038282633">
        <ele>664.89999999999998</ele>
        <time>2011-04-22T11:24:12Z</time>
      </trkpt>
      <trkpt lat="30.847986973822117" lon="-4.13422797806561">
        <ele>664.79999999999995</ele>
        <time>2011-04-22T11:24:14Z</time>
      </trkpt>
      <trkpt lat="30.847986973822117" lon="-4.134083976969123">
        <ele>666.10000000000002</ele>
        <time>2011-04-22T11:24:17Z</time>
      </trkpt>
      <trkpt lat="30.847943974658847" lon="-4.13396998308599">
        <ele>667.5</ele>
        <time>2011-04-22T11:24:20Z</time>
      </trkpt>
      <trkpt lat="30.847852025181055" lon="-4.133899994194508">
        <ele>668.89999999999998</ele>
        <time>2011-04-22T11:24:23Z</time>
      </trkpt>
      <trkpt lat="30.847460003569722" lon="-4.133749036118388">
        <ele>668.79999999999995</ele>
        <time>2011-04-22T11:24:33Z</time>
      </trkpt>
      <trkpt lat="30.847378028556705" lon="-4.133658008649945">
        <ele>670.20000000000005</ele>
        <time>2011-04-22T11:24:37Z</time>
      </trkpt>
      <trkpt lat="30.847270991653204" lon="-4.133623978123069">
        <ele>670.29999999999995</ele>
        <time>2011-04-22T11:24:41Z</time>
      </trkpt>
      <trkpt lat="30.847212988883257" lon="-4.133531022816896">
        <ele>670.60000000000002</ele>
        <time>2011-04-22T11:24:44Z</time>
      </trkpt>
      <trkpt lat="30.847193961963058" lon="-4.133184012025595">
        <ele>672.20000000000005</ele>
        <time>2011-04-22T11:24:51Z</time>
      </trkpt>
      <trkpt lat="30.84721801802516" lon="-4.132896009832621">
        <ele>674.39999999999998</ele>
        <time>2011-04-22T11:24:56Z</time>
      </trkpt>
      <trkpt lat="30.84724199026823" lon="-4.132776986807585">
        <ele>674.10000000000002</ele>
        <time>2011-04-22T11:24:58Z</time>
      </trkpt>
      <trkpt lat="30.847279038280249" lon="-4.132669027894735">
        <ele>673.5</ele>
        <time>2011-04-22T11:25:00Z</time>
      </trkpt>
      <trkpt lat="30.847345003858209" lon="-4.132516980171204">
        <ele>671.89999999999998</ele>
        <time>2011-04-22T11:25:03Z</time>
      </trkpt>
      <trkpt lat="30.847471989691257" lon="-4.132276000455022">
        <ele>668.79999999999995</ele>
        <time>2011-04-22T11:25:08Z</time>
      </trkpt>
      <trkpt lat="30.847623031586409" lon="-4.132061004638672">
        <ele>666.5</ele>
        <time>2011-04-22T11:25:13Z</time>
      </trkpt>
      <trkpt lat="30.847915979102254" lon="-4.131705025210977">
        <ele>666.39999999999998</ele>
        <time>2011-04-22T11:25:22Z</time>
      </trkpt>
      <trkpt lat="30.848117982968688" lon="-4.131344016641378">
        <ele>665.29999999999995</ele>
        <time>2011-04-22T11:25:29Z</time>
      </trkpt>
      <trkpt lat="30.848161987960339" lon="-4.13121803663671">
        <ele>664.5</ele>
        <time>2011-04-22T11:25:31Z</time>
      </trkpt>
      <trkpt lat="30.848179003223777" lon="-4.131086021661758">
        <ele>665.10000000000002</ele>
        <time>2011-04-22T11:25:33Z</time>
      </trkpt>
      <trkpt lat="30.848179003223777" lon="-4.130948977544904">
        <ele>665.5</ele>
        <time>2011-04-22T11:25:35Z</time>
      </trkpt>
      <trkpt lat="30.848182020708919" lon="-4.130671033635736">
        <ele>666.60000000000002</ele>
        <time>2011-04-22T11:25:39Z</time>
      </trkpt>
      <trkpt lat="30.848326021805406" lon="-4.130056975409389">
        <ele>667.5</ele>
        <time>2011-04-22T11:25:48Z</time>
      </trkpt>
      <trkpt lat="30.848315041512251" lon="-4.12993099540472">
        <ele>668</ele>
        <time>2011-04-22T11:25:50Z</time>
      </trkpt>
      <trkpt lat="30.848228959366679" lon="-4.129517013207078">
        <ele>669.5</ele>
        <time>2011-04-22T11:25:56Z</time>
      </trkpt>
      <trkpt lat="30.848219990730286" lon="-4.129368988797069">
        <ele>670</ele>
        <time>2011-04-22T11:25:58Z</time>
      </trkpt>
      <trkpt lat="30.848225019872189" lon="-4.129228005185723">
        <ele>670.60000000000002</ele>
        <time>2011-04-22T11:26:00Z</time>
      </trkpt>
      <trkpt lat="30.848243962973356" lon="-4.129044022411108">
        <ele>671.39999999999998</ele>
        <time>2011-04-22T11:26:03Z</time>
      </trkpt>
      <trkpt lat="30.84827397018671" lon="-4.128934973850846">
        <ele>671.29999999999995</ele>
        <time>2011-04-22T11:26:05Z</time>
      </trkpt>
      <trkpt lat="30.848340019583702" lon="-4.128859033808112">
        <ele>671</ele>
        <time>2011-04-22T11:26:07Z</time>
      </trkpt>
      <trkpt lat="30.84846599958837" lon="-4.128644037991762">
        <ele>670.60000000000002</ele>
        <time>2011-04-22T11:26:12Z</time>
      </trkpt>
      <trkpt lat="30.848501035943627" lon="-4.128546975553036">
        <ele>670.29999999999995</ele>
        <time>2011-04-22T11:26:14Z</time>
      </trkpt>
      <trkpt lat="30.848540011793375" lon="-4.128110026940703">
        <ele>670.60000000000002</ele>
        <time>2011-04-22T11:26:21Z</time>
      </trkpt>
      <trkpt lat="30.848545040935278" lon="-4.127979017794132">
        <ele>670.89999999999998</ele>
        <time>2011-04-22T11:26:23Z</time>
      </trkpt>
      <trkpt lat="30.848580999299884" lon="-4.127792017534375">
        <ele>670.79999999999995</ele>
        <time>2011-04-22T11:26:26Z</time>
      </trkpt>
      <trkpt lat="30.848619975149632" lon="-4.127675006166101">
        <ele>670.5</ele>
        <time>2011-04-22T11:26:28Z</time>
      </trkpt>
      <trkpt lat="30.848711002618074" lon="-4.127467973157764">
        <ele>669.5</ele>
        <time>2011-04-22T11:26:32Z</time>
      </trkpt>
      <trkpt lat="30.84874402731657" lon="-4.127323972061276">
        <ele>669.29999999999995</ele>
        <time>2011-04-22T11:26:35Z</time>
      </trkpt>
      <trkpt lat="30.849000010639429" lon="-4.126773029565811">
        <ele>666</ele>
        <time>2011-04-22T11:26:45Z</time>
      </trkpt>
      <trkpt lat="30.84915398620069" lon="-4.126475974917412">
        <ele>664.20000000000005</ele>
        <time>2011-04-22T11:26:50Z</time>
      </trkpt>
      <trkpt lat="30.84941198118031" lon="-4.126022011041641">
        <ele>663.10000000000002</ele>
        <time>2011-04-22T11:27:00Z</time>
      </trkpt>
      <trkpt lat="30.849448023363948" lon="-4.125918997451663">
        <ele>664.29999999999995</ele>
        <time>2011-04-22T11:27:04Z</time>
      </trkpt>
      <trkpt lat="30.84949404001236" lon="-4.125816989690065">
        <ele>663.89999999999998</ele>
        <time>2011-04-22T11:27:08Z</time>
      </trkpt>
      <trkpt lat="30.849481970071793" lon="-4.125711964443326">
        <ele>664.79999999999995</ele>
        <time>2011-04-22T11:27:17Z</time>
      </trkpt>
      <trkpt lat="30.849551036953926" lon="-4.125522030517459">
        <ele>666.70000000000005</ele>
        <time>2011-04-22T11:27:35Z</time>
      </trkpt>
      <trkpt lat="30.84958297200501" lon="-4.125400995835662">
        <ele>668</ele>
        <time>2011-04-22T11:27:40Z</time>
      </trkpt>
      <trkpt lat="30.849619014188647" lon="-4.125191029161215">
        <ele>668.70000000000005</ele>
        <time>2011-04-22T11:27:46Z</time>
      </trkpt>
      <trkpt lat="30.84966603666544" lon="-4.125087009742856">
        <ele>668.39999999999998</ele>
        <time>2011-04-22T11:27:50Z</time>
      </trkpt>
      <trkpt lat="30.84975597448647" lon="-4.12496698088944">
        <ele>668.29999999999995</ele>
        <time>2011-04-22T11:27:54Z</time>
      </trkpt>
      <trkpt lat="30.849813977256417" lon="-4.124854998663068">
        <ele>668</ele>
        <time>2011-04-22T11:27:57Z</time>
      </trkpt>
      <trkpt lat="30.849906010553241" lon="-4.124737987294793">
        <ele>667.70000000000005</ele>
        <time>2011-04-22T11:28:01Z</time>
      </trkpt>
      <trkpt lat="30.849993014708161" lon="-4.124679984524846">
        <ele>667.39999999999998</ele>
        <time>2011-04-22T11:28:05Z</time>
      </trkpt>
      <trkpt lat="30.850240029394627" lon="-4.124359041452408">
        <ele>667.70000000000005</ele>
        <time>2011-04-22T11:28:15Z</time>
      </trkpt>
      <trkpt lat="30.850324016064405" lon="-4.124210011214018">
        <ele>667.60000000000002</ele>
        <time>2011-04-22T11:28:18Z</time>
      </trkpt>
      <trkpt lat="30.850422000512481" lon="-4.124028040096164">
        <ele>667.89999999999998</ele>
        <time>2011-04-22T11:28:22Z</time>
      </trkpt>
      <trkpt lat="30.850595002993941" lon="-4.123820001259446">
        <ele>666.5</ele>
        <time>2011-04-22T11:28:28Z</time>
      </trkpt>
      <trkpt lat="30.850679995492101" lon="-4.123655967414379">
        <ele>666.39999999999998</ele>
        <time>2011-04-22T11:28:32Z</time>
      </trkpt>
      <trkpt lat="30.850831959396601" lon="-4.123311974108219">
        <ele>665.60000000000002</ele>
        <time>2011-04-22T11:28:41Z</time>
      </trkpt>
      <trkpt lat="30.85097897797823" lon="-4.123052973300219">
        <ele>667.29999999999995</ele>
        <time>2011-04-22T11:28:50Z</time>
      </trkpt>
      <trkpt lat="30.851026000455022" lon="-4.122935961931944">
        <ele>666.60000000000002</ele>
        <time>2011-04-22T11:28:53Z</time>
      </trkpt>
      <trkpt lat="30.851251976564527" lon="-4.122515022754669">
        <ele>667.79999999999995</ele>
        <time>2011-04-22T11:29:04Z</time>
      </trkpt>
      <trkpt lat="30.85134400986135" lon="-4.12238996475935">
        <ele>667.89999999999998</ele>
        <time>2011-04-22T11:29:08Z</time>
      </trkpt>
      <trkpt lat="30.851563028991222" lon="-4.12191797979176">
        <ele>668.20000000000005</ele>
        <time>2011-04-22T11:29:20Z</time>
      </trkpt>
      <trkpt lat="30.852209022268653" lon="-4.120853981003165">
        <ele>668.39999999999998</ele>
        <time>2011-04-22T11:29:43Z</time>
      </trkpt>
      <trkpt lat="30.852369032800198" lon="-4.120663041248918">
        <ele>668.60000000000002</ele>
        <time>2011-04-22T11:29:48Z</time>
      </trkpt>
      <trkpt lat="30.852462993934751" lon="-4.120486015453935">
        <ele>668.60000000000002</ele>
        <time>2011-04-22T11:29:52Z</time>
      </trkpt>
      <trkpt lat="30.852514039725065" lon="-4.120361963286996">
        <ele>667.79999999999995</ele>
        <time>2011-04-22T11:29:55Z</time>
      </trkpt>
      <trkpt lat="30.852631973102689" lon="-4.120085025206208">
        <ele>667</ele>
        <time>2011-04-22T11:30:01Z</time>
      </trkpt>
      <trkpt lat="30.852739010006189" lon="-4.119888972491026">
        <ele>664.89999999999998</ele>
        <time>2011-04-22T11:30:05Z</time>
      </trkpt>
      <trkpt lat="30.852796006947756" lon="-4.119791993871331">
        <ele>663.89999999999998</ele>
        <time>2011-04-22T11:30:07Z</time>
      </trkpt>
      <trkpt lat="30.85295501165092" lon="-4.119496028870344">
        <ele>660.5</ele>
        <time>2011-04-22T11:30:13Z</time>
      </trkpt>
      <trkpt lat="30.853184005245566" lon="-4.118921030312777">
        <ele>664.5</ele>
        <time>2011-04-22T11:30:25Z</time>
      </trkpt>
      <trkpt lat="30.853285007178783" lon="-4.118312001228333">
        <ele>668</ele>
        <time>2011-04-22T11:30:36Z</time>
      </trkpt>
      <trkpt lat="30.85329900495708" lon="-4.118202030658722">
        <ele>668.29999999999995</ele>
        <time>2011-04-22T11:30:38Z</time>
      </trkpt>
      <trkpt lat="30.853316020220518" lon="-4.117986029013991">
        <ele>668.89999999999998</ele>
        <time>2011-04-22T11:30:42Z</time>
      </trkpt>
      <trkpt lat="30.853334963321686" lon="-4.117881003767252">
        <ele>669.10000000000002</ele>
        <time>2011-04-22T11:30:44Z</time>
      </trkpt>
      <trkpt lat="30.853325994685292" lon="-4.117728034034371">
        <ele>669.70000000000005</ele>
        <time>2011-04-22T11:30:47Z</time>
      </trkpt>
      <trkpt lat="30.853348039090633" lon="-4.11761898547411">
        <ele>669.79999999999995</ele>
        <time>2011-04-22T11:30:49Z</time>
      </trkpt>
      <trkpt lat="30.853458009660244" lon="-4.117337018251419">
        <ele>668.5</ele>
        <time>2011-04-22T11:30:54Z</time>
      </trkpt>
      <trkpt lat="30.853524981066585" lon="-4.117172984406352">
        <ele>667</ele>
        <time>2011-04-22T11:30:57Z</time>
      </trkpt>
      <trkpt lat="30.853525986894965" lon="-4.117066031321883">
        <ele>667.5</ele>
        <time>2011-04-22T11:30:59Z</time>
      </trkpt>
      <trkpt lat="30.85349103435874" lon="-4.116794038563967">
        <ele>668.89999999999998</ele>
        <time>2011-04-22T11:31:03Z</time>
      </trkpt>
      <trkpt lat="30.853447029367089" lon="-4.115224024280906">
        <ele>673</ele>
        <time>2011-04-22T11:31:25Z</time>
      </trkpt>
      <trkpt lat="30.853465972468257" lon="-4.115056972950697">
        <ele>673</ele>
        <time>2011-04-22T11:31:28Z</time>
      </trkpt>
      <trkpt lat="30.853455998003483" lon="-4.114908026531339">
        <ele>673.29999999999995</ele>
        <time>2011-04-22T11:31:31Z</time>
      </trkpt>
      <trkpt lat="30.85347200743854" lon="-4.114777017384768">
        <ele>673.89999999999998</ele>
        <time>2011-04-22T11:31:34Z</time>
      </trkpt>
      <trkpt lat="30.85353403352201" lon="-4.114666962996125">
        <ele>672.79999999999995</ele>
        <time>2011-04-22T11:31:38Z</time>
      </trkpt>
      <trkpt lat="30.853627994656563" lon="-4.114411985501647">
        <ele>670.79999999999995</ele>
        <time>2011-04-22T11:31:44Z</time>
      </trkpt>
      <trkpt lat="30.853760009631515" lon="-4.114074027165771">
        <ele>670.60000000000002</ele>
        <time>2011-04-22T11:31:51Z</time>
      </trkpt>
      <trkpt lat="30.85413602180779" lon="-4.113420993089676">
        <ele>670.60000000000002</ele>
        <time>2011-04-22T11:32:05Z</time>
      </trkpt>
      <trkpt lat="30.854310030117631" lon="-4.113127961754799">
        <ele>670.29999999999995</ele>
        <time>2011-04-22T11:32:11Z</time>
      </trkpt>
      <trkpt lat="30.854754019528627" lon="-4.111979976296425">
        <ele>669.10000000000002</ele>
        <time>2011-04-22T11:32:29Z</time>
      </trkpt>
      <trkpt lat="30.85482501424849" lon="-4.111865982413292">
        <ele>669.29999999999995</ele>
        <time>2011-04-22T11:32:31Z</time>
      </trkpt>
      <trkpt lat="30.854991981759667" lon="-4.111646041274071">
        <ele>669.5</ele>
        <time>2011-04-22T11:32:35Z</time>
      </trkpt>
      <trkpt lat="30.855293981730938" lon="-4.111046986654401">
        <ele>670.10000000000002</ele>
        <time>2011-04-22T11:32:44Z</time>
      </trkpt>
      <trkpt lat="30.855442006140947" lon="-4.110794020816684">
        <ele>670.29999999999995</ele>
        <time>2011-04-22T11:32:48Z</time>
      </trkpt>
      <trkpt lat="30.855537978932261" lon="-4.110692013055086">
        <ele>670.60000000000002</ele>
        <time>2011-04-22T11:32:50Z</time>
      </trkpt>
      <trkpt lat="30.855718022212386" lon="-4.110557986423373">
        <ele>671.10000000000002</ele>
        <time>2011-04-22T11:32:53Z</time>
      </trkpt>
      <trkpt lat="30.856181960552931" lon="-4.110198989510536">
        <ele>671.60000000000002</ele>
        <time>2011-04-22T11:33:02Z</time>
      </trkpt>
      <trkpt lat="30.8562630135566" lon="-4.110104022547603">
        <ele>671.60000000000002</ele>
        <time>2011-04-22T11:33:04Z</time>
      </trkpt>
      <trkpt lat="30.856320010498166" lon="-4.110005032271147">
        <ele>671.89999999999998</ele>
        <time>2011-04-22T11:33:06Z</time>
      </trkpt>
      <trkpt lat="30.856411037966609" lon="-4.109794981777668">
        <ele>671.60000000000002</ele>
        <time>2011-04-22T11:33:12Z</time>
      </trkpt>
      <trkpt lat="30.856439033523202" lon="-4.109652992337942">
        <ele>669.70000000000005</ele>
        <time>2011-04-22T11:33:15Z</time>
      </trkpt>
      <trkpt lat="30.856386981904507" lon="-4.109354009851813">
        <ele>671.20000000000005</ele>
        <time>2011-04-22T11:33:21Z</time>
      </trkpt>
      <trkpt lat="30.856397040188313" lon="-4.109205985441804">
        <ele>671.60000000000002</ele>
        <time>2011-04-22T11:33:24Z</time>
      </trkpt>
      <trkpt lat="30.856437021866441" lon="-4.109100960195065">
        <ele>671.79999999999995</ele>
        <time>2011-04-22T11:33:26Z</time>
      </trkpt>
      <trkpt lat="30.856531988829374" lon="-4.108966011554003">
        <ele>671.89999999999998</ele>
        <time>2011-04-22T11:33:29Z</time>
      </trkpt>
      <trkpt lat="30.856585968285799" lon="-4.108827961608768">
        <ele>671.70000000000005</ele>
        <time>2011-04-22T11:33:32Z</time>
      </trkpt>
      <trkpt lat="30.856625027954578" lon="-4.108683038502932">
        <ele>671.70000000000005</ele>
        <time>2011-04-22T11:33:35Z</time>
      </trkpt>
      <trkpt lat="30.856676995754242" lon="-4.108572984114289">
        <ele>671.79999999999995</ele>
        <time>2011-04-22T11:33:38Z</time>
      </trkpt>
      <trkpt lat="30.856767017394304" lon="-4.108438035473228">
        <ele>671.79999999999995</ele>
        <time>2011-04-22T11:33:42Z</time>
      </trkpt>
      <trkpt lat="30.856871958822012" lon="-4.108381038531661">
        <ele>672</ele>
        <time>2011-04-22T11:33:45Z</time>
      </trkpt>
      <trkpt lat="30.856987964361906" lon="-4.108343990519643">
        <ele>673</ele>
        <time>2011-04-22T11:33:48Z</time>
      </trkpt>
      <trkpt lat="30.857225004583597" lon="-4.108117008581758">
        <ele>672.70000000000005</ele>
        <time>2011-04-22T11:33:54Z</time>
      </trkpt>
      <trkpt lat="30.857323994860053" lon="-4.108067974448204">
        <ele>672.5</ele>
        <time>2011-04-22T11:33:56Z</time>
      </trkpt>
      <trkpt lat="30.857564974576235" lon="-4.108026986941695">
        <ele>672.79999999999995</ele>
        <time>2011-04-22T11:34:01Z</time>
      </trkpt>
      <trkpt lat="30.85768198594451" lon="-4.108020029962063">
        <ele>672.89999999999998</ele>
        <time>2011-04-22T11:34:04Z</time>
      </trkpt>
      <trkpt lat="30.857780976220965" lon="-4.108031010255218">
        <ele>672.70000000000005</ele>
        <time>2011-04-22T11:34:07Z</time>
      </trkpt>
      <trkpt lat="30.857896981760859" lon="-4.108032016083598">
        <ele>672.20000000000005</ele>
        <time>2011-04-22T11:34:11Z</time>
      </trkpt>
      <trkpt lat="30.857993960380554" lon="-4.107975019142032">
        <ele>672.39999999999998</ele>
        <time>2011-04-22T11:34:14Z</time>
      </trkpt>
      <trkpt lat="30.858103008940816" lon="-4.107806961983442">
        <ele>672.29999999999995</ele>
        <time>2011-04-22T11:34:18Z</time>
      </trkpt>
      <trkpt lat="30.858252961188555" lon="-4.107469003647566">
        <ele>671.70000000000005</ele>
        <time>2011-04-22T11:34:24Z</time>
      </trkpt>
      <trkpt lat="30.858627967536449" lon="-4.106535008177161">
        <ele>670.70000000000005</ele>
        <time>2011-04-22T11:34:42Z</time>
      </trkpt>
      <trkpt lat="30.858685970306396" lon="-4.106431994587183">
        <ele>670.79999999999995</ele>
        <time>2011-04-22T11:34:45Z</time>
      </trkpt>
      <trkpt lat="30.85873500443995" lon="-4.106319006532431">
        <ele>670.70000000000005</ele>
        <time>2011-04-22T11:34:48Z</time>
      </trkpt>
      <trkpt lat="30.85875503718853" lon="-4.106109039857984">
        <ele>670.5</ele>
        <time>2011-04-22T11:34:52Z</time>
      </trkpt>
      <trkpt lat="30.858784960582852" lon="-4.106002002954483">
        <ele>670.39999999999998</ele>
        <time>2011-04-22T11:34:54Z</time>
      </trkpt>
      <trkpt lat="30.858836006373167" lon="-4.105894966050983">
        <ele>669.39999999999998</ele>
        <time>2011-04-22T11:34:56Z</time>
      </trkpt>
      <trkpt lat="30.858897026628256" lon="-4.105789018794894">
        <ele>668.89999999999998</ele>
        <time>2011-04-22T11:34:58Z</time>
      </trkpt>
      <trkpt lat="30.858966009691358" lon="-4.10569597966969">
        <ele>669</ele>
        <time>2011-04-22T11:35:00Z</time>
      </trkpt>
      <trkpt lat="30.859922971576452" lon="-4.104479011148214">
        <ele>670</ele>
        <time>2011-04-22T11:35:27Z</time>
      </trkpt>
      <trkpt lat="30.860150959342718" lon="-4.104247000068426">
        <ele>670</ele>
        <time>2011-04-22T11:35:33Z</time>
      </trkpt>
      <trkpt lat="30.860310969874263" lon="-4.104009959846735">
        <ele>670.29999999999995</ele>
        <time>2011-04-22T11:35:38Z</time>
      </trkpt>
      <trkpt lat="30.860427981242537" lon="-4.103796975687146">
        <ele>670.10000000000002</ele>
        <time>2011-04-22T11:35:43Z</time>
      </trkpt>
      <trkpt lat="30.860554967075586" lon="-4.103684993460774">
        <ele>669.89999999999998</ele>
        <time>2011-04-22T11:35:48Z</time>
      </trkpt>
      <trkpt lat="30.861131977289915" lon="-4.10303003154695">
        <ele>667.5</ele>
        <time>2011-04-22T11:36:05Z</time>
      </trkpt>
      <trkpt lat="30.861468007788062" lon="-4.102759966626763">
        <ele>668.5</ele>
        <time>2011-04-22T11:36:15Z</time>
      </trkpt>
      <trkpt lat="30.86193798109889" lon="-4.102552011609078">
        <ele>670.29999999999995</ele>
        <time>2011-04-22T11:36:26Z</time>
      </trkpt>
      <trkpt lat="30.862025991082191" lon="-4.102526027709246">
        <ele>670.20000000000005</ele>
        <time>2011-04-22T11:36:28Z</time>
      </trkpt>
      <trkpt lat="30.862141996622086" lon="-4.102508006617427">
        <ele>668.70000000000005</ele>
        <time>2011-04-22T11:36:31Z</time>
      </trkpt>
      <trkpt lat="30.862252973020077" lon="-4.102517981082201">
        <ele>667.60000000000002</ele>
        <time>2011-04-22T11:36:34Z</time>
      </trkpt>
      <trkpt lat="30.862376019358635" lon="-4.102540025487542">
        <ele>666.70000000000005</ele>
        <time>2011-04-22T11:36:37Z</time>
      </trkpt>
      <trkpt lat="30.86266603320837" lon="-4.102525021880865">
        <ele>666.29999999999995</ele>
        <time>2011-04-22T11:36:43Z</time>
      </trkpt>
      <trkpt lat="30.862778015434742" lon="-4.102531978860498">
        <ele>667.39999999999998</ele>
        <time>2011-04-22T11:36:45Z</time>
      </trkpt>
      <trkpt lat="30.862889997661114" lon="-4.102528039366007">
        <ele>668.60000000000002</ele>
        <time>2011-04-22T11:36:47Z</time>
      </trkpt>
      <trkpt lat="30.863004997372627" lon="-4.102508006617427">
        <ele>669.70000000000005</ele>
        <time>2011-04-22T11:36:49Z</time>
      </trkpt>
      <trkpt lat="30.863232985138893" lon="-4.102466013282538">
        <ele>672.60000000000002</ele>
        <time>2011-04-22T11:36:53Z</time>
      </trkpt>
      <trkpt lat="30.863342033699155" lon="-4.102460984140635">
        <ele>673.79999999999995</ele>
        <time>2011-04-22T11:36:55Z</time>
      </trkpt>
      <trkpt lat="30.863743023946881" lon="-4.102325029671192">
        <ele>677.89999999999998</ele>
        <time>2011-04-22T11:37:03Z</time>
      </trkpt>
      <trkpt lat="30.863871015608311" lon="-4.102247999981046">
        <ele>676.89999999999998</ele>
        <time>2011-04-22T11:37:06Z</time>
      </trkpt>
      <trkpt lat="30.864091962575912" lon="-4.102057982236147">
        <ele>673.60000000000002</ele>
        <time>2011-04-22T11:37:13Z</time>
      </trkpt>
      <trkpt lat="30.864229006692767" lon="-4.101813985034823">
        <ele>672</ele>
        <time>2011-04-22T11:37:19Z</time>
      </trkpt>
      <trkpt lat="30.864289021119475" lon="-4.101733015850186">
        <ele>671.70000000000005</ele>
        <time>2011-04-22T11:37:21Z</time>
      </trkpt>
      <trkpt lat="30.864645000547171" lon="-4.101323978975415">
        <ele>669.60000000000002</ele>
        <time>2011-04-22T11:37:33Z</time>
      </trkpt>
      <trkpt lat="30.864756982773542" lon="-4.101219037547708">
        <ele>669.60000000000002</ele>
        <time>2011-04-22T11:37:37Z</time>
      </trkpt>
      <trkpt lat="30.865254029631615" lon="-4.100790973752737">
        <ele>669.89999999999998</ele>
        <time>2011-04-22T11:37:54Z</time>
      </trkpt>
      <trkpt lat="30.865371040999889" lon="-4.100734982639551">
        <ele>670.10000000000002</ele>
        <time>2011-04-22T11:37:58Z</time>
      </trkpt>
      <trkpt lat="30.865539014339447" lon="-4.100697012618184">
        <ele>671.29999999999995</ele>
        <time>2011-04-22T11:39:22Z</time>
      </trkpt>
      <trkpt lat="30.866472003981471" lon="-4.100500959903002">
        <ele>665.70000000000005</ele>
        <time>2011-04-22T11:39:48Z</time>
      </trkpt>
      <trkpt lat="30.866907024756074" lon="-4.100337009876967">
        <ele>667.60000000000002</ele>
        <time>2011-04-22T11:39:56Z</time>
      </trkpt>
      <trkpt lat="30.867401976138353" lon="-4.100079014897347">
        <ele>669.20000000000005</ele>
        <time>2011-04-22T11:40:06Z</time>
      </trkpt>
      <trkpt lat="30.867529967799783" lon="-4.099983964115381">
        <ele>669.39999999999998</ele>
        <time>2011-04-22T11:40:09Z</time>
      </trkpt>
      <trkpt lat="30.867828028276563" lon="-4.099732004106045">
        <ele>669.5</ele>
        <time>2011-04-22T11:40:18Z</time>
      </trkpt>
      <trkpt lat="30.868118964135647" lon="-4.099534023553133">
        <ele>669.70000000000005</ele>
        <time>2011-04-22T11:40:25Z</time>
      </trkpt>
      <trkpt lat="30.868851039558649" lon="-4.09890303388238">
        <ele>670.70000000000005</ele>
        <time>2011-04-22T11:40:41Z</time>
      </trkpt>
      <trkpt lat="30.869225040078163" lon="-4.09866800531745">
        <ele>671.10000000000002</ele>
        <time>2011-04-22T11:40:48Z</time>
      </trkpt>
      <trkpt lat="30.869403993710876" lon="-4.098575972020626">
        <ele>671.10000000000002</ele>
        <time>2011-04-22T11:40:52Z</time>
      </trkpt>
      <trkpt lat="30.869704987853765" lon="-4.098409004509449">
        <ele>671.70000000000005</ele>
        <time>2011-04-22T11:41:00Z</time>
      </trkpt>
      <trkpt lat="30.869847983121872" lon="-4.098292998969555">
        <ele>671.60000000000002</ele>
        <time>2011-04-22T11:41:05Z</time>
      </trkpt>
      <trkpt lat="30.869918977841735" lon="-4.098207000643015">
        <ele>671.60000000000002</ele>
        <time>2011-04-22T11:41:08Z</time>
      </trkpt>
      <trkpt lat="30.869959965348244" lon="-4.098099963739514">
        <ele>671.79999999999995</ele>
        <time>2011-04-22T11:41:11Z</time>
      </trkpt>
      <trkpt lat="30.870084017515182" lon="-4.098144974559546">
        <ele>672.89999999999998</ele>
        <time>2011-04-22T11:42:26Z</time>
      </trkpt>
      <trkpt lat="30.870295995846391" lon="-4.097992004826665">
        <ele>666</ele>
        <time>2011-04-22T11:42:44Z</time>
      </trkpt>
      <trkpt lat="30.870378976687789" lon="-4.097906006500125">
        <ele>664</ele>
        <time>2011-04-22T11:42:47Z</time>
      </trkpt>
      <trkpt lat="30.870476961135864" lon="-4.09783199429512">
        <ele>662.20000000000005</ele>
        <time>2011-04-22T11:42:50Z</time>
      </trkpt>
      <trkpt lat="30.870696986094117" lon="-4.097710037603974">
        <ele>659.79999999999995</ele>
        <time>2011-04-22T11:42:56Z</time>
      </trkpt>
      <trkpt lat="30.870907958596945" lon="-4.097627978771925">
        <ele>658.39999999999998</ele>
        <time>2011-04-22T11:43:01Z</time>
      </trkpt>
      <trkpt lat="30.871207024902105" lon="-4.097546003758907">
        <ele>657.39999999999998</ele>
        <time>2011-04-22T11:43:07Z</time>
      </trkpt>
      <trkpt lat="30.871349014341831" lon="-4.097528988495469">
        <ele>656.70000000000005</ele>
        <time>2011-04-22T11:43:10Z</time>
      </trkpt>
      <trkpt lat="30.871590999886394" lon="-4.097509039565921">
        <ele>657</ele>
        <time>2011-04-22T11:43:15Z</time>
      </trkpt>
      <trkpt lat="30.871727038174868" lon="-4.097461011260748">
        <ele>657</ele>
        <time>2011-04-22T11:43:18Z</time>
      </trkpt>
      <trkpt lat="30.873050037771463" lon="-4.09731600433588">
        <ele>658.60000000000002</ele>
        <time>2011-04-22T11:43:47Z</time>
      </trkpt>
      <trkpt lat="30.873182974755764" lon="-4.097258001565933">
        <ele>658.5</ele>
        <time>2011-04-22T11:43:51Z</time>
      </trkpt>
      <trkpt lat="30.87349696084857" lon="-4.097063038498163">
        <ele>656.60000000000002</ele>
        <time>2011-04-22T11:44:01Z</time>
      </trkpt>
      <trkpt lat="30.8737319894135" lon="-4.096997994929552">
        <ele>657.89999999999998</ele>
        <time>2011-04-22T11:44:08Z</time>
      </trkpt>
      <trkpt lat="30.873832991346717" lon="-4.096983997151256">
        <ele>659.39999999999998</ele>
        <time>2011-04-22T11:44:12Z</time>
      </trkpt>
      <trkpt lat="30.87394698522985" lon="-4.096794985234737">
        <ele>655.70000000000005</ele>
        <time>2011-04-22T11:44:20Z</time>
      </trkpt>
      <trkpt lat="30.874028038233519" lon="-4.096712004393339">
        <ele>654.39999999999998</ele>
        <time>2011-04-22T11:44:23Z</time>
      </trkpt>
      <trkpt lat="30.874152006581426" lon="-4.096654001623392">
        <ele>654.5</ele>
        <time>2011-04-22T11:44:26Z</time>
      </trkpt>
      <trkpt lat="30.874338001012802" lon="-4.09645602107048">
        <ele>652.29999999999995</ele>
        <time>2011-04-22T11:44:32Z</time>
      </trkpt>
      <trkpt lat="30.874402038753033" lon="-4.09634998999536">
        <ele>649.5</ele>
        <time>2011-04-22T11:44:36Z</time>
      </trkpt>
      <trkpt lat="30.874533969908953" lon="-4.096211018040776">
        <ele>644.5</ele>
        <time>2011-04-22T11:44:42Z</time>
      </trkpt>
      <trkpt lat="30.874723987653852" lon="-4.096063999459148">
        <ele>643.79999999999995</ele>
        <time>2011-04-22T11:44:48Z</time>
      </trkpt>
      <trkpt lat="30.874934960156679" lon="-4.09581002779305">
        <ele>641.29999999999995</ele>
        <time>2011-04-22T11:44:55Z</time>
      </trkpt>
      <trkpt lat="30.875173006206751" lon="-4.095685975626111">
        <ele>645.5</ele>
        <time>2011-04-22T11:45:00Z</time>
      </trkpt>
      <trkpt lat="30.875270990654826" lon="-4.095625039190054">
        <ele>647.79999999999995</ele>
        <time>2011-04-22T11:45:02Z</time>
      </trkpt>
      <trkpt lat="30.875350032001734" lon="-4.095551026985049">
        <ele>649.70000000000005</ele>
        <time>2011-04-22T11:45:04Z</time>
      </trkpt>
      <trkpt lat="30.8754070289433" lon="-4.095464022830129">
        <ele>650.20000000000005</ele>
        <time>2011-04-22T11:45:06Z</time>
      </trkpt>
      <trkpt lat="30.875516999512911" lon="-4.095177026465535">
        <ele>647.5</ele>
        <time>2011-04-22T11:45:13Z</time>
      </trkpt>
      <trkpt lat="30.87557902559638" lon="-4.095053980126977">
        <ele>645</ele>
        <time>2011-04-22T11:45:17Z</time>
      </trkpt>
      <trkpt lat="30.875662006437778" lon="-4.094950966536999">
        <ele>643.39999999999998</ele>
        <time>2011-04-22T11:45:20Z</time>
      </trkpt>
      <trkpt lat="30.875756973400712" lon="-4.094862034544349">
        <ele>642</ele>
        <time>2011-04-22T11:45:23Z</time>
      </trkpt>
      <trkpt lat="30.876166010275483" lon="-4.094541007652879">
        <ele>642.29999999999995</ele>
        <time>2011-04-22T11:45:35Z</time>
      </trkpt>
      <trkpt lat="30.876239016652107" lon="-4.094413015991449">
        <ele>640.89999999999998</ele>
        <time>2011-04-22T11:45:38Z</time>
      </trkpt>
      <trkpt lat="30.876278998330235" lon="-4.094282006844878">
        <ele>639.60000000000002</ele>
        <time>2011-04-22T11:45:42Z</time>
      </trkpt>
      <trkpt lat="30.87633197195828" lon="-4.094193996861577">
        <ele>638.70000000000005</ele>
        <time>2011-04-22T11:45:46Z</time>
      </trkpt>
      <trkpt lat="30.87650103494525" lon="-4.094004984945059">
        <ele>637.29999999999995</ele>
        <time>2011-04-22T11:45:52Z</time>
      </trkpt>
      <trkpt lat="30.876583009958267" lon="-4.093949999660254">
        <ele>637</ele>
        <time>2011-04-22T11:45:55Z</time>
      </trkpt>
      <trkpt lat="30.876672025769949" lon="-4.093924015760422">
        <ele>639.39999999999998</ele>
        <time>2011-04-22T11:45:58Z</time>
      </trkpt>
      <trkpt lat="30.876827007159591" lon="-4.093883028253913">
        <ele>638.20000000000005</ele>
        <time>2011-04-22T11:46:03Z</time>
      </trkpt>
      <trkpt lat="30.876923985779285" lon="-4.093844974413514">
        <ele>641.60000000000002</ele>
        <time>2011-04-22T11:46:06Z</time>
      </trkpt>
      <trkpt lat="30.877022976055741" lon="-4.093785965815187">
        <ele>643</ele>
        <time>2011-04-22T11:46:09Z</time>
      </trkpt>
      <trkpt lat="30.8771460223943" lon="-4.093644982203841">
        <ele>641.70000000000005</ele>
        <time>2011-04-22T11:46:15Z</time>
      </trkpt>
      <trkpt lat="30.877359006553888" lon="-4.09351103939116">
        <ele>641.39999999999998</ele>
        <time>2011-04-22T11:46:21Z</time>
      </trkpt>
      <trkpt lat="30.877526979893446" lon="-4.093367038294673">
        <ele>640.10000000000002</ele>
        <time>2011-04-22T11:46:26Z</time>
      </trkpt>
      <trkpt lat="30.877615995705128" lon="-4.093329990282655">
        <ele>640</ele>
        <time>2011-04-22T11:46:29Z</time>
      </trkpt>
      <trkpt lat="30.877902992069721" lon="-4.09329897724092">
        <ele>639.5</ele>
        <time>2011-04-22T11:46:36Z</time>
      </trkpt>
      <trkpt lat="30.878026038408279" lon="-4.093306018039584">
        <ele>640.39999999999998</ele>
        <time>2011-04-22T11:46:39Z</time>
      </trkpt>
      <trkpt lat="30.878123017027974" lon="-4.093290008604527">
        <ele>642.39999999999998</ele>
        <time>2011-04-22T11:46:41Z</time>
      </trkpt>
      <trkpt lat="30.878353016451001" lon="-4.093170985579491">
        <ele>644.10000000000002</ele>
        <time>2011-04-22T11:46:47Z</time>
      </trkpt>
      <trkpt lat="30.878424011170864" lon="-4.093091022223234">
        <ele>640.89999999999998</ele>
        <time>2011-04-22T11:46:50Z</time>
      </trkpt>
      <trkpt lat="30.878512021154165" lon="-4.093041988089681">
        <ele>637.89999999999998</ele>
        <time>2011-04-22T11:46:53Z</time>
      </trkpt>
      <trkpt lat="30.878696003928781" lon="-4.092994965612888">
        <ele>639.79999999999995</ele>
        <time>2011-04-22T11:46:58Z</time>
      </trkpt>
      <trkpt lat="30.878826007246971" lon="-4.09291097894311">
        <ele>636</ele>
        <time>2011-04-22T11:47:02Z</time>
      </trkpt>
      <trkpt lat="30.878949975594878" lon="-4.092864040285349">
        <ele>639.89999999999998</ele>
        <time>2011-04-22T11:47:05Z</time>
      </trkpt>
      <trkpt lat="30.8791249897331" lon="-4.092734036967158">
        <ele>639.89999999999998</ele>
        <time>2011-04-22T11:47:10Z</time>
      </trkpt>
      <trkpt lat="30.879412991926074" lon="-4.092503031715751">
        <ele>639.29999999999995</ele>
        <time>2011-04-22T11:47:20Z</time>
      </trkpt>
      <trkpt lat="30.879525979980826" lon="-4.0924590267241">
        <ele>639.89999999999998</ele>
        <time>2011-04-22T11:47:23Z</time>
      </trkpt>
      <trkpt lat="30.879691019654274" lon="-4.092466989532113">
        <ele>642.79999999999995</ele>
        <time>2011-04-22T11:47:27Z</time>
      </trkpt>
      <trkpt lat="30.879814988002181" lon="-4.092461038380861">
        <ele>644.70000000000005</ele>
        <time>2011-04-22T11:47:30Z</time>
      </trkpt>
      <trkpt lat="30.880036018788815" lon="-4.092375040054321">
        <ele>642.79999999999995</ele>
        <time>2011-04-22T11:47:36Z</time>
      </trkpt>
      <trkpt lat="30.880131991580129" lon="-4.092367999255657">
        <ele>643.70000000000005</ele>
        <time>2011-04-22T11:47:38Z</time>
      </trkpt>
      <trkpt lat="30.880224024876952" lon="-4.092364981770515">
        <ele>645.70000000000005</ele>
        <time>2011-04-22T11:47:40Z</time>
      </trkpt>
      <trkpt lat="30.880411025136709" lon="-4.092355007305741">
        <ele>649.79999999999995</ele>
        <time>2011-04-22T11:47:44Z</time>
      </trkpt>
      <trkpt lat="30.880772033706307" lon="-4.092235984280706">
        <ele>658.60000000000002</ele>
        <time>2011-04-22T11:47:52Z</time>
      </trkpt>
      <trkpt lat="30.880860965698957" lon="-4.092188039794564">
        <ele>659.29999999999995</ele>
        <time>2011-04-22T11:47:54Z</time>
      </trkpt>
      <trkpt lat="30.88099398650229" lon="-4.092085026204586">
        <ele>660.39999999999998</ele>
        <time>2011-04-22T11:47:57Z</time>
      </trkpt>
      <trkpt lat="30.881076967343688" lon="-4.092004979029298">
        <ele>660.89999999999998</ele>
        <time>2011-04-22T11:47:59Z</time>
      </trkpt>
      <trkpt lat="30.881206970661879" lon="-4.09181697294116">
        <ele>662.10000000000002</ele>
        <time>2011-04-22T11:48:03Z</time>
      </trkpt>
      <trkpt lat="30.881282994523644" lon="-4.091747989878058">
        <ele>662.89999999999998</ele>
        <time>2011-04-22T11:48:05Z</time>
      </trkpt>
      <trkpt lat="30.881727989763021" lon="-4.09153601154685">
        <ele>671</ele>
        <time>2011-04-22T11:48:17Z</time>
      </trkpt>
      <trkpt lat="30.881825974211097" lon="-4.091496029868722">
        <ele>671.20000000000005</ele>
        <time>2011-04-22T11:48:20Z</time>
      </trkpt>
      <trkpt lat="30.882128980010748" lon="-4.091335013508797">
        <ele>667.29999999999995</ele>
        <time>2011-04-22T11:48:32Z</time>
      </trkpt>
      <trkpt lat="30.882222019135952" lon="-4.091286985203624">
        <ele>670.39999999999998</ele>
        <time>2011-04-22T11:48:35Z</time>
      </trkpt>
      <trkpt lat="30.882318997755647" lon="-4.091208027675748">
        <ele>673.10000000000002</ele>
        <time>2011-04-22T11:48:38Z</time>
      </trkpt>
      <trkpt lat="30.882386974990368" lon="-4.091023961082101">
        <ele>671.20000000000005</ele>
        <time>2011-04-22T11:48:43Z</time>
      </trkpt>
      <trkpt lat="30.882771033793688" lon="-4.089778997004032">
        <ele>670.79999999999995</ele>
        <time>2011-04-22T11:49:13Z</time>
      </trkpt>
      <trkpt lat="30.882790982723236" lon="-4.089651005342603">
        <ele>669.5</ele>
        <time>2011-04-22T11:49:17Z</time>
      </trkpt>
      <trkpt lat="30.8826719596982" lon="-4.089545980095863">
        <ele>670.5</ele>
        <time>2011-04-22T11:49:24Z</time>
      </trkpt>
      <trkpt lat="30.882598031312227" lon="-4.089450007304549">
        <ele>673.79999999999995</ele>
        <time>2011-04-22T11:49:27Z</time>
      </trkpt>
      <trkpt lat="30.882573975250125" lon="-4.089312963187695">
        <ele>675.5</ele>
        <time>2011-04-22T11:49:30Z</time>
      </trkpt>
      <trkpt lat="30.882593002170324" lon="-4.089168040081859">
        <ele>675.20000000000005</ele>
        <time>2011-04-22T11:49:33Z</time>
      </trkpt>
      <trkpt lat="30.882631978020072" lon="-4.089069971814752">
        <ele>675</ele>
        <time>2011-04-22T11:49:35Z</time>
      </trkpt>
      <trkpt lat="30.882687969133258" lon="-4.08897902816534">
        <ele>674.70000000000005</ele>
        <time>2011-04-22T11:49:37Z</time>
      </trkpt>
      <trkpt lat="30.882957028225064" lon="-4.088647020980716">
        <ele>673.79999999999995</ele>
        <time>2011-04-22T11:49:46Z</time>
      </trkpt>
      <trkpt lat="30.883277971297503" lon="-4.088263968005776">
        <ele>672.39999999999998</ele>
        <time>2011-04-22T11:50:03Z</time>
      </trkpt>
      <trkpt lat="30.883330022916198" lon="-4.08816397190094">
        <ele>672.20000000000005</ele>
        <time>2011-04-22T11:50:09Z</time>
      </trkpt>
      <trkpt lat="30.883403029292822" lon="-4.08803497441113">
        <ele>663.5</ele>
        <time>2011-04-22T11:50:27Z</time>
      </trkpt>
      <trkpt lat="30.883492967113853" lon="-4.087877981364727">
        <ele>645.10000000000002</ele>
        <time>2011-04-22T11:50:52Z</time>
      </trkpt>
      <trkpt lat="30.883577959612012" lon="-4.08777697943151">
        <ele>642.10000000000002</ele>
        <time>2011-04-22T11:50:59Z</time>
      </trkpt>
      <trkpt lat="30.883767977356911" lon="-4.087554020807147">
        <ele>639.10000000000002</ele>
        <time>2011-04-22T11:51:13Z</time>
      </trkpt>
      <trkpt lat="30.883832015097141" lon="-4.087448995560408">
        <ele>638.70000000000005</ele>
        <time>2011-04-22T11:51:22Z</time>
      </trkpt>
      <trkpt lat="30.883919019252062" lon="-4.087332990020514">
        <ele>638.29999999999995</ele>
        <time>2011-04-22T11:51:27Z</time>
      </trkpt>
      <trkpt lat="30.884168967604637" lon="-4.086940968409181">
        <ele>637.10000000000002</ele>
        <time>2011-04-22T11:51:41Z</time>
      </trkpt>
      <trkpt lat="30.88443199172616" lon="-4.086639974266291">
        <ele>637.60000000000002</ele>
        <time>2011-04-22T11:51:53Z</time>
      </trkpt>
      <trkpt lat="30.884553026407957" lon="-4.086396982893348">
        <ele>637.79999999999995</ele>
        <time>2011-04-22T11:52:01Z</time>
      </trkpt>
      <trkpt lat="30.884674983099103" lon="-4.086148040369153">
        <ele>640.20000000000005</ele>
        <time>2011-04-22T11:52:10Z</time>
      </trkpt>
      <trkpt lat="30.884690992534161" lon="-4.08603597432375">
        <ele>640</ele>
        <time>2011-04-22T11:52:13Z</time>
      </trkpt>
      <trkpt lat="30.884770033881068" lon="-4.085856014862657">
        <ele>640.39999999999998</ele>
        <time>2011-04-22T11:52:18Z</time>
      </trkpt>
      <trkpt lat="30.884984023869038" lon="-4.08541202545166">
        <ele>639.20000000000005</ele>
        <time>2011-04-22T11:52:30Z</time>
      </trkpt>
      <trkpt lat="30.885049989446998" lon="-4.085108013823628">
        <ele>639.29999999999995</ele>
        <time>2011-04-22T11:52:35Z</time>
      </trkpt>
      <trkpt lat="30.885100029408932" lon="-4.08464097417891">
        <ele>638.79999999999995</ele>
        <time>2011-04-22T11:52:42Z</time>
      </trkpt>
      <trkpt lat="30.885188961401582" lon="-4.083873024210334">
        <ele>638.29999999999995</ele>
        <time>2011-04-22T11:52:55Z</time>
      </trkpt>
      <trkpt lat="30.885214023292065" lon="-4.083770010620356">
        <ele>638.29999999999995</ele>
        <time>2011-04-22T11:52:57Z</time>
      </trkpt>
      <trkpt lat="30.885342014953494" lon="-4.083411013707519">
        <ele>637.89999999999998</ele>
        <time>2011-04-22T11:53:04Z</time>
      </trkpt>
      <trkpt lat="30.885400017723441" lon="-4.083082024008036">
        <ele>638</ele>
        <time>2011-04-22T11:53:10Z</time>
      </trkpt>
      <trkpt lat="30.885545024648309" lon="-4.082649014890194">
        <ele>637.89999999999998</ele>
        <time>2011-04-22T11:53:18Z</time>
      </trkpt>
      <trkpt lat="30.885602021589875" lon="-4.082542983815074">
        <ele>638</ele>
        <time>2011-04-22T11:53:20Z</time>
      </trkpt>
      <trkpt lat="30.88587099686265" lon="-4.082225980237126">
        <ele>638</ele>
        <time>2011-04-22T11:53:27Z</time>
      </trkpt>
      <trkpt lat="30.885952971875668" lon="-4.082137970253825">
        <ele>638.10000000000002</ele>
        <time>2011-04-22T11:53:29Z</time>
      </trkpt>
      <trkpt lat="30.886040981858969" lon="-4.082058006897569">
        <ele>638.20000000000005</ele>
        <time>2011-04-22T11:53:31Z</time>
      </trkpt>
      <trkpt lat="30.886340970173478" lon="-4.081803029403091">
        <ele>638</ele>
        <time>2011-04-22T11:53:38Z</time>
      </trkpt>
      <trkpt lat="30.88668798096478" lon="-4.081402039155364">
        <ele>637.29999999999995</ele>
        <time>2011-04-22T11:53:48Z</time>
      </trkpt>
      <trkpt lat="30.886940024793148" lon="-4.081220990046859">
        <ele>642</ele>
        <time>2011-04-22T11:53:54Z</time>
      </trkpt>
      <trkpt lat="30.887006996199489" lon="-4.08113700337708">
        <ele>642.89999999999998</ele>
        <time>2011-04-22T11:53:56Z</time>
      </trkpt>
      <trkpt lat="30.887186033651233" lon="-4.080646997317672">
        <ele>638.60000000000002</ele>
        <time>2011-04-22T11:54:05Z</time>
      </trkpt>
      <trkpt lat="30.887236995622516" lon="-4.080536020919681">
        <ele>638</ele>
        <time>2011-04-22T11:54:07Z</time>
      </trkpt>
      <trkpt lat="30.88728703558445" lon="-4.080435018986464">
        <ele>637.60000000000002</ele>
        <time>2011-04-22T11:54:09Z</time>
      </trkpt>
      <trkpt lat="30.887345038354397" lon="-4.080208037048578">
        <ele>636.5</ele>
        <time>2011-04-22T11:54:14Z</time>
      </trkpt>
      <trkpt lat="30.88735300116241" lon="-4.079929003491998">
        <ele>636.29999999999995</ele>
        <time>2011-04-22T11:54:20Z</time>
      </trkpt>
      <trkpt lat="30.887374961748719" lon="-4.079820038750768">
        <ele>636</ele>
        <time>2011-04-22T11:54:22Z</time>
      </trkpt>
      <trkpt lat="30.887421984225512" lon="-4.07971702516079">
        <ele>635.79999999999995</ele>
        <time>2011-04-22T11:54:24Z</time>
      </trkpt>
      <trkpt lat="30.887618958950043" lon="-4.079474033787847">
        <ele>634.89999999999998</ele>
        <time>2011-04-22T11:54:29Z</time>
      </trkpt>
      <trkpt lat="30.887800008058548" lon="-4.079306982457638">
        <ele>635.5</ele>
        <time>2011-04-22T11:54:33Z</time>
      </trkpt>
      <trkpt lat="30.888350028544664" lon="-4.07890297472477">
        <ele>642.39999999999998</ele>
        <time>2011-04-22T11:54:45Z</time>
      </trkpt>
      <trkpt lat="30.888974983245134" lon="-4.078561998903751">
        <ele>652.29999999999995</ele>
        <time>2011-04-22T11:54:56Z</time>
      </trkpt>
      <trkpt lat="30.889600021764636" lon="-4.078091019764543">
        <ele>657.60000000000002</ele>
        <time>2011-04-22T11:55:07Z</time>
      </trkpt>
      <trkpt lat="30.88997301645577" lon="-4.077916005626321">
        <ele>661.5</ele>
        <time>2011-04-22T11:55:13Z</time>
      </trkpt>
      <trkpt lat="30.890081981197" lon="-4.077835036441684">
        <ele>662.60000000000002</ele>
        <time>2011-04-22T11:55:15Z</time>
      </trkpt>
      <trkpt lat="30.890448018908501" lon="-4.077470004558563">
        <ele>664.20000000000005</ele>
        <time>2011-04-22T11:55:22Z</time>
      </trkpt>
      <trkpt lat="30.890682963654399" lon="-4.077193988487124">
        <ele>663.79999999999995</ele>
        <time>2011-04-22T11:55:27Z</time>
      </trkpt>
      <trkpt lat="30.890823025256395" lon="-4.076934987679124">
        <ele>663.29999999999995</ele>
        <time>2011-04-22T11:55:31Z</time>
      </trkpt>
      <trkpt lat="30.891032991930842" lon="-4.076427966356278">
        <ele>662.20000000000005</ele>
        <time>2011-04-22T11:55:38Z</time>
      </trkpt>
      <trkpt lat="30.891087977215648" lon="-4.076264016330242">
        <ele>662</ele>
        <time>2011-04-22T11:55:40Z</time>
      </trkpt>
      <trkpt lat="30.891346978023648" lon="-4.075252991169691">
        <ele>660.79999999999995</ele>
        <time>2011-04-22T11:55:51Z</time>
      </trkpt>
      <trkpt lat="30.891389977186918" lon="-4.074912015348673">
        <ele>660.39999999999998</ele>
        <time>2011-04-22T11:55:55Z</time>
      </trkpt>
      <trkpt lat="30.891440017148852" lon="-4.074768014252186">
        <ele>660.5</ele>
        <time>2011-04-22T11:55:57Z</time>
      </trkpt>
      <trkpt lat="30.891497014090419" lon="-4.074653014540672">
        <ele>660.29999999999995</ele>
        <time>2011-04-22T11:55:59Z</time>
      </trkpt>
      <trkpt lat="30.891518974676728" lon="-4.074541032314301">
        <ele>660.20000000000005</ele>
        <time>2011-04-22T11:56:01Z</time>
      </trkpt>
      <trkpt lat="30.891554011031985" lon="-4.074181029573083">
        <ele>659.89999999999998</ele>
        <time>2011-04-22T11:56:06Z</time>
      </trkpt>
      <trkpt lat="30.891587035730481" lon="-4.074035016819835">
        <ele>659.60000000000002</ele>
        <time>2011-04-22T11:56:08Z</time>
      </trkpt>
      <trkpt lat="30.891637997701764" lon="-4.073891015723348">
        <ele>659.5</ele>
        <time>2011-04-22T11:56:10Z</time>
      </trkpt>
      <trkpt lat="30.891752997413278" lon="-4.073627991601825">
        <ele>659.10000000000002</ele>
        <time>2011-04-22T11:56:14Z</time>
      </trkpt>
      <trkpt lat="30.891778981313109" lon="-4.073502011597157">
        <ele>660.10000000000002</ele>
        <time>2011-04-22T11:56:16Z</time>
      </trkpt>
      <trkpt lat="30.891773030161858" lon="-4.073368990793824">
        <ele>661.5</ele>
        <time>2011-04-22T11:56:18Z</time>
      </trkpt>
      <trkpt lat="30.891733970493078" lon="-4.073224989697337">
        <ele>661.29999999999995</ele>
        <time>2011-04-22T11:56:20Z</time>
      </trkpt>
      <trkpt lat="30.891702035441995" lon="-4.072884013876319">
        <ele>661.29999999999995</ele>
        <time>2011-04-22T11:56:24Z</time>
      </trkpt>
      <trkpt lat="30.891631040722132" lon="-4.072623001411557">
        <ele>661.5</ele>
        <time>2011-04-22T11:56:27Z</time>
      </trkpt>
      <trkpt lat="30.891445968300104" lon="-4.071638965979219">
        <ele>661.79999999999995</ele>
        <time>2011-04-22T11:56:39Z</time>
      </trkpt>
      <trkpt lat="30.891312025487423" lon="-4.070869004353881">
        <ele>660.60000000000002</ele>
        <time>2011-04-22T11:56:49Z</time>
      </trkpt>
      <trkpt lat="30.89126399718225" lon="-4.070268021896482">
        <ele>658.60000000000002</ele>
        <time>2011-04-22T11:56:57Z</time>
      </trkpt>
      <trkpt lat="30.891129970550537" lon="-4.069691011682153">
        <ele>656</ele>
        <time>2011-04-22T11:57:06Z</time>
      </trkpt>
      <trkpt lat="30.891126031056046" lon="-4.069585986435413">
        <ele>655.29999999999995</ele>
        <time>2011-04-22T11:57:08Z</time>
      </trkpt>
      <trkpt lat="30.891122007742524" lon="-4.069480039179325">
        <ele>654.60000000000002</ele>
        <time>2011-04-22T11:57:10Z</time>
      </trkpt>
      <trkpt lat="30.891076996922493" lon="-4.069360010325909">
        <ele>654.70000000000005</ele>
        <time>2011-04-22T11:57:12Z</time>
      </trkpt>
      <trkpt lat="30.89096300303936" lon="-4.069108972325921">
        <ele>656.79999999999995</ele>
        <time>2011-04-22T11:57:16Z</time>
      </trkpt>
      <trkpt lat="30.890897959470749" lon="-4.069001013413072">
        <ele>658.39999999999998</ele>
        <time>2011-04-22T11:57:18Z</time>
      </trkpt>
      <trkpt lat="30.890739038586617" lon="-4.068788029253483">
        <ele>660.20000000000005</ele>
        <time>2011-04-22T11:57:22Z</time>
      </trkpt>
      <trkpt lat="30.890566958114505" lon="-4.068535985425115">
        <ele>663.89999999999998</ele>
        <time>2011-04-22T11:57:27Z</time>
      </trkpt>
      <trkpt lat="30.890514990314841" lon="-4.068441018462181">
        <ele>665.29999999999995</ele>
        <time>2011-04-22T11:57:29Z</time>
      </trkpt>
      <trkpt lat="30.890422035008669" lon="-4.068357031792402">
        <ele>666.20000000000005</ele>
        <time>2011-04-22T11:57:32Z</time>
      </trkpt>
      <trkpt lat="30.890356991440058" lon="-4.068244965746999">
        <ele>665.29999999999995</ele>
        <time>2011-04-22T11:57:35Z</time>
      </trkpt>
      <trkpt lat="30.890319021418691" lon="-4.067915976047516">
        <ele>663.20000000000005</ele>
        <time>2011-04-22T11:57:41Z</time>
      </trkpt>
      <trkpt lat="30.890365038067102" lon="-4.067538036033511">
        <ele>666</ele>
        <time>2011-04-22T11:57:48Z</time>
      </trkpt>
      <trkpt lat="30.890346011146903" lon="-4.067394034937024">
        <ele>665.79999999999995</ele>
        <time>2011-04-22T11:57:51Z</time>
      </trkpt>
      <trkpt lat="30.890236962586641" lon="-4.067034032195807">
        <ele>663.79999999999995</ele>
        <time>2011-04-22T11:57:57Z</time>
      </trkpt>
      <trkpt lat="30.890219025313854" lon="-4.066886007785797">
        <ele>663.10000000000002</ele>
        <time>2011-04-22T11:57:59Z</time>
      </trkpt>
      <trkpt lat="30.890203015878797" lon="-4.066669000312686">
        <ele>661.89999999999998</ele>
        <time>2011-04-22T11:58:02Z</time>
      </trkpt>
      <trkpt lat="30.890206033363938" lon="-4.066509995609522">
        <ele>661.10000000000002</ele>
        <time>2011-04-22T11:58:04Z</time>
      </trkpt>
      <trkpt lat="30.890489006415009" lon="-4.064779970794916">
        <ele>660.20000000000005</ele>
        <time>2011-04-22T11:58:23Z</time>
      </trkpt>
      <trkpt lat="30.890477020293474" lon="-4.064576961100102">
        <ele>660</ele>
        <time>2011-04-22T11:58:25Z</time>
      </trkpt>
      <trkpt lat="30.890441983938217" lon="-4.064370011910796">
        <ele>659.79999999999995</ele>
        <time>2011-04-22T11:58:27Z</time>
      </trkpt>
      <trkpt lat="30.890304017812014" lon="-4.063810016959906">
        <ele>659.39999999999998</ele>
        <time>2011-04-22T11:58:33Z</time>
      </trkpt>
      <trkpt lat="30.890132021158934" lon="-4.063278017565608">
        <ele>656.60000000000002</ele>
        <time>2011-04-22T11:58:41Z</time>
      </trkpt>
      <trkpt lat="30.890110982581973" lon="-4.06313200481236">
        <ele>656</ele>
        <time>2011-04-22T11:58:43Z</time>
      </trkpt>
      <trkpt lat="30.890049962326884" lon="-4.062597993761301">
        <ele>653.20000000000005</ele>
        <time>2011-04-22T11:58:50Z</time>
      </trkpt>
      <trkpt lat="30.890063960105181" lon="-4.062439994886518">
        <ele>652.79999999999995</ele>
        <time>2011-04-22T11:58:52Z</time>
      </trkpt>
      <trkpt lat="30.890105031430721" lon="-4.062275039032102">
        <ele>652.39999999999998</ele>
        <time>2011-04-22T11:58:54Z</time>
      </trkpt>
      <trkpt lat="30.890162028372288" lon="-4.062116034328938">
        <ele>652</ele>
        <time>2011-04-22T11:58:56Z</time>
      </trkpt>
      <trkpt lat="30.890417005866766" lon="-4.061431987211108">
        <ele>651.5</ele>
        <time>2011-04-22T11:59:08Z</time>
      </trkpt>
      <trkpt lat="30.890498980879784" lon="-4.060977017506957">
        <ele>651.79999999999995</ele>
        <time>2011-04-22T11:59:14Z</time>
      </trkpt>
      <trkpt lat="30.890579028055072" lon="-4.060297999531031">
        <ele>651.89999999999998</ele>
        <time>2011-04-22T11:59:23Z</time>
      </trkpt>
      <trkpt lat="30.890654968097806" lon="-4.060084009543061">
        <ele>653.60000000000002</ele>
        <time>2011-04-22T11:59:26Z</time>
      </trkpt>
      <trkpt lat="30.890954034402966" lon="-4.059451008215547">
        <ele>653</ele>
        <time>2011-04-22T11:59:36Z</time>
      </trkpt>
      <trkpt lat="30.891023017466068" lon="-4.059345982968807">
        <ele>652.79999999999995</ele>
        <time>2011-04-22T11:59:38Z</time>
      </trkpt>
      <trkpt lat="30.891117984429002" lon="-4.059259984642267">
        <ele>653.20000000000005</ele>
        <time>2011-04-22T11:59:40Z</time>
      </trkpt>
      <trkpt lat="30.891259973868728" lon="-4.059110032394528">
        <ele>653.39999999999998</ele>
        <time>2011-04-22T11:59:43Z</time>
      </trkpt>
      <trkpt lat="30.891343038529158" lon="-4.058983968570828">
        <ele>653.60000000000002</ele>
        <time>2011-04-22T11:59:45Z</time>
      </trkpt>
      <trkpt lat="30.891453009098768" lon="-4.0587920229882">
        <ele>656.29999999999995</ele>
        <time>2011-04-22T11:59:48Z</time>
      </trkpt>
      <trkpt lat="30.891578989103436" lon="-4.05851399526">
        <ele>657.70000000000005</ele>
        <time>2011-04-22T11:59:52Z</time>
      </trkpt>
      <trkpt lat="30.891674039885402" lon="-4.058230016380549">
        <ele>658.29999999999995</ele>
        <time>2011-04-22T11:59:56Z</time>
      </trkpt>
      <trkpt lat="30.891746040433645" lon="-4.05810596421361">
        <ele>658.10000000000002</ele>
        <time>2011-04-22T11:59:58Z</time>
      </trkpt>
      <trkpt lat="30.891831032931805" lon="-4.057993981987238">
        <ele>657.79999999999995</ele>
        <time>2011-04-22T12:00:00Z</time>
      </trkpt>
      <trkpt lat="30.891925999894738" lon="-4.057903960347176">
        <ele>657.89999999999998</ele>
        <time>2011-04-22T12:00:02Z</time>
      </trkpt>
      <trkpt lat="30.892145019024611" lon="-4.057706985622644">
        <ele>658.29999999999995</ele>
        <time>2011-04-22T12:00:07Z</time>
      </trkpt>
      <trkpt lat="30.892298994585872" lon="-4.057629033923149">
        <ele>659.89999999999998</ele>
        <time>2011-04-22T12:00:10Z</time>
      </trkpt>
      <trkpt lat="30.892428997904062" lon="-4.057516967877746">
        <ele>660.70000000000005</ele>
        <time>2011-04-22T12:00:13Z</time>
      </trkpt>
      <trkpt lat="30.892691016197205" lon="-4.057391993701458">
        <ele>662.89999999999998</ele>
        <time>2011-04-22T12:00:18Z</time>
      </trkpt>
      <trkpt lat="30.892795035615563" lon="-4.057362992316485">
        <ele>663.89999999999998</ele>
        <time>2011-04-22T12:00:20Z</time>
      </trkpt>
      <trkpt lat="30.89289796538651" lon="-4.057317981496453">
        <ele>664.5</ele>
        <time>2011-04-22T12:00:22Z</time>
      </trkpt>
      <trkpt lat="30.892993016168475" lon="-4.057229971513152">
        <ele>664.70000000000005</ele>
        <time>2011-04-22T12:00:24Z</time>
      </trkpt>
      <trkpt lat="30.893141040578485" lon="-4.057029979303479">
        <ele>664.60000000000002</ele>
        <time>2011-04-22T12:00:28Z</time>
      </trkpt>
      <trkpt lat="30.893344972282648" lon="-4.056872986257076">
        <ele>666.39999999999998</ele>
        <time>2011-04-22T12:00:33Z</time>
      </trkpt>
      <trkpt lat="30.893401969224215" lon="-4.05677299015224">
        <ele>665.70000000000005</ele>
        <time>2011-04-22T12:00:38Z</time>
      </trkpt>
      <trkpt lat="30.893503976985812" lon="-4.056611973792315">
        <ele>665.20000000000005</ele>
        <time>2011-04-22T12:00:54Z</time>
      </trkpt>
      <trkpt lat="30.893550999462605" lon="-4.056507032364607">
        <ele>664.5</ele>
        <time>2011-04-22T12:00:58Z</time>
      </trkpt>
      <trkpt lat="30.893582012504339" lon="-4.05640703625977">
        <ele>664.79999999999995</ele>
        <time>2011-04-22T12:01:01Z</time>
      </trkpt>
      <trkpt lat="30.893630962818861" lon="-4.056311985477805">
        <ele>664.60000000000002</ele>
        <time>2011-04-22T12:01:04Z</time>
      </trkpt>
      <trkpt lat="30.893677985295653" lon="-4.056208971887827">
        <ele>664.20000000000005</ele>
        <time>2011-04-22T12:01:07Z</time>
      </trkpt>
      <trkpt lat="30.893730036914349" lon="-4.056049967184663">
        <ele>663.79999999999995</ele>
        <time>2011-04-22T12:01:11Z</time>
      </trkpt>
      <trkpt lat="30.893783010542393" lon="-4.055767999961972">
        <ele>663.70000000000005</ele>
        <time>2011-04-22T12:01:17Z</time>
      </trkpt>
      <trkpt lat="30.89384101331234" lon="-4.055588962510228">
        <ele>663.20000000000005</ele>
        <time>2011-04-22T12:01:21Z</time>
      </trkpt>
      <trkpt lat="30.893859034404159" lon="-4.055389976128936">
        <ele>662.60000000000002</ele>
        <time>2011-04-22T12:01:26Z</time>
      </trkpt>
      <trkpt lat="30.893855011090636" lon="-4.055257039144635">
        <ele>660.10000000000002</ele>
        <time>2011-04-22T12:01:30Z</time>
      </trkpt>
      <trkpt lat="30.893861968070269" lon="-4.055146984755993">
        <ele>659.79999999999995</ele>
        <time>2011-04-22T12:01:34Z</time>
      </trkpt>
      <trkpt lat="30.893912008032203" lon="-4.054998960345984">
        <ele>659.79999999999995</ele>
        <time>2011-04-22T12:01:38Z</time>
      </trkpt>
      <trkpt lat="30.894008986651897" lon="-4.054460003972054">
        <ele>659.39999999999998</ele>
        <time>2011-04-22T12:01:49Z</time>
      </trkpt>
      <trkpt lat="30.894051985815167" lon="-4.054348021745682">
        <ele>659.29999999999995</ele>
        <time>2011-04-22T12:01:51Z</time>
      </trkpt>
      <trkpt lat="30.894103031605482" lon="-4.054245008155704">
        <ele>659.20000000000005</ele>
        <time>2011-04-22T12:01:53Z</time>
      </trkpt>
      <trkpt lat="30.894197998568416" lon="-4.054102012887597">
        <ele>659</ele>
        <time>2011-04-22T12:01:56Z</time>
      </trkpt>
      <trkpt lat="30.894378963857889" lon="-4.053900009021163">
        <ele>660.60000000000002</ele>
        <time>2011-04-22T12:02:01Z</time>
      </trkpt>
      <trkpt lat="30.894536962732673" lon="-4.053767994046211">
        <ele>664.5</ele>
        <time>2011-04-22T12:02:05Z</time>
      </trkpt>
      <trkpt lat="30.894661014899611" lon="-4.05367998406291">
        <ele>666.79999999999995</ele>
        <time>2011-04-22T12:02:08Z</time>
      </trkpt>
      <trkpt lat="30.895556034520268" lon="-4.052996020764113">
        <ele>669</ele>
        <time>2011-04-22T12:02:27Z</time>
      </trkpt>
      <trkpt lat="30.895713027566671" lon="-4.052929971367121">
        <ele>668.89999999999998</ele>
        <time>2011-04-22T12:02:31Z</time>
      </trkpt>
      <trkpt lat="30.895835990086198" lon="-4.052821006625891">
        <ele>669.10000000000002</ele>
        <time>2011-04-22T12:02:35Z</time>
      </trkpt>
      <trkpt lat="30.896032964810729" lon="-4.05268999747932">
        <ele>669.5</ele>
        <time>2011-04-22T12:02:40Z</time>
      </trkpt>
      <trkpt lat="30.896424986422062" lon="-4.052310967817903">
        <ele>669.29999999999995</ele>
        <time>2011-04-22T12:02:51Z</time>
      </trkpt>
      <trkpt lat="30.896518025547266" lon="-4.05226000584662">
        <ele>669.5</ele>
        <time>2011-04-22T12:02:53Z</time>
      </trkpt>
      <trkpt lat="30.896619027480483" lon="-4.052219018340111">
        <ele>669.70000000000005</ele>
        <time>2011-04-22T12:02:55Z</time>
      </trkpt>
      <trkpt lat="30.896708965301514" lon="-4.052148023620248">
        <ele>669.79999999999995</ele>
        <time>2011-04-22T12:02:57Z</time>
      </trkpt>
      <trkpt lat="30.896841986104846" lon="-4.052027994766831">
        <ele>669.70000000000005</ele>
        <time>2011-04-22T12:03:00Z</time>
      </trkpt>
      <trkpt lat="30.897035021334887" lon="-4.051892962306738">
        <ele>670.29999999999995</ele>
        <time>2011-04-22T12:03:04Z</time>
      </trkpt>
      <trkpt lat="30.897113978862762" lon="-4.051801012828946">
        <ele>670</ele>
        <time>2011-04-22T12:03:06Z</time>
      </trkpt>
      <trkpt lat="30.897183967754245" lon="-4.051700010895729">
        <ele>669.89999999999998</ele>
        <time>2011-04-22T12:03:08Z</time>
      </trkpt>
      <trkpt lat="30.897256974130869" lon="-4.051625998690724">
        <ele>669.70000000000005</ele>
        <time>2011-04-22T12:03:10Z</time>
      </trkpt>
      <trkpt lat="30.897354958578944" lon="-4.051528014242649">
        <ele>670.29999999999995</ele>
        <time>2011-04-22T12:03:13Z</time>
      </trkpt>
      <trkpt lat="30.897425031289458" lon="-4.051376972347498">
        <ele>670.5</ele>
        <time>2011-04-22T12:03:16Z</time>
      </trkpt>
      <trkpt lat="30.897469036281109" lon="-4.05127102509141">
        <ele>670.39999999999998</ele>
        <time>2011-04-22T12:03:18Z</time>
      </trkpt>
      <trkpt lat="30.897544976323843" lon="-4.050890989601612">
        <ele>670.10000000000002</ele>
        <time>2011-04-22T12:03:24Z</time>
      </trkpt>
      <trkpt lat="30.897560985758901" lon="-4.050746988505125">
        <ele>670.5</ele>
        <time>2011-04-22T12:03:26Z</time>
      </trkpt>
      <trkpt lat="30.897570960223675" lon="-4.05045798048377">
        <ele>671.79999999999995</ele>
        <time>2011-04-22T12:03:30Z</time>
      </trkpt>
      <trkpt lat="30.897567020729184" lon="-4.050315991044045">
        <ele>672.29999999999995</ele>
        <time>2011-04-22T12:03:32Z</time>
      </trkpt>
      <trkpt lat="30.897529972717166" lon="-4.04996202327311">
        <ele>673.20000000000005</ele>
        <time>2011-04-22T12:03:37Z</time>
      </trkpt>
      <trkpt lat="30.897481022402644" lon="-4.049633033573628">
        <ele>674.10000000000002</ele>
        <time>2011-04-22T12:03:42Z</time>
      </trkpt>
      <trkpt lat="30.897485967725515" lon="-4.049494983628392">
        <ele>674.39999999999998</ele>
        <time>2011-04-22T12:03:44Z</time>
      </trkpt>
      <trkpt lat="30.897555034607649" lon="-4.049149984493852">
        <ele>675</ele>
        <time>2011-04-22T12:03:50Z</time>
      </trkpt>
      <trkpt lat="30.897668022662401" lon="-4.048906993120909">
        <ele>674.79999999999995</ele>
        <time>2011-04-22T12:03:56Z</time>
      </trkpt>
      <trkpt lat="30.897734994068742" lon="-4.048558976501226">
        <ele>674.20000000000005</ele>
        <time>2011-04-22T12:04:03Z</time>
      </trkpt>
      <trkpt lat="30.897805988788605" lon="-4.048386979848146">
        <ele>674.10000000000002</ele>
        <time>2011-04-22T12:04:07Z</time>
      </trkpt>
      <trkpt lat="30.897809006273746" lon="-4.048222023993731">
        <ele>674</ele>
        <time>2011-04-22T12:04:12Z</time>
      </trkpt>
      <trkpt lat="30.897790985181928" lon="-4.04809202067554">
        <ele>674.29999999999995</ele>
        <time>2011-04-22T12:04:15Z</time>
      </trkpt>
      <trkpt lat="30.897803977131844" lon="-4.047947013750672">
        <ele>674.39999999999998</ele>
        <time>2011-04-22T12:04:18Z</time>
      </trkpt>
      <trkpt lat="30.897875977680087" lon="-4.047711985185742">
        <ele>673.89999999999998</ele>
        <time>2011-04-22T12:04:22Z</time>
      </trkpt>
      <trkpt lat="30.897925011813641" lon="-4.047591034322977">
        <ele>673.5</ele>
        <time>2011-04-22T12:04:24Z</time>
      </trkpt>
      <trkpt lat="30.898051997646689" lon="-4.04733999632299">
        <ele>672.60000000000002</ele>
        <time>2011-04-22T12:04:28Z</time>
      </trkpt>
      <trkpt lat="30.89846296235919" lon="-4.046630971133709">
        <ele>670.70000000000005</ele>
        <time>2011-04-22T12:04:39Z</time>
      </trkpt>
      <trkpt lat="30.898599000647664" lon="-4.046313967555761">
        <ele>670.29999999999995</ele>
        <time>2011-04-22T12:04:45Z</time>
      </trkpt>
      <trkpt lat="30.898661026731133" lon="-4.046220006421208">
        <ele>670.5</ele>
        <time>2011-04-22T12:04:47Z</time>
      </trkpt>
      <trkpt lat="30.898801004514098" lon="-4.046024037525058">
        <ele>669.79999999999995</ele>
        <time>2011-04-22T12:04:51Z</time>
      </trkpt>
      <trkpt lat="30.898893037810922" lon="-4.04583502560854">
        <ele>669.20000000000005</ele>
        <time>2011-04-22T12:04:54Z</time>
      </trkpt>
      <trkpt lat="30.898936036974192" lon="-4.045713990926743">
        <ele>668.89999999999998</ele>
        <time>2011-04-22T12:04:56Z</time>
      </trkpt>
      <trkpt lat="30.899010971188545" lon="-4.045430012047291">
        <ele>667.89999999999998</ele>
        <time>2011-04-22T12:05:01Z</time>
      </trkpt>
      <trkpt lat="30.89906201697886" lon="-4.045208981260657">
        <ele>668.29999999999995</ele>
        <time>2011-04-22T12:05:05Z</time>
      </trkpt>
      <trkpt lat="30.899215992540121" lon="-4.044713024049997">
        <ele>666.89999999999998</ele>
        <time>2011-04-22T12:05:13Z</time>
      </trkpt>
      <trkpt lat="30.899243988096714" lon="-4.044508002698422">
        <ele>666.70000000000005</ele>
        <time>2011-04-22T12:05:16Z</time>
      </trkpt>
      <trkpt lat="30.899249017238617" lon="-4.044120004400611">
        <ele>666</ele>
        <time>2011-04-22T12:05:21Z</time>
      </trkpt>
      <trkpt lat="30.899263015016913" lon="-4.04227196238935">
        <ele>661.89999999999998</ele>
        <time>2011-04-22T12:05:42Z</time>
      </trkpt>
      <trkpt lat="30.899416990578175" lon="-4.041034961119294">
        <ele>660.60000000000002</ele>
        <time>2011-04-22T12:05:55Z</time>
      </trkpt>
      <trkpt lat="30.899397963657975" lon="-4.040881991386414">
        <ele>660.20000000000005</ele>
        <time>2011-04-22T12:05:57Z</time>
      </trkpt>
      <trkpt lat="30.899314982816577" lon="-4.040763974189758">
        <ele>656.60000000000002</ele>
        <time>2011-04-22T12:05:59Z</time>
      </trkpt>
      <trkpt lat="30.899241976439953" lon="-4.040686022490263">
        <ele>656</ele>
        <time>2011-04-22T12:06:01Z</time>
      </trkpt>
      <trkpt lat="30.899183973670006" lon="-4.04059398919344">
        <ele>656.29999999999995</ele>
        <time>2011-04-22T12:06:03Z</time>
      </trkpt>
      <trkpt lat="30.899136029183865" lon="-4.040483012795448">
        <ele>656.20000000000005</ele>
        <time>2011-04-22T12:06:05Z</time>
      </trkpt>
      <trkpt lat="30.899110967293382" lon="-4.040362983942032">
        <ele>655.79999999999995</ele>
        <time>2011-04-22T12:06:07Z</time>
      </trkpt>
      <trkpt lat="30.899112978950143" lon="-4.040241027250886">
        <ele>655.39999999999998</ele>
        <time>2011-04-22T12:06:09Z</time>
      </trkpt>
      <trkpt lat="30.89923501946032" lon="-4.039795026183128">
        <ele>654.20000000000005</ele>
        <time>2011-04-22T12:06:16Z</time>
      </trkpt>
      <trkpt lat="30.899271983653307" lon="-4.039697963744402">
        <ele>653.89999999999998</ele>
        <time>2011-04-22T12:06:18Z</time>
      </trkpt>
      <trkpt lat="30.899445991963148" lon="-4.039255985990167">
        <ele>652.79999999999995</ele>
        <time>2011-04-22T12:06:29Z</time>
      </trkpt>
      <trkpt lat="30.899809012189507" lon="-4.038624996319413">
        <ele>652.89999999999998</ele>
        <time>2011-04-22T12:06:39Z</time>
      </trkpt>
      <trkpt lat="30.899986959993839" lon="-4.038310004398227">
        <ele>653.10000000000002</ele>
        <time>2011-04-22T12:06:44Z</time>
      </trkpt>
      <trkpt lat="30.900043034926057" lon="-4.038174971938133">
        <ele>653.29999999999995</ele>
        <time>2011-04-22T12:06:46Z</time>
      </trkpt>
      <trkpt lat="30.900077987462282" lon="-4.038035999983549">
        <ele>653.5</ele>
        <time>2011-04-22T12:06:48Z</time>
      </trkpt>
      <trkpt lat="30.900109000504017" lon="-4.037567032501102">
        <ele>653.5</ele>
        <time>2011-04-22T12:06:56Z</time>
      </trkpt>
      <trkpt lat="30.900075975805521" lon="-4.037455972284079">
        <ele>652.5</ele>
        <time>2011-04-22T12:07:05Z</time>
      </trkpt>
      <trkpt lat="30.900004981085658" lon="-4.037366034463048">
        <ele>653.39999999999998</ele>
        <time>2011-04-22T12:07:10Z</time>
      </trkpt>
      <trkpt lat="30.899911019951105" lon="-4.037326974794269">
        <ele>652.29999999999995</ele>
        <time>2011-04-22T12:07:15Z</time>
      </trkpt>
      <trkpt lat="30.89981303550303" lon="-4.037262015044689">
        <ele>652.20000000000005</ele>
        <time>2011-04-22T12:07:19Z</time>
      </trkpt>
      <trkpt lat="30.899721002206206" lon="-4.037234019488096">
        <ele>650</ele>
        <time>2011-04-22T12:07:23Z</time>
      </trkpt>
      <trkpt lat="30.899614971131086" lon="-4.037116002291441">
        <ele>649</ele>
        <time>2011-04-22T12:07:28Z</time>
      </trkpt>
      <trkpt lat="30.899499971419573" lon="-4.036915004253388">
        <ele>648</ele>
        <time>2011-04-22T12:07:34Z</time>
      </trkpt>
      <trkpt lat="30.899448003619909" lon="-4.0367900300771">
        <ele>646.89999999999998</ele>
        <time>2011-04-22T12:07:37Z</time>
      </trkpt>
      <trkpt lat="30.899425959214568" lon="-4.036682993173599">
        <ele>646.5</ele>
        <time>2011-04-22T12:07:39Z</time>
      </trkpt>
      <trkpt lat="30.899420008063316" lon="-4.036485012620688">
        <ele>646</ele>
        <time>2011-04-22T12:07:42Z</time>
      </trkpt>
      <trkpt lat="30.899424031376839" lon="-4.0363410115242">
        <ele>645.5</ele>
        <time>2011-04-22T12:07:44Z</time>
      </trkpt>
      <trkpt lat="30.899454038590193" lon="-4.036102965474129">
        <ele>645</ele>
        <time>2011-04-22T12:07:47Z</time>
      </trkpt>
      <trkpt lat="30.89964103884995" lon="-4.035150026902556">
        <ele>646.89999999999998</ele>
        <time>2011-04-22T12:07:59Z</time>
      </trkpt>
      <trkpt lat="30.899787973612547" lon="-4.034763034433126">
        <ele>644.10000000000002</ele>
        <time>2011-04-22T12:08:06Z</time>
      </trkpt>
      <trkpt lat="30.899910014122725" lon="-4.034575028344989">
        <ele>646</ele>
        <time>2011-04-22T12:08:16Z</time>
      </trkpt>
      <trkpt lat="30.900010010227561" lon="-4.034553989768028">
        <ele>669.89999999999998</ele>
        <time>2011-04-22T12:11:17Z</time>
      </trkpt>
      <trkpt lat="30.900041023269296" lon="-4.034446030855179">
        <ele>669.70000000000005</ele>
        <time>2011-04-22T12:11:22Z</time>
      </trkpt>
      <trkpt lat="30.900014033541083" lon="-4.03434201143682">
        <ele>663.79999999999995</ele>
        <time>2011-04-22T12:11:26Z</time>
      </trkpt>
      <trkpt lat="30.899918982759118" lon="-4.034519959241152">
        <ele>665.70000000000005</ele>
        <time>2011-04-22T12:11:54Z</time>
      </trkpt>
      <trkpt lat="30.900019984692335" lon="-4.034532029181719">
        <ele>657.20000000000005</ele>
        <time>2011-04-22T14:35:31Z</time>
      </trkpt>
      <trkpt lat="30.900072958320379" lon="-4.034444019198418">
        <ele>658.39999999999998</ele>
        <time>2011-04-22T14:35:36Z</time>
      </trkpt>
      <trkpt lat="30.900122998282313" lon="-4.034353997558355">
        <ele>661.60000000000002</ele>
        <time>2011-04-22T14:35:52Z</time>
      </trkpt>
      <trkpt lat="30.900211008265615" lon="-4.034214019775391">
        <ele>670.70000000000005</ele>
        <time>2011-04-22T14:38:04Z</time>
      </trkpt>
      <trkpt lat="30.900388034060597" lon="-4.03402098454535">
        <ele>670.89999999999998</ele>
        <time>2011-04-22T14:38:11Z</time>
      </trkpt>
      <trkpt lat="30.900444025173783" lon="-4.033907996490598">
        <ele>670.39999999999998</ele>
        <time>2011-04-22T14:38:14Z</time>
      </trkpt>
      <trkpt lat="30.90048098936677" lon="-4.033786961808801">
        <ele>670</ele>
        <time>2011-04-22T14:38:17Z</time>
      </trkpt>
      <trkpt lat="30.900596994906664" lon="-4.033603984862566">
        <ele>670.29999999999995</ele>
        <time>2011-04-22T14:38:22Z</time>
      </trkpt>
      <trkpt lat="30.900708977133036" lon="-4.033465012907982">
        <ele>670.79999999999995</ele>
        <time>2011-04-22T14:38:26Z</time>
      </trkpt>
      <trkpt lat="30.900787012651563" lon="-4.033317994326353">
        <ele>670.70000000000005</ele>
        <time>2011-04-22T14:38:30Z</time>
      </trkpt>
      <trkpt lat="30.900817019864917" lon="-4.033156977966428">
        <ele>670.5</ele>
        <time>2011-04-22T14:38:34Z</time>
      </trkpt>
      <trkpt lat="30.900875022634864" lon="-4.033047007396817">
        <ele>670.60000000000002</ele>
        <time>2011-04-22T14:38:37Z</time>
      </trkpt>
      <trkpt lat="30.901007959619164" lon="-4.032867969945073">
        <ele>671</ele>
        <time>2011-04-22T14:38:42Z</time>
      </trkpt>
      <trkpt lat="30.901079038158059" lon="-4.032782977446914">
        <ele>671.29999999999995</ele>
        <time>2011-04-22T14:38:45Z</time>
      </trkpt>
      <trkpt lat="30.901121031492949" lon="-4.032678036019206">
        <ele>671.39999999999998</ele>
        <time>2011-04-22T14:38:48Z</time>
      </trkpt>
      <trkpt lat="30.901194959878922" lon="-4.032579967752099">
        <ele>671.5</ele>
        <time>2011-04-22T14:38:51Z</time>
      </trkpt>
      <trkpt lat="30.901344995945692" lon="-4.032488018274307">
        <ele>672.70000000000005</ele>
        <time>2011-04-22T14:38:55Z</time>
      </trkpt>
      <trkpt lat="30.901465024799109" lon="-4.03245197609067">
        <ele>673.89999999999998</ele>
        <time>2011-04-22T14:38:58Z</time>
      </trkpt>
      <trkpt lat="30.901587987318635" lon="-4.03242900967598">
        <ele>674.89999999999998</ele>
        <time>2011-04-22T14:39:01Z</time>
      </trkpt>
      <trkpt lat="30.901914965361357" lon="-4.032271010801196">
        <ele>676</ele>
        <time>2011-04-22T14:39:09Z</time>
      </trkpt>
      <trkpt lat="30.902000041678548" lon="-4.032205967232585">
        <ele>676</ele>
        <time>2011-04-22T14:39:11Z</time>
      </trkpt>
      <trkpt lat="30.90213599614799" lon="-4.032084010541439">
        <ele>675.89999999999998</ele>
        <time>2011-04-22T14:39:14Z</time>
      </trkpt>
      <trkpt lat="30.902540003880858" lon="-4.031816041097045">
        <ele>675.79999999999995</ele>
        <time>2011-04-22T14:39:22Z</time>
      </trkpt>
      <trkpt lat="30.902617033571005" lon="-4.03172099031508">
        <ele>676</ele>
        <time>2011-04-22T14:39:24Z</time>
      </trkpt>
      <trkpt lat="30.902752988040447" lon="-4.031502977013588">
        <ele>676.10000000000002</ele>
        <time>2011-04-22T14:39:28Z</time>
      </trkpt>
      <trkpt lat="30.902859019115567" lon="-4.031402980908752">
        <ele>676.29999999999995</ele>
        <time>2011-04-22T14:39:31Z</time>
      </trkpt>
      <trkpt lat="30.903004026040435" lon="-4.031302984803915">
        <ele>676.10000000000002</ele>
        <time>2011-04-22T14:39:35Z</time>
      </trkpt>
      <trkpt lat="30.90308097191155" lon="-4.03122796677053">
        <ele>676</ele>
        <time>2011-04-22T14:39:37Z</time>
      </trkpt>
      <trkpt lat="30.903327986598015" lon="-4.03094700537622">
        <ele>675.79999999999995</ele>
        <time>2011-04-22T14:39:43Z</time>
      </trkpt>
      <trkpt lat="30.903394035995007" lon="-4.030830999836326">
        <ele>675.79999999999995</ele>
        <time>2011-04-22T14:39:45Z</time>
      </trkpt>
      <trkpt lat="30.903855040669441" lon="-4.029906978830695">
        <ele>675.10000000000002</ele>
        <time>2011-04-22T14:40:01Z</time>
      </trkpt>
      <trkpt lat="30.903889993205667" lon="-4.029802037402988">
        <ele>674.89999999999998</ele>
        <time>2011-04-22T14:40:03Z</time>
      </trkpt>
      <trkpt lat="30.903908014297485" lon="-4.029630962759256">
        <ele>673.39999999999998</ele>
        <time>2011-04-22T14:40:06Z</time>
      </trkpt>
      <trkpt lat="30.903941038995981" lon="-4.029515963047743">
        <ele>673.39999999999998</ele>
        <time>2011-04-22T14:40:08Z</time>
      </trkpt>
      <trkpt lat="30.904007004573941" lon="-4.029357964172959">
        <ele>673.29999999999995</ele>
        <time>2011-04-22T14:40:11Z</time>
      </trkpt>
      <trkpt lat="30.90402795933187" lon="-4.029246987774968">
        <ele>673.10000000000002</ele>
        <time>2011-04-22T14:40:13Z</time>
      </trkpt>
      <trkpt lat="30.904001975432038" lon="-4.029117990285158">
        <ele>672.70000000000005</ele>
        <time>2011-04-22T14:40:16Z</time>
      </trkpt>
      <trkpt lat="30.903940033167601" lon="-4.029005002230406">
        <ele>671</ele>
        <time>2011-04-22T14:40:19Z</time>
      </trkpt>
      <trkpt lat="30.903960987925529" lon="-4.028869969770312">
        <ele>670.89999999999998</ele>
        <time>2011-04-22T14:40:22Z</time>
      </trkpt>
      <trkpt lat="30.904095014557242" lon="-4.028695039451122">
        <ele>670.89999999999998</ele>
        <time>2011-04-22T14:40:26Z</time>
      </trkpt>
      <trkpt lat="30.904177995398641" lon="-4.028537962585688">
        <ele>671.29999999999995</ele>
        <time>2011-04-22T14:40:29Z</time>
      </trkpt>
      <trkpt lat="30.904222000390291" lon="-4.028427992016077">
        <ele>671.39999999999998</ele>
        <time>2011-04-22T14:40:31Z</time>
      </trkpt>
      <trkpt lat="30.904381005093455" lon="-4.028038987889886">
        <ele>671.5</ele>
        <time>2011-04-22T14:40:38Z</time>
      </trkpt>
      <trkpt lat="30.904460968449712" lon="-4.027946032583714">
        <ele>671.60000000000002</ele>
        <time>2011-04-22T14:40:41Z</time>
      </trkpt>
      <trkpt lat="30.904539003968239" lon="-4.027889035642147">
        <ele>672</ele>
        <time>2011-04-22T14:40:44Z</time>
      </trkpt>
      <trkpt lat="30.904607987031341" lon="-4.027779987081885">
        <ele>672.39999999999998</ele>
        <time>2011-04-22T14:40:48Z</time>
      </trkpt>
      <trkpt lat="30.904674958437681" lon="-4.02770203538239">
        <ele>672.20000000000005</ele>
        <time>2011-04-22T14:40:51Z</time>
      </trkpt>
      <trkpt lat="30.90479901060462" lon="-4.027602961286902">
        <ele>672.60000000000002</ele>
        <time>2011-04-22T14:40:56Z</time>
      </trkpt>
      <trkpt lat="30.904887020587921" lon="-4.027534984052181">
        <ele>672.5</ele>
        <time>2011-04-22T14:41:00Z</time>
      </trkpt>
      <trkpt lat="30.905023980885744" lon="-4.027399029582739">
        <ele>672.5</ele>
        <time>2011-04-22T14:41:05Z</time>
      </trkpt>
      <trkpt lat="30.905126994475722" lon="-4.027324011549354">
        <ele>672.5</ele>
        <time>2011-04-22T14:41:09Z</time>
      </trkpt>
      <trkpt lat="30.905350958928466" lon="-4.027070961892605">
        <ele>673</ele>
        <time>2011-04-22T14:41:18Z</time>
      </trkpt>
      <trkpt lat="30.905427988618612" lon="-4.026997033506632">
        <ele>673.29999999999995</ele>
        <time>2011-04-22T14:41:21Z</time>
      </trkpt>
      <trkpt lat="30.905527984723449" lon="-4.026910029351711">
        <ele>673.29999999999995</ele>
        <time>2011-04-22T14:41:24Z</time>
      </trkpt>
      <trkpt lat="30.905699981376529" lon="-4.026620015501976">
        <ele>673.29999999999995</ele>
        <time>2011-04-22T14:41:31Z</time>
      </trkpt>
      <trkpt lat="30.905730994418263" lon="-4.026489006355405">
        <ele>673.20000000000005</ele>
        <time>2011-04-22T14:41:34Z</time>
      </trkpt>
      <trkpt lat="30.905716996639967" lon="-4.026301000267267">
        <ele>673</ele>
        <time>2011-04-22T14:41:38Z</time>
      </trkpt>
      <trkpt lat="30.905753960832953" lon="-4.026169991120696">
        <ele>673.10000000000002</ele>
        <time>2011-04-22T14:41:41Z</time>
      </trkpt>
      <trkpt lat="30.906009022146463" lon="-4.025926999747753">
        <ele>673</ele>
        <time>2011-04-22T14:41:53Z</time>
      </trkpt>
      <trkpt lat="30.905983038246632" lon="-4.025752991437912">
        <ele>687</ele>
        <time>2011-04-22T14:45:18Z</time>
      </trkpt>
      <trkpt lat="30.906211026012897" lon="-4.025939991697669">
        <ele>677.29999999999995</ele>
        <time>2011-04-22T15:08:01Z</time>
      </trkpt>
      <trkpt lat="30.906041963025928" lon="-4.025885006412864">
        <ele>681.10000000000002</ele>
        <time>2011-04-22T15:10:27Z</time>
      </trkpt>
      <trkpt lat="30.905954958871007" lon="-4.02585600502789">
        <ele>681.89999999999998</ele>
        <time>2011-04-22T15:10:41Z</time>
      </trkpt>
      <trkpt lat="30.905816992744803" lon="-4.025845024734736">
        <ele>658.29999999999995</ele>
        <time>2011-04-22T15:29:06Z</time>
      </trkpt>
      <trkpt lat="30.905908020213246" lon="-4.025799008086324">
        <ele>659.70000000000005</ele>
        <time>2011-04-22T15:29:20Z</time>
      </trkpt>
      <trkpt lat="30.906018996611238" lon="-4.025831026956439">
        <ele>670.29999999999995</ele>
        <time>2011-04-22T15:31:07Z</time>
      </trkpt>
      <trkpt lat="30.906111029908061" lon="-4.025839995592833">
        <ele>674.5</ele>
        <time>2011-04-22T15:31:25Z</time>
      </trkpt>
      <trkpt lat="30.90628101490438" lon="-4.025861034169793">
        <ele>679.60000000000002</ele>
        <time>2011-04-22T15:33:03Z</time>
      </trkpt>
      <trkpt lat="30.90623801574111" lon="-4.025753997266293">
        <ele>667.79999999999995</ele>
        <time>2011-04-22T15:39:17Z</time>
      </trkpt>
      <trkpt lat="30.906075993552804" lon="-4.025758020579815">
        <ele>651.5</ele>
        <time>2011-04-22T15:40:36Z</time>
      </trkpt>
      <trkpt lat="30.906204991042614" lon="-4.025724995881319">
        <ele>664.79999999999995</ele>
        <time>2011-04-22T15:45:54Z</time>
      </trkpt>
      <trkpt lat="30.906295012682676" lon="-4.025712003931403">
        <ele>671.5</ele>
        <time>2011-04-22T15:46:27Z</time>
      </trkpt>
      <trkpt lat="30.906242961063981" lon="-4.025599015876651">
        <ele>682.29999999999995</ele>
        <time>2011-04-22T16:15:33Z</time>
      </trkpt>
      <trkpt lat="30.906280009075999" lon="-4.025496002286673">
        <ele>681.5</ele>
        <time>2011-04-22T16:15:39Z</time>
      </trkpt>
      <trkpt lat="30.906331976875663" lon="-4.025398017838597">
        <ele>680.79999999999995</ele>
        <time>2011-04-22T16:15:43Z</time>
      </trkpt>
      <trkpt lat="30.906404983252287" lon="-4.025305984541774">
        <ele>680.39999999999998</ele>
        <time>2011-04-22T16:15:47Z</time>
      </trkpt>
      <trkpt lat="30.907994024455547" lon="-4.023440005257726">
        <ele>674.79999999999995</ele>
        <time>2011-04-22T16:16:31Z</time>
      </trkpt>
      <trkpt lat="30.908196028321981" lon="-4.023269014433026">
        <ele>673</ele>
        <time>2011-04-22T16:16:35Z</time>
      </trkpt>
      <trkpt lat="30.90845100581646" lon="-4.023013031110168">
        <ele>671.39999999999998</ele>
        <time>2011-04-22T16:16:41Z</time>
      </trkpt>
      <trkpt lat="30.908512026071548" lon="-4.022927032783628">
        <ele>671</ele>
        <time>2011-04-22T16:16:43Z</time>
      </trkpt>
      <trkpt lat="30.908555025234818" lon="-4.022826030850411">
        <ele>671.89999999999998</ele>
        <time>2011-04-22T16:16:45Z</time>
      </trkpt>
      <trkpt lat="30.908609004691243" lon="-4.022641964256764">
        <ele>673.60000000000002</ele>
        <time>2011-04-22T16:16:48Z</time>
      </trkpt>
      <trkpt lat="30.908669019117951" lon="-4.02252403087914">
        <ele>673.10000000000002</ele>
        <time>2011-04-22T16:16:50Z</time>
      </trkpt>
      <trkpt lat="30.908802039921284" lon="-4.022284979000688">
        <ele>672.10000000000002</ele>
        <time>2011-04-22T16:16:54Z</time>
      </trkpt>
      <trkpt lat="30.909081995487213" lon="-4.021413009613752">
        <ele>671.39999999999998</ele>
        <time>2011-04-22T16:17:05Z</time>
      </trkpt>
      <trkpt lat="30.909392964094877" lon="-4.020894002169371">
        <ele>669.10000000000002</ele>
        <time>2011-04-22T16:17:13Z</time>
      </trkpt>
      <trkpt lat="30.909479968249798" lon="-4.020759975537658">
        <ele>668.70000000000005</ele>
        <time>2011-04-22T16:17:16Z</time>
      </trkpt>
      <trkpt lat="30.909552974626422" lon="-4.020589990541339">
        <ele>668.29999999999995</ele>
        <time>2011-04-22T16:17:20Z</time>
      </trkpt>
      <trkpt lat="30.909621035680175" lon="-4.020503992214799">
        <ele>668.39999999999998</ele>
        <time>2011-04-22T16:17:22Z</time>
      </trkpt>
      <trkpt lat="30.909720025956631" lon="-4.020436014980078">
        <ele>668.29999999999995</ele>
        <time>2011-04-22T16:17:24Z</time>
      </trkpt>
      <trkpt lat="30.909882970154285" lon="-4.020342975854874">
        <ele>668</ele>
        <time>2011-04-22T16:17:27Z</time>
      </trkpt>
      <trkpt lat="30.910035017877817" lon="-4.020202998071909">
        <ele>668.10000000000002</ele>
        <time>2011-04-22T16:17:30Z</time>
      </trkpt>
      <trkpt lat="30.910112969577312" lon="-4.020107025280595">
        <ele>666.70000000000005</ele>
        <time>2011-04-22T16:17:32Z</time>
      </trkpt>
      <trkpt lat="30.910281026735902" lon="-4.019781975075603">
        <ele>664.29999999999995</ele>
        <time>2011-04-22T16:17:37Z</time>
      </trkpt>
      <trkpt lat="30.910445982590318" lon="-4.01941099204123">
        <ele>661.89999999999998</ele>
        <time>2011-04-22T16:17:42Z</time>
      </trkpt>
      <trkpt lat="30.910489987581968" lon="-4.019262967631221">
        <ele>660.89999999999998</ele>
        <time>2011-04-22T16:17:44Z</time>
      </trkpt>
      <trkpt lat="30.910507002845407" lon="-4.01913296431303">
        <ele>659.79999999999995</ele>
        <time>2011-04-22T16:17:46Z</time>
      </trkpt>
      <trkpt lat="30.910457968711853" lon="-4.018767010420561">
        <ele>654.79999999999995</ele>
        <time>2011-04-22T16:17:52Z</time>
      </trkpt>
      <trkpt lat="30.910387979820371" lon="-4.018560983240604">
        <ele>649.5</ele>
        <time>2011-04-22T16:17:55Z</time>
      </trkpt>
      <trkpt lat="30.910209026187658" lon="-4.018102996051312">
        <ele>640.79999999999995</ele>
        <time>2011-04-22T16:18:01Z</time>
      </trkpt>
      <trkpt lat="30.91010601259768" lon="-4.017892023548484">
        <ele>637.20000000000005</ele>
        <time>2011-04-22T16:18:04Z</time>
      </trkpt>
      <trkpt lat="30.909689012914896" lon="-4.016714030876756">
        <ele>628.89999999999998</ele>
        <time>2011-04-22T16:18:19Z</time>
      </trkpt>
      <trkpt lat="30.90965498238802" lon="-4.016613028943539">
        <ele>628.5</ele>
        <time>2011-04-22T16:18:20Z</time>
      </trkpt>
      <trkpt lat="30.909155001863837" lon="-4.015065981075168">
        <ele>621.60000000000002</ele>
        <time>2011-04-22T16:18:36Z</time>
      </trkpt>
      <trkpt lat="30.909072021022439" lon="-4.014907982200384">
        <ele>620.89999999999998</ele>
        <time>2011-04-22T16:18:38Z</time>
      </trkpt>
      <trkpt lat="30.908969007432461" lon="-4.014774039387703">
        <ele>620.10000000000002</ele>
        <time>2011-04-22T16:18:40Z</time>
      </trkpt>
      <trkpt lat="30.908652003854513" lon="-4.014512021094561">
        <ele>618.60000000000002</ele>
        <time>2011-04-22T16:18:45Z</time>
      </trkpt>
      <trkpt lat="30.908093014732003" lon="-4.013652037829161">
        <ele>617.20000000000005</ele>
        <time>2011-04-22T16:18:55Z</time>
      </trkpt>
      <trkpt lat="30.907349959015846" lon="-4.012425011023879">
        <ele>615.20000000000005</ele>
        <time>2011-04-22T16:19:08Z</time>
      </trkpt>
      <trkpt lat="30.907305032014847" lon="-4.012329960241914">
        <ele>615.20000000000005</ele>
        <time>2011-04-22T16:19:09Z</time>
      </trkpt>
      <trkpt lat="30.907274018973112" lon="-4.012230969965458">
        <ele>615.20000000000005</ele>
        <time>2011-04-22T16:19:10Z</time>
      </trkpt>
      <trkpt lat="30.90724803507328" lon="-4.012023014947772">
        <ele>616.79999999999995</ele>
        <time>2011-04-22T16:19:12Z</time>
      </trkpt>
      <trkpt lat="30.906866993755102" lon="-4.009034028276801">
        <ele>622.89999999999998</ele>
        <time>2011-04-22T16:19:38Z</time>
      </trkpt>
      <trkpt lat="30.90686397626996" lon="-4.008910981938243">
        <ele>623</ele>
        <time>2011-04-22T16:19:39Z</time>
      </trkpt>
      <trkpt lat="30.906867999583483" lon="-4.008789025247097">
        <ele>623.20000000000005</ele>
        <time>2011-04-22T16:19:40Z</time>
      </trkpt>
      <trkpt lat="30.906910998746753" lon="-4.008339000865817">
        <ele>623.79999999999995</ele>
        <time>2011-04-22T16:19:44Z</time>
      </trkpt>
      <trkpt lat="30.90692600235343" lon="-4.008222995325923">
        <ele>624.60000000000002</ele>
        <time>2011-04-22T16:19:45Z</time>
      </trkpt>
      <trkpt lat="30.906947962939739" lon="-4.008112018927932">
        <ele>625.20000000000005</ele>
        <time>2011-04-22T16:19:46Z</time>
      </trkpt>
      <trkpt lat="30.907020969316363" lon="-4.007793003693223">
        <ele>626.60000000000002</ele>
        <time>2011-04-22T16:19:49Z</time>
      </trkpt>
      <trkpt lat="30.907025998458266" lon="-4.007685966789722">
        <ele>625.89999999999998</ele>
        <time>2011-04-22T16:19:50Z</time>
      </trkpt>
      <trkpt lat="30.907030021771789" lon="-4.007149022072554">
        <ele>627.5</ele>
        <time>2011-04-22T16:19:55Z</time>
      </trkpt>
      <trkpt lat="30.907003032043576" lon="-4.006813997402787">
        <ele>627.39999999999998</ele>
        <time>2011-04-22T16:19:58Z</time>
      </trkpt>
      <trkpt lat="30.907008983194828" lon="-4.006704026833177">
        <ele>627.39999999999998</ele>
        <time>2011-04-22T16:19:59Z</time>
      </trkpt>
      <trkpt lat="30.90703303925693" lon="-4.006480984389782">
        <ele>627.5</ele>
        <time>2011-04-22T16:20:01Z</time>
      </trkpt>
      <trkpt lat="30.907145021483302" lon="-4.005642961710692">
        <ele>629.10000000000002</ele>
        <time>2011-04-22T16:20:08Z</time>
      </trkpt>
      <trkpt lat="30.907138986513019" lon="-4.005523016676307">
        <ele>629.20000000000005</ele>
        <time>2011-04-22T16:20:09Z</time>
      </trkpt>
      <trkpt lat="30.907037984579802" lon="-4.004518026486039">
        <ele>635.5</ele>
        <time>2011-04-22T16:20:17Z</time>
      </trkpt>
      <trkpt lat="30.906953997910023" lon="-4.004115024581552">
        <ele>636.29999999999995</ele>
        <time>2011-04-22T16:20:20Z</time>
      </trkpt>
      <trkpt lat="30.906779989600182" lon="-4.003507001325488">
        <ele>638.5</ele>
        <time>2011-04-22T16:20:25Z</time>
      </trkpt>
      <trkpt lat="30.906760962679982" lon="-4.003397030755878">
        <ele>638.70000000000005</ele>
        <time>2011-04-22T16:20:26Z</time>
      </trkpt>
      <trkpt lat="30.906729027628899" lon="-4.003105005249381">
        <ele>640.70000000000005</ele>
        <time>2011-04-22T16:20:29Z</time>
      </trkpt>
      <trkpt lat="30.906665995717049" lon="-4.002627991139889">
        <ele>643.5</ele>
        <time>2011-04-22T16:20:35Z</time>
      </trkpt>
      <trkpt lat="30.906620984897017" lon="-4.002493964508176">
        <ele>643.10000000000002</ele>
        <time>2011-04-22T16:20:37Z</time>
      </trkpt>
      <trkpt lat="30.906558958813548" lon="-4.002363961189985">
        <ele>642.79999999999995</ele>
        <time>2011-04-22T16:20:39Z</time>
      </trkpt>
      <trkpt lat="30.906470026820898" lon="-4.002252984791994">
        <ele>643.10000000000002</ele>
        <time>2011-04-22T16:20:41Z</time>
      </trkpt>
      <trkpt lat="30.906355027109385" lon="-4.002195987850428">
        <ele>642.79999999999995</ele>
        <time>2011-04-22T16:20:43Z</time>
      </trkpt>
      <trkpt lat="30.906245978549123" lon="-4.002206968143582">
        <ele>642.10000000000002</ele>
        <time>2011-04-22T16:20:45Z</time>
      </trkpt>
      <trkpt lat="30.906168026849627" lon="-4.002274023368955">
        <ele>641.60000000000002</ele>
        <time>2011-04-22T16:20:47Z</time>
      </trkpt>
      <trkpt lat="30.906150005757809" lon="-4.002414001151919">
        <ele>639.79999999999995</ele>
        <time>2011-04-22T16:20:50Z</time>
      </trkpt>
      <trkpt lat="30.906285960227251" lon="-4.002550039440393">
        <ele>639.89999999999998</ele>
        <time>2011-04-22T16:20:54Z</time>
      </trkpt>
      <trkpt lat="30.906384028494358" lon="-4.002555990591645">
        <ele>641.20000000000005</ele>
        <time>2011-04-22T16:20:56Z</time>
      </trkpt>
      <trkpt lat="30.906539009884" lon="-4.002667972818017">
        <ele>641.39999999999998</ele>
        <time>2011-04-22T16:21:00Z</time>
      </trkpt>
      <trkpt lat="30.906718969345093" lon="-4.002904007211328">
        <ele>640.89999999999998</ele>
        <time>2011-04-22T16:21:04Z</time>
      </trkpt>
      <trkpt lat="30.90688400901854" lon="-4.003040967509151">
        <ele>640.20000000000005</ele>
        <time>2011-04-22T16:21:07Z</time>
      </trkpt>
      <trkpt lat="30.906972019001842" lon="-4.003178011626005">
        <ele>639.70000000000005</ele>
        <time>2011-04-22T16:21:09Z</time>
      </trkpt>
      <trkpt lat="30.90703203342855" lon="-4.003366017714143">
        <ele>639.20000000000005</ele>
        <time>2011-04-22T16:21:11Z</time>
      </trkpt>
      <trkpt lat="30.907053994014859" lon="-4.003469031304121">
        <ele>639</ele>
        <time>2011-04-22T16:21:12Z</time>
      </trkpt>
      <trkpt lat="30.907109985128045" lon="-4.003795003518462">
        <ele>638.29999999999995</ele>
        <time>2011-04-22T16:21:15Z</time>
      </trkpt>
      <trkpt lat="30.90716497041285" lon="-4.004247039556503">
        <ele>637.20000000000005</ele>
        <time>2011-04-22T16:21:19Z</time>
      </trkpt>
      <trkpt lat="30.907172011211514" lon="-4.004364972934127">
        <ele>636.89999999999998</ele>
        <time>2011-04-22T16:21:20Z</time>
      </trkpt>
      <trkpt lat="30.907176034525037" lon="-4.004483995959163">
        <ele>636.5</ele>
        <time>2011-04-22T16:21:21Z</time>
      </trkpt>
      <trkpt lat="30.907166982069612" lon="-4.005654025822878">
        <ele>634.39999999999998</ele>
        <time>2011-04-22T16:21:31Z</time>
      </trkpt>
      <trkpt lat="30.907234037294984" lon="-4.006427004933357">
        <ele>633.5</ele>
        <time>2011-04-22T16:21:38Z</time>
      </trkpt>
      <trkpt lat="30.907221967354417" lon="-4.006533036008477">
        <ele>633.39999999999998</ele>
        <time>2011-04-22T16:21:39Z</time>
      </trkpt>
      <trkpt lat="30.907084001228213" lon="-4.007702982053161">
        <ele>631.20000000000005</ele>
        <time>2011-04-22T16:21:50Z</time>
      </trkpt>
      <trkpt lat="30.907072015106678" lon="-4.00888298638165">
        <ele>645.10000000000002</ele>
        <time>2011-04-22T16:22:51Z</time>
      </trkpt>
      <trkpt lat="30.907060028985143" lon="-4.008987005800009">
        <ele>656.29999999999995</ele>
        <time>2011-04-22T16:32:00Z</time>
      </trkpt>
      <trkpt lat="30.907065980136395" lon="-4.009203007444739">
        <ele>656.20000000000005</ele>
        <time>2011-04-22T16:32:07Z</time>
      </trkpt>
      <trkpt lat="30.907057011500001" lon="-4.009318007156253">
        <ele>656</ele>
        <time>2011-04-22T16:32:09Z</time>
      </trkpt>
      <trkpt lat="30.906988028436899" lon="-4.009438036009669">
        <ele>655.70000000000005</ele>
        <time>2011-04-22T16:32:12Z</time>
      </trkpt>
      <trkpt lat="30.906885014846921" lon="-4.009425966069102">
        <ele>656.5</ele>
        <time>2011-04-22T16:32:15Z</time>
      </trkpt>
      <trkpt lat="30.906849978491664" lon="-4.009309038519859">
        <ele>657.10000000000002</ele>
        <time>2011-04-22T16:32:18Z</time>
      </trkpt>
      <trkpt lat="30.906850984320045" lon="-4.009160008281469">
        <ele>657.70000000000005</ele>
        <time>2011-04-22T16:32:23Z</time>
      </trkpt>
      <trkpt lat="30.907033961266279" lon="-4.008233975619078">
        <ele>646.29999999999995</ele>
        <time>2011-04-22T16:41:06Z</time>
      </trkpt>
      <trkpt lat="30.907074026763439" lon="-4.007761990651488">
        <ele>646.60000000000002</ele>
        <time>2011-04-22T16:41:12Z</time>
      </trkpt>
      <trkpt lat="30.907233031466603" lon="-4.007253963500261">
        <ele>646.89999999999998</ele>
        <time>2011-04-22T16:41:19Z</time>
      </trkpt>
      <trkpt lat="30.90733403339982" lon="-4.007021030411124">
        <ele>647</ele>
        <time>2011-04-22T16:41:22Z</time>
      </trkpt>
      <trkpt lat="30.907370997592807" lon="-4.006865965202451">
        <ele>647.20000000000005</ele>
        <time>2011-04-22T16:41:24Z</time>
      </trkpt>
      <trkpt lat="30.907557997852564" lon="-4.005684033036232">
        <ele>647.70000000000005</ele>
        <time>2011-04-22T16:41:40Z</time>
      </trkpt>
      <trkpt lat="30.907551040872931" lon="-4.005453027784824">
        <ele>647.79999999999995</ele>
        <time>2011-04-22T16:41:43Z</time>
      </trkpt>
      <trkpt lat="30.907197995111346" lon="-4.003571961075068">
        <ele>647.79999999999995</ele>
        <time>2011-04-22T16:42:08Z</time>
      </trkpt>
      <trkpt lat="30.907124988734722" lon="-4.003359982743859">
        <ele>647.89999999999998</ele>
        <time>2011-04-22T16:42:12Z</time>
      </trkpt>
      <trkpt lat="30.907068997621536" lon="-4.003269039094448">
        <ele>648</ele>
        <time>2011-04-22T16:42:14Z</time>
      </trkpt>
      <trkpt lat="30.906993979588151" lon="-4.003211036324501">
        <ele>649.89999999999998</ele>
        <time>2011-04-22T16:42:16Z</time>
      </trkpt>
      <trkpt lat="30.906892977654934" lon="-4.003249006345868">
        <ele>652.20000000000005</ele>
        <time>2011-04-22T16:42:19Z</time>
      </trkpt>
      <trkpt lat="30.90690596960485" lon="-4.003404993563891">
        <ele>653.60000000000002</ele>
        <time>2011-04-22T16:42:22Z</time>
      </trkpt>
      <trkpt lat="30.906941005960107" lon="-4.003528039902449">
        <ele>654.10000000000002</ele>
        <time>2011-04-22T16:42:24Z</time>
      </trkpt>
      <trkpt lat="30.906985010951757" lon="-4.003772959113121">
        <ele>654.70000000000005</ele>
        <time>2011-04-22T16:42:28Z</time>
      </trkpt>
      <trkpt lat="30.90703496709466" lon="-4.00387697853148">
        <ele>654.79999999999995</ele>
        <time>2011-04-22T16:42:30Z</time>
      </trkpt>
      <trkpt lat="30.907115014269948" lon="-4.003945961594582">
        <ele>654.79999999999995</ele>
        <time>2011-04-22T16:42:32Z</time>
      </trkpt>
      <trkpt lat="30.907209981232882" lon="-4.003959037363529">
        <ele>654.89999999999998</ele>
        <time>2011-04-22T16:42:34Z</time>
      </trkpt>
      <trkpt lat="30.907274018973112" lon="-4.00385401211679">
        <ele>655.20000000000005</ele>
        <time>2011-04-22T16:42:37Z</time>
      </trkpt>
      <trkpt lat="30.90724803507328" lon="-4.003732977434993">
        <ele>655</ele>
        <time>2011-04-22T16:42:39Z</time>
      </trkpt>
      <trkpt lat="30.907174022868276" lon="-4.003501972183585">
        <ele>654.70000000000005</ele>
        <time>2011-04-22T16:42:42Z</time>
      </trkpt>
      <trkpt lat="30.907105961814523" lon="-4.003371968865395">
        <ele>654.39999999999998</ele>
        <time>2011-04-22T16:42:44Z</time>
      </trkpt>
      <trkpt lat="30.907029015943408" lon="-4.003288988023996">
        <ele>654.70000000000005</ele>
        <time>2011-04-22T16:42:46Z</time>
      </trkpt>
      <trkpt lat="30.906944023445249" lon="-4.003222016617656">
        <ele>654.89999999999998</ele>
        <time>2011-04-22T16:42:48Z</time>
      </trkpt>
      <trkpt lat="30.906900018453598" lon="-4.003105005249381">
        <ele>654.89999999999998</ele>
        <time>2011-04-22T16:42:50Z</time>
      </trkpt>
      <trkpt lat="30.906874034553766" lon="-4.002760006114841">
        <ele>654.89999999999998</ele>
        <time>2011-04-22T16:42:55Z</time>
      </trkpt>
      <trkpt lat="30.90684100985527" lon="-4.002640983089805">
        <ele>654.79999999999995</ele>
        <time>2011-04-22T16:42:57Z</time>
      </trkpt>
      <trkpt lat="30.90677403844893" lon="-4.002519026398659">
        <ele>654.70000000000005</ele>
        <time>2011-04-22T16:42:59Z</time>
      </trkpt>
      <trkpt lat="30.90666800737381" lon="-4.002408972010016">
        <ele>655.20000000000005</ele>
        <time>2011-04-22T16:43:01Z</time>
      </trkpt>
      <trkpt lat="30.906485030427575" lon="-4.002294978126884">
        <ele>656.29999999999995</ele>
        <time>2011-04-22T16:43:04Z</time>
      </trkpt>
      <trkpt lat="30.906296018511057" lon="-4.002225995063782">
        <ele>656.10000000000002</ele>
        <time>2011-04-22T16:43:07Z</time>
      </trkpt>
      <trkpt lat="30.906161991879344" lon="-4.002202022820711">
        <ele>656.10000000000002</ele>
        <time>2011-04-22T16:43:09Z</time>
      </trkpt>
      <trkpt lat="30.905665028840303" lon="-4.002158017829061">
        <ele>655.39999999999998</ele>
        <time>2011-04-22T16:43:16Z</time>
      </trkpt>
      <trkpt lat="30.905526978895068" lon="-4.002117030322552">
        <ele>655.79999999999995</ele>
        <time>2011-04-22T16:43:18Z</time>
      </trkpt>
      <trkpt lat="30.905408961698413" lon="-4.002022985368967">
        <ele>656.39999999999998</ele>
        <time>2011-04-22T16:43:20Z</time>
      </trkpt>
      <trkpt lat="30.905303014442325" lon="-4.001911003142595">
        <ele>657.20000000000005</ele>
        <time>2011-04-22T16:43:22Z</time>
      </trkpt>
      <trkpt lat="30.905227996408939" lon="-4.001804972067475">
        <ele>657.20000000000005</ele>
        <time>2011-04-22T16:43:24Z</time>
      </trkpt>
      <trkpt lat="30.905210981145501" lon="-4.001676980406046">
        <ele>657.10000000000002</ele>
        <time>2011-04-22T16:43:26Z</time>
      </trkpt>
      <trkpt lat="30.905282981693745" lon="-4.001549994572997">
        <ele>657.79999999999995</ele>
        <time>2011-04-22T16:43:28Z</time>
      </trkpt>
      <trkpt lat="30.905728982761502" lon="-4.00091196410358">
        <ele>660.89999999999998</ele>
        <time>2011-04-22T16:43:36Z</time>
      </trkpt>
      <trkpt lat="30.906341029331088" lon="-3.999953996390104">
        <ele>664.79999999999995</ele>
        <time>2011-04-22T16:43:47Z</time>
      </trkpt>
      <trkpt lat="30.906388973817229" lon="-3.999861041083932">
        <ele>665.29999999999995</ele>
        <time>2011-04-22T16:43:48Z</time>
      </trkpt>
      <trkpt lat="30.9066909737885" lon="-3.999208007007837">
        <ele>667.60000000000002</ele>
        <time>2011-04-22T16:43:55Z</time>
      </trkpt>
      <trkpt lat="30.907149966806173" lon="-3.998008975759149">
        <ele>663.70000000000005</ele>
        <time>2011-04-22T16:44:08Z</time>
      </trkpt>
      <trkpt lat="30.907232025638223" lon="-3.997857011854649">
        <ele>663.79999999999995</ele>
        <time>2011-04-22T16:44:10Z</time>
      </trkpt>
      <trkpt lat="30.90733596123755" lon="-3.997719967737794">
        <ele>664</ele>
        <time>2011-04-22T16:44:12Z</time>
      </trkpt>
      <trkpt lat="30.907497983425856" lon="-3.997531039640307">
        <ele>664.20000000000005</ele>
        <time>2011-04-22T16:44:15Z</time>
      </trkpt>
      <trkpt lat="30.907561015337706" lon="-3.997396007180214">
        <ele>664.29999999999995</ele>
        <time>2011-04-22T16:44:17Z</time>
      </trkpt>
      <trkpt lat="30.907573001459241" lon="-3.99725703522563">
        <ele>664</ele>
        <time>2011-04-22T16:44:19Z</time>
      </trkpt>
      <trkpt lat="30.907560009509325" lon="-3.996918993070722">
        <ele>662.89999999999998</ele>
        <time>2011-04-22T16:44:24Z</time>
      </trkpt>
      <trkpt lat="30.907536037266254" lon="-3.996775997802615">
        <ele>662.5</ele>
        <time>2011-04-22T16:44:27Z</time>
      </trkpt>
      <trkpt lat="30.907534025609493" lon="-3.996658986434341">
        <ele>659.20000000000005</ele>
        <time>2011-04-22T16:44:48Z</time>
      </trkpt>
      <trkpt lat="30.907623963430524" lon="-3.996545998379588">
        <ele>658.20000000000005</ele>
        <time>2011-04-22T16:44:51Z</time>
      </trkpt>
      <trkpt lat="30.908034006133676" lon="-3.996179960668087">
        <ele>655.20000000000005</ele>
        <time>2011-04-22T16:44:57Z</time>
      </trkpt>
      <trkpt lat="30.908100977540016" lon="-3.996101003140211">
        <ele>654.79999999999995</ele>
        <time>2011-04-22T16:44:58Z</time>
      </trkpt>
      <trkpt lat="30.908161997795105" lon="-3.996017016470432">
        <ele>654.5</ele>
        <time>2011-04-22T16:44:59Z</time>
      </trkpt>
      <trkpt lat="30.908250007778406" lon="-3.995846025645733">
        <ele>654.20000000000005</ele>
        <time>2011-04-22T16:45:01Z</time>
      </trkpt>
      <trkpt lat="30.908305998891592" lon="-3.995673023164272">
        <ele>654</ele>
        <time>2011-04-22T16:45:03Z</time>
      </trkpt>
      <trkpt lat="30.909163970500231" lon="-3.992065032944083">
        <ele>650.89999999999998</ele>
        <time>2011-04-22T16:45:29Z</time>
      </trkpt>
      <trkpt lat="30.909232031553984" lon="-3.9918880071491">
        <ele>651</ele>
        <time>2011-04-22T16:45:30Z</time>
      </trkpt>
      <trkpt lat="30.909674009308219" lon="-3.990841023623943">
        <ele>651.89999999999998</ele>
        <time>2011-04-22T16:45:36Z</time>
      </trkpt>
      <trkpt lat="30.909759001806378" lon="-3.990672966465354">
        <ele>651.89999999999998</ele>
        <time>2011-04-22T16:45:37Z</time>
      </trkpt>
      <trkpt lat="30.909952959045768" lon="-3.990357974544168">
        <ele>649.5</ele>
        <time>2011-04-22T16:45:39Z</time>
      </trkpt>
      <trkpt lat="30.91006200760603" lon="-3.990203998982906">
        <ele>649.20000000000005</ele>
        <time>2011-04-22T16:45:40Z</time>
      </trkpt>
      <trkpt lat="30.910292007029057" lon="-3.989919014275074">
        <ele>648.20000000000005</ele>
        <time>2011-04-22T16:45:42Z</time>
      </trkpt>
      <trkpt lat="30.910829035565257" lon="-3.989387014880776">
        <ele>646.29999999999995</ele>
        <time>2011-04-22T16:45:46Z</time>
      </trkpt>
      <trkpt lat="30.921630961820483" lon="-3.979511959478259">
        <ele>623.89999999999998</ele>
        <time>2011-04-22T16:47:02Z</time>
      </trkpt>
      <trkpt lat="30.921780997887254" lon="-3.979396037757397">
        <ele>623.5</ele>
        <time>2011-04-22T16:47:03Z</time>
      </trkpt>
      <trkpt lat="30.92237401753664" lon="-3.97899404168129">
        <ele>622.29999999999995</ele>
        <time>2011-04-22T16:47:07Z</time>
      </trkpt>
      <trkpt lat="30.92267501167953" lon="-3.97882497869432">
        <ele>622</ele>
        <time>2011-04-22T16:47:09Z</time>
      </trkpt>
      <trkpt lat="30.926312003284693" lon="-3.977054972201586">
        <ele>629.79999999999995</ele>
        <time>2011-04-22T16:47:31Z</time>
      </trkpt>
      <trkpt lat="30.926483999937773" lon="-3.976981965824962">
        <ele>630</ele>
        <time>2011-04-22T16:47:32Z</time>
      </trkpt>
      <trkpt lat="30.926655996590853" lon="-3.976920023560524">
        <ele>630.20000000000005</ele>
        <time>2011-04-22T16:47:33Z</time>
      </trkpt>
      <trkpt lat="30.927008036524057" lon="-3.976828996092081">
        <ele>630</ele>
        <time>2011-04-22T16:47:35Z</time>
      </trkpt>
      <trkpt lat="30.929895015433431" lon="-3.976375032216311">
        <ele>625.89999999999998</ele>
        <time>2011-04-22T16:47:51Z</time>
      </trkpt>
      <trkpt lat="30.930078998208046" lon="-3.976354999467731">
        <ele>626.29999999999995</ele>
        <time>2011-04-22T16:47:52Z</time>
      </trkpt>
      <trkpt lat="30.930265998467803" lon="-3.976344019174576">
        <ele>626.10000000000002</ele>
        <time>2011-04-22T16:47:53Z</time>
      </trkpt>
      <trkpt lat="30.930454004555941" lon="-3.976342007517815">
        <ele>625.89999999999998</ele>
        <time>2011-04-22T16:47:54Z</time>
      </trkpt>
      <trkpt lat="30.93064502812922" lon="-3.976348964497447">
        <ele>625.70000000000005</ele>
        <time>2011-04-22T16:47:55Z</time>
      </trkpt>
      <trkpt lat="30.950067993253469" lon="-3.97891097702086">
        <ele>629.60000000000002</ele>
        <time>2011-04-22T16:49:44Z</time>
      </trkpt>
      <trkpt lat="30.950278965756297" lon="-3.978915000334382">
        <ele>629.10000000000002</ele>
        <time>2011-04-22T16:49:45Z</time>
      </trkpt>
      <trkpt lat="30.950492033734918" lon="-3.978907959535718">
        <ele>629</ele>
        <time>2011-04-22T16:49:46Z</time>
      </trkpt>
      <trkpt lat="30.959355980157852" lon="-3.977656038478017">
        <ele>629.10000000000002</ele>
        <time>2011-04-22T16:50:27Z</time>
      </trkpt>
      <trkpt lat="30.959781026467681" lon="-3.977554030716419">
        <ele>631</ele>
        <time>2011-04-22T16:50:29Z</time>
      </trkpt>
      <trkpt lat="30.96018604002893" lon="-3.977411035448313">
        <ele>633</ele>
        <time>2011-04-22T16:50:31Z</time>
      </trkpt>
      <trkpt lat="30.960580995306373" lon="-3.977220011875033">
        <ele>634.20000000000005</ele>
        <time>2011-04-22T16:50:33Z</time>
      </trkpt>
      <trkpt lat="30.967228012159467" lon="-3.972838036715984">
        <ele>638.39999999999998</ele>
        <time>2011-04-22T16:51:09Z</time>
      </trkpt>
      <trkpt lat="30.967446025460958" lon="-3.972771987318993">
        <ele>638.60000000000002</ele>
        <time>2011-04-22T16:51:10Z</time>
      </trkpt>
      <trkpt lat="30.967668984085321" lon="-3.97272102534771">
        <ele>638.79999999999995</ele>
        <time>2011-04-22T16:51:11Z</time>
      </trkpt>
      <trkpt lat="30.968127977102995" lon="-3.97265899926424">
        <ele>638.70000000000005</ele>
        <time>2011-04-22T16:51:13Z</time>
      </trkpt>
      <trkpt lat="30.969701008871198" lon="-3.972623040899634">
        <ele>636.89999999999998</ele>
        <time>2011-04-22T16:51:20Z</time>
      </trkpt>
      <trkpt lat="30.969914998859167" lon="-3.972625974565744">
        <ele>636.5</ele>
        <time>2011-04-22T16:51:21Z</time>
      </trkpt>
      <trkpt lat="30.978277958929539" lon="-3.973821988329291">
        <ele>624.70000000000005</ele>
        <time>2011-04-22T16:51:58Z</time>
      </trkpt>
      <trkpt lat="30.978937027975917" lon="-3.973949979990721">
        <ele>629.10000000000002</ele>
        <time>2011-04-22T16:52:01Z</time>
      </trkpt>
      <trkpt lat="30.979149006307125" lon="-3.974013011902571">
        <ele>630.5</ele>
        <time>2011-04-22T16:52:02Z</time>
      </trkpt>
      <trkpt lat="30.979555025696754" lon="-3.974168999120593">
        <ele>631.60000000000002</ele>
        <time>2011-04-22T16:52:04Z</time>
      </trkpt>
      <trkpt lat="30.9805369656533" lon="-3.974638972431421">
        <ele>633.29999999999995</ele>
        <time>2011-04-22T16:52:09Z</time>
      </trkpt>
      <trkpt lat="30.980724971741438" lon="-3.9747419860214">
        <ele>633.60000000000002</ele>
        <time>2011-04-22T16:52:10Z</time>
      </trkpt>
      <trkpt lat="30.981095032766461" lon="-3.974979026243091">
        <ele>633.60000000000002</ele>
        <time>2011-04-22T16:52:12Z</time>
      </trkpt>
      <trkpt lat="30.981272980570793" lon="-3.975115986540914">
        <ele>633.20000000000005</ele>
        <time>2011-04-22T16:52:13Z</time>
      </trkpt>
      <trkpt lat="30.981450006365776" lon="-3.975266022607684">
        <ele>634.29999999999995</ele>
        <time>2011-04-22T16:52:14Z</time>
      </trkpt>
      <trkpt lat="30.981612028554082" lon="-3.975427038967609">
        <ele>634</ele>
        <time>2011-04-22T16:52:15Z</time>
      </trkpt>
      <trkpt lat="30.981762986630201" lon="-3.975595012307167">
        <ele>633.60000000000002</ele>
        <time>2011-04-22T16:52:16Z</time>
      </trkpt>
      <trkpt lat="30.981902964413166" lon="-3.975767008960247">
        <ele>633.29999999999995</ele>
        <time>2011-04-22T16:52:17Z</time>
      </trkpt>
      <trkpt lat="30.982031961902976" lon="-3.975945962592959">
        <ele>633.10000000000002</ele>
        <time>2011-04-22T16:52:18Z</time>
      </trkpt>
      <trkpt lat="30.982154002413154" lon="-3.976138997823">
        <ele>634.10000000000002</ele>
        <time>2011-04-22T16:52:19Z</time>
      </trkpt>
      <trkpt lat="30.982267996296287" lon="-3.976343013346195">
        <ele>635.10000000000002</ele>
        <time>2011-04-22T16:52:20Z</time>
      </trkpt>
      <trkpt lat="30.982474023476243" lon="-3.97678398527205">
        <ele>637.20000000000005</ele>
        <time>2011-04-22T16:52:22Z</time>
      </trkpt>
      <trkpt lat="30.982732018455863" lon="-3.977470966055989">
        <ele>638.70000000000005</ele>
        <time>2011-04-22T16:52:25Z</time>
      </trkpt>
      <trkpt lat="30.982811981812119" lon="-3.977699959650636">
        <ele>639.39999999999998</ele>
        <time>2011-04-22T16:52:26Z</time>
      </trkpt>
      <trkpt lat="30.984245035797358" lon="-3.981156991794705">
        <ele>648.79999999999995</ele>
        <time>2011-04-22T16:52:42Z</time>
      </trkpt>
      <trkpt lat="30.990171963348985" lon="-3.991303034126759">
        <ele>661.79999999999995</ele>
        <time>2011-04-22T16:53:31Z</time>
      </trkpt>
      <trkpt lat="30.990325016900897" lon="-3.99150000885129">
        <ele>661.60000000000002</ele>
        <time>2011-04-22T16:53:32Z</time>
      </trkpt>
      <trkpt lat="30.990658029913902" lon="-3.99186403490603">
        <ele>661.10000000000002</ele>
        <time>2011-04-22T16:53:34Z</time>
      </trkpt>
      <trkpt lat="30.9910190384835" lon="-3.99218900129199">
        <ele>660.70000000000005</ele>
        <time>2011-04-22T16:53:36Z</time>
      </trkpt>
      <trkpt lat="30.996263008564711" lon="-3.996064038947225">
        <ele>653.20000000000005</ele>
        <time>2011-04-22T16:54:04Z</time>
      </trkpt>
      <trkpt lat="30.996457971632481" lon="-3.996197981759906">
        <ele>653.10000000000002</ele>
        <time>2011-04-22T16:54:05Z</time>
      </trkpt>
      <trkpt lat="30.997055014595389" lon="-3.996536023914814">
        <ele>652.5</ele>
        <time>2011-04-22T16:54:08Z</time>
      </trkpt>
      <trkpt lat="30.997678963467479" lon="-3.996757976710796">
        <ele>652</ele>
        <time>2011-04-22T16:54:11Z</time>
      </trkpt>
      <trkpt lat="31.030510040000081" lon="-4.006944000720978">
        <ele>650.29999999999995</ele>
        <time>2011-04-22T16:56:53Z</time>
      </trkpt>
      <trkpt lat="31.030657980591059" lon="-4.006965961307287">
        <ele>650.10000000000002</ele>
        <time>2011-04-22T16:56:54Z</time>
      </trkpt>
      <trkpt lat="31.031109010800719" lon="-4.007007032632828">
        <ele>649.60000000000002</ele>
        <time>2011-04-22T16:56:57Z</time>
      </trkpt>
      <trkpt lat="31.0312619805336" lon="-4.007007032632828">
        <ele>649.5</ele>
        <time>2011-04-22T16:56:58Z</time>
      </trkpt>
      <trkpt lat="31.031417967751622" lon="-4.007000997662544">
        <ele>649.29999999999995</ele>
        <time>2011-04-22T16:56:59Z</time>
      </trkpt>
      <trkpt lat="31.043126983568072" lon="-4.005906991660595">
        <ele>659.79999999999995</ele>
        <time>2011-04-22T16:58:12Z</time>
      </trkpt>
      <trkpt lat="31.043247012421489" lon="-4.005903974175453">
        <ele>660.5</ele>
        <time>2011-04-22T16:58:13Z</time>
      </trkpt>
      <trkpt lat="31.043362012133002" lon="-4.005905985832214">
        <ele>661.10000000000002</ele>
        <time>2011-04-22T16:58:14Z</time>
      </trkpt>
      <trkpt lat="31.043475000187755" lon="-4.005913026630878">
        <ele>661.70000000000005</ele>
        <time>2011-04-22T16:58:15Z</time>
      </trkpt>
      <trkpt lat="31.043585976585746" lon="-4.005926018580794">
        <ele>662.39999999999998</ele>
        <time>2011-04-22T16:58:16Z</time>
      </trkpt>
      <trkpt lat="31.043694019317627" lon="-4.005945967510343">
        <ele>663.10000000000002</ele>
        <time>2011-04-22T16:58:17Z</time>
      </trkpt>
      <trkpt lat="31.0438940115273" lon="-4.005997013300657">
        <ele>664.60000000000002</ele>
        <time>2011-04-22T16:58:19Z</time>
      </trkpt>
      <trkpt lat="31.044157035648823" lon="-4.006078988313675">
        <ele>666.39999999999998</ele>
        <time>2011-04-22T16:58:22Z</time>
      </trkpt>
      <trkpt lat="31.044391980394721" lon="-4.006170015782118">
        <ele>668.60000000000002</ele>
        <time>2011-04-22T16:58:25Z</time>
      </trkpt>
      <trkpt lat="31.044528018683195" lon="-4.006233969703317">
        <ele>669.60000000000002</ele>
        <time>2011-04-22T16:58:27Z</time>
      </trkpt>
      <trkpt lat="31.044692974537611" lon="-4.006329020485282">
        <ele>670.79999999999995</ele>
        <time>2011-04-22T16:58:30Z</time>
      </trkpt>
      <trkpt lat="31.044788025319576" lon="-4.006300019100308">
        <ele>672.5</ele>
        <time>2011-04-22T16:58:33Z</time>
      </trkpt>
      <trkpt lat="31.045150961726904" lon="-4.004817008972168">
        <ele>688</ele>
        <time>2011-04-22T16:58:57Z</time>
      </trkpt>
      <trkpt lat="31.045174011960626" lon="-4.004661021754146">
        <ele>688.89999999999998</ele>
        <time>2011-04-22T16:58:59Z</time>
      </trkpt>
      <trkpt lat="31.045179963111877" lon="-4.004493970423937">
        <ele>689.89999999999998</ele>
        <time>2011-04-22T16:59:01Z</time>
      </trkpt>
      <trkpt lat="31.045146016404033" lon="-4.003571039065719">
        <ele>693.79999999999995</ele>
        <time>2011-04-22T16:59:11Z</time>
      </trkpt>
      <trkpt lat="31.04512196034193" lon="-4.003371968865395">
        <ele>694.60000000000002</ele>
        <time>2011-04-22T16:59:13Z</time>
      </trkpt>
      <trkpt lat="31.045061023905873" lon="-4.003116991370916">
        <ele>696</ele>
        <time>2011-04-22T16:59:16Z</time>
      </trkpt>
      <trkpt lat="31.045049037784338" lon="-4.002955975010991">
        <ele>697.20000000000005</ele>
        <time>2011-04-22T16:59:18Z</time>
      </trkpt>
      <trkpt lat="31.045081978663802" lon="-4.00277903303504">
        <ele>698.29999999999995</ele>
        <time>2011-04-22T16:59:20Z</time>
      </trkpt>
      <trkpt lat="31.045142998918891" lon="-4.002595972269774">
        <ele>699.39999999999998</ele>
        <time>2011-04-22T16:59:22Z</time>
      </trkpt>
      <trkpt lat="31.045664018020034" lon="-4.000949012115598">
        <ele>710</ele>
        <time>2011-04-22T16:59:45Z</time>
      </trkpt>
      <trkpt lat="31.046095015481114" lon="-3.999368017539382">
        <ele>718.10000000000002</ele>
        <time>2011-04-22T17:00:03Z</time>
      </trkpt>
      <trkpt lat="31.046297019347548" lon="-3.998882034793496">
        <ele>717.39999999999998</ele>
        <time>2011-04-22T17:00:09Z</time>
      </trkpt>
      <trkpt lat="31.046425011008978" lon="-3.998346012085676">
        <ele>717.79999999999995</ele>
        <time>2011-04-22T17:00:15Z</time>
      </trkpt>
      <trkpt lat="31.046447977423668" lon="-3.998168986290693">
        <ele>718.20000000000005</ele>
        <time>2011-04-22T17:00:17Z</time>
      </trkpt>
      <trkpt lat="31.046462981030345" lon="-3.997928006574512">
        <ele>718.70000000000005</ele>
        <time>2011-04-22T17:00:20Z</time>
      </trkpt>
      <trkpt lat="31.046460969373584" lon="-3.997787022963166">
        <ele>719.10000000000002</ele>
        <time>2011-04-22T17:00:22Z</time>
      </trkpt>
      <trkpt lat="31.046444037929177" lon="-3.997680991888046">
        <ele>720.10000000000002</ele>
        <time>2011-04-22T17:00:24Z</time>
      </trkpt>
      <trkpt lat="31.046300958842039" lon="-3.997024018317461">
        <ele>721</ele>
        <time>2011-04-22T17:00:35Z</time>
      </trkpt>
      <trkpt lat="31.046288972720504" lon="-3.996897032484412">
        <ele>721.29999999999995</ele>
        <time>2011-04-22T17:00:37Z</time>
      </trkpt>
      <trkpt lat="31.046310011297464" lon="-3.996783038601279">
        <ele>721.5</ele>
        <time>2011-04-22T17:00:39Z</time>
      </trkpt>
      <trkpt lat="31.046376982703805" lon="-3.996697962284088">
        <ele>720.60000000000002</ele>
        <time>2011-04-22T17:00:41Z</time>
      </trkpt>
      <trkpt lat="31.046521989628673" lon="-3.996656974777579">
        <ele>718.70000000000005</ele>
        <time>2011-04-22T17:00:44Z</time>
      </trkpt>
      <trkpt lat="31.046607987955213" lon="-3.996582040563226">
        <ele>717.20000000000005</ele>
        <time>2011-04-22T17:00:47Z</time>
      </trkpt>
      <trkpt lat="31.046634977683425" lon="-3.996440973132849">
        <ele>717.5</ele>
        <time>2011-04-22T17:00:50Z</time>
      </trkpt>
      <trkpt lat="31.046625003218651" lon="-3.996297977864742">
        <ele>718.10000000000002</ele>
        <time>2011-04-22T17:00:53Z</time>
      </trkpt>
      <trkpt lat="31.046543028205633" lon="-3.996216002851725">
        <ele>717.5</ele>
        <time>2011-04-22T17:00:56Z</time>
      </trkpt>
      <trkpt lat="31.04638796299696" lon="-3.995783999562264">
        <ele>754.39999999999998</ele>
        <time>2011-04-22T17:12:07Z</time>
      </trkpt>
      <trkpt lat="31.046300958842039" lon="-3.995343027636409">
        <ele>751.39999999999998</ele>
        <time>2011-04-22T17:12:16Z</time>
      </trkpt>
      <trkpt lat="31.046210015192628" lon="-3.994995011016727">
        <ele>748.39999999999998</ele>
        <time>2011-04-22T17:12:21Z</time>
      </trkpt>
      <trkpt lat="31.04612996801734" lon="-3.994811028242111">
        <ele>747.5</ele>
        <time>2011-04-22T17:12:24Z</time>
      </trkpt>
      <trkpt lat="31.046099960803986" lon="-3.994683958590031">
        <ele>747.10000000000002</ele>
        <time>2011-04-22T17:12:26Z</time>
      </trkpt>
      <trkpt lat="31.046101972460747" lon="-3.99455102160573">
        <ele>745.79999999999995</ele>
        <time>2011-04-22T17:12:28Z</time>
      </trkpt>
      <trkpt lat="31.046140026301146" lon="-3.994406014680862">
        <ele>745.20000000000005</ele>
        <time>2011-04-22T17:12:30Z</time>
      </trkpt>
      <trkpt lat="31.046218983829021" lon="-3.994275005534291">
        <ele>745</ele>
        <time>2011-04-22T17:12:32Z</time>
      </trkpt>
      <trkpt lat="31.04643096216023" lon="-3.994104014709592">
        <ele>740.60000000000002</ele>
        <time>2011-04-22T17:12:36Z</time>
      </trkpt>
      <trkpt lat="31.047092964872718" lon="-3.993656001985073">
        <ele>734.20000000000005</ele>
        <time>2011-04-22T17:12:47Z</time>
      </trkpt>
      <trkpt lat="31.047233026474714" lon="-3.993582995608449">
        <ele>734</ele>
        <time>2011-04-22T17:12:49Z</time>
      </trkpt>
      <trkpt lat="31.052826019003987" lon="-3.990496024489403">
        <ele>736.60000000000002</ele>
        <time>2011-04-22T17:13:51Z</time>
      </trkpt>
      <trkpt lat="31.053538983687758" lon="-3.989917002618313">
        <ele>736.5</ele>
        <time>2011-04-22T17:14:00Z</time>
      </trkpt>
      <trkpt lat="31.053618025034666" lon="-3.989832010120153">
        <ele>736.60000000000002</ele>
        <time>2011-04-22T17:14:01Z</time>
      </trkpt>
      <trkpt lat="31.056108037009835" lon="-3.986811004579067">
        <ele>735.5</ele>
        <time>2011-04-22T17:14:33Z</time>
      </trkpt>
      <trkpt lat="31.056168973445892" lon="-3.986717965453863">
        <ele>735.39999999999998</ele>
        <time>2011-04-22T17:14:34Z</time>
      </trkpt>
      <trkpt lat="31.056280033662915" lon="-3.986528031527996">
        <ele>735.20000000000005</ele>
        <time>2011-04-22T17:14:36Z</time>
      </trkpt>
      <trkpt lat="31.056508021429181" lon="-3.986031990498304">
        <ele>736.20000000000005</ele>
        <time>2011-04-22T17:14:41Z</time>
      </trkpt>
      <trkpt lat="31.056545991450548" lon="-3.985930988565087">
        <ele>736.39999999999998</ele>
        <time>2011-04-22T17:14:42Z</time>
      </trkpt>
      <trkpt lat="31.056573987007141" lon="-3.985824035480619">
        <ele>736.39999999999998</ele>
        <time>2011-04-22T17:14:43Z</time>
      </trkpt>
      <trkpt lat="31.056591002270579" lon="-3.985712975263596">
        <ele>736.20000000000005</ele>
        <time>2011-04-22T17:14:44Z</time>
      </trkpt>
      <trkpt lat="31.056598965078592" lon="-3.985601998865604">
        <ele>736.29999999999995</ele>
        <time>2011-04-22T17:14:45Z</time>
      </trkpt>
      <trkpt lat="31.05669803917408" lon="-3.983912961557508">
        <ele>738.79999999999995</ele>
        <time>2011-04-22T17:15:01Z</time>
      </trkpt>
      <trkpt lat="31.056716982275248" lon="-3.983805002644658">
        <ele>738.20000000000005</ele>
        <time>2011-04-22T17:15:02Z</time>
      </trkpt>
      <trkpt lat="31.05674103833735" lon="-3.983696959912777">
        <ele>737.5</ele>
        <time>2011-04-22T17:15:03Z</time>
      </trkpt>
      <trkpt lat="31.056770961731672" lon="-3.983583971858025">
        <ele>737.39999999999998</ele>
        <time>2011-04-22T17:15:04Z</time>
      </trkpt>
      <trkpt lat="31.056809015572071" lon="-3.983475007116795">
        <ele>737.60000000000002</ele>
        <time>2011-04-22T17:15:05Z</time>
      </trkpt>
      <trkpt lat="31.057015964761376" lon="-3.982934039086103">
        <ele>738.29999999999995</ele>
        <time>2011-04-22T17:15:10Z</time>
      </trkpt>
      <trkpt lat="31.057030968368053" lon="-3.982822978869081">
        <ele>737.10000000000002</ele>
        <time>2011-04-22T17:15:11Z</time>
      </trkpt>
      <trkpt lat="31.057047983631492" lon="-3.982399022206664">
        <ele>735.20000000000005</ele>
        <time>2011-04-22T17:15:15Z</time>
      </trkpt>
      <trkpt lat="31.057034991681576" lon="-3.981999959796667">
        <ele>736.89999999999998</ele>
        <time>2011-04-22T17:15:19Z</time>
      </trkpt>
      <trkpt lat="31.057010013610125" lon="-3.981807008385658">
        <ele>736.39999999999998</ele>
        <time>2011-04-22T17:15:21Z</time>
      </trkpt>
      <trkpt lat="31.056840028613806" lon="-3.980389041826129">
        <ele>737.70000000000005</ele>
        <time>2011-04-22T17:15:36Z</time>
      </trkpt>
      <trkpt lat="31.056831981986761" lon="-3.980175973847508">
        <ele>737.89999999999998</ele>
        <time>2011-04-22T17:15:38Z</time>
      </trkpt>
      <trkpt lat="31.056785965338349" lon="-3.978065997362137">
        <ele>741.89999999999998</ele>
        <time>2011-04-22T17:15:57Z</time>
      </trkpt>
      <trkpt lat="31.05680700391531" lon="-3.977783024311066">
        <ele>742.20000000000005</ele>
        <time>2011-04-22T17:16:00Z</time>
      </trkpt>
      <trkpt lat="31.056767022237182" lon="-3.977638017386198">
        <ele>742.29999999999995</ele>
        <time>2011-04-22T17:16:02Z</time>
      </trkpt>
      <trkpt lat="31.05670097284019" lon="-3.977465014904738">
        <ele>742.60000000000002</ele>
        <time>2011-04-22T17:16:04Z</time>
      </trkpt>
      <trkpt lat="31.056674988940358" lon="-3.97736300714314">
        <ele>742.60000000000002</ele>
        <time>2011-04-22T17:16:05Z</time>
      </trkpt>
      <trkpt lat="31.056654034182429" lon="-3.97725697606802">
        <ele>742.5</ele>
        <time>2011-04-22T17:16:06Z</time>
      </trkpt>
      <trkpt lat="31.056637018918991" lon="-3.977141976356506">
        <ele>742.60000000000002</ele>
        <time>2011-04-22T17:16:07Z</time>
      </trkpt>
      <trkpt lat="31.056565018370748" lon="-3.976502018049359">
        <ele>743.29999999999995</ele>
        <time>2011-04-22T17:16:12Z</time>
      </trkpt>
      <trkpt lat="31.056529982015491" lon="-3.976373020559549">
        <ele>743.60000000000002</ele>
        <time>2011-04-22T17:16:13Z</time>
      </trkpt>
      <trkpt lat="31.056425962597132" lon="-3.976004971191287">
        <ele>743.20000000000005</ele>
        <time>2011-04-22T17:16:16Z</time>
      </trkpt>
      <trkpt lat="31.056405007839203" lon="-3.975890977308154">
        <ele>743</ele>
        <time>2011-04-22T17:16:17Z</time>
      </trkpt>
      <trkpt lat="31.056392015889287" lon="-3.975782012566924">
        <ele>742.70000000000005</ele>
        <time>2011-04-22T17:16:18Z</time>
      </trkpt>
      <trkpt lat="31.056397967040539" lon="-3.97536501288414">
        <ele>742.10000000000002</ele>
        <time>2011-04-22T17:16:22Z</time>
      </trkpt>
      <trkpt lat="31.056476002559066" lon="-3.974583987146616">
        <ele>740.89999999999998</ele>
        <time>2011-04-22T17:16:28Z</time>
      </trkpt>
      <trkpt lat="31.056494023650885" lon="-3.974457001313567">
        <ele>740.79999999999995</ele>
        <time>2011-04-22T17:16:29Z</time>
      </trkpt>
      <trkpt lat="31.056520007550716" lon="-3.974337978288531">
        <ele>740.70000000000005</ele>
        <time>2011-04-22T17:16:30Z</time>
      </trkpt>
      <trkpt lat="31.056557977572083" lon="-3.974229013547301">
        <ele>740.79999999999995</ele>
        <time>2011-04-22T17:16:31Z</time>
      </trkpt>
      <trkpt lat="31.056674988940358" lon="-3.973888037726283">
        <ele>740.60000000000002</ele>
        <time>2011-04-22T17:16:34Z</time>
      </trkpt>
      <trkpt lat="31.056699967011809" lon="-3.973763985559344">
        <ele>740.29999999999995</ele>
        <time>2011-04-22T17:16:35Z</time>
      </trkpt>
      <trkpt lat="31.056712958961725" lon="-3.973634988069534">
        <ele>740.20000000000005</ele>
        <time>2011-04-22T17:16:36Z</time>
      </trkpt>
      <trkpt lat="31.056715976446867" lon="-3.973369030281901">
        <ele>740.20000000000005</ele>
        <time>2011-04-22T17:16:38Z</time>
      </trkpt>
      <trkpt lat="31.056771967560053" lon="-3.971607992425561">
        <ele>741.70000000000005</ele>
        <time>2011-04-22T17:16:50Z</time>
      </trkpt>
      <trkpt lat="31.056792000308633" lon="-3.971463991329074">
        <ele>741.70000000000005</ele>
        <time>2011-04-22T17:16:51Z</time>
      </trkpt>
      <trkpt lat="31.056817984208465" lon="-3.971323007717729">
        <ele>741.60000000000002</ele>
        <time>2011-04-22T17:16:52Z</time>
      </trkpt>
      <trkpt lat="31.05685100890696" lon="-3.971184035763145">
        <ele>741.39999999999998</ele>
        <time>2011-04-22T17:16:53Z</time>
      </trkpt>
      <trkpt lat="31.056890990585089" lon="-3.971045985817909">
        <ele>741.20000000000005</ele>
        <time>2011-04-22T17:16:54Z</time>
      </trkpt>
      <trkpt lat="31.056990986689925" lon="-3.970782039687038">
        <ele>739.5</ele>
        <time>2011-04-22T17:16:56Z</time>
      </trkpt>
      <trkpt lat="31.05734596028924" lon="-3.970043007284403">
        <ele>737.20000000000005</ele>
        <time>2011-04-22T17:17:02Z</time>
      </trkpt>
      <trkpt lat="31.057949960231781" lon="-3.96859897300601">
        <ele>735.89999999999998</ele>
        <time>2011-04-22T17:17:15Z</time>
      </trkpt>
      <trkpt lat="31.057981979101896" lon="-3.968486990779638">
        <ele>735.60000000000002</ele>
        <time>2011-04-22T17:17:16Z</time>
      </trkpt>
      <trkpt lat="31.058146012946963" lon="-3.96790998056531">
        <ele>735.79999999999995</ele>
        <time>2011-04-22T17:17:21Z</time>
      </trkpt>
      <trkpt lat="31.058194963261485" lon="-3.967795986682177">
        <ele>736</ele>
        <time>2011-04-22T17:17:22Z</time>
      </trkpt>
      <trkpt lat="31.058372994884849" lon="-3.967460040003061">
        <ele>736.29999999999995</ele>
        <time>2011-04-22T17:17:25Z</time>
      </trkpt>
      <trkpt lat="31.058501992374659" lon="-3.967241020873189">
        <ele>736.79999999999995</ele>
        <time>2011-04-22T17:17:27Z</time>
      </trkpt>
      <trkpt lat="31.059408998116851" lon="-3.965887008234859">
        <ele>736.5</ele>
        <time>2011-04-22T17:17:41Z</time>
      </trkpt>
      <trkpt lat="31.059546964243054" lon="-3.965712999925017">
        <ele>736.39999999999998</ele>
        <time>2011-04-22T17:17:43Z</time>
      </trkpt>
      <trkpt lat="31.059619970619678" lon="-3.965631024912">
        <ele>736.20000000000005</ele>
        <time>2011-04-22T17:17:44Z</time>
      </trkpt>
      <trkpt lat="31.059781992807984" lon="-3.965477971360087">
        <ele>735.5</ele>
        <time>2011-04-22T17:17:46Z</time>
      </trkpt>
      <trkpt lat="31.059866985306144" lon="-3.965399013832212">
        <ele>735.89999999999998</ele>
        <time>2011-04-22T17:17:47Z</time>
      </trkpt>
      <trkpt lat="31.062342999503016" lon="-3.962813029065728">
        <ele>753.60000000000002</ele>
        <time>2011-04-22T17:18:19Z</time>
      </trkpt>
      <trkpt lat="31.06252396479249" lon="-3.962700963020325">
        <ele>755.70000000000005</ele>
        <time>2011-04-22T17:18:21Z</time>
      </trkpt>
      <trkpt lat="31.063325023278594" lon="-3.962227972224355">
        <ele>761.39999999999998</ele>
        <time>2011-04-22T17:18:30Z</time>
      </trkpt>
      <trkpt lat="31.063402974978089" lon="-3.962161000818014">
        <ele>761.5</ele>
        <time>2011-04-22T17:18:31Z</time>
      </trkpt>
      <trkpt lat="31.063789967447519" lon="-3.961776020005345">
        <ele>762.79999999999995</ele>
        <time>2011-04-22T17:18:36Z</time>
      </trkpt>
      <trkpt lat="31.064008986577392" lon="-3.96150503307581">
        <ele>763.79999999999995</ele>
        <time>2011-04-22T17:18:39Z</time>
      </trkpt>
      <trkpt lat="31.064564036205411" lon="-3.960811011493206">
        <ele>765.60000000000002</ele>
        <time>2011-04-22T17:18:47Z</time>
      </trkpt>
      <trkpt lat="31.064637964591384" lon="-3.960743034258485">
        <ele>765.70000000000005</ele>
        <time>2011-04-22T17:18:48Z</time>
      </trkpt>
      <trkpt lat="31.064711976796389" lon="-3.960683019831777">
        <ele>765.70000000000005</ele>
        <time>2011-04-22T17:18:49Z</time>
      </trkpt>
      <trkpt lat="31.064932001754642" lon="-3.960510017350316">
        <ele>766</ele>
        <time>2011-04-22T17:18:52Z</time>
      </trkpt>
      <trkpt lat="31.065055970102549" lon="-3.960364004597068">
        <ele>766.20000000000005</ele>
        <time>2011-04-22T17:18:54Z</time>
      </trkpt>
      <trkpt lat="31.06557397171855" lon="-3.959547020494938">
        <ele>767.10000000000002</ele>
        <time>2011-04-22T17:19:03Z</time>
      </trkpt>
      <trkpt lat="31.065626023337245" lon="-3.959461022168398">
        <ele>765.20000000000005</ele>
        <time>2011-04-22T17:19:04Z</time>
      </trkpt>
      <trkpt lat="31.066545015200973" lon="-3.958116983994842">
        <ele>757.60000000000002</ele>
        <time>2011-04-22T17:19:20Z</time>
      </trkpt>
      <trkpt lat="31.066667977720499" lon="-3.957979017868638">
        <ele>756.79999999999995</ele>
        <time>2011-04-22T17:19:22Z</time>
      </trkpt>
      <trkpt lat="31.06679898686707" lon="-3.957866029813886">
        <ele>756.10000000000002</ele>
        <time>2011-04-22T17:19:24Z</time>
      </trkpt>
      <trkpt lat="31.067293016240001" lon="-3.957492029294372">
        <ele>754.29999999999995</ele>
        <time>2011-04-22T17:19:32Z</time>
      </trkpt>
      <trkpt lat="31.067398963496089" lon="-3.957366971299052">
        <ele>753.79999999999995</ele>
        <time>2011-04-22T17:19:34Z</time>
      </trkpt>
      <trkpt lat="31.067666010931134" lon="-3.956970004364848">
        <ele>752.70000000000005</ele>
        <time>2011-04-22T17:19:40Z</time>
      </trkpt>
      <trkpt lat="31.067708004266024" lon="-3.956861039623618">
        <ele>751.89999999999998</ele>
        <time>2011-04-22T17:19:42Z</time>
      </trkpt>
      <trkpt lat="31.067685037851334" lon="-3.956738999113441">
        <ele>752.20000000000005</ele>
        <time>2011-04-22T17:19:44Z</time>
      </trkpt>
      <trkpt lat="31.067653018981218" lon="-3.956602038815618">
        <ele>752.20000000000005</ele>
        <time>2011-04-22T17:19:46Z</time>
      </trkpt>
      <trkpt lat="31.067670034244657" lon="-3.956448985263705">
        <ele>752</ele>
        <time>2011-04-22T17:19:48Z</time>
      </trkpt>
      <trkpt lat="31.067732982337475" lon="-3.956298027187586">
        <ele>751</ele>
        <time>2011-04-22T17:19:50Z</time>
      </trkpt>
      <trkpt lat="31.067870026454329" lon="-3.956070961430669">
        <ele>749.60000000000002</ele>
        <time>2011-04-22T17:19:53Z</time>
      </trkpt>
      <trkpt lat="31.068027019500732" lon="-3.955840039998293">
        <ele>748.70000000000005</ele>
        <time>2011-04-22T17:19:56Z</time>
      </trkpt>
      <trkpt lat="31.068142019212246" lon="-3.955696038901806">
        <ele>748.79999999999995</ele>
        <time>2011-04-22T17:19:58Z</time>
      </trkpt>
      <trkpt lat="31.068307980895042" lon="-3.955509960651398">
        <ele>748</ele>
        <time>2011-04-22T17:20:01Z</time>
      </trkpt>
      <trkpt lat="31.068384004756808" lon="-3.955380041152239">
        <ele>746.79999999999995</ele>
        <time>2011-04-22T17:20:03Z</time>
      </trkpt>
      <trkpt lat="31.068453993648291" lon="-3.955145012587309">
        <ele>745</ele>
        <time>2011-04-22T17:20:06Z</time>
      </trkpt>
      <trkpt lat="31.068705031648278" lon="-3.953913040459156">
        <ele>738.5</ele>
        <time>2011-04-22T17:20:20Z</time>
      </trkpt>
      <trkpt lat="31.068776026368141" lon="-3.953743977472186">
        <ele>737.20000000000005</ele>
        <time>2011-04-22T17:20:22Z</time>
      </trkpt>
      <trkpt lat="31.068880967795849" lon="-3.953593019396067">
        <ele>736.20000000000005</ele>
        <time>2011-04-22T17:20:24Z</time>
      </trkpt>
      <trkpt lat="31.069013988599181" lon="-3.953465027734637">
        <ele>736.10000000000002</ele>
        <time>2011-04-22T17:20:26Z</time>
      </trkpt>
      <trkpt lat="31.069575995206833" lon="-3.953007962554693">
        <ele>736.89999999999998</ele>
        <time>2011-04-22T17:20:34Z</time>
      </trkpt>
      <trkpt lat="31.06969803571701" lon="-3.952868990600109">
        <ele>736.29999999999995</ele>
        <time>2011-04-22T17:20:36Z</time>
      </trkpt>
      <trkpt lat="31.07051501981914" lon="-3.951789988204837">
        <ele>730.29999999999995</ele>
        <time>2011-04-22T17:20:49Z</time>
      </trkpt>
      <trkpt lat="31.070588026195765" lon="-3.951722010970116">
        <ele>729.70000000000005</ele>
        <time>2011-04-22T17:20:50Z</time>
      </trkpt>
      <trkpt lat="31.070744013413787" lon="-3.951578009873629">
        <ele>731.39999999999998</ele>
        <time>2011-04-22T17:20:52Z</time>
      </trkpt>
      <trkpt lat="31.070826994255185" lon="-3.951522018760443">
        <ele>730.89999999999998</ele>
        <time>2011-04-22T17:20:53Z</time>
      </trkpt>
      <trkpt lat="31.071279030293226" lon="-3.951205015182495">
        <ele>730.79999999999995</ele>
        <time>2011-04-22T17:20:59Z</time>
      </trkpt>
      <trkpt lat="31.071383971720934" lon="-3.951094960793853">
        <ele>730.20000000000005</ele>
        <time>2011-04-22T17:21:01Z</time>
      </trkpt>
      <trkpt lat="31.071556974202394" lon="-3.95089304074645">
        <ele>728</ele>
        <time>2011-04-22T17:21:05Z</time>
      </trkpt>
      <trkpt lat="31.071858974173665" lon="-3.950607972219586">
        <ele>725.39999999999998</ele>
        <time>2011-04-22T17:21:10Z</time>
      </trkpt>
      <trkpt lat="31.072368007153273" lon="-3.950160965323448">
        <ele>720.89999999999998</ele>
        <time>2011-04-22T17:21:17Z</time>
      </trkpt>
      <trkpt lat="31.072430033236742" lon="-3.950085025280714">
        <ele>720.39999999999998</ele>
        <time>2011-04-22T17:21:18Z</time>
      </trkpt>
      <trkpt lat="31.073038978502154" lon="-3.949310034513474">
        <ele>713.60000000000002</ele>
        <time>2011-04-22T17:21:29Z</time>
      </trkpt>
      <trkpt lat="31.073389006778598" lon="-3.949012979865074">
        <ele>714.70000000000005</ele>
        <time>2011-04-22T17:21:35Z</time>
      </trkpt>
      <trkpt lat="31.074948040768504" lon="-3.947441959753633">
        <ele>714.10000000000002</ele>
        <time>2011-04-22T17:21:59Z</time>
      </trkpt>
      <trkpt lat="31.075085001066327" lon="-3.947332995012403">
        <ele>715.60000000000002</ele>
        <time>2011-04-22T17:22:01Z</time>
      </trkpt>
      <trkpt lat="31.075242999941111" lon="-3.947252025827766">
        <ele>717</ele>
        <time>2011-04-22T17:22:03Z</time>
      </trkpt>
      <trkpt lat="31.075403010472655" lon="-3.947200980037451">
        <ele>718.20000000000005</ele>
        <time>2011-04-22T17:22:05Z</time>
      </trkpt>
      <trkpt lat="31.075664022937417" lon="-3.947147000581026">
        <ele>720.79999999999995</ele>
        <time>2011-04-22T17:22:08Z</time>
      </trkpt>
      <trkpt lat="31.075839959084988" lon="-3.947122022509575">
        <ele>722.29999999999995</ele>
        <time>2011-04-22T17:22:10Z</time>
      </trkpt>
      <trkpt lat="31.076020002365112" lon="-3.94711397588253">
        <ele>723.79999999999995</ele>
        <time>2011-04-22T17:22:12Z</time>
      </trkpt>
      <trkpt lat="31.076115975156426" lon="-3.94711297005415">
        <ele>724.5</ele>
        <time>2011-04-22T17:22:13Z</time>
      </trkpt>
      <trkpt lat="31.07650900259614" lon="-3.94709100946784">
        <ele>726.89999999999998</ele>
        <time>2011-04-22T17:22:17Z</time>
      </trkpt>
      <trkpt lat="31.077711973339319" lon="-3.946865033358336">
        <ele>732.79999999999995</ele>
        <time>2011-04-22T17:22:30Z</time>
      </trkpt>
      <trkpt lat="31.078612022101879" lon="-3.946681972593069">
        <ele>735.5</ele>
        <time>2011-04-22T17:22:39Z</time>
      </trkpt>
      <trkpt lat="31.078719981014729" lon="-3.946674009785056">
        <ele>735.89999999999998</ele>
        <time>2011-04-22T17:22:40Z</time>
      </trkpt>
      <trkpt lat="31.079038996249437" lon="-3.946654982864857">
        <ele>736.89999999999998</ele>
        <time>2011-04-22T17:22:43Z</time>
      </trkpt>
      <trkpt lat="31.079146033152938" lon="-3.946652971208096">
        <ele>737.29999999999995</ele>
        <time>2011-04-22T17:22:44Z</time>
      </trkpt>
      <trkpt lat="31.079254997894168" lon="-3.946652971208096">
        <ele>737.60000000000002</ele>
        <time>2011-04-22T17:22:45Z</time>
      </trkpt>
      <trkpt lat="31.079475022852421" lon="-3.946650959551334">
        <ele>738.29999999999995</ele>
        <time>2011-04-22T17:22:47Z</time>
      </trkpt>
      <trkpt lat="31.079583987593651" lon="-3.946648025885224">
        <ele>738.70000000000005</ele>
        <time>2011-04-22T17:22:48Z</time>
      </trkpt>
      <trkpt lat="31.079690018668771" lon="-3.946649031713605">
        <ele>739.10000000000002</ele>
        <time>2011-04-22T17:22:49Z</time>
      </trkpt>
      <trkpt lat="31.080615967512131" lon="-3.94670401699841">
        <ele>742.10000000000002</ele>
        <time>2011-04-22T17:22:59Z</time>
      </trkpt>
      <trkpt lat="31.08078301884234" lon="-3.946722960099578">
        <ele>742.60000000000002</ele>
        <time>2011-04-22T17:23:01Z</time>
      </trkpt>
      <trkpt lat="31.080959038808942" lon="-3.946757996454835">
        <ele>742.89999999999998</ele>
        <time>2011-04-22T17:23:03Z</time>
      </trkpt>
      <trkpt lat="31.081138998270035" lon="-3.946814993396401">
        <ele>743.20000000000005</ele>
        <time>2011-04-22T17:23:05Z</time>
      </trkpt>
      <trkpt lat="31.081232037395239" lon="-3.946850029751658">
        <ele>743.29999999999995</ele>
        <time>2011-04-22T17:23:06Z</time>
      </trkpt>
      <trkpt lat="31.081325998529792" lon="-3.946894034743309">
        <ele>743.79999999999995</ele>
        <time>2011-04-22T17:23:07Z</time>
      </trkpt>
      <trkpt lat="31.081418031826615" lon="-3.946946002542973">
        <ele>744.20000000000005</ele>
        <time>2011-04-22T17:23:08Z</time>
      </trkpt>
      <trkpt lat="31.081686001271009" lon="-3.947127973660827">
        <ele>745.20000000000005</ele>
        <time>2011-04-22T17:23:11Z</time>
      </trkpt>
      <trkpt lat="31.082140970975161" lon="-3.947458975017071">
        <ele>747.60000000000002</ele>
        <time>2011-04-22T17:23:16Z</time>
      </trkpt>
      <trkpt lat="31.082228980958462" lon="-3.947531981393695">
        <ele>748.20000000000005</ele>
        <time>2011-04-22T17:23:17Z</time>
      </trkpt>
      <trkpt lat="31.08385800383985" lon="-3.948772000148892">
        <ele>759.79999999999995</ele>
        <time>2011-04-22T17:23:36Z</time>
      </trkpt>
      <trkpt lat="31.084455968812108" lon="-3.949033012613654">
        <ele>762.79999999999995</ele>
        <time>2011-04-22T17:23:42Z</time>
      </trkpt>
      <trkpt lat="31.084985034540296" lon="-3.949196040630341">
        <ele>766</ele>
        <time>2011-04-22T17:23:47Z</time>
      </trkpt>
      <trkpt lat="31.086788987740874" lon="-3.949490999802947">
        <ele>771.60000000000002</ele>
        <time>2011-04-22T17:24:04Z</time>
      </trkpt>
      <trkpt lat="31.087660035118461" lon="-3.949559982866049">
        <ele>771</ele>
        <time>2011-04-22T17:24:13Z</time>
      </trkpt>
      <trkpt lat="31.087758019566536" lon="-3.949559982866049">
        <ele>771.10000000000002</ele>
        <time>2011-04-22T17:24:14Z</time>
      </trkpt>
      <trkpt lat="31.087957005947828" lon="-3.949558977037668">
        <ele>771.29999999999995</ele>
        <time>2011-04-22T17:24:16Z</time>
      </trkpt>
      <trkpt lat="31.088057002052665" lon="-3.949559982866049">
        <ele>771.5</ele>
        <time>2011-04-22T17:24:17Z</time>
      </trkpt>
      <trkpt lat="31.088155992329121" lon="-3.949560988694429">
        <ele>771.79999999999995</ele>
        <time>2011-04-22T17:24:18Z</time>
      </trkpt>
      <trkpt lat="31.088255988433957" lon="-3.94956199452281">
        <ele>772.10000000000002</ele>
        <time>2011-04-22T17:24:19Z</time>
      </trkpt>
      <trkpt lat="31.088354978710413" lon="-3.949559982866049">
        <ele>772.39999999999998</ele>
        <time>2011-04-22T17:24:20Z</time>
      </trkpt>
      <trkpt lat="31.08924999833107" lon="-3.949499968439341">
        <ele>774.10000000000002</ele>
        <time>2011-04-22T17:24:29Z</time>
      </trkpt>
      <trkpt lat="31.089348988607526" lon="-3.949481025338173">
        <ele>774.10000000000002</ele>
        <time>2011-04-22T17:24:30Z</time>
      </trkpt>
      <trkpt lat="31.091046994552016" lon="-3.94906897097826">
        <ele>774.89999999999998</ele>
        <time>2011-04-22T17:24:46Z</time>
      </trkpt>
      <trkpt lat="31.091152019798756" lon="-3.949032006785274">
        <ele>775</ele>
        <time>2011-04-22T17:24:47Z</time>
      </trkpt>
      <trkpt lat="31.092293970286846" lon="-3.948569996282458">
        <ele>774.70000000000005</ele>
        <time>2011-04-22T17:24:58Z</time>
      </trkpt>
      <trkpt lat="31.092406958341599" lon="-3.948547029867768">
        <ele>774.79999999999995</ele>
        <time>2011-04-22T17:24:59Z</time>
      </trkpt>
      <trkpt lat="31.094717010855675" lon="-3.948066998273134">
        <ele>774.39999999999998</ele>
        <time>2011-04-22T17:25:21Z</time>
      </trkpt>
      <trkpt lat="31.094803009182215" lon="-3.948033973574638">
        <ele>774.39999999999998</ele>
        <time>2011-04-22T17:25:22Z</time>
      </trkpt>
      <trkpt lat="31.095554027706385" lon="-3.947680005803704">
        <ele>774.29999999999995</ele>
        <time>2011-04-22T17:25:32Z</time>
      </trkpt>
      <trkpt lat="31.095694005489349" lon="-3.947596019133925">
        <ele>774.29999999999995</ele>
        <time>2011-04-22T17:25:34Z</time>
      </trkpt>
      <trkpt lat="31.09619096852839" lon="-3.947221012786031">
        <ele>774.60000000000002</ele>
        <time>2011-04-22T17:25:41Z</time>
      </trkpt>
      <trkpt lat="31.096969982609153" lon="-3.946583988144994">
        <ele>772.70000000000005</ele>
        <time>2011-04-22T17:25:51Z</time>
      </trkpt>
      <trkpt lat="31.097055980935693" lon="-3.946535959839821">
        <ele>772.70000000000005</ele>
        <time>2011-04-22T17:25:52Z</time>
      </trkpt>
      <trkpt lat="31.097149020060897" lon="-3.946493966504931">
        <ele>772.79999999999995</ele>
        <time>2011-04-22T17:25:53Z</time>
      </trkpt>
      <trkpt lat="31.097343983128667" lon="-3.94642598927021">
        <ele>773.10000000000002</ele>
        <time>2011-04-22T17:25:55Z</time>
      </trkpt>
      <trkpt lat="31.097628967836499" lon="-3.946347031742334">
        <ele>773.20000000000005</ele>
        <time>2011-04-22T17:25:58Z</time>
      </trkpt>
      <trkpt lat="31.097819991409779" lon="-3.946308977901936">
        <ele>773.29999999999995</ele>
        <time>2011-04-22T17:26:00Z</time>
      </trkpt>
      <trkpt lat="31.099537024274468" lon="-3.946075038984418">
        <ele>778.29999999999995</ele>
        <time>2011-04-22T17:26:18Z</time>
      </trkpt>
      <trkpt lat="31.099626962095499" lon="-3.946066992357373">
        <ele>778.60000000000002</ele>
        <time>2011-04-22T17:26:19Z</time>
      </trkpt>
      <trkpt lat="31.099717989563942" lon="-3.946064980700612">
        <ele>778.89999999999998</ele>
        <time>2011-04-22T17:26:20Z</time>
      </trkpt>
      <trkpt lat="31.099811028689146" lon="-3.946067998185754">
        <ele>779.20000000000005</ele>
        <time>2011-04-22T17:26:21Z</time>
      </trkpt>
      <trkpt lat="31.100186035037041" lon="-3.946086019277573">
        <ele>780.5</ele>
        <time>2011-04-22T17:26:25Z</time>
      </trkpt>
      <trkpt lat="31.100276978686452" lon="-3.946083001792431">
        <ele>780.79999999999995</ele>
        <time>2011-04-22T17:26:26Z</time>
      </trkpt>
      <trkpt lat="31.100545031949878" lon="-3.946042014285922">
        <ele>781.60000000000002</ele>
        <time>2011-04-22T17:26:29Z</time>
      </trkpt>
      <trkpt lat="31.10072398558259" lon="-3.946000020951033">
        <ele>781.70000000000005</ele>
        <time>2011-04-22T17:26:31Z</time>
      </trkpt>
      <trkpt lat="31.101720007136464" lon="-3.945647981017828">
        <ele>779.79999999999995</ele>
        <time>2011-04-22T17:26:42Z</time>
      </trkpt>
      <trkpt lat="31.106471959501505" lon="-3.943437002599239">
        <ele>776.70000000000005</ele>
        <time>2011-04-22T17:27:38Z</time>
      </trkpt>
      <trkpt lat="31.106558041647077" lon="-3.943389980122447">
        <ele>776.70000000000005</ele>
        <time>2011-04-22T17:27:39Z</time>
      </trkpt>
      <trkpt lat="31.107926974073052" lon="-3.942551035434008">
        <ele>777.20000000000005</ele>
        <time>2011-04-22T17:27:57Z</time>
      </trkpt>
      <trkpt lat="31.109247040003538" lon="-3.941886015236378">
        <ele>776.79999999999995</ele>
        <time>2011-04-22T17:28:12Z</time>
      </trkpt>
      <trkpt lat="31.109921028837562" lon="-3.941627014428377">
        <ele>776.79999999999995</ele>
        <time>2011-04-22T17:28:19Z</time>
      </trkpt>
      <trkpt lat="31.110012978315353" lon="-3.941598013043404">
        <ele>776.79999999999995</ele>
        <time>2011-04-22T17:28:20Z</time>
      </trkpt>
      <trkpt lat="31.110183969140053" lon="-3.941562976688147">
        <ele>776.79999999999995</ele>
        <time>2011-04-22T17:28:22Z</time>
      </trkpt>
      <trkpt lat="31.110345991328359" lon="-3.941549984738231">
        <ele>776.89999999999998</ele>
        <time>2011-04-22T17:28:24Z</time>
      </trkpt>
      <trkpt lat="31.110501978546381" lon="-3.941555013880134">
        <ele>777.10000000000002</ele>
        <time>2011-04-22T17:28:26Z</time>
      </trkpt>
      <trkpt lat="31.110653020441532" lon="-3.941542021930218">
        <ele>777.5</ele>
        <time>2011-04-22T17:28:28Z</time>
      </trkpt>
      <trkpt lat="31.110785035416484" lon="-3.941488964483142">
        <ele>777.79999999999995</ele>
        <time>2011-04-22T17:28:30Z</time>
      </trkpt>
      <trkpt lat="31.111717019230127" lon="-3.940999964252114">
        <ele>777.29999999999995</ele>
        <time>2011-04-22T17:28:43Z</time>
      </trkpt>
      <trkpt lat="31.11221800558269" lon="-3.940671980381012">
        <ele>777.60000000000002</ele>
        <time>2011-04-22T17:28:50Z</time>
      </trkpt>
      <trkpt lat="31.113101961091161" lon="-3.94023796543479">
        <ele>777.60000000000002</ele>
        <time>2011-04-22T17:29:02Z</time>
      </trkpt>
      <trkpt lat="31.114530991762877" lon="-3.939784001559019">
        <ele>777.20000000000005</ele>
        <time>2011-04-22T17:29:19Z</time>
      </trkpt>
      <trkpt lat="31.115991035476327" lon="-3.939040023833513">
        <ele>776.79999999999995</ele>
        <time>2011-04-22T17:29:37Z</time>
      </trkpt>
      <trkpt lat="31.116079967468977" lon="-3.939006999135017">
        <ele>776.89999999999998</ele>
        <time>2011-04-22T17:29:38Z</time>
      </trkpt>
      <trkpt lat="31.116167977452278" lon="-3.938981015235186">
        <ele>776.89999999999998</ele>
        <time>2011-04-22T17:29:39Z</time>
      </trkpt>
      <trkpt lat="31.116431001573801" lon="-3.938942039385438">
        <ele>777.29999999999995</ele>
        <time>2011-04-22T17:29:42Z</time>
      </trkpt>
      <trkpt lat="31.116608027368784" lon="-3.938932986930013">
        <ele>777.89999999999998</ele>
        <time>2011-04-22T17:29:44Z</time>
      </trkpt>
      <trkpt lat="31.116698971018195" lon="-3.938934998586774">
        <ele>778.39999999999998</ele>
        <time>2011-04-22T17:29:45Z</time>
      </trkpt>
      <trkpt lat="31.116791004315019" lon="-3.938943967223167">
        <ele>778.79999999999995</ele>
        <time>2011-04-22T17:29:46Z</time>
      </trkpt>
      <trkpt lat="31.117194006219506" lon="-3.939008004963398">
        <ele>781.60000000000002</ele>
        <time>2011-04-22T17:29:51Z</time>
      </trkpt>
      <trkpt lat="31.117508998140693" lon="-3.938986966386437">
        <ele>783.60000000000002</ele>
        <time>2011-04-22T17:29:56Z</time>
      </trkpt>
      <trkpt lat="31.11771997064352" lon="-3.939005993306637">
        <ele>784.10000000000002</ele>
        <time>2011-04-22T17:29:59Z</time>
      </trkpt>
      <trkpt lat="31.118949009105563" lon="-3.939201040193439">
        <ele>786.89999999999998</ele>
        <time>2011-04-22T17:30:12Z</time>
      </trkpt>
      <trkpt lat="31.119041964411736" lon="-3.939201962202787">
        <ele>787.39999999999998</ele>
        <time>2011-04-22T17:30:13Z</time>
      </trkpt>
      <trkpt lat="31.119133997708559" lon="-3.939200034365058">
        <ele>787.70000000000005</ele>
        <time>2011-04-22T17:30:14Z</time>
      </trkpt>
      <trkpt lat="31.119314040988684" lon="-3.939181007444859">
        <ele>788.39999999999998</ele>
        <time>2011-04-22T17:30:16Z</time>
      </trkpt>
      <trkpt lat="31.119476985186338" lon="-3.939132979139686">
        <ele>787.79999999999995</ele>
        <time>2011-04-22T17:30:18Z</time>
      </trkpt>
      <trkpt lat="31.119620986282825" lon="-3.939047986641526">
        <ele>787.5</ele>
        <time>2011-04-22T17:30:20Z</time>
      </trkpt>
      <trkpt lat="31.119946958497167" lon="-3.938736012205482">
        <ele>787.20000000000005</ele>
        <time>2011-04-22T17:30:25Z</time>
      </trkpt>
      <trkpt lat="31.120108980685472" lon="-3.938654959201813">
        <ele>787</ele>
        <time>2011-04-22T17:30:27Z</time>
      </trkpt>
      <trkpt lat="31.120196990668774" lon="-3.938629981130362">
        <ele>786.89999999999998</ele>
        <time>2011-04-22T17:30:28Z</time>
      </trkpt>
      <trkpt lat="31.120290029793978" lon="-3.938609026372433">
        <ele>787.20000000000005</ele>
        <time>2011-04-22T17:30:29Z</time>
      </trkpt>
      <trkpt lat="31.12134899944067" lon="-3.938380032777786">
        <ele>791.10000000000002</ele>
        <time>2011-04-22T17:30:42Z</time>
      </trkpt>
      <trkpt lat="31.121494006365538" lon="-3.938309960067272">
        <ele>791.10000000000002</ele>
        <time>2011-04-22T17:30:44Z</time>
      </trkpt>
      <trkpt lat="31.12199398688972" lon="-3.937968984246254">
        <ele>789.39999999999998</ele>
        <time>2011-04-22T17:30:51Z</time>
      </trkpt>
      <trkpt lat="31.122224992141128" lon="-3.93789597786963">
        <ele>789</ele>
        <time>2011-04-22T17:30:54Z</time>
      </trkpt>
      <trkpt lat="31.122364969924092" lon="-3.937863036990166">
        <ele>788.5</ele>
        <time>2011-04-22T17:30:56Z</time>
      </trkpt>
      <trkpt lat="31.12266001291573" lon="-3.937806040048599">
        <ele>787.60000000000002</ele>
        <time>2011-04-22T17:31:00Z</time>
      </trkpt>
      <trkpt lat="31.122879032045603" lon="-3.937720041722059">
        <ele>787</ele>
        <time>2011-04-22T17:31:03Z</time>
      </trkpt>
      <trkpt lat="31.123207015916705" lon="-3.937674025073648">
        <ele>786.5</ele>
        <time>2011-04-22T17:31:07Z</time>
      </trkpt>
      <trkpt lat="31.123922998085618" lon="-3.937609987333417">
        <ele>788.5</ele>
        <time>2011-04-22T17:31:16Z</time>
      </trkpt>
      <trkpt lat="31.125286985188723" lon="-3.937246967107058">
        <ele>786.60000000000002</ele>
        <time>2011-04-22T17:31:34Z</time>
      </trkpt>
      <trkpt lat="31.12545202486217" lon="-3.937227018177509">
        <ele>787</ele>
        <time>2011-04-22T17:31:36Z</time>
      </trkpt>
      <trkpt lat="31.125613963231444" lon="-3.937227018177509">
        <ele>787.5</ele>
        <time>2011-04-22T17:31:38Z</time>
      </trkpt>
      <trkpt lat="31.125765005126595" lon="-3.937248978763819">
        <ele>787.79999999999995</ele>
        <time>2011-04-22T17:31:40Z</time>
      </trkpt>
      <trkpt lat="31.126198014244437" lon="-3.937347969040275">
        <ele>789.39999999999998</ele>
        <time>2011-04-22T17:31:46Z</time>
      </trkpt>
      <trkpt lat="31.12796600908041" lon="-3.937607975676656">
        <ele>795.39999999999998</ele>
        <time>2011-04-22T17:32:12Z</time>
      </trkpt>
      <trkpt lat="31.128114033490419" lon="-3.937607975676656">
        <ele>795.5</ele>
        <time>2011-04-22T17:32:14Z</time>
      </trkpt>
      <trkpt lat="31.128272032365203" lon="-3.937589032575488">
        <ele>795.89999999999998</ele>
        <time>2011-04-22T17:32:16Z</time>
      </trkpt>
      <trkpt lat="31.128429025411606" lon="-3.937546033412218">
        <ele>796.10000000000002</ele>
        <time>2011-04-22T17:32:18Z</time>
      </trkpt>
      <trkpt lat="31.128556011244655" lon="-3.937488030642271">
        <ele>795.79999999999995</ele>
        <time>2011-04-22T17:32:20Z</time>
      </trkpt>
      <trkpt lat="31.130182016640902" lon="-3.936480022966862">
        <ele>793.70000000000005</ele>
        <time>2011-04-22T17:32:44Z</time>
      </trkpt>
      <trkpt lat="31.130339009687304" lon="-3.936439035460353">
        <ele>793</ele>
        <time>2011-04-22T17:32:46Z</time>
      </trkpt>
      <trkpt lat="31.130583006888628" lon="-3.936425037682056">
        <ele>791.5</ele>
        <time>2011-04-22T17:32:49Z</time>
      </trkpt>
      <trkpt lat="31.130756009370089" lon="-3.936426965519786">
        <ele>791.60000000000002</ele>
        <time>2011-04-22T17:32:51Z</time>
      </trkpt>
      <trkpt lat="31.136393006891012" lon="-3.937076982110739">
        <ele>794.89999999999998</ele>
        <time>2011-04-22T17:33:54Z</time>
      </trkpt>
      <trkpt lat="31.136562991887331" lon="-3.937074970453978">
        <ele>795.29999999999995</ele>
        <time>2011-04-22T17:33:56Z</time>
      </trkpt>
      <trkpt lat="31.136706992983818" lon="-3.937059966847301">
        <ele>795.60000000000002</ele>
        <time>2011-04-22T17:33:58Z</time>
      </trkpt>
      <trkpt lat="31.136817969381809" lon="-3.937031971290708">
        <ele>795.60000000000002</ele>
        <time>2011-04-22T17:34:00Z</time>
      </trkpt>
      <trkpt lat="31.136921988800168" lon="-3.936975980177522">
        <ele>794.79999999999995</ele>
        <time>2011-04-22T17:34:04Z</time>
      </trkpt>
      <trkpt lat="31.136929029598832" lon="-3.936848994344473">
        <ele>793.89999999999998</ele>
        <time>2011-04-22T17:34:16Z</time>
      </trkpt>
      <trkpt lat="31.136757032945752" lon="-3.936758972704411">
        <ele>794.89999999999998</ele>
        <time>2011-04-22T17:34:20Z</time>
      </trkpt>
      <trkpt lat="31.133697973564267" lon="-3.936924012377858">
        <ele>809.60000000000002</ele>
        <time>2011-04-22T17:34:56Z</time>
      </trkpt>
      <trkpt lat="31.133597977459431" lon="-3.936914037913084">
        <ele>809.79999999999995</ele>
        <time>2011-04-22T17:34:57Z</time>
      </trkpt>
      <trkpt lat="31.13035200163722" lon="-3.936440963298082">
        <ele>819.5</ele>
        <time>2011-04-22T17:35:30Z</time>
      </trkpt>
      <trkpt lat="31.130186961963773" lon="-3.936474993824959">
        <ele>820</ele>
        <time>2011-04-22T17:35:32Z</time>
      </trkpt>
      <trkpt lat="31.130100963637233" lon="-3.936508018523455">
        <ele>820.39999999999998</ele>
        <time>2011-04-22T17:35:33Z</time>
      </trkpt>
      <trkpt lat="31.129842968657613" lon="-3.936644978821278">
        <ele>821.10000000000002</ele>
        <time>2011-04-22T17:35:36Z</time>
      </trkpt>
      <trkpt lat="31.128171030431986" lon="-3.937648963183165">
        <ele>825.29999999999995</ele>
        <time>2011-04-22T17:36:01Z</time>
      </trkpt>
      <trkpt lat="31.128002973273396" lon="-3.93770101480186">
        <ele>826.20000000000005</ele>
        <time>2011-04-22T17:36:03Z</time>
      </trkpt>
      <trkpt lat="31.127831982448697" lon="-3.937706965953112">
        <ele>827.10000000000002</ele>
        <time>2011-04-22T17:36:05Z</time>
      </trkpt>
      <trkpt lat="31.127703990787268" lon="-3.937661033123732">
        <ele>827.29999999999995</ele>
        <time>2011-04-22T17:36:07Z</time>
      </trkpt>
      <trkpt lat="31.127437027171254" lon="-3.93755198456347">
        <ele>827.29999999999995</ele>
        <time>2011-04-22T17:36:11Z</time>
      </trkpt>
      <trkpt lat="31.125466022640467" lon="-3.937287032604218">
        <ele>829.70000000000005</ele>
        <time>2011-04-22T17:36:42Z</time>
      </trkpt>
      <trkpt lat="31.125091016292572" lon="-3.937328020110726">
        <ele>830.20000000000005</ele>
        <time>2011-04-22T17:36:47Z</time>
      </trkpt>
      <trkpt lat="31.123646982014179" lon="-3.937689028680325">
        <ele>837.5</ele>
        <time>2011-04-22T17:37:07Z</time>
      </trkpt>
      <trkpt lat="31.122914990410209" lon="-3.937731022015214">
        <ele>836.60000000000002</ele>
        <time>2011-04-22T17:37:16Z</time>
      </trkpt>
      <trkpt lat="31.122645009309053" lon="-3.937730016186833">
        <ele>836.5</ele>
        <time>2011-04-22T17:37:19Z</time>
      </trkpt>
      <trkpt lat="31.122545013204217" lon="-3.937751976773143">
        <ele>836.29999999999995</ele>
        <time>2011-04-22T17:37:20Z</time>
      </trkpt>
      <trkpt lat="31.122217029333115" lon="-3.937846021726728">
        <ele>837.5</ele>
        <time>2011-04-22T17:37:23Z</time>
      </trkpt>
      <trkpt lat="31.121995998546481" lon="-3.937933025881648">
        <ele>837.89999999999998</ele>
        <time>2011-04-22T17:37:25Z</time>
      </trkpt>
      <trkpt lat="31.121889967471361" lon="-3.937990022823215">
        <ele>837.60000000000002</ele>
        <time>2011-04-22T17:37:26Z</time>
      </trkpt>
      <trkpt lat="31.121241962537169" lon="-3.93843300640583">
        <ele>835.89999999999998</ele>
        <time>2011-04-22T17:37:33Z</time>
      </trkpt>
      <trkpt lat="31.121141966432333" lon="-3.938467036932707">
        <ele>836.20000000000005</ele>
        <time>2011-04-22T17:37:34Z</time>
      </trkpt>
      <trkpt lat="31.120953960344195" lon="-3.938516993075609">
        <ele>836.79999999999995</ele>
        <time>2011-04-22T17:37:36Z</time>
      </trkpt>
      <trkpt lat="31.119983000680804" lon="-3.938712039962411">
        <ele>830.20000000000005</ele>
        <time>2011-04-22T17:37:46Z</time>
      </trkpt>
      <trkpt lat="31.119884010404348" lon="-3.938723020255566">
        <ele>822.39999999999998</ele>
        <time>2011-04-22T17:37:47Z</time>
      </trkpt>
      <trkpt lat="31.119743026793003" lon="-3.938844976946712">
        <ele>817</ele>
        <time>2011-04-22T17:37:49Z</time>
      </trkpt>
      <trkpt lat="31.119549991562963" lon="-3.939053015783429">
        <ele>810.60000000000002</ele>
        <time>2011-04-22T17:37:52Z</time>
      </trkpt>
      <trkpt lat="31.119471034035087" lon="-3.939112024381757">
        <ele>808.5</ele>
        <time>2011-04-22T17:37:53Z</time>
      </trkpt>
      <trkpt lat="31.119384029880166" lon="-3.939160974696279">
        <ele>806.5</ele>
        <time>2011-04-22T17:37:54Z</time>
      </trkpt>
      <trkpt lat="31.119290990754962" lon="-3.939196011051536">
        <ele>804.60000000000002</ele>
        <time>2011-04-22T17:37:55Z</time>
      </trkpt>
      <trkpt lat="31.119190994650126" lon="-3.939218977466226">
        <ele>803.20000000000005</ele>
        <time>2011-04-22T17:37:56Z</time>
      </trkpt>
      <trkpt lat="31.119084963575006" lon="-3.939233981072903">
        <ele>801.60000000000002</ele>
        <time>2011-04-22T17:37:57Z</time>
      </trkpt>
      <trkpt lat="31.118977004662156" lon="-3.939241021871567">
        <ele>799.89999999999998</ele>
        <time>2011-04-22T17:37:58Z</time>
      </trkpt>
      <trkpt lat="31.118867034092546" lon="-3.939241021871567">
        <ele>797.70000000000005</ele>
        <time>2011-04-22T17:37:59Z</time>
      </trkpt>
      <trkpt lat="31.118757985532284" lon="-3.939230963587761">
        <ele>796</ele>
        <time>2011-04-22T17:38:00Z</time>
      </trkpt>
      <trkpt lat="31.117964973673224" lon="-3.939152006059885">
        <ele>782</ele>
        <time>2011-04-22T17:38:08Z</time>
      </trkpt>
      <trkpt lat="31.117873024195433" lon="-3.939159968867898">
        <ele>780.39999999999998</ele>
        <time>2011-04-22T17:38:09Z</time>
      </trkpt>
      <trkpt lat="31.117779985070229" lon="-3.939176984131336">
        <ele>779</ele>
        <time>2011-04-22T17:38:10Z</time>
      </trkpt>
      <trkpt lat="31.117688035592437" lon="-3.939200034365058">
        <ele>777.89999999999998</ele>
        <time>2011-04-22T17:38:11Z</time>
      </trkpt>
      <trkpt lat="31.117600025609136" lon="-3.939230041578412">
        <ele>777</ele>
        <time>2011-04-22T17:38:12Z</time>
      </trkpt>
      <trkpt lat="31.117515033110976" lon="-3.93926901742816">
        <ele>776</ele>
        <time>2011-04-22T17:38:13Z</time>
      </trkpt>
      <trkpt lat="31.117282016202807" lon="-3.939397009089589">
        <ele>772</ele>
        <time>2011-04-22T17:38:16Z</time>
      </trkpt>
      <trkpt lat="31.117120999842882" lon="-3.939443025738001">
        <ele>769.29999999999995</ele>
        <time>2011-04-22T17:38:18Z</time>
      </trkpt>
      <trkpt lat="31.116763008758426" lon="-3.939518965780735">
        <ele>763.29999999999995</ele>
        <time>2011-04-22T17:38:23Z</time>
      </trkpt>
      <trkpt lat="31.116653038188815" lon="-3.939585015177727">
        <ele>761.10000000000002</ele>
        <time>2011-04-22T17:38:25Z</time>
      </trkpt>
      <trkpt lat="31.116351038217545" lon="-3.939964966848493">
        <ele>753.20000000000005</ele>
        <time>2011-04-22T17:38:31Z</time>
      </trkpt>
      <trkpt lat="31.116091031581163" lon="-3.940163031220436">
        <ele>747.89999999999998</ele>
        <time>2011-04-22T17:38:35Z</time>
      </trkpt>
      <trkpt lat="31.115817027166486" lon="-3.940355982631445">
        <ele>745.39999999999998</ele>
        <time>2011-04-22T17:38:39Z</time>
      </trkpt>
      <trkpt lat="31.115636983886361" lon="-3.940550023689866">
        <ele>743.10000000000002</ele>
        <time>2011-04-22T17:38:42Z</time>
      </trkpt>
      <trkpt lat="31.11522501334548" lon="-3.941125022247434">
        <ele>738.5</ele>
        <time>2011-04-22T17:38:50Z</time>
      </trkpt>
      <trkpt lat="31.115070031955838" lon="-3.941415036097169">
        <ele>737.10000000000002</ele>
        <time>2011-04-22T17:38:54Z</time>
      </trkpt>
      <trkpt lat="31.114971963688731" lon="-3.941512014716864">
        <ele>736.39999999999998</ele>
        <time>2011-04-22T17:38:56Z</time>
      </trkpt>
      <trkpt lat="31.114878002554178" lon="-3.94159097224474">
        <ele>735.20000000000005</ele>
        <time>2011-04-22T17:38:58Z</time>
      </trkpt>
      <trkpt lat="31.114821005612612" lon="-3.941704966127873">
        <ele>734.5</ele>
        <time>2011-04-22T17:39:00Z</time>
      </trkpt>
      <trkpt lat="31.114785969257355" lon="-3.941830024123192">
        <ele>733.60000000000002</ele>
        <time>2011-04-22T17:39:02Z</time>
      </trkpt>
      <trkpt lat="31.114664012566209" lon="-3.942050971090794">
        <ele>732.60000000000002</ele>
        <time>2011-04-22T17:39:07Z</time>
      </trkpt>
      <trkpt lat="31.114528980106115" lon="-3.942178040742874">
        <ele>730.89999999999998</ele>
        <time>2011-04-22T17:39:11Z</time>
      </trkpt>
      <trkpt lat="31.114311972633004" lon="-3.942518010735512">
        <ele>729.29999999999995</ele>
        <time>2011-04-22T17:39:18Z</time>
      </trkpt>
      <trkpt lat="31.11423603259027" lon="-3.942611971870065">
        <ele>728.70000000000005</ele>
        <time>2011-04-22T17:39:20Z</time>
      </trkpt>
      <trkpt lat="31.114097982645035" lon="-3.942702999338508">
        <ele>726.5</ele>
        <time>2011-04-22T17:39:23Z</time>
      </trkpt>
      <trkpt lat="31.114007961004972" lon="-3.942748010158539">
        <ele>725.20000000000005</ele>
        <time>2011-04-22T17:39:25Z</time>
      </trkpt>
      <trkpt lat="31.113916011527181" lon="-3.942779023200274">
        <ele>724.79999999999995</ele>
        <time>2011-04-22T17:39:27Z</time>
      </trkpt>
      <trkpt lat="31.1138079687953" lon="-3.94279302097857">
        <ele>724.5</ele>
        <time>2011-04-22T17:39:29Z</time>
      </trkpt>
      <trkpt lat="31.113691041246057" lon="-3.942788997665048">
        <ele>724.10000000000002</ele>
        <time>2011-04-22T17:39:31Z</time>
      </trkpt>
      <trkpt lat="31.113445032387972" lon="-3.942754967138171">
        <ele>723.39999999999998</ele>
        <time>2011-04-22T17:39:35Z</time>
      </trkpt>
      <trkpt lat="31.113331038504839" lon="-3.942795032635331">
        <ele>723.5</ele>
        <time>2011-04-22T17:39:37Z</time>
      </trkpt>
      <trkpt lat="31.113177984952927" lon="-3.942878013476729">
        <ele>723.10000000000002</ele>
        <time>2011-04-22T17:39:40Z</time>
      </trkpt>
      <trkpt lat="31.113064996898174" lon="-3.942905003204942">
        <ele>722.20000000000005</ele>
        <time>2011-04-22T17:39:42Z</time>
      </trkpt>
      <trkpt lat="31.11294899135828" lon="-3.942892011255026">
        <ele>722.39999999999998</ele>
        <time>2011-04-22T17:39:44Z</time>
      </trkpt>
      <trkpt lat="31.11284002661705" lon="-3.942868039011955">
        <ele>722.29999999999995</ele>
        <time>2011-04-22T17:39:46Z</time>
      </trkpt>
      <trkpt lat="31.112659983336926" lon="-3.942871978506446">
        <ele>721.70000000000005</ele>
        <time>2011-04-22T17:39:50Z</time>
      </trkpt>
      <trkpt lat="31.11253903247416" lon="-3.942897040396929">
        <ele>722.10000000000002</ele>
        <time>2011-04-22T17:39:53Z</time>
      </trkpt>
      <trkpt lat="31.112426966428757" lon="-3.942982032895088">
        <ele>721.39999999999998</ele>
        <time>2011-04-22T17:39:56Z</time>
      </trkpt>
      <trkpt lat="31.11232403665781" lon="-3.943096026778221">
        <ele>720.10000000000002</ele>
        <time>2011-04-22T17:39:59Z</time>
      </trkpt>
      <trkpt lat="31.112225968390703" lon="-3.943143971264362">
        <ele>719.79999999999995</ele>
        <time>2011-04-22T17:40:01Z</time>
      </trkpt>
      <trkpt lat="31.112112980335951" lon="-3.943132990971208">
        <ele>719.39999999999998</ele>
        <time>2011-04-22T17:40:03Z</time>
      </trkpt>
      <trkpt lat="31.111999992281199" lon="-3.943083034828305">
        <ele>719.70000000000005</ele>
        <time>2011-04-22T17:40:05Z</time>
      </trkpt>
      <trkpt lat="31.111897984519601" lon="-3.943027965724468">
        <ele>719.89999999999998</ele>
        <time>2011-04-22T17:40:07Z</time>
      </trkpt>
      <trkpt lat="31.111789019778371" lon="-3.943011034280062">
        <ele>719.20000000000005</ele>
        <time>2011-04-22T17:40:09Z</time>
      </trkpt>
      <trkpt lat="31.111158030107617" lon="-3.943024026229978">
        <ele>718.79999999999995</ele>
        <time>2011-04-22T17:40:20Z</time>
      </trkpt>
      <trkpt lat="31.111051999032497" lon="-3.94303098320961">
        <ele>718.79999999999995</ele>
        <time>2011-04-22T17:40:22Z</time>
      </trkpt>
      <trkpt lat="31.110940016806126" lon="-3.943007010966539">
        <ele>718.79999999999995</ele>
        <time>2011-04-22T17:40:24Z</time>
      </trkpt>
      <trkpt lat="31.1107790004462" lon="-3.942955965176225">
        <ele>717.79999999999995</ele>
        <time>2011-04-22T17:40:27Z</time>
      </trkpt>
      <trkpt lat="31.110675986856222" lon="-3.942959988489747">
        <ele>717.39999999999998</ele>
        <time>2011-04-22T17:40:29Z</time>
      </trkpt>
      <trkpt lat="31.110584959387779" lon="-3.943029977381229">
        <ele>716.89999999999998</ele>
        <time>2011-04-22T17:40:31Z</time>
      </trkpt>
      <trkpt lat="31.11045503988862" lon="-3.943179007619619">
        <ele>716</ele>
        <time>2011-04-22T17:40:34Z</time>
      </trkpt>
      <trkpt lat="31.110352026298642" lon="-3.943262994289398">
        <ele>716.20000000000005</ele>
        <time>2011-04-22T17:40:36Z</time>
      </trkpt>
      <trkpt lat="31.110238032415509" lon="-3.943329965695739">
        <ele>716.10000000000002</ele>
        <time>2011-04-22T17:40:38Z</time>
      </trkpt>
      <trkpt lat="31.110108029097319" lon="-3.943375982344151">
        <ele>715.70000000000005</ele>
        <time>2011-04-22T17:40:40Z</time>
      </trkpt>
      <trkpt lat="31.109848022460938" lon="-3.943440020084381">
        <ele>716</ele>
        <time>2011-04-22T17:40:44Z</time>
      </trkpt>
      <trkpt lat="31.109710978344083" lon="-3.943452006205916">
        <ele>716</ele>
        <time>2011-04-22T17:40:46Z</time>
      </trkpt>
      <trkpt lat="31.109577035531402" lon="-3.943445971235633">
        <ele>715.39999999999998</ele>
        <time>2011-04-22T17:40:48Z</time>
      </trkpt>
      <trkpt lat="31.109257014468312" lon="-3.94350104033947">
        <ele>714.89999999999998</ele>
        <time>2011-04-22T17:40:53Z</time>
      </trkpt>
      <trkpt lat="31.109140003100038" lon="-3.94350104033947">
        <ele>714.89999999999998</ele>
        <time>2011-04-22T17:40:55Z</time>
      </trkpt>
      <trkpt lat="31.109036989510059" lon="-3.943543033674359">
        <ele>714.39999999999998</ele>
        <time>2011-04-22T17:40:57Z</time>
      </trkpt>
      <trkpt lat="31.108927018940449" lon="-3.943590978160501">
        <ele>713.89999999999998</ele>
        <time>2011-04-22T17:40:59Z</time>
      </trkpt>
      <trkpt lat="31.108762985095382" lon="-3.943618973717094">
        <ele>714</ele>
        <time>2011-04-22T17:41:02Z</time>
      </trkpt>
      <trkpt lat="31.108676986768842" lon="-3.94367303699255">
        <ele>713.29999999999995</ele>
        <time>2011-04-22T17:41:04Z</time>
      </trkpt>
      <trkpt lat="31.10858797095716" lon="-3.943735985085368">
        <ele>712.5</ele>
        <time>2011-04-22T17:41:06Z</time>
      </trkpt>
      <trkpt lat="31.108482023701072" lon="-3.943753000348806">
        <ele>712.20000000000005</ele>
        <time>2011-04-22T17:41:08Z</time>
      </trkpt>
      <trkpt lat="31.108384961262345" lon="-3.943723998963833">
        <ele>712.10000000000002</ele>
        <time>2011-04-22T17:41:10Z</time>
      </trkpt>
      <trkpt lat="31.108330981805921" lon="-3.943614028394222">
        <ele>712.60000000000002</ele>
        <time>2011-04-22T17:41:13Z</time>
      </trkpt>
      <trkpt lat="31.108330981805921" lon="-3.943507997319102">
        <ele>712.79999999999995</ele>
        <time>2011-04-22T17:41:16Z</time>
      </trkpt>
      <trkpt lat="31.108229979872704" lon="-3.943496011197567">
        <ele>712.79999999999995</ele>
        <time>2011-04-22T17:41:19Z</time>
      </trkpt>
      <trkpt lat="31.108154961839318" lon="-3.943555019795895">
        <ele>712.60000000000002</ele>
        <time>2011-04-22T17:41:21Z</time>
      </trkpt>
      <trkpt lat="31.108059994876385" lon="-3.943866994231939">
        <ele>710.60000000000002</ele>
        <time>2011-04-22T17:41:26Z</time>
      </trkpt>
      <trkpt lat="31.107990005984902" lon="-3.944260021671653">
        <ele>710.39999999999998</ele>
        <time>2011-04-22T17:41:32Z</time>
      </trkpt>
      <trkpt lat="31.107986988499761" lon="-3.94438499584794">
        <ele>709.79999999999995</ele>
        <time>2011-04-22T17:41:34Z</time>
      </trkpt>
      <trkpt lat="31.108053037896752" lon="-3.944617006927729">
        <ele>710.70000000000005</ele>
        <time>2011-04-22T17:41:38Z</time>
      </trkpt>
      <trkpt lat="31.108061000704765" lon="-3.944722032174468">
        <ele>710.79999999999995</ele>
        <time>2011-04-22T17:41:40Z</time>
      </trkpt>
      <trkpt lat="31.108019007369876" lon="-3.944818004965782">
        <ele>711.20000000000005</ele>
        <time>2011-04-22T17:41:42Z</time>
      </trkpt>
      <trkpt lat="31.107944995164871" lon="-3.944882964715362">
        <ele>711.60000000000002</ele>
        <time>2011-04-22T17:41:44Z</time>
      </trkpt>
      <trkpt lat="31.107889004051685" lon="-3.945014979690313">
        <ele>712.10000000000002</ele>
        <time>2011-04-22T17:41:47Z</time>
      </trkpt>
      <trkpt lat="31.107909958809614" lon="-3.945154035463929">
        <ele>713.10000000000002</ele>
        <time>2011-04-22T17:41:50Z</time>
      </trkpt>
      <trkpt lat="31.107876012101769" lon="-3.945268029347062">
        <ele>711.89999999999998</ele>
        <time>2011-04-22T17:41:53Z</time>
      </trkpt>
      <trkpt lat="31.107736034318805" lon="-3.945397026836872">
        <ele>712.10000000000002</ele>
        <time>2011-04-22T17:41:57Z</time>
      </trkpt>
      <trkpt lat="31.107558002695441" lon="-3.945311028510332">
        <ele>712.89999999999998</ele>
        <time>2011-04-22T17:42:02Z</time>
      </trkpt>
      <trkpt lat="31.107482984662056" lon="-3.945021014660597">
        <ele>714.20000000000005</ele>
        <time>2011-04-22T17:42:07Z</time>
      </trkpt>
      <trkpt lat="31.10742598772049" lon="-3.944907020777464">
        <ele>714.70000000000005</ele>
        <time>2011-04-22T17:42:09Z</time>
      </trkpt>
      <trkpt lat="31.107285004109144" lon="-3.944723038002849">
        <ele>714.39999999999998</ele>
        <time>2011-04-22T17:42:14Z</time>
      </trkpt>
      <trkpt lat="31.107173021882772" lon="-3.944666041061282">
        <ele>714.10000000000002</ele>
        <time>2011-04-22T17:42:17Z</time>
      </trkpt>
      <trkpt lat="31.10704000107944" lon="-3.944660006090999">
        <ele>714</ele>
        <time>2011-04-22T17:42:20Z</time>
      </trkpt>
      <trkpt lat="31.106943022459745" lon="-3.944617006927729">
        <ele>714.60000000000002</ele>
        <time>2011-04-22T17:42:22Z</time>
      </trkpt>
      <trkpt lat="31.106543960049748" lon="-3.944541988894343">
        <ele>714.89999999999998</ele>
        <time>2011-04-22T17:42:29Z</time>
      </trkpt>
      <trkpt lat="31.106433989480138" lon="-3.944539977237582">
        <ele>714.89999999999998</ele>
        <time>2011-04-22T17:42:31Z</time>
      </trkpt>
      <trkpt lat="31.10633097589016" lon="-3.944594962522388">
        <ele>714.10000000000002</ele>
        <time>2011-04-22T17:42:33Z</time>
      </trkpt>
      <trkpt lat="31.106240032240748" lon="-3.944694036617875">
        <ele>713.79999999999995</ele>
        <time>2011-04-22T17:42:35Z</time>
      </trkpt>
      <trkpt lat="31.106157973408699" lon="-3.944816999137402">
        <ele>713.60000000000002</ele>
        <time>2011-04-22T17:42:37Z</time>
      </trkpt>
      <trkpt lat="31.106046997010708" lon="-3.944923030212522">
        <ele>712.79999999999995</ele>
        <time>2011-04-22T17:42:39Z</time>
      </trkpt>
      <trkpt lat="31.105646006762981" lon="-3.945231987163425">
        <ele>710.29999999999995</ele>
        <time>2011-04-22T17:42:46Z</time>
      </trkpt>
      <trkpt lat="31.10542899928987" lon="-3.945385962724686">
        <ele>711.60000000000002</ele>
        <time>2011-04-22T17:42:50Z</time>
      </trkpt>
      <trkpt lat="31.105316011235118" lon="-3.94554496742785">
        <ele>712.10000000000002</ele>
        <time>2011-04-22T17:42:53Z</time>
      </trkpt>
      <trkpt lat="31.105226995423436" lon="-3.945625014603138">
        <ele>712.20000000000005</ele>
        <time>2011-04-22T17:42:55Z</time>
      </trkpt>
      <trkpt lat="31.104950979351997" lon="-3.945814026519656">
        <ele>712.70000000000005</ele>
        <time>2011-04-22T17:43:00Z</time>
      </trkpt>
      <trkpt lat="31.104842014610767" lon="-3.945859037339687">
        <ele>713.20000000000005</ele>
        <time>2011-04-22T17:43:02Z</time>
      </trkpt>
      <trkpt lat="31.10472097992897" lon="-3.945853002369404">
        <ele>713.39999999999998</ele>
        <time>2011-04-22T17:43:04Z</time>
      </trkpt>
      <trkpt lat="31.104294005781412" lon="-3.945699026808143">
        <ele>714.10000000000002</ele>
        <time>2011-04-22T17:43:11Z</time>
      </trkpt>
      <trkpt lat="31.104180011898279" lon="-3.945687040686607">
        <ele>714.10000000000002</ele>
        <time>2011-04-22T17:43:13Z</time>
      </trkpt>
      <trkpt lat="31.104080015793443" lon="-3.945733979344368">
        <ele>714.39999999999998</ele>
        <time>2011-04-22T17:43:15Z</time>
      </trkpt>
      <trkpt lat="31.103772986680269" lon="-3.945933971554041">
        <ele>714.29999999999995</ele>
        <time>2011-04-22T17:43:21Z</time>
      </trkpt>
      <trkpt lat="31.103686988353729" lon="-3.946027010679245">
        <ele>714.20000000000005</ele>
        <time>2011-04-22T17:43:23Z</time>
      </trkpt>
      <trkpt lat="31.103566959500313" lon="-3.946206970140338">
        <ele>714.20000000000005</ele>
        <time>2011-04-22T17:43:26Z</time>
      </trkpt>
      <trkpt lat="31.103437040001154" lon="-3.946447027847171">
        <ele>714.60000000000002</ele>
        <time>2011-04-22T17:43:30Z</time>
      </trkpt>
      <trkpt lat="31.103347018361092" lon="-3.946541994810104">
        <ele>714.39999999999998</ele>
        <time>2011-04-22T17:43:32Z</time>
      </trkpt>
      <trkpt lat="31.10323503613472" lon="-3.946611983701587">
        <ele>714.79999999999995</ele>
        <time>2011-04-22T17:43:34Z</time>
      </trkpt>
      <trkpt lat="31.103112995624542" lon="-3.946663029491901">
        <ele>714.70000000000005</ele>
        <time>2011-04-22T17:43:36Z</time>
      </trkpt>
      <trkpt lat="31.102997995913029" lon="-3.94666001200676">
        <ele>714.79999999999995</ele>
        <time>2011-04-22T17:43:38Z</time>
      </trkpt>
      <trkpt lat="31.102889031171799" lon="-3.946607038378716">
        <ele>715</ele>
        <time>2011-04-22T17:43:40Z</time>
      </trkpt>
      <trkpt lat="31.102628018707037" lon="-3.946409979835153">
        <ele>716.20000000000005</ele>
        <time>2011-04-22T17:43:45Z</time>
      </trkpt>
      <trkpt lat="31.102514024823904" lon="-3.946287017315626">
        <ele>716.89999999999998</ele>
        <time>2011-04-22T17:43:48Z</time>
      </trkpt>
      <trkpt lat="31.102395001798868" lon="-3.946248963475227">
        <ele>717.60000000000002</ele>
        <time>2011-04-22T17:43:51Z</time>
      </trkpt>
      <trkpt lat="31.102324007079005" lon="-3.946318030357361">
        <ele>718</ele>
        <time>2011-04-22T17:43:53Z</time>
      </trkpt>
      <trkpt lat="31.102231973782182" lon="-3.946496983990073">
        <ele>717.89999999999998</ele>
        <time>2011-04-22T17:43:57Z</time>
      </trkpt>
      <trkpt lat="31.10220598988235" lon="-3.946637967601419">
        <ele>718</ele>
        <time>2011-04-22T17:44:00Z</time>
      </trkpt>
      <trkpt lat="31.102268015965819" lon="-3.94676998257637">
        <ele>717.39999999999998</ele>
        <time>2011-04-22T17:44:03Z</time>
      </trkpt>
      <trkpt lat="31.102275978773832" lon="-3.946892023086548">
        <ele>717.29999999999995</ele>
        <time>2011-04-22T17:44:05Z</time>
      </trkpt>
      <trkpt lat="31.102245971560478" lon="-3.947030995041132">
        <ele>718.39999999999998</ele>
        <time>2011-04-22T17:44:07Z</time>
      </trkpt>
      <trkpt lat="31.102186040952802" lon="-3.94724297337234">
        <ele>718.10000000000002</ele>
        <time>2011-04-22T17:44:11Z</time>
      </trkpt>
      <trkpt lat="31.102186962962151" lon="-3.947350010275841">
        <ele>716.89999999999998</ele>
        <time>2011-04-22T17:44:13Z</time>
      </trkpt>
      <trkpt lat="31.102246977388859" lon="-3.947464004158974">
        <ele>716.39999999999998</ele>
        <time>2011-04-22T17:44:15Z</time>
      </trkpt>
      <trkpt lat="31.102336999028921" lon="-3.947580009698868">
        <ele>716.20000000000005</ele>
        <time>2011-04-22T17:44:17Z</time>
      </trkpt>
      <trkpt lat="31.102467002347112" lon="-3.947729039937258">
        <ele>716.39999999999998</ele>
        <time>2011-04-22T17:44:20Z</time>
      </trkpt>
      <trkpt lat="31.10254998318851" lon="-3.947807997465134">
        <ele>717</ele>
        <time>2011-04-22T17:44:22Z</time>
      </trkpt>
      <trkpt lat="31.102663977071643" lon="-3.94790799356997">
        <ele>717</ele>
        <time>2011-04-22T17:44:25Z</time>
      </trkpt>
      <trkpt lat="31.102726003155112" lon="-3.948026010766625">
        <ele>716.70000000000005</ele>
        <time>2011-04-22T17:44:28Z</time>
      </trkpt>
      <trkpt lat="31.102694990113378" lon="-3.948163976892829">
        <ele>716.60000000000002</ele>
        <time>2011-04-22T17:44:31Z</time>
      </trkpt>
      <trkpt lat="31.102601028978825" lon="-3.948259027674794">
        <ele>716.79999999999995</ele>
        <time>2011-04-22T17:44:34Z</time>
      </trkpt>
      <trkpt lat="31.102473037317395" lon="-3.94829398021102">
        <ele>717.20000000000005</ele>
        <time>2011-04-22T17:44:37Z</time>
      </trkpt>
      <trkpt lat="31.102385027334094" lon="-3.948269002139568">
        <ele>717.39999999999998</ele>
        <time>2011-04-22T17:44:39Z</time>
      </trkpt>
      <trkpt lat="31.102179000154138" lon="-3.948262967169285">
        <ele>717.60000000000002</ele>
        <time>2011-04-22T17:44:44Z</time>
      </trkpt>
      <trkpt lat="31.102082021534443" lon="-3.948242012411356">
        <ele>717.70000000000005</ele>
        <time>2011-04-22T17:44:46Z</time>
      </trkpt>
      <trkpt lat="31.101743979379535" lon="-3.948125001043081">
        <ele>717.89999999999998</ele>
        <time>2011-04-22T17:44:52Z</time>
      </trkpt>
      <trkpt lat="31.101625962182879" lon="-3.948071021586657">
        <ele>718.10000000000002</ele>
        <time>2011-04-22T17:44:54Z</time>
      </trkpt>
      <trkpt lat="31.101394034922123" lon="-3.947946969419718">
        <ele>718.39999999999998</ele>
        <time>2011-04-22T17:44:58Z</time>
      </trkpt>
      <trkpt lat="31.101140985265374" lon="-3.947874968871474">
        <ele>718.5</ele>
        <time>2011-04-22T17:45:02Z</time>
      </trkpt>
      <trkpt lat="31.100889025256038" lon="-3.947766004130244">
        <ele>718.5</ele>
        <time>2011-04-22T17:45:06Z</time>
      </trkpt>
      <trkpt lat="31.100476970896125" lon="-3.947641029953957">
        <ele>718.60000000000002</ele>
        <time>2011-04-22T17:45:13Z</time>
      </trkpt>
      <trkpt lat="31.100362977012992" lon="-3.947637006640434">
        <ele>718.79999999999995</ele>
        <time>2011-04-22T17:45:15Z</time>
      </trkpt>
      <trkpt lat="31.100248983129859" lon="-3.947686040773988">
        <ele>718.79999999999995</ele>
        <time>2011-04-22T17:45:17Z</time>
      </trkpt>
      <trkpt lat="31.099041989073157" lon="-3.948295991867781">
        <ele>719.20000000000005</ele>
        <time>2011-04-22T17:45:36Z</time>
      </trkpt>
      <trkpt lat="31.098923971876502" lon="-3.948318958282471">
        <ele>719.70000000000005</ele>
        <time>2011-04-22T17:45:38Z</time>
      </trkpt>
      <trkpt lat="31.09868299216032" lon="-3.948332034051418">
        <ele>720</ele>
        <time>2011-04-22T17:45:42Z</time>
      </trkpt>
      <trkpt lat="31.098570004105568" lon="-3.948373021557927">
        <ele>720.20000000000005</ele>
        <time>2011-04-22T17:45:44Z</time>
      </trkpt>
      <trkpt lat="31.098500015214086" lon="-3.948468994349241">
        <ele>719.89999999999998</ele>
        <time>2011-04-22T17:45:46Z</time>
      </trkpt>
      <trkpt lat="31.098474031314254" lon="-3.948590029031038">
        <ele>719.70000000000005</ele>
        <time>2011-04-22T17:45:48Z</time>
      </trkpt>
      <trkpt lat="31.098400019109249" lon="-3.948673009872437">
        <ele>719.70000000000005</ele>
        <time>2011-04-22T17:45:50Z</time>
      </trkpt>
      <trkpt lat="31.09803800471127" lon="-3.948749033734202">
        <ele>720.20000000000005</ele>
        <time>2011-04-22T17:45:56Z</time>
      </trkpt>
      <trkpt lat="31.097800964489579" lon="-3.948825979605317">
        <ele>720.79999999999995</ele>
        <time>2011-04-22T17:46:00Z</time>
      </trkpt>
      <trkpt lat="31.0975840408355" lon="-3.948850035667419">
        <ele>720.89999999999998</ele>
        <time>2011-04-22T17:46:04Z</time>
      </trkpt>
      <trkpt lat="31.097378013655543" lon="-3.948865039274097">
        <ele>721.10000000000002</ele>
        <time>2011-04-22T17:46:08Z</time>
      </trkpt>
      <trkpt lat="31.097287992015481" lon="-3.948911977931857">
        <ele>721.10000000000002</ele>
        <time>2011-04-22T17:46:10Z</time>
      </trkpt>
      <trkpt lat="31.097215991467237" lon="-3.948977021500468">
        <ele>720.70000000000005</ele>
        <time>2011-04-22T17:46:12Z</time>
      </trkpt>
      <trkpt lat="31.097176009789109" lon="-3.949096966534853">
        <ele>720.29999999999995</ele>
        <time>2011-04-22T17:46:15Z</time>
      </trkpt>
      <trkpt lat="31.097187995910645" lon="-3.949227975681424">
        <ele>719.70000000000005</ele>
        <time>2011-04-22T17:46:19Z</time>
      </trkpt>
      <trkpt lat="31.097245998680592" lon="-3.949432997033">
        <ele>718.60000000000002</ele>
        <time>2011-04-22T17:46:24Z</time>
      </trkpt>
      <trkpt lat="31.097311964258552" lon="-3.949528969824314">
        <ele>717.79999999999995</ele>
        <time>2011-04-22T17:46:27Z</time>
      </trkpt>
      <trkpt lat="31.097541963681579" lon="-3.949585966765881">
        <ele>717.70000000000005</ele>
        <time>2011-04-22T17:46:36Z</time>
      </trkpt>
      <trkpt lat="31.097448002547026" lon="-3.949563000351191">
        <ele>717.5</ele>
        <time>2011-04-22T17:46:43Z</time>
      </trkpt>
      <trkpt lat="31.097540035843849" lon="-3.949576998129487">
        <ele>717.39999999999998</ele>
        <time>2011-04-22T17:46:59Z</time>
      </trkpt>
      <trkpt lat="31.097657969221473" lon="-3.949630977585912">
        <ele>718</ele>
        <time>2011-04-22T17:47:02Z</time>
      </trkpt>
      <trkpt lat="31.09773701056838" lon="-3.949734997004271">
        <ele>717.5</ele>
        <time>2011-04-22T17:47:05Z</time>
      </trkpt>
      <trkpt lat="31.097697028890252" lon="-3.949863994494081">
        <ele>717</ele>
        <time>2011-04-22T17:47:08Z</time>
      </trkpt>
      <trkpt lat="31.097526960074902" lon="-3.94979702308774">
        <ele>717.39999999999998</ele>
        <time>2011-04-22T17:47:12Z</time>
      </trkpt>
      <trkpt lat="31.097475998103619" lon="-3.949698032811284">
        <ele>717.39999999999998</ele>
        <time>2011-04-22T17:47:14Z</time>
      </trkpt>
      <trkpt lat="31.097376001998782" lon="-3.949356973171234">
        <ele>717.39999999999998</ele>
        <time>2011-04-22T17:47:21Z</time>
      </trkpt>
      <trkpt lat="31.097213979810476" lon="-3.949037035927177">
        <ele>716.60000000000002</ele>
        <time>2011-04-22T17:47:28Z</time>
      </trkpt>
      <trkpt lat="31.097123958170414" lon="-3.948921030387282">
        <ele>716.29999999999995</ele>
        <time>2011-04-22T17:47:31Z</time>
      </trkpt>
      <trkpt lat="31.097008036449552" lon="-3.948825979605317">
        <ele>717.39999999999998</ele>
        <time>2011-04-22T17:47:34Z</time>
      </trkpt>
      <trkpt lat="31.09692296013236" lon="-3.948781974613667">
        <ele>718</ele>
        <time>2011-04-22T17:47:36Z</time>
      </trkpt>
      <trkpt lat="31.096826987341046" lon="-3.948758002370596">
        <ele>718.29999999999995</ele>
        <time>2011-04-22T17:47:38Z</time>
      </trkpt>
      <trkpt lat="31.096737971529365" lon="-3.948682984337211">
        <ele>718.60000000000002</ele>
        <time>2011-04-22T17:47:40Z</time>
      </trkpt>
      <trkpt lat="31.09666395932436" lon="-3.948590029031038">
        <ele>719.20000000000005</ele>
        <time>2011-04-22T17:47:42Z</time>
      </trkpt>
      <trkpt lat="31.0965789668262" lon="-3.948525991290808">
        <ele>719.60000000000002</ele>
        <time>2011-04-22T17:47:44Z</time>
      </trkpt>
      <trkpt lat="31.096228016540408" lon="-3.948420966044068">
        <ele>720.20000000000005</ele>
        <time>2011-04-22T17:47:51Z</time>
      </trkpt>
      <trkpt lat="31.095981001853943" lon="-3.948281994089484">
        <ele>720.70000000000005</ele>
        <time>2011-04-22T17:47:56Z</time>
      </trkpt>
      <trkpt lat="31.095823002979159" lon="-3.948241006582975">
        <ele>721.29999999999995</ele>
        <time>2011-04-22T17:47:59Z</time>
      </trkpt>
      <trkpt lat="31.095719989389181" lon="-3.948245029896498">
        <ele>721.10000000000002</ele>
        <time>2011-04-22T17:48:01Z</time>
      </trkpt>
      <trkpt lat="31.095613958314061" lon="-3.948290962725878">
        <ele>720.89999999999998</ele>
        <time>2011-04-22T17:48:03Z</time>
      </trkpt>
      <trkpt lat="31.095529971644282" lon="-3.948360029608011">
        <ele>720.39999999999998</ele>
        <time>2011-04-22T17:48:05Z</time>
      </trkpt>
      <trkpt lat="31.095476998016238" lon="-3.948452984914184">
        <ele>720.10000000000002</ele>
        <time>2011-04-22T17:48:07Z</time>
      </trkpt>
      <trkpt lat="31.095371972769499" lon="-3.949040975421667">
        <ele>719.39999999999998</ele>
        <time>2011-04-22T17:48:16Z</time>
      </trkpt>
      <trkpt lat="31.095348000526428" lon="-3.949268041178584">
        <ele>719.89999999999998</ele>
        <time>2011-04-22T17:48:19Z</time>
      </trkpt>
      <trkpt lat="31.095311958342791" lon="-3.949384968727827">
        <ele>719.70000000000005</ele>
        <time>2011-04-22T17:48:21Z</time>
      </trkpt>
      <trkpt lat="31.095243981108069" lon="-3.949477002024651">
        <ele>719.10000000000002</ele>
        <time>2011-04-22T17:48:23Z</time>
      </trkpt>
      <trkpt lat="31.095151025801897" lon="-3.949513966217637">
        <ele>718.60000000000002</ele>
        <time>2011-04-22T17:48:25Z</time>
      </trkpt>
      <trkpt lat="31.095063015818596" lon="-3.949489993974567">
        <ele>718.20000000000005</ele>
        <time>2011-04-22T17:48:27Z</time>
      </trkpt>
      <trkpt lat="31.095001995563507" lon="-3.94941296428442">
        <ele>718.10000000000002</ele>
        <time>2011-04-22T17:48:29Z</time>
      </trkpt>
      <trkpt lat="31.094923038035631" lon="-3.949241973459721">
        <ele>718.29999999999995</ele>
        <time>2011-04-22T17:48:33Z</time>
      </trkpt>
      <trkpt lat="31.094823963940144" lon="-3.949134014546871">
        <ele>719.20000000000005</ele>
        <time>2011-04-22T17:48:36Z</time>
      </trkpt>
      <trkpt lat="31.094626989215612" lon="-3.948963023722172">
        <ele>720.60000000000002</ele>
        <time>2011-04-22T17:48:41Z</time>
      </trkpt>
      <trkpt lat="31.094547025859356" lon="-3.948907032608986">
        <ele>721.20000000000005</ele>
        <time>2011-04-22T17:48:43Z</time>
      </trkpt>
      <trkpt lat="31.094455998390913" lon="-3.94889404065907">
        <ele>721.60000000000002</ele>
        <time>2011-04-22T17:48:45Z</time>
      </trkpt>
      <trkpt lat="31.094348961487412" lon="-3.948984984308481">
        <ele>720.89999999999998</ele>
        <time>2011-04-22T17:48:48Z</time>
      </trkpt>
      <trkpt lat="31.094303028658032" lon="-3.949083974584937">
        <ele>720.29999999999995</ele>
        <time>2011-04-22T17:48:50Z</time>
      </trkpt>
      <trkpt lat="31.094305962324142" lon="-3.949200985953212">
        <ele>719.60000000000002</ele>
        <time>2011-04-22T17:48:52Z</time>
      </trkpt>
      <trkpt lat="31.094358013942838" lon="-3.949371976777911">
        <ele>719.29999999999995</ele>
        <time>2011-04-22T17:48:55Z</time>
      </trkpt>
      <trkpt lat="31.094473013654351" lon="-3.949695015326142">
        <ele>718.5</ele>
        <time>2011-04-22T17:49:01Z</time>
      </trkpt>
      <trkpt lat="31.094633024185896" lon="-3.949984023347497">
        <ele>718.5</ele>
        <time>2011-04-22T17:49:08Z</time>
      </trkpt>
      <trkpt lat="31.094689015299082" lon="-3.950231960043311">
        <ele>717.60000000000002</ele>
        <time>2011-04-22T17:49:14Z</time>
      </trkpt>
      <trkpt lat="31.094759004190564" lon="-3.950364980846643">
        <ele>717.60000000000002</ele>
        <time>2011-04-22T17:49:17Z</time>
      </trkpt>
      <trkpt lat="31.094745006412268" lon="-3.950587017461658">
        <ele>717</ele>
        <time>2011-04-22T17:49:22Z</time>
      </trkpt>
      <trkpt lat="31.094626989215612" lon="-3.950621969997883">
        <ele>715.5</ele>
        <time>2011-04-22T17:49:25Z</time>
      </trkpt>
      <trkpt lat="31.09455700032413" lon="-3.95054804161191">
        <ele>714.79999999999995</ele>
        <time>2011-04-22T17:49:27Z</time>
      </trkpt>
      <trkpt lat="31.094521963968873" lon="-3.950406974181533">
        <ele>714.29999999999995</ele>
        <time>2011-04-22T17:49:30Z</time>
      </trkpt>
      <trkpt lat="31.09438500367105" lon="-3.950272025540471">
        <ele>714.39999999999998</ele>
        <time>2011-04-22T17:49:34Z</time>
      </trkpt>
      <trkpt lat="31.094325995072722" lon="-3.950169011950493">
        <ele>714.79999999999995</ele>
        <time>2011-04-22T17:49:36Z</time>
      </trkpt>
      <trkpt lat="31.094059031456709" lon="-3.949709013104439">
        <ele>716.39999999999998</ele>
        <time>2011-04-22T17:49:44Z</time>
      </trkpt>
      <trkpt lat="31.093931961804628" lon="-3.949559982866049">
        <ele>717.39999999999998</ele>
        <time>2011-04-22T17:49:47Z</time>
      </trkpt>
      <trkpt lat="31.093796007335186" lon="-3.949440959841013">
        <ele>718.39999999999998</ele>
        <time>2011-04-22T17:49:50Z</time>
      </trkpt>
      <trkpt lat="31.093687964603305" lon="-3.949396032840014">
        <ele>719.10000000000002</ele>
        <time>2011-04-22T17:49:52Z</time>
      </trkpt>
      <trkpt lat="31.093571959063411" lon="-3.94938999786973">
        <ele>719.39999999999998</ele>
        <time>2011-04-22T17:49:54Z</time>
      </trkpt>
      <trkpt lat="31.093453019857407" lon="-3.949409024789929">
        <ele>719.89999999999998</ele>
        <time>2011-04-22T17:49:56Z</time>
      </trkpt>
      <trkpt lat="31.093070972710848" lon="-3.949547996744514">
        <ele>720.29999999999995</ele>
        <time>2011-04-22T17:50:03Z</time>
      </trkpt>
      <trkpt lat="31.092942981049418" lon="-3.949617985635996">
        <ele>719.60000000000002</ele>
        <time>2011-04-22T17:50:06Z</time>
      </trkpt>
      <trkpt lat="31.092834016308188" lon="-3.949632989242673">
        <ele>719.70000000000005</ele>
        <time>2011-04-22T17:50:08Z</time>
      </trkpt>
      <trkpt lat="31.092346021905541" lon="-3.949662996456027">
        <ele>720.39999999999998</ele>
        <time>2011-04-22T17:50:16Z</time>
      </trkpt>
      <trkpt lat="31.092217024415731" lon="-3.949696021154523">
        <ele>720.29999999999995</ele>
        <time>2011-04-22T17:50:18Z</time>
      </trkpt>
      <trkpt lat="31.091987024992704" lon="-3.94981998950243">
        <ele>719.29999999999995</ele>
        <time>2011-04-22T17:50:22Z</time>
      </trkpt>
      <trkpt lat="31.091818967834115" lon="-3.949873968958855">
        <ele>718.89999999999998</ele>
        <time>2011-04-22T17:50:25Z</time>
      </trkpt>
      <trkpt lat="31.091415965929627" lon="-3.950117966160178">
        <ele>718.10000000000002</ele>
        <time>2011-04-22T17:50:33Z</time>
      </trkpt>
      <trkpt lat="31.091303983703256" lon="-3.950151996687055">
        <ele>718.20000000000005</ele>
        <time>2011-04-22T17:50:35Z</time>
      </trkpt>
      <trkpt lat="31.0912049934268" lon="-3.95020698197186">
        <ele>718.5</ele>
        <time>2011-04-22T17:50:37Z</time>
      </trkpt>
      <trkpt lat="31.091123018413782" lon="-3.950275965034962">
        <ele>718.70000000000005</ele>
        <time>2011-04-22T17:50:39Z</time>
      </trkpt>
      <trkpt lat="31.091018998995423" lon="-3.950389958918095">
        <ele>718.20000000000005</ele>
        <time>2011-04-22T17:50:42Z</time>
      </trkpt>
      <trkpt lat="31.09090500511229" lon="-3.950387025251985">
        <ele>718.5</ele>
        <time>2011-04-22T17:50:45Z</time>
      </trkpt>
      <trkpt lat="31.090837027877569" lon="-3.950222991406918">
        <ele>718.39999999999998</ele>
        <time>2011-04-22T17:50:49Z</time>
      </trkpt>
      <trkpt lat="31.090785982087255" lon="-3.950130958110094">
        <ele>718.29999999999995</ele>
        <time>2011-04-22T17:50:51Z</time>
      </trkpt>
      <trkpt lat="31.090706018730998" lon="-3.950061975046992">
        <ele>718.5</ele>
        <time>2011-04-22T17:50:53Z</time>
      </trkpt>
      <trkpt lat="31.090550031512976" lon="-3.950032973662019">
        <ele>718.60000000000002</ele>
        <time>2011-04-22T17:50:56Z</time>
      </trkpt>
      <trkpt lat="31.090436037629843" lon="-3.950028028339148">
        <ele>719.10000000000002</ele>
        <time>2011-04-22T17:50:58Z</time>
      </trkpt>
      <trkpt lat="31.090268986299634" lon="-3.950038002803922">
        <ele>719.89999999999998</ele>
        <time>2011-04-22T17:51:01Z</time>
      </trkpt>
      <trkpt lat="31.090112999081612" lon="-3.950030962005258">
        <ele>720.39999999999998</ele>
        <time>2011-04-22T17:51:15Z</time>
      </trkpt>
      <trkpt lat="31.089914012700319" lon="-3.949934989213944">
        <ele>721.5</ele>
        <time>2011-04-22T17:51:21Z</time>
      </trkpt>
      <trkpt lat="31.089784009382129" lon="-3.949915962293744">
        <ele>720.89999999999998</ele>
        <time>2011-04-22T17:51:24Z</time>
      </trkpt>
      <trkpt lat="31.089629027992487" lon="-3.949921997264028">
        <ele>721.20000000000005</ele>
        <time>2011-04-22T17:51:27Z</time>
      </trkpt>
      <trkpt lat="31.089532971382141" lon="-3.949900036677718">
        <ele>721.29999999999995</ele>
        <time>2011-04-22T17:51:29Z</time>
      </trkpt>
      <trkpt lat="31.089361980557442" lon="-3.949848990887404">
        <ele>721.20000000000005</ele>
        <time>2011-04-22T17:51:33Z</time>
      </trkpt>
      <trkpt lat="31.089240023866296" lon="-3.949863994494081">
        <ele>721.10000000000002</ele>
        <time>2011-04-22T17:51:36Z</time>
      </trkpt>
      <trkpt lat="31.089037014171481" lon="-3.94992602057755">
        <ele>720.89999999999998</ele>
        <time>2011-04-22T17:51:42Z</time>
      </trkpt>
      <trkpt lat="31.088911034166813" lon="-3.949932977557182">
        <ele>721</ele>
        <time>2011-04-22T17:51:45Z</time>
      </trkpt>
      <trkpt lat="31.088609034195542" lon="-3.949857959523797">
        <ele>721.5</ele>
        <time>2011-04-22T17:51:51Z</time>
      </trkpt>
      <trkpt lat="31.088393032550812" lon="-3.949861982837319">
        <ele>721.20000000000005</ele>
        <time>2011-04-22T17:51:55Z</time>
      </trkpt>
      <trkpt lat="31.088282978162169" lon="-3.949878998100758">
        <ele>721.20000000000005</ele>
        <time>2011-04-22T17:51:57Z</time>
      </trkpt>
      <trkpt lat="31.088109975680709" lon="-3.949912022799254">
        <ele>721.60000000000002</ele>
        <time>2011-04-22T17:52:00Z</time>
      </trkpt>
      <trkpt lat="31.088005034253001" lon="-3.949915040284395">
        <ele>721.79999999999995</ele>
        <time>2011-04-22T17:52:02Z</time>
      </trkpt>
      <trkpt lat="31.087904032319784" lon="-3.949904982000589">
        <ele>721.89999999999998</ele>
        <time>2011-04-22T17:52:04Z</time>
      </trkpt>
      <trkpt lat="31.087800012901425" lon="-3.949866006150842">
        <ele>722.10000000000002</ele>
        <time>2011-04-22T17:52:06Z</time>
      </trkpt>
      <trkpt lat="31.087603038176894" lon="-3.949726028367877">
        <ele>723.10000000000002</ele>
        <time>2011-04-22T17:52:10Z</time>
      </trkpt>
      <trkpt lat="31.087335990741849" lon="-3.949611028656364">
        <ele>721.70000000000005</ele>
        <time>2011-04-22T17:52:15Z</time>
      </trkpt>
      <trkpt lat="31.087227026000619" lon="-3.949580015614629">
        <ele>721.60000000000002</ele>
        <time>2011-04-22T17:52:17Z</time>
      </trkpt>
      <trkpt lat="31.087023010477424" lon="-3.949536010622978">
        <ele>721.39999999999998</ele>
        <time>2011-04-22T17:52:21Z</time>
      </trkpt>
      <trkpt lat="31.086911028251052" lon="-3.949579009786248">
        <ele>721</ele>
        <time>2011-04-22T17:52:24Z</time>
      </trkpt>
      <trkpt lat="31.086849002167583" lon="-3.949656039476395">
        <ele>720.60000000000002</ele>
        <time>2011-04-22T17:52:26Z</time>
      </trkpt>
      <trkpt lat="31.086768032982945" lon="-3.949726028367877">
        <ele>720.60000000000002</ele>
        <time>2011-04-22T17:52:28Z</time>
      </trkpt>
      <trkpt lat="31.086679017171264" lon="-3.949783025309444">
        <ele>720.79999999999995</ele>
        <time>2011-04-22T17:52:30Z</time>
      </trkpt>
      <trkpt lat="31.086554965004325" lon="-3.949787970632315">
        <ele>721</ele>
        <time>2011-04-22T17:52:33Z</time>
      </trkpt>
      <trkpt lat="31.086458992213011" lon="-3.949856031686068">
        <ele>720.39999999999998</ele>
        <time>2011-04-22T17:52:36Z</time>
      </trkpt>
      <trkpt lat="31.086366036906838" lon="-3.949964996427298">
        <ele>720.70000000000005</ele>
        <time>2011-04-22T17:52:39Z</time>
      </trkpt>
      <trkpt lat="31.086265034973621" lon="-3.950015958398581">
        <ele>720.10000000000002</ele>
        <time>2011-04-22T17:52:42Z</time>
      </trkpt>
      <trkpt lat="31.086094966158271" lon="-3.950105980038643">
        <ele>719.20000000000005</ele>
        <time>2011-04-22T17:52:48Z</time>
      </trkpt>
      <trkpt lat="31.085990024730563" lon="-3.950113020837307">
        <ele>720.10000000000002</ele>
        <time>2011-04-22T17:52:51Z</time>
      </trkpt>
      <trkpt lat="31.085859015583992" lon="-3.950052000582218">
        <ele>720.20000000000005</ele>
        <time>2011-04-22T17:52:56Z</time>
      </trkpt>
      <trkpt lat="31.085800006985664" lon="-3.949954016134143">
        <ele>720.10000000000002</ele>
        <time>2011-04-22T17:53:00Z</time>
      </trkpt>
      <trkpt lat="31.085823979228735" lon="-3.949810015037656">
        <ele>704.20000000000005</ele>
        <time>2011-04-22T17:56:11Z</time>
      </trkpt>
      <trkpt lat="31.08579003252089" lon="-3.949594013392925">
        <ele>705.10000000000002</ele>
        <time>2011-04-22T17:56:18Z</time>
      </trkpt>
      <trkpt lat="31.085693975910544" lon="-3.949516983702779">
        <ele>706</ele>
        <time>2011-04-22T17:56:22Z</time>
      </trkpt>
      <trkpt lat="31.085603032261133" lon="-3.949383962899447">
        <ele>707.5</ele>
        <time>2011-04-22T17:56:26Z</time>
      </trkpt>
      <trkpt lat="31.085494989529252" lon="-3.949290001764894">
        <ele>709.10000000000002</ele>
        <time>2011-04-22T17:56:29Z</time>
      </trkpt>
      <trkpt lat="31.085299020633101" lon="-3.949213977903128">
        <ele>710.29999999999995</ele>
        <time>2011-04-22T17:56:33Z</time>
      </trkpt>
      <trkpt lat="31.084106024354696" lon="-3.948886999860406">
        <ele>714.60000000000002</ele>
        <time>2011-04-22T17:56:52Z</time>
      </trkpt>
      <trkpt lat="31.08392396941781" lon="-3.948784992098808">
        <ele>715.29999999999995</ele>
        <time>2011-04-22T17:56:55Z</time>
      </trkpt>
      <trkpt lat="31.083473023027182" lon="-3.948461031541228">
        <ele>717.70000000000005</ele>
        <time>2011-04-22T17:57:02Z</time>
      </trkpt>
      <trkpt lat="31.08312701806426" lon="-3.948176968842745">
        <ele>719.5</ele>
        <time>2011-04-22T17:57:07Z</time>
      </trkpt>
      <trkpt lat="31.082479013130069" lon="-3.947674976661801">
        <ele>722.39999999999998</ele>
        <time>2011-04-22T17:57:17Z</time>
      </trkpt>
      <trkpt lat="31.082248007878661" lon="-3.947553019970655">
        <ele>723.20000000000005</ele>
        <time>2011-04-22T17:57:21Z</time>
      </trkpt>
      <trkpt lat="31.082104006782174" lon="-3.947514966130257">
        <ele>723.60000000000002</ele>
        <time>2011-04-22T17:57:24Z</time>
      </trkpt>
      <trkpt lat="31.081904014572501" lon="-3.947480013594031">
        <ele>723.79999999999995</ele>
        <time>2011-04-22T17:57:28Z</time>
      </trkpt>
      <trkpt lat="31.081672003492713" lon="-3.947407007217407">
        <ele>724.29999999999995</ele>
        <time>2011-04-22T17:57:33Z</time>
      </trkpt>
      <trkpt lat="31.081547029316425" lon="-3.947445983067155">
        <ele>724</ele>
        <time>2011-04-22T17:57:36Z</time>
      </trkpt>
      <trkpt lat="31.08149497769773" lon="-3.947536004707217">
        <ele>723.20000000000005</ele>
        <time>2011-04-22T17:57:38Z</time>
      </trkpt>
      <trkpt lat="31.081485003232956" lon="-3.947643963620067">
        <ele>721.89999999999998</ele>
        <time>2011-04-22T17:57:40Z</time>
      </trkpt>
      <trkpt lat="31.081554992124438" lon="-3.947848984971643">
        <ele>719</ele>
        <time>2011-04-22T17:57:44Z</time>
      </trkpt>
      <trkpt lat="31.081574019044638" lon="-3.947954010218382">
        <ele>718.5</ele>
        <time>2011-04-22T17:57:46Z</time>
      </trkpt>
      <trkpt lat="31.081575024873018" lon="-3.94809901714325">
        <ele>717.70000000000005</ele>
        <time>2011-04-22T17:57:49Z</time>
      </trkpt>
      <trkpt lat="31.081549040973186" lon="-3.948244024068117">
        <ele>717.29999999999995</ele>
        <time>2011-04-22T17:57:52Z</time>
      </trkpt>
      <trkpt lat="31.081477962434292" lon="-3.94835701212287">
        <ele>718.10000000000002</ele>
        <time>2011-04-22T17:57:55Z</time>
      </trkpt>
      <trkpt lat="31.081433035433292" lon="-3.948537977412343">
        <ele>717.89999999999998</ele>
        <time>2011-04-22T17:57:59Z</time>
      </trkpt>
      <trkpt lat="31.081368997693062" lon="-3.948639985173941">
        <ele>718.5</ele>
        <time>2011-04-22T17:58:02Z</time>
      </trkpt>
      <trkpt lat="31.081261038780212" lon="-3.948639985173941">
        <ele>718.70000000000005</ele>
        <time>2011-04-22T17:58:05Z</time>
      </trkpt>
      <trkpt lat="31.081140004098415" lon="-3.948515010997653">
        <ele>719.5</ele>
        <time>2011-04-22T17:58:09Z</time>
      </trkpt>
      <trkpt lat="31.080927019938827" lon="-3.948414009064436">
        <ele>720.70000000000005</ele>
        <time>2011-04-22T17:58:14Z</time>
      </trkpt>
      <trkpt lat="31.080810008570552" lon="-3.948339996859431">
        <ele>721.60000000000002</ele>
        <time>2011-04-22T17:58:17Z</time>
      </trkpt>
      <trkpt lat="31.080723004415631" lon="-3.948295991867781">
        <ele>722.39999999999998</ele>
        <time>2011-04-22T17:58:19Z</time>
      </trkpt>
      <trkpt lat="31.080533992499113" lon="-3.948115026578307">
        <ele>724.70000000000005</ele>
        <time>2011-04-22T17:58:25Z</time>
      </trkpt>
      <trkpt lat="31.080446988344193" lon="-3.948039002716541">
        <ele>725.79999999999995</ele>
        <time>2011-04-22T17:58:28Z</time>
      </trkpt>
      <trkpt lat="31.080136019736528" lon="-3.947915034368634">
        <ele>726.70000000000005</ele>
        <time>2011-04-22T17:58:37Z</time>
      </trkpt>
      <trkpt lat="31.079967962577939" lon="-3.947929032146931">
        <ele>727.5</ele>
        <time>2011-04-22T17:58:41Z</time>
      </trkpt>
      <trkpt lat="31.07971197925508" lon="-3.947922997176647">
        <ele>728.5</ele>
        <time>2011-04-22T17:58:47Z</time>
      </trkpt>
      <trkpt lat="31.07962598092854" lon="-3.947878992184997">
        <ele>728.70000000000005</ele>
        <time>2011-04-22T17:58:50Z</time>
      </trkpt>
      <trkpt lat="31.079593040049076" lon="-3.947772961109877">
        <ele>729</ele>
        <time>2011-04-22T17:58:53Z</time>
      </trkpt>
      <trkpt lat="31.07949698343873" lon="-3.947758041322231">
        <ele>728.70000000000005</ele>
        <time>2011-04-22T17:58:57Z</time>
      </trkpt>
      <trkpt lat="31.079570995643735" lon="-3.94788502715528">
        <ele>724.70000000000005</ele>
        <time>2011-04-22T17:59:02Z</time>
      </trkpt>
      <trkpt lat="31.079618018120527" lon="-3.948007989674807">
        <ele>722.29999999999995</ele>
        <time>2011-04-22T17:59:05Z</time>
      </trkpt>
      <trkpt lat="31.079640984535217" lon="-3.948181997984648">
        <ele>720.89999999999998</ele>
        <time>2011-04-22T17:59:08Z</time>
      </trkpt>
      <trkpt lat="31.079704016447067" lon="-3.94827101379633">
        <ele>720.20000000000005</ele>
        <time>2011-04-22T17:59:10Z</time>
      </trkpt>
      <trkpt lat="31.079782973974943" lon="-3.948339996859431">
        <ele>720</ele>
        <time>2011-04-22T17:59:12Z</time>
      </trkpt>
      <trkpt lat="31.079822033643723" lon="-3.94846698269248">
        <ele>718.60000000000002</ele>
        <time>2011-04-22T17:59:15Z</time>
      </trkpt>
      <trkpt lat="31.079750033095479" lon="-3.948574019595981">
        <ele>719.20000000000005</ele>
        <time>2011-04-22T17:59:18Z</time>
      </trkpt>
      <trkpt lat="31.079666968435049" lon="-3.948632022365928">
        <ele>719.5</ele>
        <time>2011-04-22T17:59:20Z</time>
      </trkpt>
      <trkpt lat="31.079566972330213" lon="-3.948643002659082">
        <ele>719.5</ele>
        <time>2011-04-22T17:59:22Z</time>
      </trkpt>
      <trkpt lat="31.079401010647416" lon="-3.948381990194321">
        <ele>720.79999999999995</ele>
        <time>2011-04-22T17:59:29Z</time>
      </trkpt>
      <trkpt lat="31.079337978735566" lon="-3.948300015181303">
        <ele>721.10000000000002</ele>
        <time>2011-04-22T17:59:31Z</time>
      </trkpt>
      <trkpt lat="31.079257009550929" lon="-3.948236983269453">
        <ele>722.10000000000002</ele>
        <time>2011-04-22T17:59:33Z</time>
      </trkpt>
      <trkpt lat="31.079191965982318" lon="-3.948156014084816">
        <ele>722.79999999999995</ele>
        <time>2011-04-22T17:59:35Z</time>
      </trkpt>
      <trkpt lat="31.079081995412707" lon="-3.948104968294501">
        <ele>724.10000000000002</ele>
        <time>2011-04-22T17:59:38Z</time>
      </trkpt>
      <trkpt lat="31.079005971550941" lon="-3.948198007419705">
        <ele>724.29999999999995</ele>
        <time>2011-04-22T17:59:41Z</time>
      </trkpt>
      <trkpt lat="31.078994991257787" lon="-3.948347037658095">
        <ele>722.5</ele>
        <time>2011-04-22T17:59:44Z</time>
      </trkpt>
      <trkpt lat="31.078970013186336" lon="-3.948448039591312">
        <ele>722</ele>
        <time>2011-04-22T17:59:46Z</time>
      </trkpt>
      <trkpt lat="31.078816959634423" lon="-3.948531020432711">
        <ele>722.5</ele>
        <time>2011-04-22T17:59:50Z</time>
      </trkpt>
      <trkpt lat="31.078689973801374" lon="-3.948553986847401">
        <ele>722.70000000000005</ele>
        <time>2011-04-22T17:59:53Z</time>
      </trkpt>
      <trkpt lat="31.07857103459537" lon="-3.948536971583962">
        <ele>723.79999999999995</ele>
        <time>2011-04-22T17:59:56Z</time>
      </trkpt>
      <trkpt lat="31.07846399769187" lon="-3.948447033762932">
        <ele>724.70000000000005</ele>
        <time>2011-04-22T17:59:59Z</time>
      </trkpt>
      <trkpt lat="31.078299963846803" lon="-3.948260033503175">
        <ele>726.39999999999998</ele>
        <time>2011-04-22T18:00:04Z</time>
      </trkpt>
      <trkpt lat="31.078177001327276" lon="-3.948230026289821">
        <ele>727</ele>
        <time>2011-04-22T18:00:07Z</time>
      </trkpt>
      <trkpt lat="31.078009027987719" lon="-3.948329016566277">
        <ele>725.5</ele>
        <time>2011-04-22T18:00:11Z</time>
      </trkpt>
      <trkpt lat="31.077922023832798" lon="-3.948403028771281">
        <ele>724.5</ele>
        <time>2011-04-22T18:00:13Z</time>
      </trkpt>
      <trkpt lat="31.077814986929297" lon="-3.948460025712848">
        <ele>724.10000000000002</ele>
        <time>2011-04-22T18:00:15Z</time>
      </trkpt>
      <trkpt lat="31.07762698084116" lon="-3.948543006554246">
        <ele>723.70000000000005</ele>
        <time>2011-04-22T18:00:19Z</time>
      </trkpt>
      <trkpt lat="31.077546011656523" lon="-3.94859497435391">
        <ele>723.39999999999998</ele>
        <time>2011-04-22T18:00:21Z</time>
      </trkpt>
      <trkpt lat="31.077462024986744" lon="-3.948657000437379">
        <ele>723</ele>
        <time>2011-04-22T18:00:23Z</time>
      </trkpt>
      <trkpt lat="31.077391030266881" lon="-3.948736041784287">
        <ele>722.89999999999998</ele>
        <time>2011-04-22T18:00:25Z</time>
      </trkpt>
      <trkpt lat="31.077278964221478" lon="-3.948971992358565">
        <ele>722.10000000000002</ele>
        <time>2011-04-22T18:00:30Z</time>
      </trkpt>
      <trkpt lat="31.077130017802119" lon="-3.949172990396619">
        <ele>721.60000000000002</ele>
        <time>2011-04-22T18:00:35Z</time>
      </trkpt>
      <trkpt lat="31.07704502530396" lon="-3.949222024530172">
        <ele>721.70000000000005</ele>
        <time>2011-04-22T18:00:37Z</time>
      </trkpt>
      <trkpt lat="31.076881997287273" lon="-3.949206015095115">
        <ele>721.89999999999998</ele>
        <time>2011-04-22T18:00:40Z</time>
      </trkpt>
      <trkpt lat="31.076794993132353" lon="-3.949255971238017">
        <ele>722.5</ele>
        <time>2011-04-22T18:00:42Z</time>
      </trkpt>
      <trkpt lat="31.076731961220503" lon="-3.949435008689761">
        <ele>722.20000000000005</ele>
        <time>2011-04-22T18:00:45Z</time>
      </trkpt>
      <trkpt lat="31.07666096650064" lon="-3.949538022279739">
        <ele>722.20000000000005</ele>
        <time>2011-04-22T18:00:47Z</time>
      </trkpt>
      <trkpt lat="31.076559964567423" lon="-3.949657967314124">
        <ele>722.20000000000005</ele>
        <time>2011-04-22T18:00:50Z</time>
      </trkpt>
      <trkpt lat="31.076454017311335" lon="-3.949726028367877">
        <ele>720.29999999999995</ele>
        <time>2011-04-22T18:00:53Z</time>
      </trkpt>
      <trkpt lat="31.076349997892976" lon="-3.949813032522798">
        <ele>720.39999999999998</ele>
        <time>2011-04-22T18:00:56Z</time>
      </trkpt>
      <trkpt lat="31.075958982110023" lon="-3.950398005545139">
        <ele>720.39999999999998</ele>
        <time>2011-04-22T18:01:07Z</time>
      </trkpt>
      <trkpt lat="31.075791008770466" lon="-3.950698999688029">
        <ele>719.60000000000002</ele>
        <time>2011-04-22T18:01:15Z</time>
      </trkpt>
      <trkpt lat="31.075709033757448" lon="-3.950903015211225">
        <ele>721</ele>
        <time>2011-04-22T18:01:19Z</time>
      </trkpt>
      <trkpt lat="31.075676009058952" lon="-3.951016003265977">
        <ele>719.39999999999998</ele>
        <time>2011-04-22T18:01:22Z</time>
      </trkpt>
      <trkpt lat="31.075626974925399" lon="-3.951138965785503">
        <ele>718.79999999999995</ele>
        <time>2011-04-22T18:01:25Z</time>
      </trkpt>
      <trkpt lat="31.075539970770478" lon="-3.951171990483999">
        <ele>719.29999999999995</ele>
        <time>2011-04-22T18:01:27Z</time>
      </trkpt>
      <trkpt lat="31.075437040999532" lon="-3.95119403488934">
        <ele>719.79999999999995</ele>
        <time>2011-04-22T18:01:29Z</time>
      </trkpt>
      <trkpt lat="31.075333021581173" lon="-3.951252959668636">
        <ele>719.79999999999995</ele>
        <time>2011-04-22T18:01:31Z</time>
      </trkpt>
      <trkpt lat="31.075111990794539" lon="-3.951456975191832">
        <ele>720.29999999999995</ele>
        <time>2011-04-22T18:01:36Z</time>
      </trkpt>
      <trkpt lat="31.074978969991207" lon="-3.951613968238235">
        <ele>720.20000000000005</ele>
        <time>2011-04-22T18:01:39Z</time>
      </trkpt>
      <trkpt lat="31.07487503439188" lon="-3.951698960736394">
        <ele>720.10000000000002</ele>
        <time>2011-04-22T18:01:41Z</time>
      </trkpt>
      <trkpt lat="31.074760034680367" lon="-3.951762998476625">
        <ele>720.10000000000002</ele>
        <time>2011-04-22T18:01:43Z</time>
      </trkpt>
      <trkpt lat="31.074647968634963" lon="-3.951815972104669">
        <ele>719.60000000000002</ele>
        <time>2011-04-22T18:01:45Z</time>
      </trkpt>
      <trkpt lat="31.074486030265689" lon="-3.95188101567328">
        <ele>718.70000000000005</ele>
        <time>2011-04-22T18:01:48Z</time>
      </trkpt>
      <trkpt lat="31.074411012232304" lon="-3.951943963766098">
        <ele>718.79999999999995</ele>
        <time>2011-04-22T18:01:50Z</time>
      </trkpt>
      <trkpt lat="31.074389973655343" lon="-3.952086959034205">
        <ele>718.20000000000005</ele>
        <time>2011-04-22T18:01:53Z</time>
      </trkpt>
      <trkpt lat="31.074494998902082" lon="-3.952179998159409">
        <ele>716.70000000000005</ele>
        <time>2011-04-22T18:01:56Z</time>
      </trkpt>
      <trkpt lat="31.074753999710083" lon="-3.95229198038578">
        <ele>714.29999999999995</ele>
        <time>2011-04-22T18:02:01Z</time>
      </trkpt>
      <trkpt lat="31.075007971376181" lon="-3.952471017837524">
        <ele>713.5</ele>
        <time>2011-04-22T18:02:06Z</time>
      </trkpt>
      <trkpt lat="31.075264038518071" lon="-3.952578976750374">
        <ele>712</ele>
        <time>2011-04-22T18:02:11Z</time>
      </trkpt>
      <trkpt lat="31.075478028506041" lon="-3.952623987570405">
        <ele>710.79999999999995</ele>
        <time>2011-04-22T18:02:15Z</time>
      </trkpt>
      <trkpt lat="31.075584981590509" lon="-3.952682996168733">
        <ele>710.60000000000002</ele>
        <time>2011-04-22T18:02:17Z</time>
      </trkpt>
      <trkpt lat="31.075677014887333" lon="-3.952757008373737">
        <ele>710.60000000000002</ele>
        <time>2011-04-22T18:02:19Z</time>
      </trkpt>
      <trkpt lat="31.07584398239851" lon="-3.952905032783747">
        <ele>710.29999999999995</ele>
        <time>2011-04-22T18:02:23Z</time>
      </trkpt>
      <trkpt lat="31.075916988775134" lon="-3.952981978654862">
        <ele>710.10000000000002</ele>
        <time>2011-04-22T18:02:25Z</time>
      </trkpt>
      <trkpt lat="31.076127039268613" lon="-3.953204015269876">
        <ele>710.10000000000002</ele>
        <time>2011-04-22T18:02:31Z</time>
      </trkpt>
      <trkpt lat="31.076640011742711" lon="-3.953646998852491">
        <ele>711.10000000000002</ele>
        <time>2011-04-22T18:02:47Z</time>
      </trkpt>
      <trkpt lat="31.076712012290955" lon="-3.95372997969389">
        <ele>711.20000000000005</ele>
        <time>2011-04-22T18:02:49Z</time>
      </trkpt>
      <trkpt lat="31.076763980090618" lon="-3.953827964141965">
        <ele>711.20000000000005</ele>
        <time>2011-04-22T18:02:52Z</time>
      </trkpt>
      <trkpt lat="31.076735984534025" lon="-3.953928966075182">
        <ele>709.89999999999998</ele>
        <time>2011-04-22T18:03:16Z</time>
      </trkpt>
      <trkpt lat="31.076645962893963" lon="-3.954038014635444">
        <ele>710.5</ele>
        <time>2011-04-22T18:03:19Z</time>
      </trkpt>
      <trkpt lat="31.076544960960746" lon="-3.954141028225422">
        <ele>711.10000000000002</ele>
        <time>2011-04-22T18:03:22Z</time>
      </trkpt>
      <trkpt lat="31.07648896984756" lon="-3.954230966046453">
        <ele>712</ele>
        <time>2011-04-22T18:03:24Z</time>
      </trkpt>
      <trkpt lat="31.07644303701818" lon="-3.954344037920237">
        <ele>713</ele>
        <time>2011-04-22T18:03:26Z</time>
      </trkpt>
      <trkpt lat="31.076343040913343" lon="-3.954664980992675">
        <ele>714.39999999999998</ele>
        <time>2011-04-22T18:03:32Z</time>
      </trkpt>
      <trkpt lat="31.076308004558086" lon="-3.954842006787658">
        <ele>714.20000000000005</ele>
        <time>2011-04-22T18:03:35Z</time>
      </trkpt>
      <trkpt lat="31.076261987909675" lon="-3.955161022022367">
        <ele>715</ele>
        <time>2011-04-22T18:03:40Z</time>
      </trkpt>
      <trkpt lat="31.076214965432882" lon="-3.955300999805331">
        <ele>715.39999999999998</ele>
        <time>2011-04-22T18:03:42Z</time>
      </trkpt>
      <trkpt lat="31.076141037046909" lon="-3.955423962324858">
        <ele>715.79999999999995</ele>
        <time>2011-04-22T18:03:44Z</time>
      </trkpt>
      <trkpt lat="31.075820010155439" lon="-3.955796035006642">
        <ele>717.29999999999995</ele>
        <time>2011-04-22T18:03:51Z</time>
      </trkpt>
      <trkpt lat="31.07526202686131" lon="-3.956344965845347">
        <ele>719.29999999999995</ele>
        <time>2011-04-22T18:04:03Z</time>
      </trkpt>
      <trkpt lat="31.07491803355515" lon="-3.956908984109759">
        <ele>719.5</ele>
        <time>2011-04-22T18:04:13Z</time>
      </trkpt>
      <trkpt lat="31.074831029400229" lon="-3.957002023234963">
        <ele>719.29999999999995</ele>
        <time>2011-04-22T18:04:15Z</time>
      </trkpt>
      <trkpt lat="31.074742013588548" lon="-3.957075029611588">
        <ele>719.20000000000005</ele>
        <time>2011-04-22T18:04:17Z</time>
      </trkpt>
      <trkpt lat="31.074646040797234" lon="-3.957135966047645">
        <ele>718.79999999999995</ele>
        <time>2011-04-22T18:04:19Z</time>
      </trkpt>
      <trkpt lat="31.074414029717445" lon="-3.957207966595888">
        <ele>717.79999999999995</ele>
        <time>2011-04-22T18:04:23Z</time>
      </trkpt>
      <trkpt lat="31.073760995641351" lon="-3.95729698240757">
        <ele>716.39999999999998</ele>
        <time>2011-04-22T18:04:34Z</time>
      </trkpt>
      <trkpt lat="31.073662005364895" lon="-3.957345010712743">
        <ele>716.20000000000005</ele>
        <time>2011-04-22T18:04:37Z</time>
      </trkpt>
      <trkpt lat="31.073551028966904" lon="-3.957413993775845">
        <ele>716.29999999999995</ele>
        <time>2011-04-22T18:04:41Z</time>
      </trkpt>
      <trkpt lat="31.07350199483335" lon="-3.957510972395539">
        <ele>716.60000000000002</ele>
        <time>2011-04-22T18:04:44Z</time>
      </trkpt>
      <trkpt lat="31.073511969298124" lon="-3.957624966278672">
        <ele>715.70000000000005</ele>
        <time>2011-04-22T18:04:47Z</time>
      </trkpt>
      <trkpt lat="31.073477016761899" lon="-3.957741977646947">
        <ele>714.79999999999995</ele>
        <time>2011-04-22T18:04:50Z</time>
      </trkpt>
      <trkpt lat="31.073381965979934" lon="-3.957796962931752">
        <ele>714.39999999999998</ele>
        <time>2011-04-22T18:04:53Z</time>
      </trkpt>
      <trkpt lat="31.073276018723845" lon="-3.957741977646947">
        <ele>713.79999999999995</ele>
        <time>2011-04-22T18:04:56Z</time>
      </trkpt>
      <trkpt lat="31.07322103343904" lon="-3.957622032612562">
        <ele>712.70000000000005</ele>
        <time>2011-04-22T18:04:59Z</time>
      </trkpt>
      <trkpt lat="31.073142997920513" lon="-3.957561012357473">
        <ele>713.39999999999998</ele>
        <time>2011-04-22T18:05:01Z</time>
      </trkpt>
      <trkpt lat="31.073032021522522" lon="-3.957529999315739">
        <ele>713.5</ele>
        <time>2011-04-22T18:05:03Z</time>
      </trkpt>
      <trkpt lat="31.072923978790641" lon="-3.957524970173836">
        <ele>713.70000000000005</ele>
        <time>2011-04-22T18:05:05Z</time>
      </trkpt>
      <trkpt lat="31.072823982685804" lon="-3.957539973780513">
        <ele>712.89999999999998</ele>
        <time>2011-04-22T18:05:07Z</time>
      </trkpt>
      <trkpt lat="31.072722980752587" lon="-3.957566963508725">
        <ele>713</ele>
        <time>2011-04-22T18:05:09Z</time>
      </trkpt>
      <trkpt lat="31.072499016299844" lon="-3.957773996517062">
        <ele>712</ele>
        <time>2011-04-22T18:05:14Z</time>
      </trkpt>
      <trkpt lat="31.072389967739582" lon="-3.957837028428912">
        <ele>710.5</ele>
        <time>2011-04-22T18:05:16Z</time>
      </trkpt>
      <trkpt lat="31.072066007182002" lon="-3.957949010655284">
        <ele>709.79999999999995</ele>
        <time>2011-04-22T18:05:21Z</time>
      </trkpt>
      <trkpt lat="31.071952013298869" lon="-3.958021011203528">
        <ele>709.60000000000002</ele>
        <time>2011-04-22T18:05:23Z</time>
      </trkpt>
      <trkpt lat="31.071810023859143" lon="-3.958146991208196">
        <ele>708.79999999999995</ele>
        <time>2011-04-22T18:05:26Z</time>
      </trkpt>
      <trkpt lat="31.071731988340616" lon="-3.95824103616178">
        <ele>708.60000000000002</ele>
        <time>2011-04-22T18:05:28Z</time>
      </trkpt>
      <trkpt lat="31.071700975298882" lon="-3.958357041701675">
        <ele>707.79999999999995</ele>
        <time>2011-04-22T18:05:30Z</time>
      </trkpt>
      <trkpt lat="31.071710027754307" lon="-3.95858502946794">
        <ele>705.39999999999998</ele>
        <time>2011-04-22T18:05:34Z</time>
      </trkpt>
      <trkpt lat="31.071689995005727" lon="-3.958705980330706">
        <ele>704.5</ele>
        <time>2011-04-22T18:05:36Z</time>
      </trkpt>
      <trkpt lat="31.071643978357315" lon="-3.958848975598812">
        <ele>704.60000000000002</ele>
        <time>2011-04-22T18:05:39Z</time>
      </trkpt>
      <trkpt lat="31.07156602665782" lon="-3.958999011665583">
        <ele>703.89999999999998</ele>
        <time>2011-04-22T18:05:43Z</time>
      </trkpt>
      <trkpt lat="31.071471981704235" lon="-3.959071012213826">
        <ele>703.29999999999995</ele>
        <time>2011-04-22T18:05:46Z</time>
      </trkpt>
      <trkpt lat="31.071198983117938" lon="-3.958989959210157">
        <ele>703.39999999999998</ele>
        <time>2011-04-22T18:05:53Z</time>
      </trkpt>
      <trkpt lat="31.071085995063186" lon="-3.959016026929021">
        <ele>703.89999999999998</ele>
        <time>2011-04-22T18:05:56Z</time>
      </trkpt>
      <trkpt lat="31.070998990908265" lon="-3.959109988063574">
        <ele>704.10000000000002</ele>
        <time>2011-04-22T18:05:59Z</time>
      </trkpt>
      <trkpt lat="31.070930007845163" lon="-3.959248038008809">
        <ele>704.60000000000002</ele>
        <time>2011-04-22T18:06:02Z</time>
      </trkpt>
      <trkpt lat="31.070903018116951" lon="-3.959352979436517">
        <ele>704.5</ele>
        <time>2011-04-22T18:06:04Z</time>
      </trkpt>
      <trkpt lat="31.070562964305282" lon="-3.959478959441185">
        <ele>703.79999999999995</ele>
        <time>2011-04-22T18:06:12Z</time>
      </trkpt>
      <trkpt lat="31.070463974028826" lon="-3.95955397747457">
        <ele>702.70000000000005</ele>
        <time>2011-04-22T18:06:15Z</time>
      </trkpt>
      <trkpt lat="31.070395996794105" lon="-3.959635030478239">
        <ele>702.39999999999998</ele>
        <time>2011-04-22T18:06:17Z</time>
      </trkpt>
      <trkpt lat="31.070303041487932" lon="-3.959698984399438">
        <ele>701.70000000000005</ele>
        <time>2011-04-22T18:06:19Z</time>
      </trkpt>
      <trkpt lat="31.070196004584432" lon="-3.959695966914296">
        <ele>701.29999999999995</ele>
        <time>2011-04-22T18:06:21Z</time>
      </trkpt>
      <trkpt lat="31.070061977952719" lon="-3.959665037691593">
        <ele>701.89999999999998</ele>
        <time>2011-04-22T18:06:24Z</time>
      </trkpt>
      <trkpt lat="31.069841030985117" lon="-3.959670988842845">
        <ele>702</ele>
        <time>2011-04-22T18:06:29Z</time>
      </trkpt>
      <trkpt lat="31.069746986031532" lon="-3.959651961922646">
        <ele>702.20000000000005</ele>
        <time>2011-04-22T18:06:31Z</time>
      </trkpt>
      <trkpt lat="31.069657970219851" lon="-3.959676017984748">
        <ele>702.10000000000002</ele>
        <time>2011-04-22T18:06:33Z</time>
      </trkpt>
      <trkpt lat="31.069556968286633" lon="-3.959676017984748">
        <ele>701.89999999999998</ele>
        <time>2011-04-22T18:06:35Z</time>
      </trkpt>
      <trkpt lat="31.069463007152081" lon="-3.959634024649859">
        <ele>702.29999999999995</ele>
        <time>2011-04-22T18:06:37Z</time>
      </trkpt>
      <trkpt lat="31.06933300383389" lon="-3.959655985236168">
        <ele>702.79999999999995</ele>
        <time>2011-04-22T18:06:40Z</time>
      </trkpt>
      <trkpt lat="31.069206018000841" lon="-3.959780959412456">
        <ele>702.20000000000005</ele>
        <time>2011-04-22T18:06:43Z</time>
      </trkpt>
      <trkpt lat="31.069092024117708" lon="-3.959930995479226">
        <ele>702.10000000000002</ele>
        <time>2011-04-22T18:06:46Z</time>
      </trkpt>
      <trkpt lat="31.068983981385827" lon="-3.96009000018239">
        <ele>701.89999999999998</ele>
        <time>2011-04-22T18:06:49Z</time>
      </trkpt>
      <trkpt lat="31.068894965574145" lon="-3.960178010165691">
        <ele>701.60000000000002</ele>
        <time>2011-04-22T18:06:51Z</time>
      </trkpt>
      <trkpt lat="31.068788012489676" lon="-3.960257973521948">
        <ele>701.20000000000005</ele>
        <time>2011-04-22T18:06:53Z</time>
      </trkpt>
      <trkpt lat="31.068545021116734" lon="-3.960366016253829">
        <ele>700.60000000000002</ele>
        <time>2011-04-22T18:06:57Z</time>
      </trkpt>
      <trkpt lat="31.068303035572171" lon="-3.960541030392051">
        <ele>700.89999999999998</ele>
        <time>2011-04-22T18:07:01Z</time>
      </trkpt>
      <trkpt lat="31.068189963698387" lon="-3.960606995970011">
        <ele>700.10000000000002</ele>
        <time>2011-04-22T18:07:03Z</time>
      </trkpt>
      <trkpt lat="31.068062977865338" lon="-3.960638009011746">
        <ele>700.20000000000005</ele>
        <time>2011-04-22T18:07:05Z</time>
      </trkpt>
      <trkpt lat="31.067889975383878" lon="-3.96062602289021">
        <ele>700</ele>
        <time>2011-04-22T18:07:08Z</time>
      </trkpt>
      <trkpt lat="31.0677869617939" lon="-3.960649995133281">
        <ele>700.39999999999998</ele>
        <time>2011-04-22T18:07:10Z</time>
      </trkpt>
      <trkpt lat="31.067564003169537" lon="-3.96079701371491">
        <ele>699.5</ele>
        <time>2011-04-22T18:07:14Z</time>
      </trkpt>
      <trkpt lat="31.06744003482163" lon="-3.960892986506224">
        <ele>699.60000000000002</ele>
        <time>2011-04-22T18:07:16Z</time>
      </trkpt>
      <trkpt lat="31.067336015403271" lon="-3.961005974560976">
        <ele>699.79999999999995</ele>
        <time>2011-04-22T18:07:18Z</time>
      </trkpt>
      <trkpt lat="31.067207017913461" lon="-3.96118400618434">
        <ele>699.89999999999998</ele>
        <time>2011-04-22T18:07:21Z</time>
      </trkpt>
      <trkpt lat="31.067082965746522" lon="-3.961259024217725">
        <ele>699.5</ele>
        <time>2011-04-22T18:07:23Z</time>
      </trkpt>
      <trkpt lat="31.066851960495114" lon="-3.961346028372645">
        <ele>699.10000000000002</ele>
        <time>2011-04-22T18:07:27Z</time>
      </trkpt>
      <trkpt lat="31.066766967996955" lon="-3.961414005607367">
        <ele>698.89999999999998</ele>
        <time>2011-04-22T18:07:29Z</time>
      </trkpt>
      <trkpt lat="31.066448036581278" lon="-3.96174299530685">
        <ele>699</ele>
        <time>2011-04-22T18:07:36Z</time>
      </trkpt>
      <trkpt lat="31.066376036033034" lon="-3.96185296587646">
        <ele>699.10000000000002</ele>
        <time>2011-04-22T18:07:38Z</time>
      </trkpt>
      <trkpt lat="31.06630596332252" lon="-3.962047006934881">
        <ele>697.70000000000005</ele>
        <time>2011-04-22T18:07:41Z</time>
      </trkpt>
      <trkpt lat="31.066237986087799" lon="-3.962327968329191">
        <ele>696.10000000000002</ele>
        <time>2011-04-22T18:07:45Z</time>
      </trkpt>
      <trkpt lat="31.066227005794644" lon="-3.962468029931188">
        <ele>695.39999999999998</ele>
        <time>2011-04-22T18:07:47Z</time>
      </trkpt>
      <trkpt lat="31.06623899191618" lon="-3.962600966915488">
        <ele>694.29999999999995</ele>
        <time>2011-04-22T18:07:49Z</time>
      </trkpt>
      <trkpt lat="31.06625902466476" lon="-3.962776986882091">
        <ele>693.20000000000005</ele>
        <time>2011-04-22T18:07:52Z</time>
      </trkpt>
      <trkpt lat="31.066255001351237" lon="-3.963045962154865">
        <ele>692</ele>
        <time>2011-04-22T18:07:56Z</time>
      </trkpt>
      <trkpt lat="31.066233040764928" lon="-3.963173031806946">
        <ele>691.89999999999998</ele>
        <time>2011-04-22T18:07:58Z</time>
      </trkpt>
      <trkpt lat="31.066117035225034" lon="-3.963497998192906">
        <ele>690.79999999999995</ele>
        <time>2011-04-22T18:08:03Z</time>
      </trkpt>
      <trkpt lat="31.066092979162931" lon="-3.96369899623096">
        <ele>690.60000000000002</ele>
        <time>2011-04-22T18:08:06Z</time>
      </trkpt>
      <trkpt lat="31.066054003313184" lon="-3.963819025084376">
        <ele>690.39999999999998</ele>
        <time>2011-04-22T18:08:08Z</time>
      </trkpt>
      <trkpt lat="31.065927017480135" lon="-3.964007031172514">
        <ele>691.10000000000002</ele>
        <time>2011-04-22T18:08:12Z</time>
      </trkpt>
      <trkpt lat="31.065901033580303" lon="-3.964130999520421">
        <ele>691.79999999999995</ele>
        <time>2011-04-22T18:08:15Z</time>
      </trkpt>
      <trkpt lat="31.06589499861002" lon="-3.964272988960147">
        <ele>691.39999999999998</ele>
        <time>2011-04-22T18:08:18Z</time>
      </trkpt>
      <trkpt lat="31.065813023597002" lon="-3.964370973408222">
        <ele>691.60000000000002</ele>
        <time>2011-04-22T18:08:21Z</time>
      </trkpt>
      <trkpt lat="31.065753009170294" lon="-3.964567026123405">
        <ele>692.29999999999995</ele>
        <time>2011-04-22T18:08:25Z</time>
      </trkpt>
      <trkpt lat="31.065730964764953" lon="-3.964750003069639">
        <ele>693</ele>
        <time>2011-04-22T18:08:28Z</time>
      </trkpt>
      <trkpt lat="31.065686959773302" lon="-3.964941026642919">
        <ele>691.89999999999998</ele>
        <time>2011-04-22T18:08:32Z</time>
      </trkpt>
      <trkpt lat="31.065715039148927" lon="-3.9650749694556">
        <ele>691.29999999999995</ele>
        <time>2011-04-22T18:08:35Z</time>
      </trkpt>
      <trkpt lat="31.065785028040409" lon="-3.965207990258932">
        <ele>690.60000000000002</ele>
        <time>2011-04-22T18:08:38Z</time>
      </trkpt>
      <trkpt lat="31.06582903303206" lon="-3.965443018823862">
        <ele>689.29999999999995</ele>
        <time>2011-04-22T18:08:42Z</time>
      </trkpt>
      <trkpt lat="31.065833978354931" lon="-3.965559024363756">
        <ele>689</ele>
        <time>2011-04-22T18:08:44Z</time>
      </trkpt>
      <trkpt lat="31.065772036090493" lon="-3.965693973004818">
        <ele>688.89999999999998</ele>
        <time>2011-04-22T18:08:47Z</time>
      </trkpt>
      <trkpt lat="31.065609008073807" lon="-3.965909974649549">
        <ele>689.39999999999998</ele>
        <time>2011-04-22T18:08:52Z</time>
      </trkpt>
      <trkpt lat="31.065298039466143" lon="-3.966239970177412">
        <ele>692.79999999999995</ele>
        <time>2011-04-22T18:08:59Z</time>
      </trkpt>
      <trkpt lat="31.065231990069151" lon="-3.966356981545687">
        <ele>693.20000000000005</ele>
        <time>2011-04-22T18:09:01Z</time>
      </trkpt>
      <trkpt lat="31.065073991194367" lon="-3.966770963743329">
        <ele>693</ele>
        <time>2011-04-22T18:09:07Z</time>
      </trkpt>
      <trkpt lat="31.064924038946629" lon="-3.967067012563348">
        <ele>693</ele>
        <time>2011-04-22T18:09:12Z</time>
      </trkpt>
      <trkpt lat="31.06486301869154" lon="-3.967252001166344">
        <ele>692.89999999999998</ele>
        <time>2011-04-22T18:09:15Z</time>
      </trkpt>
      <trkpt lat="31.064851032570004" lon="-3.96737102419138">
        <ele>692.89999999999998</ele>
        <time>2011-04-22T18:09:17Z</time>
      </trkpt>
      <trkpt lat="31.064852960407734" lon="-3.96750396117568">
        <ele>692.70000000000005</ele>
        <time>2011-04-22T18:09:19Z</time>
      </trkpt>
      <trkpt lat="31.064873998984694" lon="-3.967639999464154">
        <ele>692.10000000000002</ele>
        <time>2011-04-22T18:09:21Z</time>
      </trkpt>
      <trkpt lat="31.064918003976345" lon="-3.967762961983681">
        <ele>691.5</ele>
        <time>2011-04-22T18:09:23Z</time>
      </trkpt>
      <trkpt lat="31.065067034214735" lon="-3.968069991096854">
        <ele>691.39999999999998</ele>
        <time>2011-04-22T18:09:28Z</time>
      </trkpt>
      <trkpt lat="31.065097963437438" lon="-3.968208963051438">
        <ele>691.5</ele>
        <time>2011-04-22T18:09:31Z</time>
      </trkpt>
      <trkpt lat="31.065098969265819" lon="-3.968321029096842">
        <ele>692</ele>
        <time>2011-04-22T18:09:35Z</time>
      </trkpt>
      <trkpt lat="31.065125036984682" lon="-3.968481961637735">
        <ele>697.79999999999995</ele>
        <time>2011-04-22T18:09:52Z</time>
      </trkpt>
      <trkpt lat="31.065141968429089" lon="-3.968595033511519">
        <ele>697.29999999999995</ele>
        <time>2011-04-22T18:09:54Z</time>
      </trkpt>
      <trkpt lat="31.065171975642443" lon="-3.968703998252749">
        <ele>697.20000000000005</ele>
        <time>2011-04-22T18:09:56Z</time>
      </trkpt>
      <trkpt lat="31.065210029482841" lon="-3.968822015449405">
        <ele>697.10000000000002</ele>
        <time>2011-04-22T18:09:58Z</time>
      </trkpt>
      <trkpt lat="31.065261997282505" lon="-3.968929974362254">
        <ele>697.39999999999998</ele>
        <time>2011-04-22T18:10:00Z</time>
      </trkpt>
      <trkpt lat="31.065332992002368" lon="-3.969002980738878">
        <ele>698.29999999999995</ele>
        <time>2011-04-22T18:10:02Z</time>
      </trkpt>
      <trkpt lat="31.065439023077488" lon="-3.969051009044051">
        <ele>699.70000000000005</ele>
        <time>2011-04-22T18:10:05Z</time>
      </trkpt>
      <trkpt lat="31.065522003918886" lon="-3.9691779948771">
        <ele>707.5</ele>
        <time>2011-04-22T18:11:09Z</time>
      </trkpt>
      <trkpt lat="31.065243976190686" lon="-3.969083027914167">
        <ele>720.39999999999998</ele>
        <time>2011-04-22T18:19:17Z</time>
      </trkpt>
      <trkpt lat="31.064696973189712" lon="-3.968736017122865">
        <ele>723.60000000000002</ele>
        <time>2011-04-22T18:19:28Z</time>
      </trkpt>
      <trkpt lat="31.06456495821476" lon="-3.968687988817692">
        <ele>725.20000000000005</ele>
        <time>2011-04-22T18:19:30Z</time>
      </trkpt>
      <trkpt lat="31.064430009573698" lon="-3.968668039888144">
        <ele>727.5</ele>
        <time>2011-04-22T18:19:32Z</time>
      </trkpt>
      <trkpt lat="31.064032958820462" lon="-3.968693017959595">
        <ele>725.39999999999998</ele>
        <time>2011-04-22T18:19:38Z</time>
      </trkpt>
      <trkpt lat="31.062983041629195" lon="-3.968786979094148">
        <ele>723</ele>
        <time>2011-04-22T18:19:54Z</time>
      </trkpt>
      <trkpt lat="31.062733009457588" lon="-3.968775998800993">
        <ele>723.5</ele>
        <time>2011-04-22T18:19:58Z</time>
      </trkpt>
      <trkpt lat="31.062118029221892" lon="-3.968904996290803">
        <ele>723.70000000000005</ele>
        <time>2011-04-22T18:20:07Z</time>
      </trkpt>
      <trkpt lat="31.061925999820232" lon="-3.968945983797312">
        <ele>724.5</ele>
        <time>2011-04-22T18:20:10Z</time>
      </trkpt>
      <trkpt lat="31.061736987903714" lon="-3.968961993232369">
        <ele>724.70000000000005</ele>
        <time>2011-04-22T18:20:13Z</time>
      </trkpt>
      <trkpt lat="31.061615031212568" lon="-3.968954030424357">
        <ele>724.79999999999995</ele>
        <time>2011-04-22T18:20:15Z</time>
      </trkpt>
      <trkpt lat="31.061505982652307" lon="-3.968921005725861">
        <ele>725.29999999999995</ele>
        <time>2011-04-22T18:20:17Z</time>
      </trkpt>
      <trkpt lat="31.061419984325767" lon="-3.968871971592307">
        <ele>726.29999999999995</ele>
        <time>2011-04-22T18:20:19Z</time>
      </trkpt>
      <trkpt lat="31.061308002099395" lon="-3.968793014064431">
        <ele>727.29999999999995</ele>
        <time>2011-04-22T18:20:22Z</time>
      </trkpt>
      <trkpt lat="31.061172969639301" lon="-3.968784967437387">
        <ele>726.70000000000005</ele>
        <time>2011-04-22T18:20:25Z</time>
      </trkpt>
      <trkpt lat="31.061054030433297" lon="-3.968815980479121">
        <ele>726.20000000000005</ele>
        <time>2011-04-22T18:20:27Z</time>
      </trkpt>
      <trkpt lat="31.060879016295075" lon="-3.968910025432706">
        <ele>724.10000000000002</ele>
        <time>2011-04-22T18:20:30Z</time>
      </trkpt>
      <trkpt lat="31.060773991048336" lon="-3.968993006274104">
        <ele>722.5</ele>
        <time>2011-04-22T18:20:32Z</time>
      </trkpt>
      <trkpt lat="31.060295971110463" lon="-3.969505978748202">
        <ele>723.70000000000005</ele>
        <time>2011-04-22T18:20:41Z</time>
      </trkpt>
      <trkpt lat="31.060206033289433" lon="-3.969623995944858">
        <ele>724</ele>
        <time>2011-04-22T18:20:43Z</time>
      </trkpt>
      <trkpt lat="31.060136966407299" lon="-3.969752993434668">
        <ele>724.39999999999998</ele>
        <time>2011-04-22T18:20:45Z</time>
      </trkpt>
      <trkpt lat="31.06009497307241" lon="-3.969890959560871">
        <ele>724.70000000000005</ele>
        <time>2011-04-22T18:20:47Z</time>
      </trkpt>
      <trkpt lat="31.060005035251379" lon="-3.970425976440311">
        <ele>724.39999999999998</ele>
        <time>2011-04-22T18:20:54Z</time>
      </trkpt>
      <trkpt lat="31.05998600833118" lon="-3.970572995021939">
        <ele>724.20000000000005</ele>
        <time>2011-04-22T18:20:56Z</time>
      </trkpt>
      <trkpt lat="31.059997994452715" lon="-3.970819003880024">
        <ele>721.5</ele>
        <time>2011-04-22T18:21:00Z</time>
      </trkpt>
      <trkpt lat="31.059961030259728" lon="-3.97093802690506">
        <ele>721.5</ele>
        <time>2011-04-22T18:21:02Z</time>
      </trkpt>
      <trkpt lat="31.059806970879436" lon="-3.971129972487688">
        <ele>721.39999999999998</ele>
        <time>2011-04-22T18:21:06Z</time>
      </trkpt>
      <trkpt lat="31.059691971167922" lon="-3.971349997445941">
        <ele>721</ele>
        <time>2011-04-22T18:21:10Z</time>
      </trkpt>
      <trkpt lat="31.05962298810482" lon="-3.971445970237255">
        <ele>721</ele>
        <time>2011-04-22T18:21:12Z</time>
      </trkpt>
      <trkpt lat="31.0595359839499" lon="-3.971536997705698">
        <ele>720.70000000000005</ele>
        <time>2011-04-22T18:21:14Z</time>
      </trkpt>
      <trkpt lat="31.059437999501824" lon="-3.971630036830902">
        <ele>720.5</ele>
        <time>2011-04-22T18:21:16Z</time>
      </trkpt>
      <trkpt lat="31.058864006772637" lon="-3.972154995426536">
        <ele>719.60000000000002</ele>
        <time>2011-04-22T18:21:28Z</time>
      </trkpt>
      <trkpt lat="31.058791000396013" lon="-3.972252979874611">
        <ele>719.5</ele>
        <time>2011-04-22T18:21:30Z</time>
      </trkpt>
      <trkpt lat="31.058726040646434" lon="-3.972366973757744">
        <ele>719.5</ele>
        <time>2011-04-22T18:21:32Z</time>
      </trkpt>
      <trkpt lat="31.058678012341261" lon="-3.972494965419173">
        <ele>719.39999999999998</ele>
        <time>2011-04-22T18:21:34Z</time>
      </trkpt>
      <trkpt lat="31.058642975986004" lon="-3.972634021192789">
        <ele>719.29999999999995</ele>
        <time>2011-04-22T18:21:36Z</time>
      </trkpt>
      <trkpt lat="31.058466034010053" lon="-3.973374981433153">
        <ele>719.39999999999998</ele>
        <time>2011-04-22T18:21:46Z</time>
      </trkpt>
      <trkpt lat="31.058415994048119" lon="-3.973524011671543">
        <ele>719.39999999999998</ele>
        <time>2011-04-22T18:21:48Z</time>
      </trkpt>
      <trkpt lat="31.058346005156636" lon="-3.973658960312605">
        <ele>718.29999999999995</ele>
        <time>2011-04-22T18:21:50Z</time>
      </trkpt>
      <trkpt lat="31.058022966608405" lon="-3.974112002179027">
        <ele>716.10000000000002</ele>
        <time>2011-04-22T18:21:57Z</time>
      </trkpt>
      <trkpt lat="31.057923976331949" lon="-3.97433303296566">
        <ele>715.10000000000002</ele>
        <time>2011-04-22T18:22:00Z</time>
      </trkpt>
      <trkpt lat="31.057871002703905" lon="-3.974487008526921">
        <ele>715.20000000000005</ele>
        <time>2011-04-22T18:22:02Z</time>
      </trkpt>
      <trkpt lat="31.057739993557334" lon="-3.974947007372975">
        <ele>715.70000000000005</ele>
        <time>2011-04-22T18:22:08Z</time>
      </trkpt>
      <trkpt lat="31.057711998000741" lon="-3.975117998197675">
        <ele>715.5</ele>
        <time>2011-04-22T18:22:10Z</time>
      </trkpt>
      <trkpt lat="31.057704035192728" lon="-3.975278008729219">
        <ele>714.89999999999998</ele>
        <time>2011-04-22T18:22:12Z</time>
      </trkpt>
      <trkpt lat="31.057738987728953" lon="-3.97596700116992">
        <ele>712.89999999999998</ele>
        <time>2011-04-22T18:22:21Z</time>
      </trkpt>
      <trkpt lat="31.057763965800405" lon="-3.976346030831337">
        <ele>712.89999999999998</ele>
        <time>2011-04-22T18:22:26Z</time>
      </trkpt>
      <trkpt lat="31.057747034355998" lon="-3.976492965593934">
        <ele>712.60000000000002</ele>
        <time>2011-04-22T18:22:28Z</time>
      </trkpt>
      <trkpt lat="31.05771099217236" lon="-3.976629003882408">
        <ele>712.29999999999995</ele>
        <time>2011-04-22T18:22:30Z</time>
      </trkpt>
      <trkpt lat="31.057656006887555" lon="-3.976750038564205">
        <ele>711.79999999999995</ele>
        <time>2011-04-22T18:22:32Z</time>
      </trkpt>
      <trkpt lat="31.057579983025789" lon="-3.976851040497422">
        <ele>710.89999999999998</ele>
        <time>2011-04-22T18:22:34Z</time>
      </trkpt>
      <trkpt lat="31.057261973619461" lon="-3.977163014933467">
        <ele>710.20000000000005</ele>
        <time>2011-04-22T18:22:40Z</time>
      </trkpt>
      <trkpt lat="31.057181004434824" lon="-3.97727801464498">
        <ele>710.10000000000002</ele>
        <time>2011-04-22T18:22:42Z</time>
      </trkpt>
      <trkpt lat="31.057117972522974" lon="-3.977401982992888">
        <ele>709.79999999999995</ele>
        <time>2011-04-22T18:22:44Z</time>
      </trkpt>
      <trkpt lat="31.057019988074899" lon="-3.977944040670991">
        <ele>709.89999999999998</ele>
        <time>2011-04-22T18:22:51Z</time>
      </trkpt>
      <trkpt lat="31.05700196698308" lon="-3.97843899205327">
        <ele>707.60000000000002</ele>
        <time>2011-04-22T18:22:57Z</time>
      </trkpt>
      <trkpt lat="31.05717496946454" lon="-3.981559993699193">
        <ele>705.5</ele>
        <time>2011-04-22T18:23:36Z</time>
      </trkpt>
      <trkpt lat="31.057239007204771" lon="-3.982298020273447">
        <ele>703.10000000000002</ele>
        <time>2011-04-22T18:23:45Z</time>
      </trkpt>
      <trkpt lat="31.057224003598094" lon="-3.982549980282784">
        <ele>702.29999999999995</ele>
        <time>2011-04-22T18:23:48Z</time>
      </trkpt>
      <trkpt lat="31.057159965857863" lon="-3.982882993295789">
        <ele>702.29999999999995</ele>
        <time>2011-04-22T18:23:52Z</time>
      </trkpt>
      <trkpt lat="31.056865006685257" lon="-3.984072972089052">
        <ele>703.29999999999995</ele>
        <time>2011-04-22T18:24:06Z</time>
      </trkpt>
      <trkpt lat="31.056773979216814" lon="-3.985002022236586">
        <ele>702.79999999999995</ele>
        <time>2011-04-22T18:24:16Z</time>
      </trkpt>
      <trkpt lat="31.056603994220495" lon="-3.985811965540052">
        <ele>704.70000000000005</ele>
        <time>2011-04-22T18:24:25Z</time>
      </trkpt>
      <trkpt lat="31.056546997278929" lon="-3.985987985506654">
        <ele>705</ele>
        <time>2011-04-22T18:24:27Z</time>
      </trkpt>
      <trkpt lat="31.056447001174092" lon="-3.986253021284938">
        <ele>704.5</ele>
        <time>2011-04-22T18:24:30Z</time>
      </trkpt>
      <trkpt lat="31.056395033374429" lon="-3.986529037356377">
        <ele>705.10000000000002</ele>
        <time>2011-04-22T18:24:33Z</time>
      </trkpt>
      <trkpt lat="31.056338958442211" lon="-3.986698016524315">
        <ele>705.20000000000005</ele>
        <time>2011-04-22T18:24:35Z</time>
      </trkpt>
      <trkpt lat="31.056261006742716" lon="-3.986857021227479">
        <ele>705</ele>
        <time>2011-04-22T18:24:37Z</time>
      </trkpt>
      <trkpt lat="31.056099990382791" lon="-3.987094983458519">
        <ele>704.10000000000002</ele>
        <time>2011-04-22T18:24:40Z</time>
      </trkpt>
      <trkpt lat="31.055971998721361" lon="-3.987254993990064">
        <ele>703.60000000000002</ele>
        <time>2011-04-22T18:24:42Z</time>
      </trkpt>
      <trkpt lat="31.053597992286086" lon="-3.989961007609963">
        <ele>701.20000000000005</ele>
        <time>2011-04-22T18:25:17Z</time>
      </trkpt>
      <trkpt lat="31.053388025611639" lon="-3.990170974284411">
        <ele>701.10000000000002</ele>
        <time>2011-04-22T18:25:20Z</time>
      </trkpt>
      <trkpt lat="31.05324100703001" lon="-3.990299971774221">
        <ele>701</ele>
        <time>2011-04-22T18:25:22Z</time>
      </trkpt>
      <trkpt lat="31.052656034007668" lon="-3.990731975063682">
        <ele>701.89999999999998</ele>
        <time>2011-04-22T18:25:30Z</time>
      </trkpt>
      <trkpt lat="31.052495017647743" lon="-3.990833982825279">
        <ele>702.20000000000005</ele>
        <time>2011-04-22T18:25:32Z</time>
      </trkpt>
      <trkpt lat="31.052409019321203" lon="-3.990879999473691">
        <ele>702.60000000000002</ele>
        <time>2011-04-22T18:25:33Z</time>
      </trkpt>
      <trkpt lat="31.052318997681141" lon="-3.99092199280858">
        <ele>702.89999999999998</ele>
        <time>2011-04-22T18:25:34Z</time>
      </trkpt>
      <trkpt lat="31.04782403446734" lon="-3.993313014507294">
        <ele>710.60000000000002</ele>
        <time>2011-04-22T18:26:29Z</time>
      </trkpt>
      <trkpt lat="31.047598980367184" lon="-3.993476964533329">
        <ele>710.89999999999998</ele>
        <time>2011-04-22T18:26:33Z</time>
      </trkpt>
      <trkpt lat="31.04750300757587" lon="-3.993566986173391">
        <ele>711.89999999999998</ele>
        <time>2011-04-22T18:26:35Z</time>
      </trkpt>
      <trkpt lat="31.047446010634303" lon="-3.993694977834821">
        <ele>710.10000000000002</ele>
        <time>2011-04-22T18:26:37Z</time>
      </trkpt>
      <trkpt lat="31.047398988157511" lon="-3.993832021951675">
        <ele>711.29999999999995</ele>
        <time>2011-04-22T18:26:39Z</time>
      </trkpt>
      <trkpt lat="31.047376021742821" lon="-3.993956996127963">
        <ele>710.89999999999998</ele>
        <time>2011-04-22T18:26:41Z</time>
      </trkpt>
      <trkpt lat="31.047376021742821" lon="-3.994070990011096">
        <ele>709.20000000000005</ele>
        <time>2011-04-22T18:26:43Z</time>
      </trkpt>
      <trkpt lat="31.047432012856007" lon="-3.99416302330792">
        <ele>708.20000000000005</ele>
        <time>2011-04-22T18:26:45Z</time>
      </trkpt>
      <trkpt lat="31.047536032274365" lon="-3.994171991944313">
        <ele>706.10000000000002</ele>
        <time>2011-04-22T18:26:48Z</time>
      </trkpt>
      <trkpt lat="31.047608032822609" lon="-3.993942998349667">
        <ele>701.60000000000002</ele>
        <time>2011-04-22T18:26:54Z</time>
      </trkpt>
      <trkpt lat="31.047651031985879" lon="-3.993826992809773">
        <ele>698.29999999999995</ele>
        <time>2011-04-22T18:26:57Z</time>
      </trkpt>
      <trkpt lat="31.047748010605574" lon="-3.993765972554684">
        <ele>695.39999999999998</ele>
        <time>2011-04-22T18:27:00Z</time>
      </trkpt>
      <trkpt lat="31.047844989225268" lon="-3.993781981989741">
        <ele>695</ele>
        <time>2011-04-22T18:27:02Z</time>
      </trkpt>
      <trkpt lat="31.047962000593543" lon="-3.993835039436817">
        <ele>694.79999999999995</ele>
        <time>2011-04-22T18:27:05Z</time>
      </trkpt>
      <trkpt lat="31.048030983656645" lon="-3.993917014449835">
        <ele>693.39999999999998</ele>
        <time>2011-04-22T18:27:09Z</time>
      </trkpt>
      <trkpt lat="31.047978010028601" lon="-3.994004018604755">
        <ele>691.70000000000005</ele>
        <time>2011-04-22T18:27:12Z</time>
      </trkpt>
      <trkpt lat="31.047825962305069" lon="-3.994113989174366">
        <ele>693.79999999999995</ele>
        <time>2011-04-22T18:27:16Z</time>
      </trkpt>
      <trkpt lat="31.047730995342135" lon="-3.994146008044481">
        <ele>695.10000000000002</ele>
        <time>2011-04-22T18:27:18Z</time>
      </trkpt>
      <trkpt lat="31.047615995630622" lon="-3.994177021086216">
        <ele>696.29999999999995</ele>
        <time>2011-04-22T18:27:20Z</time>
      </trkpt>
      <trkpt lat="31.047531003132463" lon="-3.994240975007415">
        <ele>695.70000000000005</ele>
        <time>2011-04-22T18:27:22Z</time>
      </trkpt>
      <trkpt lat="31.047470988705754" lon="-3.994355974718928">
        <ele>694.5</ele>
        <time>2011-04-22T18:27:26Z</time>
      </trkpt>
      <trkpt lat="31.047118026763201" lon="-3.99435899220407">
        <ele>718.60000000000002</ele>
        <time>2011-04-22T18:27:56Z</time>
      </trkpt>
      <trkpt lat="31.047019958496094" lon="-3.994361003860831">
        <ele>720.70000000000005</ele>
        <time>2011-04-22T18:27:58Z</time>
      </trkpt>
      <trkpt lat="31.046913005411625" lon="-3.99433895945549">
        <ele>723.29999999999995</ele>
        <time>2011-04-22T18:28:00Z</time>
      </trkpt>
      <trkpt lat="31.046804040670395" lon="-3.994263019412756">
        <ele>723.29999999999995</ele>
        <time>2011-04-22T18:28:03Z</time>
      </trkpt>
      <trkpt lat="31.046716030687094" lon="-3.994183978065848">
        <ele>724.60000000000002</ele>
        <time>2011-04-22T18:28:06Z</time>
      </trkpt>
      <trkpt lat="31.046608993783593" lon="-3.994204010814428">
        <ele>725.60000000000002</ele>
        <time>2011-04-22T18:28:09Z</time>
      </trkpt>
      <trkpt lat="31.0464290343225" lon="-3.994445996358991">
        <ele>725.39999999999998</ele>
        <time>2011-04-22T18:28:15Z</time>
      </trkpt>
      <trkpt lat="31.04621697217226" lon="-3.994639031589031">
        <ele>728.70000000000005</ele>
        <time>2011-04-22T18:28:20Z</time>
      </trkpt>
      <trkpt lat="31.046141032129526" lon="-3.994708014652133">
        <ele>728.60000000000002</ele>
        <time>2011-04-22T18:28:22Z</time>
      </trkpt>
      <trkpt lat="31.046090992167592" lon="-3.994839023798704">
        <ele>726.89999999999998</ele>
        <time>2011-04-22T18:28:25Z</time>
      </trkpt>
      <trkpt lat="31.046179002150893" lon="-3.994932984933257">
        <ele>724.60000000000002</ele>
        <time>2011-04-22T18:28:28Z</time>
      </trkpt>
      <trkpt lat="31.046273969113827" lon="-3.994939019903541">
        <ele>723.79999999999995</ele>
        <time>2011-04-22T18:28:30Z</time>
      </trkpt>
      <trkpt lat="31.046378994360566" lon="-3.994929967448115">
        <ele>723</ele>
        <time>2011-04-22T18:28:32Z</time>
      </trkpt>
      <trkpt lat="31.046483013778925" lon="-3.994945976883173">
        <ele>721.60000000000002</ele>
        <time>2011-04-22T18:28:35Z</time>
      </trkpt>
      <trkpt lat="31.04660103097558" lon="-3.994962992146611">
        <ele>701.39999999999998</ele>
        <time>2011-04-22T18:29:28Z</time>
      </trkpt>
      <trkpt lat="31.046691974624991" lon="-3.994977995753288">
        <ele>694.10000000000002</ele>
        <time>2011-04-22T18:29:42Z</time>
      </trkpt>
      <trkpt lat="31.046781996265054" lon="-3.994991993531585">
        <ele>694.70000000000005</ele>
        <time>2011-04-22T18:30:08Z</time>
      </trkpt>
      <trkpt lat="31.046962961554527" lon="-3.995043039321899">
        <ele>696.5</ele>
        <time>2011-04-22T18:30:22Z</time>
      </trkpt>
      <trkpt lat="31.047164965420961" lon="-3.995057037100196">
        <ele>697.10000000000002</ele>
        <time>2011-04-22T18:30:26Z</time>
      </trkpt>
      <trkpt lat="31.047400999814272" lon="-3.99504697881639">
        <ele>696.60000000000002</ele>
        <time>2011-04-22T18:30:30Z</time>
      </trkpt>
      <trkpt lat="31.047524968162179" lon="-3.995049996301532">
        <ele>696.89999999999998</ele>
        <time>2011-04-22T18:30:32Z</time>
      </trkpt>
      <trkpt lat="31.047692019492388" lon="-3.995075980201364">
        <ele>697.20000000000005</ele>
        <time>2011-04-22T18:30:35Z</time>
      </trkpt>
      <trkpt lat="31.047809030860662" lon="-3.995106993243098">
        <ele>697.5</ele>
        <time>2011-04-22T18:30:37Z</time>
      </trkpt>
      <trkpt lat="31.047920007258654" lon="-3.995158961042762">
        <ele>697.79999999999995</ele>
        <time>2011-04-22T18:30:39Z</time>
      </trkpt>
      <trkpt lat="31.048016985878348" lon="-3.995247976854444">
        <ele>698.10000000000002</ele>
        <time>2011-04-22T18:30:41Z</time>
      </trkpt>
      <trkpt lat="31.048173978924751" lon="-3.995357025414705">
        <ele>699</ele>
        <time>2011-04-22T18:30:44Z</time>
      </trkpt>
      <trkpt lat="31.048273975029588" lon="-3.995331041514874">
        <ele>700.10000000000002</ele>
        <time>2011-04-22T18:30:46Z</time>
      </trkpt>
      <trkpt lat="31.048388974741101" lon="-3.995292987674475">
        <ele>701.10000000000002</ele>
        <time>2011-04-22T18:30:49Z</time>
      </trkpt>
      <trkpt lat="31.048979982733727" lon="-3.995340010151267">
        <ele>702.60000000000002</ele>
        <time>2011-04-22T18:30:58Z</time>
      </trkpt>
      <trkpt lat="31.049099005758762" lon="-3.995383009314537">
        <ele>703.5</ele>
        <time>2011-04-22T18:31:00Z</time>
      </trkpt>
      <trkpt lat="31.049162037670612" lon="-3.995494991540909">
        <ele>703.89999999999998</ele>
        <time>2011-04-22T18:31:03Z</time>
      </trkpt>
      <trkpt lat="31.049176035448909" lon="-3.995622983202338">
        <ele>702.29999999999995</ele>
        <time>2011-04-22T18:31:06Z</time>
      </trkpt>
      <trkpt lat="31.049263039603829" lon="-3.995715016499162">
        <ele>701.79999999999995</ele>
        <time>2011-04-22T18:31:09Z</time>
      </trkpt>
      <trkpt lat="31.049915989860892" lon="-3.996005030348897">
        <ele>703.60000000000002</ele>
        <time>2011-04-22T18:31:22Z</time>
      </trkpt>
      <trkpt lat="31.050069965422153" lon="-3.996117012575269">
        <ele>704.89999999999998</ele>
        <time>2011-04-22T18:31:25Z</time>
      </trkpt>
      <trkpt lat="31.050171973183751" lon="-3.996145008131862">
        <ele>705.70000000000005</ele>
        <time>2011-04-22T18:31:27Z</time>
      </trkpt>
      <trkpt lat="31.050347993150353" lon="-3.996138973161578">
        <ele>706.20000000000005</ele>
        <time>2011-04-22T18:31:30Z</time>
      </trkpt>
      <trkpt lat="31.050465004518628" lon="-3.996164035052061">
        <ele>706.89999999999998</ele>
        <time>2011-04-22T18:31:32Z</time>
      </trkpt>
      <trkpt lat="31.050543040037155" lon="-3.996263025328517">
        <ele>706.5</ele>
        <time>2011-04-22T18:31:34Z</time>
      </trkpt>
      <trkpt lat="31.05057799257338" lon="-3.996395962312818">
        <ele>706.20000000000005</ele>
        <time>2011-04-22T18:31:36Z</time>
      </trkpt>
      <trkpt lat="31.050643036141992" lon="-3.996759988367558">
        <ele>706.60000000000002</ele>
        <time>2011-04-22T18:31:41Z</time>
      </trkpt>
      <trkpt lat="31.05068301782012" lon="-3.996867025271058">
        <ele>707</ele>
        <time>2011-04-22T18:31:43Z</time>
      </trkpt>
      <trkpt lat="31.050835987553" lon="-3.996982024982572">
        <ele>706.89999999999998</ele>
        <time>2011-04-22T18:31:47Z</time>
      </trkpt>
      <trkpt lat="31.050917040556669" lon="-3.997056037187576">
        <ele>706.70000000000005</ele>
        <time>2011-04-22T18:31:49Z</time>
      </trkpt>
      <trkpt lat="31.051058024168015" lon="-3.99725703522563">
        <ele>705.60000000000002</ele>
        <time>2011-04-22T18:31:53Z</time>
      </trkpt>
      <trkpt lat="31.051143016666174" lon="-3.997315037995577">
        <ele>705.60000000000002</ele>
        <time>2011-04-22T18:31:55Z</time>
      </trkpt>
      <trkpt lat="31.05124301277101" lon="-3.997326018288732">
        <ele>705.79999999999995</ele>
        <time>2011-04-22T18:31:57Z</time>
      </trkpt>
      <trkpt lat="31.05143403634429" lon="-3.997310008853674">
        <ele>707.79999999999995</ele>
        <time>2011-04-22T18:32:01Z</time>
      </trkpt>
      <trkpt lat="31.051530009135604" lon="-3.997396007180214">
        <ele>707.70000000000005</ele>
        <time>2011-04-22T18:32:05Z</time>
      </trkpt>
      <trkpt lat="31.051602009683847" lon="-3.99751896969974">
        <ele>707.5</ele>
        <time>2011-04-22T18:32:08Z</time>
      </trkpt>
      <trkpt lat="31.051638973876834" lon="-3.997664982452989">
        <ele>707.5</ele>
        <time>2011-04-22T18:32:11Z</time>
      </trkpt>
      <trkpt lat="31.051560016348958" lon="-3.99790302850306">
        <ele>707.10000000000002</ele>
        <time>2011-04-22T18:32:16Z</time>
      </trkpt>
      <trkpt lat="31.051594968885183" lon="-3.998083993792534">
        <ele>705.70000000000005</ele>
        <time>2011-04-22T18:32:20Z</time>
      </trkpt>
      <trkpt lat="31.051441999152303" lon="-3.998188013210893">
        <ele>705.10000000000002</ele>
        <time>2011-04-22T18:32:25Z</time>
      </trkpt>
      <trkpt lat="31.051377961412072" lon="-3.998063961043954">
        <ele>704.79999999999995</ele>
        <time>2011-04-22T18:32:28Z</time>
      </trkpt>
      <trkpt lat="31.051291963085532" lon="-3.997939992696047">
        <ele>704.5</ele>
        <time>2011-04-22T18:32:31Z</time>
      </trkpt>
      <trkpt lat="31.051412997767329" lon="-3.99775399826467">
        <ele>704.5</ele>
        <time>2011-04-22T18:32:36Z</time>
      </trkpt>
      <trkpt lat="31.051527997478843" lon="-3.997677974402905">
        <ele>704.39999999999998</ele>
        <time>2011-04-22T18:32:39Z</time>
      </trkpt>
      <trkpt lat="31.051623970270157" lon="-3.997692978009582">
        <ele>704.20000000000005</ele>
        <time>2011-04-22T18:32:41Z</time>
      </trkpt>
      <trkpt lat="31.051718015223742" lon="-3.997713010758162">
        <ele>703.89999999999998</ele>
        <time>2011-04-22T18:32:43Z</time>
      </trkpt>
      <trkpt lat="31.051817005500197" lon="-3.997719967737794">
        <ele>703.29999999999995</ele>
        <time>2011-04-22T18:32:45Z</time>
      </trkpt>
      <trkpt lat="31.051926976069808" lon="-3.997765984386206">
        <ele>702.39999999999998</ele>
        <time>2011-04-22T18:32:47Z</time>
      </trkpt>
      <trkpt lat="31.052065026015043" lon="-3.997857011854649">
        <ele>701.79999999999995</ele>
        <time>2011-04-22T18:32:50Z</time>
      </trkpt>
      <trkpt lat="31.05216502211988" lon="-3.997888024896383">
        <ele>701.79999999999995</ele>
        <time>2011-04-22T18:32:52Z</time>
      </trkpt>
      <trkpt lat="31.052288990467787" lon="-3.997747041285038">
        <ele>701.70000000000005</ele>
        <time>2011-04-22T18:32:56Z</time>
      </trkpt>
      <trkpt lat="31.052395021542907" lon="-3.997706975787878">
        <ele>703</ele>
        <time>2011-04-22T18:32:58Z</time>
      </trkpt>
      <trkpt lat="31.052495017647743" lon="-3.997743017971516">
        <ele>704.60000000000002</ele>
        <time>2011-04-22T18:33:00Z</time>
      </trkpt>
      <trkpt lat="31.052551008760929" lon="-3.997866986319423">
        <ele>703.29999999999995</ele>
        <time>2011-04-22T18:33:03Z</time>
      </trkpt>
      <trkpt lat="31.052630972117186" lon="-3.998114001005888">
        <ele>701.5</ele>
        <time>2011-04-22T18:33:07Z</time>
      </trkpt>
      <trkpt lat="31.052708001807332" lon="-3.998265964910388">
        <ele>701.29999999999995</ele>
        <time>2011-04-22T18:33:10Z</time>
      </trkpt>
      <trkpt lat="31.052786959335208" lon="-3.998363027349114">
        <ele>701.29999999999995</ele>
        <time>2011-04-22T18:33:12Z</time>
      </trkpt>
      <trkpt lat="31.052932972088456" lon="-3.998466962948442">
        <ele>701.5</ele>
        <time>2011-04-22T18:33:15Z</time>
      </trkpt>
      <trkpt lat="31.053007990121841" lon="-3.99854801595211">
        <ele>701.20000000000005</ele>
        <time>2011-04-22T18:33:17Z</time>
      </trkpt>
      <trkpt lat="31.053008995950222" lon="-3.998697968199849">
        <ele>700.20000000000005</ele>
        <time>2011-04-22T18:33:20Z</time>
      </trkpt>
      <trkpt lat="31.052945964038372" lon="-3.998778015375137">
        <ele>699.89999999999998</ele>
        <time>2011-04-22T18:33:22Z</time>
      </trkpt>
      <trkpt lat="31.05285401456058" lon="-3.998803999274969">
        <ele>699.89999999999998</ele>
        <time>2011-04-22T18:33:24Z</time>
      </trkpt>
      <trkpt lat="31.052754018455744" lon="-3.998725963756442">
        <ele>700.89999999999998</ele>
        <time>2011-04-22T18:33:27Z</time>
      </trkpt>
      <trkpt lat="31.052716970443726" lon="-3.998595038428903">
        <ele>701.70000000000005</ele>
        <time>2011-04-22T18:33:30Z</time>
      </trkpt>
      <trkpt lat="31.052653016522527" lon="-3.99850501678884">
        <ele>701.29999999999995</ele>
        <time>2011-04-22T18:33:33Z</time>
      </trkpt>
      <trkpt lat="31.052566012367606" lon="-3.998445002362132">
        <ele>703.89999999999998</ele>
        <time>2011-04-22T18:33:38Z</time>
      </trkpt>
      <trkpt lat="31.052412958815694" lon="-3.998424969613552">
        <ele>678.79999999999995</ele>
        <time>2011-04-22T18:34:46Z</time>
      </trkpt>
      <trkpt lat="31.052329977974296" lon="-3.998324973508716">
        <ele>677.29999999999995</ele>
        <time>2011-04-22T18:34:51Z</time>
      </trkpt>
      <trkpt lat="31.052143983542919" lon="-3.998043006286025">
        <ele>676.39999999999998</ele>
        <time>2011-04-22T18:34:58Z</time>
      </trkpt>
      <trkpt lat="31.05208296328783" lon="-3.997899005189538">
        <ele>676.5</ele>
        <time>2011-04-22T18:35:01Z</time>
      </trkpt>
      <trkpt lat="31.051880037412047" lon="-3.997833039611578">
        <ele>677.20000000000005</ele>
        <time>2011-04-22T18:35:06Z</time>
      </trkpt>
      <trkpt lat="31.051784986630082" lon="-3.997805966064334">
        <ele>677</ele>
        <time>2011-04-22T18:35:08Z</time>
      </trkpt>
      <trkpt lat="31.051624976098537" lon="-3.997712004929781">
        <ele>680.70000000000005</ele>
        <time>2011-04-22T18:35:11Z</time>
      </trkpt>
      <trkpt lat="31.05152296833694" lon="-3.997686021029949">
        <ele>681.39999999999998</ele>
        <time>2011-04-22T18:35:13Z</time>
      </trkpt>
      <trkpt lat="31.051433030515909" lon="-3.997672023251653">
        <ele>681.29999999999995</ele>
        <time>2011-04-22T18:35:15Z</time>
      </trkpt>
      <trkpt lat="31.051247036084533" lon="-3.99753900244832">
        <ele>679.20000000000005</ele>
        <time>2011-04-22T18:35:20Z</time>
      </trkpt>
      <trkpt lat="31.051180986687541" lon="-3.997455015778542">
        <ele>677.60000000000002</ele>
        <time>2011-04-22T18:35:22Z</time>
      </trkpt>
      <trkpt lat="31.051109991967678" lon="-3.997287964448333">
        <ele>677.39999999999998</ele>
        <time>2011-04-22T18:35:25Z</time>
      </trkpt>
      <trkpt lat="31.050839005038142" lon="-3.997101970016956">
        <ele>682.39999999999998</ele>
        <time>2011-04-22T18:35:31Z</time>
      </trkpt>
      <trkpt lat="31.050719982013106" lon="-3.997041033580899">
        <ele>681.89999999999998</ele>
        <time>2011-04-22T18:35:33Z</time>
      </trkpt>
      <trkpt lat="31.050373977050185" lon="-3.996885968372226">
        <ele>689.10000000000002</ele>
        <time>2011-04-22T18:35:39Z</time>
      </trkpt>
      <trkpt lat="31.050288984552026" lon="-3.996787983924151">
        <ele>690.39999999999998</ele>
        <time>2011-04-22T18:35:42Z</time>
      </trkpt>
      <trkpt lat="31.050284961238503" lon="-3.996918993070722">
        <ele>681.39999999999998</ele>
        <time>2011-04-22T18:37:33Z</time>
      </trkpt>
      <trkpt lat="31.050744038075209" lon="-3.996722018346191">
        <ele>684.79999999999995</ele>
        <time>2011-04-22T18:47:03Z</time>
      </trkpt>
      <trkpt lat="31.050586039200425" lon="-3.99622798897326">
        <ele>686.39999999999998</ele>
        <time>2011-04-22T18:50:23Z</time>
      </trkpt>
      <trkpt lat="31.050516972318292" lon="-3.996097985655069">
        <ele>687.5</ele>
        <time>2011-04-22T18:50:26Z</time>
      </trkpt>
      <trkpt lat="31.050429968163371" lon="-3.996011987328529">
        <ele>688.20000000000005</ele>
        <time>2011-04-22T18:50:29Z</time>
      </trkpt>
      <trkpt lat="31.050264006480575" lon="-3.995930012315512">
        <ele>689.10000000000002</ele>
        <time>2011-04-22T18:50:33Z</time>
      </trkpt>
      <trkpt lat="31.050111958757043" lon="-3.995891036465764">
        <ele>690.29999999999995</ele>
        <time>2011-04-22T18:50:36Z</time>
      </trkpt>
      <trkpt lat="31.050006011500955" lon="-3.995876032859087">
        <ele>690.60000000000002</ele>
        <time>2011-04-22T18:50:38Z</time>
      </trkpt>
      <trkpt lat="31.049900986254215" lon="-3.995880978181958">
        <ele>691.39999999999998</ele>
        <time>2011-04-22T18:50:40Z</time>
      </trkpt>
      <trkpt lat="31.049805013462901" lon="-3.995919032022357">
        <ele>692.20000000000005</ele>
        <time>2011-04-22T18:50:42Z</time>
      </trkpt>
      <trkpt lat="31.049715997651219" lon="-3.995966976508498">
        <ele>692.5</ele>
        <time>2011-04-22T18:50:44Z</time>
      </trkpt>
      <trkpt lat="31.049611978232861" lon="-3.995965970680118">
        <ele>693</ele>
        <time>2011-04-22T18:50:46Z</time>
      </trkpt>
      <trkpt lat="31.049527991563082" lon="-3.995917020365596">
        <ele>694.10000000000002</ele>
        <time>2011-04-22T18:50:48Z</time>
      </trkpt>
      <trkpt lat="31.049464037641883" lon="-3.995795985683799">
        <ele>693.39999999999998</ele>
        <time>2011-04-22T18:50:51Z</time>
      </trkpt>
      <trkpt lat="31.049406034871936" lon="-3.995656007900834">
        <ele>692.79999999999995</ele>
        <time>2011-04-22T18:50:54Z</time>
      </trkpt>
      <trkpt lat="31.04930997826159" lon="-3.995593981817365">
        <ele>693.70000000000005</ele>
        <time>2011-04-22T18:50:56Z</time>
      </trkpt>
      <trkpt lat="31.049193972721696" lon="-3.995563974604011">
        <ele>694.29999999999995</ele>
        <time>2011-04-22T18:50:58Z</time>
      </trkpt>
      <trkpt lat="31.049082996323705" lon="-3.995556011795998">
        <ele>695.89999999999998</ele>
        <time>2011-04-22T18:51:00Z</time>
      </trkpt>
      <trkpt lat="31.048960033804178" lon="-3.995575038716197">
        <ele>697.89999999999998</ele>
        <time>2011-04-22T18:51:03Z</time>
      </trkpt>
      <trkpt lat="31.048872023820877" lon="-3.995545031502843">
        <ele>697.89999999999998</ele>
        <time>2011-04-22T18:51:05Z</time>
      </trkpt>
      <trkpt lat="31.048727016896009" lon="-3.995432965457439">
        <ele>698.79999999999995</ele>
        <time>2011-04-22T18:51:08Z</time>
      </trkpt>
      <trkpt lat="31.048607993870974" lon="-3.995404969900847">
        <ele>700.79999999999995</ele>
        <time>2011-04-22T18:51:10Z</time>
      </trkpt>
      <trkpt lat="31.048265006393194" lon="-3.995362976565957">
        <ele>700.39999999999998</ele>
        <time>2011-04-22T18:51:16Z</time>
      </trkpt>
      <trkpt lat="31.04817096143961" lon="-3.995320983231068">
        <ele>700.10000000000002</ele>
        <time>2011-04-22T18:51:18Z</time>
      </trkpt>
      <trkpt lat="31.048114970326424" lon="-3.995225010439754">
        <ele>698.89999999999998</ele>
        <time>2011-04-22T18:51:20Z</time>
      </trkpt>
      <trkpt lat="31.048080017790198" lon="-3.995119985193014">
        <ele>697.39999999999998</ele>
        <time>2011-04-22T18:51:22Z</time>
      </trkpt>
      <trkpt lat="31.048014974221587" lon="-3.99504697881639">
        <ele>696.70000000000005</ele>
        <time>2011-04-22T18:51:24Z</time>
      </trkpt>
      <trkpt lat="31.047923024743795" lon="-3.995056031271815">
        <ele>696.5</ele>
        <time>2011-04-22T18:51:26Z</time>
      </trkpt>
      <trkpt lat="31.047835014760494" lon="-3.995117973536253">
        <ele>697</ele>
        <time>2011-04-22T18:51:28Z</time>
      </trkpt>
      <trkpt lat="31.047757985070348" lon="-3.995199026539922">
        <ele>697.60000000000002</ele>
        <time>2011-04-22T18:51:30Z</time>
      </trkpt>
      <trkpt lat="31.047704005613923" lon="-3.995293993502855">
        <ele>698.60000000000002</ele>
        <time>2011-04-22T18:51:32Z</time>
      </trkpt>
      <trkpt lat="31.047656983137131" lon="-3.995392983779311">
        <ele>700</ele>
        <time>2011-04-22T18:51:34Z</time>
      </trkpt>
      <trkpt lat="31.047586994245648" lon="-3.995479987934232">
        <ele>701.29999999999995</ele>
        <time>2011-04-22T18:51:36Z</time>
      </trkpt>
      <trkpt lat="31.047494960948825" lon="-3.995559029281139">
        <ele>701.89999999999998</ele>
        <time>2011-04-22T18:51:38Z</time>
      </trkpt>
      <trkpt lat="31.046413024887443" lon="-3.996352963149548">
        <ele>709.10000000000002</ele>
        <time>2011-04-22T18:52:01Z</time>
      </trkpt>
      <trkpt lat="31.046324009075761" lon="-3.996384982019663">
        <ele>708.79999999999995</ele>
        <time>2011-04-22T18:52:05Z</time>
      </trkpt>
      <trkpt lat="31.04664302431047" lon="-3.995886007323861">
        <ele>541.60000000000002</ele>
        <time>2011-04-22T19:12:47Z</time>
      </trkpt>
    </trkseg>
  </trk>

  <trk>
    <name>110423</name>
    <extensions>
      <gpxx:TrackExtension xmlns:gpxx="http://www.garmin.com/xmlschemas/GpxExtensions/v3">
        <gpxx:DisplayColor>Cyan</gpxx:DisplayColor>
      </gpxx:TrackExtension>
    </extensions>
    <trkseg>
      <trkpt lat="31.046570688486099" lon="-3.998179547488689">
        <ele>705.7451171875</ele>
        <time>2011-04-23T08:23:51Z</time>
      </trkpt>
      <trkpt lat="31.046383436769247" lon="-3.998525971546769">
        <ele>705.7451171875</ele>
        <time>2011-04-23T08:24:01Z</time>
      </trkpt>
      <trkpt lat="31.046472117304802" lon="-3.999254442751408">
        <ele>703.822509765625</ele>
        <time>2011-04-23T08:24:09Z</time>
      </trkpt>
      <trkpt lat="31.046809488907456" lon="-4.000331768766046">
        <ele>702.861083984375</ele>
        <time>2011-04-23T08:24:19Z</time>
      </trkpt>
      <trkpt lat="31.046864222735167" lon="-4.000808782875538">
        <ele>703.822509765625</ele>
        <time>2011-04-23T08:24:25Z</time>
      </trkpt>
      <trkpt lat="31.046972265467048" lon="-4.00136835873127">
        <ele>704.30322265625</ele>
        <time>2011-04-23T08:24:31Z</time>
      </trkpt>
      <trkpt lat="31.046987939625978" lon="-4.001483358442783">
        <ele>704.30322265625</ele>
        <time>2011-04-23T08:24:32Z</time>
      </trkpt>
      <trkpt lat="31.04694795794785" lon="-4.002366978675127">
        <ele>706.2255859375</ele>
        <time>2011-04-23T08:24:40Z</time>
      </trkpt>
      <trkpt lat="31.046937732025981" lon="-4.002539478242397">
        <ele>706.2255859375</ele>
        <time>2011-04-23T08:24:42Z</time>
      </trkpt>
      <trkpt lat="31.047099167481065" lon="-4.003300219774246">
        <ele>706.2255859375</ele>
        <time>2011-04-23T08:24:50Z</time>
      </trkpt>
      <trkpt lat="31.047549694776535" lon="-4.004517439752817">
        <ele>705.264404296875</ele>
        <time>2011-04-23T08:25:03Z</time>
      </trkpt>
      <trkpt lat="31.047796122729778" lon="-4.005267955362797">
        <ele>705.264404296875</ele>
        <time>2011-04-23T08:25:11Z</time>
      </trkpt>
      <trkpt lat="31.048097033053637" lon="-4.006256768479943">
        <ele>705.7451171875</ele>
        <time>2011-04-23T08:25:21Z</time>
      </trkpt>
      <trkpt lat="31.048409258946776" lon="-4.007103340700269">
        <ele>705.7451171875</ele>
        <time>2011-04-23T08:25:30Z</time>
      </trkpt>
      <trkpt lat="31.048952825367451" lon="-4.008231461048126">
        <ele>706.2255859375</ele>
        <time>2011-04-23T08:25:44Z</time>
      </trkpt>
      <trkpt lat="31.049256585538387" lon="-4.009134946390986">
        <ele>706.706298828125</ele>
        <time>2011-04-23T08:25:54Z</time>
      </trkpt>
      <trkpt lat="31.049393294379115" lon="-4.009574828669429">
        <ele>707.18701171875</ele>
        <time>2011-04-23T08:26:02Z</time>
      </trkpt>
      <trkpt lat="31.049603428691626" lon="-4.009827543050051">
        <ele>707.18701171875</ele>
        <time>2011-04-23T08:26:07Z</time>
      </trkpt>
      <trkpt lat="31.050355369225144" lon="-4.010351663455367">
        <ele>707.18701171875</ele>
        <time>2011-04-23T08:26:15Z</time>
      </trkpt>
      <trkpt lat="31.051712986081839" lon="-4.011312061920762">
        <ele>708.62890625</ele>
        <time>2011-04-23T08:26:26Z</time>
      </trkpt>
      <trkpt lat="31.053298255428672" lon="-4.012443032115698">
        <ele>709.59033203125</ele>
        <time>2011-04-23T08:26:38Z</time>
      </trkpt>
      <trkpt lat="31.054589152336121" lon="-4.013153649866581">
        <ele>710.551513671875</ele>
        <time>2011-04-23T08:26:47Z</time>
      </trkpt>
      <trkpt lat="31.056104432791471" lon="-4.013437796384096">
        <ele>710.07080078125</ele>
        <time>2011-04-23T08:26:57Z</time>
      </trkpt>
      <trkpt lat="31.058135367929935" lon="-4.013743568211794">
        <ele>710.551513671875</ele>
        <time>2011-04-23T08:27:10Z</time>
      </trkpt>
      <trkpt lat="31.059738574549556" lon="-4.013983458280563">
        <ele>711.0322265625</ele>
        <time>2011-04-23T08:27:19Z</time>
      </trkpt>
      <trkpt lat="31.060900473967195" lon="-4.013906177133322">
        <ele>710.551513671875</ele>
        <time>2011-04-23T08:27:25Z</time>
      </trkpt>
      <trkpt lat="31.063932124525309" lon="-4.013305027037859">
        <ele>710.07080078125</ele>
        <time>2011-04-23T08:27:41Z</time>
      </trkpt>
      <trkpt lat="31.066066324710846" lon="-4.012881740927696">
        <ele>710.07080078125</ele>
        <time>2011-04-23T08:27:52Z</time>
      </trkpt>
      <trkpt lat="31.067460989579558" lon="-4.012623075395823">
        <ele>709.59033203125</ele>
        <time>2011-04-23T08:28:00Z</time>
      </trkpt>
      <trkpt lat="31.069598542526364" lon="-4.01220222003758">
        <ele>708.62890625</ele>
        <time>2011-04-23T08:28:13Z</time>
      </trkpt>
      <trkpt lat="31.073029087856412" lon="-4.011535188183188">
        <ele>709.109619140625</ele>
        <time>2011-04-23T08:28:32Z</time>
      </trkpt>
      <trkpt lat="31.076463991776109" lon="-4.01085851714015">
        <ele>708.62890625</ele>
        <time>2011-04-23T08:28:51Z</time>
      </trkpt>
      <trkpt lat="31.078155040740967" lon="-4.010658022016287">
        <ele>701.419189453125</ele>
        <time>2011-04-23T08:29:01Z</time>
      </trkpt>
      <trkpt lat="31.080065527930856" lon="-4.010506980121136">
        <ele>693.247802734375</ele>
        <time>2011-04-23T08:29:12Z</time>
      </trkpt>
      <trkpt lat="31.082255970686674" lon="-4.01037672534585">
        <ele>681.7119140625</ele>
        <time>2011-04-23T08:29:24Z</time>
      </trkpt>
      <trkpt lat="31.083353748545051" lon="-4.010649556294084">
        <ele>678.828125</ele>
        <time>2011-04-23T08:29:30Z</time>
      </trkpt>
      <trkpt lat="31.084749083966017" lon="-4.011432342231274">
        <ele>674.502197265625</ele>
        <time>2011-04-23T08:29:38Z</time>
      </trkpt>
      <trkpt lat="31.087916437536478" lon="-4.013410722836852">
        <ele>674.98291015625</ele>
        <time>2011-04-23T08:29:56Z</time>
      </trkpt>
      <trkpt lat="31.089508999139071" lon="-4.014399871230125">
        <ele>675.46337890625</ele>
        <time>2011-04-23T08:30:06Z</time>
      </trkpt>
      <trkpt lat="31.090353978797793" lon="-4.014937235042453">
        <ele>675.46337890625</ele>
        <time>2011-04-23T08:30:13Z</time>
      </trkpt>
      <trkpt lat="31.090829148888588" lon="-4.015225488692522">
        <ele>674.98291015625</ele>
        <time>2011-04-23T08:30:19Z</time>
      </trkpt>
      <trkpt lat="31.091494420543313" lon="-4.015644919127226">
        <ele>674.98291015625</ele>
        <time>2011-04-23T08:30:30Z</time>
      </trkpt>
      <trkpt lat="31.092007560655475" lon="-4.015962425619364">
        <ele>675.944091796875</ele>
        <time>2011-04-23T08:30:39Z</time>
      </trkpt>
      <trkpt lat="31.092387847602367" lon="-4.016207177191973">
        <ele>675.46337890625</ele>
        <time>2011-04-23T08:30:45Z</time>
      </trkpt>
      <trkpt lat="31.092590857297182" lon="-4.016417060047388">
        <ele>674.502197265625</ele>
        <time>2011-04-23T08:30:49Z</time>
      </trkpt>
      <trkpt lat="31.092866286635399" lon="-4.016695423051715">
        <ele>673.541015625</ele>
        <time>2011-04-23T08:30:54Z</time>
      </trkpt>
      <trkpt lat="31.093001738190651" lon="-4.017052827402949">
        <ele>674.98291015625</ele>
        <time>2011-04-23T08:30:59Z</time>
      </trkpt>
      <trkpt lat="31.093011796474457" lon="-4.017791021615267">
        <ele>679.30859375</ele>
        <time>2011-04-23T08:31:09Z</time>
      </trkpt>
      <trkpt lat="31.09284239821136" lon="-4.018244985491037">
        <ele>675.944091796875</ele>
        <time>2011-04-23T08:31:18Z</time>
      </trkpt>
      <trkpt lat="31.092696888372302" lon="-4.018728118389845">
        <ele>673.060302734375</ele>
        <time>2011-04-23T08:31:27Z</time>
      </trkpt>
      <trkpt lat="31.092863688245416" lon="-4.018916375935078">
        <ele>674.021484375</ele>
        <time>2011-04-23T08:31:33Z</time>
      </trkpt>
      <trkpt lat="31.093044821172953" lon="-4.018964655697346">
        <ele>674.502197265625</ele>
        <time>2011-04-23T08:31:37Z</time>
      </trkpt>
      <trkpt lat="31.093191253021359" lon="-4.019232289865613">
        <ele>677.38623046875</ele>
        <time>2011-04-23T08:31:45Z</time>
      </trkpt>
      <trkpt lat="31.09303736127913" lon="-4.019884653389454">
        <ele>678.828125</ele>
        <time>2011-04-23T08:31:54Z</time>
      </trkpt>
      <trkpt lat="31.092685488983989" lon="-4.020906575024128">
        <ele>679.30859375</ele>
        <time>2011-04-23T08:32:06Z</time>
      </trkpt>
      <trkpt lat="31.092090792953968" lon="-4.021757170557976">
        <ele>679.30859375</ele>
        <time>2011-04-23T08:32:17Z</time>
      </trkpt>
      <trkpt lat="31.091726934537292" lon="-4.02213653549552">
        <ele>677.38623046875</ele>
        <time>2011-04-23T08:32:24Z</time>
      </trkpt>
      <trkpt lat="31.09114145860076" lon="-4.022634336724877">
        <ele>676.905517578125</ele>
        <time>2011-04-23T08:32:33Z</time>
      </trkpt>
      <trkpt lat="31.090979184955359" lon="-4.022953854873776">
        <ele>677.38623046875</ele>
        <time>2011-04-23T08:32:38Z</time>
      </trkpt>
      <trkpt lat="31.09091866761446" lon="-4.023292735219002">
        <ele>678.828125</ele>
        <time>2011-04-23T08:32:44Z</time>
      </trkpt>
      <trkpt lat="31.090965354815125" lon="-4.023534217849374">
        <ele>680.27001953125</ele>
        <time>2011-04-23T08:32:49Z</time>
      </trkpt>
      <trkpt lat="31.091055795550346" lon="-4.023856166750193">
        <ele>683.634521484375</ele>
        <time>2011-04-23T08:32:58Z</time>
      </trkpt>
      <trkpt lat="31.091193426400423" lon="-4.023964880034328">
        <ele>715.8388671875</ele>
        <time>2011-04-23T08:46:13Z</time>
      </trkpt>
      <trkpt lat="31.091338265687227" lon="-4.023974351584911">
        <ele>714.87744140625</ele>
        <time>2011-04-23T08:46:19Z</time>
      </trkpt>
      <trkpt lat="31.091411942616105" lon="-4.023852478712797">
        <ele>713.916015625</ele>
        <time>2011-04-23T08:46:22Z</time>
      </trkpt>
      <trkpt lat="31.091550495475531" lon="-4.023726498708129">
        <ele>713.916015625</ele>
        <time>2011-04-23T08:46:26Z</time>
      </trkpt>
      <trkpt lat="31.092131361365318" lon="-4.023364065214992">
        <ele>711.99365234375</ele>
        <time>2011-04-23T08:46:39Z</time>
      </trkpt>
      <trkpt lat="31.092610387131572" lon="-4.023007247596979">
        <ele>711.512939453125</ele>
        <time>2011-04-23T08:46:49Z</time>
      </trkpt>
      <trkpt lat="31.093159820884466" lon="-4.022618662565947">
        <ele>711.0322265625</ele>
        <time>2011-04-23T08:46:58Z</time>
      </trkpt>
      <trkpt lat="31.093759294599295" lon="-4.022218678146601">
        <ele>711.99365234375</ele>
        <time>2011-04-23T08:47:09Z</time>
      </trkpt>
      <trkpt lat="31.09414653852582" lon="-4.021870074793696">
        <ele>712.954833984375</ele>
        <time>2011-04-23T08:47:17Z</time>
      </trkpt>
      <trkpt lat="31.094494219869375" lon="-4.021864291280508">
        <ele>712.954833984375</ele>
        <time>2011-04-23T08:47:24Z</time>
      </trkpt>
      <trkpt lat="31.0946034360677" lon="-4.022064870223403">
        <ele>711.512939453125</ele>
        <time>2011-04-23T08:47:27Z</time>
      </trkpt>
      <trkpt lat="31.094664875417948" lon="-4.022227730602026">
        <ele>711.512939453125</ele>
        <time>2011-04-23T08:47:29Z</time>
      </trkpt>
      <trkpt lat="31.095103919506073" lon="-4.022778170183301">
        <ele>711.0322265625</ele>
        <time>2011-04-23T08:47:37Z</time>
      </trkpt>
      <trkpt lat="31.095744129270315" lon="-4.02381987310946">
        <ele>710.551513671875</ele>
        <time>2011-04-23T08:47:50Z</time>
      </trkpt>
      <trkpt lat="31.095961639657617" lon="-4.024141151458025">
        <ele>710.551513671875</ele>
        <time>2011-04-23T08:47:54Z</time>
      </trkpt>
      <trkpt lat="31.096273278817534" lon="-4.024922931566834">
        <ele>711.99365234375</ele>
        <time>2011-04-23T08:48:03Z</time>
      </trkpt>
      <trkpt lat="31.096497997641563" lon="-4.025801355019212">
        <ele>712.954833984375</ele>
        <time>2011-04-23T08:48:13Z</time>
      </trkpt>
      <trkpt lat="31.096683237701654" lon="-4.026662427932024">
        <ele>714.396728515625</ele>
        <time>2011-04-23T08:48:22Z</time>
      </trkpt>
      <trkpt lat="31.096806619316339" lon="-4.027237091213465">
        <ele>713.916015625</ele>
        <time>2011-04-23T08:48:27Z</time>
      </trkpt>
      <trkpt lat="31.097284723073244" lon="-4.028375521302223">
        <ele>713.916015625</ele>
        <time>2011-04-23T08:48:38Z</time>
      </trkpt>
      <trkpt lat="31.097916718572378" lon="-4.029695419594646">
        <ele>714.87744140625</ele>
        <time>2011-04-23T08:48:50Z</time>
      </trkpt>
      <trkpt lat="31.098180245608091" lon="-4.030222725123167">
        <ele>715.358154296875</ele>
        <time>2011-04-23T08:48:55Z</time>
      </trkpt>
      <trkpt lat="31.098211091011763" lon="-4.030818426981568">
        <ele>714.87744140625</ele>
        <time>2011-04-23T08:49:00Z</time>
      </trkpt>
      <trkpt lat="31.098140347748995" lon="-4.031154541298747">
        <ele>712.954833984375</ele>
        <time>2011-04-23T08:49:03Z</time>
      </trkpt>
      <trkpt lat="31.098159374669194" lon="-4.031753428280354">
        <ele>712.47412109375</ele>
        <time>2011-04-23T08:49:08Z</time>
      </trkpt>
      <trkpt lat="31.098403288051486" lon="-4.032868640497327">
        <ele>711.99365234375</ele>
        <time>2011-04-23T08:49:18Z</time>
      </trkpt>
      <trkpt lat="31.098672598600388" lon="-4.034089464694262">
        <ele>710.551513671875</ele>
        <time>2011-04-23T08:49:28Z</time>
      </trkpt>
      <trkpt lat="31.098901173099875" lon="-4.034927235916257">
        <ele>710.551513671875</ele>
        <time>2011-04-23T08:49:35Z</time>
      </trkpt>
      <trkpt lat="31.09912714920938" lon="-4.036033395677805">
        <ele>710.551513671875</ele>
        <time>2011-04-23T08:49:43Z</time>
      </trkpt>
      <trkpt lat="31.099321274086833" lon="-4.036692464724183">
        <ele>710.07080078125</ele>
        <time>2011-04-23T08:49:49Z</time>
      </trkpt>
      <trkpt lat="31.099493522197008" lon="-4.037484470754862">
        <ele>710.551513671875</ele>
        <time>2011-04-23T08:49:57Z</time>
      </trkpt>
      <trkpt lat="31.099620340391994" lon="-4.038633042946458">
        <ele>712.47412109375</ele>
        <time>2011-04-23T08:50:06Z</time>
      </trkpt>
      <trkpt lat="31.099660070613027" lon="-4.039467796683312">
        <ele>714.396728515625</ele>
        <time>2011-04-23T08:50:12Z</time>
      </trkpt>
      <trkpt lat="31.099568288773298" lon="-4.039834421128035">
        <ele>712.47412109375</ele>
        <time>2011-04-23T08:50:16Z</time>
      </trkpt>
      <trkpt lat="31.099474243819714" lon="-4.040120579302311">
        <ele>710.551513671875</ele>
        <time>2011-04-23T08:50:19Z</time>
      </trkpt>
      <trkpt lat="31.099519087001681" lon="-4.040666241198778">
        <ele>709.109619140625</ele>
        <time>2011-04-23T08:50:24Z</time>
      </trkpt>
      <trkpt lat="31.099713630974293" lon="-4.041623622179031">
        <ele>708.1484375</ele>
        <time>2011-04-23T08:50:33Z</time>
      </trkpt>
      <trkpt lat="31.099927453324199" lon="-4.042690889909864">
        <ele>706.706298828125</ele>
        <time>2011-04-23T08:50:44Z</time>
      </trkpt>
      <trkpt lat="31.099990736693144" lon="-4.043040666729212">
        <ele>706.706298828125</ele>
        <time>2011-04-23T08:50:49Z</time>
      </trkpt>
      <trkpt lat="31.100140940397978" lon="-4.043738376349211">
        <ele>708.1484375</ele>
        <time>2011-04-23T08:50:57Z</time>
      </trkpt>
      <trkpt lat="31.100457943975925" lon="-4.044496854767203">
        <ele>709.59033203125</ele>
        <time>2011-04-23T08:51:06Z</time>
      </trkpt>
      <trkpt lat="31.100696995854378" lon="-4.044898934662342">
        <ele>710.07080078125</ele>
        <time>2011-04-23T08:51:11Z</time>
      </trkpt>
      <trkpt lat="31.101388921961188" lon="-4.045697394758463">
        <ele>708.62890625</ele>
        <time>2011-04-23T08:51:21Z</time>
      </trkpt>
      <trkpt lat="31.101795444265008" lon="-4.046109952032566">
        <ele>708.62890625</ele>
        <time>2011-04-23T08:51:27Z</time>
      </trkpt>
      <trkpt lat="31.102021085098386" lon="-4.046323774382472">
        <ele>709.109619140625</ele>
        <time>2011-04-23T08:51:30Z</time>
      </trkpt>
      <trkpt lat="31.102552581578493" lon="-4.047153750434518">
        <ele>710.07080078125</ele>
        <time>2011-04-23T08:51:39Z</time>
      </trkpt>
      <trkpt lat="31.103385658934712" lon="-4.048365270718932">
        <ele>710.551513671875</ele>
        <time>2011-04-23T08:51:52Z</time>
      </trkpt>
      <trkpt lat="31.103973984718323" lon="-4.049268253147602">
        <ele>710.07080078125</ele>
        <time>2011-04-23T08:52:01Z</time>
      </trkpt>
      <trkpt lat="31.104463571682572" lon="-4.04974996112287">
        <ele>710.07080078125</ele>
        <time>2011-04-23T08:52:07Z</time>
      </trkpt>
      <trkpt lat="31.1047038808465" lon="-4.050078196451068">
        <ele>710.551513671875</ele>
        <time>2011-04-23T08:52:11Z</time>
      </trkpt>
      <trkpt lat="31.105182068422437" lon="-4.05091873370111">
        <ele>710.551513671875</ele>
        <time>2011-04-23T08:52:21Z</time>
      </trkpt>
      <trkpt lat="31.105658244341612" lon="-4.051873683929443">
        <ele>711.0322265625</ele>
        <time>2011-04-23T08:52:30Z</time>
      </trkpt>
      <trkpt lat="31.106554521247745" lon="-4.053286453709006">
        <ele>710.551513671875</ele>
        <time>2011-04-23T08:52:43Z</time>
      </trkpt>
      <trkpt lat="31.106999767944217" lon="-4.053923729807138">
        <ele>711.0322265625</ele>
        <time>2011-04-23T08:52:50Z</time>
      </trkpt>
      <trkpt lat="31.10703706741333" lon="-4.054020792245865">
        <ele>711.0322265625</ele>
        <time>2011-04-23T08:52:51Z</time>
      </trkpt>
      <trkpt lat="31.107098171487451" lon="-4.054704420268536">
        <ele>711.0322265625</ele>
        <time>2011-04-23T08:52:57Z</time>
      </trkpt>
      <trkpt lat="31.106930617243052" lon="-4.055942092090845">
        <ele>710.07080078125</ele>
        <time>2011-04-23T08:53:07Z</time>
      </trkpt>
      <trkpt lat="31.106923157349229" lon="-4.057086892426014">
        <ele>711.0322265625</ele>
        <time>2011-04-23T08:53:16Z</time>
      </trkpt>
      <trkpt lat="31.10698577016592" lon="-4.058445682749152">
        <ele>711.99365234375</ele>
        <time>2011-04-23T08:53:27Z</time>
      </trkpt>
      <trkpt lat="31.107177967205644" lon="-4.059349587187171">
        <ele>711.512939453125</ele>
        <time>2011-04-23T08:53:34Z</time>
      </trkpt>
      <trkpt lat="31.107410648837686" lon="-4.060874758288264">
        <ele>712.954833984375</ele>
        <time>2011-04-23T08:53:46Z</time>
      </trkpt>
      <trkpt lat="31.107368571683764" lon="-4.061297122389078">
        <ele>711.512939453125</ele>
        <time>2011-04-23T08:53:50Z</time>
      </trkpt>
      <trkpt lat="31.107059698551893" lon="-4.062155932188034">
        <ele>708.1484375</ele>
        <time>2011-04-23T08:53:58Z</time>
      </trkpt>
      <trkpt lat="31.10639157705009" lon="-4.062908459454775">
        <ele>703.341796875</ele>
        <time>2011-04-23T08:54:07Z</time>
      </trkpt>
      <trkpt lat="31.10611162148416" lon="-4.063253039494157">
        <ele>702.38037109375</ele>
        <time>2011-04-23T08:54:11Z</time>
      </trkpt>
      <trkpt lat="31.105835689231753" lon="-4.064002046361566">
        <ele>695.651123046875</ele>
        <time>2011-04-23T08:54:18Z</time>
      </trkpt>
      <trkpt lat="31.105687161907554" lon="-4.064623899757862">
        <ele>692.767333984375</ele>
        <time>2011-04-23T08:54:24Z</time>
      </trkpt>
      <trkpt lat="31.105781039223075" lon="-4.065366117283702">
        <ele>694.209228515625</ele>
        <time>2011-04-23T08:54:30Z</time>
      </trkpt>
      <trkpt lat="31.106198290362954" lon="-4.066723566502333">
        <ele>697.57373046875</ele>
        <time>2011-04-23T08:54:40Z</time>
      </trkpt>
      <trkpt lat="31.106724422425032" lon="-4.068391397595406">
        <ele>700.9384765625</ele>
        <time>2011-04-23T08:54:52Z</time>
      </trkpt>
      <trkpt lat="31.1072061304003" lon="-4.069966860115528">
        <ele>702.861083984375</ele>
        <time>2011-04-23T08:55:04Z</time>
      </trkpt>
      <trkpt lat="31.107842149212956" lon="-4.071983378380537">
        <ele>705.264404296875</ele>
        <time>2011-04-23T08:55:19Z</time>
      </trkpt>
      <trkpt lat="31.108369287103415" lon="-4.07398589886725">
        <ele>707.18701171875</ele>
        <time>2011-04-23T08:55:33Z</time>
      </trkpt>
      <trkpt lat="31.108523765578866" lon="-4.074644045904279">
        <ele>707.18701171875</ele>
        <time>2011-04-23T08:55:39Z</time>
      </trkpt>
      <trkpt lat="31.10870766453445" lon="-4.075480559840798">
        <ele>707.667724609375</ele>
        <time>2011-04-23T08:55:47Z</time>
      </trkpt>
      <trkpt lat="31.108825849369168" lon="-4.076491752639413">
        <ele>708.1484375</ele>
        <time>2011-04-23T08:55:57Z</time>
      </trkpt>
      <trkpt lat="31.108881672844291" lon="-4.077462460845709">
        <ele>708.1484375</ele>
        <time>2011-04-23T08:56:07Z</time>
      </trkpt>
      <trkpt lat="31.108959876000881" lon="-4.078225381672382">
        <ele>708.1484375</ele>
        <time>2011-04-23T08:56:16Z</time>
      </trkpt>
      <trkpt lat="31.109159365296364" lon="-4.07921033911407">
        <ele>709.109619140625</ele>
        <time>2011-04-23T08:56:26Z</time>
      </trkpt>
      <trkpt lat="31.109593631699681" lon="-4.080322366207838">
        <ele>710.07080078125</ele>
        <time>2011-04-23T08:56:37Z</time>
      </trkpt>
      <trkpt lat="31.10982614569366" lon="-4.080839529633522">
        <ele>711.0322265625</ele>
        <time>2011-04-23T08:56:44Z</time>
      </trkpt>
      <trkpt lat="31.11015354283154" lon="-4.081521648913622">
        <ele>711.99365234375</ele>
        <time>2011-04-23T08:56:52Z</time>
      </trkpt>
      <trkpt lat="31.110713621601462" lon="-4.082737946882844">
        <ele>713.435546875</ele>
        <time>2011-04-23T08:57:04Z</time>
      </trkpt>
      <trkpt lat="31.111720791086555" lon="-4.08427057787776">
        <ele>715.8388671875</ele>
        <time>2011-04-23T08:57:19Z</time>
      </trkpt>
      <trkpt lat="31.112829884514213" lon="-4.085699021816254">
        <ele>717.281005859375</ele>
        <time>2011-04-23T08:57:33Z</time>
      </trkpt>
      <trkpt lat="31.113942665979266" lon="-4.087139451876283">
        <ele>718.2421875</ele>
        <time>2011-04-23T08:57:47Z</time>
      </trkpt>
      <trkpt lat="31.114961486309767" lon="-4.088486088439822">
        <ele>719.20361328125</ele>
        <time>2011-04-23T08:58:00Z</time>
      </trkpt>
      <trkpt lat="31.116086086258292" lon="-4.089980749413371">
        <ele>720.6455078125</ele>
        <time>2011-04-23T08:58:13Z</time>
      </trkpt>
      <trkpt lat="31.117465831339359" lon="-4.091529725119472">
        <ele>722.568115234375</ele>
        <time>2011-04-23T08:58:26Z</time>
      </trkpt>
      <trkpt lat="31.118575762957335" lon="-4.092718530446291">
        <ele>723.048828125</ele>
        <time>2011-04-23T08:58:37Z</time>
      </trkpt>
      <trkpt lat="31.120091965422034" lon="-4.094369262456894">
        <ele>724.49072265625</ele>
        <time>2011-04-23T08:58:52Z</time>
      </trkpt>
      <trkpt lat="31.121494844555855" lon="-4.095672983676195">
        <ele>725.451904296875</ele>
        <time>2011-04-23T08:59:05Z</time>
      </trkpt>
      <trkpt lat="31.122615924105048" lon="-4.09665098413825">
        <ele>726.413330078125</ele>
        <time>2011-04-23T08:59:16Z</time>
      </trkpt>
      <trkpt lat="31.123323356732726" lon="-4.097289266064763">
        <ele>726.413330078125</ele>
        <time>2011-04-23T08:59:24Z</time>
      </trkpt>
      <trkpt lat="31.124752974137664" lon="-4.098590640351176">
        <ele>726.89404296875</ele>
        <time>2011-04-23T08:59:37Z</time>
      </trkpt>
      <trkpt lat="31.126226680353284" lon="-4.09991942346096">
        <ele>726.89404296875</ele>
        <time>2011-04-23T08:59:50Z</time>
      </trkpt>
      <trkpt lat="31.127616567537189" lon="-4.1012176964432">
        <ele>727.855224609375</ele>
        <time>2011-04-23T09:00:02Z</time>
      </trkpt>
      <trkpt lat="31.129003185778856" lon="-4.102513287216425">
        <ele>730.258544921875</ele>
        <time>2011-04-23T09:00:14Z</time>
      </trkpt>
      <trkpt lat="31.129961656406522" lon="-4.103379221633077">
        <ele>731.700439453125</ele>
        <time>2011-04-23T09:00:24Z</time>
      </trkpt>
      <trkpt lat="31.13078978843987" lon="-4.104137029498816">
        <ele>732.662109375</ele>
        <time>2011-04-23T09:00:33Z</time>
      </trkpt>
      <trkpt lat="31.131715066730976" lon="-4.105079742148519">
        <ele>730.7392578125</ele>
        <time>2011-04-23T09:00:42Z</time>
      </trkpt>
      <trkpt lat="31.13245502114296" lon="-4.105971744284034">
        <ele>732.181396484375</ele>
        <time>2011-04-23T09:00:50Z</time>
      </trkpt>
      <trkpt lat="31.133379628881812" lon="-4.106879755854607">
        <ele>729.77783203125</ele>
        <time>2011-04-23T09:00:59Z</time>
      </trkpt>
      <trkpt lat="31.134366765618324" lon="-4.107771422713995">
        <ele>728.816650390625</ele>
        <time>2011-04-23T09:01:09Z</time>
      </trkpt>
      <trkpt lat="31.135321632027626" lon="-4.108805330470204">
        <ele>730.7392578125</ele>
        <time>2011-04-23T09:01:20Z</time>
      </trkpt>
      <trkpt lat="31.136496691033244" lon="-4.110068986192346">
        <ele>732.181396484375</ele>
        <time>2011-04-23T09:01:33Z</time>
      </trkpt>
      <trkpt lat="31.136943530291319" lon="-4.110588328912854">
        <ele>733.623291015625</ele>
        <time>2011-04-23T09:01:38Z</time>
      </trkpt>
      <trkpt lat="31.137054422870278" lon="-4.111187718808651">
        <ele>734.584716796875</ele>
        <time>2011-04-23T09:01:43Z</time>
      </trkpt>
      <trkpt lat="31.136909583583474" lon="-4.111548643559218">
        <ele>733.623291015625</ele>
        <time>2011-04-23T09:01:46Z</time>
      </trkpt>
      <trkpt lat="31.136301895603538" lon="-4.112856388092041">
        <ele>726.89404296875</ele>
        <time>2011-04-23T09:01:56Z</time>
      </trkpt>
      <trkpt lat="31.136066364124417" lon="-4.114240575581789">
        <ele>726.413330078125</ele>
        <time>2011-04-23T09:02:05Z</time>
      </trkpt>
      <trkpt lat="31.136100897565484" lon="-4.115273896604776">
        <ele>727.855224609375</ele>
        <time>2011-04-23T09:02:12Z</time>
      </trkpt>
      <trkpt lat="31.136291921138763" lon="-4.116626819595695">
        <ele>728.3359375</ele>
        <time>2011-04-23T09:02:21Z</time>
      </trkpt>
      <trkpt lat="31.136264847591519" lon="-4.118202868849039">
        <ele>728.3359375</ele>
        <time>2011-04-23T09:02:31Z</time>
      </trkpt>
      <trkpt lat="31.136307595297694" lon="-4.119724771007896">
        <ele>726.89404296875</ele>
        <time>2011-04-23T09:02:41Z</time>
      </trkpt>
      <trkpt lat="31.136315641924739" lon="-4.119966253638268">
        <ele>726.89404296875</ele>
        <time>2011-04-23T09:02:43Z</time>
      </trkpt>
      <trkpt lat="31.136444555595517" lon="-4.12040269933641">
        <ele>726.413330078125</ele>
        <time>2011-04-23T09:02:47Z</time>
      </trkpt>
      <trkpt lat="31.136734066531062" lon="-4.121029665693641">
        <ele>725.451904296875</ele>
        <time>2011-04-23T09:02:54Z</time>
      </trkpt>
      <trkpt lat="31.137044951319695" lon="-4.121677335351706">
        <ele>723.529541015625</ele>
        <time>2011-04-23T09:03:02Z</time>
      </trkpt>
      <trkpt lat="31.136765582486987" lon="-4.122201874852181">
        <ele>717.761474609375</ele>
        <time>2011-04-23T09:03:08Z</time>
      </trkpt>
      <trkpt lat="31.13669534213841" lon="-4.122281586751342">
        <ele>717.761474609375</ele>
        <time>2011-04-23T09:03:09Z</time>
      </trkpt>
      <trkpt lat="31.136109530925751" lon="-4.122986337170005">
        <ele>716.80029296875</ele>
        <time>2011-04-23T09:03:19Z</time>
      </trkpt>
      <trkpt lat="31.136035099625587" lon="-4.12310091778636">
        <ele>716.80029296875</ele>
        <time>2011-04-23T09:03:21Z</time>
      </trkpt>
      <trkpt lat="31.135761765763164" lon="-4.12376937456429">
        <ele>715.8388671875</ele>
        <time>2011-04-23T09:03:32Z</time>
      </trkpt>
      <trkpt lat="31.135478373616934" lon="-4.124418133869767">
        <ele>714.396728515625</ele>
        <time>2011-04-23T09:03:43Z</time>
      </trkpt>
      <trkpt lat="31.135394973680377" lon="-4.124566242098808">
        <ele>712.954833984375</ele>
        <time>2011-04-23T09:03:47Z</time>
      </trkpt>
      <trkpt lat="31.135355494916439" lon="-4.124666070565581">
        <ele>712.47412109375</ele>
        <time>2011-04-23T09:03:49Z</time>
      </trkpt>
      <trkpt lat="31.135006388649344" lon="-4.125347854569554">
        <ele>710.07080078125</ele>
        <time>2011-04-23T09:03:59Z</time>
      </trkpt>
      <trkpt lat="31.13469491712749" lon="-4.126154528930783">
        <ele>706.706298828125</ele>
        <time>2011-04-23T09:04:09Z</time>
      </trkpt>
      <trkpt lat="31.134660299867392" lon="-4.12634932436049">
        <ele>706.706298828125</ele>
        <time>2011-04-23T09:04:12Z</time>
      </trkpt>
      <trkpt lat="31.134487297385931" lon="-4.127015266567469">
        <ele>706.706298828125</ele>
        <time>2011-04-23T09:04:22Z</time>
      </trkpt>
      <trkpt lat="31.13456541672349" lon="-4.127552127465606">
        <ele>707.667724609375</ele>
        <time>2011-04-23T09:04:33Z</time>
      </trkpt>
      <trkpt lat="31.134715285152197" lon="-4.127882793545723">
        <ele>708.62890625</ele>
        <time>2011-04-23T09:04:39Z</time>
      </trkpt>
      <trkpt lat="31.134905721992254" lon="-4.128577737137675">
        <ele>711.512939453125</ele>
        <time>2011-04-23T09:04:49Z</time>
      </trkpt>
      <trkpt lat="31.134959869086742" lon="-4.128790469840169">
        <ele>713.435546875</ele>
        <time>2011-04-23T09:04:52Z</time>
      </trkpt>
      <trkpt lat="31.135008316487074" lon="-4.129183748736978">
        <ele>716.319580078125</ele>
        <time>2011-04-23T09:04:58Z</time>
      </trkpt>
      <trkpt lat="31.134873535484076" lon="-4.129464458674192">
        <ele>715.358154296875</ele>
        <time>2011-04-23T09:05:04Z</time>
      </trkpt>
      <trkpt lat="31.134737078100443" lon="-4.130092347040772">
        <ele>716.319580078125</ele>
        <time>2011-04-23T09:05:14Z</time>
      </trkpt>
      <trkpt lat="31.134674716740847" lon="-4.13076113909483">
        <ele>717.281005859375</ele>
        <time>2011-04-23T09:05:23Z</time>
      </trkpt>
      <trkpt lat="31.134675052016973" lon="-4.131087278947234">
        <ele>718.2421875</ele>
        <time>2011-04-23T09:05:30Z</time>
      </trkpt>
      <trkpt lat="31.134645128622651" lon="-4.131548451259732">
        <ele>719.20361328125</ele>
        <time>2011-04-23T09:05:38Z</time>
      </trkpt>
      <trkpt lat="31.134613696485758" lon="-4.132354035973549">
        <ele>719.20361328125</ele>
        <time>2011-04-23T09:05:47Z</time>
      </trkpt>
      <trkpt lat="31.134615121409297" lon="-4.132788721472025">
        <ele>719.20361328125</ele>
        <time>2011-04-23T09:05:52Z</time>
      </trkpt>
      <trkpt lat="31.134635154157877" lon="-4.132941523566842">
        <ele>718.722900390625</ele>
        <time>2011-04-23T09:05:54Z</time>
      </trkpt>
      <trkpt lat="31.134695755317807" lon="-4.133779965341091">
        <ele>717.761474609375</ele>
        <time>2011-04-23T09:06:04Z</time>
      </trkpt>
      <trkpt lat="31.134637081995606" lon="-4.134571049362421">
        <ele>717.761474609375</ele>
        <time>2011-04-23T09:06:13Z</time>
      </trkpt>
      <trkpt lat="31.134565332904458" lon="-4.135518036782742">
        <ele>718.722900390625</ele>
        <time>2011-04-23T09:06:23Z</time>
      </trkpt>
      <trkpt lat="31.13418772816658" lon="-4.136228151619434">
        <ele>715.358154296875</ele>
        <time>2011-04-23T09:06:31Z</time>
      </trkpt>
      <trkpt lat="31.133572496473789" lon="-4.136895937845111">
        <ele>715.8388671875</ele>
        <time>2011-04-23T09:06:39Z</time>
      </trkpt>
      <trkpt lat="31.132961036637425" lon="-4.137807134538889">
        <ele>711.512939453125</ele>
        <time>2011-04-23T09:06:48Z</time>
      </trkpt>
      <trkpt lat="31.132652163505554" lon="-4.138412559404969">
        <ele>708.62890625</ele>
        <time>2011-04-23T09:06:54Z</time>
      </trkpt>
      <trkpt lat="31.132418559864163" lon="-4.13917388767004">
        <ele>706.706298828125</ele>
        <time>2011-04-23T09:07:02Z</time>
      </trkpt>
      <trkpt lat="31.132323425263166" lon="-4.139779899269342">
        <ele>706.706298828125</ele>
        <time>2011-04-23T09:07:08Z</time>
      </trkpt>
      <trkpt lat="31.132170036435127" lon="-4.140781285241246">
        <ele>709.109619140625</ele>
        <time>2011-04-23T09:07:17Z</time>
      </trkpt>
      <trkpt lat="31.132030058652163" lon="-4.141800440847874">
        <ele>711.0322265625</ele>
        <time>2011-04-23T09:07:26Z</time>
      </trkpt>
      <trkpt lat="31.131930649280548" lon="-4.14281515404582">
        <ele>712.954833984375</ele>
        <time>2011-04-23T09:07:35Z</time>
      </trkpt>
      <trkpt lat="31.131898043677211" lon="-4.143041130155325">
        <ele>713.916015625</ele>
        <time>2011-04-23T09:07:37Z</time>
      </trkpt>
      <trkpt lat="31.13150954246521" lon="-4.143726350739598">
        <ele>710.07080078125</ele>
        <time>2011-04-23T09:07:44Z</time>
      </trkpt>
      <trkpt lat="31.131283231079578" lon="-4.144009659066796">
        <ele>710.07080078125</ele>
        <time>2011-04-23T09:07:47Z</time>
      </trkpt>
      <trkpt lat="31.131072426214814" lon="-4.144484074786305">
        <ele>709.59033203125</ele>
        <time>2011-04-23T09:07:51Z</time>
      </trkpt>
      <trkpt lat="31.130877966061234" lon="-4.14568486623466">
        <ele>710.07080078125</ele>
        <time>2011-04-23T09:08:00Z</time>
      </trkpt>
      <trkpt lat="31.130702029913664" lon="-4.146680636331439">
        <ele>711.0322265625</ele>
        <time>2011-04-23T09:08:08Z</time>
      </trkpt>
      <trkpt lat="31.130727929994464" lon="-4.148167250677943">
        <ele>711.512939453125</ele>
        <time>2011-04-23T09:08:18Z</time>
      </trkpt>
      <trkpt lat="31.130813090130687" lon="-4.150173626840115">
        <ele>712.954833984375</ele>
        <time>2011-04-23T09:08:31Z</time>
      </trkpt>
      <trkpt lat="31.130810491740704" lon="-4.15130015462637">
        <ele>714.396728515625</ele>
        <time>2011-04-23T09:08:40Z</time>
      </trkpt>
      <trkpt lat="31.130821723490953" lon="-4.152062069624662">
        <ele>714.396728515625</ele>
        <time>2011-04-23T09:08:46Z</time>
      </trkpt>
      <trkpt lat="31.130849048495293" lon="-4.153366880491376">
        <ele>713.916015625</ele>
        <time>2011-04-23T09:08:56Z</time>
      </trkpt>
      <trkpt lat="31.130762463435531" lon="-4.154108427464962">
        <ele>715.358154296875</ele>
        <time>2011-04-23T09:09:03Z</time>
      </trkpt>
      <trkpt lat="31.13052299246192" lon="-4.155092798173428">
        <ele>716.319580078125</ele>
        <time>2011-04-23T09:09:11Z</time>
      </trkpt>
      <trkpt lat="31.130565069615841" lon="-4.156016483902931">
        <ele>718.2421875</ele>
        <time>2011-04-23T09:09:18Z</time>
      </trkpt>
      <trkpt lat="31.130759362131357" lon="-4.157389774918556">
        <ele>723.048828125</ele>
        <time>2011-04-23T09:09:28Z</time>
      </trkpt>
      <trkpt lat="31.130798421800137" lon="-4.157985476776958">
        <ele>724.971435546875</ele>
        <time>2011-04-23T09:09:35Z</time>
      </trkpt>
      <trkpt lat="31.130860447883606" lon="-4.158851327374578">
        <ele>727.374755859375</ele>
        <time>2011-04-23T09:09:42Z</time>
      </trkpt>
      <trkpt lat="31.130929850041866" lon="-4.159916080534458">
        <ele>726.413330078125</ele>
        <time>2011-04-23T09:09:51Z</time>
      </trkpt>
      <trkpt lat="31.131008388474584" lon="-4.160758964717388">
        <ele>726.89404296875</ele>
        <time>2011-04-23T09:09:58Z</time>
      </trkpt>
      <trkpt lat="31.131138140335679" lon="-4.162111049517989">
        <ele>728.816650390625</ele>
        <time>2011-04-23T09:10:08Z</time>
      </trkpt>
      <trkpt lat="31.131295720115304" lon="-4.16341183707118">
        <ele>729.77783203125</ele>
        <time>2011-04-23T09:10:17Z</time>
      </trkpt>
      <trkpt lat="31.131322039291263" lon="-4.164637355133891">
        <ele>730.258544921875</ele>
        <time>2011-04-23T09:10:25Z</time>
      </trkpt>
      <trkpt lat="31.131152892485261" lon="-4.166343491524458">
        <ele>729.297119140625</ele>
        <time>2011-04-23T09:10:36Z</time>
      </trkpt>
      <trkpt lat="31.130994223058224" lon="-4.167658193036914">
        <ele>727.374755859375</ele>
        <time>2011-04-23T09:10:46Z</time>
      </trkpt>
      <trkpt lat="31.130859525874257" lon="-4.16860593482852">
        <ele>726.89404296875</ele>
        <time>2011-04-23T09:10:53Z</time>
      </trkpt>
      <trkpt lat="31.130635477602482" lon="-4.170163962990046">
        <ele>726.89404296875</ele>
        <time>2011-04-23T09:11:02Z</time>
      </trkpt>
      <trkpt lat="31.130465576425195" lon="-4.171323264017701">
        <ele>727.374755859375</ele>
        <time>2011-04-23T09:11:09Z</time>
      </trkpt>
      <trkpt lat="31.130309170112014" lon="-4.172991681843996">
        <ele>727.855224609375</ele>
        <time>2011-04-23T09:11:18Z</time>
      </trkpt>
      <trkpt lat="31.130223255604506" lon="-4.175276840105653">
        <ele>727.374755859375</ele>
        <time>2011-04-23T09:11:29Z</time>
      </trkpt>
      <trkpt lat="31.130377147346735" lon="-4.176659770309925">
        <ele>729.77783203125</ele>
        <time>2011-04-23T09:11:36Z</time>
      </trkpt>
      <trkpt lat="31.130829937756062" lon="-4.178133979439735">
        <ele>733.623291015625</ele>
        <time>2011-04-23T09:11:45Z</time>
      </trkpt>
      <trkpt lat="31.131061865016818" lon="-4.179591424763203">
        <ele>735.5458984375</ele>
        <time>2011-04-23T09:11:53Z</time>
      </trkpt>
      <trkpt lat="31.13124274648726" lon="-4.181508952751756">
        <ele>736.50732421875</ele>
        <time>2011-04-23T09:12:03Z</time>
      </trkpt>
      <trkpt lat="31.131443493068218" lon="-4.182870592921972">
        <ele>736.50732421875</ele>
        <time>2011-04-23T09:12:11Z</time>
      </trkpt>
      <trkpt lat="31.131992256268859" lon="-4.183903662487865">
        <ele>737.94921875</ele>
        <time>2011-04-23T09:12:18Z</time>
      </trkpt>
      <trkpt lat="31.133170751854777" lon="-4.185656234622002">
        <ele>740.3525390625</ele>
        <time>2011-04-23T09:12:30Z</time>
      </trkpt>
      <trkpt lat="31.134344385936856" lon="-4.187247790396214">
        <ele>742.275146484375</ele>
        <time>2011-04-23T09:12:41Z</time>
      </trkpt>
      <trkpt lat="31.134725427255034" lon="-4.187746429815888">
        <ele>743.236328125</ele>
        <time>2011-04-23T09:12:45Z</time>
      </trkpt>
      <trkpt lat="31.135195987299085" lon="-4.188991980627179">
        <ele>743.717041015625</ele>
        <time>2011-04-23T09:12:54Z</time>
      </trkpt>
      <trkpt lat="31.135253990069032" lon="-4.190350351855159">
        <ele>738.91064453125</ele>
        <time>2011-04-23T09:13:03Z</time>
      </trkpt>
      <trkpt lat="31.135441660881042" lon="-4.192291852086783">
        <ele>734.10400390625</ele>
        <time>2011-04-23T09:13:16Z</time>
      </trkpt>
      <trkpt lat="31.135473260655999" lon="-4.192776326090097">
        <ele>733.623291015625</ele>
        <time>2011-04-23T09:13:20Z</time>
      </trkpt>
      <trkpt lat="31.135762184858322" lon="-4.193245796486735">
        <ele>734.10400390625</ele>
        <time>2011-04-23T09:13:27Z</time>
      </trkpt>
      <trkpt lat="31.135982545092702" lon="-4.193342188373208">
        <ele>734.10400390625</ele>
        <time>2011-04-23T09:13:30Z</time>
      </trkpt>
      <trkpt lat="31.136301392689347" lon="-4.193681152537465">
        <ele>732.662109375</ele>
        <time>2011-04-23T09:13:37Z</time>
      </trkpt>
      <trkpt lat="31.136102490127087" lon="-4.193975776433945">
        <ele>732.181396484375</ele>
        <time>2011-04-23T09:13:42Z</time>
      </trkpt>
      <trkpt lat="31.135703176259995" lon="-4.1941905207932">
        <ele>735.0654296875</ele>
        <time>2011-04-23T09:13:48Z</time>
      </trkpt>
      <trkpt lat="31.135557247325778" lon="-4.194663595408201">
        <ele>736.98779296875</ele>
        <time>2011-04-23T09:13:54Z</time>
      </trkpt>
      <trkpt lat="31.135571245104074" lon="-4.195686019957066">
        <ele>737.468505859375</ele>
        <time>2011-04-23T09:14:02Z</time>
      </trkpt>
      <trkpt lat="31.135573340579867" lon="-4.196660751476884">
        <ele>736.50732421875</ele>
        <time>2011-04-23T09:14:09Z</time>
      </trkpt>
      <trkpt lat="31.135443337261677" lon="-4.197727097198367">
        <ele>736.50732421875</ele>
        <time>2011-04-23T09:14:17Z</time>
      </trkpt>
      <trkpt lat="31.135264299809933" lon="-4.199254782870412">
        <ele>735.5458984375</ele>
        <time>2011-04-23T09:14:27Z</time>
      </trkpt>
      <trkpt lat="31.134801618754864" lon="-4.201075248420239">
        <ele>735.0654296875</ele>
        <time>2011-04-23T09:14:38Z</time>
      </trkpt>
      <trkpt lat="31.134121678769588" lon="-4.203715631738305">
        <ele>736.026611328125</ele>
        <time>2011-04-23T09:14:54Z</time>
      </trkpt>
      <trkpt lat="31.133823283016682" lon="-4.205247759819031">
        <ele>735.5458984375</ele>
        <time>2011-04-23T09:15:03Z</time>
      </trkpt>
      <trkpt lat="31.13361943513155" lon="-4.205833990126848">
        <ele>734.584716796875</ele>
        <time>2011-04-23T09:15:08Z</time>
      </trkpt>
      <trkpt lat="31.133525473996997" lon="-4.206107156351209">
        <ele>734.10400390625</ele>
        <time>2011-04-23T09:15:11Z</time>
      </trkpt>
      <trkpt lat="31.133492030203342" lon="-4.206658266484737">
        <ele>734.584716796875</ele>
        <time>2011-04-23T09:15:16Z</time>
      </trkpt>
      <trkpt lat="31.133720688521862" lon="-4.20824303291738">
        <ele>737.468505859375</ele>
        <time>2011-04-23T09:15:28Z</time>
      </trkpt>
      <trkpt lat="31.133769219741225" lon="-4.208488874137402">
        <ele>737.468505859375</ele>
        <time>2011-04-23T09:15:30Z</time>
      </trkpt>
      <trkpt lat="31.133736949414015" lon="-4.209031518548727">
        <ele>737.468505859375</ele>
        <time>2011-04-23T09:15:36Z</time>
      </trkpt>
      <trkpt lat="31.133635863661766" lon="-4.210002897307277">
        <ele>737.94921875</ele>
        <time>2011-04-23T09:15:45Z</time>
      </trkpt>
      <trkpt lat="31.133389854803681" lon="-4.211342744529247">
        <ele>736.98779296875</ele>
        <time>2011-04-23T09:15:55Z</time>
      </trkpt>
      <trkpt lat="31.133313244208694" lon="-4.212154364213347">
        <ele>735.5458984375</ele>
        <time>2011-04-23T09:16:03Z</time>
      </trkpt>
      <trkpt lat="31.133359428495169" lon="-4.212744869291782">
        <ele>738.91064453125</ele>
        <time>2011-04-23T09:16:11Z</time>
      </trkpt>
      <trkpt lat="31.133436793461442" lon="-4.213430173695087">
        <ele>742.755859375</ele>
        <time>2011-04-23T09:16:16Z</time>
      </trkpt>
      <trkpt lat="31.133426148444414" lon="-4.215000439435244">
        <ele>747.08154296875</ele>
        <time>2011-04-23T09:16:27Z</time>
      </trkpt>
      <trkpt lat="31.133533855900168" lon="-4.216079944744706">
        <ele>749.485107421875</ele>
        <time>2011-04-23T09:16:34Z</time>
      </trkpt>
      <trkpt lat="31.133550452068448" lon="-4.217327339574695">
        <ele>750.927001953125</ele>
        <time>2011-04-23T09:16:43Z</time>
      </trkpt>
      <trkpt lat="31.133500328287482" lon="-4.217640068382025">
        <ele>751.40771484375</ele>
        <time>2011-04-23T09:16:46Z</time>
      </trkpt>
      <trkpt lat="31.133148288354278" lon="-4.218602059409022">
        <ele>752.849609375</ele>
        <time>2011-04-23T09:16:55Z</time>
      </trkpt>
      <trkpt lat="31.13307754509151" lon="-4.218888552859426">
        <ele>752.849609375</ele>
        <time>2011-04-23T09:16:59Z</time>
      </trkpt>
      <trkpt lat="31.133192125707865" lon="-4.219284765422344">
        <ele>753.330322265625</ele>
        <time>2011-04-23T09:17:05Z</time>
      </trkpt>
      <trkpt lat="31.133505776524544" lon="-4.219636134803295">
        <ele>751.40771484375</ele>
        <time>2011-04-23T09:17:11Z</time>
      </trkpt>
      <trkpt lat="31.133558163419366" lon="-4.219778627157211">
        <ele>752.368896484375</ele>
        <time>2011-04-23T09:17:13Z</time>
      </trkpt>
      <trkpt lat="31.133837029337883" lon="-4.220180120319128">
        <ele>752.368896484375</ele>
        <time>2011-04-23T09:17:20Z</time>
      </trkpt>
      <trkpt lat="31.134296860545874" lon="-4.22086575999856">
        <ele>752.849609375</ele>
        <time>2011-04-23T09:17:27Z</time>
      </trkpt>
      <trkpt lat="31.135064559057355" lon="-4.221846191212535">
        <ele>752.849609375</ele>
        <time>2011-04-23T09:17:37Z</time>
      </trkpt>
      <trkpt lat="31.135793616995215" lon="-4.222802650183439">
        <ele>752.368896484375</ele>
        <time>2011-04-23T09:17:46Z</time>
      </trkpt>
      <trkpt lat="31.13625219091773" lon="-4.223502622917295">
        <ele>752.368896484375</ele>
        <time>2011-04-23T09:17:54Z</time>
      </trkpt>
      <trkpt lat="31.136486297473311" lon="-4.223900595679879">
        <ele>751.888427734375</ele>
        <time>2011-04-23T09:18:00Z</time>
      </trkpt>
      <trkpt lat="31.136559974402189" lon="-4.224028922617436">
        <ele>752.849609375</ele>
        <time>2011-04-23T09:20:35Z</time>
      </trkpt>
      <trkpt lat="31.136883096769452" lon="-4.224549774080515">
        <ele>752.849609375</ele>
        <time>2011-04-23T09:20:43Z</time>
      </trkpt>
      <trkpt lat="31.137348292395473" lon="-4.225201047956944">
        <ele>751.40771484375</ele>
        <time>2011-04-23T09:20:52Z</time>
      </trkpt>
      <trkpt lat="31.138012390583754" lon="-4.226004621013999">
        <ele>749.485107421875</ele>
        <time>2011-04-23T09:21:03Z</time>
      </trkpt>
      <trkpt lat="31.138457721099257" lon="-4.226579116657376">
        <ele>748.043212890625</ele>
        <time>2011-04-23T09:21:11Z</time>
      </trkpt>
      <trkpt lat="31.139063062146306" lon="-4.227196276187897">
        <ele>746.120361328125</ele>
        <time>2011-04-23T09:21:21Z</time>
      </trkpt>
      <trkpt lat="31.1394346319139" lon="-4.227702459320426">
        <ele>745.158935546875</ele>
        <time>2011-04-23T09:21:30Z</time>
      </trkpt>
      <trkpt lat="31.139833191409707" lon="-4.228450963273644">
        <ele>744.19775390625</ele>
        <time>2011-04-23T09:21:39Z</time>
      </trkpt>
      <trkpt lat="31.140332752838731" lon="-4.229338690638542">
        <ele>744.19775390625</ele>
        <time>2011-04-23T09:21:50Z</time>
      </trkpt>
      <trkpt lat="31.14069233648479" lon="-4.229938248172402">
        <ele>744.19775390625</ele>
        <time>2011-04-23T09:21:59Z</time>
      </trkpt>
      <trkpt lat="31.141079161316156" lon="-4.230724470689893">
        <ele>744.67822265625</ele>
        <time>2011-04-23T09:22:08Z</time>
      </trkpt>
      <trkpt lat="31.14147168584168" lon="-4.231443386524916">
        <ele>744.67822265625</ele>
        <time>2011-04-23T09:22:15Z</time>
      </trkpt>
      <trkpt lat="31.142058670520782" lon="-4.232685584574938">
        <ele>745.158935546875</ele>
        <time>2011-04-23T09:22:27Z</time>
      </trkpt>
      <trkpt lat="31.142155397683382" lon="-4.232903849333525">
        <ele>745.158935546875</ele>
        <time>2011-04-23T09:22:32Z</time>
      </trkpt>
      <trkpt lat="31.142283556982875" lon="-4.233052292838693">
        <ele>745.158935546875</ele>
        <time>2011-04-23T09:22:36Z</time>
      </trkpt>
      <trkpt lat="31.142698293551803" lon="-4.233709517866373">
        <ele>743.717041015625</ele>
        <time>2011-04-23T09:22:44Z</time>
      </trkpt>
      <trkpt lat="31.143199279904366" lon="-4.234494818374515">
        <ele>743.236328125</ele>
        <time>2011-04-23T09:22:53Z</time>
      </trkpt>
      <trkpt lat="31.143773356452584" lon="-4.235276766121388">
        <ele>743.717041015625</ele>
        <time>2011-04-23T09:23:02Z</time>
      </trkpt>
      <trkpt lat="31.14425883628428" lon="-4.235996268689632">
        <ele>743.236328125</ele>
        <time>2011-04-23T09:23:13Z</time>
      </trkpt>
      <trkpt lat="31.14472009241581" lon="-4.23670219257474">
        <ele>743.236328125</ele>
        <time>2011-04-23T09:23:24Z</time>
      </trkpt>
      <trkpt lat="31.145096523687243" lon="-4.237419767305255">
        <ele>743.236328125</ele>
        <time>2011-04-23T09:23:35Z</time>
      </trkpt>
      <trkpt lat="31.145534059032798" lon="-4.238374130800366">
        <ele>743.236328125</ele>
        <time>2011-04-23T09:23:46Z</time>
      </trkpt>
      <trkpt lat="31.145668756216764" lon="-4.238693062216044">
        <ele>743.236328125</ele>
        <time>2011-04-23T09:23:51Z</time>
      </trkpt>
      <trkpt lat="31.145847542211413" lon="-4.238909566774964">
        <ele>743.236328125</ele>
        <time>2011-04-23T09:23:55Z</time>
      </trkpt>
      <trkpt lat="31.146251885220408" lon="-4.23964818008244">
        <ele>742.755859375</ele>
        <time>2011-04-23T09:24:05Z</time>
      </trkpt>
      <trkpt lat="31.146725043654442" lon="-4.240570943802595">
        <ele>741.79443359375</ele>
        <time>2011-04-23T09:24:15Z</time>
      </trkpt>
      <trkpt lat="31.147158052772284" lon="-4.241413827985525">
        <ele>741.313720703125</ele>
        <time>2011-04-23T09:24:24Z</time>
      </trkpt>
      <trkpt lat="31.147598773241043" lon="-4.242070550099015">
        <ele>741.313720703125</ele>
        <time>2011-04-23T09:24:32Z</time>
      </trkpt>
      <trkpt lat="31.147943185642362" lon="-4.242695588618517">
        <ele>741.79443359375</ele>
        <time>2011-04-23T09:24:40Z</time>
      </trkpt>
      <trkpt lat="31.148109650239348" lon="-4.242933886125684">
        <ele>742.275146484375</ele>
        <time>2011-04-23T09:24:46Z</time>
      </trkpt>
      <trkpt lat="31.148508964106441" lon="-4.243558421730995">
        <ele>741.79443359375</ele>
        <time>2011-04-23T09:24:55Z</time>
      </trkpt>
      <trkpt lat="31.148784561082721" lon="-4.244095785543323">
        <ele>740.3525390625</ele>
        <time>2011-04-23T09:25:03Z</time>
      </trkpt>
      <trkpt lat="31.149137774482369" lon="-4.244719482958317">
        <ele>739.871826171875</ele>
        <time>2011-04-23T09:25:14Z</time>
      </trkpt>
      <trkpt lat="31.149246236309409" lon="-4.244962055236101">
        <ele>738.91064453125</ele>
        <time>2011-04-23T09:25:18Z</time>
      </trkpt>
      <trkpt lat="31.149597857147455" lon="-4.245482739061117">
        <ele>737.94921875</ele>
        <time>2011-04-23T09:25:27Z</time>
      </trkpt>
      <trkpt lat="31.149869849905372" lon="-4.245939049869776">
        <ele>737.94921875</ele>
        <time>2011-04-23T09:25:34Z</time>
      </trkpt>
      <trkpt lat="31.150232031941414" lon="-4.246769193559885">
        <ele>738.429931640625</ele>
        <time>2011-04-23T09:25:45Z</time>
      </trkpt>
      <trkpt lat="31.150509640574455" lon="-4.247272443026304">
        <ele>737.468505859375</ele>
        <time>2011-04-23T09:25:51Z</time>
      </trkpt>
      <trkpt lat="31.150757241994143" lon="-4.247542591765523">
        <ele>736.98779296875</ele>
        <time>2011-04-23T09:25:55Z</time>
      </trkpt>
      <trkpt lat="31.151516558602452" lon="-4.248284557834268">
        <ele>735.5458984375</ele>
        <time>2011-04-23T09:26:05Z</time>
      </trkpt>
      <trkpt lat="31.152125420048833" lon="-4.249142780900002">
        <ele>735.0654296875</ele>
        <time>2011-04-23T09:26:14Z</time>
      </trkpt>
      <trkpt lat="31.152557674795389" lon="-4.249975858256221">
        <ele>735.5458984375</ele>
        <time>2011-04-23T09:26:22Z</time>
      </trkpt>
      <trkpt lat="31.153028653934598" lon="-4.250706173479557">
        <ele>734.584716796875</ele>
        <time>2011-04-23T09:26:30Z</time>
      </trkpt>
      <trkpt lat="31.153229484334588" lon="-4.250891581177712">
        <ele>734.584716796875</ele>
        <time>2011-04-23T09:26:33Z</time>
      </trkpt>
      <trkpt lat="31.153659978881478" lon="-4.251443529501557">
        <ele>734.584716796875</ele>
        <time>2011-04-23T09:26:41Z</time>
      </trkpt>
      <trkpt lat="31.154051497578621" lon="-4.252150040119886">
        <ele>735.0654296875</ele>
        <time>2011-04-23T09:26:49Z</time>
      </trkpt>
      <trkpt lat="31.154550556093454" lon="-4.252802990376949">
        <ele>734.584716796875</ele>
        <time>2011-04-23T09:26:58Z</time>
      </trkpt>
      <trkpt lat="31.155104096978903" lon="-4.253350831568241">
        <ele>734.10400390625</ele>
        <time>2011-04-23T09:27:06Z</time>
      </trkpt>
      <trkpt lat="31.155369970947504" lon="-4.253487959504128">
        <ele>734.10400390625</ele>
        <time>2011-04-23T09:27:10Z</time>
      </trkpt>
      <trkpt lat="31.155881937593222" lon="-4.253884172067046">
        <ele>733.623291015625</ele>
        <time>2011-04-23T09:27:18Z</time>
      </trkpt>
      <trkpt lat="31.156098023056984" lon="-4.254174856469035">
        <ele>734.10400390625</ele>
        <time>2011-04-23T09:27:22Z</time>
      </trkpt>
      <trkpt lat="31.156732868403196" lon="-4.25477022305131">
        <ele>734.10400390625</ele>
        <time>2011-04-23T09:27:31Z</time>
      </trkpt>
      <trkpt lat="31.1572006624192" lon="-4.255369864404202">
        <ele>734.10400390625</ele>
        <time>2011-04-23T09:27:39Z</time>
      </trkpt>
      <trkpt lat="31.157691925764084" lon="-4.255881747230887">
        <ele>734.10400390625</ele>
        <time>2011-04-23T09:27:46Z</time>
      </trkpt>
      <trkpt lat="31.158469682559371" lon="-4.256232865154743">
        <ele>734.10400390625</ele>
        <time>2011-04-23T09:27:55Z</time>
      </trkpt>
      <trkpt lat="31.159279374405742" lon="-4.256389690563083">
        <ele>734.584716796875</ele>
        <time>2011-04-23T09:28:04Z</time>
      </trkpt>
      <trkpt lat="31.160146817564964" lon="-4.256632765755057">
        <ele>734.584716796875</ele>
        <time>2011-04-23T09:28:13Z</time>
      </trkpt>
      <trkpt lat="31.161034544929862" lon="-4.256866285577416">
        <ele>735.0654296875</ele>
        <time>2011-04-23T09:28:23Z</time>
      </trkpt>
      <trkpt lat="31.161901568993926" lon="-4.257120173424482">
        <ele>735.5458984375</ele>
        <time>2011-04-23T09:28:33Z</time>
      </trkpt>
      <trkpt lat="31.162980487570167" lon="-4.257370373234153">
        <ele>736.026611328125</ele>
        <time>2011-04-23T09:28:44Z</time>
      </trkpt>
      <trkpt lat="31.163857486099005" lon="-4.257580256089568">
        <ele>736.98779296875</ele>
        <time>2011-04-23T09:28:53Z</time>
      </trkpt>
      <trkpt lat="31.165230358019471" lon="-4.257919974625111">
        <ele>737.94921875</ele>
        <time>2011-04-23T09:29:05Z</time>
      </trkpt>
      <trkpt lat="31.166180446743965" lon="-4.258121056482196">
        <ele>738.429931640625</ele>
        <time>2011-04-23T09:29:14Z</time>
      </trkpt>
      <trkpt lat="31.167442090809345" lon="-4.258376117795706">
        <ele>738.429931640625</ele>
        <time>2011-04-23T09:29:25Z</time>
      </trkpt>
      <trkpt lat="31.169000118970871" lon="-4.25855465233326">
        <ele>739.39111328125</ele>
        <time>2011-04-23T09:29:38Z</time>
      </trkpt>
      <trkpt lat="31.170232091099024" lon="-4.258681386709213">
        <ele>738.91064453125</ele>
        <time>2011-04-23T09:29:49Z</time>
      </trkpt>
      <trkpt lat="31.170435938984156" lon="-4.258676860481501">
        <ele>739.39111328125</ele>
        <time>2011-04-23T09:29:52Z</time>
      </trkpt>
      <trkpt lat="31.171052595600486" lon="-4.258706197142601">
        <ele>739.39111328125</ele>
        <time>2011-04-23T09:30:00Z</time>
      </trkpt>
      <trkpt lat="31.171849127858877" lon="-4.25879898481071">
        <ele>738.91064453125</ele>
        <time>2011-04-23T09:30:09Z</time>
      </trkpt>
      <trkpt lat="31.172262942418456" lon="-4.258870985358954">
        <ele>738.91064453125</ele>
        <time>2011-04-23T09:30:15Z</time>
      </trkpt>
      <trkpt lat="31.172516159713268" lon="-4.258912643417716">
        <ele>738.429931640625</ele>
        <time>2011-04-23T09:30:21Z</time>
      </trkpt>
      <trkpt lat="31.172667872160673" lon="-4.258986236527562">
        <ele>737.94921875</ele>
        <time>2011-04-23T09:30:24Z</time>
      </trkpt>
      <trkpt lat="31.173239685595036" lon="-4.259102074429393">
        <ele>737.94921875</ele>
        <time>2011-04-23T09:30:32Z</time>
      </trkpt>
      <trkpt lat="31.174398399889469" lon="-4.259240040555596">
        <ele>740.3525390625</ele>
        <time>2011-04-23T09:30:44Z</time>
      </trkpt>
      <trkpt lat="31.175101390108466" lon="-4.259434919804335">
        <ele>742.275146484375</ele>
        <time>2011-04-23T09:30:51Z</time>
      </trkpt>
      <trkpt lat="31.175454435870051" lon="-4.259452857077122">
        <ele>742.755859375</ele>
        <time>2011-04-23T09:30:55Z</time>
      </trkpt>
      <trkpt lat="31.176362279802561" lon="-4.259311119094491">
        <ele>743.236328125</ele>
        <time>2011-04-23T09:31:04Z</time>
      </trkpt>
      <trkpt lat="31.17744404822588" lon="-4.2590222787112">
        <ele>743.717041015625</ele>
        <time>2011-04-23T09:31:14Z</time>
      </trkpt>
      <trkpt lat="31.178435292094946" lon="-4.258713992312551">
        <ele>744.19775390625</ele>
        <time>2011-04-23T09:31:24Z</time>
      </trkpt>
      <trkpt lat="31.17964874021709" lon="-4.25835139118135">
        <ele>744.67822265625</ele>
        <time>2011-04-23T09:31:37Z</time>
      </trkpt>
      <trkpt lat="31.180477291345596" lon="-4.258204624056816">
        <ele>745.6396484375</ele>
        <time>2011-04-23T09:31:47Z</time>
      </trkpt>
      <trkpt lat="31.181166619062424" lon="-4.258046038448811">
        <ele>745.6396484375</ele>
        <time>2011-04-23T09:31:55Z</time>
      </trkpt>
      <trkpt lat="31.181848486885428" lon="-4.257807238027453">
        <ele>746.120361328125</ele>
        <time>2011-04-23T09:32:03Z</time>
      </trkpt>
      <trkpt lat="31.18241242133081" lon="-4.25757983699441">
        <ele>746.120361328125</ele>
        <time>2011-04-23T09:32:11Z</time>
      </trkpt>
      <trkpt lat="31.183054894208908" lon="-4.257324859499931">
        <ele>746.120361328125</ele>
        <time>2011-04-23T09:32:20Z</time>
      </trkpt>
      <trkpt lat="31.183369383215904" lon="-4.257172225043178">
        <ele>746.120361328125</ele>
        <time>2011-04-23T09:32:24Z</time>
      </trkpt>
      <trkpt lat="31.183939436450601" lon="-4.25718261860311">
        <ele>746.120361328125</ele>
        <time>2011-04-23T09:32:30Z</time>
      </trkpt>
      <trkpt lat="31.184754325076938" lon="-4.257484450936317">
        <ele>746.60107421875</ele>
        <time>2011-04-23T09:32:40Z</time>
      </trkpt>
      <trkpt lat="31.185597963631153" lon="-4.25762384198606">
        <ele>747.08154296875</ele>
        <time>2011-04-23T09:32:51Z</time>
      </trkpt>
      <trkpt lat="31.186466831713915" lon="-4.257641863077879">
        <ele>747.08154296875</ele>
        <time>2011-04-23T09:33:02Z</time>
      </trkpt>
      <trkpt lat="31.18710377253592" lon="-4.257592326030135">
        <ele>747.562255859375</ele>
        <time>2011-04-23T09:33:10Z</time>
      </trkpt>
      <trkpt lat="31.187388841062784" lon="-4.257530635222793">
        <ele>747.562255859375</ele>
        <time>2011-04-23T09:33:14Z</time>
      </trkpt>
      <trkpt lat="31.188180344179273" lon="-4.257270796224475">
        <ele>748.043212890625</ele>
        <time>2011-04-23T09:33:24Z</time>
      </trkpt>
      <trkpt lat="31.188523666933179" lon="-4.256948595866561">
        <ele>748.523681640625</ele>
        <time>2011-04-23T09:33:29Z</time>
      </trkpt>
      <trkpt lat="31.189152561128139" lon="-4.256207132712007">
        <ele>749.00439453125</ele>
        <time>2011-04-23T09:33:39Z</time>
      </trkpt>
      <trkpt lat="31.189715322107077" lon="-4.255858780816197">
        <ele>749.00439453125</ele>
        <time>2011-04-23T09:33:47Z</time>
      </trkpt>
      <trkpt lat="31.191085679456592" lon="-4.255061326548457">
        <ele>749.485107421875</ele>
        <time>2011-04-23T09:34:05Z</time>
      </trkpt>
      <trkpt lat="31.192019339650869" lon="-4.254568051546812">
        <ele>749.485107421875</ele>
        <time>2011-04-23T09:34:16Z</time>
      </trkpt>
      <trkpt lat="31.1932766251266" lon="-4.253850895911455">
        <ele>749.9658203125</ele>
        <time>2011-04-23T09:34:31Z</time>
      </trkpt>
      <trkpt lat="31.194093860685825" lon="-4.253315962851048">
        <ele>749.9658203125</ele>
        <time>2011-04-23T09:34:41Z</time>
      </trkpt>
      <trkpt lat="31.194970859214664" lon="-4.252771474421024">
        <ele>749.9658203125</ele>
        <time>2011-04-23T09:34:53Z</time>
      </trkpt>
      <trkpt lat="31.19566697627306" lon="-4.252457320690155">
        <ele>750.446533203125</ele>
        <time>2011-04-23T09:35:03Z</time>
      </trkpt>
      <trkpt lat="31.195962773635983" lon="-4.252314493060112">
        <ele>749.9658203125</ele>
        <time>2011-04-23T09:35:08Z</time>
      </trkpt>
      <trkpt lat="31.196116749197245" lon="-4.252270823344588">
        <ele>748.523681640625</ele>
        <time>2011-04-23T09:35:11Z</time>
      </trkpt>
      <trkpt lat="31.196351274847984" lon="-4.252375932410359">
        <ele>746.60107421875</ele>
        <time>2011-04-23T09:35:16Z</time>
      </trkpt>
      <trkpt lat="31.196580855175853" lon="-4.252608781680465">
        <ele>746.120361328125</ele>
        <time>2011-04-23T09:35:21Z</time>
      </trkpt>
      <trkpt lat="31.19689735583961" lon="-4.25264029763639">
        <ele>747.562255859375</ele>
        <time>2011-04-23T09:35:28Z</time>
      </trkpt>
      <trkpt lat="31.197015959769487" lon="-4.252433851361275">
        <ele>749.485107421875</ele>
        <time>2011-04-23T09:35:34Z</time>
      </trkpt>
      <trkpt lat="31.197047056630254" lon="-4.252259340137243">
        <ele>749.9658203125</ele>
        <time>2011-04-23T09:35:37Z</time>
      </trkpt>
      <trkpt lat="31.197305973619223" lon="-4.252007799223065">
        <ele>749.9658203125</ele>
        <time>2011-04-23T09:35:43Z</time>
      </trkpt>
      <trkpt lat="31.19783109985292" lon="-4.25192984752357">
        <ele>749.9658203125</ele>
        <time>2011-04-23T09:35:52Z</time>
      </trkpt>
      <trkpt lat="31.198445493355393" lon="-4.251936050131917">
        <ele>749.9658203125</ele>
        <time>2011-04-23T09:36:02Z</time>
      </trkpt>
      <trkpt lat="31.198899541050196" lon="-4.251944432035089">
        <ele>750.446533203125</ele>
        <time>2011-04-23T09:36:08Z</time>
      </trkpt>
      <trkpt lat="31.19940496981144" lon="-4.251889698207378">
        <ele>750.446533203125</ele>
        <time>2011-04-23T09:36:15Z</time>
      </trkpt>
      <trkpt lat="31.199660617858171" lon="-4.251790875568986">
        <ele>749.485107421875</ele>
        <time>2011-04-23T09:36:19Z</time>
      </trkpt>
      <trkpt lat="31.200377773493528" lon="-4.251221157610416">
        <ele>748.523681640625</ele>
        <time>2011-04-23T09:36:30Z</time>
      </trkpt>
      <trkpt lat="31.201612930744886" lon="-4.250296298414469">
        <ele>747.562255859375</ele>
        <time>2011-04-23T09:36:45Z</time>
      </trkpt>
      <trkpt lat="31.202462268993258" lon="-4.249655082821846">
        <ele>747.562255859375</ele>
        <time>2011-04-23T09:36:55Z</time>
      </trkpt>
      <trkpt lat="31.203397521749139" lon="-4.24894186668098">
        <ele>748.043212890625</ele>
        <time>2011-04-23T09:37:07Z</time>
      </trkpt>
      <trkpt lat="31.204520193859935" lon="-4.247991442680359">
        <ele>748.043212890625</ele>
        <time>2011-04-23T09:37:21Z</time>
      </trkpt>
      <trkpt lat="31.204777183011174" lon="-4.247757252305746">
        <ele>748.043212890625</ele>
        <time>2011-04-23T09:37:25Z</time>
      </trkpt>
      <trkpt lat="31.205263584852219" lon="-4.247249644249678">
        <ele>749.00439453125</ele>
        <time>2011-04-23T09:37:33Z</time>
      </trkpt>
      <trkpt lat="31.205863896757364" lon="-4.246707418933511">
        <ele>748.523681640625</ele>
        <time>2011-04-23T09:37:42Z</time>
      </trkpt>
      <trkpt lat="31.206519361585379" lon="-4.246129067614675">
        <ele>748.043212890625</ele>
        <time>2011-04-23T09:37:52Z</time>
      </trkpt>
      <trkpt lat="31.206812560558319" lon="-4.246021192520857">
        <ele>748.043212890625</ele>
        <time>2011-04-23T09:37:56Z</time>
      </trkpt>
      <trkpt lat="31.207363251596689" lon="-4.245920274406672">
        <ele>748.523681640625</ele>
        <time>2011-04-23T09:38:05Z</time>
      </trkpt>
      <trkpt lat="31.207598280161619" lon="-4.2458859924227">
        <ele>748.523681640625</ele>
        <time>2011-04-23T09:38:10Z</time>
      </trkpt>
      <trkpt lat="31.207998432219028" lon="-4.245946928858757">
        <ele>749.9658203125</ele>
        <time>2011-04-23T09:38:17Z</time>
      </trkpt>
      <trkpt lat="31.208280986174941" lon="-4.246008368209004">
        <ele>751.40771484375</ele>
        <time>2011-04-23T09:38:22Z</time>
      </trkpt>
      <trkpt lat="31.208653729408979" lon="-4.246218921616674">
        <ele>753.330322265625</ele>
        <time>2011-04-23T09:38:29Z</time>
      </trkpt>
      <trkpt lat="31.209244234487414" lon="-4.246311038732529">
        <ele>753.81103515625</ele>
        <time>2011-04-23T09:38:38Z</time>
      </trkpt>
      <trkpt lat="31.209998773410916" lon="-4.246355798095465">
        <ele>753.330322265625</ele>
        <time>2011-04-23T09:38:47Z</time>
      </trkpt>
      <trkpt lat="31.211231332272291" lon="-4.246446155011654">
        <ele>752.849609375</ele>
        <time>2011-04-23T09:39:01Z</time>
      </trkpt>
      <trkpt lat="31.212379150092602" lon="-4.24631305038929">
        <ele>751.888427734375</ele>
        <time>2011-04-23T09:39:14Z</time>
      </trkpt>
      <trkpt lat="31.213444825261831" lon="-4.246177263557911">
        <ele>751.888427734375</ele>
        <time>2011-04-23T09:39:27Z</time>
      </trkpt>
      <trkpt lat="31.214085789397359" lon="-4.246084056794643">
        <ele>751.40771484375</ele>
        <time>2011-04-23T09:39:36Z</time>
      </trkpt>
      <trkpt lat="31.21483932249248" lon="-4.245984395965934">
        <ele>751.40771484375</ele>
        <time>2011-04-23T09:39:45Z</time>
      </trkpt>
      <trkpt lat="31.215012744069099" lon="-4.245945923030376">
        <ele>751.40771484375</ele>
        <time>2011-04-23T09:39:47Z</time>
      </trkpt>
      <trkpt lat="31.215892760083079" lon="-4.245917676016688">
        <ele>751.40771484375</ele>
        <time>2011-04-23T09:39:58Z</time>
      </trkpt>
      <trkpt lat="31.216525174677372" lon="-4.245885321870446">
        <ele>751.40771484375</ele>
        <time>2011-04-23T09:40:06Z</time>
      </trkpt>
      <trkpt lat="31.217419439926744" lon="-4.245906360447407">
        <ele>751.888427734375</ele>
        <time>2011-04-23T09:40:16Z</time>
      </trkpt>
      <trkpt lat="31.218186551705003" lon="-4.245911976322532">
        <ele>752.849609375</ele>
        <time>2011-04-23T09:40:25Z</time>
      </trkpt>
      <trkpt lat="31.218865234404802" lon="-4.245882639661431">
        <ele>753.81103515625</ele>
        <time>2011-04-23T09:40:34Z</time>
      </trkpt>
      <trkpt lat="31.219653384760022" lon="-4.245981546118856">
        <ele>755.733642578125</ele>
        <time>2011-04-23T09:40:43Z</time>
      </trkpt>
      <trkpt lat="31.22073414735496" lon="-4.246227387338877">
        <ele>759.09814453125</ele>
        <time>2011-04-23T09:40:55Z</time>
      </trkpt>
      <trkpt lat="31.22140059247613" lon="-4.246365772560239">
        <ele>759.09814453125</ele>
        <time>2011-04-23T09:41:04Z</time>
      </trkpt>
      <trkpt lat="31.222034767270088" lon="-4.246543133631349">
        <ele>759.578857421875</ele>
        <time>2011-04-23T09:41:12Z</time>
      </trkpt>
      <trkpt lat="31.222307598218322" lon="-4.246660983189941">
        <ele>759.578857421875</ele>
        <time>2011-04-23T09:41:16Z</time>
      </trkpt>
      <trkpt lat="31.223023748025298" lon="-4.246992655098438">
        <ele>759.578857421875</ele>
        <time>2011-04-23T09:41:26Z</time>
      </trkpt>
      <trkpt lat="31.22368399053812" lon="-4.247238747775555">
        <ele>759.578857421875</ele>
        <time>2011-04-23T09:41:35Z</time>
      </trkpt>
      <trkpt lat="31.22451807372272" lon="-4.247536221519113">
        <ele>759.578857421875</ele>
        <time>2011-04-23T09:41:45Z</time>
      </trkpt>
      <trkpt lat="31.225502025336027" lon="-4.247797233983874">
        <ele>759.578857421875</ele>
        <time>2011-04-23T09:41:56Z</time>
      </trkpt>
      <trkpt lat="31.226375922560692" lon="-4.248020779341459">
        <ele>759.578857421875</ele>
        <time>2011-04-23T09:42:06Z</time>
      </trkpt>
      <trkpt lat="31.226878333836794" lon="-4.248138545081019">
        <ele>759.578857421875</ele>
        <time>2011-04-23T09:42:14Z</time>
      </trkpt>
      <trkpt lat="31.227043373510242" lon="-4.248289586976171">
        <ele>760.059326171875</ele>
        <time>2011-04-23T09:42:21Z</time>
      </trkpt>
      <trkpt lat="31.226991657167673" lon="-4.248412465676665">
        <ele>760.059326171875</ele>
        <time>2011-04-23T09:42:25Z</time>
      </trkpt>
      <trkpt lat="31.226642886176705" lon="-4.249044544994831">
        <ele>759.09814453125</ele>
        <time>2011-04-23T09:42:33Z</time>
      </trkpt>
      <trkpt lat="31.226131338626146" lon="-4.249991364777088">
        <ele>757.65625</ele>
        <time>2011-04-23T09:42:41Z</time>
      </trkpt>
      <trkpt lat="31.226020026952028" lon="-4.250232176855207">
        <ele>757.65625</ele>
        <time>2011-04-23T09:42:43Z</time>
      </trkpt>
      <trkpt lat="31.225927239283919" lon="-4.250726290047169">
        <ele>758.136962890625</ele>
        <time>2011-04-23T09:42:47Z</time>
      </trkpt>
      <trkpt lat="31.22601524926722" lon="-4.25202464684844">
        <ele>759.578857421875</ele>
        <time>2011-04-23T09:42:56Z</time>
      </trkpt>
      <trkpt lat="31.225930089130998" lon="-4.253538586199284">
        <ele>761.020751953125</ele>
        <time>2011-04-23T09:43:05Z</time>
      </trkpt>
      <trkpt lat="31.225618030875921" lon="-4.255156796425581">
        <ele>760.059326171875</ele>
        <time>2011-04-23T09:43:15Z</time>
      </trkpt>
      <trkpt lat="31.22497589327395" lon="-4.25686108879745">
        <ele>757.65625</ele>
        <time>2011-04-23T09:43:26Z</time>
      </trkpt>
      <trkpt lat="31.22405874542892" lon="-4.258353235200048">
        <ele>757.175537109375</ele>
        <time>2011-04-23T09:43:37Z</time>
      </trkpt>
      <trkpt lat="31.223466731607914" lon="-4.259800957515836">
        <ele>756.69482421875</ele>
        <time>2011-04-23T09:43:47Z</time>
      </trkpt>
      <trkpt lat="31.223259279504418" lon="-4.260815586894751">
        <ele>755.733642578125</ele>
        <time>2011-04-23T09:43:54Z</time>
      </trkpt>
      <trkpt lat="31.223080158233643" lon="-4.262513592839241">
        <ele>755.2529296875</ele>
        <time>2011-04-23T09:44:06Z</time>
      </trkpt>
      <trkpt lat="31.222713030874729" lon="-4.26410598680377">
        <ele>753.81103515625</ele>
        <time>2011-04-23T09:44:17Z</time>
      </trkpt>
      <trkpt lat="31.222572047263384" lon="-4.265238298103213">
        <ele>753.81103515625</ele>
        <time>2011-04-23T09:44:25Z</time>
      </trkpt>
      <trkpt lat="31.222563581541181" lon="-4.266391228884459">
        <ele>753.330322265625</ele>
        <time>2011-04-23T09:44:33Z</time>
      </trkpt>
      <trkpt lat="31.222675060853362" lon="-4.267512056976557">
        <ele>754.291748046875</ele>
        <time>2011-04-23T09:44:41Z</time>
      </trkpt>
      <trkpt lat="31.222522174939513" lon="-4.268281431868672">
        <ele>751.888427734375</ele>
        <time>2011-04-23T09:44:48Z</time>
      </trkpt>
      <trkpt lat="31.222257725894451" lon="-4.269326571375132">
        <ele>745.158935546875</ele>
        <time>2011-04-23T09:44:56Z</time>
      </trkpt>
      <trkpt lat="31.222162423655391" lon="-4.269849099218845">
        <ele>746.60107421875</ele>
        <time>2011-04-23T09:45:00Z</time>
      </trkpt>
      <trkpt lat="31.222297456115484" lon="-4.270356623455882">
        <ele>751.40771484375</ele>
        <time>2011-04-23T09:45:05Z</time>
      </trkpt>
      <trkpt lat="31.223085774108768" lon="-4.271178049966693">
        <ele>754.291748046875</ele>
        <time>2011-04-23T09:45:15Z</time>
      </trkpt>
      <trkpt lat="31.223265649750829" lon="-4.271391956135631">
        <ele>754.772216796875</ele>
        <time>2011-04-23T09:45:17Z</time>
      </trkpt>
      <trkpt lat="31.223495230078697" lon="-4.271884225308895">
        <ele>756.214111328125</ele>
        <time>2011-04-23T09:45:21Z</time>
      </trkpt>
      <trkpt lat="31.223732018843293" lon="-4.273189622908831">
        <ele>758.617431640625</ele>
        <time>2011-04-23T09:45:30Z</time>
      </trkpt>
      <trkpt lat="31.223995042964816" lon="-4.274212885648012">
        <ele>759.09814453125</ele>
        <time>2011-04-23T09:45:38Z</time>
      </trkpt>
      <trkpt lat="31.22421364299953" lon="-4.274638770148158">
        <ele>759.578857421875</ele>
        <time>2011-04-23T09:45:42Z</time>
      </trkpt>
      <trkpt lat="31.224565682932734" lon="-4.27491445094347">
        <ele>760.059326171875</ele>
        <time>2011-04-23T09:45:47Z</time>
      </trkpt>
      <trkpt lat="31.224664589390159" lon="-4.274905230849981">
        <ele>760.059326171875</ele>
        <time>2011-04-23T09:45:48Z</time>
      </trkpt>
      <trkpt lat="31.22568684630096" lon="-4.27471898496151">
        <ele>760.5400390625</ele>
        <time>2011-04-23T09:45:57Z</time>
      </trkpt>
      <trkpt lat="31.225932016968727" lon="-4.274657880887389">
        <ele>761.020751953125</ele>
        <time>2011-04-23T09:46:00Z</time>
      </trkpt>
      <trkpt lat="31.226160675287247" lon="-4.274488398805261">
        <ele>761.982177734375</ele>
        <time>2011-04-23T09:46:04Z</time>
      </trkpt>
      <trkpt lat="31.226309956982732" lon="-4.274289747700095">
        <ele>762.462646484375</ele>
        <time>2011-04-23T09:46:07Z</time>
      </trkpt>
      <trkpt lat="31.226691249758005" lon="-4.274203246459365">
        <ele>762.943359375</ele>
        <time>2011-04-23T09:46:13Z</time>
      </trkpt>
      <trkpt lat="31.227324083447456" lon="-4.274507341906428">
        <ele>762.943359375</ele>
        <time>2011-04-23T09:46:21Z</time>
      </trkpt>
      <trkpt lat="31.227552657946944" lon="-4.274569367989898">
        <ele>761.020751953125</ele>
        <time>2011-04-23T09:46:26Z</time>
      </trkpt>
      <trkpt lat="31.228032354265451" lon="-4.274646481499076">
        <ele>763.424072265625</ele>
        <time>2011-04-23T09:46:34Z</time>
      </trkpt>
      <trkpt lat="31.228979928418994" lon="-4.274602057412267">
        <ele>763.904541015625</ele>
        <time>2011-04-23T09:46:43Z</time>
      </trkpt>
      <trkpt lat="31.230240147560835" lon="-4.274341631680727">
        <ele>764.385498046875</ele>
        <time>2011-04-23T09:46:54Z</time>
      </trkpt>
      <trkpt lat="31.231583599001169" lon="-4.27390594035387">
        <ele>764.385498046875</ele>
        <time>2011-04-23T09:47:06Z</time>
      </trkpt>
      <trkpt lat="31.232007890939713" lon="-4.273755233734846">
        <ele>764.8662109375</ele>
        <time>2011-04-23T09:47:11Z</time>
      </trkpt>
      <trkpt lat="31.23257459141314" lon="-4.273622799664736">
        <ele>764.8662109375</ele>
        <time>2011-04-23T09:47:20Z</time>
      </trkpt>
      <trkpt lat="31.233535828068852" lon="-4.273444516584277">
        <ele>764.385498046875</ele>
        <time>2011-04-23T09:47:29Z</time>
      </trkpt>
      <trkpt lat="31.234780792146921" lon="-4.273278135806322">
        <ele>763.904541015625</ele>
        <time>2011-04-23T09:47:38Z</time>
      </trkpt>
      <trkpt lat="31.235405998304486" lon="-4.273295067250729">
        <ele>763.904541015625</ele>
        <time>2011-04-23T09:47:44Z</time>
      </trkpt>
      <trkpt lat="31.236121645197272" lon="-4.273332953453064">
        <ele>764.385498046875</ele>
        <time>2011-04-23T09:47:52Z</time>
      </trkpt>
      <trkpt lat="31.237120432779193" lon="-4.273305628448725">
        <ele>764.8662109375</ele>
        <time>2011-04-23T09:48:02Z</time>
      </trkpt>
      <trkpt lat="31.237976225093007" lon="-4.273340497165918">
        <ele>764.385498046875</ele>
        <time>2011-04-23T09:48:11Z</time>
      </trkpt>
      <trkpt lat="31.238685250282288" lon="-4.273238824680448">
        <ele>764.8662109375</ele>
        <time>2011-04-23T09:48:19Z</time>
      </trkpt>
      <trkpt lat="31.239623352885246" lon="-4.273120388388634">
        <ele>764.385498046875</ele>
        <time>2011-04-23T09:48:31Z</time>
      </trkpt>
      <trkpt lat="31.239774478599429" lon="-4.273103456944227">
        <ele>764.8662109375</ele>
        <time>2011-04-23T09:48:33Z</time>
      </trkpt>
      <trkpt lat="31.24029834754765" lon="-4.273163052275777">
        <ele>763.904541015625</ele>
        <time>2011-04-23T09:48:40Z</time>
      </trkpt>
      <trkpt lat="31.240700930356979" lon="-4.273376371711493">
        <ele>763.904541015625</ele>
        <time>2011-04-23T09:48:45Z</time>
      </trkpt>
      <trkpt lat="31.241567451506853" lon="-4.274154044687748">
        <ele>764.8662109375</ele>
        <time>2011-04-23T09:48:55Z</time>
      </trkpt>
      <trkpt lat="31.242756173014641" lon="-4.274918222799897">
        <ele>765.346923828125</ele>
        <time>2011-04-23T09:49:06Z</time>
      </trkpt>
      <trkpt lat="31.244052182883024" lon="-4.275805950164795">
        <ele>765.82763671875</ele>
        <time>2011-04-23T09:49:17Z</time>
      </trkpt>
      <trkpt lat="31.244866820052266" lon="-4.276485051959753">
        <ele>766.30810546875</ele>
        <time>2011-04-23T09:49:25Z</time>
      </trkpt>
      <trkpt lat="31.245078379288316" lon="-4.276679679751396">
        <ele>766.30810546875</ele>
        <time>2011-04-23T09:49:30Z</time>
      </trkpt>
      <trkpt lat="31.245160354301333" lon="-4.276759475469589">
        <ele>766.788818359375</ele>
        <time>2011-04-23T09:49:33Z</time>
      </trkpt>
      <trkpt lat="31.245247693732381" lon="-4.276890316978097">
        <ele>766.788818359375</ele>
        <time>2011-04-23T09:49:36Z</time>
      </trkpt>
      <trkpt lat="31.245705597102642" lon="-4.277330618351698">
        <ele>766.788818359375</ele>
        <time>2011-04-23T09:49:43Z</time>
      </trkpt>
      <trkpt lat="31.246396517381072" lon="-4.277954818680883">
        <ele>767.75</ele>
        <time>2011-04-23T09:49:50Z</time>
      </trkpt>
      <trkpt lat="31.247630417346954" lon="-4.27908587269485">
        <ele>768.71142578125</ele>
        <time>2011-04-23T09:50:00Z</time>
      </trkpt>
      <trkpt lat="31.248908489942551" lon="-4.280249448493123">
        <ele>770.1533203125</ele>
        <time>2011-04-23T09:50:10Z</time>
      </trkpt>
      <trkpt lat="31.249201018363237" lon="-4.280498139560223">
        <ele>770.1533203125</ele>
        <time>2011-04-23T09:50:13Z</time>
      </trkpt>
      <trkpt lat="31.249682223424315" lon="-4.280648846179247">
        <ele>769.6728515625</ele>
        <time>2011-04-23T09:50:19Z</time>
      </trkpt>
      <trkpt lat="31.249900069087744" lon="-4.280818579718471">
        <ele>769.6728515625</ele>
        <time>2011-04-23T09:50:22Z</time>
      </trkpt>
      <trkpt lat="31.25056148506701" lon="-4.281534478068352">
        <ele>770.634033203125</ele>
        <time>2011-04-23T09:50:30Z</time>
      </trkpt>
      <trkpt lat="31.251512328162789" lon="-4.282166054472327">
        <ele>770.634033203125</ele>
        <time>2011-04-23T09:50:38Z</time>
      </trkpt>
      <trkpt lat="31.252663750201464" lon="-4.283084543421865">
        <ele>771.11474609375</ele>
        <time>2011-04-23T09:50:47Z</time>
      </trkpt>
      <trkpt lat="31.253533037379384" lon="-4.284024490043521">
        <ele>771.11474609375</ele>
        <time>2011-04-23T09:50:55Z</time>
      </trkpt>
      <trkpt lat="31.25434398651123" lon="-4.284950355067849">
        <ele>772.075927734375</ele>
        <time>2011-04-23T09:51:04Z</time>
      </trkpt>
      <trkpt lat="31.254926193505526" lon="-4.285384118556976">
        <ele>771.59521484375</ele>
        <time>2011-04-23T09:51:11Z</time>
      </trkpt>
      <trkpt lat="31.255333134904504" lon="-4.28535939194262">
        <ele>770.634033203125</ele>
        <time>2011-04-23T09:51:16Z</time>
      </trkpt>
      <trkpt lat="31.255477136000991" lon="-4.285261323675513">
        <ele>770.1533203125</ele>
        <time>2011-04-23T09:51:18Z</time>
      </trkpt>
      <trkpt lat="31.256146347150207" lon="-4.285138193517923">
        <ele>770.1533203125</ele>
        <time>2011-04-23T09:51:26Z</time>
      </trkpt>
      <trkpt lat="31.256497716531157" lon="-4.285306083038449">
        <ele>769.6728515625</ele>
        <time>2011-04-23T09:51:31Z</time>
      </trkpt>
      <trkpt lat="31.256556054577231" lon="-4.285494089126587">
        <ele>769.192138671875</ele>
        <time>2011-04-23T09:51:33Z</time>
      </trkpt>
      <trkpt lat="31.256770044565201" lon="-4.286413080990315">
        <ele>769.6728515625</ele>
        <time>2011-04-23T09:51:43Z</time>
      </trkpt>
      <trkpt lat="31.25684967264533" lon="-4.286673255264759">
        <ele>770.1533203125</ele>
        <time>2011-04-23T09:51:47Z</time>
      </trkpt>
      <trkpt lat="31.256955452263355" lon="-4.286953965201974">
        <ele>769.6728515625</ele>
        <time>2011-04-23T09:51:52Z</time>
      </trkpt>
      <trkpt lat="31.257434645667672" lon="-4.287554193288088">
        <ele>768.71142578125</ele>
        <time>2011-04-23T09:51:59Z</time>
      </trkpt>
      <trkpt lat="31.258584056049585" lon="-4.288583239540458">
        <ele>767.26953125</ele>
        <time>2011-04-23T09:52:11Z</time>
      </trkpt>
      <trkpt lat="31.25876359641552" lon="-4.28874802775681">
        <ele>766.788818359375</ele>
        <time>2011-04-23T09:52:13Z</time>
      </trkpt>
      <trkpt lat="31.259175064042211" lon="-4.288793373852968">
        <ele>766.788818359375</ele>
        <time>2011-04-23T09:52:18Z</time>
      </trkpt>
      <trkpt lat="31.25932652503252" lon="-4.288650881499052">
        <ele>764.8662109375</ele>
        <time>2011-04-23T09:52:20Z</time>
      </trkpt>
      <trkpt lat="31.260139234364033" lon="-4.287862479686737">
        <ele>764.8662109375</ele>
        <time>2011-04-23T09:52:31Z</time>
      </trkpt>
      <trkpt lat="31.261180182918906" lon="-4.287257390096784">
        <ele>766.30810546875</ele>
        <time>2011-04-23T09:52:41Z</time>
      </trkpt>
      <trkpt lat="31.262237476184964" lon="-4.286662945523858">
        <ele>767.26953125</ele>
        <time>2011-04-23T09:52:52Z</time>
      </trkpt>
      <trkpt lat="31.263703722506762" lon="-4.285874292254448">
        <ele>767.26953125</ele>
        <time>2011-04-23T09:53:06Z</time>
      </trkpt>
      <trkpt lat="31.264804266393185" lon="-4.285233998671174">
        <ele>766.788818359375</ele>
        <time>2011-04-23T09:53:15Z</time>
      </trkpt>
      <trkpt lat="31.266932683065534" lon="-4.28400294855237">
        <ele>766.788818359375</ele>
        <time>2011-04-23T09:53:31Z</time>
      </trkpt>
      <trkpt lat="31.268625156953931" lon="-4.283005334436894">
        <ele>769.192138671875</ele>
        <time>2011-04-23T09:53:44Z</time>
      </trkpt>
      <trkpt lat="31.268732948228717" lon="-4.282947080209851">
        <ele>769.192138671875</ele>
        <time>2011-04-23T09:53:45Z</time>
      </trkpt>
      <trkpt lat="31.269182050600648" lon="-4.282855466008186">
        <ele>769.6728515625</ele>
        <time>2011-04-23T09:53:49Z</time>
      </trkpt>
      <trkpt lat="31.270482586696744" lon="-4.282943140715361">
        <ele>770.634033203125</ele>
        <time>2011-04-23T09:53:59Z</time>
      </trkpt>
      <trkpt lat="31.271936427801847" lon="-4.283062750473619">
        <ele>771.59521484375</ele>
        <time>2011-04-23T09:54:10Z</time>
      </trkpt>
      <trkpt lat="31.272931275889277" lon="-4.283510176464915">
        <ele>771.59521484375</ele>
        <time>2011-04-23T09:54:18Z</time>
      </trkpt>
      <trkpt lat="31.273576682433486" lon="-4.283936563879252">
        <ele>771.11474609375</ele>
        <time>2011-04-23T09:54:25Z</time>
      </trkpt>
      <trkpt lat="31.274135671555996" lon="-4.284266140311956">
        <ele>771.59521484375</ele>
        <time>2011-04-23T09:54:33Z</time>
      </trkpt>
      <trkpt lat="31.275146780535579" lon="-4.284812388941646">
        <ele>771.59521484375</ele>
        <time>2011-04-23T09:54:44Z</time>
      </trkpt>
      <trkpt lat="31.276190830394626" lon="-4.285357799381018">
        <ele>771.59521484375</ele>
        <time>2011-04-23T09:54:54Z</time>
      </trkpt>
      <trkpt lat="31.27711895853281" lon="-4.28584118373692">
        <ele>770.634033203125</ele>
        <time>2011-04-23T09:55:03Z</time>
      </trkpt>
      <trkpt lat="31.277496479451656" lon="-4.28599557839334">
        <ele>770.634033203125</ele>
        <time>2011-04-23T09:55:07Z</time>
      </trkpt>
      <trkpt lat="31.27772924490273" lon="-4.285843446850777">
        <ele>769.192138671875</ele>
        <time>2011-04-23T09:55:12Z</time>
      </trkpt>
      <trkpt lat="31.277736118063331" lon="-4.284816579893231">
        <ele>768.71142578125</ele>
        <time>2011-04-23T09:55:23Z</time>
      </trkpt>
      <trkpt lat="31.277771992608905" lon="-4.283435996621847">
        <ele>763.904541015625</ele>
        <time>2011-04-23T09:55:34Z</time>
      </trkpt>
      <trkpt lat="31.277822032570839" lon="-4.28184712305665">
        <ele>758.617431640625</ele>
        <time>2011-04-23T09:55:46Z</time>
      </trkpt>
      <trkpt lat="31.277996292337775" lon="-4.280041661113501">
        <ele>755.733642578125</ele>
        <time>2011-04-23T09:56:00Z</time>
      </trkpt>
      <trkpt lat="31.278137359768152" lon="-4.278789488598704">
        <ele>756.69482421875</ele>
        <time>2011-04-23T09:56:10Z</time>
      </trkpt>
      <trkpt lat="31.278361072763801" lon="-4.277345957234502">
        <ele>754.291748046875</ele>
        <time>2011-04-23T09:56:20Z</time>
      </trkpt>
      <trkpt lat="31.278593335300684" lon="-4.276702729985118">
        <ele>754.291748046875</ele>
        <time>2011-04-23T09:56:26Z</time>
      </trkpt>
      <trkpt lat="31.278977394104004" lon="-4.275923548266292">
        <ele>755.2529296875</ele>
        <time>2011-04-23T09:56:37Z</time>
      </trkpt>
      <trkpt lat="31.279421132057905" lon="-4.275052919983864">
        <ele>754.291748046875</ele>
        <time>2011-04-23T09:56:48Z</time>
      </trkpt>
      <trkpt lat="31.279826229438186" lon="-4.274226883426309">
        <ele>753.81103515625</ele>
        <time>2011-04-23T09:56:59Z</time>
      </trkpt>
      <trkpt lat="31.280200146138668" lon="-4.27346614189446">
        <ele>754.291748046875</ele>
        <time>2011-04-23T09:57:10Z</time>
      </trkpt>
      <trkpt lat="31.280642040073872" lon="-4.272601380944252">
        <ele>755.2529296875</ele>
        <time>2011-04-23T09:57:23Z</time>
      </trkpt>
      <trkpt lat="31.281128274276853" lon="-4.271929822862148">
        <ele>755.733642578125</ele>
        <time>2011-04-23T09:57:34Z</time>
      </trkpt>
      <trkpt lat="31.281634625047445" lon="-4.271354572847486">
        <ele>758.136962890625</ele>
        <time>2011-04-23T09:57:46Z</time>
      </trkpt>
      <trkpt lat="31.282072747126222" lon="-4.270837493240833">
        <ele>759.578857421875</ele>
        <time>2011-04-23T09:57:55Z</time>
      </trkpt>
      <trkpt lat="31.282531069591641" lon="-4.270330555737019">
        <ele>760.5400390625</ele>
        <time>2011-04-23T09:58:06Z</time>
      </trkpt>
      <trkpt lat="31.283079078420997" lon="-4.269666960462928">
        <ele>759.09814453125</ele>
        <time>2011-04-23T09:58:17Z</time>
      </trkpt>
      <trkpt lat="31.283447630703449" lon="-4.269222132861614">
        <ele>759.578857421875</ele>
        <time>2011-04-23T09:58:28Z</time>
      </trkpt>
      <trkpt lat="31.283407565206289" lon="-4.268857268616557">
        <ele>756.214111328125</ele>
        <time>2011-04-23T09:58:37Z</time>
      </trkpt>
      <trkpt lat="31.282704574987292" lon="-4.268442867323756">
        <ele>749.9658203125</ele>
        <time>2011-04-23T09:58:48Z</time>
      </trkpt>
      <trkpt lat="31.28191776573658" lon="-4.267972139641643">
        <ele>748.043212890625</ele>
        <time>2011-04-23T09:59:00Z</time>
      </trkpt>
      <trkpt lat="31.281666895374656" lon="-4.267808860167861">
        <ele>749.00439453125</ele>
        <time>2011-04-23T09:59:07Z</time>
      </trkpt>
      <trkpt lat="31.281633619219065" lon="-4.267580453306437">
        <ele>751.40771484375</ele>
        <time>2011-04-23T09:59:15Z</time>
      </trkpt>
      <trkpt lat="31.281744679436088" lon="-4.267534436658025">
        <ele>776.40185546875</ele>
        <time>2011-04-23T10:00:28Z</time>
      </trkpt>
      <trkpt lat="31.281857918947935" lon="-4.267244338989258">
        <ele>776.882568359375</ele>
        <time>2011-04-23T10:02:37Z</time>
      </trkpt>
      <trkpt lat="31.281953724101186" lon="-4.266928927972913">
        <ele>774.9599609375</ele>
        <time>2011-04-23T10:02:48Z</time>
      </trkpt>
      <trkpt lat="31.282059168443084" lon="-4.266562722623348">
        <ele>773.51806640625</ele>
        <time>2011-04-23T10:02:58Z</time>
      </trkpt>
      <trkpt lat="31.282081045210361" lon="-4.266378153115511">
        <ele>768.230712890625</ele>
        <time>2011-04-23T10:03:50Z</time>
      </trkpt>
      <trkpt lat="31.282127145677805" lon="-4.266227781772614">
        <ele>763.424072265625</ele>
        <time>2011-04-23T10:04:00Z</time>
      </trkpt>
      <trkpt lat="31.282217921689153" lon="-4.266247395426035">
        <ele>763.904541015625</ele>
        <time>2011-04-23T10:04:06Z</time>
      </trkpt>
      <trkpt lat="31.282106442376971" lon="-4.266543192788959">
        <ele>767.75</ele>
        <time>2011-04-23T10:04:29Z</time>
      </trkpt>
      <trkpt lat="31.28193779848516" lon="-4.267138224095106">
        <ele>770.1533203125</ele>
        <time>2011-04-23T10:04:37Z</time>
      </trkpt>
      <trkpt lat="31.281885746866465" lon="-4.267347687855363">
        <ele>771.11474609375</ele>
        <time>2011-04-23T10:04:40Z</time>
      </trkpt>
      <trkpt lat="31.282011223956943" lon="-4.267655471339822">
        <ele>772.075927734375</ele>
        <time>2011-04-23T10:04:46Z</time>
      </trkpt>
      <trkpt lat="31.282765595242381" lon="-4.268075237050653">
        <ele>771.11474609375</ele>
        <time>2011-04-23T10:04:55Z</time>
      </trkpt>
      <trkpt lat="31.28336364403367" lon="-4.268390648066998">
        <ele>771.59521484375</ele>
        <time>2011-04-23T10:05:04Z</time>
      </trkpt>
      <trkpt lat="31.283549889922142" lon="-4.268494499847293">
        <ele>771.59521484375</ele>
        <time>2011-04-23T10:05:10Z</time>
      </trkpt>
      <trkpt lat="31.283729262650013" lon="-4.268562644720078">
        <ele>772.556640625</ele>
        <time>2011-04-23T10:05:22Z</time>
      </trkpt>
      <trkpt lat="31.283757677301764" lon="-4.26879096776247">
        <ele>772.556640625</ele>
        <time>2011-04-23T10:05:27Z</time>
      </trkpt>
      <trkpt lat="31.283584674820304" lon="-4.26921559497714">
        <ele>772.075927734375</ele>
        <time>2011-04-23T10:05:32Z</time>
      </trkpt>
      <trkpt lat="31.282834829762578" lon="-4.270144393667579">
        <ele>773.037353515625</ele>
        <time>2011-04-23T10:05:43Z</time>
      </trkpt>
      <trkpt lat="31.282377345487475" lon="-4.270646637305617">
        <ele>773.51806640625</ele>
        <time>2011-04-23T10:05:51Z</time>
      </trkpt>
      <trkpt lat="31.281998651102185" lon="-4.271116191521287">
        <ele>772.556640625</ele>
        <time>2011-04-23T10:05:57Z</time>
      </trkpt>
      <trkpt lat="31.281188875436783" lon="-4.272054377943277">
        <ele>771.59521484375</ele>
        <time>2011-04-23T10:06:09Z</time>
      </trkpt>
      <trkpt lat="31.280595185235143" lon="-4.272965490818024">
        <ele>770.634033203125</ele>
        <time>2011-04-23T10:06:18Z</time>
      </trkpt>
      <trkpt lat="31.280071819201112" lon="-4.274034686386585">
        <ele>770.1533203125</ele>
        <time>2011-04-23T10:06:27Z</time>
      </trkpt>
      <trkpt lat="31.279548956081271" lon="-4.275128021836281">
        <ele>770.634033203125</ele>
        <time>2011-04-23T10:06:36Z</time>
      </trkpt>
      <trkpt lat="31.278668437153101" lon="-4.276918899267912">
        <ele>772.075927734375</ele>
        <time>2011-04-23T10:06:49Z</time>
      </trkpt>
      <trkpt lat="31.278364341706038" lon="-4.277998069301248">
        <ele>771.59521484375</ele>
        <time>2011-04-23T10:06:55Z</time>
      </trkpt>
      <trkpt lat="31.278144987300038" lon="-4.279754664748907">
        <ele>771.11474609375</ele>
        <time>2011-04-23T10:07:04Z</time>
      </trkpt>
      <trkpt lat="31.277942396700382" lon="-4.281945694237948">
        <ele>772.075927734375</ele>
        <time>2011-04-23T10:07:15Z</time>
      </trkpt>
      <trkpt lat="31.277851955965161" lon="-4.283600198104978">
        <ele>771.59521484375</ele>
        <time>2011-04-23T10:07:25Z</time>
      </trkpt>
      <trkpt lat="31.277783224359155" lon="-4.28496309556067">
        <ele>771.11474609375</ele>
        <time>2011-04-23T10:07:34Z</time>
      </trkpt>
      <trkpt lat="31.278006685897708" lon="-4.285745043307543">
        <ele>771.11474609375</ele>
        <time>2011-04-23T10:07:40Z</time>
      </trkpt>
      <trkpt lat="31.278072483837605" lon="-4.285847218707204">
        <ele>771.11474609375</ele>
        <time>2011-04-23T10:07:41Z</time>
      </trkpt>
      <trkpt lat="31.27834833227098" lon="-4.28620764054358">
        <ele>770.634033203125</ele>
        <time>2011-04-23T10:07:45Z</time>
      </trkpt>
      <trkpt lat="31.27883062697947" lon="-4.286560267210007">
        <ele>770.1533203125</ele>
        <time>2011-04-23T10:07:50Z</time>
      </trkpt>
      <trkpt lat="31.280138539150357" lon="-4.286961676552892">
        <ele>769.6728515625</ele>
        <time>2011-04-23T10:07:59Z</time>
      </trkpt>
      <trkpt lat="31.281828163191676" lon="-4.287594761699438">
        <ele>769.192138671875</ele>
        <time>2011-04-23T10:08:09Z</time>
      </trkpt>
      <trkpt lat="31.283961189910769" lon="-4.288407051935792">
        <ele>769.192138671875</ele>
        <time>2011-04-23T10:08:21Z</time>
      </trkpt>
      <trkpt lat="31.285671181976795" lon="-4.28919117897749">
        <ele>768.230712890625</ele>
        <time>2011-04-23T10:08:31Z</time>
      </trkpt>
      <trkpt lat="31.287229126319289" lon="-4.290045294910669">
        <ele>768.230712890625</ele>
        <time>2011-04-23T10:08:41Z</time>
      </trkpt>
      <trkpt lat="31.287877634167671" lon="-4.290388450026512">
        <ele>768.230712890625</ele>
        <time>2011-04-23T10:08:47Z</time>
      </trkpt>
      <trkpt lat="31.288325060158968" lon="-4.290631776675582">
        <ele>768.71142578125</ele>
        <time>2011-04-23T10:08:53Z</time>
      </trkpt>
      <trkpt lat="31.288599064573646" lon="-4.290775191038847">
        <ele>768.230712890625</ele>
        <time>2011-04-23T10:09:00Z</time>
      </trkpt>
      <trkpt lat="31.288544666022062" lon="-4.290929669514298">
        <ele>767.26953125</ele>
        <time>2011-04-23T10:09:08Z</time>
      </trkpt>
      <trkpt lat="31.288406699895859" lon="-4.290903098881245">
        <ele>760.059326171875</ele>
        <time>2011-04-23T10:09:24Z</time>
      </trkpt>
      <trkpt lat="31.288447184488177" lon="-4.290789356455207">
        <ele>758.136962890625</ele>
        <time>2011-04-23T10:09:30Z</time>
      </trkpt>
      <trkpt lat="31.288598142564297" lon="-4.290842832997441">
        <ele>758.136962890625</ele>
        <time>2011-04-23T10:09:33Z</time>
      </trkpt>
      <trkpt lat="31.289185797795653" lon="-4.291138546541333">
        <ele>759.09814453125</ele>
        <time>2011-04-23T10:09:40Z</time>
      </trkpt>
      <trkpt lat="31.29022398032248" lon="-4.291514726355672">
        <ele>759.578857421875</ele>
        <time>2011-04-23T10:09:49Z</time>
      </trkpt>
      <trkpt lat="31.291253697127104" lon="-4.291594857349992">
        <ele>760.5400390625</ele>
        <time>2011-04-23T10:09:56Z</time>
      </trkpt>
      <trkpt lat="31.292605279013515" lon="-4.291382124647498">
        <ele>761.982177734375</ele>
        <time>2011-04-23T10:10:04Z</time>
      </trkpt>
      <trkpt lat="31.294914577156305" lon="-4.290892537683249">
        <ele>764.385498046875</ele>
        <time>2011-04-23T10:10:17Z</time>
      </trkpt>
      <trkpt lat="31.295896265655756" lon="-4.290435053408146">
        <ele>764.385498046875</ele>
        <time>2011-04-23T10:10:23Z</time>
      </trkpt>
      <trkpt lat="31.29643932916224" lon="-4.290094329044223">
        <ele>762.462646484375</ele>
        <time>2011-04-23T10:10:28Z</time>
      </trkpt>
      <trkpt lat="31.296637980267406" lon="-4.289975976571441">
        <ele>761.50146484375</ele>
        <time>2011-04-23T10:10:31Z</time>
      </trkpt>
      <trkpt lat="31.29691181704402" lon="-4.289959631860256">
        <ele>762.943359375</ele>
        <time>2011-04-23T10:10:36Z</time>
      </trkpt>
      <trkpt lat="31.297134272754192" lon="-4.289975976571441">
        <ele>762.462646484375</ele>
        <time>2011-04-23T10:10:44Z</time>
      </trkpt>
      <trkpt lat="31.297318087890744" lon="-4.289878997951746">
        <ele>772.556640625</ele>
        <time>2011-04-23T10:13:36Z</time>
      </trkpt>
      <trkpt lat="31.297486228868365" lon="-4.289939934387803">
        <ele>772.075927734375</ele>
        <time>2011-04-23T10:13:46Z</time>
      </trkpt>
      <trkpt lat="31.297367373481393" lon="-4.290050743147731">
        <ele>771.11474609375</ele>
        <time>2011-04-23T10:14:03Z</time>
      </trkpt>
      <trkpt lat="31.297265533357859" lon="-4.290049653500319">
        <ele>771.59521484375</ele>
        <time>2011-04-23T10:15:19Z</time>
      </trkpt>
      <trkpt lat="31.297160256654024" lon="-4.290103130042553">
        <ele>806.683349609375</ele>
        <time>2011-04-23T10:21:48Z</time>
      </trkpt>
      <trkpt lat="31.29692941904068" lon="-4.29003213532269">
        <ele>812.93212890625</ele>
        <time>2011-04-23T10:29:54Z</time>
      </trkpt>
      <trkpt lat="31.29689471796155" lon="-4.289916967973113">
        <ele>820.62255859375</ele>
        <time>2011-04-23T10:30:15Z</time>
      </trkpt>
      <trkpt lat="31.296981135383248" lon="-4.28994806483388">
        <ele>832.63916015625</ele>
        <time>2011-04-23T10:32:23Z</time>
      </trkpt>
      <trkpt lat="31.297071743756533" lon="-4.289790987968445">
        <ele>800.91552734375</ele>
        <time>2011-04-23T10:34:43Z</time>
      </trkpt>
      <trkpt lat="31.296986499801278" lon="-4.289861731231213">
        <ele>784.5732421875</ele>
        <time>2011-04-23T10:35:09Z</time>
      </trkpt>
      <trkpt lat="31.296901758760214" lon="-4.290012940764427">
        <ele>791.30224609375</ele>
        <time>2011-04-23T10:35:42Z</time>
      </trkpt>
      <trkpt lat="31.296738982200623" lon="-4.29000967182219">
        <ele>788.41845703125</ele>
        <time>2011-04-23T10:41:51Z</time>
      </trkpt>
      <trkpt lat="31.296573439612985" lon="-4.28997153416276">
        <ele>789.8603515625</ele>
        <time>2011-04-23T10:42:00Z</time>
      </trkpt>
      <trkpt lat="31.296411752700806" lon="-4.289877321571112">
        <ele>791.782958984375</ele>
        <time>2011-04-23T10:43:53Z</time>
      </trkpt>
      <trkpt lat="31.295981090515852" lon="-4.290102878585458">
        <ele>793.224853515625</ele>
        <time>2011-04-23T10:44:19Z</time>
      </trkpt>
      <trkpt lat="31.295291930437088" lon="-4.290514262393117">
        <ele>793.224853515625</ele>
        <time>2011-04-23T10:44:26Z</time>
      </trkpt>
      <trkpt lat="31.294397665187716" lon="-4.290885580703616">
        <ele>792.263671875</ele>
        <time>2011-04-23T10:44:33Z</time>
      </trkpt>
      <trkpt lat="31.292458176612854" lon="-4.291268466040492">
        <ele>790.821533203125</ele>
        <time>2011-04-23T10:44:46Z</time>
      </trkpt>
      <trkpt lat="31.290608458220959" lon="-4.291530232876539">
        <ele>798.51220703125</ele>
        <time>2011-04-23T10:44:58Z</time>
      </trkpt>
      <trkpt lat="31.289419149979949" lon="-4.291337868198752">
        <ele>800.43505859375</ele>
        <time>2011-04-23T10:45:06Z</time>
      </trkpt>
      <trkpt lat="31.2883769441396" lon="-4.29084618575871">
        <ele>796.58984375</ele>
        <time>2011-04-23T10:45:14Z</time>
      </trkpt>
      <trkpt lat="31.287812339141965" lon="-4.290536222979426">
        <ele>794.666748046875</ele>
        <time>2011-04-23T10:45:19Z</time>
      </trkpt>
      <trkpt lat="31.287524253129959" lon="-4.290597829967737">
        <ele>796.58984375</ele>
        <time>2011-04-23T10:45:24Z</time>
      </trkpt>
      <trkpt lat="31.287507992237806" lon="-4.290804779157043">
        <ele>797.551025390625</ele>
        <time>2011-04-23T10:45:26Z</time>
      </trkpt>
      <trkpt lat="31.287499694153666" lon="-4.291885625571013">
        <ele>801.396240234375</ele>
        <time>2011-04-23T10:45:34Z</time>
      </trkpt>
      <trkpt lat="31.287468262016773" lon="-4.293434768915176">
        <ele>803.799560546875</ele>
        <time>2011-04-23T10:45:43Z</time>
      </trkpt>
      <trkpt lat="31.287458874285221" lon="-4.295564191415906">
        <ele>805.72216796875</ele>
        <time>2011-04-23T10:45:54Z</time>
      </trkpt>
      <trkpt lat="31.287425933405757" lon="-4.298452092334628">
        <ele>806.683349609375</ele>
        <time>2011-04-23T10:46:08Z</time>
      </trkpt>
      <trkpt lat="31.287383185699582" lon="-4.302352862432599">
        <ele>807.1640625</ele>
        <time>2011-04-23T10:46:26Z</time>
      </trkpt>
      <trkpt lat="31.287340857088566" lon="-4.305794555693865">
        <ele>808.12548828125</ele>
        <time>2011-04-23T10:46:41Z</time>
      </trkpt>
      <trkpt lat="31.287305317819118" lon="-4.308928465470672">
        <ele>808.12548828125</ele>
        <time>2011-04-23T10:46:54Z</time>
      </trkpt>
      <trkpt lat="31.287258295342326" lon="-4.313011290505529">
        <ele>809.086669921875</ele>
        <time>2011-04-23T10:47:11Z</time>
      </trkpt>
      <trkpt lat="31.287223175168037" lon="-4.315715460106731">
        <ele>810.0478515625</ele>
        <time>2011-04-23T10:47:23Z</time>
      </trkpt>
      <trkpt lat="31.287211356684566" lon="-4.31685347110033">
        <ele>810.0478515625</ele>
        <time>2011-04-23T10:47:30Z</time>
      </trkpt>
      <trkpt lat="31.28718813881278" lon="-4.318144535645843">
        <ele>809.086669921875</ele>
        <time>2011-04-23T10:47:39Z</time>
      </trkpt>
      <trkpt lat="31.287181852385402" lon="-4.319110885262489">
        <ele>807.1640625</ele>
        <time>2011-04-23T10:47:47Z</time>
      </trkpt>
      <trkpt lat="31.286966688930988" lon="-4.319658726453781">
        <ele>804.7607421875</ele>
        <time>2011-04-23T10:47:53Z</time>
      </trkpt>
      <trkpt lat="31.286038141697645" lon="-4.320701351389289">
        <ele>800.43505859375</ele>
        <time>2011-04-23T10:48:06Z</time>
      </trkpt>
      <trkpt lat="31.285556349903345" lon="-4.321444323286414">
        <ele>803.799560546875</ele>
        <time>2011-04-23T10:48:15Z</time>
      </trkpt>
      <trkpt lat="31.285378988832235" lon="-4.321803068742156">
        <ele>805.241455078125</ele>
        <time>2011-04-23T10:48:21Z</time>
      </trkpt>
      <trkpt lat="31.285012783482671" lon="-4.322262732312083">
        <ele>806.20263671875</ele>
        <time>2011-04-23T10:48:27Z</time>
      </trkpt>
      <trkpt lat="31.284291855990887" lon="-4.322845777496696">
        <ele>808.12548828125</ele>
        <time>2011-04-23T10:48:35Z</time>
      </trkpt>
      <trkpt lat="31.283502783626318" lon="-4.323491435497999">
        <ele>809.086669921875</ele>
        <time>2011-04-23T10:48:44Z</time>
      </trkpt>
      <trkpt lat="31.282849246636033" lon="-4.324366338551045">
        <ele>808.60595703125</ele>
        <time>2011-04-23T10:48:52Z</time>
      </trkpt>
      <trkpt lat="31.282089175656438" lon="-4.325383650138974">
        <ele>807.644775390625</ele>
        <time>2011-04-23T10:48:59Z</time>
      </trkpt>
      <trkpt lat="31.28087799064815" lon="-4.327113423496485">
        <ele>807.1640625</ele>
        <time>2011-04-23T10:49:09Z</time>
      </trkpt>
      <trkpt lat="31.279221475124359" lon="-4.329400844871998">
        <ele>804.7607421875</ele>
        <time>2011-04-23T10:49:22Z</time>
      </trkpt>
      <trkpt lat="31.277119796723127" lon="-4.332306599244475">
        <ele>802.357421875</ele>
        <time>2011-04-23T10:49:38Z</time>
      </trkpt>
      <trkpt lat="31.275517176836729" lon="-4.334538448601961">
        <ele>800.91552734375</ele>
        <time>2011-04-23T10:49:51Z</time>
      </trkpt>
      <trkpt lat="31.273855632171035" lon="-4.336848333477974">
        <ele>798.03173828125</ele>
        <time>2011-04-23T10:50:05Z</time>
      </trkpt>
      <trkpt lat="31.273666117340326" lon="-4.337177323177457">
        <ele>798.51220703125</ele>
        <time>2011-04-23T10:50:07Z</time>
      </trkpt>
      <trkpt lat="31.273425556719303" lon="-4.338197819888592">
        <ele>799.4736328125</ele>
        <time>2011-04-23T10:50:12Z</time>
      </trkpt>
      <trkpt lat="31.273512979969382" lon="-4.338851356878877">
        <ele>799.4736328125</ele>
        <time>2011-04-23T10:50:15Z</time>
      </trkpt>
      <trkpt lat="31.274205828085542" lon="-4.341237684711814">
        <ele>799.954345703125</ele>
        <time>2011-04-23T10:50:26Z</time>
      </trkpt>
      <trkpt lat="31.274358378723264" lon="-4.342951867729425">
        <ele>799.954345703125</ele>
        <time>2011-04-23T10:50:33Z</time>
      </trkpt>
      <trkpt lat="31.274638250470161" lon="-4.346487773582339">
        <ele>801.396240234375</ele>
        <time>2011-04-23T10:50:48Z</time>
      </trkpt>
      <trkpt lat="31.274581337347627" lon="-4.347910853102803">
        <ele>801.876953125</ele>
        <time>2011-04-23T10:50:54Z</time>
      </trkpt>
      <trkpt lat="31.274151932448149" lon="-4.349071076139808">
        <ele>802.838134765625</ele>
        <time>2011-04-23T10:50:59Z</time>
      </trkpt>
      <trkpt lat="31.273018280044198" lon="-4.35141809284687">
        <ele>805.241455078125</ele>
        <time>2011-04-23T10:51:09Z</time>
      </trkpt>
      <trkpt lat="31.271697543561459" lon="-4.354191329330206">
        <ele>809.5673828125</ele>
        <time>2011-04-23T10:51:21Z</time>
      </trkpt>
      <trkpt lat="31.271237125620246" lon="-4.355638381093741">
        <ele>809.086669921875</ele>
        <time>2011-04-23T10:51:27Z</time>
      </trkpt>
      <trkpt lat="31.270825993269682" lon="-4.35834338888526">
        <ele>807.1640625</ele>
        <time>2011-04-23T10:51:37Z</time>
      </trkpt>
      <trkpt lat="31.270300280302763" lon="-4.361736299470067">
        <ele>809.086669921875</ele>
        <time>2011-04-23T10:51:50Z</time>
      </trkpt>
      <trkpt lat="31.269703488796949" lon="-4.365622149780393">
        <ele>811.489990234375</ele>
        <time>2011-04-23T10:52:05Z</time>
      </trkpt>
      <trkpt lat="31.269599720835686" lon="-4.36679863370955">
        <ele>812.93212890625</ele>
        <time>2011-04-23T10:52:10Z</time>
      </trkpt>
      <trkpt lat="31.269988054409623" lon="-4.368384489789605">
        <ele>814.854736328125</ele>
        <time>2011-04-23T10:52:17Z</time>
      </trkpt>
      <trkpt lat="31.270922049880028" lon="-4.371430473402143">
        <ele>815.816162109375</ele>
        <time>2011-04-23T10:52:31Z</time>
      </trkpt>
      <trkpt lat="31.271204017102718" lon="-4.372224239632487">
        <ele>814.3740234375</ele>
        <time>2011-04-23T10:52:35Z</time>
      </trkpt>
      <trkpt lat="31.271247183904052" lon="-4.373305756598711">
        <ele>813.893310546875</ele>
        <time>2011-04-23T10:52:40Z</time>
      </trkpt>
      <trkpt lat="31.270674532279372" lon="-4.37605569139123">
        <ele>814.854736328125</ele>
        <time>2011-04-23T10:52:52Z</time>
      </trkpt>
      <trkpt lat="31.269922088831663" lon="-4.379504760727286">
        <ele>819.661376953125</ele>
        <time>2011-04-23T10:53:07Z</time>
      </trkpt>
      <trkpt lat="31.269530570134521" lon="-4.381340565159917">
        <ele>820.62255859375</ele>
        <time>2011-04-23T10:53:16Z</time>
      </trkpt>
      <trkpt lat="31.26915187574923" lon="-4.383109230548143">
        <ele>821.103271484375</ele>
        <time>2011-04-23T10:53:26Z</time>
      </trkpt>
      <trkpt lat="31.268830178305507" lon="-4.384597772732377">
        <ele>822.064453125</ele>
        <time>2011-04-23T10:53:35Z</time>
      </trkpt>
      <trkpt lat="31.268568076193333" lon="-4.385988246649504">
        <ele>822.064453125</ele>
        <time>2011-04-23T10:53:44Z</time>
      </trkpt>
      <trkpt lat="31.268652146682143" lon="-4.387144949287176">
        <ele>823.02587890625</ele>
        <time>2011-04-23T10:53:51Z</time>
      </trkpt>
      <trkpt lat="31.2688909471035" lon="-4.388816384598613">
        <ele>823.987060546875</ele>
        <time>2011-04-23T10:54:01Z</time>
      </trkpt>
      <trkpt lat="31.268982896581292" lon="-4.389520296826959">
        <ele>824.4677734375</ele>
        <time>2011-04-23T10:54:07Z</time>
      </trkpt>
      <trkpt lat="31.269152294844389" lon="-4.389730347320437">
        <ele>822.545166015625</ele>
        <time>2011-04-23T10:54:12Z</time>
      </trkpt>
      <trkpt lat="31.269652023911476" lon="-4.390047267079353">
        <ele>819.661376953125</ele>
        <time>2011-04-23T10:54:21Z</time>
      </trkpt>
      <trkpt lat="31.270272955298424" lon="-4.390489244833589">
        <ele>816.77734375</ele>
        <time>2011-04-23T10:54:30Z</time>
      </trkpt>
      <trkpt lat="31.270967731252313" lon="-4.390636598691344">
        <ele>814.854736328125</ele>
        <time>2011-04-23T10:54:38Z</time>
      </trkpt>
      <trkpt lat="31.272054444998503" lon="-4.390837177634239">
        <ele>812.451416015625</ele>
        <time>2011-04-23T10:54:48Z</time>
      </trkpt>
      <trkpt lat="31.272240690886974" lon="-4.390937844291329">
        <ele>811.489990234375</ele>
        <time>2011-04-23T10:54:50Z</time>
      </trkpt>
      <trkpt lat="31.272928426042199" lon="-4.391541676595807">
        <ele>810.0478515625</ele>
        <time>2011-04-23T10:54:59Z</time>
      </trkpt>
      <trkpt lat="31.273696543648839" lon="-4.391947025433183">
        <ele>809.086669921875</ele>
        <time>2011-04-23T10:55:07Z</time>
      </trkpt>
      <trkpt lat="31.274706898257136" lon="-4.392535351216793">
        <ele>808.12548828125</ele>
        <time>2011-04-23T10:55:18Z</time>
      </trkpt>
      <trkpt lat="31.274858191609383" lon="-4.392656134441495">
        <ele>809.086669921875</ele>
        <time>2011-04-23T10:55:20Z</time>
      </trkpt>
      <trkpt lat="31.275451462715864" lon="-4.392874734476209">
        <ele>808.60595703125</ele>
        <time>2011-04-23T10:55:27Z</time>
      </trkpt>
      <trkpt lat="31.276090247556567" lon="-4.392968444153667">
        <ele>808.60595703125</ele>
        <time>2011-04-23T10:55:34Z</time>
      </trkpt>
      <trkpt lat="31.276522418484092" lon="-4.393062489107251">
        <ele>808.12548828125</ele>
        <time>2011-04-23T10:55:39Z</time>
      </trkpt>
      <trkpt lat="31.276673879474401" lon="-4.393080761656165">
        <ele>807.644775390625</ele>
        <time>2011-04-23T10:55:41Z</time>
      </trkpt>
      <trkpt lat="31.27717318944633" lon="-4.393400447443128">
        <ele>807.644775390625</ele>
        <time>2011-04-23T10:55:48Z</time>
      </trkpt>
      <trkpt lat="31.278086733072996" lon="-4.393580742180347">
        <ele>807.644775390625</ele>
        <time>2011-04-23T10:55:58Z</time>
      </trkpt>
      <trkpt lat="31.278752340003848" lon="-4.393523326143622">
        <ele>807.644775390625</ele>
        <time>2011-04-23T10:56:05Z</time>
      </trkpt>
      <trkpt lat="31.279009161517024" lon="-4.393411260098219">
        <ele>807.644775390625</ele>
        <time>2011-04-23T10:56:08Z</time>
      </trkpt>
      <trkpt lat="31.279836287721992" lon="-4.393275221809745">
        <ele>808.12548828125</ele>
        <time>2011-04-23T10:56:16Z</time>
      </trkpt>
      <trkpt lat="31.280829375609756" lon="-4.393431963399053">
        <ele>807.1640625</ele>
        <time>2011-04-23T10:56:26Z</time>
      </trkpt>
      <trkpt lat="31.281505962833762" lon="-4.393623154610395">
        <ele>806.683349609375</ele>
        <time>2011-04-23T10:56:33Z</time>
      </trkpt>
      <trkpt lat="31.282100658863783" lon="-4.394085248932242">
        <ele>808.12548828125</ele>
        <time>2011-04-23T10:56:41Z</time>
      </trkpt>
      <trkpt lat="31.282891659066081" lon="-4.394906591624022">
        <ele>809.5673828125</ele>
        <time>2011-04-23T10:56:51Z</time>
      </trkpt>
      <trkpt lat="31.283525750041008" lon="-4.39569465816021">
        <ele>809.5673828125</ele>
        <time>2011-04-23T10:57:00Z</time>
      </trkpt>
      <trkpt lat="31.284237876534462" lon="-4.396545337513089">
        <ele>811.970703125</ele>
        <time>2011-04-23T10:57:09Z</time>
      </trkpt>
      <trkpt lat="31.284321863204241" lon="-4.396628234535456">
        <ele>811.970703125</ele>
        <time>2011-04-23T10:57:10Z</time>
      </trkpt>
      <trkpt lat="31.284693265333772" lon="-4.396871896460652">
        <ele>811.970703125</ele>
        <time>2011-04-23T10:57:14Z</time>
      </trkpt>
      <trkpt lat="31.285594487562776" lon="-4.397480254992843">
        <ele>813.412841796875</ele>
        <time>2011-04-23T10:57:23Z</time>
      </trkpt>
      <trkpt lat="31.286646332591772" lon="-4.39823554828763">
        <ele>814.854736328125</ele>
        <time>2011-04-23T10:57:34Z</time>
      </trkpt>
      <trkpt lat="31.287551242858171" lon="-4.398811887949705">
        <ele>815.816162109375</ele>
        <time>2011-04-23T10:57:43Z</time>
      </trkpt>
      <trkpt lat="31.288718339055777" lon="-4.399516051635146">
        <ele>816.296630859375</ele>
        <time>2011-04-23T10:57:53Z</time>
      </trkpt>
      <trkpt lat="31.289700949564576" lon="-4.400386428460479">
        <ele>815.816162109375</ele>
        <time>2011-04-23T10:58:02Z</time>
      </trkpt>
      <trkpt lat="31.290392372757196" lon="-4.401226378977299">
        <ele>816.296630859375</ele>
        <time>2011-04-23T10:58:10Z</time>
      </trkpt>
      <trkpt lat="31.291077844798565" lon="-4.401941271498799">
        <ele>816.296630859375</ele>
        <time>2011-04-23T10:58:18Z</time>
      </trkpt>
      <trkpt lat="31.291530635207891" lon="-4.402239667251706">
        <ele>816.296630859375</ele>
        <time>2011-04-23T10:58:23Z</time>
      </trkpt>
      <trkpt lat="31.292137065902352" lon="-4.402311248704791">
        <ele>817.258056640625</ele>
        <time>2011-04-23T10:58:30Z</time>
      </trkpt>
      <trkpt lat="31.29299939610064" lon="-4.402165655046701">
        <ele>819.661376953125</ele>
        <time>2011-04-23T10:58:39Z</time>
      </trkpt>
      <trkpt lat="31.294211586937308" lon="-4.402006231248379">
        <ele>821.583740234375</ele>
        <time>2011-04-23T10:58:51Z</time>
      </trkpt>
      <trkpt lat="31.295016249641776" lon="-4.401863738894463">
        <ele>823.02587890625</ele>
        <time>2011-04-23T10:58:59Z</time>
      </trkpt>
      <trkpt lat="31.295858295634389" lon="-4.401840688660741">
        <ele>825.428955078125</ele>
        <time>2011-04-23T10:59:08Z</time>
      </trkpt>
      <trkpt lat="31.297014830633998" lon="-4.401755696162581">
        <ele>830.23583984375</ele>
        <time>2011-04-23T10:59:22Z</time>
      </trkpt>
      <trkpt lat="31.297570886090398" lon="-4.401651173830032">
        <ele>834.561767578125</ele>
        <time>2011-04-23T10:59:29Z</time>
      </trkpt>
      <trkpt lat="31.297699045389891" lon="-4.401648575440049">
        <ele>834.561767578125</ele>
        <time>2011-04-23T10:59:35Z</time>
      </trkpt>
      <trkpt lat="31.297844890505075" lon="-4.40145805478096">
        <ele>833.600341796875</ele>
        <time>2011-04-23T10:59:48Z</time>
      </trkpt>
      <trkpt lat="31.297999620437622" lon="-4.401205340400338">
        <ele>830.716552734375</ele>
        <time>2011-04-23T10:59:53Z</time>
      </trkpt>
      <trkpt lat="31.298286868259311" lon="-4.400671580806375">
        <ele>831.677734375</ele>
        <time>2011-04-23T11:00:04Z</time>
      </trkpt>
      <trkpt lat="31.298388540744781" lon="-4.400396989658475">
        <ele>830.23583984375</ele>
        <time>2011-04-23T11:00:12Z</time>
      </trkpt>
      <trkpt lat="31.298499768599868" lon="-4.400257850065827">
        <ele>827.832275390625</ele>
        <time>2011-04-23T11:02:02Z</time>
      </trkpt>
      <trkpt lat="31.298590460792184" lon="-4.400278721004725">
        <ele>828.313232421875</ele>
        <time>2011-04-23T11:02:05Z</time>
      </trkpt>
      <trkpt lat="31.298864716663957" lon="-4.400052996352315">
        <ele>830.23583984375</ele>
        <time>2011-04-23T11:02:15Z</time>
      </trkpt>
      <trkpt lat="31.299150539562106" lon="-4.399822242558003">
        <ele>836.96484375</ele>
        <time>2011-04-23T11:02:27Z</time>
      </trkpt>
      <trkpt lat="31.299391267821193" lon="-4.399745548143983">
        <ele>841.290771484375</ele>
        <time>2011-04-23T11:02:36Z</time>
      </trkpt>
      <trkpt lat="31.299642222002149" lon="-4.39954312518239">
        <ele>846.09765625</ele>
        <time>2011-04-23T11:02:45Z</time>
      </trkpt>
      <trkpt lat="31.299983449280262" lon="-4.399264929816127">
        <ele>854.749267578125</ele>
        <time>2011-04-23T11:02:58Z</time>
      </trkpt>
      <trkpt lat="31.300291987136006" lon="-4.399008527398109">
        <ele>862.43994140625</ele>
        <time>2011-04-23T11:03:10Z</time>
      </trkpt>
      <trkpt lat="31.300675794482231" lon="-4.398722955957055">
        <ele>869.64990234375</ele>
        <time>2011-04-23T11:03:23Z</time>
      </trkpt>
      <trkpt lat="31.300781741738319" lon="-4.398711891844869">
        <ele>869.169189453125</ele>
        <time>2011-04-23T11:03:30Z</time>
      </trkpt>
      <trkpt lat="31.301063541322947" lon="-4.398442329838872">
        <ele>869.64990234375</ele>
        <time>2011-04-23T11:03:47Z</time>
      </trkpt>
      <trkpt lat="31.301114922389388" lon="-4.39805818721652">
        <ele>874.93701171875</ele>
        <time>2011-04-23T11:03:57Z</time>
      </trkpt>
      <trkpt lat="31.301192622631788" lon="-4.397862050682306">
        <ele>876.85986328125</ele>
        <time>2011-04-23T11:04:05Z</time>
      </trkpt>
      <trkpt lat="31.301080221310258" lon="-4.397706817835569">
        <ele>876.85986328125</ele>
        <time>2011-04-23T11:04:24Z</time>
      </trkpt>
      <trkpt lat="31.301099332049489" lon="-4.398052152246237">
        <ele>893.682861328125</ele>
        <time>2011-04-23T11:16:04Z</time>
      </trkpt>
      <trkpt lat="31.301112156361341" lon="-4.398336298763752">
        <ele>891.279296875</ele>
        <time>2011-04-23T11:16:17Z</time>
      </trkpt>
      <trkpt lat="31.300966059789062" lon="-4.398652380332351">
        <ele>884.55029296875</ele>
        <time>2011-04-23T11:16:28Z</time>
      </trkpt>
      <trkpt lat="31.300745029002428" lon="-4.398738462477922">
        <ele>881.185791015625</ele>
        <time>2011-04-23T11:16:37Z</time>
      </trkpt>
      <trkpt lat="31.300470437854528" lon="-4.398904759436846">
        <ele>876.379150390625</ele>
        <time>2011-04-23T11:16:48Z</time>
      </trkpt>
      <trkpt lat="31.300117643550038" lon="-4.399123527109623">
        <ele>866.28515625</ele>
        <time>2011-04-23T11:17:03Z</time>
      </trkpt>
      <trkpt lat="31.299861492589116" lon="-4.399355538189411">
        <ele>864.84326171875</ele>
        <time>2011-04-23T11:17:15Z</time>
      </trkpt>
      <trkpt lat="31.299600228667259" lon="-4.399562738835812">
        <ele>868.207763671875</ele>
        <time>2011-04-23T11:17:27Z</time>
      </trkpt>
      <trkpt lat="31.299339216202497" lon="-4.399771867319942">
        <ele>861.95947265625</ele>
        <time>2011-04-23T11:17:38Z</time>
      </trkpt>
      <trkpt lat="31.299107875674963" lon="-4.399921568110585">
        <ele>835.52294921875</ele>
        <time>2011-04-23T11:17:50Z</time>
      </trkpt>
      <trkpt lat="31.298933532088995" lon="-4.400161961093545">
        <ele>812.451416015625</ele>
        <time>2011-04-23T11:18:01Z</time>
      </trkpt>
      <trkpt lat="31.298625664785504" lon="-4.400573261082172">
        <ele>780.247314453125</ele>
        <time>2011-04-23T11:18:47Z</time>
      </trkpt>
      <trkpt lat="31.298429695889354" lon="-4.400889091193676">
        <ele>776.882568359375</ele>
        <time>2011-04-23T11:18:54Z</time>
      </trkpt>
      <trkpt lat="31.298313857987523" lon="-4.401148930191994">
        <ele>776.40185546875</ele>
        <time>2011-04-23T11:18:58Z</time>
      </trkpt>
      <trkpt lat="31.298216795548797" lon="-4.401747062802315">
        <ele>791.782958984375</ele>
        <time>2011-04-23T11:19:06Z</time>
      </trkpt>
      <trkpt lat="31.298108836635947" lon="-4.402350643649697">
        <ele>793.70556640625</ele>
        <time>2011-04-23T11:19:14Z</time>
      </trkpt>
      <trkpt lat="31.298190141096711" lon="-4.403164777904749">
        <ele>795.1474609375</ele>
        <time>2011-04-23T11:19:24Z</time>
      </trkpt>
      <trkpt lat="31.298516616225243" lon="-4.40387673676014">
        <ele>795.1474609375</ele>
        <time>2011-04-23T11:19:33Z</time>
      </trkpt>
      <trkpt lat="31.298885252326727" lon="-4.404375962913036">
        <ele>794.666748046875</ele>
        <time>2011-04-23T11:19:42Z</time>
      </trkpt>
      <trkpt lat="31.298969490453601" lon="-4.404452657327056">
        <ele>794.666748046875</ele>
        <time>2011-04-23T11:19:44Z</time>
      </trkpt>
      <trkpt lat="31.29905398003757" lon="-4.404664719477296">
        <ele>793.70556640625</ele>
        <time>2011-04-23T11:19:48Z</time>
      </trkpt>
      <trkpt lat="31.299135787412524" lon="-4.404977196827531">
        <ele>792.263671875</ele>
        <time>2011-04-23T11:19:53Z</time>
      </trkpt>
      <trkpt lat="31.299256654456258" lon="-4.405623022466898">
        <ele>791.30224609375</ele>
        <time>2011-04-23T11:20:01Z</time>
      </trkpt>
      <trkpt lat="31.299306275323033" lon="-4.405942372977734">
        <ele>791.30224609375</ele>
        <time>2011-04-23T11:20:05Z</time>
      </trkpt>
      <trkpt lat="31.299440888687968" lon="-4.406166840344667">
        <ele>790.821533203125</ele>
        <time>2011-04-23T11:20:09Z</time>
      </trkpt>
      <trkpt lat="31.300118649378419" lon="-4.406673274934292">
        <ele>788.899169921875</ele>
        <time>2011-04-23T11:20:19Z</time>
      </trkpt>
      <trkpt lat="31.300837146118283" lon="-4.407099578529596">
        <ele>788.899169921875</ele>
        <time>2011-04-23T11:20:30Z</time>
      </trkpt>
      <trkpt lat="31.301544327288866" lon="-4.407371655106545">
        <ele>787.45703125</ele>
        <time>2011-04-23T11:20:42Z</time>
      </trkpt>
      <trkpt lat="31.302080517634749" lon="-4.407416079193354">
        <ele>790.341064453125</ele>
        <time>2011-04-23T11:20:51Z</time>
      </trkpt>
      <trkpt lat="31.302571026608348" lon="-4.407587321475148">
        <ele>789.379638671875</ele>
        <time>2011-04-23T11:20:58Z</time>
      </trkpt>
      <trkpt lat="31.303270244970918" lon="-4.408052684739232">
        <ele>789.8603515625</ele>
        <time>2011-04-23T11:21:07Z</time>
      </trkpt>
      <trkpt lat="31.304103070870042" lon="-4.40834135748446">
        <ele>788.41845703125</ele>
        <time>2011-04-23T11:21:16Z</time>
      </trkpt>
      <trkpt lat="31.304854089394212" lon="-4.408318223431706">
        <ele>788.899169921875</ele>
        <time>2011-04-23T11:21:23Z</time>
      </trkpt>
      <trkpt lat="31.306006936356425" lon="-4.408387877047062">
        <ele>789.379638671875</ele>
        <time>2011-04-23T11:21:34Z</time>
      </trkpt>
      <trkpt lat="31.307334629818797" lon="-4.408376980572939">
        <ele>791.30224609375</ele>
        <time>2011-04-23T11:21:46Z</time>
      </trkpt>
      <trkpt lat="31.307950280606747" lon="-4.408381758257747">
        <ele>792.263671875</ele>
        <time>2011-04-23T11:21:53Z</time>
      </trkpt>
      <trkpt lat="31.308044996112585" lon="-4.408394582569599">
        <ele>792.263671875</ele>
        <time>2011-04-23T11:21:54Z</time>
      </trkpt>
      <trkpt lat="31.3088592980057" lon="-4.408648470416665">
        <ele>790.341064453125</ele>
        <time>2011-04-23T11:22:02Z</time>
      </trkpt>
      <trkpt lat="31.309227347373962" lon="-4.408660959452391">
        <ele>790.341064453125</ele>
        <time>2011-04-23T11:22:05Z</time>
      </trkpt>
      <trkpt lat="31.309898234903812" lon="-4.408899340778589">
        <ele>789.8603515625</ele>
        <time>2011-04-23T11:22:11Z</time>
      </trkpt>
      <trkpt lat="31.310841869562864" lon="-4.409233862534165">
        <ele>787.45703125</ele>
        <time>2011-04-23T11:22:20Z</time>
      </trkpt>
      <trkpt lat="31.311208577826619" lon="-4.409361183643341">
        <ele>787.45703125</ele>
        <time>2011-04-23T11:22:24Z</time>
      </trkpt>
      <trkpt lat="31.312087252736092" lon="-4.409839287400246">
        <ele>789.8603515625</ele>
        <time>2011-04-23T11:22:34Z</time>
      </trkpt>
      <trkpt lat="31.312516322359443" lon="-4.410033077001572">
        <ele>790.821533203125</ele>
        <time>2011-04-23T11:22:40Z</time>
      </trkpt>
      <trkpt lat="31.312646828591824" lon="-4.410158721730113">
        <ele>791.30224609375</ele>
        <time>2011-04-23T11:22:42Z</time>
      </trkpt>
      <trkpt lat="31.313427351415157" lon="-4.410508582368493">
        <ele>791.782958984375</ele>
        <time>2011-04-23T11:22:51Z</time>
      </trkpt>
      <trkpt lat="31.314384061843157" lon="-4.4106774777174">
        <ele>791.30224609375</ele>
        <time>2011-04-23T11:23:01Z</time>
      </trkpt>
      <trkpt lat="31.315491478890181" lon="-4.410873195156455">
        <ele>791.782958984375</ele>
        <time>2011-04-23T11:23:11Z</time>
      </trkpt>
      <trkpt lat="31.316279796883464" lon="-4.410932036116719">
        <ele>793.224853515625</ele>
        <time>2011-04-23T11:23:19Z</time>
      </trkpt>
      <trkpt lat="31.317055961117148" lon="-4.410722320899367">
        <ele>794.186279296875</ele>
        <time>2011-04-23T11:23:27Z</time>
      </trkpt>
      <trkpt lat="31.318221548572183" lon="-4.410537499934435">
        <ele>794.186279296875</ele>
        <time>2011-04-23T11:23:37Z</time>
      </trkpt>
      <trkpt lat="31.318938033655286" lon="-4.410511180758476">
        <ele>795.628173828125</ele>
        <time>2011-04-23T11:23:44Z</time>
      </trkpt>
      <trkpt lat="31.319662565365434" lon="-4.410570859909058">
        <ele>795.628173828125</ele>
        <time>2011-04-23T11:23:54Z</time>
      </trkpt>
      <trkpt lat="31.32038994692266" lon="-4.410568177700043">
        <ele>796.58984375</ele>
        <time>2011-04-23T11:24:02Z</time>
      </trkpt>
      <trkpt lat="31.321421675384045" lon="-4.410455357283354">
        <ele>797.551025390625</ele>
        <time>2011-04-23T11:24:13Z</time>
      </trkpt>
      <trkpt lat="31.322211921215057" lon="-4.410344380885363">
        <ele>797.551025390625</ele>
        <time>2011-04-23T11:24:22Z</time>
      </trkpt>
      <trkpt lat="31.323019852861762" lon="-4.410082027316093">
        <ele>798.03173828125</ele>
        <time>2011-04-23T11:24:31Z</time>
      </trkpt>
      <trkpt lat="31.323923924937844" lon="-4.409774579107761">
        <ele>798.03173828125</ele>
        <time>2011-04-23T11:24:40Z</time>
      </trkpt>
      <trkpt lat="31.324829924851656" lon="-4.409596966579557">
        <ele>798.03173828125</ele>
        <time>2011-04-23T11:24:48Z</time>
      </trkpt>
      <trkpt lat="31.325965169817209" lon="-4.409614317119122">
        <ele>798.51220703125</ele>
        <time>2011-04-23T11:24:58Z</time>
      </trkpt>
      <trkpt lat="31.327214743942022" lon="-4.409639462828636">
        <ele>798.992919921875</ele>
        <time>2011-04-23T11:25:08Z</time>
      </trkpt>
      <trkpt lat="31.328461635857821" lon="-4.409596966579557">
        <ele>799.4736328125</ele>
        <time>2011-04-23T11:25:18Z</time>
      </trkpt>
      <trkpt lat="31.329601239413023" lon="-4.409459084272385">
        <ele>800.43505859375</ele>
        <time>2011-04-23T11:25:28Z</time>
      </trkpt>
      <trkpt lat="31.330669764429331" lon="-4.40948573872447">
        <ele>800.43505859375</ele>
        <time>2011-04-23T11:25:38Z</time>
      </trkpt>
      <trkpt lat="31.332177668809891" lon="-4.409439135342836">
        <ele>801.396240234375</ele>
        <time>2011-04-23T11:25:52Z</time>
      </trkpt>
      <trkpt lat="31.332867918536067" lon="-4.409160269424319">
        <ele>800.91552734375</ele>
        <time>2011-04-23T11:25:59Z</time>
      </trkpt>
      <trkpt lat="31.333370245993137" lon="-4.408583175390959">
        <ele>801.396240234375</ele>
        <time>2011-04-23T11:26:06Z</time>
      </trkpt>
      <trkpt lat="31.333856899291277" lon="-4.408220155164599">
        <ele>800.43505859375</ele>
        <time>2011-04-23T11:26:13Z</time>
      </trkpt>
      <trkpt lat="31.334381941705942" lon="-4.408352756872773">
        <ele>799.4736328125</ele>
        <time>2011-04-23T11:26:20Z</time>
      </trkpt>
      <trkpt lat="31.33511577732861" lon="-4.408305985853076">
        <ele>799.954345703125</ele>
        <time>2011-04-23T11:26:28Z</time>
      </trkpt>
      <trkpt lat="31.33580376394093" lon="-4.408025946468115">
        <ele>800.43505859375</ele>
        <time>2011-04-23T11:26:36Z</time>
      </trkpt>
      <trkpt lat="31.33652494288981" lon="-4.407887142151594">
        <ele>801.396240234375</ele>
        <time>2011-04-23T11:26:44Z</time>
      </trkpt>
      <trkpt lat="31.337612243369222" lon="-4.40766217187047">
        <ele>801.396240234375</ele>
        <time>2011-04-23T11:26:54Z</time>
      </trkpt>
      <trkpt lat="31.338431993499398" lon="-4.407735681161284">
        <ele>801.396240234375</ele>
        <time>2011-04-23T11:27:02Z</time>
      </trkpt>
      <trkpt lat="31.338632740080357" lon="-4.407757390290499">
        <ele>800.91552734375</ele>
        <time>2011-04-23T11:27:04Z</time>
      </trkpt>
      <trkpt lat="31.339093241840601" lon="-4.407679019495845">
        <ele>799.954345703125</ele>
        <time>2011-04-23T11:27:09Z</time>
      </trkpt>
      <trkpt lat="31.339479647576809" lon="-4.407674325630069">
        <ele>799.4736328125</ele>
        <time>2011-04-23T11:27:13Z</time>
      </trkpt>
      <trkpt lat="31.340165119618177" lon="-4.407871384173632">
        <ele>799.4736328125</ele>
        <time>2011-04-23T11:27:20Z</time>
      </trkpt>
      <trkpt lat="31.341145634651184" lon="-4.407963249832392">
        <ele>802.838134765625</ele>
        <time>2011-04-23T11:27:29Z</time>
      </trkpt>
      <trkpt lat="31.342254979535937" lon="-4.408139688894153">
        <ele>801.876953125</ele>
        <time>2011-04-23T11:27:39Z</time>
      </trkpt>
      <trkpt lat="31.343024186789989" lon="-4.408047655597329">
        <ele>801.876953125</ele>
        <time>2011-04-23T11:27:46Z</time>
      </trkpt>
      <trkpt lat="31.343511343002319" lon="-4.408035418018699">
        <ele>800.91552734375</ele>
        <time>2011-04-23T11:27:52Z</time>
      </trkpt>
      <trkpt lat="31.343873273581266" lon="-4.408095935359597">
        <ele>800.43505859375</ele>
        <time>2011-04-23T11:27:57Z</time>
      </trkpt>
      <trkpt lat="31.344170076772571" lon="-4.408269189298153">
        <ele>800.91552734375</ele>
        <time>2011-04-23T11:28:01Z</time>
      </trkpt>
      <trkpt lat="31.344923777505755" lon="-4.408741760998964">
        <ele>802.838134765625</ele>
        <time>2011-04-23T11:28:10Z</time>
      </trkpt>
      <trkpt lat="31.345883337780833" lon="-4.409059686586261">
        <ele>802.357421875</ele>
        <time>2011-04-23T11:28:19Z</time>
      </trkpt>
      <trkpt lat="31.347136348485947" lon="-4.409562852233648">
        <ele>799.4736328125</ele>
        <time>2011-04-23T11:28:30Z</time>
      </trkpt>
      <trkpt lat="31.348447781056166" lon="-4.409872395917773">
        <ele>797.551025390625</ele>
        <time>2011-04-23T11:28:41Z</time>
      </trkpt>
      <trkpt lat="31.350328261032701" lon="-4.410226866602898">
        <ele>801.876953125</ele>
        <time>2011-04-23T11:28:56Z</time>
      </trkpt>
      <trkpt lat="31.351571884006262" lon="-4.41050942055881">
        <ele>804.2802734375</ele>
        <time>2011-04-23T11:29:06Z</time>
      </trkpt>
      <trkpt lat="31.352867893874645" lon="-4.410897251218557">
        <ele>806.683349609375</ele>
        <time>2011-04-23T11:29:17Z</time>
      </trkpt>
      <trkpt lat="31.354140769690275" lon="-4.411445930600166">
        <ele>808.60595703125</ele>
        <time>2011-04-23T11:29:28Z</time>
      </trkpt>
      <trkpt lat="31.355368718504906" lon="-4.41177835687995">
        <ele>808.12548828125</ele>
        <time>2011-04-23T11:29:38Z</time>
      </trkpt>
      <trkpt lat="31.356726586818695" lon="-4.412193428725004">
        <ele>806.20263671875</ele>
        <time>2011-04-23T11:29:49Z</time>
      </trkpt>
      <trkpt lat="31.358119659125805" lon="-4.412468858063221">
        <ele>807.1640625</ele>
        <time>2011-04-23T11:30:01Z</time>
      </trkpt>
      <trkpt lat="31.358932536095381" lon="-4.412705143913627">
        <ele>808.12548828125</ele>
        <time>2011-04-23T11:30:09Z</time>
      </trkpt>
      <trkpt lat="31.359020378440619" lon="-4.412757446989417">
        <ele>808.60595703125</ele>
        <time>2011-04-23T11:30:10Z</time>
      </trkpt>
      <trkpt lat="31.35987994261086" lon="-4.413454318419099">
        <ele>812.451416015625</ele>
        <time>2011-04-23T11:30:21Z</time>
      </trkpt>
      <trkpt lat="31.360573126003146" lon="-4.413689095526934">
        <ele>813.412841796875</ele>
        <time>2011-04-23T11:30:28Z</time>
      </trkpt>
      <trkpt lat="31.361594628542662" lon="-4.413758665323257">
        <ele>815.33544921875</ele>
        <time>2011-04-23T11:30:37Z</time>
      </trkpt>
      <trkpt lat="31.36266759596765" lon="-4.413822032511234">
        <ele>815.816162109375</ele>
        <time>2011-04-23T11:30:47Z</time>
      </trkpt>
      <trkpt lat="31.363373855128884" lon="-4.413890931755304">
        <ele>815.33544921875</ele>
        <time>2011-04-23T11:30:54Z</time>
      </trkpt>
      <trkpt lat="31.364514296874404" lon="-4.414251940324903">
        <ele>812.93212890625</ele>
        <time>2011-04-23T11:31:07Z</time>
      </trkpt>
      <trkpt lat="31.365566896274686" lon="-4.414540445432067">
        <ele>815.33544921875</ele>
        <time>2011-04-23T11:31:18Z</time>
      </trkpt>
      <trkpt lat="31.366320764645934" lon="-4.414661228656769">
        <ele>815.816162109375</ele>
        <time>2011-04-23T11:31:26Z</time>
      </trkpt>
      <trkpt lat="31.36768089607358" lon="-4.414630467072129">
        <ele>819.1806640625</ele>
        <time>2011-04-23T11:31:38Z</time>
      </trkpt>
      <trkpt lat="31.369104227051139" lon="-4.414395773783326">
        <ele>822.545166015625</ele>
        <time>2011-04-23T11:31:50Z</time>
      </trkpt>
      <trkpt lat="31.370412390679121" lon="-4.413941139355302">
        <ele>824.948486328125</ele>
        <time>2011-04-23T11:32:01Z</time>
      </trkpt>
      <trkpt lat="31.370834922417998" lon="-4.413805352523923">
        <ele>825.90966796875</ele>
        <time>2011-04-23T11:32:05Z</time>
      </trkpt>
      <trkpt lat="31.371302716434002" lon="-4.413822367787361">
        <ele>826.390380859375</ele>
        <time>2011-04-23T11:32:09Z</time>
      </trkpt>
      <trkpt lat="31.372304772958159" lon="-4.4142244476825">
        <ele>825.428955078125</ele>
        <time>2011-04-23T11:32:17Z</time>
      </trkpt>
      <trkpt lat="31.373637579381466" lon="-4.415164059028029">
        <ele>824.948486328125</ele>
        <time>2011-04-23T11:32:28Z</time>
      </trkpt>
      <trkpt lat="31.374989077448845" lon="-4.416133090853691">
        <ele>825.428955078125</ele>
        <time>2011-04-23T11:32:39Z</time>
      </trkpt>
      <trkpt lat="31.37610244564712" lon="-4.416747065261006">
        <ele>824.948486328125</ele>
        <time>2011-04-23T11:32:48Z</time>
      </trkpt>
      <trkpt lat="31.376537634059787" lon="-4.417064655572176">
        <ele>824.948486328125</ele>
        <time>2011-04-23T11:32:53Z</time>
      </trkpt>
      <trkpt lat="31.377233499661088" lon="-4.417760688811541">
        <ele>824.948486328125</ele>
        <time>2011-04-23T11:33:01Z</time>
      </trkpt>
      <trkpt lat="31.37822113931179" lon="-4.418833991512656">
        <ele>823.987060546875</ele>
        <time>2011-04-23T11:33:12Z</time>
      </trkpt>
      <trkpt lat="31.37914415448904" lon="-4.419739237055183">
        <ele>823.506591796875</ele>
        <time>2011-04-23T11:33:22Z</time>
      </trkpt>
      <trkpt lat="31.379992738366127" lon="-4.420627132058144">
        <ele>823.02587890625</ele>
        <time>2011-04-23T11:33:32Z</time>
      </trkpt>
      <trkpt lat="31.380649879574776" lon="-4.421480493620038">
        <ele>824.4677734375</ele>
        <time>2011-04-23T11:33:41Z</time>
      </trkpt>
      <trkpt lat="31.38142847456038" lon="-4.422145681455731">
        <ele>824.948486328125</ele>
        <time>2011-04-23T11:33:49Z</time>
      </trkpt>
      <trkpt lat="31.38223422691226" lon="-4.422879768535495">
        <ele>824.948486328125</ele>
        <time>2011-04-23T11:33:58Z</time>
      </trkpt>
      <trkpt lat="31.382890529930592" lon="-4.423337839543819">
        <ele>825.90966796875</ele>
        <time>2011-04-23T11:34:05Z</time>
      </trkpt>
      <trkpt lat="31.383902141824365" lon="-4.423993555828929">
        <ele>825.90966796875</ele>
        <time>2011-04-23T11:34:14Z</time>
      </trkpt>
      <trkpt lat="31.384892044588923" lon="-4.424924366176128">
        <ele>826.87109375</ele>
        <time>2011-04-23T11:34:24Z</time>
      </trkpt>
      <trkpt lat="31.38580072671175" lon="-4.425670187920332">
        <ele>827.351806640625</ele>
        <time>2011-04-23T11:34:33Z</time>
      </trkpt>
      <trkpt lat="31.38642618432641" lon="-4.426236385479569">
        <ele>827.832275390625</ele>
        <time>2011-04-23T11:34:40Z</time>
      </trkpt>
      <trkpt lat="31.386988190934062" lon="-4.426775425672531">
        <ele>828.313232421875</ele>
        <time>2011-04-23T11:34:47Z</time>
      </trkpt>
      <trkpt lat="31.387690175324678" lon="-4.427159652113915">
        <ele>828.313232421875</ele>
        <time>2011-04-23T11:34:56Z</time>
      </trkpt>
      <trkpt lat="31.388628864660859" lon="-4.427778068929911">
        <ele>829.2744140625</ele>
        <time>2011-04-23T11:35:06Z</time>
      </trkpt>
      <trkpt lat="31.390091255307198" lon="-4.428927395492792">
        <ele>830.23583984375</ele>
        <time>2011-04-23T11:35:20Z</time>
      </trkpt>
      <trkpt lat="31.390933217480779" lon="-4.42949996329844">
        <ele>830.23583984375</ele>
        <time>2011-04-23T11:35:28Z</time>
      </trkpt>
      <trkpt lat="31.391807533800602" lon="-4.430073285475373">
        <ele>830.23583984375</ele>
        <time>2011-04-23T11:35:39Z</time>
      </trkpt>
      <trkpt lat="31.392478672787547" lon="-4.43045767955482">
        <ele>831.197265625</ele>
        <time>2011-04-23T11:35:46Z</time>
      </trkpt>
      <trkpt lat="31.393599165603518" lon="-4.431238118559122">
        <ele>831.677734375</ele>
        <time>2011-04-23T11:35:56Z</time>
      </trkpt>
      <trkpt lat="31.39485502615571" lon="-4.432218717411161">
        <ele>831.677734375</ele>
        <time>2011-04-23T11:36:08Z</time>
      </trkpt>
      <trkpt lat="31.395356263965368" lon="-4.432601183652878">
        <ele>831.677734375</ele>
        <time>2011-04-23T11:36:14Z</time>
      </trkpt>
      <trkpt lat="31.396216079592705" lon="-4.433233682066202">
        <ele>832.63916015625</ele>
        <time>2011-04-23T11:36:23Z</time>
      </trkpt>
      <trkpt lat="31.397350654006004" lon="-4.434210257604718">
        <ele>833.11962890625</ele>
        <time>2011-04-23T11:36:34Z</time>
      </trkpt>
      <trkpt lat="31.398153472691774" lon="-4.435155568644404">
        <ele>833.600341796875</ele>
        <time>2011-04-23T11:36:43Z</time>
      </trkpt>
      <trkpt lat="31.398786474019289" lon="-4.435679353773594">
        <ele>833.11962890625</ele>
        <time>2011-04-23T11:36:50Z</time>
      </trkpt>
      <trkpt lat="31.399410925805569" lon="-4.435924524441361">
        <ele>833.11962890625</ele>
        <time>2011-04-23T11:36:58Z</time>
      </trkpt>
      <trkpt lat="31.400159178301692" lon="-4.436252424493432">
        <ele>833.600341796875</ele>
        <time>2011-04-23T11:37:05Z</time>
      </trkpt>
      <trkpt lat="31.401408836245537" lon="-4.4369534868747">
        <ele>835.04248046875</ele>
        <time>2011-04-23T11:37:15Z</time>
      </trkpt>
      <trkpt lat="31.402751868590713" lon="-4.437755551189184">
        <ele>835.52294921875</ele>
        <time>2011-04-23T11:37:25Z</time>
      </trkpt>
      <trkpt lat="31.4037592895329" lon="-4.438538420945406">
        <ele>835.04248046875</ele>
        <time>2011-04-23T11:37:33Z</time>
      </trkpt>
      <trkpt lat="31.405040547251701" lon="-4.439592696726322">
        <ele>836.484375</ele>
        <time>2011-04-23T11:37:44Z</time>
      </trkpt>
      <trkpt lat="31.405988037586212" lon="-4.440293423831463">
        <ele>836.96484375</ele>
        <time>2011-04-23T11:37:52Z</time>
      </trkpt>
      <trkpt lat="31.406946424394846" lon="-4.441043520346284">
        <ele>836.003662109375</ele>
        <time>2011-04-23T11:38:00Z</time>
      </trkpt>
      <trkpt lat="31.407846976071596" lon="-4.441717676818371">
        <ele>835.52294921875</ele>
        <time>2011-04-23T11:38:09Z</time>
      </trkpt>
      <trkpt lat="31.40895782969892" lon="-4.44257028400898">
        <ele>836.003662109375</ele>
        <time>2011-04-23T11:38:19Z</time>
      </trkpt>
      <trkpt lat="31.409664591774344" lon="-4.442977225407958">
        <ele>835.04248046875</ele>
        <time>2011-04-23T11:38:26Z</time>
      </trkpt>
      <trkpt lat="31.410399433225393" lon="-4.443428842350841">
        <ele>836.484375</ele>
        <time>2011-04-23T11:38:34Z</time>
      </trkpt>
      <trkpt lat="31.411496959626675" lon="-4.444215567782521">
        <ele>837.92626953125</ele>
        <time>2011-04-23T11:38:44Z</time>
      </trkpt>
      <trkpt lat="31.412697499617934" lon="-4.445124417543411">
        <ele>837.445556640625</ele>
        <time>2011-04-23T11:38:56Z</time>
      </trkpt>
      <trkpt lat="31.41367063857615" lon="-4.445901671424508">
        <ele>833.11962890625</ele>
        <time>2011-04-23T11:39:05Z</time>
      </trkpt>
      <trkpt lat="31.414928343147039" lon="-4.446735335513949">
        <ele>829.2744140625</ele>
        <time>2011-04-23T11:39:16Z</time>
      </trkpt>
      <trkpt lat="31.416265675798059" lon="-4.447512170299888">
        <ele>827.351806640625</ele>
        <time>2011-04-23T11:39:27Z</time>
      </trkpt>
      <trkpt lat="31.417041253298521" lon="-4.447865299880505">
        <ele>825.90966796875</ele>
        <time>2011-04-23T11:39:34Z</time>
      </trkpt>
      <trkpt lat="31.417387593537569" lon="-4.448105022311211">
        <ele>824.4677734375</ele>
        <time>2011-04-23T11:39:40Z</time>
      </trkpt>
      <trkpt lat="31.417778693139553" lon="-4.448498971760273">
        <ele>824.948486328125</ele>
        <time>2011-04-23T11:39:46Z</time>
      </trkpt>
      <trkpt lat="31.418452933430672" lon="-4.449131470173597">
        <ele>823.506591796875</ele>
        <time>2011-04-23T11:39:55Z</time>
      </trkpt>
      <trkpt lat="31.419180734083056" lon="-4.449708983302116">
        <ele>823.987060546875</ele>
        <time>2011-04-23T11:40:04Z</time>
      </trkpt>
      <trkpt lat="31.419822871685028" lon="-4.450530828908086">
        <ele>824.4677734375</ele>
        <time>2011-04-23T11:40:13Z</time>
      </trkpt>
      <trkpt lat="31.420683693140745" lon="-4.451534226536751">
        <ele>824.4677734375</ele>
        <time>2011-04-23T11:40:23Z</time>
      </trkpt>
      <trkpt lat="31.421756828203797" lon="-4.452635357156396">
        <ele>824.948486328125</ele>
        <time>2011-04-23T11:40:33Z</time>
      </trkpt>
      <trkpt lat="31.42298536375165" lon="-4.453602293506265">
        <ele>824.948486328125</ele>
        <time>2011-04-23T11:40:43Z</time>
      </trkpt>
      <trkpt lat="31.423518788069487" lon="-4.454068578779697">
        <ele>824.948486328125</ele>
        <time>2011-04-23T11:40:49Z</time>
      </trkpt>
      <trkpt lat="31.424099318683147" lon="-4.454689845442772">
        <ele>824.948486328125</ele>
        <time>2011-04-23T11:40:57Z</time>
      </trkpt>
      <trkpt lat="31.425022333860397" lon="-4.455470284447074">
        <ele>823.506591796875</ele>
        <time>2011-04-23T11:41:07Z</time>
      </trkpt>
      <trkpt lat="31.426149364560843" lon="-4.456253154203296">
        <ele>822.064453125</ele>
        <time>2011-04-23T11:41:19Z</time>
      </trkpt>
      <trkpt lat="31.427229456603527" lon="-4.456695718690753">
        <ele>823.02587890625</ele>
        <time>2011-04-23T11:41:28Z</time>
      </trkpt>
      <trkpt lat="31.428677262738347" lon="-4.457189831882715">
        <ele>824.948486328125</ele>
        <time>2011-04-23T11:41:39Z</time>
      </trkpt>
      <trkpt lat="31.430163541808724" lon="-4.457414550706744">
        <ele>831.197265625</ele>
        <time>2011-04-23T11:41:49Z</time>
      </trkpt>
      <trkpt lat="31.431638924404979" lon="-4.457531645894051">
        <ele>837.92626953125</ele>
        <time>2011-04-23T11:41:59Z</time>
      </trkpt>
      <trkpt lat="31.432617176324129" lon="-4.457562239840627">
        <ele>841.290771484375</ele>
        <time>2011-04-23T11:42:06Z</time>
      </trkpt>
      <trkpt lat="31.433803550899029" lon="-4.457250097766519">
        <ele>843.694091796875</ele>
        <time>2011-04-23T11:42:15Z</time>
      </trkpt>
      <trkpt lat="31.434921780601144" lon="-4.457123698666692">
        <ele>843.21337890625</ele>
        <time>2011-04-23T11:42:24Z</time>
      </trkpt>
      <trkpt lat="31.436146628111601" lon="-4.456955725327134">
        <ele>840.81005859375</ele>
        <time>2011-04-23T11:42:34Z</time>
      </trkpt>
      <trkpt lat="31.437494521960616" lon="-4.456986235454679">
        <ele>839.848876953125</ele>
        <time>2011-04-23T11:42:44Z</time>
      </trkpt>
      <trkpt lat="31.438926234841347" lon="-4.457081370055676">
        <ele>839.848876953125</ele>
        <time>2011-04-23T11:42:54Z</time>
      </trkpt>
      <trkpt lat="31.439995681867003" lon="-4.457052620127797">
        <ele>839.848876953125</ele>
        <time>2011-04-23T11:43:02Z</time>
      </trkpt>
      <trkpt lat="31.441126652061939" lon="-4.456934854388237">
        <ele>839.848876953125</ele>
        <time>2011-04-23T11:43:11Z</time>
      </trkpt>
      <trkpt lat="31.442440096288919" lon="-4.456708459183574">
        <ele>840.32958984375</ele>
        <time>2011-04-23T11:43:22Z</time>
      </trkpt>
      <trkpt lat="31.443634098395705" lon="-4.456603936851025">
        <ele>840.32958984375</ele>
        <time>2011-04-23T11:43:31Z</time>
      </trkpt>
      <trkpt lat="31.444586366415024" lon="-4.456828236579895">
        <ele>839.848876953125</ele>
        <time>2011-04-23T11:43:38Z</time>
      </trkpt>
      <trkpt lat="31.445868629962206" lon="-4.456942481920123">
        <ele>841.290771484375</ele>
        <time>2011-04-23T11:43:47Z</time>
      </trkpt>
      <trkpt lat="31.447205962613225" lon="-4.457025965675712">
        <ele>841.290771484375</ele>
        <time>2011-04-23T11:43:56Z</time>
      </trkpt>
      <trkpt lat="31.448791148141026" lon="-4.457274321466684">
        <ele>843.694091796875</ele>
        <time>2011-04-23T11:44:06Z</time>
      </trkpt>
      <trkpt lat="31.449708295986056" lon="-4.457290582358837">
        <ele>843.21337890625</ele>
        <time>2011-04-23T11:44:13Z</time>
      </trkpt>
      <trkpt lat="31.450492842122912" lon="-4.456806862726808">
        <ele>845.13623046875</ele>
        <time>2011-04-23T11:44:20Z</time>
      </trkpt>
      <trkpt lat="31.45126523450017" lon="-4.456035895273089">
        <ele>847.53955078125</ele>
        <time>2011-04-23T11:44:28Z</time>
      </trkpt>
      <trkpt lat="31.451626578345895" lon="-4.455598359927535">
        <ele>844.655517578125</ele>
        <time>2011-04-23T11:44:34Z</time>
      </trkpt>
      <trkpt lat="31.451690699905157" lon="-4.455511271953583">
        <ele>843.21337890625</ele>
        <time>2011-04-23T11:44:39Z</time>
      </trkpt>
      <trkpt lat="31.451815338805318" lon="-4.455403564497829">
        <ele>845.616943359375</ele>
        <time>2011-04-23T11:45:51Z</time>
      </trkpt>
      <trkpt lat="31.452218927443027" lon="-4.45494968444109">
        <ele>843.21337890625</ele>
        <time>2011-04-23T11:45:59Z</time>
      </trkpt>
      <trkpt lat="31.452839691191912" lon="-4.454246023669839">
        <ele>840.32958984375</ele>
        <time>2011-04-23T11:46:09Z</time>
      </trkpt>
      <trkpt lat="31.453532874584198" lon="-4.453277243301272">
        <ele>838.8876953125</ele>
        <time>2011-04-23T11:46:20Z</time>
      </trkpt>
      <trkpt lat="31.454157829284668" lon="-4.452513316646218">
        <ele>837.92626953125</ele>
        <time>2011-04-23T11:46:29Z</time>
      </trkpt>
      <trkpt lat="31.454850928857923" lon="-4.452045941725373">
        <ele>838.8876953125</ele>
        <time>2011-04-23T11:46:36Z</time>
      </trkpt>
      <trkpt lat="31.455268766731024" lon="-4.451789120212197">
        <ele>839.848876953125</ele>
        <time>2011-04-23T11:46:40Z</time>
      </trkpt>
      <trkpt lat="31.455920627340674" lon="-4.451311519369483">
        <ele>839.3681640625</ele>
        <time>2011-04-23T11:46:47Z</time>
      </trkpt>
      <trkpt lat="31.456767618656158" lon="-4.451160561293364">
        <ele>840.81005859375</ele>
        <time>2011-04-23T11:46:54Z</time>
      </trkpt>
      <trkpt lat="31.457137428224087" lon="-4.45123951882124">
        <ele>840.81005859375</ele>
        <time>2011-04-23T11:46:57Z</time>
      </trkpt>
      <trkpt lat="31.457932032644749" lon="-4.45124396122992">
        <ele>840.81005859375</ele>
        <time>2011-04-23T11:47:04Z</time>
      </trkpt>
      <trkpt lat="31.458962252363563" lon="-4.45108906365931">
        <ele>838.8876953125</ele>
        <time>2011-04-23T11:47:13Z</time>
      </trkpt>
      <trkpt lat="31.45994477905333" lon="-4.450819417834282">
        <ele>837.445556640625</ele>
        <time>2011-04-23T11:47:21Z</time>
      </trkpt>
      <trkpt lat="31.461485540494323" lon="-4.450328154489398">
        <ele>835.04248046875</ele>
        <time>2011-04-23T11:47:33Z</time>
      </trkpt>
      <trkpt lat="31.461945958435535" lon="-4.450138220563531">
        <ele>836.003662109375</ele>
        <time>2011-04-23T11:47:37Z</time>
      </trkpt>
      <trkpt lat="31.462393635883927" lon="-4.450132856145501">
        <ele>836.484375</ele>
        <time>2011-04-23T11:47:41Z</time>
      </trkpt>
      <trkpt lat="31.463782517239451" lon="-4.450154984369874">
        <ele>836.96484375</ele>
        <time>2011-04-23T11:47:51Z</time>
      </trkpt>
      <trkpt lat="31.465139798820019" lon="-4.45000184699893">
        <ele>838.406982421875</ele>
        <time>2011-04-23T11:48:01Z</time>
      </trkpt>
      <trkpt lat="31.465702224522829" lon="-4.449927248060703">
        <ele>839.848876953125</ele>
        <time>2011-04-23T11:48:07Z</time>
      </trkpt>
      <trkpt lat="31.466442765668035" lon="-4.449810069054365">
        <ele>840.32958984375</ele>
        <time>2011-04-23T11:48:14Z</time>
      </trkpt>
      <trkpt lat="31.467387154698372" lon="-4.449633127078414">
        <ele>840.32958984375</ele>
        <time>2011-04-23T11:48:21Z</time>
      </trkpt>
      <trkpt lat="31.469092536717653" lon="-4.449544697999954">
        <ele>841.771484375</ele>
        <time>2011-04-23T11:48:33Z</time>
      </trkpt>
      <trkpt lat="31.470550149679184" lon="-4.449526844546199">
        <ele>842.73291015625</ele>
        <time>2011-04-23T11:48:43Z</time>
      </trkpt>
      <trkpt lat="31.472035925835371" lon="-4.449667828157544">
        <ele>843.21337890625</ele>
        <time>2011-04-23T11:48:53Z</time>
      </trkpt>
      <trkpt lat="31.472893729805946" lon="-4.449579566717148">
        <ele>843.694091796875</ele>
        <time>2011-04-23T11:48:59Z</time>
      </trkpt>
      <trkpt lat="31.473855637013912" lon="-4.449418382719159">
        <ele>844.175048828125</ele>
        <time>2011-04-23T11:49:06Z</time>
      </trkpt>
      <trkpt lat="31.474651247262955" lon="-4.449222078546882">
        <ele>844.175048828125</ele>
        <time>2011-04-23T11:49:12Z</time>
      </trkpt>
      <trkpt lat="31.475603766739368" lon="-4.449344873428345">
        <ele>845.13623046875</ele>
        <time>2011-04-23T11:49:19Z</time>
      </trkpt>
      <trkpt lat="31.4765639975667" lon="-4.449392398819327">
        <ele>845.616943359375</ele>
        <time>2011-04-23T11:49:26Z</time>
      </trkpt>
      <trkpt lat="31.477361116558313" lon="-4.449355099350214">
        <ele>846.09765625</ele>
        <time>2011-04-23T11:49:32Z</time>
      </trkpt>
      <trkpt lat="31.478050863370299" lon="-4.44910179823637">
        <ele>846.09765625</ele>
        <time>2011-04-23T11:49:38Z</time>
      </trkpt>
      <trkpt lat="31.478746142238379" lon="-4.449020996689796">
        <ele>846.578369140625</ele>
        <time>2011-04-23T11:49:44Z</time>
      </trkpt>
      <trkpt lat="31.479682484641671" lon="-4.449091991409659">
        <ele>846.578369140625</ele>
        <time>2011-04-23T11:49:52Z</time>
      </trkpt>
      <trkpt lat="31.480776993557811" lon="-4.449148150160909">
        <ele>846.578369140625</ele>
        <time>2011-04-23T11:50:01Z</time>
      </trkpt>
      <trkpt lat="31.48174543865025" lon="-4.449517875909805">
        <ele>847.53955078125</ele>
        <time>2011-04-23T11:50:09Z</time>
      </trkpt>
      <trkpt lat="31.482847156003118" lon="-4.449928170070052">
        <ele>848.500732421875</ele>
        <time>2011-04-23T11:50:18Z</time>
      </trkpt>
      <trkpt lat="31.484656976535916" lon="-4.450651025399566">
        <ele>848.9814453125</ele>
        <time>2011-04-23T11:50:31Z</time>
      </trkpt>
      <trkpt lat="31.486198743805289" lon="-4.450909020379186">
        <ele>849.462158203125</ele>
        <time>2011-04-23T11:50:42Z</time>
      </trkpt>
      <trkpt lat="31.487421747297049" lon="-4.451041454449296">
        <ele>849.462158203125</ele>
        <time>2011-04-23T11:50:51Z</time>
      </trkpt>
      <trkpt lat="31.488519022241235" lon="-4.451149329543114">
        <ele>849.462158203125</ele>
        <time>2011-04-23T11:50:59Z</time>
      </trkpt>
      <trkpt lat="31.489754682406783" lon="-4.451319230720401">
        <ele>849.94287109375</ele>
        <time>2011-04-23T11:51:08Z</time>
      </trkpt>
      <trkpt lat="31.491048764437437" lon="-4.451499274000526">
        <ele>849.462158203125</ele>
        <time>2011-04-23T11:51:18Z</time>
      </trkpt>
      <trkpt lat="31.492233965545893" lon="-4.451460717245936">
        <ele>849.462158203125</ele>
        <time>2011-04-23T11:51:28Z</time>
      </trkpt>
      <trkpt lat="31.493314476683736" lon="-4.45155912078917">
        <ele>848.9814453125</ele>
        <time>2011-04-23T11:51:37Z</time>
      </trkpt>
      <trkpt lat="31.494436981156468" lon="-4.45161092095077">
        <ele>848.500732421875</ele>
        <time>2011-04-23T11:51:46Z</time>
      </trkpt>
      <trkpt lat="31.495657470077276" lon="-4.451534058898687">
        <ele>848.500732421875</ele>
        <time>2011-04-23T11:51:56Z</time>
      </trkpt>
      <trkpt lat="31.496249567717314" lon="-4.45162458345294">
        <ele>848.9814453125</ele>
        <time>2011-04-23T11:52:01Z</time>
      </trkpt>
      <trkpt lat="31.497079795226455" lon="-4.451597342267633">
        <ele>848.9814453125</ele>
        <time>2011-04-23T11:52:09Z</time>
      </trkpt>
      <trkpt lat="31.49754767306149" lon="-4.451594324782491">
        <ele>848.9814453125</ele>
        <time>2011-04-23T11:52:14Z</time>
      </trkpt>
      <trkpt lat="31.498019155114889" lon="-4.451286625117064">
        <ele>848.9814453125</ele>
        <time>2011-04-23T11:52:21Z</time>
      </trkpt>
      <trkpt lat="31.498247142881155" lon="-4.450962664559484">
        <ele>847.058837890625</ele>
        <time>2011-04-23T11:52:26Z</time>
      </trkpt>
      <trkpt lat="31.498337332159281" lon="-4.450898291543126">
        <ele>847.058837890625</ele>
        <time>2011-04-23T11:52:32Z</time>
      </trkpt>
      <trkpt lat="31.498486530035734" lon="-4.450765438377857">
        <ele>847.53955078125</ele>
        <time>2011-04-23T11:54:13Z</time>
      </trkpt>
      <trkpt lat="31.499033197760582" lon="-4.450223296880722">
        <ele>844.655517578125</ele>
        <time>2011-04-23T11:54:24Z</time>
      </trkpt>
      <trkpt lat="31.499674916267395" lon="-4.449555845931172">
        <ele>842.73291015625</ele>
        <time>2011-04-23T11:54:34Z</time>
      </trkpt>
      <trkpt lat="31.500175567343831" lon="-4.448805497959256">
        <ele>840.32958984375</ele>
        <time>2011-04-23T11:54:43Z</time>
      </trkpt>
      <trkpt lat="31.500397771596909" lon="-4.448483968153596">
        <ele>838.8876953125</ele>
        <time>2011-04-23T11:54:47Z</time>
      </trkpt>
      <trkpt lat="31.500970842316747" lon="-4.448115834966302">
        <ele>838.8876953125</ele>
        <time>2011-04-23T11:54:54Z</time>
      </trkpt>
      <trkpt lat="31.501714233309031" lon="-4.447826072573662">
        <ele>843.21337890625</ele>
        <time>2011-04-23T11:55:03Z</time>
      </trkpt>
      <trkpt lat="31.501966863870621" lon="-4.447624236345291">
        <ele>846.09765625</ele>
        <time>2011-04-23T11:55:09Z</time>
      </trkpt>
      <trkpt lat="31.502185631543398" lon="-4.447254845872521">
        <ele>849.462158203125</ele>
        <time>2011-04-23T11:55:15Z</time>
      </trkpt>
      <trkpt lat="31.502295099198818" lon="-4.447035575285554">
        <ele>849.94287109375</ele>
        <time>2011-04-23T11:55:18Z</time>
      </trkpt>
      <trkpt lat="31.50245888158679" lon="-4.446449428796768">
        <ele>851.865478515625</ele>
        <time>2011-04-23T11:55:24Z</time>
      </trkpt>
      <trkpt lat="31.502780076116323" lon="-4.445884488523006">
        <ele>852.82666015625</ele>
        <time>2011-04-23T11:55:31Z</time>
      </trkpt>
      <trkpt lat="31.502948720008135" lon="-4.445543428882957">
        <ele>852.345947265625</ele>
        <time>2011-04-23T11:55:35Z</time>
      </trkpt>
      <trkpt lat="31.503280056640506" lon="-4.445237321779132">
        <ele>854.268798828125</ele>
        <time>2011-04-23T11:55:40Z</time>
      </trkpt>
      <trkpt lat="31.504069967195392" lon="-4.444826357066631">
        <ele>863.8818359375</ele>
        <time>2011-04-23T11:55:51Z</time>
      </trkpt>
      <trkpt lat="31.504265852272511" lon="-4.444671962410212">
        <ele>876.379150390625</ele>
        <time>2011-04-23T11:56:21Z</time>
      </trkpt>
      <trkpt lat="31.504734819754958" lon="-4.444208359345794">
        <ele>877.340576171875</ele>
        <time>2011-04-23T11:56:29Z</time>
      </trkpt>
      <trkpt lat="31.505158357322216" lon="-4.443881129845977">
        <ele>878.3017578125</ele>
        <time>2011-04-23T11:56:37Z</time>
      </trkpt>
      <trkpt lat="31.505586421117187" lon="-4.443799238651991">
        <ele>837.445556640625</ele>
        <time>2011-04-23T12:03:12Z</time>
      </trkpt>
      <trkpt lat="31.505662528797984" lon="-4.443736793473363">
        <ele>837.445556640625</ele>
        <time>2011-04-23T12:03:14Z</time>
      </trkpt>
      <trkpt lat="31.505947932600975" lon="-4.443571753799915">
        <ele>838.406982421875</ele>
        <time>2011-04-23T12:03:22Z</time>
      </trkpt>
      <trkpt lat="31.506290081888437" lon="-4.443037239834666">
        <ele>841.290771484375</ele>
        <time>2011-04-23T12:03:32Z</time>
      </trkpt>
      <trkpt lat="31.506477082148194" lon="-4.44275108166039">
        <ele>841.290771484375</ele>
        <time>2011-04-23T12:03:37Z</time>
      </trkpt>
      <trkpt lat="31.506545729935169" lon="-4.442614456638694">
        <ele>841.290771484375</ele>
        <time>2011-04-23T12:03:39Z</time>
      </trkpt>
      <trkpt lat="31.506812945008278" lon="-4.442338272929192">
        <ele>841.771484375</ele>
        <time>2011-04-23T12:03:44Z</time>
      </trkpt>
      <trkpt lat="31.506997849792242" lon="-4.442218830808997">
        <ele>841.771484375</ele>
        <time>2011-04-23T12:03:47Z</time>
      </trkpt>
      <trkpt lat="31.507445862516761" lon="-4.441703343763948">
        <ele>841.771484375</ele>
        <time>2011-04-23T12:03:56Z</time>
      </trkpt>
      <trkpt lat="31.507628168910742" lon="-4.441585242748261">
        <ele>841.771484375</ele>
        <time>2011-04-23T12:04:00Z</time>
      </trkpt>
      <trkpt lat="31.507739564403892" lon="-4.441566132009029">
        <ele>841.771484375</ele>
        <time>2011-04-23T12:04:02Z</time>
      </trkpt>
      <trkpt lat="31.5079290792346" lon="-4.441271843388677">
        <ele>841.771484375</ele>
        <time>2011-04-23T12:04:08Z</time>
      </trkpt>
      <trkpt lat="31.508344486355782" lon="-4.440469024702907">
        <ele>841.771484375</ele>
        <time>2011-04-23T12:04:20Z</time>
      </trkpt>
      <trkpt lat="31.508640199899673" lon="-4.439957225695252">
        <ele>838.8876953125</ele>
        <time>2011-04-23T12:04:29Z</time>
      </trkpt>
      <trkpt lat="31.50880029425025" lon="-4.439423633739352">
        <ele>839.848876953125</ele>
        <time>2011-04-23T12:04:38Z</time>
      </trkpt>
      <trkpt lat="31.508881933987141" lon="-4.438886689022183">
        <ele>839.848876953125</ele>
        <time>2011-04-23T12:04:47Z</time>
      </trkpt>
      <trkpt lat="31.50897815823555" lon="-4.438649984076619">
        <ele>841.290771484375</ele>
        <time>2011-04-23T12:04:51Z</time>
      </trkpt>
      <trkpt lat="31.509270099923015" lon="-4.438505060970783">
        <ele>840.32958984375</ele>
        <time>2011-04-23T12:04:59Z</time>
      </trkpt>
      <trkpt lat="31.509390966966748" lon="-4.438594998791814">
        <ele>840.32958984375</ele>
        <time>2011-04-23T12:05:02Z</time>
      </trkpt>
      <trkpt lat="31.509495656937361" lon="-4.438702622428536">
        <ele>839.848876953125</ele>
        <time>2011-04-23T12:05:05Z</time>
      </trkpt>
      <trkpt lat="31.509614596143365" lon="-4.439021637663245">
        <ele>839.848876953125</ele>
        <time>2011-04-23T12:05:12Z</time>
      </trkpt>
      <trkpt lat="31.509847026318312" lon="-4.439109899103642">
        <ele>840.32958984375</ele>
        <time>2011-04-23T12:05:18Z</time>
      </trkpt>
      <trkpt lat="31.510138968005776" lon="-4.439006466418505">
        <ele>839.3681640625</ele>
        <time>2011-04-23T12:05:24Z</time>
      </trkpt>
      <trkpt lat="31.510324962437153" lon="-4.439030522480607">
        <ele>839.848876953125</ele>
        <time>2011-04-23T12:05:28Z</time>
      </trkpt>
      <trkpt lat="31.510757468640804" lon="-4.439106546342373">
        <ele>839.848876953125</ele>
        <time>2011-04-23T12:05:37Z</time>
      </trkpt>
      <trkpt lat="31.510944133624434" lon="-4.439231855794787">
        <ele>839.848876953125</ele>
        <time>2011-04-23T12:05:42Z</time>
      </trkpt>
      <trkpt lat="31.511213527992368" lon="-4.439630499109626">
        <ele>840.32958984375</ele>
        <time>2011-04-23T12:05:50Z</time>
      </trkpt>
      <trkpt lat="31.511607896536589" lon="-4.43986133672297">
        <ele>842.252197265625</ele>
        <time>2011-04-23T12:05:59Z</time>
      </trkpt>
      <trkpt lat="31.512079043313861" lon="-4.440297530964017">
        <ele>842.73291015625</ele>
        <time>2011-04-23T12:06:09Z</time>
      </trkpt>
      <trkpt lat="31.512471651658416" lon="-4.440652588382363">
        <ele>843.21337890625</ele>
        <time>2011-04-23T12:06:17Z</time>
      </trkpt>
      <trkpt lat="31.512787733227015" lon="-4.440947882831097">
        <ele>844.175048828125</ele>
        <time>2011-04-23T12:06:25Z</time>
      </trkpt>
      <trkpt lat="31.512651527300477" lon="-4.440831877291203">
        <ele>845.616943359375</ele>
        <time>2011-04-23T12:07:18Z</time>
      </trkpt>
      <trkpt lat="31.512832157313824" lon="-4.440988283604384">
        <ele>848.020263671875</ele>
        <time>2011-04-23T12:08:27Z</time>
      </trkpt>
      <trkpt lat="31.513150250539184" lon="-4.44088744930923">
        <ele>847.53955078125</ele>
        <time>2011-04-23T12:08:36Z</time>
      </trkpt>
      <trkpt lat="31.513306070119143" lon="-4.440839421004057">
        <ele>846.09765625</ele>
        <time>2011-04-23T12:09:02Z</time>
      </trkpt>
      <trkpt lat="31.513677136972547" lon="-4.440820561721921">
        <ele>846.09765625</ele>
        <time>2011-04-23T12:09:13Z</time>
      </trkpt>
      <trkpt lat="31.513358876109123" lon="-4.440840175375342">
        <ele>846.09765625</ele>
        <time>2011-04-23T12:12:06Z</time>
      </trkpt>
      <trkpt lat="31.513255527243018" lon="-4.440870685502887">
        <ele>843.694091796875</ele>
        <time>2011-04-23T12:15:37Z</time>
      </trkpt>
      <trkpt lat="31.513204397633672" lon="-4.440759876742959">
        <ele>805.241455078125</ele>
        <time>2011-04-23T12:21:26Z</time>
      </trkpt>
      <trkpt lat="31.513331048190594" lon="-4.440820561721921">
        <ele>833.11962890625</ele>
        <time>2011-04-23T12:23:33Z</time>
      </trkpt>
      <trkpt lat="31.513115549460053" lon="-4.440763061866164">
        <ele>835.04248046875</ele>
        <time>2011-04-23T12:23:55Z</time>
      </trkpt>
      <trkpt lat="31.513305399566889" lon="-4.440731629729271">
        <ele>833.11962890625</ele>
        <time>2011-04-23T12:29:37Z</time>
      </trkpt>
      <trkpt lat="31.512960819527507" lon="-4.440853670239449">
        <ele>825.428955078125</ele>
        <time>2011-04-23T12:30:07Z</time>
      </trkpt>
      <trkpt lat="31.51281489059329" lon="-4.440932041034102">
        <ele>827.832275390625</ele>
        <time>2011-04-23T12:30:16Z</time>
      </trkpt>
      <trkpt lat="31.512720594182611" lon="-4.440969927236438">
        <ele>828.313232421875</ele>
        <time>2011-04-23T12:31:38Z</time>
      </trkpt>
      <trkpt lat="31.512681534513831" lon="-4.440868422389031">
        <ele>829.2744140625</ele>
        <time>2011-04-23T12:31:50Z</time>
      </trkpt>
      <trkpt lat="31.512798881158233" lon="-4.44096271879971">
        <ele>833.11962890625</ele>
        <time>2011-04-23T12:31:59Z</time>
      </trkpt>
      <trkpt lat="31.512678768485785" lon="-4.440998928621411">
        <ele>840.32958984375</ele>
        <time>2011-04-23T12:33:09Z</time>
      </trkpt>
      <trkpt lat="31.512596290558577" lon="-4.440862387418747">
        <ele>810.528564453125</ele>
        <time>2011-04-23T12:40:19Z</time>
      </trkpt>
      <trkpt lat="31.512559158727527" lon="-4.440711932256818">
        <ele>811.970703125</ele>
        <time>2011-04-23T12:40:28Z</time>
      </trkpt>
      <trkpt lat="31.51246746070683" lon="-4.440624257549644">
        <ele>814.3740234375</ele>
        <time>2011-04-23T12:40:42Z</time>
      </trkpt>
      <trkpt lat="31.512368051335216" lon="-4.44055468775332">
        <ele>812.93212890625</ele>
        <time>2011-04-23T12:41:34Z</time>
      </trkpt>
      <trkpt lat="31.512200497090816" lon="-4.440420744940639">
        <ele>811.00927734375</ele>
        <time>2011-04-23T12:41:44Z</time>
      </trkpt>
      <trkpt lat="31.511961864307523" lon="-4.440210023894906">
        <ele>811.00927734375</ele>
        <time>2011-04-23T12:41:54Z</time>
      </trkpt>
      <trkpt lat="31.511661121621728" lon="-4.439902240410447">
        <ele>811.00927734375</ele>
        <time>2011-04-23T12:42:05Z</time>
      </trkpt>
      <trkpt lat="31.511245127767324" lon="-4.439660841599107">
        <ele>811.00927734375</ele>
        <time>2011-04-23T12:42:15Z</time>
      </trkpt>
      <trkpt lat="31.511147562414408" lon="-4.439600743353367">
        <ele>811.00927734375</ele>
        <time>2011-04-23T12:42:17Z</time>
      </trkpt>
      <trkpt lat="31.510939188301563" lon="-4.439379880204797">
        <ele>810.528564453125</ele>
        <time>2011-04-23T12:42:23Z</time>
      </trkpt>
      <trkpt lat="31.510687563568354" lon="-4.438882246613503">
        <ele>811.489990234375</ele>
        <time>2011-04-23T12:42:33Z</time>
      </trkpt>
      <trkpt lat="31.510596787557006" lon="-4.438292244449258">
        <ele>811.970703125</ele>
        <time>2011-04-23T12:42:42Z</time>
      </trkpt>
      <trkpt lat="31.510579520836473" lon="-4.438145477324724">
        <ele>812.93212890625</ele>
        <time>2011-04-23T12:42:45Z</time>
      </trkpt>
      <trkpt lat="31.510641127824783" lon="-4.437866527587175">
        <ele>813.893310546875</ele>
        <time>2011-04-23T12:42:53Z</time>
      </trkpt>
      <trkpt lat="31.510817650705576" lon="-4.437763933092356">
        <ele>792.744384765625</ele>
        <time>2011-04-23T12:45:15Z</time>
      </trkpt>
      <trkpt lat="31.511143622919917" lon="-4.437381466850638">
        <ele>815.816162109375</ele>
        <time>2011-04-23T12:45:57Z</time>
      </trkpt>
      <trkpt lat="31.511526089161634" lon="-4.43694812245667">
        <ele>816.77734375</ele>
        <time>2011-04-23T12:46:08Z</time>
      </trkpt>
      <trkpt lat="31.51191484183073" lon="-4.436422074213624">
        <ele>813.893310546875</ele>
        <time>2011-04-23T12:46:20Z</time>
      </trkpt>
      <trkpt lat="31.512038391083479" lon="-4.436322832480073">
        <ele>815.816162109375</ele>
        <time>2011-04-23T12:46:27Z</time>
      </trkpt>
      <trkpt lat="31.512343659996986" lon="-4.436651570722461">
        <ele>820.141845703125</ele>
        <time>2011-04-23T12:46:35Z</time>
      </trkpt>
      <trkpt lat="31.512850597500801" lon="-4.437285326421261">
        <ele>823.987060546875</ele>
        <time>2011-04-23T12:46:43Z</time>
      </trkpt>
      <trkpt lat="31.513890121132135" lon="-4.438347732648253">
        <ele>828.313232421875</ele>
        <time>2011-04-23T12:46:55Z</time>
      </trkpt>
      <trkpt lat="31.515072472393513" lon="-4.439394548535347">
        <ele>829.755126953125</ele>
        <time>2011-04-23T12:47:07Z</time>
      </trkpt>
      <trkpt lat="31.516000181436539" lon="-4.440274145454168">
        <ele>832.158447265625</ele>
        <time>2011-04-23T12:47:17Z</time>
      </trkpt>
      <trkpt lat="31.516815992072225" lon="-4.441227670758963">
        <ele>832.63916015625</ele>
        <time>2011-04-23T12:47:25Z</time>
      </trkpt>
      <trkpt lat="31.517803799360991" lon="-4.44251068867743">
        <ele>834.0810546875</ele>
        <time>2011-04-23T12:47:36Z</time>
      </trkpt>
      <trkpt lat="31.518097836524248" lon="-4.442878235131502">
        <ele>835.04248046875</ele>
        <time>2011-04-23T12:47:41Z</time>
      </trkpt>
      <trkpt lat="31.51862908154726" lon="-4.443563623353839">
        <ele>836.96484375</ele>
        <time>2011-04-23T12:47:51Z</time>
      </trkpt>
      <trkpt lat="31.518822116777301" lon="-4.443787336349487">
        <ele>837.92626953125</ele>
        <time>2011-04-23T12:47:57Z</time>
      </trkpt>
      <trkpt lat="31.519040884450078" lon="-4.443667726591229">
        <ele>836.484375</ele>
        <time>2011-04-23T12:48:04Z</time>
      </trkpt>
      <trkpt lat="31.51900677010417" lon="-4.443445270881057">
        <ele>835.52294921875</ele>
        <time>2011-04-23T12:48:09Z</time>
      </trkpt>
      <trkpt lat="31.518635284155607" lon="-4.442967083305121">
        <ele>831.197265625</ele>
        <time>2011-04-23T12:48:19Z</time>
      </trkpt>
      <trkpt lat="31.518483152613044" lon="-4.442900195717812">
        <ele>830.716552734375</ele>
        <time>2011-04-23T12:48:27Z</time>
      </trkpt>
      <trkpt lat="31.518581137061119" lon="-4.44291528314352">
        <ele>845.616943359375</ele>
        <time>2011-04-23T14:02:42Z</time>
      </trkpt>
      <trkpt lat="31.518787583336234" lon="-4.443190461024642">
        <ele>843.694091796875</ele>
        <time>2011-04-23T14:03:00Z</time>
      </trkpt>
      <trkpt lat="31.51906494051218" lon="-4.44357049651444">
        <ele>843.21337890625</ele>
        <time>2011-04-23T14:03:13Z</time>
      </trkpt>
      <trkpt lat="31.518973158672452" lon="-4.443723047152162">
        <ele>843.21337890625</ele>
        <time>2011-04-23T14:03:19Z</time>
      </trkpt>
      <trkpt lat="31.518961256369948" lon="-4.443967798724771">
        <ele>844.655517578125</ele>
        <time>2011-04-23T14:03:27Z</time>
      </trkpt>
      <trkpt lat="31.519337939098477" lon="-4.444464594125748">
        <ele>854.268798828125</ele>
        <time>2011-04-23T14:03:34Z</time>
      </trkpt>
      <trkpt lat="31.520076636224985" lon="-4.445424992591143">
        <ele>868.6884765625</ele>
        <time>2011-04-23T14:03:43Z</time>
      </trkpt>
      <trkpt lat="31.521270722150803" lon="-4.446871625259519">
        <ele>884.069580078125</ele>
        <time>2011-04-23T14:03:54Z</time>
      </trkpt>
      <trkpt lat="31.521703395992517" lon="-4.447413682937622">
        <ele>889.356689453125</ele>
        <time>2011-04-23T14:03:58Z</time>
      </trkpt>
      <trkpt lat="31.521997768431902" lon="-4.448243239894509">
        <ele>894.16357421875</ele>
        <time>2011-04-23T14:04:03Z</time>
      </trkpt>
      <trkpt lat="31.522199353203177" lon="-4.45002137683332">
        <ele>905.69921875</ele>
        <time>2011-04-23T14:04:13Z</time>
      </trkpt>
      <trkpt lat="31.522596320137382" lon="-4.451916944235563">
        <ele>913.870361328125</ele>
        <time>2011-04-23T14:04:25Z</time>
      </trkpt>
      <trkpt lat="31.52316159568727" lon="-4.454188188537955">
        <ele>916.273681640625</ele>
        <time>2011-04-23T14:04:41Z</time>
      </trkpt>
      <trkpt lat="31.523562166839838" lon="-4.456082917749882">
        <ele>911.46728515625</ele>
        <time>2011-04-23T14:04:56Z</time>
      </trkpt>
      <trkpt lat="31.523750172927976" lon="-4.456997131928802">
        <ele>909.06396484375</ele>
        <time>2011-04-23T14:05:05Z</time>
      </trkpt>
      <trkpt lat="31.523994756862521" lon="-4.458132041618228">
        <ele>914.831787109375</ele>
        <time>2011-04-23T14:05:14Z</time>
      </trkpt>
      <trkpt lat="31.524325255304575" lon="-4.4595857989043">
        <ele>923.964111328125</ele>
        <time>2011-04-23T14:05:25Z</time>
      </trkpt>
      <trkpt lat="31.524639241397381" lon="-4.460920868441463">
        <ele>927.3291015625</ele>
        <time>2011-04-23T14:05:36Z</time>
      </trkpt>
      <trkpt lat="31.524936547502875" lon="-4.462163737043738">
        <ele>927.8095703125</ele>
        <time>2011-04-23T14:05:45Z</time>
      </trkpt>
      <trkpt lat="31.525507522746921" lon="-4.463639622554183">
        <ele>926.36767578125</ele>
        <time>2011-04-23T14:05:55Z</time>
      </trkpt>
      <trkpt lat="31.526177488267422" lon="-4.464679732918739">
        <ele>919.15771484375</ele>
        <time>2011-04-23T14:06:03Z</time>
      </trkpt>
      <trkpt lat="31.52704811654985" lon="-4.465828640386462">
        <ele>913.389892578125</ele>
        <time>2011-04-23T14:06:13Z</time>
      </trkpt>
      <trkpt lat="31.527154063805938" lon="-4.466021424159408">
        <ele>908.583251953125</ele>
        <time>2011-04-23T14:06:15Z</time>
      </trkpt>
      <trkpt lat="31.52744734659791" lon="-4.46624337695539">
        <ele>898.0087890625</ele>
        <time>2011-04-23T14:06:21Z</time>
      </trkpt>
      <trkpt lat="31.528210351243615" lon="-4.4662912376225">
        <ele>876.379150390625</ele>
        <time>2011-04-23T14:06:33Z</time>
      </trkpt>
      <trkpt lat="31.529012247920036" lon="-4.466117061674595">
        <ele>863.4013671875</ele>
        <time>2011-04-23T14:06:44Z</time>
      </trkpt>
      <trkpt lat="31.52973024174571" lon="-4.465849846601486">
        <ele>856.671875</ele>
        <time>2011-04-23T14:06:55Z</time>
      </trkpt>
      <trkpt lat="31.529919756576419" lon="-4.465803578495979">
        <ele>855.22998046875</ele>
        <time>2011-04-23T14:06:58Z</time>
      </trkpt>
      <trkpt lat="31.53021345846355" lon="-4.465795364230871">
        <ele>853.7880859375</ele>
        <time>2011-04-23T14:07:03Z</time>
      </trkpt>
      <trkpt lat="31.530682845041156" lon="-4.465775834396482">
        <ele>852.82666015625</ele>
        <time>2011-04-23T14:07:11Z</time>
      </trkpt>
      <trkpt lat="31.531046284362674" lon="-4.465803494676948">
        <ele>851.865478515625</ele>
        <time>2011-04-23T14:07:17Z</time>
      </trkpt>
      <trkpt lat="31.531278630718589" lon="-4.466048497706652">
        <ele>851.384765625</ele>
        <time>2011-04-23T14:07:23Z</time>
      </trkpt>
      <trkpt lat="31.53144677169621" lon="-4.466265672817826">
        <ele>851.384765625</ele>
        <time>2011-04-23T14:07:27Z</time>
      </trkpt>
      <trkpt lat="31.531674927100539" lon="-4.46644714102149">
        <ele>851.384765625</ele>
        <time>2011-04-23T14:07:31Z</time>
      </trkpt>
      <trkpt lat="31.531892353668809" lon="-4.466500282287598">
        <ele>851.384765625</ele>
        <time>2011-04-23T14:07:35Z</time>
      </trkpt>
      <trkpt lat="31.532123275101185" lon="-4.466565493494272">
        <ele>850.904052734375</ele>
        <time>2011-04-23T14:07:39Z</time>
      </trkpt>
      <trkpt lat="31.532222433015704" lon="-4.466622658073902">
        <ele>850.904052734375</ele>
        <time>2011-04-23T14:07:41Z</time>
      </trkpt>
      <trkpt lat="31.532518062740564" lon="-4.466608744114637">
        <ele>850.423583984375</ele>
        <time>2011-04-23T14:07:48Z</time>
      </trkpt>
      <trkpt lat="31.532630380243063" lon="-4.466700358316302">
        <ele>850.423583984375</ele>
        <time>2011-04-23T14:07:52Z</time>
      </trkpt>
      <trkpt lat="31.532888794317842" lon="-4.467142252251506">
        <ele>850.904052734375</ele>
        <time>2011-04-23T14:08:02Z</time>
      </trkpt>
      <trkpt lat="31.532921819016337" lon="-4.467414496466517">
        <ele>851.865478515625</ele>
        <time>2011-04-23T14:08:07Z</time>
      </trkpt>
      <trkpt lat="31.533006560057402" lon="-4.467810541391373">
        <ele>851.865478515625</ele>
        <time>2011-04-23T14:08:15Z</time>
      </trkpt>
      <trkpt lat="31.533225160092115" lon="-4.467878518626094">
        <ele>851.384765625</ele>
        <time>2011-04-23T14:08:20Z</time>
      </trkpt>
      <trkpt lat="31.533872997388244" lon="-4.467779863625765">
        <ele>849.94287109375</ele>
        <time>2011-04-23T14:08:33Z</time>
      </trkpt>
      <trkpt lat="31.534190671518445" lon="-4.467812217772007">
        <ele>850.423583984375</ele>
        <time>2011-04-23T14:08:40Z</time>
      </trkpt>
      <trkpt lat="31.53433408588171" lon="-4.467774834483862">
        <ele>850.904052734375</ele>
        <time>2011-04-23T14:08:43Z</time>
      </trkpt>
      <trkpt lat="31.534534748643637" lon="-4.467758657410741">
        <ele>851.384765625</ele>
        <time>2011-04-23T14:08:48Z</time>
      </trkpt>
      <trkpt lat="31.534656453877687" lon="-4.467705935239792">
        <ele>851.384765625</ele>
        <time>2011-04-23T14:08:51Z</time>
      </trkpt>
      <trkpt lat="31.535192728042603" lon="-4.467664444819093">
        <ele>850.904052734375</ele>
        <time>2011-04-23T14:09:03Z</time>
      </trkpt>
      <trkpt lat="31.535318791866302" lon="-4.467926295474172">
        <ele>849.94287109375</ele>
        <time>2011-04-23T14:09:11Z</time>
      </trkpt>
      <trkpt lat="31.535517442971468" lon="-4.468216225504875">
        <ele>849.462158203125</ele>
        <time>2011-04-23T14:09:20Z</time>
      </trkpt>
      <trkpt lat="31.535726319998503" lon="-4.468146320432425">
        <ele>848.500732421875</ele>
        <time>2011-04-23T14:09:25Z</time>
      </trkpt>
      <trkpt lat="31.536079868674278" lon="-4.467850858345628">
        <ele>848.500732421875</ele>
        <time>2011-04-23T14:09:36Z</time>
      </trkpt>
      <trkpt lat="31.536396620795131" lon="-4.467567298561335">
        <ele>848.500732421875</ele>
        <time>2011-04-23T14:09:48Z</time>
      </trkpt>
      <trkpt lat="31.536527294665575" lon="-4.467229256406426">
        <ele>849.94287109375</ele>
        <time>2011-04-23T14:09:58Z</time>
      </trkpt>
      <trkpt lat="31.536494437605143" lon="-4.467015434056521">
        <ele>851.384765625</ele>
        <time>2011-04-23T14:10:06Z</time>
      </trkpt>
      <trkpt lat="31.536505334079266" lon="-4.466726090759039">
        <ele>848.500732421875</ele>
        <time>2011-04-23T14:10:14Z</time>
      </trkpt>
      <trkpt lat="31.536446996033192" lon="-4.466289980337024">
        <ele>847.53955078125</ele>
        <time>2011-04-23T14:10:25Z</time>
      </trkpt>
      <trkpt lat="31.536424197256565" lon="-4.465807434171438">
        <ele>846.578369140625</ele>
        <time>2011-04-23T14:10:37Z</time>
      </trkpt>
      <trkpt lat="31.536409948021173" lon="-4.465672820806503">
        <ele>845.13623046875</ele>
        <time>2011-04-23T14:11:08Z</time>
      </trkpt>
      <trkpt lat="31.536408271640539" lon="-4.46554021909833">
        <ele>844.175048828125</ele>
        <time>2011-04-23T14:11:57Z</time>
      </trkpt>
      <trkpt lat="31.536618992686272" lon="-4.465625379234552">
        <ele>843.694091796875</ele>
        <time>2011-04-23T14:12:19Z</time>
      </trkpt>
      <trkpt lat="31.53689056634903" lon="-4.465954033657908">
        <ele>845.13623046875</ele>
        <time>2011-04-23T14:12:27Z</time>
      </trkpt>
      <trkpt lat="31.536970697343349" lon="-4.466045564040542">
        <ele>845.13623046875</ele>
        <time>2011-04-23T14:12:29Z</time>
      </trkpt>
      <trkpt lat="31.537195919081569" lon="-4.466195767745376">
        <ele>846.09765625</ele>
        <time>2011-04-23T14:12:34Z</time>
      </trkpt>
      <trkpt lat="31.537468917667866" lon="-4.466190235689282">
        <ele>845.616943359375</ele>
        <time>2011-04-23T14:12:41Z</time>
      </trkpt>
      <trkpt lat="31.537709226831794" lon="-4.466335577890277">
        <ele>845.616943359375</ele>
        <time>2011-04-23T14:12:48Z</time>
      </trkpt>
      <trkpt lat="31.537830932065845" lon="-4.466377990320325">
        <ele>845.616943359375</ele>
        <time>2011-04-23T14:12:53Z</time>
      </trkpt>
      <trkpt lat="31.538113486021757" lon="-4.466335661709309">
        <ele>845.616943359375</ele>
        <time>2011-04-23T14:13:01Z</time>
      </trkpt>
      <trkpt lat="31.538255643099546" lon="-4.466274054720998">
        <ele>846.09765625</ele>
        <time>2011-04-23T14:13:06Z</time>
      </trkpt>
      <trkpt lat="31.538426969200373" lon="-4.466375894844532">
        <ele>846.578369140625</ele>
        <time>2011-04-23T14:13:15Z</time>
      </trkpt>
      <trkpt lat="31.538435854017735" lon="-4.466098872944713">
        <ele>837.445556640625</ele>
        <time>2011-04-23T14:18:19Z</time>
      </trkpt>
      <trkpt lat="31.538314819335938" lon="-4.465915393084288">
        <ele>836.96484375</ele>
        <time>2011-04-23T14:18:34Z</time>
      </trkpt>
      <trkpt lat="31.538425628095865" lon="-4.465575758367777">
        <ele>836.484375</ele>
        <time>2011-04-23T14:18:41Z</time>
      </trkpt>
      <trkpt lat="31.538456473499537" lon="-4.465467967092991">
        <ele>836.484375</ele>
        <time>2011-04-23T14:18:43Z</time>
      </trkpt>
      <trkpt lat="31.538516823202372" lon="-4.465236123651266">
        <ele>836.96484375</ele>
        <time>2011-04-23T14:18:48Z</time>
      </trkpt>
      <trkpt lat="31.538606928661466" lon="-4.464716361835599">
        <ele>837.92626953125</ele>
        <time>2011-04-23T14:18:57Z</time>
      </trkpt>
      <trkpt lat="31.538652945309877" lon="-4.464591471478343">
        <ele>838.406982421875</ele>
        <time>2011-04-23T14:18:59Z</time>
      </trkpt>
      <trkpt lat="31.538673397153616" lon="-4.464258877560496">
        <ele>839.3681640625</ele>
        <time>2011-04-23T14:19:07Z</time>
      </trkpt>
      <trkpt lat="31.538556553423405" lon="-4.464118564501405">
        <ele>838.406982421875</ele>
        <time>2011-04-23T14:19:27Z</time>
      </trkpt>
      <trkpt lat="31.538396375253797" lon="-4.463977832347155">
        <ele>835.04248046875</ele>
        <time>2011-04-23T14:20:32Z</time>
      </trkpt>
      <trkpt lat="31.538501987233758" lon="-4.463958721607924">
        <ele>840.81005859375</ele>
        <time>2011-04-23T14:20:55Z</time>
      </trkpt>
      <trkpt lat="31.53857097029686" lon="-4.464126694947481">
        <ele>844.655517578125</ele>
        <time>2011-04-23T14:21:34Z</time>
      </trkpt>
      <trkpt lat="31.538787642493844" lon="-4.464347390457988">
        <ele>845.616943359375</ele>
        <time>2011-04-23T14:21:48Z</time>
      </trkpt>
      <trkpt lat="31.538940779864788" lon="-4.464270696043968">
        <ele>845.616943359375</ele>
        <time>2011-04-23T14:22:09Z</time>
      </trkpt>
      <trkpt lat="31.539063239470124" lon="-4.464118480682373">
        <ele>844.655517578125</ele>
        <time>2011-04-23T14:25:55Z</time>
      </trkpt>
      <trkpt lat="31.539248479530215" lon="-4.464064752683044">
        <ele>844.655517578125</ele>
        <time>2011-04-23T14:26:04Z</time>
      </trkpt>
      <trkpt lat="31.539344284683466" lon="-4.464110434055328">
        <ele>844.655517578125</ele>
        <time>2011-04-23T14:26:16Z</time>
      </trkpt>
      <trkpt lat="31.539354845881462" lon="-4.463975820690393">
        <ele>840.32958984375</ele>
        <time>2011-04-23T14:28:18Z</time>
      </trkpt>
      <trkpt lat="31.539630945771933" lon="-4.463999541476369">
        <ele>844.175048828125</ele>
        <time>2011-04-23T14:28:31Z</time>
      </trkpt>
      <trkpt lat="31.539869997650385" lon="-4.463949669152498">
        <ele>845.13623046875</ele>
        <time>2011-04-23T14:28:37Z</time>
      </trkpt>
      <trkpt lat="31.540081556886435" lon="-4.463839950039983">
        <ele>846.578369140625</ele>
        <time>2011-04-23T14:28:42Z</time>
      </trkpt>
      <trkpt lat="31.540361177176237" lon="-4.463743641972542">
        <ele>848.9814453125</ele>
        <time>2011-04-23T14:28:50Z</time>
      </trkpt>
      <trkpt lat="31.540533760562539" lon="-4.463707096874714">
        <ele>850.423583984375</ele>
        <time>2011-04-23T14:28:54Z</time>
      </trkpt>
      <trkpt lat="31.540650520473719" lon="-4.463707767426968">
        <ele>850.423583984375</ele>
        <time>2011-04-23T14:28:56Z</time>
      </trkpt>
      <trkpt lat="31.541281091049314" lon="-4.463637443259358">
        <ele>849.94287109375</ele>
        <time>2011-04-23T14:29:08Z</time>
      </trkpt>
      <trkpt lat="31.541439760476351" lon="-4.463638532906771">
        <ele>849.94287109375</ele>
        <time>2011-04-23T14:29:11Z</time>
      </trkpt>
      <trkpt lat="31.541658863425255" lon="-4.463557731360197">
        <ele>851.384765625</ele>
        <time>2011-04-23T14:29:19Z</time>
      </trkpt>
      <trkpt lat="31.541777886450291" lon="-4.463499980047345">
        <ele>855.22998046875</ele>
        <time>2011-04-23T14:29:49Z</time>
      </trkpt>
      <trkpt lat="31.542047196999192" lon="-4.463490759953857">
        <ele>854.268798828125</ele>
        <time>2011-04-23T14:29:53Z</time>
      </trkpt>
      <trkpt lat="31.542508872225881" lon="-4.463475588709116">
        <ele>853.307373046875</ele>
        <time>2011-04-23T14:30:01Z</time>
      </trkpt>
      <trkpt lat="31.542645078152418" lon="-4.463571142405272">
        <ele>851.384765625</ele>
        <time>2011-04-23T14:30:05Z</time>
      </trkpt>
      <trkpt lat="31.542692016810179" lon="-4.463710617274046">
        <ele>845.13623046875</ele>
        <time>2011-04-23T14:30:42Z</time>
      </trkpt>
      <trkpt lat="31.542588248848915" lon="-4.463645489886403">
        <ele>847.058837890625</ele>
        <time>2011-04-23T14:30:50Z</time>
      </trkpt>
      <trkpt lat="31.542685059830546" lon="-4.46375135332346">
        <ele>849.94287109375</ele>
        <time>2011-04-23T14:32:56Z</time>
      </trkpt>
      <trkpt lat="31.542908940464258" lon="-4.463913794606924">
        <ele>851.384765625</ele>
        <time>2011-04-23T14:33:23Z</time>
      </trkpt>
      <trkpt lat="31.543222172185779" lon="-4.464131137356162">
        <ele>851.865478515625</ele>
        <time>2011-04-23T14:33:35Z</time>
      </trkpt>
      <trkpt lat="31.543380925431848" lon="-4.464246891438961">
        <ele>853.7880859375</ele>
        <time>2011-04-23T14:34:57Z</time>
      </trkpt>
      <trkpt lat="31.543776551261544" lon="-4.464510083198547">
        <ele>852.82666015625</ele>
        <time>2011-04-23T14:35:09Z</time>
      </trkpt>
      <trkpt lat="31.544347442686558" lon="-4.46479314006865">
        <ele>852.82666015625</ele>
        <time>2011-04-23T14:35:22Z</time>
      </trkpt>
      <trkpt lat="31.545151518657804" lon="-4.465266885235906">
        <ele>854.268798828125</ele>
        <time>2011-04-23T14:35:35Z</time>
      </trkpt>
      <trkpt lat="31.546221217140555" lon="-4.465854037553072">
        <ele>855.22998046875</ele>
        <time>2011-04-23T14:35:50Z</time>
      </trkpt>
      <trkpt lat="31.547162085771561" lon="-4.466379079967737">
        <ele>856.191162109375</ele>
        <time>2011-04-23T14:36:01Z</time>
      </trkpt>
      <trkpt lat="31.547906482592225" lon="-4.466921472921968">
        <ele>857.152587890625</ele>
        <time>2011-04-23T14:36:10Z</time>
      </trkpt>
      <trkpt lat="31.549235349521041" lon="-4.468020340427756">
        <ele>857.63330078125</ele>
        <time>2011-04-23T14:36:26Z</time>
      </trkpt>
      <trkpt lat="31.550590954720974" lon="-4.468846963718534">
        <ele>858.114013671875</ele>
        <time>2011-04-23T14:36:40Z</time>
      </trkpt>
      <trkpt lat="31.551949745044112" lon="-4.469776852056384">
        <ele>852.345947265625</ele>
        <time>2011-04-23T14:36:55Z</time>
      </trkpt>
      <trkpt lat="31.553428983315825" lon="-4.470723420381546">
        <ele>848.020263671875</ele>
        <time>2011-04-23T14:37:09Z</time>
      </trkpt>
      <trkpt lat="31.554605718702078" lon="-4.471539650112391">
        <ele>848.500732421875</ele>
        <time>2011-04-23T14:37:21Z</time>
      </trkpt>
      <trkpt lat="31.555786728858948" lon="-4.472452439367771">
        <ele>855.22998046875</ele>
        <time>2011-04-23T14:37:33Z</time>
      </trkpt>
      <trkpt lat="31.557060526683927" lon="-4.473327929154038">
        <ele>856.191162109375</ele>
        <time>2011-04-23T14:37:45Z</time>
      </trkpt>
      <trkpt lat="31.558627439662814" lon="-4.474133094772697">
        <ele>860.517333984375</ele>
        <time>2011-04-23T14:37:58Z</time>
      </trkpt>
      <trkpt lat="31.560128219425678" lon="-4.475041441619396">
        <ele>861.478759765625</ele>
        <time>2011-04-23T14:38:10Z</time>
      </trkpt>
      <trkpt lat="31.561236390843987" lon="-4.475832860916853">
        <ele>862.43994140625</ele>
        <time>2011-04-23T14:38:20Z</time>
      </trkpt>
      <trkpt lat="31.56222646124661" lon="-4.476171657443047">
        <ele>863.8818359375</ele>
        <time>2011-04-23T14:38:28Z</time>
      </trkpt>
      <trkpt lat="31.563498750329018" lon="-4.47627542540431">
        <ele>864.84326171875</ele>
        <time>2011-04-23T14:38:38Z</time>
      </trkpt>
      <trkpt lat="31.564612118527293" lon="-4.476319178938866">
        <ele>865.323974609375</ele>
        <time>2011-04-23T14:38:49Z</time>
      </trkpt>
      <trkpt lat="31.565486853942275" lon="-4.476550770923495">
        <ele>864.84326171875</ele>
        <time>2011-04-23T14:38:58Z</time>
      </trkpt>
      <trkpt lat="31.566666522994637" lon="-4.476953437551856">
        <ele>865.323974609375</ele>
        <time>2011-04-23T14:39:09Z</time>
      </trkpt>
      <trkpt lat="31.567753152921796" lon="-4.477465488016605">
        <ele>865.8046875</ele>
        <time>2011-04-23T14:39:19Z</time>
      </trkpt>
      <trkpt lat="31.568857384845614" lon="-4.478054651990533">
        <ele>867.24658203125</ele>
        <time>2011-04-23T14:39:29Z</time>
      </trkpt>
      <trkpt lat="31.569407070055604" lon="-4.478106535971165">
        <ele>867.24658203125</ele>
        <time>2011-04-23T14:39:34Z</time>
      </trkpt>
      <trkpt lat="31.570304436609149" lon="-4.477744773030281">
        <ele>867.24658203125</ele>
        <time>2011-04-23T14:39:42Z</time>
      </trkpt>
      <trkpt lat="31.571211023256183" lon="-4.477313859388232">
        <ele>867.72705078125</ele>
        <time>2011-04-23T14:39:51Z</time>
      </trkpt>
      <trkpt lat="31.572298826649785" lon="-4.47681924328208">
        <ele>868.6884765625</ele>
        <time>2011-04-23T14:40:02Z</time>
      </trkpt>
      <trkpt lat="31.57334472052753" lon="-4.476327644661069">
        <ele>867.72705078125</ele>
        <time>2011-04-23T14:40:13Z</time>
      </trkpt>
      <trkpt lat="31.574117448180914" lon="-4.476128490641713">
        <ele>868.6884765625</ele>
        <time>2011-04-23T14:40:20Z</time>
      </trkpt>
      <trkpt lat="31.574899395927787" lon="-4.475682489573956">
        <ele>869.169189453125</ele>
        <time>2011-04-23T14:40:29Z</time>
      </trkpt>
      <trkpt lat="31.575491158291698" lon="-4.475308321416378">
        <ele>869.169189453125</ele>
        <time>2011-04-23T14:40:37Z</time>
      </trkpt>
      <trkpt lat="31.576175289228559" lon="-4.47477774694562">
        <ele>869.169189453125</ele>
        <time>2011-04-23T14:40:46Z</time>
      </trkpt>
      <trkpt lat="31.577139878645539" lon="-4.474388239905238">
        <ele>869.64990234375</ele>
        <time>2011-04-23T14:40:56Z</time>
      </trkpt>
      <trkpt lat="31.577751589938998" lon="-4.474258990958333">
        <ele>870.611083984375</ele>
        <time>2011-04-23T14:41:02Z</time>
      </trkpt>
      <trkpt lat="31.578206140547991" lon="-4.473922960460186">
        <ele>871.091796875</ele>
        <time>2011-04-23T14:41:08Z</time>
      </trkpt>
      <trkpt lat="31.578424237668514" lon="-4.473647028207779">
        <ele>871.091796875</ele>
        <time>2011-04-23T14:41:12Z</time>
      </trkpt>
      <trkpt lat="31.578927654772997" lon="-4.473446030169725">
        <ele>871.572265625</ele>
        <time>2011-04-23T14:41:18Z</time>
      </trkpt>
      <trkpt lat="31.579401651397347" lon="-4.473608052358031">
        <ele>871.091796875</ele>
        <time>2011-04-23T14:41:23Z</time>
      </trkpt>
      <trkpt lat="31.579481195658445" lon="-4.473679885268211">
        <ele>870.611083984375</ele>
        <time>2011-04-23T14:41:24Z</time>
      </trkpt>
      <trkpt lat="31.580002633854747" lon="-4.474135274067521">
        <ele>867.72705078125</ele>
        <time>2011-04-23T14:41:30Z</time>
      </trkpt>
      <trkpt lat="31.580694057047367" lon="-4.475039597600699">
        <ele>863.8818359375</ele>
        <time>2011-04-23T14:41:40Z</time>
      </trkpt>
      <trkpt lat="31.581564182415605" lon="-4.476171657443047">
        <ele>859.555908203125</ele>
        <time>2011-04-23T14:41:53Z</time>
      </trkpt>
      <trkpt lat="31.581983361393213" lon="-4.476785799488425">
        <ele>857.63330078125</ele>
        <time>2011-04-23T14:42:02Z</time>
      </trkpt>
      <trkpt lat="31.582228951156139" lon="-4.477431625127792">
        <ele>856.671875</ele>
        <time>2011-04-23T14:42:10Z</time>
      </trkpt>
      <trkpt lat="31.582262394949794" lon="-4.477655086666346">
        <ele>856.191162109375</ele>
        <time>2011-04-23T14:42:13Z</time>
      </trkpt>
      <trkpt lat="31.582244541496038" lon="-4.477893467992544">
        <ele>855.710693359375</ele>
        <time>2011-04-23T14:42:19Z</time>
      </trkpt>
      <trkpt lat="31.581999873742461" lon="-4.478184739127755">
        <ele>905.218505859375</ele>
        <time>2011-04-23T14:52:55Z</time>
      </trkpt>
      <trkpt lat="31.581765851005912" lon="-4.478416834026575">
        <ele>907.621826171875</ele>
        <time>2011-04-23T14:53:00Z</time>
      </trkpt>
      <trkpt lat="31.581519339233637" lon="-4.478569719940424">
        <ele>911.947998046875</ele>
        <time>2011-04-23T14:53:04Z</time>
      </trkpt>
      <trkpt lat="31.581358155235648" lon="-4.478626465424895">
        <ele>916.273681640625</ele>
        <time>2011-04-23T14:53:07Z</time>
      </trkpt>
      <trkpt lat="31.581027740612626" lon="-4.478632751852274">
        <ele>926.848388671875</ele>
        <time>2011-04-23T14:53:14Z</time>
      </trkpt>
      <trkpt lat="31.580851133912802" lon="-4.478677678853273">
        <ele>931.17431640625</ele>
        <time>2011-04-23T14:53:17Z</time>
      </trkpt>
      <trkpt lat="31.580577045679092" lon="-4.478676170110703">
        <ele>935.01953125</ele>
        <time>2011-04-23T14:53:21Z</time>
      </trkpt>
      <trkpt lat="31.580467829480767" lon="-4.478647755458951">
        <ele>936.46142578125</ele>
        <time>2011-04-23T14:53:23Z</time>
      </trkpt>
      <trkpt lat="31.580261299386621" lon="-4.478508532047272">
        <ele>940.787353515625</ele>
        <time>2011-04-23T14:53:28Z</time>
      </trkpt>
      <trkpt lat="31.579946558922529" lon="-4.4783481862396">
        <ele>940.787353515625</ele>
        <time>2011-04-23T14:53:35Z</time>
      </trkpt>
      <trkpt lat="31.57984203658998" lon="-4.478229163214564">
        <ele>942.2294921875</ele>
        <time>2011-04-23T14:53:39Z</time>
      </trkpt>
      <trkpt lat="31.579868942499161" lon="-4.478014251217246">
        <ele>937.422607421875</ele>
        <time>2011-04-23T14:53:46Z</time>
      </trkpt>
      <trkpt lat="31.579813621938229" lon="-4.477735133841634">
        <ele>936.94189453125</ele>
        <time>2011-04-23T14:53:51Z</time>
      </trkpt>
      <trkpt lat="31.579729383811355" lon="-4.477578392252326">
        <ele>940.787353515625</ele>
        <time>2011-04-23T14:53:54Z</time>
      </trkpt>
      <trkpt lat="31.579676158726215" lon="-4.477135492488742">
        <ele>941.748779296875</ele>
        <time>2011-04-23T14:54:02Z</time>
      </trkpt>
      <trkpt lat="31.579725192859769" lon="-4.477010183036327">
        <ele>939.825927734375</ele>
        <time>2011-04-23T14:54:04Z</time>
      </trkpt>
      <trkpt lat="31.580154430121183" lon="-4.476477261632681">
        <ele>931.65478515625</ele>
        <time>2011-04-23T14:54:13Z</time>
      </trkpt>
      <trkpt lat="31.580293066799641" lon="-4.476382797583938">
        <ele>926.848388671875</ele>
        <time>2011-04-23T14:54:18Z</time>
      </trkpt>
      <trkpt lat="31.580367917194963" lon="-4.476319095119834">
        <ele>927.3291015625</ele>
        <time>2011-04-23T14:54:30Z</time>
      </trkpt>
      <trkpt lat="31.580774188041687" lon="-4.476153217256069">
        <ele>928.77099609375</ele>
        <time>2011-04-23T14:54:37Z</time>
      </trkpt>
      <trkpt lat="31.581335691735148" lon="-4.47632915340364">
        <ele>927.8095703125</ele>
        <time>2011-04-23T14:54:45Z</time>
      </trkpt>
      <trkpt lat="31.581750679761171" lon="-4.476937847211957">
        <ele>927.3291015625</ele>
        <time>2011-04-23T14:54:54Z</time>
      </trkpt>
      <trkpt lat="31.581931477412581" lon="-4.477623151615262">
        <ele>925.40625</ele>
        <time>2011-04-23T14:55:02Z</time>
      </trkpt>
      <trkpt lat="31.582248397171497" lon="-4.477916853502393">
        <ele>924.92578125</ele>
        <time>2011-04-23T14:55:08Z</time>
      </trkpt>
      <trkpt lat="31.582417041063309" lon="-4.477929091081023">
        <ele>925.886962890625</ele>
        <time>2011-04-23T14:55:10Z</time>
      </trkpt>
      <trkpt lat="31.583725791424513" lon="-4.477884583175182">
        <ele>929.732177734375</ele>
        <time>2011-04-23T14:55:25Z</time>
      </trkpt>
      <trkpt lat="31.584603292867541" lon="-4.477795567363501">
        <ele>933.0966796875</ele>
        <time>2011-04-23T14:55:35Z</time>
      </trkpt>
      <trkpt lat="31.585561847314239" lon="-4.477726249024272">
        <ele>935.01953125</ele>
        <time>2011-04-23T14:55:45Z</time>
      </trkpt>
      <trkpt lat="31.586908064782619" lon="-4.47775692678988">
        <ele>938.384033203125</ele>
        <time>2011-04-23T14:55:59Z</time>
      </trkpt>
      <trkpt lat="31.587670734152198" lon="-4.477718286216259">
        <ele>939.34521484375</ele>
        <time>2011-04-23T14:56:10Z</time>
      </trkpt>
      <trkpt lat="31.588188149034977" lon="-4.477650057524443">
        <ele>939.34521484375</ele>
        <time>2011-04-23T14:56:20Z</time>
      </trkpt>
      <trkpt lat="31.588726434856653" lon="-4.477431373670697">
        <ele>940.787353515625</ele>
        <time>2011-04-23T14:56:33Z</time>
      </trkpt>
      <trkpt lat="31.589350635185838" lon="-4.477235237136483">
        <ele>941.26806640625</ele>
        <time>2011-04-23T14:56:44Z</time>
      </trkpt>
      <trkpt lat="31.589711643755436" lon="-4.477201458066702">
        <ele>941.748779296875</ele>
        <time>2011-04-23T14:56:49Z</time>
      </trkpt>
      <trkpt lat="31.590483197942376" lon="-4.477422153577209">
        <ele>937.422607421875</ele>
        <time>2011-04-23T14:57:01Z</time>
      </trkpt>
      <trkpt lat="31.590638346970081" lon="-4.477567244321108">
        <ele>936.94189453125</ele>
        <time>2011-04-23T14:57:05Z</time>
      </trkpt>
      <trkpt lat="31.590707832947373" lon="-4.477766063064337">
        <ele>934.538818359375</ele>
        <time>2011-04-23T14:57:08Z</time>
      </trkpt>
      <trkpt lat="31.590973539277911" lon="-4.478344917297363">
        <ele>920.599609375</ele>
        <time>2011-04-23T14:57:18Z</time>
      </trkpt>
      <trkpt lat="31.591213848441839" lon="-4.478510795161128">
        <ele>913.389892578125</ele>
        <time>2011-04-23T14:57:24Z</time>
      </trkpt>
      <trkpt lat="31.591923125088215" lon="-4.478602325543761">
        <ele>905.69921875</ele>
        <time>2011-04-23T14:57:33Z</time>
      </trkpt>
      <trkpt lat="31.592651596292853" lon="-4.478663429617882">
        <ele>897.528076171875</ele>
        <time>2011-04-23T14:57:44Z</time>
      </trkpt>
      <trkpt lat="31.592865586280823" lon="-4.478629231452942">
        <ele>895.60546875</ele>
        <time>2011-04-23T14:57:47Z</time>
      </trkpt>
      <trkpt lat="31.593500934541225" lon="-4.478521188721061">
        <ele>892.240966796875</ele>
        <time>2011-04-23T14:57:56Z</time>
      </trkpt>
      <trkpt lat="31.59435136243701" lon="-4.478325052186847">
        <ele>888.3955078125</ele>
        <time>2011-04-23T14:58:08Z</time>
      </trkpt>
      <trkpt lat="31.594559149816632" lon="-4.47826218791306">
        <ele>887.43408203125</ele>
        <time>2011-04-23T14:58:11Z</time>
      </trkpt>
      <trkpt lat="31.595177231356502" lon="-4.478312479332089">
        <ele>885.9921875</ele>
        <time>2011-04-23T14:58:21Z</time>
      </trkpt>
      <trkpt lat="31.5955641400069" lon="-4.478430664166808">
        <ele>884.069580078125</ele>
        <time>2011-04-23T14:58:28Z</time>
      </trkpt>
      <trkpt lat="31.596128158271313" lon="-4.478822937235236">
        <ele>882.14697265625</ele>
        <time>2011-04-23T14:58:39Z</time>
      </trkpt>
      <trkpt lat="31.596770966425538" lon="-4.479282684624195">
        <ele>881.185791015625</ele>
        <time>2011-04-23T14:58:49Z</time>
      </trkpt>
      <trkpt lat="31.597450654953718" lon="-4.480125736445189">
        <ele>880.224365234375</ele>
        <time>2011-04-23T14:59:02Z</time>
      </trkpt>
      <trkpt lat="31.597898667678237" lon="-4.48085093870759">
        <ele>879.74365234375</ele>
        <time>2011-04-23T14:59:12Z</time>
      </trkpt>
      <trkpt lat="31.598055576905608" lon="-4.481532722711563">
        <ele>878.3017578125</ele>
        <time>2011-04-23T14:59:21Z</time>
      </trkpt>
      <trkpt lat="31.598267052322626" lon="-4.482509046792984">
        <ele>877.821044921875</ele>
        <time>2011-04-23T14:59:32Z</time>
      </trkpt>
      <trkpt lat="31.598475174978375" lon="-4.483277583494782">
        <ele>877.340576171875</ele>
        <time>2011-04-23T14:59:42Z</time>
      </trkpt>
      <trkpt lat="31.598795698955655" lon="-4.484351221472025">
        <ele>877.340576171875</ele>
        <time>2011-04-23T14:59:55Z</time>
      </trkpt>
      <trkpt lat="31.598897119984031" lon="-4.485409436747432">
        <ele>877.821044921875</ele>
        <time>2011-04-23T15:00:05Z</time>
      </trkpt>
      <trkpt lat="31.598957134410739" lon="-4.485741695389152">
        <ele>877.340576171875</ele>
        <time>2011-04-23T15:00:08Z</time>
      </trkpt>
      <trkpt lat="31.59888387657702" lon="-4.486759593710303">
        <ele>879.74365234375</ele>
        <time>2011-04-23T15:00:17Z</time>
      </trkpt>
      <trkpt lat="31.598711293190718" lon="-4.48778947815299">
        <ele>881.666259765625</ele>
        <time>2011-04-23T15:00:27Z</time>
      </trkpt>
      <trkpt lat="31.598736019805074" lon="-4.488696483895183">
        <ele>880.705078125</ele>
        <time>2011-04-23T15:00:37Z</time>
      </trkpt>
      <trkpt lat="31.598679861053824" lon="-4.489449597895145">
        <ele>881.666259765625</ele>
        <time>2011-04-23T15:00:45Z</time>
      </trkpt>
      <trkpt lat="31.59856092184782" lon="-4.490030044689775">
        <ele>882.14697265625</ele>
        <time>2011-04-23T15:00:53Z</time>
      </trkpt>
      <trkpt lat="31.598527729511261" lon="-4.490403290838003">
        <ele>883.108154296875</ele>
        <time>2011-04-23T15:01:01Z</time>
      </trkpt>
      <trkpt lat="31.598469726741314" lon="-4.490986671298742">
        <ele>884.069580078125</ele>
        <time>2011-04-23T15:01:08Z</time>
      </trkpt>
      <trkpt lat="31.598373418673873" lon="-4.491815892979503">
        <ele>884.55029296875</ele>
        <time>2011-04-23T15:01:16Z</time>
      </trkpt>
      <trkpt lat="31.598334861919284" lon="-4.493154147639871">
        <ele>882.627685546875</ele>
        <time>2011-04-23T15:01:28Z</time>
      </trkpt>
      <trkpt lat="31.59852622076869" lon="-4.493971634656191">
        <ele>882.627685546875</ele>
        <time>2011-04-23T15:01:36Z</time>
      </trkpt>
      <trkpt lat="31.598754376173019" lon="-4.494662890210748">
        <ele>883.5888671875</ele>
        <time>2011-04-23T15:01:43Z</time>
      </trkpt>
      <trkpt lat="31.599105577915907" lon="-4.496030062437058">
        <ele>881.185791015625</ele>
        <time>2011-04-23T15:01:55Z</time>
      </trkpt>
      <trkpt lat="31.599325938150287" lon="-4.497510474175215">
        <ele>879.74365234375</ele>
        <time>2011-04-23T15:02:07Z</time>
      </trkpt>
      <trkpt lat="31.599456779658794" lon="-4.498737752437592">
        <ele>878.782470703125</ele>
        <time>2011-04-23T15:02:18Z</time>
      </trkpt>
      <trkpt lat="31.59960413351655" lon="-4.499587174504995">
        <ele>877.821044921875</ele>
        <time>2011-04-23T15:02:28Z</time>
      </trkpt>
      <trkpt lat="31.599723659455776" lon="-4.499907866120338">
        <ele>877.821044921875</ele>
        <time>2011-04-23T15:02:32Z</time>
      </trkpt>
      <trkpt lat="31.600104030221701" lon="-4.500446319580078">
        <ele>878.782470703125</ele>
        <time>2011-04-23T15:02:42Z</time>
      </trkpt>
      <trkpt lat="31.600494291633368" lon="-4.501036740839481">
        <ele>879.262939453125</ele>
        <time>2011-04-23T15:02:50Z</time>
      </trkpt>
      <trkpt lat="31.601202897727489" lon="-4.501987835392356">
        <ele>880.224365234375</ele>
        <time>2011-04-23T15:03:03Z</time>
      </trkpt>
      <trkpt lat="31.601541861891747" lon="-4.502590661868453">
        <ele>880.705078125</ele>
        <time>2011-04-23T15:03:10Z</time>
      </trkpt>
      <trkpt lat="31.601667925715446" lon="-4.503462631255388">
        <ele>881.185791015625</ele>
        <time>2011-04-23T15:03:19Z</time>
      </trkpt>
      <trkpt lat="31.601724922657013" lon="-4.504372235387564">
        <ele>881.666259765625</ele>
        <time>2011-04-23T15:03:28Z</time>
      </trkpt>
      <trkpt lat="31.601687036454678" lon="-4.505005488172174">
        <ele>882.627685546875</ele>
        <time>2011-04-23T15:03:36Z</time>
      </trkpt>
      <trkpt lat="31.601673793047667" lon="-4.50522031635046">
        <ele>880.705078125</ele>
        <time>2011-04-23T15:03:44Z</time>
      </trkpt>
      <trkpt lat="31.60167152993381" lon="-4.505367921665311">
        <ele>880.705078125</ele>
        <time>2011-04-23T15:03:47Z</time>
      </trkpt>
      <trkpt lat="31.601605229079723" lon="-4.505768157541752">
        <ele>881.185791015625</ele>
        <time>2011-04-23T15:03:55Z</time>
      </trkpt>
      <trkpt lat="31.601588046178222" lon="-4.505881397053599">
        <ele>881.666259765625</ele>
        <time>2011-04-23T15:03:57Z</time>
      </trkpt>
      <trkpt lat="31.601582262665033" lon="-4.506014753133059">
        <ele>881.666259765625</ele>
        <time>2011-04-23T15:03:59Z</time>
      </trkpt>
      <trkpt lat="31.601797342300415" lon="-4.506666027009487">
        <ele>881.185791015625</ele>
        <time>2011-04-23T15:04:08Z</time>
      </trkpt>
      <trkpt lat="31.601839419454336" lon="-4.506806926801801">
        <ele>881.185791015625</ele>
        <time>2011-04-23T15:04:10Z</time>
      </trkpt>
      <trkpt lat="31.601836485788226" lon="-4.507371783256531">
        <ele>880.224365234375</ele>
        <time>2011-04-23T15:04:18Z</time>
      </trkpt>
      <trkpt lat="31.601794995367527" lon="-4.507661294192076">
        <ele>881.666259765625</ele>
        <time>2011-04-23T15:04:23Z</time>
      </trkpt>
      <trkpt lat="31.601789630949497" lon="-4.508048370480537">
        <ele>884.069580078125</ele>
        <time>2011-04-23T15:04:33Z</time>
      </trkpt>
      <trkpt lat="31.601811842992902" lon="-4.508232353255153">
        <ele>887.914794921875</ele>
        <time>2011-04-23T15:04:52Z</time>
      </trkpt>
      <trkpt lat="31.601868085563183" lon="-4.508399069309235">
        <ele>886.953369140625</ele>
        <time>2011-04-23T15:05:01Z</time>
      </trkpt>
      <trkpt lat="31.602146532386541" lon="-4.508767370134592">
        <ele>885.511474609375</ele>
        <time>2011-04-23T15:05:11Z</time>
      </trkpt>
      <trkpt lat="31.602632347494364" lon="-4.509183196350932">
        <ele>886.953369140625</ele>
        <time>2011-04-23T15:05:21Z</time>
      </trkpt>
      <trkpt lat="31.602861173450947" lon="-4.509450495243073">
        <ele>887.914794921875</ele>
        <time>2011-04-23T15:05:26Z</time>
      </trkpt>
      <trkpt lat="31.603083293884993" lon="-4.509945278987289">
        <ele>885.9921875</ele>
        <time>2011-04-23T15:05:36Z</time>
      </trkpt>
      <trkpt lat="31.603375822305679" lon="-4.510580375790596">
        <ele>883.5888671875</ele>
        <time>2011-04-23T15:05:47Z</time>
      </trkpt>
      <trkpt lat="31.60373892635107" lon="-4.51114883646369">
        <ele>882.627685546875</ele>
        <time>2011-04-23T15:05:58Z</time>
      </trkpt>
      <trkpt lat="31.604255419224501" lon="-4.511950984597206">
        <ele>882.14697265625</ele>
        <time>2011-04-23T15:06:13Z</time>
      </trkpt>
      <trkpt lat="31.604707622900605" lon="-4.512653388082981">
        <ele>881.666259765625</ele>
        <time>2011-04-23T15:06:24Z</time>
      </trkpt>
      <trkpt lat="31.605317825451493" lon="-4.513463079929352">
        <ele>882.627685546875</ele>
        <time>2011-04-23T15:06:35Z</time>
      </trkpt>
      <trkpt lat="31.60573935136199" lon="-4.514056853950024">
        <ele>883.108154296875</ele>
        <time>2011-04-23T15:06:44Z</time>
      </trkpt>
      <trkpt lat="31.606046967208385" lon="-4.514484079554677">
        <ele>884.069580078125</ele>
        <time>2011-04-23T15:06:53Z</time>
      </trkpt>
      <trkpt lat="31.606166325509548" lon="-4.514653142541647">
        <ele>884.069580078125</ele>
        <time>2011-04-23T15:07:12Z</time>
      </trkpt>
      <trkpt lat="31.606491794809699" lon="-4.51501733623445">
        <ele>883.5888671875</ele>
        <time>2011-04-23T15:07:19Z</time>
      </trkpt>
      <trkpt lat="31.607308946549892" lon="-4.515747567638755">
        <ele>885.511474609375</ele>
        <time>2011-04-23T15:07:32Z</time>
      </trkpt>
      <trkpt lat="31.60839457064867" lon="-4.516499089077115">
        <ele>885.9921875</ele>
        <time>2011-04-23T15:07:47Z</time>
      </trkpt>
      <trkpt lat="31.609349856153131" lon="-4.517269553616643">
        <ele>889.356689453125</ele>
        <time>2011-04-23T15:08:01Z</time>
      </trkpt>
      <trkpt lat="31.609820416197181" lon="-4.517899872735143">
        <ele>890.318115234375</ele>
        <time>2011-04-23T15:08:10Z</time>
      </trkpt>
      <trkpt lat="31.610397342592478" lon="-4.518706798553467">
        <ele>891.279296875</ele>
        <time>2011-04-23T15:08:21Z</time>
      </trkpt>
      <trkpt lat="31.610926575958729" lon="-4.519686559215188">
        <ele>895.60546875</ele>
        <time>2011-04-23T15:08:33Z</time>
      </trkpt>
      <trkpt lat="31.611370984464884" lon="-4.520587362349033">
        <ele>896.56689453125</ele>
        <time>2011-04-23T15:08:45Z</time>
      </trkpt>
      <trkpt lat="31.611613053828478" lon="-4.521049121394754">
        <ele>898.4892578125</ele>
        <time>2011-04-23T15:08:55Z</time>
      </trkpt>
      <trkpt lat="31.611821679398417" lon="-4.521329328417778">
        <ele>897.528076171875</ele>
        <time>2011-04-23T15:09:06Z</time>
      </trkpt>
      <trkpt lat="31.611792258918285" lon="-4.521430665627122">
        <ele>898.0087890625</ele>
        <time>2011-04-23T15:09:12Z</time>
      </trkpt>
      <trkpt lat="31.611808184534311" lon="-4.52162018045783">
        <ele>906.1796875</ele>
        <time>2011-04-23T15:09:45Z</time>
      </trkpt>
      <trkpt lat="31.612227279692888" lon="-4.52212686650455">
        <ele>901.373291015625</ele>
        <time>2011-04-23T15:09:55Z</time>
      </trkpt>
      <trkpt lat="31.61279708147049" lon="-4.522985927760601">
        <ele>897.528076171875</ele>
        <time>2011-04-23T15:10:06Z</time>
      </trkpt>
      <trkpt lat="31.613193545490503" lon="-4.523627394810319">
        <ele>896.56689453125</ele>
        <time>2011-04-23T15:10:14Z</time>
      </trkpt>
      <trkpt lat="31.613265378400683" lon="-4.524267772212625">
        <ele>897.04736328125</ele>
        <time>2011-04-23T15:10:21Z</time>
      </trkpt>
      <trkpt lat="31.613117940723896" lon="-4.525068998336792">
        <ele>898.969970703125</ele>
        <time>2011-04-23T15:10:32Z</time>
      </trkpt>
      <trkpt lat="31.613144595175982" lon="-4.52531467191875">
        <ele>898.969970703125</ele>
        <time>2011-04-23T15:10:40Z</time>
      </trkpt>
      <trkpt lat="31.613097740337253" lon="-4.525172179564834">
        <ele>886.472900390625</ele>
        <time>2011-04-23T15:15:23Z</time>
      </trkpt>
      <trkpt lat="31.612934460863471" lon="-4.525383738800883">
        <ele>902.33447265625</ele>
        <time>2011-04-23T15:15:43Z</time>
      </trkpt>
      <trkpt lat="31.612782580778003" lon="-4.525705184787512">
        <ele>919.638427734375</ele>
        <time>2011-04-23T15:16:58Z</time>
      </trkpt>
      <trkpt lat="31.612481335178018" lon="-4.525964269414544">
        <ele>922.04150390625</ele>
        <time>2011-04-23T15:17:08Z</time>
      </trkpt>
      <trkpt lat="31.611783793196082" lon="-4.526361571624875">
        <ele>924.92578125</ele>
        <time>2011-04-23T15:17:24Z</time>
      </trkpt>
      <trkpt lat="31.611277442425489" lon="-4.526614788919687">
        <ele>924.445068359375</ele>
        <time>2011-04-23T15:17:36Z</time>
      </trkpt>
      <trkpt lat="31.610819455236197" lon="-4.526744792237878">
        <ele>924.92578125</ele>
        <time>2011-04-23T15:17:46Z</time>
      </trkpt>
      <trkpt lat="31.610352164134383" lon="-4.526970097795129">
        <ele>930.212890625</ele>
        <time>2011-04-23T15:17:58Z</time>
      </trkpt>
      <trkpt lat="31.610183687880635" lon="-4.527171766385436">
        <ele>942.710205078125</ele>
        <time>2011-04-23T15:18:44Z</time>
      </trkpt>
      <trkpt lat="31.610198523849249" lon="-4.527731593698263">
        <ele>919.15771484375</ele>
        <time>2011-04-23T15:18:57Z</time>
      </trkpt>
      <trkpt lat="31.610140688717365" lon="-4.528039880096912">
        <ele>911.46728515625</ele>
        <time>2011-04-23T15:19:06Z</time>
      </trkpt>
      <trkpt lat="31.610424751415849" lon="-4.528198717162013">
        <ele>895.124755859375</ele>
        <time>2011-04-23T15:19:42Z</time>
      </trkpt>
      <trkpt lat="31.610460039228201" lon="-4.528305921703577">
        <ele>891.279296875</ele>
        <time>2011-04-23T15:19:49Z</time>
      </trkpt>
      <trkpt lat="31.610333723947406" lon="-4.528517397120595">
        <ele>892.7216796875</ele>
        <time>2011-04-23T15:19:59Z</time>
      </trkpt>
      <trkpt lat="31.610402623191476" lon="-4.528599372133613">
        <ele>911.947998046875</ele>
        <time>2011-04-23T15:20:43Z</time>
      </trkpt>
      <trkpt lat="31.610445035621524" lon="-4.528388986364007">
        <ele>912.428466796875</ele>
        <time>2011-04-23T15:20:55Z</time>
      </trkpt>
      <trkpt lat="31.610459787771106" lon="-4.52828262001276">
        <ele>900.412109375</ele>
        <time>2011-04-23T15:21:06Z</time>
      </trkpt>
      <trkpt lat="31.610302291810513" lon="-4.528246996924281">
        <ele>920.599609375</ele>
        <time>2011-04-23T15:22:04Z</time>
      </trkpt>
      <trkpt lat="31.610171282663941" lon="-4.528227131813765">
        <ele>928.290283203125</ele>
        <time>2011-04-23T15:22:26Z</time>
      </trkpt>
      <trkpt lat="31.60997187718749" lon="-4.528147671371698">
        <ele>931.65478515625</ele>
        <time>2011-04-23T15:22:37Z</time>
      </trkpt>
      <trkpt lat="31.609900295734406" lon="-4.528048345819116">
        <ele>934.538818359375</ele>
        <time>2011-04-23T15:22:50Z</time>
      </trkpt>
      <trkpt lat="31.610060557723045" lon="-4.527921192348003">
        <ele>915.3125</ele>
        <time>2011-04-23T15:23:20Z</time>
      </trkpt>
      <trkpt lat="31.610120739787817" lon="-4.528017332777381">
        <ele>912.9091796875</ele>
        <time>2011-04-23T15:23:27Z</time>
      </trkpt>
      <trkpt lat="31.610126439481974" lon="-4.527904177084565">
        <ele>916.273681640625</ele>
        <time>2011-04-23T15:23:43Z</time>
      </trkpt>
      <trkpt lat="31.609936757013202" lon="-4.527957988902926">
        <ele>924.92578125</ele>
        <time>2011-04-23T15:23:52Z</time>
      </trkpt>
      <trkpt lat="31.609921921044588" lon="-4.528120681643486">
        <ele>915.793212890625</ele>
        <time>2011-04-23T15:24:01Z</time>
      </trkpt>
      <trkpt lat="31.610036166384816" lon="-4.528107354417443">
        <ele>899.931396484375</ele>
        <time>2011-04-23T15:24:30Z</time>
      </trkpt>
      <trkpt lat="31.6101233381778" lon="-4.528151946142316">
        <ele>870.611083984375</ele>
        <time>2011-04-23T15:25:55Z</time>
      </trkpt>
      <trkpt lat="31.609966931864619" lon="-4.528063349425793">
        <ele>874.456298828125</ele>
        <time>2011-04-23T15:26:06Z</time>
      </trkpt>
      <trkpt lat="31.6100456379354" lon="-4.528122860938311">
        <ele>861.95947265625</ele>
        <time>2011-04-23T15:27:21Z</time>
      </trkpt>
      <trkpt lat="31.610252754762769" lon="-4.52821715734899">
        <ele>865.8046875</ele>
        <time>2011-04-23T15:27:43Z</time>
      </trkpt>
      <trkpt lat="31.610402539372444" lon="-4.528198717162013">
        <ele>872.53369140625</ele>
        <time>2011-04-23T15:28:09Z</time>
      </trkpt>
      <trkpt lat="31.610455848276615" lon="-4.528285386040807">
        <ele>870.611083984375</ele>
        <time>2011-04-23T15:28:26Z</time>
      </trkpt>
      <trkpt lat="31.610595574602485" lon="-4.52827868051827">
        <ele>878.782470703125</ele>
        <time>2011-04-23T15:32:27Z</time>
      </trkpt>
      <trkpt lat="31.61072239279747" lon="-4.528177175670862">
        <ele>880.705078125</ele>
        <time>2011-04-23T15:32:36Z</time>
      </trkpt>
      <trkpt lat="31.610582498833537" lon="-4.527967376634479">
        <ele>881.666259765625</ele>
        <time>2011-04-23T15:32:46Z</time>
      </trkpt>
      <trkpt lat="31.610440593212843" lon="-4.528097882866859">
        <ele>884.069580078125</ele>
        <time>2011-04-23T15:32:53Z</time>
      </trkpt>
      <trkpt lat="31.610462386161089" lon="-4.528206344693899">
        <ele>885.511474609375</ele>
        <time>2011-04-23T15:33:00Z</time>
      </trkpt>
      <trkpt lat="31.610561041161418" lon="-4.52822738327086">
        <ele>892.7216796875</ele>
        <time>2011-04-23T15:34:03Z</time>
      </trkpt>
      <trkpt lat="31.610405640676618" lon="-4.528186731040478">
        <ele>892.240966796875</ele>
        <time>2011-04-23T15:42:50Z</time>
      </trkpt>
      <trkpt lat="31.610344368964434" lon="-4.528080364689231">
        <ele>892.7216796875</ele>
        <time>2011-04-23T15:48:48Z</time>
      </trkpt>
      <trkpt lat="31.610554084181786" lon="-4.528092099353671">
        <ele>891.760009765625</ele>
        <time>2011-04-23T15:54:54Z</time>
      </trkpt>
      <trkpt lat="31.610771175473928" lon="-4.528057733550668">
        <ele>892.240966796875</ele>
        <time>2011-04-23T15:55:03Z</time>
      </trkpt>
      <trkpt lat="31.61089975386858" lon="-4.527970226481557">
        <ele>892.7216796875</ele>
        <time>2011-04-23T15:55:11Z</time>
      </trkpt>
      <trkpt lat="31.611025733873248" lon="-4.527915827929974">
        <ele>889.356689453125</ele>
        <time>2011-04-23T15:59:52Z</time>
      </trkpt>
      <trkpt lat="31.611191192641854" lon="-4.527819352224469">
        <ele>890.318115234375</ele>
        <time>2011-04-23T16:00:01Z</time>
      </trkpt>
      <trkpt lat="31.611789744347334" lon="-4.527418781071901">
        <ele>891.760009765625</ele>
        <time>2011-04-23T16:00:12Z</time>
      </trkpt>
      <trkpt lat="31.612562388181686" lon="-4.526779158040881">
        <ele>894.16357421875</ele>
        <time>2011-04-23T16:00:27Z</time>
      </trkpt>
      <trkpt lat="31.612899173051119" lon="-4.526374563574791">
        <ele>894.64404296875</ele>
        <time>2011-04-23T16:00:34Z</time>
      </trkpt>
      <trkpt lat="31.613303599879146" lon="-4.526265263557434">
        <ele>894.64404296875</ele>
        <time>2011-04-23T16:00:41Z</time>
      </trkpt>
      <trkpt lat="31.614186465740204" lon="-4.526419574394822">
        <ele>895.60546875</ele>
        <time>2011-04-23T16:00:56Z</time>
      </trkpt>
      <trkpt lat="31.614534398540854" lon="-4.526313794776797">
        <ele>895.60546875</ele>
        <time>2011-04-23T16:01:03Z</time>
      </trkpt>
      <trkpt lat="31.614886857569218" lon="-4.526413958519697">
        <ele>895.124755859375</ele>
        <time>2011-04-23T16:01:11Z</time>
      </trkpt>
      <trkpt lat="31.615107050165534" lon="-4.526620991528034">
        <ele>894.64404296875</ele>
        <time>2011-04-23T16:01:16Z</time>
      </trkpt>
      <trkpt lat="31.615265719592571" lon="-4.526878483593464">
        <ele>894.16357421875</ele>
        <time>2011-04-23T16:01:20Z</time>
      </trkpt>
      <trkpt lat="31.615741727873683" lon="-4.528095535933971">
        <ele>892.7216796875</ele>
        <time>2011-04-23T16:01:34Z</time>
      </trkpt>
      <trkpt lat="31.616211198270321" lon="-4.528773631900549">
        <ele>892.7216796875</ele>
        <time>2011-04-23T16:01:43Z</time>
      </trkpt>
      <trkpt lat="31.616885270923376" lon="-4.529435131698847">
        <ele>893.682861328125</ele>
        <time>2011-04-23T16:01:54Z</time>
      </trkpt>
      <trkpt lat="31.617438895627856" lon="-4.529868979007006">
        <ele>895.124755859375</ele>
        <time>2011-04-23T16:02:04Z</time>
      </trkpt>
      <trkpt lat="31.617702087387443" lon="-4.530078945681453">
        <ele>896.56689453125</ele>
        <time>2011-04-23T16:02:14Z</time>
      </trkpt>
      <trkpt lat="31.617764364928007" lon="-4.530209116637707">
        <ele>897.528076171875</ele>
        <time>2011-04-23T16:03:35Z</time>
      </trkpt>
      <trkpt lat="31.617849189788103" lon="-4.530501896515489">
        <ele>896.56689453125</ele>
        <time>2011-04-23T16:03:39Z</time>
      </trkpt>
      <trkpt lat="31.618128223344684" lon="-4.530874975025654">
        <ele>896.086181640625</ele>
        <time>2011-04-23T16:03:45Z</time>
      </trkpt>
      <trkpt lat="31.618249844759703" lon="-4.530973546206951">
        <ele>896.086181640625</ele>
        <time>2011-04-23T16:03:47Z</time>
      </trkpt>
      <trkpt lat="31.618465259671211" lon="-4.531225757673383">
        <ele>896.086181640625</ele>
        <time>2011-04-23T16:03:51Z</time>
      </trkpt>
      <trkpt lat="31.619048975408077" lon="-4.532220857217908">
        <ele>896.56689453125</ele>
        <time>2011-04-23T16:04:02Z</time>
      </trkpt>
      <trkpt lat="31.619469998404384" lon="-4.532890822738409">
        <ele>898.0087890625</ele>
        <time>2011-04-23T16:04:10Z</time>
      </trkpt>
      <trkpt lat="31.619641995057464" lon="-4.533353084698319">
        <ele>898.969970703125</ele>
        <time>2011-04-23T16:04:16Z</time>
      </trkpt>
      <trkpt lat="31.619777698069811" lon="-4.533600518479943">
        <ele>899.45068359375</ele>
        <time>2011-04-23T16:04:21Z</time>
      </trkpt>
      <trkpt lat="31.619888674467802" lon="-4.533905787393451">
        <ele>897.528076171875</ele>
        <time>2011-04-23T16:04:27Z</time>
      </trkpt>
      <trkpt lat="31.62000635638833" lon="-4.534109886735678">
        <ele>898.0087890625</ele>
        <time>2011-04-23T16:04:31Z</time>
      </trkpt>
      <trkpt lat="31.620046338066459" lon="-4.534541135653853">
        <ele>898.4892578125</ele>
        <time>2011-04-23T16:04:39Z</time>
      </trkpt>
      <trkpt lat="31.620143819600344" lon="-4.535260973498225">
        <ele>898.0087890625</ele>
        <time>2011-04-23T16:04:47Z</time>
      </trkpt>
      <trkpt lat="31.620291592553258" lon="-4.535621479153633">
        <ele>898.0087890625</ele>
        <time>2011-04-23T16:04:52Z</time>
      </trkpt>
      <trkpt lat="31.620741030201316" lon="-4.536305526271462">
        <ele>897.04736328125</ele>
        <time>2011-04-23T16:05:01Z</time>
      </trkpt>
      <trkpt lat="31.621074797585607" lon="-4.537381427362561">
        <ele>895.60546875</ele>
        <time>2011-04-23T16:05:11Z</time>
      </trkpt>
      <trkpt lat="31.621252493932843" lon="-4.537939159199596">
        <ele>896.56689453125</ele>
        <time>2011-04-23T16:05:17Z</time>
      </trkpt>
      <trkpt lat="31.621391465887427" lon="-4.538605688139796">
        <ele>897.04736328125</ele>
        <time>2011-04-23T16:05:26Z</time>
      </trkpt>
      <trkpt lat="31.621536053717136" lon="-4.539196779951453">
        <ele>898.4892578125</ele>
        <time>2011-04-23T16:05:33Z</time>
      </trkpt>
      <trkpt lat="31.622072579339147" lon="-4.539841348305345">
        <ele>899.931396484375</ele>
        <time>2011-04-23T16:05:41Z</time>
      </trkpt>
      <trkpt lat="31.623114533722401" lon="-4.540511816740036">
        <ele>901.85400390625</ele>
        <time>2011-04-23T16:05:52Z</time>
      </trkpt>
      <trkpt lat="31.624417249113321" lon="-4.541271049529314">
        <ele>901.85400390625</ele>
        <time>2011-04-23T16:06:06Z</time>
      </trkpt>
      <trkpt lat="31.625292235985398" lon="-4.541540862992406">
        <ele>902.815185546875</ele>
        <time>2011-04-23T16:06:15Z</time>
      </trkpt>
      <trkpt lat="31.626111567020416" lon="-4.541683942079544">
        <ele>903.2958984375</ele>
        <time>2011-04-23T16:06:26Z</time>
      </trkpt>
      <trkpt lat="31.626454722136259" lon="-4.541832720860839">
        <ele>903.776611328125</ele>
        <time>2011-04-23T16:06:34Z</time>
      </trkpt>
      <trkpt lat="31.626586485654116" lon="-4.541922155767679">
        <ele>903.776611328125</ele>
        <time>2011-04-23T16:07:03Z</time>
      </trkpt>
      <trkpt lat="31.627088058739901" lon="-4.542239159345627">
        <ele>903.776611328125</ele>
        <time>2011-04-23T16:07:12Z</time>
      </trkpt>
      <trkpt lat="31.627614945173264" lon="-4.542423477396369">
        <ele>904.25732421875</ele>
        <time>2011-04-23T16:07:19Z</time>
      </trkpt>
      <trkpt lat="31.628015097230673" lon="-4.542785240337253">
        <ele>904.25732421875</ele>
        <time>2011-04-23T16:07:26Z</time>
      </trkpt>
      <trkpt lat="31.628544665873051" lon="-4.5439587906003">
        <ele>904.73779296875</ele>
        <time>2011-04-23T16:07:40Z</time>
      </trkpt>
      <trkpt lat="31.629283195361495" lon="-4.544614087790251">
        <ele>905.69921875</ele>
        <time>2011-04-23T16:07:50Z</time>
      </trkpt>
      <trkpt lat="31.630136054009199" lon="-4.545231331139803">
        <ele>906.660400390625</ele>
        <time>2011-04-23T16:08:00Z</time>
      </trkpt>
      <trkpt lat="31.631111372262239" lon="-4.545651348307729">
        <ele>907.621826171875</ele>
        <time>2011-04-23T16:08:10Z</time>
      </trkpt>
      <trkpt lat="31.632043775171041" lon="-4.545995844528079">
        <ele>908.102783203125</ele>
        <time>2011-04-23T16:08:20Z</time>
      </trkpt>
      <trkpt lat="31.632828740403056" lon="-4.546358361840248">
        <ele>908.102783203125</ele>
        <time>2011-04-23T16:08:28Z</time>
      </trkpt>
      <trkpt lat="31.633563498035073" lon="-4.546806877478957">
        <ele>909.06396484375</ele>
        <time>2011-04-23T16:08:37Z</time>
      </trkpt>
      <trkpt lat="31.634393557906151" lon="-4.547570049762726">
        <ele>909.544677734375</ele>
        <time>2011-04-23T16:08:48Z</time>
      </trkpt>
      <trkpt lat="31.63509713485837" lon="-4.548604460433126">
        <ele>910.025146484375</ele>
        <time>2011-04-23T16:08:59Z</time>
      </trkpt>
      <trkpt lat="31.635373653843999" lon="-4.549113744869828">
        <ele>910.025146484375</ele>
        <time>2011-04-23T16:09:04Z</time>
      </trkpt>
      <trkpt lat="31.63605585694313" lon="-4.549889238551259">
        <ele>910.986572265625</ele>
        <time>2011-04-23T16:09:14Z</time>
      </trkpt>
      <trkpt lat="31.636729929596186" lon="-4.550622152164578">
        <ele>911.947998046875</ele>
        <time>2011-04-23T16:09:24Z</time>
      </trkpt>
      <trkpt lat="31.63715673610568" lon="-4.551186757162213">
        <ele>911.947998046875</ele>
        <time>2011-04-23T16:09:31Z</time>
      </trkpt>
      <trkpt lat="31.637489497661591" lon="-4.55207247287035">
        <ele>910.986572265625</ele>
        <time>2011-04-23T16:09:40Z</time>
      </trkpt>
      <trkpt lat="31.637615142390132" lon="-4.55233097076416">
        <ele>910.505859375</ele>
        <time>2011-04-23T16:09:43Z</time>
      </trkpt>
      <trkpt lat="31.638086540624499" lon="-4.552893228828907">
        <ele>910.505859375</ele>
        <time>2011-04-23T16:09:52Z</time>
      </trkpt>
      <trkpt lat="31.638761451467872" lon="-4.553593117743731">
        <ele>910.505859375</ele>
        <time>2011-04-23T16:10:03Z</time>
      </trkpt>
      <trkpt lat="31.639560833573341" lon="-4.554260233417153">
        <ele>910.986572265625</ele>
        <time>2011-04-23T16:10:13Z</time>
      </trkpt>
      <trkpt lat="31.640333477407694" lon="-4.555224990472198">
        <ele>910.986572265625</ele>
        <time>2011-04-23T16:10:24Z</time>
      </trkpt>
      <trkpt lat="31.641080724075437" lon="-4.556028982624412">
        <ele>910.986572265625</ele>
        <time>2011-04-23T16:10:34Z</time>
      </trkpt>
      <trkpt lat="31.641205279156566" lon="-4.556222017854452">
        <ele>910.986572265625</ele>
        <time>2011-04-23T16:10:36Z</time>
      </trkpt>
      <trkpt lat="31.641711378470063" lon="-4.557345695793629">
        <ele>910.986572265625</ele>
        <time>2011-04-23T16:10:47Z</time>
      </trkpt>
      <trkpt lat="31.642367346212268" lon="-4.558494435623288">
        <ele>911.947998046875</ele>
        <time>2011-04-23T16:11:00Z</time>
      </trkpt>
      <trkpt lat="31.643073353916407" lon="-4.559568576514721">
        <ele>913.389892578125</ele>
        <time>2011-04-23T16:11:11Z</time>
      </trkpt>
      <trkpt lat="31.643498567864299" lon="-4.56012362614274">
        <ele>913.389892578125</ele>
        <time>2011-04-23T16:11:17Z</time>
      </trkpt>
      <trkpt lat="31.644206335768104" lon="-4.560579853132367">
        <ele>913.870361328125</ele>
        <time>2011-04-23T16:11:25Z</time>
      </trkpt>
      <trkpt lat="31.64545557461679" lon="-4.561191983520985">
        <ele>914.35107421875</ele>
        <time>2011-04-23T16:11:38Z</time>
      </trkpt>
      <trkpt lat="31.646268619224429" lon="-4.561804197728634">
        <ele>915.3125</ele>
        <time>2011-04-23T16:11:47Z</time>
      </trkpt>
      <trkpt lat="31.64736564271152" lon="-4.562713298946619">
        <ele>916.273681640625</ele>
        <time>2011-04-23T16:12:00Z</time>
      </trkpt>
      <trkpt lat="31.648057317361236" lon="-4.563240185379982">
        <ele>916.75439453125</ele>
        <time>2011-04-23T16:12:09Z</time>
      </trkpt>
      <trkpt lat="31.648815963417292" lon="-4.563617371022701">
        <ele>915.793212890625</ele>
        <time>2011-04-23T16:12:19Z</time>
      </trkpt>
      <trkpt lat="31.649109497666359" lon="-4.563762461766601">
        <ele>915.793212890625</ele>
        <time>2011-04-23T16:12:23Z</time>
      </trkpt>
      <trkpt lat="31.649482157081366" lon="-4.563787691295147">
        <ele>914.831787109375</ele>
        <time>2011-04-23T16:12:28Z</time>
      </trkpt>
      <trkpt lat="31.650418834760785" lon="-4.563515363261104">
        <ele>913.389892578125</ele>
        <time>2011-04-23T16:12:39Z</time>
      </trkpt>
      <trkpt lat="31.651093661785126" lon="-4.563470268622041">
        <ele>910.505859375</ele>
        <time>2011-04-23T16:12:48Z</time>
      </trkpt>
      <trkpt lat="31.651552822440863" lon="-4.563381923362613">
        <ele>902.815185546875</ele>
        <time>2011-04-23T16:12:58Z</time>
      </trkpt>
      <trkpt lat="31.651719287037849" lon="-4.563382174819708">
        <ele>899.931396484375</ele>
        <time>2011-04-23T16:13:03Z</time>
      </trkpt>
      <trkpt lat="31.65195825509727" lon="-4.563412684947252">
        <ele>898.969970703125</ele>
        <time>2011-04-23T16:13:09Z</time>
      </trkpt>
      <trkpt lat="31.652316162362695" lon="-4.563399944454432">
        <ele>898.4892578125</ele>
        <time>2011-04-23T16:13:18Z</time>
      </trkpt>
      <trkpt lat="31.652750680223107" lon="-4.563452079892159">
        <ele>899.45068359375</ele>
        <time>2011-04-23T16:13:26Z</time>
      </trkpt>
      <trkpt lat="31.653188383206725" lon="-4.563515698537231">
        <ele>899.931396484375</ele>
        <time>2011-04-23T16:13:33Z</time>
      </trkpt>
      <trkpt lat="31.653964295983315" lon="-4.563658945262432">
        <ele>902.33447265625</ele>
        <time>2011-04-23T16:13:44Z</time>
      </trkpt>
      <trkpt lat="31.654710536822677" lon="-4.563868325203657">
        <ele>906.1796875</ele>
        <time>2011-04-23T16:13:54Z</time>
      </trkpt>
      <trkpt lat="31.654985966160893" lon="-4.564051469787955">
        <ele>906.660400390625</ele>
        <time>2011-04-23T16:13:58Z</time>
      </trkpt>
      <trkpt lat="31.655560461804271" lon="-4.564775247126818">
        <ele>905.218505859375</ele>
        <time>2011-04-23T16:14:07Z</time>
      </trkpt>
      <trkpt lat="31.656060861423612" lon="-4.565738076344132">
        <ele>899.931396484375</ele>
        <time>2011-04-23T16:14:17Z</time>
      </trkpt>
      <trkpt lat="31.656560339033604" lon="-4.567042887210846">
        <ele>893.682861328125</ele>
        <time>2011-04-23T16:14:29Z</time>
      </trkpt>
      <trkpt lat="31.656892346218228" lon="-4.567765323445201">
        <ele>892.240966796875</ele>
        <time>2011-04-23T16:14:35Z</time>
      </trkpt>
      <trkpt lat="31.657633055001497" lon="-4.568672748282552">
        <ele>893.682861328125</ele>
        <time>2011-04-23T16:14:45Z</time>
      </trkpt>
      <trkpt lat="31.658570738509297" lon="-4.569784188643098">
        <ele>891.760009765625</ele>
        <time>2011-04-23T16:14:57Z</time>
      </trkpt>
      <trkpt lat="31.659700870513916" lon="-4.57090568728745">
        <ele>893.682861328125</ele>
        <time>2011-04-23T16:15:10Z</time>
      </trkpt>
      <trkpt lat="31.660331860184669" lon="-4.571697441861033">
        <ele>891.760009765625</ele>
        <time>2011-04-23T16:15:19Z</time>
      </trkpt>
      <trkpt lat="31.661218833178282" lon="-4.57269991748035">
        <ele>889.356689453125</ele>
        <time>2011-04-23T16:15:31Z</time>
      </trkpt>
      <trkpt lat="31.661925846710801" lon="-4.573534168303013">
        <ele>887.43408203125</ele>
        <time>2011-04-23T16:15:41Z</time>
      </trkpt>
      <trkpt lat="31.662372266873717" lon="-4.57395083270967">
        <ele>887.914794921875</ele>
        <time>2011-04-23T16:15:48Z</time>
      </trkpt>
      <trkpt lat="31.662740064784884" lon="-4.574519377201796">
        <ele>886.953369140625</ele>
        <time>2011-04-23T16:15:58Z</time>
      </trkpt>
      <trkpt lat="31.663195118308067" lon="-4.574883235618472">
        <ele>887.914794921875</ele>
        <time>2011-04-23T16:16:06Z</time>
      </trkpt>
      <trkpt lat="31.663732063025236" lon="-4.574984069913626">
        <ele>895.60546875</ele>
        <time>2011-04-23T16:16:13Z</time>
      </trkpt>
      <trkpt lat="31.664814669638872" lon="-4.575038719922304">
        <ele>905.218505859375</ele>
        <time>2011-04-23T16:16:26Z</time>
      </trkpt>
      <trkpt lat="31.665718071162701" lon="-4.575228234753013">
        <ele>908.583251953125</ele>
        <time>2011-04-23T16:16:37Z</time>
      </trkpt>
      <trkpt lat="31.666645277291536" lon="-4.575306689366698">
        <ele>909.544677734375</ele>
        <time>2011-04-23T16:16:48Z</time>
      </trkpt>
      <trkpt lat="31.66721616871655" lon="-4.575292523950338">
        <ele>910.505859375</ele>
        <time>2011-04-23T16:16:57Z</time>
      </trkpt>
      <trkpt lat="31.668079253286123" lon="-4.575318172574043">
        <ele>910.025146484375</ele>
        <time>2011-04-23T16:17:08Z</time>
      </trkpt>
      <trkpt lat="31.669258084148169" lon="-4.575321357697249">
        <ele>909.544677734375</ele>
        <time>2011-04-23T16:17:20Z</time>
      </trkpt>
      <trkpt lat="31.670414954423904" lon="-4.57539914175868">
        <ele>911.46728515625</ele>
        <time>2011-04-23T16:17:31Z</time>
      </trkpt>
      <trkpt lat="31.671244343742728" lon="-4.575505340471864">
        <ele>912.428466796875</ele>
        <time>2011-04-23T16:17:39Z</time>
      </trkpt>
      <trkpt lat="31.672276072204113" lon="-4.575392436236143">
        <ele>911.46728515625</ele>
        <time>2011-04-23T16:17:49Z</time>
      </trkpt>
      <trkpt lat="31.672689719125628" lon="-4.575408864766359">
        <ele>911.46728515625</ele>
        <time>2011-04-23T16:17:53Z</time>
      </trkpt>
      <trkpt lat="31.673464961349964" lon="-4.575684629380703">
        <ele>912.428466796875</ele>
        <time>2011-04-23T16:18:01Z</time>
      </trkpt>
      <trkpt lat="31.674382025375962" lon="-4.57602065987885">
        <ele>912.9091796875</ele>
        <time>2011-04-23T16:18:11Z</time>
      </trkpt>
      <trkpt lat="31.675483575090766" lon="-4.576336238533258">
        <ele>914.831787109375</ele>
        <time>2011-04-23T16:18:21Z</time>
      </trkpt>
      <trkpt lat="31.67645956389606" lon="-4.576638322323561">
        <ele>916.273681640625</ele>
        <time>2011-04-23T16:18:31Z</time>
      </trkpt>
      <trkpt lat="31.677477126941085" lon="-4.577010730281472">
        <ele>917.715576171875</ele>
        <time>2011-04-23T16:18:43Z</time>
      </trkpt>
      <trkpt lat="31.678554620593786" lon="-4.577415324747562">
        <ele>918.677001953125</ele>
        <time>2011-04-23T16:18:56Z</time>
      </trkpt>
      <trkpt lat="31.679888097569346" lon="-4.577791672199965">
        <ele>918.1962890625</ele>
        <time>2011-04-23T16:19:10Z</time>
      </trkpt>
      <trkpt lat="31.681359121575952" lon="-4.578020079061389">
        <ele>917.715576171875</ele>
        <time>2011-04-23T16:19:24Z</time>
      </trkpt>
      <trkpt lat="31.68265881948173" lon="-4.578228034079075">
        <ele>919.638427734375</ele>
        <time>2011-04-23T16:19:36Z</time>
      </trkpt>
      <trkpt lat="31.684026075527072" lon="-4.578417632728815">
        <ele>920.118896484375</ele>
        <time>2011-04-23T16:19:50Z</time>
      </trkpt>
      <trkpt lat="31.685254946351051" lon="-4.578494494780898">
        <ele>922.04150390625</ele>
        <time>2011-04-23T16:20:02Z</time>
      </trkpt>
      <trkpt lat="31.686362195760012" lon="-4.578504972159863">
        <ele>925.886962890625</ele>
        <time>2011-04-23T16:20:13Z</time>
      </trkpt>
      <trkpt lat="31.68724606744945" lon="-4.578615445643663">
        <ele>925.40625</ele>
        <time>2011-04-23T16:20:23Z</time>
      </trkpt>
      <trkpt lat="31.688309730961919" lon="-4.57888743840158">
        <ele>924.92578125</ele>
        <time>2011-04-23T16:20:35Z</time>
      </trkpt>
      <trkpt lat="31.689336430281401" lon="-4.578875284641981">
        <ele>925.886962890625</ele>
        <time>2011-04-23T16:20:45Z</time>
      </trkpt>
      <trkpt lat="31.690164981409907" lon="-4.578636148944497">
        <ele>925.886962890625</ele>
        <time>2011-04-23T16:20:54Z</time>
      </trkpt>
      <trkpt lat="31.691224621608853" lon="-4.578294418752194">
        <ele>927.3291015625</ele>
        <time>2011-04-23T16:21:05Z</time>
      </trkpt>
      <trkpt lat="31.692006317898631" lon="-4.578310176730156">
        <ele>928.290283203125</ele>
        <time>2011-04-23T16:21:13Z</time>
      </trkpt>
      <trkpt lat="31.692455420270562" lon="-4.578454261645675">
        <ele>928.77099609375</ele>
        <time>2011-04-23T16:21:18Z</time>
      </trkpt>
      <trkpt lat="31.69301918707788" lon="-4.578857850283384">
        <ele>930.212890625</ele>
        <time>2011-04-23T16:21:26Z</time>
      </trkpt>
      <trkpt lat="31.693601896986365" lon="-4.579166136682034">
        <ele>925.40625</ele>
        <time>2011-04-23T16:21:35Z</time>
      </trkpt>
      <trkpt lat="31.694442350417376" lon="-4.579628817737103">
        <ele>921.080322265625</ele>
        <time>2011-04-23T16:21:46Z</time>
      </trkpt>
      <trkpt lat="31.69510661624372" lon="-4.580112285912037">
        <ele>918.677001953125</ele>
        <time>2011-04-23T16:21:55Z</time>
      </trkpt>
      <trkpt lat="31.695409286767244" lon="-4.580305991694331">
        <ele>917.715576171875</ele>
        <time>2011-04-23T16:21:59Z</time>
      </trkpt>
      <trkpt lat="31.69607212767005" lon="-4.580440269783139">
        <ele>915.793212890625</ele>
        <time>2011-04-23T16:22:07Z</time>
      </trkpt>
      <trkpt lat="31.697041830047965" lon="-4.580575553700328">
        <ele>917.235107421875</ele>
        <time>2011-04-23T16:22:19Z</time>
      </trkpt>
      <trkpt lat="31.697821095585823" lon="-4.580374890938401">
        <ele>919.15771484375</ele>
        <time>2011-04-23T16:22:29Z</time>
      </trkpt>
      <trkpt lat="31.698584016412497" lon="-4.579966021701694">
        <ele>920.599609375</ele>
        <time>2011-04-23T16:22:38Z</time>
      </trkpt>
      <trkpt lat="31.699132779613137" lon="-4.579867869615555">
        <ele>921.560791015625</ele>
        <time>2011-04-23T16:22:44Z</time>
      </trkpt>
      <trkpt lat="31.699765529483557" lon="-4.579696040600538">
        <ele>922.522216796875</ele>
        <time>2011-04-23T16:22:52Z</time>
      </trkpt>
      <trkpt lat="31.700374726206064" lon="-4.579561846330762">
        <ele>922.04150390625</ele>
        <time>2011-04-23T16:22:59Z</time>
      </trkpt>
      <trkpt lat="31.701441491022706" lon="-4.579455479979515">
        <ele>923.0029296875</ele>
        <time>2011-04-23T16:23:10Z</time>
      </trkpt>
      <trkpt lat="31.702324943616986" lon="-4.57935799844563">
        <ele>923.964111328125</ele>
        <time>2011-04-23T16:23:20Z</time>
      </trkpt>
      <trkpt lat="31.703147459775209" lon="-4.579443745315075">
        <ele>925.886962890625</ele>
        <time>2011-04-23T16:23:29Z</time>
      </trkpt>
      <trkpt lat="31.70407198369503" lon="-4.57959059625864">
        <ele>926.848388671875</ele>
        <time>2011-04-23T16:23:38Z</time>
      </trkpt>
      <trkpt lat="31.704629128798842" lon="-4.579660752788186">
        <ele>925.40625</ele>
        <time>2011-04-23T16:23:44Z</time>
      </trkpt>
      <trkpt lat="31.705176550894976" lon="-4.579810788854957">
        <ele>926.36767578125</ele>
        <time>2011-04-23T16:23:50Z</time>
      </trkpt>
      <trkpt lat="31.705763535574079" lon="-4.58016618154943">
        <ele>926.36767578125</ele>
        <time>2011-04-23T16:23:58Z</time>
      </trkpt>
      <trkpt lat="31.706285057589412" lon="-4.580423925071955">
        <ele>923.964111328125</ele>
        <time>2011-04-23T16:24:05Z</time>
      </trkpt>
      <trkpt lat="31.706459233537316" lon="-4.580586282536387">
        <ele>923.0029296875</ele>
        <time>2011-04-23T16:24:08Z</time>
      </trkpt>
      <trkpt lat="31.706976061686873" lon="-4.580813767388463">
        <ele>922.522216796875</ele>
        <time>2011-04-23T16:24:15Z</time>
      </trkpt>
      <trkpt lat="31.707856161519885" lon="-4.581022895872593">
        <ele>926.36767578125</ele>
        <time>2011-04-23T16:24:25Z</time>
      </trkpt>
      <trkpt lat="31.70875989831984" lon="-4.581489432603121">
        <ele>924.92578125</ele>
        <time>2011-04-23T16:24:34Z</time>
      </trkpt>
      <trkpt lat="31.71047642827034" lon="-4.582205163314939">
        <ele>923.483642578125</ele>
        <time>2011-04-23T16:24:50Z</time>
      </trkpt>
      <trkpt lat="31.711234739050269" lon="-4.582417393103242">
        <ele>925.886962890625</ele>
        <time>2011-04-23T16:24:58Z</time>
      </trkpt>
      <trkpt lat="31.712203687056899" lon="-4.58246223628521">
        <ele>927.8095703125</ele>
        <time>2011-04-23T16:25:08Z</time>
      </trkpt>
      <trkpt lat="31.712379120290279" lon="-4.582436671480537">
        <ele>928.290283203125</ele>
        <time>2011-04-23T16:25:10Z</time>
      </trkpt>
      <trkpt lat="31.713287467136979" lon="-4.582610847428441">
        <ele>930.212890625</ele>
        <time>2011-04-23T16:25:20Z</time>
      </trkpt>
      <trkpt lat="31.714220121502876" lon="-4.582772366702557">
        <ele>932.135498046875</ele>
        <time>2011-04-23T16:25:30Z</time>
      </trkpt>
      <trkpt lat="31.715087899938226" lon="-4.582888456061482">
        <ele>934.05810546875</ele>
        <time>2011-04-23T16:25:40Z</time>
      </trkpt>
      <trkpt lat="31.715837744995952" lon="-4.582977220416069">
        <ele>935.01953125</ele>
        <time>2011-04-23T16:25:48Z</time>
      </trkpt>
      <trkpt lat="31.716503854840994" lon="-4.583312831819058">
        <ele>934.05810546875</ele>
        <time>2011-04-23T16:25:55Z</time>
      </trkpt>
      <trkpt lat="31.717031328007579" lon="-4.583823038265109">
        <ele>934.05810546875</ele>
        <time>2011-04-23T16:26:02Z</time>
      </trkpt>
      <trkpt lat="31.717687044292688" lon="-4.584434162825346">
        <ele>933.577392578125</ele>
        <time>2011-04-23T16:26:11Z</time>
      </trkpt>
      <trkpt lat="31.718428591266274" lon="-4.585171518847346">
        <ele>935.980712890625</ele>
        <time>2011-04-23T16:26:21Z</time>
      </trkpt>
      <trkpt lat="31.719373231753707" lon="-4.585924884304404">
        <ele>935.980712890625</ele>
        <time>2011-04-23T16:26:32Z</time>
      </trkpt>
      <trkpt lat="31.71982535161078" lon="-4.586066119372845">
        <ele>935.01953125</ele>
        <time>2011-04-23T16:26:39Z</time>
      </trkpt>
      <trkpt lat="31.719956779852509" lon="-4.586093360558152">
        <ele>935.01953125</ele>
        <time>2011-04-23T16:26:41Z</time>
      </trkpt>
      <trkpt lat="31.720267999917269" lon="-4.586056061089039">
        <ele>935.01953125</ele>
        <time>2011-04-23T16:26:48Z</time>
      </trkpt>
      <trkpt lat="31.720525324344635" lon="-4.586039632558823">
        <ele>934.05810546875</ele>
        <time>2011-04-23T16:26:55Z</time>
      </trkpt>
      <trkpt lat="31.720835287123919" lon="-4.586072070524097">
        <ele>933.577392578125</ele>
        <time>2011-04-23T16:27:00Z</time>
      </trkpt>
      <trkpt lat="31.721284138038754" lon="-4.586007278412581">
        <ele>936.94189453125</ele>
        <time>2011-04-23T16:27:08Z</time>
      </trkpt>
      <trkpt lat="31.721694096922874" lon="-4.585583573207259">
        <ele>939.34521484375</ele>
        <time>2011-04-23T16:27:16Z</time>
      </trkpt>
      <trkpt lat="31.721951421350241" lon="-4.585286267101765">
        <ele>940.306884765625</ele>
        <time>2011-04-23T16:27:21Z</time>
      </trkpt>
      <trkpt lat="31.722700763493776" lon="-4.584921738132834">
        <ele>942.2294921875</ele>
        <time>2011-04-23T16:27:31Z</time>
      </trkpt>
      <trkpt lat="31.72334935516119" lon="-4.584685619920492">
        <ele>942.2294921875</ele>
        <time>2011-04-23T16:27:39Z</time>
      </trkpt>
      <trkpt lat="31.724127950146794" lon="-4.584524352103472">
        <ele>941.748779296875</ele>
        <time>2011-04-23T16:27:48Z</time>
      </trkpt>
      <trkpt lat="31.724939150735736" lon="-4.584381189197302">
        <ele>940.787353515625</ele>
        <time>2011-04-23T16:27:57Z</time>
      </trkpt>
      <trkpt lat="31.725511467084289" lon="-4.584156386554241">
        <ele>940.787353515625</ele>
        <time>2011-04-23T16:28:04Z</time>
      </trkpt>
      <trkpt lat="31.726149749010801" lon="-4.58384407684207">
        <ele>941.748779296875</ele>
        <time>2011-04-23T16:28:12Z</time>
      </trkpt>
      <trkpt lat="31.726851481944323" lon="-4.583301851525903">
        <ele>941.26806640625</ele>
        <time>2011-04-23T16:28:21Z</time>
      </trkpt>
      <trkpt lat="31.727604093030095" lon="-4.583034552633762">
        <ele>941.748779296875</ele>
        <time>2011-04-23T16:28:29Z</time>
      </trkpt>
      <trkpt lat="31.728352596983314" lon="-4.582716878503561">
        <ele>941.26806640625</ele>
        <time>2011-04-23T16:28:39Z</time>
      </trkpt>
      <trkpt lat="31.72859818674624" lon="-4.582640687003732">
        <ele>941.748779296875</ele>
        <time>2011-04-23T16:28:42Z</time>
      </trkpt>
      <trkpt lat="31.729361275210977" lon="-4.582303818315268">
        <ele>943.67138671875</ele>
        <time>2011-04-23T16:28:52Z</time>
      </trkpt>
      <trkpt lat="31.729649947956204" lon="-4.582157554104924">
        <ele>942.2294921875</ele>
        <time>2011-04-23T16:28:57Z</time>
      </trkpt>
      <trkpt lat="31.729865530505776" lon="-4.582141460850835">
        <ele>942.710205078125</ele>
        <time>2011-04-23T16:29:01Z</time>
      </trkpt>
      <trkpt lat="31.730088070034981" lon="-4.582203067839146">
        <ele>942.710205078125</ele>
        <time>2011-04-23T16:29:09Z</time>
      </trkpt>
      <trkpt lat="31.730214888229966" lon="-4.582248833030462">
        <ele>943.190673828125</ele>
        <time>2011-04-23T16:29:12Z</time>
      </trkpt>
      <trkpt lat="31.730462154373527" lon="-4.58223114721477">
        <ele>944.152099609375</ele>
        <time>2011-04-23T16:29:16Z</time>
      </trkpt>
      <trkpt lat="31.731094568967819" lon="-4.581884471699596">
        <ele>942.2294921875</ele>
        <time>2011-04-23T16:29:24Z</time>
      </trkpt>
      <trkpt lat="31.731514083221555" lon="-4.58162815310061">
        <ele>940.787353515625</ele>
        <time>2011-04-23T16:29:29Z</time>
      </trkpt>
      <trkpt lat="31.732346238568425" lon="-4.58147962577641">
        <ele>939.825927734375</ele>
        <time>2011-04-23T16:29:38Z</time>
      </trkpt>
      <trkpt lat="31.733194151893258" lon="-4.581305030733347">
        <ele>939.825927734375</ele>
        <time>2011-04-23T16:29:47Z</time>
      </trkpt>
      <trkpt lat="31.734155975282192" lon="-4.581102859228849">
        <ele>938.86474609375</ele>
        <time>2011-04-23T16:29:57Z</time>
      </trkpt>
      <trkpt lat="31.734898192808032" lon="-4.580907979980111">
        <ele>940.306884765625</ele>
        <time>2011-04-23T16:30:06Z</time>
      </trkpt>
      <trkpt lat="31.735627334564924" lon="-4.58072617650032">
        <ele>940.787353515625</ele>
        <time>2011-04-23T16:30:15Z</time>
      </trkpt>
      <trkpt lat="31.735888682305813" lon="-4.580679321661592">
        <ele>940.306884765625</ele>
        <time>2011-04-23T16:30:18Z</time>
      </trkpt>
      <trkpt lat="31.736683119088411" lon="-4.580640429630876">
        <ele>939.825927734375</ele>
        <time>2011-04-23T16:30:27Z</time>
      </trkpt>
      <trkpt lat="31.737552490085363" lon="-4.58049357868731">
        <ele>938.86474609375</ele>
        <time>2011-04-23T16:30:37Z</time>
      </trkpt>
      <trkpt lat="31.738204099237919" lon="-4.580346057191491">
        <ele>943.190673828125</ele>
        <time>2011-04-23T16:30:45Z</time>
      </trkpt>
      <trkpt lat="31.738422699272633" lon="-4.580291071906686">
        <ele>945.11328125</ele>
        <time>2011-04-23T16:30:48Z</time>
      </trkpt>
      <trkpt lat="31.739231636747718" lon="-4.580190572887659">
        <ele>950.400634765625</ele>
        <time>2011-04-23T16:30:58Z</time>
      </trkpt>
      <trkpt lat="31.739714853465557" lon="-4.580050930380821">
        <ele>957.1298828125</ele>
        <time>2011-04-23T16:31:06Z</time>
      </trkpt>
      <trkpt lat="31.739842845126987" lon="-4.580064676702023">
        <ele>960.013671875</ele>
        <time>2011-04-23T16:31:12Z</time>
      </trkpt>
      <trkpt lat="31.739975949749351" lon="-4.580147825181484">
        <ele>971.54931640625</ele>
        <time>2011-04-23T16:31:54Z</time>
      </trkpt>
      <trkpt lat="31.740446425974369" lon="-4.580178167670965">
        <ele>972.99169921875</ele>
        <time>2011-04-23T16:32:02Z</time>
      </trkpt>
      <trkpt lat="31.741159558296204" lon="-4.580138185992837">
        <ele>974.914306640625</ele>
        <time>2011-04-23T16:32:11Z</time>
      </trkpt>
      <trkpt lat="31.741942428052425" lon="-4.580005584284663">
        <ele>972.0302734375</ele>
        <time>2011-04-23T16:32:19Z</time>
      </trkpt>
      <trkpt lat="31.742496639490128" lon="-4.579847082495689">
        <ele>969.626953125</ele>
        <time>2011-04-23T16:32:25Z</time>
      </trkpt>
      <trkpt lat="31.742945238947868" lon="-4.5799277164042">
        <ele>971.06884765625</ele>
        <time>2011-04-23T16:32:31Z</time>
      </trkpt>
      <trkpt lat="31.743556950241327" lon="-4.579939367249608">
        <ele>972.0302734375</ele>
        <time>2011-04-23T16:32:39Z</time>
      </trkpt>
      <trkpt lat="31.74445959739387" lon="-4.579935092478991">
        <ele>974.43359375</ele>
        <time>2011-04-23T16:32:49Z</time>
      </trkpt>
      <trkpt lat="31.745633063837886" lon="-4.579948922619224">
        <ele>976.8369140625</ele>
        <time>2011-04-23T16:33:01Z</time>
      </trkpt>
      <trkpt lat="31.746652387082577" lon="-4.580145729705691">
        <ele>978.759521484375</ele>
        <time>2011-04-23T16:33:12Z</time>
      </trkpt>
      <trkpt lat="31.74772116355598" lon="-4.580482598394156">
        <ele>978.27880859375</ele>
        <time>2011-04-23T16:33:23Z</time>
      </trkpt>
      <trkpt lat="31.747923167422414" lon="-4.580539092421532">
        <ele>978.27880859375</ele>
        <time>2011-04-23T16:33:25Z</time>
      </trkpt>
      <trkpt lat="31.748807290568948" lon="-4.580672783777118">
        <ele>979.720703125</ele>
        <time>2011-04-23T16:33:35Z</time>
      </trkpt>
      <trkpt lat="31.749274497851729" lon="-4.580651829019189">
        <ele>981.643310546875</ele>
        <time>2011-04-23T16:33:41Z</time>
      </trkpt>
      <trkpt lat="31.749601727351546" lon="-4.580719554796815">
        <ele>982.604736328125</ele>
        <time>2011-04-23T16:33:45Z</time>
      </trkpt>
      <trkpt lat="31.749745644629002" lon="-4.580779150128365">
        <ele>981.643310546875</ele>
        <time>2011-04-23T16:33:47Z</time>
      </trkpt>
      <trkpt lat="31.750234644860029" lon="-4.580710250884295">
        <ele>982.1240234375</ele>
        <time>2011-04-23T16:33:54Z</time>
      </trkpt>
      <trkpt lat="31.75045307725668" lon="-4.580580163747072">
        <ele>982.604736328125</ele>
        <time>2011-04-23T16:34:02Z</time>
      </trkpt>
      <trkpt lat="31.750667653977871" lon="-4.580530542880297">
        <ele>982.604736328125</ele>
        <time>2011-04-23T16:34:10Z</time>
      </trkpt>
      <trkpt lat="31.750884493812919" lon="-4.580628192052245">
        <ele>980.68212890625</ele>
        <time>2011-04-23T16:34:18Z</time>
      </trkpt>
      <trkpt lat="31.751369051635265" lon="-4.580829357728362">
        <ele>975.394775390625</ele>
        <time>2011-04-23T16:34:29Z</time>
      </trkpt>
      <trkpt lat="31.751492181792855" lon="-4.580866154283285">
        <ele>974.914306640625</ele>
        <time>2011-04-23T16:34:31Z</time>
      </trkpt>
      <trkpt lat="31.751726372167468" lon="-4.581031277775765">
        <ele>973.952880859375</ele>
        <time>2011-04-23T16:34:35Z</time>
      </trkpt>
      <trkpt lat="31.751993168145418" lon="-4.581306371837854">
        <ele>973.472412109375</ele>
        <time>2011-04-23T16:34:40Z</time>
      </trkpt>
      <trkpt lat="31.752261891961098" lon="-4.581408463418484">
        <ele>973.472412109375</ele>
        <time>2011-04-23T16:34:45Z</time>
      </trkpt>
      <trkpt lat="31.752843093127012" lon="-4.581435369327664">
        <ele>976.356201171875</ele>
        <time>2011-04-23T16:34:54Z</time>
      </trkpt>
      <trkpt lat="31.753603667020798" lon="-4.58166821859777">
        <ele>978.27880859375</ele>
        <time>2011-04-23T16:35:03Z</time>
      </trkpt>
      <trkpt lat="31.754552749916911" lon="-4.582158643752337">
        <ele>980.68212890625</ele>
        <time>2011-04-23T16:35:16Z</time>
      </trkpt>
      <trkpt lat="31.755376439541578" lon="-4.582516718655825">
        <ele>981.643310546875</ele>
        <time>2011-04-23T16:35:26Z</time>
      </trkpt>
      <trkpt lat="31.756083033978939" lon="-4.582651164382696">
        <ele>982.604736328125</ele>
        <time>2011-04-23T16:35:35Z</time>
      </trkpt>
      <trkpt lat="31.756809996441007" lon="-4.582894742488861">
        <ele>981.643310546875</ele>
        <time>2011-04-23T16:35:45Z</time>
      </trkpt>
      <trkpt lat="31.757017280906439" lon="-4.582971269264817">
        <ele>981.162841796875</ele>
        <time>2011-04-23T16:35:49Z</time>
      </trkpt>
      <trkpt lat="31.757360184565187" lon="-4.582866160199046">
        <ele>979.720703125</ele>
        <time>2011-04-23T16:35:56Z</time>
      </trkpt>
      <trkpt lat="31.757441069930792" lon="-4.582789884880185">
        <ele>979.239990234375</ele>
        <time>2011-04-23T16:35:58Z</time>
      </trkpt>
      <trkpt lat="31.757646426558495" lon="-4.582660887390375">
        <ele>978.27880859375</ele>
        <time>2011-04-23T16:36:03Z</time>
      </trkpt>
      <trkpt lat="31.757805431261659" lon="-4.582552928477526">
        <ele>977.798095703125</ele>
        <time>2011-04-23T16:36:07Z</time>
      </trkpt>
      <trkpt lat="31.758096786215901" lon="-4.582270542159677">
        <ele>975.87548828125</ele>
        <time>2011-04-23T16:36:15Z</time>
      </trkpt>
      <trkpt lat="31.758418567478657" lon="-4.582128887996078">
        <ele>976.8369140625</ele>
        <time>2011-04-23T16:36:21Z</time>
      </trkpt>
      <trkpt lat="31.758704390376806" lon="-4.582112962380052">
        <ele>979.239990234375</ele>
        <time>2011-04-23T16:36:26Z</time>
      </trkpt>
      <trkpt lat="31.759056849405169" lon="-4.581907438114286">
        <ele>979.720703125</ele>
        <time>2011-04-23T16:36:33Z</time>
      </trkpt>
      <trkpt lat="31.759114265441895" lon="-4.581756144762039">
        <ele>979.239990234375</ele>
        <time>2011-04-23T16:36:35Z</time>
      </trkpt>
      <trkpt lat="31.759513495489955" lon="-4.580922396853566">
        <ele>978.759521484375</ele>
        <time>2011-04-23T16:36:45Z</time>
      </trkpt>
      <trkpt lat="31.759612821042538" lon="-4.580769427120686">
        <ele>978.759521484375</ele>
        <time>2011-04-23T16:36:47Z</time>
      </trkpt>
      <trkpt lat="31.759926052764058" lon="-4.580631293356419">
        <ele>979.239990234375</ele>
        <time>2011-04-23T16:36:52Z</time>
      </trkpt>
      <trkpt lat="31.760809253901243" lon="-4.580840086564422">
        <ele>981.643310546875</ele>
        <time>2011-04-23T16:37:01Z</time>
      </trkpt>
      <trkpt lat="31.761689940467477" lon="-4.581004790961742">
        <ele>984.52734375</ele>
        <time>2011-04-23T16:37:10Z</time>
      </trkpt>
      <trkpt lat="31.762527879327536" lon="-4.581107050180435">
        <ele>985.96923828125</ele>
        <time>2011-04-23T16:37:20Z</time>
      </trkpt>
      <trkpt lat="31.763313850387931" lon="-4.581274436786771">
        <ele>987.891845703125</ele>
        <time>2011-04-23T16:37:29Z</time>
      </trkpt>
      <trkpt lat="31.763726072385907" lon="-4.581378623843193">
        <ele>986.930419921875</ele>
        <time>2011-04-23T16:37:34Z</time>
      </trkpt>
      <trkpt lat="31.764168972149491" lon="-4.581375941634178">
        <ele>986.449951171875</ele>
        <time>2011-04-23T16:37:39Z</time>
      </trkpt>
      <trkpt lat="31.764539536088705" lon="-4.581438973546028">
        <ele>987.4111328125</ele>
        <time>2011-04-23T16:37:43Z</time>
      </trkpt>
      <trkpt lat="31.765153091400862" lon="-4.581459425389767">
        <ele>989.333984375</ele>
        <time>2011-04-23T16:37:50Z</time>
      </trkpt>
      <trkpt lat="31.765785422176123" lon="-4.581616083160043">
        <ele>991.256591796875</ele>
        <time>2011-04-23T16:37:57Z</time>
      </trkpt>
      <trkpt lat="31.766554126515985" lon="-4.581881873309612">
        <ele>990.29541015625</ele>
        <time>2011-04-23T16:38:06Z</time>
      </trkpt>
      <trkpt lat="31.767044216394424" lon="-4.582029478624463">
        <ele>990.29541015625</ele>
        <time>2011-04-23T16:38:13Z</time>
      </trkpt>
      <trkpt lat="31.767605720087886" lon="-4.582218658179045">
        <ele>990.29541015625</ele>
        <time>2011-04-23T16:38:21Z</time>
      </trkpt>
      <trkpt lat="31.768451118841767" lon="-4.582501547411084">
        <ele>990.29541015625</ele>
        <time>2011-04-23T16:38:32Z</time>
      </trkpt>
      <trkpt lat="31.768909860402346" lon="-4.582705562934279">
        <ele>988.853515625</ele>
        <time>2011-04-23T16:38:39Z</time>
      </trkpt>
      <trkpt lat="31.769418474286795" lon="-4.582879822701216">
        <ele>988.853515625</ele>
        <time>2011-04-23T16:38:48Z</time>
      </trkpt>
      <trkpt lat="31.769985845312476" lon="-4.583138236775994">
        <ele>990.77587890625</ele>
        <time>2011-04-23T16:38:56Z</time>
      </trkpt>
      <trkpt lat="31.77094666287303" lon="-4.583352226763964">
        <ele>989.814697265625</ele>
        <time>2011-04-23T16:39:06Z</time>
      </trkpt>
      <trkpt lat="31.771152690052986" lon="-4.583375528454781">
        <ele>990.29541015625</ele>
        <time>2011-04-23T16:39:08Z</time>
      </trkpt>
      <trkpt lat="31.771517470479012" lon="-4.583484325557947">
        <ele>990.77587890625</ele>
        <time>2011-04-23T16:39:12Z</time>
      </trkpt>
      <trkpt lat="31.772437049075961" lon="-4.583650538697839">
        <ele>991.7373046875</ele>
        <time>2011-04-23T16:39:23Z</time>
      </trkpt>
      <trkpt lat="31.773369619622827" lon="-4.583962764590979">
        <ele>991.256591796875</ele>
        <time>2011-04-23T16:39:34Z</time>
      </trkpt>
      <trkpt lat="31.774133378639817" lon="-4.584164349362254">
        <ele>992.218017578125</ele>
        <time>2011-04-23T16:39:43Z</time>
      </trkpt>
      <trkpt lat="31.774799237027764" lon="-4.584402730688453">
        <ele>993.659912109375</ele>
        <time>2011-04-23T16:39:52Z</time>
      </trkpt>
      <trkpt lat="31.77527935244143" lon="-4.584615044295788">
        <ele>994.140625</ele>
        <time>2011-04-23T16:39:59Z</time>
      </trkpt>
      <trkpt lat="31.775930877774954" lon="-4.584864657372236">
        <ele>994.140625</ele>
        <time>2011-04-23T16:40:07Z</time>
      </trkpt>
      <trkpt lat="31.776473438367248" lon="-4.585054842755199">
        <ele>993.659912109375</ele>
        <time>2011-04-23T16:40:14Z</time>
      </trkpt>
      <trkpt lat="31.777043575420976" lon="-4.58523572422564">
        <ele>993.659912109375</ele>
        <time>2011-04-23T16:40:21Z</time>
      </trkpt>
      <trkpt lat="31.777228647843003" lon="-4.585525318980217">
        <ele>993.659912109375</ele>
        <time>2011-04-23T16:40:26Z</time>
      </trkpt>
      <trkpt lat="31.777279190719128" lon="-4.585850453004241">
        <ele>994.62109375</ele>
        <time>2011-04-23T16:40:30Z</time>
      </trkpt>
      <trkpt lat="31.777215572074056" lon="-4.586730049923062">
        <ele>994.62109375</ele>
        <time>2011-04-23T16:40:39Z</time>
      </trkpt>
      <trkpt lat="31.777184391394258" lon="-4.586972873657942">
        <ele>994.62109375</ele>
        <time>2011-04-23T16:40:42Z</time>
      </trkpt>
      <trkpt lat="31.777063021436334" lon="-4.587173368781805">
        <ele>994.62109375</ele>
        <time>2011-04-23T16:40:47Z</time>
      </trkpt>
      <trkpt lat="31.776825981214643" lon="-4.587346538901329">
        <ele>995.101806640625</ele>
        <time>2011-04-23T16:40:52Z</time>
      </trkpt>
      <trkpt lat="31.776848528534174" lon="-4.587759934365749">
        <ele>995.58251953125</ele>
        <time>2011-04-23T16:41:00Z</time>
      </trkpt>
      <trkpt lat="31.777139296755195" lon="-4.588038632646203">
        <ele>995.101806640625</ele>
        <time>2011-04-23T16:41:06Z</time>
      </trkpt>
      <trkpt lat="31.777288494631648" lon="-4.588094875216484">
        <ele>994.62109375</ele>
        <time>2011-04-23T16:41:08Z</time>
      </trkpt>
      <trkpt lat="31.777652353048325" lon="-4.588296627625823">
        <ele>993.659912109375</ele>
        <time>2011-04-23T16:41:13Z</time>
      </trkpt>
      <trkpt lat="31.778044374659657" lon="-4.588367622345686">
        <ele>993.17919921875</ele>
        <time>2011-04-23T16:41:18Z</time>
      </trkpt>
      <trkpt lat="31.778161218389869" lon="-4.588602147996426">
        <ele>993.659912109375</ele>
        <time>2011-04-23T16:41:23Z</time>
      </trkpt>
      <trkpt lat="31.778134983032942" lon="-4.588739946484566">
        <ele>994.62109375</ele>
        <time>2011-04-23T16:41:25Z</time>
      </trkpt>
      <trkpt lat="31.778134480118752" lon="-4.589067427441478">
        <ele>995.58251953125</ele>
        <time>2011-04-23T16:41:29Z</time>
      </trkpt>
      <trkpt lat="31.778212264180183" lon="-4.589364230632782">
        <ele>997.98583984375</ele>
        <time>2011-04-23T16:41:34Z</time>
      </trkpt>
      <trkpt lat="31.778341764584184" lon="-4.589551817625761">
        <ele>1000.38916015625</ele>
        <time>2011-04-23T16:41:38Z</time>
      </trkpt>
      <trkpt lat="31.778406975790858" lon="-4.589672852307558">
        <ele>1000.86962890625</ele>
        <time>2011-04-23T16:41:40Z</time>
      </trkpt>
      <trkpt lat="31.7787847481668" lon="-4.589948868378997">
        <ele>1003.27294921875</ele>
        <time>2011-04-23T16:41:47Z</time>
      </trkpt>
      <trkpt lat="31.77925824187696" lon="-4.590402580797672">
        <ele>1003.753662109375</ele>
        <time>2011-04-23T16:41:55Z</time>
      </trkpt>
      <trkpt lat="31.77936963737011" lon="-4.59050408564508">
        <ele>1004.234619140625</ele>
        <time>2011-04-23T16:41:57Z</time>
      </trkpt>
      <trkpt lat="31.779685635119677" lon="-4.591091070324183">
        <ele>1005.19580078125</ele>
        <time>2011-04-23T16:42:05Z</time>
      </trkpt>
      <trkpt lat="31.779987383633852" lon="-4.591966727748513">
        <ele>1005.676513671875</ele>
        <time>2011-04-23T16:42:15Z</time>
      </trkpt>
      <trkpt lat="31.78008989430964" lon="-4.592226231470704">
        <ele>1005.676513671875</ele>
        <time>2011-04-23T16:42:19Z</time>
      </trkpt>
      <trkpt lat="31.780220316722989" lon="-4.592386074364185">
        <ele>1006.156982421875</ele>
        <time>2011-04-23T16:42:23Z</time>
      </trkpt>
      <trkpt lat="31.780347134917974" lon="-4.592590341344476">
        <ele>1006.156982421875</ele>
        <time>2011-04-23T16:42:28Z</time>
      </trkpt>
      <trkpt lat="31.780342189595103" lon="-4.592958223074675">
        <ele>1006.6376953125</ele>
        <time>2011-04-23T16:42:37Z</time>
      </trkpt>
      <trkpt lat="31.78055944852531" lon="-4.593094093725085">
        <ele>1002.3115234375</ele>
        <time>2011-04-23T16:42:45Z</time>
      </trkpt>
      <trkpt lat="31.780795147642493" lon="-4.593082275241613">
        <ele>1001.350341796875</ele>
        <time>2011-04-23T16:42:49Z</time>
      </trkpt>
      <trkpt lat="31.781408535316586" lon="-4.5929931756109">
        <ele>1002.3115234375</ele>
        <time>2011-04-23T16:42:59Z</time>
      </trkpt>
      <trkpt lat="31.781860152259469" lon="-4.592888234183192">
        <ele>1002.3115234375</ele>
        <time>2011-04-23T16:43:07Z</time>
      </trkpt>
      <trkpt lat="31.782489465549588" lon="-4.592925785109401">
        <ele>1002.3115234375</ele>
        <time>2011-04-23T16:43:16Z</time>
      </trkpt>
      <trkpt lat="31.782940747216344" lon="-4.593132231384516">
        <ele>1002.3115234375</ele>
        <time>2011-04-23T16:43:24Z</time>
      </trkpt>
      <trkpt lat="31.783132944256067" lon="-4.593196185305715">
        <ele>1003.27294921875</ele>
        <time>2011-04-23T16:43:29Z</time>
      </trkpt>
      <trkpt lat="31.783266132697463" lon="-4.593169279396534">
        <ele>1003.27294921875</ele>
        <time>2011-04-23T16:43:32Z</time>
      </trkpt>
      <trkpt lat="31.783658321946859" lon="-4.593146061524749">
        <ele>1004.234619140625</ele>
        <time>2011-04-23T16:43:39Z</time>
      </trkpt>
      <trkpt lat="31.783918747678399" lon="-4.593208339065313">
        <ele>1005.676513671875</ele>
        <time>2011-04-23T16:43:47Z</time>
      </trkpt>
      <trkpt lat="31.784360222518444" lon="-4.592964425683022">
        <ele>1003.753662109375</ele>
        <time>2011-04-23T16:43:57Z</time>
      </trkpt>
      <trkpt lat="31.784535236656666" lon="-4.592814641073346">
        <ele>1002.792236328125</ele>
        <time>2011-04-23T16:44:01Z</time>
      </trkpt>
      <trkpt lat="31.785007892176509" lon="-4.592573074623942">
        <ele>1001.8310546875</ele>
        <time>2011-04-23T16:44:09Z</time>
      </trkpt>
      <trkpt lat="31.785429837182164" lon="-4.592513646930456">
        <ele>1002.792236328125</ele>
        <time>2011-04-23T16:44:17Z</time>
      </trkpt>
      <trkpt lat="31.785826049745083" lon="-4.592512724921107">
        <ele>1002.792236328125</ele>
        <time>2011-04-23T16:44:23Z</time>
      </trkpt>
      <trkpt lat="31.786428792402148" lon="-4.592398479580879">
        <ele>1006.156982421875</ele>
        <time>2011-04-23T16:44:32Z</time>
      </trkpt>
      <trkpt lat="31.786662144586444" lon="-4.592386828735471">
        <ele>1006.6376953125</ele>
        <time>2011-04-23T16:44:35Z</time>
      </trkpt>
      <trkpt lat="31.787205543369055" lon="-4.592321868985891">
        <ele>1008.079833984375</ele>
        <time>2011-04-23T16:44:44Z</time>
      </trkpt>
      <trkpt lat="31.787734441459179" lon="-4.592277444899082">
        <ele>1009.521728515625</ele>
        <time>2011-04-23T16:44:55Z</time>
      </trkpt>
      <trkpt lat="31.788372974842787" lon="-4.592166636139154">
        <ele>1010.002197265625</ele>
        <time>2011-04-23T16:45:03Z</time>
      </trkpt>
      <trkpt lat="31.788904722779989" lon="-4.592044176533818">
        <ele>1010.002197265625</ele>
        <time>2011-04-23T16:45:10Z</time>
      </trkpt>
      <trkpt lat="31.78932256065309" lon="-4.592048199847341">
        <ele>1009.521728515625</ele>
        <time>2011-04-23T16:45:16Z</time>
      </trkpt>
      <trkpt lat="31.78952774964273" lon="-4.592119362205267">
        <ele>1009.041015625</ele>
        <time>2011-04-23T16:45:19Z</time>
      </trkpt>
      <trkpt lat="31.789994034916162" lon="-4.592236960306764">
        <ele>1009.041015625</ele>
        <time>2011-04-23T16:45:26Z</time>
      </trkpt>
      <trkpt lat="31.790709681808949" lon="-4.592392360791564">
        <ele>1011.925048828125</ele>
        <time>2011-04-23T16:45:37Z</time>
      </trkpt>
      <trkpt lat="31.791292056441307" lon="-4.592588916420937">
        <ele>1013.847412109375</ele>
        <time>2011-04-23T16:45:45Z</time>
      </trkpt>
      <trkpt lat="31.791760856285691" lon="-4.592717075720429">
        <ele>1012.88623046875</ele>
        <time>2011-04-23T16:45:54Z</time>
      </trkpt>
      <trkpt lat="31.792254131287336" lon="-4.593064673244953">
        <ele>1013.847412109375</ele>
        <time>2011-04-23T16:46:03Z</time>
      </trkpt>
      <trkpt lat="31.792505923658609" lon="-4.593174643814564">
        <ele>1013.847412109375</ele>
        <time>2011-04-23T16:46:09Z</time>
      </trkpt>
      <trkpt lat="31.79274489171803" lon="-4.593244465067983">
        <ele>1015.770263671875</ele>
        <time>2011-04-23T16:46:14Z</time>
      </trkpt>
      <trkpt lat="31.793286697939038" lon="-4.593790881335735">
        <ele>1018.654052734375</ele>
        <time>2011-04-23T16:46:25Z</time>
      </trkpt>
      <trkpt lat="31.793394489213824" lon="-4.593855841085315">
        <ele>1019.615478515625</ele>
        <time>2011-04-23T16:46:27Z</time>
      </trkpt>
      <trkpt lat="31.793730184435844" lon="-4.593864139169455">
        <ele>1019.134765625</ele>
        <time>2011-04-23T16:46:34Z</time>
      </trkpt>
      <trkpt lat="31.79411843419075" lon="-4.593828180804849">
        <ele>1019.134765625</ele>
        <time>2011-04-23T16:46:42Z</time>
      </trkpt>
      <trkpt lat="31.794556388631463" lon="-4.593692980706692">
        <ele>1018.654052734375</ele>
        <time>2011-04-23T16:46:49Z</time>
      </trkpt>
      <trkpt lat="31.794811617583036" lon="-4.593721143901348">
        <ele>1019.134765625</ele>
        <time>2011-04-23T16:46:53Z</time>
      </trkpt>
      <trkpt lat="31.79527304135263" lon="-4.593815775588155">
        <ele>1022.018798828125</ele>
        <time>2011-04-23T16:47:00Z</time>
      </trkpt>
      <trkpt lat="31.795521732419729" lon="-4.59384243004024">
        <ele>1021.5380859375</ele>
        <time>2011-04-23T16:47:04Z</time>
      </trkpt>
      <trkpt lat="31.796096982434392" lon="-4.593674959614873">
        <ele>1022.980224609375</ele>
        <time>2011-04-23T16:47:14Z</time>
      </trkpt>
      <trkpt lat="31.796528734266758" lon="-4.593341443687677">
        <ele>1022.49951171875</ele>
        <time>2011-04-23T16:47:22Z</time>
      </trkpt>
      <trkpt lat="31.796924779191613" lon="-4.593310598284006">
        <ele>1020.576904296875</ele>
        <time>2011-04-23T16:47:29Z</time>
      </trkpt>
      <trkpt lat="31.797261480242014" lon="-4.59345786832273">
        <ele>1020.576904296875</ele>
        <time>2011-04-23T16:47:35Z</time>
      </trkpt>
      <trkpt lat="31.797513188794255" lon="-4.593541268259287">
        <ele>1020.09619140625</ele>
        <time>2011-04-23T16:47:40Z</time>
      </trkpt>
      <trkpt lat="31.797625171020627" lon="-4.593570437282324">
        <ele>1021.0576171875</ele>
        <time>2011-04-23T16:47:42Z</time>
      </trkpt>
      <trkpt lat="31.797786857932806" lon="-4.593660878017545">
        <ele>1022.018798828125</ele>
        <time>2011-04-23T16:47:46Z</time>
      </trkpt>
      <trkpt lat="31.798126995563507" lon="-4.593698177486658">
        <ele>1023.94140625</ele>
        <time>2011-04-23T16:47:53Z</time>
      </trkpt>
      <trkpt lat="31.798357162624598" lon="-4.593659117817879">
        <ele>1024.90283203125</ele>
        <time>2011-04-23T16:47:57Z</time>
      </trkpt>
      <trkpt lat="31.798672238364816" lon="-4.593455353751779">
        <ele>1026.3447265625</ele>
        <time>2011-04-23T16:48:03Z</time>
      </trkpt>
      <trkpt lat="31.798855718225241" lon="-4.593342952430248">
        <ele>1026.825439453125</ele>
        <time>2011-04-23T16:48:06Z</time>
      </trkpt>
      <trkpt lat="31.799581339582801" lon="-4.593255277723074">
        <ele>1029.709228515625</ele>
        <time>2011-04-23T16:48:17Z</time>
      </trkpt>
      <trkpt lat="31.800084672868252" lon="-4.593472369015217">
        <ele>1028.748046875</ele>
        <time>2011-04-23T16:48:25Z</time>
      </trkpt>
      <trkpt lat="31.800867291167378" lon="-4.594151051715016">
        <ele>1027.30615234375</ele>
        <time>2011-04-23T16:48:38Z</time>
      </trkpt>
      <trkpt lat="31.801268784329295" lon="-4.594744239002466">
        <ele>1026.3447265625</ele>
        <time>2011-04-23T16:48:47Z</time>
      </trkpt>
      <trkpt lat="31.801547566428781" lon="-4.595342539250851">
        <ele>1026.825439453125</ele>
        <time>2011-04-23T16:48:56Z</time>
      </trkpt>
      <trkpt lat="31.801645718514919" lon="-4.595557451248169">
        <ele>1026.825439453125</ele>
        <time>2011-04-23T16:48:59Z</time>
      </trkpt>
      <trkpt lat="31.801982671022415" lon="-4.595979982987046">
        <ele>1027.30615234375</ele>
        <time>2011-04-23T16:49:06Z</time>
      </trkpt>
      <trkpt lat="31.802167491987348" lon="-4.596396144479513">
        <ele>1030.670654296875</ele>
        <time>2011-04-23T16:49:13Z</time>
      </trkpt>
      <trkpt lat="31.802366394549608" lon="-4.596434785053134">
        <ele>1017.212158203125</ele>
        <time>2011-04-23T16:49:18Z</time>
      </trkpt>
      <trkpt lat="31.802426828071475" lon="-4.596531176939607">
        <ele>1016.250732421875</ele>
        <time>2011-04-23T16:49:20Z</time>
      </trkpt>
      <trkpt lat="31.802576696500182" lon="-4.596782634034753">
        <ele>1015.770263671875</ele>
        <time>2011-04-23T16:49:25Z</time>
      </trkpt>
      <trkpt lat="31.802657498046756" lon="-4.596868129447103">
        <ele>1016.250732421875</ele>
        <time>2011-04-23T16:49:27Z</time>
      </trkpt>
      <trkpt lat="31.802751626819372" lon="-4.597045741975308">
        <ele>1017.212158203125</ele>
        <time>2011-04-23T16:49:31Z</time>
      </trkpt>
      <trkpt lat="31.802918342873454" lon="-4.597262162715197">
        <ele>1018.17333984375</ele>
        <time>2011-04-23T16:49:38Z</time>
      </trkpt>
      <trkpt lat="31.8030696362257" lon="-4.597469866275787">
        <ele>1034.515869140625</ele>
        <time>2011-04-23T16:50:36Z</time>
      </trkpt>
      <trkpt lat="31.803249847143888" lon="-4.597558630630374">
        <ele>1024.422119140625</ele>
        <time>2011-04-23T16:50:42Z</time>
      </trkpt>
      <trkpt lat="31.803500298410654" lon="-4.597682431340218">
        <ele>1023.94140625</ele>
        <time>2011-04-23T16:50:51Z</time>
      </trkpt>
      <trkpt lat="31.803616974502802" lon="-4.597782259806991">
        <ele>1020.09619140625</ele>
        <time>2011-04-23T16:51:40Z</time>
      </trkpt>
      <trkpt lat="31.803749324753881" lon="-4.597895834594965">
        <ele>1020.576904296875</ele>
        <time>2011-04-23T16:51:43Z</time>
      </trkpt>
      <trkpt lat="31.804021233692765" lon="-4.598294142633677">
        <ele>1023.4609375</ele>
        <time>2011-04-23T16:51:51Z</time>
      </trkpt>
      <trkpt lat="31.804185518994927" lon="-4.598480891436338">
        <ele>1030.18994140625</ele>
        <time>2011-04-23T16:51:55Z</time>
      </trkpt>
      <trkpt lat="31.804261961951852" lon="-4.598601842299104">
        <ele>1031.1513671875</ele>
        <time>2011-04-23T16:51:59Z</time>
      </trkpt>
      <trkpt lat="31.804279731586576" lon="-4.598878948017955">
        <ele>1035.47705078125</ele>
        <time>2011-04-23T16:52:19Z</time>
      </trkpt>
      <trkpt lat="31.804306386038661" lon="-4.599226042628288">
        <ele>1040.764404296875</ele>
        <time>2011-04-23T16:52:29Z</time>
      </trkpt>
      <trkpt lat="31.80435374379158" lon="-4.599338276311755">
        <ele>1040.283935546875</ele>
        <time>2011-04-23T16:52:37Z</time>
      </trkpt>
      <trkpt lat="31.804418452084064" lon="-4.5995017234236">
        <ele>1037.880615234375</ele>
        <time>2011-04-23T16:52:53Z</time>
      </trkpt>
      <trkpt lat="31.804514173418283" lon="-4.599766591563821">
        <ele>1037.880615234375</ele>
        <time>2011-04-23T16:52:58Z</time>
      </trkpt>
      <trkpt lat="31.804620455950499" lon="-4.599928027018905">
        <ele>1039.80322265625</ele>
        <time>2011-04-23T16:53:02Z</time>
      </trkpt>
      <trkpt lat="31.804712656885386" lon="-4.59997178055346">
        <ele>1041.2451171875</ele>
        <time>2011-04-23T16:53:04Z</time>
      </trkpt>
      <trkpt lat="31.80490736849606" lon="-4.599993824958801">
        <ele>1043.6484375</ele>
        <time>2011-04-23T16:53:08Z</time>
      </trkpt>
      <trkpt lat="31.805059751495719" lon="-4.599991561844945">
        <ele>1046.0517578125</ele>
        <time>2011-04-23T16:53:11Z</time>
      </trkpt>
      <trkpt lat="31.805323278531432" lon="-4.600155679509044">
        <ele>1049.89697265625</ele>
        <time>2011-04-23T16:53:17Z</time>
      </trkpt>
      <trkpt lat="31.80540332570672" lon="-4.600283754989505">
        <ele>1049.89697265625</ele>
        <time>2011-04-23T16:53:24Z</time>
      </trkpt>
      <trkpt lat="31.805595858022571" lon="-4.600470587611198">
        <ele>1044.609619140625</ele>
        <time>2011-04-23T16:53:57Z</time>
      </trkpt>
      <trkpt lat="31.805796017870307" lon="-4.600640824064612">
        <ele>1041.2451171875</ele>
        <time>2011-04-23T16:54:02Z</time>
      </trkpt>
      <trkpt lat="31.80589534342289" lon="-4.600700084120035">
        <ele>1042.20654296875</ele>
        <time>2011-04-23T16:54:04Z</time>
      </trkpt>
      <trkpt lat="31.806111847981811" lon="-4.60071936249733">
        <ele>1043.6484375</ele>
        <time>2011-04-23T16:54:08Z</time>
      </trkpt>
      <trkpt lat="31.806459361687303" lon="-4.600813323631883">
        <ele>1043.6484375</ele>
        <time>2011-04-23T16:54:14Z</time>
      </trkpt>
      <trkpt lat="31.806741496548057" lon="-4.600925892591476">
        <ele>1042.20654296875</ele>
        <time>2011-04-23T16:54:22Z</time>
      </trkpt>
      <trkpt lat="31.806904021650553" lon="-4.600848024711013">
        <ele>1039.80322265625</ele>
        <time>2011-04-23T16:54:26Z</time>
      </trkpt>
      <trkpt lat="31.80708859115839" lon="-4.600829919800162">
        <ele>1037.880615234375</ele>
        <time>2011-04-23T16:54:30Z</time>
      </trkpt>
      <trkpt lat="31.807460160925984" lon="-4.600821118801832">
        <ele>1035.47705078125</ele>
        <time>2011-04-23T16:54:42Z</time>
      </trkpt>
      <trkpt lat="31.807723687961698" lon="-4.600620875135064">
        <ele>1041.2451171875</ele>
        <time>2011-04-23T16:54:57Z</time>
      </trkpt>
      <trkpt lat="31.807864755392075" lon="-4.600394060835242">
        <ele>1043.167724609375</ele>
        <time>2011-04-23T16:55:04Z</time>
      </trkpt>
      <trkpt lat="31.808026442304254" lon="-4.600432785227895">
        <ele>1042.687255859375</ele>
        <time>2011-04-23T16:55:09Z</time>
      </trkpt>
      <trkpt lat="31.808512173593044" lon="-4.600749621167779">
        <ele>1039.322509765625</ele>
        <time>2011-04-23T16:55:18Z</time>
      </trkpt>
      <trkpt lat="31.808897322043777" lon="-4.6010662894696">
        <ele>1039.322509765625</ele>
        <time>2011-04-23T16:55:25Z</time>
      </trkpt>
      <trkpt lat="31.809240560978651" lon="-4.601168045774102">
        <ele>1041.725830078125</ele>
        <time>2011-04-23T16:55:31Z</time>
      </trkpt>
      <trkpt lat="31.809979174286127" lon="-4.60108146071434">
        <ele>1044.609619140625</ele>
        <time>2011-04-23T16:55:43Z</time>
      </trkpt>
      <trkpt lat="31.810171455144882" lon="-4.60106335580349">
        <ele>1047.49365234375</ele>
        <time>2011-04-23T16:56:07Z</time>
      </trkpt>
      <trkpt lat="31.810693731531501" lon="-4.601028990000486">
        <ele>1047.974365234375</ele>
        <time>2011-04-23T16:56:14Z</time>
      </trkpt>
      <trkpt lat="31.811572657898068" lon="-4.600993786007166">
        <ele>1048.454833984375</ele>
        <time>2011-04-23T16:56:22Z</time>
      </trkpt>
      <trkpt lat="31.812764564529061" lon="-4.601047346368432">
        <ele>1047.012939453125</ele>
        <time>2011-04-23T16:56:32Z</time>
      </trkpt>
      <trkpt lat="31.814001649618149" lon="-4.601230826228857">
        <ele>1036.919189453125</ele>
        <time>2011-04-23T16:56:43Z</time>
      </trkpt>
      <trkpt lat="31.814691731706262" lon="-4.601751090958715">
        <ele>1027.78662109375</ele>
        <time>2011-04-23T16:56:50Z</time>
      </trkpt>
      <trkpt lat="31.814848389476538" lon="-4.601900037378073">
        <ele>1025.864013671875</ele>
        <time>2011-04-23T16:56:52Z</time>
      </trkpt>
      <trkpt lat="31.815179893746972" lon="-4.60203523747623">
        <ele>1023.4609375</ele>
        <time>2011-04-23T16:56:56Z</time>
      </trkpt>
      <trkpt lat="31.815667888149619" lon="-4.602069770917296">
        <ele>1022.980224609375</ele>
        <time>2011-04-23T16:57:03Z</time>
      </trkpt>
      <trkpt lat="31.815862599760294" lon="-4.602235481142998">
        <ele>1023.94140625</ele>
        <time>2011-04-23T16:57:24Z</time>
      </trkpt>
      <trkpt lat="31.816255124285817" lon="-4.602654995396733">
        <ele>1024.90283203125</ele>
        <time>2011-04-23T16:57:30Z</time>
      </trkpt>
      <trkpt lat="31.817006981000304" lon="-4.603363769128919">
        <ele>1024.90283203125</ele>
        <time>2011-04-23T16:57:38Z</time>
      </trkpt>
      <trkpt lat="31.818063855171204" lon="-4.604076147079468">
        <ele>1028.267333984375</ele>
        <time>2011-04-23T16:57:47Z</time>
      </trkpt>
      <trkpt lat="31.818642793223262" lon="-4.604724319651723">
        <ele>1028.267333984375</ele>
        <time>2011-04-23T16:57:53Z</time>
      </trkpt>
      <trkpt lat="31.819283254444599" lon="-4.60554507561028">
        <ele>1028.748046875</ele>
        <time>2011-04-23T16:58:00Z</time>
      </trkpt>
      <trkpt lat="31.819629427045584" lon="-4.606365663930774">
        <ele>1028.748046875</ele>
        <time>2011-04-23T16:58:06Z</time>
      </trkpt>
      <trkpt lat="31.819962942972779" lon="-4.606768079102039">
        <ele>1031.1513671875</ele>
        <time>2011-04-23T16:58:10Z</time>
      </trkpt>
      <trkpt lat="31.820496534928679" lon="-4.607114754617214">
        <ele>1032.112548828125</ele>
        <time>2011-04-23T16:58:15Z</time>
      </trkpt>
      <trkpt lat="31.821161471307278" lon="-4.607939282432199">
        <ele>1033.554443359375</ele>
        <time>2011-04-23T16:58:22Z</time>
      </trkpt>
      <trkpt lat="31.822139471769333" lon="-4.609403684735298">
        <ele>1035.47705078125</ele>
        <time>2011-04-23T16:58:32Z</time>
      </trkpt>
      <trkpt lat="31.823015632107854" lon="-4.610546221956611">
        <ele>1037.880615234375</ele>
        <time>2011-04-23T16:58:41Z</time>
      </trkpt>
      <trkpt lat="31.823603957891464" lon="-4.610875546932221">
        <ele>1037.880615234375</ele>
        <time>2011-04-23T16:58:46Z</time>
      </trkpt>
      <trkpt lat="31.824164958670735" lon="-4.610907481983304">
        <ele>1036.919189453125</ele>
        <time>2011-04-23T16:58:50Z</time>
      </trkpt>
      <trkpt lat="31.826031692326069" lon="-4.610502133145928">
        <ele>1041.725830078125</ele>
        <time>2011-04-23T16:59:02Z</time>
      </trkpt>
      <trkpt lat="31.826690845191479" lon="-4.610632052645087">
        <ele>1044.129150390625</ele>
        <time>2011-04-23T16:59:07Z</time>
      </trkpt>
      <trkpt lat="31.827948046848178" lon="-4.611373683437705">
        <ele>1044.129150390625</ele>
        <time>2011-04-23T16:59:18Z</time>
      </trkpt>
      <trkpt lat="31.829124949872494" lon="-4.612072985619307">
        <ele>1044.129150390625</ele>
        <time>2011-04-23T16:59:30Z</time>
      </trkpt>
      <trkpt lat="31.829867418855429" lon="-4.612494260072708">
        <ele>1044.609619140625</ele>
        <time>2011-04-23T16:59:41Z</time>
      </trkpt>
      <trkpt lat="31.830134885385633" lon="-4.612381774932146">
        <ele>1047.012939453125</ele>
        <time>2011-04-23T16:59:46Z</time>
      </trkpt>
      <trkpt lat="31.830467479303479" lon="-4.611704768612981">
        <ele>1048.454833984375</ele>
        <time>2011-04-23T16:59:53Z</time>
      </trkpt>
      <trkpt lat="31.831113137304783" lon="-4.610329382121563">
        <ele>1050.377685546875</ele>
        <time>2011-04-23T17:00:02Z</time>
      </trkpt>
      <trkpt lat="31.831980496644974" lon="-4.608481088653207">
        <ele>1047.012939453125</ele>
        <time>2011-04-23T17:00:13Z</time>
      </trkpt>
      <trkpt lat="31.832890771329403" lon="-4.606550317257643">
        <ele>1050.377685546875</ele>
        <time>2011-04-23T17:00:24Z</time>
      </trkpt>
      <trkpt lat="31.834147470071912" lon="-4.603884536772966">
        <ele>1058.548828125</ele>
        <time>2011-04-23T17:00:38Z</time>
      </trkpt>
      <trkpt lat="31.835077190771699" lon="-4.601903390139341">
        <ele>1059.99072265625</ele>
        <time>2011-04-23T17:00:49Z</time>
      </trkpt>
      <trkpt lat="31.836262056604028" lon="-4.599407091736794">
        <ele>1065.7587890625</ele>
        <time>2011-04-23T17:01:03Z</time>
      </trkpt>
      <trkpt lat="31.837165458127856" lon="-4.597529545426369">
        <ele>1067.68115234375</ele>
        <time>2011-04-23T17:01:12Z</time>
      </trkpt>
      <trkpt lat="31.838220991194248" lon="-4.595256457105279">
        <ele>1067.20068359375</ele>
        <time>2011-04-23T17:01:22Z</time>
      </trkpt>
      <trkpt lat="31.839451538398862" lon="-4.59274347871542">
        <ele>1066.719970703125</ele>
        <time>2011-04-23T17:01:33Z</time>
      </trkpt>
      <trkpt lat="31.840590974316001" lon="-4.590897364541888">
        <ele>1066.2392578125</ele>
        <time>2011-04-23T17:01:42Z</time>
      </trkpt>
      <trkpt lat="31.842471873387694" lon="-4.5877780392766">
        <ele>1062.39404296875</ele>
        <time>2011-04-23T17:01:57Z</time>
      </trkpt>
      <trkpt lat="31.843672581017017" lon="-4.585821535438299">
        <ele>1062.39404296875</ele>
        <time>2011-04-23T17:02:08Z</time>
      </trkpt>
      <trkpt lat="31.845016954466701" lon="-4.583633271977305">
        <ele>1067.20068359375</ele>
        <time>2011-04-23T17:02:21Z</time>
      </trkpt>
      <trkpt lat="31.845427583903074" lon="-4.582524932920933">
        <ele>1061.91357421875</ele>
        <time>2011-04-23T17:02:27Z</time>
      </trkpt>
      <trkpt lat="31.845554234459996" lon="-4.581282734870911">
        <ele>1065.7587890625</ele>
        <time>2011-04-23T17:02:33Z</time>
      </trkpt>
      <trkpt lat="31.845659427344799" lon="-4.578841840848327">
        <ele>1070.084716796875</ele>
        <time>2011-04-23T17:02:44Z</time>
      </trkpt>
      <trkpt lat="31.845973245799541" lon="-4.577858475968242">
        <ele>1072.96875</ele>
        <time>2011-04-23T17:02:49Z</time>
      </trkpt>
      <trkpt lat="31.846585124731064" lon="-4.576778551563621">
        <ele>1072.00732421875</ele>
        <time>2011-04-23T17:02:56Z</time>
      </trkpt>
      <trkpt lat="31.847148053348064" lon="-4.575911443680525">
        <ele>1073.449462890625</ele>
        <time>2011-04-23T17:03:04Z</time>
      </trkpt>
      <trkpt lat="31.847728583961725" lon="-4.575027655810118">
        <ele>1075.371826171875</ele>
        <time>2011-04-23T17:03:14Z</time>
      </trkpt>
      <trkpt lat="31.848345240578055" lon="-4.574074298143387">
        <ele>1073.929931640625</ele>
        <time>2011-04-23T17:03:24Z</time>
      </trkpt>
      <trkpt lat="31.848863745108247" lon="-4.573330068960786">
        <ele>1073.929931640625</ele>
        <time>2011-04-23T17:03:30Z</time>
      </trkpt>
      <trkpt lat="31.849698750302196" lon="-4.571993658319116">
        <ele>1075.371826171875</ele>
        <time>2011-04-23T17:03:38Z</time>
      </trkpt>
      <trkpt lat="31.850476926192641" lon="-4.570514671504498">
        <ele>1076.333251953125</ele>
        <time>2011-04-23T17:03:46Z</time>
      </trkpt>
      <trkpt lat="31.850951844826341" lon="-4.568651877343655">
        <ele>1079.217041015625</ele>
        <time>2011-04-23T17:03:54Z</time>
      </trkpt>
      <trkpt lat="31.851663887500763" lon="-4.56574184820056">
        <ele>1084.02392578125</ele>
        <time>2011-04-23T17:04:06Z</time>
      </trkpt>
      <trkpt lat="31.85219194740057" lon="-4.563653245568276">
        <ele>1084.504638671875</ele>
        <time>2011-04-23T17:04:15Z</time>
      </trkpt>
      <trkpt lat="31.852704081684351" lon="-4.562473325058818">
        <ele>1080.6591796875</ele>
        <time>2011-04-23T17:04:21Z</time>
      </trkpt>
      <trkpt lat="31.853762045502663" lon="-4.560375167056918">
        <ele>1082.581787109375</ele>
        <time>2011-04-23T17:04:32Z</time>
      </trkpt>
      <trkpt lat="31.85519702732563" lon="-4.557487433776259">
        <ele>1082.581787109375</ele>
        <time>2011-04-23T17:04:47Z</time>
      </trkpt>
      <trkpt lat="31.855986518785357" lon="-4.555901242420077">
        <ele>1085.4658203125</ele>
        <time>2011-04-23T17:04:56Z</time>
      </trkpt>
      <trkpt lat="31.856309976428747" lon="-4.555349126458168">
        <ele>1085.4658203125</ele>
        <time>2011-04-23T17:05:01Z</time>
      </trkpt>
      <trkpt lat="31.857001399621367" lon="-4.554738253355026">
        <ele>1081.139892578125</ele>
        <time>2011-04-23T17:05:08Z</time>
      </trkpt>
      <trkpt lat="31.857970096170902" lon="-4.554011458531022">
        <ele>1076.333251953125</ele>
        <time>2011-04-23T17:05:15Z</time>
      </trkpt>
      <trkpt lat="31.859399043023586" lon="-4.552846373990178">
        <ele>1081.620361328125</ele>
        <time>2011-04-23T17:05:24Z</time>
      </trkpt>
      <trkpt lat="31.860463544726372" lon="-4.551533684134483">
        <ele>1087.869140625</ele>
        <time>2011-04-23T17:05:32Z</time>
      </trkpt>
      <trkpt lat="31.861166534945369" lon="-4.550279751420021">
        <ele>1093.15625</ele>
        <time>2011-04-23T17:05:39Z</time>
      </trkpt>
      <trkpt lat="31.862272443249822" lon="-4.548013620078564">
        <ele>1098.924072265625</ele>
        <time>2011-04-23T17:05:50Z</time>
      </trkpt>
      <trkpt lat="31.863796524703503" lon="-4.544876860454679">
        <ele>1104.211669921875</ele>
        <time>2011-04-23T17:06:05Z</time>
      </trkpt>
      <trkpt lat="31.865065880119801" lon="-4.542546942830086">
        <ele>1109.979248046875</ele>
        <time>2011-04-23T17:06:17Z</time>
      </trkpt>
      <trkpt lat="31.866300282999873" lon="-4.541104920208454">
        <ele>1110.4599609375</ele>
        <time>2011-04-23T17:06:26Z</time>
      </trkpt>
      <trkpt lat="31.868198364973068" lon="-4.539454774931073">
        <ele>1108.056884765625</ele>
        <time>2011-04-23T17:06:38Z</time>
      </trkpt>
      <trkpt lat="31.869499320164323" lon="-4.538343250751495">
        <ele>1102.76953125</ele>
        <time>2011-04-23T17:06:47Z</time>
      </trkpt>
      <trkpt lat="31.870987275615335" lon="-4.537063920870423">
        <ele>1099.40478515625</ele>
        <time>2011-04-23T17:06:58Z</time>
      </trkpt>
      <trkpt lat="31.872046748176217" lon="-4.536392027512193">
        <ele>1092.67578125</ele>
        <time>2011-04-23T17:07:05Z</time>
      </trkpt>
      <trkpt lat="31.874005096033216" lon="-4.535303385928273">
        <ele>1085.4658203125</ele>
        <time>2011-04-23T17:07:17Z</time>
      </trkpt>
      <trkpt lat="31.876310789957643" lon="-4.533800091594458">
        <ele>1080.178466796875</ele>
        <time>2011-04-23T17:07:31Z</time>
      </trkpt>
      <trkpt lat="31.878452533856034" lon="-4.532406181097031">
        <ele>1076.333251953125</ele>
        <time>2011-04-23T17:07:43Z</time>
      </trkpt>
      <trkpt lat="31.881389636546373" lon="-4.530489491298795">
        <ele>1078.736572265625</ele>
        <time>2011-04-23T17:07:59Z</time>
      </trkpt>
      <trkpt lat="31.88346859999001" lon="-4.529088540002704">
        <ele>1086.42724609375</ele>
        <time>2011-04-23T17:08:11Z</time>
      </trkpt>
      <trkpt lat="31.885439436882734" lon="-4.527779538184404">
        <ele>1103.73095703125</ele>
        <time>2011-04-23T17:08:23Z</time>
      </trkpt>
      <trkpt lat="31.887704227119684" lon="-4.526253025978804">
        <ele>1109.498779296875</ele>
        <time>2011-04-23T17:08:37Z</time>
      </trkpt>
      <trkpt lat="31.890231538563967" lon="-4.524572873488069">
        <ele>1116.22802734375</ele>
        <time>2011-04-23T17:08:51Z</time>
      </trkpt>
      <trkpt lat="31.891855699941516" lon="-4.523293543606997">
        <ele>1118.63134765625</ele>
        <time>2011-04-23T17:09:00Z</time>
      </trkpt>
      <trkpt lat="31.892783660441637" lon="-4.522133572027087">
        <ele>1119.112060546875</ele>
        <time>2011-04-23T17:09:06Z</time>
      </trkpt>
      <trkpt lat="31.894346047192812" lon="-4.519976489245892">
        <ele>1119.5927734375</ele>
        <time>2011-04-23T17:09:17Z</time>
      </trkpt>
      <trkpt lat="31.895946990698576" lon="-4.517768360674381">
        <ele>1115.747314453125</ele>
        <time>2011-04-23T17:09:28Z</time>
      </trkpt>
      <trkpt lat="31.897708950564265" lon="-4.515354037284851">
        <ele>1109.01806640625</ele>
        <time>2011-04-23T17:09:40Z</time>
      </trkpt>
      <trkpt lat="31.899245353415608" lon="-4.513243054971099">
        <ele>1102.76953125</ele>
        <time>2011-04-23T17:09:51Z</time>
      </trkpt>
      <trkpt lat="31.900701457634568" lon="-4.511236594989896">
        <ele>1101.808349609375</ele>
        <time>2011-04-23T17:10:02Z</time>
      </trkpt>
      <trkpt lat="31.902497867122293" lon="-4.508776674047113">
        <ele>1098.443359375</ele>
        <time>2011-04-23T17:10:15Z</time>
      </trkpt>
      <trkpt lat="31.903626238927245" lon="-4.506977330893278">
        <ele>1097.482177734375</ele>
        <time>2011-04-23T17:10:24Z</time>
      </trkpt>
      <trkpt lat="31.90426317974925" lon="-4.505281755700707">
        <ele>1097.482177734375</ele>
        <time>2011-04-23T17:10:31Z</time>
      </trkpt>
      <trkpt lat="31.905710650607944" lon="-4.501223070546985">
        <ele>1097.00146484375</ele>
        <time>2011-04-23T17:10:47Z</time>
      </trkpt>
      <trkpt lat="31.906951172277331" lon="-4.497736031189561">
        <ele>1097.00146484375</ele>
        <time>2011-04-23T17:11:01Z</time>
      </trkpt>
      <trkpt lat="31.908240728080273" lon="-4.494125777855516">
        <ele>1095.078857421875</ele>
        <time>2011-04-23T17:11:16Z</time>
      </trkpt>
      <trkpt lat="31.909412685781717" lon="-4.490832192823291">
        <ele>1103.73095703125</ele>
        <time>2011-04-23T17:11:30Z</time>
      </trkpt>
      <trkpt lat="31.910302340984344" lon="-4.48829272761941">
        <ele>1105.653564453125</ele>
        <time>2011-04-23T17:11:42Z</time>
      </trkpt>
      <trkpt lat="31.910525886341929" lon="-4.487012140452862">
        <ele>1102.288818359375</ele>
        <time>2011-04-23T17:11:48Z</time>
      </trkpt>
      <trkpt lat="31.910460088402033" lon="-4.48540004901588">
        <ele>1100.846923828125</ele>
        <time>2011-04-23T17:11:55Z</time>
      </trkpt>
      <trkpt lat="31.910173846408725" lon="-4.48235004208982">
        <ele>1105.1728515625</ele>
        <time>2011-04-23T17:12:07Z</time>
      </trkpt>
      <trkpt lat="31.910189017653465" lon="-4.48056603781879">
        <ele>1110.940673828125</ele>
        <time>2011-04-23T17:12:14Z</time>
      </trkpt>
      <trkpt lat="31.910454975441098" lon="-4.478701064363122">
        <ele>1107.095458984375</ele>
        <time>2011-04-23T17:12:21Z</time>
      </trkpt>
      <trkpt lat="31.911122761666775" lon="-4.476401992142201">
        <ele>1105.653564453125</ele>
        <time>2011-04-23T17:12:30Z</time>
      </trkpt>
      <trkpt lat="31.911835391074419" lon="-4.474116498604417">
        <ele>1104.211669921875</ele>
        <time>2011-04-23T17:12:40Z</time>
      </trkpt>
      <trkpt lat="31.912446431815624" lon="-4.472186146304011">
        <ele>1099.40478515625</ele>
        <time>2011-04-23T17:12:50Z</time>
      </trkpt>
      <trkpt lat="31.913238186389208" lon="-4.469669060781598">
        <ele>1094.59814453125</ele>
        <time>2011-04-23T17:13:03Z</time>
      </trkpt>
      <trkpt lat="31.91417159512639" lon="-4.466683343052864">
        <ele>1092.195068359375</ele>
        <time>2011-04-23T17:13:18Z</time>
      </trkpt>
      <trkpt lat="31.914828149601817" lon="-4.464412936940789">
        <ele>1088.349853515625</ele>
        <time>2011-04-23T17:13:31Z</time>
      </trkpt>
      <trkpt lat="31.915203742682934" lon="-4.462781399488449">
        <ele>1083.062255859375</ele>
        <time>2011-04-23T17:13:41Z</time>
      </trkpt>
      <trkpt lat="31.91558419726789" lon="-4.461000077426434">
        <ele>1077.775146484375</ele>
        <time>2011-04-23T17:13:51Z</time>
      </trkpt>
      <trkpt lat="31.916193477809429" lon="-4.45815852843225">
        <ele>1072.00732421875</ele>
        <time>2011-04-23T17:14:05Z</time>
      </trkpt>
      <trkpt lat="31.916811894625425" lon="-4.45523458532989">
        <ele>1069.604248046875</ele>
        <time>2011-04-23T17:14:19Z</time>
      </trkpt>
      <trkpt lat="31.917267953976989" lon="-4.453125363215804">
        <ele>1067.68115234375</ele>
        <time>2011-04-23T17:14:31Z</time>
      </trkpt>
      <trkpt lat="31.917636338621378" lon="-4.451331049203873">
        <ele>1068.642822265625</ele>
        <time>2011-04-23T17:14:44Z</time>
      </trkpt>
      <trkpt lat="31.917963987216353" lon="-4.449785677716136">
        <ele>1068.162109375</ele>
        <time>2011-04-23T17:14:56Z</time>
      </trkpt>
      <trkpt lat="31.918208990246058" lon="-4.448582120239735">
        <ele>1068.162109375</ele>
        <time>2011-04-23T17:15:06Z</time>
      </trkpt>
      <trkpt lat="31.918353578075767" lon="-4.447792544960976">
        <ele>1069.604248046875</ele>
        <time>2011-04-23T17:15:16Z</time>
      </trkpt>
      <trkpt lat="31.918418956920505" lon="-4.447507979348302">
        <ele>1069.12353515625</ele>
        <time>2011-04-23T17:15:23Z</time>
      </trkpt>
      <trkpt lat="31.918528089299798" lon="-4.447098439559341">
        <ele>1068.642822265625</ele>
        <time>2011-04-23T17:15:31Z</time>
      </trkpt>
      <trkpt lat="31.918605538085103" lon="-4.446685630828142">
        <ele>1065.7587890625</ele>
        <time>2011-04-23T17:15:41Z</time>
      </trkpt>
      <trkpt lat="31.918613752350211" lon="-4.446440376341343">
        <ele>1064.316650390625</ele>
        <time>2011-04-23T17:15:50Z</time>
      </trkpt>
      <trkpt lat="31.918696649372578" lon="-4.446185985580087">
        <ele>1083.54296875</ele>
        <time>2011-04-23T17:17:39Z</time>
      </trkpt>
      <trkpt lat="31.918842243030667" lon="-4.446235522627831">
        <ele>1036.919189453125</ele>
        <time>2011-04-23T17:53:31Z</time>
      </trkpt>
      <trkpt lat="31.918936539441347" lon="-4.446303835138679">
        <ele>1038.361328125</ele>
        <time>2011-04-23T17:53:41Z</time>
      </trkpt>
      <trkpt lat="31.918954979628325" lon="-4.446957372128964">
        <ele>1040.283935546875</ele>
        <time>2011-04-23T17:53:55Z</time>
      </trkpt>
      <trkpt lat="31.919252956286073" lon="-4.447581153362989">
        <ele>1041.725830078125</ele>
        <time>2011-04-23T17:54:05Z</time>
      </trkpt>
      <trkpt lat="31.919747069478035" lon="-4.447920117527247">
        <ele>1042.20654296875</ele>
        <time>2011-04-23T17:54:14Z</time>
      </trkpt>
      <trkpt lat="31.920469840988517" lon="-4.448129581287503">
        <ele>1043.167724609375</ele>
        <time>2011-04-23T17:54:23Z</time>
      </trkpt>
      <trkpt lat="31.921750847250223" lon="-4.448496792465448">
        <ele>1044.609619140625</ele>
        <time>2011-04-23T17:54:36Z</time>
      </trkpt>
      <trkpt lat="31.923045683652163" lon="-4.448874061927199">
        <ele>1044.609619140625</ele>
        <time>2011-04-23T17:54:49Z</time>
      </trkpt>
      <trkpt lat="31.924564149230719" lon="-4.449314698576927">
        <ele>1044.609619140625</ele>
        <time>2011-04-23T17:55:07Z</time>
      </trkpt>
      <trkpt lat="31.924971928820014" lon="-4.449392147362232">
        <ele>1044.129150390625</ele>
        <time>2011-04-23T17:55:15Z</time>
      </trkpt>
      <trkpt lat="31.925379624590278" lon="-4.449504883959889">
        <ele>1043.6484375</ele>
        <time>2011-04-23T17:55:30Z</time>
      </trkpt>
      <trkpt lat="31.9256582390517" lon="-4.449585769325495">
        <ele>1042.687255859375</ele>
        <time>2011-04-23T17:55:42Z</time>
      </trkpt>
      <trkpt lat="31.926012374460697" lon="-4.44970672018826">
        <ele>1043.167724609375</ele>
        <time>2011-04-23T17:55:57Z</time>
      </trkpt>
      <trkpt lat="31.926487628370523" lon="-4.44984644651413">
        <ele>1042.687255859375</ele>
        <time>2011-04-23T17:56:06Z</time>
      </trkpt>
      <trkpt lat="31.927154157310724" lon="-4.450057754293084">
        <ele>1042.20654296875</ele>
        <time>2011-04-23T17:56:16Z</time>
      </trkpt>
      <trkpt lat="31.928066359832883" lon="-4.450488919392228">
        <ele>1042.687255859375</ele>
        <time>2011-04-23T17:56:30Z</time>
      </trkpt>
      <trkpt lat="31.929009491577744" lon="-4.451114125549793">
        <ele>1043.167724609375</ele>
        <time>2011-04-23T17:56:48Z</time>
      </trkpt>
      <trkpt lat="31.929698819294572" lon="-4.451597761362791">
        <ele>1044.129150390625</ele>
        <time>2011-04-23T17:57:03Z</time>
      </trkpt>
      <trkpt lat="31.930194357410073" lon="-4.451965978369117">
        <ele>1045.09033203125</ele>
        <time>2011-04-23T17:57:16Z</time>
      </trkpt>
      <trkpt lat="31.930960128083825" lon="-4.452539132907987">
        <ele>1047.49365234375</ele>
        <time>2011-04-23T17:57:30Z</time>
      </trkpt>
      <trkpt lat="31.931860093027353" lon="-4.453216642141342">
        <ele>1049.89697265625</ele>
        <time>2011-04-23T17:57:48Z</time>
      </trkpt>
      <trkpt lat="31.932419836521149" lon="-4.453643783926964">
        <ele>1049.89697265625</ele>
        <time>2011-04-23T17:57:57Z</time>
      </trkpt>
      <trkpt lat="31.933379229158163" lon="-4.45437116548419">
        <ele>1049.89697265625</ele>
        <time>2011-04-23T17:58:07Z</time>
      </trkpt>
      <trkpt lat="31.934584630653262" lon="-4.455255959182978">
        <ele>1051.819580078125</ele>
        <time>2011-04-23T17:58:19Z</time>
      </trkpt>
      <trkpt lat="31.936277942731977" lon="-4.456548364832997">
        <ele>1052.781005859375</ele>
        <time>2011-04-23T17:58:38Z</time>
      </trkpt>
      <trkpt lat="31.937630530446768" lon="-4.457674724981189">
        <ele>1052.30029296875</ele>
        <time>2011-04-23T17:58:54Z</time>
      </trkpt>
      <trkpt lat="31.938685728237033" lon="-4.458530182018876">
        <ele>1048.454833984375</ele>
        <time>2011-04-23T17:59:07Z</time>
      </trkpt>
      <trkpt lat="31.940325144678354" lon="-4.459994249045849">
        <ele>1046.532470703125</ele>
        <time>2011-04-23T17:59:27Z</time>
      </trkpt>
      <trkpt lat="31.941592572256923" lon="-4.461188083514571">
        <ele>1047.49365234375</ele>
        <time>2011-04-23T17:59:42Z</time>
      </trkpt>
      <trkpt lat="31.943055633455515" lon="-4.462695149704814">
        <ele>1050.377685546875</ele>
        <time>2011-04-23T17:59:59Z</time>
      </trkpt>
      <trkpt lat="31.944645261391997" lon="-4.464424336329103">
        <ele>1053.742431640625</ele>
        <time>2011-04-23T18:00:18Z</time>
      </trkpt>
      <trkpt lat="31.946157272905111" lon="-4.46610365062952">
        <ele>1058.068359375</ele>
        <time>2011-04-23T18:00:35Z</time>
      </trkpt>
      <trkpt lat="31.947337947785854" lon="-4.467415418475866">
        <ele>1062.39404296875</ele>
        <time>2011-04-23T18:00:46Z</time>
      </trkpt>
      <trkpt lat="31.949147516861558" lon="-4.469419028609991">
        <ele>1067.68115234375</ele>
        <time>2011-04-23T18:01:01Z</time>
      </trkpt>
      <trkpt lat="31.950435983017087" lon="-4.470840180292726">
        <ele>1061.91357421875</ele>
        <time>2011-04-23T18:01:12Z</time>
      </trkpt>
      <trkpt lat="31.951991496607661" lon="-4.472569366917014">
        <ele>1058.548828125</ele>
        <time>2011-04-23T18:01:25Z</time>
      </trkpt>
      <trkpt lat="31.95371825248003" lon="-4.474477339535952">
        <ele>1059.99072265625</ele>
        <time>2011-04-23T18:01:38Z</time>
      </trkpt>
      <trkpt lat="31.956008523702621" lon="-4.477008590474725">
        <ele>1062.39404296875</ele>
        <time>2011-04-23T18:01:54Z</time>
      </trkpt>
      <trkpt lat="31.958865495398641" lon="-4.480166137218475">
        <ele>1065.7587890625</ele>
        <time>2011-04-23T18:02:14Z</time>
      </trkpt>
      <trkpt lat="31.961054680868983" lon="-4.48250544257462">
        <ele>1068.162109375</ele>
        <time>2011-04-23T18:02:30Z</time>
      </trkpt>
      <trkpt lat="31.962926359847188" lon="-4.484069338068366">
        <ele>1070.084716796875</ele>
        <time>2011-04-23T18:02:43Z</time>
      </trkpt>
      <trkpt lat="31.964946985244751" lon="-4.485571291297674">
        <ele>1071.046142578125</ele>
        <time>2011-04-23T18:02:57Z</time>
      </trkpt>
      <trkpt lat="31.967162657529116" lon="-4.487223783507943">
        <ele>1072.96875</ele>
        <time>2011-04-23T18:03:13Z</time>
      </trkpt>
      <trkpt lat="31.969438847154379" lon="-4.488925226032734">
        <ele>1074.41064453125</ele>
        <time>2011-04-23T18:03:29Z</time>
      </trkpt>
      <trkpt lat="31.971905725076795" lon="-4.49077544733882">
        <ele>1075.371826171875</ele>
        <time>2011-04-23T18:03:46Z</time>
      </trkpt>
      <trkpt lat="31.974406465888023" lon="-4.492665231227875">
        <ele>1077.775146484375</ele>
        <time>2011-04-23T18:04:03Z</time>
      </trkpt>
      <trkpt lat="31.976509317755699" lon="-4.494234072044492">
        <ele>1088.349853515625</ele>
        <time>2011-04-23T18:04:18Z</time>
      </trkpt>
      <trkpt lat="31.978582749143243" lon="-4.495741641148925">
        <ele>1113.343994140625</ele>
        <time>2011-04-23T18:04:33Z</time>
      </trkpt>
      <trkpt lat="31.980206742882729" lon="-4.496705560013652">
        <ele>1138.819091796875</ele>
        <time>2011-04-23T18:04:44Z</time>
      </trkpt>
      <trkpt lat="31.981960572302341" lon="-4.497431768104434">
        <ele>1157.083984375</ele>
        <time>2011-04-23T18:04:54Z</time>
      </trkpt>
      <trkpt lat="31.983641479164362" lon="-4.497823538258672">
        <ele>1165.25537109375</ele>
        <time>2011-04-23T18:05:03Z</time>
      </trkpt>
      <trkpt lat="31.985569484531879" lon="-4.497982542961836">
        <ele>1171.503662109375</ele>
        <time>2011-04-23T18:05:14Z</time>
      </trkpt>
      <trkpt lat="31.987290792167187" lon="-4.497839044779539">
        <ele>1175.348876953125</ele>
        <time>2011-04-23T18:05:24Z</time>
      </trkpt>
      <trkpt lat="31.988870948553085" lon="-4.497479042038322">
        <ele>1180.15576171875</ele>
        <time>2011-04-23T18:05:33Z</time>
      </trkpt>
      <trkpt lat="31.990620922297239" lon="-4.49675677344203">
        <ele>1181.1171875</ele>
        <time>2011-04-23T18:05:44Z</time>
      </trkpt>
      <trkpt lat="31.992155145853758" lon="-4.495883630588651">
        <ele>1184.0009765625</ele>
        <time>2011-04-23T18:05:53Z</time>
      </trkpt>
      <trkpt lat="31.994175687432289" lon="-4.494572365656495">
        <ele>1198.420654296875</ele>
        <time>2011-04-23T18:06:05Z</time>
      </trkpt>
      <trkpt lat="31.995786353945732" lon="-4.493544325232506">
        <ele>1196.017578125</ele>
        <time>2011-04-23T18:06:14Z</time>
      </trkpt>
      <trkpt lat="31.997356452047825" lon="-4.492471190169454">
        <ele>1204.669189453125</ele>
        <time>2011-04-23T18:06:22Z</time>
      </trkpt>
      <trkpt lat="32.000249298289418" lon="-4.490571264177561">
        <ele>1222.934326171875</ele>
        <time>2011-04-23T18:06:38Z</time>
      </trkpt>
      <trkpt lat="32.002077978104353" lon="-4.489382039755583">
        <ele>1222.934326171875</ele>
        <time>2011-04-23T18:06:49Z</time>
      </trkpt>
      <trkpt lat="32.003751425072551" lon="-4.488289458677173">
        <ele>1221.4921875</ele>
        <time>2011-04-23T18:06:58Z</time>
      </trkpt>
      <trkpt lat="32.005471559241414" lon="-4.487112639471889">
        <ele>1227.26025390625</ele>
        <time>2011-04-23T18:07:07Z</time>
      </trkpt>
      <trkpt lat="32.008228953927755" lon="-4.485305082052946">
        <ele>1237.35400390625</ele>
        <time>2011-04-23T18:07:22Z</time>
      </trkpt>
      <trkpt lat="32.010575383901596" lon="-4.483749149367213">
        <ele>1230.625</ele>
        <time>2011-04-23T18:07:34Z</time>
      </trkpt>
      <trkpt lat="32.012566337361932" lon="-4.482420282438397">
        <ele>1222.934326171875</ele>
        <time>2011-04-23T18:07:45Z</time>
      </trkpt>
      <trkpt lat="32.014940427616239" lon="-4.480889244005084">
        <ele>1210.43701171875</ele>
        <time>2011-04-23T18:07:58Z</time>
      </trkpt>
      <trkpt lat="32.016668440774083" lon="-4.480128837749362">
        <ele>1199.86279296875</ele>
        <time>2011-04-23T18:08:07Z</time>
      </trkpt>
      <trkpt lat="32.019308572635055" lon="-4.478991245850921">
        <ele>1199.382080078125</ele>
        <time>2011-04-23T18:08:22Z</time>
      </trkpt>
      <trkpt lat="32.022344833239913" lon="-4.477692218497396">
        <ele>1200.343505859375</ele>
        <time>2011-04-23T18:08:39Z</time>
      </trkpt>
      <trkpt lat="32.024484733119607" lon="-4.476775573566556">
        <ele>1195.53662109375</ele>
        <time>2011-04-23T18:08:51Z</time>
      </trkpt>
      <trkpt lat="32.025287635624409" lon="-4.476192528381944">
        <ele>1191.69140625</ele>
        <time>2011-04-23T18:08:56Z</time>
      </trkpt>
      <trkpt lat="32.026073774322867" lon="-4.475175719708204">
        <ele>1186.884765625</ele>
        <time>2011-04-23T18:09:02Z</time>
      </trkpt>
      <trkpt lat="32.026616251096129" lon="-4.473897647112608">
        <ele>1184.96240234375</ele>
        <time>2011-04-23T18:09:08Z</time>
      </trkpt>
      <trkpt lat="32.026763772591949" lon="-4.472738346084952">
        <ele>1192.172119140625</ele>
        <time>2011-04-23T18:09:13Z</time>
      </trkpt>
      <trkpt lat="32.026645671576262" lon="-4.471589857712388">
        <ele>1195.055908203125</ele>
        <time>2011-04-23T18:09:18Z</time>
      </trkpt>
      <trkpt lat="32.026132866740227" lon="-4.469466889277101">
        <ele>1190.24951171875</ele>
        <time>2011-04-23T18:09:27Z</time>
      </trkpt>
      <trkpt lat="32.02549927867949" lon="-4.467008728533983">
        <ele>1193.13330078125</ele>
        <time>2011-04-23T18:09:38Z</time>
      </trkpt>
      <trkpt lat="32.024998292326927" lon="-4.465204691514373">
        <ele>1206.591796875</ele>
        <time>2011-04-23T18:09:47Z</time>
      </trkpt>
      <trkpt lat="32.024686820805073" lon="-4.463314572349191">
        <ele>1214.282470703125</ele>
        <time>2011-04-23T18:09:57Z</time>
      </trkpt>
      <trkpt lat="32.024853955954313" lon="-4.46172745898366">
        <ele>1214.76318359375</ele>
        <time>2011-04-23T18:10:05Z</time>
      </trkpt>
      <trkpt lat="32.025282271206379" lon="-4.460269091650844">
        <ele>1213.3212890625</ele>
        <time>2011-04-23T18:10:13Z</time>
      </trkpt>
      <trkpt lat="32.025964222848415" lon="-4.459053296595812">
        <ele>1208.514404296875</ele>
        <time>2011-04-23T18:10:21Z</time>
      </trkpt>
      <trkpt lat="32.026861254125834" lon="-4.45808032527566">
        <ele>1203.227294921875</ele>
        <time>2011-04-23T18:10:29Z</time>
      </trkpt>
      <trkpt lat="32.028035139665008" lon="-4.457281865179539">
        <ele>1201.3046875</ele>
        <time>2011-04-23T18:10:38Z</time>
      </trkpt>
      <trkpt lat="32.030208399519324" lon="-4.455990046262741">
        <ele>1195.53662109375</ele>
        <time>2011-04-23T18:10:55Z</time>
      </trkpt>
      <trkpt lat="32.030854057520628" lon="-4.455298036336899">
        <ele>1194.0947265625</ele>
        <time>2011-04-23T18:11:01Z</time>
      </trkpt>
      <trkpt lat="32.03129637055099" lon="-4.454375943168998">
        <ele>1192.65283203125</ele>
        <time>2011-04-23T18:11:07Z</time>
      </trkpt>
      <trkpt lat="32.031426290050149" lon="-4.453122932463884">
        <ele>1196.978759765625</ele>
        <time>2011-04-23T18:11:14Z</time>
      </trkpt>
      <trkpt lat="32.031203918159008" lon="-4.452039068564773">
        <ele>1202.74658203125</ele>
        <time>2011-04-23T18:11:20Z</time>
      </trkpt>
      <trkpt lat="32.030726233497262" lon="-4.45108219049871">
        <ele>1207.55322265625</ele>
        <time>2011-04-23T18:11:26Z</time>
      </trkpt>
      <trkpt lat="32.02997806482017" lon="-4.450313486158848">
        <ele>1208.9951171875</ele>
        <time>2011-04-23T18:11:32Z</time>
      </trkpt>
      <trkpt lat="32.028288189321756" lon="-4.44879493676126">
        <ele>1208.514404296875</ele>
        <time>2011-04-23T18:11:45Z</time>
      </trkpt>
      <trkpt lat="32.027671784162521" lon="-4.447895139455795">
        <ele>1207.55322265625</ele>
        <time>2011-04-23T18:11:51Z</time>
      </trkpt>
      <trkpt lat="32.02725587412715" lon="-4.446709770709276">
        <ele>1208.9951171875</ele>
        <time>2011-04-23T18:11:57Z</time>
      </trkpt>
      <trkpt lat="32.027171719819307" lon="-4.445415772497654">
        <ele>1204.669189453125</ele>
        <time>2011-04-23T18:12:03Z</time>
      </trkpt>
      <trkpt lat="32.027423847466707" lon="-4.443645179271698">
        <ele>1199.86279296875</ele>
        <time>2011-04-23T18:12:11Z</time>
      </trkpt>
      <trkpt lat="32.027700198814273" lon="-4.441543417051435">
        <ele>1197.45947265625</ele>
        <time>2011-04-23T18:12:21Z</time>
      </trkpt>
      <trkpt lat="32.028045281767845" lon="-4.439070839434862">
        <ele>1172.465087890625</ele>
        <time>2011-04-23T18:12:33Z</time>
      </trkpt>
      <trkpt lat="32.028436381369829" lon="-4.436382427811623">
        <ele>1153.23876953125</ele>
        <time>2011-04-23T18:12:46Z</time>
      </trkpt>
      <trkpt lat="32.028771322220564" lon="-4.433923931792378">
        <ele>1158.52587890625</ele>
        <time>2011-04-23T18:12:58Z</time>
      </trkpt>
      <trkpt lat="32.029116237536073" lon="-4.431617986410856">
        <ele>1160.448486328125</ele>
        <time>2011-04-23T18:13:10Z</time>
      </trkpt>
      <trkpt lat="32.029598532244563" lon="-4.430319042876363">
        <ele>1152.758056640625</ele>
        <time>2011-04-23T18:13:17Z</time>
      </trkpt>
      <trkpt lat="32.030328931286931" lon="-4.429166531190276">
        <ele>1154.2001953125</ele>
        <time>2011-04-23T18:13:24Z</time>
      </trkpt>
      <trkpt lat="32.031260328367352" lon="-4.428321216255426">
        <ele>1150.83544921875</ele>
        <time>2011-04-23T18:13:31Z</time>
      </trkpt>
      <trkpt lat="32.032452151179314" lon="-4.427698943763971">
        <ele>1150.83544921875</ele>
        <time>2011-04-23T18:13:39Z</time>
      </trkpt>
      <trkpt lat="32.033585971221328" lon="-4.427453270182014">
        <ele>1151.316162109375</ele>
        <time>2011-04-23T18:13:46Z</time>
      </trkpt>
      <trkpt lat="32.034553997218609" lon="-4.427029732614756">
        <ele>1153.23876953125</ele>
        <time>2011-04-23T18:13:52Z</time>
      </trkpt>
      <trkpt lat="32.035357654094696" lon="-4.42626572214067">
        <ele>1157.083984375</ele>
        <time>2011-04-23T18:13:58Z</time>
      </trkpt>
      <trkpt lat="32.036111187189817" lon="-4.425050681456924">
        <ele>1163.33251953125</ele>
        <time>2011-04-23T18:14:06Z</time>
      </trkpt>
      <trkpt lat="32.036890368908644" lon="-4.424164965748787">
        <ele>1169.581298828125</ele>
        <time>2011-04-23T18:14:13Z</time>
      </trkpt>
      <trkpt lat="32.038137428462505" lon="-4.423423334956169">
        <ele>1175.348876953125</ele>
        <time>2011-04-23T18:14:22Z</time>
      </trkpt>
      <trkpt lat="32.038989616557956" lon="-4.422939782962203">
        <ele>1177.271728515625</ele>
        <time>2011-04-23T18:14:28Z</time>
      </trkpt>
      <trkpt lat="32.039691936224699" lon="-4.422109387814999">
        <ele>1177.752197265625</ele>
        <time>2011-04-23T18:14:34Z</time>
      </trkpt>
      <trkpt lat="32.040008772164583" lon="-4.421131052076817">
        <ele>1179.6748046875</ele>
        <time>2011-04-23T18:14:39Z</time>
      </trkpt>
      <trkpt lat="32.040436919778585" lon="-4.419156946241856">
        <ele>1190.24951171875</ele>
        <time>2011-04-23T18:14:49Z</time>
      </trkpt>
      <trkpt lat="32.041062880307436" lon="-4.418211048468947">
        <ele>1196.978759765625</ele>
        <time>2011-04-23T18:14:55Z</time>
      </trkpt>
      <trkpt lat="32.042296193540096" lon="-4.41712005995214">
        <ele>1205.14990234375</ele>
        <time>2011-04-23T18:15:04Z</time>
      </trkpt>
      <trkpt lat="32.04309624619782" lon="-4.416258735582233">
        <ele>1213.8017578125</ele>
        <time>2011-04-23T18:15:11Z</time>
      </trkpt>
      <trkpt lat="32.043596059083939" lon="-4.415229186415672">
        <ele>1223.4150390625</ele>
        <time>2011-04-23T18:15:18Z</time>
      </trkpt>
      <trkpt lat="32.043888922780752" lon="-4.414604818448424">
        <ele>1231.586181640625</ele>
        <time>2011-04-23T18:15:24Z</time>
      </trkpt>
      <trkpt lat="32.04449325799942" lon="-4.413335546851158">
        <ele>1247.447998046875</ele>
        <time>2011-04-23T18:15:35Z</time>
      </trkpt>
      <trkpt lat="32.044980665668845" lon="-4.412319827824831">
        <ele>1259.94482421875</ele>
        <time>2011-04-23T18:15:43Z</time>
      </trkpt>
      <trkpt lat="32.045404789969325" lon="-4.411397818475962">
        <ele>1271.000244140625</ele>
        <time>2011-04-23T18:15:50Z</time>
      </trkpt>
      <trkpt lat="32.046011975035071" lon="-4.410299370065332">
        <ele>1286.86181640625</ele>
        <time>2011-04-23T18:15:59Z</time>
      </trkpt>
      <trkpt lat="32.046570461243391" lon="-4.409415666013956">
        <ele>1302.242919921875</ele>
        <time>2011-04-23T18:16:07Z</time>
      </trkpt>
      <trkpt lat="32.046631732955575" lon="-4.409307790920138">
        <ele>1304.165771484375</ele>
        <time>2011-04-23T18:16:08Z</time>
      </trkpt>
      <trkpt lat="32.046803729608655" lon="-4.408466583117843">
        <ele>1314.259521484375</ele>
        <time>2011-04-23T18:16:14Z</time>
      </trkpt>
      <trkpt lat="32.046786462888122" lon="-4.408164080232382">
        <ele>1316.662841796875</ele>
        <time>2011-04-23T18:16:16Z</time>
      </trkpt>
      <trkpt lat="32.046583369374275" lon="-4.406766397878528">
        <ele>1331.082763671875</ele>
        <time>2011-04-23T18:16:25Z</time>
      </trkpt>
      <trkpt lat="32.046345826238394" lon="-4.405081886798143">
        <ele>1345.983154296875</ele>
        <time>2011-04-23T18:16:38Z</time>
      </trkpt>
      <trkpt lat="32.046220516785979" lon="-4.403821416199207">
        <ele>1355.59619140625</ele>
        <time>2011-04-23T18:16:48Z</time>
      </trkpt>
      <trkpt lat="32.046263767406344" lon="-4.403455965220928">
        <ele>1355.115478515625</ele>
        <time>2011-04-23T18:16:51Z</time>
      </trkpt>
      <trkpt lat="32.046703984960914" lon="-4.402604447677732">
        <ele>1351.270263671875</ele>
        <time>2011-04-23T18:16:59Z</time>
      </trkpt>
      <trkpt lat="32.047374537214637" lon="-4.40213187597692">
        <ele>1340.21533203125</ele>
        <time>2011-04-23T18:17:06Z</time>
      </trkpt>
      <trkpt lat="32.047480484470725" lon="-4.402095666155219">
        <ele>1338.773193359375</ele>
        <time>2011-04-23T18:17:07Z</time>
      </trkpt>
      <trkpt lat="32.04794442281127" lon="-4.402044285088778">
        <ele>1335.88916015625</ele>
        <time>2011-04-23T18:17:11Z</time>
      </trkpt>
      <trkpt lat="32.048407522961497" lon="-4.402109747752547">
        <ele>1335.88916015625</ele>
        <time>2011-04-23T18:17:15Z</time>
      </trkpt>
      <trkpt lat="32.049210257828236" lon="-4.402641160413623">
        <ele>1336.850341796875</ele>
        <time>2011-04-23T18:17:23Z</time>
      </trkpt>
      <trkpt lat="32.049297764897346" lon="-4.402740737423301">
        <ele>1336.850341796875</ele>
        <time>2011-04-23T18:17:24Z</time>
      </trkpt>
      <trkpt lat="32.049638824537396" lon="-4.403518326580524">
        <ele>1336.850341796875</ele>
        <time>2011-04-23T18:17:30Z</time>
      </trkpt>
      <trkpt lat="32.049858681857586" lon="-4.40438149496913">
        <ele>1335.408447265625</ele>
        <time>2011-04-23T18:17:36Z</time>
      </trkpt>
      <trkpt lat="32.050245339050889" lon="-4.404987841844559">
        <ele>1335.408447265625</ele>
        <time>2011-04-23T18:17:41Z</time>
      </trkpt>
      <trkpt lat="32.050776416435838" lon="-4.405509028583765">
        <ele>1338.773193359375</ele>
        <time>2011-04-23T18:17:46Z</time>
      </trkpt>
      <trkpt lat="32.051342949271202" lon="-4.406499769538641">
        <ele>1340.69580078125</ele>
        <time>2011-04-23T18:17:53Z</time>
      </trkpt>
      <trkpt lat="32.051689540967345" lon="-4.407232431694865">
        <ele>1340.21533203125</ele>
        <time>2011-04-23T18:17:58Z</time>
      </trkpt>
      <trkpt lat="32.051917444914579" lon="-4.408524753525853">
        <ele>1337.3310546875</ele>
        <time>2011-04-23T18:18:07Z</time>
      </trkpt>
      <trkpt lat="32.052033031359315" lon="-4.409300331026316">
        <ele>1334.447265625</ele>
        <time>2011-04-23T18:18:13Z</time>
      </trkpt>
      <trkpt lat="32.052378868684173" lon="-4.409898966550827">
        <ele>1330.60205078125</ele>
        <time>2011-04-23T18:18:19Z</time>
      </trkpt>
      <trkpt lat="32.05298856832087" lon="-4.410182693973184">
        <ele>1327.237548828125</ele>
        <time>2011-04-23T18:18:25Z</time>
      </trkpt>
      <trkpt lat="32.053479831665754" lon="-4.410077584907413">
        <ele>1324.834228515625</ele>
        <time>2011-04-23T18:18:29Z</time>
      </trkpt>
      <trkpt lat="32.053739922121167" lon="-4.409922184422612">
        <ele>1323.39208984375</ele>
        <time>2011-04-23T18:18:31Z</time>
      </trkpt>
      <trkpt lat="32.055204575881362" lon="-4.408636232838035">
        <ele>1313.77880859375</ele>
        <time>2011-04-23T18:18:43Z</time>
      </trkpt>
      <trkpt lat="32.056020051240921" lon="-4.408207247033715">
        <ele>1311.8564453125</ele>
        <time>2011-04-23T18:18:49Z</time>
      </trkpt>
      <trkpt lat="32.057252358645201" lon="-4.408004991710186">
        <ele>1306.56884765625</ele>
        <time>2011-04-23T18:18:57Z</time>
      </trkpt>
      <trkpt lat="32.058162046596408" lon="-4.407662088051438">
        <ele>1301.762451171875</ele>
        <time>2011-04-23T18:19:03Z</time>
      </trkpt>
      <trkpt lat="32.059477586299181" lon="-4.40671518445015">
        <ele>1295.033203125</ele>
        <time>2011-04-23T18:19:12Z</time>
      </trkpt>
      <trkpt lat="32.061398718506098" lon="-4.405333762988448">
        <ele>1288.78466796875</ele>
        <time>2011-04-23T18:19:25Z</time>
      </trkpt>
      <trkpt lat="32.062700930982828" lon="-4.404300190508366">
        <ele>1280.613525390625</ele>
        <time>2011-04-23T18:19:34Z</time>
      </trkpt>
      <trkpt lat="32.063569882884622" lon="-4.403215236961842">
        <ele>1273.884033203125</ele>
        <time>2011-04-23T18:19:40Z</time>
      </trkpt>
      <trkpt lat="32.064397176727653" lon="-4.401925345882773">
        <ele>1267.155029296875</ele>
        <time>2011-04-23T18:19:47Z</time>
      </trkpt>
      <trkpt lat="32.065572319552302" lon="-4.399965992197394">
        <ele>1255.138427734375</ele>
        <time>2011-04-23T18:19:58Z</time>
      </trkpt>
      <trkpt lat="32.065960485488176" lon="-4.398728990927339">
        <ele>1255.619140625</ele>
        <time>2011-04-23T18:20:04Z</time>
      </trkpt>
      <trkpt lat="32.066190987825394" lon="-4.396866448223591">
        <ele>1250.33203125</ele>
        <time>2011-04-23T18:20:13Z</time>
      </trkpt>
      <trkpt lat="32.066357033327222" lon="-4.395264163613319">
        <ele>1246.96728515625</ele>
        <time>2011-04-23T18:20:22Z</time>
      </trkpt>
      <trkpt lat="32.066643442958593" lon="-4.39398692920804">
        <ele>1243.6025390625</ele>
        <time>2011-04-23T18:20:30Z</time>
      </trkpt>
      <trkpt lat="32.067144177854061" lon="-4.393141278997064">
        <ele>1241.19921875</ele>
        <time>2011-04-23T18:20:36Z</time>
      </trkpt>
      <trkpt lat="32.068307166919112" lon="-4.391509741544724">
        <ele>1233.989501953125</ele>
        <time>2011-04-23T18:20:48Z</time>
      </trkpt>
      <trkpt lat="32.069228421896696" lon="-4.390435433015227">
        <ele>1228.2216796875</ele>
        <time>2011-04-23T18:20:57Z</time>
      </trkpt>
      <trkpt lat="32.070121094584465" lon="-4.389965794980526">
        <ele>1221.4921875</ele>
        <time>2011-04-23T18:21:04Z</time>
      </trkpt>
      <trkpt lat="32.07120412029326" lon="-4.389350730925798">
        <ele>1210.43701171875</ele>
        <time>2011-04-23T18:21:12Z</time>
      </trkpt>
      <trkpt lat="32.072397535666823" lon="-4.388377424329519">
        <ele>1198.9013671875</ele>
        <time>2011-04-23T18:21:22Z</time>
      </trkpt>
      <trkpt lat="32.072769859805703" lon="-4.388188999146223">
        <ele>1196.978759765625</ele>
        <time>2011-04-23T18:21:25Z</time>
      </trkpt>
      <trkpt lat="32.073629926890135" lon="-4.388194279745221">
        <ele>1188.326904296875</ele>
        <time>2011-04-23T18:21:31Z</time>
      </trkpt>
      <trkpt lat="32.075377469882369" lon="-4.388477168977261">
        <ele>1175.82958984375</ele>
        <time>2011-04-23T18:21:42Z</time>
      </trkpt>
      <trkpt lat="32.077003056183457" lon="-4.388544391840696">
        <ele>1173.426513671875</ele>
        <time>2011-04-23T18:21:51Z</time>
      </trkpt>
      <trkpt lat="32.079297853633761" lon="-4.388383291661739">
        <ele>1164.2939453125</ele>
        <time>2011-04-23T18:22:04Z</time>
      </trkpt>
      <trkpt lat="32.0801040250808" lon="-4.387920526787639">
        <ele>1158.52587890625</ele>
        <time>2011-04-23T18:22:09Z</time>
      </trkpt>
      <trkpt lat="32.080575758591294" lon="-4.387216530740261">
        <ele>1157.083984375</ele>
        <time>2011-04-23T18:22:13Z</time>
      </trkpt>
      <trkpt lat="32.080643819645047" lon="-4.387006144970655">
        <ele>1157.083984375</ele>
        <time>2011-04-23T18:22:14Z</time>
      </trkpt>
      <trkpt lat="32.081221165135503" lon="-4.38496196642518">
        <ele>1154.6806640625</ele>
        <time>2011-04-23T18:22:24Z</time>
      </trkpt>
      <trkpt lat="32.081929687410593" lon="-4.382443036884069">
        <ele>1159.9677734375</ele>
        <time>2011-04-23T18:22:38Z</time>
      </trkpt>
      <trkpt lat="32.082002777606249" lon="-4.38227104023099">
        <ele>1160.92919921875</ele>
        <time>2011-04-23T18:22:39Z</time>
      </trkpt>
      <trkpt lat="32.082590265199542" lon="-4.381620353087783">
        <ele>1163.33251953125</ele>
        <time>2011-04-23T18:22:44Z</time>
      </trkpt>
      <trkpt lat="32.082721777260303" lon="-4.381545167416334">
        <ele>1164.2939453125</ele>
        <time>2011-04-23T18:22:45Z</time>
      </trkpt>
      <trkpt lat="32.084241332486272" lon="-4.380831867456436">
        <ele>1173.426513671875</ele>
        <time>2011-04-23T18:22:58Z</time>
      </trkpt>
      <trkpt lat="32.085503228008747" lon="-4.380308669060469">
        <ele>1173.426513671875</ele>
        <time>2011-04-23T18:23:07Z</time>
      </trkpt>
      <trkpt lat="32.086666971445084" lon="-4.380176570266485">
        <ele>1172.94580078125</ele>
        <time>2011-04-23T18:23:14Z</time>
      </trkpt>
      <trkpt lat="32.087933644652367" lon="-4.380385363474488">
        <ele>1171.984375</ele>
        <time>2011-04-23T18:23:22Z</time>
      </trkpt>
      <trkpt lat="32.089843461290002" lon="-4.380805380642414">
        <ele>1173.426513671875</ele>
        <time>2011-04-23T18:23:34Z</time>
      </trkpt>
      <trkpt lat="32.091047689318657" lon="-4.381044516339898">
        <ele>1176.310302734375</ele>
        <time>2011-04-23T18:23:43Z</time>
      </trkpt>
      <trkpt lat="32.091588573530316" lon="-4.380730697885156">
        <ele>1178.23291015625</ele>
        <time>2011-04-23T18:23:49Z</time>
      </trkpt>
      <trkpt lat="32.091702399775386" lon="-4.380493322387338">
        <ele>1178.713623046875</ele>
        <time>2011-04-23T18:23:51Z</time>
      </trkpt>
      <trkpt lat="32.092266837134957" lon="-4.379282975569367">
        <ele>1175.82958984375</ele>
        <time>2011-04-23T18:24:00Z</time>
      </trkpt>
      <trkpt lat="32.093156073242426" lon="-4.378213193267584">
        <ele>1164.774658203125</ele>
        <time>2011-04-23T18:24:08Z</time>
      </trkpt>
      <trkpt lat="32.093353383243084" lon="-4.377904152497649">
        <ele>1163.33251953125</ele>
        <time>2011-04-23T18:24:10Z</time>
      </trkpt>
      <trkpt lat="32.093682456761599" lon="-4.37658584676683">
        <ele>1158.52587890625</ele>
        <time>2011-04-23T18:24:17Z</time>
      </trkpt>
      <trkpt lat="32.093854285776615" lon="-4.374995045363903">
        <ele>1162.851806640625</ele>
        <time>2011-04-23T18:24:25Z</time>
      </trkpt>
      <trkpt lat="32.094292659312487" lon="-4.372736541554332">
        <ele>1170.061767578125</ele>
        <time>2011-04-23T18:24:36Z</time>
      </trkpt>
      <trkpt lat="32.094880817458034" lon="-4.371064016595483">
        <ele>1172.465087890625</ele>
        <time>2011-04-23T18:24:44Z</time>
      </trkpt>
      <trkpt lat="32.095628064125776" lon="-4.369917372241616">
        <ele>1171.984375</ele>
        <time>2011-04-23T18:24:50Z</time>
      </trkpt>
      <trkpt lat="32.096857186406851" lon="-4.368106126785278">
        <ele>1178.23291015625</ele>
        <time>2011-04-23T18:24:59Z</time>
      </trkpt>
      <trkpt lat="32.097694873809814" lon="-4.366830736398697">
        <ele>1182.078369140625</ele>
        <time>2011-04-23T18:25:06Z</time>
      </trkpt>
      <trkpt lat="32.098683267831802" lon="-4.366014758124948">
        <ele>1184.96240234375</ele>
        <time>2011-04-23T18:25:12Z</time>
      </trkpt>
      <trkpt lat="32.09979479201138" lon="-4.365474544465542">
        <ele>1183.03955078125</ele>
        <time>2011-04-23T18:25:18Z</time>
      </trkpt>
      <trkpt lat="32.101019723340869" lon="-4.365305146202445">
        <ele>1180.636474609375</ele>
        <time>2011-04-23T18:25:24Z</time>
      </trkpt>
      <trkpt lat="32.103126179426908" lon="-4.365285197272897">
        <ele>1186.884765625</ele>
        <time>2011-04-23T18:25:34Z</time>
      </trkpt>
      <trkpt lat="32.104870118200779" lon="-4.365096772089601">
        <ele>1189.768798828125</ele>
        <time>2011-04-23T18:25:43Z</time>
      </trkpt>
      <trkpt lat="32.107070870697498" lon="-4.364566197618842">
        <ele>1189.2880859375</ele>
        <time>2011-04-23T18:25:54Z</time>
      </trkpt>
      <trkpt lat="32.108571231365204" lon="-4.364359918981791">
        <ele>1188.8076171875</ele>
        <time>2011-04-23T18:26:02Z</time>
      </trkpt>
      <trkpt lat="32.110044183209538" lon="-4.364646831527352">
        <ele>1192.65283203125</ele>
        <time>2011-04-23T18:26:10Z</time>
      </trkpt>
      <trkpt lat="32.111142380163074" lon="-4.364567622542381">
        <ele>1191.69140625</ele>
        <time>2011-04-23T18:26:16Z</time>
      </trkpt>
      <trkpt lat="32.113101650029421" lon="-4.363990444689989">
        <ele>1185.44287109375</ele>
        <time>2011-04-23T18:26:27Z</time>
      </trkpt>
      <trkpt lat="32.114775264635682" lon="-4.363490883260965">
        <ele>1185.44287109375</ele>
        <time>2011-04-23T18:26:36Z</time>
      </trkpt>
      <trkpt lat="32.116074375808239" lon="-4.362905155867338">
        <ele>1185.44287109375</ele>
        <time>2011-04-23T18:26:43Z</time>
      </trkpt>
      <trkpt lat="32.117200316861272" lon="-4.362503495067358">
        <ele>1184.96240234375</ele>
        <time>2011-04-23T18:26:49Z</time>
      </trkpt>
      <trkpt lat="32.11821704171598" lon="-4.362578932195902">
        <ele>1184.481689453125</ele>
        <time>2011-04-23T18:26:54Z</time>
      </trkpt>
      <trkpt lat="32.119199736043811" lon="-4.362910520285368">
        <ele>1184.96240234375</ele>
        <time>2011-04-23T18:26:59Z</time>
      </trkpt>
      <trkpt lat="32.121127657592297" lon="-4.36386832036078">
        <ele>1188.326904296875</ele>
        <time>2011-04-23T18:27:09Z</time>
      </trkpt>
      <trkpt lat="32.122694151476026" lon="-4.364318763837218">
        <ele>1192.65283203125</ele>
        <time>2011-04-23T18:27:17Z</time>
      </trkpt>
      <trkpt lat="32.123981947079301" lon="-4.364173086360097">
        <ele>1195.53662109375</ele>
        <time>2011-04-23T18:27:24Z</time>
      </trkpt>
      <trkpt lat="32.12524157948792" lon="-4.364221198484302">
        <ele>1196.017578125</ele>
        <time>2011-04-23T18:27:31Z</time>
      </trkpt>
      <trkpt lat="32.125913389027119" lon="-4.364562258124352">
        <ele>1197.45947265625</ele>
        <time>2011-04-23T18:27:35Z</time>
      </trkpt>
      <trkpt lat="32.127140248194337" lon="-4.365536235272884">
        <ele>1196.017578125</ele>
        <time>2011-04-23T18:27:43Z</time>
      </trkpt>
      <trkpt lat="32.127493964508176" lon="-4.365731030702591">
        <ele>1194.5751953125</ele>
        <time>2011-04-23T18:27:45Z</time>
      </trkpt>
      <trkpt lat="32.128497781231999" lon="-4.365889197215438">
        <ele>1191.69140625</ele>
        <time>2011-04-23T18:27:50Z</time>
      </trkpt>
      <trkpt lat="32.130496865138412" lon="-4.365597674623132">
        <ele>1190.24951171875</ele>
        <time>2011-04-23T18:28:00Z</time>
      </trkpt>
      <trkpt lat="32.132434761151671" lon="-4.36509526334703">
        <ele>1195.53662109375</ele>
        <time>2011-04-23T18:28:10Z</time>
      </trkpt>
      <trkpt lat="32.133520636707544" lon="-4.364555636420846">
        <ele>1193.13330078125</ele>
        <time>2011-04-23T18:28:16Z</time>
      </trkpt>
      <trkpt lat="32.135305562987924" lon="-4.363786429166794">
        <ele>1191.69140625</ele>
        <time>2011-04-23T18:28:25Z</time>
      </trkpt>
      <trkpt lat="32.136632250621915" lon="-4.363418128341436">
        <ele>1189.2880859375</ele>
        <time>2011-04-23T18:28:32Z</time>
      </trkpt>
      <trkpt lat="32.138133365660906" lon="-4.363348055630922">
        <ele>1189.768798828125</ele>
        <time>2011-04-23T18:28:40Z</time>
      </trkpt>
      <trkpt lat="32.139962799847126" lon="-4.363322071731091">
        <ele>1191.69140625</ele>
        <time>2011-04-23T18:28:50Z</time>
      </trkpt>
      <trkpt lat="32.140631172806025" lon="-4.363493230193853">
        <ele>1193.13330078125</ele>
        <time>2011-04-23T18:28:54Z</time>
      </trkpt>
      <trkpt lat="32.14241542853415" lon="-4.364347346127033">
        <ele>1193.614013671875</ele>
        <time>2011-04-23T18:29:05Z</time>
      </trkpt>
      <trkpt lat="32.14421016164124" lon="-4.365121750161052">
        <ele>1195.53662109375</ele>
        <time>2011-04-23T18:29:15Z</time>
      </trkpt>
      <trkpt lat="32.145246583968401" lon="-4.365781992673874">
        <ele>1194.5751953125</ele>
        <time>2011-04-23T18:29:21Z</time>
      </trkpt>
      <trkpt lat="32.146414769813418" lon="-4.366924948990345">
        <ele>1196.978759765625</ele>
        <time>2011-04-23T18:29:29Z</time>
      </trkpt>
      <trkpt lat="32.147006951272488" lon="-4.368069330230355">
        <ele>1198.9013671875</ele>
        <time>2011-04-23T18:29:35Z</time>
      </trkpt>
      <trkpt lat="32.147332672029734" lon="-4.36959994956851">
        <ele>1199.86279296875</ele>
        <time>2011-04-23T18:29:42Z</time>
      </trkpt>
      <trkpt lat="32.14778546243906" lon="-4.371438017114997">
        <ele>1204.188720703125</ele>
        <time>2011-04-23T18:29:51Z</time>
      </trkpt>
      <trkpt lat="32.148398431017995" lon="-4.372391793876886">
        <ele>1209.956298828125</ele>
        <time>2011-04-23T18:29:57Z</time>
      </trkpt>
      <trkpt lat="32.149826036766171" lon="-4.374130452051759">
        <ele>1219.56982421875</ele>
        <time>2011-04-23T18:30:09Z</time>
      </trkpt>
      <trkpt lat="32.150776041671634" lon="-4.374716095626354">
        <ele>1222.934326171875</ele>
        <time>2011-04-23T18:30:15Z</time>
      </trkpt>
      <trkpt lat="32.152003655210137" lon="-4.375041564926505">
        <ele>1224.376220703125</ele>
        <time>2011-04-23T18:30:22Z</time>
      </trkpt>
      <trkpt lat="32.152359550818801" lon="-4.375072745606303">
        <ele>1224.85693359375</ele>
        <time>2011-04-23T18:30:24Z</time>
      </trkpt>
      <trkpt lat="32.153261275961995" lon="-4.374786838889122">
        <ele>1224.85693359375</ele>
        <time>2011-04-23T18:30:29Z</time>
      </trkpt>
      <trkpt lat="32.153831999748945" lon="-4.374184599146247">
        <ele>1223.4150390625</ele>
        <time>2011-04-23T18:30:33Z</time>
      </trkpt>
      <trkpt lat="32.154077840968966" lon="-4.373544976115227">
        <ele>1221.4921875</ele>
        <time>2011-04-23T18:30:36Z</time>
      </trkpt>
      <trkpt lat="32.154401298612356" lon="-4.371590483933687">
        <ele>1219.56982421875</ele>
        <time>2011-04-23T18:30:44Z</time>
      </trkpt>
      <trkpt lat="32.154399873688817" lon="-4.370098672807217">
        <ele>1220.05029296875</ele>
        <time>2011-04-23T18:30:50Z</time>
      </trkpt>
      <trkpt lat="32.154572792351246" lon="-4.367323592305183">
        <ele>1218.127685546875</ele>
        <time>2011-04-23T18:31:01Z</time>
      </trkpt>
      <trkpt lat="32.154968418180943" lon="-4.366095056757331">
        <ele>1217.16650390625</ele>
        <time>2011-04-23T18:31:06Z</time>
      </trkpt>
      <trkpt lat="32.155816582962871" lon="-4.364713048562408">
        <ele>1215.724609375</ele>
        <time>2011-04-23T18:31:12Z</time>
      </trkpt>
      <trkpt lat="32.156755942851305" lon="-4.363843845203519">
        <ele>1217.16650390625</ele>
        <time>2011-04-23T18:31:17Z</time>
      </trkpt>
      <trkpt lat="32.157948855310678" lon="-4.36319743283093">
        <ele>1222.934326171875</ele>
        <time>2011-04-23T18:31:23Z</time>
      </trkpt>
      <trkpt lat="32.158951750025153" lon="-4.363015629351139">
        <ele>1227.26025390625</ele>
        <time>2011-04-23T18:31:28Z</time>
      </trkpt>
      <trkpt lat="32.160309534519911" lon="-4.363181591033936">
        <ele>1231.105712890625</ele>
        <time>2011-04-23T18:31:35Z</time>
      </trkpt>
      <trkpt lat="32.161612920463085" lon="-4.363830098882318">
        <ele>1227.26025390625</ele>
        <time>2011-04-23T18:31:42Z</time>
      </trkpt>
      <trkpt lat="32.162714553996921" lon="-4.364743726328015">
        <ele>1222.45361328125</ele>
        <time>2011-04-23T18:31:49Z</time>
      </trkpt>
      <trkpt lat="32.16433578170836" lon="-4.366341652348638">
        <ele>1218.6083984375</ele>
        <time>2011-04-23T18:32:00Z</time>
      </trkpt>
      <trkpt lat="32.165242452174425" lon="-4.367145141586661">
        <ele>1221.972900390625</ele>
        <time>2011-04-23T18:32:06Z</time>
      </trkpt>
      <trkpt lat="32.166333021596074" lon="-4.368351297453046">
        <ele>1231.586181640625</ele>
        <time>2011-04-23T18:32:14Z</time>
      </trkpt>
      <trkpt lat="32.167235417291522" lon="-4.369401130825281">
        <ele>1242.16064453125</ele>
        <time>2011-04-23T18:32:21Z</time>
      </trkpt>
      <trkpt lat="32.167589385062456" lon="-4.37009833753109">
        <ele>1247.447998046875</ele>
        <time>2011-04-23T18:32:25Z</time>
      </trkpt>
      <trkpt lat="32.168044522404671" lon="-4.370627738535404">
        <ele>1251.77392578125</ele>
        <time>2011-04-23T18:32:29Z</time>
      </trkpt>
      <trkpt lat="32.16872613877058" lon="-4.370819767937064">
        <ele>1254.65771484375</ele>
        <time>2011-04-23T18:32:34Z</time>
      </trkpt>
      <trkpt lat="32.169191753491759" lon="-4.370460771024227">
        <ele>1255.619140625</ele>
        <time>2011-04-23T18:32:38Z</time>
      </trkpt>
      <trkpt lat="32.169622331857681" lon="-4.36989163979888">
        <ele>1251.77392578125</ele>
        <time>2011-04-23T18:32:42Z</time>
      </trkpt>
      <trkpt lat="32.169911926612258" lon="-4.36924715526402">
        <ele>1249.851318359375</ele>
        <time>2011-04-23T18:32:46Z</time>
      </trkpt>
      <trkpt lat="32.170411488041282" lon="-4.368356242775917">
        <ele>1247.447998046875</ele>
        <time>2011-04-23T18:32:52Z</time>
      </trkpt>
      <trkpt lat="32.171199219301343" lon="-4.367822567000985">
        <ele>1252.735107421875</ele>
        <time>2011-04-23T18:32:58Z</time>
      </trkpt>
      <trkpt lat="32.171678496524692" lon="-4.367710333317518">
        <ele>1253.696533203125</ele>
        <time>2011-04-23T18:33:02Z</time>
      </trkpt>
      <trkpt lat="32.172829331830144" lon="-4.367941422387958">
        <ele>1254.17724609375</ele>
        <time>2011-04-23T18:33:12Z</time>
      </trkpt>
      <trkpt lat="32.173502733930945" lon="-4.368338556960225">
        <ele>1252.25439453125</ele>
        <time>2011-04-23T18:33:18Z</time>
      </trkpt>
      <trkpt lat="32.173618236556649" lon="-4.36864173039794">
        <ele>1249.851318359375</ele>
        <time>2011-04-23T18:33:21Z</time>
      </trkpt>
      <trkpt lat="32.173676239326596" lon="-4.368840549141169">
        <ele>1250.33203125</ele>
        <time>2011-04-23T18:33:23Z</time>
      </trkpt>
      <trkpt lat="32.173980921506882" lon="-4.36906635761261">
        <ele>1254.65771484375</ele>
        <time>2011-04-23T18:33:28Z</time>
      </trkpt>
      <trkpt lat="32.174208490177989" lon="-4.368765195831657">
        <ele>1258.0224609375</ele>
        <time>2011-04-23T18:33:32Z</time>
      </trkpt>
      <trkpt lat="32.174218548461795" lon="-4.368645921349526">
        <ele>1258.983642578125</ele>
        <time>2011-04-23T18:33:33Z</time>
      </trkpt>
      <trkpt lat="32.174389371648431" lon="-4.367513358592987">
        <ele>1263.309814453125</ele>
        <time>2011-04-23T18:33:42Z</time>
      </trkpt>
      <trkpt lat="32.174440668895841" lon="-4.367130724713206">
        <ele>1264.751708984375</ele>
        <time>2011-04-23T18:33:45Z</time>
      </trkpt>
      <trkpt lat="32.174700172618032" lon="-4.366617919877172">
        <ele>1265.713134765625</ele>
        <time>2011-04-23T18:33:50Z</time>
      </trkpt>
      <trkpt lat="32.174846017733216" lon="-4.366437960416079">
        <ele>1265.713134765625</ele>
        <time>2011-04-23T18:33:52Z</time>
      </trkpt>
      <trkpt lat="32.1750264801085" lon="-4.365891041234136">
        <ele>1265.232421875</ele>
        <time>2011-04-23T18:33:57Z</time>
      </trkpt>
      <trkpt lat="32.175194621086121" lon="-4.364763339981437">
        <ele>1263.309814453125</ele>
        <time>2011-04-23T18:34:06Z</time>
      </trkpt>
      <trkpt lat="32.175578931346536" lon="-4.363870332017541">
        <ele>1258.0224609375</ele>
        <time>2011-04-23T18:34:13Z</time>
      </trkpt>
      <trkpt lat="32.175622181966901" lon="-4.363744184374809">
        <ele>1257.541748046875</ele>
        <time>2011-04-23T18:34:14Z</time>
      </trkpt>
      <trkpt lat="32.175895934924483" lon="-4.363415781408548">
        <ele>1254.65771484375</ele>
        <time>2011-04-23T18:34:18Z</time>
      </trkpt>
      <trkpt lat="32.176724737510085" lon="-4.362742127850652">
        <ele>1250.8125</ele>
        <time>2011-04-23T18:34:27Z</time>
      </trkpt>
      <trkpt lat="32.177434349432588" lon="-4.362526796758175">
        <ele>1249.37060546875</ele>
        <time>2011-04-23T18:34:33Z</time>
      </trkpt>
      <trkpt lat="32.17784489504993" lon="-4.362561916932464">
        <ele>1248.4091796875</ele>
        <time>2011-04-23T18:34:36Z</time>
      </trkpt>
      <trkpt lat="32.17939043417573" lon="-4.362824689596891">
        <ele>1245.044677734375</ele>
        <time>2011-04-23T18:34:47Z</time>
      </trkpt>
      <trkpt lat="32.180204233154655" lon="-4.362630061805248">
        <ele>1243.121826171875</ele>
        <time>2011-04-23T18:34:53Z</time>
      </trkpt>
      <trkpt lat="32.180915521457791" lon="-4.362640036270022">
        <ele>1242.16064453125</ele>
        <time>2011-04-23T18:34:58Z</time>
      </trkpt>
      <trkpt lat="32.182000894099474" lon="-4.363095425069332">
        <ele>1241.679931640625</ele>
        <time>2011-04-23T18:35:06Z</time>
      </trkpt>
      <trkpt lat="32.182813016697764" lon="-4.36379749327898">
        <ele>1239.75732421875</ele>
        <time>2011-04-23T18:35:13Z</time>
      </trkpt>
      <trkpt lat="32.18406368046999" lon="-4.365283772349358">
        <ele>1236.392822265625</ele>
        <time>2011-04-23T18:35:26Z</time>
      </trkpt>
      <trkpt lat="32.185105551034212" lon="-4.366270657628775">
        <ele>1232.547607421875</ele>
        <time>2011-04-23T18:35:35Z</time>
      </trkpt>
      <trkpt lat="32.186517482623458" lon="-4.367355946451426">
        <ele>1229.182861328125</ele>
        <time>2011-04-23T18:35:45Z</time>
      </trkpt>
      <trkpt lat="32.188776154071093" lon="-4.369035260751844">
        <ele>1232.06689453125</ele>
        <time>2011-04-23T18:36:00Z</time>
      </trkpt>
      <trkpt lat="32.19005674123764" lon="-4.370268741622567">
        <ele>1233.989501953125</ele>
        <time>2011-04-23T18:36:09Z</time>
      </trkpt>
      <trkpt lat="32.19170537777245" lon="-4.37212809920311">
        <ele>1239.276611328125</ele>
        <time>2011-04-23T18:36:20Z</time>
      </trkpt>
      <trkpt lat="32.19362466596067" lon="-4.374313931912184">
        <ele>1246.96728515625</ele>
        <time>2011-04-23T18:36:32Z</time>
      </trkpt>
      <trkpt lat="32.194859487935901" lon="-4.375687055289745">
        <ele>1248.889892578125</ele>
        <time>2011-04-23T18:36:40Z</time>
      </trkpt>
      <trkpt lat="32.195794070139527" lon="-4.37672364525497">
        <ele>1248.4091796875</ele>
        <time>2011-04-23T18:36:47Z</time>
      </trkpt>
      <trkpt lat="32.197567597031593" lon="-4.378174468874931">
        <ele>1246.96728515625</ele>
        <time>2011-04-23T18:36:58Z</time>
      </trkpt>
      <trkpt lat="32.199590066447854" lon="-4.379761498421431">
        <ele>1247.447998046875</ele>
        <time>2011-04-23T18:37:09Z</time>
      </trkpt>
      <trkpt lat="32.201463589444757" lon="-4.381223218515515">
        <ele>1248.4091796875</ele>
        <time>2011-04-23T18:37:18Z</time>
      </trkpt>
      <trkpt lat="32.204719623550773" lon="-4.383771987631917">
        <ele>1250.33203125</ele>
        <time>2011-04-23T18:37:33Z</time>
      </trkpt>
      <trkpt lat="32.207978842779994" lon="-4.386337269097567">
        <ele>1255.138427734375</ele>
        <time>2011-04-23T18:37:48Z</time>
      </trkpt>
      <trkpt lat="32.210151348263025" lon="-4.387927986681461">
        <ele>1257.541748046875</ele>
        <time>2011-04-23T18:37:58Z</time>
      </trkpt>
      <trkpt lat="32.21332523971796" lon="-4.389679217711091">
        <ele>1257.541748046875</ele>
        <time>2011-04-23T18:38:12Z</time>
      </trkpt>
      <trkpt lat="32.216485217213631" lon="-4.391418881714344">
        <ele>1258.0224609375</ele>
        <time>2011-04-23T18:38:26Z</time>
      </trkpt>
      <trkpt lat="32.220630152150989" lon="-4.393699681386352">
        <ele>1258.5029296875</ele>
        <time>2011-04-23T18:38:44Z</time>
      </trkpt>
      <trkpt lat="32.223793398588896" lon="-4.3954464700073">
        <ele>1259.94482421875</ele>
        <time>2011-04-23T18:38:58Z</time>
      </trkpt>
      <trkpt lat="32.227270295843482" lon="-4.397366931661964">
        <ele>1261.38720703125</ele>
        <time>2011-04-23T18:39:14Z</time>
      </trkpt>
      <trkpt lat="32.230294486507773" lon="-4.398982124403119">
        <ele>1261.38720703125</ele>
        <time>2011-04-23T18:39:28Z</time>
      </trkpt>
      <trkpt lat="32.231709184125066" lon="-4.399322848767042">
        <ele>1260.906494140625</ele>
        <time>2011-04-23T18:39:34Z</time>
      </trkpt>
      <trkpt lat="32.233158582821488" lon="-4.399252440780401">
        <ele>1260.906494140625</ele>
        <time>2011-04-23T18:39:40Z</time>
      </trkpt>
      <trkpt lat="32.234526677057147" lon="-4.398778360337019">
        <ele>1258.983642578125</ele>
        <time>2011-04-23T18:39:46Z</time>
      </trkpt>
      <trkpt lat="32.236293833702803" lon="-4.397787535563111">
        <ele>1260.906494140625</ele>
        <time>2011-04-23T18:39:54Z</time>
      </trkpt>
      <trkpt lat="32.237525889649987" lon="-4.397092591971159">
        <ele>1261.38720703125</ele>
        <time>2011-04-23T18:40:01Z</time>
      </trkpt>
      <trkpt lat="32.240199884399772" lon="-4.395590554922819">
        <ele>1262.348388671875</ele>
        <time>2011-04-23T18:40:17Z</time>
      </trkpt>
      <trkpt lat="32.241606619209051" lon="-4.394809193909168">
        <ele>1263.309814453125</ele>
        <time>2011-04-23T18:40:27Z</time>
      </trkpt>
      <trkpt lat="32.243249556049705" lon="-4.393900679424405">
        <ele>1263.790283203125</ele>
        <time>2011-04-23T18:40:39Z</time>
      </trkpt>
      <trkpt lat="32.24533824250102" lon="-4.392729727551341">
        <ele>1264.27099609375</ele>
        <time>2011-04-23T18:40:53Z</time>
      </trkpt>
      <trkpt lat="32.246929043903947" lon="-4.391671679913998">
        <ele>1264.27099609375</ele>
        <time>2011-04-23T18:41:03Z</time>
      </trkpt>
      <trkpt lat="32.248643981292844" lon="-4.390216246247292">
        <ele>1264.27099609375</ele>
        <time>2011-04-23T18:41:14Z</time>
      </trkpt>
      <trkpt lat="32.250328743830323" lon="-4.388575069606304">
        <ele>1267.155029296875</ele>
        <time>2011-04-23T18:41:25Z</time>
      </trkpt>
      <trkpt lat="32.251663058996201" lon="-4.387523392215371">
        <ele>1270.038818359375</ele>
        <time>2011-04-23T18:41:33Z</time>
      </trkpt>
      <trkpt lat="32.252853875979781" lon="-4.386767847463489">
        <ele>1272.442138671875</ele>
        <time>2011-04-23T18:41:40Z</time>
      </trkpt>
      <trkpt lat="32.253811340779066" lon="-4.386626863852143">
        <ele>1274.36474609375</ele>
        <time>2011-04-23T18:41:45Z</time>
      </trkpt>
      <trkpt lat="32.254580967128277" lon="-4.386795340105891">
        <ele>1276.768310546875</ele>
        <time>2011-04-23T18:41:49Z</time>
      </trkpt>
      <trkpt lat="32.255274653434753" lon="-4.387214099988341">
        <ele>1279.17138671875</ele>
        <time>2011-04-23T18:41:53Z</time>
      </trkpt>
      <trkpt lat="32.256587762385607" lon="-4.388621170073748">
        <ele>1287.8232421875</ele>
        <time>2011-04-23T18:42:02Z</time>
      </trkpt>
      <trkpt lat="32.257271055132151" lon="-4.390006279572845">
        <ele>1292.1494140625</ele>
        <time>2011-04-23T18:42:09Z</time>
      </trkpt>
      <trkpt lat="32.258092565461993" lon="-4.391429778188467">
        <ele>1291.187744140625</ele>
        <time>2011-04-23T18:42:17Z</time>
      </trkpt>
      <trkpt lat="32.259221356362104" lon="-4.392527556046844">
        <ele>1284.939453125</ele>
        <time>2011-04-23T18:42:25Z</time>
      </trkpt>
      <trkpt lat="32.260353583842516" lon="-4.393435651436448">
        <ele>1277.7294921875</ele>
        <time>2011-04-23T18:42:33Z</time>
      </trkpt>
      <trkpt lat="32.260797573253512" lon="-4.394177366048098">
        <ele>1276.28759765625</ele>
        <time>2011-04-23T18:42:38Z</time>
      </trkpt>
      <trkpt lat="32.261046096682549" lon="-4.395453091710806">
        <ele>1274.36474609375</ele>
        <time>2011-04-23T18:42:45Z</time>
      </trkpt>
      <trkpt lat="32.260936629027128" lon="-4.396498398855329">
        <ele>1272.442138671875</ele>
        <time>2011-04-23T18:42:50Z</time>
      </trkpt>
      <trkpt lat="32.260499261319637" lon="-4.398613572120667">
        <ele>1271.96142578125</ele>
        <time>2011-04-23T18:42:59Z</time>
      </trkpt>
      <trkpt lat="32.259843628853559" lon="-4.401748068630695">
        <ele>1280.1328125</ele>
        <time>2011-04-23T18:43:12Z</time>
      </trkpt>
      <trkpt lat="32.259273240342736" lon="-4.404503870755434">
        <ele>1282.055419921875</ele>
        <time>2011-04-23T18:43:23Z</time>
      </trkpt>
      <trkpt lat="32.25874082185328" lon="-4.407210052013397">
        <ele>1284.458740234375</ele>
        <time>2011-04-23T18:43:34Z</time>
      </trkpt>
      <trkpt lat="32.25856002420187" lon="-4.409168064594269">
        <ele>1283.97802734375</ele>
        <time>2011-04-23T18:43:41Z</time>
      </trkpt>
      <trkpt lat="32.258511995896697" lon="-4.410706646740437">
        <ele>1286.86181640625</ele>
        <time>2011-04-23T18:43:47Z</time>
      </trkpt>
      <trkpt lat="32.25881852209568" lon="-4.411859828978777">
        <ele>1284.458740234375</ele>
        <time>2011-04-23T18:43:52Z</time>
      </trkpt>
      <trkpt lat="32.259324956685305" lon="-4.412627359852195">
        <ele>1279.652099609375</ele>
        <time>2011-04-23T18:43:56Z</time>
      </trkpt>
      <trkpt lat="32.260219641029835" lon="-4.413244351744652">
        <ele>1273.884033203125</ele>
        <time>2011-04-23T18:44:01Z</time>
      </trkpt>
      <trkpt lat="32.261165119707584" lon="-4.413384245708585">
        <ele>1270.038818359375</ele>
        <time>2011-04-23T18:44:06Z</time>
      </trkpt>
      <trkpt lat="32.261522859334946" lon="-4.413302019238472">
        <ele>1268.596923828125</ele>
        <time>2011-04-23T18:44:08Z</time>
      </trkpt>
      <trkpt lat="32.263276437297463" lon="-4.412589222192764">
        <ele>1269.558349609375</ele>
        <time>2011-04-23T18:44:18Z</time>
      </trkpt>
      <trkpt lat="32.263949671760201" lon="-4.412310943007469">
        <ele>1270.51953125</ele>
        <time>2011-04-23T18:44:22Z</time>
      </trkpt>
      <trkpt lat="32.264842092990875" lon="-4.412338519468904">
        <ele>1272.442138671875</ele>
        <time>2011-04-23T18:44:27Z</time>
      </trkpt>
      <trkpt lat="32.265600571408868" lon="-4.412804888561368">
        <ele>1279.17138671875</ele>
        <time>2011-04-23T18:44:32Z</time>
      </trkpt>
      <trkpt lat="32.266114633530378" lon="-4.413590272888541">
        <ele>1285.419921875</ele>
        <time>2011-04-23T18:44:37Z</time>
      </trkpt>
      <trkpt lat="32.266275649890304" lon="-4.41455377265811">
        <ele>1286.86181640625</ele>
        <time>2011-04-23T18:44:42Z</time>
      </trkpt>
      <trkpt lat="32.266240948811173" lon="-4.416642626747489">
        <ele>1283.97802734375</ele>
        <time>2011-04-23T18:44:51Z</time>
      </trkpt>
      <trkpt lat="32.266194261610508" lon="-4.41882049664855">
        <ele>1286.86181640625</ele>
        <time>2011-04-23T18:45:00Z</time>
      </trkpt>
      <trkpt lat="32.26612351834774" lon="-4.421208165585995">
        <ele>1288.303955078125</ele>
        <time>2011-04-23T18:45:11Z</time>
      </trkpt>
      <trkpt lat="32.266067862510681" lon="-4.424470569938421">
        <ele>1285.900634765625</ele>
        <time>2011-04-23T18:45:25Z</time>
      </trkpt>
      <trkpt lat="32.266033664345741" lon="-4.427416725084186">
        <ele>1284.939453125</ele>
        <time>2011-04-23T18:45:37Z</time>
      </trkpt>
      <trkpt lat="32.265992425382137" lon="-4.430065071210265">
        <ele>1283.497314453125</ele>
        <time>2011-04-23T18:45:48Z</time>
      </trkpt>
      <trkpt lat="32.265711296349764" lon="-4.431807082146406">
        <ele>1288.303955078125</ele>
        <time>2011-04-23T18:45:55Z</time>
      </trkpt>
      <trkpt lat="32.264977963641286" lon="-4.434739490970969">
        <ele>1295.99462890625</ele>
        <time>2011-04-23T18:46:07Z</time>
      </trkpt>
      <trkpt lat="32.264131726697087" lon="-4.437992423772812">
        <ele>1295.033203125</ele>
        <time>2011-04-23T18:46:20Z</time>
      </trkpt>
      <trkpt lat="32.263216255232692" lon="-4.441282488405705">
        <ele>1292.1494140625</ele>
        <time>2011-04-23T18:46:33Z</time>
      </trkpt>
      <trkpt lat="32.262629773467779" lon="-4.44380016066134">
        <ele>1293.59130859375</ele>
        <time>2011-04-23T18:46:43Z</time>
      </trkpt>
      <trkpt lat="32.262115124613047" lon="-4.447093158960342">
        <ele>1306.088134765625</ele>
        <time>2011-04-23T18:46:56Z</time>
      </trkpt>
      <trkpt lat="32.262230040505528" lon="-4.448875486850739">
        <ele>1299.359130859375</ele>
        <time>2011-04-23T18:47:03Z</time>
      </trkpt>
      <trkpt lat="32.262452747672796" lon="-4.451390895992518">
        <ele>1295.513916015625</ele>
        <time>2011-04-23T18:47:13Z</time>
      </trkpt>
      <trkpt lat="32.26276564411819" lon="-4.453898845240474">
        <ele>1301.762451171875</ele>
        <time>2011-04-23T18:47:23Z</time>
      </trkpt>
      <trkpt lat="32.263344917446375" lon="-4.455557875335217">
        <ele>1299.83984375</ele>
        <time>2011-04-23T18:47:30Z</time>
      </trkpt>
      <trkpt lat="32.264446634799242" lon="-4.458081666380167">
        <ele>1306.088134765625</ele>
        <time>2011-04-23T18:47:41Z</time>
      </trkpt>
      <trkpt lat="32.265711463987827" lon="-4.460184937343001">
        <ele>1304.165771484375</ele>
        <time>2011-04-23T18:47:51Z</time>
      </trkpt>
      <trkpt lat="32.267661932855844" lon="-4.463409958407283">
        <ele>1309.93359375</ele>
        <time>2011-04-23T18:48:06Z</time>
      </trkpt>
      <trkpt lat="32.269113091751933" lon="-4.465836938470602">
        <ele>1312.817626953125</ele>
        <time>2011-04-23T18:48:18Z</time>
      </trkpt>
      <trkpt lat="32.270466517657042" lon="-4.468292417004705">
        <ele>1320.02734375</ele>
        <time>2011-04-23T18:48:30Z</time>
      </trkpt>
      <trkpt lat="32.271245447918773" lon="-4.470181530341506">
        <ele>1326.7568359375</ele>
        <time>2011-04-23T18:48:39Z</time>
      </trkpt>
      <trkpt lat="32.272212635725737" lon="-4.471724722534418">
        <ele>1330.121337890625</ele>
        <time>2011-04-23T18:48:47Z</time>
      </trkpt>
      <trkpt lat="32.273321896791458" lon="-4.473455585539341">
        <ele>1332.0439453125</ele>
        <time>2011-04-23T18:48:56Z</time>
      </trkpt>
      <trkpt lat="32.273638732731342" lon="-4.474600134417415">
        <ele>1331.082763671875</ele>
        <time>2011-04-23T18:49:01Z</time>
      </trkpt>
      <trkpt lat="32.273800168186426" lon="-4.477553330361843">
        <ele>1329.159912109375</ele>
        <time>2011-04-23T18:49:13Z</time>
      </trkpt>
      <trkpt lat="32.273858087137341" lon="-4.480240065604448">
        <ele>1326.7568359375</ele>
        <time>2011-04-23T18:49:24Z</time>
      </trkpt>
      <trkpt lat="32.273937044665217" lon="-4.483112962916493">
        <ele>1326.276123046875</ele>
        <time>2011-04-23T18:49:36Z</time>
      </trkpt>
      <trkpt lat="32.27400996722281" lon="-4.484637463465333">
        <ele>1334.447265625</ele>
        <time>2011-04-23T18:49:44Z</time>
      </trkpt>
      <trkpt lat="32.274254467338324" lon="-4.48545872233808">
        <ele>1337.811767578125</ele>
        <time>2011-04-23T18:49:50Z</time>
      </trkpt>
      <trkpt lat="32.274732571095228" lon="-4.486602265387774">
        <ele>1341.176513671875</ele>
        <time>2011-04-23T18:49:58Z</time>
      </trkpt>
      <trkpt lat="32.275352580472827" lon="-4.488089131191373">
        <ele>1344.060546875</ele>
        <time>2011-04-23T18:50:07Z</time>
      </trkpt>
      <trkpt lat="32.276267381384969" lon="-4.490252919495106">
        <ele>1347.425048828125</ele>
        <time>2011-04-23T18:50:19Z</time>
      </trkpt>
      <trkpt lat="32.276858054101467" lon="-4.491711957380176">
        <ele>1349.34765625</ele>
        <time>2011-04-23T18:50:26Z</time>
      </trkpt>
      <trkpt lat="32.278400575742126" lon="-4.495209222659469">
        <ele>1345.021728515625</ele>
        <time>2011-04-23T18:50:42Z</time>
      </trkpt>
      <trkpt lat="32.279516542330384" lon="-4.497674675658345">
        <ele>1339.734375</ele>
        <time>2011-04-23T18:50:54Z</time>
      </trkpt>
      <trkpt lat="32.280505187809467" lon="-4.4997129868716">
        <ele>1338.773193359375</ele>
        <time>2011-04-23T18:51:04Z</time>
      </trkpt>
      <trkpt lat="32.281577484682202" lon="-4.501935867592692">
        <ele>1339.253662109375</ele>
        <time>2011-04-23T18:51:15Z</time>
      </trkpt>
      <trkpt lat="32.282724967226386" lon="-4.504244243726134">
        <ele>1340.21533203125</ele>
        <time>2011-04-23T18:51:26Z</time>
      </trkpt>
      <trkpt lat="32.28411334566772" lon="-4.506471818313003">
        <ele>1341.6572265625</ele>
        <time>2011-04-23T18:51:37Z</time>
      </trkpt>
      <trkpt lat="32.285716719925404" lon="-4.508965853601694">
        <ele>1351.270263671875</ele>
        <time>2011-04-23T18:51:49Z</time>
      </trkpt>
      <trkpt lat="32.287213895469904" lon="-4.51131203211844">
        <ele>1358.9609375</ele>
        <time>2011-04-23T18:52:00Z</time>
      </trkpt>
      <trkpt lat="32.288327682763338" lon="-4.513049433007836">
        <ele>1364.728759765625</ele>
        <time>2011-04-23T18:52:09Z</time>
      </trkpt>
      <trkpt lat="32.289433926343918" lon="-4.514815583825111">
        <ele>1369.0546875</ele>
        <time>2011-04-23T18:52:17Z</time>
      </trkpt>
      <trkpt lat="32.291071750223637" lon="-4.51726645231247">
        <ele>1374.342041015625</ele>
        <time>2011-04-23T18:52:28Z</time>
      </trkpt>
      <trkpt lat="32.29265995323658" lon="-4.519702065736055">
        <ele>1378.66796875</ele>
        <time>2011-04-23T18:52:40Z</time>
      </trkpt>
      <trkpt lat="32.295041671022773" lon="-4.523352133110166">
        <ele>1384.91650390625</ele>
        <time>2011-04-23T18:52:58Z</time>
      </trkpt>
      <trkpt lat="32.2969691734761" lon="-4.526309939101338">
        <ele>1389.72314453125</ele>
        <time>2011-04-23T18:53:12Z</time>
      </trkpt>
      <trkpt lat="32.299317950382829" lon="-4.529877444729209">
        <ele>1390.684326171875</ele>
        <time>2011-04-23T18:53:29Z</time>
      </trkpt>
      <trkpt lat="32.301160879433155" lon="-4.532736344262958">
        <ele>1388.761962890625</ele>
        <time>2011-04-23T18:53:43Z</time>
      </trkpt>
      <trkpt lat="32.302138293161988" lon="-4.534493442624807">
        <ele>1384.91650390625</ele>
        <time>2011-04-23T18:53:52Z</time>
      </trkpt>
      <trkpt lat="32.303288793191314" lon="-4.536569556221366">
        <ele>1382.99365234375</ele>
        <time>2011-04-23T18:54:04Z</time>
      </trkpt>
      <trkpt lat="32.304328568279743" lon="-4.538466297090054">
        <ele>1379.1484375</ele>
        <time>2011-04-23T18:54:15Z</time>
      </trkpt>
      <trkpt lat="32.305296678096056" lon="-4.540396146476269">
        <ele>1375.30322265625</ele>
        <time>2011-04-23T18:54:26Z</time>
      </trkpt>
      <trkpt lat="32.305889781564474" lon="-4.541395688429475">
        <ele>1372.900146484375</ele>
        <time>2011-04-23T18:54:32Z</time>
      </trkpt>
      <trkpt lat="32.306600399315357" lon="-4.541978733614087">
        <ele>1370.977294921875</ele>
        <time>2011-04-23T18:54:37Z</time>
      </trkpt>
      <trkpt lat="32.308485489338636" lon="-4.543216656893492">
        <ele>1382.51318359375</ele>
        <time>2011-04-23T18:54:49Z</time>
      </trkpt>
      <trkpt lat="32.310634944587946" lon="-4.544610483571887">
        <ele>1393.568359375</ele>
        <time>2011-04-23T18:55:02Z</time>
      </trkpt>
      <trkpt lat="32.312099682167172" lon="-4.545257985591888">
        <ele>1386.8388671875</ele>
        <time>2011-04-23T18:55:10Z</time>
      </trkpt>
      <trkpt lat="32.314928071573377" lon="-4.546325253322721">
        <ele>1379.1484375</ele>
        <time>2011-04-23T18:55:25Z</time>
      </trkpt>
      <trkpt lat="32.31755462475121" lon="-4.547312390059233">
        <ele>1378.187255859375</ele>
        <time>2011-04-23T18:55:39Z</time>
      </trkpt>
      <trkpt lat="32.319286242127419" lon="-4.548095427453518">
        <ele>1379.629150390625</ele>
        <time>2011-04-23T18:55:49Z</time>
      </trkpt>
      <trkpt lat="32.320480244234204" lon="-4.548955578356981">
        <ele>1379.629150390625</ele>
        <time>2011-04-23T18:55:57Z</time>
      </trkpt>
      <trkpt lat="32.321024481207132" lon="-4.549378948286176">
        <ele>1379.1484375</ele>
        <time>2011-04-23T18:56:01Z</time>
      </trkpt>
      <trkpt lat="32.321957554668188" lon="-4.549615485593677">
        <ele>1380.10986328125</ele>
        <time>2011-04-23T18:56:07Z</time>
      </trkpt>
      <trkpt lat="32.32212477363646" lon="-4.549596542492509">
        <ele>1380.10986328125</ele>
        <time>2011-04-23T18:56:08Z</time>
      </trkpt>
      <trkpt lat="32.323447689414024" lon="-4.549409793689847">
        <ele>1376.2646484375</ele>
        <time>2011-04-23T18:56:16Z</time>
      </trkpt>
      <trkpt lat="32.324075326323509" lon="-4.549719840288162">
        <ele>1368.573974609375</ele>
        <time>2011-04-23T18:56:21Z</time>
      </trkpt>
      <trkpt lat="32.324599027633667" lon="-4.549727719277144">
        <ele>1363.286865234375</ele>
        <time>2011-04-23T18:56:25Z</time>
      </trkpt>
      <trkpt lat="32.324738586321473" lon="-4.549665274098516">
        <ele>1363.767333984375</ele>
        <time>2011-04-23T18:56:26Z</time>
      </trkpt>
      <trkpt lat="32.325459681451321" lon="-4.549350617453456">
        <ele>1367.132080078125</ele>
        <time>2011-04-23T18:56:31Z</time>
      </trkpt>
      <trkpt lat="32.32621899805963" lon="-4.549415661022067">
        <ele>1373.861328125</ele>
        <time>2011-04-23T18:56:36Z</time>
      </trkpt>
      <trkpt lat="32.326639518141747" lon="-4.549922766163945">
        <ele>1380.10986328125</ele>
        <time>2011-04-23T18:56:40Z</time>
      </trkpt>
      <trkpt lat="32.327653896063566" lon="-4.551369063556194">
        <ele>1390.203857421875</ele>
        <time>2011-04-23T18:56:50Z</time>
      </trkpt>
      <trkpt lat="32.32855268754065" lon="-4.551940457895398">
        <ele>1391.1650390625</ele>
        <time>2011-04-23T18:56:56Z</time>
      </trkpt>
      <trkpt lat="32.329875435680151" lon="-4.552474217489362">
        <ele>1392.607177734375</ele>
        <time>2011-04-23T18:57:04Z</time>
      </trkpt>
      <trkpt lat="32.330944798886776" lon="-4.552369276061654">
        <ele>1395.01025390625</ele>
        <time>2011-04-23T18:57:10Z</time>
      </trkpt>
      <trkpt lat="32.331771338358521" lon="-4.551900224760175">
        <ele>1395.490966796875</ele>
        <time>2011-04-23T18:57:15Z</time>
      </trkpt>
      <trkpt lat="32.333479486405849" lon="-4.550266340374947">
        <ele>1399.81689453125</ele>
        <time>2011-04-23T18:57:26Z</time>
      </trkpt>
      <trkpt lat="32.335469936951995" lon="-4.548315284773707">
        <ele>1407.98828125</ele>
        <time>2011-04-23T18:57:38Z</time>
      </trkpt>
      <trkpt lat="32.338029853999615" lon="-4.545884784311056">
        <ele>1413.275390625</ele>
        <time>2011-04-23T18:57:52Z</time>
      </trkpt>
      <trkpt lat="32.340746680274606" lon="-4.543626448139548">
        <ele>1413.755859375</ele>
        <time>2011-04-23T18:58:05Z</time>
      </trkpt>
      <trkpt lat="32.343152118846774" lon="-4.541559470817447">
        <ele>1419.043212890625</ele>
        <time>2011-04-23T18:58:17Z</time>
      </trkpt>
      <trkpt lat="32.346414690837264" lon="-4.538602670654655">
        <ele>1424.811279296875</ele>
        <time>2011-04-23T18:58:34Z</time>
      </trkpt>
      <trkpt lat="32.350100968033075" lon="-4.535262230783701">
        <ele>1432.02099609375</ele>
        <time>2011-04-23T18:58:53Z</time>
      </trkpt>
      <trkpt lat="32.353367730975151" lon="-4.53229327686131">
        <ele>1438.75048828125</ele>
        <time>2011-04-23T18:59:10Z</time>
      </trkpt>
      <trkpt lat="32.355968048796058" lon="-4.529939889907837">
        <ele>1445.960205078125</ele>
        <time>2011-04-23T18:59:24Z</time>
      </trkpt>
      <trkpt lat="32.358583873137832" lon="-4.527561943978071">
        <ele>1452.208740234375</ele>
        <time>2011-04-23T18:59:38Z</time>
      </trkpt>
      <trkpt lat="32.361565735191107" lon="-4.52485634945333">
        <ele>1457.976806640625</ele>
        <time>2011-04-23T18:59:54Z</time>
      </trkpt>
      <trkpt lat="32.364662932232022" lon="-4.522027457132936">
        <ele>1466.147705078125</ele>
        <time>2011-04-23T19:00:10Z</time>
      </trkpt>
      <trkpt lat="32.367423260584474" lon="-4.519438873976469">
        <ele>1481.52880859375</ele>
        <time>2011-04-23T19:00:25Z</time>
      </trkpt>
      <trkpt lat="32.370179984718561" lon="-4.516931595280767">
        <ele>1489.7001953125</ele>
        <time>2011-04-23T19:00:41Z</time>
      </trkpt>
      <trkpt lat="32.371828956529498" lon="-4.515388235449791">
        <ele>1491.622802734375</ele>
        <time>2011-04-23T19:00:50Z</time>
      </trkpt>
      <trkpt lat="32.374206818640232" lon="-4.51320743188262">
        <ele>1494.9873046875</ele>
        <time>2011-04-23T19:01:03Z</time>
      </trkpt>
      <trkpt lat="32.376890117302537" lon="-4.510774668306112">
        <ele>1492.584228515625</ele>
        <time>2011-04-23T19:01:18Z</time>
      </trkpt>
      <trkpt lat="32.379200085997581" lon="-4.50866712257266">
        <ele>1490.180908203125</ele>
        <time>2011-04-23T19:01:31Z</time>
      </trkpt>
      <trkpt lat="32.382380850613117" lon="-4.505791626870632">
        <ele>1488.25830078125</ele>
        <time>2011-04-23T19:01:49Z</time>
      </trkpt>
      <trkpt lat="32.384576825425029" lon="-4.503840655088425">
        <ele>1485.85498046875</ele>
        <time>2011-04-23T19:02:02Z</time>
      </trkpt>
      <trkpt lat="32.385623557493091" lon="-4.502960219979286">
        <ele>1484.893798828125</ele>
        <time>2011-04-23T19:02:09Z</time>
      </trkpt>
      <trkpt lat="32.386518241837621" lon="-4.502621423453093">
        <ele>1481.04833984375</ele>
        <time>2011-04-23T19:02:14Z</time>
      </trkpt>
      <trkpt lat="32.387552484869957" lon="-4.502575490623713">
        <ele>1478.64501953125</ele>
        <time>2011-04-23T19:02:20Z</time>
      </trkpt>
      <trkpt lat="32.389301285147667" lon="-4.502872377634049">
        <ele>1480.0869140625</ele>
        <time>2011-04-23T19:02:30Z</time>
      </trkpt>
      <trkpt lat="32.390969451516867" lon="-4.503173874691129">
        <ele>1482.490234375</ele>
        <time>2011-04-23T19:02:40Z</time>
      </trkpt>
      <trkpt lat="32.392820091918111" lon="-4.503390127792954">
        <ele>1480.567626953125</ele>
        <time>2011-04-23T19:02:51Z</time>
      </trkpt>
      <trkpt lat="32.39366146735847" lon="-4.503131881356239">
        <ele>1479.12548828125</ele>
        <time>2011-04-23T19:02:56Z</time>
      </trkpt>
      <trkpt lat="32.394254822283983" lon="-4.502682778984308">
        <ele>1479.12548828125</ele>
        <time>2011-04-23T19:03:00Z</time>
      </trkpt>
      <trkpt lat="32.395252771675587" lon="-4.501387942582369">
        <ele>1480.567626953125</ele>
        <time>2011-04-23T19:03:08Z</time>
      </trkpt>
      <trkpt lat="32.396618686616421" lon="-4.4997613504529">
        <ele>1487.296875</ele>
        <time>2011-04-23T19:03:18Z</time>
      </trkpt>
      <trkpt lat="32.398321218788624" lon="-4.498441452160478">
        <ele>1494.506591796875</ele>
        <time>2011-04-23T19:03:28Z</time>
      </trkpt>
      <trkpt lat="32.40111499093473" lon="-4.496315466240048">
        <ele>1505.56201171875</ele>
        <time>2011-04-23T19:03:44Z</time>
      </trkpt>
      <trkpt lat="32.40325472317636" lon="-4.494567923247814">
        <ele>1507.00390625</ele>
        <time>2011-04-23T19:03:56Z</time>
      </trkpt>
      <trkpt lat="32.405409794300795" lon="-4.492745026946068">
        <ele>1510.84912109375</ele>
        <time>2011-04-23T19:04:08Z</time>
      </trkpt>
      <trkpt lat="32.407906176522374" lon="-4.490664973855019">
        <ele>1513.73291015625</ele>
        <time>2011-04-23T19:04:22Z</time>
      </trkpt>
      <trkpt lat="32.410795921459794" lon="-4.488290548324585">
        <ele>1517.578369140625</ele>
        <time>2011-04-23T19:04:38Z</time>
      </trkpt>
      <trkpt lat="32.413550717756152" lon="-4.485970940440893">
        <ele>1524.788330078125</ele>
        <time>2011-04-23T19:04:53Z</time>
      </trkpt>
      <trkpt lat="32.416064031422138" lon="-4.48385157622397">
        <ele>1532.95947265625</ele>
        <time>2011-04-23T19:05:07Z</time>
      </trkpt>
      <trkpt lat="32.418199488893151" lon="-4.482071679085493">
        <ele>1538.246826171875</ele>
        <time>2011-04-23T19:05:19Z</time>
      </trkpt>
      <trkpt lat="32.420345256105065" lon="-4.480239730328322">
        <ele>1544.0146484375</ele>
        <time>2011-04-23T19:05:32Z</time>
      </trkpt>
      <trkpt lat="32.422193633392453" lon="-4.478830816224217">
        <ele>1547.85986328125</ele>
        <time>2011-04-23T19:05:43Z</time>
      </trkpt>
      <trkpt lat="32.42461709305644" lon="-4.477092828601599">
        <ele>1541.611328125</ele>
        <time>2011-04-23T19:05:57Z</time>
      </trkpt>
      <trkpt lat="32.427444392815232" lon="-4.475047057494521">
        <ele>1539.688720703125</ele>
        <time>2011-04-23T19:06:13Z</time>
      </trkpt>
      <trkpt lat="32.429056484252214" lon="-4.473913069814444">
        <ele>1537.285400390625</ele>
        <time>2011-04-23T19:06:23Z</time>
      </trkpt>
      <trkpt lat="32.430289965122938" lon="-4.473294820636511">
        <ele>1538.7275390625</ele>
        <time>2011-04-23T19:06:31Z</time>
      </trkpt>
      <trkpt lat="32.431354885920882" lon="-4.473178898915649">
        <ele>1537.285400390625</ele>
        <time>2011-04-23T19:06:37Z</time>
      </trkpt>
      <trkpt lat="32.432010350748897" lon="-4.47321368381381">
        <ele>1535.36279296875</ele>
        <time>2011-04-23T19:06:41Z</time>
      </trkpt>
      <trkpt lat="32.433051550760865" lon="-4.473738893866539">
        <ele>1529.5947265625</ele>
        <time>2011-04-23T19:06:48Z</time>
      </trkpt>
      <trkpt lat="32.433521272614598" lon="-4.474409446120262">
        <ele>1524.788330078125</ele>
        <time>2011-04-23T19:06:53Z</time>
      </trkpt>
      <trkpt lat="32.433982444927096" lon="-4.475832525640726">
        <ele>1517.578369140625</ele>
        <time>2011-04-23T19:07:01Z</time>
      </trkpt>
      <trkpt lat="32.433880185708404" lon="-4.476733161136508">
        <ele>1516.136474609375</ele>
        <time>2011-04-23T19:07:06Z</time>
      </trkpt>
      <trkpt lat="32.433460336178541" lon="-4.478111146017909">
        <ele>1512.771728515625</ele>
        <time>2011-04-23T19:07:14Z</time>
      </trkpt>
      <trkpt lat="32.433522446081042" lon="-4.479048745706677">
        <ele>1510.84912109375</ele>
        <time>2011-04-23T19:07:19Z</time>
      </trkpt>
      <trkpt lat="32.43387708440423" lon="-4.479936975985766">
        <ele>1510.368408203125</ele>
        <time>2011-04-23T19:07:24Z</time>
      </trkpt>
      <trkpt lat="32.434650985524058" lon="-4.480963423848152">
        <ele>1510.84912109375</ele>
        <time>2011-04-23T19:07:31Z</time>
      </trkpt>
      <trkpt lat="32.435564026236534" lon="-4.481533644720912">
        <ele>1506.04248046875</ele>
        <time>2011-04-23T19:07:37Z</time>
      </trkpt>
      <trkpt lat="32.437343671917915" lon="-4.482518937438726">
        <ele>1498.351806640625</ele>
        <time>2011-04-23T19:07:47Z</time>
      </trkpt>
      <trkpt lat="32.439954718574882" lon="-4.483981328085065">
        <ele>1492.584228515625</ele>
        <time>2011-04-23T19:08:01Z</time>
      </trkpt>
      <trkpt lat="32.440871363505721" lon="-4.484758833423257">
        <ele>1491.622802734375</ele>
        <time>2011-04-23T19:08:07Z</time>
      </trkpt>
      <trkpt lat="32.441996969282627" lon="-4.486288195475936">
        <ele>1490.661376953125</ele>
        <time>2011-04-23T19:08:16Z</time>
      </trkpt>
      <trkpt lat="32.44249158538878" lon="-4.48691482655704">
        <ele>1491.14208984375</ele>
        <time>2011-04-23T19:08:20Z</time>
      </trkpt>
      <trkpt lat="32.443245369940996" lon="-4.487278684973717">
        <ele>1495.468017578125</ele>
        <time>2011-04-23T19:08:25Z</time>
      </trkpt>
      <trkpt lat="32.443714756518602" lon="-4.487209282815456">
        <ele>1497.390625</ele>
        <time>2011-04-23T19:08:28Z</time>
      </trkpt>
      <trkpt lat="32.445545196533203" lon="-4.486579885706306">
        <ele>1499.7939453125</ele>
        <time>2011-04-23T19:08:39Z</time>
      </trkpt>
      <trkpt lat="32.446963749825954" lon="-4.486339660361409">
        <ele>1501.236083984375</ele>
        <time>2011-04-23T19:08:47Z</time>
      </trkpt>
      <trkpt lat="32.447842257097363" lon="-4.486611569300294">
        <ele>1501.236083984375</ele>
        <time>2011-04-23T19:08:52Z</time>
      </trkpt>
      <trkpt lat="32.448801230639219" lon="-4.487229734659195">
        <ele>1500.75537109375</ele>
        <time>2011-04-23T19:08:58Z</time>
      </trkpt>
      <trkpt lat="32.450464451685548" lon="-4.488877449184656">
        <ele>1506.04248046875</ele>
        <time>2011-04-23T19:09:10Z</time>
      </trkpt>
      <trkpt lat="32.450816156342626" lon="-4.489332837983966">
        <ele>1508.926513671875</ele>
        <time>2011-04-23T19:09:13Z</time>
      </trkpt>
      <trkpt lat="32.45130255818367" lon="-4.490560032427311">
        <ele>1516.136474609375</ele>
        <time>2011-04-23T19:09:20Z</time>
      </trkpt>
      <trkpt lat="32.451351843774319" lon="-4.490729179233313">
        <ele>1517.097900390625</ele>
        <time>2011-04-23T19:09:21Z</time>
      </trkpt>
      <trkpt lat="32.451463574543595" lon="-4.491940783336759">
        <ele>1523.826904296875</ele>
        <time>2011-04-23T19:09:28Z</time>
      </trkpt>
      <trkpt lat="32.451834892854095" lon="-4.492680067196488">
        <ele>1528.15283203125</ele>
        <time>2011-04-23T19:09:33Z</time>
      </trkpt>
      <trkpt lat="32.452644081786275" lon="-4.493459248915315">
        <ele>1529.5947265625</ele>
        <time>2011-04-23T19:09:40Z</time>
      </trkpt>
      <trkpt lat="32.452905345708132" lon="-4.493951098993421">
        <ele>1532.47900390625</ele>
        <time>2011-04-23T19:09:45Z</time>
      </trkpt>
      <trkpt lat="32.452928060665727" lon="-4.494584184139967">
        <ele>1531.036865234375</ele>
        <time>2011-04-23T19:09:50Z</time>
      </trkpt>
      <trkpt lat="32.452981537207961" lon="-4.494700692594051">
        <ele>1531.036865234375</ele>
        <time>2011-04-23T19:09:51Z</time>
      </trkpt>
      <trkpt lat="32.453091675415635" lon="-4.494917197152972">
        <ele>1531.036865234375</ele>
        <time>2011-04-23T19:09:53Z</time>
      </trkpt>
      <trkpt lat="32.453118246048689" lon="-4.495698641985655">
        <ele>1539.688720703125</ele>
        <time>2011-04-23T19:09:59Z</time>
      </trkpt>
      <trkpt lat="32.452894952148199" lon="-4.496162077412009">
        <ele>1545.45654296875</ele>
        <time>2011-04-23T19:10:03Z</time>
      </trkpt>
      <trkpt lat="32.452424140647054" lon="-4.497072352096438">
        <ele>1546.8984375</ele>
        <time>2011-04-23T19:10:10Z</time>
      </trkpt>
      <trkpt lat="32.452383823692799" lon="-4.497221130877733">
        <ele>1547.379150390625</ele>
        <time>2011-04-23T19:10:11Z</time>
      </trkpt>
      <trkpt lat="32.452434618026018" lon="-4.497967287898064">
        <ele>1544.975830078125</ele>
        <time>2011-04-23T19:10:16Z</time>
      </trkpt>
      <trkpt lat="32.452818090096116" lon="-4.498434495180845">
        <ele>1542.092041015625</ele>
        <time>2011-04-23T19:10:20Z</time>
      </trkpt>
      <trkpt lat="32.453559972345829" lon="-4.498924165964127">
        <ele>1534.401611328125</ele>
        <time>2011-04-23T19:10:26Z</time>
      </trkpt>
      <trkpt lat="32.454300848767161" lon="-4.498958280310035">
        <ele>1540.64990234375</ele>
        <time>2011-04-23T19:10:31Z</time>
      </trkpt>
      <trkpt lat="32.455870695412159" lon="-4.498338438570499">
        <ele>1562.279541015625</ele>
        <time>2011-04-23T19:10:41Z</time>
      </trkpt>
      <trkpt lat="32.456478634849191" lon="-4.498156635090709">
        <ele>1560.837646484375</ele>
        <time>2011-04-23T19:10:45Z</time>
      </trkpt>
      <trkpt lat="32.457435261458158" lon="-4.498355453833938">
        <ele>1554.589111328125</ele>
        <time>2011-04-23T19:10:51Z</time>
      </trkpt>
      <trkpt lat="32.457841280847788" lon="-4.498678324744105">
        <ele>1550.263427734375</ele>
        <time>2011-04-23T19:10:54Z</time>
      </trkpt>
      <trkpt lat="32.459434345364571" lon="-4.500293852761388">
        <ele>1538.7275390625</ele>
        <time>2011-04-23T19:11:06Z</time>
      </trkpt>
      <trkpt lat="32.46029575355351" lon="-4.500573221594095">
        <ele>1543.05322265625</ele>
        <time>2011-04-23T19:11:11Z</time>
      </trkpt>
      <trkpt lat="32.46114257723093" lon="-4.50030324049294">
        <ele>1550.263427734375</ele>
        <time>2011-04-23T19:11:16Z</time>
      </trkpt>
      <trkpt lat="32.461295882239938" lon="-4.500191593542695">
        <ele>1552.66650390625</ele>
        <time>2011-04-23T19:11:17Z</time>
      </trkpt>
      <trkpt lat="32.463231682777405" lon="-4.49851093813777">
        <ele>1564.68310546875</ele>
        <time>2011-04-23T19:11:30Z</time>
      </trkpt>
      <trkpt lat="32.464083787053823" lon="-4.498128471896052">
        <ele>1566.125</ele>
        <time>2011-04-23T19:11:35Z</time>
      </trkpt>
      <trkpt lat="32.466132240369916" lon="-4.497644919902086">
        <ele>1565.64453125</ele>
        <time>2011-04-23T19:11:46Z</time>
      </trkpt>
      <trkpt lat="32.468522172421217" lon="-4.497078554704785">
        <ele>1560.837646484375</ele>
        <time>2011-04-23T19:11:58Z</time>
      </trkpt>
      <trkpt lat="32.469577789306641" lon="-4.496553260833025">
        <ele>1558.9150390625</ele>
        <time>2011-04-23T19:12:04Z</time>
      </trkpt>
      <trkpt lat="32.471478637307882" lon="-4.495100425556302">
        <ele>1561.318359375</ele>
        <time>2011-04-23T19:12:15Z</time>
      </trkpt>
      <trkpt lat="32.473240345716476" lon="-4.493741719052196">
        <ele>1572.854248046875</ele>
        <time>2011-04-23T19:12:25Z</time>
      </trkpt>
      <trkpt lat="32.475379994139075" lon="-4.492200035601854">
        <ele>1580.544921875</ele>
        <time>2011-04-23T19:12:37Z</time>
      </trkpt>
      <trkpt lat="32.476952858269215" lon="-4.49158706702292">
        <ele>1578.141357421875</ele>
        <time>2011-04-23T19:12:45Z</time>
      </trkpt>
      <trkpt lat="32.479246398434043" lon="-4.490826576948166">
        <ele>1579.583251953125</ele>
        <time>2011-04-23T19:12:56Z</time>
      </trkpt>
      <trkpt lat="32.48120759613812" lon="-4.490429190918803">
        <ele>1573.8154296875</ele>
        <time>2011-04-23T19:13:05Z</time>
      </trkpt>
      <trkpt lat="32.483699452131987" lon="-4.489592844620347">
        <ele>1569.48974609375</ele>
        <time>2011-04-23T19:13:17Z</time>
      </trkpt>
      <trkpt lat="32.486587185412645" lon="-4.488671254366636">
        <ele>1564.68310546875</ele>
        <time>2011-04-23T19:13:31Z</time>
      </trkpt>
      <trkpt lat="32.489305268973112" lon="-4.487815964967012">
        <ele>1558.434326171875</ele>
        <time>2011-04-23T19:13:44Z</time>
      </trkpt>
      <trkpt lat="32.492524338886142" lon="-4.486901499330998">
        <ele>1565.163818359375</ele>
        <time>2011-04-23T19:13:59Z</time>
      </trkpt>
      <trkpt lat="32.493945239111781" lon="-4.486496821045876">
        <ele>1573.3349609375</ele>
        <time>2011-04-23T19:14:07Z</time>
      </trkpt>
      <trkpt lat="32.496343636885285" lon="-4.48579584248364">
        <ele>1600.732421875</ele>
        <time>2011-04-23T19:14:21Z</time>
      </trkpt>
      <trkpt lat="32.498997263610363" lon="-4.4849983882159">
        <ele>1617.074951171875</ele>
        <time>2011-04-23T19:14:36Z</time>
      </trkpt>
      <trkpt lat="32.501021325588226" lon="-4.484366644173861">
        <ele>1626.207275390625</ele>
        <time>2011-04-23T19:14:46Z</time>
      </trkpt>
      <trkpt lat="32.503329198807478" lon="-4.483661977574229">
        <ele>1632.9365234375</ele>
        <time>2011-04-23T19:14:57Z</time>
      </trkpt>
      <trkpt lat="32.50485235825181" lon="-4.483513534069061">
        <ele>1637.262451171875</ele>
        <time>2011-04-23T19:15:04Z</time>
      </trkpt>
      <trkpt lat="32.507439767941833" lon="-4.483369868248701">
        <ele>1642.069091796875</ele>
        <time>2011-04-23T19:15:16Z</time>
      </trkpt>
      <trkpt lat="32.509720148518682" lon="-4.483247743919492">
        <ele>1647.3564453125</ele>
        <time>2011-04-23T19:15:26Z</time>
      </trkpt>
      <trkpt lat="32.512344690039754" lon="-4.483038950711489">
        <ele>1648.317626953125</ele>
        <time>2011-04-23T19:15:38Z</time>
      </trkpt>
      <trkpt lat="32.51440848223865" lon="-4.482828984037042">
        <ele>1656.008056640625</ele>
        <time>2011-04-23T19:15:48Z</time>
      </trkpt>
      <trkpt lat="32.516944343224168" lon="-4.482533438131213">
        <ele>1664.179443359375</ele>
        <time>2011-04-23T19:16:01Z</time>
      </trkpt>
      <trkpt lat="32.519602160900831" lon="-4.482120294123888">
        <ele>1667.5439453125</ele>
        <time>2011-04-23T19:16:14Z</time>
      </trkpt>
      <trkpt lat="32.52128642052412" lon="-4.482041168957949">
        <ele>1670.90869140625</ele>
        <time>2011-04-23T19:16:22Z</time>
      </trkpt>
      <trkpt lat="32.524561733007431" lon="-4.482364961877465">
        <ele>1676.196044921875</ele>
        <time>2011-04-23T19:16:37Z</time>
      </trkpt>
      <trkpt lat="32.52745047211647" lon="-4.482779949903488">
        <ele>1677.157470703125</ele>
        <time>2011-04-23T19:16:50Z</time>
      </trkpt>
      <trkpt lat="32.530065877363086" lon="-4.483200386166573">
        <ele>1683.40576171875</ele>
        <time>2011-04-23T19:17:02Z</time>
      </trkpt>
      <trkpt lat="32.532816398888826" lon="-4.483849732205272">
        <ele>1690.135009765625</ele>
        <time>2011-04-23T19:17:15Z</time>
      </trkpt>
      <trkpt lat="32.535516964271665" lon="-4.484488852322102">
        <ele>1695.903076171875</ele>
        <time>2011-04-23T19:17:28Z</time>
      </trkpt>
      <trkpt lat="32.536723287776113" lon="-4.484914233908057">
        <ele>1700.22900390625</ele>
        <time>2011-04-23T19:17:35Z</time>
      </trkpt>
      <trkpt lat="32.538860337808728" lon="-4.485745970159769">
        <ele>1704.5546875</ele>
        <time>2011-04-23T19:17:47Z</time>
      </trkpt>
      <trkpt lat="32.540361033752561" lon="-4.486214770004153">
        <ele>1701.6708984375</ele>
        <time>2011-04-23T19:17:55Z</time>
      </trkpt>
      <trkpt lat="32.542985239997506" lon="-4.486856739968061">
        <ele>1699.748291015625</ele>
        <time>2011-04-23T19:18:08Z</time>
      </trkpt>
      <trkpt lat="32.545911865308881" lon="-4.487570291385055">
        <ele>1700.22900390625</ele>
        <time>2011-04-23T19:18:22Z</time>
      </trkpt>
      <trkpt lat="32.547433599829674" lon="-4.487720159813762">
        <ele>1703.11279296875</ele>
        <time>2011-04-23T19:18:29Z</time>
      </trkpt>
      <trkpt lat="32.549639632925391" lon="-4.4878891389817">
        <ele>1707.438720703125</ele>
        <time>2011-04-23T19:18:40Z</time>
      </trkpt>
      <trkpt lat="32.552588218823075" lon="-4.488110840320587">
        <ele>1720.897216796875</ele>
        <time>2011-04-23T19:18:55Z</time>
      </trkpt>
      <trkpt lat="32.555401939898729" lon="-4.488308820873499">
        <ele>1730.9912109375</ele>
        <time>2011-04-23T19:19:09Z</time>
      </trkpt>
      <trkpt lat="32.557934867218137" lon="-4.488500934094191">
        <ele>1733.875</ele>
        <time>2011-04-23T19:19:21Z</time>
      </trkpt>
      <trkpt lat="32.561320820823312" lon="-4.488751050084829">
        <ele>1737.72021484375</ele>
        <time>2011-04-23T19:19:36Z</time>
      </trkpt>
      <trkpt lat="32.564168320968747" lon="-4.488964034244418">
        <ele>1743.007568359375</ele>
        <time>2011-04-23T19:19:49Z</time>
      </trkpt>
      <trkpt lat="32.565729450434446" lon="-4.488979037851095">
        <ele>1746.372314453125</ele>
        <time>2011-04-23T19:19:57Z</time>
      </trkpt>
      <trkpt lat="32.56705429404974" lon="-4.48860302567482">
        <ele>1751.1787109375</ele>
        <time>2011-04-23T19:20:04Z</time>
      </trkpt>
      <trkpt lat="32.56913342513144" lon="-4.488024841994047">
        <ele>1755.504638671875</ele>
        <time>2011-04-23T19:20:15Z</time>
      </trkpt>
      <trkpt lat="32.570963362231851" lon="-4.487828956916928">
        <ele>1759.35009765625</ele>
        <time>2011-04-23T19:20:24Z</time>
      </trkpt>
      <trkpt lat="32.57318465039134" lon="-4.487615218386054">
        <ele>1764.63720703125</ele>
        <time>2011-04-23T19:20:35Z</time>
      </trkpt>
      <trkpt lat="32.57452005520463" lon="-4.48765704408288">
        <ele>1768.482421875</ele>
        <time>2011-04-23T19:20:42Z</time>
      </trkpt>
      <trkpt lat="32.575651947408915" lon="-4.488147972151637">
        <ele>1768.963134765625</ele>
        <time>2011-04-23T19:20:48Z</time>
      </trkpt>
      <trkpt lat="32.577776089310646" lon="-4.48955537751317">
        <ele>1771.846923828125</ele>
        <time>2011-04-23T19:20:59Z</time>
      </trkpt>
      <trkpt lat="32.581091970205307" lon="-4.491726877167821">
        <ele>1784.824951171875</ele>
        <time>2011-04-23T19:21:16Z</time>
      </trkpt>
      <trkpt lat="32.583718858659267" lon="-4.493433432653546">
        <ele>1799.24462890625</ele>
        <time>2011-04-23T19:21:30Z</time>
      </trkpt>
      <trkpt lat="32.586181377992034" lon="-4.495067987591028">
        <ele>1817.990234375</ele>
        <time>2011-04-23T19:21:44Z</time>
      </trkpt>
      <trkpt lat="32.58701671846211" lon="-4.495950853452086">
        <ele>1824.7197265625</ele>
        <time>2011-04-23T19:21:50Z</time>
      </trkpt>
      <trkpt lat="32.588527891784906" lon="-4.497838458046317">
        <ele>1833.85205078125</ele>
        <time>2011-04-23T19:22:01Z</time>
      </trkpt>
      <trkpt lat="32.590375179424882" lon="-4.500126969069243">
        <ele>1841.06201171875</ele>
        <time>2011-04-23T19:22:13Z</time>
      </trkpt>
      <trkpt lat="32.592206122353673" lon="-4.502405673265457">
        <ele>1849.7138671875</ele>
        <time>2011-04-23T19:22:25Z</time>
      </trkpt>
      <trkpt lat="32.593131735920906" lon="-4.503701850771904">
        <ele>1854.0400390625</ele>
        <time>2011-04-23T19:22:32Z</time>
      </trkpt>
      <trkpt lat="32.593480842188001" lon="-4.504684964194894">
        <ele>1853.559326171875</ele>
        <time>2011-04-23T19:22:37Z</time>
      </trkpt>
      <trkpt lat="32.59348176419735" lon="-4.50602799654007">
        <ele>1853.07861328125</ele>
        <time>2011-04-23T19:22:43Z</time>
      </trkpt>
      <trkpt lat="32.593163587152958" lon="-4.509288053959608">
        <ele>1861.249755859375</ele>
        <time>2011-04-23T19:22:57Z</time>
      </trkpt>
      <trkpt lat="32.592832753434777" lon="-4.510572161525488">
        <ele>1866.536865234375</ele>
        <time>2011-04-23T19:23:03Z</time>
      </trkpt>
      <trkpt lat="32.59281238541007" lon="-4.512011585757136">
        <ele>1869.421142578125</ele>
        <time>2011-04-23T19:23:10Z</time>
      </trkpt>
      <trkpt lat="32.592886732891202" lon="-4.515064023435116">
        <ele>1873.746826171875</ele>
        <time>2011-04-23T19:23:24Z</time>
      </trkpt>
      <trkpt lat="32.592683136463165" lon="-4.516874682158232">
        <ele>1869.421142578125</ele>
        <time>2011-04-23T19:23:32Z</time>
      </trkpt>
      <trkpt lat="32.592617338523269" lon="-4.51868006028235">
        <ele>1867.498046875</ele>
        <time>2011-04-23T19:23:40Z</time>
      </trkpt>
      <trkpt lat="32.592908777296543" lon="-4.520609490573406">
        <ele>1871.343505859375</ele>
        <time>2011-04-23T19:23:49Z</time>
      </trkpt>
      <trkpt lat="32.593288980424404" lon="-4.52263648621738">
        <ele>1879.995361328125</ele>
        <time>2011-04-23T19:23:59Z</time>
      </trkpt>
      <trkpt lat="32.59397042915225" lon="-4.524697847664356">
        <ele>1889.1279296875</ele>
        <time>2011-04-23T19:24:09Z</time>
      </trkpt>
      <trkpt lat="32.594702085480094" lon="-4.526384873315692">
        <ele>1892.97314453125</ele>
        <time>2011-04-23T19:24:17Z</time>
      </trkpt>
      <trkpt lat="32.595642786473036" lon="-4.528295695781708">
        <ele>1899.702392578125</ele>
        <time>2011-04-23T19:24:27Z</time>
      </trkpt>
      <trkpt lat="32.596170594915748" lon="-4.528830796480179">
        <ele>1903.067138671875</ele>
        <time>2011-04-23T19:24:31Z</time>
      </trkpt>
      <trkpt lat="32.597743961960077" lon="-4.529838636517525">
        <ele>1903.5478515625</ele>
        <time>2011-04-23T19:24:41Z</time>
      </trkpt>
      <trkpt lat="32.599214818328619" lon="-4.530568029731512">
        <ele>1901.625244140625</ele>
        <time>2011-04-23T19:24:50Z</time>
      </trkpt>
      <trkpt lat="32.600559275597334" lon="-4.530771542340517">
        <ele>1900.183349609375</ele>
        <time>2011-04-23T19:24:58Z</time>
      </trkpt>
      <trkpt lat="32.600709144026041" lon="-4.530784534290433">
        <ele>1900.183349609375</ele>
        <time>2011-04-23T19:24:59Z</time>
      </trkpt>
      <trkpt lat="32.601284561678767" lon="-4.530646316707134">
        <ele>1898.740966796875</ele>
        <time>2011-04-23T19:25:03Z</time>
      </trkpt>
      <trkpt lat="32.601926950737834" lon="-4.530479097738862">
        <ele>1894.895751953125</ele>
        <time>2011-04-23T19:25:08Z</time>
      </trkpt>
      <trkpt lat="32.602379070594907" lon="-4.530242560431361">
        <ele>1891.050537109375</ele>
        <time>2011-04-23T19:25:13Z</time>
      </trkpt>
      <trkpt lat="32.603272749111056" lon="-4.529057024046779">
        <ele>1881.91796875</ele>
        <time>2011-04-23T19:25:24Z</time>
      </trkpt>
      <trkpt lat="32.603834588080645" lon="-4.528127973899245">
        <ele>1876.630859375</ele>
        <time>2011-04-23T19:25:33Z</time>
      </trkpt>
      <trkpt lat="32.603964926674962" lon="-4.52771726064384">
        <ele>1874.708251953125</ele>
        <time>2011-04-23T19:25:38Z</time>
      </trkpt>
      <trkpt lat="32.604260556399822" lon="-4.527449542656541">
        <ele>1873.746826171875</ele>
        <time>2011-04-23T19:25:43Z</time>
      </trkpt>
      <trkpt lat="32.60445493273437" lon="-4.527522632852197">
        <ele>1872.78564453125</ele>
        <time>2011-04-23T19:25:45Z</time>
      </trkpt>
      <trkpt lat="32.605370823293924" lon="-4.528131242841482">
        <ele>1868.459716796875</ele>
        <time>2011-04-23T19:25:54Z</time>
      </trkpt>
      <trkpt lat="32.605457156896591" lon="-4.528214726597071">
        <ele>1867.978759765625</ele>
        <time>2011-04-23T19:25:55Z</time>
      </trkpt>
      <trkpt lat="32.605934757739305" lon="-4.528373060747981">
        <ele>1865.094970703125</ele>
        <time>2011-04-23T19:26:00Z</time>
      </trkpt>
      <trkpt lat="32.606581337749958" lon="-4.528041137382388">
        <ele>1859.8076171875</ele>
        <time>2011-04-23T19:26:06Z</time>
      </trkpt>
      <trkpt lat="32.606772948056459" lon="-4.527838127687573">
        <ele>1857.88525390625</ele>
        <time>2011-04-23T19:26:08Z</time>
      </trkpt>
      <trkpt lat="32.607581382617354" lon="-4.527232283726335">
        <ele>1850.675048828125</ele>
        <time>2011-04-23T19:26:16Z</time>
      </trkpt>
      <trkpt lat="32.608150849118829" lon="-4.52674588188529">
        <ele>1845.86865234375</ele>
        <time>2011-04-23T19:26:23Z</time>
      </trkpt>
      <trkpt lat="32.608540523797274" lon="-4.526718473061919">
        <ele>1842.984619140625</ele>
        <time>2011-04-23T19:26:28Z</time>
      </trkpt>
      <trkpt lat="32.608619816601276" lon="-4.527099430561066">
        <ele>1841.06201171875</ele>
        <time>2011-04-23T19:26:32Z</time>
      </trkpt>
      <trkpt lat="32.608585031703115" lon="-4.527204036712647">
        <ele>1840.581298828125</ele>
        <time>2011-04-23T19:26:33Z</time>
      </trkpt>
      <trkpt lat="32.608337346464396" lon="-4.528167452663183">
        <ele>1839.6201171875</ele>
        <time>2011-04-23T19:26:42Z</time>
      </trkpt>
      <trkpt lat="32.608332065865397" lon="-4.528278596699238">
        <ele>1839.6201171875</ele>
        <time>2011-04-23T19:26:43Z</time>
      </trkpt>
      <trkpt lat="32.608550917357206" lon="-4.52882157638669">
        <ele>1836.255615234375</ele>
        <time>2011-04-23T19:26:49Z</time>
      </trkpt>
      <trkpt lat="32.608731044456363" lon="-4.528850661590695">
        <ele>1835.2939453125</ele>
        <time>2011-04-23T19:26:51Z</time>
      </trkpt>
      <trkpt lat="32.609201017767191" lon="-4.529010420665145">
        <ele>1831.929443359375</ele>
        <time>2011-04-23T19:26:56Z</time>
      </trkpt>
      <trkpt lat="32.609355999156833" lon="-4.529176717624068">
        <ele>1830.96826171875</ele>
        <time>2011-04-23T19:26:58Z</time>
      </trkpt>
      <trkpt lat="32.609853716567159" lon="-4.529307642951608">
        <ele>1827.123046875</ele>
        <time>2011-04-23T19:27:03Z</time>
      </trkpt>
      <trkpt lat="32.60995983146131" lon="-4.529270175844431">
        <ele>1826.16162109375</ele>
        <time>2011-04-23T19:27:04Z</time>
      </trkpt>
      <trkpt lat="32.610692996531725" lon="-4.528902964666486">
        <ele>1818.95166015625</ele>
        <time>2011-04-23T19:27:11Z</time>
      </trkpt>
      <trkpt lat="32.611120725050569" lon="-4.529084181413055">
        <ele>1815.1064453125</ele>
        <time>2011-04-23T19:27:16Z</time>
      </trkpt>
      <trkpt lat="32.611588267609477" lon="-4.529749620705843">
        <ele>1809.819091796875</ele>
        <time>2011-04-23T19:27:23Z</time>
      </trkpt>
      <trkpt lat="32.612072238698602" lon="-4.529863279312849">
        <ele>1807.416015625</ele>
        <time>2011-04-23T19:27:28Z</time>
      </trkpt>
      <trkpt lat="32.612269129604101" lon="-4.52977392822504">
        <ele>1806.935302734375</ele>
        <time>2011-04-23T19:27:30Z</time>
      </trkpt>
      <trkpt lat="32.61256174184382" lon="-4.529637722298503">
        <ele>1805.493408203125</ele>
        <time>2011-04-23T19:27:33Z</time>
      </trkpt>
      <trkpt lat="32.613084940239787" lon="-4.529546275734901">
        <ele>1803.570556640625</ele>
        <time>2011-04-23T19:27:38Z</time>
      </trkpt>
      <trkpt lat="32.613945258781314" lon="-4.529784237965941">
        <ele>1799.725341796875</ele>
        <time>2011-04-23T19:27:46Z</time>
      </trkpt>
      <trkpt lat="32.614407185465097" lon="-4.52995028346777">
        <ele>1797.802734375</ele>
        <time>2011-04-23T19:27:51Z</time>
      </trkpt>
      <trkpt lat="32.61469267308712" lon="-4.530354291200638">
        <ele>1795.880126953125</ele>
        <time>2011-04-23T19:27:56Z</time>
      </trkpt>
      <trkpt lat="32.61493943631649" lon="-4.530678670853376">
        <ele>1793.476806640625</ele>
        <time>2011-04-23T19:28:01Z</time>
      </trkpt>
      <trkpt lat="32.615086287260056" lon="-4.530662577599287">
        <ele>1792.99609375</ele>
        <time>2011-04-23T19:28:03Z</time>
      </trkpt>
      <trkpt lat="32.615951467305422" lon="-4.530445821583271">
        <ele>1789.631591796875</ele>
        <time>2011-04-23T19:28:12Z</time>
      </trkpt>
      <trkpt lat="32.616751017048955" lon="-4.530666684731841">
        <ele>1783.3828125</ele>
        <time>2011-04-23T19:28:20Z</time>
      </trkpt>
      <trkpt lat="32.616940280422568" lon="-4.530744133517146">
        <ele>1781.460205078125</ele>
        <time>2011-04-23T19:28:22Z</time>
      </trkpt>
      <trkpt lat="32.617275724187493" lon="-4.530989220365882">
        <ele>1778.095703125</ele>
        <time>2011-04-23T19:28:26Z</time>
      </trkpt>
      <trkpt lat="32.617584345862269" lon="-4.531284850090742">
        <ele>1774.731201171875</ele>
        <time>2011-04-23T19:28:30Z</time>
      </trkpt>
      <trkpt lat="32.617894476279616" lon="-4.531386774033308">
        <ele>1772.327880859375</ele>
        <time>2011-04-23T19:28:34Z</time>
      </trkpt>
      <trkpt lat="32.618210976943374" lon="-4.531346121802926">
        <ele>1769.92431640625</ele>
        <time>2011-04-23T19:28:38Z</time>
      </trkpt>
      <trkpt lat="32.618564190343022" lon="-4.531474867835641">
        <ele>1767.52099609375</ele>
        <time>2011-04-23T19:28:42Z</time>
      </trkpt>
      <trkpt lat="32.61927941814065" lon="-4.53189262188971">
        <ele>1763.67578125</ele>
        <time>2011-04-23T19:28:50Z</time>
      </trkpt>
      <trkpt lat="32.619555098935962" lon="-4.532168386504054">
        <ele>1761.75341796875</ele>
        <time>2011-04-23T19:28:54Z</time>
      </trkpt>
      <trkpt lat="32.619661130011082" lon="-4.532370893284679">
        <ele>1760.7919921875</ele>
        <time>2011-04-23T19:28:56Z</time>
      </trkpt>
      <trkpt lat="32.61996254324913" lon="-4.532701978459954">
        <ele>1758.869384765625</ele>
        <time>2011-04-23T19:29:00Z</time>
      </trkpt>
      <trkpt lat="32.620505439117551" lon="-4.532998194918037">
        <ele>1757.908203125</ele>
        <time>2011-04-23T19:29:06Z</time>
      </trkpt>
      <trkpt lat="32.620894946157932" lon="-4.53288453631103">
        <ele>1756.94677734375</ele>
        <time>2011-04-23T19:29:11Z</time>
      </trkpt>
      <trkpt lat="32.621030397713184" lon="-4.532748330384493">
        <ele>1756.466064453125</ele>
        <time>2011-04-23T19:29:13Z</time>
      </trkpt>
      <trkpt lat="32.621361063793302" lon="-4.532246254384518">
        <ele>1754.543212890625</ele>
        <time>2011-04-23T19:29:20Z</time>
      </trkpt>
      <trkpt lat="32.621561139822006" lon="-4.532216247171164">
        <ele>1753.58203125</ele>
        <time>2011-04-23T19:29:23Z</time>
      </trkpt>
      <trkpt lat="32.621720898896456" lon="-4.532261677086353">
        <ele>1752.62060546875</ele>
        <time>2011-04-23T19:29:25Z</time>
      </trkpt>
      <trkpt lat="32.622086266055703" lon="-4.532260755077004">
        <ele>1750.697998046875</ele>
        <time>2011-04-23T19:29:29Z</time>
      </trkpt>
      <trkpt lat="32.622421458363533" lon="-4.532139217481017">
        <ele>1748.775390625</ele>
        <time>2011-04-23T19:29:33Z</time>
      </trkpt>
      <trkpt lat="32.622967036440969" lon="-4.532185150310397">
        <ele>1744.449462890625</ele>
        <time>2011-04-23T19:29:39Z</time>
      </trkpt>
      <trkpt lat="32.62337364256382" lon="-4.53223954886198">
        <ele>1741.0849609375</ele>
        <time>2011-04-23T19:29:43Z</time>
      </trkpt>
      <trkpt lat="32.623838670551777" lon="-4.53262947499752">
        <ele>1735.31689453125</ele>
        <time>2011-04-23T19:29:49Z</time>
      </trkpt>
      <trkpt lat="32.623908994719386" lon="-4.532858217135072">
        <ele>1733.394287109375</ele>
        <time>2011-04-23T19:29:51Z</time>
      </trkpt>
      <trkpt lat="32.624154165387154" lon="-4.533362220972776">
        <ele>1729.068359375</ele>
        <time>2011-04-23T19:29:56Z</time>
      </trkpt>
      <trkpt lat="32.624463373795152" lon="-4.533647540956736">
        <ele>1726.1845703125</ele>
        <time>2011-04-23T19:30:00Z</time>
      </trkpt>
      <trkpt lat="32.624801583588123" lon="-4.53375281766057">
        <ele>1723.781005859375</ele>
        <time>2011-04-23T19:30:04Z</time>
      </trkpt>
      <trkpt lat="32.625224031507969" lon="-4.533844431862235">
        <ele>1720.897216796875</ele>
        <time>2011-04-23T19:30:09Z</time>
      </trkpt>
      <trkpt lat="32.625586129724979" lon="-4.533831775188446">
        <ele>1718.01318359375</ele>
        <time>2011-04-23T19:30:13Z</time>
      </trkpt>
      <trkpt lat="32.626064233481884" lon="-4.533704537898302">
        <ele>1714.16796875</ele>
        <time>2011-04-23T19:30:18Z</time>
      </trkpt>
      <trkpt lat="32.626410825178027" lon="-4.533509574830532">
        <ele>1711.764892578125</ele>
        <time>2011-04-23T19:30:22Z</time>
      </trkpt>
      <trkpt lat="32.626727996394038" lon="-4.533435897901654">
        <ele>1709.842041015625</ele>
        <time>2011-04-23T19:30:26Z</time>
      </trkpt>
      <trkpt lat="32.627131333574653" lon="-4.533319640904665">
        <ele>1707.438720703125</ele>
        <time>2011-04-23T19:30:32Z</time>
      </trkpt>
      <trkpt lat="32.627265695482492" lon="-4.532942622900009">
        <ele>1706.477294921875</ele>
        <time>2011-04-23T19:30:36Z</time>
      </trkpt>
      <trkpt lat="32.627314897254109" lon="-4.532725028693676">
        <ele>1705.99658203125</ele>
        <time>2011-04-23T19:30:38Z</time>
      </trkpt>
      <trkpt lat="32.627662159502506" lon="-4.532302999868989">
        <ele>1703.593505859375</ele>
        <time>2011-04-23T19:30:44Z</time>
      </trkpt>
      <trkpt lat="32.627762239426374" lon="-4.532289253547788">
        <ele>1703.11279296875</ele>
        <time>2011-04-23T19:30:45Z</time>
      </trkpt>
      <trkpt lat="32.627979833632708" lon="-4.532280284911394">
        <ele>1701.6708984375</ele>
        <time>2011-04-23T19:30:47Z</time>
      </trkpt>
      <trkpt lat="32.628519041463733" lon="-4.532326888293028">
        <ele>1697.344970703125</ele>
        <time>2011-04-23T19:30:52Z</time>
      </trkpt>
      <trkpt lat="32.629013657569885" lon="-4.532353291288018">
        <ele>1693.499755859375</ele>
        <time>2011-04-23T19:30:57Z</time>
      </trkpt>
      <trkpt lat="32.629483882337809" lon="-4.532259330153465">
        <ele>1691.09619140625</ele>
        <time>2011-04-23T19:31:02Z</time>
      </trkpt>
      <trkpt lat="32.629868360236287" lon="-4.532438451424241">
        <ele>1686.770263671875</ele>
        <time>2011-04-23T19:31:07Z</time>
      </trkpt>
      <trkpt lat="32.630261974409223" lon="-4.532938180491328">
        <ele>1683.886474609375</ele>
        <time>2011-04-23T19:31:14Z</time>
      </trkpt>
      <trkpt lat="32.630271529778838" lon="-4.53334478661418">
        <ele>1681.483154296875</ele>
        <time>2011-04-23T19:31:20Z</time>
      </trkpt>
      <trkpt lat="32.630176478996873" lon="-4.533467078581452">
        <ele>1681.002685546875</ele>
        <time>2011-04-23T19:31:22Z</time>
      </trkpt>
      <trkpt lat="32.629925776273012" lon="-4.533705543726683">
        <ele>1680.52197265625</ele>
        <time>2011-04-23T19:31:26Z</time>
      </trkpt>
      <trkpt lat="32.629789989441633" lon="-4.534173421561718">
        <ele>1678.599365234375</ele>
        <time>2011-04-23T19:31:32Z</time>
      </trkpt>
      <trkpt lat="32.629676163196564" lon="-4.534643143415451">
        <ele>1676.196044921875</ele>
        <time>2011-04-23T19:31:37Z</time>
      </trkpt>
      <trkpt lat="32.62922496534884" lon="-4.535148153081536">
        <ele>1674.75390625</ele>
        <time>2011-04-23T19:31:43Z</time>
      </trkpt>
      <trkpt lat="32.628937046974897" lon="-4.53562231734395">
        <ele>1672.831298828125</ele>
        <time>2011-04-23T19:31:48Z</time>
      </trkpt>
      <trkpt lat="32.628509653732181" lon="-4.536632336676121">
        <ele>1667.5439453125</ele>
        <time>2011-04-23T19:31:58Z</time>
      </trkpt>
      <trkpt lat="32.628050576895475" lon="-4.537156876176596">
        <ele>1664.66015625</ele>
        <time>2011-04-23T19:32:05Z</time>
      </trkpt>
      <trkpt lat="32.627632655203342" lon="-4.537372123450041">
        <ele>1662.2568359375</ele>
        <time>2011-04-23T19:32:10Z</time>
      </trkpt>
      <trkpt lat="32.627095626667142" lon="-4.537272043526173">
        <ele>1659.372802734375</ele>
        <time>2011-04-23T19:32:16Z</time>
      </trkpt>
      <trkpt lat="32.626704024150968" lon="-4.537231642752886">
        <ele>1658.411376953125</ele>
        <time>2011-04-23T19:32:21Z</time>
      </trkpt>
      <trkpt lat="32.625988628715277" lon="-4.537601955235004">
        <ele>1656.969482421875</ele>
        <time>2011-04-23T19:32:29Z</time>
      </trkpt>
      <trkpt lat="32.625381946563721" lon="-4.537946954369545">
        <ele>1655.046875</ele>
        <time>2011-04-23T19:32:35Z</time>
      </trkpt>
      <trkpt lat="32.625190420076251" lon="-4.53840502537787">
        <ele>1652.6435546875</ele>
        <time>2011-04-23T19:32:40Z</time>
      </trkpt>
      <trkpt lat="32.625384125858545" lon="-4.538797549903393">
        <ele>1650.720947265625</ele>
        <time>2011-04-23T19:32:44Z</time>
      </trkpt>
      <trkpt lat="32.625590488314629" lon="-4.539056466892362">
        <ele>1650.240478515625</ele>
        <time>2011-04-23T19:32:47Z</time>
      </trkpt>
      <trkpt lat="32.626047218218446" lon="-4.539094939827919">
        <ele>1650.720947265625</ele>
        <time>2011-04-23T19:32:52Z</time>
      </trkpt>
      <trkpt lat="32.626462625339627" lon="-4.539095358923078">
        <ele>1650.720947265625</ele>
        <time>2011-04-23T19:32:57Z</time>
      </trkpt>
      <trkpt lat="32.626583576202393" lon="-4.539265092462301">
        <ele>1650.240478515625</ele>
        <time>2011-04-23T19:32:59Z</time>
      </trkpt>
      <trkpt lat="32.626894125714898" lon="-4.539642697200179">
        <ele>1649.759765625</ele>
        <time>2011-04-23T19:33:04Z</time>
      </trkpt>
      <trkpt lat="32.62708087451756" lon="-4.540188945829868">
        <ele>1649.279052734375</ele>
        <time>2011-04-23T19:33:10Z</time>
      </trkpt>
      <trkpt lat="32.627038042992353" lon="-4.540511565282941">
        <ele>1648.317626953125</ele>
        <time>2011-04-23T19:33:13Z</time>
      </trkpt>
      <trkpt lat="32.627089088782668" lon="-4.541017999872565">
        <ele>1647.3564453125</ele>
        <time>2011-04-23T19:33:17Z</time>
      </trkpt>
      <trkpt lat="32.627153294160962" lon="-4.541611773893237">
        <ele>1646.875732421875</ele>
        <time>2011-04-23T19:33:22Z</time>
      </trkpt>
      <trkpt lat="32.627169638872147" lon="-4.541985187679529">
        <ele>1646.875732421875</ele>
        <time>2011-04-23T19:33:25Z</time>
      </trkpt>
      <trkpt lat="32.627129573374987" lon="-4.542469074949622">
        <ele>1646.395263671875</ele>
        <time>2011-04-23T19:33:29Z</time>
      </trkpt>
      <trkpt lat="32.626926731318235" lon="-4.543398292735219">
        <ele>1643.0302734375</ele>
        <time>2011-04-23T19:33:37Z</time>
      </trkpt>
      <trkpt lat="32.627096464857459" lon="-4.544087955728173">
        <ele>1639.18505859375</ele>
        <time>2011-04-23T19:33:43Z</time>
      </trkpt>
      <trkpt lat="32.627535425126553" lon="-4.544566394761205">
        <ele>1635.33984375</ele>
        <time>2011-04-23T19:33:48Z</time>
      </trkpt>
      <trkpt lat="32.627772632986307" lon="-4.544671420007944">
        <ele>1633.417236328125</ele>
        <time>2011-04-23T19:33:50Z</time>
      </trkpt>
      <trkpt lat="32.629472650587559" lon="-4.545315485447645">
        <ele>1620.439453125</ele>
        <time>2011-04-23T19:34:03Z</time>
      </trkpt>
      <trkpt lat="32.630325760692358" lon="-4.545954437926412">
        <ele>1614.19091796875</ele>
        <time>2011-04-23T19:34:10Z</time>
      </trkpt>
      <trkpt lat="32.630882486701012" lon="-4.546088799834251">
        <ele>1610.345458984375</ele>
        <time>2011-04-23T19:34:14Z</time>
      </trkpt>
      <trkpt lat="32.632640758529305" lon="-4.546046890318394">
        <ele>1601.213134765625</ele>
        <time>2011-04-23T19:34:25Z</time>
      </trkpt>
      <trkpt lat="32.634526267647743" lon="-4.54599978402257">
        <ele>1594.003173828125</ele>
        <time>2011-04-23T19:34:37Z</time>
      </trkpt>
      <trkpt lat="32.635123059153557" lon="-4.545987965539098">
        <ele>1590.638427734375</ele>
        <time>2011-04-23T19:34:41Z</time>
      </trkpt>
      <trkpt lat="32.635752456262708" lon="-4.546372862532735">
        <ele>1585.83203125</ele>
        <time>2011-04-23T19:34:46Z</time>
      </trkpt>
      <trkpt lat="32.635902743786573" lon="-4.54665893688798">
        <ele>1583.909423828125</ele>
        <time>2011-04-23T19:34:48Z</time>
      </trkpt>
      <trkpt lat="32.63618596829474" lon="-4.547311887145042">
        <ele>1579.583251953125</ele>
        <time>2011-04-23T19:34:53Z</time>
      </trkpt>
      <trkpt lat="32.636981830000877" lon="-4.548425758257508">
        <ele>1573.8154296875</ele>
        <time>2011-04-23T19:35:03Z</time>
      </trkpt>
      <trkpt lat="32.637156676501036" lon="-4.548980137333274">
        <ele>1574.296142578125</ele>
        <time>2011-04-23T19:35:07Z</time>
      </trkpt>
      <trkpt lat="32.637341665104032" lon="-4.550606645643711">
        <ele>1575.738037109375</ele>
        <time>2011-04-23T19:35:16Z</time>
      </trkpt>
      <trkpt lat="32.637590272352099" lon="-4.552933881059289">
        <ele>1575.25732421875</ele>
        <time>2011-04-23T19:35:27Z</time>
      </trkpt>
      <trkpt lat="32.637779451906681" lon="-4.554575979709625">
        <ele>1572.37353515625</ele>
        <time>2011-04-23T19:35:36Z</time>
      </trkpt>
      <trkpt lat="32.638016659766436" lon="-4.555139075964689">
        <ele>1570.450927734375</ele>
        <time>2011-04-23T19:35:40Z</time>
      </trkpt>
      <trkpt lat="32.639015195891261" lon="-4.55634699203074">
        <ele>1569.009033203125</ele>
        <time>2011-04-23T19:35:49Z</time>
      </trkpt>
      <trkpt lat="32.639236226677895" lon="-4.556626863777638">
        <ele>1570.450927734375</ele>
        <time>2011-04-23T19:35:51Z</time>
      </trkpt>
      <trkpt lat="32.639566976577044" lon="-4.557502940297127">
        <ele>1574.77685546875</ele>
        <time>2011-04-23T19:35:57Z</time>
      </trkpt>
      <trkpt lat="32.639532526955009" lon="-4.558138120919466">
        <ele>1576.699462890625</ele>
        <time>2011-04-23T19:36:01Z</time>
      </trkpt>
      <trkpt lat="32.639265144243836" lon="-4.559782734140754">
        <ele>1580.544921875</ele>
        <time>2011-04-23T19:36:09Z</time>
      </trkpt>
      <trkpt lat="32.638878989964724" lon="-4.562138635665178">
        <ele>1586.793212890625</ele>
        <time>2011-04-23T19:36:19Z</time>
      </trkpt>
      <trkpt lat="32.638698862865567" lon="-4.563277987763286">
        <ele>1589.196533203125</ele>
        <time>2011-04-23T19:36:25Z</time>
      </trkpt>
      <trkpt lat="32.638683440163732" lon="-4.563431795686483">
        <ele>1589.67724609375</ele>
        <time>2011-04-23T19:36:26Z</time>
      </trkpt>
      <trkpt lat="32.638889634981751" lon="-4.564132690429688">
        <ele>1589.67724609375</ele>
        <time>2011-04-23T19:36:31Z</time>
      </trkpt>
      <trkpt lat="32.6390943210572" lon="-4.564361264929175">
        <ele>1589.67724609375</ele>
        <time>2011-04-23T19:36:33Z</time>
      </trkpt>
      <trkpt lat="32.640589149668813" lon="-4.565674541518092">
        <ele>1586.312744140625</ele>
        <time>2011-04-23T19:36:45Z</time>
      </trkpt>
      <trkpt lat="32.64071999117732" lon="-4.565766658633947">
        <ele>1585.83203125</ele>
        <time>2011-04-23T19:36:46Z</time>
      </trkpt>
      <trkpt lat="32.641508057713509" lon="-4.566003447398543">
        <ele>1582.467529296875</ele>
        <time>2011-04-23T19:36:51Z</time>
      </trkpt>
      <trkpt lat="32.643142025917768" lon="-4.56601845100522">
        <ele>1573.8154296875</ele>
        <time>2011-04-23T19:36:59Z</time>
      </trkpt>
      <trkpt lat="32.645284188911319" lon="-4.566029431298375">
        <ele>1565.64453125</ele>
        <time>2011-04-23T19:37:09Z</time>
      </trkpt>
      <trkpt lat="32.647260138764977" lon="-4.566048039123416">
        <ele>1556.031005859375</ele>
        <time>2011-04-23T19:37:19Z</time>
      </trkpt>
      <trkpt lat="32.650533355772495" lon="-4.566071089357138">
        <ele>1538.246826171875</ele>
        <time>2011-04-23T19:37:35Z</time>
      </trkpt>
      <trkpt lat="32.651582770049572" lon="-4.566152393817902">
        <ele>1539.2080078125</ele>
        <time>2011-04-23T19:37:41Z</time>
      </trkpt>
      <trkpt lat="32.65218073502183" lon="-4.566458752378821">
        <ele>1538.7275390625</ele>
        <time>2011-04-23T19:37:45Z</time>
      </trkpt>
      <trkpt lat="32.653706995770335" lon="-4.567688126116991">
        <ele>1533.440185546875</ele>
        <time>2011-04-23T19:37:57Z</time>
      </trkpt>
      <trkpt lat="32.653816379606724" lon="-4.567796923220158">
        <ele>1532.95947265625</ele>
        <time>2011-04-23T19:37:58Z</time>
      </trkpt>
      <trkpt lat="32.654174538329244" lon="-4.568379381671548">
        <ele>1531.998046875</ele>
        <time>2011-04-23T19:38:02Z</time>
      </trkpt>
      <trkpt lat="32.65483545139432" lon="-4.570216694846749">
        <ele>1534.401611328125</ele>
        <time>2011-04-23T19:38:11Z</time>
      </trkpt>
      <trkpt lat="32.655472476035357" lon="-4.572042357176542">
        <ele>1538.246826171875</ele>
        <time>2011-04-23T19:38:20Z</time>
      </trkpt>
      <trkpt lat="32.656145123764873" lon="-4.574021995067596">
        <ele>1540.16943359375</ele>
        <time>2011-04-23T19:38:30Z</time>
      </trkpt>
      <trkpt lat="32.656774520874023" lon="-4.575798539444804">
        <ele>1541.130615234375</ele>
        <time>2011-04-23T19:38:38Z</time>
      </trkpt>
      <trkpt lat="32.657429818063974" lon="-4.57764683291316">
        <ele>1541.611328125</ele>
        <time>2011-04-23T19:38:47Z</time>
      </trkpt>
      <trkpt lat="32.658412428572774" lon="-4.580458290874958">
        <ele>1542.092041015625</ele>
        <time>2011-04-23T19:39:01Z</time>
      </trkpt>
      <trkpt lat="32.659024223685265" lon="-4.582207426428795">
        <ele>1543.533935546875</ele>
        <time>2011-04-23T19:39:11Z</time>
      </trkpt>
      <trkpt lat="32.65953803434968" lon="-4.583932338282466">
        <ele>1544.975830078125</ele>
        <time>2011-04-23T19:39:21Z</time>
      </trkpt>
      <trkpt lat="32.659421525895596" lon="-4.584986362606287">
        <ele>1543.533935546875</ele>
        <time>2011-04-23T19:39:27Z</time>
      </trkpt>
      <trkpt lat="32.659094547852874" lon="-4.585614837706089">
        <ele>1540.16943359375</ele>
        <time>2011-04-23T19:39:31Z</time>
      </trkpt>
      <trkpt lat="32.657662164419889" lon="-4.587578298524022">
        <ele>1535.36279296875</ele>
        <time>2011-04-23T19:39:44Z</time>
      </trkpt>
      <trkpt lat="32.65683688223362" lon="-4.58896541967988">
        <ele>1538.7275390625</ele>
        <time>2011-04-23T19:39:53Z</time>
      </trkpt>
      <trkpt lat="32.656645020470023" lon="-4.590077865868807">
        <ele>1537.76611328125</ele>
        <time>2011-04-23T19:39:59Z</time>
      </trkpt>
      <trkpt lat="32.656621634960175" lon="-4.592503923922777">
        <ele>1535.843505859375</ele>
        <time>2011-04-23T19:40:11Z</time>
      </trkpt>
      <trkpt lat="32.656597243621945" lon="-4.594790255650878">
        <ele>1538.246826171875</ele>
        <time>2011-04-23T19:40:21Z</time>
      </trkpt>
      <trkpt lat="32.656558938324451" lon="-4.597925171256065">
        <ele>1552.185791015625</ele>
        <time>2011-04-23T19:40:35Z</time>
      </trkpt>
      <trkpt lat="32.656653989106417" lon="-4.599547991529107">
        <ele>1555.550537109375</ele>
        <time>2011-04-23T19:40:43Z</time>
      </trkpt>
      <trkpt lat="32.656997479498386" lon="-4.601449258625507">
        <ele>1554.589111328125</ele>
        <time>2011-04-23T19:40:52Z</time>
      </trkpt>
      <trkpt lat="32.657613884657621" lon="-4.603349687531591">
        <ele>1553.6279296875</ele>
        <time>2011-04-23T19:41:01Z</time>
      </trkpt>
      <trkpt lat="32.658476131036878" lon="-4.60609233006835">
        <ele>1549.78271484375</ele>
        <time>2011-04-23T19:41:14Z</time>
      </trkpt>
      <trkpt lat="32.659305520355701" lon="-4.608646966516972">
        <ele>1549.78271484375</ele>
        <time>2011-04-23T19:41:26Z</time>
      </trkpt>
      <trkpt lat="32.660350743681192" lon="-4.611039077863097">
        <ele>1551.224609375</ele>
        <time>2011-04-23T19:41:38Z</time>
      </trkpt>
      <trkpt lat="32.661871472373605" lon="-4.614325957372785">
        <ele>1550.263427734375</ele>
        <time>2011-04-23T19:41:54Z</time>
      </trkpt>
      <trkpt lat="32.663120962679386" lon="-4.61701805703342">
        <ele>1550.263427734375</ele>
        <time>2011-04-23T19:42:07Z</time>
      </trkpt>
      <trkpt lat="32.664551753550768" lon="-4.620091617107391">
        <ele>1550.743896484375</ele>
        <time>2011-04-23T19:42:22Z</time>
      </trkpt>
      <trkpt lat="32.665636455640197" lon="-4.622429748997092">
        <ele>1550.263427734375</ele>
        <time>2011-04-23T19:42:33Z</time>
      </trkpt>
      <trkpt lat="32.666428629308939" lon="-4.624135131016374">
        <ele>1549.78271484375</ele>
        <time>2011-04-23T19:42:42Z</time>
      </trkpt>
      <trkpt lat="32.667454574257135" lon="-4.626361699774861">
        <ele>1547.379150390625</ele>
        <time>2011-04-23T19:42:55Z</time>
      </trkpt>
      <trkpt lat="32.667801417410374" lon="-4.627120848745108">
        <ele>1546.41796875</ele>
        <time>2011-04-23T19:43:02Z</time>
      </trkpt>
      <trkpt lat="32.668096041306853" lon="-4.627754855901003">
        <ele>1544.975830078125</ele>
        <time>2011-04-23T19:43:11Z</time>
      </trkpt>
      <trkpt lat="32.668459564447403" lon="-4.628551388159394">
        <ele>1544.4951171875</ele>
        <time>2011-04-23T19:43:18Z</time>
      </trkpt>
      <trkpt lat="32.668978990986943" lon="-4.629668695852161">
        <ele>1544.0146484375</ele>
        <time>2011-04-23T19:43:25Z</time>
      </trkpt>
      <trkpt lat="32.669778876006603" lon="-4.631392182782292">
        <ele>1542.57275390625</ele>
        <time>2011-04-23T19:43:34Z</time>
      </trkpt>
      <trkpt lat="32.671035323292017" lon="-4.634109847247601">
        <ele>1540.64990234375</ele>
        <time>2011-04-23T19:43:47Z</time>
      </trkpt>
      <trkpt lat="32.672120947390795" lon="-4.636457534506917">
        <ele>1538.246826171875</ele>
        <time>2011-04-23T19:43:58Z</time>
      </trkpt>
      <trkpt lat="32.67279208637774" lon="-4.637904334813356">
        <ele>1535.843505859375</ele>
        <time>2011-04-23T19:44:06Z</time>
      </trkpt>
      <trkpt lat="32.673654584214091" lon="-4.639781042933464">
        <ele>1535.843505859375</ele>
        <time>2011-04-23T19:44:17Z</time>
      </trkpt>
      <trkpt lat="32.674706261605024" lon="-4.64204516261816">
        <ele>1534.88232421875</ele>
        <time>2011-04-23T19:44:29Z</time>
      </trkpt>
      <trkpt lat="32.67543213441968" lon="-4.64361073449254">
        <ele>1534.401611328125</ele>
        <time>2011-04-23T19:44:38Z</time>
      </trkpt>
      <trkpt lat="32.676259344443679" lon="-4.645416280254722">
        <ele>1533.9208984375</ele>
        <time>2011-04-23T19:44:49Z</time>
      </trkpt>
      <trkpt lat="32.677091667428613" lon="-4.647213276475668">
        <ele>1532.95947265625</ele>
        <time>2011-04-23T19:44:59Z</time>
      </trkpt>
      <trkpt lat="32.678180141374469" lon="-4.649591390043497">
        <ele>1533.9208984375</ele>
        <time>2011-04-23T19:45:11Z</time>
      </trkpt>
      <trkpt lat="32.679531471803784" lon="-4.652519021183252">
        <ele>1536.8046875</ele>
        <time>2011-04-23T19:45:25Z</time>
      </trkpt>
      <trkpt lat="32.680560266599059" lon="-4.654738297685981">
        <ele>1538.246826171875</ele>
        <time>2011-04-23T19:45:36Z</time>
      </trkpt>
      <trkpt lat="32.681063683703542" lon="-4.655865747481585">
        <ele>1535.36279296875</ele>
        <time>2011-04-23T19:45:43Z</time>
      </trkpt>
      <trkpt lat="32.681283792480826" lon="-4.656903091818094">
        <ele>1532.47900390625</ele>
        <time>2011-04-23T19:45:49Z</time>
      </trkpt>
      <trkpt lat="32.681186143308878" lon="-4.657996678724885">
        <ele>1529.114013671875</ele>
        <time>2011-04-23T19:45:55Z</time>
      </trkpt>
      <trkpt lat="32.680707452818751" lon="-4.659282462671399">
        <ele>1521.904296875</ele>
        <time>2011-04-23T19:46:02Z</time>
      </trkpt>
      <trkpt lat="32.679846631363034" lon="-4.661365365609527">
        <ele>1513.73291015625</ele>
        <time>2011-04-23T19:46:12Z</time>
      </trkpt>
      <trkpt lat="32.679216144606471" lon="-4.663174180313945">
        <ele>1510.84912109375</ele>
        <time>2011-04-23T19:46:21Z</time>
      </trkpt>
      <trkpt lat="32.679158896207809" lon="-4.664496593177319">
        <ele>1511.329833984375</ele>
        <time>2011-04-23T19:46:27Z</time>
      </trkpt>
      <trkpt lat="32.679150346666574" lon="-4.666909743100405">
        <ele>1511.329833984375</ele>
        <time>2011-04-23T19:46:38Z</time>
      </trkpt>
      <trkpt lat="32.679139198735356" lon="-4.669205797836185">
        <ele>1511.329833984375</ele>
        <time>2011-04-23T19:46:48Z</time>
      </trkpt>
      <trkpt lat="32.679193345829844" lon="-4.67135751619935">
        <ele>1512.771728515625</ele>
        <time>2011-04-23T19:46:58Z</time>
      </trkpt>
      <trkpt lat="32.679484197869897" lon="-4.673172198235989">
        <ele>1512.291015625</ele>
        <time>2011-04-23T19:47:06Z</time>
      </trkpt>
      <trkpt lat="32.679862724617124" lon="-4.675615942105651">
        <ele>1509.8876953125</ele>
        <time>2011-04-23T19:47:16Z</time>
      </trkpt>
      <trkpt lat="32.680368740111589" lon="-4.678548183292151">
        <ele>1506.04248046875</ele>
        <time>2011-04-23T19:47:27Z</time>
      </trkpt>
      <trkpt lat="32.680818764492869" lon="-4.681229637935758">
        <ele>1508.44580078125</ele>
        <time>2011-04-23T19:47:38Z</time>
      </trkpt>
      <trkpt lat="32.681405749171972" lon="-4.683752171695232">
        <ele>1505.56201171875</ele>
        <time>2011-04-23T19:47:49Z</time>
      </trkpt>
      <trkpt lat="32.682263888418674" lon="-4.687240719795227">
        <ele>1505.56201171875</ele>
        <time>2011-04-23T19:48:04Z</time>
      </trkpt>
      <trkpt lat="32.683032676577568" lon="-4.690387956798077">
        <ele>1503.15869140625</ele>
        <time>2011-04-23T19:48:18Z</time>
      </trkpt>
      <trkpt lat="32.683384716510773" lon="-4.692074647173286">
        <ele>1500.75537109375</ele>
        <time>2011-04-23T19:48:26Z</time>
      </trkpt>
      <trkpt lat="32.683309447020292" lon="-4.693184159696102">
        <ele>1499.313232421875</ele>
        <time>2011-04-23T19:48:31Z</time>
      </trkpt>
      <trkpt lat="32.682937877252698" lon="-4.695449369028211">
        <ele>1500.27490234375</ele>
        <time>2011-04-23T19:48:41Z</time>
      </trkpt>
      <trkpt lat="32.682445188984275" lon="-4.698514379560947">
        <ele>1501.716796875</ele>
        <time>2011-04-23T19:48:54Z</time>
      </trkpt>
      <trkpt lat="32.682425575330853" lon="-4.698739852756262">
        <ele>1501.716796875</ele>
        <time>2011-04-23T19:48:55Z</time>
      </trkpt>
      <trkpt lat="32.682525990530849" lon="-4.699658174067736">
        <ele>1501.236083984375</ele>
        <time>2011-04-23T19:48:59Z</time>
      </trkpt>
      <trkpt lat="32.682999819517136" lon="-4.701751470565796">
        <ele>1503.15869140625</ele>
        <time>2011-04-23T19:49:08Z</time>
      </trkpt>
      <trkpt lat="32.683065533638" lon="-4.703879216685891">
        <ele>1507.484619140625</ele>
        <time>2011-04-23T19:49:17Z</time>
      </trkpt>
      <trkpt lat="32.683129068464041" lon="-4.705858267843723">
        <ele>1511.329833984375</ele>
        <time>2011-04-23T19:49:26Z</time>
      </trkpt>
      <trkpt lat="32.68309629522264" lon="-4.707748638466001">
        <ele>1515.65576171875</ele>
        <time>2011-04-23T19:49:36Z</time>
      </trkpt>
      <trkpt lat="32.682776274159551" lon="-4.708982957527041">
        <ele>1514.213623046875</ele>
        <time>2011-04-23T19:49:43Z</time>
      </trkpt>
      <trkpt lat="32.68241124227643" lon="-4.710536543279886">
        <ele>1507.96533203125</ele>
        <time>2011-04-23T19:49:52Z</time>
      </trkpt>
      <trkpt lat="32.682091556489468" lon="-4.712376873940229">
        <ele>1507.96533203125</ele>
        <time>2011-04-23T19:50:03Z</time>
      </trkpt>
      <trkpt lat="32.68184931948781" lon="-4.71323786303401">
        <ele>1506.523193359375</ele>
        <time>2011-04-23T19:50:10Z</time>
      </trkpt>
      <trkpt lat="32.681704396381974" lon="-4.713767850771546">
        <ele>1504.6005859375</ele>
        <time>2011-04-23T19:50:17Z</time>
      </trkpt>
      <trkpt lat="32.681664079427719" lon="-4.714017296209931">
        <ele>1503.639404296875</ele>
        <time>2011-04-23T19:50:24Z</time>
      </trkpt>
      <trkpt lat="32.681623259559274" lon="-4.714141264557838">
        <ele>1502.197265625</ele>
        <time>2011-04-23T20:03:41Z</time>
      </trkpt>
      <trkpt lat="32.681428464129567" lon="-4.714765632525086">
        <ele>1500.75537109375</ele>
        <time>2011-04-23T20:03:49Z</time>
      </trkpt>
      <trkpt lat="32.681140964850783" lon="-4.715946894139051">
        <ele>1497.871337890625</ele>
        <time>2011-04-23T20:03:59Z</time>
      </trkpt>
      <trkpt lat="32.6810831297189" lon="-4.717090185731649">
        <ele>1495.94873046875</ele>
        <time>2011-04-23T20:04:08Z</time>
      </trkpt>
      <trkpt lat="32.681046416983008" lon="-4.718607058748603">
        <ele>1492.103515625</ele>
        <time>2011-04-23T20:04:20Z</time>
      </trkpt>
      <trkpt lat="32.680949019268155" lon="-4.72037672996521">
        <ele>1486.335693359375</ele>
        <time>2011-04-23T20:04:32Z</time>
      </trkpt>
      <trkpt lat="32.680593458935618" lon="-4.722721064463258">
        <ele>1483.451416015625</ele>
        <time>2011-04-23T20:04:48Z</time>
      </trkpt>
      <trkpt lat="32.680361028760672" lon="-4.72419242374599">
        <ele>1484.4130859375</ele>
        <time>2011-04-23T20:05:00Z</time>
      </trkpt>
      <trkpt lat="32.680174196138978" lon="-4.725101441144943">
        <ele>1486.816162109375</ele>
        <time>2011-04-23T20:05:07Z</time>
      </trkpt>
      <trkpt lat="32.679939670488238" lon="-4.726016661152244">
        <ele>1486.816162109375</ele>
        <time>2011-04-23T20:05:15Z</time>
      </trkpt>
      <trkpt lat="32.679853085428476" lon="-4.726348584517837">
        <ele>1485.85498046875</ele>
        <time>2011-04-23T20:05:21Z</time>
      </trkpt>
      <trkpt lat="32.679729787632823" lon="-4.726869268342853">
        <ele>1483.93212890625</ele>
        <time>2011-04-23T20:05:30Z</time>
      </trkpt>
      <trkpt lat="32.679555946961045" lon="-4.727485841140151">
        <ele>1483.451416015625</ele>
        <time>2011-04-23T20:05:41Z</time>
      </trkpt>
      <trkpt lat="32.67949509434402" lon="-4.727734280750155">
        <ele>1483.93212890625</ele>
        <time>2011-04-23T20:05:46Z</time>
      </trkpt>
      <trkpt lat="32.679408676922321" lon="-4.727889932692051">
        <ele>1483.451416015625</ele>
        <time>2011-04-23T20:05:50Z</time>
      </trkpt>
      <trkpt lat="32.679284121841192" lon="-4.728119261562824">
        <ele>1484.4130859375</ele>
        <time>2011-04-23T20:06:01Z</time>
      </trkpt>
      <trkpt lat="32.679298371076584" lon="-4.728505918756127">
        <ele>1483.451416015625</ele>
        <time>2011-04-23T20:06:09Z</time>
      </trkpt>
      <trkpt lat="32.679080693051219" lon="-4.72933086566627">
        <ele>1481.04833984375</ele>
        <time>2011-04-23T20:06:22Z</time>
      </trkpt>
      <trkpt lat="32.678964352235198" lon="-4.729806622490287">
        <ele>1481.04833984375</ele>
        <time>2011-04-23T20:06:34Z</time>
      </trkpt>
      <trkpt lat="32.678852621465921" lon="-4.730250528082252">
        <ele>1482.009521484375</ele>
        <time>2011-04-23T20:06:43Z</time>
      </trkpt>
      <trkpt lat="32.678710045292974" lon="-4.730833321809769">
        <ele>1481.52880859375</ele>
        <time>2011-04-23T20:06:53Z</time>
      </trkpt>
      <trkpt lat="32.678615832701325" lon="-4.731451738625765">
        <ele>1481.52880859375</ele>
        <time>2011-04-23T20:07:02Z</time>
      </trkpt>
      <trkpt lat="32.678624466061592" lon="-4.731962447986007">
        <ele>1480.567626953125</ele>
        <time>2011-04-23T20:07:11Z</time>
      </trkpt>
      <trkpt lat="32.678703842684627" lon="-4.732458489015698">
        <ele>1480.0869140625</ele>
        <time>2011-04-23T20:07:21Z</time>
      </trkpt>
      <trkpt lat="32.678899560123682" lon="-4.733050838112831">
        <ele>1481.04833984375</ele>
        <time>2011-04-23T20:07:30Z</time>
      </trkpt>
      <trkpt lat="32.679127296432853" lon="-4.733491893857718">
        <ele>1481.52880859375</ele>
        <time>2011-04-23T20:07:38Z</time>
      </trkpt>
      <trkpt lat="32.679329384118319" lon="-4.733912916854024">
        <ele>1480.567626953125</ele>
        <time>2011-04-23T20:07:46Z</time>
      </trkpt>
      <trkpt lat="32.67942426726222" lon="-4.734156243503094">
        <ele>1480.567626953125</ele>
        <time>2011-04-23T20:07:52Z</time>
      </trkpt>
      <trkpt lat="32.679519318044186" lon="-4.734440054744482">
        <ele>1480.0869140625</ele>
        <time>2011-04-23T20:08:04Z</time>
      </trkpt>
      <trkpt lat="32.679621074348688" lon="-4.73483132198453">
        <ele>1479.12548828125</ele>
        <time>2011-04-23T20:08:13Z</time>
      </trkpt>
      <trkpt lat="32.679676059633493" lon="-4.735552584752441">
        <ele>1478.164306640625</ele>
        <time>2011-04-23T20:08:22Z</time>
      </trkpt>
      <trkpt lat="32.679658122360706" lon="-4.736049463972449">
        <ele>1477.68359375</ele>
        <time>2011-04-23T20:08:29Z</time>
      </trkpt>
      <trkpt lat="32.679481180384755" lon="-4.737044731155038">
        <ele>1477.68359375</ele>
        <time>2011-04-23T20:08:39Z</time>
      </trkpt>
      <trkpt lat="32.679339777678251" lon="-4.737747889012098">
        <ele>1476.722412109375</ele>
        <time>2011-04-23T20:08:47Z</time>
      </trkpt>
      <trkpt lat="32.67915403470397" lon="-4.738911464810371">
        <ele>1477.68359375</ele>
        <time>2011-04-23T20:09:00Z</time>
      </trkpt>
      <trkpt lat="32.679202985018492" lon="-4.739561649039388">
        <ele>1478.164306640625</ele>
        <time>2011-04-23T20:09:08Z</time>
      </trkpt>
      <trkpt lat="32.679240871220827" lon="-4.739908324554563">
        <ele>1478.64501953125</ele>
        <time>2011-04-23T20:09:16Z</time>
      </trkpt>
      <trkpt lat="32.679185383021832" lon="-4.740036483854055">
        <ele>1479.606201171875</ele>
        <time>2011-04-23T20:09:38Z</time>
      </trkpt>
      <trkpt lat="32.678967034444213" lon="-4.740095157176256">
        <ele>1480.0869140625</ele>
        <time>2011-04-23T20:09:45Z</time>
      </trkpt>
      <trkpt lat="32.678849687799811" lon="-4.740315098315477">
        <ele>1479.606201171875</ele>
        <time>2011-04-23T20:09:53Z</time>
      </trkpt>
      <trkpt lat="32.678807023912668" lon="-4.740538643673062">
        <ele>1480.0869140625</ele>
        <time>2011-04-23T20:10:01Z</time>
      </trkpt>
      <trkpt lat="32.678827475756407" lon="-4.740656493231654">
        <ele>1492.103515625</ele>
        <time>2011-04-23T20:13:36Z</time>
      </trkpt>
      <trkpt lat="32.678665537387133" lon="-4.740651631727815">
        <ele>1484.4130859375</ele>
        <time>2011-04-23T20:14:44Z</time>
      </trkpt>
      <trkpt lat="32.678795121610165" lon="-4.740594131872058">
        <ele>1487.296875</ele>
        <time>2011-04-23T20:34:10Z</time>
      </trkpt>
      <trkpt lat="32.67882127314806" lon="-4.740333957597613">
        <ele>1485.85498046875</ele>
        <time>2011-04-23T20:34:27Z</time>
      </trkpt>
      <trkpt lat="32.678664196282625" lon="-4.740203451365233">
        <ele>1464.705810546875</ele>
        <time>2011-04-23T20:34:41Z</time>
      </trkpt>
      <trkpt lat="32.678635865449905" lon="-4.740027766674757">
        <ele>1455.0927734375</ele>
        <time>2011-04-23T20:35:32Z</time>
      </trkpt>
      <trkpt lat="32.678854381665587" lon="-4.739932464435697">
        <ele>1456.53466796875</ele>
        <time>2011-04-23T20:35:41Z</time>
      </trkpt>
      <trkpt lat="32.678991761058569" lon="-4.739735741168261">
        <ele>1460.3798828125</ele>
        <time>2011-04-23T20:35:52Z</time>
      </trkpt>
      <trkpt lat="32.678920179605484" lon="-4.739156048744917">
        <ele>1458.457275390625</ele>
        <time>2011-04-23T20:36:03Z</time>
      </trkpt>
      <trkpt lat="32.678988743573427" lon="-4.738481137901545">
        <ele>1460.860595703125</ele>
        <time>2011-04-23T20:36:13Z</time>
      </trkpt>
      <trkpt lat="32.679300550371408" lon="-4.737465921789408">
        <ele>1466.62841796875</ele>
        <time>2011-04-23T20:36:27Z</time>
      </trkpt>
      <trkpt lat="32.679420663043857" lon="-4.736705347895622">
        <ele>1467.589599609375</ele>
        <time>2011-04-23T20:36:37Z</time>
      </trkpt>
      <trkpt lat="32.67948092892766" lon="-4.735608659684658">
        <ele>1459.418701171875</ele>
        <time>2011-04-23T20:36:50Z</time>
      </trkpt>
      <trkpt lat="32.679283618927002" lon="-4.734843643382192">
        <ele>1445.960205078125</ele>
        <time>2011-04-23T20:37:02Z</time>
      </trkpt>
      <trkpt lat="32.679213294759393" lon="-4.734588665887713">
        <ele>1443.556884765625</ele>
        <time>2011-04-23T20:37:10Z</time>
      </trkpt>
      <trkpt lat="32.678954293951392" lon="-4.733891962096095">
        <ele>1444.03759765625</ele>
        <time>2011-04-23T20:37:22Z</time>
      </trkpt>
      <trkpt lat="32.678610887378454" lon="-4.733188636600971">
        <ele>1448.843994140625</ele>
        <time>2011-04-23T20:37:34Z</time>
      </trkpt>
      <trkpt lat="32.678348449990153" lon="-4.73248346708715">
        <ele>1450.7666015625</ele>
        <time>2011-04-23T20:37:45Z</time>
      </trkpt>
      <trkpt lat="32.678206376731396" lon="-4.731792882084847">
        <ele>1449.32470703125</ele>
        <time>2011-04-23T20:37:55Z</time>
      </trkpt>
      <trkpt lat="32.678259937092662" lon="-4.730831645429134">
        <ele>1446.92138671875</ele>
        <time>2011-04-23T20:38:07Z</time>
      </trkpt>
      <trkpt lat="32.678492786362767" lon="-4.729972835630179">
        <ele>1447.8828125</ele>
        <time>2011-04-23T20:38:19Z</time>
      </trkpt>
      <trkpt lat="32.678529666736722" lon="-4.729848364368081">
        <ele>1447.8828125</ele>
        <time>2011-04-23T20:38:25Z</time>
      </trkpt>
      <trkpt lat="32.67858674749732" lon="-4.729643678292632">
        <ele>1447.8828125</ele>
        <time>2011-04-23T20:38:33Z</time>
      </trkpt>
      <trkpt lat="32.678677188232541" lon="-4.729297924786806">
        <ele>1448.36328125</ele>
        <time>2011-04-23T20:38:44Z</time>
      </trkpt>
      <trkpt lat="32.678743153810501" lon="-4.729101117700338">
        <ele>1449.805419921875</ele>
        <time>2011-04-23T20:38:54Z</time>
      </trkpt>
      <trkpt lat="32.678170166909695" lon="-4.728907747194171">
        <ele>1480.0869140625</ele>
        <time>2011-04-23T20:39:44Z</time>
      </trkpt>
      <trkpt lat="32.677759872749448" lon="-4.728769361972809">
        <ele>1485.374267578125</ele>
        <time>2011-04-23T20:39:52Z</time>
      </trkpt>
      <trkpt lat="32.677459381520748" lon="-4.728642292320728">
        <ele>1488.739013671875</ele>
        <time>2011-04-23T20:40:00Z</time>
      </trkpt>
      <trkpt lat="32.677175151184201" lon="-4.728568866848946">
        <ele>1501.716796875</ele>
        <time>2011-04-23T20:40:19Z</time>
      </trkpt>
      <trkpt lat="32.677119243890047" lon="-4.728472139686346">
        <ele>1506.523193359375</ele>
        <time>2011-04-23T20:40:28Z</time>
      </trkpt>
      <trkpt lat="32.677212953567505" lon="-4.728549756109715">
        <ele>1507.96533203125</ele>
        <time>2011-04-23T20:40:35Z</time>
      </trkpt>
      <trkpt lat="32.677283948287368" lon="-4.728623935952783">
        <ele>1506.523193359375</ele>
        <time>2011-04-23T20:40:43Z</time>
      </trkpt>
      <trkpt lat="32.677413783967495" lon="-4.728678083047271">
        <ele>1502.197265625</ele>
        <time>2011-04-23T20:40:54Z</time>
      </trkpt>
      <trkpt lat="32.678085677325726" lon="-4.728937167674303">
        <ele>1497.871337890625</ele>
        <time>2011-04-23T20:41:07Z</time>
      </trkpt>
      <trkpt lat="32.678455486893654" lon="-4.729091562330723">
        <ele>1496.909912109375</ele>
        <time>2011-04-23T20:41:16Z</time>
      </trkpt>
      <trkpt lat="32.678607618436217" lon="-4.729127017781138">
        <ele>1491.622802734375</ele>
        <time>2011-04-23T20:41:31Z</time>
      </trkpt>
      <trkpt lat="32.678733179345727" lon="-4.728670120239258">
        <ele>1486.816162109375</ele>
        <time>2011-04-23T20:41:43Z</time>
      </trkpt>
      <trkpt lat="32.678766623139381" lon="-4.728486221283674">
        <ele>1484.893798828125</ele>
        <time>2011-04-23T20:41:52Z</time>
      </trkpt>
      <trkpt lat="32.678764946758747" lon="-4.72833207808435">
        <ele>1480.567626953125</ele>
        <time>2011-04-23T20:42:22Z</time>
      </trkpt>
      <trkpt lat="32.678755726665258" lon="-4.728209786117077">
        <ele>1484.893798828125</ele>
        <time>2011-04-23T20:42:29Z</time>
      </trkpt>
      <trkpt lat="32.678833259269595" lon="-4.728004848584533">
        <ele>1483.451416015625</ele>
        <time>2011-04-23T20:42:38Z</time>
      </trkpt>
      <trkpt lat="32.678983630612493" lon="-4.727743752300739">
        <ele>1481.52880859375</ele>
        <time>2011-04-23T20:42:47Z</time>
      </trkpt>
      <trkpt lat="32.679120926186442" lon="-4.727469077333808">
        <ele>1478.64501953125</ele>
        <time>2011-04-23T20:42:59Z</time>
      </trkpt>
      <trkpt lat="32.67915403470397" lon="-4.727215273305774">
        <ele>1474.319091796875</ele>
        <time>2011-04-23T20:43:11Z</time>
      </trkpt>
      <trkpt lat="32.67919066362083" lon="-4.726801291108131">
        <ele>1471.915771484375</ele>
        <time>2011-04-23T20:43:23Z</time>
      </trkpt>
      <trkpt lat="32.679185885936022" lon="-4.726685788482428">
        <ele>1469.9931640625</ele>
        <time>2011-04-23T20:43:32Z</time>
      </trkpt>
      <trkpt lat="32.679183455184102" lon="-4.72657548263669">
        <ele>1468.070556640625</ele>
        <time>2011-04-23T20:43:41Z</time>
      </trkpt>
      <trkpt lat="32.679249672219157" lon="-4.726243894547224">
        <ele>1467.109130859375</ele>
        <time>2011-04-23T20:43:50Z</time>
      </trkpt>
      <trkpt lat="32.679392667487264" lon="-4.725722121074796">
        <ele>1467.589599609375</ele>
        <time>2011-04-23T20:43:57Z</time>
      </trkpt>
      <trkpt lat="32.67953323200345" lon="-4.725022399798036">
        <ele>1466.147705078125</ele>
        <time>2011-04-23T20:44:05Z</time>
      </trkpt>
      <trkpt lat="32.67973255366087" lon="-4.72392956726253">
        <ele>1463.263916015625</ele>
        <time>2011-04-23T20:44:14Z</time>
      </trkpt>
      <trkpt lat="32.68001988530159" lon="-4.721993766725063">
        <ele>1462.783203125</ele>
        <time>2011-04-23T20:44:26Z</time>
      </trkpt>
      <trkpt lat="32.680325238034129" lon="-4.719826877117157">
        <ele>1466.62841796875</ele>
        <time>2011-04-23T20:44:38Z</time>
      </trkpt>
      <trkpt lat="32.680378798395395" lon="-4.717745231464505">
        <ele>1473.83837890625</ele>
        <time>2011-04-23T20:44:50Z</time>
      </trkpt>
      <trkpt lat="32.680453397333622" lon="-4.715921161696315">
        <ele>1475.760986328125</ele>
        <time>2011-04-23T20:45:01Z</time>
      </trkpt>
      <trkpt lat="32.680757744237781" lon="-4.714649291709065">
        <ele>1478.164306640625</ele>
        <time>2011-04-23T20:45:09Z</time>
      </trkpt>
      <trkpt lat="32.680958490818739" lon="-4.71387748606503">
        <ele>1479.606201171875</ele>
        <time>2011-04-23T20:45:15Z</time>
      </trkpt>
      <trkpt lat="32.681012134999037" lon="-4.713672129437327">
        <ele>1480.567626953125</ele>
        <time>2011-04-23T20:45:19Z</time>
      </trkpt>
      <trkpt lat="32.681009285151958" lon="-4.713525446131825">
        <ele>1482.009521484375</ele>
        <time>2011-04-23T20:45:30Z</time>
      </trkpt>
      <trkpt lat="32.681075921282172" lon="-4.713711440563202">
        <ele>1501.716796875</ele>
        <time>2011-04-23T20:46:38Z</time>
      </trkpt>
      <trkpt lat="32.680978272110224" lon="-4.713674392551184">
        <ele>1502.677978515625</ele>
        <time>2011-04-23T20:46:46Z</time>
      </trkpt>
      <trkpt lat="32.680906690657139" lon="-4.71362141892314">
        <ele>1505.081298828125</ele>
        <time>2011-04-23T20:46:59Z</time>
      </trkpt>
    </trkseg>
  </trk>

  <trk>
    <name>110424</name>
    <extensions>
      <gpxx:TrackExtension xmlns:gpxx="http://www.garmin.com/xmlschemas/GpxExtensions/v3">
        <gpxx:DisplayColor>Green</gpxx:DisplayColor>
      </gpxx:TrackExtension>
    </extensions>
    <trkseg>
      <trkpt lat="32.678743153810501" lon="-4.740673424676061">
        <ele>1552.185791015625</ele>
        <time>2011-04-24T06:40:02Z</time>
      </trkpt>
      <trkpt lat="32.678800066933036" lon="-4.740418363362551">
        <ele>1519.0205078125</ele>
        <time>2011-04-24T06:41:28Z</time>
      </trkpt>
      <trkpt lat="32.678921185433865" lon="-4.740150226280093">
        <ele>1487.777587890625</ele>
        <time>2011-04-24T06:43:01Z</time>
      </trkpt>
      <trkpt lat="32.679130481556058" lon="-4.740037489682436">
        <ele>1486.335693359375</ele>
        <time>2011-04-24T06:43:08Z</time>
      </trkpt>
      <trkpt lat="32.679215725511312" lon="-4.739980073645711">
        <ele>1485.85498046875</ele>
        <time>2011-04-24T06:43:11Z</time>
      </trkpt>
      <trkpt lat="32.679237350821495" lon="-4.739775639027357">
        <ele>1484.4130859375</ele>
        <time>2011-04-24T06:43:15Z</time>
      </trkpt>
      <trkpt lat="32.679151687771082" lon="-4.73900567740202">
        <ele>1483.451416015625</ele>
        <time>2011-04-24T06:43:25Z</time>
      </trkpt>
      <trkpt lat="32.67930842936039" lon="-4.738027425482869">
        <ele>1483.451416015625</ele>
        <time>2011-04-24T06:43:35Z</time>
      </trkpt>
      <trkpt lat="32.67958209849894" lon="-4.736521784216166">
        <ele>1481.52880859375</ele>
        <time>2011-04-24T06:43:48Z</time>
      </trkpt>
      <trkpt lat="32.6796670909971" lon="-4.735657861456275">
        <ele>1478.164306640625</ele>
        <time>2011-04-24T06:43:56Z</time>
      </trkpt>
      <trkpt lat="32.679654099047184" lon="-4.73540062084794">
        <ele>1477.68359375</ele>
        <time>2011-04-24T06:44:01Z</time>
      </trkpt>
      <trkpt lat="32.679597856476903" lon="-4.734841631725431">
        <ele>1478.164306640625</ele>
        <time>2011-04-24T06:44:07Z</time>
      </trkpt>
      <trkpt lat="32.679559048265219" lon="-4.734696121886373">
        <ele>1477.68359375</ele>
        <time>2011-04-24T06:44:09Z</time>
      </trkpt>
      <trkpt lat="32.67938612960279" lon="-4.734054654836655">
        <ele>1478.164306640625</ele>
        <time>2011-04-24T06:44:16Z</time>
      </trkpt>
      <trkpt lat="32.67898446880281" lon="-4.733205316588283">
        <ele>1482.970703125</ele>
        <time>2011-04-24T06:44:24Z</time>
      </trkpt>
      <trkpt lat="32.678657071664929" lon="-4.732281044125557">
        <ele>1482.490234375</ele>
        <time>2011-04-24T06:44:32Z</time>
      </trkpt>
      <trkpt lat="32.678602756932378" lon="-4.731347551569343">
        <ele>1482.490234375</ele>
        <time>2011-04-24T06:44:39Z</time>
      </trkpt>
      <trkpt lat="32.678812388330698" lon="-4.73025388084352">
        <ele>1482.490234375</ele>
        <time>2011-04-24T06:44:47Z</time>
      </trkpt>
      <trkpt lat="32.679189322516322" lon="-4.728849325329065">
        <ele>1483.93212890625</ele>
        <time>2011-04-24T06:44:58Z</time>
      </trkpt>
      <trkpt lat="32.679323935881257" lon="-4.728336269035935">
        <ele>1484.4130859375</ele>
        <time>2011-04-24T06:45:03Z</time>
      </trkpt>
      <trkpt lat="32.679346483200788" lon="-4.727914156392217">
        <ele>1484.893798828125</ele>
        <time>2011-04-24T06:45:10Z</time>
      </trkpt>
      <trkpt lat="32.679553348571062" lon="-4.727500341832638">
        <ele>1485.374267578125</ele>
        <time>2011-04-24T06:45:20Z</time>
      </trkpt>
      <trkpt lat="32.67964655533433" lon="-4.72719649784267">
        <ele>1485.85498046875</ele>
        <time>2011-04-24T06:45:26Z</time>
      </trkpt>
      <trkpt lat="32.67985132522881" lon="-4.726287480443716">
        <ele>1486.816162109375</ele>
        <time>2011-04-24T06:45:34Z</time>
      </trkpt>
      <trkpt lat="32.680157851427794" lon="-4.725083084776998">
        <ele>1487.777587890625</ele>
        <time>2011-04-24T06:45:42Z</time>
      </trkpt>
      <trkpt lat="32.680444931611419" lon="-4.723591944202781">
        <ele>1485.374267578125</ele>
        <time>2011-04-24T06:45:50Z</time>
      </trkpt>
      <trkpt lat="32.680816920474172" lon="-4.721155073493719">
        <ele>1486.335693359375</ele>
        <time>2011-04-24T06:46:03Z</time>
      </trkpt>
      <trkpt lat="32.681035688146949" lon="-4.719156743958592">
        <ele>1492.103515625</ele>
        <time>2011-04-24T06:46:14Z</time>
      </trkpt>
      <trkpt lat="32.681089835241437" lon="-4.716622726991773">
        <ele>1498.351806640625</ele>
        <time>2011-04-24T06:46:27Z</time>
      </trkpt>
      <trkpt lat="32.681303573772311" lon="-4.715114990249276">
        <ele>1500.75537109375</ele>
        <time>2011-04-24T06:46:35Z</time>
      </trkpt>
      <trkpt lat="32.681597862392664" lon="-4.714046632871032">
        <ele>1504.6005859375</ele>
        <time>2011-04-24T06:46:42Z</time>
      </trkpt>
      <trkpt lat="32.681695846840739" lon="-4.713668273761869">
        <ele>1505.56201171875</ele>
        <time>2011-04-24T06:46:46Z</time>
      </trkpt>
      <trkpt lat="32.681596521288157" lon="-4.713439363986254">
        <ele>1506.04248046875</ele>
        <time>2011-04-24T06:46:53Z</time>
      </trkpt>
      <trkpt lat="32.68117792904377" lon="-4.71342159435153">
        <ele>1549.302001953125</ele>
        <time>2011-04-24T07:06:46Z</time>
      </trkpt>
      <trkpt lat="32.681585121899843" lon="-4.713480854406953">
        <ele>1520.46240234375</ele>
        <time>2011-04-24T07:40:31Z</time>
      </trkpt>
      <trkpt lat="32.681672293692827" lon="-4.713619155809283">
        <ele>1509.4072265625</ele>
        <time>2011-04-24T07:40:49Z</time>
      </trkpt>
      <trkpt lat="32.681562574580312" lon="-4.714244194328785">
        <ele>1508.44580078125</ele>
        <time>2011-04-24T07:40:57Z</time>
      </trkpt>
      <trkpt lat="32.681278847157955" lon="-4.715342223644257">
        <ele>1504.6005859375</ele>
        <time>2011-04-24T07:41:06Z</time>
      </trkpt>
      <trkpt lat="32.68111833371222" lon="-4.716562796384096">
        <ele>1502.197265625</ele>
        <time>2011-04-24T07:41:14Z</time>
      </trkpt>
      <trkpt lat="32.681095283478498" lon="-4.717618329450488">
        <ele>1501.236083984375</ele>
        <time>2011-04-24T07:41:22Z</time>
      </trkpt>
      <trkpt lat="32.681078854948282" lon="-4.718484850600362">
        <ele>1499.7939453125</ele>
        <time>2011-04-24T07:41:31Z</time>
      </trkpt>
      <trkpt lat="32.681054547429085" lon="-4.719367381185293">
        <ele>1497.871337890625</ele>
        <time>2011-04-24T07:41:41Z</time>
      </trkpt>
      <trkpt lat="32.681001825258136" lon="-4.720233818516135">
        <ele>1496.909912109375</ele>
        <time>2011-04-24T07:41:49Z</time>
      </trkpt>
      <trkpt lat="32.680820357054472" lon="-4.721500659361482">
        <ele>1495.94873046875</ele>
        <time>2011-04-24T07:41:59Z</time>
      </trkpt>
      <trkpt lat="32.680635955184698" lon="-4.722727099433541">
        <ele>1495.468017578125</ele>
        <time>2011-04-24T07:42:11Z</time>
      </trkpt>
      <trkpt lat="32.680503437295556" lon="-4.723581550642848">
        <ele>1495.94873046875</ele>
        <time>2011-04-24T07:42:19Z</time>
      </trkpt>
      <trkpt lat="32.680263966321945" lon="-4.724903292953968">
        <ele>1497.871337890625</ele>
        <time>2011-04-24T07:42:30Z</time>
      </trkpt>
      <trkpt lat="32.680064057931304" lon="-4.72564953379333">
        <ele>1496.909912109375</ele>
        <time>2011-04-24T07:42:38Z</time>
      </trkpt>
      <trkpt lat="32.679921146482229" lon="-4.726147251203656">
        <ele>1494.506591796875</ele>
        <time>2011-04-24T07:42:45Z</time>
      </trkpt>
      <trkpt lat="32.679750071838498" lon="-4.72677924670279">
        <ele>1490.661376953125</ele>
        <time>2011-04-24T07:42:53Z</time>
      </trkpt>
      <trkpt lat="32.679485958069563" lon="-4.727694550529122">
        <ele>1486.335693359375</ele>
        <time>2011-04-24T07:43:02Z</time>
      </trkpt>
      <trkpt lat="32.679382357746363" lon="-4.727890267968178">
        <ele>1486.816162109375</ele>
        <time>2011-04-24T07:43:05Z</time>
      </trkpt>
      <trkpt lat="32.679325276985765" lon="-4.728163434192538">
        <ele>1489.219482421875</ele>
        <time>2011-04-24T07:43:10Z</time>
      </trkpt>
      <trkpt lat="32.679306417703629" lon="-4.728537267073989">
        <ele>1488.739013671875</ele>
        <time>2011-04-24T07:43:15Z</time>
      </trkpt>
      <trkpt lat="32.679038364440203" lon="-4.729506466537714">
        <ele>1483.451416015625</ele>
        <time>2011-04-24T07:43:24Z</time>
      </trkpt>
      <trkpt lat="32.678699651733041" lon="-4.730794681236148">
        <ele>1475.2802734375</ele>
        <time>2011-04-24T07:43:35Z</time>
      </trkpt>
      <trkpt lat="32.678645923733711" lon="-4.731900589540601">
        <ele>1477.68359375</ele>
        <time>2011-04-24T07:43:44Z</time>
      </trkpt>
      <trkpt lat="32.678868630900979" lon="-4.732813965529203">
        <ele>1480.0869140625</ele>
        <time>2011-04-24T07:43:52Z</time>
      </trkpt>
      <trkpt lat="32.679361738264561" lon="-4.733842927962542">
        <ele>1481.52880859375</ele>
        <time>2011-04-24T07:44:01Z</time>
      </trkpt>
      <trkpt lat="32.67964362166822" lon="-4.734643567353487">
        <ele>1481.04833984375</ele>
        <time>2011-04-24T07:44:09Z</time>
      </trkpt>
      <trkpt lat="32.67972769215703" lon="-4.735549483448267">
        <ele>1484.4130859375</ele>
        <time>2011-04-24T07:44:17Z</time>
      </trkpt>
      <trkpt lat="32.679613027721643" lon="-4.73662999458611">
        <ele>1486.816162109375</ele>
        <time>2011-04-24T07:44:26Z</time>
      </trkpt>
      <trkpt lat="32.679370120167732" lon="-4.738009236752987">
        <ele>1489.219482421875</ele>
        <time>2011-04-24T07:44:37Z</time>
      </trkpt>
      <trkpt lat="32.67922779545188" lon="-4.739308683201671">
        <ele>1491.622802734375</ele>
        <time>2011-04-24T07:44:48Z</time>
      </trkpt>
      <trkpt lat="32.679351679980755" lon="-4.740210073068738">
        <ele>1494.026123046875</ele>
        <time>2011-04-24T07:44:56Z</time>
      </trkpt>
      <trkpt lat="32.679654434323311" lon="-4.74064065143466">
        <ele>1494.506591796875</ele>
        <time>2011-04-24T07:45:02Z</time>
      </trkpt>
      <trkpt lat="32.679904634132981" lon="-4.740681387484074">
        <ele>1494.026123046875</ele>
        <time>2011-04-24T07:45:05Z</time>
      </trkpt>
      <trkpt lat="32.68092923797667" lon="-4.740688176825643">
        <ele>1493.064697265625</ele>
        <time>2011-04-24T07:45:15Z</time>
      </trkpt>
      <trkpt lat="32.682030787691474" lon="-4.741059578955174">
        <ele>1493.064697265625</ele>
        <time>2011-04-24T07:45:25Z</time>
      </trkpt>
      <trkpt lat="32.682787841185927" lon="-4.741656286641955">
        <ele>1492.103515625</ele>
        <time>2011-04-24T07:45:34Z</time>
      </trkpt>
      <trkpt lat="32.683229399845004" lon="-4.742403281852603">
        <ele>1492.584228515625</ele>
        <time>2011-04-24T07:45:42Z</time>
      </trkpt>
      <trkpt lat="32.683529891073704" lon="-4.742854228243232">
        <ele>1493.54541015625</ele>
        <time>2011-04-24T07:45:49Z</time>
      </trkpt>
      <trkpt lat="32.683931719511747" lon="-4.743104176595807">
        <ele>1492.584228515625</ele>
        <time>2011-04-24T07:45:57Z</time>
      </trkpt>
      <trkpt lat="32.684774184599519" lon="-4.743387987837195">
        <ele>1489.7001953125</ele>
        <time>2011-04-24T07:46:08Z</time>
      </trkpt>
      <trkpt lat="32.685611033812165" lon="-4.743647575378418">
        <ele>1481.04833984375</ele>
        <time>2011-04-24T07:46:18Z</time>
      </trkpt>
      <trkpt lat="32.686380157247186" lon="-4.744081255048513">
        <ele>1477.203125</ele>
        <time>2011-04-24T07:46:28Z</time>
      </trkpt>
      <trkpt lat="32.686985582113266" lon="-4.744721883907914">
        <ele>1473.83837890625</ele>
        <time>2011-04-24T07:46:39Z</time>
      </trkpt>
      <trkpt lat="32.687077866867185" lon="-4.744833195582032">
        <ele>1473.35791015625</ele>
        <time>2011-04-24T07:46:43Z</time>
      </trkpt>
      <trkpt lat="32.687395121902227" lon="-4.745214823633432">
        <ele>1472.396484375</ele>
        <time>2011-04-24T07:46:49Z</time>
      </trkpt>
      <trkpt lat="32.688324423506856" lon="-4.746293742209673">
        <ele>1467.589599609375</ele>
        <time>2011-04-24T07:47:01Z</time>
      </trkpt>
      <trkpt lat="32.688991287723184" lon="-4.747108379378915">
        <ele>1464.22509765625</ele>
        <time>2011-04-24T07:47:10Z</time>
      </trkpt>
      <trkpt lat="32.689776923507452" lon="-4.748065760359168">
        <ele>1468.070556640625</ele>
        <time>2011-04-24T07:47:20Z</time>
      </trkpt>
      <trkpt lat="32.690889285877347" lon="-4.749344754964113">
        <ele>1468.070556640625</ele>
        <time>2011-04-24T07:47:33Z</time>
      </trkpt>
      <trkpt lat="32.691661259159446" lon="-4.750249329954386">
        <ele>1466.62841796875</ele>
        <time>2011-04-24T07:47:43Z</time>
      </trkpt>
      <trkpt lat="32.692517973482609" lon="-4.751241831108928">
        <ele>1465.667236328125</ele>
        <time>2011-04-24T07:47:54Z</time>
      </trkpt>
      <trkpt lat="32.693241667002439" lon="-4.751902827993035">
        <ele>1464.705810546875</ele>
        <time>2011-04-24T07:48:02Z</time>
      </trkpt>
      <trkpt lat="32.694739932194352" lon="-4.752919636666775">
        <ele>1466.147705078125</ele>
        <time>2011-04-24T07:48:16Z</time>
      </trkpt>
      <trkpt lat="32.695553060621023" lon="-4.753161119297147">
        <ele>1466.147705078125</ele>
        <time>2011-04-24T07:48:23Z</time>
      </trkpt>
      <trkpt lat="32.696848986670375" lon="-4.75338508374989">
        <ele>1464.22509765625</ele>
        <time>2011-04-24T07:48:33Z</time>
      </trkpt>
      <trkpt lat="32.697820533066988" lon="-4.75384927354753">
        <ele>1462.783203125</ele>
        <time>2011-04-24T07:48:41Z</time>
      </trkpt>
      <trkpt lat="32.698664339259267" lon="-4.75467212498188">
        <ele>1462.783203125</ele>
        <time>2011-04-24T07:48:49Z</time>
      </trkpt>
      <trkpt lat="32.699283761903644" lon="-4.755747690796852">
        <ele>1464.705810546875</ele>
        <time>2011-04-24T07:48:58Z</time>
      </trkpt>
      <trkpt lat="32.699985494837165" lon="-4.757349723950028">
        <ele>1465.1865234375</ele>
        <time>2011-04-24T07:49:10Z</time>
      </trkpt>
      <trkpt lat="32.700791666284204" lon="-4.759151162579656">
        <ele>1464.22509765625</ele>
        <time>2011-04-24T07:49:23Z</time>
      </trkpt>
      <trkpt lat="32.701106322929263" lon="-4.760309876874089">
        <ele>1464.22509765625</ele>
        <time>2011-04-24T07:49:30Z</time>
      </trkpt>
      <trkpt lat="32.70106709562242" lon="-4.761444870382547">
        <ele>1467.109130859375</ele>
        <time>2011-04-24T07:49:36Z</time>
      </trkpt>
      <trkpt lat="32.700750259682536" lon="-4.76397167891264">
        <ele>1469.5126953125</ele>
        <time>2011-04-24T07:49:49Z</time>
      </trkpt>
      <trkpt lat="32.700801724568009" lon="-4.765109941363335">
        <ele>1468.070556640625</ele>
        <time>2011-04-24T07:49:55Z</time>
      </trkpt>
      <trkpt lat="32.701320732012391" lon="-4.767708498984575">
        <ele>1461.822021484375</ele>
        <time>2011-04-24T07:50:08Z</time>
      </trkpt>
      <trkpt lat="32.702059177681804" lon="-4.771425286307931">
        <ele>1457.976806640625</ele>
        <time>2011-04-24T07:50:26Z</time>
      </trkpt>
      <trkpt lat="32.702496964484453" lon="-4.773525539785624">
        <ele>1459.899169921875</ele>
        <time>2011-04-24T07:50:37Z</time>
      </trkpt>
      <trkpt lat="32.702957130968571" lon="-4.774548970162869">
        <ele>1458.93798828125</ele>
        <time>2011-04-24T07:50:43Z</time>
      </trkpt>
      <trkpt lat="32.704181894659996" lon="-4.776504887267947">
        <ele>1451.247314453125</ele>
        <time>2011-04-24T07:50:55Z</time>
      </trkpt>
      <trkpt lat="32.705547139048576" lon="-4.778737993910909">
        <ele>1446.44091796875</ele>
        <time>2011-04-24T07:51:08Z</time>
      </trkpt>
      <trkpt lat="32.705858275294304" lon="-4.779779026284814">
        <ele>1444.51806640625</ele>
        <time>2011-04-24T07:51:13Z</time>
      </trkpt>
      <trkpt lat="32.705938071012497" lon="-4.781378293409944">
        <ele>1445.960205078125</ele>
        <time>2011-04-24T07:51:20Z</time>
      </trkpt>
      <trkpt lat="32.705993140116334" lon="-4.782797768712044">
        <ele>1448.36328125</ele>
        <time>2011-04-24T07:51:27Z</time>
      </trkpt>
      <trkpt lat="32.706085927784443" lon="-4.784970190376043">
        <ele>1447.402099609375</ele>
        <time>2011-04-24T07:51:38Z</time>
      </trkpt>
      <trkpt lat="32.70619279704988" lon="-4.7874263394624">
        <ele>1449.32470703125</ele>
        <time>2011-04-24T07:51:49Z</time>
      </trkpt>
      <trkpt lat="32.70631399936974" lon="-4.790124641731381">
        <ele>1454.131591796875</ele>
        <time>2011-04-24T07:52:01Z</time>
      </trkpt>
      <trkpt lat="32.706443583592772" lon="-4.793157717213035">
        <ele>1458.457275390625</ele>
        <time>2011-04-24T07:52:14Z</time>
      </trkpt>
      <trkpt lat="32.706573335453868" lon="-4.796642744913697">
        <ele>1461.34130859375</ele>
        <time>2011-04-24T07:52:28Z</time>
      </trkpt>
      <trkpt lat="32.70633109845221" lon="-4.798093568533659">
        <ele>1464.22509765625</ele>
        <time>2011-04-24T07:52:34Z</time>
      </trkpt>
      <trkpt lat="32.705418560653925" lon="-4.801851091906428">
        <ele>1462.783203125</ele>
        <time>2011-04-24T07:52:50Z</time>
      </trkpt>
      <trkpt lat="32.704627476632595" lon="-4.804953988641501">
        <ele>1464.22509765625</ele>
        <time>2011-04-24T07:53:03Z</time>
      </trkpt>
      <trkpt lat="32.703824238851666" lon="-4.806148242205381">
        <ele>1464.705810546875</ele>
        <time>2011-04-24T07:53:09Z</time>
      </trkpt>
      <trkpt lat="32.701049828901887" lon="-4.809694541618228">
        <ele>1464.22509765625</ele>
        <time>2011-04-24T07:53:28Z</time>
      </trkpt>
      <trkpt lat="32.698976062238216" lon="-4.812445649877191">
        <ele>1461.34130859375</ele>
        <time>2011-04-24T07:53:43Z</time>
      </trkpt>
      <trkpt lat="32.698632488027215" lon="-4.813510067760944">
        <ele>1459.418701171875</ele>
        <time>2011-04-24T07:53:48Z</time>
      </trkpt>
      <trkpt lat="32.698284639045596" lon="-4.816338876262307">
        <ele>1469.9931640625</ele>
        <time>2011-04-24T07:54:00Z</time>
      </trkpt>
      <trkpt lat="32.697954727336764" lon="-4.819069616496563">
        <ele>1471.915771484375</ele>
        <time>2011-04-24T07:54:11Z</time>
      </trkpt>
      <trkpt lat="32.697488944977522" lon="-4.822791265323758">
        <ele>1485.374267578125</ele>
        <time>2011-04-24T07:54:25Z</time>
      </trkpt>
      <trkpt lat="32.697447622194886" lon="-4.824663950130343">
        <ele>1490.661376953125</ele>
        <time>2011-04-24T07:54:32Z</time>
      </trkpt>
      <trkpt lat="32.69753085449338" lon="-4.829079788178206">
        <ele>1494.506591796875</ele>
        <time>2011-04-24T07:54:48Z</time>
      </trkpt>
      <trkpt lat="32.697631018236279" lon="-4.834298864006996">
        <ele>1503.639404296875</ele>
        <time>2011-04-24T07:55:07Z</time>
      </trkpt>
      <trkpt lat="32.697714250534773" lon="-4.839152740314603">
        <ele>1506.04248046875</ele>
        <time>2011-04-24T07:55:25Z</time>
      </trkpt>
      <trkpt lat="32.697819443419576" lon="-4.8423355165869">
        <ele>1517.097900390625</ele>
        <time>2011-04-24T07:55:37Z</time>
      </trkpt>
      <trkpt lat="32.698220433667302" lon="-4.84350185841322">
        <ele>1521.904296875</ele>
        <time>2011-04-24T07:55:42Z</time>
      </trkpt>
      <trkpt lat="32.698924262076616" lon="-4.844413474202156">
        <ele>1525.74951171875</ele>
        <time>2011-04-24T07:55:47Z</time>
      </trkpt>
      <trkpt lat="32.701089475303888" lon="-4.846613723784685">
        <ele>1529.5947265625</ele>
        <time>2011-04-24T07:56:01Z</time>
      </trkpt>
      <trkpt lat="32.703731618821621" lon="-4.849330550059676">
        <ele>1539.2080078125</ele>
        <time>2011-04-24T07:56:18Z</time>
      </trkpt>
      <trkpt lat="32.704758821055293" lon="-4.850645335391164">
        <ele>1544.975830078125</ele>
        <time>2011-04-24T07:56:25Z</time>
      </trkpt>
      <trkpt lat="32.705171126872301" lon="-4.851794661954045">
        <ele>1548.8212890625</ele>
        <time>2011-04-24T07:56:30Z</time>
      </trkpt>
      <trkpt lat="32.705786526203156" lon="-4.85460058785975">
        <ele>1550.263427734375</ele>
        <time>2011-04-24T07:56:41Z</time>
      </trkpt>
      <trkpt lat="32.706471998244524" lon="-4.857508186250925">
        <ele>1550.263427734375</ele>
        <time>2011-04-24T07:56:51Z</time>
      </trkpt>
      <trkpt lat="32.707397863268852" lon="-4.861500738188624">
        <ele>1550.263427734375</ele>
        <time>2011-04-24T07:57:04Z</time>
      </trkpt>
      <trkpt lat="32.708323895931244" lon="-4.86551608890295">
        <ele>1558.434326171875</ele>
        <time>2011-04-24T07:57:18Z</time>
      </trkpt>
      <trkpt lat="32.708999058231711" lon="-4.868482695892453">
        <ele>1560.837646484375</ele>
        <time>2011-04-24T07:57:29Z</time>
      </trkpt>
      <trkpt lat="32.709802128374577" lon="-4.871887760236859">
        <ele>1566.605712890625</ele>
        <time>2011-04-24T07:57:42Z</time>
      </trkpt>
      <trkpt lat="32.71059388294816" lon="-4.873271780088544">
        <ele>1565.64453125</ele>
        <time>2011-04-24T07:57:48Z</time>
      </trkpt>
      <trkpt lat="32.712915921583772" lon="-4.876752281561494">
        <ele>1561.318359375</ele>
        <time>2011-04-24T07:58:03Z</time>
      </trkpt>
      <trkpt lat="32.715814970433712" lon="-4.881137441843748">
        <ele>1558.9150390625</ele>
        <time>2011-04-24T07:58:22Z</time>
      </trkpt>
      <trkpt lat="32.717723697423935" lon="-4.884047973901033">
        <ele>1551.224609375</ele>
        <time>2011-04-24T07:58:34Z</time>
      </trkpt>
      <trkpt lat="32.718527019023895" lon="-4.885184392333031">
        <ele>1547.85986328125</ele>
        <time>2011-04-24T07:58:40Z</time>
      </trkpt>
      <trkpt lat="32.719132779166102" lon="-4.885692084208131">
        <ele>1540.16943359375</ele>
        <time>2011-04-24T07:58:45Z</time>
      </trkpt>
      <trkpt lat="32.719699144363403" lon="-4.886044543236494">
        <ele>1538.7275390625</ele>
        <time>2011-04-24T07:58:51Z</time>
      </trkpt>
      <trkpt lat="32.72035226225853" lon="-4.886505967006087">
        <ele>1538.246826171875</ele>
        <time>2011-04-24T07:59:01Z</time>
      </trkpt>
      <trkpt lat="32.72082282230258" lon="-4.887015921995044">
        <ele>1538.246826171875</ele>
        <time>2011-04-24T07:59:08Z</time>
      </trkpt>
      <trkpt lat="32.721375776454806" lon="-4.887845478951931">
        <ele>1538.246826171875</ele>
        <time>2011-04-24T07:59:15Z</time>
      </trkpt>
      <trkpt lat="32.722098380327225" lon="-4.888963457196951">
        <ele>1536.32421875</ele>
        <time>2011-04-24T07:59:22Z</time>
      </trkpt>
      <trkpt lat="32.723209820687771" lon="-4.890662720426917">
        <ele>1531.517333984375</ele>
        <time>2011-04-24T07:59:31Z</time>
      </trkpt>
      <trkpt lat="32.725014863535762" lon="-4.893420534208417">
        <ele>1521.904296875</ele>
        <time>2011-04-24T07:59:44Z</time>
      </trkpt>
      <trkpt lat="32.726837927475572" lon="-4.89621757529676">
        <ele>1512.771728515625</ele>
        <time>2011-04-24T07:59:56Z</time>
      </trkpt>
      <trkpt lat="32.729086959734559" lon="-4.899639654904604">
        <ele>1503.639404296875</ele>
        <time>2011-04-24T08:00:10Z</time>
      </trkpt>
      <trkpt lat="32.731444537639618" lon="-4.903245298191905">
        <ele>1496.909912109375</ele>
        <time>2011-04-24T08:00:25Z</time>
      </trkpt>
      <trkpt lat="32.733637830242515" lon="-4.906594036146998">
        <ele>1492.584228515625</ele>
        <time>2011-04-24T08:00:39Z</time>
      </trkpt>
      <trkpt lat="32.73534975014627" lon="-4.909116653725505">
        <ele>1488.739013671875</ele>
        <time>2011-04-24T08:00:50Z</time>
      </trkpt>
      <trkpt lat="32.736388184130192" lon="-4.909824170172215">
        <ele>1485.85498046875</ele>
        <time>2011-04-24T08:00:55Z</time>
      </trkpt>
      <trkpt lat="32.739860219880939" lon="-4.911259990185499">
        <ele>1469.031982421875</ele>
        <time>2011-04-24T08:01:10Z</time>
      </trkpt>
      <trkpt lat="32.741965586319566" lon="-4.912146460264921">
        <ele>1456.53466796875</ele>
        <time>2011-04-24T08:01:20Z</time>
      </trkpt>
      <trkpt lat="32.743915384635329" lon="-4.912957325577736">
        <ele>1454.612060546875</ele>
        <time>2011-04-24T08:01:30Z</time>
      </trkpt>
      <trkpt lat="32.745109973475337" lon="-4.913157066330314">
        <ele>1456.53466796875</ele>
        <time>2011-04-24T08:01:36Z</time>
      </trkpt>
      <trkpt lat="32.74653933942318" lon="-4.913182044401765">
        <ele>1457.976806640625</ele>
        <time>2011-04-24T08:01:43Z</time>
      </trkpt>
      <trkpt lat="32.747364873066545" lon="-4.913484798744321">
        <ele>1459.418701171875</ele>
        <time>2011-04-24T08:01:47Z</time>
      </trkpt>
      <trkpt lat="32.748103151097894" lon="-4.914075220003724">
        <ele>1462.302490234375</ele>
        <time>2011-04-24T08:01:51Z</time>
      </trkpt>
      <trkpt lat="32.748996075242758" lon="-4.915294954553247">
        <ele>1467.589599609375</ele>
        <time>2011-04-24T08:01:57Z</time>
      </trkpt>
      <trkpt lat="32.750987280160189" lon="-4.918209677562118">
        <ele>1480.567626953125</ele>
        <time>2011-04-24T08:02:11Z</time>
      </trkpt>
      <trkpt lat="32.752624936401844" lon="-4.920579493045807">
        <ele>1489.219482421875</ele>
        <time>2011-04-24T08:02:23Z</time>
      </trkpt>
      <trkpt lat="32.754709180444479" lon="-4.923575352877379">
        <ele>1490.180908203125</ele>
        <time>2011-04-24T08:02:38Z</time>
      </trkpt>
      <trkpt lat="32.756502237170935" lon="-4.925976516678929">
        <ele>1494.026123046875</ele>
        <time>2011-04-24T08:02:50Z</time>
      </trkpt>
      <trkpt lat="32.757315952330828" lon="-4.926484962925315">
        <ele>1494.9873046875</ele>
        <time>2011-04-24T08:02:54Z</time>
      </trkpt>
      <trkpt lat="32.75894028134644" lon="-4.927000785246491">
        <ele>1496.429443359375</ele>
        <time>2011-04-24T08:03:01Z</time>
      </trkpt>
      <trkpt lat="32.762761758640409" lon="-4.92814508266747">
        <ele>1498.351806640625</ele>
        <time>2011-04-24T08:03:17Z</time>
      </trkpt>
      <trkpt lat="32.766372095793486" lon="-4.929234897717834">
        <ele>1492.103515625</ele>
        <time>2011-04-24T08:03:32Z</time>
      </trkpt>
      <trkpt lat="32.768976353108883" lon="-4.930031765252352">
        <ele>1486.816162109375</ele>
        <time>2011-04-24T08:03:43Z</time>
      </trkpt>
      <trkpt lat="32.772229285910726" lon="-4.931024685502052">
        <ele>1487.777587890625</ele>
        <time>2011-04-24T08:03:57Z</time>
      </trkpt>
      <trkpt lat="32.776138689368963" lon="-4.932236624881625">
        <ele>1487.777587890625</ele>
        <time>2011-04-24T08:04:14Z</time>
      </trkpt>
      <trkpt lat="32.779728658497334" lon="-4.933379832655191">
        <ele>1488.739013671875</ele>
        <time>2011-04-24T08:04:29Z</time>
      </trkpt>
      <trkpt lat="32.784100323915482" lon="-4.934762930497527">
        <ele>1490.661376953125</ele>
        <time>2011-04-24T08:04:47Z</time>
      </trkpt>
      <trkpt lat="32.787382090464234" lon="-4.935818128287792">
        <ele>1492.103515625</ele>
        <time>2011-04-24T08:05:01Z</time>
      </trkpt>
      <trkpt lat="32.790624545887113" lon="-4.936922444030643">
        <ele>1495.94873046875</ele>
        <time>2011-04-24T08:05:15Z</time>
      </trkpt>
      <trkpt lat="32.791041294112802" lon="-4.937211284413934">
        <ele>1497.390625</ele>
        <time>2011-04-24T08:05:17Z</time>
      </trkpt>
      <trkpt lat="32.791719138622284" lon="-4.93801636621356">
        <ele>1497.871337890625</ele>
        <time>2011-04-24T08:05:21Z</time>
      </trkpt>
      <trkpt lat="32.793447989970446" lon="-4.940923126414418">
        <ele>1492.103515625</ele>
        <time>2011-04-24T08:05:33Z</time>
      </trkpt>
      <trkpt lat="32.794538056477904" lon="-4.94237344712019">
        <ele>1492.103515625</ele>
        <time>2011-04-24T08:05:40Z</time>
      </trkpt>
      <trkpt lat="32.795870527625084" lon="-4.943082975223661">
        <ele>1494.506591796875</ele>
        <time>2011-04-24T08:05:46Z</time>
      </trkpt>
      <trkpt lat="32.799308449029922" lon="-4.944606386125088">
        <ele>1494.9873046875</ele>
        <time>2011-04-24T08:06:01Z</time>
      </trkpt>
      <trkpt lat="32.801372827962041" lon="-4.94556812569499">
        <ele>1494.506591796875</ele>
        <time>2011-04-24T08:06:11Z</time>
      </trkpt>
      <trkpt lat="32.802493488416076" lon="-4.946400532498956">
        <ele>1494.026123046875</ele>
        <time>2011-04-24T08:06:17Z</time>
      </trkpt>
      <trkpt lat="32.805404020473361" lon="-4.94893379509449">
        <ele>1492.584228515625</ele>
        <time>2011-04-24T08:06:33Z</time>
      </trkpt>
      <trkpt lat="32.80769663862884" lon="-4.950924916192889">
        <ele>1487.296875</ele>
        <time>2011-04-24T08:06:45Z</time>
      </trkpt>
      <trkpt lat="32.810221267864108" lon="-4.953123154118657">
        <ele>1483.451416015625</ele>
        <time>2011-04-24T08:06:58Z</time>
      </trkpt>
      <trkpt lat="32.811584249138832" lon="-4.954311372712255">
        <ele>1480.0869140625</ele>
        <time>2011-04-24T08:07:06Z</time>
      </trkpt>
      <trkpt lat="32.812838684767485" lon="-4.955391129478812">
        <ele>1476.24169921875</ele>
        <time>2011-04-24T08:07:15Z</time>
      </trkpt>
      <trkpt lat="32.814353294670582" lon="-4.956708680838347">
        <ele>1473.35791015625</ele>
        <time>2011-04-24T08:07:27Z</time>
      </trkpt>
      <trkpt lat="32.815837562084198" lon="-4.95799982920289">
        <ele>1470.95458984375</ele>
        <time>2011-04-24T08:07:40Z</time>
      </trkpt>
      <trkpt lat="32.817040281370282" lon="-4.958852352574468">
        <ele>1468.55126953125</ele>
        <time>2011-04-24T08:07:50Z</time>
      </trkpt>
      <trkpt lat="32.817889535799623" lon="-4.959285696968436">
        <ele>1468.070556640625</ele>
        <time>2011-04-24T08:07:58Z</time>
      </trkpt>
      <trkpt lat="32.818610463291407" lon="-4.959553834050894">
        <ele>1468.55126953125</ele>
        <time>2011-04-24T08:08:06Z</time>
      </trkpt>
      <trkpt lat="32.819592822343111" lon="-4.959634384140372">
        <ele>1468.070556640625</ele>
        <time>2011-04-24T08:08:15Z</time>
      </trkpt>
      <trkpt lat="32.820908026769757" lon="-4.959785426035523">
        <ele>1467.589599609375</ele>
        <time>2011-04-24T08:08:26Z</time>
      </trkpt>
      <trkpt lat="32.821748983114958" lon="-4.960245676338673">
        <ele>1468.070556640625</ele>
        <time>2011-04-24T08:08:33Z</time>
      </trkpt>
      <trkpt lat="32.822969220578671" lon="-4.961109180003405">
        <ele>1470.473876953125</ele>
        <time>2011-04-24T08:08:43Z</time>
      </trkpt>
      <trkpt lat="32.823859294876456" lon="-4.96143339201808">
        <ele>1469.031982421875</ele>
        <time>2011-04-24T08:08:50Z</time>
      </trkpt>
      <trkpt lat="32.824812652543187" lon="-4.961442025378346">
        <ele>1466.62841796875</ele>
        <time>2011-04-24T08:08:57Z</time>
      </trkpt>
      <trkpt lat="32.82634561881423" lon="-4.961304478347302">
        <ele>1459.418701171875</ele>
        <time>2011-04-24T08:09:07Z</time>
      </trkpt>
      <trkpt lat="32.828839821740985" lon="-4.961090991273522">
        <ele>1449.805419921875</ele>
        <time>2011-04-24T08:09:22Z</time>
      </trkpt>
      <trkpt lat="32.83103546127677" lon="-4.960926789790392">
        <ele>1447.402099609375</ele>
        <time>2011-04-24T08:09:34Z</time>
      </trkpt>
      <trkpt lat="32.833258593454957" lon="-4.960669130086899">
        <ele>1447.8828125</ele>
        <time>2011-04-24T08:09:45Z</time>
      </trkpt>
      <trkpt lat="32.834205329418182" lon="-4.960141237825155">
        <ele>1451.72802734375</ele>
        <time>2011-04-24T08:09:50Z</time>
      </trkpt>
      <trkpt lat="32.836161246523261" lon="-4.958538617938757">
        <ele>1454.131591796875</ele>
        <time>2011-04-24T08:10:01Z</time>
      </trkpt>
      <trkpt lat="32.838582275435328" lon="-4.956547664478421">
        <ele>1462.783203125</ele>
        <time>2011-04-24T08:10:14Z</time>
      </trkpt>
      <trkpt lat="32.841201452538371" lon="-4.954379098489881">
        <ele>1464.22509765625</ele>
        <time>2011-04-24T08:10:28Z</time>
      </trkpt>
      <trkpt lat="32.843418465927243" lon="-4.952553687617183">
        <ele>1467.589599609375</ele>
        <time>2011-04-24T08:10:40Z</time>
      </trkpt>
      <trkpt lat="32.844403088092804" lon="-4.952008025720716">
        <ele>1466.62841796875</ele>
        <time>2011-04-24T08:10:45Z</time>
      </trkpt>
      <trkpt lat="32.845913926139474" lon="-4.951548026874661">
        <ele>1466.147705078125</ele>
        <time>2011-04-24T08:10:52Z</time>
      </trkpt>
      <trkpt lat="32.846874659880996" lon="-4.951007645577192">
        <ele>1465.1865234375</ele>
        <time>2011-04-24T08:10:57Z</time>
      </trkpt>
      <trkpt lat="32.847826089709997" lon="-4.949993938207626">
        <ele>1458.93798828125</ele>
        <time>2011-04-24T08:11:03Z</time>
      </trkpt>
      <trkpt lat="32.849006596952677" lon="-4.94878082536161">
        <ele>1457.976806640625</ele>
        <time>2011-04-24T08:11:10Z</time>
      </trkpt>
      <trkpt lat="32.85009247250855" lon="-4.948273552581668">
        <ele>1459.418701171875</ele>
        <time>2011-04-24T08:11:15Z</time>
      </trkpt>
      <trkpt lat="32.851542457938194" lon="-4.94798974134028">
        <ele>1462.302490234375</ele>
        <time>2011-04-24T08:11:21Z</time>
      </trkpt>
      <trkpt lat="32.853704737499356" lon="-4.947462687268853">
        <ele>1464.705810546875</ele>
        <time>2011-04-24T08:11:30Z</time>
      </trkpt>
      <trkpt lat="32.856789529323578" lon="-4.946449231356382">
        <ele>1466.62841796875</ele>
        <time>2011-04-24T08:11:43Z</time>
      </trkpt>
      <trkpt lat="32.85907493904233" lon="-4.945733668282628">
        <ele>1474.7998046875</ele>
        <time>2011-04-24T08:11:53Z</time>
      </trkpt>
      <trkpt lat="32.862068116664886" lon="-4.945144085213542">
        <ele>1473.35791015625</ele>
        <time>2011-04-24T08:12:06Z</time>
      </trkpt>
      <trkpt lat="32.865621875971556" lon="-4.944450650364161">
        <ele>1479.606201171875</ele>
        <time>2011-04-24T08:12:21Z</time>
      </trkpt>
      <trkpt lat="32.868735920637846" lon="-4.943902138620615">
        <ele>1482.970703125</ele>
        <time>2011-04-24T08:12:34Z</time>
      </trkpt>
      <trkpt lat="32.870858134701848" lon="-4.943915382027626">
        <ele>1483.451416015625</ele>
        <time>2011-04-24T08:12:43Z</time>
      </trkpt>
      <trkpt lat="32.872871216386557" lon="-4.944517537951469">
        <ele>1481.52880859375</ele>
        <time>2011-04-24T08:12:52Z</time>
      </trkpt>
      <trkpt lat="32.874731747433543" lon="-4.945084825158119">
        <ele>1481.52880859375</ele>
        <time>2011-04-24T08:13:01Z</time>
      </trkpt>
      <trkpt lat="32.87639144808054" lon="-4.945755796507001">
        <ele>1483.93212890625</ele>
        <time>2011-04-24T08:13:10Z</time>
      </trkpt>
      <trkpt lat="32.877462320029736" lon="-4.946701275184751">
        <ele>1485.374267578125</ele>
        <time>2011-04-24T08:13:17Z</time>
      </trkpt>
      <trkpt lat="32.878402434289455" lon="-4.948073979467154">
        <ele>1481.52880859375</ele>
        <time>2011-04-24T08:13:25Z</time>
      </trkpt>
      <trkpt lat="32.879588389769197" lon="-4.949932917952538">
        <ele>1480.567626953125</ele>
        <time>2011-04-24T08:13:36Z</time>
      </trkpt>
      <trkpt lat="32.880663285031915" lon="-4.951627235859633">
        <ele>1480.567626953125</ele>
        <time>2011-04-24T08:13:47Z</time>
      </trkpt>
      <trkpt lat="32.88189978338778" lon="-4.953748276457191">
        <ele>1489.219482421875</ele>
        <time>2011-04-24T08:13:59Z</time>
      </trkpt>
      <trkpt lat="32.882573269307613" lon="-4.955435888841748">
        <ele>1495.94873046875</ele>
        <time>2011-04-24T08:14:08Z</time>
      </trkpt>
      <trkpt lat="32.883471138775349" lon="-4.95759129524231">
        <ele>1505.56201171875</ele>
        <time>2011-04-24T08:14:20Z</time>
      </trkpt>
      <trkpt lat="32.884181924164295" lon="-4.95839218609035">
        <ele>1509.8876953125</ele>
        <time>2011-04-24T08:14:26Z</time>
      </trkpt>
      <trkpt lat="32.8848862554878" lon="-4.959240267053247">
        <ele>1512.771728515625</ele>
        <time>2011-04-24T08:14:32Z</time>
      </trkpt>
      <trkpt lat="32.885246928781271" lon="-4.960171245038509">
        <ele>1516.6171875</ele>
        <time>2011-04-24T08:14:37Z</time>
      </trkpt>
      <trkpt lat="32.885443149134517" lon="-4.961636234074831">
        <ele>1521.904296875</ele>
        <time>2011-04-24T08:14:44Z</time>
      </trkpt>
      <trkpt lat="32.885820167139173" lon="-4.964871061965823">
        <ele>1528.633544921875</ele>
        <time>2011-04-24T08:14:59Z</time>
      </trkpt>
      <trkpt lat="32.88606584072113" lon="-4.966952623799443">
        <ele>1532.95947265625</ele>
        <time>2011-04-24T08:15:09Z</time>
      </trkpt>
      <trkpt lat="32.886228952556849" lon="-4.968306384980679">
        <ele>1537.285400390625</ele>
        <time>2011-04-24T08:15:17Z</time>
      </trkpt>
      <trkpt lat="32.886396758258343" lon="-4.969934988766909">
        <ele>1541.130615234375</ele>
        <time>2011-04-24T08:15:25Z</time>
      </trkpt>
      <trkpt lat="32.886507818475366" lon="-4.972367584705353">
        <ele>1544.0146484375</ele>
        <time>2011-04-24T08:15:35Z</time>
      </trkpt>
      <trkpt lat="32.88669222034514" lon="-4.974255943670869">
        <ele>1544.975830078125</ele>
        <time>2011-04-24T08:15:43Z</time>
      </trkpt>
      <trkpt lat="32.887228662148118" lon="-4.976081186905503">
        <ele>1547.85986328125</ele>
        <time>2011-04-24T08:15:51Z</time>
      </trkpt>
      <trkpt lat="32.888191742822528" lon="-4.979213336482644">
        <ele>1556.51171875</ele>
        <time>2011-04-24T08:16:04Z</time>
      </trkpt>
      <trkpt lat="32.889223890379071" lon="-4.982558134943247">
        <ele>1565.64453125</ele>
        <time>2011-04-24T08:16:18Z</time>
      </trkpt>
      <trkpt lat="32.890358632430434" lon="-4.986289422959089">
        <ele>1573.8154296875</ele>
        <time>2011-04-24T08:16:34Z</time>
      </trkpt>
      <trkpt lat="32.891520699486136" lon="-4.990098495036364">
        <ele>1566.125</ele>
        <time>2011-04-24T08:16:49Z</time>
      </trkpt>
      <trkpt lat="32.892618561163545" lon="-4.99370388686657">
        <ele>1568.047607421875</ele>
        <time>2011-04-24T08:17:03Z</time>
      </trkpt>
      <trkpt lat="32.893781298771501" lon="-4.997496027499437">
        <ele>1572.854248046875</ele>
        <time>2011-04-24T08:17:18Z</time>
      </trkpt>
      <trkpt lat="32.894923416897655" lon="-5.001238379627466">
        <ele>1580.064208984375</ele>
        <time>2011-04-24T08:17:33Z</time>
      </trkpt>
      <trkpt lat="32.896349849179387" lon="-5.005913134664297">
        <ele>1593.5224609375</ele>
        <time>2011-04-24T08:17:52Z</time>
      </trkpt>
      <trkpt lat="32.897673854604363" lon="-5.010251775383949">
        <ele>1602.655029296875</ele>
        <time>2011-04-24T08:18:09Z</time>
      </trkpt>
      <trkpt lat="32.898606676608324" lon="-5.013317875564098">
        <ele>1604.57763671875</ele>
        <time>2011-04-24T08:18:20Z</time>
      </trkpt>
      <trkpt lat="32.900264365598559" lon="-5.018728729337454">
        <ele>1617.074951171875</ele>
        <time>2011-04-24T08:18:39Z</time>
      </trkpt>
      <trkpt lat="32.901059472933412" lon="-5.021323682740331">
        <ele>1625.7265625</ele>
        <time>2011-04-24T08:18:49Z</time>
      </trkpt>
      <trkpt lat="32.90150991640985" lon="-5.022799484431744">
        <ele>1631.01416015625</ele>
        <time>2011-04-24T08:18:56Z</time>
      </trkpt>
      <trkpt lat="32.902137553319335" lon="-5.024459771811962">
        <ele>1636.78173828125</ele>
        <time>2011-04-24T08:19:05Z</time>
      </trkpt>
      <trkpt lat="32.90287071838975" lon="-5.02529569901526">
        <ele>1640.146484375</ele>
        <time>2011-04-24T08:19:11Z</time>
      </trkpt>
      <trkpt lat="32.90442019701004" lon="-5.026783989742398">
        <ele>1640.626953125</ele>
        <time>2011-04-24T08:19:23Z</time>
      </trkpt>
      <trkpt lat="32.9063287563622" lon="-5.02863546833396">
        <ele>1648.317626953125</ele>
        <time>2011-04-24T08:19:37Z</time>
      </trkpt>
      <trkpt lat="32.90794319473207" lon="-5.030213026329875">
        <ele>1657.4501953125</ele>
        <time>2011-04-24T08:19:48Z</time>
      </trkpt>
      <trkpt lat="32.91031108237803" lon="-5.032490389421582">
        <ele>1668.024658203125</ele>
        <time>2011-04-24T08:20:04Z</time>
      </trkpt>
      <trkpt lat="32.912231544032693" lon="-5.034300293773413">
        <ele>1673.31201171875</ele>
        <time>2011-04-24T08:20:16Z</time>
      </trkpt>
      <trkpt lat="32.914364319294691" lon="-5.0363162253052">
        <ele>1682.925048828125</ele>
        <time>2011-04-24T08:20:28Z</time>
      </trkpt>
      <trkpt lat="32.916992297396064" lon="-5.038810260593891">
        <ele>1695.903076171875</ele>
        <time>2011-04-24T08:20:43Z</time>
      </trkpt>
      <trkpt lat="32.919799648225307" lon="-5.041469251736999">
        <ele>1706.9580078125</ele>
        <time>2011-04-24T08:20:59Z</time>
      </trkpt>
      <trkpt lat="32.922959290444851" lon="-5.044464021921158">
        <ele>1721.377685546875</ele>
        <time>2011-04-24T08:21:17Z</time>
      </trkpt>
      <trkpt lat="32.926269387826324" lon="-5.047600865364075">
        <ele>1736.7587890625</ele>
        <time>2011-04-24T08:21:36Z</time>
      </trkpt>
      <trkpt lat="32.927434220910072" lon="-5.048700738698244">
        <ele>1743.007568359375</ele>
        <time>2011-04-24T08:21:44Z</time>
      </trkpt>
      <trkpt lat="32.92870307341218" lon="-5.049893399700522">
        <ele>1748.294677734375</ele>
        <time>2011-04-24T08:21:54Z</time>
      </trkpt>
      <trkpt lat="32.930092960596085" lon="-5.051245065405965">
        <ele>1755.504638671875</ele>
        <time>2011-04-24T08:22:05Z</time>
      </trkpt>
      <trkpt lat="32.930662930011749" lon="-5.052215522155166">
        <ele>1762.714599609375</ele>
        <time>2011-04-24T08:22:11Z</time>
      </trkpt>
      <trkpt lat="32.931218147277832" lon="-5.053552268072963">
        <ele>1771.846923828125</ele>
        <time>2011-04-24T08:22:19Z</time>
      </trkpt>
      <trkpt lat="32.931933794170618" lon="-5.054293647408485">
        <ele>1770.8857421875</ele>
        <time>2011-04-24T08:22:25Z</time>
      </trkpt>
      <trkpt lat="32.932583726942539" lon="-5.054512582719326">
        <ele>1768.482421875</ele>
        <time>2011-04-24T08:22:29Z</time>
      </trkpt>
      <trkpt lat="32.933127796277404" lon="-5.054591037333012">
        <ele>1768.963134765625</ele>
        <time>2011-04-24T08:22:32Z</time>
      </trkpt>
      <trkpt lat="32.934163883328438" lon="-5.055128233507276">
        <ele>1771.3662109375</ele>
        <time>2011-04-24T08:22:38Z</time>
      </trkpt>
      <trkpt lat="32.936282744631171" lon="-5.056569166481495">
        <ele>1778.576416015625</ele>
        <time>2011-04-24T08:22:51Z</time>
      </trkpt>
      <trkpt lat="32.937036948278546" lon="-5.057182889431715">
        <ele>1781.94091796875</ele>
        <time>2011-04-24T08:22:56Z</time>
      </trkpt>
      <trkpt lat="32.938073622062802" lon="-5.057582454755902">
        <ele>1787.708740234375</ele>
        <time>2011-04-24T08:23:02Z</time>
      </trkpt>
      <trkpt lat="32.938420884311199" lon="-5.057691168040037">
        <ele>1789.631591796875</ele>
        <time>2011-04-24T08:23:04Z</time>
      </trkpt>
      <trkpt lat="32.939051790162921" lon="-5.05836708471179">
        <ele>1792.515625</ele>
        <time>2011-04-24T08:23:09Z</time>
      </trkpt>
      <trkpt lat="32.939119432121515" lon="-5.058568669483066">
        <ele>1793.476806640625</ele>
        <time>2011-04-24T08:23:10Z</time>
      </trkpt>
      <trkpt lat="32.939602732658386" lon="-5.060247061774135">
        <ele>1801.167236328125</ele>
        <time>2011-04-24T08:23:18Z</time>
      </trkpt>
      <trkpt lat="32.940225843340158" lon="-5.060828598216176">
        <ele>1806.45458984375</ele>
        <time>2011-04-24T08:23:23Z</time>
      </trkpt>
      <trkpt lat="32.94071358628571" lon="-5.060788951814175">
        <ele>1808.377197265625</ele>
        <time>2011-04-24T08:23:26Z</time>
      </trkpt>
      <trkpt lat="32.942985249683261" lon="-5.060128541663289">
        <ele>1821.35498046875</ele>
        <time>2011-04-24T08:23:39Z</time>
      </trkpt>
      <trkpt lat="32.94542002491653" lon="-5.059370482340455">
        <ele>1836.255615234375</ele>
        <time>2011-04-24T08:23:53Z</time>
      </trkpt>
      <trkpt lat="32.945581460371614" lon="-5.059299068525434">
        <ele>1837.216796875</ele>
        <time>2011-04-24T08:23:54Z</time>
      </trkpt>
      <trkpt lat="32.947182236239314" lon="-5.058248145505786">
        <ele>1844.9072265625</ele>
        <time>2011-04-24T08:24:04Z</time>
      </trkpt>
      <trkpt lat="32.949168998748064" lon="-5.056929169222713">
        <ele>1855.96240234375</ele>
        <time>2011-04-24T08:24:15Z</time>
      </trkpt>
      <trkpt lat="32.951668733730912" lon="-5.055284723639488">
        <ele>1866.536865234375</ele>
        <time>2011-04-24T08:24:28Z</time>
      </trkpt>
      <trkpt lat="32.953850878402591" lon="-5.053835073485971">
        <ele>1872.78564453125</ele>
        <time>2011-04-24T08:24:40Z</time>
      </trkpt>
      <trkpt lat="32.954975226894021" lon="-5.053303493186832">
        <ele>1872.304931640625</ele>
        <time>2011-04-24T08:24:46Z</time>
      </trkpt>
      <trkpt lat="32.956748753786087" lon="-5.052899569272995">
        <ele>1878.07275390625</ele>
        <time>2011-04-24T08:24:55Z</time>
      </trkpt>
      <trkpt lat="32.958225142210722" lon="-5.053012641146779">
        <ele>1880.956787109375</ele>
        <time>2011-04-24T08:25:03Z</time>
      </trkpt>
      <trkpt lat="32.959044557064772" lon="-5.05346367135644">
        <ele>1883.840576171875</ele>
        <time>2011-04-24T08:25:08Z</time>
      </trkpt>
      <trkpt lat="32.96087097376585" lon="-5.054826317355037">
        <ele>1897.77978515625</ele>
        <time>2011-04-24T08:25:20Z</time>
      </trkpt>
      <trkpt lat="32.962352642789483" lon="-5.055849831551313">
        <ele>1909.796142578125</ele>
        <time>2011-04-24T08:25:30Z</time>
      </trkpt>
      <trkpt lat="32.963199969381094" lon="-5.056043453514576">
        <ele>1917.00634765625</ele>
        <time>2011-04-24T08:25:35Z</time>
      </trkpt>
      <trkpt lat="32.9646001663059" lon="-5.056387698277831">
        <ele>1929.98388671875</ele>
        <time>2011-04-24T08:25:43Z</time>
      </trkpt>
      <trkpt lat="32.966537727043033" lon="-5.057168221101165">
        <ele>1948.2490234375</ele>
        <time>2011-04-24T08:25:54Z</time>
      </trkpt>
      <trkpt lat="32.96853655949235" lon="-5.057932399213314">
        <ele>1966.994873046875</ele>
        <time>2011-04-24T08:26:05Z</time>
      </trkpt>
      <trkpt lat="32.969173919409513" lon="-5.058171534910798">
        <ele>1971.320556640625</ele>
        <time>2011-04-24T08:26:09Z</time>
      </trkpt>
      <trkpt lat="32.96980164013803" lon="-5.05801915191114">
        <ele>1975.165771484375</ele>
        <time>2011-04-24T08:26:14Z</time>
      </trkpt>
      <trkpt lat="32.96989249996841" lon="-5.057914461940527">
        <ele>1976.127197265625</ele>
        <time>2011-04-24T08:26:15Z</time>
      </trkpt>
      <trkpt lat="32.97060152515769" lon="-5.057482374832034">
        <ele>1981.41455078125</ele>
        <time>2011-04-24T08:26:21Z</time>
      </trkpt>
      <trkpt lat="32.971056830137968" lon="-5.057443985715509">
        <ele>1983.337158203125</ele>
        <time>2011-04-24T08:26:24Z</time>
      </trkpt>
      <trkpt lat="32.971949838101864" lon="-5.057082138955593">
        <ele>1989.585693359375</ele>
        <time>2011-04-24T08:26:30Z</time>
      </trkpt>
      <trkpt lat="32.972094928845763" lon="-5.057018268853426">
        <ele>1990.546875</ele>
        <time>2011-04-24T08:26:31Z</time>
      </trkpt>
      <trkpt lat="32.972662383690476" lon="-5.057184230536223">
        <ele>1995.353515625</ele>
        <time>2011-04-24T08:26:36Z</time>
      </trkpt>
      <trkpt lat="32.9727094899863" lon="-5.057293698191643">
        <ele>1995.834228515625</ele>
        <time>2011-04-24T08:26:37Z</time>
      </trkpt>
      <trkpt lat="32.972805965691805" lon="-5.057524451985955">
        <ele>1997.2763671875</ele>
        <time>2011-04-24T08:26:39Z</time>
      </trkpt>
      <trkpt lat="32.973438799381256" lon="-5.058104647323489">
        <ele>2002.5634765625</ele>
        <time>2011-04-24T08:26:45Z</time>
      </trkpt>
      <trkpt lat="32.974064256995916" lon="-5.058557940647006">
        <ele>2007.850830078125</ele>
        <time>2011-04-24T08:26:50Z</time>
      </trkpt>
      <trkpt lat="32.974308924749494" lon="-5.059191193431616">
        <ele>2012.1767578125</ele>
        <time>2011-04-24T08:26:55Z</time>
      </trkpt>
      <trkpt lat="32.974272463470697" lon="-5.059501323848963">
        <ele>2013.61865234375</ele>
        <time>2011-04-24T08:26:57Z</time>
      </trkpt>
      <trkpt lat="32.974540265277028" lon="-5.060128625482321">
        <ele>2017.4638671875</ele>
        <time>2011-04-24T08:27:02Z</time>
      </trkpt>
      <trkpt lat="32.97466448508203" lon="-5.06019945256412">
        <ele>2018.42529296875</ele>
        <time>2011-04-24T08:27:03Z</time>
      </trkpt>
      <trkpt lat="32.975633516907692" lon="-5.060657439753413">
        <ele>2025.635009765625</ele>
        <time>2011-04-24T08:27:10Z</time>
      </trkpt>
      <trkpt lat="32.976120170205832" lon="-5.06104476749897">
        <ele>2028.999755859375</ele>
        <time>2011-04-24T08:27:14Z</time>
      </trkpt>
      <trkpt lat="32.976604225113988" lon="-5.061717499047518">
        <ele>2032.844970703125</ele>
        <time>2011-04-24T08:27:19Z</time>
      </trkpt>
      <trkpt lat="32.976969089359045" lon="-5.062727937474847">
        <ele>2032.844970703125</ele>
        <time>2011-04-24T08:27:25Z</time>
      </trkpt>
      <trkpt lat="32.977187857031822" lon="-5.063232528045774">
        <ele>2032.364501953125</ele>
        <time>2011-04-24T08:27:28Z</time>
      </trkpt>
      <trkpt lat="32.977787749841809" lon="-5.063795791938901">
        <ele>2034.287109375</ele>
        <time>2011-04-24T08:27:33Z</time>
      </trkpt>
      <trkpt lat="32.978313378989697" lon="-5.064073568210006">
        <ele>2036.209716796875</ele>
        <time>2011-04-24T08:27:37Z</time>
      </trkpt>
      <trkpt lat="32.978921737521887" lon="-5.06478913128376">
        <ele>2036.209716796875</ele>
        <time>2011-04-24T08:27:43Z</time>
      </trkpt>
      <trkpt lat="32.979509057477117" lon="-5.065560936927795">
        <ele>2038.13232421875</ele>
        <time>2011-04-24T08:27:49Z</time>
      </trkpt>
      <trkpt lat="32.980057233944535" lon="-5.065841060131788">
        <ele>2040.535400390625</ele>
        <time>2011-04-24T08:27:54Z</time>
      </trkpt>
      <trkpt lat="32.980190170928836" lon="-5.065826559439302">
        <ele>2041.01611328125</ele>
        <time>2011-04-24T08:27:55Z</time>
      </trkpt>
      <trkpt lat="32.981166327372193" lon="-5.065653473138809">
        <ele>2043.41943359375</ele>
        <time>2011-04-24T08:28:02Z</time>
      </trkpt>
      <trkpt lat="32.981790192425251" lon="-5.065855141729116">
        <ele>2047.264892578125</ele>
        <time>2011-04-24T08:28:07Z</time>
      </trkpt>
      <trkpt lat="32.981960931792855" lon="-5.066116321831942">
        <ele>2048.22607421875</ele>
        <time>2011-04-24T08:28:09Z</time>
      </trkpt>
      <trkpt lat="32.982179196551442" lon="-5.066553018987179">
        <ele>2049.668212890625</ele>
        <time>2011-04-24T08:28:12Z</time>
      </trkpt>
      <trkpt lat="32.98268529586494" lon="-5.067035732790828">
        <ele>2053.994140625</ele>
        <time>2011-04-24T08:28:17Z</time>
      </trkpt>
      <trkpt lat="32.983072958886623" lon="-5.06719222292304">
        <ele>2057.358642578125</ele>
        <time>2011-04-24T08:28:20Z</time>
      </trkpt>
      <trkpt lat="32.983561959117651" lon="-5.067194066941738">
        <ele>2061.2041015625</ele>
        <time>2011-04-24T08:28:24Z</time>
      </trkpt>
      <trkpt lat="32.984075099229813" lon="-5.067480141296983">
        <ele>2063.607177734375</ele>
        <time>2011-04-24T08:28:29Z</time>
      </trkpt>
      <trkpt lat="32.984254723414779" lon="-5.067706368863583">
        <ele>2064.087890625</ele>
        <time>2011-04-24T08:28:31Z</time>
      </trkpt>
      <trkpt lat="32.985053770244122" lon="-5.068220179527998">
        <ele>2069.375244140625</ele>
        <time>2011-04-24T08:28:37Z</time>
      </trkpt>
      <trkpt lat="32.985195675864816" lon="-5.068307686597109">
        <ele>2070.817138671875</ele>
        <time>2011-04-24T08:28:38Z</time>
      </trkpt>
      <trkpt lat="32.985636396333575" lon="-5.06881152279675">
        <ele>2072.73974609375</ele>
        <time>2011-04-24T08:28:42Z</time>
      </trkpt>
      <trkpt lat="32.986583719030023" lon="-5.070353792980313">
        <ele>2080.9111328125</ele>
        <time>2011-04-24T08:28:52Z</time>
      </trkpt>
      <trkpt lat="32.986735263839364" lon="-5.07068345323205">
        <ele>2082.35302734375</ele>
        <time>2011-04-24T08:28:54Z</time>
      </trkpt>
      <trkpt lat="32.987332222983241" lon="-5.071224924176931">
        <ele>2086.1982421875</ele>
        <time>2011-04-24T08:28:59Z</time>
      </trkpt>
      <trkpt lat="32.987823570147157" lon="-5.071201371029019">
        <ele>2088.120849609375</ele>
        <time>2011-04-24T08:29:02Z</time>
      </trkpt>
      <trkpt lat="32.989633558318019" lon="-5.070796860381961">
        <ele>2097.734130859375</ele>
        <time>2011-04-24T08:29:13Z</time>
      </trkpt>
      <trkpt lat="32.991570951417089" lon="-5.070381285622716">
        <ele>2106.866455078125</ele>
        <time>2011-04-24T08:29:25Z</time>
      </trkpt>
      <trkpt lat="32.9923474509269" lon="-5.070262681692839">
        <ele>2111.192626953125</ele>
        <time>2011-04-24T08:29:30Z</time>
      </trkpt>
      <trkpt lat="32.993450174108148" lon="-5.070537189021707">
        <ele>2116.96044921875</ele>
        <time>2011-04-24T08:29:37Z</time>
      </trkpt>
      <trkpt lat="32.993602892383933" lon="-5.070598963648081">
        <ele>2117.44091796875</ele>
        <time>2011-04-24T08:29:38Z</time>
      </trkpt>
      <trkpt lat="32.994148470461369" lon="-5.071013364940882">
        <ele>2120.324951171875</ele>
        <time>2011-04-24T08:29:42Z</time>
      </trkpt>
      <trkpt lat="32.994620455428958" lon="-5.071557182818651">
        <ele>2123.208984375</ele>
        <time>2011-04-24T08:29:46Z</time>
      </trkpt>
      <trkpt lat="32.99508472904563" lon="-5.072539038956165">
        <ele>2126.57373046875</ele>
        <time>2011-04-24T08:29:52Z</time>
      </trkpt>
      <trkpt lat="32.995669366791844" lon="-5.073109678924084">
        <ele>2128.496337890625</ele>
        <time>2011-04-24T08:29:57Z</time>
      </trkpt>
      <trkpt lat="32.995998524129391" lon="-5.073161981999874">
        <ele>2130.4189453125</ele>
        <time>2011-04-24T08:29:59Z</time>
      </trkpt>
      <trkpt lat="32.996659940108657" lon="-5.073197018355131">
        <ele>2134.26416015625</ele>
        <time>2011-04-24T08:30:03Z</time>
      </trkpt>
      <trkpt lat="32.997232675552368" lon="-5.073467586189508">
        <ele>2137.14794921875</ele>
        <time>2011-04-24T08:30:07Z</time>
      </trkpt>
      <trkpt lat="32.998004732653499" lon="-5.073625920340419">
        <ele>2140.993408203125</ele>
        <time>2011-04-24T08:30:12Z</time>
      </trkpt>
      <trkpt lat="32.998816268518567" lon="-5.073632039129734">
        <ele>2146.28076171875</ele>
        <time>2011-04-24T08:30:17Z</time>
      </trkpt>
      <trkpt lat="32.99929479137063" lon="-5.074056750163436">
        <ele>2149.16455078125</ele>
        <time>2011-04-24T08:30:22Z</time>
      </trkpt>
      <trkpt lat="32.9999128729105" lon="-5.074599478393793">
        <ele>2152.529052734375</ele>
        <time>2011-04-24T08:30:28Z</time>
      </trkpt>
      <trkpt lat="33.000293662771583" lon="-5.074404682964087">
        <ele>2153.490478515625</ele>
        <time>2011-04-24T08:30:31Z</time>
      </trkpt>
      <trkpt lat="33.000403381884098" lon="-5.074292030185461">
        <ele>2154.45166015625</ele>
        <time>2011-04-24T08:30:32Z</time>
      </trkpt>
      <trkpt lat="33.000731533393264" lon="-5.07393823005259">
        <ele>2156.855224609375</ele>
        <time>2011-04-24T08:30:35Z</time>
      </trkpt>
      <trkpt lat="33.001279542222619" lon="-5.073717953637242">
        <ele>2159.739013671875</ele>
        <time>2011-04-24T08:30:39Z</time>
      </trkpt>
      <trkpt lat="33.002638667821884" lon="-5.073426431044936">
        <ele>2163.584228515625</ele>
        <time>2011-04-24T08:30:47Z</time>
      </trkpt>
      <trkpt lat="33.003946579992771" lon="-5.072892922908068">
        <ele>2171.274658203125</ele>
        <time>2011-04-24T08:30:55Z</time>
      </trkpt>
      <trkpt lat="33.005001358687878" lon="-5.072863083332777">
        <ele>2173.19775390625</ele>
        <time>2011-04-24T08:31:01Z</time>
      </trkpt>
      <trkpt lat="33.006432484835386" lon="-5.072831148281694">
        <ele>2180.407470703125</ele>
        <time>2011-04-24T08:31:09Z</time>
      </trkpt>
      <trkpt lat="33.008479345589876" lon="-5.072384644299746">
        <ele>2187.6171875</ele>
        <time>2011-04-24T08:31:21Z</time>
      </trkpt>
      <trkpt lat="33.010425372049212" lon="-5.072067640721798">
        <ele>2193.38525390625</ele>
        <time>2011-04-24T08:31:32Z</time>
      </trkpt>
      <trkpt lat="33.012115666642785" lon="-5.072151040658355">
        <ele>2193.38525390625</ele>
        <time>2011-04-24T08:31:41Z</time>
      </trkpt>
      <trkpt lat="33.013196680694818" lon="-5.072188088670373">
        <ele>2191.943359375</ele>
        <time>2011-04-24T08:31:48Z</time>
      </trkpt>
      <trkpt lat="33.014260763302445" lon="-5.07198709063232">
        <ele>2190.020751953125</ele>
        <time>2011-04-24T08:31:56Z</time>
      </trkpt>
      <trkpt lat="33.014667872339487" lon="-5.071875443682075">
        <ele>2189.059326171875</ele>
        <time>2011-04-24T08:31:59Z</time>
      </trkpt>
      <trkpt lat="33.015803871676326" lon="-5.071998741477728">
        <ele>2189.059326171875</ele>
        <time>2011-04-24T08:32:06Z</time>
      </trkpt>
      <trkpt lat="33.017377490177751" lon="-5.072373999282718">
        <ele>2195.78857421875</ele>
        <time>2011-04-24T08:32:15Z</time>
      </trkpt>
      <trkpt lat="33.017683178186417" lon="-5.072461841627955">
        <ele>2196.269287109375</ele>
        <time>2011-04-24T08:32:17Z</time>
      </trkpt>
      <trkpt lat="33.01837183535099" lon="-5.072924941778183">
        <ele>2199.153076171875</ele>
        <time>2011-04-24T08:32:22Z</time>
      </trkpt>
      <trkpt lat="33.019260317087173" lon="-5.073186373338103">
        <ele>2202.036865234375</ele>
        <time>2011-04-24T08:32:28Z</time>
      </trkpt>
      <trkpt lat="33.019414292648435" lon="-5.073205819353461">
        <ele>2202.517578125</ele>
        <time>2011-04-24T08:32:29Z</time>
      </trkpt>
      <trkpt lat="33.020001528784633" lon="-5.073082773014903">
        <ele>2202.998291015625</ele>
        <time>2011-04-24T08:32:33Z</time>
      </trkpt>
      <trkpt lat="33.020874839276075" lon="-5.072625540196896">
        <ele>2201.556396484375</ele>
        <time>2011-04-24T08:32:39Z</time>
      </trkpt>
      <trkpt lat="33.022197922691703" lon="-5.072503834962845">
        <ele>2198.67236328125</ele>
        <time>2011-04-24T08:32:47Z</time>
      </trkpt>
      <trkpt lat="33.023990727961063" lon="-5.072547672316432">
        <ele>2185.2138671875</ele>
        <time>2011-04-24T08:32:58Z</time>
      </trkpt>
      <trkpt lat="33.025438617914915" lon="-5.072473660111427">
        <ele>2171.75537109375</ele>
        <time>2011-04-24T08:33:06Z</time>
      </trkpt>
      <trkpt lat="33.026552656665444" lon="-5.072136288508773">
        <ele>2163.103759765625</ele>
        <time>2011-04-24T08:33:12Z</time>
      </trkpt>
      <trkpt lat="33.027077866718173" lon="-5.071885669603944">
        <ele>2160.700439453125</ele>
        <time>2011-04-24T08:33:15Z</time>
      </trkpt>
      <trkpt lat="33.02775789052248" lon="-5.071791121736169">
        <ele>2157.3359375</ele>
        <time>2011-04-24T08:33:19Z</time>
      </trkpt>
      <trkpt lat="33.028431376442313" lon="-5.071800258010626">
        <ele>2152.529052734375</ele>
        <time>2011-04-24T08:33:23Z</time>
      </trkpt>
      <trkpt lat="33.029216257855296" lon="-5.071402536705136">
        <ele>2146.76123046875</ele>
        <time>2011-04-24T08:33:28Z</time>
      </trkpt>
      <trkpt lat="33.030529450625181" lon="-5.069928746670485">
        <ele>2145.800048828125</ele>
        <time>2011-04-24T08:33:37Z</time>
      </trkpt>
      <trkpt lat="33.031670479103923" lon="-5.068366443738341">
        <ele>2148.203125</ele>
        <time>2011-04-24T08:33:45Z</time>
      </trkpt>
      <trkpt lat="33.032469274476171" lon="-5.066761896014214">
        <ele>2150.6064453125</ele>
        <time>2011-04-24T08:33:52Z</time>
      </trkpt>
      <trkpt lat="33.03293346427381" lon="-5.065468149259687">
        <ele>2157.3359375</ele>
        <time>2011-04-24T08:33:58Z</time>
      </trkpt>
      <trkpt lat="33.033306542783976" lon="-5.064918799325824">
        <ele>2158.297119140625</ele>
        <time>2011-04-24T08:34:02Z</time>
      </trkpt>
      <trkpt lat="33.034489480778575" lon="-5.063805347308517">
        <ele>2153.009765625</ele>
        <time>2011-04-24T08:34:10Z</time>
      </trkpt>
      <trkpt lat="33.036701381206512" lon="-5.061714565381408">
        <ele>2151.087158203125</ele>
        <time>2011-04-24T08:34:23Z</time>
      </trkpt>
      <trkpt lat="33.038055645301938" lon="-5.060650566592813">
        <ele>2151.087158203125</ele>
        <time>2011-04-24T08:34:31Z</time>
      </trkpt>
      <trkpt lat="33.04009672254324" lon="-5.059453379362822">
        <ele>2147.72265625</ele>
        <time>2011-04-24T08:34:42Z</time>
      </trkpt>
      <trkpt lat="33.040613131597638" lon="-5.05908046849072">
        <ele>2148.683837890625</ele>
        <time>2011-04-24T08:34:45Z</time>
      </trkpt>
      <trkpt lat="33.041166085749865" lon="-5.058339759707451">
        <ele>2149.645263671875</ele>
        <time>2011-04-24T08:34:49Z</time>
      </trkpt>
      <trkpt lat="33.042744565755129" lon="-5.055362340062857">
        <ele>2153.009765625</ele>
        <time>2011-04-24T08:35:02Z</time>
      </trkpt>
      <trkpt lat="33.044067565351725" lon="-5.053184386342764">
        <ele>2149.645263671875</ele>
        <time>2011-04-24T08:35:12Z</time>
      </trkpt>
      <trkpt lat="33.045550994575024" lon="-5.050887241959572">
        <ele>2148.203125</ele>
        <time>2011-04-24T08:35:23Z</time>
      </trkpt>
      <trkpt lat="33.04593094624579" lon="-5.05026119761169">
        <ele>2149.16455078125</ele>
        <time>2011-04-24T08:35:26Z</time>
      </trkpt>
      <trkpt lat="33.046224480494857" lon="-5.049152774736285">
        <ele>2150.1259765625</ele>
        <time>2011-04-24T08:35:31Z</time>
      </trkpt>
      <trkpt lat="33.046591524034739" lon="-5.047943349927664">
        <ele>2148.683837890625</ele>
        <time>2011-04-24T08:35:37Z</time>
      </trkpt>
      <trkpt lat="33.047146489843726" lon="-5.047116223722696">
        <ele>2143.396728515625</ele>
        <time>2011-04-24T08:35:42Z</time>
      </trkpt>
      <trkpt lat="33.048791857436299" lon="-5.045377817004919">
        <ele>2126.57373046875</ele>
        <time>2011-04-24T08:35:53Z</time>
      </trkpt>
      <trkpt lat="33.050279645249248" lon="-5.043991366401315">
        <ele>2117.44091796875</ele>
        <time>2011-04-24T08:36:02Z</time>
      </trkpt>
      <trkpt lat="33.053086576983333" lon="-5.041846185922623">
        <ele>2110.231201171875</ele>
        <time>2011-04-24T08:36:17Z</time>
      </trkpt>
      <trkpt lat="33.055058671161532" lon="-5.040323948487639">
        <ele>2109.27001953125</ele>
        <time>2011-04-24T08:36:27Z</time>
      </trkpt>
      <trkpt lat="33.058272460475564" lon="-5.037860088050365">
        <ele>2114.076416015625</ele>
        <time>2011-04-24T08:36:43Z</time>
      </trkpt>
      <trkpt lat="33.059658240526915" lon="-5.03701938316226">
        <ele>2111.67333984375</ele>
        <time>2011-04-24T08:36:50Z</time>
      </trkpt>
      <trkpt lat="33.060034671798348" lon="-5.036792820319533">
        <ele>2110.7119140625</ele>
        <time>2011-04-24T08:36:52Z</time>
      </trkpt>
      <trkpt lat="33.060745541006327" lon="-5.035893023014069">
        <ele>2109.75048828125</ele>
        <time>2011-04-24T08:36:57Z</time>
      </trkpt>
      <trkpt lat="33.06131592951715" lon="-5.034779068082571">
        <ele>2108.789306640625</ele>
        <time>2011-04-24T08:37:02Z</time>
      </trkpt>
      <trkpt lat="33.06191498413682" lon="-5.034184120595455">
        <ele>2108.30859375</ele>
        <time>2011-04-24T08:37:06Z</time>
      </trkpt>
      <trkpt lat="33.064008448272943" lon="-5.032864641398192">
        <ele>2107.34716796875</ele>
        <time>2011-04-24T08:37:17Z</time>
      </trkpt>
      <trkpt lat="33.065615594387054" lon="-5.031601488590241">
        <ele>2105.905029296875</ele>
        <time>2011-04-24T08:37:26Z</time>
      </trkpt>
      <trkpt lat="33.066526036709547" lon="-5.030209757387638">
        <ele>2106.866455078125</ele>
        <time>2011-04-24T08:37:33Z</time>
      </trkpt>
      <trkpt lat="33.066663332283497" lon="-5.030033234506846">
        <ele>2106.3857421875</ele>
        <time>2011-04-24T08:37:34Z</time>
      </trkpt>
      <trkpt lat="33.067714590579271" lon="-5.029194122180343">
        <ele>2106.3857421875</ele>
        <time>2011-04-24T08:37:40Z</time>
      </trkpt>
      <trkpt lat="33.06851196102798" lon="-5.028314189985395">
        <ele>2106.866455078125</ele>
        <time>2011-04-24T08:37:45Z</time>
      </trkpt>
      <trkpt lat="33.070072587579489" lon="-5.026349639520049">
        <ele>2106.3857421875</ele>
        <time>2011-04-24T08:37:55Z</time>
      </trkpt>
      <trkpt lat="33.07114714756608" lon="-5.025136275216937">
        <ele>2106.3857421875</ele>
        <time>2011-04-24T08:38:02Z</time>
      </trkpt>
      <trkpt lat="33.07181996293366" lon="-5.024578962475061">
        <ele>2105.424560546875</ele>
        <time>2011-04-24T08:38:06Z</time>
      </trkpt>
      <trkpt lat="33.07257735170424" lon="-5.023373896256089">
        <ele>2106.3857421875</ele>
        <time>2011-04-24T08:38:12Z</time>
      </trkpt>
      <trkpt lat="33.073354437947273" lon="-5.022238483652473">
        <ele>2106.3857421875</ele>
        <time>2011-04-24T08:38:18Z</time>
      </trkpt>
      <trkpt lat="33.075047833845019" lon="-5.02065715380013">
        <ele>2105.424560546875</ele>
        <time>2011-04-24T08:38:28Z</time>
      </trkpt>
      <trkpt lat="33.076585745438933" lon="-5.019730534404516">
        <ele>2106.3857421875</ele>
        <time>2011-04-24T08:38:36Z</time>
      </trkpt>
      <trkpt lat="33.077805396169424" lon="-5.019484022632241">
        <ele>2106.3857421875</ele>
        <time>2011-04-24T08:38:42Z</time>
      </trkpt>
      <trkpt lat="33.077998096123338" lon="-5.019442280754447">
        <ele>2106.866455078125</ele>
        <time>2011-04-24T08:38:43Z</time>
      </trkpt>
      <trkpt lat="33.078792197629809" lon="-5.018944228067994">
        <ele>2106.866455078125</ele>
        <time>2011-04-24T08:38:48Z</time>
      </trkpt>
      <trkpt lat="33.080194070935249" lon="-5.017747292295098">
        <ele>2101.579345703125</ele>
        <time>2011-04-24T08:38:57Z</time>
      </trkpt>
      <trkpt lat="33.081094119697809" lon="-5.017453171312809">
        <ele>2097.734130859375</ele>
        <time>2011-04-24T08:39:02Z</time>
      </trkpt>
      <trkpt lat="33.081285981461406" lon="-5.017456440255046">
        <ele>2097.25341796875</ele>
        <time>2011-04-24T08:39:03Z</time>
      </trkpt>
      <trkpt lat="33.083551861345768" lon="-5.01767554320395">
        <ele>2087.159423828125</ele>
        <time>2011-04-24T08:39:14Z</time>
      </trkpt>
      <trkpt lat="33.086394248530269" lon="-5.017932867631316">
        <ele>2074.181640625</ele>
        <time>2011-04-24T08:39:27Z</time>
      </trkpt>
      <trkpt lat="33.088470781221986" lon="-5.018248446285725">
        <ele>2067.452392578125</ele>
        <time>2011-04-24T08:39:36Z</time>
      </trkpt>
      <trkpt lat="33.089920682832599" lon="-5.018708277493715">
        <ele>2064.087890625</ele>
        <time>2011-04-24T08:39:43Z</time>
      </trkpt>
      <trkpt lat="33.090756526216865" lon="-5.019270870834589">
        <ele>2063.126708984375</ele>
        <time>2011-04-24T08:39:48Z</time>
      </trkpt>
      <trkpt lat="33.090894827619195" lon="-5.019439263269305">
        <ele>2063.126708984375</ele>
        <time>2011-04-24T08:39:49Z</time>
      </trkpt>
      <trkpt lat="33.091948768123984" lon="-5.020578028634191">
        <ele>2060.24267578125</ele>
        <time>2011-04-24T08:39:56Z</time>
      </trkpt>
      <trkpt lat="33.092922242358327" lon="-5.02119854092598">
        <ele>2057.358642578125</ele>
        <time>2011-04-24T08:40:01Z</time>
      </trkpt>
      <trkpt lat="33.095153337344527" lon="-5.022409725934267">
        <ele>2049.668212890625</ele>
        <time>2011-04-24T08:40:12Z</time>
      </trkpt>
      <trkpt lat="33.096963576972485" lon="-5.023312959820032">
        <ele>2042.938720703125</ele>
        <time>2011-04-24T08:40:21Z</time>
      </trkpt>
      <trkpt lat="33.09761275537312" lon="-5.023452183231711">
        <ele>2040.535400390625</ele>
        <time>2011-04-24T08:40:24Z</time>
      </trkpt>
      <trkpt lat="33.098791167140007" lon="-5.024118544533849">
        <ele>2037.651611328125</ele>
        <time>2011-04-24T08:40:30Z</time>
      </trkpt>
      <trkpt lat="33.099165670573711" lon="-5.02434141933918">
        <ele>2038.13232421875</ele>
        <time>2011-04-24T08:40:32Z</time>
      </trkpt>
      <trkpt lat="33.100731745362282" lon="-5.024797730147839">
        <ele>2033.806396484375</ele>
        <time>2011-04-24T08:40:40Z</time>
      </trkpt>
      <trkpt lat="33.101503383368254" lon="-5.024986322969198">
        <ele>2030.922607421875</ele>
        <time>2011-04-24T08:40:44Z</time>
      </trkpt>
      <trkpt lat="33.102676095440984" lon="-5.024806279689074">
        <ele>2025.154296875</ele>
        <time>2011-04-24T08:40:50Z</time>
      </trkpt>
      <trkpt lat="33.104500668123364" lon="-5.024125836789608">
        <ele>2017.4638671875</ele>
        <time>2011-04-24T08:40:59Z</time>
      </trkpt>
      <trkpt lat="33.10471004806459" lon="-5.024088872596622">
        <ele>2017.4638671875</ele>
        <time>2011-04-24T08:41:00Z</time>
      </trkpt>
      <trkpt lat="33.106140671297908" lon="-5.024246368557215">
        <ele>2016.9833984375</ele>
        <time>2011-04-24T08:41:07Z</time>
      </trkpt>
      <trkpt lat="33.107422599568963" lon="-5.025034435093403">
        <ele>2012.1767578125</ele>
        <time>2011-04-24T08:41:14Z</time>
      </trkpt>
      <trkpt lat="33.108811061829329" lon="-5.02617864869535">
        <ele>2009.292724609375</ele>
        <time>2011-04-24T08:41:22Z</time>
      </trkpt>
      <trkpt lat="33.110054768621922" lon="-5.026586093008518">
        <ele>2004.486083984375</ele>
        <time>2011-04-24T08:41:28Z</time>
      </trkpt>
      <trkpt lat="33.112772097811103" lon="-5.027283634990454">
        <ele>1998.71826171875</ele>
        <time>2011-04-24T08:41:40Z</time>
      </trkpt>
      <trkpt lat="33.112978544086218" lon="-5.027370220050216">
        <ele>1998.237548828125</ele>
        <time>2011-04-24T08:41:41Z</time>
      </trkpt>
      <trkpt lat="33.113832576200366" lon="-5.028147138655186">
        <ele>1996.315185546875</ele>
        <time>2011-04-24T08:41:46Z</time>
      </trkpt>
      <trkpt lat="33.114793645218015" lon="-5.029162690043449">
        <ele>1996.795654296875</ele>
        <time>2011-04-24T08:41:52Z</time>
      </trkpt>
      <trkpt lat="33.115930818021297" lon="-5.029891328886151">
        <ele>1995.353515625</ele>
        <time>2011-04-24T08:41:58Z</time>
      </trkpt>
      <trkpt lat="33.116923654451966" lon="-5.0302997790277">
        <ele>1991.50830078125</ele>
        <time>2011-04-24T08:42:03Z</time>
      </trkpt>
      <trkpt lat="33.11797583475709" lon="-5.030292654410005">
        <ele>1985.740478515625</ele>
        <time>2011-04-24T08:42:08Z</time>
      </trkpt>
      <trkpt lat="33.120532985776663" lon="-5.029986379668117">
        <ele>1969.878662109375</ele>
        <time>2011-04-24T08:42:20Z</time>
      </trkpt>
      <trkpt lat="33.121738387271762" lon="-5.030129961669445">
        <ele>1963.6298828125</ele>
        <time>2011-04-24T08:42:26Z</time>
      </trkpt>
      <trkpt lat="33.12323153950274" lon="-5.031051887199283">
        <ele>1962.668701171875</ele>
        <time>2011-04-24T08:42:34Z</time>
      </trkpt>
      <trkpt lat="33.125794474035501" lon="-5.032789036631584">
        <ele>1964.11083984375</ele>
        <time>2011-04-24T08:42:48Z</time>
      </trkpt>
      <trkpt lat="33.128428654745221" lon="-5.034576561301947">
        <ele>1954.01708984375</ele>
        <time>2011-04-24T08:43:02Z</time>
      </trkpt>
      <trkpt lat="33.128806594759226" lon="-5.034791389480233">
        <ele>1953.536376953125</ele>
        <time>2011-04-24T08:43:04Z</time>
      </trkpt>
      <trkpt lat="33.1296247523278" lon="-5.034914687275887">
        <ele>1953.0556640625</ele>
        <time>2011-04-24T08:43:08Z</time>
      </trkpt>
      <trkpt lat="33.130033621564507" lon="-5.034878980368376">
        <ele>1953.0556640625</ele>
        <time>2011-04-24T08:43:10Z</time>
      </trkpt>
      <trkpt lat="33.130972143262625" lon="-5.035133538767695">
        <ele>1952.09423828125</ele>
        <time>2011-04-24T08:43:15Z</time>
      </trkpt>
      <trkpt lat="33.131426190957427" lon="-5.035584988072515">
        <ele>1952.09423828125</ele>
        <time>2011-04-24T08:43:18Z</time>
      </trkpt>
      <trkpt lat="33.132866453379393" lon="-5.037672417238355">
        <ele>1951.133056640625</ele>
        <time>2011-04-24T08:43:29Z</time>
      </trkpt>
      <trkpt lat="33.134230524301529" lon="-5.040084393694997">
        <ele>1949.21044921875</ele>
        <time>2011-04-24T08:43:40Z</time>
      </trkpt>
      <trkpt lat="33.136028777807951" lon="-5.043221823871136">
        <ele>1948.2490234375</ele>
        <time>2011-04-24T08:43:54Z</time>
      </trkpt>
      <trkpt lat="33.137984191998839" lon="-5.04661506973207">
        <ele>1947.28759765625</ele>
        <time>2011-04-24T08:44:09Z</time>
      </trkpt>
      <trkpt lat="33.139100493863225" lon="-5.048129176720977">
        <ele>1946.326416015625</ele>
        <time>2011-04-24T08:44:16Z</time>
      </trkpt>
      <trkpt lat="33.141221031546593" lon="-5.05063209682703">
        <ele>1943.923095703125</ele>
        <time>2011-04-24T08:44:28Z</time>
      </trkpt>
      <trkpt lat="33.143567629158497" lon="-5.053415391594172">
        <ele>1941.519775390625</ele>
        <time>2011-04-24T08:44:42Z</time>
      </trkpt>
      <trkpt lat="33.143729064613581" lon="-5.053589986637235">
        <ele>1941.519775390625</ele>
        <time>2011-04-24T08:44:43Z</time>
      </trkpt>
      <trkpt lat="33.144490392878652" lon="-5.054082674905658">
        <ele>1940.558349609375</ele>
        <time>2011-04-24T08:44:47Z</time>
      </trkpt>
      <trkpt lat="33.147009573876858" lon="-5.054849870502949">
        <ele>1931.906494140625</ele>
        <time>2011-04-24T08:44:59Z</time>
      </trkpt>
      <trkpt lat="33.148991391062737" lon="-5.055538024753332">
        <ele>1929.0224609375</ele>
        <time>2011-04-24T08:45:09Z</time>
      </trkpt>
      <trkpt lat="33.14970351755619" lon="-5.056326258927584">
        <ele>1928.061279296875</ele>
        <time>2011-04-24T08:45:14Z</time>
      </trkpt>
      <trkpt lat="33.149949945509434" lon="-5.057212561368942">
        <ele>1924.216064453125</ele>
        <time>2011-04-24T08:45:18Z</time>
      </trkpt>
      <trkpt lat="33.150238199159503" lon="-5.059327064082027">
        <ele>1920.8515625</ele>
        <time>2011-04-24T08:45:27Z</time>
      </trkpt>
      <trkpt lat="33.150807833299041" lon="-5.060903197154403">
        <ele>1918.928955078125</ele>
        <time>2011-04-24T08:45:35Z</time>
      </trkpt>
      <trkpt lat="33.15166044048965" lon="-5.062429290264845">
        <ele>1918.4482421875</ele>
        <time>2011-04-24T08:45:43Z</time>
      </trkpt>
      <trkpt lat="33.151892032474279" lon="-5.062817875295878">
        <ele>1918.4482421875</ele>
        <time>2011-04-24T08:45:45Z</time>
      </trkpt>
      <trkpt lat="33.152362760156393" lon="-5.064452094957233">
        <ele>1917.00634765625</ele>
        <time>2011-04-24T08:45:52Z</time>
      </trkpt>
      <trkpt lat="33.15252386033535" lon="-5.065974751487374">
        <ele>1918.4482421875</ele>
        <time>2011-04-24T08:45:58Z</time>
      </trkpt>
      <trkpt lat="33.152577420696616" lon="-5.066441539674997">
        <ele>1918.4482421875</ele>
        <time>2011-04-24T08:46:00Z</time>
      </trkpt>
      <trkpt lat="33.153002969920635" lon="-5.067394562065601">
        <ele>1917.967529296875</ele>
        <time>2011-04-24T08:46:05Z</time>
      </trkpt>
      <trkpt lat="33.153640162199736" lon="-5.067932931706309">
        <ele>1917.48681640625</ele>
        <time>2011-04-24T08:46:09Z</time>
      </trkpt>
      <trkpt lat="33.153823642060161" lon="-5.068037286400795">
        <ele>1917.00634765625</ele>
        <time>2011-04-24T08:46:10Z</time>
      </trkpt>
      <trkpt lat="33.154187081381679" lon="-5.068196626380086">
        <ele>1914.602783203125</ele>
        <time>2011-04-24T08:46:12Z</time>
      </trkpt>
      <trkpt lat="33.155157119035721" lon="-5.068064192309976">
        <ele>1912.199462890625</ele>
        <time>2011-04-24T08:46:17Z</time>
      </trkpt>
      <trkpt lat="33.157361643388867" lon="-5.067040091380477">
        <ele>1914.1220703125</ele>
        <time>2011-04-24T08:46:28Z</time>
      </trkpt>
      <trkpt lat="33.160062627866864" lon="-5.065819099545479">
        <ele>1913.641357421875</ele>
        <time>2011-04-24T08:46:41Z</time>
      </trkpt>
      <trkpt lat="33.161075999960303" lon="-5.065888417884708">
        <ele>1912.199462890625</ele>
        <time>2011-04-24T08:46:46Z</time>
      </trkpt>
      <trkpt lat="33.163251942023635" lon="-5.066387979313731">
        <ele>1912.68017578125</ele>
        <time>2011-04-24T08:46:57Z</time>
      </trkpt>
      <trkpt lat="33.164226589724422" lon="-5.066556874662638">
        <ele>1912.68017578125</ele>
        <time>2011-04-24T08:47:02Z</time>
      </trkpt>
      <trkpt lat="33.16499319858849" lon="-5.066375155001879">
        <ele>1914.1220703125</ele>
        <time>2011-04-24T08:47:06Z</time>
      </trkpt>
      <trkpt lat="33.167479773983359" lon="-5.064995996654034">
        <ele>1908.8349609375</ele>
        <time>2011-04-24T08:47:19Z</time>
      </trkpt>
      <trkpt lat="33.169476259499788" lon="-5.06387097761035">
        <ele>1901.625244140625</ele>
        <time>2011-04-24T08:47:28Z</time>
      </trkpt>
      <trkpt lat="33.17207146435976" lon="-5.062413197010756">
        <ele>1905.470458984375</ele>
        <time>2011-04-24T08:47:39Z</time>
      </trkpt>
      <trkpt lat="33.173344675451517" lon="-5.061733927577734">
        <ele>1910.27685546875</ele>
        <time>2011-04-24T08:47:45Z</time>
      </trkpt>
      <trkpt lat="33.174669099971652" lon="-5.061654383316636">
        <ele>1916.525634765625</ele>
        <time>2011-04-24T08:47:51Z</time>
      </trkpt>
      <trkpt lat="33.176730629056692" lon="-5.061656730249524">
        <ele>1918.4482421875</ele>
        <time>2011-04-24T08:48:01Z</time>
      </trkpt>
      <trkpt lat="33.177137821912766" lon="-5.061603672802448">
        <ele>1917.967529296875</ele>
        <time>2011-04-24T08:48:03Z</time>
      </trkpt>
      <trkpt lat="33.17830877378583" lon="-5.061017945408821">
        <ele>1915.564208984375</ele>
        <time>2011-04-24T08:48:09Z</time>
      </trkpt>
      <trkpt lat="33.179038586094975" lon="-5.06062114611268">
        <ele>1914.1220703125</ele>
        <time>2011-04-24T08:48:13Z</time>
      </trkpt>
      <trkpt lat="33.180194450542331" lon="-5.060540260747075">
        <ele>1910.27685546875</ele>
        <time>2011-04-24T08:48:19Z</time>
      </trkpt>
      <trkpt lat="33.18039033561945" lon="-5.060600442811847">
        <ele>1909.315673828125</ele>
        <time>2011-04-24T08:48:20Z</time>
      </trkpt>
      <trkpt lat="33.18215967155993" lon="-5.061220619827509">
        <ele>1905.470458984375</ele>
        <time>2011-04-24T08:48:28Z</time>
      </trkpt>
      <trkpt lat="33.184513477608562" lon="-5.06198144517839">
        <ele>1909.315673828125</ele>
        <time>2011-04-24T08:48:38Z</time>
      </trkpt>
      <trkpt lat="33.186158426105976" lon="-5.062126871198416">
        <ele>1906.431640625</ele>
        <time>2011-04-24T08:48:45Z</time>
      </trkpt>
      <trkpt lat="33.18729467689991" lon="-5.06190718151629">
        <ele>1902.58642578125</ele>
        <time>2011-04-24T08:48:50Z</time>
      </trkpt>
      <trkpt lat="33.188944067806005" lon="-5.061782542616129">
        <ele>1894.895751953125</ele>
        <time>2011-04-24T08:48:57Z</time>
      </trkpt>
      <trkpt lat="33.191674053668976" lon="-5.062106754630804">
        <ele>1883.840576171875</ele>
        <time>2011-04-24T08:49:08Z</time>
      </trkpt>
      <trkpt lat="33.192818854004145" lon="-5.062530962750316">
        <ele>1880.956787109375</ele>
        <time>2011-04-24T08:49:13Z</time>
      </trkpt>
      <trkpt lat="33.194290967658162" lon="-5.063307629898191">
        <ele>1879.033935546875</ele>
        <time>2011-04-24T08:49:20Z</time>
      </trkpt>
      <trkpt lat="33.195857461541891" lon="-5.0636041816324">
        <ele>1870.38232421875</ele>
        <time>2011-04-24T08:49:27Z</time>
      </trkpt>
      <trkpt lat="33.198385862633586" lon="-5.06395747885108">
        <ele>1861.73046875</ele>
        <time>2011-04-24T08:49:38Z</time>
      </trkpt>
      <trkpt lat="33.200284950435162" lon="-5.063776765018702">
        <ele>1861.73046875</ele>
        <time>2011-04-24T08:49:46Z</time>
      </trkpt>
      <trkpt lat="33.201691769063473" lon="-5.06336135789752">
        <ele>1865.57568359375</ele>
        <time>2011-04-24T08:49:52Z</time>
      </trkpt>
      <trkpt lat="33.204937828704715" lon="-5.062239188700914">
        <ele>1872.78564453125</ele>
        <time>2011-04-24T08:50:06Z</time>
      </trkpt>
      <trkpt lat="33.207723554223776" lon="-5.061280634254217">
        <ele>1879.995361328125</ele>
        <time>2011-04-24T08:50:18Z</time>
      </trkpt>
      <trkpt lat="33.20974082686007" lon="-5.0605199765414">
        <ele>1871.343505859375</ele>
        <time>2011-04-24T08:50:27Z</time>
      </trkpt>
      <trkpt lat="33.211329197511077" lon="-5.05971715785563">
        <ele>1859.8076171875</ele>
        <time>2011-04-24T08:50:34Z</time>
      </trkpt>
      <trkpt lat="33.21312015876174" lon="-5.059665525332093">
        <ele>1854.5205078125</ele>
        <time>2011-04-24T08:50:41Z</time>
      </trkpt>
      <trkpt lat="33.216146025806665" lon="-5.059752026572824">
        <ele>1852.597900390625</ele>
        <time>2011-04-24T08:50:53Z</time>
      </trkpt>
      <trkpt lat="33.219209276139736" lon="-5.05983391776681">
        <ele>1852.597900390625</ele>
        <time>2011-04-24T08:51:05Z</time>
      </trkpt>
      <trkpt lat="33.222523145377636" lon="-5.059917820617557">
        <ele>1847.310546875</ele>
        <time>2011-04-24T08:51:18Z</time>
      </trkpt>
      <trkpt lat="33.225054144859314" lon="-5.059988480061293">
        <ele>1846.349365234375</ele>
        <time>2011-04-24T08:51:28Z</time>
      </trkpt>
      <trkpt lat="33.226074976846576" lon="-5.060012955218554">
        <ele>1846.349365234375</ele>
        <time>2011-04-24T08:51:34Z</time>
      </trkpt>
      <trkpt lat="33.228457616642118" lon="-5.060068946331739">
        <ele>1844.9072265625</ele>
        <time>2011-04-24T08:51:48Z</time>
      </trkpt>
      <trkpt lat="33.229619432240725" lon="-5.059906588867307">
        <ele>1846.349365234375</ele>
        <time>2011-04-24T08:51:55Z</time>
      </trkpt>
      <trkpt lat="33.230315549299121" lon="-5.059413397684693">
        <ele>1845.387939453125</ele>
        <time>2011-04-24T08:52:00Z</time>
      </trkpt>
      <trkpt lat="33.231057180091739" lon="-5.058647962287068">
        <ele>1843.946044921875</ele>
        <time>2011-04-24T08:52:07Z</time>
      </trkpt>
      <trkpt lat="33.231930071488023" lon="-5.05818285048008">
        <ele>1840.581298828125</ele>
        <time>2011-04-24T08:52:14Z</time>
      </trkpt>
      <trkpt lat="33.232844788581133" lon="-5.05810515023768">
        <ele>1836.736083984375</ele>
        <time>2011-04-24T08:52:21Z</time>
      </trkpt>
      <trkpt lat="33.234355375170708" lon="-5.058252587914467">
        <ele>1832.41015625</ele>
        <time>2011-04-24T08:52:33Z</time>
      </trkpt>
      <trkpt lat="33.235610732808709" lon="-5.058586439117789">
        <ele>1829.526123046875</ele>
        <time>2011-04-24T08:52:44Z</time>
      </trkpt>
      <trkpt lat="33.236437439918518" lon="-5.059010479599237">
        <ele>1828.56494140625</ele>
        <time>2011-04-24T08:52:53Z</time>
      </trkpt>
      <trkpt lat="33.237088127061725" lon="-5.059731742367148">
        <ele>1828.084228515625</ele>
        <time>2011-04-24T08:53:01Z</time>
      </trkpt>
      <trkpt lat="33.237529685720801" lon="-5.06066657602787">
        <ele>1827.603515625</ele>
        <time>2011-04-24T08:53:08Z</time>
      </trkpt>
      <trkpt lat="33.238435685634613" lon="-5.06283363327384">
        <ele>1826.16162109375</ele>
        <time>2011-04-24T08:53:23Z</time>
      </trkpt>
      <trkpt lat="33.239141441881657" lon="-5.064612273126841">
        <ele>1825.2001953125</ele>
        <time>2011-04-24T08:53:35Z</time>
      </trkpt>
      <trkpt lat="33.239451991394162" lon="-5.065774424001575">
        <ele>1823.75830078125</ele>
        <time>2011-04-24T08:53:43Z</time>
      </trkpt>
      <trkpt lat="33.239893969148397" lon="-5.067440830171108">
        <ele>1824.239013671875</ele>
        <time>2011-04-24T08:53:52Z</time>
      </trkpt>
      <trkpt lat="33.240462178364396" lon="-5.069621885195375">
        <ele>1827.123046875</ele>
        <time>2011-04-24T08:54:03Z</time>
      </trkpt>
      <trkpt lat="33.240826539695263" lon="-5.070614637807012">
        <ele>1829.04541015625</ele>
        <time>2011-04-24T08:54:08Z</time>
      </trkpt>
      <trkpt lat="33.241651989519596" lon="-5.071504376828671">
        <ele>1827.603515625</ele>
        <time>2011-04-24T08:54:14Z</time>
      </trkpt>
      <trkpt lat="33.242421532049775" lon="-5.071781147271395">
        <ele>1823.75830078125</ele>
        <time>2011-04-24T08:54:18Z</time>
      </trkpt>
      <trkpt lat="33.242854122072458" lon="-5.071805538609624">
        <ele>1822.797119140625</ele>
        <time>2011-04-24T08:54:20Z</time>
      </trkpt>
      <trkpt lat="33.245172724127769" lon="-5.071593141183257">
        <ele>1818.470947265625</ele>
        <time>2011-04-24T08:54:30Z</time>
      </trkpt>
      <trkpt lat="33.248147461563349" lon="-5.071320561692119">
        <ele>1817.029052734375</ele>
        <time>2011-04-24T08:54:42Z</time>
      </trkpt>
      <trkpt lat="33.250233549624681" lon="-5.071141272783279">
        <ele>1819.432373046875</ele>
        <time>2011-04-24T08:54:51Z</time>
      </trkpt>
      <trkpt lat="33.252797657623887" lon="-5.070937592536211">
        <ele>1811.741943359375</ele>
        <time>2011-04-24T08:55:02Z</time>
      </trkpt>
      <trkpt lat="33.25571782886982" lon="-5.070747993886471">
        <ele>1807.416015625</ele>
        <time>2011-04-24T08:55:14Z</time>
      </trkpt>
      <trkpt lat="33.256612764671445" lon="-5.070973383262754">
        <ele>1807.896728515625</ele>
        <time>2011-04-24T08:55:18Z</time>
      </trkpt>
      <trkpt lat="33.25760836713016" lon="-5.071621388196945">
        <ele>1810.2998046875</ele>
        <time>2011-04-24T08:55:23Z</time>
      </trkpt>
      <trkpt lat="33.258957350626588" lon="-5.072358157485724">
        <ele>1814.625732421875</ele>
        <time>2011-04-24T08:55:30Z</time>
      </trkpt>
      <trkpt lat="33.260201727971435" lon="-5.072514060884714">
        <ele>1817.509521484375</ele>
        <time>2011-04-24T08:55:36Z</time>
      </trkpt>
      <trkpt lat="33.262968761846423" lon="-5.07277431897819">
        <ele>1818.470947265625</ele>
        <time>2011-04-24T08:55:49Z</time>
      </trkpt>
      <trkpt lat="33.265909552574158" lon="-5.073056789115071">
        <ele>1825.2001953125</ele>
        <time>2011-04-24T08:56:02Z</time>
      </trkpt>
      <trkpt lat="33.269095765426755" lon="-5.0733523350209">
        <ele>1829.04541015625</ele>
        <time>2011-04-24T08:56:16Z</time>
      </trkpt>
      <trkpt lat="33.271921472623944" lon="-5.073725329712033">
        <ele>1832.41015625</ele>
        <time>2011-04-24T08:56:28Z</time>
      </trkpt>
      <trkpt lat="33.274630587548018" lon="-5.074104694649577">
        <ele>1831.929443359375</ele>
        <time>2011-04-24T08:56:40Z</time>
      </trkpt>
      <trkpt lat="33.277356047183275" lon="-5.074568465352058">
        <ele>1832.890625</ele>
        <time>2011-04-24T08:56:52Z</time>
      </trkpt>
      <trkpt lat="33.280046721920371" lon="-5.075144553557038">
        <ele>1826.16162109375</ele>
        <time>2011-04-24T08:57:03Z</time>
      </trkpt>
      <trkpt lat="33.282465487718582" lon="-5.075747799128294">
        <ele>1823.75830078125</ele>
        <time>2011-04-24T08:57:13Z</time>
      </trkpt>
      <trkpt lat="33.285139231011271" lon="-5.076467469334602">
        <ele>1828.56494140625</ele>
        <time>2011-04-24T08:57:25Z</time>
      </trkpt>
      <trkpt lat="33.288439018651843" lon="-5.077359639108181">
        <ele>1840.100830078125</ele>
        <time>2011-04-24T08:57:40Z</time>
      </trkpt>
      <trkpt lat="33.289391957223415" lon="-5.077893398702145">
        <ele>1843.46533203125</ele>
        <time>2011-04-24T08:57:45Z</time>
      </trkpt>
      <trkpt lat="33.290516054257751" lon="-5.079007772728801">
        <ele>1848.75244140625</ele>
        <time>2011-04-24T08:57:52Z</time>
      </trkpt>
      <trkpt lat="33.291700836271048" lon="-5.080794123932719">
        <ele>1852.1171875</ele>
        <time>2011-04-24T08:58:01Z</time>
      </trkpt>
      <trkpt lat="33.293387778103352" lon="-5.083861649036408">
        <ele>1860.76904296875</ele>
        <time>2011-04-24T08:58:15Z</time>
      </trkpt>
      <trkpt lat="33.295467076823115" lon="-5.087602995336056">
        <ele>1868.9404296875</ele>
        <time>2011-04-24T08:58:32Z</time>
      </trkpt>
      <trkpt lat="33.296986967325211" lon="-5.090524759143591">
        <ele>1867.017578125</ele>
        <time>2011-04-24T08:58:45Z</time>
      </trkpt>
      <trkpt lat="33.29865412786603" lon="-5.093773417174816">
        <ele>1868.459716796875</ele>
        <time>2011-04-24T08:58:59Z</time>
      </trkpt>
      <trkpt lat="33.30021969974041" lon="-5.09650943800807">
        <ele>1866.05615234375</ele>
        <time>2011-04-24T08:59:11Z</time>
      </trkpt>
      <trkpt lat="33.301304988563061" lon="-5.097883734852076">
        <ele>1869.421142578125</ele>
        <time>2011-04-24T08:59:18Z</time>
      </trkpt>
      <trkpt lat="33.302164971828461" lon="-5.099642761051655">
        <ele>1874.2275390625</ele>
        <time>2011-04-24T08:59:26Z</time>
      </trkpt>
      <trkpt lat="33.302650284022093" lon="-5.101469093933702">
        <ele>1875.66943359375</ele>
        <time>2011-04-24T08:59:34Z</time>
      </trkpt>
      <trkpt lat="33.303295522928238" lon="-5.10356473736465">
        <ele>1875.66943359375</ele>
        <time>2011-04-24T08:59:43Z</time>
      </trkpt>
      <trkpt lat="33.30464425496757" lon="-5.106044942513108">
        <ele>1877.592041015625</ele>
        <time>2011-04-24T08:59:54Z</time>
      </trkpt>
      <trkpt lat="33.30625768750906" lon="-5.108671244233847">
        <ele>1874.2275390625</ele>
        <time>2011-04-24T09:00:05Z</time>
      </trkpt>
      <trkpt lat="33.307807585224509" lon="-5.110659683123231">
        <ele>1879.995361328125</ele>
        <time>2011-04-24T09:00:14Z</time>
      </trkpt>
      <trkpt lat="33.310083439573646" lon="-5.113551272079349">
        <ele>1894.895751953125</ele>
        <time>2011-04-24T09:00:28Z</time>
      </trkpt>
      <trkpt lat="33.31159545108676" lon="-5.115331253036857">
        <ele>1902.105712890625</ele>
        <time>2011-04-24T09:00:37Z</time>
      </trkpt>
      <trkpt lat="33.312595663592219" lon="-5.116019323468208">
        <ele>1908.354248046875</ele>
        <time>2011-04-24T09:00:42Z</time>
      </trkpt>
      <trkpt lat="33.314348654821515" lon="-5.117003526538611">
        <ele>1918.928955078125</ele>
        <time>2011-04-24T09:00:51Z</time>
      </trkpt>
      <trkpt lat="33.314917618408799" lon="-5.117321787402034">
        <ele>1922.774169921875</ele>
        <time>2011-04-24T09:00:56Z</time>
      </trkpt>
      <trkpt lat="33.315787492319942" lon="-5.117934588342905">
        <ele>1927.10009765625</ele>
        <time>2011-04-24T09:01:05Z</time>
      </trkpt>
      <trkpt lat="33.316537672653794" lon="-5.118750482797623">
        <ele>1929.98388671875</ele>
        <time>2011-04-24T09:01:14Z</time>
      </trkpt>
      <trkpt lat="33.317231442779303" lon="-5.119727393612266">
        <ele>1933.3486328125</ele>
        <time>2011-04-24T09:01:23Z</time>
      </trkpt>
      <trkpt lat="33.317942228168249" lon="-5.120626352727413">
        <ele>1935.271240234375</ele>
        <time>2011-04-24T09:01:29Z</time>
      </trkpt>
      <trkpt lat="33.319168584421277" lon="-5.122256129980087">
        <ele>1937.19384765625</ele>
        <time>2011-04-24T09:01:38Z</time>
      </trkpt>
      <trkpt lat="33.320738347247243" lon="-5.124348923563957">
        <ele>1940.077880859375</ele>
        <time>2011-04-24T09:01:48Z</time>
      </trkpt>
      <trkpt lat="33.3226746506989" lon="-5.126928621903062">
        <ele>1947.768310546875</ele>
        <time>2011-04-24T09:02:00Z</time>
      </trkpt>
      <trkpt lat="33.323176391422749" lon="-5.127510577440262">
        <ele>1948.729736328125</ele>
        <time>2011-04-24T09:02:03Z</time>
      </trkpt>
      <trkpt lat="33.324637860059738" lon="-5.128510287031531">
        <ele>1946.806884765625</ele>
        <time>2011-04-24T09:02:10Z</time>
      </trkpt>
      <trkpt lat="33.327022846788168" lon="-5.130160264670849">
        <ele>1950.171875</ele>
        <time>2011-04-24T09:02:21Z</time>
      </trkpt>
      <trkpt lat="33.328340649604797" lon="-5.13134378939867">
        <ele>1949.691162109375</ele>
        <time>2011-04-24T09:02:28Z</time>
      </trkpt>
      <trkpt lat="33.329619141295552" lon="-5.131835471838713">
        <ele>1945.845703125</ele>
        <time>2011-04-24T09:02:34Z</time>
      </trkpt>
      <trkpt lat="33.332082498818636" lon="-5.132491439580917">
        <ele>1937.674560546875</ele>
        <time>2011-04-24T09:02:44Z</time>
      </trkpt>
      <trkpt lat="33.334981882944703" lon="-5.133317057043314">
        <ele>1931.906494140625</ele>
        <time>2011-04-24T09:02:56Z</time>
      </trkpt>
      <trkpt lat="33.33755923435092" lon="-5.13477835804224">
        <ele>1941.0390625</ele>
        <time>2011-04-24T09:03:08Z</time>
      </trkpt>
      <trkpt lat="33.340275138616562" lon="-5.136319035664201">
        <ele>1939.59716796875</ele>
        <time>2011-04-24T09:03:20Z</time>
      </trkpt>
      <trkpt lat="33.344457959756255" lon="-5.138676865026355">
        <ele>1938.635986328125</ele>
        <time>2011-04-24T09:03:38Z</time>
      </trkpt>
      <trkpt lat="33.347558761015534" lon="-5.140436394140124">
        <ele>1940.558349609375</ele>
        <time>2011-04-24T09:03:51Z</time>
      </trkpt>
      <trkpt lat="33.350417576730251" lon="-5.142046976834536">
        <ele>1944.403564453125</ele>
        <time>2011-04-24T09:04:04Z</time>
      </trkpt>
      <trkpt lat="33.353119064122438" lon="-5.143566699698567">
        <ele>1949.21044921875</ele>
        <time>2011-04-24T09:04:17Z</time>
      </trkpt>
      <trkpt lat="33.354129754006863" lon="-5.144151588901877">
        <ele>1947.28759765625</ele>
        <time>2011-04-24T09:04:22Z</time>
      </trkpt>
      <trkpt lat="33.354807430878282" lon="-5.144799258559942">
        <ele>1946.326416015625</ele>
        <time>2011-04-24T09:04:26Z</time>
      </trkpt>
      <trkpt lat="33.357088062912226" lon="-5.148097537457943">
        <ele>1955.939453125</ele>
        <time>2011-04-24T09:04:42Z</time>
      </trkpt>
      <trkpt lat="33.358199754729867" lon="-5.149668892845511">
        <ele>1959.78466796875</ele>
        <time>2011-04-24T09:04:50Z</time>
      </trkpt>
      <trkpt lat="33.359017577022314" lon="-5.150047754868865">
        <ele>1956.420166015625</ele>
        <time>2011-04-24T09:04:55Z</time>
      </trkpt>
      <trkpt lat="33.359216144308448" lon="-5.150035433471203">
        <ele>1954.978271484375</ele>
        <time>2011-04-24T09:04:56Z</time>
      </trkpt>
      <trkpt lat="33.360806945711374" lon="-5.14992437325418">
        <ele>1943.4423828125</ele>
        <time>2011-04-24T09:05:03Z</time>
      </trkpt>
      <trkpt lat="33.36336619220674" lon="-5.149779617786408">
        <ele>1932.867919921875</ele>
        <time>2011-04-24T09:05:13Z</time>
      </trkpt>
      <trkpt lat="33.36443823762238" lon="-5.14989067800343">
        <ele>1932.387451171875</ele>
        <time>2011-04-24T09:05:18Z</time>
      </trkpt>
      <trkpt lat="33.36536418646574" lon="-5.150418821722269">
        <ele>1931.906494140625</ele>
        <time>2011-04-24T09:05:23Z</time>
      </trkpt>
      <trkpt lat="33.366424916312099" lon="-5.151193980127573">
        <ele>1929.0224609375</ele>
        <time>2011-04-24T09:05:30Z</time>
      </trkpt>
      <trkpt lat="33.368056118488312" lon="-5.15236065723002">
        <ele>1928.5419921875</ele>
        <time>2011-04-24T09:05:43Z</time>
      </trkpt>
      <trkpt lat="33.369391523301601" lon="-5.153313260525465">
        <ele>1928.5419921875</ele>
        <time>2011-04-24T09:05:54Z</time>
      </trkpt>
      <trkpt lat="33.370690969750285" lon="-5.154244657605887">
        <ele>1929.503173828125</ele>
        <time>2011-04-24T09:06:03Z</time>
      </trkpt>
      <trkpt lat="33.372516967356205" lon="-5.155548127368093">
        <ele>1932.387451171875</ele>
        <time>2011-04-24T09:06:14Z</time>
      </trkpt>
      <trkpt lat="33.374266354367137" lon="-5.156792923808098">
        <ele>1929.503173828125</ele>
        <time>2011-04-24T09:06:23Z</time>
      </trkpt>
      <trkpt lat="33.377138916403055" lon="-5.158840287476778">
        <ele>1934.790771484375</ele>
        <time>2011-04-24T09:06:37Z</time>
      </trkpt>
      <trkpt lat="33.379768570885062" lon="-5.160704841837287">
        <ele>1944.88427734375</ele>
        <time>2011-04-24T09:06:51Z</time>
      </trkpt>
      <trkpt lat="33.382345251739025" lon="-5.162535281851888">
        <ele>1965.552978515625</ele>
        <time>2011-04-24T09:07:06Z</time>
      </trkpt>
      <trkpt lat="33.38391006924212" lon="-5.163400378078222">
        <ele>1970.359375</ele>
        <time>2011-04-24T09:07:15Z</time>
      </trkpt>
      <trkpt lat="33.385013965889812" lon="-5.163770355284214">
        <ele>1966.994873046875</ele>
        <time>2011-04-24T09:07:22Z</time>
      </trkpt>
      <trkpt lat="33.386360183358192" lon="-5.164250722154975">
        <ele>1968.436767578125</ele>
        <time>2011-04-24T09:07:32Z</time>
      </trkpt>
      <trkpt lat="33.387787286192179" lon="-5.164825469255447">
        <ele>1965.552978515625</ele>
        <time>2011-04-24T09:07:43Z</time>
      </trkpt>
      <trkpt lat="33.389329053461552" lon="-5.165558969601989">
        <ele>1957.381591796875</ele>
        <time>2011-04-24T09:07:54Z</time>
      </trkpt>
      <trkpt lat="33.391025718301535" lon="-5.166371930390596">
        <ele>1951.133056640625</ele>
        <time>2011-04-24T09:08:05Z</time>
      </trkpt>
      <trkpt lat="33.392586763948202" lon="-5.167116243392229">
        <ele>1945.845703125</ele>
        <time>2011-04-24T09:08:16Z</time>
      </trkpt>
      <trkpt lat="33.393638441339135" lon="-5.167815880849958">
        <ele>1939.59716796875</ele>
        <time>2011-04-24T09:08:24Z</time>
      </trkpt>
      <trkpt lat="33.394955992698669" lon="-5.168915167450905">
        <ele>1930.464599609375</ele>
        <time>2011-04-24T09:08:34Z</time>
      </trkpt>
      <trkpt lat="33.395778676494956" lon="-5.169922588393092">
        <ele>1927.10009765625</ele>
        <time>2011-04-24T09:08:41Z</time>
      </trkpt>
      <trkpt lat="33.396372366696596" lon="-5.170918861404061">
        <ele>1924.69677734375</ele>
        <time>2011-04-24T09:08:48Z</time>
      </trkpt>
      <trkpt lat="33.397241067141294" lon="-5.172399859875441">
        <ele>1922.774169921875</ele>
        <time>2011-04-24T09:09:00Z</time>
      </trkpt>
      <trkpt lat="33.398021338507533" lon="-5.173531249165535">
        <ele>1917.00634765625</ele>
        <time>2011-04-24T09:09:10Z</time>
      </trkpt>
      <trkpt lat="33.399042338132858" lon="-5.174643360078335">
        <ele>1907.873779296875</ele>
        <time>2011-04-24T09:09:19Z</time>
      </trkpt>
      <trkpt lat="33.399925036355853" lon="-5.175752621144056">
        <ele>1899.2216796875</ele>
        <time>2011-04-24T09:09:28Z</time>
      </trkpt>
      <trkpt lat="33.400292079895735" lon="-5.176806561648846">
        <ele>1890.56982421875</ele>
        <time>2011-04-24T09:09:35Z</time>
      </trkpt>
      <trkpt lat="33.4008395858109" lon="-5.178875299170613">
        <ele>1873.746826171875</ele>
        <time>2011-04-24T09:09:47Z</time>
      </trkpt>
      <trkpt lat="33.401392120867968" lon="-5.179865788668394">
        <ele>1866.536865234375</ele>
        <time>2011-04-24T09:09:53Z</time>
      </trkpt>
      <trkpt lat="33.402348244562745" lon="-5.180797688663006">
        <ele>1857.404541015625</ele>
        <time>2011-04-24T09:10:00Z</time>
      </trkpt>
      <trkpt lat="33.403639644384384" lon="-5.182056734338403">
        <ele>1845.387939453125</ele>
        <time>2011-04-24T09:10:10Z</time>
      </trkpt>
      <trkpt lat="33.40429469011724" lon="-5.18302408978343">
        <ele>1844.426513671875</ele>
        <time>2011-04-24T09:10:17Z</time>
      </trkpt>
      <trkpt lat="33.405044954270124" lon="-5.184101080521941">
        <ele>1844.9072265625</ele>
        <time>2011-04-24T09:10:26Z</time>
      </trkpt>
      <trkpt lat="33.405477879568934" lon="-5.184415234252811">
        <ele>1843.46533203125</ele>
        <time>2011-04-24T09:10:30Z</time>
      </trkpt>
      <trkpt lat="33.406510027125478" lon="-5.18495025113225">
        <ele>1841.06201171875</ele>
        <time>2011-04-24T09:10:40Z</time>
      </trkpt>
      <trkpt lat="33.407280575484037" lon="-5.185195170342922">
        <ele>1839.139404296875</ele>
        <time>2011-04-24T09:10:47Z</time>
      </trkpt>
      <trkpt lat="33.408103426918387" lon="-5.184879759326577">
        <ele>1835.774658203125</ele>
        <time>2011-04-24T09:10:53Z</time>
      </trkpt>
      <trkpt lat="33.409205144271255" lon="-5.184016674757004">
        <ele>1823.75830078125</ele>
        <time>2011-04-24T09:11:02Z</time>
      </trkpt>
      <trkpt lat="33.410141235217452" lon="-5.183329274877906">
        <ele>1812.703125</ele>
        <time>2011-04-24T09:11:11Z</time>
      </trkpt>
      <trkpt lat="33.410975569859147" lon="-5.182734243571758">
        <ele>1805.973876953125</ele>
        <time>2011-04-24T09:11:17Z</time>
      </trkpt>
      <trkpt lat="33.411954743787646" lon="-5.182041395455599">
        <ele>1797.802734375</ele>
        <time>2011-04-24T09:11:22Z</time>
      </trkpt>
      <trkpt lat="33.413783172145486" lon="-5.180586883798242">
        <ele>1785.7861328125</ele>
        <time>2011-04-24T09:11:31Z</time>
      </trkpt>
      <trkpt lat="33.41538461856544" lon="-5.179462283849716">
        <ele>1775.211669921875</ele>
        <time>2011-04-24T09:11:39Z</time>
      </trkpt>
      <trkpt lat="33.416761178523302" lon="-5.179019887000322">
        <ele>1767.52099609375</ele>
        <time>2011-04-24T09:11:45Z</time>
      </trkpt>
      <trkpt lat="33.418933767825365" lon="-5.178373055532575">
        <ele>1757.908203125</ele>
        <time>2011-04-24T09:11:55Z</time>
      </trkpt>
      <trkpt lat="33.419762486591935" lon="-5.178127968683839">
        <ele>1754.543212890625</ele>
        <time>2011-04-24T09:12:00Z</time>
      </trkpt>
      <trkpt lat="33.420488191768527" lon="-5.17796334810555">
        <ele>1750.217529296875</ele>
        <time>2011-04-24T09:12:06Z</time>
      </trkpt>
      <trkpt lat="33.420776696875691" lon="-5.178112462162972">
        <ele>1747.33349609375</ele>
        <time>2011-04-24T09:12:10Z</time>
      </trkpt>
      <trkpt lat="33.421491673216224" lon="-5.178597187623382">
        <ele>1740.604248046875</ele>
        <time>2011-04-24T09:12:17Z</time>
      </trkpt>
      <trkpt lat="33.421602230519056" lon="-5.178658543154597">
        <ele>1739.642822265625</ele>
        <time>2011-04-24T09:12:18Z</time>
      </trkpt>
      <trkpt lat="33.422054853290319" lon="-5.178671535104513">
        <ele>1734.355712890625</ele>
        <time>2011-04-24T09:12:22Z</time>
      </trkpt>
      <trkpt lat="33.422797154635191" lon="-5.178684527054429">
        <ele>1730.9912109375</ele>
        <time>2011-04-24T09:12:28Z</time>
      </trkpt>
      <trkpt lat="33.423768784850836" lon="-5.17905592918396">
        <ele>1726.1845703125</ele>
        <time>2011-04-24T09:12:35Z</time>
      </trkpt>
      <trkpt lat="33.424359373748302" lon="-5.179074369370937">
        <ele>1721.8583984375</ele>
        <time>2011-04-24T09:12:39Z</time>
      </trkpt>
      <trkpt lat="33.424949459731579" lon="-5.178853087127209">
        <ele>1721.377685546875</ele>
        <time>2011-04-24T09:12:43Z</time>
      </trkpt>
      <trkpt lat="33.425638787448406" lon="-5.178438434377313">
        <ele>1713.687255859375</ele>
        <time>2011-04-24T09:12:48Z</time>
      </trkpt>
      <trkpt lat="33.426097696647048" lon="-5.177935352548957">
        <ele>1708.400146484375</ele>
        <time>2011-04-24T09:12:52Z</time>
      </trkpt>
      <trkpt lat="33.426277069374919" lon="-5.177316097542644">
        <ele>1703.11279296875</ele>
        <time>2011-04-24T09:12:56Z</time>
      </trkpt>
      <trkpt lat="33.426287965849042" lon="-5.177001357078552">
        <ele>1700.70947265625</ele>
        <time>2011-04-24T09:12:58Z</time>
      </trkpt>
      <trkpt lat="33.426484940573573" lon="-5.176405319944024">
        <ele>1696.3837890625</ele>
        <time>2011-04-24T09:13:02Z</time>
      </trkpt>
      <trkpt lat="33.427339140325785" lon="-5.175110986456275">
        <ele>1689.173583984375</ele>
        <time>2011-04-24T09:13:11Z</time>
      </trkpt>
      <trkpt lat="33.427957892417908" lon="-5.174339935183525">
        <ele>1681.9638671875</ele>
        <time>2011-04-24T09:13:17Z</time>
      </trkpt>
      <trkpt lat="33.428689381107688" lon="-5.174066852778196">
        <ele>1675.715087890625</ele>
        <time>2011-04-24T09:13:22Z</time>
      </trkpt>
      <trkpt lat="33.429515585303307" lon="-5.174234071746469">
        <ele>1667.0634765625</ele>
        <time>2011-04-24T09:13:28Z</time>
      </trkpt>
      <trkpt lat="33.430939670652151" lon="-5.174826923757792">
        <ele>1656.008056640625</ele>
        <time>2011-04-24T09:13:38Z</time>
      </trkpt>
      <trkpt lat="33.43167208135128" lon="-5.175220454111695">
        <ele>1650.720947265625</ele>
        <time>2011-04-24T09:13:43Z</time>
      </trkpt>
      <trkpt lat="33.432089583948255" lon="-5.176094518974423">
        <ele>1644.953125</ele>
        <time>2011-04-24T09:13:48Z</time>
      </trkpt>
      <trkpt lat="33.43279542401433" lon="-5.177713399752975">
        <ele>1634.859375</ele>
        <time>2011-04-24T09:13:56Z</time>
      </trkpt>
      <trkpt lat="33.43387333676219" lon="-5.180029319599271">
        <ele>1628.61083984375</ele>
        <time>2011-04-24T09:14:07Z</time>
      </trkpt>
      <trkpt lat="33.434475241228938" lon="-5.181600758805871">
        <ele>1623.803955078125</ele>
        <time>2011-04-24T09:14:15Z</time>
      </trkpt>
      <trkpt lat="33.434770870953798" lon="-5.183365065604448">
        <ele>1614.671630859375</ele>
        <time>2011-04-24T09:14:23Z</time>
      </trkpt>
      <trkpt lat="33.435075888410211" lon="-5.18516038544476">
        <ele>1608.4228515625</ele>
        <time>2011-04-24T09:14:31Z</time>
      </trkpt>
      <trkpt lat="33.435096172615886" lon="-5.18534118309617">
        <ele>1608.4228515625</ele>
        <time>2011-04-24T09:14:32Z</time>
      </trkpt>
      <trkpt lat="33.43467079102993" lon="-5.185993043705821">
        <ele>1603.616455078125</ele>
        <time>2011-04-24T09:14:37Z</time>
      </trkpt>
      <trkpt lat="33.43440743163228" lon="-5.186178451403976">
        <ele>1600.732421875</ele>
        <time>2011-04-24T09:14:39Z</time>
      </trkpt>
      <trkpt lat="33.433594722300768" lon="-5.187036255374551">
        <ele>1594.483642578125</ele>
        <time>2011-04-24T09:14:46Z</time>
      </trkpt>
      <trkpt lat="33.433466143906116" lon="-5.187123930081725">
        <ele>1593.041748046875</ele>
        <time>2011-04-24T09:14:47Z</time>
      </trkpt>
      <trkpt lat="33.432564418762922" lon="-5.187571775168181">
        <ele>1585.351318359375</ele>
        <time>2011-04-24T09:14:53Z</time>
      </trkpt>
      <trkpt lat="33.431427078321576" lon="-5.188236963003874">
        <ele>1576.21875</ele>
        <time>2011-04-24T09:15:00Z</time>
      </trkpt>
      <trkpt lat="33.430297030135989" lon="-5.189045229926705">
        <ele>1567.08642578125</ele>
        <time>2011-04-24T09:15:07Z</time>
      </trkpt>
      <trkpt lat="33.428945867344737" lon="-5.189864644780755">
        <ele>1556.031005859375</ele>
        <time>2011-04-24T09:15:15Z</time>
      </trkpt>
      <trkpt lat="33.427990162745118" lon="-5.190562689676881">
        <ele>1544.975830078125</ele>
        <time>2011-04-24T09:15:21Z</time>
      </trkpt>
      <trkpt lat="33.427709117531776" lon="-5.19075664691627">
        <ele>1540.64990234375</ele>
        <time>2011-04-24T09:15:23Z</time>
      </trkpt>
      <trkpt lat="33.42721383087337" lon="-5.191460978239775">
        <ele>1534.401611328125</ele>
        <time>2011-04-24T09:15:28Z</time>
      </trkpt>
      <trkpt lat="33.426714017987251" lon="-5.191903123632073">
        <ele>1529.114013671875</ele>
        <time>2011-04-24T09:15:32Z</time>
      </trkpt>
      <trkpt lat="33.426284361630678" lon="-5.192121220752597">
        <ele>1525.268798828125</ele>
        <time>2011-04-24T09:15:35Z</time>
      </trkpt>
      <trkpt lat="33.425871217623353" lon="-5.192815326154232">
        <ele>1518.539794921875</ele>
        <time>2011-04-24T09:15:40Z</time>
      </trkpt>
      <trkpt lat="33.425836768001318" lon="-5.193006433546543">
        <ele>1516.6171875</ele>
        <time>2011-04-24T09:15:41Z</time>
      </trkpt>
      <trkpt lat="33.425536276772618" lon="-5.194580135867">
        <ele>1506.04248046875</ele>
        <time>2011-04-24T09:15:48Z</time>
      </trkpt>
      <trkpt lat="33.425554381683469" lon="-5.195468869060278">
        <ele>1500.75537109375</ele>
        <time>2011-04-24T09:15:52Z</time>
      </trkpt>
      <trkpt lat="33.425662843510509" lon="-5.196572430431843">
        <ele>1493.064697265625</ele>
        <time>2011-04-24T09:15:57Z</time>
      </trkpt>
      <trkpt lat="33.426050925627351" lon="-5.197481531649828">
        <ele>1485.374267578125</ele>
        <time>2011-04-24T09:16:02Z</time>
      </trkpt>
      <trkpt lat="33.427058849483728" lon="-5.198559947311878">
        <ele>1478.64501953125</ele>
        <time>2011-04-24T09:16:09Z</time>
      </trkpt>
      <trkpt lat="33.427656730636954" lon="-5.198931517079473">
        <ele>1477.203125</ele>
        <time>2011-04-24T09:16:13Z</time>
      </trkpt>
      <trkpt lat="33.427921766415238" lon="-5.199555465951562">
        <ele>1471.915771484375</ele>
        <time>2011-04-24T09:16:18Z</time>
      </trkpt>
      <trkpt lat="33.427907265722752" lon="-5.19974498078227">
        <ele>1470.473876953125</ele>
        <time>2011-04-24T09:16:19Z</time>
      </trkpt>
      <trkpt lat="33.428032072260976" lon="-5.201212652027607">
        <ele>1458.93798828125</ele>
        <time>2011-04-24T09:16:26Z</time>
      </trkpt>
      <trkpt lat="33.428356116637588" lon="-5.202399780973792">
        <ele>1450.2861328125</ele>
        <time>2011-04-24T09:16:32Z</time>
      </trkpt>
      <trkpt lat="33.428944777697325" lon="-5.202998584136367">
        <ele>1444.03759765625</ele>
        <time>2011-04-24T09:16:37Z</time>
      </trkpt>
      <trkpt lat="33.429623376578093" lon="-5.202955333516002">
        <ele>1437.7890625</ele>
        <time>2011-04-24T09:16:41Z</time>
      </trkpt>
      <trkpt lat="33.431183081120253" lon="-5.202674958854914">
        <ele>1425.7724609375</ele>
        <time>2011-04-24T09:16:49Z</time>
      </trkpt>
      <trkpt lat="33.432084638625383" lon="-5.20297477953136">
        <ele>1420.4853515625</ele>
        <time>2011-04-24T09:16:54Z</time>
      </trkpt>
      <trkpt lat="33.433492630720139" lon="-5.203968118876219">
        <ele>1407.507568359375</ele>
        <time>2011-04-24T09:17:03Z</time>
      </trkpt>
      <trkpt lat="33.43482468277216" lon="-5.204917537048459">
        <ele>1396.452392578125</ele>
        <time>2011-04-24T09:17:12Z</time>
      </trkpt>
      <trkpt lat="33.435701681300998" lon="-5.205520363524556">
        <ele>1392.12646484375</ele>
        <time>2011-04-24T09:17:19Z</time>
      </trkpt>
      <trkpt lat="33.436578847467899" lon="-5.205780789256096">
        <ele>1393.087646484375</ele>
        <time>2011-04-24T09:17:25Z</time>
      </trkpt>
      <trkpt lat="33.43789329752326" lon="-5.205786824226379">
        <ele>1401.739501953125</ele>
        <time>2011-04-24T09:17:34Z</time>
      </trkpt>
      <trkpt lat="33.438474079594016" lon="-5.20567542873323">
        <ele>1406.546142578125</ele>
        <time>2011-04-24T09:17:39Z</time>
      </trkpt>
      <trkpt lat="33.43905963934958" lon="-5.205122642219067">
        <ele>1407.98828125</ele>
        <time>2011-04-24T09:17:45Z</time>
      </trkpt>
      <trkpt lat="33.439132226631045" lon="-5.20497084595263">
        <ele>1407.507568359375</ele>
        <time>2011-04-24T09:17:46Z</time>
      </trkpt>
      <trkpt lat="33.439993467181921" lon="-5.202988861128688">
        <ele>1405.104248046875</ele>
        <time>2011-04-24T09:17:57Z</time>
      </trkpt>
      <trkpt lat="33.440716657787561" lon="-5.201335866004229">
        <ele>1405.104248046875</ele>
        <time>2011-04-24T09:18:07Z</time>
      </trkpt>
      <trkpt lat="33.441016227006912" lon="-5.200205482542515">
        <ele>1405.104248046875</ele>
        <time>2011-04-24T09:18:13Z</time>
      </trkpt>
      <trkpt lat="33.441439345479012" lon="-5.19869782961905">
        <ele>1408.949462890625</ele>
        <time>2011-04-24T09:18:20Z</time>
      </trkpt>
      <trkpt lat="33.442250546067953" lon="-5.197217836976051">
        <ele>1414.71728515625</ele>
        <time>2011-04-24T09:18:28Z</time>
      </trkpt>
      <trkpt lat="33.443093430250883" lon="-5.195673471316695">
        <ele>1418.5625</ele>
        <time>2011-04-24T09:18:37Z</time>
      </trkpt>
      <trkpt lat="33.444027090445161" lon="-5.193697856739163">
        <ele>1426.73388671875</ele>
        <time>2011-04-24T09:18:48Z</time>
      </trkpt>
      <trkpt lat="33.444662522524595" lon="-5.19161025993526">
        <ele>1432.501708984375</ele>
        <time>2011-04-24T09:18:59Z</time>
      </trkpt>
      <trkpt lat="33.445251854136586" lon="-5.189673872664571">
        <ele>1438.75048828125</ele>
        <time>2011-04-24T09:19:10Z</time>
      </trkpt>
      <trkpt lat="33.44602944329381" lon="-5.187141196802259">
        <ele>1452.208740234375</ele>
        <time>2011-04-24T09:19:23Z</time>
      </trkpt>
      <trkpt lat="33.446325324475765" lon="-5.185482585802674">
        <ele>1459.418701171875</ele>
        <time>2011-04-24T09:19:31Z</time>
      </trkpt>
      <trkpt lat="33.44622784294188" lon="-5.184006951749325">
        <ele>1465.1865234375</ele>
        <time>2011-04-24T09:19:38Z</time>
      </trkpt>
      <trkpt lat="33.446068670600653" lon="-5.182308442890644">
        <ele>1469.9931640625</ele>
        <time>2011-04-24T09:19:46Z</time>
      </trkpt>
      <trkpt lat="33.446333454921842" lon="-5.181193146854639">
        <ele>1473.83837890625</ele>
        <time>2011-04-24T09:19:51Z</time>
      </trkpt>
      <trkpt lat="33.446921780705452" lon="-5.180014232173562">
        <ele>1479.12548828125</ele>
        <time>2011-04-24T09:19:57Z</time>
      </trkpt>
      <trkpt lat="33.44733358360827" lon="-5.178731381893158">
        <ele>1483.93212890625</ele>
        <time>2011-04-24T09:20:03Z</time>
      </trkpt>
      <trkpt lat="33.448152495548129" lon="-5.175499655306339">
        <ele>1493.54541015625</ele>
        <time>2011-04-24T09:20:17Z</time>
      </trkpt>
      <trkpt lat="33.448945926502347" lon="-5.172383766621351">
        <ele>1505.081298828125</ele>
        <time>2011-04-24T09:20:30Z</time>
      </trkpt>
      <trkpt lat="33.449365859851241" lon="-5.171019528061152">
        <ele>1510.368408203125</ele>
        <time>2011-04-24T09:20:36Z</time>
      </trkpt>
      <trkpt lat="33.450042782351375" lon="-5.17024889588356">
        <ele>1514.213623046875</ele>
        <time>2011-04-24T09:20:41Z</time>
      </trkpt>
      <trkpt lat="33.450207067653537" lon="-5.17014529556036">
        <ele>1514.213623046875</ele>
        <time>2011-04-24T09:20:42Z</time>
      </trkpt>
      <trkpt lat="33.452693894505501" lon="-5.168757252395153">
        <ele>1527.191650390625</ele>
        <time>2011-04-24T09:20:57Z</time>
      </trkpt>
      <trkpt lat="33.454633383080363" lon="-5.167666431516409">
        <ele>1532.95947265625</ele>
        <time>2011-04-24T09:21:08Z</time>
      </trkpt>
      <trkpt lat="33.456331640481949" lon="-5.166917257010937">
        <ele>1544.0146484375</ele>
        <time>2011-04-24T09:21:17Z</time>
      </trkpt>
      <trkpt lat="33.457386083900928" lon="-5.166343180462718">
        <ele>1552.66650390625</ele>
        <time>2011-04-24T09:21:23Z</time>
      </trkpt>
      <trkpt lat="33.458528621122241" lon="-5.165577074512839">
        <ele>1561.799072265625</ele>
        <time>2011-04-24T09:21:30Z</time>
      </trkpt>
      <trkpt lat="33.459603264927864" lon="-5.165270380675793">
        <ele>1569.009033203125</ele>
        <time>2011-04-24T09:21:36Z</time>
      </trkpt>
      <trkpt lat="33.460317822173238" lon="-5.164755396544933">
        <ele>1575.25732421875</ele>
        <time>2011-04-24T09:21:41Z</time>
      </trkpt>
      <trkpt lat="33.461271766573191" lon="-5.163705898448825">
        <ele>1584.39013671875</ele>
        <time>2011-04-24T09:21:49Z</time>
      </trkpt>
      <trkpt lat="33.462919481098652" lon="-5.162558751180768">
        <ele>1598.3291015625</ele>
        <time>2011-04-24T09:22:01Z</time>
      </trkpt>
      <trkpt lat="33.463747864589095" lon="-5.161981657147408">
        <ele>1605.058349609375</ele>
        <time>2011-04-24T09:22:07Z</time>
      </trkpt>
      <trkpt lat="33.464426044374704" lon="-5.16183421947062">
        <ele>1609.86474609375</ele>
        <time>2011-04-24T09:22:12Z</time>
      </trkpt>
      <trkpt lat="33.464871542528272" lon="-5.16211568377912">
        <ele>1612.7490234375</ele>
        <time>2011-04-24T09:22:16Z</time>
      </trkpt>
      <trkpt lat="33.464963659644127" lon="-5.162225319072604">
        <ele>1613.710205078125</ele>
        <time>2011-04-24T09:22:17Z</time>
      </trkpt>
      <trkpt lat="33.465767316520214" lon="-5.163280265405774">
        <ele>1618.99755859375</ele>
        <time>2011-04-24T09:22:27Z</time>
      </trkpt>
      <trkpt lat="33.466304847970605" lon="-5.163964396342635">
        <ele>1618.99755859375</ele>
        <time>2011-04-24T09:22:33Z</time>
      </trkpt>
      <trkpt lat="33.466640040278435" lon="-5.164322638884187">
        <ele>1619.478271484375</ele>
        <time>2011-04-24T09:22:36Z</time>
      </trkpt>
      <trkpt lat="33.467457359656692" lon="-5.164648192003369">
        <ele>1623.803955078125</ele>
        <time>2011-04-24T09:22:42Z</time>
      </trkpt>
      <trkpt lat="33.467588117346168" lon="-5.164670152589679">
        <ele>1624.765380859375</ele>
        <time>2011-04-24T09:22:43Z</time>
      </trkpt>
      <trkpt lat="33.468191530555487" lon="-5.164579292759299">
        <ele>1628.61083984375</ele>
        <time>2011-04-24T09:22:48Z</time>
      </trkpt>
      <trkpt lat="33.468664521351457" lon="-5.164611395448446">
        <ele>1631.49462890625</ele>
        <time>2011-04-24T09:22:52Z</time>
      </trkpt>
      <trkpt lat="33.469649478793144" lon="-5.164892356842756">
        <ele>1638.223876953125</ele>
        <time>2011-04-24T09:23:01Z</time>
      </trkpt>
      <trkpt lat="33.470317097380757" lon="-5.164627069607377">
        <ele>1640.146484375</ele>
        <time>2011-04-24T09:23:07Z</time>
      </trkpt>
      <trkpt lat="33.470412483438849" lon="-5.164529671892524">
        <ele>1640.626953125</ele>
        <time>2011-04-24T09:23:08Z</time>
      </trkpt>
      <trkpt lat="33.471283363178372" lon="-5.163579164072871">
        <ele>1647.837158203125</ele>
        <time>2011-04-24T09:23:18Z</time>
      </trkpt>
      <trkpt lat="33.472223058342934" lon="-5.162938786670566">
        <ele>1655.046875</ele>
        <time>2011-04-24T09:23:28Z</time>
      </trkpt>
      <trkpt lat="33.472835356369615" lon="-5.162052819505334">
        <ele>1660.334228515625</ele>
        <time>2011-04-24T09:23:37Z</time>
      </trkpt>
      <trkpt lat="33.473028223961592" lon="-5.161771355196834">
        <ele>1661.295654296875</ele>
        <time>2011-04-24T09:23:40Z</time>
      </trkpt>
      <trkpt lat="33.473835149779916" lon="-5.161063084378839">
        <ele>1667.5439453125</ele>
        <time>2011-04-24T09:23:49Z</time>
      </trkpt>
      <trkpt lat="33.474356839433312" lon="-5.160618256777525">
        <ele>1671.38916015625</ele>
        <time>2011-04-24T09:23:54Z</time>
      </trkpt>
      <trkpt lat="33.474764367565513" lon="-5.159853575751185">
        <ele>1673.79248046875</ele>
        <time>2011-04-24T09:24:00Z</time>
      </trkpt>
      <trkpt lat="33.474835529923439" lon="-5.159403467550874">
        <ele>1674.75390625</ele>
        <time>2011-04-24T09:24:03Z</time>
      </trkpt>
      <trkpt lat="33.474879283457994" lon="-5.158984120935202">
        <ele>1675.715087890625</ele>
        <time>2011-04-24T09:24:06Z</time>
      </trkpt>
      <trkpt lat="33.47522352822125" lon="-5.158119192346931">
        <ele>1673.79248046875</ele>
        <time>2011-04-24T09:24:12Z</time>
      </trkpt>
      <trkpt lat="33.475727532058954" lon="-5.157596664503217">
        <ele>1671.38916015625</ele>
        <time>2011-04-24T09:24:16Z</time>
      </trkpt>
      <trkpt lat="33.477470297366381" lon="-5.156382545828819">
        <ele>1665.62158203125</ele>
        <time>2011-04-24T09:24:27Z</time>
      </trkpt>
      <trkpt lat="33.478235816583037" lon="-5.1557756960392">
        <ele>1662.2568359375</ele>
        <time>2011-04-24T09:24:32Z</time>
      </trkpt>
      <trkpt lat="33.479522438719869" lon="-5.154827954247594">
        <ele>1662.737548828125</ele>
        <time>2011-04-24T09:24:41Z</time>
      </trkpt>
      <trkpt lat="33.481078455224633" lon="-5.153624229133129">
        <ele>1661.7763671875</ele>
        <time>2011-04-24T09:24:51Z</time>
      </trkpt>
      <trkpt lat="33.482701862230897" lon="-5.152292679995298">
        <ele>1656.48876953125</ele>
        <time>2011-04-24T09:25:02Z</time>
      </trkpt>
      <trkpt lat="33.483128249645233" lon="-5.151909040287137">
        <ele>1655.527587890625</ele>
        <time>2011-04-24T09:25:05Z</time>
      </trkpt>
      <trkpt lat="33.483548518270254" lon="-5.151254162192345">
        <ele>1654.566162109375</ele>
        <time>2011-04-24T09:25:09Z</time>
      </trkpt>
      <trkpt lat="33.484468935057521" lon="-5.149184418842197">
        <ele>1656.48876953125</ele>
        <time>2011-04-24T09:25:21Z</time>
      </trkpt>
      <trkpt lat="33.485224395990372" lon="-5.147656062617898">
        <ele>1663.21826171875</ele>
        <time>2011-04-24T09:25:30Z</time>
      </trkpt>
      <trkpt lat="33.485550871118903" lon="-5.147271165624261">
        <ele>1665.140869140625</ele>
        <time>2011-04-24T09:25:33Z</time>
      </trkpt>
      <trkpt lat="33.486415632069111" lon="-5.146905463188887">
        <ele>1668.50537109375</ele>
        <time>2011-04-24T09:25:39Z</time>
      </trkpt>
      <trkpt lat="33.487966367974877" lon="-5.146816782653332">
        <ele>1676.6767578125</ele>
        <time>2011-04-24T09:25:49Z</time>
      </trkpt>
      <trkpt lat="33.488132497295737" lon="-5.146847879514098">
        <ele>1677.637939453125</ele>
        <time>2011-04-24T09:25:50Z</time>
      </trkpt>
      <trkpt lat="33.489239746704698" lon="-5.147378956899047">
        <ele>1684.3671875</ele>
        <time>2011-04-24T09:25:58Z</time>
      </trkpt>
      <trkpt lat="33.490215232595801" lon="-5.147670898586512">
        <ele>1690.135009765625</ele>
        <time>2011-04-24T09:26:05Z</time>
      </trkpt>
      <trkpt lat="33.491405295208097" lon="-5.147865442559123">
        <ele>1693.499755859375</ele>
        <time>2011-04-24T09:26:13Z</time>
      </trkpt>
      <trkpt lat="33.493063654750586" lon="-5.148126371204853">
        <ele>1693.01904296875</ele>
        <time>2011-04-24T09:26:23Z</time>
      </trkpt>
      <trkpt lat="33.494914127513766" lon="-5.148412277922034">
        <ele>1690.615478515625</ele>
        <time>2011-04-24T09:26:34Z</time>
      </trkpt>
      <trkpt lat="33.496972974389791" lon="-5.148736489936709">
        <ele>1684.847900390625</ele>
        <time>2011-04-24T09:26:45Z</time>
      </trkpt>
      <trkpt lat="33.498910535126925" lon="-5.149025497958064">
        <ele>1679.079833984375</ele>
        <time>2011-04-24T09:26:54Z</time>
      </trkpt>
      <trkpt lat="33.502029273658991" lon="-5.149460770189762">
        <ele>1675.234375</ele>
        <time>2011-04-24T09:27:08Z</time>
      </trkpt>
      <trkpt lat="33.503134679049253" lon="-5.149152986705303">
        <ele>1672.831298828125</ele>
        <time>2011-04-24T09:27:14Z</time>
      </trkpt>
      <trkpt lat="33.503831047564745" lon="-5.148506490513682">
        <ele>1669.947265625</ele>
        <time>2011-04-24T09:27:19Z</time>
      </trkpt>
      <trkpt lat="33.504299931228161" lon="-5.147572327405214">
        <ele>1665.62158203125</ele>
        <time>2011-04-24T09:27:24Z</time>
      </trkpt>
      <trkpt lat="33.504449632018805" lon="-5.146489469334483">
        <ele>1660.81494140625</ele>
        <time>2011-04-24T09:27:29Z</time>
      </trkpt>
      <trkpt lat="33.5042788926512" lon="-5.1454490236938">
        <ele>1656.008056640625</ele>
        <time>2011-04-24T09:27:34Z</time>
      </trkpt>
      <trkpt lat="33.503297455608845" lon="-5.142884580418468">
        <ele>1653.60498046875</ele>
        <time>2011-04-24T09:27:47Z</time>
      </trkpt>
      <trkpt lat="33.502371925860643" lon="-5.140421558171511">
        <ele>1658.89208984375</ele>
        <time>2011-04-24T09:27:59Z</time>
      </trkpt>
      <trkpt lat="33.501827521249652" lon="-5.138977942988277">
        <ele>1662.2568359375</ele>
        <time>2011-04-24T09:28:07Z</time>
      </trkpt>
      <trkpt lat="33.501202818006277" lon="-5.137167451903224">
        <ele>1667.0634765625</ele>
        <time>2011-04-24T09:28:17Z</time>
      </trkpt>
      <trkpt lat="33.501151939854026" lon="-5.135982083156705">
        <ele>1668.50537109375</ele>
        <time>2011-04-24T09:28:23Z</time>
      </trkpt>
      <trkpt lat="33.501425189897418" lon="-5.134943230077624">
        <ele>1665.140869140625</ele>
        <time>2011-04-24T09:28:28Z</time>
      </trkpt>
      <trkpt lat="33.502043019980192" lon="-5.134007139131427">
        <ele>1661.295654296875</ele>
        <time>2011-04-24T09:28:33Z</time>
      </trkpt>
      <trkpt lat="33.503755191341043" lon="-5.132189774885774">
        <ele>1658.411376953125</ele>
        <time>2011-04-24T09:28:43Z</time>
      </trkpt>
      <trkpt lat="33.505134265869856" lon="-5.130519848316908">
        <ele>1661.7763671875</ele>
        <time>2011-04-24T09:28:51Z</time>
      </trkpt>
      <trkpt lat="33.506772173568606" lon="-5.128251956775785">
        <ele>1662.737548828125</ele>
        <time>2011-04-24T09:29:02Z</time>
      </trkpt>
      <trkpt lat="33.508189218118787" lon="-5.126297967508435">
        <ele>1663.69873046875</ele>
        <time>2011-04-24T09:29:12Z</time>
      </trkpt>
      <trkpt lat="33.508736891672015" lon="-5.125105725601316">
        <ele>1663.21826171875</ele>
        <time>2011-04-24T09:29:18Z</time>
      </trkpt>
      <trkpt lat="33.509421860799193" lon="-5.123726231977344">
        <ele>1662.2568359375</ele>
        <time>2011-04-24T09:29:25Z</time>
      </trkpt>
      <trkpt lat="33.510364573448896" lon="-5.122830038890243">
        <ele>1660.81494140625</ele>
        <time>2011-04-24T09:29:31Z</time>
      </trkpt>
      <trkpt lat="33.51168304681778" lon="-5.121775763109326">
        <ele>1657.930908203125</ele>
        <time>2011-04-24T09:29:38Z</time>
      </trkpt>
      <trkpt lat="33.512988779693842" lon="-5.120637165382505">
        <ele>1653.60498046875</ele>
        <time>2011-04-24T09:29:45Z</time>
      </trkpt>
      <trkpt lat="33.51345875300467" lon="-5.120192253962159">
        <ele>1652.162841796875</ele>
        <time>2011-04-24T09:29:49Z</time>
      </trkpt>
      <trkpt lat="33.513604933395982" lon="-5.119911963120103">
        <ele>1651.682373046875</ele>
        <time>2011-04-24T09:29:52Z</time>
      </trkpt>
      <trkpt lat="33.513882961124182" lon="-5.119826383888722">
        <ele>1651.20166015625</ele>
        <time>2011-04-24T09:29:56Z</time>
      </trkpt>
      <trkpt lat="33.514421749860048" lon="-5.119440648704767">
        <ele>1650.720947265625</ele>
        <time>2011-04-24T09:30:02Z</time>
      </trkpt>
      <trkpt lat="33.515377789735794" lon="-5.118620228022337">
        <ele>1650.720947265625</ele>
        <time>2011-04-24T09:30:10Z</time>
      </trkpt>
      <trkpt lat="33.515978856012225" lon="-5.11816643178463">
        <ele>1650.720947265625</ele>
        <time>2011-04-24T09:30:16Z</time>
      </trkpt>
      <trkpt lat="33.516619484871626" lon="-5.117731159552932">
        <ele>1651.20166015625</ele>
        <time>2011-04-24T09:30:23Z</time>
      </trkpt>
      <trkpt lat="33.517956733703613" lon="-5.116823483258486">
        <ele>1648.317626953125</ele>
        <time>2011-04-24T09:30:34Z</time>
      </trkpt>
      <trkpt lat="33.5194356366992" lon="-5.11575604788959">
        <ele>1646.395263671875</ele>
        <time>2011-04-24T09:30:46Z</time>
      </trkpt>
      <trkpt lat="33.520618071779609" lon="-5.11450806632638">
        <ele>1646.395263671875</ele>
        <time>2011-04-24T09:30:58Z</time>
      </trkpt>
      <trkpt lat="33.521775947883725" lon="-5.113288331776857">
        <ele>1649.279052734375</ele>
        <time>2011-04-24T09:31:10Z</time>
      </trkpt>
      <trkpt lat="33.522717654705048" lon="-5.112293148413301">
        <ele>1652.6435546875</ele>
        <time>2011-04-24T09:31:20Z</time>
      </trkpt>
      <trkpt lat="33.523547379299998" lon="-5.111265946179628">
        <ele>1655.046875</ele>
        <time>2011-04-24T09:31:29Z</time>
      </trkpt>
      <trkpt lat="33.524164035916328" lon="-5.110023329034448">
        <ele>1655.046875</ele>
        <time>2011-04-24T09:31:38Z</time>
      </trkpt>
      <trkpt lat="33.524471651762724" lon="-5.109199052676559">
        <ele>1656.008056640625</ele>
        <time>2011-04-24T09:31:44Z</time>
      </trkpt>
      <trkpt lat="33.524997867643833" lon="-5.107835317030549">
        <ele>1657.4501953125</ele>
        <time>2011-04-24T09:31:53Z</time>
      </trkpt>
      <trkpt lat="33.525042040273547" lon="-5.10769265703857">
        <ele>1656.969482421875</ele>
        <time>2011-04-24T09:31:54Z</time>
      </trkpt>
      <trkpt lat="33.525426099076867" lon="-5.10706334374845">
        <ele>1656.008056640625</ele>
        <time>2011-04-24T09:31:59Z</time>
      </trkpt>
      <trkpt lat="33.526749517768621" lon="-5.10571276769042">
        <ele>1649.279052734375</ele>
        <time>2011-04-24T09:32:11Z</time>
      </trkpt>
      <trkpt lat="33.527262574061751" lon="-5.10518403723836">
        <ele>1646.395263671875</ele>
        <time>2011-04-24T09:32:17Z</time>
      </trkpt>
      <trkpt lat="33.52743205614388" lon="-5.105023523792625">
        <ele>1645.433837890625</ele>
        <time>2011-04-24T09:32:20Z</time>
      </trkpt>
      <trkpt lat="33.527744617313147" lon="-5.105025367811322">
        <ele>1644.472412109375</ele>
        <time>2011-04-24T09:32:26Z</time>
      </trkpt>
      <trkpt lat="33.528452469035983" lon="-5.1055773999542">
        <ele>1644.472412109375</ele>
        <time>2011-04-24T09:32:35Z</time>
      </trkpt>
      <trkpt lat="33.528818590566516" lon="-5.105859534814954">
        <ele>1645.433837890625</ele>
        <time>2011-04-24T09:32:41Z</time>
      </trkpt>
      <trkpt lat="33.529377998784184" lon="-5.106260860338807">
        <ele>1646.875732421875</ele>
        <time>2011-04-24T09:32:50Z</time>
      </trkpt>
      <trkpt lat="33.529698858037591" lon="-5.1063337828964">
        <ele>1646.875732421875</ele>
        <time>2011-04-24T09:32:54Z</time>
      </trkpt>
      <trkpt lat="33.530615167692304" lon="-5.106365969404578">
        <ele>1643.0302734375</ele>
        <time>2011-04-24T09:33:03Z</time>
      </trkpt>
      <trkpt lat="33.531467439606786" lon="-5.106625640764833">
        <ele>1639.665771484375</ele>
        <time>2011-04-24T09:33:12Z</time>
      </trkpt>
      <trkpt lat="33.531636167317629" lon="-5.106674591079354">
        <ele>1639.18505859375</ele>
        <time>2011-04-24T09:33:14Z</time>
      </trkpt>
      <trkpt lat="33.532204125076532" lon="-5.106486333534122">
        <ele>1638.70458984375</ele>
        <time>2011-04-24T09:33:20Z</time>
      </trkpt>
      <trkpt lat="33.532302780076861" lon="-5.10639438405633">
        <ele>1638.70458984375</ele>
        <time>2011-04-24T09:33:21Z</time>
      </trkpt>
      <trkpt lat="33.5331123881042" lon="-5.105337174609304">
        <ele>1642.069091796875</ele>
        <time>2011-04-24T09:33:31Z</time>
      </trkpt>
      <trkpt lat="33.533318331465125" lon="-5.104595627635717">
        <ele>1642.5498046875</ele>
        <time>2011-04-24T09:33:37Z</time>
      </trkpt>
      <trkpt lat="33.533363761380315" lon="-5.103591391816735">
        <ele>1644.953125</ele>
        <time>2011-04-24T09:33:46Z</time>
      </trkpt>
      <trkpt lat="33.533399552106857" lon="-5.103124184533954">
        <ele>1646.395263671875</ele>
        <time>2011-04-24T09:33:50Z</time>
      </trkpt>
      <trkpt lat="33.533785454928875" lon="-5.102304182946682">
        <ele>1648.317626953125</ele>
        <time>2011-04-24T09:33:57Z</time>
      </trkpt>
      <trkpt lat="33.534284178167582" lon="-5.101940743625164">
        <ele>1650.240478515625</ele>
        <time>2011-04-24T09:34:02Z</time>
      </trkpt>
      <trkpt lat="33.534913323819637" lon="-5.10181987658143">
        <ele>1652.162841796875</ele>
        <time>2011-04-24T09:34:07Z</time>
      </trkpt>
      <trkpt lat="33.536095591261983" lon="-5.101906294003129">
        <ele>1655.046875</ele>
        <time>2011-04-24T09:34:16Z</time>
      </trkpt>
      <trkpt lat="33.53711323812604" lon="-5.101979887112975">
        <ele>1656.008056640625</ele>
        <time>2011-04-24T09:34:26Z</time>
      </trkpt>
      <trkpt lat="33.538013538345695" lon="-5.102071920409799">
        <ele>1656.008056640625</ele>
        <time>2011-04-24T09:34:33Z</time>
      </trkpt>
      <trkpt lat="33.539168396964669" lon="-5.102165965363383">
        <ele>1651.20166015625</ele>
        <time>2011-04-24T09:34:43Z</time>
      </trkpt>
      <trkpt lat="33.540127873420715" lon="-5.102178538218141">
        <ele>1644.953125</ele>
        <time>2011-04-24T09:34:51Z</time>
      </trkpt>
      <trkpt lat="33.540258882567286" lon="-5.102148028090596">
        <ele>1644.472412109375</ele>
        <time>2011-04-24T09:34:52Z</time>
      </trkpt>
      <trkpt lat="33.541050888597965" lon="-5.101680653169751">
        <ele>1638.70458984375</ele>
        <time>2011-04-24T09:34:58Z</time>
      </trkpt>
      <trkpt lat="33.541687577962875" lon="-5.100698629394174">
        <ele>1635.33984375</ele>
        <time>2011-04-24T09:35:05Z</time>
      </trkpt>
      <trkpt lat="33.542062835767865" lon="-5.100041069090366">
        <ele>1633.89794921875</ele>
        <time>2011-04-24T09:35:11Z</time>
      </trkpt>
      <trkpt lat="33.542530545964837" lon="-5.099518792703748">
        <ele>1632.9365234375</ele>
        <time>2011-04-24T09:35:18Z</time>
      </trkpt>
      <trkpt lat="33.543173940852284" lon="-5.099178068339825">
        <ele>1631.49462890625</ele>
        <time>2011-04-24T09:35:26Z</time>
      </trkpt>
      <trkpt lat="33.544055130332708" lon="-5.098782191053033">
        <ele>1630.533447265625</ele>
        <time>2011-04-24T09:35:34Z</time>
      </trkpt>
      <trkpt lat="33.545154081657529" lon="-5.098245246335864">
        <ele>1629.09130859375</ele>
        <time>2011-04-24T09:35:41Z</time>
      </trkpt>
      <trkpt lat="33.546495186164975" lon="-5.097823217511177">
        <ele>1625.245849609375</ele>
        <time>2011-04-24T09:35:48Z</time>
      </trkpt>
      <trkpt lat="33.5481689684093" lon="-5.097507555037737">
        <ele>1618.99755859375</ele>
        <time>2011-04-24T09:35:56Z</time>
      </trkpt>
      <trkpt lat="33.549790279939771" lon="-5.096680847927928">
        <ele>1617.555419921875</ele>
        <time>2011-04-24T09:36:04Z</time>
      </trkpt>
      <trkpt lat="33.550541885197163" lon="-5.096312882378697">
        <ele>1620.920166015625</ele>
        <time>2011-04-24T09:36:08Z</time>
      </trkpt>
      <trkpt lat="33.551509659737349" lon="-5.096279690042138">
        <ele>1622.8427734375</ele>
        <time>2011-04-24T09:36:13Z</time>
      </trkpt>
      <trkpt lat="33.551706550642848" lon="-5.096358060836792">
        <ele>1622.8427734375</ele>
        <time>2011-04-24T09:36:14Z</time>
      </trkpt>
      <trkpt lat="33.553879894316196" lon="-5.097541166469455">
        <ele>1621.400634765625</ele>
        <time>2011-04-24T09:36:25Z</time>
      </trkpt>
      <trkpt lat="33.554252218455076" lon="-5.097735794261098">
        <ele>1621.88134765625</ele>
        <time>2011-04-24T09:36:27Z</time>
      </trkpt>
      <trkpt lat="33.55502444319427" lon="-5.097875855863094">
        <ele>1622.362060546875</ele>
        <time>2011-04-24T09:36:31Z</time>
      </trkpt>
      <trkpt lat="33.557543121278286" lon="-5.097528761252761">
        <ele>1622.362060546875</ele>
        <time>2011-04-24T09:36:43Z</time>
      </trkpt>
      <trkpt lat="33.559334250167012" lon="-5.096990559250116">
        <ele>1622.362060546875</ele>
        <time>2011-04-24T09:36:51Z</time>
      </trkpt>
      <trkpt lat="33.561611948534846" lon="-5.096313469111919">
        <ele>1622.362060546875</ele>
        <time>2011-04-24T09:37:01Z</time>
      </trkpt>
      <trkpt lat="33.562813242897391" lon="-5.096272062510252">
        <ele>1618.99755859375</ele>
        <time>2011-04-24T09:37:06Z</time>
      </trkpt>
      <trkpt lat="33.566210176795721" lon="-5.096429223194718">
        <ele>1609.86474609375</ele>
        <time>2011-04-24T09:37:20Z</time>
      </trkpt>
      <trkpt lat="33.569302428513765" lon="-5.096516143530607">
        <ele>1604.57763671875</ele>
        <time>2011-04-24T09:37:33Z</time>
      </trkpt>
      <trkpt lat="33.570420490577817" lon="-5.096152452751994">
        <ele>1603.1357421875</ele>
        <time>2011-04-24T09:37:38Z</time>
      </trkpt>
      <trkpt lat="33.571940464898944" lon="-5.095599247142673">
        <ele>1601.69384765625</ele>
        <time>2011-04-24T09:37:45Z</time>
      </trkpt>
      <trkpt lat="33.575025172904134" lon="-5.094908578321338">
        <ele>1594.483642578125</ele>
        <time>2011-04-24T09:37:58Z</time>
      </trkpt>
      <trkpt lat="33.576447498053312" lon="-5.094343721866608">
        <ele>1592.08056640625</ele>
        <time>2011-04-24T09:38:04Z</time>
      </trkpt>
      <trkpt lat="33.577517196536064" lon="-5.093591781333089">
        <ele>1589.67724609375</ele>
        <time>2011-04-24T09:38:09Z</time>
      </trkpt>
      <trkpt lat="33.579411087557673" lon="-5.091771734878421">
        <ele>1579.583251953125</ele>
        <time>2011-04-24T09:38:19Z</time>
      </trkpt>
      <trkpt lat="33.580419262871146" lon="-5.091072767972946">
        <ele>1577.66064453125</ele>
        <time>2011-04-24T09:38:24Z</time>
      </trkpt>
      <trkpt lat="33.581765647977591" lon="-5.090662725269795">
        <ele>1575.738037109375</ele>
        <time>2011-04-24T09:38:30Z</time>
      </trkpt>
      <trkpt lat="33.584679951891303" lon="-5.08991782553494">
        <ele>1572.37353515625</ele>
        <time>2011-04-24T09:38:43Z</time>
      </trkpt>
      <trkpt lat="33.586358763277531" lon="-5.089256744831801">
        <ele>1569.97021484375</ele>
        <time>2011-04-24T09:38:51Z</time>
      </trkpt>
      <trkpt lat="33.587901284918189" lon="-5.088586024940014">
        <ele>1567.56689453125</ele>
        <time>2011-04-24T09:38:59Z</time>
      </trkpt>
      <trkpt lat="33.588966121897101" lon="-5.088141029700637">
        <ele>1563.721435546875</ele>
        <time>2011-04-24T09:39:07Z</time>
      </trkpt>
      <trkpt lat="33.590005226433277" lon="-5.087909270077944">
        <ele>1558.9150390625</ele>
        <time>2011-04-24T09:39:13Z</time>
      </trkpt>
      <trkpt lat="33.591665178537369" lon="-5.087600061669946">
        <ele>1555.550537109375</ele>
        <time>2011-04-24T09:39:21Z</time>
      </trkpt>
      <trkpt lat="33.594062989577651" lon="-5.086740246042609">
        <ele>1556.992431640625</ele>
        <time>2011-04-24T09:39:32Z</time>
      </trkpt>
      <trkpt lat="33.596590887755156" lon="-5.085841370746493">
        <ele>1552.66650390625</ele>
        <time>2011-04-24T09:39:43Z</time>
      </trkpt>
      <trkpt lat="33.599774083122611" lon="-5.084713585674763">
        <ele>1546.41796875</ele>
        <time>2011-04-24T09:39:56Z</time>
      </trkpt>
      <trkpt lat="33.6021145619452" lon="-5.083877742290497">
        <ele>1538.246826171875</ele>
        <time>2011-04-24T09:40:06Z</time>
      </trkpt>
      <trkpt lat="33.604148179292679" lon="-5.083155641332269">
        <ele>1530.55615234375</ele>
        <time>2011-04-24T09:40:16Z</time>
      </trkpt>
      <trkpt lat="33.60632018186152" lon="-5.082371262833476">
        <ele>1531.517333984375</ele>
        <time>2011-04-24T09:40:28Z</time>
      </trkpt>
      <trkpt lat="33.609331799671054" lon="-5.081338947638869">
        <ele>1536.8046875</ele>
        <time>2011-04-24T09:40:44Z</time>
      </trkpt>
      <trkpt lat="33.610836938023567" lon="-5.081104673445225">
        <ele>1533.9208984375</ele>
        <time>2011-04-24T09:40:52Z</time>
      </trkpt>
      <trkpt lat="33.612214252352715" lon="-5.081159574910998">
        <ele>1527.672119140625</ele>
        <time>2011-04-24T09:40:59Z</time>
      </trkpt>
      <trkpt lat="33.6147172562778" lon="-5.08141421712935">
        <ele>1520.46240234375</ele>
        <time>2011-04-24T09:41:11Z</time>
      </trkpt>
      <trkpt lat="33.616700917482376" lon="-5.081605659797788">
        <ele>1519.981689453125</ele>
        <time>2011-04-24T09:41:21Z</time>
      </trkpt>
      <trkpt lat="33.618876775726676" lon="-5.081784445792437">
        <ele>1519.501220703125</ele>
        <time>2011-04-24T09:41:32Z</time>
      </trkpt>
      <trkpt lat="33.620095672085881" lon="-5.081577245146036">
        <ele>1519.0205078125</ele>
        <time>2011-04-24T09:41:38Z</time>
      </trkpt>
      <trkpt lat="33.621280957013369" lon="-5.081021189689636">
        <ele>1518.539794921875</ele>
        <time>2011-04-24T09:41:44Z</time>
      </trkpt>
      <trkpt lat="33.623353550210595" lon="-5.079938750714064">
        <ele>1512.291015625</ele>
        <time>2011-04-24T09:41:55Z</time>
      </trkpt>
      <trkpt lat="33.625460593029857" lon="-5.078845247626305">
        <ele>1505.081298828125</ele>
        <time>2011-04-24T09:42:06Z</time>
      </trkpt>
      <trkpt lat="33.627808028832078" lon="-5.077619226649404">
        <ele>1500.27490234375</ele>
        <time>2011-04-24T09:42:18Z</time>
      </trkpt>
      <trkpt lat="33.629469741135836" lon="-5.076760333031416">
        <ele>1501.236083984375</ele>
        <time>2011-04-24T09:42:27Z</time>
      </trkpt>
      <trkpt lat="33.631772920489311" lon="-5.075568342581391">
        <ele>1499.313232421875</ele>
        <time>2011-04-24T09:42:39Z</time>
      </trkpt>
      <trkpt lat="33.633834533393383" lon="-5.074509037658572">
        <ele>1496.429443359375</ele>
        <time>2011-04-24T09:42:50Z</time>
      </trkpt>
      <trkpt lat="33.635607473552227" lon="-5.073593817651272">
        <ele>1493.54541015625</ele>
        <time>2011-04-24T09:43:01Z</time>
      </trkpt>
      <trkpt lat="33.637470686808228" lon="-5.07262771949172">
        <ele>1487.777587890625</ele>
        <time>2011-04-24T09:43:13Z</time>
      </trkpt>
      <trkpt lat="33.639323925599456" lon="-5.071667321026325">
        <ele>1482.009521484375</ele>
        <time>2011-04-24T09:43:24Z</time>
      </trkpt>
      <trkpt lat="33.641332648694515" lon="-5.070621343329549">
        <ele>1477.203125</ele>
        <time>2011-04-24T09:43:35Z</time>
      </trkpt>
      <trkpt lat="33.64328739233315" lon="-5.069607468321919">
        <ele>1477.68359375</ele>
        <time>2011-04-24T09:43:46Z</time>
      </trkpt>
      <trkpt lat="33.645058823749423" lon="-5.068686129525304">
        <ele>1477.203125</ele>
        <time>2011-04-24T09:43:55Z</time>
      </trkpt>
      <trkpt lat="33.647330235689878" lon="-5.067508555948734">
        <ele>1476.722412109375</ele>
        <time>2011-04-24T09:44:07Z</time>
      </trkpt>
      <trkpt lat="33.648793464526534" lon="-5.066652428358793">
        <ele>1483.93212890625</ele>
        <time>2011-04-24T09:44:16Z</time>
      </trkpt>
      <trkpt lat="33.650383176282048" lon="-5.065341917797923">
        <ele>1489.7001953125</ele>
        <time>2011-04-24T09:44:27Z</time>
      </trkpt>
      <trkpt lat="33.651929721236229" lon="-5.064079519361258">
        <ele>1490.180908203125</ele>
        <time>2011-04-24T09:44:37Z</time>
      </trkpt>
      <trkpt lat="33.653958225622773" lon="-5.062409341335297">
        <ele>1493.54541015625</ele>
        <time>2011-04-24T09:44:50Z</time>
      </trkpt>
      <trkpt lat="33.65487227216363" lon="-5.061338972300291">
        <ele>1499.313232421875</ele>
        <time>2011-04-24T09:44:57Z</time>
      </trkpt>
      <trkpt lat="33.655490353703499" lon="-5.060193249955773">
        <ele>1504.1201171875</ele>
        <time>2011-04-24T09:45:04Z</time>
      </trkpt>
      <trkpt lat="33.656580671668053" lon="-5.057997945696116">
        <ele>1508.926513671875</ele>
        <time>2011-04-24T09:45:16Z</time>
      </trkpt>
      <trkpt lat="33.657901827245951" lon="-5.055246837437153">
        <ele>1512.771728515625</ele>
        <time>2011-04-24T09:45:30Z</time>
      </trkpt>
      <trkpt lat="33.659026762470603" lon="-5.052386596798897">
        <ele>1509.8876953125</ele>
        <time>2011-04-24T09:45:43Z</time>
      </trkpt>
      <trkpt lat="33.659659260883927" lon="-5.050294557586312">
        <ele>1513.73291015625</ele>
        <time>2011-04-24T09:45:52Z</time>
      </trkpt>
      <trkpt lat="33.659786162897944" lon="-5.049567595124245">
        <ele>1516.136474609375</ele>
        <time>2011-04-24T09:45:56Z</time>
      </trkpt>
      <trkpt lat="33.659801753237844" lon="-5.049414373934269">
        <ele>1517.097900390625</ele>
        <time>2011-04-24T09:45:59Z</time>
      </trkpt>
      <trkpt lat="33.659994453191757" lon="-5.048570819199085">
        <ele>1518.539794921875</ele>
        <time>2011-04-24T09:47:23Z</time>
      </trkpt>
      <trkpt lat="33.660285472869873" lon="-5.047266092151403">
        <ele>1519.0205078125</ele>
        <time>2011-04-24T09:47:33Z</time>
      </trkpt>
      <trkpt lat="33.660655952990055" lon="-5.046306448057294">
        <ele>1519.0205078125</ele>
        <time>2011-04-24T09:47:39Z</time>
      </trkpt>
      <trkpt lat="33.661403032019734" lon="-5.045167095959187">
        <ele>1517.578369140625</ele>
        <time>2011-04-24T09:47:46Z</time>
      </trkpt>
      <trkpt lat="33.662921581417322" lon="-5.043302793055773">
        <ele>1511.329833984375</ele>
        <time>2011-04-24T09:47:57Z</time>
      </trkpt>
      <trkpt lat="33.664367292076349" lon="-5.041550640016794">
        <ele>1505.081298828125</ele>
        <time>2011-04-24T09:48:08Z</time>
      </trkpt>
      <trkpt lat="33.665694985538721" lon="-5.040376419201493">
        <ele>1498.83251953125</ele>
        <time>2011-04-24T09:48:16Z</time>
      </trkpt>
      <trkpt lat="33.667948795482516" lon="-5.03858202137053">
        <ele>1489.219482421875</ele>
        <time>2011-04-24T09:48:29Z</time>
      </trkpt>
      <trkpt lat="33.669424261897802" lon="-5.037422552704811">
        <ele>1484.893798828125</ele>
        <time>2011-04-24T09:48:38Z</time>
      </trkpt>
      <trkpt lat="33.670420870184898" lon="-5.036313375458121">
        <ele>1481.04833984375</ele>
        <time>2011-04-24T09:48:45Z</time>
      </trkpt>
      <trkpt lat="33.671521246433258" lon="-5.034561641514301">
        <ele>1474.319091796875</ele>
        <time>2011-04-24T09:48:54Z</time>
      </trkpt>
      <trkpt lat="33.672650037333369" lon="-5.033179381862283">
        <ele>1466.62841796875</ele>
        <time>2011-04-24T09:49:02Z</time>
      </trkpt>
      <trkpt lat="33.674173783510923" lon="-5.031608529388905">
        <ele>1457.49609375</ele>
        <time>2011-04-24T09:49:12Z</time>
      </trkpt>
      <trkpt lat="33.675611447542906" lon="-5.030713677406311">
        <ele>1449.32470703125</ele>
        <time>2011-04-24T09:49:20Z</time>
      </trkpt>
      <trkpt lat="33.678196175023913" lon="-5.029351282864809">
        <ele>1434.905029296875</ele>
        <time>2011-04-24T09:49:33Z</time>
      </trkpt>
      <trkpt lat="33.68053212761879" lon="-5.028091818094254">
        <ele>1432.982177734375</ele>
        <time>2011-04-24T09:49:45Z</time>
      </trkpt>
      <trkpt lat="33.683184077963233" lon="-5.026523228734732">
        <ele>1438.75048828125</ele>
        <time>2011-04-24T09:49:59Z</time>
      </trkpt>
      <trkpt lat="33.685753382742405" lon="-5.024939551949501">
        <ele>1433.462890625</ele>
        <time>2011-04-24T09:50:12Z</time>
      </trkpt>
      <trkpt lat="33.688405752182007" lon="-5.023298542946577">
        <ele>1429.136962890625</ele>
        <time>2011-04-24T09:50:25Z</time>
      </trkpt>
      <trkpt lat="33.691663378849626" lon="-5.021288730204105">
        <ele>1425.291748046875</ele>
        <time>2011-04-24T09:50:40Z</time>
      </trkpt>
      <trkpt lat="33.695470690727234" lon="-5.01894255168736">
        <ele>1427.695068359375</ele>
        <time>2011-04-24T09:50:57Z</time>
      </trkpt>
      <trkpt lat="33.698488846421242" lon="-5.017074476927519">
        <ele>1427.695068359375</ele>
        <time>2011-04-24T09:51:11Z</time>
      </trkpt>
      <trkpt lat="33.700961424037814" lon="-5.015609655529261">
        <ele>1421.92724609375</ele>
        <time>2011-04-24T09:51:23Z</time>
      </trkpt>
      <trkpt lat="33.702367069199681" lon="-5.015078242868185">
        <ele>1415.6787109375</ele>
        <time>2011-04-24T09:51:30Z</time>
      </trkpt>
      <trkpt lat="33.704577628523111" lon="-5.01458203420043">
        <ele>1407.507568359375</ele>
        <time>2011-04-24T09:51:41Z</time>
      </trkpt>
      <trkpt lat="33.706254176795483" lon="-5.014208620414138">
        <ele>1401.739501953125</ele>
        <time>2011-04-24T09:51:50Z</time>
      </trkpt>
      <trkpt lat="33.708245130255818" lon="-5.013829087838531">
        <ele>1395.01025390625</ele>
        <time>2011-04-24T09:52:01Z</time>
      </trkpt>
      <trkpt lat="33.710561385378242" lon="-5.013458020985127">
        <ele>1389.242431640625</ele>
        <time>2011-04-24T09:52:14Z</time>
      </trkpt>
      <trkpt lat="33.712055459618568" lon="-5.013210084289312">
        <ele>1388.28125</ele>
        <time>2011-04-24T09:52:24Z</time>
      </trkpt>
      <trkpt lat="33.713329173624516" lon="-5.012817727401853">
        <ele>1386.8388671875</ele>
        <time>2011-04-24T09:52:33Z</time>
      </trkpt>
      <trkpt lat="33.714999435469508" lon="-5.012153880670667">
        <ele>1383.474365234375</ele>
        <time>2011-04-24T09:52:46Z</time>
      </trkpt>
      <trkpt lat="33.716769777238369" lon="-5.011487267911434">
        <ele>1380.10986328125</ele>
        <time>2011-04-24T09:53:00Z</time>
      </trkpt>
      <trkpt lat="33.717761775478721" lon="-5.011235391721129">
        <ele>1379.1484375</ele>
        <time>2011-04-24T09:53:09Z</time>
      </trkpt>
      <trkpt lat="33.718502651900053" lon="-5.011116117238998">
        <ele>1378.187255859375</ele>
        <time>2011-04-24T09:53:18Z</time>
      </trkpt>
      <trkpt lat="33.719320893287659" lon="-5.010988460853696">
        <ele>1375.783935546875</ele>
        <time>2011-04-24T09:53:29Z</time>
      </trkpt>
      <trkpt lat="33.719982476904988" lon="-5.010882345959544">
        <ele>1374.342041015625</ele>
        <time>2011-04-24T09:53:38Z</time>
      </trkpt>
      <trkpt lat="33.72043065726757" lon="-5.010755527764559">
        <ele>1373.861328125</ele>
        <time>2011-04-24T09:53:47Z</time>
      </trkpt>
      <trkpt lat="33.720622938126326" lon="-5.010756198316813">
        <ele>1373.861328125</ele>
        <time>2011-04-24T09:53:51Z</time>
      </trkpt>
      <trkpt lat="33.721230877563357" lon="-5.010696770623326">
        <ele>1371.9384765625</ele>
        <time>2011-04-24T09:53:58Z</time>
      </trkpt>
      <trkpt lat="33.722342066466808" lon="-5.010515134781599">
        <ele>1368.573974609375</ele>
        <time>2011-04-24T09:54:08Z</time>
      </trkpt>
      <trkpt lat="33.723793895915151" lon="-5.010338528081775">
        <ele>1365.690185546875</ele>
        <time>2011-04-24T09:54:20Z</time>
      </trkpt>
      <trkpt lat="33.725253269076347" lon="-5.010378593578935">
        <ele>1363.767333984375</ele>
        <time>2011-04-24T09:54:32Z</time>
      </trkpt>
      <trkpt lat="33.726574257016182" lon="-5.010457299649715">
        <ele>1363.767333984375</ele>
        <time>2011-04-24T09:54:43Z</time>
      </trkpt>
      <trkpt lat="33.727936651557684" lon="-5.010542292147875">
        <ele>1363.286865234375</ele>
        <time>2011-04-24T09:54:55Z</time>
      </trkpt>
      <trkpt lat="33.728830078616738" lon="-5.010600378736854">
        <ele>1363.286865234375</ele>
        <time>2011-04-24T09:55:06Z</time>
      </trkpt>
      <trkpt lat="33.729438856244087" lon="-5.010574143379927">
        <ele>1362.80615234375</ele>
        <time>2011-04-24T09:55:16Z</time>
      </trkpt>
      <trkpt lat="33.730089962482452" lon="-5.010451348498464">
        <ele>1362.80615234375</ele>
        <time>2011-04-24T09:55:28Z</time>
      </trkpt>
      <trkpt lat="33.730931337922812" lon="-5.010118586942554">
        <ele>1360.883544921875</ele>
        <time>2011-04-24T09:55:44Z</time>
      </trkpt>
      <trkpt lat="33.731554783880711" lon="-5.009800828993321">
        <ele>1359.441650390625</ele>
        <time>2011-04-24T09:55:54Z</time>
      </trkpt>
      <trkpt lat="33.732000198215246" lon="-5.00956135801971">
        <ele>1357.999755859375</ele>
        <time>2011-04-24T09:56:04Z</time>
      </trkpt>
      <trkpt lat="33.732290044426918" lon="-5.009390451014042">
        <ele>1356.5576171875</ele>
        <time>2011-04-24T09:56:13Z</time>
      </trkpt>
      <trkpt lat="33.732634456828237" lon="-5.009136982262135">
        <ele>1357.038330078125</ele>
        <time>2011-04-24T09:56:23Z</time>
      </trkpt>
      <trkpt lat="33.733100155368447" lon="-5.008671786636114">
        <ele>1356.5576171875</ele>
        <time>2011-04-24T09:56:31Z</time>
      </trkpt>
      <trkpt lat="33.733720583841205" lon="-5.008276076987386">
        <ele>1354.634765625</ele>
        <time>2011-04-24T09:56:39Z</time>
      </trkpt>
      <trkpt lat="33.734172619879246" lon="-5.00803392380476">
        <ele>1351.270263671875</ele>
        <time>2011-04-24T09:56:46Z</time>
      </trkpt>
      <trkpt lat="33.735177777707577" lon="-5.007459092885256">
        <ele>1344.060546875</ele>
        <time>2011-04-24T09:56:56Z</time>
      </trkpt>
      <trkpt lat="33.735446920618415" lon="-5.007011163979769">
        <ele>1341.176513671875</ele>
        <time>2011-04-24T09:57:01Z</time>
      </trkpt>
      <trkpt lat="33.735828381031752" lon="-5.005540894344449">
        <ele>1335.408447265625</ele>
        <time>2011-04-24T09:57:13Z</time>
      </trkpt>
      <trkpt lat="33.736343029886484" lon="-5.004758276045322">
        <ele>1332.524658203125</ele>
        <time>2011-04-24T09:57:20Z</time>
      </trkpt>
      <trkpt lat="33.737223297357559" lon="-5.003707353025675">
        <ele>1327.718017578125</ele>
        <time>2011-04-24T09:57:31Z</time>
      </trkpt>
      <trkpt lat="33.737845653668046" lon="-5.003481628373265">
        <ele>1323.87255859375</ele>
        <time>2011-04-24T09:57:37Z</time>
      </trkpt>
      <trkpt lat="33.738387878984213" lon="-5.003773653879762">
        <ele>1320.02734375</ele>
        <time>2011-04-24T09:57:42Z</time>
      </trkpt>
      <trkpt lat="33.738642437383533" lon="-5.004288386553526">
        <ele>1316.662841796875</ele>
        <time>2011-04-24T09:57:46Z</time>
      </trkpt>
      <trkpt lat="33.738653669133782" lon="-5.004910156130791">
        <ele>1314.740234375</ele>
        <time>2011-04-24T09:57:50Z</time>
      </trkpt>
      <trkpt lat="33.738593654707074" lon="-5.005368394777179">
        <ele>1312.817626953125</ele>
        <time>2011-04-24T09:57:53Z</time>
      </trkpt>
      <trkpt lat="33.738659787923098" lon="-5.005986727774143">
        <ele>1308.972412109375</ele>
        <time>2011-04-24T09:57:57Z</time>
      </trkpt>
      <trkpt lat="33.739178040996194" lon="-5.007381057366729">
        <ele>1298.87841796875</ele>
        <time>2011-04-24T09:58:05Z</time>
      </trkpt>
      <trkpt lat="33.739452883601189" lon="-5.007800152525306">
        <ele>1296.475341796875</ele>
        <time>2011-04-24T09:58:08Z</time>
      </trkpt>
      <trkpt lat="33.740180935710669" lon="-5.008165771141648">
        <ele>1290.2265625</ele>
        <time>2011-04-24T09:58:14Z</time>
      </trkpt>
      <trkpt lat="33.740340527147055" lon="-5.008144062012434">
        <ele>1289.745849609375</ele>
        <time>2011-04-24T09:58:15Z</time>
      </trkpt>
      <trkpt lat="33.742029899731278" lon="-5.007751788944006">
        <ele>1276.768310546875</ele>
        <time>2011-04-24T09:58:26Z</time>
      </trkpt>
      <trkpt lat="33.742324272170663" lon="-5.007606782019138">
        <ele>1274.36474609375</ele>
        <time>2011-04-24T09:58:28Z</time>
      </trkpt>
      <trkpt lat="33.743029190227389" lon="-5.006886860355735">
        <ele>1269.07763671875</ele>
        <time>2011-04-24T09:58:34Z</time>
      </trkpt>
      <trkpt lat="33.743662526831031" lon="-5.005618091672659">
        <ele>1264.751708984375</ele>
        <time>2011-04-24T09:58:43Z</time>
      </trkpt>
      <trkpt lat="33.744449419900775" lon="-5.004391148686409">
        <ele>1259.46435546875</ele>
        <time>2011-04-24T09:58:53Z</time>
      </trkpt>
      <trkpt lat="33.744715126231313" lon="-5.004089316353202">
        <ele>1257.541748046875</ele>
        <time>2011-04-24T09:58:56Z</time>
      </trkpt>
      <trkpt lat="33.745297668501735" lon="-5.003910446539521">
        <ele>1255.619140625</ele>
        <time>2011-04-24T09:59:01Z</time>
      </trkpt>
      <trkpt lat="33.745685247704387" lon="-5.004027960821986">
        <ele>1253.696533203125</ele>
        <time>2011-04-24T09:59:04Z</time>
      </trkpt>
      <trkpt lat="33.746424950659275" lon="-5.00437069684267">
        <ele>1250.33203125</ele>
        <time>2011-04-24T09:59:10Z</time>
      </trkpt>
      <trkpt lat="33.747093575075269" lon="-5.004304144531488">
        <ele>1246.006103515625</ele>
        <time>2011-04-24T09:59:15Z</time>
      </trkpt>
      <trkpt lat="33.748374246060848" lon="-5.003849593922496">
        <ele>1239.276611328125</ele>
        <time>2011-04-24T09:59:24Z</time>
      </trkpt>
      <trkpt lat="33.749826326966286" lon="-5.003906171768904">
        <ele>1232.06689453125</ele>
        <time>2011-04-24T09:59:33Z</time>
      </trkpt>
      <trkpt lat="33.750888397917151" lon="-5.003904243931174">
        <ele>1225.818115234375</ele>
        <time>2011-04-24T09:59:38Z</time>
      </trkpt>
      <trkpt lat="33.752693356946111" lon="-5.004107672721148">
        <ele>1214.282470703125</ele>
        <time>2011-04-24T09:59:46Z</time>
      </trkpt>
      <trkpt lat="33.754199082031846" lon="-5.004834467545152">
        <ele>1204.188720703125</ele>
        <time>2011-04-24T09:59:53Z</time>
      </trkpt>
      <trkpt lat="33.754588086158037" lon="-5.005008392035961">
        <ele>1201.3046875</ele>
        <time>2011-04-24T09:59:55Z</time>
      </trkpt>
      <trkpt lat="33.755277246236801" lon="-5.005034040659666">
        <ele>1193.614013671875</ele>
        <time>2011-04-24T09:59:59Z</time>
      </trkpt>
      <trkpt lat="33.755805054679513" lon="-5.004826756194234">
        <ele>1189.2880859375</ele>
        <time>2011-04-24T10:00:02Z</time>
      </trkpt>
      <trkpt lat="33.756734859198332" lon="-5.004843855276704">
        <ele>1183.03955078125</ele>
        <time>2011-04-24T10:00:07Z</time>
      </trkpt>
      <trkpt lat="33.756916578859091" lon="-5.004927758127451">
        <ele>1181.59765625</ele>
        <time>2011-04-24T10:00:08Z</time>
      </trkpt>
      <trkpt lat="33.758109994232655" lon="-5.005293292924762">
        <ele>1171.984375</ele>
        <time>2011-04-24T10:00:14Z</time>
      </trkpt>
      <trkpt lat="33.759890729561448" lon="-5.005385661497712">
        <ele>1159.9677734375</ele>
        <time>2011-04-24T10:00:22Z</time>
      </trkpt>
      <trkpt lat="33.762266328558326" lon="-5.005113836377859">
        <ele>1144.586669921875</ele>
        <time>2011-04-24T10:00:33Z</time>
      </trkpt>
      <trkpt lat="33.763004187494516" lon="-5.004565240815282">
        <ele>1139.7802734375</ele>
        <time>2011-04-24T10:00:38Z</time>
      </trkpt>
      <trkpt lat="33.763252124190331" lon="-5.004247818142176">
        <ele>1137.857666015625</ele>
        <time>2011-04-24T10:00:40Z</time>
      </trkpt>
      <trkpt lat="33.764028623700142" lon="-5.00393383204937">
        <ele>1133.53173828125</ele>
        <time>2011-04-24T10:00:45Z</time>
      </trkpt>
      <trkpt lat="33.764203889295459" lon="-5.003950344398618">
        <ele>1132.08984375</ele>
        <time>2011-04-24T10:00:46Z</time>
      </trkpt>
      <trkpt lat="33.764739325270057" lon="-5.00400222837925">
        <ele>1128.72509765625</ele>
        <time>2011-04-24T10:00:49Z</time>
      </trkpt>
      <trkpt lat="33.765428150072694" lon="-5.003813551738858">
        <ele>1124.399169921875</ele>
        <time>2011-04-24T10:00:53Z</time>
      </trkpt>
      <trkpt lat="33.765899464488029" lon="-5.003596125170589">
        <ele>1121.51513671875</ele>
        <time>2011-04-24T10:00:56Z</time>
      </trkpt>
      <trkpt lat="33.766675796359777" lon="-5.003733588382602">
        <ele>1113.343994140625</ele>
        <time>2011-04-24T10:01:01Z</time>
      </trkpt>
      <trkpt lat="33.766812840476632" lon="-5.003860658034682">
        <ele>1112.86328125</ele>
        <time>2011-04-24T10:01:02Z</time>
      </trkpt>
      <trkpt lat="33.767565954476595" lon="-5.004348149523139">
        <ele>1107.095458984375</ele>
        <time>2011-04-24T10:01:07Z</time>
      </trkpt>
      <trkpt lat="33.768600365146995" lon="-5.004362985491753">
        <ele>1100.846923828125</ele>
        <time>2011-04-24T10:01:13Z</time>
      </trkpt>
      <trkpt lat="33.769225487485528" lon="-5.003877254202962">
        <ele>1097.962890625</ele>
        <time>2011-04-24T10:01:17Z</time>
      </trkpt>
      <trkpt lat="33.770400127395988" lon="-5.002248398959637">
        <ele>1087.869140625</ele>
        <time>2011-04-24T10:01:26Z</time>
      </trkpt>
      <trkpt lat="33.771025082096457" lon="-5.001047439873219">
        <ele>1082.581787109375</ele>
        <time>2011-04-24T10:01:32Z</time>
      </trkpt>
      <trkpt lat="33.771564038470387" lon="-5.000447295606136">
        <ele>1079.69775390625</ele>
        <time>2011-04-24T10:01:36Z</time>
      </trkpt>
      <trkpt lat="33.772930791601539" lon="-4.999364437535405">
        <ele>1076.333251953125</ele>
        <time>2011-04-24T10:01:46Z</time>
      </trkpt>
      <trkpt lat="33.773751463741064" lon="-4.998701848089695">
        <ele>1075.8525390625</ele>
        <time>2011-04-24T10:01:54Z</time>
      </trkpt>
      <trkpt lat="33.774617146700621" lon="-4.998033391311765">
        <ele>1074.41064453125</ele>
        <time>2011-04-24T10:02:03Z</time>
      </trkpt>
      <trkpt lat="33.775407476350665" lon="-4.997393852099776">
        <ele>1071.526611328125</ele>
        <time>2011-04-24T10:02:09Z</time>
      </trkpt>
      <trkpt lat="33.776716897264123" lon="-4.996333876624703">
        <ele>1065.278076171875</ele>
        <time>2011-04-24T10:02:17Z</time>
      </trkpt>
      <trkpt lat="33.77855496481061" lon="-4.994784565642476">
        <ele>1057.587646484375</ele>
        <time>2011-04-24T10:02:28Z</time>
      </trkpt>
      <trkpt lat="33.780470732599497" lon="-4.99309896491468">
        <ele>1044.609619140625</ele>
        <time>2011-04-24T10:02:41Z</time>
      </trkpt>
      <trkpt lat="33.781105242669582" lon="-4.992588255554438">
        <ele>1041.725830078125</ele>
        <time>2011-04-24T10:02:47Z</time>
      </trkpt>
      <trkpt lat="33.781790966168046" lon="-4.992167735472322">
        <ele>1038.842041015625</ele>
        <time>2011-04-24T10:02:57Z</time>
      </trkpt>
      <trkpt lat="33.782529244199395" lon="-4.991753669455648">
        <ele>1034.515869140625</ele>
        <time>2011-04-24T10:03:04Z</time>
      </trkpt>
      <trkpt lat="33.782772989943624" lon="-4.991627437993884">
        <ele>1032.59326171875</ele>
        <time>2011-04-24T10:03:06Z</time>
      </trkpt>
      <trkpt lat="33.783590896055102" lon="-4.991575134918094">
        <ele>1026.825439453125</ele>
        <time>2011-04-24T10:03:12Z</time>
      </trkpt>
      <trkpt lat="33.784167990088463" lon="-4.991948716342449">
        <ele>1022.018798828125</ele>
        <time>2011-04-24T10:03:16Z</time>
      </trkpt>
      <trkpt lat="33.784402683377266" lon="-4.992232862859964">
        <ele>1019.615478515625</ele>
        <time>2011-04-24T10:03:18Z</time>
      </trkpt>
      <trkpt lat="33.786031119525433" lon="-4.994475860148668">
        <ele>1004.234619140625</ele>
        <time>2011-04-24T10:03:33Z</time>
      </trkpt>
      <trkpt lat="33.786916919052601" lon="-4.994867378845811">
        <ele>997.505126953125</ele>
        <time>2011-04-24T10:03:39Z</time>
      </trkpt>
      <trkpt lat="33.787690568715334" lon="-4.994695130735636">
        <ele>992.69873046875</ele>
        <time>2011-04-24T10:03:44Z</time>
      </trkpt>
      <trkpt lat="33.788295574486256" lon="-4.994088280946016">
        <ele>987.891845703125</ele>
        <time>2011-04-24T10:03:49Z</time>
      </trkpt>
      <trkpt lat="33.788629760965705" lon="-4.993203990161419">
        <ele>983.56591796875</ele>
        <time>2011-04-24T10:03:54Z</time>
      </trkpt>
      <trkpt lat="33.788725817576051" lon="-4.992244178429246">
        <ele>977.798095703125</ele>
        <time>2011-04-24T10:03:59Z</time>
      </trkpt>
      <trkpt lat="33.788423147052526" lon="-4.990827217698097">
        <ele>969.146240234375</ele>
        <time>2011-04-24T10:04:06Z</time>
      </trkpt>
      <trkpt lat="33.788278223946691" lon="-4.990221373736858">
        <ele>966.742919921875</ele>
        <time>2011-04-24T10:04:09Z</time>
      </trkpt>
      <trkpt lat="33.788371430709958" lon="-4.989220323041081">
        <ele>964.339599609375</ele>
        <time>2011-04-24T10:04:14Z</time>
      </trkpt>
      <trkpt lat="33.788449298590422" lon="-4.989033825695515">
        <ele>963.85888671875</ele>
        <time>2011-04-24T10:04:15Z</time>
      </trkpt>
      <trkpt lat="33.789192941039801" lon="-4.987365826964378">
        <ele>960.013671875</ele>
        <time>2011-04-24T10:04:24Z</time>
      </trkpt>
      <trkpt lat="33.789861565455794" lon="-4.986690999940038">
        <ele>957.610595703125</ele>
        <time>2011-04-24T10:04:29Z</time>
      </trkpt>
      <trkpt lat="33.790209330618382" lon="-4.986555296927691">
        <ele>956.16845703125</ele>
        <time>2011-04-24T10:04:31Z</time>
      </trkpt>
      <trkpt lat="33.790729762986302" lon="-4.986435519531369">
        <ele>953.76513671875</ele>
        <time>2011-04-24T10:04:34Z</time>
      </trkpt>
      <trkpt lat="33.791521349921823" lon="-4.986738692969084">
        <ele>947.997314453125</ele>
        <time>2011-04-24T10:04:39Z</time>
      </trkpt>
      <trkpt lat="33.791795773431659" lon="-4.987328527495265">
        <ele>944.632568359375</ele>
        <time>2011-04-24T10:04:42Z</time>
      </trkpt>
      <trkpt lat="33.791835252195597" lon="-4.987529022619128">
        <ele>943.67138671875</ele>
        <time>2011-04-24T10:04:43Z</time>
      </trkpt>
      <trkpt lat="33.792103137820959" lon="-4.988883873447776">
        <ele>937.422607421875</ele>
        <time>2011-04-24T10:04:50Z</time>
      </trkpt>
      <trkpt lat="33.792490465566516" lon="-4.98954713344574">
        <ele>933.577392578125</ele>
        <time>2011-04-24T10:04:54Z</time>
      </trkpt>
      <trkpt lat="33.793446086347103" lon="-4.990632757544518">
        <ele>927.8095703125</ele>
        <time>2011-04-24T10:05:01Z</time>
      </trkpt>
      <trkpt lat="33.794264243915677" lon="-4.991086134687066">
        <ele>922.522216796875</ele>
        <time>2011-04-24T10:05:06Z</time>
      </trkpt>
      <trkpt lat="33.795039067044854" lon="-4.99101203866303">
        <ele>917.235107421875</ele>
        <time>2011-04-24T10:05:10Z</time>
      </trkpt>
      <trkpt lat="33.79523629322648" lon="-4.990935092791915">
        <ele>915.793212890625</ele>
        <time>2011-04-24T10:05:11Z</time>
      </trkpt>
      <trkpt lat="33.797201681882143" lon="-4.989980477839708">
        <ele>906.660400390625</ele>
        <time>2011-04-24T10:05:22Z</time>
      </trkpt>
      <trkpt lat="33.798179849982262" lon="-4.989514863118529">
        <ele>902.33447265625</ele>
        <time>2011-04-24T10:05:29Z</time>
      </trkpt>
      <trkpt lat="33.799411570653319" lon="-4.988931147381663">
        <ele>897.04736328125</ele>
        <time>2011-04-24T10:05:37Z</time>
      </trkpt>
      <trkpt lat="33.800490321591496" lon="-4.988156156614423">
        <ele>893.682861328125</ele>
        <time>2011-04-24T10:05:44Z</time>
      </trkpt>
      <trkpt lat="33.801919436082244" lon="-4.986709356307983">
        <ele>888.876220703125</ele>
        <time>2011-04-24T10:05:55Z</time>
      </trkpt>
      <trkpt lat="33.803591541945934" lon="-4.985006572678685">
        <ele>883.5888671875</ele>
        <time>2011-04-24T10:06:07Z</time>
      </trkpt>
      <trkpt lat="33.8046829495579" lon="-4.984145499765873">
        <ele>882.627685546875</ele>
        <time>2011-04-24T10:06:14Z</time>
      </trkpt>
      <trkpt lat="33.805793467909098" lon="-4.983715256676078">
        <ele>881.666259765625</ele>
        <time>2011-04-24T10:06:20Z</time>
      </trkpt>
      <trkpt lat="33.806925695389509" lon="-4.983626743778586">
        <ele>879.262939453125</ele>
        <time>2011-04-24T10:06:26Z</time>
      </trkpt>
      <trkpt lat="33.80859344266355" lon="-4.98366647399962">
        <ele>873.014404296875</ele>
        <time>2011-04-24T10:06:36Z</time>
      </trkpt>
      <trkpt lat="33.809303557500243" lon="-4.983813324943185">
        <ele>869.64990234375</ele>
        <time>2011-04-24T10:06:42Z</time>
      </trkpt>
      <trkpt lat="33.809975786134601" lon="-4.984040977433324">
        <ele>866.765869140625</ele>
        <time>2011-04-24T10:06:50Z</time>
      </trkpt>
      <trkpt lat="33.810312738642097" lon="-4.984083473682404">
        <ele>865.323974609375</ele>
        <time>2011-04-24T10:06:57Z</time>
      </trkpt>
      <trkpt lat="33.810452716425061" lon="-4.984133178368211">
        <ele>863.8818359375</ele>
        <time>2011-04-24T10:07:04Z</time>
      </trkpt>
      <trkpt lat="33.810623120516539" lon="-4.984097555279732">
        <ele>863.4013671875</ele>
        <time>2011-04-24T10:07:10Z</time>
      </trkpt>
      <trkpt lat="33.810537038370967" lon="-4.98406084254384">
        <ele>862.920654296875</ele>
        <time>2011-04-24T10:07:21Z</time>
      </trkpt>
      <trkpt lat="33.810379039496183" lon="-4.984061848372221">
        <ele>862.920654296875</ele>
        <time>2011-04-24T10:08:43Z</time>
      </trkpt>
      <trkpt lat="33.810166893526912" lon="-4.984302241355181">
        <ele>860.03662109375</ele>
        <time>2011-04-24T10:10:17Z</time>
      </trkpt>
      <trkpt lat="33.809884171932936" lon="-4.984235353767872">
        <ele>843.694091796875</ele>
        <time>2011-04-24T10:57:53Z</time>
      </trkpt>
      <trkpt lat="33.809709073975682" lon="-4.984250944107771">
        <ele>842.252197265625</ele>
        <time>2011-04-24T10:58:02Z</time>
      </trkpt>
      <trkpt lat="33.809684766456485" lon="-4.984075762331486">
        <ele>843.21337890625</ele>
        <time>2011-04-24T10:58:08Z</time>
      </trkpt>
      <trkpt lat="33.809804795309901" lon="-4.983996637165546">
        <ele>841.771484375</ele>
        <time>2011-04-24T10:58:14Z</time>
      </trkpt>
      <trkpt lat="33.810184998437762" lon="-4.983931090682745">
        <ele>840.32958984375</ele>
        <time>2011-04-24T10:58:25Z</time>
      </trkpt>
      <trkpt lat="33.810469564050436" lon="-4.983864035457373">
        <ele>838.406982421875</ele>
        <time>2011-04-24T10:58:31Z</time>
      </trkpt>
      <trkpt lat="33.810639716684818" lon="-4.983779964968562">
        <ele>836.484375</ele>
        <time>2011-04-24T10:58:38Z</time>
      </trkpt>
      <trkpt lat="33.811020841822028" lon="-4.983707880601287">
        <ele>834.561767578125</ele>
        <time>2011-04-24T10:58:48Z</time>
      </trkpt>
      <trkpt lat="33.811756353825331" lon="-4.983720285817981">
        <ele>831.677734375</ele>
        <time>2011-04-24T10:58:54Z</time>
      </trkpt>
      <trkpt lat="33.812917331233621" lon="-4.983750879764557">
        <ele>828.7939453125</ele>
        <time>2011-04-24T10:59:01Z</time>
      </trkpt>
      <trkpt lat="33.815137697383761" lon="-4.983801925554872">
        <ele>822.064453125</ele>
        <time>2011-04-24T10:59:13Z</time>
      </trkpt>
      <trkpt lat="33.817672552540898" lon="-4.98386244289577">
        <ele>812.93212890625</ele>
        <time>2011-04-24T10:59:26Z</time>
      </trkpt>
      <trkpt lat="33.820978878065944" lon="-4.983951793983579">
        <ele>800.91552734375</ele>
        <time>2011-04-24T10:59:42Z</time>
      </trkpt>
      <trkpt lat="33.824039194732904" lon="-4.984023962169886">
        <ele>789.8603515625</ele>
        <time>2011-04-24T10:59:56Z</time>
      </trkpt>
      <trkpt lat="33.827066738158464" lon="-4.984092861413956">
        <ele>778.80517578125</ele>
        <time>2011-04-24T11:00:09Z</time>
      </trkpt>
      <trkpt lat="33.829545853659511" lon="-4.984162766486406">
        <ele>770.634033203125</ele>
        <time>2011-04-24T11:00:20Z</time>
      </trkpt>
      <trkpt lat="33.832108955830336" lon="-4.984216745942831">
        <ele>761.982177734375</ele>
        <time>2011-04-24T11:00:32Z</time>
      </trkpt>
      <trkpt lat="33.834555549547076" lon="-4.984273659065366">
        <ele>754.772216796875</ele>
        <time>2011-04-24T11:00:44Z</time>
      </trkpt>
      <trkpt lat="33.836460923776031" lon="-4.984351359307766">
        <ele>749.485107421875</ele>
        <time>2011-04-24T11:00:53Z</time>
      </trkpt>
      <trkpt lat="33.838486075401306" lon="-4.984360998496413">
        <ele>743.236328125</ele>
        <time>2011-04-24T11:01:01Z</time>
      </trkpt>
      <trkpt lat="33.841694165021181" lon="-4.98442922718823">
        <ele>733.142578125</ele>
        <time>2011-04-24T11:01:13Z</time>
      </trkpt>
      <trkpt lat="33.845374826341867" lon="-4.984518997371197">
        <ele>723.048828125</ele>
        <time>2011-04-24T11:01:27Z</time>
      </trkpt>
      <trkpt lat="33.850124264135957" lon="-4.984632236883044">
        <ele>709.59033203125</ele>
        <time>2011-04-24T11:01:45Z</time>
      </trkpt>
      <trkpt lat="33.853591941297054" lon="-4.984714044257999">
        <ele>698.054443359375</ele>
        <time>2011-04-24T11:01:59Z</time>
      </trkpt>
      <trkpt lat="33.855826053768396" lon="-4.984752265736461">
        <ele>691.3251953125</ele>
        <time>2011-04-24T11:02:09Z</time>
      </trkpt>
      <trkpt lat="33.858213638886809" lon="-4.984817476943135">
        <ele>685.076904296875</ele>
        <time>2011-04-24T11:02:19Z</time>
      </trkpt>
      <trkpt lat="33.861124841496348" lon="-4.984950246289372">
        <ele>675.944091796875</ele>
        <time>2011-04-24T11:02:31Z</time>
      </trkpt>
      <trkpt lat="33.863492980599403" lon="-4.985184017568827">
        <ele>668.253662109375</ele>
        <time>2011-04-24T11:02:42Z</time>
      </trkpt>
      <trkpt lat="33.86445933021605" lon="-4.985276553779841">
        <ele>667.292236328125</ele>
        <time>2011-04-24T11:02:48Z</time>
      </trkpt>
      <trkpt lat="33.865879643708467" lon="-4.985414268448949">
        <ele>667.292236328125</ele>
        <time>2011-04-24T11:02:57Z</time>
      </trkpt>
      <trkpt lat="33.868026835843921" lon="-4.985631443560123">
        <ele>662.485595703125</ele>
        <time>2011-04-24T11:03:10Z</time>
      </trkpt>
      <trkpt lat="33.869186891242862" lon="-4.985727751627564">
        <ele>658.640380859375</ele>
        <time>2011-04-24T11:03:17Z</time>
      </trkpt>
      <trkpt lat="33.871174575760961" lon="-4.985912321135402">
        <ele>651.430419921875</ele>
        <time>2011-04-24T11:03:29Z</time>
      </trkpt>
      <trkpt lat="33.872784823179245" lon="-4.985999073833227">
        <ele>650.46923828125</ele>
        <time>2011-04-24T11:03:38Z</time>
      </trkpt>
      <trkpt lat="33.874599756672978" lon="-4.985895892605186">
        <ele>649.027099609375</ele>
        <time>2011-04-24T11:03:49Z</time>
      </trkpt>
      <trkpt lat="33.876300361007452" lon="-4.985784245654941">
        <ele>646.6240234375</ele>
        <time>2011-04-24T11:03:59Z</time>
      </trkpt>
      <trkpt lat="33.878711331635714" lon="-4.98563714325428">
        <ele>641.336669921875</ele>
        <time>2011-04-24T11:04:12Z</time>
      </trkpt>
      <trkpt lat="33.880557948723435" lon="-4.985535973683">
        <ele>635.568603515625</ele>
        <time>2011-04-24T11:04:22Z</time>
      </trkpt>
      <trkpt lat="33.882742272689939" lon="-4.985431451350451">
        <ele>639.894775390625</ele>
        <time>2011-04-24T11:04:34Z</time>
      </trkpt>
      <trkpt lat="33.884727274999022" lon="-4.985323576256633">
        <ele>643.739990234375</ele>
        <time>2011-04-24T11:04:45Z</time>
      </trkpt>
      <trkpt lat="33.885956648737192" lon="-4.985280157998204">
        <ele>643.25927734375</ele>
        <time>2011-04-24T11:04:51Z</time>
      </trkpt>
      <trkpt lat="33.888096297159791" lon="-4.985112017020583">
        <ele>640.37548828125</ele>
        <time>2011-04-24T11:05:00Z</time>
      </trkpt>
      <trkpt lat="33.890677755698562" lon="-4.984945552423596">
        <ele>636.5302734375</ele>
        <time>2011-04-24T11:05:12Z</time>
      </trkpt>
      <trkpt lat="33.8923922739923" lon="-4.984849076718092">
        <ele>636.049560546875</ele>
        <time>2011-04-24T11:05:21Z</time>
      </trkpt>
      <trkpt lat="33.89462579973042" lon="-4.98479031957686">
        <ele>635.088134765625</ele>
        <time>2011-04-24T11:05:34Z</time>
      </trkpt>
      <trkpt lat="33.896405529230833" lon="-4.984741033986211">
        <ele>635.568603515625</ele>
        <time>2011-04-24T11:05:45Z</time>
      </trkpt>
      <trkpt lat="33.898427747189999" lon="-4.984666770324111">
        <ele>629.80078125</ele>
        <time>2011-04-24T11:05:59Z</time>
      </trkpt>
      <trkpt lat="33.900179984048009" lon="-4.98460273258388">
        <ele>617.3037109375</ele>
        <time>2011-04-24T11:06:11Z</time>
      </trkpt>
      <trkpt lat="33.902149731293321" lon="-4.984543975442648">
        <ele>607.2099609375</ele>
        <time>2011-04-24T11:06:23Z</time>
      </trkpt>
      <trkpt lat="33.903420427814126" lon="-4.984537353739142">
        <ele>602.403076171875</ele>
        <time>2011-04-24T11:06:30Z</time>
      </trkpt>
      <trkpt lat="33.905361760407686" lon="-4.984452277421951">
        <ele>595.674072265625</ele>
        <time>2011-04-24T11:06:39Z</time>
      </trkpt>
      <trkpt lat="33.907083319500089" lon="-4.984640199691057">
        <ele>590.386962890625</ele>
        <time>2011-04-24T11:06:47Z</time>
      </trkpt>
      <trkpt lat="33.908397769555449" lon="-4.985187035053968">
        <ele>586.060791015625</ele>
        <time>2011-04-24T11:06:53Z</time>
      </trkpt>
      <trkpt lat="33.909604595974088" lon="-4.986104350537062">
        <ele>585.099609375</ele>
        <time>2011-04-24T11:06:59Z</time>
      </trkpt>
      <trkpt lat="33.910618470981717" lon="-4.987322576344013">
        <ele>584.13818359375</ele>
        <time>2011-04-24T11:07:05Z</time>
      </trkpt>
      <trkpt lat="33.911907272413373" lon="-4.989437833428383">
        <ele>589.90625</ele>
        <time>2011-04-24T11:07:14Z</time>
      </trkpt>
      <trkpt lat="33.913380391895771" lon="-4.991871770471335">
        <ele>588.46435546875</ele>
        <time>2011-04-24T11:07:25Z</time>
      </trkpt>
      <trkpt lat="33.914100732654333" lon="-4.993049260228872">
        <ele>584.618896484375</ele>
        <time>2011-04-24T11:07:32Z</time>
      </trkpt>
      <trkpt lat="33.915111925452948" lon="-4.994739471003413">
        <ele>587.502685546875</ele>
        <time>2011-04-24T11:07:43Z</time>
      </trkpt>
      <trkpt lat="33.915908290073276" lon="-4.996094824746251">
        <ele>587.9833984375</ele>
        <time>2011-04-24T11:07:53Z</time>
      </trkpt>
      <trkpt lat="33.916725190356374" lon="-4.997496698051691">
        <ele>588.945068359375</ele>
        <time>2011-04-24T11:08:02Z</time>
      </trkpt>
      <trkpt lat="33.917782232165337" lon="-4.999318923801184">
        <ele>585.099609375</ele>
        <time>2011-04-24T11:08:13Z</time>
      </trkpt>
      <trkpt lat="33.919070698320866" lon="-5.001562759280205">
        <ele>584.618896484375</ele>
        <time>2011-04-24T11:08:25Z</time>
      </trkpt>
      <trkpt lat="33.92024852335453" lon="-5.003622444346547">
        <ele>584.13818359375</ele>
        <time>2011-04-24T11:08:36Z</time>
      </trkpt>
      <trkpt lat="33.921233396977186" lon="-5.005384990945458">
        <ele>579.33154296875</ele>
        <time>2011-04-24T11:08:46Z</time>
      </trkpt>
      <trkpt lat="33.921900177374482" lon="-5.006495760753751">
        <ele>578.85107421875</ele>
        <time>2011-04-24T11:08:52Z</time>
      </trkpt>
      <trkpt lat="33.922556061297655" lon="-5.007531763985753">
        <ele>578.85107421875</ele>
        <time>2011-04-24T11:09:00Z</time>
      </trkpt>
      <trkpt lat="33.923432724550366" lon="-5.008427621796727">
        <ele>575.486328125</ele>
        <time>2011-04-24T11:09:09Z</time>
      </trkpt>
      <trkpt lat="33.924178881570697" lon="-5.008897427469492">
        <ele>572.6025390625</ele>
        <time>2011-04-24T11:09:16Z</time>
      </trkpt>
      <trkpt lat="33.924822863191366" lon="-5.009142681956291">
        <ele>570.198974609375</ele>
        <time>2011-04-24T11:09:24Z</time>
      </trkpt>
      <trkpt lat="33.925621239468455" lon="-5.009279726073146">
        <ele>568.757080078125</ele>
        <time>2011-04-24T11:09:34Z</time>
      </trkpt>
      <trkpt lat="33.926053242757916" lon="-5.009266650304198">
        <ele>566.353759765625</ele>
        <time>2011-04-24T11:09:39Z</time>
      </trkpt>
      <trkpt lat="33.926807278767228" lon="-5.00914553180337">
        <ele>563.469970703125</ele>
        <time>2011-04-24T11:09:44Z</time>
      </trkpt>
      <trkpt lat="33.928239159286022" lon="-5.008678995072842">
        <ele>560.105224609375</ele>
        <time>2011-04-24T11:09:52Z</time>
      </trkpt>
      <trkpt lat="33.928770739585161" lon="-5.008505489677191">
        <ele>559.624755859375</ele>
        <time>2011-04-24T11:09:56Z</time>
      </trkpt>
      <trkpt lat="33.929538857191801" lon="-5.008247746154666">
        <ele>559.624755859375</ele>
        <time>2011-04-24T11:10:02Z</time>
      </trkpt>
      <trkpt lat="33.930611573159695" lon="-5.007882798090577">
        <ele>558.663330078125</ele>
        <time>2011-04-24T11:10:08Z</time>
      </trkpt>
      <trkpt lat="33.933301493525505" lon="-5.006982833147049">
        <ele>555.298583984375</ele>
        <time>2011-04-24T11:10:21Z</time>
      </trkpt>
      <trkpt lat="33.934956081211567" lon="-5.006208093836904">
        <ele>550.011474609375</ele>
        <time>2011-04-24T11:10:29Z</time>
      </trkpt>
      <trkpt lat="33.936250079423189" lon="-5.005116434767842">
        <ele>546.6468505859375</ele>
        <time>2011-04-24T11:10:36Z</time>
      </trkpt>
      <trkpt lat="33.937304690480232" lon="-5.003704335540533">
        <ele>545.204833984375</ele>
        <time>2011-04-24T11:10:43Z</time>
      </trkpt>
      <trkpt lat="33.938893396407366" lon="-5.000961693003774">
        <ele>550.011474609375</ele>
        <time>2011-04-24T11:10:56Z</time>
      </trkpt>
      <trkpt lat="33.940424351021647" lon="-4.998328853398562">
        <ele>542.801513671875</ele>
        <time>2011-04-24T11:11:08Z</time>
      </trkpt>
      <trkpt lat="33.94243567250669" lon="-4.995004339143634">
        <ele>538.4757080078125</ele>
        <time>2011-04-24T11:11:23Z</time>
      </trkpt>
      <trkpt lat="33.943464383482933" lon="-4.993823245167732">
        <ele>533.1883544921875</ele>
        <time>2011-04-24T11:11:29Z</time>
      </trkpt>
      <trkpt lat="33.944701384752989" lon="-4.992925375699997">
        <ele>526.9398193359375</ele>
        <time>2011-04-24T11:11:35Z</time>
      </trkpt>
      <trkpt lat="33.946204595267773" lon="-4.992250548675656">
        <ele>523.0946044921875</ele>
        <time>2011-04-24T11:11:42Z</time>
      </trkpt>
      <trkpt lat="33.947219224646688" lon="-4.991975286975503">
        <ele>524.0557861328125</ele>
        <time>2011-04-24T11:11:47Z</time>
      </trkpt>
      <trkpt lat="33.948141150176525" lon="-4.992097746580839">
        <ele>522.6138916015625</ele>
        <time>2011-04-24T11:11:52Z</time>
      </trkpt>
      <trkpt lat="33.949421234428883" lon="-4.992550956085324">
        <ele>521.652587890625</ele>
        <time>2011-04-24T11:12:00Z</time>
      </trkpt>
      <trkpt lat="33.950645746663213" lon="-4.993019085377455">
        <ele>516.845947265625</ele>
        <time>2011-04-24T11:12:09Z</time>
      </trkpt>
      <trkpt lat="33.952602921053767" lon="-4.993711682036519">
        <ele>511.5587158203125</ele>
        <time>2011-04-24T11:12:23Z</time>
      </trkpt>
      <trkpt lat="33.954233871772885" lon="-4.994258433580399">
        <ele>510.11669921875</ele>
        <time>2011-04-24T11:12:34Z</time>
      </trkpt>
      <trkpt lat="33.955733729526401" lon="-4.99474617652595">
        <ele>509.6361083984375</ele>
        <time>2011-04-24T11:12:44Z</time>
      </trkpt>
      <trkpt lat="33.958306722342968" lon="-4.995576487854123">
        <ele>509.1553955078125</ele>
        <time>2011-04-24T11:13:00Z</time>
      </trkpt>
      <trkpt lat="33.95933342166245" lon="-4.995904639363289">
        <ele>508.6746826171875</ele>
        <time>2011-04-24T11:13:08Z</time>
      </trkpt>
      <trkpt lat="33.960364395752549" lon="-4.996238658204675">
        <ele>508.6746826171875</ele>
        <time>2011-04-24T11:13:17Z</time>
      </trkpt>
      <trkpt lat="33.961852435022593" lon="-4.996716678142548">
        <ele>508.194091796875</ele>
        <time>2011-04-24T11:13:29Z</time>
      </trkpt>
      <trkpt lat="33.963682875037193" lon="-4.997289748862386">
        <ele>504.348876953125</ele>
        <time>2011-04-24T11:13:42Z</time>
      </trkpt>
      <trkpt lat="33.965555224567652" lon="-4.997827028855681">
        <ele>500.02294921875</ele>
        <time>2011-04-24T11:13:56Z</time>
      </trkpt>
      <trkpt lat="33.966399952769279" lon="-4.99801168218255">
        <ele>499.542236328125</ele>
        <time>2011-04-24T11:14:04Z</time>
      </trkpt>
      <trkpt lat="33.968230979517102" lon="-4.998387359082699">
        <ele>498.100341796875</ele>
        <time>2011-04-24T11:14:19Z</time>
      </trkpt>
      <trkpt lat="33.969394890591502" lon="-4.998708888888359">
        <ele>496.177734375</ele>
        <time>2011-04-24T11:14:29Z</time>
      </trkpt>
      <trkpt lat="33.9705640822649" lon="-4.999048858880997">
        <ele>494.2550048828125</ele>
        <time>2011-04-24T11:14:39Z</time>
      </trkpt>
      <trkpt lat="33.971778620034456" lon="-4.999405760318041">
        <ele>492.3323974609375</ele>
        <time>2011-04-24T11:14:50Z</time>
      </trkpt>
      <trkpt lat="33.972954684868455" lon="-4.999768445268273">
        <ele>499.542236328125</ele>
        <time>2011-04-24T11:15:02Z</time>
      </trkpt>
      <trkpt lat="33.974051959812641" lon="-5.000098356977105">
        <ele>500.5035400390625</ele>
        <time>2011-04-24T11:15:12Z</time>
      </trkpt>
      <trkpt lat="33.975109839811921" lon="-5.000419886782765">
        <ele>494.2550048828125</ele>
        <time>2011-04-24T11:15:23Z</time>
      </trkpt>
      <trkpt lat="33.976339297369123" lon="-5.000785170122981">
        <ele>483.680419921875</ele>
        <time>2011-04-24T11:15:33Z</time>
      </trkpt>
      <trkpt lat="33.97748795337975" lon="-5.000954484567046">
        <ele>476.9512939453125</ele>
        <time>2011-04-24T11:15:42Z</time>
      </trkpt>
      <trkpt lat="33.97812657058239" lon="-5.000920789316297">
        <ele>472.6253662109375</ele>
        <time>2011-04-24T11:15:49Z</time>
      </trkpt>
      <trkpt lat="33.979067020118237" lon="-5.000719372183085">
        <ele>468.29931640625</ele>
        <time>2011-04-24T11:15:59Z</time>
      </trkpt>
      <trkpt lat="33.980374177917838" lon="-5.000234981998801">
        <ele>475.0286865234375</ele>
        <time>2011-04-24T11:16:11Z</time>
      </trkpt>
      <trkpt lat="33.981638755649328" lon="-4.999722260981798">
        <ele>475.9898681640625</ele>
        <time>2011-04-24T11:16:21Z</time>
      </trkpt>
      <trkpt lat="33.982946081086993" lon="-4.999198894947767">
        <ele>478.3931884765625</ele>
        <time>2011-04-24T11:16:32Z</time>
      </trkpt>
      <trkpt lat="33.983571622520685" lon="-4.99894886277616">
        <ele>479.3544921875</ele>
        <time>2011-04-24T11:16:39Z</time>
      </trkpt>
      <trkpt lat="33.984614163637161" lon="-4.998526331037283">
        <ele>478.3931884765625</ele>
        <time>2011-04-24T11:16:50Z</time>
      </trkpt>
      <trkpt lat="33.985426370054483" lon="-4.998193066567183">
        <ele>477.9124755859375</ele>
        <time>2011-04-24T11:16:57Z</time>
      </trkpt>
      <trkpt lat="33.986509060487151" lon="-4.997749077156186">
        <ele>475.9898681640625</ele>
        <time>2011-04-24T11:17:09Z</time>
      </trkpt>
      <trkpt lat="33.987601725384593" lon="-4.997283797711134">
        <ele>474.0672607421875</ele>
        <time>2011-04-24T11:17:22Z</time>
      </trkpt>
      <trkpt lat="33.987957620993257" lon="-4.99713066034019">
        <ele>473.586669921875</ele>
        <time>2011-04-24T11:17:29Z</time>
      </trkpt>
      <trkpt lat="33.988092485815287" lon="-4.997067796066403">
        <ele>472.6253662109375</ele>
        <time>2011-04-24T11:17:43Z</time>
      </trkpt>
      <trkpt lat="33.988338662311435" lon="-4.996752133592963">
        <ele>471.183349609375</ele>
        <time>2011-04-24T11:17:50Z</time>
      </trkpt>
      <trkpt lat="33.988458942621946" lon="-4.996740063652396">
        <ele>471.183349609375</ele>
        <time>2011-04-24T11:17:52Z</time>
      </trkpt>
      <trkpt lat="33.989039473235607" lon="-4.996634367853403">
        <ele>470.221923828125</ele>
        <time>2011-04-24T11:17:59Z</time>
      </trkpt>
      <trkpt lat="33.989953519776464" lon="-4.996273191645742">
        <ele>469.2607421875</ele>
        <time>2011-04-24T11:18:06Z</time>
      </trkpt>
      <trkpt lat="33.991568796336651" lon="-4.995612697675824">
        <ele>465.8961181640625</ele>
        <time>2011-04-24T11:18:18Z</time>
      </trkpt>
      <trkpt lat="33.993001179769635" lon="-4.995038537308574">
        <ele>464.934814453125</ele>
        <time>2011-04-24T11:18:29Z</time>
      </trkpt>
      <trkpt lat="33.993578944355249" lon="-4.9947280716151">
        <ele>464.4541015625</ele>
        <time>2011-04-24T11:18:35Z</time>
      </trkpt>
      <trkpt lat="33.993649268522859" lon="-4.994654394686222">
        <ele>465.41552734375</ele>
        <time>2011-04-24T11:18:40Z</time>
      </trkpt>
      <trkpt lat="33.993859570473433" lon="-4.994512991979718">
        <ele>465.41552734375</ele>
        <time>2011-04-24T11:18:44Z</time>
      </trkpt>
      <trkpt lat="33.994493326172233" lon="-4.994070762768388">
        <ele>464.934814453125</ele>
        <time>2011-04-24T11:18:51Z</time>
      </trkpt>
      <trkpt lat="33.995881788432598" lon="-4.992858739569783">
        <ele>462.5313720703125</ele>
        <time>2011-04-24T11:19:04Z</time>
      </trkpt>
      <trkpt lat="33.997253654524684" lon="-4.991646716371179">
        <ele>460.128173828125</ele>
        <time>2011-04-24T11:19:16Z</time>
      </trkpt>
      <trkpt lat="33.998721828684211" lon="-4.990403680130839">
        <ele>458.20556640625</ele>
        <time>2011-04-24T11:19:28Z</time>
      </trkpt>
      <trkpt lat="33.999674767255783" lon="-4.989976789802313">
        <ele>457.7249755859375</ele>
        <time>2011-04-24T11:19:35Z</time>
      </trkpt>
      <trkpt lat="34.000865835696459" lon="-4.989854749292135">
        <ele>456.7635498046875</ele>
        <time>2011-04-24T11:19:43Z</time>
      </trkpt>
      <trkpt lat="34.001758340746164" lon="-4.990126574411988">
        <ele>455.321533203125</ele>
        <time>2011-04-24T11:19:50Z</time>
      </trkpt>
      <trkpt lat="34.002240635454655" lon="-4.990357160568237">
        <ele>453.879638671875</ele>
        <time>2011-04-24T11:19:56Z</time>
      </trkpt>
      <trkpt lat="34.002699628472328" lon="-4.990778267383575">
        <ele>453.39892578125</ele>
        <time>2011-04-24T11:20:03Z</time>
      </trkpt>
      <trkpt lat="34.003654243424535" lon="-4.991660881787539">
        <ele>452.918212890625</ele>
        <time>2011-04-24T11:20:14Z</time>
      </trkpt>
      <trkpt lat="34.004925778135657" lon="-4.992740219458938">
        <ele>451.476318359375</ele>
        <time>2011-04-24T11:20:27Z</time>
      </trkpt>
      <trkpt lat="34.005642849951982" lon="-4.993231734260917">
        <ele>450.5150146484375</ele>
        <time>2011-04-24T11:20:34Z</time>
      </trkpt>
      <trkpt lat="34.006807683035731" lon="-4.993958193808794">
        <ele>448.5924072265625</ele>
        <time>2011-04-24T11:20:44Z</time>
      </trkpt>
      <trkpt lat="34.008147530257702" lon="-4.994785990566015">
        <ele>446.1890869140625</ele>
        <time>2011-04-24T11:20:56Z</time>
      </trkpt>
      <trkpt lat="34.008878851309419" lon="-4.995208522304893">
        <ele>445.2276611328125</ele>
        <time>2011-04-24T11:21:06Z</time>
      </trkpt>
      <trkpt lat="34.009170541539788" lon="-4.99537892639637">
        <ele>444.7470703125</ele>
        <time>2011-04-24T11:21:13Z</time>
      </trkpt>
      <trkpt lat="34.009276991710067" lon="-4.995454279705882">
        <ele>446.1890869140625</ele>
        <time>2011-04-24T11:21:47Z</time>
      </trkpt>
      <trkpt lat="34.009691644459963" lon="-4.995722584426403">
        <ele>445.7083740234375</ele>
        <time>2011-04-24T11:21:53Z</time>
      </trkpt>
      <trkpt lat="34.010661765933037" lon="-4.996304791420698">
        <ele>444.2664794921875</ele>
        <time>2011-04-24T11:22:02Z</time>
      </trkpt>
      <trkpt lat="34.01165384799242" lon="-4.996622046455741">
        <ele>441.3824462890625</ele>
        <time>2011-04-24T11:22:10Z</time>
      </trkpt>
      <trkpt lat="34.012699322775006" lon="-4.996620789170265">
        <ele>438.49853515625</ele>
        <time>2011-04-24T11:22:18Z</time>
      </trkpt>
      <trkpt lat="34.013321679085493" lon="-4.996601091697812">
        <ele>437.0565185546875</ele>
        <time>2011-04-24T11:22:24Z</time>
      </trkpt>
      <trkpt lat="34.014205550774932" lon="-4.996549962088466">
        <ele>434.6533203125</ele>
        <time>2011-04-24T11:22:33Z</time>
      </trkpt>
      <trkpt lat="34.014807287603617" lon="-4.996500760316849">
        <ele>432.730712890625</ele>
        <time>2011-04-24T11:22:40Z</time>
      </trkpt>
      <trkpt lat="34.015005016699433" lon="-4.996487433090806">
        <ele>432.730712890625</ele>
        <time>2011-04-24T11:22:46Z</time>
      </trkpt>
      <trkpt lat="34.015216492116451" lon="-4.996486091986299">
        <ele>430.3272705078125</ele>
        <time>2011-04-24T11:23:45Z</time>
      </trkpt>
      <trkpt lat="34.015684369951487" lon="-4.996464885771275">
        <ele>428.8853759765625</ele>
        <time>2011-04-24T11:23:53Z</time>
      </trkpt>
      <trkpt lat="34.016419295221567" lon="-4.996406799182296">
        <ele>427.443359375</ele>
        <time>2011-04-24T11:24:00Z</time>
      </trkpt>
      <trkpt lat="34.017735421657562" lon="-4.996328847482801">
        <ele>427.443359375</ele>
        <time>2011-04-24T11:24:11Z</time>
      </trkpt>
      <trkpt lat="34.018829762935638" lon="-4.996309652924538">
        <ele>426.9627685546875</ele>
        <time>2011-04-24T11:24:21Z</time>
      </trkpt>
      <trkpt lat="34.019898539409041" lon="-4.996352735906839">
        <ele>426.9627685546875</ele>
        <time>2011-04-24T11:24:31Z</time>
      </trkpt>
      <trkpt lat="34.021525718271732" lon="-4.996453570201993">
        <ele>426.9627685546875</ele>
        <time>2011-04-24T11:24:45Z</time>
      </trkpt>
      <trkpt lat="34.022542694583535" lon="-4.99678616411984">
        <ele>426.0013427734375</ele>
        <time>2011-04-24T11:24:55Z</time>
      </trkpt>
      <trkpt lat="34.023634772747755" lon="-4.997156141325831">
        <ele>423.117431640625</ele>
        <time>2011-04-24T11:25:07Z</time>
      </trkpt>
      <trkpt lat="34.023770391941071" lon="-4.997215988114476">
        <ele>417.349609375</ele>
        <time>2011-04-24T11:25:51Z</time>
      </trkpt>
      <trkpt lat="34.024307588115335" lon="-4.997388320043683">
        <ele>414.9461669921875</ele>
        <time>2011-04-24T11:25:59Z</time>
      </trkpt>
      <trkpt lat="34.025194393470883" lon="-4.997625527903438">
        <ele>415.4268798828125</ele>
        <time>2011-04-24T11:26:07Z</time>
      </trkpt>
      <trkpt lat="34.026006264612079" lon="-4.99783675186336">
        <ele>417.349609375</ele>
        <time>2011-04-24T11:26:15Z</time>
      </trkpt>
      <trkpt lat="34.026247579604387" lon="-4.997806493192911">
        <ele>418.310791015625</ele>
        <time>2011-04-24T11:26:19Z</time>
      </trkpt>
      <trkpt lat="34.026484787464142" lon="-4.997880589216948">
        <ele>419.272216796875</ele>
        <time>2011-04-24T11:26:23Z</time>
      </trkpt>
      <trkpt lat="34.027065569534898" lon="-4.99812257476151">
        <ele>421.19482421875</ele>
        <time>2011-04-24T11:26:30Z</time>
      </trkpt>
      <trkpt lat="34.028086988255382" lon="-4.998390125110745">
        <ele>424.0787353515625</ele>
        <time>2011-04-24T11:26:38Z</time>
      </trkpt>
      <trkpt lat="34.029080579057336" lon="-4.998485846444964">
        <ele>421.6754150390625</ele>
        <time>2011-04-24T11:26:46Z</time>
      </trkpt>
      <trkpt lat="34.030103925615549" lon="-4.998241430148482">
        <ele>422.63671875</ele>
        <time>2011-04-24T11:26:55Z</time>
      </trkpt>
      <trkpt lat="34.031184017658234" lon="-4.997812863439322">
        <ele>418.79150390625</ele>
        <time>2011-04-24T11:27:05Z</time>
      </trkpt>
      <trkpt lat="34.0314965788275" lon="-4.997626198455691">
        <ele>417.349609375</ele>
        <time>2011-04-24T11:27:10Z</time>
      </trkpt>
      <trkpt lat="34.031597832217813" lon="-4.997570961713791">
        <ele>417.349609375</ele>
        <time>2011-04-24T11:27:14Z</time>
      </trkpt>
      <trkpt lat="34.032146595418453" lon="-4.997436096891761">
        <ele>413.98486328125</ele>
        <time>2011-04-24T11:27:21Z</time>
      </trkpt>
      <trkpt lat="34.032744057476521" lon="-4.997231997549534">
        <ele>412.062255859375</ele>
        <time>2011-04-24T11:27:27Z</time>
      </trkpt>
      <trkpt lat="34.033452579751611" lon="-4.997282372787595">
        <ele>409.1783447265625</ele>
        <time>2011-04-24T11:27:35Z</time>
      </trkpt>
      <trkpt lat="34.033617954701185" lon="-4.997294526547194">
        <ele>408.6976318359375</ele>
        <time>2011-04-24T11:27:40Z</time>
      </trkpt>
      <trkpt lat="34.034039061516523" lon="-4.997309949249029">
        <ele>392.3553466796875</ele>
        <time>2011-04-24T11:28:43Z</time>
      </trkpt>
      <trkpt lat="34.03415909036994" lon="-4.997305674478412">
        <ele>393.3165283203125</ele>
        <time>2011-04-24T11:28:47Z</time>
      </trkpt>
      <trkpt lat="34.034306695684791" lon="-4.997640699148178">
        <ele>396.68115234375</ele>
        <time>2011-04-24T11:28:53Z</time>
      </trkpt>
      <trkpt lat="34.034452121704817" lon="-4.997961390763521">
        <ele>404.3717041015625</ele>
        <time>2011-04-24T11:28:59Z</time>
      </trkpt>
      <trkpt lat="34.034751858562231" lon="-4.998499089851975">
        <ele>411.5816650390625</ele>
        <time>2011-04-24T11:29:05Z</time>
      </trkpt>
      <trkpt lat="34.035121751949191" lon="-4.999204678460956">
        <ele>419.7528076171875</ele>
        <time>2011-04-24T11:29:12Z</time>
      </trkpt>
      <trkpt lat="34.035765649750829" lon="-5.000365739688277">
        <ele>420.2333984375</ele>
        <time>2011-04-24T11:29:23Z</time>
      </trkpt>
      <trkpt lat="34.036058178171515" lon="-5.00090436078608">
        <ele>421.19482421875</ele>
        <time>2011-04-24T11:29:30Z</time>
      </trkpt>
      <trkpt lat="34.036100171506405" lon="-5.001014834269881">
        <ele>404.852294921875</ele>
        <time>2011-04-24T11:30:03Z</time>
      </trkpt>
      <trkpt lat="34.036427065730095" lon="-5.001608273014426">
        <ele>404.852294921875</ele>
        <time>2011-04-24T11:30:10Z</time>
      </trkpt>
      <trkpt lat="34.036719175055623" lon="-5.002109678462148">
        <ele>405.3330078125</ele>
        <time>2011-04-24T11:30:16Z</time>
      </trkpt>
      <trkpt lat="34.037022683769464" lon="-5.002454174682498">
        <ele>406.77490234375</ele>
        <time>2011-04-24T11:30:25Z</time>
      </trkpt>
      <trkpt lat="34.03710943646729" lon="-5.002560121938586">
        <ele>406.77490234375</ele>
        <time>2011-04-24T11:30:29Z</time>
      </trkpt>
      <trkpt lat="34.037399869412184" lon="-5.00254612416029">
        <ele>406.2943115234375</ele>
        <time>2011-04-24T11:30:35Z</time>
      </trkpt>
      <trkpt lat="34.03800412081182" lon="-5.002044886350632">
        <ele>402.4490966796875</ele>
        <time>2011-04-24T11:30:43Z</time>
      </trkpt>
      <trkpt lat="34.038464957848191" lon="-5.001650685444474">
        <ele>398.1231689453125</ele>
        <time>2011-04-24T11:30:50Z</time>
      </trkpt>
      <trkpt lat="34.038888998329639" lon="-5.001298394054174">
        <ele>395.7198486328125</ele>
        <time>2011-04-24T11:30:59Z</time>
      </trkpt>
      <trkpt lat="34.039363916963339" lon="-5.000898241996765">
        <ele>393.3165283203125</ele>
        <time>2011-04-24T11:31:08Z</time>
      </trkpt>
      <trkpt lat="34.039496267214417" lon="-5.000759186223149">
        <ele>392.8359375</ele>
        <time>2011-04-24T11:31:14Z</time>
      </trkpt>
      <trkpt lat="34.039592994377017" lon="-5.000711074098945">
        <ele>401.968505859375</ele>
        <time>2011-04-24T11:32:34Z</time>
      </trkpt>
      <trkpt lat="34.039788376539946" lon="-5.000613927841187">
        <ele>399.0843505859375</ele>
        <time>2011-04-24T11:33:03Z</time>
      </trkpt>
      <trkpt lat="34.040321968495846" lon="-5.000202376395464">
        <ele>395.7198486328125</ele>
        <time>2011-04-24T11:33:13Z</time>
      </trkpt>
      <trkpt lat="34.040751121938229" lon="-4.999851090833545">
        <ele>392.8359375</ele>
        <time>2011-04-24T11:33:19Z</time>
      </trkpt>
      <trkpt lat="34.040912557393312" lon="-4.99973407946527">
        <ele>392.3553466796875</ele>
        <time>2011-04-24T11:33:23Z</time>
      </trkpt>
      <trkpt lat="34.04104046523571" lon="-4.999637017026544">
        <ele>393.3165283203125</ele>
        <time>2011-04-24T11:34:03Z</time>
      </trkpt>
      <trkpt lat="34.041550252586603" lon="-4.999234182760119">
        <ele>392.3553466796875</ele>
        <time>2011-04-24T11:34:12Z</time>
      </trkpt>
      <trkpt lat="34.042162885889411" lon="-4.998745936900377">
        <ele>389.47119140625</ele>
        <time>2011-04-24T11:34:21Z</time>
      </trkpt>
      <trkpt lat="34.043013649061322" lon="-4.998066835105419">
        <ele>386.106689453125</ele>
        <time>2011-04-24T11:34:31Z</time>
      </trkpt>
      <trkpt lat="34.043624438345432" lon="-4.997581522911787">
        <ele>385.1453857421875</ele>
        <time>2011-04-24T11:34:39Z</time>
      </trkpt>
      <trkpt lat="34.043915122747421" lon="-4.997358061373234">
        <ele>386.106689453125</ele>
        <time>2011-04-24T11:34:46Z</time>
      </trkpt>
      <trkpt lat="34.044397752732038" lon="-4.996951958164573">
        <ele>388.510009765625</ele>
        <time>2011-04-24T11:35:35Z</time>
      </trkpt>
      <trkpt lat="34.044732023030519" lon="-4.996612574905157">
        <ele>387.548583984375</ele>
        <time>2011-04-24T11:35:42Z</time>
      </trkpt>
      <trkpt lat="34.045311128720641" lon="-4.996132962405682">
        <ele>385.1453857421875</ele>
        <time>2011-04-24T11:35:49Z</time>
      </trkpt>
      <trkpt lat="34.046483086422086" lon="-4.995209192857146">
        <ele>379.37744140625</ele>
        <time>2011-04-24T11:36:00Z</time>
      </trkpt>
      <trkpt lat="34.047426553443074" lon="-4.994480051100254">
        <ele>372.648193359375</ele>
        <time>2011-04-24T11:36:10Z</time>
      </trkpt>
      <trkpt lat="34.047618666663766" lon="-4.994332948699594">
        <ele>371.206298828125</ele>
        <time>2011-04-24T11:36:16Z</time>
      </trkpt>
      <trkpt lat="34.047833746299148" lon="-4.994145780801773">
        <ele>367.841552734375</ele>
        <time>2011-04-24T11:36:33Z</time>
      </trkpt>
      <trkpt lat="34.047902897000313" lon="-4.994058776646853">
        <ele>367.3609619140625</ele>
        <time>2011-04-24T11:36:35Z</time>
      </trkpt>
      <trkpt lat="34.048377899453044" lon="-4.99372148886323">
        <ele>363.0350341796875</ele>
        <time>2011-04-24T11:36:42Z</time>
      </trkpt>
      <trkpt lat="34.049148363992572" lon="-4.992976756766439">
        <ele>355.8251953125</ele>
        <time>2011-04-24T11:36:51Z</time>
      </trkpt>
      <trkpt lat="34.04982696287334" lon="-4.9920151848346">
        <ele>349.0958251953125</ele>
        <time>2011-04-24T11:37:02Z</time>
      </trkpt>
      <trkpt lat="34.050134997814894" lon="-4.991467678919435">
        <ele>348.1346435546875</ele>
        <time>2011-04-24T11:37:09Z</time>
      </trkpt>
      <trkpt lat="34.050347562879324" lon="-4.991048332303762">
        <ele>347.6539306640625</ele>
        <time>2011-04-24T11:37:16Z</time>
      </trkpt>
      <trkpt lat="34.05044068582356" lon="-4.990850770846009">
        <ele>347.6539306640625</ele>
        <time>2011-04-24T11:37:23Z</time>
      </trkpt>
      <trkpt lat="34.050726341083646" lon="-4.990264875814319">
        <ele>347.6539306640625</ele>
        <time>2011-04-24T11:37:30Z</time>
      </trkpt>
      <trkpt lat="34.051116267219186" lon="-4.989393074065447">
        <ele>347.1732177734375</ele>
        <time>2011-04-24T11:37:37Z</time>
      </trkpt>
      <trkpt lat="34.051394043490291" lon="-4.988264450803399">
        <ele>344.77001953125</ele>
        <time>2011-04-24T11:37:44Z</time>
      </trkpt>
      <trkpt lat="34.051431426778436" lon="-4.986845646053553">
        <ele>344.2894287109375</ele>
        <time>2011-04-24T11:37:52Z</time>
      </trkpt>
      <trkpt lat="34.051402593031526" lon="-4.985031550750136">
        <ele>343.80859375</ele>
        <time>2011-04-24T11:38:02Z</time>
      </trkpt>
      <trkpt lat="34.051537541672587" lon="-4.983620289713144">
        <ele>344.77001953125</ele>
        <time>2011-04-24T11:38:10Z</time>
      </trkpt>
      <trkpt lat="34.051941046491265" lon="-4.982857620343566">
        <ele>344.77001953125</ele>
        <time>2011-04-24T11:38:15Z</time>
      </trkpt>
      <trkpt lat="34.05278954654932" lon="-4.98161232098937">
        <ele>342.8472900390625</ele>
        <time>2011-04-24T11:38:24Z</time>
      </trkpt>
      <trkpt lat="34.052986269816756" lon="-4.980976134538651">
        <ele>340.9246826171875</ele>
        <time>2011-04-24T11:38:28Z</time>
      </trkpt>
      <trkpt lat="34.053363120183349" lon="-4.979678951203823">
        <ele>334.1954345703125</ele>
        <time>2011-04-24T11:38:36Z</time>
      </trkpt>
      <trkpt lat="34.053967790678144" lon="-4.978868421167135">
        <ele>328.4276123046875</ele>
        <time>2011-04-24T11:38:42Z</time>
      </trkpt>
      <trkpt lat="34.054742278531194" lon="-4.978269953280687">
        <ele>321.6983642578125</ele>
        <time>2011-04-24T11:38:48Z</time>
      </trkpt>
      <trkpt lat="34.055229518562555" lon="-4.977472918108106">
        <ele>315.4498291015625</ele>
        <time>2011-04-24T11:38:54Z</time>
      </trkpt>
      <trkpt lat="34.055234044790268" lon="-4.976657191291452">
        <ele>314.0078125</ele>
        <time>2011-04-24T11:38:59Z</time>
      </trkpt>
      <trkpt lat="34.054936822503805" lon="-4.97602335177362">
        <ele>313.0465087890625</ele>
        <time>2011-04-24T11:39:04Z</time>
      </trkpt>
      <trkpt lat="34.054546058177948" lon="-4.975681873038411">
        <ele>314.0078125</ele>
        <time>2011-04-24T11:39:08Z</time>
      </trkpt>
      <trkpt lat="34.053857149556279" lon="-4.975257245823741">
        <ele>314.4884033203125</ele>
        <time>2011-04-24T11:39:15Z</time>
      </trkpt>
      <trkpt lat="34.053372591733932" lon="-4.974549897015095">
        <ele>315.4498291015625</ele>
        <time>2011-04-24T11:39:22Z</time>
      </trkpt>
      <trkpt lat="34.05330503359437" lon="-4.973889654502273">
        <ele>316.8917236328125</ele>
        <time>2011-04-24T11:39:27Z</time>
      </trkpt>
      <trkpt lat="34.053535787388682" lon="-4.973154896870256">
        <ele>319.775634765625</ele>
        <time>2011-04-24T11:39:33Z</time>
      </trkpt>
      <trkpt lat="34.05398178845644" lon="-4.972699675709009">
        <ele>322.178955078125</ele>
        <time>2011-04-24T11:39:39Z</time>
      </trkpt>
      <trkpt lat="34.055446274578571" lon="-4.971825359389186">
        <ele>330.8309326171875</ele>
        <time>2011-04-24T11:39:53Z</time>
      </trkpt>
      <trkpt lat="34.055926725268364" lon="-4.971525622531772">
        <ele>333.234130859375</ele>
        <time>2011-04-24T11:39:57Z</time>
      </trkpt>
      <trkpt lat="34.056445816531777" lon="-4.970830343663693">
        <ele>336.598876953125</ele>
        <time>2011-04-24T11:40:03Z</time>
      </trkpt>
      <trkpt lat="34.056933475658298" lon="-4.969347752630711">
        <ele>340.9246826171875</ele>
        <time>2011-04-24T11:40:13Z</time>
      </trkpt>
      <trkpt lat="34.057332035154104" lon="-4.968086192384362">
        <ele>342.36669921875</ele>
        <time>2011-04-24T11:40:23Z</time>
      </trkpt>
      <trkpt lat="34.057481233030558" lon="-4.967728117480874">
        <ele>341.885986328125</ele>
        <time>2011-04-24T11:40:26Z</time>
      </trkpt>
      <trkpt lat="34.057771833613515" lon="-4.967331485822797">
        <ele>340.9246826171875</ele>
        <time>2011-04-24T11:40:30Z</time>
      </trkpt>
      <trkpt lat="34.058606922626495" lon="-4.966593040153384">
        <ele>336.1181640625</ele>
        <time>2011-04-24T11:40:40Z</time>
      </trkpt>
      <trkpt lat="34.05874983407557" lon="-4.966397490352392">
        <ele>335.15673828125</ele>
        <time>2011-04-24T11:40:42Z</time>
      </trkpt>
      <trkpt lat="34.059141352772713" lon="-4.965375568717718">
        <ele>329.388916015625</ele>
        <time>2011-04-24T11:40:50Z</time>
      </trkpt>
      <trkpt lat="34.059401778504252" lon="-4.964556489139795">
        <ele>325.06298828125</ele>
        <time>2011-04-24T11:40:58Z</time>
      </trkpt>
      <trkpt lat="34.059592131525278" lon="-4.964151475578547">
        <ele>323.6209716796875</ele>
        <time>2011-04-24T11:41:05Z</time>
      </trkpt>
      <trkpt lat="34.060028996318579" lon="-4.963473966345191">
        <ele>322.65966796875</ele>
        <time>2011-04-24T11:41:13Z</time>
      </trkpt>
      <trkpt lat="34.060281962156296" lon="-4.963191747665405">
        <ele>323.6209716796875</ele>
        <time>2011-04-24T11:41:20Z</time>
      </trkpt>
      <trkpt lat="34.060860564932227" lon="-4.962773490697146">
        <ele>322.65966796875</ele>
        <time>2011-04-24T11:41:28Z</time>
      </trkpt>
      <trkpt lat="34.061781149357557" lon="-4.962135460227728">
        <ele>319.2950439453125</ele>
        <time>2011-04-24T11:41:38Z</time>
      </trkpt>
      <trkpt lat="34.06224207021296" lon="-4.961369186639786">
        <ele>314.9691162109375</ele>
        <time>2011-04-24T11:41:45Z</time>
      </trkpt>
      <trkpt lat="34.062415324151516" lon="-4.960458744317293">
        <ele>310.64306640625</ele>
        <time>2011-04-24T11:41:52Z</time>
      </trkpt>
      <trkpt lat="34.062485061585903" lon="-4.959890199825168">
        <ele>307.75927734375</ele>
        <time>2011-04-24T11:41:58Z</time>
      </trkpt>
      <trkpt lat="34.062505261972547" lon="-4.959712419658899">
        <ele>306.7978515625</ele>
        <time>2011-04-24T11:42:05Z</time>
      </trkpt>
      <trkpt lat="34.062569718807936" lon="-4.959264490753412">
        <ele>306.7978515625</ele>
        <time>2011-04-24T11:42:14Z</time>
      </trkpt>
      <trkpt lat="34.062688825652003" lon="-4.958599470555782">
        <ele>307.278564453125</ele>
        <time>2011-04-24T11:42:21Z</time>
      </trkpt>
      <trkpt lat="34.062743140384555" lon="-4.957906035706401">
        <ele>306.7978515625</ele>
        <time>2011-04-24T11:42:30Z</time>
      </trkpt>
      <trkpt lat="34.062674827873707" lon="-4.957142444327474">
        <ele>304.3946533203125</ele>
        <time>2011-04-24T11:42:36Z</time>
      </trkpt>
      <trkpt lat="34.062337875366211" lon="-4.956061933189631">
        <ele>300.54931640625</ele>
        <time>2011-04-24T11:42:43Z</time>
      </trkpt>
      <trkpt lat="34.061677381396294" lon="-4.954222189262509">
        <ele>296.7041015625</ele>
        <time>2011-04-24T11:42:54Z</time>
      </trkpt>
      <trkpt lat="34.060604078695178" lon="-4.951249966397882">
        <ele>294.7813720703125</ele>
        <time>2011-04-24T11:43:11Z</time>
      </trkpt>
      <trkpt lat="34.059894718229771" lon="-4.949178043752909">
        <ele>288.532958984375</ele>
        <time>2011-04-24T11:43:24Z</time>
      </trkpt>
      <trkpt lat="34.05976127833128" lon="-4.948332561179996">
        <ele>285.168212890625</ele>
        <time>2011-04-24T11:43:30Z</time>
      </trkpt>
      <trkpt lat="34.059723056852818" lon="-4.947895696386695">
        <ele>283.7261962890625</ele>
        <time>2011-04-24T11:43:35Z</time>
      </trkpt>
      <trkpt lat="34.05954971909523" lon="-4.947497975081205">
        <ele>284.2069091796875</ele>
        <time>2011-04-24T11:43:42Z</time>
      </trkpt>
      <trkpt lat="34.0595892816782" lon="-4.947023559361696">
        <ele>284.6876220703125</ele>
        <time>2011-04-24T11:43:47Z</time>
      </trkpt>
      <trkpt lat="34.059706125408411" lon="-4.946807138621807">
        <ele>284.6876220703125</ele>
        <time>2011-04-24T11:43:50Z</time>
      </trkpt>
      <trkpt lat="34.059959342703223" lon="-4.946105238050222">
        <ele>285.6488037109375</ele>
        <time>2011-04-24T11:43:57Z</time>
      </trkpt>
      <trkpt lat="34.060239549726248" lon="-4.944808976724744">
        <ele>286.6102294921875</ele>
        <time>2011-04-24T11:44:05Z</time>
      </trkpt>
      <trkpt lat="34.060579519718885" lon="-4.943100996315479">
        <ele>279.4002685546875</ele>
        <time>2011-04-24T11:44:15Z</time>
      </trkpt>
      <trkpt lat="34.060971038416028" lon="-4.940359694883227">
        <ele>266.4224853515625</ele>
        <time>2011-04-24T11:44:29Z</time>
      </trkpt>
      <trkpt lat="34.06133028678596" lon="-4.938068082556129">
        <ele>259.693359375</ele>
        <time>2011-04-24T11:44:42Z</time>
      </trkpt>
      <trkpt lat="34.061466827988625" lon="-4.936940716579557">
        <ele>253.9254150390625</ele>
        <time>2011-04-24T11:44:50Z</time>
      </trkpt>
      <trkpt lat="34.061433132737875" lon="-4.936255747452378">
        <ele>251.0413818359375</ele>
        <time>2011-04-24T11:44:56Z</time>
      </trkpt>
      <trkpt lat="34.061530278995633" lon="-4.935874789953232">
        <ele>249.5994873046875</ele>
        <time>2011-04-24T11:45:01Z</time>
      </trkpt>
      <trkpt lat="34.061624575406313" lon="-4.935701619833708">
        <ele>248.63818359375</ele>
        <time>2011-04-24T11:45:03Z</time>
      </trkpt>
      <trkpt lat="34.061798667535186" lon="-4.934802073985338">
        <ele>245.754150390625</ele>
        <time>2011-04-24T11:45:11Z</time>
      </trkpt>
      <trkpt lat="34.061822220683098" lon="-4.933726927265525">
        <ele>242.8702392578125</ele>
        <time>2011-04-24T11:45:20Z</time>
      </trkpt>
      <trkpt lat="34.061558526009321" lon="-4.932723445817828">
        <ele>240.9476318359375</ele>
        <time>2011-04-24T11:45:27Z</time>
      </trkpt>
      <trkpt lat="34.061161894351244" lon="-4.931556098163128">
        <ele>240.467041015625</ele>
        <time>2011-04-24T11:45:35Z</time>
      </trkpt>
      <trkpt lat="34.061009176075459" lon="-4.929951634258032">
        <ele>239.5054931640625</ele>
        <time>2011-04-24T11:45:44Z</time>
      </trkpt>
      <trkpt lat="34.060843298211694" lon="-4.927912149578333">
        <ele>238.5443115234375</ele>
        <time>2011-04-24T11:45:54Z</time>
      </trkpt>
      <trkpt lat="34.060653699561954" lon="-4.925287272781134">
        <ele>232.2957763671875</ele>
        <time>2011-04-24T11:46:07Z</time>
      </trkpt>
      <trkpt lat="34.060915550217032" lon="-4.924221681430936">
        <ele>227.4891357421875</ele>
        <time>2011-04-24T11:46:13Z</time>
      </trkpt>
      <trkpt lat="34.061453333124518" lon="-4.923558924347162">
        <ele>223.643798828125</ele>
        <time>2011-04-24T11:46:18Z</time>
      </trkpt>
      <trkpt lat="34.061871590092778" lon="-4.923308975994587">
        <ele>220.7598876953125</ele>
        <time>2011-04-24T11:46:21Z</time>
      </trkpt>
      <trkpt lat="34.064015178009868" lon="-4.922591233626008">
        <ele>209.704833984375</ele>
        <time>2011-04-24T11:46:35Z</time>
      </trkpt>
      <trkpt lat="34.065274642780423" lon="-4.92200743407011">
        <ele>204.41748046875</ele>
        <time>2011-04-24T11:46:43Z</time>
      </trkpt>
      <trkpt lat="34.067277666181326" lon="-4.920854084193707">
        <ele>204.8980712890625</ele>
        <time>2011-04-24T11:46:56Z</time>
      </trkpt>
      <trkpt lat="34.068197496235371" lon="-4.920554598793387">
        <ele>204.8980712890625</ele>
        <time>2011-04-24T11:47:03Z</time>
      </trkpt>
      <trkpt lat="34.068299587816" lon="-4.920501122251153">
        <ele>204.8980712890625</ele>
        <time>2011-04-24T11:47:04Z</time>
      </trkpt>
      <trkpt lat="34.068600665777922" lon="-4.920248491689563">
        <ele>205.3787841796875</ele>
        <time>2011-04-24T11:47:08Z</time>
      </trkpt>
      <trkpt lat="34.06957489438355" lon="-4.919147696346045">
        <ele>204.41748046875</ele>
        <time>2011-04-24T11:47:20Z</time>
      </trkpt>
      <trkpt lat="34.070113180205226" lon="-4.918524920940399">
        <ele>202.9754638671875</ele>
        <time>2011-04-24T11:47:27Z</time>
      </trkpt>
      <trkpt lat="34.070375533774495" lon="-4.918395923450589">
        <ele>203.9368896484375</ele>
        <time>2011-04-24T11:47:31Z</time>
      </trkpt>
      <trkpt lat="34.070547195151448" lon="-4.918402293697">
        <ele>204.8980712890625</ele>
        <time>2011-04-24T11:47:35Z</time>
      </trkpt>
      <trkpt lat="34.070783481001854" lon="-4.918790040537715">
        <ele>204.41748046875</ele>
        <time>2011-04-24T11:47:41Z</time>
      </trkpt>
      <trkpt lat="34.071400472894311" lon="-4.919853871688247">
        <ele>204.41748046875</ele>
        <time>2011-04-24T11:47:52Z</time>
      </trkpt>
      <trkpt lat="34.071941021829844" lon="-4.920359132811427">
        <ele>202.9754638671875</ele>
        <time>2011-04-24T11:47:58Z</time>
      </trkpt>
      <trkpt lat="34.072616854682565" lon="-4.920537751168013">
        <ele>199.61083984375</ele>
        <time>2011-04-24T11:48:04Z</time>
      </trkpt>
      <trkpt lat="34.073421265929937" lon="-4.920367430895567">
        <ele>196.246337890625</ele>
        <time>2011-04-24T11:48:10Z</time>
      </trkpt>
      <trkpt lat="34.075137376785278" lon="-4.919743146747351">
        <ele>196.246337890625</ele>
        <time>2011-04-24T11:48:22Z</time>
      </trkpt>
      <trkpt lat="34.07626717351377" lon="-4.919136296957731">
        <ele>202.0142822265625</ele>
        <time>2011-04-24T11:48:31Z</time>
      </trkpt>
      <trkpt lat="34.077007295563817" lon="-4.918414698913693">
        <ele>204.41748046875</ele>
        <time>2011-04-24T11:48:38Z</time>
      </trkpt>
      <trkpt lat="34.077428989112377" lon="-4.917653873562813">
        <ele>204.41748046875</ele>
        <time>2011-04-24T11:48:45Z</time>
      </trkpt>
      <trkpt lat="34.077502833679318" lon="-4.917491432279348">
        <ele>203.9368896484375</ele>
        <time>2011-04-24T11:48:50Z</time>
      </trkpt>
      <trkpt lat="34.07756351865828" lon="-4.917362686246634">
        <ele>204.41748046875</ele>
        <time>2011-04-24T11:49:14Z</time>
      </trkpt>
      <trkpt lat="34.077886138111353" lon="-4.916873518377543">
        <ele>204.8980712890625</ele>
        <time>2011-04-24T11:49:21Z</time>
      </trkpt>
      <trkpt lat="34.07839123159647" lon="-4.916258119046688">
        <ele>204.8980712890625</ele>
        <time>2011-04-24T11:49:27Z</time>
      </trkpt>
      <trkpt lat="34.079160271212459" lon="-4.915776662528515">
        <ele>205.3787841796875</ele>
        <time>2011-04-24T11:49:33Z</time>
      </trkpt>
      <trkpt lat="34.080561641603708" lon="-4.915140392258763">
        <ele>208.743408203125</ele>
        <time>2011-04-24T11:49:43Z</time>
      </trkpt>
      <trkpt lat="34.081197241321206" lon="-4.914435055106878">
        <ele>210.1854248046875</ele>
        <time>2011-04-24T11:49:49Z</time>
      </trkpt>
      <trkpt lat="34.082376826554537" lon="-4.91262967698276">
        <ele>213.550048828125</ele>
        <time>2011-04-24T11:50:01Z</time>
      </trkpt>
      <trkpt lat="34.083537217229605" lon="-4.910681890323758">
        <ele>214.991943359375</ele>
        <time>2011-04-24T11:50:14Z</time>
      </trkpt>
      <trkpt lat="34.084494933485985" lon="-4.909472297877073">
        <ele>213.550048828125</ele>
        <time>2011-04-24T11:50:23Z</time>
      </trkpt>
      <trkpt lat="34.085942571982741" lon="-4.907722743228078">
        <ele>212.1080322265625</ele>
        <time>2011-04-24T11:50:36Z</time>
      </trkpt>
      <trkpt lat="34.087298344820738" lon="-4.906280552968383">
        <ele>211.146728515625</ele>
        <time>2011-04-24T11:50:47Z</time>
      </trkpt>
      <trkpt lat="34.088918482884765" lon="-4.904976999387145">
        <ele>203.9368896484375</ele>
        <time>2011-04-24T11:50:59Z</time>
      </trkpt>
      <trkpt lat="34.089067596942186" lon="-4.904888486489654">
        <ele>202.9754638671875</ele>
        <time>2011-04-24T11:51:00Z</time>
      </trkpt>
      <trkpt lat="34.090129835531116" lon="-4.904708527028561">
        <ele>200.0916748046875</ele>
        <time>2011-04-24T11:51:06Z</time>
      </trkpt>
      <trkpt lat="34.092152891680598" lon="-4.904569471254945">
        <ele>199.61083984375</ele>
        <time>2011-04-24T11:51:17Z</time>
      </trkpt>
      <trkpt lat="34.092959566041827" lon="-4.904210725799203">
        <ele>198.1689453125</ele>
        <time>2011-04-24T11:51:22Z</time>
      </trkpt>
      <trkpt lat="34.094268651679158" lon="-4.90319668315351">
        <ele>197.20751953125</ele>
        <time>2011-04-24T11:51:30Z</time>
      </trkpt>
      <trkpt lat="34.096506955102086" lon="-4.90143078379333">
        <ele>198.6495361328125</ele>
        <time>2011-04-24T11:51:43Z</time>
      </trkpt>
      <trkpt lat="34.098803764209151" lon="-4.899635966867209">
        <ele>196.246337890625</ele>
        <time>2011-04-24T11:51:55Z</time>
      </trkpt>
      <trkpt lat="34.100649543106556" lon="-4.898160332813859">
        <ele>196.7269287109375</ele>
        <time>2011-04-24T11:52:05Z</time>
      </trkpt>
      <trkpt lat="34.102123416960239" lon="-4.89701209589839">
        <ele>201.0528564453125</ele>
        <time>2011-04-24T11:52:14Z</time>
      </trkpt>
      <trkpt lat="34.103779597207904" lon="-4.895718349143863">
        <ele>201.5335693359375</ele>
        <time>2011-04-24T11:52:25Z</time>
      </trkpt>
      <trkpt lat="34.104482755064964" lon="-4.894998092204332">
        <ele>198.1689453125</ele>
        <time>2011-04-24T11:52:31Z</time>
      </trkpt>
      <trkpt lat="34.104822725057602" lon="-4.893988743424416">
        <ele>193.3623046875</ele>
        <time>2011-04-24T11:52:37Z</time>
      </trkpt>
      <trkpt lat="34.105125227943063" lon="-4.891413655132055">
        <ele>189.9976806640625</ele>
        <time>2011-04-24T11:52:51Z</time>
      </trkpt>
      <trkpt lat="34.105197060853243" lon="-4.891067398712039">
        <ele>189.5169677734375</ele>
        <time>2011-04-24T11:52:53Z</time>
      </trkpt>
      <trkpt lat="34.105746578425169" lon="-4.889960316941142">
        <ele>183.7490234375</ele>
        <time>2011-04-24T11:53:00Z</time>
      </trkpt>
      <trkpt lat="34.106108341366053" lon="-4.889556979760528">
        <ele>182.787841796875</ele>
        <time>2011-04-24T11:53:03Z</time>
      </trkpt>
      <trkpt lat="34.106885176151991" lon="-4.889114918187261">
        <ele>184.2298583984375</ele>
        <time>2011-04-24T11:53:09Z</time>
      </trkpt>
      <trkpt lat="34.107085587456822" lon="-4.889077534899116">
        <ele>184.7105712890625</ele>
        <time>2011-04-24T11:53:11Z</time>
      </trkpt>
      <trkpt lat="34.108032574877143" lon="-4.888999667018652">
        <ele>187.11376953125</ele>
        <time>2011-04-24T11:53:19Z</time>
      </trkpt>
      <trkpt lat="34.108797172084451" lon="-4.888774193823338">
        <ele>191.9202880859375</ele>
        <time>2011-04-24T11:53:26Z</time>
      </trkpt>
      <trkpt lat="34.109697053208947" lon="-4.88820749334991">
        <ele>198.6495361328125</ele>
        <time>2011-04-24T11:53:35Z</time>
      </trkpt>
      <trkpt lat="34.110706737264991" lon="-4.887533420696855">
        <ele>202.494873046875</ele>
        <time>2011-04-24T11:53:46Z</time>
      </trkpt>
      <trkpt lat="34.111361280083656" lon="-4.886885499581695">
        <ele>200.0916748046875</ele>
        <time>2011-04-24T11:53:55Z</time>
      </trkpt>
      <trkpt lat="34.111801749095321" lon="-4.886323073878884">
        <ele>197.20751953125</ele>
        <time>2011-04-24T11:54:02Z</time>
      </trkpt>
      <trkpt lat="34.11254832521081" lon="-4.885563338175416">
        <ele>194.8043212890625</ele>
        <time>2011-04-24T11:54:09Z</time>
      </trkpt>
      <trkpt lat="34.113831678405404" lon="-4.884248720481992">
        <ele>192.401123046875</ele>
        <time>2011-04-24T11:54:20Z</time>
      </trkpt>
      <trkpt lat="34.11485368385911" lon="-4.883141638711095">
        <ele>190.4783935546875</ele>
        <time>2011-04-24T11:54:29Z</time>
      </trkpt>
      <trkpt lat="34.115378055721521" lon="-4.882199261337519">
        <ele>191.9202880859375</ele>
        <time>2011-04-24T11:54:36Z</time>
      </trkpt>
      <trkpt lat="34.115700256079435" lon="-4.881150769069791">
        <ele>198.1689453125</ele>
        <time>2011-04-24T11:54:43Z</time>
      </trkpt>
      <trkpt lat="34.116059839725494" lon="-4.879865320399404">
        <ele>206.340087890625</ele>
        <time>2011-04-24T11:54:52Z</time>
      </trkpt>
      <trkpt lat="34.116427721455693" lon="-4.879211196675897">
        <ele>213.0693359375</ele>
        <time>2011-04-24T11:54:58Z</time>
      </trkpt>
      <trkpt lat="34.116513384506106" lon="-4.878616081550717">
        <ele>216.9146728515625</ele>
        <time>2011-04-24T11:55:03Z</time>
      </trkpt>
      <trkpt lat="34.11671094596386" lon="-4.878016356378794">
        <ele>219.3179931640625</ele>
        <time>2011-04-24T11:55:08Z</time>
      </trkpt>
      <trkpt lat="34.116851342841983" lon="-4.877791218459606">
        <ele>220.7598876953125</ele>
        <time>2011-04-24T11:55:10Z</time>
      </trkpt>
      <trkpt lat="34.117009425535798" lon="-4.876964762806892">
        <ele>223.643798828125</ele>
        <time>2011-04-24T11:55:16Z</time>
      </trkpt>
      <trkpt lat="34.116918817162514" lon="-4.876666953787208">
        <ele>225.0859375</ele>
        <time>2011-04-24T11:55:18Z</time>
      </trkpt>
      <trkpt lat="34.116753526031971" lon="-4.875341020524502">
        <ele>230.853759765625</ele>
        <time>2011-04-24T11:55:26Z</time>
      </trkpt>
      <trkpt lat="34.116686889901757" lon="-4.874191274866462">
        <ele>235.6602783203125</ele>
        <time>2011-04-24T11:55:33Z</time>
      </trkpt>
      <trkpt lat="34.116414478048682" lon="-4.873476885259152">
        <ele>237.102294921875</ele>
        <time>2011-04-24T11:55:38Z</time>
      </trkpt>
      <trkpt lat="34.116337448358536" lon="-4.872687393799424">
        <ele>238.5443115234375</ele>
        <time>2011-04-24T11:55:43Z</time>
      </trkpt>
      <trkpt lat="34.116631150245667" lon="-4.871584922075272">
        <ele>244.7928466796875</ele>
        <time>2011-04-24T11:55:50Z</time>
      </trkpt>
      <trkpt lat="34.116975730285048" lon="-4.871015455573797">
        <ele>250.560791015625</ele>
        <time>2011-04-24T11:55:54Z</time>
      </trkpt>
      <trkpt lat="34.118461757898331" lon="-4.869350139051676">
        <ele>275.074462890625</ele>
        <time>2011-04-24T11:56:06Z</time>
      </trkpt>
      <trkpt lat="34.11970529705286" lon="-4.86748818308115">
        <ele>295.261962890625</ele>
        <time>2011-04-24T11:56:17Z</time>
      </trkpt>
      <trkpt lat="34.121171794831753" lon="-4.864795999601483">
        <ele>318.8143310546875</ele>
        <time>2011-04-24T11:56:32Z</time>
      </trkpt>
      <trkpt lat="34.121731789782643" lon="-4.863760164007545">
        <ele>320.737060546875</ele>
        <time>2011-04-24T11:56:39Z</time>
      </trkpt>
      <trkpt lat="34.121876629069448" lon="-4.863447351381183">
        <ele>319.775634765625</ele>
        <time>2011-04-24T11:56:44Z</time>
      </trkpt>
      <trkpt lat="34.121874868869781" lon="-4.86333335749805">
        <ele>318.8143310546875</ele>
        <time>2011-04-24T11:56:49Z</time>
      </trkpt>
      <trkpt lat="34.121771268546581" lon="-4.863435951992869">
        <ele>315.4498291015625</ele>
        <time>2011-04-24T11:56:55Z</time>
      </trkpt>
      <trkpt lat="34.121655933558941" lon="-4.863802324980497">
        <ele>314.4884033203125</ele>
        <time>2011-04-24T11:57:04Z</time>
      </trkpt>
      <trkpt lat="34.121504556387663" lon="-4.864072054624558">
        <ele>314.4884033203125</ele>
        <time>2011-04-24T11:57:14Z</time>
      </trkpt>
      <trkpt lat="34.121262235566974" lon="-4.864295348525047">
        <ele>314.4884033203125</ele>
        <time>2011-04-24T11:57:21Z</time>
      </trkpt>
      <trkpt lat="34.12108613178134" lon="-4.864147575572133">
        <ele>314.9691162109375</ele>
        <time>2011-04-24T11:57:26Z</time>
      </trkpt>
      <trkpt lat="34.120952356606722" lon="-4.864054452627897">
        <ele>314.9691162109375</ele>
        <time>2011-04-24T11:57:33Z</time>
      </trkpt>
      <trkpt lat="34.120576931163669" lon="-4.863992258906364">
        <ele>336.1181640625</ele>
        <time>2011-04-24T14:51:21Z</time>
      </trkpt>
      <trkpt lat="34.120786394923925" lon="-4.864185294136405">
        <ele>332.2728271484375</ele>
        <time>2011-04-24T14:51:29Z</time>
      </trkpt>
      <trkpt lat="34.120822688564658" lon="-4.864543117582798">
        <ele>327.94677734375</ele>
        <time>2011-04-24T14:51:39Z</time>
      </trkpt>
      <trkpt lat="34.120847918093204" lon="-4.864685777574778">
        <ele>326.5048828125</ele>
        <time>2011-04-24T14:51:45Z</time>
      </trkpt>
      <trkpt lat="34.120594868436456" lon="-4.865147285163403">
        <ele>326.024169921875</ele>
        <time>2011-04-24T14:51:51Z</time>
      </trkpt>
      <trkpt lat="34.120066724717617" lon="-4.866110868752003">
        <ele>325.06298828125</ele>
        <time>2011-04-24T14:51:59Z</time>
      </trkpt>
      <trkpt lat="34.118825364857912" lon="-4.868305334821343">
        <ele>312.085205078125</ele>
        <time>2011-04-24T14:52:15Z</time>
      </trkpt>
      <trkpt lat="34.117595739662647" lon="-4.869963778182864">
        <ele>285.168212890625</ele>
        <time>2011-04-24T14:52:28Z</time>
      </trkpt>
      <trkpt lat="34.116632826626301" lon="-4.871247299015522">
        <ele>270.7484130859375</ele>
        <time>2011-04-24T14:52:38Z</time>
      </trkpt>
      <trkpt lat="34.116386147215962" lon="-4.872248265892267">
        <ele>260.654541015625</ele>
        <time>2011-04-24T14:52:44Z</time>
      </trkpt>
      <trkpt lat="34.116301657631993" lon="-4.872947568073869">
        <ele>254.406005859375</ele>
        <time>2011-04-24T14:52:48Z</time>
      </trkpt>
      <trkpt lat="34.116472899913788" lon="-4.873598841950297">
        <ele>251.0413818359375</ele>
        <time>2011-04-24T14:52:52Z</time>
      </trkpt>
      <trkpt lat="34.11669191904366" lon="-4.874048866331577">
        <ele>249.5994873046875</ele>
        <time>2011-04-24T14:52:55Z</time>
      </trkpt>
      <trkpt lat="34.116885373368859" lon="-4.875290477648377">
        <ele>243.83154296875</ele>
        <time>2011-04-24T14:53:02Z</time>
      </trkpt>
      <trkpt lat="34.116940693929791" lon="-4.876186419278383">
        <ele>239.02490234375</ele>
        <time>2011-04-24T14:53:07Z</time>
      </trkpt>
      <trkpt lat="34.117157785221934" lon="-4.876950094476342">
        <ele>235.1796875</ele>
        <time>2011-04-24T14:53:12Z</time>
      </trkpt>
      <trkpt lat="34.117131549865007" lon="-4.877727096900344">
        <ele>231.3343505859375</ele>
        <time>2011-04-24T14:53:17Z</time>
      </trkpt>
      <trkpt lat="34.116976233199239" lon="-4.878021385520697">
        <ele>229.4117431640625</ele>
        <time>2011-04-24T14:53:19Z</time>
      </trkpt>
      <trkpt lat="34.116694685071707" lon="-4.878900647163391">
        <ele>224.12451171875</ele>
        <time>2011-04-24T14:53:25Z</time>
      </trkpt>
      <trkpt lat="34.116455633193254" lon="-4.879633225500584">
        <ele>218.3565673828125</ele>
        <time>2011-04-24T14:53:30Z</time>
      </trkpt>
      <trkpt lat="34.11629319190979" lon="-4.879899099469185">
        <ele>215.47265625</ele>
        <time>2011-04-24T14:53:32Z</time>
      </trkpt>
      <trkpt lat="34.115930842235684" lon="-4.881068961694837">
        <ele>204.41748046875</ele>
        <time>2011-04-24T14:53:39Z</time>
      </trkpt>
      <trkpt lat="34.115333380177617" lon="-4.882755149155855">
        <ele>191.9202880859375</ele>
        <time>2011-04-24T14:53:48Z</time>
      </trkpt>
      <trkpt lat="34.114706581458449" lon="-4.883649330586195">
        <ele>189.5169677734375</ele>
        <time>2011-04-24T14:53:54Z</time>
      </trkpt>
      <trkpt lat="34.11332918331027" lon="-4.885027147829533">
        <ele>189.036376953125</ele>
        <time>2011-04-24T14:54:04Z</time>
      </trkpt>
      <trkpt lat="34.112324779853225" lon="-4.886036664247513">
        <ele>189.5169677734375</ele>
        <time>2011-04-24T14:54:12Z</time>
      </trkpt>
      <trkpt lat="34.111923035234213" lon="-4.886486772447825">
        <ele>190.4783935546875</ele>
        <time>2011-04-24T14:54:17Z</time>
      </trkpt>
      <trkpt lat="34.111812058836222" lon="-4.886653237044811">
        <ele>190.958984375</ele>
        <time>2011-04-24T14:54:22Z</time>
      </trkpt>
      <trkpt lat="34.111715499311686" lon="-4.886745270341635">
        <ele>193.3623046875</ele>
        <time>2011-04-24T14:57:36Z</time>
      </trkpt>
      <trkpt lat="34.111252399161458" lon="-4.887207951396704">
        <ele>194.32373046875</ele>
        <time>2011-04-24T14:57:44Z</time>
      </trkpt>
      <trkpt lat="34.110329551622272" lon="-4.88799643702805">
        <ele>195.284912109375</ele>
        <time>2011-04-24T14:57:55Z</time>
      </trkpt>
      <trkpt lat="34.10929748788476" lon="-4.888643017038703">
        <ele>193.3623046875</ele>
        <time>2011-04-24T14:58:05Z</time>
      </trkpt>
      <trkpt lat="34.108370784670115" lon="-4.889083318412304">
        <ele>189.9976806640625</ele>
        <time>2011-04-24T14:58:13Z</time>
      </trkpt>
      <trkpt lat="34.107355065643787" lon="-4.889189852401614">
        <ele>189.036376953125</ele>
        <time>2011-04-24T14:58:21Z</time>
      </trkpt>
      <trkpt lat="34.106996990740299" lon="-4.889249783009291">
        <ele>189.036376953125</ele>
        <time>2011-04-24T14:58:24Z</time>
      </trkpt>
      <trkpt lat="34.106302130967379" lon="-4.889633757993579">
        <ele>188.5557861328125</ele>
        <time>2011-04-24T14:58:31Z</time>
      </trkpt>
      <trkpt lat="34.105576844885945" lon="-4.890541937202215">
        <ele>186.6331787109375</ele>
        <time>2011-04-24T14:58:40Z</time>
      </trkpt>
      <trkpt lat="34.105240646749735" lon="-4.89153066650033">
        <ele>185.191162109375</ele>
        <time>2011-04-24T14:58:47Z</time>
      </trkpt>
      <trkpt lat="34.105027494952083" lon="-4.893315341323614">
        <ele>184.7105712890625</ele>
        <time>2011-04-24T14:58:57Z</time>
      </trkpt>
      <trkpt lat="34.104835717007518" lon="-4.894581763073802">
        <ele>184.7105712890625</ele>
        <time>2011-04-24T14:59:04Z</time>
      </trkpt>
      <trkpt lat="34.10432425327599" lon="-4.895446440204978">
        <ele>188.0750732421875</ele>
        <time>2011-04-24T14:59:10Z</time>
      </trkpt>
      <trkpt lat="34.103103764355183" lon="-4.896452687680721">
        <ele>192.401123046875</ele>
        <time>2011-04-24T14:59:20Z</time>
      </trkpt>
      <trkpt lat="34.101802641525865" lon="-4.897469328716397">
        <ele>193.843017578125</ele>
        <time>2011-04-24T14:59:31Z</time>
      </trkpt>
      <trkpt lat="34.101601140573621" lon="-4.897659095004201">
        <ele>193.843017578125</ele>
        <time>2011-04-24T14:59:35Z</time>
      </trkpt>
      <trkpt lat="34.101391173899174" lon="-4.89778365008533">
        <ele>195.765625</ele>
        <time>2011-04-24T15:00:08Z</time>
      </trkpt>
      <trkpt lat="34.100974258035421" lon="-4.898084057494998">
        <ele>195.284912109375</ele>
        <time>2011-04-24T15:00:14Z</time>
      </trkpt>
      <trkpt lat="34.100116537883878" lon="-4.898745557293296">
        <ele>194.32373046875</ele>
        <time>2011-04-24T15:00:22Z</time>
      </trkpt>
      <trkpt lat="34.098895965144038" lon="-4.899729676544666">
        <ele>194.8043212890625</ele>
        <time>2011-04-24T15:00:31Z</time>
      </trkpt>
      <trkpt lat="34.097048761323094" lon="-4.901182176545262">
        <ele>195.765625</ele>
        <time>2011-04-24T15:00:43Z</time>
      </trkpt>
      <trkpt lat="34.095232067629695" lon="-4.902593018487096">
        <ele>196.246337890625</ele>
        <time>2011-04-24T15:00:54Z</time>
      </trkpt>
      <trkpt lat="34.093417217954993" lon="-4.904020875692368">
        <ele>198.1689453125</ele>
        <time>2011-04-24T15:01:05Z</time>
      </trkpt>
      <trkpt lat="34.092321284115314" lon="-4.904664270579815">
        <ele>201.0528564453125</ele>
        <time>2011-04-24T15:01:12Z</time>
      </trkpt>
      <trkpt lat="34.091288382187486" lon="-4.904774995520711">
        <ele>200.572265625</ele>
        <time>2011-04-24T15:01:18Z</time>
      </trkpt>
      <trkpt lat="34.089446375146508" lon="-4.90489904768765">
        <ele>202.494873046875</ele>
        <time>2011-04-24T15:01:29Z</time>
      </trkpt>
      <trkpt lat="34.088849332183599" lon="-4.905168861150742">
        <ele>204.41748046875</ele>
        <time>2011-04-24T15:01:33Z</time>
      </trkpt>
      <trkpt lat="34.087197426706553" lon="-4.906531926244497">
        <ele>212.588623046875</ele>
        <time>2011-04-24T15:01:45Z</time>
      </trkpt>
      <trkpt lat="34.086356973275542" lon="-4.907380258664489">
        <ele>215.47265625</ele>
        <time>2011-04-24T15:01:52Z</time>
      </trkpt>
      <trkpt lat="34.08575925976038" lon="-4.908070340752602">
        <ele>217.8759765625</ele>
        <time>2011-04-24T15:01:59Z</time>
      </trkpt>
      <trkpt lat="34.08493054099381" lon="-4.909043144434691">
        <ele>217.8759765625</ele>
        <time>2011-04-24T15:02:09Z</time>
      </trkpt>
      <trkpt lat="34.083709632977843" lon="-4.910492543131113">
        <ele>220.2791748046875</ele>
        <time>2011-04-24T15:02:23Z</time>
      </trkpt>
      <trkpt lat="34.083022233098745" lon="-4.911600966006517">
        <ele>220.2791748046875</ele>
        <time>2011-04-24T15:02:32Z</time>
      </trkpt>
      <trkpt lat="34.08221086487174" lon="-4.91292916238308">
        <ele>218.3565673828125</ele>
        <time>2011-04-24T15:02:42Z</time>
      </trkpt>
      <trkpt lat="34.081347277387977" lon="-4.914249731227756">
        <ele>214.51123046875</ele>
        <time>2011-04-24T15:02:52Z</time>
      </trkpt>
      <trkpt lat="34.080697763711214" lon="-4.915120275691152">
        <ele>213.550048828125</ele>
        <time>2011-04-24T15:03:01Z</time>
      </trkpt>
      <trkpt lat="34.079945487901568" lon="-4.915611790493131">
        <ele>212.1080322265625</ele>
        <time>2011-04-24T15:03:09Z</time>
      </trkpt>
      <trkpt lat="34.078885931521654" lon="-4.915992664173245">
        <ele>209.704833984375</ele>
        <time>2011-04-24T15:03:18Z</time>
      </trkpt>
      <trkpt lat="34.078170787543058" lon="-4.916529776528478">
        <ele>208.743408203125</ele>
        <time>2011-04-24T15:03:24Z</time>
      </trkpt>
      <trkpt lat="34.077580533921719" lon="-4.91742898710072">
        <ele>208.743408203125</ele>
        <time>2011-04-24T15:03:31Z</time>
      </trkpt>
      <trkpt lat="34.076893469318748" lon="-4.918559873476625">
        <ele>207.7821044921875</ele>
        <time>2011-04-24T15:03:40Z</time>
      </trkpt>
      <trkpt lat="34.076194334775209" lon="-4.919227827340365">
        <ele>207.3013916015625</ele>
        <time>2011-04-24T15:03:48Z</time>
      </trkpt>
      <trkpt lat="34.075018186122179" lon="-4.919854123145342">
        <ele>204.8980712890625</ele>
        <time>2011-04-24T15:03:58Z</time>
      </trkpt>
      <trkpt lat="34.073689989745617" lon="-4.920329377055168">
        <ele>204.8980712890625</ele>
        <time>2011-04-24T15:04:09Z</time>
      </trkpt>
      <trkpt lat="34.07274903729558" lon="-4.920601872727275">
        <ele>206.340087890625</ele>
        <time>2011-04-24T15:04:16Z</time>
      </trkpt>
      <trkpt lat="34.072092566639185" lon="-4.920543786138296">
        <ele>209.22412109375</ele>
        <time>2011-04-24T15:04:21Z</time>
      </trkpt>
      <trkpt lat="34.071313720196486" lon="-4.919959483668208">
        <ele>211.146728515625</ele>
        <time>2011-04-24T15:04:28Z</time>
      </trkpt>
      <trkpt lat="34.071138286963105" lon="-4.919694950804114">
        <ele>210.666015625</ele>
        <time>2011-04-24T15:04:30Z</time>
      </trkpt>
      <trkpt lat="34.070527330040932" lon="-4.918568590655923">
        <ele>210.666015625</ele>
        <time>2011-04-24T15:04:39Z</time>
      </trkpt>
      <trkpt lat="34.070398919284344" lon="-4.918450322002173">
        <ele>211.62744140625</ele>
        <time>2011-04-24T15:04:43Z</time>
      </trkpt>
      <trkpt lat="34.07010312192142" lon="-4.918560041114688">
        <ele>210.666015625</ele>
        <time>2011-04-24T15:04:51Z</time>
      </trkpt>
      <trkpt lat="34.069744376465678" lon="-4.918960444629192">
        <ele>211.62744140625</ele>
        <time>2011-04-24T15:04:59Z</time>
      </trkpt>
      <trkpt lat="34.068933092057705" lon="-4.919905085116625">
        <ele>213.0693359375</ele>
        <time>2011-04-24T15:05:12Z</time>
      </trkpt>
      <trkpt lat="34.068161034956574" lon="-4.92065442726016">
        <ele>213.550048828125</ele>
        <time>2011-04-24T15:05:22Z</time>
      </trkpt>
      <trkpt lat="34.067294094711542" lon="-4.920945363119245">
        <ele>214.0306396484375</ele>
        <time>2011-04-24T15:05:30Z</time>
      </trkpt>
      <trkpt lat="34.066393962129951" lon="-4.92141617462039">
        <ele>215.47265625</ele>
        <time>2011-04-24T15:05:38Z</time>
      </trkpt>
      <trkpt lat="34.064721185714006" lon="-4.922411777079105">
        <ele>218.8372802734375</ele>
        <time>2011-04-24T15:05:52Z</time>
      </trkpt>
      <trkpt lat="34.063710160553455" lon="-4.922813437879086">
        <ele>223.643798828125</ele>
        <time>2011-04-24T15:06:00Z</time>
      </trkpt>
      <trkpt lat="34.061539499089122" lon="-4.92361307144165">
        <ele>233.7376708984375</ele>
        <time>2011-04-24T15:06:17Z</time>
      </trkpt>
      <trkpt lat="34.061223668977618" lon="-4.923883723095059">
        <ele>234.6990966796875</ele>
        <time>2011-04-24T15:06:20Z</time>
      </trkpt>
      <trkpt lat="34.060755791142583" lon="-4.924787124618888">
        <ele>237.102294921875</ele>
        <time>2011-04-24T15:06:27Z</time>
      </trkpt>
      <trkpt lat="34.060672642663121" lon="-4.925600588321686">
        <ele>239.02490234375</ele>
        <time>2011-04-24T15:06:32Z</time>
      </trkpt>
      <trkpt lat="34.060895433649421" lon="-4.928233427926898">
        <ele>241.908935546875</ele>
        <time>2011-04-24T15:06:47Z</time>
      </trkpt>
      <trkpt lat="34.061075141653419" lon="-4.930382631719112">
        <ele>242.3896484375</ele>
        <time>2011-04-24T15:07:00Z</time>
      </trkpt>
      <trkpt lat="34.06133908778429" lon="-4.932185746729374">
        <ele>242.3896484375</ele>
        <time>2011-04-24T15:07:12Z</time>
      </trkpt>
      <trkpt lat="34.061753656715155" lon="-4.93324882350862">
        <ele>242.8702392578125</ele>
        <time>2011-04-24T15:07:20Z</time>
      </trkpt>
      <trkpt lat="34.061892796307802" lon="-4.934326484799385">
        <ele>245.2734375</ele>
        <time>2011-04-24T15:07:28Z</time>
      </trkpt>
      <trkpt lat="34.061769582331181" lon="-4.935585195198655">
        <ele>249.1187744140625</ele>
        <time>2011-04-24T15:07:38Z</time>
      </trkpt>
      <trkpt lat="34.061637567356229" lon="-4.936697976663709">
        <ele>254.406005859375</ele>
        <time>2011-04-24T15:07:48Z</time>
      </trkpt>
      <trkpt lat="34.061495326459408" lon="-4.937836574390531">
        <ele>260.654541015625</ele>
        <time>2011-04-24T15:07:58Z</time>
      </trkpt>
      <trkpt lat="34.061255268752575" lon="-4.93918564170599">
        <ele>266.9031982421875</ele>
        <time>2011-04-24T15:08:07Z</time>
      </trkpt>
      <trkpt lat="34.060992831364274" lon="-4.940961934626102">
        <ele>271.2291259765625</ele>
        <time>2011-04-24T15:08:17Z</time>
      </trkpt>
      <trkpt lat="34.060602989047766" lon="-4.943636180832982">
        <ele>284.2069091796875</ele>
        <time>2011-04-24T15:08:32Z</time>
      </trkpt>
      <trkpt lat="34.060272993519902" lon="-4.945186078548431">
        <ele>290.45556640625</ele>
        <time>2011-04-24T15:08:42Z</time>
      </trkpt>
      <trkpt lat="34.06005933880806" lon="-4.946094676852226">
        <ele>290.9361572265625</ele>
        <time>2011-04-24T15:08:50Z</time>
      </trkpt>
      <trkpt lat="34.059929670765996" lon="-4.946630364283919">
        <ele>290.45556640625</ele>
        <time>2011-04-24T15:08:56Z</time>
      </trkpt>
      <trkpt lat="34.059629263356328" lon="-4.947164375334978">
        <ele>289.494140625</ele>
        <time>2011-04-24T15:09:04Z</time>
      </trkpt>
      <trkpt lat="34.059631275013089" lon="-4.947672234848142">
        <ele>288.532958984375</ele>
        <time>2011-04-24T15:09:11Z</time>
      </trkpt>
      <trkpt lat="34.059705371037126" lon="-4.947795867919922">
        <ele>288.05224609375</ele>
        <time>2011-04-24T15:09:13Z</time>
      </trkpt>
      <trkpt lat="34.059857167303562" lon="-4.948196774348617">
        <ele>287.0908203125</ele>
        <time>2011-04-24T15:09:18Z</time>
      </trkpt>
      <trkpt lat="34.060089932754636" lon="-4.949492197483778">
        <ele>290.9361572265625</ele>
        <time>2011-04-24T15:09:28Z</time>
      </trkpt>
      <trkpt lat="34.060597540810704" lon="-4.950944948941469">
        <ele>296.7041015625</ele>
        <time>2011-04-24T15:09:37Z</time>
      </trkpt>
      <trkpt lat="34.061415027827024" lon="-4.953219881281257">
        <ele>298.1461181640625</ele>
        <time>2011-04-24T15:09:50Z</time>
      </trkpt>
      <trkpt lat="34.062233017757535" lon="-4.955486096441746">
        <ele>301.5106201171875</ele>
        <time>2011-04-24T15:10:03Z</time>
      </trkpt>
      <trkpt lat="34.062789073213935" lon="-4.957256354391575">
        <ele>306.3172607421875</ele>
        <time>2011-04-24T15:10:14Z</time>
      </trkpt>
      <trkpt lat="34.062827881425619" lon="-4.95799295604229">
        <ele>309.201171875</ele>
        <time>2011-04-24T15:10:20Z</time>
      </trkpt>
      <trkpt lat="34.062805417925119" lon="-4.958372488617897">
        <ele>310.64306640625</ele>
        <time>2011-04-24T15:10:26Z</time>
      </trkpt>
      <trkpt lat="34.062821343541145" lon="-4.958797618746758">
        <ele>311.123779296875</ele>
        <time>2011-04-24T15:10:35Z</time>
      </trkpt>
      <trkpt lat="34.062839364632964" lon="-4.959091739729047">
        <ele>311.6044921875</ele>
        <time>2011-04-24T15:10:45Z</time>
      </trkpt>
      <trkpt lat="34.06288999132812" lon="-4.959344957023859">
        <ele>311.123779296875</ele>
        <time>2011-04-24T15:10:52Z</time>
      </trkpt>
      <trkpt lat="34.063022844493389" lon="-4.959630528464913">
        <ele>310.64306640625</ele>
        <time>2011-04-24T15:11:00Z</time>
      </trkpt>
      <trkpt lat="34.063315624371171" lon="-4.960237378254533">
        <ele>308.2398681640625</ele>
        <time>2011-04-24T15:11:09Z</time>
      </trkpt>
      <trkpt lat="34.063811581581831" lon="-4.96126726269722">
        <ele>304.875244140625</ele>
        <time>2011-04-24T15:11:19Z</time>
      </trkpt>
      <trkpt lat="34.064151048660278" lon="-4.961862796917558">
        <ele>304.3946533203125</ele>
        <time>2011-04-24T15:11:27Z</time>
      </trkpt>
      <trkpt lat="34.064226485788822" lon="-4.96194938197732">
        <ele>304.3946533203125</ele>
        <time>2011-04-24T15:11:29Z</time>
      </trkpt>
      <trkpt lat="34.064617250114679" lon="-4.96217024512589">
        <ele>302.9525146484375</ele>
        <time>2011-04-24T15:11:37Z</time>
      </trkpt>
      <trkpt lat="34.064927464351058" lon="-4.962215172126889">
        <ele>301.0299072265625</ele>
        <time>2011-04-24T15:11:41Z</time>
      </trkpt>
      <trkpt lat="34.065678985789418" lon="-4.962024064734578">
        <ele>296.7041015625</ele>
        <time>2011-04-24T15:11:50Z</time>
      </trkpt>
      <trkpt lat="34.066586494445801" lon="-4.961698343977332">
        <ele>293.33935546875</ele>
        <time>2011-04-24T15:12:02Z</time>
      </trkpt>
      <trkpt lat="34.066878855228424" lon="-4.961611926555634">
        <ele>292.8587646484375</ele>
        <time>2011-04-24T15:12:08Z</time>
      </trkpt>
      <trkpt lat="34.067021431401372" lon="-4.961754586547613">
        <ele>294.30078125</ele>
        <time>2011-04-24T15:12:13Z</time>
      </trkpt>
      <trkpt lat="34.067130144685507" lon="-4.962426982820034">
        <ele>299.5880126953125</ele>
        <time>2011-04-24T15:12:21Z</time>
      </trkpt>
      <trkpt lat="34.067260483279824" lon="-4.963062163442373">
        <ele>305.35595703125</ele>
        <time>2011-04-24T15:12:28Z</time>
      </trkpt>
      <trkpt lat="34.067291831597686" lon="-4.96320029720664">
        <ele>305.836669921875</ele>
        <time>2011-04-24T15:12:30Z</time>
      </trkpt>
      <trkpt lat="34.067320749163628" lon="-4.963497016578913">
        <ele>309.201171875</ele>
        <time>2011-04-24T15:12:34Z</time>
      </trkpt>
      <trkpt lat="34.06728814356029" lon="-4.963732548058033">
        <ele>309.681884765625</ele>
        <time>2011-04-24T15:12:37Z</time>
      </trkpt>
      <trkpt lat="34.067181525751948" lon="-4.964000098407269">
        <ele>311.6044921875</ele>
        <time>2011-04-24T15:12:41Z</time>
      </trkpt>
      <trkpt lat="34.066892433911562" lon="-4.964409051463008">
        <ele>313.0465087890625</ele>
        <time>2011-04-24T15:12:48Z</time>
      </trkpt>
      <trkpt lat="34.066832587122917" lon="-4.965071137994528">
        <ele>310.1624755859375</ele>
        <time>2011-04-24T15:12:56Z</time>
      </trkpt>
      <trkpt lat="34.066866030916572" lon="-4.965312285348773">
        <ele>308.2398681640625</ele>
        <time>2011-04-24T15:12:59Z</time>
      </trkpt>
      <trkpt lat="34.066992178559303" lon="-4.965513031929731">
        <ele>305.836669921875</ele>
        <time>2011-04-24T15:13:04Z</time>
      </trkpt>
      <trkpt lat="34.067180687561631" lon="-4.965671952813864">
        <ele>304.3946533203125</ele>
        <time>2011-04-24T15:13:09Z</time>
      </trkpt>
      <trkpt lat="34.067523675039411" lon="-4.965746887028217">
        <ele>304.875244140625</ele>
        <time>2011-04-24T15:13:14Z</time>
      </trkpt>
      <trkpt lat="34.068479044362903" lon="-4.965543458238244">
        <ele>307.75927734375</ele>
        <time>2011-04-24T15:13:26Z</time>
      </trkpt>
      <trkpt lat="34.068969218060374" lon="-4.965429967269301">
        <ele>307.278564453125</ele>
        <time>2011-04-24T15:13:34Z</time>
      </trkpt>
      <trkpt lat="34.069358138367534" lon="-4.965367941185832">
        <ele>307.75927734375</ele>
        <time>2011-04-24T15:13:42Z</time>
      </trkpt>
      <trkpt lat="34.069678327068686" lon="-4.96544798836112">
        <ele>305.35595703125</ele>
        <time>2011-04-24T15:13:46Z</time>
      </trkpt>
      <trkpt lat="34.069902962073684" lon="-4.965733978897333">
        <ele>304.875244140625</ele>
        <time>2011-04-24T15:13:50Z</time>
      </trkpt>
      <trkpt lat="34.070339072495699" lon="-4.966627825051546">
        <ele>303.4332275390625</ele>
        <time>2011-04-24T15:14:00Z</time>
      </trkpt>
      <trkpt lat="34.070552727207541" lon="-4.967021020129323">
        <ele>302.9525146484375</ele>
        <time>2011-04-24T15:14:07Z</time>
      </trkpt>
      <trkpt lat="34.070738973096013" lon="-4.967363839969039">
        <ele>298.626708984375</ele>
        <time>2011-04-24T15:14:20Z</time>
      </trkpt>
      <trkpt lat="34.07085414044559" lon="-4.967588139697909">
        <ele>297.1846923828125</ele>
        <time>2011-04-24T15:14:27Z</time>
      </trkpt>
      <trkpt lat="34.0710383746773" lon="-4.967950824648142">
        <ele>295.74267578125</ele>
        <time>2011-04-24T15:14:33Z</time>
      </trkpt>
      <trkpt lat="34.071308691054583" lon="-4.968514172360301">
        <ele>292.378173828125</ele>
        <time>2011-04-24T15:14:41Z</time>
      </trkpt>
      <trkpt lat="34.071236187592149" lon="-4.968969058245421">
        <ele>290.9361572265625</ele>
        <time>2011-04-24T15:14:48Z</time>
      </trkpt>
      <trkpt lat="34.070916082710028" lon="-4.969172989949584">
        <ele>293.33935546875</ele>
        <time>2011-04-24T15:14:54Z</time>
      </trkpt>
      <trkpt lat="34.07078574411571" lon="-4.969193022698164">
        <ele>293.33935546875</ele>
        <time>2011-04-24T15:14:56Z</time>
      </trkpt>
      <trkpt lat="34.069827944040298" lon="-4.969244319945574">
        <ele>289.974853515625</ele>
        <time>2011-04-24T15:15:09Z</time>
      </trkpt>
      <trkpt lat="34.069381020963192" lon="-4.969256725162268">
        <ele>287.0908203125</ele>
        <time>2011-04-24T15:15:15Z</time>
      </trkpt>
      <trkpt lat="34.06916786916554" lon="-4.969454957172275">
        <ele>283.24560546875</ele>
        <time>2011-04-24T15:15:22Z</time>
      </trkpt>
      <trkpt lat="34.069086397066712" lon="-4.969997433945537">
        <ele>279.880859375</ele>
        <time>2011-04-24T15:15:28Z</time>
      </trkpt>
      <trkpt lat="34.069150183349848" lon="-4.970188876613975">
        <ele>278.919677734375</ele>
        <time>2011-04-24T15:15:30Z</time>
      </trkpt>
      <trkpt lat="34.069822244346142" lon="-4.97142193838954">
        <ele>283.24560546875</ele>
        <time>2011-04-24T15:15:42Z</time>
      </trkpt>
      <trkpt lat="34.070110162720084" lon="-4.971934575587511">
        <ele>287.0908203125</ele>
        <time>2011-04-24T15:15:47Z</time>
      </trkpt>
      <trkpt lat="34.070678036659956" lon="-4.972364148125053">
        <ele>291.416748046875</ele>
        <time>2011-04-24T15:15:54Z</time>
      </trkpt>
      <trkpt lat="34.070857744663954" lon="-4.972381331026554">
        <ele>292.8587646484375</ele>
        <time>2011-04-24T15:15:56Z</time>
      </trkpt>
      <trkpt lat="34.071447495371103" lon="-4.972442518919706">
        <ele>297.6654052734375</ele>
        <time>2011-04-24T15:16:04Z</time>
      </trkpt>
      <trkpt lat="34.071576744318008" lon="-4.972718199715018">
        <ele>301.5106201171875</ele>
        <time>2011-04-24T15:16:10Z</time>
      </trkpt>
      <trkpt lat="34.071557465940714" lon="-4.972879299893975">
        <ele>302.9525146484375</ele>
        <time>2011-04-24T15:16:12Z</time>
      </trkpt>
      <trkpt lat="34.07153089530766" lon="-4.973291521891952">
        <ele>306.7978515625</ele>
        <time>2011-04-24T15:16:16Z</time>
      </trkpt>
      <trkpt lat="34.071289328858256" lon="-4.974082270637155">
        <ele>314.0078125</ele>
        <time>2011-04-24T15:16:24Z</time>
      </trkpt>
      <trkpt lat="34.071242893114686" lon="-4.974461970850825">
        <ele>316.8917236328125</ele>
        <time>2011-04-24T15:16:28Z</time>
      </trkpt>
      <trkpt lat="34.071255382150412" lon="-4.975104192271829">
        <ele>321.2177734375</ele>
        <time>2011-04-24T15:16:34Z</time>
      </trkpt>
      <trkpt lat="34.071045331656933" lon="-4.97546972706914">
        <ele>324.1015625</ele>
        <time>2011-04-24T15:16:39Z</time>
      </trkpt>
      <trkpt lat="34.070693962275982" lon="-4.97525917366147">
        <ele>324.582275390625</ele>
        <time>2011-04-24T15:16:43Z</time>
      </trkpt>
      <trkpt lat="34.070647694170475" lon="-4.975154818966985">
        <ele>325.06298828125</ele>
        <time>2011-04-24T15:16:44Z</time>
      </trkpt>
      <trkpt lat="34.070558426901698" lon="-4.974945271387696">
        <ele>326.024169921875</ele>
        <time>2011-04-24T15:16:46Z</time>
      </trkpt>
      <trkpt lat="34.070259192958474" lon="-4.974699430167675">
        <ele>328.4276123046875</ele>
        <time>2011-04-24T15:16:51Z</time>
      </trkpt>
      <trkpt lat="34.070026343688369" lon="-4.974883664399386">
        <ele>328.9083251953125</ele>
        <time>2011-04-24T15:16:55Z</time>
      </trkpt>
      <trkpt lat="34.070058027282357" lon="-4.97526747174561">
        <ele>328.9083251953125</ele>
        <time>2011-04-24T15:17:00Z</time>
      </trkpt>
      <trkpt lat="34.070633696392179" lon="-4.976128963753581">
        <ele>332.2728271484375</ele>
        <time>2011-04-24T15:17:12Z</time>
      </trkpt>
      <trkpt lat="34.070682730525732" lon="-4.976673452183604">
        <ele>335.15673828125</ele>
        <time>2011-04-24T15:17:19Z</time>
      </trkpt>
      <trkpt lat="34.070395566523075" lon="-4.976971764117479">
        <ele>338.040771484375</ele>
        <time>2011-04-24T15:17:24Z</time>
      </trkpt>
      <trkpt lat="34.070094572380185" lon="-4.976968830451369">
        <ele>339.96337890625</ele>
        <time>2011-04-24T15:17:27Z</time>
      </trkpt>
      <trkpt lat="34.069877229630947" lon="-4.976912420243025">
        <ele>341.885986328125</ele>
        <time>2011-04-24T15:17:29Z</time>
      </trkpt>
      <trkpt lat="34.069356294348836" lon="-4.977013841271401">
        <ele>346.692626953125</ele>
        <time>2011-04-24T15:17:34Z</time>
      </trkpt>
      <trkpt lat="34.069141298532486" lon="-4.977455232292414">
        <ele>350.537841796875</ele>
        <time>2011-04-24T15:17:38Z</time>
      </trkpt>
      <trkpt lat="34.068785067647696" lon="-4.978460473939776">
        <ele>356.786376953125</ele>
        <time>2011-04-24T15:17:46Z</time>
      </trkpt>
      <trkpt lat="34.068571832031012" lon="-4.979258850216866">
        <ele>359.189697265625</ele>
        <time>2011-04-24T15:17:52Z</time>
      </trkpt>
      <trkpt lat="34.068387094885111" lon="-4.980706237256527">
        <ele>363.0350341796875</ele>
        <time>2011-04-24T15:18:01Z</time>
      </trkpt>
      <trkpt lat="34.067936399951577" lon="-4.981515426188707">
        <ele>362.5543212890625</ele>
        <time>2011-04-24T15:18:07Z</time>
      </trkpt>
      <trkpt lat="34.067257298156619" lon="-4.982030494138598">
        <ele>360.6317138671875</ele>
        <time>2011-04-24T15:18:13Z</time>
      </trkpt>
      <trkpt lat="34.06611735932529" lon="-4.982869774103165">
        <ele>355.344482421875</ele>
        <time>2011-04-24T15:18:22Z</time>
      </trkpt>
      <trkpt lat="34.065560465678573" lon="-4.983499422669411">
        <ele>354.86376953125</ele>
        <time>2011-04-24T15:18:28Z</time>
      </trkpt>
      <trkpt lat="34.06494565308094" lon="-4.984272150322795">
        <ele>357.26708984375</ele>
        <time>2011-04-24T15:18:35Z</time>
      </trkpt>
      <trkpt lat="34.064232017844915" lon="-4.985229531303048">
        <ele>364.9576416015625</ele>
        <time>2011-04-24T15:18:44Z</time>
      </trkpt>
      <trkpt lat="34.063944770023227" lon="-4.985861862078309">
        <ele>366.8802490234375</ele>
        <time>2011-04-24T15:18:50Z</time>
      </trkpt>
      <trkpt lat="34.063691049814224" lon="-4.986181044951081">
        <ele>369.28369140625</ele>
        <time>2011-04-24T15:18:54Z</time>
      </trkpt>
      <trkpt lat="34.063382260501385" lon="-4.986391263082624">
        <ele>372.16748046875</ele>
        <time>2011-04-24T15:18:58Z</time>
      </trkpt>
      <trkpt lat="34.06262076459825" lon="-4.986612377688289">
        <ele>377.454833984375</ele>
        <time>2011-04-24T15:19:07Z</time>
      </trkpt>
      <trkpt lat="34.062467627227306" lon="-4.986678678542376">
        <ele>377.9354248046875</ele>
        <time>2011-04-24T15:19:10Z</time>
      </trkpt>
      <trkpt lat="34.061921630054712" lon="-4.986805748194456">
        <ele>377.454833984375</ele>
        <time>2011-04-24T15:19:17Z</time>
      </trkpt>
      <trkpt lat="34.06165324151516" lon="-4.98684061691165">
        <ele>380.8194580078125</ele>
        <time>2011-04-24T15:19:23Z</time>
      </trkpt>
      <trkpt lat="34.061383763328195" lon="-4.986896440386772">
        <ele>387.548583984375</ele>
        <time>2011-04-24T15:19:30Z</time>
      </trkpt>
      <trkpt lat="34.060916723683476" lon="-4.987163739278913">
        <ele>388.9906005859375</ele>
        <time>2011-04-24T15:19:36Z</time>
      </trkpt>
      <trkpt lat="34.060388077050447" lon="-4.987798752263188">
        <ele>389.47119140625</ele>
        <time>2011-04-24T15:19:43Z</time>
      </trkpt>
      <trkpt lat="34.06018883921206" lon="-4.988582627847791">
        <ele>388.9906005859375</ele>
        <time>2011-04-24T15:19:49Z</time>
      </trkpt>
      <trkpt lat="34.060313394293189" lon="-4.989647967740893">
        <ele>364.9576416015625</ele>
        <time>2011-04-24T15:19:56Z</time>
      </trkpt>
      <trkpt lat="34.060410037636757" lon="-4.991310769692063">
        <ele>358.2283935546875</ele>
        <time>2011-04-24T15:20:06Z</time>
      </trkpt>
      <trkpt lat="34.060219181701541" lon="-4.992110151797533">
        <ele>349.5765380859375</ele>
        <time>2011-04-24T15:20:12Z</time>
      </trkpt>
      <trkpt lat="34.060103930532932" lon="-4.992686156183481">
        <ele>350.0572509765625</ele>
        <time>2011-04-24T15:20:18Z</time>
      </trkpt>
      <trkpt lat="34.059999156743288" lon="-4.99337992630899">
        <ele>350.537841796875</ele>
        <time>2011-04-24T15:20:25Z</time>
      </trkpt>
      <trkpt lat="34.059842582792044" lon="-4.994463790208101">
        <ele>350.0572509765625</ele>
        <time>2011-04-24T15:20:32Z</time>
      </trkpt>
      <trkpt lat="34.059523567557335" lon="-4.996671499684453">
        <ele>345.7313232421875</ele>
        <time>2011-04-24T15:20:45Z</time>
      </trkpt>
      <trkpt lat="34.059268841519952" lon="-4.998724730685353">
        <ele>342.36669921875</ele>
        <time>2011-04-24T15:20:56Z</time>
      </trkpt>
      <trkpt lat="34.058837257325649" lon="-5.001842631027103">
        <ele>339.96337890625</ele>
        <time>2011-04-24T15:21:12Z</time>
      </trkpt>
      <trkpt lat="34.058605078607798" lon="-5.003334861248732">
        <ele>342.8472900390625</ele>
        <time>2011-04-24T15:21:21Z</time>
      </trkpt>
      <trkpt lat="34.058505417779088" lon="-5.003771055489779">
        <ele>346.2120361328125</ele>
        <time>2011-04-24T15:21:26Z</time>
      </trkpt>
      <trkpt lat="34.058398548513651" lon="-5.003987979143858">
        <ele>360.151123046875</ele>
        <time>2011-04-24T15:21:46Z</time>
      </trkpt>
      <trkpt lat="34.058402068912983" lon="-5.004286793991923">
        <ele>356.786376953125</ele>
        <time>2011-04-24T15:21:53Z</time>
      </trkpt>
      <trkpt lat="34.058361165225506" lon="-5.004438841715455">
        <ele>354.86376953125</ele>
        <time>2011-04-24T15:21:57Z</time>
      </trkpt>
      <trkpt lat="34.058209620416164" lon="-5.004700273275375">
        <ele>354.3831787109375</ele>
        <time>2011-04-24T15:22:02Z</time>
      </trkpt>
      <trkpt lat="34.058026559650898" lon="-5.005577439442277">
        <ele>353.902587890625</ele>
        <time>2011-04-24T15:22:09Z</time>
      </trkpt>
      <trkpt lat="34.057721626013517" lon="-5.00727754086256">
        <ele>353.902587890625</ele>
        <time>2011-04-24T15:22:20Z</time>
      </trkpt>
      <trkpt lat="34.057384254410863" lon="-5.008978480473161">
        <ele>353.902587890625</ele>
        <time>2011-04-24T15:22:32Z</time>
      </trkpt>
      <trkpt lat="34.056987958028913" lon="-5.011021234095097">
        <ele>356.786376953125</ele>
        <time>2011-04-24T15:22:47Z</time>
      </trkpt>
      <trkpt lat="34.056624518707395" lon="-5.01294462941587">
        <ele>355.344482421875</ele>
        <time>2011-04-24T15:23:00Z</time>
      </trkpt>
      <trkpt lat="34.056119341403246" lon="-5.015232553705573">
        <ele>355.344482421875</ele>
        <time>2011-04-24T15:23:14Z</time>
      </trkpt>
      <trkpt lat="34.055726733058691" lon="-5.016647335141897">
        <ele>355.8251953125</ele>
        <time>2011-04-24T15:23:23Z</time>
      </trkpt>
      <trkpt lat="34.055427750572562" lon="-5.017804289236665">
        <ele>352.941162109375</ele>
        <time>2011-04-24T15:23:32Z</time>
      </trkpt>
      <trkpt lat="34.055277043953538" lon="-5.0183757673949">
        <ele>350.537841796875</ele>
        <time>2011-04-24T15:23:39Z</time>
      </trkpt>
      <trkpt lat="34.055218873545527" lon="-5.018542818725109">
        <ele>353.421875</ele>
        <time>2011-04-24T15:23:45Z</time>
      </trkpt>
      <trkpt lat="34.055151650682092" lon="-5.018762843683362">
        <ele>354.86376953125</ele>
        <time>2011-04-24T15:23:54Z</time>
      </trkpt>
      <trkpt lat="34.054968170821667" lon="-5.019342955201864">
        <ele>355.8251953125</ele>
        <time>2011-04-24T15:24:01Z</time>
      </trkpt>
      <trkpt lat="34.054612442851067" lon="-5.020649023354054">
        <ele>352.941162109375</ele>
        <time>2011-04-24T15:24:11Z</time>
      </trkpt>
      <trkpt lat="34.054295355454087" lon="-5.02184453420341">
        <ele>351.0184326171875</ele>
        <time>2011-04-24T15:24:18Z</time>
      </trkpt>
      <trkpt lat="34.053800320252776" lon="-5.023726522922516">
        <ele>349.0958251953125</ele>
        <time>2011-04-24T15:24:29Z</time>
      </trkpt>
      <trkpt lat="34.053351972252131" lon="-5.025401981547475">
        <ele>349.5765380859375</ele>
        <time>2011-04-24T15:24:40Z</time>
      </trkpt>
      <trkpt lat="34.053119877353311" lon="-5.026267664507031">
        <ele>349.0958251953125</ele>
        <time>2011-04-24T15:24:47Z</time>
      </trkpt>
      <trkpt lat="34.052882250398397" lon="-5.027158074080944">
        <ele>349.0958251953125</ele>
        <time>2011-04-24T15:24:55Z</time>
      </trkpt>
      <trkpt lat="34.052550829946995" lon="-5.028696153312922">
        <ele>348.615234375</ele>
        <time>2011-04-24T15:25:05Z</time>
      </trkpt>
      <trkpt lat="34.052083119750023" lon="-5.030751144513488">
        <ele>349.0958251953125</ele>
        <time>2011-04-24T15:25:17Z</time>
      </trkpt>
      <trkpt lat="34.051851695403457" lon="-5.031614564359188">
        <ele>351.0184326171875</ele>
        <time>2011-04-24T15:25:24Z</time>
      </trkpt>
      <trkpt lat="34.051625886932015" lon="-5.032439846545458">
        <ele>351.9798583984375</ele>
        <time>2011-04-24T15:25:32Z</time>
      </trkpt>
      <trkpt lat="34.051279798150063" lon="-5.033738622441888">
        <ele>352.941162109375</ele>
        <time>2011-04-24T15:25:41Z</time>
      </trkpt>
      <trkpt lat="34.051051894202828" lon="-5.034581422805786">
        <ele>353.421875</ele>
        <time>2011-04-24T15:25:49Z</time>
      </trkpt>
      <trkpt lat="34.050970170646906" lon="-5.0348742865026">
        <ele>354.3831787109375</ele>
        <time>2011-04-24T15:25:55Z</time>
      </trkpt>
      <trkpt lat="34.050941839814186" lon="-5.035003032535315">
        <ele>351.4991455078125</ele>
        <time>2011-04-24T15:26:06Z</time>
      </trkpt>
      <trkpt lat="34.050738578662276" lon="-5.035715326666832">
        <ele>353.902587890625</ele>
        <time>2011-04-24T15:26:13Z</time>
      </trkpt>
      <trkpt lat="34.050250835716724" lon="-5.037008738145232">
        <ele>358.708984375</ele>
        <time>2011-04-24T15:26:22Z</time>
      </trkpt>
      <trkpt lat="34.049639459699392" lon="-5.038654524832964">
        <ele>361.1124267578125</ele>
        <time>2011-04-24T15:26:32Z</time>
      </trkpt>
      <trkpt lat="34.049103353172541" lon="-5.040052458643913">
        <ele>363.0350341796875</ele>
        <time>2011-04-24T15:26:42Z</time>
      </trkpt>
      <trkpt lat="34.048472698777914" lon="-5.04165792837739">
        <ele>367.3609619140625</ele>
        <time>2011-04-24T15:26:54Z</time>
      </trkpt>
      <trkpt lat="34.048052346333861" lon="-5.042863748967648">
        <ele>369.28369140625</ele>
        <time>2011-04-24T15:27:04Z</time>
      </trkpt>
      <trkpt lat="34.0477688703686" lon="-5.044335946440697">
        <ele>369.28369140625</ele>
        <time>2011-04-24T15:27:14Z</time>
      </trkpt>
      <trkpt lat="34.047472234815359" lon="-5.046349028125405">
        <ele>364.4769287109375</ele>
        <time>2011-04-24T15:27:26Z</time>
      </trkpt>
      <trkpt lat="34.047013241797686" lon="-5.048381388187408">
        <ele>364.4769287109375</ele>
        <time>2011-04-24T15:27:37Z</time>
      </trkpt>
      <trkpt lat="34.04645056463778" lon="-5.050484072417021">
        <ele>363.996337890625</ele>
        <time>2011-04-24T15:27:48Z</time>
      </trkpt>
      <trkpt lat="34.04574447311461" lon="-5.053241718560457">
        <ele>362.07373046875</ele>
        <time>2011-04-24T15:28:01Z</time>
      </trkpt>
      <trkpt lat="34.045130833983421" lon="-5.055619245395064">
        <ele>360.151123046875</ele>
        <time>2011-04-24T15:28:13Z</time>
      </trkpt>
      <trkpt lat="34.044320471584797" lon="-5.058618793264031">
        <ele>359.67041015625</ele>
        <time>2011-04-24T15:28:28Z</time>
      </trkpt>
      <trkpt lat="34.04368294402957" lon="-5.061035295948386">
        <ele>361.1124267578125</ele>
        <time>2011-04-24T15:28:40Z</time>
      </trkpt>
      <trkpt lat="34.043183550238609" lon="-5.063054831698537">
        <ele>363.0350341796875</ele>
        <time>2011-04-24T15:28:51Z</time>
      </trkpt>
      <trkpt lat="34.042797144502401" lon="-5.064257467165589">
        <ele>363.996337890625</ele>
        <time>2011-04-24T15:28:58Z</time>
      </trkpt>
      <trkpt lat="34.042408643290401" lon="-5.065811472013593">
        <ele>365.4383544921875</ele>
        <time>2011-04-24T15:29:07Z</time>
      </trkpt>
      <trkpt lat="34.042278723791242" lon="-5.067166658118367">
        <ele>369.28369140625</ele>
        <time>2011-04-24T15:29:14Z</time>
      </trkpt>
      <trkpt lat="34.042308228090405" lon="-5.069868564605713">
        <ele>375.5321044921875</ele>
        <time>2011-04-24T15:29:27Z</time>
      </trkpt>
      <trkpt lat="34.042146289721131" lon="-5.071585262194276">
        <ele>376.4935302734375</ele>
        <time>2011-04-24T15:29:35Z</time>
      </trkpt>
      <trkpt lat="34.04160238802433" lon="-5.073936050757766">
        <ele>374.090087890625</ele>
        <time>2011-04-24T15:29:46Z</time>
      </trkpt>
      <trkpt lat="34.040988245978951" lon="-5.076636783778667">
        <ele>369.7642822265625</ele>
        <time>2011-04-24T15:29:58Z</time>
      </trkpt>
      <trkpt lat="34.040421126410365" lon="-5.078827729448676">
        <ele>364.9576416015625</ele>
        <time>2011-04-24T15:30:08Z</time>
      </trkpt>
      <trkpt lat="34.039770690724254" lon="-5.081369960680604">
        <ele>363.996337890625</ele>
        <time>2011-04-24T15:30:20Z</time>
      </trkpt>
      <trkpt lat="34.039194099605083" lon="-5.083736255764961">
        <ele>361.5931396484375</ele>
        <time>2011-04-24T15:30:31Z</time>
      </trkpt>
      <trkpt lat="34.038713816553354" lon="-5.085780769586563">
        <ele>356.786376953125</ele>
        <time>2011-04-24T15:30:41Z</time>
      </trkpt>
      <trkpt lat="34.038525391370058" lon="-5.086585180833936">
        <ele>354.3831787109375</ele>
        <time>2011-04-24T15:30:47Z</time>
      </trkpt>
      <trkpt lat="34.038132447749376" lon="-5.088044637814164">
        <ele>351.4991455078125</ele>
        <time>2011-04-24T15:30:57Z</time>
      </trkpt>
      <trkpt lat="34.037579325959086" lon="-5.089425137266517">
        <ele>349.5765380859375</ele>
        <time>2011-04-24T15:31:07Z</time>
      </trkpt>
      <trkpt lat="34.037093929946423" lon="-5.090338261798024">
        <ele>350.0572509765625</ele>
        <time>2011-04-24T15:31:15Z</time>
      </trkpt>
      <trkpt lat="34.036272168159485" lon="-5.091634271666408">
        <ele>348.615234375</ele>
        <time>2011-04-24T15:31:24Z</time>
      </trkpt>
      <trkpt lat="34.035138096660376" lon="-5.093564540147781">
        <ele>347.1732177734375</ele>
        <time>2011-04-24T15:31:35Z</time>
      </trkpt>
      <trkpt lat="34.034444494172931" lon="-5.09535969235003">
        <ele>346.692626953125</ele>
        <time>2011-04-24T15:31:44Z</time>
      </trkpt>
      <trkpt lat="34.033999247476459" lon="-5.097030624747276">
        <ele>348.615234375</ele>
        <time>2011-04-24T15:31:53Z</time>
      </trkpt>
      <trkpt lat="34.033474875614047" lon="-5.098999198526144">
        <ele>352.941162109375</ele>
        <time>2011-04-24T15:32:06Z</time>
      </trkpt>
      <trkpt lat="34.033281169831753" lon="-5.100037883967161">
        <ele>354.86376953125</ele>
        <time>2011-04-24T15:32:14Z</time>
      </trkpt>
      <trkpt lat="34.033273458480835" lon="-5.100197559222579">
        <ele>354.86376953125</ele>
        <time>2011-04-24T15:32:16Z</time>
      </trkpt>
      <trkpt lat="34.03332207351923" lon="-5.100894430652261">
        <ele>356.3057861328125</ele>
        <time>2011-04-24T15:32:24Z</time>
      </trkpt>
      <trkpt lat="34.033348141238093" lon="-5.101015046238899">
        <ele>356.3057861328125</ele>
        <time>2011-04-24T15:32:25Z</time>
      </trkpt>
      <trkpt lat="34.03371543623507" lon="-5.10224056430161">
        <ele>356.3057861328125</ele>
        <time>2011-04-24T15:32:33Z</time>
      </trkpt>
      <trkpt lat="34.034350616857409" lon="-5.104327322915196">
        <ele>355.344482421875</ele>
        <time>2011-04-24T15:32:44Z</time>
      </trkpt>
      <trkpt lat="34.035155782476068" lon="-5.1069416385144">
        <ele>359.189697265625</ele>
        <time>2011-04-24T15:32:57Z</time>
      </trkpt>
      <trkpt lat="34.036071756854653" lon="-5.109902629628778">
        <ele>363.0350341796875</ele>
        <time>2011-04-24T15:33:11Z</time>
      </trkpt>
      <trkpt lat="34.037176324054599" lon="-5.113543141633272">
        <ele>364.9576416015625</ele>
        <time>2011-04-24T15:33:28Z</time>
      </trkpt>
      <trkpt lat="34.037547139450908" lon="-5.115481792017818">
        <ele>367.3609619140625</ele>
        <time>2011-04-24T15:33:37Z</time>
      </trkpt>
      <trkpt lat="34.037935640662909" lon="-5.117697799578309">
        <ele>373.6094970703125</ele>
        <time>2011-04-24T15:33:48Z</time>
      </trkpt>
      <trkpt lat="34.038489935919642" lon="-5.120806647464633">
        <ele>382.2613525390625</ele>
        <time>2011-04-24T15:34:03Z</time>
      </trkpt>
      <trkpt lat="34.038904923945665" lon="-5.123203452676535">
        <ele>387.548583984375</ele>
        <time>2011-04-24T15:34:15Z</time>
      </trkpt>
      <trkpt lat="34.039130480960011" lon="-5.125099439173937">
        <ele>386.58740234375</ele>
        <time>2011-04-24T15:34:25Z</time>
      </trkpt>
      <trkpt lat="34.039186723530293" lon="-5.126740448176861">
        <ele>382.7420654296875</ele>
        <time>2011-04-24T15:34:34Z</time>
      </trkpt>
      <trkpt lat="34.03932779096067" lon="-5.129710324108601">
        <ele>361.1124267578125</ele>
        <time>2011-04-24T15:34:50Z</time>
      </trkpt>
      <trkpt lat="34.039447316899896" lon="-5.132518177852035">
        <ele>346.2120361328125</ele>
        <time>2011-04-24T15:35:05Z</time>
      </trkpt>
      <trkpt lat="34.039529878646135" lon="-5.13468355871737">
        <ele>336.598876953125</ele>
        <time>2011-04-24T15:35:17Z</time>
      </trkpt>
      <trkpt lat="34.039552677422762" lon="-5.136284334585071">
        <ele>351.4991455078125</ele>
        <time>2011-04-24T15:35:27Z</time>
      </trkpt>
      <trkpt lat="34.03956675902009" lon="-5.137927355244756">
        <ele>372.16748046875</ele>
        <time>2011-04-24T15:35:37Z</time>
      </trkpt>
      <trkpt lat="34.039572961628437" lon="-5.1385847479105">
        <ele>378.8968505859375</ele>
        <time>2011-04-24T15:35:43Z</time>
      </trkpt>
      <trkpt lat="34.039594251662493" lon="-5.139330234378576">
        <ele>384.18408203125</ele>
        <time>2011-04-24T15:35:50Z</time>
      </trkpt>
      <trkpt lat="34.039610680192709" lon="-5.140327345579863">
        <ele>388.029296875</ele>
        <time>2011-04-24T15:35:57Z</time>
      </trkpt>
      <trkpt lat="34.039636999368668" lon="-5.141882859170437">
        <ele>390.9132080078125</ele>
        <time>2011-04-24T15:36:05Z</time>
      </trkpt>
      <trkpt lat="34.039823831990361" lon="-5.14342999085784">
        <ele>391.87451171875</ele>
        <time>2011-04-24T15:36:12Z</time>
      </trkpt>
      <trkpt lat="34.040422132238746" lon="-5.146238766610622">
        <ele>393.7972412109375</ele>
        <time>2011-04-24T15:36:23Z</time>
      </trkpt>
      <trkpt lat="34.041058989241719" lon="-5.149277541786432">
        <ele>397.6424560546875</ele>
        <time>2011-04-24T15:36:34Z</time>
      </trkpt>
      <trkpt lat="34.041619822382927" lon="-5.151939550414681">
        <ele>401.968505859375</ele>
        <time>2011-04-24T15:36:44Z</time>
      </trkpt>
      <trkpt lat="34.042130699381232" lon="-5.154537353664637">
        <ele>405.813720703125</ele>
        <time>2011-04-24T15:36:54Z</time>
      </trkpt>
      <trkpt lat="34.042739225551486" lon="-5.157257532700896">
        <ele>409.1783447265625</ele>
        <time>2011-04-24T15:37:04Z</time>
      </trkpt>
      <trkpt lat="34.043083386495709" lon="-5.158865265548229">
        <ele>412.062255859375</ele>
        <time>2011-04-24T15:37:11Z</time>
      </trkpt>
      <trkpt lat="34.043494770303369" lon="-5.160910533741117">
        <ele>414.9461669921875</ele>
        <time>2011-04-24T15:37:20Z</time>
      </trkpt>
      <trkpt lat="34.044050490483642" lon="-5.163440443575382">
        <ele>418.310791015625</ele>
        <time>2011-04-24T15:37:30Z</time>
      </trkpt>
      <trkpt lat="34.044960932806134" lon="-5.167648075148463">
        <ele>423.117431640625</ele>
        <time>2011-04-24T15:37:46Z</time>
      </trkpt>
      <trkpt lat="34.045813120901585" lon="-5.171627551317215">
        <ele>428.4046630859375</ele>
        <time>2011-04-24T15:38:01Z</time>
      </trkpt>
      <trkpt lat="34.046601187437773" lon="-5.175386667251587">
        <ele>436.575927734375</ele>
        <time>2011-04-24T15:38:14Z</time>
      </trkpt>
      <trkpt lat="34.047383051365614" lon="-5.17907839268446">
        <ele>438.9791259765625</ele>
        <time>2011-04-24T15:38:26Z</time>
      </trkpt>
      <trkpt lat="34.048056369647384" lon="-5.182051537558436">
        <ele>441.8631591796875</ele>
        <time>2011-04-24T15:38:36Z</time>
      </trkpt>
      <trkpt lat="34.048849465325475" lon="-5.1857765391469">
        <ele>446.669677734375</ele>
        <time>2011-04-24T15:38:49Z</time>
      </trkpt>
      <trkpt lat="34.049456566572189" lon="-5.188578274101019">
        <ele>448.11181640625</ele>
        <time>2011-04-24T15:38:59Z</time>
      </trkpt>
      <trkpt lat="34.049710454419255" lon="-5.189529620110989">
        <ele>449.072998046875</ele>
        <time>2011-04-24T15:39:03Z</time>
      </trkpt>
      <trkpt lat="34.050484942272305" lon="-5.190727142617106">
        <ele>440.90185546875</ele>
        <time>2011-04-24T15:39:09Z</time>
      </trkpt>
      <trkpt lat="34.051726721227169" lon="-5.192597061395645">
        <ele>438.9791259765625</ele>
        <time>2011-04-24T15:39:18Z</time>
      </trkpt>
      <trkpt lat="34.05249048024416" lon="-5.194467399269342">
        <ele>441.8631591796875</ele>
        <time>2011-04-24T15:39:26Z</time>
      </trkpt>
      <trkpt lat="34.053102191537619" lon="-5.197151955217123">
        <ele>448.11181640625</ele>
        <time>2011-04-24T15:39:36Z</time>
      </trkpt>
      <trkpt lat="34.053248288109899" lon="-5.199700137600303">
        <ele>454.3602294921875</ele>
        <time>2011-04-24T15:39:45Z</time>
      </trkpt>
      <trkpt lat="34.053227249532938" lon="-5.20123234950006">
        <ele>456.282958984375</ele>
        <time>2011-04-24T15:39:51Z</time>
      </trkpt>
      <trkpt lat="34.053079476580024" lon="-5.203266134485602">
        <ele>455.321533203125</ele>
        <time>2011-04-24T15:40:00Z</time>
      </trkpt>
      <trkpt lat="34.052868252620101" lon="-5.20622905343771">
        <ele>451.476318359375</ele>
        <time>2011-04-24T15:40:13Z</time>
      </trkpt>
      <trkpt lat="34.052649568766356" lon="-5.209371848031879">
        <ele>449.5537109375</ele>
        <time>2011-04-24T15:40:26Z</time>
      </trkpt>
      <trkpt lat="34.052396519109607" lon="-5.213319389149547">
        <ele>446.1890869140625</ele>
        <time>2011-04-24T15:40:41Z</time>
      </trkpt>
      <trkpt lat="34.052139362320304" lon="-5.217679236084223">
        <ele>438.017822265625</ele>
        <time>2011-04-24T15:40:57Z</time>
      </trkpt>
      <trkpt lat="34.051875416189432" lon="-5.221741441637278">
        <ele>434.172607421875</ele>
        <time>2011-04-24T15:41:11Z</time>
      </trkpt>
      <trkpt lat="34.05165983363986" lon="-5.225070482119918">
        <ele>430.3272705078125</ele>
        <time>2011-04-24T15:41:23Z</time>
      </trkpt>
      <trkpt lat="34.051659498363733" lon="-5.227442728355527">
        <ele>428.4046630859375</ele>
        <time>2011-04-24T15:41:32Z</time>
      </trkpt>
      <trkpt lat="34.051708532497287" lon="-5.230866568163037">
        <ele>422.63671875</ele>
        <time>2011-04-24T15:41:45Z</time>
      </trkpt>
      <trkpt lat="34.051718758419156" lon="-5.232403054833412">
        <ele>418.79150390625</ele>
        <time>2011-04-24T15:41:52Z</time>
      </trkpt>
      <trkpt lat="34.051731331273913" lon="-5.233375355601311">
        <ele>416.38818359375</ele>
        <time>2011-04-24T15:41:59Z</time>
      </trkpt>
      <trkpt lat="34.051751950755715" lon="-5.234638173133135">
        <ele>413.5042724609375</ele>
        <time>2011-04-24T15:42:06Z</time>
      </trkpt>
      <trkpt lat="34.051755387336016" lon="-5.236866334453225">
        <ele>412.5428466796875</ele>
        <time>2011-04-24T15:42:17Z</time>
      </trkpt>
      <trkpt lat="34.051751028746367" lon="-5.238501476123929">
        <ele>410.6202392578125</ele>
        <time>2011-04-24T15:42:25Z</time>
      </trkpt>
      <trkpt lat="34.051792938262224" lon="-5.240560239180923">
        <ele>406.77490234375</ele>
        <time>2011-04-24T15:42:33Z</time>
      </trkpt>
      <trkpt lat="34.051819089800119" lon="-5.243909563869238">
        <ele>400.5264892578125</ele>
        <time>2011-04-24T15:42:45Z</time>
      </trkpt>
      <trkpt lat="34.051899053156376" lon="-5.247429292649031">
        <ele>399.0843505859375</ele>
        <time>2011-04-24T15:42:58Z</time>
      </trkpt>
      <trkpt lat="34.052030816674232" lon="-5.248736785724759">
        <ele>397.6424560546875</ele>
        <time>2011-04-24T15:43:04Z</time>
      </trkpt>
      <trkpt lat="34.0521723870188" lon="-5.250279558822513">
        <ele>391.393798828125</ele>
        <time>2011-04-24T15:43:12Z</time>
      </trkpt>
      <trkpt lat="34.05237908475101" lon="-5.25247972458601">
        <ele>378.8968505859375</ele>
        <time>2011-04-24T15:43:21Z</time>
      </trkpt>
      <trkpt lat="34.052619729191065" lon="-5.255827289074659">
        <ele>364.4769287109375</ele>
        <time>2011-04-24T15:43:34Z</time>
      </trkpt>
      <trkpt lat="34.052773285657167" lon="-5.258042961359024">
        <ele>354.3831787109375</ele>
        <time>2011-04-24T15:43:43Z</time>
      </trkpt>
      <trkpt lat="34.053024323657155" lon="-5.259910868480802">
        <ele>344.77001953125</ele>
        <time>2011-04-24T15:43:51Z</time>
      </trkpt>
      <trkpt lat="34.052922734990716" lon="-5.26140158995986">
        <ele>335.6373291015625</ele>
        <time>2011-04-24T15:43:57Z</time>
      </trkpt>
      <trkpt lat="34.053042680025101" lon="-5.263097248971462">
        <ele>330.3502197265625</ele>
        <time>2011-04-24T15:44:04Z</time>
      </trkpt>
      <trkpt lat="34.052908150479198" lon="-5.264771031215787">
        <ele>323.6209716796875</ele>
        <time>2011-04-24T15:44:11Z</time>
      </trkpt>
      <trkpt lat="34.052771693095565" lon="-5.267188288271427">
        <ele>314.9691162109375</ele>
        <time>2011-04-24T15:44:21Z</time>
      </trkpt>
      <trkpt lat="34.053050056099892" lon="-5.269865719601512">
        <ele>305.35595703125</ele>
        <time>2011-04-24T15:44:32Z</time>
      </trkpt>
      <trkpt lat="34.053483568131924" lon="-5.272593526169658">
        <ele>293.820068359375</ele>
        <time>2011-04-24T15:44:43Z</time>
      </trkpt>
      <trkpt lat="34.053682386875153" lon="-5.274281473830342">
        <ele>289.0135498046875</ele>
        <time>2011-04-24T15:44:50Z</time>
      </trkpt>
      <trkpt lat="34.053598819300532" lon="-5.275388136506081">
        <ele>292.378173828125</ele>
        <time>2011-04-24T15:44:56Z</time>
      </trkpt>
      <trkpt lat="34.053426319733262" lon="-5.27678263373673">
        <ele>295.261962890625</ele>
        <time>2011-04-24T15:45:06Z</time>
      </trkpt>
      <trkpt lat="34.053175617009401" lon="-5.277556534856558">
        <ele>294.7813720703125</ele>
        <time>2011-04-24T15:45:13Z</time>
      </trkpt>
      <trkpt lat="34.052765490487218" lon="-5.278278132900596">
        <ele>293.33935546875</ele>
        <time>2011-04-24T15:45:19Z</time>
      </trkpt>
      <trkpt lat="34.052025536075234" lon="-5.279040047898889">
        <ele>290.45556640625</ele>
        <time>2011-04-24T15:45:25Z</time>
      </trkpt>
      <trkpt lat="34.050613939762115" lon="-5.280253328382969">
        <ele>284.2069091796875</ele>
        <time>2011-04-24T15:45:34Z</time>
      </trkpt>
      <trkpt lat="34.048350658267736" lon="-5.282226260751486">
        <ele>278.919677734375</ele>
        <time>2011-04-24T15:45:47Z</time>
      </trkpt>
      <trkpt lat="34.046602277085185" lon="-5.283544650301337">
        <ele>270.2677001953125</ele>
        <time>2011-04-24T15:45:57Z</time>
      </trkpt>
      <trkpt lat="34.045631736516953" lon="-5.28445559553802">
        <ele>262.5771484375</ele>
        <time>2011-04-24T15:46:03Z</time>
      </trkpt>
      <trkpt lat="34.043729128316045" lon="-5.286870673298836">
        <ele>250.0802001953125</ele>
        <time>2011-04-24T15:46:16Z</time>
      </trkpt>
      <trkpt lat="34.043228141963482" lon="-5.287943053990603">
        <ele>247.6767578125</ele>
        <time>2011-04-24T15:46:21Z</time>
      </trkpt>
      <trkpt lat="34.042739393189549" lon="-5.289834262803197">
        <ele>249.5994873046875</ele>
        <time>2011-04-24T15:46:29Z</time>
      </trkpt>
      <trkpt lat="34.042682982981205" lon="-5.290288897231221">
        <ele>252.9639892578125</ele>
        <time>2011-04-24T15:46:31Z</time>
      </trkpt>
      <trkpt lat="34.04282396659255" lon="-5.291779534891248">
        <ele>259.212646484375</ele>
        <time>2011-04-24T15:46:38Z</time>
      </trkpt>
      <trkpt lat="34.042828995734453" lon="-5.291974162682891">
        <ele>259.693359375</ele>
        <time>2011-04-24T15:46:39Z</time>
      </trkpt>
      <trkpt lat="34.042565217241645" lon="-5.292806485667825">
        <ele>260.654541015625</ele>
        <time>2011-04-24T15:46:44Z</time>
      </trkpt>
      <trkpt lat="34.042037576436996" lon="-5.293195238336921">
        <ele>257.2900390625</ele>
        <time>2011-04-24T15:46:48Z</time>
      </trkpt>
      <trkpt lat="34.041380938142538" lon="-5.293210577219725">
        <ele>252.4833984375</ele>
        <time>2011-04-24T15:46:52Z</time>
      </trkpt>
      <trkpt lat="34.041055887937546" lon="-5.293096248060465">
        <ele>249.5994873046875</ele>
        <time>2011-04-24T15:46:54Z</time>
      </trkpt>
      <trkpt lat="34.039010284468532" lon="-5.291941557079554">
        <ele>232.7764892578125</ele>
        <time>2011-04-24T15:47:07Z</time>
      </trkpt>
      <trkpt lat="34.038132028654218" lon="-5.291629750281572">
        <ele>228.93115234375</ele>
        <time>2011-04-24T15:47:12Z</time>
      </trkpt>
      <trkpt lat="34.037148747593164" lon="-5.291720274835825">
        <ele>227.9697265625</ele>
        <time>2011-04-24T15:47:18Z</time>
      </trkpt>
      <trkpt lat="34.036594033241272" lon="-5.292052365839481">
        <ele>225.5665283203125</ele>
        <time>2011-04-24T15:47:22Z</time>
      </trkpt>
      <trkpt lat="34.035367341712117" lon="-5.293188281357288">
        <ele>220.7598876953125</ele>
        <time>2011-04-24T15:47:31Z</time>
      </trkpt>
      <trkpt lat="34.033161224797368" lon="-5.295262970030308">
        <ele>227.9697265625</ele>
        <time>2011-04-24T15:47:46Z</time>
      </trkpt>
      <trkpt lat="34.032307444140315" lon="-5.295949028804898">
        <ele>237.102294921875</ele>
        <time>2011-04-24T15:47:53Z</time>
      </trkpt>
      <trkpt lat="34.031317457556725" lon="-5.296305762603879">
        <ele>247.6767578125</ele>
        <time>2011-04-24T15:48:01Z</time>
      </trkpt>
      <trkpt lat="34.030345324426889" lon="-5.296500138938427">
        <ele>257.2900390625</ele>
        <time>2011-04-24T15:48:10Z</time>
      </trkpt>
      <trkpt lat="34.028523350134492" lon="-5.29688285663724">
        <ele>272.671142578125</ele>
        <time>2011-04-24T15:48:25Z</time>
      </trkpt>
      <trkpt lat="34.026882089674473" lon="-5.297220647335053">
        <ele>280.3616943359375</ele>
        <time>2011-04-24T15:48:36Z</time>
      </trkpt>
      <trkpt lat="34.02496799826622" lon="-5.297747533768416">
        <ele>290.45556640625</ele>
        <time>2011-04-24T15:48:48Z</time>
      </trkpt>
      <trkpt lat="34.024074235931039" lon="-5.298348348587751">
        <ele>299.1072998046875</ele>
        <time>2011-04-24T15:48:55Z</time>
      </trkpt>
      <trkpt lat="34.022770095616579" lon="-5.299256946891546">
        <ele>304.875244140625</ele>
        <time>2011-04-24T15:49:04Z</time>
      </trkpt>
      <trkpt lat="34.021575339138508" lon="-5.299735050648451">
        <ele>313.0465087890625</ele>
        <time>2011-04-24T15:49:11Z</time>
      </trkpt>
      <trkpt lat="34.020961783826351" lon="-5.299958763644099">
        <ele>318.3336181640625</ele>
        <time>2011-04-24T15:49:15Z</time>
      </trkpt>
      <trkpt lat="34.020314617082477" lon="-5.30056762509048">
        <ele>321.2177734375</ele>
        <time>2011-04-24T15:49:21Z</time>
      </trkpt>
      <trkpt lat="34.020241191610694" lon="-5.300709027796984">
        <ele>320.737060546875</ele>
        <time>2011-04-24T15:49:22Z</time>
      </trkpt>
      <trkpt lat="34.019845565780997" lon="-5.301406318321824">
        <ele>319.775634765625</ele>
        <time>2011-04-24T15:49:27Z</time>
      </trkpt>
      <trkpt lat="34.01899253949523" lon="-5.302055748179555">
        <ele>326.5048828125</ele>
        <time>2011-04-24T15:49:34Z</time>
      </trkpt>
      <trkpt lat="34.018735969439149" lon="-5.302244676277041">
        <ele>327.94677734375</ele>
        <time>2011-04-24T15:49:36Z</time>
      </trkpt>
      <trkpt lat="34.017721759155393" lon="-5.30346273444593">
        <ele>326.024169921875</ele>
        <time>2011-04-24T15:49:45Z</time>
      </trkpt>
      <trkpt lat="34.016826823353767" lon="-5.304653970524669">
        <ele>330.8309326171875</ele>
        <time>2011-04-24T15:49:53Z</time>
      </trkpt>
      <trkpt lat="34.016549549996853" lon="-5.305505739524961">
        <ele>335.15673828125</ele>
        <time>2011-04-24T15:49:58Z</time>
      </trkpt>
      <trkpt lat="34.016602439805865" lon="-5.306238820776343">
        <ele>338.521484375</ele>
        <time>2011-04-24T15:50:02Z</time>
      </trkpt>
      <trkpt lat="34.016794636845589" lon="-5.307807829231024">
        <ele>349.0958251953125</ele>
        <time>2011-04-24T15:50:11Z</time>
      </trkpt>
      <trkpt lat="34.016608642414212" lon="-5.309084644541144">
        <ele>357.26708984375</ele>
        <time>2011-04-24T15:50:19Z</time>
      </trkpt>
      <trkpt lat="34.016331871971488" lon="-5.310654072090983">
        <ele>355.344482421875</ele>
        <time>2011-04-24T15:50:29Z</time>
      </trkpt>
      <trkpt lat="34.016312342137098" lon="-5.310998652130365">
        <ele>353.902587890625</ele>
        <time>2011-04-24T15:50:31Z</time>
      </trkpt>
      <trkpt lat="34.016611324623227" lon="-5.312043959274888">
        <ele>346.692626953125</ele>
        <time>2011-04-24T15:50:37Z</time>
      </trkpt>
      <trkpt lat="34.017098229378462" lon="-5.312566822394729">
        <ele>342.36669921875</ele>
        <time>2011-04-24T15:50:41Z</time>
      </trkpt>
      <trkpt lat="34.017561161890626" lon="-5.312765222042799">
        <ele>339.96337890625</ele>
        <time>2011-04-24T15:50:44Z</time>
      </trkpt>
      <trkpt lat="34.018861697986722" lon="-5.313089685514569">
        <ele>334.6761474609375</ele>
        <time>2011-04-24T15:50:53Z</time>
      </trkpt>
      <trkpt lat="34.019701983779669" lon="-5.313691170886159">
        <ele>330.8309326171875</ele>
        <time>2011-04-24T15:50:59Z</time>
      </trkpt>
      <trkpt lat="34.020445877686143" lon="-5.314672272652388">
        <ele>324.582275390625</ele>
        <time>2011-04-24T15:51:06Z</time>
      </trkpt>
      <trkpt lat="34.021092373877764" lon="-5.315776839852333">
        <ele>316.8917236328125</ele>
        <time>2011-04-24T15:51:14Z</time>
      </trkpt>
      <trkpt lat="34.021536279469728" lon="-5.316443620249629">
        <ele>312.085205078125</ele>
        <time>2011-04-24T15:51:20Z</time>
      </trkpt>
      <trkpt lat="34.021664941683412" lon="-5.316647971048951">
        <ele>309.681884765625</ele>
        <time>2011-04-24T15:51:25Z</time>
      </trkpt>
      <trkpt lat="34.021717663854361" lon="-5.316792139783502">
        <ele>310.64306640625</ele>
        <time>2011-04-24T15:51:59Z</time>
      </trkpt>
      <trkpt lat="34.02201178483665" lon="-5.31731097958982">
        <ele>308.720458984375</ele>
        <time>2011-04-24T15:52:05Z</time>
      </trkpt>
      <trkpt lat="34.022680660709739" lon="-5.318432059139013">
        <ele>307.278564453125</ele>
        <time>2011-04-24T15:52:14Z</time>
      </trkpt>
      <trkpt lat="34.023362444713712" lon="-5.319511396810412">
        <ele>305.35595703125</ele>
        <time>2011-04-24T15:52:21Z</time>
      </trkpt>
      <trkpt lat="34.024201221764088" lon="-5.320480177178979">
        <ele>301.9913330078125</ele>
        <time>2011-04-24T15:52:27Z</time>
      </trkpt>
      <trkpt lat="34.025510139763355" lon="-5.321768224239349">
        <ele>300.0687255859375</ele>
        <time>2011-04-24T15:52:35Z</time>
      </trkpt>
      <trkpt lat="34.026244562119246" lon="-5.32301084138453">
        <ele>294.7813720703125</ele>
        <time>2011-04-24T15:52:41Z</time>
      </trkpt>
      <trkpt lat="34.026883346959949" lon="-5.32405505888164">
        <ele>288.532958984375</ele>
        <time>2011-04-24T15:52:46Z</time>
      </trkpt>
      <trkpt lat="34.028008785098791" lon="-5.324940187856555">
        <ele>280.8424072265625</ele>
        <time>2011-04-24T15:52:52Z</time>
      </trkpt>
      <trkpt lat="34.029926229268312" lon="-5.326136955991387">
        <ele>272.1904296875</ele>
        <time>2011-04-24T15:53:01Z</time>
      </trkpt>
      <trkpt lat="34.030973548069596" lon="-5.326180793344975">
        <ele>271.2291259765625</ele>
        <time>2011-04-24T15:53:06Z</time>
      </trkpt>
      <trkpt lat="34.031665055081248" lon="-5.325803020969033">
        <ele>269.3065185546875</ele>
        <time>2011-04-24T15:53:10Z</time>
      </trkpt>
      <trkpt lat="34.0319749340415" lon="-5.32549356110394">
        <ele>267.3839111328125</ele>
        <time>2011-04-24T15:53:12Z</time>
      </trkpt>
      <trkpt lat="34.033105066046119" lon="-5.324096465483308">
        <ele>261.615966796875</ele>
        <time>2011-04-24T15:53:20Z</time>
      </trkpt>
      <trkpt lat="34.034726964309812" lon="-5.321065988391638">
        <ele>256.3287353515625</ele>
        <time>2011-04-24T15:53:34Z</time>
      </trkpt>
      <trkpt lat="34.035504385828972" lon="-5.319947758689523">
        <ele>252.9639892578125</ele>
        <time>2011-04-24T15:53:40Z</time>
      </trkpt>
      <trkpt lat="34.03650501742959" lon="-5.319147119298577">
        <ele>246.7154541015625</ele>
        <time>2011-04-24T15:53:46Z</time>
      </trkpt>
      <trkpt lat="34.038480296730995" lon="-5.318051688373089">
        <ele>237.102294921875</ele>
        <time>2011-04-24T15:53:56Z</time>
      </trkpt>
      <trkpt lat="34.040766460821033" lon="-5.316868582740426">
        <ele>237.5828857421875</ele>
        <time>2011-04-24T15:54:07Z</time>
      </trkpt>
      <trkpt lat="34.040975254029036" lon="-5.31680865213275">
        <ele>238.0635986328125</ele>
        <time>2011-04-24T15:54:08Z</time>
      </trkpt>
      <trkpt lat="34.042051238939166" lon="-5.316850058734417">
        <ele>233.7376708984375</ele>
        <time>2011-04-24T15:54:13Z</time>
      </trkpt>
      <trkpt lat="34.042269922792912" lon="-5.316921472549439">
        <ele>232.2957763671875</ele>
        <time>2011-04-24T15:54:14Z</time>
      </trkpt>
      <trkpt lat="34.044997226446867" lon="-5.318043641746044">
        <ele>227.008544921875</ele>
        <time>2011-04-24T15:54:26Z</time>
      </trkpt>
      <trkpt lat="34.046673690900207" lon="-5.31873875297606">
        <ele>236.1409912109375</ele>
        <time>2011-04-24T15:54:34Z</time>
      </trkpt>
      <trkpt lat="34.048189893364906" lon="-5.319354739040136">
        <ele>248.63818359375</ele>
        <time>2011-04-24T15:54:42Z</time>
      </trkpt>
      <trkpt lat="34.048635642975569" lon="-5.319961085915566">
        <ele>255.3673095703125</ele>
        <time>2011-04-24T15:54:46Z</time>
      </trkpt>
      <trkpt lat="34.048624243587255" lon="-5.320472382009029">
        <ele>259.212646484375</ele>
        <time>2011-04-24T15:54:49Z</time>
      </trkpt>
      <trkpt lat="34.048586022108793" lon="-5.320652257651091">
        <ele>260.654541015625</ele>
        <time>2011-04-24T15:54:50Z</time>
      </trkpt>
      <trkpt lat="34.04796676710248" lon="-5.322936493903399">
        <ele>263.53857421875</ele>
        <time>2011-04-24T15:55:02Z</time>
      </trkpt>
      <trkpt lat="34.047540882602334" lon="-5.323849366977811">
        <ele>259.212646484375</ele>
        <time>2011-04-24T15:55:07Z</time>
      </trkpt>
      <trkpt lat="34.046640833839774" lon="-5.325278732925654">
        <ele>252.0028076171875</ele>
        <time>2011-04-24T15:55:14Z</time>
      </trkpt>
      <trkpt lat="34.04464946128428" lon="-5.328454049304128">
        <ele>250.0802001953125</ele>
        <time>2011-04-24T15:55:29Z</time>
      </trkpt>
      <trkpt lat="34.043672969564795" lon="-5.329734887927771">
        <ele>247.196044921875</ele>
        <time>2011-04-24T15:55:36Z</time>
      </trkpt>
      <trkpt lat="34.041446316987276" lon="-5.332020884379745">
        <ele>251.0413818359375</ele>
        <time>2011-04-24T15:55:49Z</time>
      </trkpt>
      <trkpt lat="34.039348494261503" lon="-5.334218954667449">
        <ele>259.212646484375</ele>
        <time>2011-04-24T15:56:02Z</time>
      </trkpt>
      <trkpt lat="34.038908863440156" lon="-5.335234338417649">
        <ele>259.693359375</ele>
        <time>2011-04-24T15:56:07Z</time>
      </trkpt>
      <trkpt lat="34.038941636681557" lon="-5.336102284491062">
        <ele>259.212646484375</ele>
        <time>2011-04-24T15:56:11Z</time>
      </trkpt>
      <trkpt lat="34.039324270561337" lon="-5.336854476481676">
        <ele>259.693359375</ele>
        <time>2011-04-24T15:56:15Z</time>
      </trkpt>
      <trkpt lat="34.040701752528548" lon="-5.338603192940354">
        <ele>263.057861328125</ele>
        <time>2011-04-24T15:56:25Z</time>
      </trkpt>
      <trkpt lat="34.04090509749949" lon="-5.338979624211788">
        <ele>264.019287109375</ele>
        <time>2011-04-24T15:56:27Z</time>
      </trkpt>
      <trkpt lat="34.041216317564249" lon="-5.34031854942441">
        <ele>260.1739501953125</ele>
        <time>2011-04-24T15:56:33Z</time>
      </trkpt>
      <trkpt lat="34.04161068610847" lon="-5.34260923974216">
        <ele>260.1739501953125</ele>
        <time>2011-04-24T15:56:42Z</time>
      </trkpt>
      <trkpt lat="34.041731720790267" lon="-5.343534518033266">
        <ele>265.94189453125</ele>
        <time>2011-04-24T15:56:46Z</time>
      </trkpt>
      <trkpt lat="34.041519239544868" lon="-5.344749558717012">
        <ele>274.59375</ele>
        <time>2011-04-24T15:56:52Z</time>
      </trkpt>
      <trkpt lat="34.041247079148889" lon="-5.345834763720632">
        <ele>283.24560546875</ele>
        <time>2011-04-24T15:56:58Z</time>
      </trkpt>
      <trkpt lat="34.041380267590284" lon="-5.346646383404732">
        <ele>289.0135498046875</ele>
        <time>2011-04-24T15:57:03Z</time>
      </trkpt>
      <trkpt lat="34.041827777400613" lon="-5.34713638946414">
        <ele>290.9361572265625</ele>
        <time>2011-04-24T15:57:07Z</time>
      </trkpt>
      <trkpt lat="34.042505035176873" lon="-5.347243594005704">
        <ele>288.532958984375</ele>
        <time>2011-04-24T15:57:11Z</time>
      </trkpt>
      <trkpt lat="34.042695052921772" lon="-5.347198080271483">
        <ele>287.0908203125</ele>
        <time>2011-04-24T15:57:12Z</time>
      </trkpt>
      <trkpt lat="34.044455587863922" lon="-5.346649484708905">
        <ele>280.3616943359375</ele>
        <time>2011-04-24T15:57:20Z</time>
      </trkpt>
      <trkpt lat="34.046369679272175" lon="-5.345990834757686">
        <ele>280.3616943359375</ele>
        <time>2011-04-24T15:57:28Z</time>
      </trkpt>
      <trkpt lat="34.04752747155726" lon="-5.345032783225179">
        <ele>284.2069091796875</ele>
        <time>2011-04-24T15:57:34Z</time>
      </trkpt>
      <trkpt lat="34.048511423170567" lon="-5.344110187143087">
        <ele>288.532958984375</ele>
        <time>2011-04-24T15:57:40Z</time>
      </trkpt>
      <trkpt lat="34.048885591328144" lon="-5.343858394771814">
        <ele>290.9361572265625</ele>
        <time>2011-04-24T15:57:44Z</time>
      </trkpt>
      <trkpt lat="34.049537284299731" lon="-5.34371942281723">
        <ele>289.974853515625</ele>
        <time>2011-04-24T15:57:53Z</time>
      </trkpt>
      <trkpt lat="34.049953278154135" lon="-5.343752531334758">
        <ele>288.532958984375</ele>
        <time>2011-04-24T15:57:58Z</time>
      </trkpt>
      <trkpt lat="34.050717288628221" lon="-5.344207920134068">
        <ele>285.6488037109375</ele>
        <time>2011-04-24T15:58:04Z</time>
      </trkpt>
      <trkpt lat="34.051187764853239" lon="-5.344928177073598">
        <ele>283.7261962890625</ele>
        <time>2011-04-24T15:58:09Z</time>
      </trkpt>
      <trkpt lat="34.05134366825223" lon="-5.345817161723971">
        <ele>278.919677734375</ele>
        <time>2011-04-24T15:58:14Z</time>
      </trkpt>
      <trkpt lat="34.051316678524017" lon="-5.347634274512529">
        <ele>268.8258056640625</ele>
        <time>2011-04-24T15:58:22Z</time>
      </trkpt>
      <trkpt lat="34.051360348239541" lon="-5.349695887416601">
        <ele>261.615966796875</ele>
        <time>2011-04-24T15:58:30Z</time>
      </trkpt>
      <trkpt lat="34.051861586049199" lon="-5.350667098537087">
        <ele>265.94189453125</ele>
        <time>2011-04-24T15:58:35Z</time>
      </trkpt>
      <trkpt lat="34.052515123039484" lon="-5.351048894226551">
        <ele>266.4224853515625</ele>
        <time>2011-04-24T15:58:39Z</time>
      </trkpt>
      <trkpt lat="34.052705224603415" lon="-5.351091725751758">
        <ele>265.94189453125</ele>
        <time>2011-04-24T15:58:40Z</time>
      </trkpt>
      <trkpt lat="34.054623423144221" lon="-5.351327089592814">
        <ele>258.2513427734375</ele>
        <time>2011-04-24T15:58:49Z</time>
      </trkpt>
      <trkpt lat="34.056346490979195" lon="-5.351784825325012">
        <ele>252.9639892578125</ele>
        <time>2011-04-24T15:58:57Z</time>
      </trkpt>
      <trkpt lat="34.057578044012189" lon="-5.352552188560367">
        <ele>244.312255859375</ele>
        <time>2011-04-24T15:59:03Z</time>
      </trkpt>
      <trkpt lat="34.058817392215133" lon="-5.35344167612493">
        <ele>239.9862060546875</ele>
        <time>2011-04-24T15:59:09Z</time>
      </trkpt>
      <trkpt lat="34.059318378567696" lon="-5.354449935257435">
        <ele>240.9476318359375</ele>
        <time>2011-04-24T15:59:14Z</time>
      </trkpt>
      <trkpt lat="34.059406388550997" lon="-5.354914292693138">
        <ele>240.467041015625</ele>
        <time>2011-04-24T15:59:16Z</time>
      </trkpt>
      <trkpt lat="34.059486268088222" lon="-5.355614516884089">
        <ele>237.5828857421875</ele>
        <time>2011-04-24T15:59:19Z</time>
      </trkpt>
      <trkpt lat="34.059883737936616" lon="-5.356582039967179">
        <ele>231.81494140625</ele>
        <time>2011-04-24T15:59:24Z</time>
      </trkpt>
      <trkpt lat="34.060593266040087" lon="-5.356867359951139">
        <ele>231.3343505859375</ele>
        <time>2011-04-24T15:59:27Z</time>
      </trkpt>
      <trkpt lat="34.061422571539879" lon="-5.356880351901054">
        <ele>238.5443115234375</ele>
        <time>2011-04-24T15:59:31Z</time>
      </trkpt>
      <trkpt lat="34.061878966167569" lon="-5.356646999716759">
        <ele>242.8702392578125</ele>
        <time>2011-04-24T15:59:34Z</time>
      </trkpt>
      <trkpt lat="34.062645994126797" lon="-5.356109132990241">
        <ele>248.63818359375</ele>
        <time>2011-04-24T15:59:41Z</time>
      </trkpt>
      <trkpt lat="34.063508240506053" lon="-5.355493146926165">
        <ele>249.5994873046875</ele>
        <time>2011-04-24T15:59:47Z</time>
      </trkpt>
      <trkpt lat="34.064358584582806" lon="-5.355334561318159">
        <ele>249.5994873046875</ele>
        <time>2011-04-24T15:59:52Z</time>
      </trkpt>
      <trkpt lat="34.064980940893292" lon="-5.355662126094103">
        <ele>247.196044921875</ele>
        <time>2011-04-24T15:59:56Z</time>
      </trkpt>
      <trkpt lat="34.065416464582086" lon="-5.356306778267026">
        <ele>241.908935546875</ele>
        <time>2011-04-24T16:00:00Z</time>
      </trkpt>
      <trkpt lat="34.065516963601112" lon="-5.356709277257323">
        <ele>238.5443115234375</ele>
        <time>2011-04-24T16:00:02Z</time>
      </trkpt>
      <trkpt lat="34.065766073763371" lon="-5.357927419245243">
        <ele>230.373046875</ele>
        <time>2011-04-24T16:00:08Z</time>
      </trkpt>
      <trkpt lat="34.066336043179035" lon="-5.358781786635518">
        <ele>224.12451171875</ele>
        <time>2011-04-24T16:00:13Z</time>
      </trkpt>
      <trkpt lat="34.066679617390037" lon="-5.359001141041517">
        <ele>222.6824951171875</ele>
        <time>2011-04-24T16:00:15Z</time>
      </trkpt>
      <trkpt lat="34.068032037466764" lon="-5.359742771834135">
        <ele>220.7598876953125</ele>
        <time>2011-04-24T16:00:22Z</time>
      </trkpt>
      <trkpt lat="34.068768722936511" lon="-5.360535867512226">
        <ele>223.643798828125</ele>
        <time>2011-04-24T16:00:27Z</time>
      </trkpt>
      <trkpt lat="34.068991346284747" lon="-5.3611727245152">
        <ele>225.0859375</ele>
        <time>2011-04-24T16:00:30Z</time>
      </trkpt>
      <trkpt lat="34.069461319595575" lon="-5.363331818953157">
        <ele>231.3343505859375</ele>
        <time>2011-04-24T16:00:39Z</time>
      </trkpt>
      <trkpt lat="34.070213343948126" lon="-5.364604694768786">
        <ele>237.102294921875</ele>
        <time>2011-04-24T16:00:45Z</time>
      </trkpt>
      <trkpt lat="34.071049438789487" lon="-5.365230068564415">
        <ele>242.3896484375</ele>
        <time>2011-04-24T16:00:50Z</time>
      </trkpt>
      <trkpt lat="34.071606835350394" lon="-5.365512957796454">
        <ele>244.7928466796875</ele>
        <time>2011-04-24T16:00:53Z</time>
      </trkpt>
      <trkpt lat="34.072328181937337" lon="-5.366251822561026">
        <ele>249.1187744140625</ele>
        <time>2011-04-24T16:00:58Z</time>
      </trkpt>
      <trkpt lat="34.072513086721301" lon="-5.366683742031455">
        <ele>250.560791015625</ele>
        <time>2011-04-24T16:01:00Z</time>
      </trkpt>
      <trkpt lat="34.073054725304246" lon="-5.36806876771152">
        <ele>256.3287353515625</ele>
        <time>2011-04-24T16:01:06Z</time>
      </trkpt>
      <trkpt lat="34.073828877881169" lon="-5.368945179507136">
        <ele>261.615966796875</ele>
        <time>2011-04-24T16:01:11Z</time>
      </trkpt>
      <trkpt lat="34.075495954602957" lon="-5.370305143296719">
        <ele>268.8258056640625</ele>
        <time>2011-04-24T16:01:20Z</time>
      </trkpt>
      <trkpt lat="34.076602784916759" lon="-5.371383391320705">
        <ele>271.709716796875</ele>
        <time>2011-04-24T16:01:26Z</time>
      </trkpt>
      <trkpt lat="34.077572822570801" lon="-5.372805967926979">
        <ele>274.59375</ele>
        <time>2011-04-24T16:01:32Z</time>
      </trkpt>
      <trkpt lat="34.078889451920986" lon="-5.37496036849916">
        <ele>281.8035888671875</ele>
        <time>2011-04-24T16:01:41Z</time>
      </trkpt>
      <trkpt lat="34.079299243167043" lon="-5.376165183261037">
        <ele>286.1295166015625</ele>
        <time>2011-04-24T16:01:46Z</time>
      </trkpt>
      <trkpt lat="34.079605853185058" lon="-5.377345271408558">
        <ele>289.494140625</ele>
        <time>2011-04-24T16:01:51Z</time>
      </trkpt>
      <trkpt lat="34.080247320234776" lon="-5.378057230263948">
        <ele>293.820068359375</ele>
        <time>2011-04-24T16:01:56Z</time>
      </trkpt>
      <trkpt lat="34.08097805455327" lon="-5.378125878050923">
        <ele>298.1461181640625</ele>
        <time>2011-04-24T16:02:00Z</time>
      </trkpt>
      <trkpt lat="34.081165390089154" lon="-5.378086231648922">
        <ele>299.5880126953125</ele>
        <time>2011-04-24T16:02:01Z</time>
      </trkpt>
      <trkpt lat="34.082226455211639" lon="-5.37758625112474">
        <ele>307.75927734375</ele>
        <time>2011-04-24T16:02:07Z</time>
      </trkpt>
      <trkpt lat="34.082856439054012" lon="-5.377145865932107">
        <ele>313.5272216796875</ele>
        <time>2011-04-24T16:02:11Z</time>
      </trkpt>
      <trkpt lat="34.083230942487717" lon="-5.376265933737159">
        <ele>320.737060546875</ele>
        <time>2011-04-24T16:02:16Z</time>
      </trkpt>
      <trkpt lat="34.083255836740136" lon="-5.375877767801285">
        <ele>323.6209716796875</ele>
        <time>2011-04-24T16:02:18Z</time>
      </trkpt>
      <trkpt lat="34.083251394331455" lon="-5.374841848388314">
        <ele>330.3502197265625</ele>
        <time>2011-04-24T16:02:25Z</time>
      </trkpt>
      <trkpt lat="34.083426659926772" lon="-5.373828560113907">
        <ele>331.7921142578125</ele>
        <time>2011-04-24T16:02:33Z</time>
      </trkpt>
      <trkpt lat="34.084023786708713" lon="-5.372992549091578">
        <ele>326.985595703125</ele>
        <time>2011-04-24T16:02:40Z</time>
      </trkpt>
      <trkpt lat="34.084871197119355" lon="-5.372316129505634">
        <ele>318.3336181640625</ele>
        <time>2011-04-24T16:02:45Z</time>
      </trkpt>
      <trkpt lat="34.086732231080532" lon="-5.370950046926737">
        <ele>306.7978515625</ele>
        <time>2011-04-24T16:02:54Z</time>
      </trkpt>
      <trkpt lat="34.087550388649106" lon="-5.369888730347157">
        <ele>301.9913330078125</ele>
        <time>2011-04-24T16:02:59Z</time>
      </trkpt>
      <trkpt lat="34.088561665266752" lon="-5.367824183776975">
        <ele>298.626708984375</ele>
        <time>2011-04-24T16:03:07Z</time>
      </trkpt>
      <trkpt lat="34.089208664372563" lon="-5.366761023178697">
        <ele>298.1461181640625</ele>
        <time>2011-04-24T16:03:12Z</time>
      </trkpt>
      <trkpt lat="34.089771173894405" lon="-5.366534879431129">
        <ele>297.1846923828125</ele>
        <time>2011-04-24T16:03:16Z</time>
      </trkpt>
      <trkpt lat="34.089926155284047" lon="-5.366554576903582">
        <ele>296.2235107421875</ele>
        <time>2011-04-24T16:03:17Z</time>
      </trkpt>
      <trkpt lat="34.090417167171836" lon="-5.36667225882411">
        <ele>293.33935546875</ele>
        <time>2011-04-24T16:03:20Z</time>
      </trkpt>
      <trkpt lat="34.090940030291677" lon="-5.367307271808386">
        <ele>288.05224609375</ele>
        <time>2011-04-24T16:03:25Z</time>
      </trkpt>
      <trkpt lat="34.091002978384495" lon="-5.367501396685839">
        <ele>286.6102294921875</ele>
        <time>2011-04-24T16:03:26Z</time>
      </trkpt>
      <trkpt lat="34.091689037159085" lon="-5.369192445650697">
        <ele>275.074462890625</ele>
        <time>2011-04-24T16:03:34Z</time>
      </trkpt>
      <trkpt lat="34.092501243576407" lon="-5.369880348443985">
        <ele>268.3450927734375</ele>
        <time>2011-04-24T16:03:39Z</time>
      </trkpt>
      <trkpt lat="34.09290642477572" lon="-5.369981853291392">
        <ele>264.9805908203125</ele>
        <time>2011-04-24T16:03:41Z</time>
      </trkpt>
      <trkpt lat="34.095519483089447" lon="-5.370332971215248">
        <ele>255.3673095703125</ele>
        <time>2011-04-24T16:03:53Z</time>
      </trkpt>
      <trkpt lat="34.096670486032963" lon="-5.370293995365501">
        <ele>248.1575927734375</ele>
        <time>2011-04-24T16:03:58Z</time>
      </trkpt>
      <trkpt lat="34.097824674099684" lon="-5.36989719606936">
        <ele>244.7928466796875</ele>
        <time>2011-04-24T16:04:03Z</time>
      </trkpt>
      <trkpt lat="34.099422935396433" lon="-5.369333932176232">
        <ele>245.2734375</ele>
        <time>2011-04-24T16:04:10Z</time>
      </trkpt>
      <trkpt lat="34.100430943071842" lon="-5.369483884423971">
        <ele>246.23486328125</ele>
        <time>2011-04-24T16:04:15Z</time>
      </trkpt>
      <trkpt lat="34.101053131744266" lon="-5.370048573240638">
        <ele>247.6767578125</ele>
        <time>2011-04-24T16:04:19Z</time>
      </trkpt>
      <trkpt lat="34.101170729845762" lon="-5.370240518823266">
        <ele>248.1575927734375</ele>
        <time>2011-04-24T16:04:20Z</time>
      </trkpt>
      <trkpt lat="34.10202719271183" lon="-5.372082442045212">
        <ele>254.406005859375</ele>
        <time>2011-04-24T16:04:28Z</time>
      </trkpt>
      <trkpt lat="34.103017933666706" lon="-5.374465165659785">
        <ele>263.53857421875</ele>
        <time>2011-04-24T16:04:37Z</time>
      </trkpt>
      <trkpt lat="34.103967351838946" lon="-5.377204036340118">
        <ele>274.59375</ele>
        <time>2011-04-24T16:04:47Z</time>
      </trkpt>
      <trkpt lat="34.104732284322381" lon="-5.380079951137304">
        <ele>278.919677734375</ele>
        <time>2011-04-24T16:04:57Z</time>
      </trkpt>
      <trkpt lat="34.10537819378078" lon="-5.382724022492766">
        <ele>284.6876220703125</ele>
        <time>2011-04-24T16:05:06Z</time>
      </trkpt>
      <trkpt lat="34.105201922357082" lon="-5.384079962968826">
        <ele>287.5714111328125</ele>
        <time>2011-04-24T16:05:11Z</time>
      </trkpt>
      <trkpt lat="34.104234566912055" lon="-5.386907430365682">
        <ele>296.2235107421875</ele>
        <time>2011-04-24T16:05:21Z</time>
      </trkpt>
      <trkpt lat="34.103730730712414" lon="-5.388789921998978">
        <ele>301.9913330078125</ele>
        <time>2011-04-24T16:05:28Z</time>
      </trkpt>
      <trkpt lat="34.103729221969843" lon="-5.389341032132506">
        <ele>302.471923828125</ele>
        <time>2011-04-24T16:05:30Z</time>
      </trkpt>
      <trkpt lat="34.104119231924415" lon="-5.390578117221594">
        <ele>303.9139404296875</ele>
        <time>2011-04-24T16:05:35Z</time>
      </trkpt>
      <trkpt lat="34.104434978216887" lon="-5.390977934002876">
        <ele>305.35595703125</ele>
        <time>2011-04-24T16:05:37Z</time>
      </trkpt>
      <trkpt lat="34.106281762942672" lon="-5.393025381490588">
        <ele>317.85302734375</ele>
        <time>2011-04-24T16:05:48Z</time>
      </trkpt>
      <trkpt lat="34.107392281293869" lon="-5.394829837605357">
        <ele>327.4661865234375</ele>
        <time>2011-04-24T16:05:57Z</time>
      </trkpt>
      <trkpt lat="34.109527487307787" lon="-5.398506643250585">
        <ele>339.96337890625</ele>
        <time>2011-04-24T16:06:15Z</time>
      </trkpt>
      <trkpt lat="34.111695047467947" lon="-5.40222636424005">
        <ele>352.941162109375</ele>
        <time>2011-04-24T16:06:32Z</time>
      </trkpt>
      <trkpt lat="34.113298170268536" lon="-5.404990464448929">
        <ele>359.189697265625</ele>
        <time>2011-04-24T16:06:44Z</time>
      </trkpt>
      <trkpt lat="34.114530896767974" lon="-5.407362040132284">
        <ele>366.3995361328125</ele>
        <time>2011-04-24T16:06:54Z</time>
      </trkpt>
      <trkpt lat="34.115144619718194" lon="-5.409255679696798">
        <ele>359.189697265625</ele>
        <time>2011-04-24T16:07:01Z</time>
      </trkpt>
      <trkpt lat="34.11584509536624" lon="-5.411927159875631">
        <ele>344.77001953125</ele>
        <time>2011-04-24T16:07:10Z</time>
      </trkpt>
      <trkpt lat="34.116375083103776" lon="-5.412940699607134">
        <ele>339.0020751953125</ele>
        <time>2011-04-24T16:07:14Z</time>
      </trkpt>
      <trkpt lat="34.117176393046975" lon="-5.414096899330616">
        <ele>332.2728271484375</ele>
        <time>2011-04-24T16:07:19Z</time>
      </trkpt>
      <trkpt lat="34.117630692198873" lon="-5.415469687432051">
        <ele>323.6209716796875</ele>
        <time>2011-04-24T16:07:24Z</time>
      </trkpt>
      <trkpt lat="34.118274170905352" lon="-5.417783847078681">
        <ele>314.4884033203125</ele>
        <time>2011-04-24T16:07:32Z</time>
      </trkpt>
      <trkpt lat="34.119131220504642" lon="-5.419340282678604">
        <ele>313.5272216796875</ele>
        <time>2011-04-24T16:07:38Z</time>
      </trkpt>
      <trkpt lat="34.119883663952351" lon="-5.420745424926281">
        <ele>315.930419921875</ele>
        <time>2011-04-24T16:07:44Z</time>
      </trkpt>
      <trkpt lat="34.120282474905252" lon="-5.42170062661171">
        <ele>314.4884033203125</ele>
        <time>2011-04-24T16:07:49Z</time>
      </trkpt>
      <trkpt lat="34.120817827060819" lon="-5.423163520172238">
        <ele>309.201171875</ele>
        <time>2011-04-24T16:07:58Z</time>
      </trkpt>
      <trkpt lat="34.121387964114547" lon="-5.424720123410225">
        <ele>304.875244140625</ele>
        <time>2011-04-24T16:08:07Z</time>
      </trkpt>
      <trkpt lat="34.12211375311017" lon="-5.42668073438108">
        <ele>299.1072998046875</ele>
        <time>2011-04-24T16:08:19Z</time>
      </trkpt>
      <trkpt lat="34.122779443860054" lon="-5.42853556573391">
        <ele>296.2235107421875</ele>
        <time>2011-04-24T16:08:31Z</time>
      </trkpt>
      <trkpt lat="34.123039785772562" lon="-5.42998094111681">
        <ele>301.9913330078125</ele>
        <time>2011-04-24T16:08:39Z</time>
      </trkpt>
      <trkpt lat="34.123274395242333" lon="-5.431080898270011">
        <ele>304.875244140625</ele>
        <time>2011-04-24T16:08:47Z</time>
      </trkpt>
      <trkpt lat="34.123507663607597" lon="-5.431717336177826">
        <ele>303.9139404296875</ele>
        <time>2011-04-24T16:08:54Z</time>
      </trkpt>
      <trkpt lat="34.123897925019264" lon="-5.432548569515348">
        <ele>302.9525146484375</ele>
        <time>2011-04-24T16:09:01Z</time>
      </trkpt>
      <trkpt lat="34.12446353584528" lon="-5.433534448966384">
        <ele>305.35595703125</ele>
        <time>2011-04-24T16:09:07Z</time>
      </trkpt>
      <trkpt lat="34.125660052523017" lon="-5.435592541471124">
        <ele>315.4498291015625</ele>
        <time>2011-04-24T16:09:18Z</time>
      </trkpt>
      <trkpt lat="34.127003252506256" lon="-5.437837550416589">
        <ele>316.4110107421875</ele>
        <time>2011-04-24T16:09:30Z</time>
      </trkpt>
      <trkpt lat="34.128390038385987" lon="-5.439689448103309">
        <ele>318.8143310546875</ele>
        <time>2011-04-24T16:09:40Z</time>
      </trkpt>
      <trkpt lat="34.129935242235661" lon="-5.441606137901545">
        <ele>318.3336181640625</ele>
        <time>2011-04-24T16:09:51Z</time>
      </trkpt>
      <trkpt lat="34.131865091621876" lon="-5.443998835980892">
        <ele>308.2398681640625</ele>
        <time>2011-04-24T16:10:04Z</time>
      </trkpt>
      <trkpt lat="34.134195260703564" lon="-5.446881540119648">
        <ele>295.74267578125</ele>
        <time>2011-04-24T16:10:19Z</time>
      </trkpt>
      <trkpt lat="34.1361896507442" lon="-5.449293097481132">
        <ele>282.2843017578125</ele>
        <time>2011-04-24T16:10:32Z</time>
      </trkpt>
      <trkpt lat="34.138359557837248" lon="-5.45198536477983">
        <ele>272.1904296875</ele>
        <time>2011-04-24T16:10:46Z</time>
      </trkpt>
      <trkpt lat="34.140757033601403" lon="-5.454970495775342">
        <ele>260.654541015625</ele>
        <time>2011-04-24T16:11:01Z</time>
      </trkpt>
      <trkpt lat="34.142432576045394" lon="-5.457054320722818">
        <ele>253.4447021484375</ele>
        <time>2011-04-24T16:11:12Z</time>
      </trkpt>
      <trkpt lat="34.143744762986898" lon="-5.458698179572821">
        <ele>246.7154541015625</ele>
        <time>2011-04-24T16:11:22Z</time>
      </trkpt>
      <trkpt lat="34.144746651872993" lon="-5.459975162521005">
        <ele>241.42822265625</ele>
        <time>2011-04-24T16:11:29Z</time>
      </trkpt>
      <trkpt lat="34.146217089146376" lon="-5.461769476532936">
        <ele>234.2183837890625</ele>
        <time>2011-04-24T16:11:39Z</time>
      </trkpt>
      <trkpt lat="34.147773273289204" lon="-5.46349061653018">
        <ele>229.4117431640625</ele>
        <time>2011-04-24T16:11:49Z</time>
      </trkpt>
      <trkpt lat="34.149000132456422" lon="-5.464459899812937">
        <ele>229.4117431640625</ele>
        <time>2011-04-24T16:11:56Z</time>
      </trkpt>
      <trkpt lat="34.150595963001251" lon="-5.465298257768154">
        <ele>228.93115234375</ele>
        <time>2011-04-24T16:12:04Z</time>
      </trkpt>
      <trkpt lat="34.152880283072591" lon="-5.466379020363092">
        <ele>228.450439453125</ele>
        <time>2011-04-24T16:12:14Z</time>
      </trkpt>
      <trkpt lat="34.156189793720841" lon="-5.467937886714935">
        <ele>224.605224609375</ele>
        <time>2011-04-24T16:12:28Z</time>
      </trkpt>
      <trkpt lat="34.159376341849566" lon="-5.4694455396384">
        <ele>216.4339599609375</ele>
        <time>2011-04-24T16:12:41Z</time>
      </trkpt>
      <trkpt lat="34.162424337118864" lon="-5.470877252519131">
        <ele>203.9368896484375</ele>
        <time>2011-04-24T16:12:54Z</time>
      </trkpt>
      <trkpt lat="34.1655308380723" lon="-5.472341068089008">
        <ele>183.7490234375</ele>
        <time>2011-04-24T16:13:07Z</time>
      </trkpt>
      <trkpt lat="34.168648319318891" lon="-5.473791137337685">
        <ele>169.3294677734375</ele>
        <time>2011-04-24T16:13:19Z</time>
      </trkpt>
      <trkpt lat="34.170911349356174" lon="-5.474857985973358">
        <ele>164.0421142578125</ele>
        <time>2011-04-24T16:13:28Z</time>
      </trkpt>
      <trkpt lat="34.17346028611064" lon="-5.476081743836403">
        <ele>160.677490234375</ele>
        <time>2011-04-24T16:13:39Z</time>
      </trkpt>
      <trkpt lat="34.175683418288827" lon="-5.477171475067735">
        <ele>156.3515625</ele>
        <time>2011-04-24T16:13:49Z</time>
      </trkpt>
      <trkpt lat="34.177979556843638" lon="-5.478458097204566">
        <ele>152.50634765625</ele>
        <time>2011-04-24T16:13:59Z</time>
      </trkpt>
      <trkpt lat="34.181160572916269" lon="-5.480249393731356">
        <ele>145.777099609375</ele>
        <time>2011-04-24T16:14:13Z</time>
      </trkpt>
      <trkpt lat="34.183650752529502" lon="-5.481635676696897">
        <ele>140.4898681640625</ele>
        <time>2011-04-24T16:14:24Z</time>
      </trkpt>
      <trkpt lat="34.186483835801482" lon="-5.483227064833045">
        <ele>137.125244140625</ele>
        <time>2011-04-24T16:14:36Z</time>
      </trkpt>
      <trkpt lat="34.189531160518527" lon="-5.484925489872694">
        <ele>133.760498046875</ele>
        <time>2011-04-24T16:14:49Z</time>
      </trkpt>
      <trkpt lat="34.192152265459299" lon="-5.48638679087162">
        <ele>129.915283203125</ele>
        <time>2011-04-24T16:15:01Z</time>
      </trkpt>
      <trkpt lat="34.194349749013782" lon="-5.487525891512632">
        <ele>120.7828369140625</ele>
        <time>2011-04-24T16:15:11Z</time>
      </trkpt>
      <trkpt lat="34.196160994470119" lon="-5.48812435939908">
        <ele>114.5341796875</ele>
        <time>2011-04-24T16:15:18Z</time>
      </trkpt>
      <trkpt lat="34.197969641536474" lon="-5.488412864506245">
        <ele>112.1309814453125</ele>
        <time>2011-04-24T16:15:25Z</time>
      </trkpt>
      <trkpt lat="34.199944334104657" lon="-5.48839358612895">
        <ele>110.6888427734375</ele>
        <time>2011-04-24T16:15:33Z</time>
      </trkpt>
      <trkpt lat="34.201915925368667" lon="-5.488008353859186">
        <ele>107.3243408203125</ele>
        <time>2011-04-24T16:15:41Z</time>
      </trkpt>
      <trkpt lat="34.203830268234015" lon="-5.487270578742027">
        <ele>104.9210205078125</ele>
        <time>2011-04-24T16:15:49Z</time>
      </trkpt>
      <trkpt lat="34.206164292991161" lon="-5.485958224162459">
        <ele>102.037109375</ele>
        <time>2011-04-24T16:15:59Z</time>
      </trkpt>
      <trkpt lat="34.208349455147982" lon="-5.484739830717444">
        <ele>99.153076171875</ele>
        <time>2011-04-24T16:16:09Z</time>
      </trkpt>
      <trkpt lat="34.21093619428575" lon="-5.483305351808667">
        <ele>96.269287109375</ele>
        <time>2011-04-24T16:16:21Z</time>
      </trkpt>
      <trkpt lat="34.214171357452869" lon="-5.481507936492562">
        <ele>92.904541015625</ele>
        <time>2011-04-24T16:16:35Z</time>
      </trkpt>
      <trkpt lat="34.217010894790292" lon="-5.479928869754076">
        <ele>89.5399169921875</ele>
        <time>2011-04-24T16:16:48Z</time>
      </trkpt>
      <trkpt lat="34.219450950622559" lon="-5.47857167199254">
        <ele>86.656005859375</ele>
        <time>2011-04-24T16:16:59Z</time>
      </trkpt>
      <trkpt lat="34.222180098295212" lon="-5.477062342688441">
        <ele>83.2913818359375</ele>
        <time>2011-04-24T16:17:11Z</time>
      </trkpt>
      <trkpt lat="34.223252478986979" lon="-5.476464126259089">
        <ele>82.810791015625</ele>
        <time>2011-04-24T16:17:17Z</time>
      </trkpt>
      <trkpt lat="34.224983341991901" lon="-5.475531639531255">
        <ele>80.88818359375</ele>
        <time>2011-04-24T16:17:29Z</time>
      </trkpt>
      <trkpt lat="34.226417737081647" lon="-5.474716164171696">
        <ele>80.407470703125</ele>
        <time>2011-04-24T16:17:38Z</time>
      </trkpt>
      <trkpt lat="34.227909296751022" lon="-5.473891384899616">
        <ele>78.9654541015625</ele>
        <time>2011-04-24T16:17:46Z</time>
      </trkpt>
      <trkpt lat="34.2302814591676" lon="-5.472567966207862">
        <ele>79.446044921875</ele>
        <time>2011-04-24T16:17:58Z</time>
      </trkpt>
      <trkpt lat="34.233012367039919" lon="-5.471042459830642">
        <ele>79.446044921875</ele>
        <time>2011-04-24T16:18:12Z</time>
      </trkpt>
      <trkpt lat="34.235862381756306" lon="-5.469463896006346">
        <ele>75.600830078125</ele>
        <time>2011-04-24T16:18:26Z</time>
      </trkpt>
      <trkpt lat="34.238496981561184" lon="-5.468176268041134">
        <ele>68.390869140625</ele>
        <time>2011-04-24T16:18:38Z</time>
      </trkpt>
      <trkpt lat="34.240527246147394" lon="-5.467532621696591">
        <ele>65.0263671875</ele>
        <time>2011-04-24T16:18:47Z</time>
      </trkpt>
      <trkpt lat="34.243091773241758" lon="-5.466909930109978">
        <ele>58.297119140625</ele>
        <time>2011-04-24T16:18:58Z</time>
      </trkpt>
      <trkpt lat="34.245944051072001" lon="-5.46620886772871">
        <ele>54.4517822265625</ele>
        <time>2011-04-24T16:19:10Z</time>
      </trkpt>
      <trkpt lat="34.248789874836802" lon="-5.465527670457959">
        <ele>50.6065673828125</ele>
        <time>2011-04-24T16:19:21Z</time>
      </trkpt>
      <trkpt lat="34.251769138500094" lon="-5.464762570336461">
        <ele>47.2418212890625</ele>
        <time>2011-04-24T16:19:32Z</time>
      </trkpt>
      <trkpt lat="34.253738047555089" lon="-5.464270384982228">
        <ele>46.2806396484375</ele>
        <time>2011-04-24T16:19:40Z</time>
      </trkpt>
      <trkpt lat="34.257227098569274" lon="-5.463413586840034">
        <ele>45.3192138671875</ele>
        <time>2011-04-24T16:19:55Z</time>
      </trkpt>
      <trkpt lat="34.260287582874298" lon="-5.462641278281808">
        <ele>42.4354248046875</ele>
        <time>2011-04-24T16:20:08Z</time>
      </trkpt>
      <trkpt lat="34.263732545077801" lon="-5.461790934205055">
        <ele>41.4739990234375</ele>
        <time>2011-04-24T16:20:22Z</time>
      </trkpt>
      <trkpt lat="34.266281649470329" lon="-5.46115742996335">
        <ele>50.6065673828125</ele>
        <time>2011-04-24T16:20:33Z</time>
      </trkpt>
      <trkpt lat="34.268976096063852" lon="-5.460593244060874">
        <ele>63.1036376953125</ele>
        <time>2011-04-24T16:20:45Z</time>
      </trkpt>
      <trkpt lat="34.270783485844731" lon="-5.460610091686249">
        <ele>67.4296875</ele>
        <time>2011-04-24T16:20:53Z</time>
      </trkpt>
      <trkpt lat="34.271956197917461" lon="-5.46051193960011">
        <ele>74.1588134765625</ele>
        <time>2011-04-24T16:20:59Z</time>
      </trkpt>
      <trkpt lat="34.272754574194551" lon="-5.460466090589762">
        <ele>78.0040283203125</ele>
        <time>2011-04-24T16:21:05Z</time>
      </trkpt>
      <trkpt lat="34.274125350639224" lon="-5.460628867149353">
        <ele>81.849365234375</ele>
        <time>2011-04-24T16:21:14Z</time>
      </trkpt>
      <trkpt lat="34.275921424850821" lon="-5.46089549548924">
        <ele>81.849365234375</ele>
        <time>2011-04-24T16:21:25Z</time>
      </trkpt>
      <trkpt lat="34.277385240420699" lon="-5.461119543761015">
        <ele>78.0040283203125</ele>
        <time>2011-04-24T16:21:33Z</time>
      </trkpt>
      <trkpt lat="34.278870597481728" lon="-5.461335126310587">
        <ele>70.3134765625</ele>
        <time>2011-04-24T16:21:40Z</time>
      </trkpt>
      <trkpt lat="34.281152654439211" lon="-5.461654225364327">
        <ele>59.7391357421875</ele>
        <time>2011-04-24T16:21:49Z</time>
      </trkpt>
      <trkpt lat="34.283833773806691" lon="-5.462047755718231">
        <ele>59.2584228515625</ele>
        <time>2011-04-24T16:21:59Z</time>
      </trkpt>
      <trkpt lat="34.286103257909417" lon="-5.462330896407366">
        <ele>65.507080078125</ele>
        <time>2011-04-24T16:22:07Z</time>
      </trkpt>
      <trkpt lat="34.288325384259224" lon="-5.462614372372627">
        <ele>67.9102783203125</ele>
        <time>2011-04-24T16:22:16Z</time>
      </trkpt>
      <trkpt lat="34.291145475581288" lon="-5.463002370670438">
        <ele>67.4296875</ele>
        <time>2011-04-24T16:22:28Z</time>
      </trkpt>
      <trkpt lat="34.29400747641921" lon="-5.463477876037359">
        <ele>65.507080078125</ele>
        <time>2011-04-24T16:22:40Z</time>
      </trkpt>
      <trkpt lat="34.29575577378273" lon="-5.463994452729821">
        <ele>59.7391357421875</ele>
        <time>2011-04-24T16:22:47Z</time>
      </trkpt>
      <trkpt lat="34.297710349783301" lon="-5.46482945792377">
        <ele>64.545654296875</ele>
        <time>2011-04-24T16:22:55Z</time>
      </trkpt>
      <trkpt lat="34.299361752346158" lon="-5.465840483084321">
        <ele>73.67822265625</ele>
        <time>2011-04-24T16:23:03Z</time>
      </trkpt>
      <trkpt lat="34.300998989492655" lon="-5.467023253440857">
        <ele>75.600830078125</ele>
        <time>2011-04-24T16:23:12Z</time>
      </trkpt>
      <trkpt lat="34.30327283218503" lon="-5.468703825026751">
        <ele>68.87158203125</ele>
        <time>2011-04-24T16:23:24Z</time>
      </trkpt>
      <trkpt lat="34.305831659585238" lon="-5.470579024404287">
        <ele>67.4296875</ele>
        <time>2011-04-24T16:23:38Z</time>
      </trkpt>
      <trkpt lat="34.308155039325356" lon="-5.472284741699696">
        <ele>53.009765625</ele>
        <time>2011-04-24T16:23:51Z</time>
      </trkpt>
      <trkpt lat="34.309864193201065" lon="-5.473535656929016">
        <ele>42.916015625</ele>
        <time>2011-04-24T16:24:00Z</time>
      </trkpt>
      <trkpt lat="34.311551554128528" lon="-5.474779279902577">
        <ele>46.76123046875</ele>
        <time>2011-04-24T16:24:09Z</time>
      </trkpt>
      <trkpt lat="34.312561322003603" lon="-5.475526945665479">
        <ele>53.009765625</ele>
        <time>2011-04-24T16:24:16Z</time>
      </trkpt>
      <trkpt lat="34.314073082059622" lon="-5.476614497601986">
        <ele>52.5291748046875</ele>
        <time>2011-04-24T16:24:28Z</time>
      </trkpt>
      <trkpt lat="34.315422149375081" lon="-5.477587217465043">
        <ele>45.3192138671875</ele>
        <time>2011-04-24T16:24:37Z</time>
      </trkpt>
      <trkpt lat="34.316270397976041" lon="-5.478337146341801">
        <ele>38.109375</ele>
        <time>2011-04-24T16:24:42Z</time>
      </trkpt>
      <trkpt lat="34.317594319581985" lon="-5.479625528678298">
        <ele>28.9769287109375</ele>
        <time>2011-04-24T16:24:49Z</time>
      </trkpt>
      <trkpt lat="34.318897621706128" lon="-5.48126301728189">
        <ele>31.8607177734375</ele>
        <time>2011-04-24T16:24:57Z</time>
      </trkpt>
      <trkpt lat="34.319937564432621" lon="-5.482881730422378">
        <ele>35.7060546875</ele>
        <time>2011-04-24T16:25:05Z</time>
      </trkpt>
      <trkpt lat="34.321155287325382" lon="-5.48492917791009">
        <ele>33.783447265625</ele>
        <time>2011-04-24T16:25:15Z</time>
      </trkpt>
      <trkpt lat="34.322501253336668" lon="-5.487177958711982">
        <ele>38.590087890625</ele>
        <time>2011-04-24T16:25:27Z</time>
      </trkpt>
      <trkpt lat="34.323965236544609" lon="-5.489574428647757">
        <ele>47.7225341796875</ele>
        <time>2011-04-24T16:25:40Z</time>
      </trkpt>
      <trkpt lat="34.325080448761582" lon="-5.49114209599793">
        <ele>52.5291748046875</ele>
        <time>2011-04-24T16:25:48Z</time>
      </trkpt>
      <trkpt lat="34.326046295464039" lon="-5.491890097036958">
        <ele>52.5291748046875</ele>
        <time>2011-04-24T16:25:53Z</time>
      </trkpt>
      <trkpt lat="34.327334426343441" lon="-5.492363842204213">
        <ele>52.5291748046875</ele>
        <time>2011-04-24T16:25:59Z</time>
      </trkpt>
      <trkpt lat="34.328400436788797" lon="-5.492380019277334">
        <ele>55.893798828125</ele>
        <time>2011-04-24T16:26:04Z</time>
      </trkpt>
      <trkpt lat="34.329594522714615" lon="-5.492022028192878">
        <ele>60.7003173828125</ele>
        <time>2011-04-24T16:26:10Z</time>
      </trkpt>
      <trkpt lat="34.331092871725559" lon="-5.49122029915452">
        <ele>62.6229248046875</ele>
        <time>2011-04-24T16:26:18Z</time>
      </trkpt>
      <trkpt lat="34.333267053589225" lon="-5.490078181028366">
        <ele>62.6229248046875</ele>
        <time>2011-04-24T16:26:29Z</time>
      </trkpt>
      <trkpt lat="34.335030354559422" lon="-5.489146281033754">
        <ele>61.1810302734375</ele>
        <time>2011-04-24T16:26:38Z</time>
      </trkpt>
      <trkpt lat="34.337324481457472" lon="-5.487945573404431">
        <ele>56.8551025390625</ele>
        <time>2011-04-24T16:26:50Z</time>
      </trkpt>
      <trkpt lat="34.338896423578262" lon="-5.487103862687945">
        <ele>53.97119140625</ele>
        <time>2011-04-24T16:26:59Z</time>
      </trkpt>
      <trkpt lat="34.340198636054993" lon="-5.486673787236214">
        <ele>50.6065673828125</ele>
        <time>2011-04-24T16:27:06Z</time>
      </trkpt>
      <trkpt lat="34.341385094448924" lon="-5.486777387559414">
        <ele>50.1259765625</ele>
        <time>2011-04-24T16:27:12Z</time>
      </trkpt>
      <trkpt lat="34.343079579994082" lon="-5.48736747354269">
        <ele>51.56787109375</ele>
        <time>2011-04-24T16:27:20Z</time>
      </trkpt>
      <trkpt lat="34.344898872077465" lon="-5.488008018583059">
        <ele>51.56787109375</ele>
        <time>2011-04-24T16:27:29Z</time>
      </trkpt>
      <trkpt lat="34.347119154408574" lon="-5.488798432052136">
        <ele>49.16455078125</ele>
        <time>2011-04-24T16:27:41Z</time>
      </trkpt>
      <trkpt lat="34.349205829203129" lon="-5.489517850801349">
        <ele>50.1259765625</ele>
        <time>2011-04-24T16:27:52Z</time>
      </trkpt>
      <trkpt lat="34.350505359470844" lon="-5.490023950114846">
        <ele>53.009765625</ele>
        <time>2011-04-24T16:28:00Z</time>
      </trkpt>
      <trkpt lat="34.352503521367908" lon="-5.490869181230664">
        <ele>51.56787109375</ele>
        <time>2011-04-24T16:28:13Z</time>
      </trkpt>
      <trkpt lat="34.3546003382653" lon="-5.491773588582873">
        <ele>46.76123046875</ele>
        <time>2011-04-24T16:28:26Z</time>
      </trkpt>
      <trkpt lat="34.35636137612164" lon="-5.492525780573487">
        <ele>42.916015625</ele>
        <time>2011-04-24T16:28:35Z</time>
      </trkpt>
      <trkpt lat="34.358793636783957" lon="-5.49358039163053">
        <ele>40.0321044921875</ele>
        <time>2011-04-24T16:28:46Z</time>
      </trkpt>
      <trkpt lat="34.360810574144125" lon="-5.494439452886581">
        <ele>40.0321044921875</ele>
        <time>2011-04-24T16:28:56Z</time>
      </trkpt>
      <trkpt lat="34.363141916692257" lon="-5.495435893535614">
        <ele>40.0321044921875</ele>
        <time>2011-04-24T16:29:07Z</time>
      </trkpt>
      <trkpt lat="34.366124281659722" lon="-5.496724275872111">
        <ele>42.4354248046875</ele>
        <time>2011-04-24T16:29:20Z</time>
      </trkpt>
      <trkpt lat="34.368224367499352" lon="-5.497625498101115">
        <ele>49.16455078125</ele>
        <time>2011-04-24T16:29:30Z</time>
      </trkpt>
      <trkpt lat="34.370081881061196" lon="-5.498218769207597">
        <ele>49.645263671875</ele>
        <time>2011-04-24T16:29:39Z</time>
      </trkpt>
      <trkpt lat="34.371646782383323" lon="-5.498312562704086">
        <ele>48.6839599609375</ele>
        <time>2011-04-24T16:29:46Z</time>
      </trkpt>
      <trkpt lat="34.373636227101088" lon="-5.498173674568534">
        <ele>46.2806396484375</ele>
        <time>2011-04-24T16:29:55Z</time>
      </trkpt>
      <trkpt lat="34.375700019299984" lon="-5.498029422014952">
        <ele>44.3580322265625</ele>
        <time>2011-04-24T16:30:04Z</time>
      </trkpt>
      <trkpt lat="34.378434363752604" lon="-5.497815348207951">
        <ele>47.2418212890625</ele>
        <time>2011-04-24T16:30:16Z</time>
      </trkpt>
      <trkpt lat="34.379227291792631" lon="-5.497740581631661">
        <ele>48.203369140625</ele>
        <time>2011-04-24T16:30:21Z</time>
      </trkpt>
      <trkpt lat="34.379457123577595" lon="-5.497718621045351">
        <ele>47.2418212890625</ele>
        <time>2011-04-24T16:30:25Z</time>
      </trkpt>
      <trkpt lat="34.379558125510812" lon="-5.497738234698772">
        <ele>47.7225341796875</ele>
        <time>2011-04-24T16:31:51Z</time>
      </trkpt>
      <trkpt lat="34.380133794620633" lon="-5.497704120352864">
        <ele>49.16455078125</ele>
        <time>2011-04-24T16:31:58Z</time>
      </trkpt>
      <trkpt lat="34.381025042384863" lon="-5.497644860297442">
        <ele>50.6065673828125</ele>
        <time>2011-04-24T16:32:05Z</time>
      </trkpt>
      <trkpt lat="34.382185684517026" lon="-5.497561627998948">
        <ele>53.009765625</ele>
        <time>2011-04-24T16:32:12Z</time>
      </trkpt>
      <trkpt lat="34.383989050984383" lon="-5.497430367395282">
        <ele>54.932373046875</ele>
        <time>2011-04-24T16:32:21Z</time>
      </trkpt>
      <trkpt lat="34.386039180681109" lon="-5.497268596664071">
        <ele>54.4517822265625</ele>
        <time>2011-04-24T16:32:30Z</time>
      </trkpt>
      <trkpt lat="34.388386365026236" lon="-5.49720942042768">
        <ele>53.490478515625</ele>
        <time>2011-04-24T16:32:40Z</time>
      </trkpt>
      <trkpt lat="34.389885049313307" lon="-5.497598173096776">
        <ele>57.3358154296875</ele>
        <time>2011-04-24T16:32:46Z</time>
      </trkpt>
      <trkpt lat="34.391762679442763" lon="-5.498319938778877">
        <ele>68.390869140625</ele>
        <time>2011-04-24T16:32:54Z</time>
      </trkpt>
      <trkpt lat="34.392774542793632" lon="-5.498744230717421">
        <ele>72.7169189453125</ele>
        <time>2011-04-24T16:33:00Z</time>
      </trkpt>
      <trkpt lat="34.39392076805234" lon="-5.499219987541437">
        <ele>74.6395263671875</ele>
        <time>2011-04-24T16:33:06Z</time>
      </trkpt>
      <trkpt lat="34.394835736602545" lon="-5.499947369098663">
        <ele>78.9654541015625</ele>
        <time>2011-04-24T16:33:11Z</time>
      </trkpt>
      <trkpt lat="34.395973244681954" lon="-5.501283695921302">
        <ele>87.6171875</ele>
        <time>2011-04-24T16:33:18Z</time>
      </trkpt>
      <trkpt lat="34.397034058347344" lon="-5.502334535121918">
        <ele>90.0206298828125</ele>
        <time>2011-04-24T16:33:24Z</time>
      </trkpt>
      <trkpt lat="34.398140134289861" lon="-5.502893188968301">
        <ele>87.6171875</ele>
        <time>2011-04-24T16:33:29Z</time>
      </trkpt>
      <trkpt lat="34.399904692545533" lon="-5.503353355452418">
        <ele>86.656005859375</ele>
        <time>2011-04-24T16:33:36Z</time>
      </trkpt>
      <trkpt lat="34.402416246011853" lon="-5.504011334851384">
        <ele>95.3077392578125</ele>
        <time>2011-04-24T16:33:46Z</time>
      </trkpt>
      <trkpt lat="34.403824154287577" lon="-5.50417092628777">
        <ele>97.711181640625</ele>
        <time>2011-04-24T16:33:52Z</time>
      </trkpt>
      <trkpt lat="34.405287047848105" lon="-5.503882421180606">
        <ele>96.269287109375</ele>
        <time>2011-04-24T16:33:58Z</time>
      </trkpt>
      <trkpt lat="34.406941467896104" lon="-5.503584528341889">
        <ele>99.153076171875</ele>
        <time>2011-04-24T16:34:05Z</time>
      </trkpt>
      <trkpt lat="34.408107558265328" lon="-5.503766248002648">
        <ele>101.07568359375</ele>
        <time>2011-04-24T16:34:10Z</time>
      </trkpt>
      <trkpt lat="34.409364592283964" lon="-5.504380138590932">
        <ele>101.07568359375</ele>
        <time>2011-04-24T16:34:16Z</time>
      </trkpt>
      <trkpt lat="34.410587679594755" lon="-5.504878778010607">
        <ele>101.556396484375</ele>
        <time>2011-04-24T16:34:22Z</time>
      </trkpt>
      <trkpt lat="34.411738766357303" lon="-5.504955472424626">
        <ele>103.959716796875</ele>
        <time>2011-04-24T16:34:27Z</time>
      </trkpt>
      <trkpt lat="34.41443438641727" lon="-5.504899062216282">
        <ele>108.28564453125</ele>
        <time>2011-04-24T16:34:38Z</time>
      </trkpt>
      <trkpt lat="34.417226649820805" lon="-5.504873916506767">
        <ele>97.23046875</ele>
        <time>2011-04-24T16:34:49Z</time>
      </trkpt>
      <trkpt lat="34.420561725273728" lon="-5.504735363647342">
        <ele>88.5787353515625</ele>
        <time>2011-04-24T16:35:02Z</time>
      </trkpt>
      <trkpt lat="34.423261368647218" lon="-5.504192048683763">
        <ele>88.5787353515625</ele>
        <time>2011-04-24T16:35:13Z</time>
      </trkpt>
      <trkpt lat="34.425669070333242" lon="-5.503755686804652">
        <ele>84.252685546875</ele>
        <time>2011-04-24T16:35:23Z</time>
      </trkpt>
      <trkpt lat="34.427412841469049" lon="-5.50388946197927">
        <ele>75.600830078125</ele>
        <time>2011-04-24T16:35:30Z</time>
      </trkpt>
      <trkpt lat="34.429616276174784" lon="-5.504164472222328">
        <ele>71.7554931640625</ele>
        <time>2011-04-24T16:35:38Z</time>
      </trkpt>
      <trkpt lat="34.431077660992742" lon="-5.504300259053707">
        <ele>71.7554931640625</ele>
        <time>2011-04-24T16:35:44Z</time>
      </trkpt>
      <trkpt lat="34.433210687711835" lon="-5.504539562389255">
        <ele>71.7554931640625</ele>
        <time>2011-04-24T16:35:54Z</time>
      </trkpt>
      <trkpt lat="34.435422169044614" lon="-5.50477484241128">
        <ele>70.794189453125</ele>
        <time>2011-04-24T16:36:04Z</time>
      </trkpt>
      <trkpt lat="34.439206346869469" lon="-5.50519603304565">
        <ele>67.4296875</ele>
        <time>2011-04-24T16:36:20Z</time>
      </trkpt>
      <trkpt lat="34.442309997975826" lon="-5.505540277808905">
        <ele>59.7391357421875</ele>
        <time>2011-04-24T16:36:33Z</time>
      </trkpt>
      <trkpt lat="34.445448517799377" lon="-5.505883935838938">
        <ele>49.16455078125</ele>
        <time>2011-04-24T16:36:47Z</time>
      </trkpt>
      <trkpt lat="34.447845993563533" lon="-5.506147127598524">
        <ele>44.3580322265625</ele>
        <time>2011-04-24T16:36:58Z</time>
      </trkpt>
      <trkpt lat="34.450600957497954" lon="-5.5064229760319">
        <ele>40.993408203125</ele>
        <time>2011-04-24T16:37:11Z</time>
      </trkpt>
      <trkpt lat="34.452989883720875" lon="-5.506746936589479">
        <ele>37.1480712890625</ele>
        <time>2011-04-24T16:37:22Z</time>
      </trkpt>
      <trkpt lat="34.455746943131089" lon="-5.507071232423186">
        <ele>37.1480712890625</ele>
        <time>2011-04-24T16:37:35Z</time>
      </trkpt>
      <trkpt lat="34.458126649260521" lon="-5.507371220737696">
        <ele>36.66748046875</ele>
        <time>2011-04-24T16:37:46Z</time>
      </trkpt>
      <trkpt lat="34.459964884445071" lon="-5.507553359493613">
        <ele>37.1480712890625</ele>
        <time>2011-04-24T16:37:54Z</time>
      </trkpt>
      <trkpt lat="34.4630216807127" lon="-5.507891066372395">
        <ele>38.109375</ele>
        <time>2011-04-24T16:38:07Z</time>
      </trkpt>
      <trkpt lat="34.465373223647475" lon="-5.508144786581397">
        <ele>38.590087890625</ele>
        <time>2011-04-24T16:38:18Z</time>
      </trkpt>
      <trkpt lat="34.467227384448051" lon="-5.508523648604751">
        <ele>33.3028564453125</ele>
        <time>2011-04-24T16:38:27Z</time>
      </trkpt>
      <trkpt lat="34.468449130654335" lon="-5.50921599380672">
        <ele>30.8995361328125</ele>
        <time>2011-04-24T16:38:33Z</time>
      </trkpt>
      <trkpt lat="34.470409825444221" lon="-5.510553997009993">
        <ele>29.9381103515625</ele>
        <time>2011-04-24T16:38:43Z</time>
      </trkpt>
      <trkpt lat="34.471335355192423" lon="-5.511198565363884">
        <ele>30.4188232421875</ele>
        <time>2011-04-24T16:38:49Z</time>
      </trkpt>
      <trkpt lat="34.472370184957981" lon="-5.511887893080711">
        <ele>29.9381103515625</ele>
        <time>2011-04-24T16:38:55Z</time>
      </trkpt>
      <trkpt lat="34.47437304072082" lon="-5.51322078332305">
        <ele>27.534912109375</ele>
        <time>2011-04-24T16:39:05Z</time>
      </trkpt>
      <trkpt lat="34.477078970521688" lon="-5.515063796192408">
        <ele>28.4962158203125</ele>
        <time>2011-04-24T16:39:17Z</time>
      </trkpt>
      <trkpt lat="34.48110337369144" lon="-5.517795374616981">
        <ele>31.380126953125</ele>
        <time>2011-04-24T16:39:34Z</time>
      </trkpt>
      <trkpt lat="34.482711860910058" lon="-5.518656028434634">
        <ele>31.8607177734375</ele>
        <time>2011-04-24T16:39:41Z</time>
      </trkpt>
      <trkpt lat="34.483865881338716" lon="-5.518823666498065">
        <ele>33.783447265625</ele>
        <time>2011-04-24T16:39:46Z</time>
      </trkpt>
      <trkpt lat="34.484955361112952" lon="-5.518648149445653">
        <ele>41.4739990234375</ele>
        <time>2011-04-24T16:39:51Z</time>
      </trkpt>
      <trkpt lat="34.485919699072838" lon="-5.518186390399933">
        <ele>48.6839599609375</ele>
        <time>2011-04-24T16:39:56Z</time>
      </trkpt>
      <trkpt lat="34.486786974593997" lon="-5.517475353553891">
        <ele>54.932373046875</ele>
        <time>2011-04-24T16:40:02Z</time>
      </trkpt>
      <trkpt lat="34.488097568973899" lon="-5.516146486625075">
        <ele>56.37451171875</ele>
        <time>2011-04-24T16:40:13Z</time>
      </trkpt>
      <trkpt lat="34.489454934373498" lon="-5.514741176739335">
        <ele>57.3358154296875</ele>
        <time>2011-04-24T16:40:26Z</time>
      </trkpt>
      <trkpt lat="34.489700691774487" lon="-5.514269359409809">
        <ele>57.3358154296875</ele>
        <time>2011-04-24T16:40:30Z</time>
      </trkpt>
      <trkpt lat="34.489784175530076" lon="-5.513898963108659">
        <ele>57.3358154296875</ele>
        <time>2011-04-24T16:40:33Z</time>
      </trkpt>
      <trkpt lat="34.489774368703365" lon="-5.513451872393489">
        <ele>57.8165283203125</ele>
        <time>2011-04-24T16:40:37Z</time>
      </trkpt>
      <trkpt lat="34.489651322364807" lon="-5.512916352599859">
        <ele>59.2584228515625</ele>
        <time>2011-04-24T16:40:46Z</time>
      </trkpt>
      <trkpt lat="34.489528276026249" lon="-5.512284860014916">
        <ele>60.2197265625</ele>
        <time>2011-04-24T16:40:55Z</time>
      </trkpt>
      <trkpt lat="34.489431632682681" lon="-5.511755291372538">
        <ele>61.6617431640625</ele>
        <time>2011-04-24T16:41:04Z</time>
      </trkpt>
      <trkpt lat="34.489346472546458" lon="-5.511276768520474">
        <ele>62.6229248046875</ele>
        <time>2011-04-24T16:41:12Z</time>
      </trkpt>
      <trkpt lat="34.489256031811237" lon="-5.510846273973584">
        <ele>63.1036376953125</ele>
        <time>2011-04-24T16:41:20Z</time>
      </trkpt>
      <trkpt lat="34.489387795329094" lon="-5.510825486853719">
        <ele>59.2584228515625</ele>
        <time>2011-04-24T16:41:27Z</time>
      </trkpt>
      <trkpt lat="34.489409420639277" lon="-5.51095356233418">
        <ele>59.2584228515625</ele>
        <time>2011-04-24T16:41:29Z</time>
      </trkpt>
      <trkpt lat="34.48957035318017" lon="-5.511943129822612">
        <ele>63.5843505859375</ele>
        <time>2011-04-24T16:41:41Z</time>
      </trkpt>
      <trkpt lat="34.489709660410881" lon="-5.512750893831253">
        <ele>69.352294921875</ele>
        <time>2011-04-24T16:41:52Z</time>
      </trkpt>
      <trkpt lat="34.489841256290674" lon="-5.51337425597012">
        <ele>71.27490234375</ele>
        <time>2011-04-24T16:42:02Z</time>
      </trkpt>
      <trkpt lat="34.489960027858615" lon="-5.513676591217518">
        <ele>71.27490234375</ele>
        <time>2011-04-24T16:42:06Z</time>
      </trkpt>
      <trkpt lat="34.490314163267612" lon="-5.513855628669262">
        <ele>71.27490234375</ele>
        <time>2011-04-24T16:42:12Z</time>
      </trkpt>
      <trkpt lat="34.490446764975786" lon="-5.513797458261251">
        <ele>69.8328857421875</ele>
        <time>2011-04-24T16:42:14Z</time>
      </trkpt>
      <trkpt lat="34.490832919254899" lon="-5.513573745265603">
        <ele>64.0650634765625</ele>
        <time>2011-04-24T16:42:23Z</time>
      </trkpt>
      <trkpt lat="34.491176828742027" lon="-5.513377273455262">
        <ele>61.6617431640625</ele>
        <time>2011-04-24T16:42:32Z</time>
      </trkpt>
      <trkpt lat="34.491907563060522" lon="-5.512921046465635">
        <ele>61.1810302734375</ele>
        <time>2011-04-24T16:42:42Z</time>
      </trkpt>
      <trkpt lat="34.492822447791696" lon="-5.512419724836946">
        <ele>59.2584228515625</ele>
        <time>2011-04-24T16:42:53Z</time>
      </trkpt>
      <trkpt lat="34.493770273402333" lon="-5.512093082070351">
        <ele>56.37451171875</ele>
        <time>2011-04-24T16:43:01Z</time>
      </trkpt>
      <trkpt lat="34.495442463085055" lon="-5.51165672019124">
        <ele>59.7391357421875</ele>
        <time>2011-04-24T16:43:13Z</time>
      </trkpt>
      <trkpt lat="34.496474862098694" lon="-5.511398641392589">
        <ele>64.0650634765625</ele>
        <time>2011-04-24T16:43:21Z</time>
      </trkpt>
      <trkpt lat="34.49789316393435" lon="-5.511029670014978">
        <ele>70.3134765625</ele>
        <time>2011-04-24T16:43:33Z</time>
      </trkpt>
      <trkpt lat="34.499150784686208" lon="-5.510741835460067">
        <ele>78.0040283203125</ele>
        <time>2011-04-24T16:43:42Z</time>
      </trkpt>
      <trkpt lat="34.500477388501167" lon="-5.510171530768275">
        <ele>86.17529296875</ele>
        <time>2011-04-24T16:43:51Z</time>
      </trkpt>
      <trkpt lat="34.50128716416657" lon="-5.509397797286511">
        <ele>92.904541015625</ele>
        <time>2011-04-24T16:43:58Z</time>
      </trkpt>
      <trkpt lat="34.502601530402899" lon="-5.507863154634833">
        <ele>100.5950927734375</ele>
        <time>2011-04-24T16:44:10Z</time>
      </trkpt>
      <trkpt lat="34.503521025180817" lon="-5.507108867168427">
        <ele>104.9210205078125</ele>
        <time>2011-04-24T16:44:17Z</time>
      </trkpt>
      <trkpt lat="34.504891633987427" lon="-5.506571587175131">
        <ele>108.28564453125</ele>
        <time>2011-04-24T16:44:26Z</time>
      </trkpt>
      <trkpt lat="34.506434574723244" lon="-5.506086274981499">
        <ele>111.1695556640625</ele>
        <time>2011-04-24T16:44:36Z</time>
      </trkpt>
      <trkpt lat="34.507616171613336" lon="-5.506045119836927">
        <ele>110.6888427734375</ele>
        <time>2011-04-24T16:44:43Z</time>
      </trkpt>
      <trkpt lat="34.509643418714404" lon="-5.506180319935083">
        <ele>113.09228515625</ele>
        <time>2011-04-24T16:44:55Z</time>
      </trkpt>
      <trkpt lat="34.511672258377075" lon="-5.506308060139418">
        <ele>116.9375</ele>
        <time>2011-04-24T16:45:06Z</time>
      </trkpt>
      <trkpt lat="34.514176351949573" lon="-5.506453150883317">
        <ele>124.6280517578125</ele>
        <time>2011-04-24T16:45:19Z</time>
      </trkpt>
      <trkpt lat="34.515918949618936" lon="-5.506333289667964">
        <ele>129.915283203125</ele>
        <time>2011-04-24T16:45:28Z</time>
      </trkpt>
      <trkpt lat="34.517753999680281" lon="-5.505636334419251">
        <ele>127.511962890625</ele>
        <time>2011-04-24T16:45:38Z</time>
      </trkpt>
      <trkpt lat="34.518891926854849" lon="-5.505392588675022">
        <ele>127.0313720703125</ele>
        <time>2011-04-24T16:45:44Z</time>
      </trkpt>
      <trkpt lat="34.521681591868401" lon="-5.505147920921445">
        <ele>126.0699462890625</ele>
        <time>2011-04-24T16:45:58Z</time>
      </trkpt>
      <trkpt lat="34.523422848433256" lon="-5.505055217072368">
        <ele>126.0699462890625</ele>
        <time>2011-04-24T16:46:07Z</time>
      </trkpt>
      <trkpt lat="34.524345695972443" lon="-5.505275577306747">
        <ele>123.666748046875</ele>
        <time>2011-04-24T16:46:12Z</time>
      </trkpt>
      <trkpt lat="34.525250690057874" lon="-5.505822077393532">
        <ele>119.3408203125</ele>
        <time>2011-04-24T16:46:17Z</time>
      </trkpt>
      <trkpt lat="34.526872839778662" lon="-5.507050361484289">
        <ele>110.6888427734375</ele>
        <time>2011-04-24T16:46:26Z</time>
      </trkpt>
      <trkpt lat="34.528343779966235" lon="-5.507936831563711">
        <ele>102.037109375</ele>
        <time>2011-04-24T16:46:33Z</time>
      </trkpt>
      <trkpt lat="34.53072558157146" lon="-5.509434677660465">
        <ele>93.8658447265625</ele>
        <time>2011-04-24T16:46:45Z</time>
      </trkpt>
      <trkpt lat="34.533198997378349" lon="-5.51098239608109">
        <ele>81.849365234375</ele>
        <time>2011-04-24T16:46:57Z</time>
      </trkpt>
      <trkpt lat="34.534783344715834" lon="-5.512128956615925">
        <ele>79.9266357421875</ele>
        <time>2011-04-24T16:47:05Z</time>
      </trkpt>
      <trkpt lat="34.535513240844011" lon="-5.513193290680647">
        <ele>82.330078125</ele>
        <time>2011-04-24T16:47:10Z</time>
      </trkpt>
      <trkpt lat="34.536626441404223" lon="-5.51555254496634">
        <ele>90.98193359375</ele>
        <time>2011-04-24T16:47:20Z</time>
      </trkpt>
      <trkpt lat="34.53720336779952" lon="-5.51641202531755">
        <ele>91.9432373046875</ele>
        <time>2011-04-24T16:47:25Z</time>
      </trkpt>
      <trkpt lat="34.538499461486936" lon="-5.517904926091433">
        <ele>87.6171875</ele>
        <time>2011-04-24T16:47:34Z</time>
      </trkpt>
      <trkpt lat="34.540237532928586" lon="-5.519755398854613">
        <ele>95.3077392578125</ele>
        <time>2011-04-24T16:47:45Z</time>
      </trkpt>
      <trkpt lat="34.541193321347237" lon="-5.520332828164101">
        <ele>92.4239501953125</ele>
        <time>2011-04-24T16:47:51Z</time>
      </trkpt>
      <trkpt lat="34.542371481657028" lon="-5.520899696275592">
        <ele>91.9432373046875</ele>
        <time>2011-04-24T16:47:59Z</time>
      </trkpt>
      <trkpt lat="34.543718034401536" lon="-5.521253831684589">
        <ele>89.059326171875</ele>
        <time>2011-04-24T16:48:09Z</time>
      </trkpt>
      <trkpt lat="34.544927543029189" lon="-5.521517274901271">
        <ele>84.252685546875</ele>
        <time>2011-04-24T16:48:16Z</time>
      </trkpt>
      <trkpt lat="34.546744236722589" lon="-5.521920695900917">
        <ele>84.252685546875</ele>
        <time>2011-04-24T16:48:25Z</time>
      </trkpt>
      <trkpt lat="34.548226743936539" lon="-5.522606419399381">
        <ele>85.694580078125</ele>
        <time>2011-04-24T16:48:33Z</time>
      </trkpt>
      <trkpt lat="34.550876431167126" lon="-5.523868398740888">
        <ele>91.4625244140625</ele>
        <time>2011-04-24T16:48:47Z</time>
      </trkpt>
      <trkpt lat="34.553681099787354" lon="-5.525183938443661">
        <ele>102.5177001953125</ele>
        <time>2011-04-24T16:49:02Z</time>
      </trkpt>
      <trkpt lat="34.55486579798162" lon="-5.525424163788557">
        <ele>101.556396484375</ele>
        <time>2011-04-24T16:49:08Z</time>
      </trkpt>
      <trkpt lat="34.557394031435251" lon="-5.525800427421928">
        <ele>93.8658447265625</ele>
        <time>2011-04-24T16:49:20Z</time>
      </trkpt>
      <trkpt lat="34.560349574312568" lon="-5.52623737603426">
        <ele>93.3851318359375</ele>
        <time>2011-04-24T16:49:35Z</time>
      </trkpt>
      <trkpt lat="34.562997166067362" lon="-5.526628475636244">
        <ele>89.5399169921875</ele>
        <time>2011-04-24T16:49:48Z</time>
      </trkpt>
      <trkpt lat="34.565634448081255" lon="-5.526992753148079">
        <ele>85.2139892578125</ele>
        <time>2011-04-24T16:50:01Z</time>
      </trkpt>
      <trkpt lat="34.568231999874115" lon="-5.527461133897305">
        <ele>82.330078125</ele>
        <time>2011-04-24T16:50:14Z</time>
      </trkpt>
      <trkpt lat="34.569851467385888" lon="-5.528205363079906">
        <ele>74.6395263671875</ele>
        <time>2011-04-24T16:50:22Z</time>
      </trkpt>
      <trkpt lat="34.571837056428194" lon="-5.529151847586036">
        <ele>64.0650634765625</ele>
        <time>2011-04-24T16:50:32Z</time>
      </trkpt>
      <trkpt lat="34.574382388964295" lon="-5.530424471944571">
        <ele>57.3358154296875</ele>
        <time>2011-04-24T16:50:46Z</time>
      </trkpt>
      <trkpt lat="34.576659165322781" lon="-5.531562231481075">
        <ele>51.087158203125</ele>
        <time>2011-04-24T16:50:58Z</time>
      </trkpt>
      <trkpt lat="34.57953667268157" lon="-5.532980030402541">
        <ele>42.4354248046875</ele>
        <time>2011-04-24T16:51:13Z</time>
      </trkpt>
      <trkpt lat="34.580604275688529" lon="-5.533689977601171">
        <ele>39.0706787109375</ele>
        <time>2011-04-24T16:51:19Z</time>
      </trkpt>
      <trkpt lat="34.581677997484803" lon="-5.534965954720974">
        <ele>34.744873046875</ele>
        <time>2011-04-24T16:51:26Z</time>
      </trkpt>
      <trkpt lat="34.583468539640307" lon="-5.53710107691586">
        <ele>30.4188232421875</ele>
        <time>2011-04-24T16:51:38Z</time>
      </trkpt>
      <trkpt lat="34.584295246750116" lon="-5.537720918655396">
        <ele>28.9769287109375</ele>
        <time>2011-04-24T16:51:43Z</time>
      </trkpt>
      <trkpt lat="34.585264278575778" lon="-5.538014285266399">
        <ele>24.6510009765625</ele>
        <time>2011-04-24T16:51:48Z</time>
      </trkpt>
      <trkpt lat="34.586628349497914" lon="-5.537988133728504">
        <ele>25.1317138671875</ele>
        <time>2011-04-24T16:51:55Z</time>
      </trkpt>
      <trkpt lat="34.588076071813703" lon="-5.538011519238353">
        <ele>23.6895751953125</ele>
        <time>2011-04-24T16:52:02Z</time>
      </trkpt>
      <trkpt lat="34.589127749204636" lon="-5.538419466465712">
        <ele>25.6123046875</ele>
        <time>2011-04-24T16:52:07Z</time>
      </trkpt>
      <trkpt lat="34.590586451813579" lon="-5.539298392832279">
        <ele>30.8995361328125</ele>
        <time>2011-04-24T16:52:15Z</time>
      </trkpt>
      <trkpt lat="34.592530885711312" lon="-5.541063789278269">
        <ele>42.4354248046875</ele>
        <time>2011-04-24T16:52:27Z</time>
      </trkpt>
      <trkpt lat="34.594419160857797" lon="-5.542801776900888">
        <ele>63.5843505859375</ele>
        <time>2011-04-24T16:52:39Z</time>
      </trkpt>
      <trkpt lat="34.59518794901669" lon="-5.543841971084476">
        <ele>74.1588134765625</ele>
        <time>2011-04-24T16:52:45Z</time>
      </trkpt>
      <trkpt lat="34.595665885135531" lon="-5.54514292627573">
        <ele>83.77197265625</ele>
        <time>2011-04-24T16:52:51Z</time>
      </trkpt>
      <trkpt lat="34.595897728577256" lon="-5.546810086816549">
        <ele>103.47900390625</ele>
        <time>2011-04-24T16:52:58Z</time>
      </trkpt>
      <trkpt lat="34.596139043569565" lon="-5.548539943993092">
        <ele>116.9375</ele>
        <time>2011-04-24T16:53:07Z</time>
      </trkpt>
      <trkpt lat="34.596451185643673" lon="-5.550823174417019">
        <ele>131.3572998046875</ele>
        <time>2011-04-24T16:53:20Z</time>
      </trkpt>
      <trkpt lat="34.596682358533144" lon="-5.552310794591904">
        <ele>137.6058349609375</ele>
        <time>2011-04-24T16:53:29Z</time>
      </trkpt>
      <trkpt lat="34.596993327140808" lon="-5.553117552772164">
        <ele>139.5284423828125</ele>
        <time>2011-04-24T16:53:35Z</time>
      </trkpt>
      <trkpt lat="34.597596069797873" lon="-5.553716355934739">
        <ele>138.0865478515625</ele>
        <time>2011-04-24T16:53:41Z</time>
      </trkpt>
      <trkpt lat="34.597859932109714" lon="-5.553856585174799">
        <ele>136.6446533203125</ele>
        <time>2011-04-24T16:53:43Z</time>
      </trkpt>
      <trkpt lat="34.599108751863241" lon="-5.554047860205174">
        <ele>131.3572998046875</ele>
        <time>2011-04-24T16:53:51Z</time>
      </trkpt>
      <trkpt lat="34.599912073463202" lon="-5.554096391424537">
        <ele>126.5506591796875</ele>
        <time>2011-04-24T16:53:56Z</time>
      </trkpt>
      <trkpt lat="34.600857719779015" lon="-5.553721636533737">
        <ele>122.2247314453125</ele>
        <time>2011-04-24T16:54:02Z</time>
      </trkpt>
      <trkpt lat="34.601355185732245" lon="-5.55309827439487">
        <ele>117.8988037109375</ele>
        <time>2011-04-24T16:54:06Z</time>
      </trkpt>
      <trkpt lat="34.601652240380645" lon="-5.552105186507106">
        <ele>114.0535888671875</ele>
        <time>2011-04-24T16:54:11Z</time>
      </trkpt>
      <trkpt lat="34.60170135833323" lon="-5.551096927374601">
        <ele>111.6502685546875</ele>
        <time>2011-04-24T16:54:17Z</time>
      </trkpt>
      <trkpt lat="34.601799175143242" lon="-5.549604194238782">
        <ele>107.3243408203125</ele>
        <time>2011-04-24T16:54:28Z</time>
      </trkpt>
      <trkpt lat="34.601889783516526" lon="-5.54827256128192">
        <ele>106.363037109375</ele>
        <time>2011-04-24T16:54:35Z</time>
      </trkpt>
      <trkpt lat="34.601866817101836" lon="-5.546848643571138">
        <ele>100.114501953125</ele>
        <time>2011-04-24T16:54:43Z</time>
      </trkpt>
      <trkpt lat="34.601889364421368" lon="-5.545481471344829">
        <ele>99.6337890625</ele>
        <time>2011-04-24T16:54:50Z</time>
      </trkpt>
      <trkpt lat="34.601865727454424" lon="-5.543498899787664">
        <ele>102.998291015625</ele>
        <time>2011-04-24T16:54:58Z</time>
      </trkpt>
      <trkpt lat="34.601885424926877" lon="-5.539500564336777">
        <ele>105.4017333984375</ele>
        <time>2011-04-24T16:55:13Z</time>
      </trkpt>
      <trkpt lat="34.602198991924524" lon="-5.53798159584403">
        <ele>102.5177001953125</ele>
        <time>2011-04-24T16:55:19Z</time>
      </trkpt>
      <trkpt lat="34.602981861680746" lon="-5.536471679806709">
        <ele>100.114501953125</ele>
        <time>2011-04-24T16:55:26Z</time>
      </trkpt>
      <trkpt lat="34.603922981768847" lon="-5.535499965772033">
        <ele>97.23046875</ele>
        <time>2011-04-24T16:55:32Z</time>
      </trkpt>
      <trkpt lat="34.605108518153429" lon="-5.534822791814804">
        <ele>93.8658447265625</ele>
        <time>2011-04-24T16:55:38Z</time>
      </trkpt>
      <trkpt lat="34.607497192919254" lon="-5.533839259296656">
        <ele>92.904541015625</ele>
        <time>2011-04-24T16:55:49Z</time>
      </trkpt>
      <trkpt lat="34.609417067840695" lon="-5.533033171668649">
        <ele>98.6724853515625</ele>
        <time>2011-04-24T16:55:59Z</time>
      </trkpt>
      <trkpt lat="34.610642669722438" lon="-5.532701667398214">
        <ele>101.07568359375</ele>
        <time>2011-04-24T16:56:05Z</time>
      </trkpt>
      <trkpt lat="34.613431245088577" lon="-5.532358344644308">
        <ele>102.998291015625</ele>
        <time>2011-04-24T16:56:18Z</time>
      </trkpt>
      <trkpt lat="34.614814091473818" lon="-5.532417437061667">
        <ele>100.5950927734375</ele>
        <time>2011-04-24T16:56:25Z</time>
      </trkpt>
      <trkpt lat="34.615950845181942" lon="-5.532880118116736">
        <ele>96.7498779296875</ele>
        <time>2011-04-24T16:56:31Z</time>
      </trkpt>
      <trkpt lat="34.616958182305098" lon="-5.533658880740404">
        <ele>94.3465576171875</ele>
        <time>2011-04-24T16:56:37Z</time>
      </trkpt>
      <trkpt lat="34.618397857993841" lon="-5.535136694088578">
        <ele>89.5399169921875</ele>
        <time>2011-04-24T16:56:46Z</time>
      </trkpt>
      <trkpt lat="34.619349790737033" lon="-5.535722421482205">
        <ele>86.656005859375</ele>
        <time>2011-04-24T16:56:51Z</time>
      </trkpt>
      <trkpt lat="34.621015693992376" lon="-5.53643798455596">
        <ele>86.17529296875</ele>
        <time>2011-04-24T16:57:00Z</time>
      </trkpt>
      <trkpt lat="34.623238574713469" lon="-5.53739033639431">
        <ele>84.252685546875</ele>
        <time>2011-04-24T16:57:12Z</time>
      </trkpt>
      <trkpt lat="34.625536473467946" lon="-5.538359452039003">
        <ele>84.7333984375</ele>
        <time>2011-04-24T16:57:24Z</time>
      </trkpt>
      <trkpt lat="34.627205561846495" lon="-5.539068644866347">
        <ele>84.252685546875</ele>
        <time>2011-04-24T16:57:33Z</time>
      </trkpt>
      <trkpt lat="34.628177024424076" lon="-5.539242317900062">
        <ele>83.77197265625</ele>
        <time>2011-04-24T16:57:39Z</time>
      </trkpt>
      <trkpt lat="34.628665521740913" lon="-5.539157576858997">
        <ele>84.252685546875</ele>
        <time>2011-04-24T16:57:42Z</time>
      </trkpt>
      <trkpt lat="34.629383683204651" lon="-5.538707133382559">
        <ele>83.77197265625</ele>
        <time>2011-04-24T16:57:48Z</time>
      </trkpt>
      <trkpt lat="34.62998416274786" lon="-5.537876486778259">
        <ele>82.810791015625</ele>
        <time>2011-04-24T16:57:54Z</time>
      </trkpt>
      <trkpt lat="34.63047232478857" lon="-5.536640072241426">
        <ele>81.849365234375</ele>
        <time>2011-04-24T16:58:00Z</time>
      </trkpt>
      <trkpt lat="34.631285034120083" lon="-5.534470081329346">
        <ele>85.2139892578125</ele>
        <time>2011-04-24T16:58:10Z</time>
      </trkpt>
      <trkpt lat="34.631917616352439" lon="-5.53307818248868">
        <ele>92.4239501953125</ele>
        <time>2011-04-24T16:58:17Z</time>
      </trkpt>
      <trkpt lat="34.632766954600811" lon="-5.532283075153828">
        <ele>97.23046875</ele>
        <time>2011-04-24T16:58:23Z</time>
      </trkpt>
      <trkpt lat="34.63365962728858" lon="-5.532058188691735">
        <ele>99.6337890625</ele>
        <time>2011-04-24T16:58:28Z</time>
      </trkpt>
      <trkpt lat="34.63385165669024" lon="-5.532065983861685">
        <ele>100.5950927734375</ele>
        <time>2011-04-24T16:58:29Z</time>
      </trkpt>
      <trkpt lat="34.635699950158596" lon="-5.532403774559498">
        <ele>102.998291015625</ele>
        <time>2011-04-24T16:58:39Z</time>
      </trkpt>
      <trkpt lat="34.636519365012646" lon="-5.532817672938108">
        <ele>105.4017333984375</ele>
        <time>2011-04-24T16:58:44Z</time>
      </trkpt>
      <trkpt lat="34.637136356905103" lon="-5.533572295680642">
        <ele>108.7662353515625</ele>
        <time>2011-04-24T16:58:49Z</time>
      </trkpt>
      <trkpt lat="34.637493845075369" lon="-5.534573346376419">
        <ele>108.7662353515625</ele>
        <time>2011-04-24T16:58:54Z</time>
      </trkpt>
      <trkpt lat="34.637726526707411" lon="-5.536277135834098">
        <ele>106.8436279296875</ele>
        <time>2011-04-24T16:59:01Z</time>
      </trkpt>
      <trkpt lat="34.638231117278337" lon="-5.53899253718555">
        <ele>102.037109375</ele>
        <time>2011-04-24T16:59:12Z</time>
      </trkpt>
      <trkpt lat="34.638468492776155" lon="-5.539709441363812">
        <ele>101.07568359375</ele>
        <time>2011-04-24T16:59:15Z</time>
      </trkpt>
      <trkpt lat="34.639002084732056" lon="-5.540505470708013">
        <ele>99.153076171875</ele>
        <time>2011-04-24T16:59:19Z</time>
      </trkpt>
      <trkpt lat="34.640499595552683" lon="-5.54211194626987">
        <ele>102.5177001953125</ele>
        <time>2011-04-24T16:59:29Z</time>
      </trkpt>
      <trkpt lat="34.641625033691525" lon="-5.543367052450776">
        <ele>103.959716796875</ele>
        <time>2011-04-24T16:59:37Z</time>
      </trkpt>
      <trkpt lat="34.641793258488178" lon="-5.543476939201355">
        <ele>103.959716796875</ele>
        <time>2011-04-24T16:59:38Z</time>
      </trkpt>
      <trkpt lat="34.642725577577949" lon="-5.543723031878471">
        <ele>102.037109375</ele>
        <time>2011-04-24T16:59:43Z</time>
      </trkpt>
      <trkpt lat="34.643517332151532" lon="-5.543569475412369">
        <ele>101.07568359375</ele>
        <time>2011-04-24T16:59:47Z</time>
      </trkpt>
      <trkpt lat="34.645297061651945" lon="-5.543009229004383">
        <ele>96.7498779296875</ele>
        <time>2011-04-24T16:59:56Z</time>
      </trkpt>
      <trkpt lat="34.647419527173042" lon="-5.542767830193043">
        <ele>95.3077392578125</ele>
        <time>2011-04-24T17:00:06Z</time>
      </trkpt>
      <trkpt lat="34.648454524576664" lon="-5.54288886487484">
        <ele>97.711181640625</ele>
        <time>2011-04-24T17:00:11Z</time>
      </trkpt>
      <trkpt lat="34.649668056517839" lon="-5.543323718011379">
        <ele>98.6724853515625</ele>
        <time>2011-04-24T17:00:18Z</time>
      </trkpt>
      <trkpt lat="34.650702970102429" lon="-5.544027546420693">
        <ele>99.6337890625</ele>
        <time>2011-04-24T17:00:25Z</time>
      </trkpt>
      <trkpt lat="34.652027897536755" lon="-5.545011665672064">
        <ele>100.114501953125</ele>
        <time>2011-04-24T17:00:35Z</time>
      </trkpt>
      <trkpt lat="34.653370678424835" lon="-5.545844072476029">
        <ele>97.23046875</ele>
        <time>2011-04-24T17:00:44Z</time>
      </trkpt>
      <trkpt lat="34.655382838100195" lon="-5.546944364905357">
        <ele>92.904541015625</ele>
        <time>2011-04-24T17:00:57Z</time>
      </trkpt>
      <trkpt lat="34.657245380803943" lon="-5.547977266833186">
        <ele>92.904541015625</ele>
        <time>2011-04-24T17:01:09Z</time>
      </trkpt>
      <trkpt lat="34.65914748609066" lon="-5.549050653353334">
        <ele>95.3077392578125</ele>
        <time>2011-04-24T17:01:20Z</time>
      </trkpt>
      <trkpt lat="34.660850772634149" lon="-5.549988253042102">
        <ele>99.153076171875</ele>
        <time>2011-04-24T17:01:30Z</time>
      </trkpt>
      <trkpt lat="34.662697222083807" lon="-5.551029620692134">
        <ele>103.47900390625</ele>
        <time>2011-04-24T17:01:42Z</time>
      </trkpt>
      <trkpt lat="34.664547694846988" lon="-5.552068976685405">
        <ele>107.8050537109375</ele>
        <time>2011-04-24T17:01:54Z</time>
      </trkpt>
      <trkpt lat="34.665484121069312" lon="-5.552572142332792">
        <ele>109.7276611328125</ele>
        <time>2011-04-24T17:02:02Z</time>
      </trkpt>
      <trkpt lat="34.666626155376434" lon="-5.553213022649288">
        <ele>104.9210205078125</ele>
        <time>2011-04-24T17:02:11Z</time>
      </trkpt>
      <trkpt lat="34.667812781408429" lon="-5.553707471117377">
        <ele>99.153076171875</ele>
        <time>2011-04-24T17:02:18Z</time>
      </trkpt>
      <trkpt lat="34.668549299240112" lon="-5.55368953384459">
        <ele>98.6724853515625</ele>
        <time>2011-04-24T17:02:22Z</time>
      </trkpt>
      <trkpt lat="34.670429946854711" lon="-5.553236659616232">
        <ele>98.19189453125</ele>
        <time>2011-04-24T17:02:33Z</time>
      </trkpt>
      <trkpt lat="34.672445375472307" lon="-5.552822090685368">
        <ele>101.556396484375</ele>
        <time>2011-04-24T17:02:44Z</time>
      </trkpt>
      <trkpt lat="34.673626217991114" lon="-5.55269468575716">
        <ele>105.8824462890625</ele>
        <time>2011-04-24T17:02:51Z</time>
      </trkpt>
      <trkpt lat="34.674583347514272" lon="-5.552995763719082">
        <ele>107.8050537109375</ele>
        <time>2011-04-24T17:02:57Z</time>
      </trkpt>
      <trkpt lat="34.675193969160318" lon="-5.553364735096693">
        <ele>108.7662353515625</ele>
        <time>2011-04-24T17:03:01Z</time>
      </trkpt>
      <trkpt lat="34.675925625488162" lon="-5.554131846874952">
        <ele>110.208251953125</ele>
        <time>2011-04-24T17:03:08Z</time>
      </trkpt>
      <trkpt lat="34.676445135846734" lon="-5.554825533181429">
        <ele>111.1695556640625</ele>
        <time>2011-04-24T17:03:15Z</time>
      </trkpt>
      <trkpt lat="34.677129350602627" lon="-5.555790457874537">
        <ele>114.0535888671875</ele>
        <time>2011-04-24T17:03:22Z</time>
      </trkpt>
      <trkpt lat="34.678064351901412" lon="-5.55718612857163">
        <ele>115.49560546875</ele>
        <time>2011-04-24T17:03:30Z</time>
      </trkpt>
      <trkpt lat="34.679015446454287" lon="-5.558404186740518">
        <ele>119.8214111328125</ele>
        <time>2011-04-24T17:03:37Z</time>
      </trkpt>
      <trkpt lat="34.68017466366291" lon="-5.559291997924447">
        <ele>123.666748046875</ele>
        <time>2011-04-24T17:03:44Z</time>
      </trkpt>
      <trkpt lat="34.680777071043849" lon="-5.560210235416889">
        <ele>122.7054443359375</ele>
        <time>2011-04-24T17:03:49Z</time>
      </trkpt>
      <trkpt lat="34.681293647736311" lon="-5.561801958829165">
        <ele>123.1861572265625</ele>
        <time>2011-04-24T17:03:56Z</time>
      </trkpt>
      <trkpt lat="34.681916255503893" lon="-5.563778076320887">
        <ele>126.0699462890625</ele>
        <time>2011-04-24T17:04:05Z</time>
      </trkpt>
      <trkpt lat="34.682475496083498" lon="-5.564941316843033">
        <ele>126.5506591796875</ele>
        <time>2011-04-24T17:04:11Z</time>
      </trkpt>
      <trkpt lat="34.683696990832686" lon="-5.566671174019575">
        <ele>121.2635498046875</ele>
        <time>2011-04-24T17:04:20Z</time>
      </trkpt>
      <trkpt lat="34.684401992708445" lon="-5.567621849477291">
        <ele>122.2247314453125</ele>
        <time>2011-04-24T17:04:25Z</time>
      </trkpt>
      <trkpt lat="34.685419723391533" lon="-5.568302376195788">
        <ele>127.511962890625</ele>
        <time>2011-04-24T17:04:31Z</time>
      </trkpt>
      <trkpt lat="34.68693969771266" lon="-5.568852648139">
        <ele>131.3572998046875</ele>
        <time>2011-04-24T17:04:39Z</time>
      </trkpt>
      <trkpt lat="34.688781285658479" lon="-5.570059390738607">
        <ele>130.876708984375</ele>
        <time>2011-04-24T17:04:49Z</time>
      </trkpt>
      <trkpt lat="34.689450832083821" lon="-5.570911830291152">
        <ele>131.3572998046875</ele>
        <time>2011-04-24T17:04:54Z</time>
      </trkpt>
      <trkpt lat="34.690694287419319" lon="-5.573156587779522">
        <ele>133.2799072265625</ele>
        <time>2011-04-24T17:05:05Z</time>
      </trkpt>
      <trkpt lat="34.691586960107088" lon="-5.574487969279289">
        <ele>133.760498046875</ele>
        <time>2011-04-24T17:05:12Z</time>
      </trkpt>
      <trkpt lat="34.692411823198199" lon="-5.575008569285274">
        <ele>130.39599609375</ele>
        <time>2011-04-24T17:05:17Z</time>
      </trkpt>
      <trkpt lat="34.693558467552066" lon="-5.575104290619493">
        <ele>128.473388671875</ele>
        <time>2011-04-24T17:05:23Z</time>
      </trkpt>
      <trkpt lat="34.695502985268831" lon="-5.574588971212506">
        <ele>126.0699462890625</ele>
        <time>2011-04-24T17:05:33Z</time>
      </trkpt>
      <trkpt lat="34.696294069290161" lon="-5.57393291965127">
        <ele>124.6280517578125</ele>
        <time>2011-04-24T17:05:38Z</time>
      </trkpt>
      <trkpt lat="34.696602942422032" lon="-5.573360854759812">
        <ele>123.666748046875</ele>
        <time>2011-04-24T17:05:41Z</time>
      </trkpt>
      <trkpt lat="34.697552863508463" lon="-5.57134609669447">
        <ele>122.2247314453125</ele>
        <time>2011-04-24T17:05:51Z</time>
      </trkpt>
      <trkpt lat="34.698509071022272" lon="-5.570073975250125">
        <ele>117.418212890625</ele>
        <time>2011-04-24T17:05:58Z</time>
      </trkpt>
      <trkpt lat="34.699278278276324" lon="-5.568579817190766">
        <ele>121.2635498046875</ele>
        <time>2011-04-24T17:06:05Z</time>
      </trkpt>
      <trkpt lat="34.700462138280272" lon="-5.566134480759502">
        <ele>121.2635498046875</ele>
        <time>2011-04-24T17:06:16Z</time>
      </trkpt>
      <trkpt lat="34.701812462881207" lon="-5.563457384705544">
        <ele>124.6280517578125</ele>
        <time>2011-04-24T17:06:28Z</time>
      </trkpt>
      <trkpt lat="34.703177036717534" lon="-5.561292925849557">
        <ele>124.1473388671875</ele>
        <time>2011-04-24T17:06:38Z</time>
      </trkpt>
      <trkpt lat="34.704379253089428" lon="-5.559418732300401">
        <ele>136.1639404296875</ele>
        <time>2011-04-24T17:06:47Z</time>
      </trkpt>
      <trkpt lat="34.705132534727454" lon="-5.558213666081429">
        <ele>142.89306640625</ele>
        <time>2011-04-24T17:06:53Z</time>
      </trkpt>
      <trkpt lat="34.705572417005897" lon="-5.556685477495194">
        <ele>147.218994140625</ele>
        <time>2011-04-24T17:07:00Z</time>
      </trkpt>
      <trkpt lat="34.705811217427254" lon="-5.554948495700955">
        <ele>152.50634765625</ele>
        <time>2011-04-24T17:07:07Z</time>
      </trkpt>
      <trkpt lat="34.706169795244932" lon="-5.554010225459933">
        <ele>153.9483642578125</ele>
        <time>2011-04-24T17:07:11Z</time>
      </trkpt>
      <trkpt lat="34.706974374130368" lon="-5.553086791187525">
        <ele>152.0257568359375</ele>
        <time>2011-04-24T17:07:16Z</time>
      </trkpt>
      <trkpt lat="34.707590192556381" lon="-5.552769033238292">
        <ele>149.1416015625</ele>
        <time>2011-04-24T17:07:19Z</time>
      </trkpt>
      <trkpt lat="34.709979370236397" lon="-5.551998065784574">
        <ele>138.5672607421875</ele>
        <time>2011-04-24T17:07:30Z</time>
      </trkpt>
      <trkpt lat="34.712084736675024" lon="-5.5514095723629">
        <ele>135.68310546875</ele>
        <time>2011-04-24T17:07:40Z</time>
      </trkpt>
      <trkpt lat="34.714499395340681" lon="-5.5510279443115">
        <ele>136.1639404296875</ele>
        <time>2011-04-24T17:07:51Z</time>
      </trkpt>
      <trkpt lat="34.717557532712817" lon="-5.550538692623377">
        <ele>137.125244140625</ele>
        <time>2011-04-24T17:08:05Z</time>
      </trkpt>
      <trkpt lat="34.720796048641205" lon="-5.550009375438094">
        <ele>140.0091552734375</ele>
        <time>2011-04-24T17:08:20Z</time>
      </trkpt>
      <trkpt lat="34.723064778372645" lon="-5.549665549769998">
        <ele>141.9317626953125</ele>
        <time>2011-04-24T17:08:30Z</time>
      </trkpt>
      <trkpt lat="34.724953137338161" lon="-5.549333123490214">
        <ele>142.4124755859375</ele>
        <time>2011-04-24T17:08:38Z</time>
      </trkpt>
      <trkpt lat="34.72651326097548" lon="-5.549072530120611">
        <ele>143.3736572265625</ele>
        <time>2011-04-24T17:08:46Z</time>
      </trkpt>
      <trkpt lat="34.727451279759407" lon="-5.548756951466203">
        <ele>145.29638671875</ele>
        <time>2011-04-24T17:08:52Z</time>
      </trkpt>
      <trkpt lat="34.727827794849873" lon="-5.548467943444848">
        <ele>146.2578125</ele>
        <time>2011-04-24T17:08:56Z</time>
      </trkpt>
      <trkpt lat="34.728251583874226" lon="-5.548097295686603">
        <ele>147.218994140625</ele>
        <time>2011-04-24T17:09:05Z</time>
      </trkpt>
      <trkpt lat="34.728574538603425" lon="-5.547785153612495">
        <ele>146.7384033203125</ele>
        <time>2011-04-24T17:09:12Z</time>
      </trkpt>
      <trkpt lat="34.729172587394714" lon="-5.547244939953089">
        <ele>150.10302734375</ele>
        <time>2011-04-24T17:09:19Z</time>
      </trkpt>
      <trkpt lat="34.730156036093831" lon="-5.546356961131096">
        <ele>153.4676513671875</ele>
        <time>2011-04-24T17:09:27Z</time>
      </trkpt>
      <trkpt lat="34.731480879709125" lon="-5.545116439461708">
        <ele>154.9095458984375</ele>
        <time>2011-04-24T17:09:36Z</time>
      </trkpt>
      <trkpt lat="34.732756521552801" lon="-5.544120250269771">
        <ele>157.3128662109375</ele>
        <time>2011-04-24T17:09:44Z</time>
      </trkpt>
      <trkpt lat="34.732945952564478" lon="-5.544043136760593">
        <ele>158.274169921875</ele>
        <time>2011-04-24T17:09:45Z</time>
      </trkpt>
      <trkpt lat="34.734319997951388" lon="-5.543895363807678">
        <ele>162.60009765625</ele>
        <time>2011-04-24T17:09:52Z</time>
      </trkpt>
      <trkpt lat="34.736493341624737" lon="-5.543834595009685">
        <ele>168.8487548828125</ele>
        <time>2011-04-24T17:10:03Z</time>
      </trkpt>
      <trkpt lat="34.737415770068765" lon="-5.543464366346598">
        <ele>170.2906494140625</ele>
        <time>2011-04-24T17:10:08Z</time>
      </trkpt>
      <trkpt lat="34.73849929869175" lon="-5.542543362826109">
        <ele>172.2132568359375</ele>
        <time>2011-04-24T17:10:15Z</time>
      </trkpt>
      <trkpt lat="34.740547249093652" lon="-5.540758520364761">
        <ele>174.6165771484375</ele>
        <time>2011-04-24T17:10:28Z</time>
      </trkpt>
      <trkpt lat="34.742216756567359" lon="-5.539439963176847">
        <ele>175.0972900390625</ele>
        <time>2011-04-24T17:10:38Z</time>
      </trkpt>
      <trkpt lat="34.743585018441081" lon="-5.538933696225286">
        <ele>166.4453125</ele>
        <time>2011-04-24T17:10:45Z</time>
      </trkpt>
      <trkpt lat="34.744972558692098" lon="-5.538685256615281">
        <ele>160.677490234375</ele>
        <time>2011-04-24T17:10:52Z</time>
      </trkpt>
      <trkpt lat="34.746222468093038" lon="-5.539120528846979">
        <ele>165.00341796875</ele>
        <time>2011-04-24T17:10:58Z</time>
      </trkpt>
      <trkpt lat="34.748319117352366" lon="-5.540012866258621">
        <ele>172.2132568359375</ele>
        <time>2011-04-24T17:11:08Z</time>
      </trkpt>
      <trkpt lat="34.750887751579285" lon="-5.541117684915662">
        <ele>178.4619140625</ele>
        <time>2011-04-24T17:11:22Z</time>
      </trkpt>
      <trkpt lat="34.752298593521118" lon="-5.541589334607124">
        <ele>181.826416015625</ele>
        <time>2011-04-24T17:11:30Z</time>
      </trkpt>
      <trkpt lat="34.752836460247636" lon="-5.541565027087927">
        <ele>182.30712890625</ele>
        <time>2011-04-24T17:11:33Z</time>
      </trkpt>
      <trkpt lat="34.754219641909003" lon="-5.541144674643874">
        <ele>182.787841796875</ele>
        <time>2011-04-24T17:11:41Z</time>
      </trkpt>
      <trkpt lat="34.755094796419144" lon="-5.541170071810484">
        <ele>180.865234375</ele>
        <time>2011-04-24T17:11:46Z</time>
      </trkpt>
      <trkpt lat="34.756683669984341" lon="-5.541608780622482">
        <ele>183.2684326171875</ele>
        <time>2011-04-24T17:11:55Z</time>
      </trkpt>
      <trkpt lat="34.757899967953563" lon="-5.541744735091925">
        <ele>184.7105712890625</ele>
        <time>2011-04-24T17:12:02Z</time>
      </trkpt>
      <trkpt lat="34.760273890569806" lon="-5.54159109480679">
        <ele>186.1524658203125</ele>
        <time>2011-04-24T17:12:15Z</time>
      </trkpt>
      <trkpt lat="34.761986648663878" lon="-5.541657144203782">
        <ele>190.958984375</ele>
        <time>2011-04-24T17:12:24Z</time>
      </trkpt>
      <trkpt lat="34.76380443200469" lon="-5.541797121986747">
        <ele>189.036376953125</ele>
        <time>2011-04-24T17:12:34Z</time>
      </trkpt>
      <trkpt lat="34.765057023614645" lon="-5.542060732841492">
        <ele>188.5557861328125</ele>
        <time>2011-04-24T17:12:41Z</time>
      </trkpt>
      <trkpt lat="34.766326043754816" lon="-5.542866820469499">
        <ele>189.036376953125</ele>
        <time>2011-04-24T17:12:49Z</time>
      </trkpt>
      <trkpt lat="34.768136199563742" lon="-5.544056380167604">
        <ele>193.843017578125</ele>
        <time>2011-04-24T17:13:01Z</time>
      </trkpt>
      <trkpt lat="34.769288040697575" lon="-5.544583518058062">
        <ele>193.843017578125</ele>
        <time>2011-04-24T17:13:08Z</time>
      </trkpt>
      <trkpt lat="34.771014880388975" lon="-5.544950477778912">
        <ele>194.32373046875</ele>
        <time>2011-04-24T17:13:18Z</time>
      </trkpt>
      <trkpt lat="34.772043256089091" lon="-5.545160695910454">
        <ele>195.765625</ele>
        <time>2011-04-24T17:13:26Z</time>
      </trkpt>
      <trkpt lat="34.773102980107069" lon="-5.545387426391244">
        <ele>196.246337890625</ele>
        <time>2011-04-24T17:13:35Z</time>
      </trkpt>
      <trkpt lat="34.77424057200551" lon="-5.54568481631577">
        <ele>198.1689453125</ele>
        <time>2011-04-24T17:13:45Z</time>
      </trkpt>
      <trkpt lat="34.775213459506631" lon="-5.54617733694613">
        <ele>200.0916748046875</ele>
        <time>2011-04-24T17:13:55Z</time>
      </trkpt>
      <trkpt lat="34.776159273460507" lon="-5.546469027176499">
        <ele>200.572265625</ele>
        <time>2011-04-24T17:14:04Z</time>
      </trkpt>
      <trkpt lat="34.777103997766972" lon="-5.546345645561814">
        <ele>202.0142822265625</ele>
        <time>2011-04-24T17:14:12Z</time>
      </trkpt>
      <trkpt lat="34.778384752571583" lon="-5.545797636732459">
        <ele>199.61083984375</ele>
        <time>2011-04-24T17:14:23Z</time>
      </trkpt>
      <trkpt lat="34.77937264367938" lon="-5.545548023656011">
        <ele>198.6495361328125</ele>
        <time>2011-04-24T17:14:31Z</time>
      </trkpt>
      <trkpt lat="34.780557425692677" lon="-5.545421289280057">
        <ele>200.572265625</ele>
        <time>2011-04-24T17:14:41Z</time>
      </trkpt>
      <trkpt lat="34.781288243830204" lon="-5.545347528532147">
        <ele>202.494873046875</ele>
        <time>2011-04-24T17:14:48Z</time>
      </trkpt>
      <trkpt lat="34.782484173774719" lon="-5.545273097231984">
        <ele>204.8980712890625</ele>
        <time>2011-04-24T17:15:00Z</time>
      </trkpt>
      <trkpt lat="34.782820623368025" lon="-5.545430425554514">
        <ele>204.8980712890625</ele>
        <time>2011-04-24T17:15:04Z</time>
      </trkpt>
      <trkpt lat="34.783563427627087" lon="-5.546253444626927">
        <ele>207.7821044921875</ele>
        <time>2011-04-24T17:15:13Z</time>
      </trkpt>
      <trkpt lat="34.784125769510865" lon="-5.547149637714028">
        <ele>212.1080322265625</ele>
        <time>2011-04-24T17:15:22Z</time>
      </trkpt>
      <trkpt lat="34.784626923501492" lon="-5.547923622652888">
        <ele>213.550048828125</ele>
        <time>2011-04-24T17:15:29Z</time>
      </trkpt>
      <trkpt lat="34.785463185980916" lon="-5.54915995337069">
        <ele>215.47265625</ele>
        <time>2011-04-24T17:15:39Z</time>
      </trkpt>
      <trkpt lat="34.785751271992922" lon="-5.550168631598353">
        <ele>217.8759765625</ele>
        <time>2011-04-24T17:15:46Z</time>
      </trkpt>
      <trkpt lat="34.78611228056252" lon="-5.552045591175556">
        <ele>220.7598876953125</ele>
        <time>2011-04-24T17:15:58Z</time>
      </trkpt>
      <trkpt lat="34.786431631073356" lon="-5.552821420133114">
        <ele>222.2017822265625</ele>
        <time>2011-04-24T17:16:04Z</time>
      </trkpt>
      <trkpt lat="34.787160689011216" lon="-5.553633626550436">
        <ele>223.643798828125</ele>
        <time>2011-04-24T17:16:12Z</time>
      </trkpt>
      <trkpt lat="34.788069790229201" lon="-5.554222287610173">
        <ele>224.12451171875</ele>
        <time>2011-04-24T17:16:20Z</time>
      </trkpt>
      <trkpt lat="34.788965731859207" lon="-5.554399648681283">
        <ele>230.853759765625</ele>
        <time>2011-04-24T17:16:27Z</time>
      </trkpt>
      <trkpt lat="34.790093516930938" lon="-5.554698379710317">
        <ele>238.5443115234375</ele>
        <time>2011-04-24T17:16:35Z</time>
      </trkpt>
      <trkpt lat="34.79133621789515" lon="-5.555245131254196">
        <ele>246.7154541015625</ele>
        <time>2011-04-24T17:16:44Z</time>
      </trkpt>
      <trkpt lat="34.792516641318798" lon="-5.55572465993464">
        <ele>252.9639892578125</ele>
        <time>2011-04-24T17:16:51Z</time>
      </trkpt>
      <trkpt lat="34.793849363923073" lon="-5.556265795603395">
        <ele>261.615966796875</ele>
        <time>2011-04-24T17:16:59Z</time>
      </trkpt>
      <trkpt lat="34.795057782903314" lon="-5.557180093601346">
        <ele>270.2677001953125</ele>
        <time>2011-04-24T17:17:07Z</time>
      </trkpt>
      <trkpt lat="34.795776698738337" lon="-5.558200422674418">
        <ele>275.074462890625</ele>
        <time>2011-04-24T17:17:13Z</time>
      </trkpt>
      <trkpt lat="34.796545654535294" lon="-5.55954672396183">
        <ele>281.322998046875</ele>
        <time>2011-04-24T17:17:21Z</time>
      </trkpt>
      <trkpt lat="34.797183182090521" lon="-5.561148673295975">
        <ele>287.5714111328125</ele>
        <time>2011-04-24T17:17:31Z</time>
      </trkpt>
      <trkpt lat="34.797594482079148" lon="-5.562795465812087">
        <ele>294.30078125</ele>
        <time>2011-04-24T17:17:41Z</time>
      </trkpt>
      <trkpt lat="34.797658436000347" lon="-5.564147466793656">
        <ele>299.5880126953125</ele>
        <time>2011-04-24T17:17:49Z</time>
      </trkpt>
      <trkpt lat="34.797565396875143" lon="-5.565699376165867">
        <ele>299.5880126953125</ele>
        <time>2011-04-24T17:18:00Z</time>
      </trkpt>
      <trkpt lat="34.79725107550621" lon="-5.566692547872663">
        <ele>296.2235107421875</ele>
        <time>2011-04-24T17:18:07Z</time>
      </trkpt>
      <trkpt lat="34.796843128278852" lon="-5.567864757031202">
        <ele>294.7813720703125</ele>
        <time>2011-04-24T17:18:16Z</time>
      </trkpt>
      <trkpt lat="34.796493016183376" lon="-5.568935880437493">
        <ele>295.261962890625</ele>
        <time>2011-04-24T17:18:25Z</time>
      </trkpt>
      <trkpt lat="34.796509947627783" lon="-5.569439548999071">
        <ele>294.7813720703125</ele>
        <time>2011-04-24T17:18:31Z</time>
      </trkpt>
      <trkpt lat="34.796798033639789" lon="-5.570477899163961">
        <ele>292.378173828125</ele>
        <time>2011-04-24T17:18:40Z</time>
      </trkpt>
      <trkpt lat="34.797209333628416" lon="-5.57189242914319">
        <ele>292.378173828125</ele>
        <time>2011-04-24T17:18:51Z</time>
      </trkpt>
      <trkpt lat="34.797384096309543" lon="-5.572422668337822">
        <ele>292.378173828125</ele>
        <time>2011-04-24T17:18:58Z</time>
      </trkpt>
      <trkpt lat="34.797512423247099" lon="-5.572308758273721">
        <ele>290.9361572265625</ele>
        <time>2011-04-24T17:19:07Z</time>
      </trkpt>
      <trkpt lat="34.797457940876484" lon="-5.571416839957237">
        <ele>288.05224609375</ele>
        <time>2011-04-24T17:19:15Z</time>
      </trkpt>
      <trkpt lat="34.797438578680158" lon="-5.570657690986991">
        <ele>287.5714111328125</ele>
        <time>2011-04-24T17:19:21Z</time>
      </trkpt>
      <trkpt lat="34.797782236710191" lon="-5.569538539275527">
        <ele>284.6876220703125</ele>
        <time>2011-04-24T17:19:30Z</time>
      </trkpt>
      <trkpt lat="34.797832863405347" lon="-5.569435944780707">
        <ele>284.2069091796875</ele>
        <time>2011-04-24T17:19:31Z</time>
      </trkpt>
      <trkpt lat="34.798284061253071" lon="-5.569028165191412">
        <ele>283.7261962890625</ele>
        <time>2011-04-24T17:19:37Z</time>
      </trkpt>
      <trkpt lat="34.798658480867743" lon="-5.568981058895588">
        <ele>283.24560546875</ele>
        <time>2011-04-24T17:19:41Z</time>
      </trkpt>
      <trkpt lat="34.799834378063679" lon="-5.569150121882558">
        <ele>286.1295166015625</ele>
        <time>2011-04-24T17:19:52Z</time>
      </trkpt>
      <trkpt lat="34.800893263891339" lon="-5.569402584806085">
        <ele>287.5714111328125</ele>
        <time>2011-04-24T17:20:01Z</time>
      </trkpt>
      <trkpt lat="34.802004285156727" lon="-5.569708524271846">
        <ele>291.8974609375</ele>
        <time>2011-04-24T17:20:10Z</time>
      </trkpt>
      <trkpt lat="34.803820475935936" lon="-5.570173216983676">
        <ele>297.1846923828125</ele>
        <time>2011-04-24T17:20:24Z</time>
      </trkpt>
      <trkpt lat="34.803929859772325" lon="-5.570198530331254">
        <ele>296.7041015625</ele>
        <time>2011-04-24T17:20:25Z</time>
      </trkpt>
      <trkpt lat="34.80446613393724" lon="-5.570047739893198">
        <ele>292.8587646484375</ele>
        <time>2011-04-24T17:20:30Z</time>
      </trkpt>
      <trkpt lat="34.804733768105507" lon="-5.569733334705234">
        <ele>291.416748046875</ele>
        <time>2011-04-24T17:20:33Z</time>
      </trkpt>
      <trkpt lat="34.805606743320823" lon="-5.568529944866896">
        <ele>287.0908203125</ele>
        <time>2011-04-24T17:20:43Z</time>
      </trkpt>
      <trkpt lat="34.806810133159161" lon="-5.567341726273298">
        <ele>279.880859375</ele>
        <time>2011-04-24T17:20:54Z</time>
      </trkpt>
      <trkpt lat="34.80837662704289" lon="-5.565865337848663">
        <ele>269.3065185546875</ele>
        <time>2011-04-24T17:21:08Z</time>
      </trkpt>
      <trkpt lat="34.809477925300598" lon="-5.564624648541212">
        <ele>267.864501953125</ele>
        <time>2011-04-24T17:21:18Z</time>
      </trkpt>
      <trkpt lat="34.811023464426398" lon="-5.56255909614265">
        <ele>262.5771484375</ele>
        <time>2011-04-24T17:21:32Z</time>
      </trkpt>
      <trkpt lat="34.812366664409637" lon="-5.560787580907345">
        <ele>257.770751953125</ele>
        <time>2011-04-24T17:21:43Z</time>
      </trkpt>
      <trkpt lat="34.81323603540659" lon="-5.559542868286371">
        <ele>256.809326171875</ele>
        <time>2011-04-24T17:21:51Z</time>
      </trkpt>
      <trkpt lat="34.813479362055659" lon="-5.558610297739506">
        <ele>259.212646484375</ele>
        <time>2011-04-24T17:21:58Z</time>
      </trkpt>
      <trkpt lat="34.813721934333444" lon="-5.5573551915586">
        <ele>263.53857421875</ele>
        <time>2011-04-24T17:22:05Z</time>
      </trkpt>
      <trkpt lat="34.814187632873654" lon="-5.555789787322283">
        <ele>273.15185546875</ele>
        <time>2011-04-24T17:22:13Z</time>
      </trkpt>
      <trkpt lat="34.814901938661933" lon="-5.5547009781003">
        <ele>276.03564453125</ele>
        <time>2011-04-24T17:22:19Z</time>
      </trkpt>
      <trkpt lat="34.816434737294912" lon="-5.552471978589892">
        <ele>283.24560546875</ele>
        <time>2011-04-24T17:22:31Z</time>
      </trkpt>
      <trkpt lat="34.817289691418409" lon="-5.551227852702141">
        <ele>275.5550537109375</ele>
        <time>2011-04-24T17:22:39Z</time>
      </trkpt>
      <trkpt lat="34.817972481250763" lon="-5.550410365685821">
        <ele>269.3065185546875</ele>
        <time>2011-04-24T17:22:46Z</time>
      </trkpt>
      <trkpt lat="34.818486040458083" lon="-5.550146419554949">
        <ele>265.4613037109375</ele>
        <time>2011-04-24T17:22:50Z</time>
      </trkpt>
      <trkpt lat="34.819019632413983" lon="-5.550069138407707">
        <ele>261.615966796875</ele>
        <time>2011-04-24T17:22:57Z</time>
      </trkpt>
      <trkpt lat="34.819536041468382" lon="-5.550056230276823">
        <ele>260.1739501953125</ele>
        <time>2011-04-24T17:23:08Z</time>
      </trkpt>
      <trkpt lat="34.819964356720448" lon="-5.55004583671689">
        <ele>262.0965576171875</ele>
        <time>2011-04-24T17:23:18Z</time>
      </trkpt>
      <trkpt lat="34.820524686947465" lon="-5.550020942464471">
        <ele>261.615966796875</ele>
        <time>2011-04-24T17:23:25Z</time>
      </trkpt>
      <trkpt lat="34.821448791772127" lon="-5.549981128424406">
        <ele>260.654541015625</ele>
        <time>2011-04-24T17:23:33Z</time>
      </trkpt>
      <trkpt lat="34.822863154113293" lon="-5.549921449273825">
        <ele>257.770751953125</ele>
        <time>2011-04-24T17:23:43Z</time>
      </trkpt>
      <trkpt lat="34.824449848383665" lon="-5.549774682149291">
        <ele>253.4447021484375</ele>
        <time>2011-04-24T17:23:53Z</time>
      </trkpt>
      <trkpt lat="34.826037464663386" lon="-5.549293644726276">
        <ele>248.63818359375</ele>
        <time>2011-04-24T17:24:03Z</time>
      </trkpt>
      <trkpt lat="34.8268380202353" lon="-5.54864589124918">
        <ele>242.8702392578125</ele>
        <time>2011-04-24T17:24:09Z</time>
      </trkpt>
      <trkpt lat="34.826947320252657" lon="-5.548499459400773">
        <ele>242.3896484375</ele>
        <time>2011-04-24T17:24:10Z</time>
      </trkpt>
      <trkpt lat="34.828084157779813" lon="-5.547070764005184">
        <ele>242.8702392578125</ele>
        <time>2011-04-24T17:24:20Z</time>
      </trkpt>
      <trkpt lat="34.829419562593102" lon="-5.546149173751473">
        <ele>239.02490234375</ele>
        <time>2011-04-24T17:24:29Z</time>
      </trkpt>
      <trkpt lat="34.831683682277799" lon="-5.544637078419328">
        <ele>226.047119140625</ele>
        <time>2011-04-24T17:24:44Z</time>
      </trkpt>
      <trkpt lat="34.832858322188258" lon="-5.543604679405689">
        <ele>220.7598876953125</ele>
        <time>2011-04-24T17:24:52Z</time>
      </trkpt>
      <trkpt lat="34.833009364083409" lon="-5.543485069647431">
        <ele>220.2791748046875</ele>
        <time>2011-04-24T17:24:53Z</time>
      </trkpt>
      <trkpt lat="34.834106052294374" lon="-5.542902527377009">
        <ele>216.4339599609375</ele>
        <time>2011-04-24T17:25:00Z</time>
      </trkpt>
      <trkpt lat="34.834823291748762" lon="-5.542540932074189">
        <ele>213.0693359375</ele>
        <time>2011-04-24T17:25:07Z</time>
      </trkpt>
      <trkpt lat="34.835764160379767" lon="-5.542121753096581">
        <ele>210.1854248046875</ele>
        <time>2011-04-24T17:25:14Z</time>
      </trkpt>
      <trkpt lat="34.837086740881205" lon="-5.541494451463223">
        <ele>208.2628173828125</ele>
        <time>2011-04-24T17:25:22Z</time>
      </trkpt>
      <trkpt lat="34.839015668258071" lon="-5.540711497887969">
        <ele>209.704833984375</ele>
        <time>2011-04-24T17:25:33Z</time>
      </trkpt>
      <trkpt lat="34.841434936970472" lon="-5.539855035021901">
        <ele>209.22412109375</ele>
        <time>2011-04-24T17:25:47Z</time>
      </trkpt>
      <trkpt lat="34.842318976297975" lon="-5.539855286478996">
        <ele>206.340087890625</ele>
        <time>2011-04-24T17:25:52Z</time>
      </trkpt>
      <trkpt lat="34.84390776604414" lon="-5.540034994482994">
        <ele>202.0142822265625</ele>
        <time>2011-04-24T17:26:01Z</time>
      </trkpt>
      <trkpt lat="34.845302430912852" lon="-5.539700891822577">
        <ele>200.572265625</ele>
        <time>2011-04-24T17:26:09Z</time>
      </trkpt>
      <trkpt lat="34.847193639725447" lon="-5.539220441132784">
        <ele>197.688232421875</ele>
        <time>2011-04-24T17:26:19Z</time>
      </trkpt>
      <trkpt lat="34.848722750321031" lon="-5.539147518575192">
        <ele>197.688232421875</ele>
        <time>2011-04-24T17:26:27Z</time>
      </trkpt>
      <trkpt lat="34.849261958152056" lon="-5.539211388677359">
        <ele>197.20751953125</ele>
        <time>2011-04-24T17:26:30Z</time>
      </trkpt>
      <trkpt lat="34.8501299880445" lon="-5.538985077291727">
        <ele>196.7269287109375</ele>
        <time>2011-04-24T17:26:35Z</time>
      </trkpt>
      <trkpt lat="34.850463420152664" lon="-5.538795562461019">
        <ele>196.246337890625</ele>
        <time>2011-04-24T17:26:37Z</time>
      </trkpt>
      <trkpt lat="34.851340418681502" lon="-5.538638150319457">
        <ele>194.32373046875</ele>
        <time>2011-04-24T17:26:42Z</time>
      </trkpt>
      <trkpt lat="34.851518953219056" lon="-5.538676371797919">
        <ele>193.843017578125</ele>
        <time>2011-04-24T17:26:43Z</time>
      </trkpt>
      <trkpt lat="34.852222362533212" lon="-5.538853481411934">
        <ele>192.401123046875</ele>
        <time>2011-04-24T17:26:47Z</time>
      </trkpt>
      <trkpt lat="34.853316033259034" lon="-5.538683496415615">
        <ele>190.958984375</ele>
        <time>2011-04-24T17:26:53Z</time>
      </trkpt>
      <trkpt lat="34.855030551552773" lon="-5.538286026567221">
        <ele>188.0750732421875</ele>
        <time>2011-04-24T17:27:02Z</time>
      </trkpt>
      <trkpt lat="34.857863718643785" lon="-5.537736928090453">
        <ele>187.11376953125</ele>
        <time>2011-04-24T17:27:16Z</time>
      </trkpt>
      <trkpt lat="34.860239569097757" lon="-5.537299392744899">
        <ele>184.7105712890625</ele>
        <time>2011-04-24T17:27:28Z</time>
      </trkpt>
      <trkpt lat="34.862369662150741" lon="-5.537240216508508">
        <ele>187.5943603515625</ele>
        <time>2011-04-24T17:27:39Z</time>
      </trkpt>
      <trkpt lat="34.864475028589368" lon="-5.537280449643731">
        <ele>188.0750732421875</ele>
        <time>2011-04-24T17:27:50Z</time>
      </trkpt>
      <trkpt lat="34.866394652053714" lon="-5.537410452961922">
        <ele>184.7105712890625</ele>
        <time>2011-04-24T17:27:59Z</time>
      </trkpt>
      <trkpt lat="34.86809927970171" lon="-5.53746703080833">
        <ele>182.787841796875</ele>
        <time>2011-04-24T17:28:06Z</time>
      </trkpt>
      <trkpt lat="34.870413187891245" lon="-5.537830134853721">
        <ele>182.30712890625</ele>
        <time>2011-04-24T17:28:16Z</time>
      </trkpt>
      <trkpt lat="34.873763686046004" lon="-5.538436062633991">
        <ele>189.036376953125</ele>
        <time>2011-04-24T17:28:30Z</time>
      </trkpt>
      <trkpt lat="34.876380097121" lon="-5.539051797240973">
        <ele>198.1689453125</ele>
        <time>2011-04-24T17:28:41Z</time>
      </trkpt>
      <trkpt lat="34.877840392291546" lon="-5.539684379473329">
        <ele>201.5335693359375</ele>
        <time>2011-04-24T17:28:48Z</time>
      </trkpt>
      <trkpt lat="34.880527378991246" lon="-5.540842255577445">
        <ele>187.5943603515625</ele>
        <time>2011-04-24T17:29:02Z</time>
      </trkpt>
      <trkpt lat="34.881581822410226" lon="-5.541203767061234">
        <ele>180.384521484375</ele>
        <time>2011-04-24T17:29:08Z</time>
      </trkpt>
      <trkpt lat="34.882617993280292" lon="-5.54103696718812">
        <ele>173.6552734375</ele>
        <time>2011-04-24T17:29:14Z</time>
      </trkpt>
      <trkpt lat="34.884737022221088" lon="-5.540438918396831">
        <ele>161.638916015625</ele>
        <time>2011-04-24T17:29:27Z</time>
      </trkpt>
      <trkpt lat="34.885714519768953" lon="-5.54009978659451">
        <ele>160.1968994140625</ele>
        <time>2011-04-24T17:29:34Z</time>
      </trkpt>
      <trkpt lat="34.886376690119505" lon="-5.53952612914145">
        <ele>160.1968994140625</ele>
        <time>2011-04-24T17:29:40Z</time>
      </trkpt>
      <trkpt lat="34.887472791597247" lon="-5.538635719567537">
        <ele>154.428955078125</ele>
        <time>2011-04-24T17:29:50Z</time>
      </trkpt>
      <trkpt lat="34.888275861740112" lon="-5.538157699629664">
        <ele>153.9483642578125</ele>
        <time>2011-04-24T17:29:56Z</time>
      </trkpt>
      <trkpt lat="34.88866126164794" lon="-5.537714045494795">
        <ele>153.4676513671875</ele>
        <time>2011-04-24T17:30:00Z</time>
      </trkpt>
      <trkpt lat="34.889274397864938" lon="-5.536512667313218">
        <ele>158.274169921875</ele>
        <time>2011-04-24T17:30:10Z</time>
      </trkpt>
      <trkpt lat="34.890000019222498" lon="-5.535852760076523">
        <ele>157.7935791015625</ele>
        <time>2011-04-24T17:30:17Z</time>
      </trkpt>
      <trkpt lat="34.891157057136297" lon="-5.535123953595758">
        <ele>152.50634765625</ele>
        <time>2011-04-24T17:30:26Z</time>
      </trkpt>
      <trkpt lat="34.892160287126899" lon="-5.534746767953038">
        <ele>148.6610107421875</ele>
        <time>2011-04-24T17:30:33Z</time>
      </trkpt>
      <trkpt lat="34.893255718052387" lon="-5.534237734973431">
        <ele>147.218994140625</ele>
        <time>2011-04-24T17:30:39Z</time>
      </trkpt>
      <trkpt lat="34.89600146189332" lon="-5.533046079799533">
        <ele>147.69970703125</ele>
        <time>2011-04-24T17:30:53Z</time>
      </trkpt>
      <trkpt lat="34.898516535758972" lon="-5.531935896724463">
        <ele>152.50634765625</ele>
        <time>2011-04-24T17:31:07Z</time>
      </trkpt>
      <trkpt lat="34.900302216410637" lon="-5.531215472146869">
        <ele>152.50634765625</ele>
        <time>2011-04-24T17:31:17Z</time>
      </trkpt>
      <trkpt lat="34.901590598747134" lon="-5.531304068863392">
        <ele>155.8709716796875</ele>
        <time>2011-04-24T17:31:24Z</time>
      </trkpt>
      <trkpt lat="34.902237681671977" lon="-5.531694078817964">
        <ele>155.8709716796875</ele>
        <time>2011-04-24T17:31:28Z</time>
      </trkpt>
      <trkpt lat="34.904071977362037" lon="-5.533397532999516">
        <ele>160.677490234375</ele>
        <time>2011-04-24T17:31:40Z</time>
      </trkpt>
      <trkpt lat="34.905382320284843" lon="-5.5344258248806">
        <ele>163.5615234375</ele>
        <time>2011-04-24T17:31:48Z</time>
      </trkpt>
      <trkpt lat="34.906544135883451" lon="-5.535387983545661">
        <ele>156.8321533203125</ele>
        <time>2011-04-24T17:31:55Z</time>
      </trkpt>
      <trkpt lat="34.907486848533154" lon="-5.535748824477196">
        <ele>152.50634765625</ele>
        <time>2011-04-24T17:32:00Z</time>
      </trkpt>
      <trkpt lat="34.908617064356804" lon="-5.535972369834781">
        <ele>149.622314453125</ele>
        <time>2011-04-24T17:32:06Z</time>
      </trkpt>
      <trkpt lat="34.909802852198482" lon="-5.536690531298518">
        <ele>146.2578125</ele>
        <time>2011-04-24T17:32:13Z</time>
      </trkpt>
      <trkpt lat="34.910163525491953" lon="-5.536807626485825">
        <ele>145.29638671875</ele>
        <time>2011-04-24T17:32:15Z</time>
      </trkpt>
      <trkpt lat="34.910883028060198" lon="-5.536819025874138">
        <ele>145.29638671875</ele>
        <time>2011-04-24T17:32:19Z</time>
      </trkpt>
      <trkpt lat="34.912101170048118" lon="-5.536565640941262">
        <ele>145.29638671875</ele>
        <time>2011-04-24T17:32:26Z</time>
      </trkpt>
      <trkpt lat="34.913299949839711" lon="-5.536849452182651">
        <ele>144.335205078125</ele>
        <time>2011-04-24T17:32:33Z</time>
      </trkpt>
      <trkpt lat="34.914295049384236" lon="-5.536759681999683">
        <ele>143.8543701171875</ele>
        <time>2011-04-24T17:32:39Z</time>
      </trkpt>
      <trkpt lat="34.914457825943828" lon="-5.536759681999683">
        <ele>143.3736572265625</ele>
        <time>2011-04-24T17:32:40Z</time>
      </trkpt>
      <trkpt lat="34.915137179195881" lon="-5.537211885675788">
        <ele>138.5672607421875</ele>
        <time>2011-04-24T17:32:45Z</time>
      </trkpt>
      <trkpt lat="34.915328873321414" lon="-5.537539198994637">
        <ele>138.0865478515625</ele>
        <time>2011-04-24T17:32:47Z</time>
      </trkpt>
      <trkpt lat="34.916304275393486" lon="-5.539457565173507">
        <ele>135.68310546875</ele>
        <time>2011-04-24T17:32:57Z</time>
      </trkpt>
      <trkpt lat="34.916510051116347" lon="-5.539820082485676">
        <ele>135.2025146484375</ele>
        <time>2011-04-24T17:32:59Z</time>
      </trkpt>
      <trkpt lat="34.917199797928333" lon="-5.540458280593157">
        <ele>132.318603515625</ele>
        <time>2011-04-24T17:33:04Z</time>
      </trkpt>
      <trkpt lat="34.917367352172732" lon="-5.540533633902669">
        <ele>131.3572998046875</ele>
        <time>2011-04-24T17:33:05Z</time>
      </trkpt>
      <trkpt lat="34.9185536429286" lon="-5.540971839800477">
        <ele>130.39599609375</ele>
        <time>2011-04-24T17:33:12Z</time>
      </trkpt>
      <trkpt lat="34.919249843806028" lon="-5.540961781516671">
        <ele>130.876708984375</ele>
        <time>2011-04-24T17:33:16Z</time>
      </trkpt>
      <trkpt lat="34.920296994969249" lon="-5.540623823180795">
        <ele>128.473388671875</ele>
        <time>2011-04-24T17:33:22Z</time>
      </trkpt>
      <trkpt lat="34.921004762873054" lon="-5.539971543475986">
        <ele>128.473388671875</ele>
        <time>2011-04-24T17:33:27Z</time>
      </trkpt>
      <trkpt lat="34.921107525005937" lon="-5.539794517681003">
        <ele>128.473388671875</ele>
        <time>2011-04-24T17:33:28Z</time>
      </trkpt>
      <trkpt lat="34.921479932963848" lon="-5.539042158052325">
        <ele>128.9541015625</ele>
        <time>2011-04-24T17:33:32Z</time>
      </trkpt>
      <trkpt lat="34.922349555417895" lon="-5.537907583639026">
        <ele>127.511962890625</ele>
        <time>2011-04-24T17:33:39Z</time>
      </trkpt>
      <trkpt lat="34.922759849578142" lon="-5.536857917904854">
        <ele>127.511962890625</ele>
        <time>2011-04-24T17:33:44Z</time>
      </trkpt>
      <trkpt lat="34.923145584762096" lon="-5.535482028499246">
        <ele>127.0313720703125</ele>
        <time>2011-04-24T17:33:50Z</time>
      </trkpt>
      <trkpt lat="34.923769952729344" lon="-5.534556079655886">
        <ele>128.473388671875</ele>
        <time>2011-04-24T17:33:55Z</time>
      </trkpt>
      <trkpt lat="34.924121489748359" lon="-5.53431736305356">
        <ele>128.9541015625</ele>
        <time>2011-04-24T17:33:57Z</time>
      </trkpt>
      <trkpt lat="34.9264972563833" lon="-5.533187482506037">
        <ele>125.58935546875</ele>
        <time>2011-04-24T17:34:09Z</time>
      </trkpt>
      <trkpt lat="34.928360553458333" lon="-5.532446186989546">
        <ele>126.5506591796875</ele>
        <time>2011-04-24T17:34:18Z</time>
      </trkpt>
      <trkpt lat="34.929598895832896" lon="-5.53213706240058">
        <ele>128.473388671875</ele>
        <time>2011-04-24T17:34:24Z</time>
      </trkpt>
      <trkpt lat="34.930345388129354" lon="-5.532270167022944">
        <ele>131.3572998046875</ele>
        <time>2011-04-24T17:34:28Z</time>
      </trkpt>
      <trkpt lat="34.93190836161375" lon="-5.532815996557474">
        <ele>138.0865478515625</ele>
        <time>2011-04-24T17:34:37Z</time>
      </trkpt>
      <trkpt lat="34.933823458850384" lon="-5.533240959048271">
        <ele>139.0478515625</ele>
        <time>2011-04-24T17:34:47Z</time>
      </trkpt>
      <trkpt lat="34.93572698906064" lon="-5.533349253237248">
        <ele>132.79931640625</ele>
        <time>2011-04-24T17:34:57Z</time>
      </trkpt>
      <trkpt lat="34.93658697232604" lon="-5.533252945169807">
        <ele>135.68310546875</ele>
        <time>2011-04-24T17:35:02Z</time>
      </trkpt>
      <trkpt lat="34.937219051644206" lon="-5.533694755285978">
        <ele>137.6058349609375</ele>
        <time>2011-04-24T17:35:07Z</time>
      </trkpt>
      <trkpt lat="34.937612665817142" lon="-5.534314177930355">
        <ele>138.5672607421875</ele>
        <time>2011-04-24T17:35:11Z</time>
      </trkpt>
      <trkpt lat="34.938298221677542" lon="-5.534794041886926">
        <ele>142.4124755859375</ele>
        <time>2011-04-24T17:35:16Z</time>
      </trkpt>
      <trkpt lat="34.938913453370333" lon="-5.534936534240842">
        <ele>146.2578125</ele>
        <time>2011-04-24T17:35:22Z</time>
      </trkpt>
      <trkpt lat="34.939504126086831" lon="-5.534810218960047">
        <ele>149.622314453125</ele>
        <time>2011-04-24T17:35:29Z</time>
      </trkpt>
      <trkpt lat="34.940083818510175" lon="-5.53438282571733">
        <ele>153.4676513671875</ele>
        <time>2011-04-24T17:35:38Z</time>
      </trkpt>
      <trkpt lat="34.940648088231683" lon="-5.533594759181142">
        <ele>156.8321533203125</ele>
        <time>2011-04-24T17:35:49Z</time>
      </trkpt>
      <trkpt lat="34.941262733191252" lon="-5.532866539433599">
        <ele>158.7547607421875</ele>
        <time>2011-04-24T17:35:59Z</time>
      </trkpt>
      <trkpt lat="34.941532127559185" lon="-5.532665038481355">
        <ele>157.7935791015625</ele>
        <time>2011-04-24T17:36:03Z</time>
      </trkpt>
      <trkpt lat="34.942101845517755" lon="-5.532429926097393">
        <ele>156.3515625</ele>
        <time>2011-04-24T17:36:09Z</time>
      </trkpt>
      <trkpt lat="34.943001894280314" lon="-5.532033042982221">
        <ele>151.064208984375</ele>
        <time>2011-04-24T17:36:16Z</time>
      </trkpt>
      <trkpt lat="34.943746291100979" lon="-5.531430719420314">
        <ele>144.335205078125</ele>
        <time>2011-04-24T17:36:22Z</time>
      </trkpt>
      <trkpt lat="34.944146862253547" lon="-5.530873071402311">
        <ele>138.5672607421875</ele>
        <time>2011-04-24T17:36:26Z</time>
      </trkpt>
      <trkpt lat="34.944777097553015" lon="-5.530368648469448">
        <ele>132.79931640625</ele>
        <time>2011-04-24T17:36:31Z</time>
      </trkpt>
      <trkpt lat="34.945536330342293" lon="-5.530262533575296">
        <ele>127.9925537109375</ele>
        <time>2011-04-24T17:36:36Z</time>
      </trkpt>
      <trkpt lat="34.946699487045407" lon="-5.530556654557586">
        <ele>129.915283203125</ele>
        <time>2011-04-24T17:36:43Z</time>
      </trkpt>
      <trkpt lat="34.947528541088104" lon="-5.530413826927543">
        <ele>135.2025146484375</ele>
        <time>2011-04-24T17:36:48Z</time>
      </trkpt>
      <trkpt lat="34.949268456548452" lon="-5.52924488671124">
        <ele>149.622314453125</ele>
        <time>2011-04-24T17:36:59Z</time>
      </trkpt>
      <trkpt lat="34.950763285160065" lon="-5.528404517099261">
        <ele>153.9483642578125</ele>
        <time>2011-04-24T17:37:09Z</time>
      </trkpt>
      <trkpt lat="34.952389877289534" lon="-5.527953738346696">
        <ele>146.2578125</ele>
        <time>2011-04-24T17:37:19Z</time>
      </trkpt>
      <trkpt lat="34.953842293471098" lon="-5.527858017012477">
        <ele>135.68310546875</ele>
        <time>2011-04-24T17:37:27Z</time>
      </trkpt>
      <trkpt lat="34.954588199034333" lon="-5.527937477454543">
        <ele>130.39599609375</ele>
        <time>2011-04-24T17:37:31Z</time>
      </trkpt>
      <trkpt lat="34.955641720443964" lon="-5.528588583692908">
        <ele>121.744140625</ele>
        <time>2011-04-24T17:37:37Z</time>
      </trkpt>
      <trkpt lat="34.957964178174734" lon="-5.530325397849083">
        <ele>108.7662353515625</ele>
        <time>2011-04-24T17:37:50Z</time>
      </trkpt>
      <trkpt lat="34.95826106518507" lon="-5.530636450275779">
        <ele>107.8050537109375</ele>
        <time>2011-04-24T17:37:52Z</time>
      </trkpt>
      <trkpt lat="34.95868569239974" lon="-5.531378919258714">
        <ele>104.9210205078125</ele>
        <time>2011-04-24T17:37:56Z</time>
      </trkpt>
      <trkpt lat="34.958817875012755" lon="-5.531789129599929">
        <ele>104.4404296875</ele>
        <time>2011-04-24T17:37:58Z</time>
      </trkpt>
      <trkpt lat="34.958905298262835" lon="-5.532627319917083">
        <ele>103.959716796875</ele>
        <time>2011-04-24T17:38:02Z</time>
      </trkpt>
      <trkpt lat="34.958777222782373" lon="-5.535452021285892">
        <ele>103.47900390625</ele>
        <time>2011-04-24T17:38:15Z</time>
      </trkpt>
      <trkpt lat="34.958951817825437" lon="-5.536741325631738">
        <ele>102.037109375</ele>
        <time>2011-04-24T17:38:21Z</time>
      </trkpt>
      <trkpt lat="34.959024740383029" lon="-5.536956237629056">
        <ele>102.037109375</ele>
        <time>2011-04-24T17:38:22Z</time>
      </trkpt>
      <trkpt lat="34.95973963290453" lon="-5.538082597777247">
        <ele>101.556396484375</ele>
        <time>2011-04-24T17:38:28Z</time>
      </trkpt>
      <trkpt lat="34.960062336176634" lon="-5.5383768863976">
        <ele>101.556396484375</ele>
        <time>2011-04-24T17:38:30Z</time>
      </trkpt>
      <trkpt lat="34.962865747511387" lon="-5.540484599769115">
        <ele>99.6337890625</ele>
        <time>2011-04-24T17:38:46Z</time>
      </trkpt>
      <trkpt lat="34.963997388258576" lon="-5.540968654677272">
        <ele>99.153076171875</ele>
        <time>2011-04-24T17:38:52Z</time>
      </trkpt>
      <trkpt lat="34.965199772268534" lon="-5.541062699630857">
        <ele>98.6724853515625</ele>
        <time>2011-04-24T17:38:58Z</time>
      </trkpt>
      <trkpt lat="34.967507980763912" lon="-5.540922889485955">
        <ele>96.269287109375</ele>
        <time>2011-04-24T17:39:10Z</time>
      </trkpt>
      <trkpt lat="34.968912117183208" lon="-5.541009977459908">
        <ele>96.7498779296875</ele>
        <time>2011-04-24T17:39:17Z</time>
      </trkpt>
      <trkpt lat="34.970329077914357" lon="-5.54153099656105">
        <ele>96.7498779296875</ele>
        <time>2011-04-24T17:39:24Z</time>
      </trkpt>
      <trkpt lat="34.971691556274891" lon="-5.542049081996083">
        <ele>97.23046875</ele>
        <time>2011-04-24T17:39:31Z</time>
      </trkpt>
      <trkpt lat="34.972526142373681" lon="-5.542710330337286">
        <ele>98.6724853515625</ele>
        <time>2011-04-24T17:39:36Z</time>
      </trkpt>
      <trkpt lat="34.972961330786347" lon="-5.543499737977982">
        <ele>99.6337890625</ele>
        <time>2011-04-24T17:39:40Z</time>
      </trkpt>
      <trkpt lat="34.973091837018728" lon="-5.543952444568276">
        <ele>100.114501953125</ele>
        <time>2011-04-24T17:39:42Z</time>
      </trkpt>
      <trkpt lat="34.973284285515547" lon="-5.544830868020654">
        <ele>99.6337890625</ele>
        <time>2011-04-24T17:39:46Z</time>
      </trkpt>
      <trkpt lat="34.973873198032379" lon="-5.545957982540131">
        <ele>97.711181640625</ele>
        <time>2011-04-24T17:39:52Z</time>
      </trkpt>
      <trkpt lat="34.974743155762553" lon="-5.546876639127731">
        <ele>97.711181640625</ele>
        <time>2011-04-24T17:39:58Z</time>
      </trkpt>
      <trkpt lat="34.975580256432295" lon="-5.547080738469958">
        <ele>98.19189453125</ele>
        <time>2011-04-24T17:40:03Z</time>
      </trkpt>
      <trkpt lat="34.976260531693697" lon="-5.546740181744099">
        <ele>97.711181640625</ele>
        <time>2011-04-24T17:40:07Z</time>
      </trkpt>
      <trkpt lat="34.978034058585763" lon="-5.545494044199586">
        <ele>102.037109375</ele>
        <time>2011-04-24T17:40:17Z</time>
      </trkpt>
      <trkpt lat="34.979029074311256" lon="-5.5451306886971">
        <ele>107.8050537109375</ele>
        <time>2011-04-24T17:40:22Z</time>
      </trkpt>
      <trkpt lat="34.980444191023707" lon="-5.545010156929493">
        <ele>109.2469482421875</ele>
        <time>2011-04-24T17:40:29Z</time>
      </trkpt>
      <trkpt lat="34.981414396315813" lon="-5.54453113116324">
        <ele>108.28564453125</ele>
        <time>2011-04-24T17:40:34Z</time>
      </trkpt>
      <trkpt lat="34.983378946781158" lon="-5.543235875666142">
        <ele>106.8436279296875</ele>
        <time>2011-04-24T17:40:44Z</time>
      </trkpt>
      <trkpt lat="34.985585482791066" lon="-5.541804162785411">
        <ele>100.5950927734375</ele>
        <time>2011-04-24T17:40:56Z</time>
      </trkpt>
      <trkpt lat="34.987057177349925" lon="-5.540628517046571">
        <ele>92.4239501953125</ele>
        <time>2011-04-24T17:41:04Z</time>
      </trkpt>
      <trkpt lat="34.987790090963244" lon="-5.539554040879011">
        <ele>90.5013427734375</ele>
        <time>2011-04-24T17:41:09Z</time>
      </trkpt>
      <trkpt lat="34.98807474039495" lon="-5.538839232176542">
        <ele>89.5399169921875</ele>
        <time>2011-04-24T17:41:12Z</time>
      </trkpt>
      <trkpt lat="34.988213460892439" lon="-5.537295620888472">
        <ele>87.6171875</ele>
        <time>2011-04-24T17:41:18Z</time>
      </trkpt>
      <trkpt lat="34.987974995747209" lon="-5.535957450047135">
        <ele>85.694580078125</ele>
        <time>2011-04-24T17:41:23Z</time>
      </trkpt>
      <trkpt lat="34.987255241721869" lon="-5.532762017101049">
        <ele>87.6171875</ele>
        <time>2011-04-24T17:41:35Z</time>
      </trkpt>
      <trkpt lat="34.986838325858116" lon="-5.530811799690127">
        <ele>91.4625244140625</ele>
        <time>2011-04-24T17:41:44Z</time>
      </trkpt>
      <trkpt lat="34.986705388873816" lon="-5.52959717810154">
        <ele>93.8658447265625</ele>
        <time>2011-04-24T17:41:50Z</time>
      </trkpt>
      <trkpt lat="34.986811336129904" lon="-5.528851859271526">
        <ele>94.3465576171875</ele>
        <time>2011-04-24T17:41:54Z</time>
      </trkpt>
      <trkpt lat="34.987487839534879" lon="-5.527092749252915">
        <ele>93.3851318359375</ele>
        <time>2011-04-24T17:42:04Z</time>
      </trkpt>
      <trkpt lat="34.987765029072762" lon="-5.52608784288168">
        <ele>93.3851318359375</ele>
        <time>2011-04-24T17:42:10Z</time>
      </trkpt>
      <trkpt lat="34.987729741260409" lon="-5.525378482416272">
        <ele>93.3851318359375</ele>
        <time>2011-04-24T17:42:14Z</time>
      </trkpt>
      <trkpt lat="34.98739211820066" lon="-5.52350839599967">
        <ele>100.5950927734375</ele>
        <time>2011-04-24T17:42:23Z</time>
      </trkpt>
      <trkpt lat="34.987045442685485" lon="-5.521351480856538">
        <ele>115.49560546875</ele>
        <time>2011-04-24T17:42:33Z</time>
      </trkpt>
      <trkpt lat="34.987101936712861" lon="-5.519857155159116">
        <ele>119.8214111328125</ele>
        <time>2011-04-24T17:42:40Z</time>
      </trkpt>
      <trkpt lat="34.987379964441061" lon="-5.517126750200987">
        <ele>119.8214111328125</ele>
        <time>2011-04-24T17:42:52Z</time>
      </trkpt>
      <trkpt lat="34.987760335206985" lon="-5.514600025489926">
        <ele>111.6502685546875</ele>
        <time>2011-04-24T17:43:03Z</time>
      </trkpt>
      <trkpt lat="34.988296777009964" lon="-5.51352764479816">
        <ele>105.4017333984375</ele>
        <time>2011-04-24T17:43:08Z</time>
      </trkpt>
      <trkpt lat="34.989229263737798" lon="-5.512165082618594">
        <ele>100.114501953125</ele>
        <time>2011-04-24T17:43:15Z</time>
      </trkpt>
      <trkpt lat="34.990129228681326" lon="-5.511683458462358">
        <ele>98.19189453125</ele>
        <time>2011-04-24T17:43:20Z</time>
      </trkpt>
      <trkpt lat="34.990333830937743" lon="-5.511654037982225">
        <ele>98.19189453125</ele>
        <time>2011-04-24T17:43:21Z</time>
      </trkpt>
      <trkpt lat="34.992342051118612" lon="-5.511565525084734">
        <ele>97.23046875</ele>
        <time>2011-04-24T17:43:31Z</time>
      </trkpt>
      <trkpt lat="34.993185270577669" lon="-5.511508947238326">
        <ele>98.19189453125</ele>
        <time>2011-04-24T17:43:36Z</time>
      </trkpt>
      <trkpt lat="34.993946179747581" lon="-5.511094629764557">
        <ele>98.19189453125</ele>
        <time>2011-04-24T17:43:42Z</time>
      </trkpt>
      <trkpt lat="34.99404089525342" lon="-5.511000417172909">
        <ele>98.19189453125</ele>
        <time>2011-04-24T17:43:43Z</time>
      </trkpt>
      <trkpt lat="34.994796859100461" lon="-5.510064577683806">
        <ele>97.23046875</ele>
        <time>2011-04-24T17:43:51Z</time>
      </trkpt>
      <trkpt lat="34.995694058015943" lon="-5.509013738483191">
        <ele>98.19189453125</ele>
        <time>2011-04-24T17:43:58Z</time>
      </trkpt>
      <trkpt lat="34.997023595497012" lon="-5.507354289293289">
        <ele>99.6337890625</ele>
        <time>2011-04-24T17:44:07Z</time>
      </trkpt>
      <trkpt lat="34.999123262241483" lon="-5.50484424456954">
        <ele>104.9210205078125</ele>
        <time>2011-04-24T17:44:21Z</time>
      </trkpt>
      <trkpt lat="35.000243252143264" lon="-5.503972778096795">
        <ele>104.9210205078125</ele>
        <time>2011-04-24T17:44:27Z</time>
      </trkpt>
      <trkpt lat="35.002028597518802" lon="-5.503108184784651">
        <ele>109.7276611328125</ele>
        <time>2011-04-24T17:44:35Z</time>
      </trkpt>
      <trkpt lat="35.002585155889392" lon="-5.502792522311211">
        <ele>114.0535888671875</ele>
        <time>2011-04-24T17:44:38Z</time>
      </trkpt>
      <trkpt lat="35.003193346783519" lon="-5.501988362520933">
        <ele>118.37939453125</ele>
        <time>2011-04-24T17:44:43Z</time>
      </trkpt>
      <trkpt lat="35.003315974026918" lon="-5.501622743904591">
        <ele>118.860107421875</ele>
        <time>2011-04-24T17:44:45Z</time>
      </trkpt>
      <trkpt lat="35.003693159669638" lon="-5.499652326107025">
        <ele>122.2247314453125</ele>
        <time>2011-04-24T17:44:54Z</time>
      </trkpt>
      <trkpt lat="35.004196241497993" lon="-5.496860481798649">
        <ele>126.0699462890625</ele>
        <time>2011-04-24T17:45:06Z</time>
      </trkpt>
      <trkpt lat="35.004686331376433" lon="-5.494911270216107">
        <ele>122.7054443359375</ele>
        <time>2011-04-24T17:45:15Z</time>
      </trkpt>
      <trkpt lat="35.005466267466545" lon="-5.4934904538095">
        <ele>118.37939453125</ele>
        <time>2011-04-24T17:45:22Z</time>
      </trkpt>
      <trkpt lat="35.006799073889852" lon="-5.49124276265502">
        <ele>132.318603515625</ele>
        <time>2011-04-24T17:45:33Z</time>
      </trkpt>
      <trkpt lat="35.006998060271144" lon="-5.490867085754871">
        <ele>136.1639404296875</ele>
        <time>2011-04-24T17:45:35Z</time>
      </trkpt>
      <trkpt lat="35.007290923967957" lon="-5.489725470542908">
        <ele>145.777099609375</ele>
        <time>2011-04-24T17:45:41Z</time>
      </trkpt>
      <trkpt lat="35.007342472672462" lon="-5.489558167755604">
        <ele>147.218994140625</ele>
        <time>2011-04-24T17:45:42Z</time>
      </trkpt>
      <trkpt lat="35.007912861183286" lon="-5.489027928560972">
        <ele>150.5836181640625</ele>
        <time>2011-04-24T17:45:47Z</time>
      </trkpt>
      <trkpt lat="35.009399056434631" lon="-5.48836718313396">
        <ele>145.777099609375</ele>
        <time>2011-04-24T17:45:56Z</time>
      </trkpt>
      <trkpt lat="35.011298060417175" lon="-5.487466463819146">
        <ele>141.4510498046875</ele>
        <time>2011-04-24T17:46:06Z</time>
      </trkpt>
      <trkpt lat="35.013355063274503" lon="-5.486476728692651">
        <ele>150.5836181640625</ele>
        <time>2011-04-24T17:46:17Z</time>
      </trkpt>
      <trkpt lat="35.015118280425668" lon="-5.485622445121408">
        <ele>163.080810546875</ele>
        <time>2011-04-24T17:46:27Z</time>
      </trkpt>
      <trkpt lat="35.015774080529809" lon="-5.484842928126454">
        <ele>169.81005859375</ele>
        <time>2011-04-24T17:46:32Z</time>
      </trkpt>
      <trkpt lat="35.015936773270369" lon="-5.484429448843002">
        <ele>172.2132568359375</ele>
        <time>2011-04-24T17:46:34Z</time>
      </trkpt>
      <trkpt lat="35.016697766259313" lon="-5.48198277130723">
        <ele>190.958984375</ele>
        <time>2011-04-24T17:46:46Z</time>
      </trkpt>
      <trkpt lat="35.017046621069312" lon="-5.480873677879572">
        <ele>200.572265625</ele>
        <time>2011-04-24T17:46:52Z</time>
      </trkpt>
      <trkpt lat="35.017424896359444" lon="-5.480231372639537">
        <ele>205.8594970703125</ele>
        <time>2011-04-24T17:46:56Z</time>
      </trkpt>
      <trkpt lat="35.01777408644557" lon="-5.479809595271945">
        <ele>210.666015625</ele>
        <time>2011-04-24T17:46:59Z</time>
      </trkpt>
      <trkpt lat="35.018050773069263" lon="-5.478972075507045">
        <ele>214.991943359375</ele>
        <time>2011-04-24T17:47:04Z</time>
      </trkpt>
      <trkpt lat="35.018035266548395" lon="-5.478792451322079">
        <ele>216.4339599609375</ele>
        <time>2011-04-24T17:47:05Z</time>
      </trkpt>
      <trkpt lat="35.017878189682961" lon="-5.477537261322141">
        <ele>226.047119140625</ele>
        <time>2011-04-24T17:47:12Z</time>
      </trkpt>
      <trkpt lat="35.01808924600482" lon="-5.476443842053413">
        <ele>234.2183837890625</ele>
        <time>2011-04-24T17:47:18Z</time>
      </trkpt>
      <trkpt lat="35.018561985343695" lon="-5.475923325866461">
        <ele>238.0635986328125</ele>
        <time>2011-04-24T17:47:22Z</time>
      </trkpt>
      <trkpt lat="35.019199931994081" lon="-5.475716041401029">
        <ele>240.467041015625</ele>
        <time>2011-04-24T17:47:26Z</time>
      </trkpt>
      <trkpt lat="35.019372934475541" lon="-5.475710090249777">
        <ele>240.9476318359375</ele>
        <time>2011-04-24T17:47:27Z</time>
      </trkpt>
      <trkpt lat="35.021205553784966" lon="-5.475851744413376">
        <ele>240.467041015625</ele>
        <time>2011-04-24T17:47:37Z</time>
      </trkpt>
      <trkpt lat="35.022296458482742" lon="-5.476205544546247">
        <ele>232.7764892578125</ele>
        <time>2011-04-24T17:47:43Z</time>
      </trkpt>
      <trkpt lat="35.023468164727092" lon="-5.47697676345706">
        <ele>220.7598876953125</ele>
        <time>2011-04-24T17:47:50Z</time>
      </trkpt>
      <trkpt lat="35.024929130449891" lon="-5.478001451119781">
        <ele>204.8980712890625</ele>
        <time>2011-04-24T17:47:59Z</time>
      </trkpt>
      <trkpt lat="35.026553794741631" lon="-5.478507885709405">
        <ele>192.8817138671875</ele>
        <time>2011-04-24T17:48:08Z</time>
      </trkpt>
      <trkpt lat="35.028037559241056" lon="-5.478927819058299">
        <ele>183.7490234375</ele>
        <time>2011-04-24T17:48:17Z</time>
      </trkpt>
      <trkpt lat="35.028198240324855" lon="-5.478936284780502">
        <ele>182.787841796875</ele>
        <time>2011-04-24T17:48:18Z</time>
      </trkpt>
      <trkpt lat="35.028801737353206" lon="-5.478733777999878">
        <ele>174.1358642578125</ele>
        <time>2011-04-24T17:48:22Z</time>
      </trkpt>
      <trkpt lat="35.029646046459675" lon="-5.47816313803196">
        <ele>163.5615234375</ele>
        <time>2011-04-24T17:48:28Z</time>
      </trkpt>
      <trkpt lat="35.029966486617923" lon="-5.477657541632652">
        <ele>159.2354736328125</ele>
        <time>2011-04-24T17:48:32Z</time>
      </trkpt>
      <trkpt lat="35.030314335599542" lon="-5.476866289973259">
        <ele>152.9869384765625</ele>
        <time>2011-04-24T17:48:37Z</time>
      </trkpt>
      <trkpt lat="35.030805766582489" lon="-5.476408218964934">
        <ele>147.218994140625</ele>
        <time>2011-04-24T17:48:41Z</time>
      </trkpt>
      <trkpt lat="35.03186909481883" lon="-5.475854091346264">
        <ele>140.0091552734375</ele>
        <time>2011-04-24T17:48:48Z</time>
      </trkpt>
      <trkpt lat="35.03285757265985" lon="-5.475607747212052">
        <ele>133.760498046875</ele>
        <time>2011-04-24T17:48:54Z</time>
      </trkpt>
      <trkpt lat="35.03386071883142" lon="-5.475340867415071">
        <ele>126.5506591796875</ele>
        <time>2011-04-24T17:49:00Z</time>
      </trkpt>
      <trkpt lat="35.034459186717868" lon="-5.474701328203082">
        <ele>120.3021240234375</ele>
        <time>2011-04-24T17:49:05Z</time>
      </trkpt>
      <trkpt lat="35.034529929980636" lon="-5.474514160305262">
        <ele>118.860107421875</ele>
        <time>2011-04-24T17:49:06Z</time>
      </trkpt>
      <trkpt lat="35.034834276884794" lon="-5.473005836829543">
        <ele>114.0535888671875</ele>
        <time>2011-04-24T17:49:13Z</time>
      </trkpt>
      <trkpt lat="35.034747188910842" lon="-5.471376059576869">
        <ele>115.014892578125</ele>
        <time>2011-04-24T17:49:20Z</time>
      </trkpt>
      <trkpt lat="35.034641660749912" lon="-5.469756675884128">
        <ele>116.9375</ele>
        <time>2011-04-24T17:49:27Z</time>
      </trkpt>
      <trkpt lat="35.03483603708446" lon="-5.468684295192361">
        <ele>117.8988037109375</ele>
        <time>2011-04-24T17:49:32Z</time>
      </trkpt>
      <trkpt lat="35.035385135561228" lon="-5.468052299693227">
        <ele>117.418212890625</ele>
        <time>2011-04-24T17:49:36Z</time>
      </trkpt>
      <trkpt lat="35.035558640956879" lon="-5.467925481498241">
        <ele>117.418212890625</ele>
        <time>2011-04-24T17:49:37Z</time>
      </trkpt>
      <trkpt lat="35.038165831938386" lon="-5.466256393119693">
        <ele>117.8988037109375</ele>
        <time>2011-04-24T17:49:51Z</time>
      </trkpt>
      <trkpt lat="35.038853986188769" lon="-5.465795053169131">
        <ele>119.3408203125</ele>
        <time>2011-04-24T17:49:55Z</time>
      </trkpt>
      <trkpt lat="35.039367293938994" lon="-5.464988043531776">
        <ele>120.3021240234375</ele>
        <time>2011-04-24T17:50:00Z</time>
      </trkpt>
      <trkpt lat="35.03943745046854" lon="-5.46455193310976">
        <ele>120.3021240234375</ele>
        <time>2011-04-24T17:50:02Z</time>
      </trkpt>
      <trkpt lat="35.039444575086236" lon="-5.462384121492505">
        <ele>123.1861572265625</ele>
        <time>2011-04-24T17:50:11Z</time>
      </trkpt>
      <trkpt lat="35.039126062765718" lon="-5.460924999788404">
        <ele>123.666748046875</ele>
        <time>2011-04-24T17:50:17Z</time>
      </trkpt>
      <trkpt lat="35.038251662626863" lon="-5.45836198143661">
        <ele>124.1473388671875</ele>
        <time>2011-04-24T17:50:27Z</time>
      </trkpt>
      <trkpt lat="35.037394864484668" lon="-5.455793598666787">
        <ele>127.511962890625</ele>
        <time>2011-04-24T17:50:37Z</time>
      </trkpt>
      <trkpt lat="35.03687409684062" lon="-5.455114999786019">
        <ele>128.473388671875</ele>
        <time>2011-04-24T17:50:41Z</time>
      </trkpt>
      <trkpt lat="35.034910384565592" lon="-5.453497627750039">
        <ele>128.9541015625</ele>
        <time>2011-04-24T17:50:52Z</time>
      </trkpt>
      <trkpt lat="35.033875973895192" lon="-5.452519375830889">
        <ele>133.2799072265625</ele>
        <time>2011-04-24T17:50:58Z</time>
      </trkpt>
      <trkpt lat="35.033357469365001" lon="-5.451395781710744">
        <ele>138.0865478515625</ele>
        <time>2011-04-24T17:51:03Z</time>
      </trkpt>
      <trkpt lat="35.033097043633461" lon="-5.450707795098424">
        <ele>141.4510498046875</ele>
        <time>2011-04-24T17:51:06Z</time>
      </trkpt>
      <trkpt lat="35.033071395009756" lon="-5.449602138251066">
        <ele>147.218994140625</ele>
        <time>2011-04-24T17:51:11Z</time>
      </trkpt>
      <trkpt lat="35.033179186284542" lon="-5.449225455522537">
        <ele>149.1416015625</ele>
        <time>2011-04-24T17:51:13Z</time>
      </trkpt>
      <trkpt lat="35.033158818259835" lon="-5.448061376810074">
        <ele>151.544921875</ele>
        <time>2011-04-24T17:51:19Z</time>
      </trkpt>
      <trkpt lat="35.033105844631791" lon="-5.447864485904574">
        <ele>152.0257568359375</ele>
        <time>2011-04-24T17:51:20Z</time>
      </trkpt>
      <trkpt lat="35.032483236864209" lon="-5.446530841290951">
        <ele>154.428955078125</ele>
        <time>2011-04-24T17:51:27Z</time>
      </trkpt>
      <trkpt lat="35.032223733142018" lon="-5.445939917117357">
        <ele>154.9095458984375</ele>
        <time>2011-04-24T17:51:30Z</time>
      </trkpt>
      <trkpt lat="35.032089957967401" lon="-5.445123855024576">
        <ele>154.9095458984375</ele>
        <time>2011-04-24T17:51:34Z</time>
      </trkpt>
      <trkpt lat="35.032066321000457" lon="-5.444364035502076">
        <ele>152.9869384765625</ele>
        <time>2011-04-24T17:51:38Z</time>
      </trkpt>
      <trkpt lat="35.0316565297544" lon="-5.443297354504466">
        <ele>149.1416015625</ele>
        <time>2011-04-24T17:51:44Z</time>
      </trkpt>
      <trkpt lat="35.031035766005516" lon="-5.441998075693846">
        <ele>143.8543701171875</ele>
        <time>2011-04-24T17:51:51Z</time>
      </trkpt>
      <trkpt lat="35.030501587316394" lon="-5.440333765000105">
        <ele>140.4898681640625</ele>
        <time>2011-04-24T17:51:59Z</time>
      </trkpt>
      <trkpt lat="35.029909573495388" lon="-5.439657345414162">
        <ele>142.4124755859375</ele>
        <time>2011-04-24T17:52:04Z</time>
      </trkpt>
      <trkpt lat="35.029756017029285" lon="-5.439600180834532">
        <ele>143.8543701171875</ele>
        <time>2011-04-24T17:52:05Z</time>
      </trkpt>
      <trkpt lat="35.029309261590242" lon="-5.439439751207829">
        <ele>145.29638671875</ele>
        <time>2011-04-24T17:52:08Z</time>
      </trkpt>
      <trkpt lat="35.028819842264056" lon="-5.439025517553091">
        <ele>149.1416015625</ele>
        <time>2011-04-24T17:52:12Z</time>
      </trkpt>
      <trkpt lat="35.028130766004324" lon="-5.437791952863336">
        <ele>151.064208984375</ele>
        <time>2011-04-24T17:52:20Z</time>
      </trkpt>
      <trkpt lat="35.027872435748577" lon="-5.436398796737194">
        <ele>148.180419921875</ele>
        <time>2011-04-24T17:52:27Z</time>
      </trkpt>
      <trkpt lat="35.027605053037405" lon="-5.43409033678472">
        <ele>148.6610107421875</ele>
        <time>2011-04-24T17:52:38Z</time>
      </trkpt>
      <trkpt lat="35.027210684493184" lon="-5.431829318404198">
        <ele>151.064208984375</ele>
        <time>2011-04-24T17:52:49Z</time>
      </trkpt>
      <trkpt lat="35.026687486097217" lon="-5.430735060945153">
        <ele>151.544921875</ele>
        <time>2011-04-24T17:52:55Z</time>
      </trkpt>
      <trkpt lat="35.025211349129677" lon="-5.42822384275496">
        <ele>152.0257568359375</ele>
        <time>2011-04-24T17:53:09Z</time>
      </trkpt>
      <trkpt lat="35.024684378877282" lon="-5.427332259714603">
        <ele>152.0257568359375</ele>
        <time>2011-04-24T17:53:15Z</time>
      </trkpt>
      <trkpt lat="35.024292692542076" lon="-5.426304638385773">
        <ele>152.0257568359375</ele>
        <time>2011-04-24T17:53:21Z</time>
      </trkpt>
      <trkpt lat="35.023799166083336" lon="-5.425045927986503">
        <ele>150.10302734375</ele>
        <time>2011-04-24T17:53:28Z</time>
      </trkpt>
      <trkpt lat="35.023327432572842" lon="-5.424130959436297">
        <ele>150.10302734375</ele>
        <time>2011-04-24T17:53:34Z</time>
      </trkpt>
      <trkpt lat="35.022885035723448" lon="-5.423308778554201">
        <ele>150.10302734375</ele>
        <time>2011-04-24T17:53:40Z</time>
      </trkpt>
      <trkpt lat="35.022118594497442" lon="-5.422504534944892">
        <ele>152.50634765625</ele>
        <time>2011-04-24T17:53:47Z</time>
      </trkpt>
      <trkpt lat="35.021881889551878" lon="-5.422290796414018">
        <ele>152.50634765625</ele>
        <time>2011-04-24T17:53:49Z</time>
      </trkpt>
      <trkpt lat="35.021544517949224" lon="-5.421517817303538">
        <ele>151.544921875</ele>
        <time>2011-04-24T17:53:54Z</time>
      </trkpt>
      <trkpt lat="35.021674437448382" lon="-5.420507295057178">
        <ele>144.8157958984375</ele>
        <time>2011-04-24T17:53:59Z</time>
      </trkpt>
      <trkpt lat="35.022320682182908" lon="-5.418362617492676">
        <ele>143.3736572265625</ele>
        <time>2011-04-24T17:54:09Z</time>
      </trkpt>
      <trkpt lat="35.022421767935157" lon="-5.41797143407166">
        <ele>144.8157958984375</ele>
        <time>2011-04-24T17:54:11Z</time>
      </trkpt>
      <trkpt lat="35.022414224222302" lon="-5.416965438053012">
        <ele>148.6610107421875</ele>
        <time>2011-04-24T17:54:16Z</time>
      </trkpt>
      <trkpt lat="35.022037960588932" lon="-5.414853617548943">
        <ele>161.158203125</ele>
        <time>2011-04-24T17:54:26Z</time>
      </trkpt>
      <trkpt lat="35.022040391340852" lon="-5.414643986150622">
        <ele>163.080810546875</ele>
        <time>2011-04-24T17:54:27Z</time>
      </trkpt>
      <trkpt lat="35.022247256711125" lon="-5.413881149142981">
        <ele>168.3680419921875</ele>
        <time>2011-04-24T17:54:31Z</time>
      </trkpt>
      <trkpt lat="35.022524362429976" lon="-5.413167430087924">
        <ele>175.577880859375</ele>
        <time>2011-04-24T17:54:35Z</time>
      </trkpt>
      <trkpt lat="35.022502234205604" lon="-5.412261178717017">
        <ele>185.6717529296875</ele>
        <time>2011-04-24T17:54:40Z</time>
      </trkpt>
      <trkpt lat="35.022353623062372" lon="-5.411773016676307">
        <ele>189.5169677734375</ele>
        <time>2011-04-24T17:54:43Z</time>
      </trkpt>
      <trkpt lat="35.022474322468042" lon="-5.411021998152137">
        <ele>189.5169677734375</ele>
        <time>2011-04-24T17:54:48Z</time>
      </trkpt>
      <trkpt lat="35.022889729589224" lon="-5.410713376477361">
        <ele>183.7490234375</ele>
        <time>2011-04-24T17:54:51Z</time>
      </trkpt>
      <trkpt lat="35.023657344281673" lon="-5.410222699865699">
        <ele>177.981201171875</ele>
        <time>2011-04-24T17:54:56Z</time>
      </trkpt>
      <trkpt lat="35.024463767185807" lon="-5.409968728199601">
        <ele>171.732666015625</ele>
        <time>2011-04-24T17:55:01Z</time>
      </trkpt>
      <trkpt lat="35.025820797309279" lon="-5.409855488687754">
        <ele>160.677490234375</ele>
        <time>2011-04-24T17:55:10Z</time>
      </trkpt>
      <trkpt lat="35.025959685444832" lon="-5.409823972731829">
        <ele>159.2354736328125</ele>
        <time>2011-04-24T17:55:11Z</time>
      </trkpt>
      <trkpt lat="35.026717158034444" lon="-5.409307479858398">
        <ele>152.0257568359375</ele>
        <time>2011-04-24T17:55:17Z</time>
      </trkpt>
      <trkpt lat="35.027064587920904" lon="-5.408746646717191">
        <ele>146.7384033203125</ele>
        <time>2011-04-24T17:55:21Z</time>
      </trkpt>
      <trkpt lat="35.027381423860788" lon="-5.407837461680174">
        <ele>141.4510498046875</ele>
        <time>2011-04-24T17:55:28Z</time>
      </trkpt>
      <trkpt lat="35.027747377753258" lon="-5.407309737056494">
        <ele>141.4510498046875</ele>
        <time>2011-04-24T17:55:33Z</time>
      </trkpt>
      <trkpt lat="35.028582885861397" lon="-5.406261747702956">
        <ele>143.8543701171875</ele>
        <time>2011-04-24T17:55:42Z</time>
      </trkpt>
      <trkpt lat="35.029434487223625" lon="-5.404909243807197">
        <ele>146.7384033203125</ele>
        <time>2011-04-24T17:55:52Z</time>
      </trkpt>
      <trkpt lat="35.029886271804571" lon="-5.403621783480048">
        <ele>146.7384033203125</ele>
        <time>2011-04-24T17:56:00Z</time>
      </trkpt>
      <trkpt lat="35.030312240123749" lon="-5.403194222599268">
        <ele>147.218994140625</ele>
        <time>2011-04-24T17:56:04Z</time>
      </trkpt>
      <trkpt lat="35.030735023319721" lon="-5.402991631999612">
        <ele>148.6610107421875</ele>
        <time>2011-04-24T17:56:07Z</time>
      </trkpt>
      <trkpt lat="35.031319661065936" lon="-5.4023826867342">
        <ele>152.0257568359375</ele>
        <time>2011-04-24T17:56:12Z</time>
      </trkpt>
      <trkpt lat="35.032256590202451" lon="-5.400817785412073">
        <ele>162.1195068359375</ele>
        <time>2011-04-24T17:56:22Z</time>
      </trkpt>
      <trkpt lat="35.032301433384418" lon="-5.400042291730642">
        <ele>166.4453125</ele>
        <time>2011-04-24T17:56:27Z</time>
      </trkpt>
      <trkpt lat="35.032217781990767" lon="-5.399894434958696">
        <ele>167.40673828125</ele>
        <time>2011-04-24T17:56:28Z</time>
      </trkpt>
      <trkpt lat="35.031345980241895" lon="-5.398462219163775">
        <ele>179.90380859375</ele>
        <time>2011-04-24T17:56:38Z</time>
      </trkpt>
      <trkpt lat="35.030198832973838" lon="-5.397157827392221">
        <ele>189.036376953125</ele>
        <time>2011-04-24T17:56:47Z</time>
      </trkpt>
      <trkpt lat="35.028577437624335" lon="-5.395316323265433">
        <ele>187.5943603515625</ele>
        <time>2011-04-24T17:57:00Z</time>
      </trkpt>
      <trkpt lat="35.027447054162621" lon="-5.394117292016745">
        <ele>182.30712890625</ele>
        <time>2011-04-24T17:57:09Z</time>
      </trkpt>
      <trkpt lat="35.027177073061466" lon="-5.393927274271846">
        <ele>180.865234375</ele>
        <time>2011-04-24T17:57:11Z</time>
      </trkpt>
      <trkpt lat="35.026746494695544" lon="-5.393389072269201">
        <ele>178.4619140625</ele>
        <time>2011-04-24T17:57:15Z</time>
      </trkpt>
      <trkpt lat="35.02597376704216" lon="-5.391511274501681">
        <ele>176.05859375</ele>
        <time>2011-04-24T17:57:25Z</time>
      </trkpt>
      <trkpt lat="35.026048282161355" lon="-5.390645926818252">
        <ele>174.6165771484375</ele>
        <time>2011-04-24T17:57:30Z</time>
      </trkpt>
      <trkpt lat="35.026328321546316" lon="-5.389496181160212">
        <ele>173.1746826171875</ele>
        <time>2011-04-24T17:57:36Z</time>
      </trkpt>
      <trkpt lat="35.02634952776134" lon="-5.389292165637016">
        <ele>172.6939697265625</ele>
        <time>2011-04-24T17:57:37Z</time>
      </trkpt>
      <trkpt lat="35.026156660169363" lon="-5.388313326984644">
        <ele>170.7713623046875</ele>
        <time>2011-04-24T17:57:42Z</time>
      </trkpt>
      <trkpt lat="35.025010770186782" lon="-5.385982571169734">
        <ele>174.1358642578125</ele>
        <time>2011-04-24T17:57:54Z</time>
      </trkpt>
      <trkpt lat="35.024851430207491" lon="-5.385629944503307">
        <ele>174.6165771484375</ele>
        <time>2011-04-24T17:57:56Z</time>
      </trkpt>
      <trkpt lat="35.024584634229541" lon="-5.384231591597199">
        <ele>173.6552734375</ele>
        <time>2011-04-24T17:58:03Z</time>
      </trkpt>
      <trkpt lat="35.024748835712671" lon="-5.383050497621298">
        <ele>174.1358642578125</ele>
        <time>2011-04-24T17:58:09Z</time>
      </trkpt>
      <trkpt lat="35.025110179558396" lon="-5.382447084411979">
        <ele>173.6552734375</ele>
        <time>2011-04-24T17:58:13Z</time>
      </trkpt>
      <trkpt lat="35.025595156475902" lon="-5.381372859701514">
        <ele>175.577880859375</ele>
        <time>2011-04-24T17:58:20Z</time>
      </trkpt>
      <trkpt lat="35.025673778727651" lon="-5.379211753606796">
        <ele>175.0972900390625</ele>
        <time>2011-04-24T17:58:31Z</time>
      </trkpt>
      <trkpt lat="35.025719627737999" lon="-5.378031749278307">
        <ele>174.1358642578125</ele>
        <time>2011-04-24T17:58:37Z</time>
      </trkpt>
      <trkpt lat="35.026110978797078" lon="-5.377318616956472">
        <ele>168.8487548828125</ele>
        <time>2011-04-24T17:58:42Z</time>
      </trkpt>
      <trkpt lat="35.026345336809754" lon="-5.377100352197886">
        <ele>169.3294677734375</ele>
        <time>2011-04-24T17:58:44Z</time>
      </trkpt>
      <trkpt lat="35.026635685935616" lon="-5.376405995339155">
        <ele>171.732666015625</ele>
        <time>2011-04-24T17:58:49Z</time>
      </trkpt>
      <trkpt lat="35.026777759194374" lon="-5.374609418213368">
        <ele>171.732666015625</ele>
        <time>2011-04-24T17:58:59Z</time>
      </trkpt>
      <trkpt lat="35.026996526867151" lon="-5.372079089283943">
        <ele>179.90380859375</ele>
        <time>2011-04-24T17:59:12Z</time>
      </trkpt>
      <trkpt lat="35.027044555172324" lon="-5.371672483161092">
        <ele>179.90380859375</ele>
        <time>2011-04-24T17:59:14Z</time>
      </trkpt>
      <trkpt lat="35.027485862374306" lon="-5.370836723595858">
        <ele>177.5006103515625</ele>
        <time>2011-04-24T17:59:19Z</time>
      </trkpt>
      <trkpt lat="35.027627432718873" lon="-5.370707139372826">
        <ele>176.05859375</ele>
        <time>2011-04-24T17:59:20Z</time>
      </trkpt>
      <trkpt lat="35.029231645166874" lon="-5.369240054860711">
        <ele>173.1746826171875</ele>
        <time>2011-04-24T17:59:30Z</time>
      </trkpt>
      <trkpt lat="35.03056394867599" lon="-5.367880091071129">
        <ele>172.6939697265625</ele>
        <time>2011-04-24T17:59:39Z</time>
      </trkpt>
      <trkpt lat="35.031095193699002" lon="-5.367269217967987">
        <ele>172.6939697265625</ele>
        <time>2011-04-24T17:59:43Z</time>
      </trkpt>
      <trkpt lat="35.031968671828508" lon="-5.366689441725612">
        <ele>172.6939697265625</ele>
        <time>2011-04-24T17:59:49Z</time>
      </trkpt>
      <trkpt lat="35.032575353980064" lon="-5.365852676331997">
        <ele>172.2132568359375</ele>
        <time>2011-04-24T17:59:55Z</time>
      </trkpt>
      <trkpt lat="35.033516474068165" lon="-5.364207979291678">
        <ele>174.1358642578125</ele>
        <time>2011-04-24T18:00:04Z</time>
      </trkpt>
      <trkpt lat="35.03420228138566" lon="-5.363091677427292">
        <ele>177.5006103515625</ele>
        <time>2011-04-24T18:00:10Z</time>
      </trkpt>
      <trkpt lat="35.035494267940521" lon="-5.36200144328177">
        <ele>181.826416015625</ele>
        <time>2011-04-24T18:00:18Z</time>
      </trkpt>
      <trkpt lat="35.037060594186187" lon="-5.360716497525573">
        <ele>188.5557861328125</ele>
        <time>2011-04-24T18:00:28Z</time>
      </trkpt>
      <trkpt lat="35.037301490083337" lon="-5.360451294109225">
        <ele>188.5557861328125</ele>
        <time>2011-04-24T18:00:30Z</time>
      </trkpt>
      <trkpt lat="35.03788118250668" lon="-5.360221127048135">
        <ele>187.11376953125</ele>
        <time>2011-04-24T18:00:34Z</time>
      </trkpt>
      <trkpt lat="35.039731152355671" lon="-5.360207632184029">
        <ele>184.2298583984375</ele>
        <time>2011-04-24T18:00:44Z</time>
      </trkpt>
      <trkpt lat="35.040409248322248" lon="-5.360182235017419">
        <ele>184.2298583984375</ele>
        <time>2011-04-24T18:00:48Z</time>
      </trkpt>
      <trkpt lat="35.040959771722555" lon="-5.359738832339644">
        <ele>181.826416015625</ele>
        <time>2011-04-24T18:00:53Z</time>
      </trkpt>
      <trkpt lat="35.041091032326221" lon="-5.359029555693269">
        <ele>177.981201171875</ele>
        <time>2011-04-24T18:00:57Z</time>
      </trkpt>
      <trkpt lat="35.041089439764619" lon="-5.358832832425833">
        <ele>177.981201171875</ele>
        <time>2011-04-24T18:00:58Z</time>
      </trkpt>
      <trkpt lat="35.041079632937908" lon="-5.358259594067931">
        <ele>177.5006103515625</ele>
        <time>2011-04-24T18:01:01Z</time>
      </trkpt>
      <trkpt lat="35.041382219642401" lon="-5.357408076524735">
        <ele>179.4232177734375</ele>
        <time>2011-04-24T18:01:06Z</time>
      </trkpt>
      <trkpt lat="35.042040785774589" lon="-5.356099745258689">
        <ele>184.2298583984375</ele>
        <time>2011-04-24T18:01:14Z</time>
      </trkpt>
      <trkpt lat="35.042625088244677" lon="-5.354397296905518">
        <ele>186.1524658203125</ele>
        <time>2011-04-24T18:01:23Z</time>
      </trkpt>
      <trkpt lat="35.042781243100762" lon="-5.353798996657133">
        <ele>185.6717529296875</ele>
        <time>2011-04-24T18:01:26Z</time>
      </trkpt>
      <trkpt lat="35.043304860591888" lon="-5.353161888197064">
        <ele>184.7105712890625</ele>
        <time>2011-04-24T18:01:31Z</time>
      </trkpt>
      <trkpt lat="35.043912129476666" lon="-5.352832730859518">
        <ele>186.6331787109375</ele>
        <time>2011-04-24T18:01:35Z</time>
      </trkpt>
      <trkpt lat="35.044523673132062" lon="-5.352775482460856">
        <ele>190.4783935546875</ele>
        <time>2011-04-24T18:01:39Z</time>
      </trkpt>
      <trkpt lat="35.046231485903263" lon="-5.353311253711581">
        <ele>190.4783935546875</ele>
        <time>2011-04-24T18:01:49Z</time>
      </trkpt>
      <trkpt lat="35.046565756201744" lon="-5.353404628112912">
        <ele>190.958984375</ele>
        <time>2011-04-24T18:01:51Z</time>
      </trkpt>
      <trkpt lat="35.04736396484077" lon="-5.353255765512586">
        <ele>189.5169677734375</ele>
        <time>2011-04-24T18:01:56Z</time>
      </trkpt>
      <trkpt lat="35.047513162717223" lon="-5.353140933439136">
        <ele>189.036376953125</ele>
        <time>2011-04-24T18:01:57Z</time>
      </trkpt>
      <trkpt lat="35.048721665516496" lon="-5.352047430351377">
        <ele>189.5169677734375</ele>
        <time>2011-04-24T18:02:06Z</time>
      </trkpt>
      <trkpt lat="35.05040374584496" lon="-5.35058755427599">
        <ele>196.246337890625</ele>
        <time>2011-04-24T18:02:19Z</time>
      </trkpt>
      <trkpt lat="35.051567237824202" lon="-5.349433952942491">
        <ele>201.0528564453125</ele>
        <time>2011-04-24T18:02:29Z</time>
      </trkpt>
      <trkpt lat="35.052771884948015" lon="-5.347584066912532">
        <ele>205.8594970703125</ele>
        <time>2011-04-24T18:02:41Z</time>
      </trkpt>
      <trkpt lat="35.053399186581373" lon="-5.345819341018796">
        <ele>208.743408203125</ele>
        <time>2011-04-24T18:02:50Z</time>
      </trkpt>
      <trkpt lat="35.054217427968979" lon="-5.343567123636603">
        <ele>214.991943359375</ele>
        <time>2011-04-24T18:03:01Z</time>
      </trkpt>
      <trkpt lat="35.054928464815021" lon="-5.342571688815951">
        <ele>219.3179931640625</ele>
        <time>2011-04-24T18:03:07Z</time>
      </trkpt>
      <trkpt lat="35.055469432845712" lon="-5.341921923682094">
        <ele>222.6824951171875</ele>
        <time>2011-04-24T18:03:11Z</time>
      </trkpt>
      <trkpt lat="35.056105870753527" lon="-5.340533964335918">
        <ele>226.047119140625</ele>
        <time>2011-04-24T18:03:18Z</time>
      </trkpt>
      <trkpt lat="35.057003488764167" lon="-5.339023796841502">
        <ele>221.72119140625</ele>
        <time>2011-04-24T18:03:25Z</time>
      </trkpt>
      <trkpt lat="35.058310395106673" lon="-5.336864953860641">
        <ele>220.7598876953125</ele>
        <time>2011-04-24T18:03:35Z</time>
      </trkpt>
      <trkpt lat="35.059112878516316" lon="-5.335550336167216">
        <ele>221.72119140625</ele>
        <time>2011-04-24T18:03:42Z</time>
      </trkpt>
      <trkpt lat="35.060065817087889" lon="-5.334852123633027">
        <ele>222.2017822265625</ele>
        <time>2011-04-24T18:03:48Z</time>
      </trkpt>
      <trkpt lat="35.060624554753304" lon="-5.33473452553153">
        <ele>222.2017822265625</ele>
        <time>2011-04-24T18:03:51Z</time>
      </trkpt>
      <trkpt lat="35.061012553051114" lon="-5.334715163335204">
        <ele>222.2017822265625</ele>
        <time>2011-04-24T18:03:53Z</time>
      </trkpt>
      <trkpt lat="35.061936071142554" lon="-5.334330685436726">
        <ele>223.643798828125</ele>
        <time>2011-04-24T18:03:58Z</time>
      </trkpt>
      <trkpt lat="35.062459018081427" lon="-5.334019968286157">
        <ele>225.5665283203125</ele>
        <time>2011-04-24T18:04:01Z</time>
      </trkpt>
      <trkpt lat="35.063569033518434" lon="-5.33286988735199">
        <ele>230.853759765625</ele>
        <time>2011-04-24T18:04:09Z</time>
      </trkpt>
      <trkpt lat="35.064576454460621" lon="-5.332365548238158">
        <ele>230.853759765625</ele>
        <time>2011-04-24T18:04:15Z</time>
      </trkpt>
      <trkpt lat="35.064923549070954" lon="-5.332215763628483">
        <ele>230.373046875</ele>
        <time>2011-04-24T18:04:17Z</time>
      </trkpt>
      <trkpt lat="35.065522436052561" lon="-5.331679740920663">
        <ele>229.892333984375</ele>
        <time>2011-04-24T18:04:21Z</time>
      </trkpt>
      <trkpt lat="35.066055357456207" lon="-5.330974822863936">
        <ele>231.3343505859375</ele>
        <time>2011-04-24T18:04:25Z</time>
      </trkpt>
      <trkpt lat="35.066825319081545" lon="-5.330424131825566">
        <ele>235.1796875</ele>
        <time>2011-04-24T18:04:30Z</time>
      </trkpt>
      <trkpt lat="35.066993627697229" lon="-5.330385826528072">
        <ele>236.6217041015625</ele>
        <time>2011-04-24T18:04:31Z</time>
      </trkpt>
      <trkpt lat="35.067485393956304" lon="-5.330260181799531">
        <ele>240.467041015625</ele>
        <time>2011-04-24T18:04:34Z</time>
      </trkpt>
      <trkpt lat="35.068266168236732" lon="-5.329615026712418">
        <ele>246.7154541015625</ele>
        <time>2011-04-24T18:04:40Z</time>
      </trkpt>
      <trkpt lat="35.068360045552254" lon="-5.32946172170341">
        <ele>247.6767578125</ele>
        <time>2011-04-24T18:04:41Z</time>
      </trkpt>
      <trkpt lat="35.068821553140879" lon="-5.328639037907124">
        <ele>253.4447021484375</ele>
        <time>2011-04-24T18:04:46Z</time>
      </trkpt>
      <trkpt lat="35.069004949182272" lon="-5.327842840924859">
        <ele>258.2513427734375</ele>
        <time>2011-04-24T18:04:50Z</time>
      </trkpt>
      <trkpt lat="35.069025065749884" lon="-5.327415699139237">
        <ele>260.654541015625</ele>
        <time>2011-04-24T18:04:52Z</time>
      </trkpt>
      <trkpt lat="35.069267218932509" lon="-5.326621262356639">
        <ele>262.5771484375</ele>
        <time>2011-04-24T18:04:56Z</time>
      </trkpt>
      <trkpt lat="35.069567123427987" lon="-5.326095381751657">
        <ele>260.654541015625</ele>
        <time>2011-04-24T18:04:59Z</time>
      </trkpt>
      <trkpt lat="35.070445043966174" lon="-5.325386021286249">
        <ele>256.809326171875</ele>
        <time>2011-04-24T18:05:05Z</time>
      </trkpt>
      <trkpt lat="35.070797670632601" lon="-5.325224753469229">
        <ele>254.8865966796875</ele>
        <time>2011-04-24T18:05:07Z</time>
      </trkpt>
      <trkpt lat="35.071917744353414" lon="-5.324333757162094">
        <ele>249.1187744140625</ele>
        <time>2011-04-24T18:05:14Z</time>
      </trkpt>
      <trkpt lat="35.072318399325013" lon="-5.323615092784166">
        <ele>248.1575927734375</ele>
        <time>2011-04-24T18:05:18Z</time>
      </trkpt>
      <trkpt lat="35.072449492290616" lon="-5.323220053687692">
        <ele>248.63818359375</ele>
        <time>2011-04-24T18:05:20Z</time>
      </trkpt>
      <trkpt lat="35.072891134768724" lon="-5.322599792852998">
        <ele>249.5994873046875</ele>
        <time>2011-04-24T18:05:24Z</time>
      </trkpt>
      <trkpt lat="35.073883468285203" lon="-5.321664959192276">
        <ele>252.4833984375</ele>
        <time>2011-04-24T18:05:32Z</time>
      </trkpt>
      <trkpt lat="35.074156131595373" lon="-5.320945624262095">
        <ele>255.3673095703125</ele>
        <time>2011-04-24T18:05:37Z</time>
      </trkpt>
      <trkpt lat="35.074136182665825" lon="-5.320793744176626">
        <ele>255.8480224609375</ele>
        <time>2011-04-24T18:05:38Z</time>
      </trkpt>
      <trkpt lat="35.073829824104905" lon="-5.319319786503911">
        <ele>260.654541015625</ele>
        <time>2011-04-24T18:05:47Z</time>
      </trkpt>
      <trkpt lat="35.07362924516201" lon="-5.318382270634174">
        <ele>263.057861328125</ele>
        <time>2011-04-24T18:05:52Z</time>
      </trkpt>
      <trkpt lat="35.073660090565681" lon="-5.317658660933375">
        <ele>264.4998779296875</ele>
        <time>2011-04-24T18:05:56Z</time>
      </trkpt>
      <trkpt lat="35.073775928467512" lon="-5.317116435617209">
        <ele>263.53857421875</ele>
        <time>2011-04-24T18:05:59Z</time>
      </trkpt>
      <trkpt lat="35.073786741122603" lon="-5.315990326926112">
        <ele>264.019287109375</ele>
        <time>2011-04-24T18:06:05Z</time>
      </trkpt>
      <trkpt lat="35.074068289250135" lon="-5.314901266247034">
        <ele>263.057861328125</ele>
        <time>2011-04-24T18:06:11Z</time>
      </trkpt>
      <trkpt lat="35.074214721098542" lon="-5.314569678157568">
        <ele>263.53857421875</ele>
        <time>2011-04-24T18:06:13Z</time>
      </trkpt>
      <trkpt lat="35.074754096567631" lon="-5.313929049298167">
        <ele>264.9805908203125</ele>
        <time>2011-04-24T18:06:18Z</time>
      </trkpt>
      <trkpt lat="35.075311744585633" lon="-5.313587738201022">
        <ele>267.3839111328125</ele>
        <time>2011-04-24T18:06:22Z</time>
      </trkpt>
      <trkpt lat="35.075890095904469" lon="-5.313456896692514">
        <ele>272.671142578125</ele>
        <time>2011-04-24T18:06:26Z</time>
      </trkpt>
      <trkpt lat="35.076784277334809" lon="-5.313540128991008">
        <ele>279.4002685546875</ele>
        <time>2011-04-24T18:06:32Z</time>
      </trkpt>
      <trkpt lat="35.077315270900726" lon="-5.313243744894862">
        <ele>283.7261962890625</ele>
        <time>2011-04-24T18:06:37Z</time>
      </trkpt>
      <trkpt lat="35.077446363866329" lon="-5.312823643907905">
        <ele>287.5714111328125</ele>
        <time>2011-04-24T18:06:40Z</time>
      </trkpt>
      <trkpt lat="35.077550383284688" lon="-5.312233725562692">
        <ele>292.8587646484375</ele>
        <time>2011-04-24T18:06:44Z</time>
      </trkpt>
      <trkpt lat="35.077883647754788" lon="-5.311683621257544">
        <ele>298.626708984375</ele>
        <time>2011-04-24T18:06:49Z</time>
      </trkpt>
      <trkpt lat="35.078090764582157" lon="-5.311583038419485">
        <ele>300.54931640625</ele>
        <time>2011-04-24T18:06:51Z</time>
      </trkpt>
      <trkpt lat="35.078311460092664" lon="-5.311508690938354">
        <ele>302.471923828125</ele>
        <time>2011-04-24T18:06:53Z</time>
      </trkpt>
      <trkpt lat="35.078633660450578" lon="-5.311162853613496">
        <ele>306.3172607421875</ele>
        <time>2011-04-24T18:06:57Z</time>
      </trkpt>
      <trkpt lat="35.07875301875174" lon="-5.310928244143724">
        <ele>308.2398681640625</ele>
        <time>2011-04-24T18:06:59Z</time>
      </trkpt>
      <trkpt lat="35.079316198825836" lon="-5.310429353266954">
        <ele>313.0465087890625</ele>
        <time>2011-04-24T18:07:05Z</time>
      </trkpt>
      <trkpt lat="35.079979877918959" lon="-5.309821665287018">
        <ele>323.140380859375</ele>
        <time>2011-04-24T18:07:12Z</time>
      </trkpt>
      <trkpt lat="35.080407522618771" lon="-5.30961069278419">
        <ele>328.9083251953125</ele>
        <time>2011-04-24T18:07:16Z</time>
      </trkpt>
      <trkpt lat="35.08077104575932" lon="-5.30955352820456">
        <ele>333.234130859375</ele>
        <time>2011-04-24T18:07:19Z</time>
      </trkpt>
      <trkpt lat="35.081163318827748" lon="-5.309288492426276">
        <ele>340.444091796875</ele>
        <time>2011-04-24T18:07:23Z</time>
      </trkpt>
      <trkpt lat="35.081779221072793" lon="-5.308489864692092">
        <ele>348.615234375</ele>
        <time>2011-04-24T18:07:31Z</time>
      </trkpt>
      <trkpt lat="35.082297557964921" lon="-5.308216530829668">
        <ele>349.0958251953125</ele>
        <time>2011-04-24T18:07:37Z</time>
      </trkpt>
      <trkpt lat="35.082645323127508" lon="-5.308388527482748">
        <ele>351.0184326171875</ele>
        <time>2011-04-24T18:07:42Z</time>
      </trkpt>
      <trkpt lat="35.082738948985934" lon="-5.308490870520473">
        <ele>351.9798583984375</ele>
        <time>2011-04-24T18:07:44Z</time>
      </trkpt>
      <trkpt lat="35.08295226842165" lon="-5.308568235486746">
        <ele>352.4605712890625</ele>
        <time>2011-04-24T18:07:49Z</time>
      </trkpt>
      <trkpt lat="35.083475885912776" lon="-5.308664878830314">
        <ele>350.537841796875</ele>
        <time>2011-04-24T18:07:56Z</time>
      </trkpt>
      <trkpt lat="35.084077455103397" lon="-5.308550549671054">
        <ele>351.9798583984375</ele>
        <time>2011-04-24T18:08:01Z</time>
      </trkpt>
      <trkpt lat="35.084412563592196" lon="-5.308333374559879">
        <ele>353.902587890625</ele>
        <time>2011-04-24T18:08:04Z</time>
      </trkpt>
      <trkpt lat="35.08480416610837" lon="-5.307735241949558">
        <ele>359.189697265625</ele>
        <time>2011-04-24T18:08:09Z</time>
      </trkpt>
      <trkpt lat="35.085070123896003" lon="-5.307399965822697">
        <ele>361.5931396484375</ele>
        <time>2011-04-24T18:08:12Z</time>
      </trkpt>
      <trkpt lat="35.085793398320675" lon="-5.306792529299855">
        <ele>368.802978515625</ele>
        <time>2011-04-24T18:08:20Z</time>
      </trkpt>
      <trkpt lat="35.086110234260559" lon="-5.306604439392686">
        <ele>372.16748046875</ele>
        <time>2011-04-24T18:08:27Z</time>
      </trkpt>
      <trkpt lat="35.086601162329316" lon="-5.306590525433421">
        <ele>375.5321044921875</ele>
        <time>2011-04-24T18:08:38Z</time>
      </trkpt>
      <trkpt lat="35.086741140112281" lon="-5.306627238169313">
        <ele>376.9742431640625</ele>
        <time>2011-04-24T18:08:41Z</time>
      </trkpt>
      <trkpt lat="35.087208431214094" lon="-5.306804683059454">
        <ele>379.37744140625</ele>
        <time>2011-04-24T18:08:47Z</time>
      </trkpt>
      <trkpt lat="35.088045867159963" lon="-5.307365516200662">
        <ele>383.22265625</ele>
        <time>2011-04-24T18:08:55Z</time>
      </trkpt>
      <trkpt lat="35.088265724480152" lon="-5.307511445134878">
        <ele>383.7032470703125</ele>
        <time>2011-04-24T18:08:57Z</time>
      </trkpt>
      <trkpt lat="35.088840136304498" lon="-5.30746316537261">
        <ele>384.664794921875</ele>
        <time>2011-04-24T18:09:02Z</time>
      </trkpt>
      <trkpt lat="35.089488057419658" lon="-5.3073600679636">
        <ele>385.1453857421875</ele>
        <time>2011-04-24T18:09:08Z</time>
      </trkpt>
      <trkpt lat="35.089702550321817" lon="-5.307492082938552">
        <ele>385.6259765625</ele>
        <time>2011-04-24T18:09:10Z</time>
      </trkpt>
      <trkpt lat="35.090301856398582" lon="-5.307518821209669">
        <ele>387.548583984375</ele>
        <time>2011-04-24T18:09:15Z</time>
      </trkpt>
      <trkpt lat="35.090443594381213" lon="-5.307182371616364">
        <ele>387.548583984375</ele>
        <time>2011-04-24T18:09:18Z</time>
      </trkpt>
      <trkpt lat="35.09098338894546" lon="-5.306777022778988">
        <ele>388.9906005859375</ele>
        <time>2011-04-24T18:09:24Z</time>
      </trkpt>
      <trkpt lat="35.091226296499372" lon="-5.306855561211705">
        <ele>389.951904296875</ele>
        <time>2011-04-24T18:09:26Z</time>
      </trkpt>
      <trkpt lat="35.092693967744708" lon="-5.307543128728867">
        <ele>401.007080078125</ele>
        <time>2011-04-24T18:09:37Z</time>
      </trkpt>
      <trkpt lat="35.093219764530659" lon="-5.307806739583612">
        <ele>405.3330078125</ele>
        <time>2011-04-24T18:09:41Z</time>
      </trkpt>
      <trkpt lat="35.093497540801764" lon="-5.308237234130502">
        <ele>408.6976318359375</ele>
        <time>2011-04-24T18:09:45Z</time>
      </trkpt>
      <trkpt lat="35.093551687896252" lon="-5.308523895218968">
        <ele>409.6590576171875</ele>
        <time>2011-04-24T18:09:47Z</time>
      </trkpt>
      <trkpt lat="35.093767438083887" lon="-5.309274829924107">
        <ele>413.5042724609375</ele>
        <time>2011-04-24T18:09:52Z</time>
      </trkpt>
      <trkpt lat="35.094141438603401" lon="-5.309798866510391">
        <ele>417.349609375</ele>
        <time>2011-04-24T18:09:57Z</time>
      </trkpt>
      <trkpt lat="35.094392560422421" lon="-5.309792244806886">
        <ele>418.79150390625</ele>
        <time>2011-04-24T18:09:59Z</time>
      </trkpt>
      <trkpt lat="35.095412889495492" lon="-5.309631563723087">
        <ele>425.0401611328125</ele>
        <time>2011-04-24T18:10:06Z</time>
      </trkpt>
      <trkpt lat="35.096066761761904" lon="-5.3092285618186">
        <ele>430.8079833984375</ele>
        <time>2011-04-24T18:10:11Z</time>
      </trkpt>
      <trkpt lat="35.096172792837024" lon="-5.309095541015267">
        <ele>432.730712890625</ele>
        <time>2011-04-24T18:10:12Z</time>
      </trkpt>
      <trkpt lat="35.097244922071695" lon="-5.307356882840395">
        <ele>450.99560546875</ele>
        <time>2011-04-24T18:10:23Z</time>
      </trkpt>
      <trkpt lat="35.097601488232613" lon="-5.30671994201839">
        <ele>455.321533203125</ele>
        <time>2011-04-24T18:10:27Z</time>
      </trkpt>
      <trkpt lat="35.097733670845628" lon="-5.305842692032456">
        <ele>457.7249755859375</ele>
        <time>2011-04-24T18:10:32Z</time>
      </trkpt>
      <trkpt lat="35.097602242603898" lon="-5.305474475026131">
        <ele>459.1668701171875</ele>
        <time>2011-04-24T18:10:34Z</time>
      </trkpt>
      <trkpt lat="35.096982652321458" lon="-5.304236048832536">
        <ele>464.934814453125</ele>
        <time>2011-04-24T18:10:41Z</time>
      </trkpt>
      <trkpt lat="35.096850134432316" lon="-5.30355317518115">
        <ele>466.857421875</ele>
        <time>2011-04-24T18:10:45Z</time>
      </trkpt>
      <trkpt lat="35.096875447779894" lon="-5.302697047591209">
        <ele>463.0120849609375</ele>
        <time>2011-04-24T18:10:50Z</time>
      </trkpt>
      <trkpt lat="35.097037134692073" lon="-5.30202372930944">
        <ele>457.7249755859375</ele>
        <time>2011-04-24T18:10:54Z</time>
      </trkpt>
      <trkpt lat="35.097522865980864" lon="-5.300908433273435">
        <ele>447.1502685546875</ele>
        <time>2011-04-24T18:11:01Z</time>
      </trkpt>
      <trkpt lat="35.098300874233246" lon="-5.30002229847014">
        <ele>436.575927734375</ele>
        <time>2011-04-24T18:11:08Z</time>
      </trkpt>
      <trkpt lat="35.09914007037878" lon="-5.299422824755311">
        <ele>427.9239501953125</ele>
        <time>2011-04-24T18:11:14Z</time>
      </trkpt>
      <trkpt lat="35.100107928737998" lon="-5.298704579472542">
        <ele>417.349609375</ele>
        <time>2011-04-24T18:11:21Z</time>
      </trkpt>
      <trkpt lat="35.100481929257512" lon="-5.297917937859893">
        <ele>413.5042724609375</ele>
        <time>2011-04-24T18:11:26Z</time>
      </trkpt>
      <trkpt lat="35.100607490167022" lon="-5.297188963741064">
        <ele>411.5816650390625</ele>
        <time>2011-04-24T18:11:30Z</time>
      </trkpt>
      <trkpt lat="35.101117277517915" lon="-5.296270977705717">
        <ele>408.217041015625</ele>
        <time>2011-04-24T18:11:36Z</time>
      </trkpt>
      <trkpt lat="35.102348998188972" lon="-5.294590573757887">
        <ele>398.603759765625</ele>
        <time>2011-04-24T18:11:47Z</time>
      </trkpt>
      <trkpt lat="35.103510143235326" lon="-5.293516684323549">
        <ele>391.87451171875</ele>
        <time>2011-04-24T18:11:55Z</time>
      </trkpt>
      <trkpt lat="35.104174744337797" lon="-5.292855016887188">
        <ele>389.47119140625</ele>
        <time>2011-04-24T18:12:00Z</time>
      </trkpt>
      <trkpt lat="35.104606999084353" lon="-5.291843991726637">
        <ele>388.029296875</ele>
        <time>2011-04-24T18:12:06Z</time>
      </trkpt>
      <trkpt lat="35.104749072343111" lon="-5.291505865752697">
        <ele>387.548583984375</ele>
        <time>2011-04-24T18:12:08Z</time>
      </trkpt>
      <trkpt lat="35.105572761967778" lon="-5.290260147303343">
        <ele>386.106689453125</ele>
        <time>2011-04-24T18:12:16Z</time>
      </trkpt>
      <trkpt lat="35.106177516281605" lon="-5.289606442674995">
        <ele>381.7806396484375</ele>
        <time>2011-04-24T18:12:21Z</time>
      </trkpt>
      <trkpt lat="35.106699792668223" lon="-5.289368899539113">
        <ele>378.4161376953125</ele>
        <time>2011-04-24T18:12:25Z</time>
      </trkpt>
      <trkpt lat="35.10794903151691" lon="-5.289032030850649">
        <ele>373.12890625</ele>
        <time>2011-04-24T18:12:34Z</time>
      </trkpt>
      <trkpt lat="35.108771547675133" lon="-5.288824997842312">
        <ele>369.7642822265625</ele>
        <time>2011-04-24T18:12:40Z</time>
      </trkpt>
      <trkpt lat="35.109252920374274" lon="-5.288538755849004">
        <ele>367.841552734375</ele>
        <time>2011-04-24T18:12:44Z</time>
      </trkpt>
      <trkpt lat="35.110070239752531" lon="-5.287724370136857">
        <ele>370.244873046875</ele>
        <time>2011-04-24T18:12:53Z</time>
      </trkpt>
      <trkpt lat="35.110435271635652" lon="-5.287268478423357">
        <ele>369.7642822265625</ele>
        <time>2011-04-24T18:13:01Z</time>
      </trkpt>
      <trkpt lat="35.110510541126132" lon="-5.286999335512519">
        <ele>368.802978515625</ele>
        <time>2011-04-24T18:13:11Z</time>
      </trkpt>
      <trkpt lat="35.110766859725118" lon="-5.286898417398334">
        <ele>366.8802490234375</ele>
        <time>2011-04-24T18:13:16Z</time>
      </trkpt>
      <trkpt lat="35.111875953152776" lon="-5.287263365462422">
        <ele>364.4769287109375</ele>
        <time>2011-04-24T18:13:30Z</time>
      </trkpt>
      <trkpt lat="35.113001223653555" lon="-5.287475176155567">
        <ele>362.5543212890625</ele>
        <time>2011-04-24T18:13:40Z</time>
      </trkpt>
      <trkpt lat="35.114476690068841" lon="-5.287777846679092">
        <ele>362.07373046875</ele>
        <time>2011-04-24T18:13:51Z</time>
      </trkpt>
      <trkpt lat="35.11530582793057" lon="-5.288202138617635">
        <ele>361.1124267578125</ele>
        <time>2011-04-24T18:13:58Z</time>
      </trkpt>
      <trkpt lat="35.115857440978289" lon="-5.288492823019624">
        <ele>361.5931396484375</ele>
        <time>2011-04-24T18:14:03Z</time>
      </trkpt>
      <trkpt lat="35.116691356524825" lon="-5.289295893162489">
        <ele>361.5931396484375</ele>
        <time>2011-04-24T18:14:12Z</time>
      </trkpt>
      <trkpt lat="35.117066195234656" lon="-5.289507452398539">
        <ele>361.5931396484375</ele>
        <time>2011-04-24T18:14:16Z</time>
      </trkpt>
      <trkpt lat="35.117423348128796" lon="-5.28941516764462">
        <ele>359.67041015625</ele>
        <time>2011-04-24T18:14:21Z</time>
      </trkpt>
      <trkpt lat="35.118085434660316" lon="-5.289122890681028">
        <ele>354.86376953125</ele>
        <time>2011-04-24T18:14:28Z</time>
      </trkpt>
      <trkpt lat="35.119627537205815" lon="-5.288875792175531">
        <ele>351.4991455078125</ele>
        <time>2011-04-24T18:14:39Z</time>
      </trkpt>
      <trkpt lat="35.11994487605989" lon="-5.288836481049657">
        <ele>351.9798583984375</ele>
        <time>2011-04-24T18:14:41Z</time>
      </trkpt>
      <trkpt lat="35.120597323402762" lon="-5.288936393335462">
        <ele>353.421875</ele>
        <time>2011-04-24T18:14:45Z</time>
      </trkpt>
      <trkpt lat="35.121538443490863" lon="-5.288928095251322">
        <ele>359.189697265625</ele>
        <time>2011-04-24T18:14:51Z</time>
      </trkpt>
      <trkpt lat="35.122061725705862" lon="-5.289057428017259">
        <ele>363.0350341796875</ele>
        <time>2011-04-24T18:14:55Z</time>
      </trkpt>
      <trkpt lat="35.12281752191484" lon="-5.289634186774492">
        <ele>370.244873046875</ele>
        <time>2011-04-24T18:15:02Z</time>
      </trkpt>
      <trkpt lat="35.123409116640687" lon="-5.289604598656297">
        <ele>375.5321044921875</ele>
        <time>2011-04-24T18:15:07Z</time>
      </trkpt>
      <trkpt lat="35.123507520183921" lon="-5.289508542045951">
        <ele>376.4935302734375</ele>
        <time>2011-04-24T18:15:08Z</time>
      </trkpt>
      <trkpt lat="35.124558443203568" lon="-5.288521656766534">
        <ele>389.951904296875</ele>
        <time>2011-04-24T18:15:19Z</time>
      </trkpt>
      <trkpt lat="35.125181218609214" lon="-5.288054281845689">
        <ele>394.2779541015625</ele>
        <time>2011-04-24T18:15:25Z</time>
      </trkpt>
      <trkpt lat="35.125985881313682" lon="-5.28768053278327">
        <ele>398.1231689453125</ele>
        <time>2011-04-24T18:15:31Z</time>
      </trkpt>
      <trkpt lat="35.12661955319345" lon="-5.287434188649058">
        <ele>401.48779296875</ele>
        <time>2011-04-24T18:15:36Z</time>
      </trkpt>
      <trkpt lat="35.127191366627812" lon="-5.287519516423345">
        <ele>403.89111328125</ele>
        <time>2011-04-24T18:15:41Z</time>
      </trkpt>
      <trkpt lat="35.127696795389056" lon="-5.287863593548536">
        <ele>406.2943115234375</ele>
        <time>2011-04-24T18:15:46Z</time>
      </trkpt>
      <trkpt lat="35.128151597455144" lon="-5.288035590201616">
        <ele>409.1783447265625</ele>
        <time>2011-04-24T18:15:50Z</time>
      </trkpt>
      <trkpt lat="35.128760542720556" lon="-5.288054365664721">
        <ele>413.5042724609375</ele>
        <time>2011-04-24T18:15:55Z</time>
      </trkpt>
      <trkpt lat="35.129196066409349" lon="-5.288204653188586">
        <ele>416.868896484375</ele>
        <time>2011-04-24T18:15:59Z</time>
      </trkpt>
      <trkpt lat="35.129393795505166" lon="-5.2883455529809">
        <ele>419.7528076171875</ele>
        <time>2011-04-24T18:16:01Z</time>
      </trkpt>
      <trkpt lat="35.130002070218325" lon="-5.288372794166207">
        <ele>426.9627685546875</ele>
        <time>2011-04-24T18:16:07Z</time>
      </trkpt>
      <trkpt lat="35.130098881199956" lon="-5.288325268775225">
        <ele>428.4046630859375</ele>
        <time>2011-04-24T18:16:08Z</time>
      </trkpt>
      <trkpt lat="35.130945453420281" lon="-5.287762591615319">
        <ele>438.9791259765625</ele>
        <time>2011-04-24T18:16:18Z</time>
      </trkpt>
      <trkpt lat="35.131211746484041" lon="-5.287540722638369">
        <ele>440.90185546875</ele>
        <time>2011-04-24T18:16:21Z</time>
      </trkpt>
      <trkpt lat="35.131690688431263" lon="-5.286926832050085">
        <ele>443.7857666015625</ele>
        <time>2011-04-24T18:16:27Z</time>
      </trkpt>
      <trkpt lat="35.1317975576967" lon="-5.286872517317534">
        <ele>444.2664794921875</ele>
        <time>2011-04-24T18:16:28Z</time>
      </trkpt>
      <trkpt lat="35.132289743050933" lon="-5.28652005828917">
        <ele>448.11181640625</ele>
        <time>2011-04-24T18:16:33Z</time>
      </trkpt>
      <trkpt lat="35.132528962567449" lon="-5.286159552633762">
        <ele>451.476318359375</ele>
        <time>2011-04-24T18:16:36Z</time>
      </trkpt>
      <trkpt lat="35.133463880047202" lon="-5.285256570205092">
        <ele>459.1668701171875</ele>
        <time>2011-04-24T18:16:46Z</time>
      </trkpt>
      <trkpt lat="35.133730759844184" lon="-5.285002682358027">
        <ele>461.5701904296875</ele>
        <time>2011-04-24T18:16:49Z</time>
      </trkpt>
      <trkpt lat="35.133988251909614" lon="-5.284427432343364">
        <ele>464.934814453125</ele>
        <time>2011-04-24T18:16:54Z</time>
      </trkpt>
      <trkpt lat="35.134055390954018" lon="-5.283826617524028">
        <ele>468.29931640625</ele>
        <time>2011-04-24T18:16:58Z</time>
      </trkpt>
      <trkpt lat="35.13427734375" lon="-5.283245416358113">
        <ele>471.183349609375</ele>
        <time>2011-04-24T18:17:02Z</time>
      </trkpt>
      <trkpt lat="35.134935574606061" lon="-5.282370680943131">
        <ele>479.3544921875</ele>
        <time>2011-04-24T18:17:10Z</time>
      </trkpt>
      <trkpt lat="35.135373026132584" lon="-5.282224332913756">
        <ele>481.7578125</ele>
        <time>2011-04-24T18:17:14Z</time>
      </trkpt>
      <trkpt lat="35.135719953104854" lon="-5.282217962667346">
        <ele>484.1611328125</ele>
        <time>2011-04-24T18:17:17Z</time>
      </trkpt>
      <trkpt lat="35.136225968599319" lon="-5.281910095363855">
        <ele>489.4483642578125</ele>
        <time>2011-04-24T18:17:23Z</time>
      </trkpt>
      <trkpt lat="35.136315068230033" lon="-5.28171387501061">
        <ele>491.3709716796875</ele>
        <time>2011-04-24T18:17:26Z</time>
      </trkpt>
      <trkpt lat="35.136539116501808" lon="-5.28095212765038">
        <ele>495.2161865234375</ele>
        <time>2011-04-24T18:17:35Z</time>
      </trkpt>
      <trkpt lat="35.136683452874422" lon="-5.280410991981626">
        <ele>496.6583251953125</ele>
        <time>2011-04-24T18:17:40Z</time>
      </trkpt>
      <trkpt lat="35.136679764837027" lon="-5.279746558517218">
        <ele>499.542236328125</ele>
        <time>2011-04-24T18:17:45Z</time>
      </trkpt>
      <trkpt lat="35.136460997164249" lon="-5.278451889753342">
        <ele>504.8294677734375</ele>
        <time>2011-04-24T18:17:55Z</time>
      </trkpt>
      <trkpt lat="35.136512629687786" lon="-5.277901953086257">
        <ele>507.2327880859375</ele>
        <time>2011-04-24T18:18:00Z</time>
      </trkpt>
      <trkpt lat="35.13694622553885" lon="-5.276761427521706">
        <ele>512.0394287109375</ele>
        <time>2011-04-24T18:18:08Z</time>
      </trkpt>
      <trkpt lat="35.137166082859039" lon="-5.275814523920417">
        <ele>517.8072509765625</ele>
        <time>2011-04-24T18:18:14Z</time>
      </trkpt>
      <trkpt lat="35.13756288215518" lon="-5.274853454902768">
        <ele>523.5751953125</ele>
        <time>2011-04-24T18:18:21Z</time>
      </trkpt>
      <trkpt lat="35.137627674266696" lon="-5.27473577298224">
        <ele>524.0557861328125</ele>
        <time>2011-04-24T18:18:22Z</time>
      </trkpt>
      <trkpt lat="35.138023048639297" lon="-5.274376692250371">
        <ele>527.42041015625</ele>
        <time>2011-04-24T18:18:26Z</time>
      </trkpt>
      <trkpt lat="35.139160053804517" lon="-5.273757353425026">
        <ele>532.707763671875</ele>
        <time>2011-04-24T18:18:35Z</time>
      </trkpt>
      <trkpt lat="35.139614269137383" lon="-5.273375976830721">
        <ele>534.63037109375</ele>
        <time>2011-04-24T18:18:39Z</time>
      </trkpt>
      <trkpt lat="35.140285072848201" lon="-5.272530829533935">
        <ele>538.4757080078125</ele>
        <time>2011-04-24T18:18:46Z</time>
      </trkpt>
      <trkpt lat="35.140673154965043" lon="-5.272544240579009">
        <ele>539.9176025390625</ele>
        <time>2011-04-24T18:18:50Z</time>
      </trkpt>
      <trkpt lat="35.140751777216792" lon="-5.272868033498526">
        <ele>541.8402099609375</ele>
        <time>2011-04-24T18:18:53Z</time>
      </trkpt>
      <trkpt lat="35.140778180211782" lon="-5.273171542212367">
        <ele>542.3209228515625</ele>
        <time>2011-04-24T18:18:56Z</time>
      </trkpt>
      <trkpt lat="35.141107924282551" lon="-5.273528778925538">
        <ele>542.3209228515625</ele>
        <time>2011-04-24T18:19:01Z</time>
      </trkpt>
      <trkpt lat="35.141341695562005" lon="-5.27351813390851">
        <ele>542.3209228515625</ele>
        <time>2011-04-24T18:19:03Z</time>
      </trkpt>
      <trkpt lat="35.142205618321896" lon="-5.273329373449087">
        <ele>545.204833984375</ele>
        <time>2011-04-24T18:19:10Z</time>
      </trkpt>
      <trkpt lat="35.142682129517198" lon="-5.272859567776322">
        <ele>548.5693359375</ele>
        <time>2011-04-24T18:19:15Z</time>
      </trkpt>
      <trkpt lat="35.142734264954925" lon="-5.272716572508216">
        <ele>549.050048828125</ele>
        <time>2011-04-24T18:19:16Z</time>
      </trkpt>
      <trkpt lat="35.143183534964919" lon="-5.272156577557325">
        <ele>552.895263671875</ele>
        <time>2011-04-24T18:19:22Z</time>
      </trkpt>
      <trkpt lat="35.143390148878098" lon="-5.272246180102229">
        <ele>553.3759765625</ele>
        <time>2011-04-24T18:19:24Z</time>
      </trkpt>
      <trkpt lat="35.143594751134515" lon="-5.272370986640453">
        <ele>554.33740234375</ele>
        <time>2011-04-24T18:19:26Z</time>
      </trkpt>
      <trkpt lat="35.144648859277368" lon="-5.272535523399711">
        <ele>559.14404296875</ele>
        <time>2011-04-24T18:19:35Z</time>
      </trkpt>
      <trkpt lat="35.144765116274357" lon="-5.272542061284185">
        <ele>559.624755859375</ele>
        <time>2011-04-24T18:19:36Z</time>
      </trkpt>
      <trkpt lat="35.145225953310728" lon="-5.272436952218413">
        <ele>560.5859375</ele>
        <time>2011-04-24T18:19:40Z</time>
      </trkpt>
      <trkpt lat="35.145595259964466" lon="-5.272265039384365">
        <ele>560.105224609375</ele>
        <time>2011-04-24T18:19:43Z</time>
      </trkpt>
      <trkpt lat="35.14627268537879" lon="-5.272336034104228">
        <ele>559.624755859375</ele>
        <time>2011-04-24T18:19:48Z</time>
      </trkpt>
      <trkpt lat="35.146406795829535" lon="-5.272416668012738">
        <ele>559.624755859375</ele>
        <time>2011-04-24T18:19:49Z</time>
      </trkpt>
      <trkpt lat="35.146922031417489" lon="-5.27273484505713">
        <ele>559.14404296875</ele>
        <time>2011-04-24T18:19:53Z</time>
      </trkpt>
      <trkpt lat="35.147458724677563" lon="-5.272730235010386">
        <ele>559.14404296875</ele>
        <time>2011-04-24T18:19:58Z</time>
      </trkpt>
      <trkpt lat="35.147723676636815" lon="-5.272263027727604">
        <ele>558.663330078125</ele>
        <time>2011-04-24T18:20:02Z</time>
      </trkpt>
      <trkpt lat="35.148196080699563" lon="-5.271811159327626">
        <ele>559.14404296875</ele>
        <time>2011-04-24T18:20:08Z</time>
      </trkpt>
      <trkpt lat="35.148564968258142" lon="-5.272096646949649">
        <ele>562.508544921875</ele>
        <time>2011-04-24T18:20:12Z</time>
      </trkpt>
      <trkpt lat="35.148690780624747" lon="-5.272343074902892">
        <ele>564.911865234375</ele>
        <time>2011-04-24T18:20:14Z</time>
      </trkpt>
      <trkpt lat="35.148906363174319" lon="-5.272918744012713">
        <ele>570.198974609375</ele>
        <time>2011-04-24T18:20:19Z</time>
      </trkpt>
      <trkpt lat="35.149246584624052" lon="-5.273243878036737">
        <ele>574.04443359375</ele>
        <time>2011-04-24T18:20:24Z</time>
      </trkpt>
      <trkpt lat="35.149571467190981" lon="-5.273061823099852">
        <ele>575.967041015625</ele>
        <time>2011-04-24T18:20:28Z</time>
      </trkpt>
      <trkpt lat="35.150307817384601" lon="-5.27230435051024">
        <ele>584.618896484375</ele>
        <time>2011-04-24T18:20:36Z</time>
      </trkpt>
      <trkpt lat="35.150998570024967" lon="-5.271565150469542">
        <ele>593.75146484375</ele>
        <time>2011-04-24T18:20:45Z</time>
      </trkpt>
      <trkpt lat="35.152093665674329" lon="-5.270035453140736">
        <ele>606.729248046875</ele>
        <time>2011-04-24T18:21:00Z</time>
      </trkpt>
      <trkpt lat="35.152418883517385" lon="-5.268782190978527">
        <ele>612.4970703125</ele>
        <time>2011-04-24T18:21:10Z</time>
      </trkpt>
      <trkpt lat="35.152501864358783" lon="-5.268310625106096">
        <ele>614.419677734375</ele>
        <time>2011-04-24T18:21:14Z</time>
      </trkpt>
      <trkpt lat="35.152752483263612" lon="-5.267881639301777">
        <ele>615.86181640625</ele>
        <time>2011-04-24T18:21:19Z</time>
      </trkpt>
      <trkpt lat="35.153022967278957" lon="-5.2679477725178">
        <ele>616.34228515625</ele>
        <time>2011-04-24T18:21:22Z</time>
      </trkpt>
      <trkpt lat="35.153451869264245" lon="-5.268004518002272">
        <ele>617.3037109375</ele>
        <time>2011-04-24T18:21:29Z</time>
      </trkpt>
      <trkpt lat="35.153607437387109" lon="-5.267806285992265">
        <ele>617.3037109375</ele>
        <time>2011-04-24T18:21:33Z</time>
      </trkpt>
      <trkpt lat="35.15364465303719" lon="-5.267661446705461">
        <ele>617.3037109375</ele>
        <time>2011-04-24T18:21:39Z</time>
      </trkpt>
      <trkpt lat="35.153549769893289" lon="-5.26766873896122">
        <ele>621.629638671875</ele>
        <time>2011-04-24T18:25:03Z</time>
      </trkpt>
      <trkpt lat="35.15348388813436" lon="-5.267526833340526">
        <ele>625.95556640625</ele>
        <time>2011-04-24T18:25:44Z</time>
      </trkpt>
      <trkpt lat="35.153511129319668" lon="-5.266904644668102">
        <ele>619.70703125</ele>
        <time>2011-04-24T18:25:53Z</time>
      </trkpt>
      <trkpt lat="35.15377214178443" lon="-5.266483370214701">
        <ele>614.419677734375</ele>
        <time>2011-04-24T18:25:59Z</time>
      </trkpt>
      <trkpt lat="35.154024353250861" lon="-5.266456548124552">
        <ele>612.0166015625</ele>
        <time>2011-04-24T18:26:02Z</time>
      </trkpt>
      <trkpt lat="35.154702197760344" lon="-5.266514299437404">
        <ele>609.132568359375</ele>
        <time>2011-04-24T18:26:10Z</time>
      </trkpt>
      <trkpt lat="35.155077455565333" lon="-5.26626787148416">
        <ele>607.2099609375</ele>
        <time>2011-04-24T18:26:16Z</time>
      </trkpt>
      <trkpt lat="35.155151467770338" lon="-5.265974253416061">
        <ele>606.729248046875</ele>
        <time>2011-04-24T18:26:19Z</time>
      </trkpt>
      <trkpt lat="35.1552121527493" lon="-5.26489868760109">
        <ele>602.8837890625</ele>
        <time>2011-04-24T18:26:29Z</time>
      </trkpt>
      <trkpt lat="35.155090363696218" lon="-5.264501636847854">
        <ele>600.480712890625</ele>
        <time>2011-04-24T18:26:33Z</time>
      </trkpt>
      <trkpt lat="35.154986092820764" lon="-5.263980198651552">
        <ele>597.115966796875</ele>
        <time>2011-04-24T18:26:39Z</time>
      </trkpt>
      <trkpt lat="35.155128668993711" lon="-5.263864025473595">
        <ele>596.15478515625</ele>
        <time>2011-04-24T18:26:41Z</time>
      </trkpt>
      <trkpt lat="35.15579704195261" lon="-5.263569569215179">
        <ele>593.75146484375</ele>
        <time>2011-04-24T18:26:49Z</time>
      </trkpt>
      <trkpt lat="35.156078841537237" lon="-5.263571329414845">
        <ele>594.232177734375</ele>
        <time>2011-04-24T18:26:52Z</time>
      </trkpt>
      <trkpt lat="35.156541271135211" lon="-5.263286847621203">
        <ele>594.712646484375</ele>
        <time>2011-04-24T18:26:59Z</time>
      </trkpt>
      <trkpt lat="35.156679069623351" lon="-5.263043520972133">
        <ele>593.75146484375</ele>
        <time>2011-04-24T18:27:02Z</time>
      </trkpt>
      <trkpt lat="35.157008226960897" lon="-5.262297280132771">
        <ele>594.712646484375</ele>
        <time>2011-04-24T18:27:10Z</time>
      </trkpt>
      <trkpt lat="35.157349957153201" lon="-5.262007182464004">
        <ele>593.75146484375</ele>
        <time>2011-04-24T18:27:15Z</time>
      </trkpt>
      <trkpt lat="35.158295938745141" lon="-5.261597894132137">
        <ele>592.3095703125</ele>
        <time>2011-04-24T18:27:26Z</time>
      </trkpt>
      <trkpt lat="35.158554520457983" lon="-5.261424891650677">
        <ele>592.790283203125</ele>
        <time>2011-04-24T18:27:29Z</time>
      </trkpt>
      <trkpt lat="35.159009993076324" lon="-5.261400584131479">
        <ele>593.75146484375</ele>
        <time>2011-04-24T18:27:34Z</time>
      </trkpt>
      <trkpt lat="35.159205542877316" lon="-5.261505944654346">
        <ele>594.712646484375</ele>
        <time>2011-04-24T18:27:36Z</time>
      </trkpt>
      <trkpt lat="35.159611226990819" lon="-5.26161071844399">
        <ele>593.75146484375</ele>
        <time>2011-04-24T18:27:40Z</time>
      </trkpt>
      <trkpt lat="35.159925548359752" lon="-5.261627063155174">
        <ele>591.828857421875</ele>
        <time>2011-04-24T18:27:43Z</time>
      </trkpt>
      <trkpt lat="35.16044388525188" lon="-5.261869551613927">
        <ele>587.02197265625</ele>
        <time>2011-04-24T18:27:48Z</time>
      </trkpt>
      <trkpt lat="35.160960629582405" lon="-5.261915735900402">
        <ele>582.6962890625</ele>
        <time>2011-04-24T18:27:53Z</time>
      </trkpt>
      <trkpt lat="35.161274699494243" lon="-5.261794365942478">
        <ele>580.29296875</ele>
        <time>2011-04-24T18:27:56Z</time>
      </trkpt>
      <trkpt lat="35.161987831816077" lon="-5.261763017624617">
        <ele>574.04443359375</ele>
        <time>2011-04-24T18:28:04Z</time>
      </trkpt>
      <trkpt lat="35.162302739918232" lon="-5.261713648214936">
        <ele>572.6025390625</ele>
        <time>2011-04-24T18:28:09Z</time>
      </trkpt>
      <trkpt lat="35.162602979689837" lon="-5.261409049853683">
        <ele>570.6796875</ele>
        <time>2011-04-24T18:28:16Z</time>
      </trkpt>
      <trkpt lat="35.162998521700501" lon="-5.261068493127823">
        <ele>567.795654296875</ele>
        <time>2011-04-24T18:28:24Z</time>
      </trkpt>
      <trkpt lat="35.163283422589302" lon="-5.261103864759207">
        <ele>565.392578125</ele>
        <time>2011-04-24T18:28:28Z</time>
      </trkpt>
      <trkpt lat="35.164053719490767" lon="-5.261467639356852">
        <ele>558.663330078125</ele>
        <time>2011-04-24T18:28:40Z</time>
      </trkpt>
      <trkpt lat="35.164507767185569" lon="-5.261540478095412">
        <ele>554.81787109375</ele>
        <time>2011-04-24T18:28:48Z</time>
      </trkpt>
      <trkpt lat="35.164931388571858" lon="-5.261713229119778">
        <ele>550.97265625</ele>
        <time>2011-04-24T18:28:57Z</time>
      </trkpt>
      <trkpt lat="35.165877286344767" lon="-5.2622249443084">
        <ele>550.97265625</ele>
        <time>2011-04-24T18:29:10Z</time>
      </trkpt>
      <trkpt lat="35.165958674624562" lon="-5.262279342859983">
        <ele>551.453369140625</ele>
        <time>2011-04-24T18:29:11Z</time>
      </trkpt>
      <trkpt lat="35.166253298521042" lon="-5.262790136039257">
        <ele>555.779296875</ele>
        <time>2011-04-24T18:29:17Z</time>
      </trkpt>
      <trkpt lat="35.166380871087313" lon="-5.264005428180099">
        <ele>566.353759765625</ele>
        <time>2011-04-24T18:29:30Z</time>
      </trkpt>
      <trkpt lat="35.166477682068944" lon="-5.264959624037147">
        <ele>574.525146484375</ele>
        <time>2011-04-24T18:29:41Z</time>
      </trkpt>
      <trkpt lat="35.166489165276289" lon="-5.265458095818758">
        <ele>580.29296875</ele>
        <time>2011-04-24T18:29:48Z</time>
      </trkpt>
      <trkpt lat="35.166607685387135" lon="-5.26563654653728">
        <ele>580.29296875</ele>
        <time>2011-04-24T18:29:53Z</time>
      </trkpt>
      <trkpt lat="35.167025187984109" lon="-5.265848860144615">
        <ele>581.25439453125</ele>
        <time>2011-04-24T18:30:03Z</time>
      </trkpt>
      <trkpt lat="35.167276561260223" lon="-5.266380188986659">
        <ele>578.370361328125</ele>
        <time>2011-04-24T18:30:14Z</time>
      </trkpt>
      <trkpt lat="35.167454089969397" lon="-5.266861226409674">
        <ele>574.525146484375</ele>
        <time>2011-04-24T18:30:24Z</time>
      </trkpt>
      <trkpt lat="35.167502788826823" lon="-5.266992570832372">
        <ele>574.04443359375</ele>
        <time>2011-04-24T18:30:27Z</time>
      </trkpt>
      <trkpt lat="35.167585434392095" lon="-5.267191221937537">
        <ele>573.56396484375</ele>
        <time>2011-04-24T18:30:31Z</time>
      </trkpt>
      <trkpt lat="35.167730273678899" lon="-5.267821876332164">
        <ele>575.486328125</ele>
        <time>2011-04-24T18:30:42Z</time>
      </trkpt>
      <trkpt lat="35.167862288653851" lon="-5.268555795773864">
        <ele>575.967041015625</ele>
        <time>2011-04-24T18:30:52Z</time>
      </trkpt>
      <trkpt lat="35.16809044405818" lon="-5.268809767439961">
        <ele>575.005859375</ele>
        <time>2011-04-24T18:31:00Z</time>
      </trkpt>
      <trkpt lat="35.168390683829784" lon="-5.268568284809589">
        <ele>577.4091796875</ele>
        <time>2011-04-24T18:31:08Z</time>
      </trkpt>
      <trkpt lat="35.168388839811087" lon="-5.268353540450335">
        <ele>578.85107421875</ele>
        <time>2011-04-24T18:31:12Z</time>
      </trkpt>
      <trkpt lat="35.16848917119205" lon="-5.268059754744172">
        <ele>580.773681640625</ele>
        <time>2011-04-24T18:31:18Z</time>
      </trkpt>
      <trkpt lat="35.168633926659822" lon="-5.267739733681083">
        <ele>583.657470703125</ele>
        <time>2011-04-24T18:31:28Z</time>
      </trkpt>
      <trkpt lat="35.168541893362999" lon="-5.267241429537535">
        <ele>586.54150390625</ele>
        <time>2011-04-24T18:31:35Z</time>
      </trkpt>
      <trkpt lat="35.16835774295032" lon="-5.266192685812712">
        <ele>588.945068359375</ele>
        <time>2011-04-24T18:31:51Z</time>
      </trkpt>
      <trkpt lat="35.168247437104583" lon="-5.265657668933272">
        <ele>590.386962890625</ele>
        <time>2011-04-24T18:32:02Z</time>
      </trkpt>
      <trkpt lat="35.168201336637139" lon="-5.265488941222429">
        <ele>592.3095703125</ele>
        <time>2011-04-24T18:32:17Z</time>
      </trkpt>
      <trkpt lat="35.168163869529963" lon="-5.265316525474191">
        <ele>592.790283203125</ele>
        <time>2011-04-24T18:32:27Z</time>
      </trkpt>
      <trkpt lat="35.167943341657519" lon="-5.265028942376375">
        <ele>593.270751953125</ele>
        <time>2011-04-24T18:32:36Z</time>
      </trkpt>
      <trkpt lat="35.167790288105607" lon="-5.264912936836481">
        <ele>593.270751953125</ele>
        <time>2011-04-24T18:32:42Z</time>
      </trkpt>
      <trkpt lat="35.167611334472895" lon="-5.264738257974386">
        <ele>589.90625</ele>
        <time>2011-04-24T18:32:49Z</time>
      </trkpt>
      <trkpt lat="35.167291229590774" lon="-5.264292173087597">
        <ele>588.46435546875</ele>
        <time>2011-04-24T18:32:58Z</time>
      </trkpt>
      <trkpt lat="35.167207159101963" lon="-5.264185220003128">
        <ele>588.46435546875</ele>
        <time>2011-04-24T18:33:00Z</time>
      </trkpt>
      <trkpt lat="35.166946733370423" lon="-5.263906940817833">
        <ele>585.580078125</ele>
        <time>2011-04-24T18:33:08Z</time>
      </trkpt>
      <trkpt lat="35.166867272928357" lon="-5.263736033812165">
        <ele>591.34814453125</ele>
        <time>2011-04-24T18:33:18Z</time>
      </trkpt>
      <trkpt lat="35.166748585179448" lon="-5.263389190658927">
        <ele>587.9833984375</ele>
        <time>2011-04-24T18:38:28Z</time>
      </trkpt>
      <trkpt lat="35.166755877435207" lon="-5.263263462111354">
        <ele>583.657470703125</ele>
        <time>2011-04-24T18:38:39Z</time>
      </trkpt>
      <trkpt lat="35.166770294308662" lon="-5.263100434094667">
        <ele>580.29296875</ele>
        <time>2011-04-24T18:38:47Z</time>
      </trkpt>
      <trkpt lat="35.166851682588458" lon="-5.263196155428886">
        <ele>580.29296875</ele>
        <time>2011-04-24T18:40:32Z</time>
      </trkpt>
    </trkseg>
  </trk>

  <trk>
    <name>110425</name>
    <extensions>
      <gpxx:TrackExtension xmlns:gpxx="http://www.garmin.com/xmlschemas/GpxExtensions/v3">
        <gpxx:DisplayColor>Magenta</gpxx:DisplayColor>
      </gpxx:TrackExtension>
    </extensions>
    <trkseg>
      <trkpt lat="35.166808683425188" lon="-5.263187354430556">
        <ele>583.1767578125</ele>
        <time>2011-04-25T07:15:27Z</time>
      </trkpt>
      <trkpt lat="35.166848246008158" lon="-5.26372647844255">
        <ele>587.9833984375</ele>
        <time>2011-04-25T07:17:00Z</time>
      </trkpt>
      <trkpt lat="35.166950421407819" lon="-5.26397324167192">
        <ele>596.15478515625</ele>
        <time>2011-04-25T07:17:06Z</time>
      </trkpt>
      <trkpt lat="35.167263653129339" lon="-5.264286389574409">
        <ele>596.635498046875</ele>
        <time>2011-04-25T07:17:16Z</time>
      </trkpt>
      <trkpt lat="35.167611418291926" lon="-5.264736833050847">
        <ele>593.270751953125</ele>
        <time>2011-04-25T07:17:26Z</time>
      </trkpt>
      <trkpt lat="35.168055240064859" lon="-5.26514352299273">
        <ele>591.34814453125</ele>
        <time>2011-04-25T07:17:36Z</time>
      </trkpt>
      <trkpt lat="35.168214999139309" lon="-5.265433369204402">
        <ele>589.425537109375</ele>
        <time>2011-04-25T07:17:41Z</time>
      </trkpt>
      <trkpt lat="35.168403424322605" lon="-5.266189835965633">
        <ele>586.060791015625</ele>
        <time>2011-04-25T07:17:52Z</time>
      </trkpt>
      <trkpt lat="35.168557064607739" lon="-5.267020147293806">
        <ele>582.6962890625</ele>
        <time>2011-04-25T07:18:04Z</time>
      </trkpt>
      <trkpt lat="35.168674243614078" lon="-5.267717773094773">
        <ele>583.1767578125</ele>
        <time>2011-04-25T07:18:14Z</time>
      </trkpt>
      <trkpt lat="35.168719589710236" lon="-5.267903432250023">
        <ele>582.6962890625</ele>
        <time>2011-04-25T07:18:21Z</time>
      </trkpt>
      <trkpt lat="35.168832996860147" lon="-5.267968727275729">
        <ele>582.6962890625</ele>
        <time>2011-04-25T07:18:24Z</time>
      </trkpt>
      <trkpt lat="35.169068947434425" lon="-5.268180537968874">
        <ele>582.215576171875</ele>
        <time>2011-04-25T07:18:30Z</time>
      </trkpt>
      <trkpt lat="35.16928025521338" lon="-5.268409280106425">
        <ele>581.73486328125</ele>
        <time>2011-04-25T07:18:38Z</time>
      </trkpt>
      <trkpt lat="35.169710917398334" lon="-5.26843392290175">
        <ele>580.29296875</ele>
        <time>2011-04-25T07:18:48Z</time>
      </trkpt>
      <trkpt lat="35.170035799965262" lon="-5.268632154911757">
        <ele>580.773681640625</ele>
        <time>2011-04-25T07:18:56Z</time>
      </trkpt>
      <trkpt lat="35.170330926775932" lon="-5.269141690805554">
        <ele>577.8896484375</ele>
        <time>2011-04-25T07:19:06Z</time>
      </trkpt>
      <trkpt lat="35.170577773824334" lon="-5.269578974694014">
        <ele>578.370361328125</ele>
        <time>2011-04-25T07:19:14Z</time>
      </trkpt>
      <trkpt lat="35.170657150447369" lon="-5.270021958276629">
        <ele>578.370361328125</ele>
        <time>2011-04-25T07:19:20Z</time>
      </trkpt>
      <trkpt lat="35.170621694996953" lon="-5.270534092560411">
        <ele>573.56396484375</ele>
        <time>2011-04-25T07:19:26Z</time>
      </trkpt>
      <trkpt lat="35.170681877061725" lon="-5.271057123318315">
        <ele>570.6796875</ele>
        <time>2011-04-25T07:19:32Z</time>
      </trkpt>
      <trkpt lat="35.170539636164904" lon="-5.27188072912395">
        <ele>563.950439453125</ele>
        <time>2011-04-25T07:19:42Z</time>
      </trkpt>
      <trkpt lat="35.170429078862071" lon="-5.272550275549293">
        <ele>561.54736328125</ele>
        <time>2011-04-25T07:19:50Z</time>
      </trkpt>
      <trkpt lat="35.170612139627337" lon="-5.272973729297519">
        <ele>558.663330078125</ele>
        <time>2011-04-25T07:19:56Z</time>
      </trkpt>
      <trkpt lat="35.170769467949867" lon="-5.27303097769618">
        <ele>557.7021484375</ele>
        <time>2011-04-25T07:19:58Z</time>
      </trkpt>
      <trkpt lat="35.171523420140147" lon="-5.273221665993333">
        <ele>557.221435546875</ele>
        <time>2011-04-25T07:20:06Z</time>
      </trkpt>
      <trkpt lat="35.171956932172179" lon="-5.273169782012701">
        <ele>557.221435546875</ele>
        <time>2011-04-25T07:20:11Z</time>
      </trkpt>
      <trkpt lat="35.172627149149776" lon="-5.273031899705529">
        <ele>556.74072265625</ele>
        <time>2011-04-25T07:20:20Z</time>
      </trkpt>
      <trkpt lat="35.172967789694667" lon="-5.273107336834073">
        <ele>556.74072265625</ele>
        <time>2011-04-25T07:20:25Z</time>
      </trkpt>
      <trkpt lat="35.173240453004837" lon="-5.273525342345238">
        <ele>557.221435546875</ele>
        <time>2011-04-25T07:20:31Z</time>
      </trkpt>
      <trkpt lat="35.173151940107346" lon="-5.273769842460752">
        <ele>556.74072265625</ele>
        <time>2011-04-25T07:20:35Z</time>
      </trkpt>
      <trkpt lat="35.172724379226565" lon="-5.274411560967565">
        <ele>556.74072265625</ele>
        <time>2011-04-25T07:20:45Z</time>
      </trkpt>
      <trkpt lat="35.172656318172812" lon="-5.274829734116793">
        <ele>557.221435546875</ele>
        <time>2011-04-25T07:20:50Z</time>
      </trkpt>
      <trkpt lat="35.1726517919451" lon="-5.275740846991539">
        <ele>556.74072265625</ele>
        <time>2011-04-25T07:20:59Z</time>
      </trkpt>
      <trkpt lat="35.172557830810547" lon="-5.276380721479654">
        <ele>554.81787109375</ele>
        <time>2011-04-25T07:21:05Z</time>
      </trkpt>
      <trkpt lat="35.172723457217216" lon="-5.276869721710682">
        <ele>552.41455078125</ele>
        <time>2011-04-25T07:21:11Z</time>
      </trkpt>
      <trkpt lat="35.173526694998145" lon="-5.277672540396452">
        <ele>552.895263671875</ele>
        <time>2011-04-25T07:21:22Z</time>
      </trkpt>
      <trkpt lat="35.174147877842188" lon="-5.27864383533597">
        <ele>553.3759765625</ele>
        <time>2011-04-25T07:21:33Z</time>
      </trkpt>
      <trkpt lat="35.174916498363018" lon="-5.279519576579332">
        <ele>551.93408203125</ele>
        <time>2011-04-25T07:21:44Z</time>
      </trkpt>
      <trkpt lat="35.175177678465843" lon="-5.279779834672809">
        <ele>550.4921875</ele>
        <time>2011-04-25T07:21:47Z</time>
      </trkpt>
      <trkpt lat="35.17541597597301" lon="-5.280346618965268">
        <ele>546.6468505859375</ele>
        <time>2011-04-25T07:21:52Z</time>
      </trkpt>
      <trkpt lat="35.175413964316249" lon="-5.280479053035379">
        <ele>546.166259765625</ele>
        <time>2011-04-25T07:21:53Z</time>
      </trkpt>
      <trkpt lat="35.17529477365315" lon="-5.282034650444984">
        <ele>540.87890625</ele>
        <time>2011-04-25T07:22:04Z</time>
      </trkpt>
      <trkpt lat="35.175284966826439" lon="-5.282439831644297">
        <ele>539.4368896484375</ele>
        <time>2011-04-25T07:22:07Z</time>
      </trkpt>
      <trkpt lat="35.175523934885859" lon="-5.283009549602866">
        <ele>536.5531005859375</ele>
        <time>2011-04-25T07:22:12Z</time>
      </trkpt>
      <trkpt lat="35.175617728382349" lon="-5.28309915214777">
        <ele>535.591552734375</ele>
        <time>2011-04-25T07:22:13Z</time>
      </trkpt>
      <trkpt lat="35.175913441926241" lon="-5.283351866528392">
        <ele>533.6689453125</ele>
        <time>2011-04-25T07:22:16Z</time>
      </trkpt>
      <trkpt lat="35.176573181524873" lon="-5.283526293933392">
        <ele>529.3431396484375</ele>
        <time>2011-04-25T07:22:22Z</time>
      </trkpt>
      <trkpt lat="35.177746564149857" lon="-5.283454461023212">
        <ele>526.9398193359375</ele>
        <time>2011-04-25T07:22:33Z</time>
      </trkpt>
      <trkpt lat="35.178860183805227" lon="-5.283611454069614">
        <ele>525.497802734375</ele>
        <time>2011-04-25T07:22:43Z</time>
      </trkpt>
      <trkpt lat="35.17960156314075" lon="-5.283502321690321">
        <ele>524.5364990234375</ele>
        <time>2011-04-25T07:22:49Z</time>
      </trkpt>
      <trkpt lat="35.180364567786455" lon="-5.283093955367804">
        <ele>521.652587890625</ele>
        <time>2011-04-25T07:22:56Z</time>
      </trkpt>
      <trkpt lat="35.180457774549723" lon="-5.283030336722732">
        <ele>521.1719970703125</ele>
        <time>2011-04-25T07:22:57Z</time>
      </trkpt>
      <trkpt lat="35.180985582992435" lon="-5.2830077894032">
        <ele>518.287841796875</ele>
        <time>2011-04-25T07:23:02Z</time>
      </trkpt>
      <trkpt lat="35.181191526353359" lon="-5.2831822168082">
        <ele>516.845947265625</ele>
        <time>2011-04-25T07:23:04Z</time>
      </trkpt>
      <trkpt lat="35.181792760267854" lon="-5.283722598105669">
        <ele>513.9620361328125</ele>
        <time>2011-04-25T07:23:10Z</time>
      </trkpt>
      <trkpt lat="35.182027285918593" lon="-5.284227356314659">
        <ele>508.194091796875</ele>
        <time>2011-04-25T07:23:15Z</time>
      </trkpt>
      <trkpt lat="35.18209015019238" lon="-5.284745860844851">
        <ele>497.138916015625</ele>
        <time>2011-04-25T07:23:20Z</time>
      </trkpt>
      <trkpt lat="35.18242534250021" lon="-5.285011986270547">
        <ele>490.890380859375</ele>
        <time>2011-04-25T07:23:25Z</time>
      </trkpt>
      <trkpt lat="35.182714685797691" lon="-5.284877456724644">
        <ele>487.0450439453125</ele>
        <time>2011-04-25T07:23:28Z</time>
      </trkpt>
      <trkpt lat="35.183304855599999" lon="-5.284380242228508">
        <ele>478.8739013671875</ele>
        <time>2011-04-25T07:23:34Z</time>
      </trkpt>
      <trkpt lat="35.183848757296801" lon="-5.284251077100635">
        <ele>473.1060791015625</ele>
        <time>2011-04-25T07:23:39Z</time>
      </trkpt>
      <trkpt lat="35.184116559103131" lon="-5.284512843936682">
        <ele>468.29931640625</ele>
        <time>2011-04-25T07:23:42Z</time>
      </trkpt>
      <trkpt lat="35.184638416394591" lon="-5.285182222723961">
        <ele>462.05078125</ele>
        <time>2011-04-25T07:23:48Z</time>
      </trkpt>
      <trkpt lat="35.185056086629629" lon="-5.285365870222449">
        <ele>458.20556640625</ele>
        <time>2011-04-25T07:23:52Z</time>
      </trkpt>
      <trkpt lat="35.185576183721423" lon="-5.285400152206421">
        <ele>454.3602294921875</ele>
        <time>2011-04-25T07:23:56Z</time>
      </trkpt>
      <trkpt lat="35.186117822304368" lon="-5.285261850804091">
        <ele>452.918212890625</ele>
        <time>2011-04-25T07:24:00Z</time>
      </trkpt>
      <trkpt lat="35.186892645433545" lon="-5.285186497494578">
        <ele>449.072998046875</ele>
        <time>2011-04-25T07:24:06Z</time>
      </trkpt>
      <trkpt lat="35.188485877588391" lon="-5.285712042823434">
        <ele>438.9791259765625</ele>
        <time>2011-04-25T07:24:17Z</time>
      </trkpt>
      <trkpt lat="35.188758540898561" lon="-5.285819582641125">
        <ele>438.017822265625</ele>
        <time>2011-04-25T07:24:19Z</time>
      </trkpt>
      <trkpt lat="35.189346866682172" lon="-5.286483932286501">
        <ele>431.28857421875</ele>
        <time>2011-04-25T07:24:25Z</time>
      </trkpt>
      <trkpt lat="35.190147589892149" lon="-5.287173679098487">
        <ele>422.156005859375</ele>
        <time>2011-04-25T07:24:32Z</time>
      </trkpt>
      <trkpt lat="35.190387144684792" lon="-5.287340730428696">
        <ele>420.2333984375</ele>
        <time>2011-04-25T07:24:34Z</time>
      </trkpt>
      <trkpt lat="35.190637679770589" lon="-5.287818666547537">
        <ele>414.9461669921875</ele>
        <time>2011-04-25T07:24:38Z</time>
      </trkpt>
      <trkpt lat="35.190785368904471" lon="-5.288745034486055">
        <ele>407.736328125</ele>
        <time>2011-04-25T07:24:44Z</time>
      </trkpt>
      <trkpt lat="35.191002376377583" lon="-5.289150131866336">
        <ele>404.3717041015625</ele>
        <time>2011-04-25T07:24:48Z</time>
      </trkpt>
      <trkpt lat="35.191314266994596" lon="-5.289662182331085">
        <ele>398.1231689453125</ele>
        <time>2011-04-25T07:24:53Z</time>
      </trkpt>
      <trkpt lat="35.191398840397596" lon="-5.290092173963785">
        <ele>394.2779541015625</ele>
        <time>2011-04-25T07:24:56Z</time>
      </trkpt>
      <trkpt lat="35.19169706851244" lon="-5.290798852220178">
        <ele>396.68115234375</ele>
        <time>2011-04-25T07:25:01Z</time>
      </trkpt>
      <trkpt lat="35.191726237535477" lon="-5.291488347575069">
        <ele>389.951904296875</ele>
        <time>2011-04-25T07:25:06Z</time>
      </trkpt>
      <trkpt lat="35.191666390746832" lon="-5.29160519130528">
        <ele>388.9906005859375</ele>
        <time>2011-04-25T07:25:07Z</time>
      </trkpt>
      <trkpt lat="35.191622972488403" lon="-5.292237522080541">
        <ele>384.664794921875</ele>
        <time>2011-04-25T07:25:13Z</time>
      </trkpt>
      <trkpt lat="35.191825730726123" lon="-5.29315953142941">
        <ele>376.4935302734375</ele>
        <time>2011-04-25T07:25:20Z</time>
      </trkpt>
      <trkpt lat="35.191953051835299" lon="-5.293350555002689">
        <ele>373.6094970703125</ele>
        <time>2011-04-25T07:25:22Z</time>
      </trkpt>
      <trkpt lat="35.192212471738458" lon="-5.293998057022691">
        <ele>367.3609619140625</ele>
        <time>2011-04-25T07:25:28Z</time>
      </trkpt>
      <trkpt lat="35.192179782316089" lon="-5.294122779741883">
        <ele>366.3995361328125</ele>
        <time>2011-04-25T07:25:29Z</time>
      </trkpt>
      <trkpt lat="35.191980460658669" lon="-5.294771119952202">
        <ele>361.5931396484375</ele>
        <time>2011-04-25T07:25:34Z</time>
      </trkpt>
      <trkpt lat="35.192078026011586" lon="-5.29536422342062">
        <ele>357.747802734375</ele>
        <time>2011-04-25T07:25:39Z</time>
      </trkpt>
      <trkpt lat="35.192388826981187" lon="-5.295873172581196">
        <ele>353.421875</ele>
        <time>2011-04-25T07:25:43Z</time>
      </trkpt>
      <trkpt lat="35.192450098693371" lon="-5.296552777290344">
        <ele>347.1732177734375</ele>
        <time>2011-04-25T07:25:48Z</time>
      </trkpt>
      <trkpt lat="35.192388324066997" lon="-5.296691665425897">
        <ele>346.692626953125</ele>
        <time>2011-04-25T07:25:49Z</time>
      </trkpt>
      <trkpt lat="35.191999822854996" lon="-5.297843758016825">
        <ele>337.56005859375</ele>
        <time>2011-04-25T07:25:56Z</time>
      </trkpt>
      <trkpt lat="35.191751886159182" lon="-5.298975231125951">
        <ele>326.985595703125</ele>
        <time>2011-04-25T07:26:02Z</time>
      </trkpt>
      <trkpt lat="35.191416693851352" lon="-5.299494154751301">
        <ele>320.25634765625</ele>
        <time>2011-04-25T07:26:06Z</time>
      </trkpt>
      <trkpt lat="35.191090973094106" lon="-5.299786431714892">
        <ele>316.4110107421875</ele>
        <time>2011-04-25T07:26:09Z</time>
      </trkpt>
      <trkpt lat="35.190764162689447" lon="-5.300480537116528">
        <ele>308.2398681640625</ele>
        <time>2011-04-25T07:26:14Z</time>
      </trkpt>
      <trkpt lat="35.190366776660085" lon="-5.302416170015931">
        <ele>288.532958984375</ele>
        <time>2011-04-25T07:26:24Z</time>
      </trkpt>
      <trkpt lat="35.190319586545229" lon="-5.302733173593879">
        <ele>284.6876220703125</ele>
        <time>2011-04-25T07:26:26Z</time>
      </trkpt>
      <trkpt lat="35.190565343946218" lon="-5.303391488268971">
        <ele>276.516357421875</ele>
        <time>2011-04-25T07:26:31Z</time>
      </trkpt>
      <trkpt lat="35.190839096903801" lon="-5.303712598979473">
        <ele>275.074462890625</ele>
        <time>2011-04-25T07:26:34Z</time>
      </trkpt>
      <trkpt lat="35.191319463774562" lon="-5.303787030279636">
        <ele>270.7484130859375</ele>
        <time>2011-04-25T07:26:39Z</time>
      </trkpt>
      <trkpt lat="35.191715760156512" lon="-5.303631629794836">
        <ele>268.3450927734375</ele>
        <time>2011-04-25T07:26:42Z</time>
      </trkpt>
      <trkpt lat="35.192272989079356" lon="-5.303822318091989">
        <ele>264.4998779296875</ele>
        <time>2011-04-25T07:26:47Z</time>
      </trkpt>
      <trkpt lat="35.192344319075346" lon="-5.303920889273286">
        <ele>263.53857421875</ele>
        <time>2011-04-25T07:26:48Z</time>
      </trkpt>
      <trkpt lat="35.192955275997519" lon="-5.304862344637513">
        <ele>250.560791015625</ele>
        <time>2011-04-25T07:26:58Z</time>
      </trkpt>
      <trkpt lat="35.193529268726707" lon="-5.305905975401402">
        <ele>238.0635986328125</ele>
        <time>2011-04-25T07:27:05Z</time>
      </trkpt>
      <trkpt lat="35.193788940086961" lon="-5.306512741371989">
        <ele>233.7376708984375</ele>
        <time>2011-04-25T07:27:09Z</time>
      </trkpt>
      <trkpt lat="35.193817019462585" lon="-5.30727406963706">
        <ele>229.892333984375</ele>
        <time>2011-04-25T07:27:14Z</time>
      </trkpt>
      <trkpt lat="35.193674694746733" lon="-5.307533573359251">
        <ele>227.9697265625</ele>
        <time>2011-04-25T07:27:16Z</time>
      </trkpt>
      <trkpt lat="35.193331288173795" lon="-5.308054760098457">
        <ele>225.5665283203125</ele>
        <time>2011-04-25T07:27:20Z</time>
      </trkpt>
      <trkpt lat="35.193204050883651" lon="-5.308707961812615">
        <ele>224.605224609375</ele>
        <time>2011-04-25T07:27:25Z</time>
      </trkpt>
      <trkpt lat="35.193379316478968" lon="-5.309053966775537">
        <ele>225.0859375</ele>
        <time>2011-04-25T07:27:28Z</time>
      </trkpt>
      <trkpt lat="35.19420325756073" lon="-5.310070188716054">
        <ele>227.008544921875</ele>
        <time>2011-04-25T07:27:38Z</time>
      </trkpt>
      <trkpt lat="35.194363687187433" lon="-5.310279568657279">
        <ele>227.4891357421875</ele>
        <time>2011-04-25T07:27:40Z</time>
      </trkpt>
      <trkpt lat="35.195217551663518" lon="-5.310833193361759">
        <ele>230.853759765625</ele>
        <time>2011-04-25T07:27:47Z</time>
      </trkpt>
      <trkpt lat="35.195482419803739" lon="-5.31095783226192">
        <ele>231.81494140625</ele>
        <time>2011-04-25T07:27:49Z</time>
      </trkpt>
      <trkpt lat="35.196057837456465" lon="-5.311039388179779">
        <ele>232.7764892578125</ele>
        <time>2011-04-25T07:27:53Z</time>
      </trkpt>
      <trkpt lat="35.196516998112202" lon="-5.311027737334371">
        <ele>233.7376708984375</ele>
        <time>2011-04-25T07:27:56Z</time>
      </trkpt>
      <trkpt lat="35.197132481262088" lon="-5.311263352632523">
        <ele>235.1796875</ele>
        <time>2011-04-25T07:28:00Z</time>
      </trkpt>
      <trkpt lat="35.197714688256383" lon="-5.311616146937013">
        <ele>236.1409912109375</ele>
        <time>2011-04-25T07:28:04Z</time>
      </trkpt>
      <trkpt lat="35.199202392250299" lon="-5.311878835782409">
        <ele>235.6602783203125</ele>
        <time>2011-04-25T07:28:13Z</time>
      </trkpt>
      <trkpt lat="35.199358128011227" lon="-5.311908591538668">
        <ele>235.6602783203125</ele>
        <time>2011-04-25T07:28:14Z</time>
      </trkpt>
      <trkpt lat="35.199927594512701" lon="-5.312205730006099">
        <ele>233.257080078125</ele>
        <time>2011-04-25T07:28:18Z</time>
      </trkpt>
      <trkpt lat="35.200969632714987" lon="-5.312766982242465">
        <ele>231.81494140625</ele>
        <time>2011-04-25T07:28:25Z</time>
      </trkpt>
      <trkpt lat="35.201865993440151" lon="-5.313378525897861">
        <ele>231.81494140625</ele>
        <time>2011-04-25T07:28:31Z</time>
      </trkpt>
      <trkpt lat="35.203573973849416" lon="-5.314810322597623">
        <ele>230.853759765625</ele>
        <time>2011-04-25T07:28:43Z</time>
      </trkpt>
      <trkpt lat="35.204794965684414" lon="-5.315961157903075">
        <ele>231.3343505859375</ele>
        <time>2011-04-25T07:28:51Z</time>
      </trkpt>
      <trkpt lat="35.206019897013903" lon="-5.31703588552773">
        <ele>232.2957763671875</ele>
        <time>2011-04-25T07:28:59Z</time>
      </trkpt>
      <trkpt lat="35.206874432042241" lon="-5.317738959565759">
        <ele>234.2183837890625</ele>
        <time>2011-04-25T07:29:05Z</time>
      </trkpt>
      <trkpt lat="35.207787975668907" lon="-5.318098962306976">
        <ele>238.0635986328125</ele>
        <time>2011-04-25T07:29:11Z</time>
      </trkpt>
      <trkpt lat="35.208410080522299" lon="-5.317999552935362">
        <ele>239.5054931640625</ele>
        <time>2011-04-25T07:29:15Z</time>
      </trkpt>
      <trkpt lat="35.210288632661104" lon="-5.317030437290669">
        <ele>241.908935546875</ele>
        <time>2011-04-25T07:29:27Z</time>
      </trkpt>
      <trkpt lat="35.211615068838" lon="-5.316713266074657">
        <ele>246.23486328125</ele>
        <time>2011-04-25T07:29:34Z</time>
      </trkpt>
      <trkpt lat="35.214217146858573" lon="-5.316234827041626">
        <ele>252.4833984375</ele>
        <time>2011-04-25T07:29:47Z</time>
      </trkpt>
      <trkpt lat="35.217372849583626" lon="-5.315646249800921">
        <ele>254.8865966796875</ele>
        <time>2011-04-25T07:30:02Z</time>
      </trkpt>
      <trkpt lat="35.218693669885397" lon="-5.315242325887084">
        <ele>256.809326171875</ele>
        <time>2011-04-25T07:30:09Z</time>
      </trkpt>
      <trkpt lat="35.219782730564475" lon="-5.314856674522162">
        <ele>262.5771484375</ele>
        <time>2011-04-25T07:30:16Z</time>
      </trkpt>
      <trkpt lat="35.219918852671981" lon="-5.31483655795455">
        <ele>263.057861328125</ele>
        <time>2011-04-25T07:30:17Z</time>
      </trkpt>
      <trkpt lat="35.220526959747076" lon="-5.315051218494773">
        <ele>262.0965576171875</ele>
        <time>2011-04-25T07:30:22Z</time>
      </trkpt>
      <trkpt lat="35.220794761553407" lon="-5.31543267890811">
        <ele>258.73193359375</ele>
        <time>2011-04-25T07:30:25Z</time>
      </trkpt>
      <trkpt lat="35.221481993794441" lon="-5.316952066496015">
        <ele>251.5220947265625</ele>
        <time>2011-04-25T07:30:34Z</time>
      </trkpt>
      <trkpt lat="35.222484720870852" lon="-5.319097498431802">
        <ele>244.312255859375</ele>
        <time>2011-04-25T07:30:47Z</time>
      </trkpt>
      <trkpt lat="35.223405556753278" lon="-5.321016199886799">
        <ele>245.2734375</ele>
        <time>2011-04-25T07:30:59Z</time>
      </trkpt>
      <trkpt lat="35.223757848143578" lon="-5.321736037731171">
        <ele>244.7928466796875</ele>
        <time>2011-04-25T07:31:04Z</time>
      </trkpt>
      <trkpt lat="35.224277777597308" lon="-5.322197629138827">
        <ele>243.83154296875</ele>
        <time>2011-04-25T07:31:09Z</time>
      </trkpt>
      <trkpt lat="35.224677678197622" lon="-5.322263091802597">
        <ele>243.83154296875</ele>
        <time>2011-04-25T07:31:12Z</time>
      </trkpt>
      <trkpt lat="35.22638289257884" lon="-5.32232478260994">
        <ele>237.5828857421875</ele>
        <time>2011-04-25T07:31:24Z</time>
      </trkpt>
      <trkpt lat="35.228035971522331" lon="-5.322413044050336">
        <ele>235.1796875</ele>
        <time>2011-04-25T07:31:36Z</time>
      </trkpt>
      <trkpt lat="35.229163840413094" lon="-5.322582274675369">
        <ele>233.257080078125</ele>
        <time>2011-04-25T07:31:44Z</time>
      </trkpt>
      <trkpt lat="35.230112671852112" lon="-5.323115698993206">
        <ele>236.6217041015625</ele>
        <time>2011-04-25T07:31:51Z</time>
      </trkpt>
      <trkpt lat="35.231668269261718" lon="-5.324092693626881">
        <ele>242.8702392578125</ele>
        <time>2011-04-25T07:32:02Z</time>
      </trkpt>
      <trkpt lat="35.232608048245311" lon="-5.324572641402483">
        <ele>244.312255859375</ele>
        <time>2011-04-25T07:32:09Z</time>
      </trkpt>
      <trkpt lat="35.233194194734097" lon="-5.324473818764091">
        <ele>245.2734375</ele>
        <time>2011-04-25T07:32:13Z</time>
      </trkpt>
      <trkpt lat="35.234745936468244" lon="-5.323981968685985">
        <ele>253.9254150390625</ele>
        <time>2011-04-25T07:32:23Z</time>
      </trkpt>
      <trkpt lat="35.236187791451812" lon="-5.323978448286653">
        <ele>259.212646484375</ele>
        <time>2011-04-25T07:32:32Z</time>
      </trkpt>
      <trkpt lat="35.238027619197965" lon="-5.324480859562755">
        <ele>255.3673095703125</ele>
        <time>2011-04-25T07:32:44Z</time>
      </trkpt>
      <trkpt lat="35.2388028614223" lon="-5.32457104884088">
        <ele>255.8480224609375</ele>
        <time>2011-04-25T07:32:49Z</time>
      </trkpt>
      <trkpt lat="35.23975613527" lon="-5.32508946955204">
        <ele>255.8480224609375</ele>
        <time>2011-04-25T07:32:56Z</time>
      </trkpt>
      <trkpt lat="35.24075391702354" lon="-5.3252590354532">
        <ele>252.4833984375</ele>
        <time>2011-04-25T07:33:02Z</time>
      </trkpt>
      <trkpt lat="35.241641141474247" lon="-5.325642339885235">
        <ele>254.8865966796875</ele>
        <time>2011-04-25T07:33:07Z</time>
      </trkpt>
      <trkpt lat="35.242670187726617" lon="-5.32629587687552">
        <ele>261.615966796875</ele>
        <time>2011-04-25T07:33:13Z</time>
      </trkpt>
      <trkpt lat="35.243153320625424" lon="-5.32694673165679">
        <ele>267.864501953125</ele>
        <time>2011-04-25T07:33:17Z</time>
      </trkpt>
      <trkpt lat="35.244293259456754" lon="-5.329593820497394">
        <ele>277.4776611328125</ele>
        <time>2011-04-25T07:33:30Z</time>
      </trkpt>
      <trkpt lat="35.244452767074108" lon="-5.329957092180848">
        <ele>278.919677734375</ele>
        <time>2011-04-25T07:33:32Z</time>
      </trkpt>
      <trkpt lat="35.245092054829001" lon="-5.330411978065968">
        <ele>283.24560546875</ele>
        <time>2011-04-25T07:33:37Z</time>
      </trkpt>
      <trkpt lat="35.245908619835973" lon="-5.330665446817875">
        <ele>281.322998046875</ele>
        <time>2011-04-25T07:33:42Z</time>
      </trkpt>
      <trkpt lat="35.246459143236279" lon="-5.331148076802492">
        <ele>285.168212890625</ele>
        <time>2011-04-25T07:33:46Z</time>
      </trkpt>
      <trkpt lat="35.247068339958787" lon="-5.332158599048853">
        <ele>292.8587646484375</ele>
        <time>2011-04-25T07:33:52Z</time>
      </trkpt>
      <trkpt lat="35.247918348759413" lon="-5.332846418023109">
        <ele>296.7041015625</ele>
        <time>2011-04-25T07:33:58Z</time>
      </trkpt>
      <trkpt lat="35.249572182074189" lon="-5.334078390151262">
        <ele>302.471923828125</ele>
        <time>2011-04-25T07:34:08Z</time>
      </trkpt>
      <trkpt lat="35.250995177775621" lon="-5.335695678368211">
        <ele>306.7978515625</ele>
        <time>2011-04-25T07:34:17Z</time>
      </trkpt>
      <trkpt lat="35.253364657983184" lon="-5.338359950110316">
        <ele>313.0465087890625</ele>
        <time>2011-04-25T07:34:31Z</time>
      </trkpt>
      <trkpt lat="35.255089066922665" lon="-5.340271526947618">
        <ele>318.8143310546875</ele>
        <time>2011-04-25T07:34:42Z</time>
      </trkpt>
      <trkpt lat="35.255514951422811" lon="-5.340702356770635">
        <ele>319.775634765625</ele>
        <time>2011-04-25T07:34:45Z</time>
      </trkpt>
      <trkpt lat="35.256147617474198" lon="-5.34095473587513">
        <ele>320.25634765625</ele>
        <time>2011-04-25T07:34:49Z</time>
      </trkpt>
      <trkpt lat="35.258039580658078" lon="-5.341340219601989">
        <ele>326.024169921875</ele>
        <time>2011-04-25T07:35:00Z</time>
      </trkpt>
      <trkpt lat="35.259429467841983" lon="-5.342043377459049">
        <ele>339.0020751953125</ele>
        <time>2011-04-25T07:35:09Z</time>
      </trkpt>
      <trkpt lat="35.259912265464664" lon="-5.342661458998919">
        <ele>347.1732177734375</ele>
        <time>2011-04-25T07:35:14Z</time>
      </trkpt>
      <trkpt lat="35.259985774755478" lon="-5.343017522245646">
        <ele>350.537841796875</ele>
        <time>2011-04-25T07:35:16Z</time>
      </trkpt>
      <trkpt lat="35.26010949164629" lon="-5.344374384731054">
        <ele>361.5931396484375</ele>
        <time>2011-04-25T07:35:23Z</time>
      </trkpt>
      <trkpt lat="35.260457340627909" lon="-5.345188518986106">
        <ele>368.322265625</ele>
        <time>2011-04-25T07:35:28Z</time>
      </trkpt>
      <trkpt lat="35.260582147166133" lon="-5.345313241705298">
        <ele>369.28369140625</ele>
        <time>2011-04-25T07:35:29Z</time>
      </trkpt>
      <trkpt lat="35.261796433478594" lon="-5.3463682718575">
        <ele>376.9742431640625</ele>
        <time>2011-04-25T07:35:38Z</time>
      </trkpt>
      <trkpt lat="35.262553654611111" lon="-5.346533479169011">
        <ele>375.5321044921875</ele>
        <time>2011-04-25T07:35:43Z</time>
      </trkpt>
      <trkpt lat="35.263204257935286" lon="-5.346406660974026">
        <ele>374.57080078125</ele>
        <time>2011-04-25T07:35:47Z</time>
      </trkpt>
      <trkpt lat="35.26412065140903" lon="-5.346692064777017">
        <ele>373.12890625</ele>
        <time>2011-04-25T07:35:53Z</time>
      </trkpt>
      <trkpt lat="35.264600180089474" lon="-5.347271924838424">
        <ele>374.090087890625</ele>
        <time>2011-04-25T07:35:57Z</time>
      </trkpt>
      <trkpt lat="35.264692381024361" lon="-5.347445933148265">
        <ele>374.090087890625</ele>
        <time>2011-04-25T07:35:58Z</time>
      </trkpt>
      <trkpt lat="35.265163360163569" lon="-5.348456455394626">
        <ele>374.57080078125</ele>
        <time>2011-04-25T07:36:04Z</time>
      </trkpt>
      <trkpt lat="35.265731317922473" lon="-5.348968673497438">
        <ele>376.0128173828125</ele>
        <time>2011-04-25T07:36:09Z</time>
      </trkpt>
      <trkpt lat="35.266318721696734" lon="-5.348980994895101">
        <ele>375.051513671875</ele>
        <time>2011-04-25T07:36:13Z</time>
      </trkpt>
      <trkpt lat="35.266472781077027" lon="-5.348931038752198">
        <ele>375.5321044921875</ele>
        <time>2011-04-25T07:36:14Z</time>
      </trkpt>
      <trkpt lat="35.267069153487682" lon="-5.348742362111807">
        <ele>377.9354248046875</ele>
        <time>2011-04-25T07:36:18Z</time>
      </trkpt>
      <trkpt lat="35.267591346055269" lon="-5.348888039588928">
        <ele>378.8968505859375</ele>
        <time>2011-04-25T07:36:23Z</time>
      </trkpt>
      <trkpt lat="35.267683798447251" lon="-5.348990131169558">
        <ele>379.8580322265625</ele>
        <time>2011-04-25T07:36:24Z</time>
      </trkpt>
      <trkpt lat="35.268635647371411" lon="-5.35013317130506">
        <ele>387.0679931640625</ele>
        <time>2011-04-25T07:36:33Z</time>
      </trkpt>
      <trkpt lat="35.268955333158374" lon="-5.350499460473657">
        <ele>388.9906005859375</ele>
        <time>2011-04-25T07:36:36Z</time>
      </trkpt>
      <trkpt lat="35.269546257331967" lon="-5.35060222260654">
        <ele>389.951904296875</ele>
        <time>2011-04-25T07:36:41Z</time>
      </trkpt>
      <trkpt lat="35.270045399665833" lon="-5.350334923714399">
        <ele>388.9906005859375</ele>
        <time>2011-04-25T07:36:45Z</time>
      </trkpt>
      <trkpt lat="35.270385621115565" lon="-5.350081622600555">
        <ele>387.548583984375</ele>
        <time>2011-04-25T07:36:48Z</time>
      </trkpt>
      <trkpt lat="35.271064471453428" lon="-5.350153455510736">
        <ele>391.393798828125</ele>
        <time>2011-04-25T07:36:53Z</time>
      </trkpt>
      <trkpt lat="35.271641816943884" lon="-5.350371049717069">
        <ele>394.758544921875</ele>
        <time>2011-04-25T07:36:57Z</time>
      </trkpt>
      <trkpt lat="35.272272219881415" lon="-5.350251356139779">
        <ele>399.0843505859375</ele>
        <time>2011-04-25T07:37:02Z</time>
      </trkpt>
      <trkpt lat="35.272460393607616" lon="-5.350013729184866">
        <ele>401.007080078125</ele>
        <time>2011-04-25T07:37:04Z</time>
      </trkpt>
      <trkpt lat="35.273551465943456" lon="-5.348412618041039">
        <ele>413.5042724609375</ele>
        <time>2011-04-25T07:37:15Z</time>
      </trkpt>
      <trkpt lat="35.273649031296372" lon="-5.348277417942882">
        <ele>414.4654541015625</ele>
        <time>2011-04-25T07:37:16Z</time>
      </trkpt>
      <trkpt lat="35.274221682921052" lon="-5.347989248111844">
        <ele>417.8302001953125</ele>
        <time>2011-04-25T07:37:21Z</time>
      </trkpt>
      <trkpt lat="35.275387521833181" lon="-5.348055716603994">
        <ele>423.117431640625</ele>
        <time>2011-04-25T07:37:29Z</time>
      </trkpt>
      <trkpt lat="35.27551693841815" lon="-5.348071474581957">
        <ele>423.5980224609375</ele>
        <time>2011-04-25T07:37:30Z</time>
      </trkpt>
      <trkpt lat="35.275971153751016" lon="-5.348472548648715">
        <ele>427.9239501953125</ele>
        <time>2011-04-25T07:37:35Z</time>
      </trkpt>
      <trkpt lat="35.275977691635489" lon="-5.348888374865055">
        <ele>427.9239501953125</ele>
        <time>2011-04-25T07:37:38Z</time>
      </trkpt>
      <trkpt lat="35.276125380769372" lon="-5.349634196609259">
        <ele>432.730712890625</ele>
        <time>2011-04-25T07:37:44Z</time>
      </trkpt>
      <trkpt lat="35.276668863371015" lon="-5.350132919847965">
        <ele>441.3824462890625</ele>
        <time>2011-04-25T07:37:49Z</time>
      </trkpt>
      <trkpt lat="35.277701849117875" lon="-5.350824845954776">
        <ele>450.034423828125</ele>
        <time>2011-04-25T07:37:56Z</time>
      </trkpt>
      <trkpt lat="35.27873114682734" lon="-5.35182137042284">
        <ele>458.6861572265625</ele>
        <time>2011-04-25T07:38:04Z</time>
      </trkpt>
      <trkpt lat="35.278930719941854" lon="-5.352047262713313">
        <ele>460.128173828125</ele>
        <time>2011-04-25T07:38:06Z</time>
      </trkpt>
      <trkpt lat="35.279552321881056" lon="-5.352327637374401">
        <ele>462.05078125</ele>
        <time>2011-04-25T07:38:11Z</time>
      </trkpt>
      <trkpt lat="35.279699340462685" lon="-5.352318333461881">
        <ele>462.05078125</ele>
        <time>2011-04-25T07:38:12Z</time>
      </trkpt>
      <trkpt lat="35.280640628188848" lon="-5.35217609256506">
        <ele>463.973388671875</ele>
        <time>2011-04-25T07:38:18Z</time>
      </trkpt>
      <trkpt lat="35.281171789392829" lon="-5.351812653243542">
        <ele>465.8961181640625</ele>
        <time>2011-04-25T07:38:22Z</time>
      </trkpt>
      <trkpt lat="35.282544661313295" lon="-5.350472722202539">
        <ele>471.183349609375</ele>
        <time>2011-04-25T07:38:32Z</time>
      </trkpt>
      <trkpt lat="35.283206664025784" lon="-5.349730923771858">
        <ele>474.5479736328125</ele>
        <time>2011-04-25T07:38:38Z</time>
      </trkpt>
      <trkpt lat="35.283752493560314" lon="-5.349508468061686">
        <ele>477.431884765625</ele>
        <time>2011-04-25T07:38:43Z</time>
      </trkpt>
      <trkpt lat="35.284268148243427" lon="-5.349519699811935">
        <ele>478.3931884765625</ele>
        <time>2011-04-25T07:38:47Z</time>
      </trkpt>
      <trkpt lat="35.284724961966276" lon="-5.349277043715119">
        <ele>482.238525390625</ele>
        <time>2011-04-25T07:38:51Z</time>
      </trkpt>
      <trkpt lat="35.285131735727191" lon="-5.348867755383253">
        <ele>486.564453125</ele>
        <time>2011-04-25T07:38:55Z</time>
      </trkpt>
      <trkpt lat="35.285748476162553" lon="-5.348632056266069">
        <ele>491.3709716796875</ele>
        <time>2011-04-25T07:39:00Z</time>
      </trkpt>
      <trkpt lat="35.28589348308742" lon="-5.348647898063064">
        <ele>492.3323974609375</ele>
        <time>2011-04-25T07:39:01Z</time>
      </trkpt>
      <trkpt lat="35.28649253770709" lon="-5.348721155896783">
        <ele>496.177734375</ele>
        <time>2011-04-25T07:39:05Z</time>
      </trkpt>
      <trkpt lat="35.287251099944115" lon="-5.348602216690779">
        <ele>501.945556640625</ele>
        <time>2011-04-25T07:39:10Z</time>
      </trkpt>
      <trkpt lat="35.287951994687319" lon="-5.348834898322821">
        <ele>506.7520751953125</ele>
        <time>2011-04-25T07:39:15Z</time>
      </trkpt>
      <trkpt lat="35.288078980520368" lon="-5.348954675719142">
        <ele>508.194091796875</ele>
        <time>2011-04-25T07:39:16Z</time>
      </trkpt>
      <trkpt lat="35.288660516962409" lon="-5.349545432254672">
        <ele>514.442626953125</ele>
        <time>2011-04-25T07:39:21Z</time>
      </trkpt>
      <trkpt lat="35.289306594058871" lon="-5.349680297076702">
        <ele>515.8846435546875</ele>
        <time>2011-04-25T07:39:26Z</time>
      </trkpt>
      <trkpt lat="35.290582235902548" lon="-5.349348373711109">
        <ele>524.0557861328125</ele>
        <time>2011-04-25T07:39:34Z</time>
      </trkpt>
      <trkpt lat="35.291756289079785" lon="-5.348988873884082">
        <ele>532.22705078125</ele>
        <time>2011-04-25T07:39:41Z</time>
      </trkpt>
      <trkpt lat="35.292738061398268" lon="-5.349086774513125">
        <ele>537.9949951171875</ele>
        <time>2011-04-25T07:39:47Z</time>
      </trkpt>
      <trkpt lat="35.292884241789579" lon="-5.349120972678065">
        <ele>538.4757080078125</ele>
        <time>2011-04-25T07:39:48Z</time>
      </trkpt>
      <trkpt lat="35.293391095474362" lon="-5.349440071731806">
        <ele>542.3209228515625</ele>
        <time>2011-04-25T07:39:52Z</time>
      </trkpt>
      <trkpt lat="35.294447131454945" lon="-5.350509854033589">
        <ele>551.93408203125</ele>
        <time>2011-04-25T07:40:00Z</time>
      </trkpt>
      <trkpt lat="35.294898329302669" lon="-5.350784948095679">
        <ele>554.81787109375</ele>
        <time>2011-04-25T07:40:03Z</time>
      </trkpt>
      <trkpt lat="35.295522026717663" lon="-5.350867258384824">
        <ele>555.779296875</ele>
        <time>2011-04-25T07:40:07Z</time>
      </trkpt>
      <trkpt lat="35.296559957787395" lon="-5.350685874000192">
        <ele>558.663330078125</ele>
        <time>2011-04-25T07:40:13Z</time>
      </trkpt>
      <trkpt lat="35.297304354608059" lon="-5.350865246728063">
        <ele>562.028076171875</ele>
        <time>2011-04-25T07:40:18Z</time>
      </trkpt>
      <trkpt lat="35.297565450891852" lon="-5.351016875356436">
        <ele>563.469970703125</ele>
        <time>2011-04-25T07:40:20Z</time>
      </trkpt>
      <trkpt lat="35.298168445006013" lon="-5.350878741592169">
        <ele>563.950439453125</ele>
        <time>2011-04-25T07:40:25Z</time>
      </trkpt>
      <trkpt lat="35.298291826620698" lon="-5.350779164582491">
        <ele>563.469970703125</ele>
        <time>2011-04-25T07:40:26Z</time>
      </trkpt>
      <trkpt lat="35.298795076087117" lon="-5.350322686135769">
        <ele>561.54736328125</ele>
        <time>2011-04-25T07:40:30Z</time>
      </trkpt>
      <trkpt lat="35.299858655780554" lon="-5.349850198253989">
        <ele>559.624755859375</ele>
        <time>2011-04-25T07:40:37Z</time>
      </trkpt>
      <trkpt lat="35.301209064200521" lon="-5.349014271050692">
        <ele>555.298583984375</ele>
        <time>2011-04-25T07:40:46Z</time>
      </trkpt>
      <trkpt lat="35.301491282880306" lon="-5.348844369873405">
        <ele>554.33740234375</ele>
        <time>2011-04-25T07:40:48Z</time>
      </trkpt>
      <trkpt lat="35.302184633910656" lon="-5.3488480579108">
        <ele>552.41455078125</ele>
        <time>2011-04-25T07:40:53Z</time>
      </trkpt>
      <trkpt lat="35.302326288074255" lon="-5.348923159763217">
        <ele>551.93408203125</ele>
        <time>2011-04-25T07:40:54Z</time>
      </trkpt>
      <trkpt lat="35.303473016247153" lon="-5.349355833604932">
        <ele>550.011474609375</ele>
        <time>2011-04-25T07:41:01Z</time>
      </trkpt>
      <trkpt lat="35.304874051362276" lon="-5.349838547408581">
        <ele>548.5693359375</ele>
        <time>2011-04-25T07:41:09Z</time>
      </trkpt>
      <trkpt lat="35.305928662419319" lon="-5.350619992241263">
        <ele>551.93408203125</ele>
        <time>2011-04-25T07:41:16Z</time>
      </trkpt>
      <trkpt lat="35.306911692023277" lon="-5.351048894226551">
        <ele>548.5693359375</ele>
        <time>2011-04-25T07:41:22Z</time>
      </trkpt>
      <trkpt lat="35.307536227628589" lon="-5.351616097614169">
        <ele>550.97265625</ele>
        <time>2011-04-25T07:41:27Z</time>
      </trkpt>
      <trkpt lat="35.307753989472985" lon="-5.35186436958611">
        <ele>551.93408203125</ele>
        <time>2011-04-25T07:41:29Z</time>
      </trkpt>
      <trkpt lat="35.308330580592155" lon="-5.351992947980762">
        <ele>552.895263671875</ele>
        <time>2011-04-25T07:41:34Z</time>
      </trkpt>
      <trkpt lat="35.309437159448862" lon="-5.351577876135707">
        <ele>555.779296875</ele>
        <time>2011-04-25T07:41:42Z</time>
      </trkpt>
      <trkpt lat="35.309977121651173" lon="-5.351670496165752">
        <ele>557.221435546875</ele>
        <time>2011-04-25T07:41:47Z</time>
      </trkpt>
      <trkpt lat="35.310055743902922" lon="-5.351733276620507">
        <ele>557.7021484375</ele>
        <time>2011-04-25T07:41:48Z</time>
      </trkpt>
      <trkpt lat="35.310737192630768" lon="-5.352618740871549">
        <ele>563.469970703125</ele>
        <time>2011-04-25T07:41:56Z</time>
      </trkpt>
      <trkpt lat="35.311222923919559" lon="-5.353323491290212">
        <ele>569.718505859375</ele>
        <time>2011-04-25T07:42:01Z</time>
      </trkpt>
      <trkpt lat="35.31184402294457" lon="-5.353731941431761">
        <ele>572.6025390625</ele>
        <time>2011-04-25T07:42:06Z</time>
      </trkpt>
      <trkpt lat="35.312855467200279" lon="-5.354252038523555">
        <ele>578.85107421875</ele>
        <time>2011-04-25T07:42:13Z</time>
      </trkpt>
      <trkpt lat="35.31399548985064" lon="-5.354762496426702">
        <ele>582.215576171875</ele>
        <time>2011-04-25T07:42:21Z</time>
      </trkpt>
      <trkpt lat="35.315489396452904" lon="-5.355335986241698">
        <ele>579.33154296875</ele>
        <time>2011-04-25T07:42:32Z</time>
      </trkpt>
      <trkpt lat="35.317093860358" lon="-5.355970244854689">
        <ele>581.73486328125</ele>
        <time>2011-04-25T07:42:44Z</time>
      </trkpt>
      <trkpt lat="35.319032091647387" lon="-5.356732662767172">
        <ele>585.580078125</ele>
        <time>2011-04-25T07:42:59Z</time>
      </trkpt>
      <trkpt lat="35.319659728556871" lon="-5.356979677453637">
        <ele>585.580078125</ele>
        <time>2011-04-25T07:43:06Z</time>
      </trkpt>
      <trkpt lat="35.320056779310107" lon="-5.357159553095698">
        <ele>584.13818359375</ele>
        <time>2011-04-25T07:43:13Z</time>
      </trkpt>
      <trkpt lat="35.32076639123261" lon="-5.357413440942764">
        <ele>581.73486328125</ele>
        <time>2011-04-25T07:43:19Z</time>
      </trkpt>
      <trkpt lat="35.321852937340736" lon="-5.357836643233895">
        <ele>580.773681640625</ele>
        <time>2011-04-25T07:43:26Z</time>
      </trkpt>
      <trkpt lat="35.323711037635803" lon="-5.358554469421506">
        <ele>584.13818359375</ele>
        <time>2011-04-25T07:43:36Z</time>
      </trkpt>
      <trkpt lat="35.325043341144919" lon="-5.358908185735345">
        <ele>584.13818359375</ele>
        <time>2011-04-25T07:43:43Z</time>
      </trkpt>
      <trkpt lat="35.32735263928771" lon="-5.359321581199765">
        <ele>585.099609375</ele>
        <time>2011-04-25T07:43:54Z</time>
      </trkpt>
      <trkpt lat="35.330158481374383" lon="-5.359840421006084">
        <ele>585.099609375</ele>
        <time>2011-04-25T07:44:07Z</time>
      </trkpt>
      <trkpt lat="35.332849491387606" lon="-5.360340233892202">
        <ele>585.580078125</ele>
        <time>2011-04-25T07:44:19Z</time>
      </trkpt>
      <trkpt lat="35.335455257445574" lon="-5.360803920775652">
        <ele>593.270751953125</ele>
        <time>2011-04-25T07:44:31Z</time>
      </trkpt>
      <trkpt lat="35.33614844083786" lon="-5.360940294340253">
        <ele>601.922607421875</ele>
        <time>2011-04-25T07:44:35Z</time>
      </trkpt>
      <trkpt lat="35.3367904946208" lon="-5.361423762515187">
        <ele>613.45849609375</ele>
        <time>2011-04-25T07:44:40Z</time>
      </trkpt>
      <trkpt lat="35.337533466517925" lon="-5.362542076036334">
        <ele>626.9169921875</ele>
        <time>2011-04-25T07:44:47Z</time>
      </trkpt>
      <trkpt lat="35.338351875543594" lon="-5.363196870312095">
        <ele>634.607421875</ele>
        <time>2011-04-25T07:44:53Z</time>
      </trkpt>
      <trkpt lat="35.339118735864758" lon="-5.363756278529763">
        <ele>637.0107421875</ele>
        <time>2011-04-25T07:45:00Z</time>
      </trkpt>
      <trkpt lat="35.34055832773447" lon="-5.365034770220518">
        <ele>629.320068359375</ele>
        <time>2011-04-25T07:45:13Z</time>
      </trkpt>
      <trkpt lat="35.341590475291014" lon="-5.365464426577091">
        <ele>620.66845703125</ele>
        <time>2011-04-25T07:45:21Z</time>
      </trkpt>
      <trkpt lat="35.341687370091677" lon="-5.365514466539025">
        <ele>619.70703125</ele>
        <time>2011-04-25T07:45:22Z</time>
      </trkpt>
      <trkpt lat="35.341986520215869" lon="-5.366002041846514">
        <ele>617.7841796875</ele>
        <time>2011-04-25T07:45:27Z</time>
      </trkpt>
      <trkpt lat="35.342007474973798" lon="-5.366449132561684">
        <ele>616.822998046875</ele>
        <time>2011-04-25T07:45:30Z</time>
      </trkpt>
      <trkpt lat="35.341856768354774" lon="-5.368367834016681">
        <ele>610.09375</ele>
        <time>2011-04-25T07:45:42Z</time>
      </trkpt>
      <trkpt lat="35.34206522628665" lon="-5.369001924991608">
        <ele>609.132568359375</ele>
        <time>2011-04-25T07:45:47Z</time>
      </trkpt>
      <trkpt lat="35.342375691980124" lon="-5.369204599410296">
        <ele>607.2099609375</ele>
        <time>2011-04-25T07:45:50Z</time>
      </trkpt>
      <trkpt lat="35.342858573421836" lon="-5.369340470060706">
        <ele>604.326171875</ele>
        <time>2011-04-25T07:45:54Z</time>
      </trkpt>
      <trkpt lat="35.343487886711955" lon="-5.369160259142518">
        <ele>600.961181640625</ele>
        <time>2011-04-25T07:45:59Z</time>
      </trkpt>
      <trkpt lat="35.344780376181006" lon="-5.36821385845542">
        <ele>593.75146484375</ele>
        <time>2011-04-25T07:46:11Z</time>
      </trkpt>
      <trkpt lat="35.345872286707163" lon="-5.367400981485844">
        <ele>587.502685546875</ele>
        <time>2011-04-25T07:46:21Z</time>
      </trkpt>
      <trkpt lat="35.346459941938519" lon="-5.367264188826084">
        <ele>586.060791015625</ele>
        <time>2011-04-25T07:46:26Z</time>
      </trkpt>
      <trkpt lat="35.34658458083868" lon="-5.367311043664813">
        <ele>585.099609375</ele>
        <time>2011-04-25T07:46:27Z</time>
      </trkpt>
      <trkpt lat="35.347202075645328" lon="-5.36756593734026">
        <ele>582.215576171875</ele>
        <time>2011-04-25T07:46:32Z</time>
      </trkpt>
      <trkpt lat="35.347669785842299" lon="-5.367330238223076">
        <ele>575.967041015625</ele>
        <time>2011-04-25T07:46:37Z</time>
      </trkpt>
      <trkpt lat="35.347761316224933" lon="-5.367216328158975">
        <ele>575.967041015625</ele>
        <time>2011-04-25T07:46:38Z</time>
      </trkpt>
      <trkpt lat="35.347919566556811" lon="-5.366998063400388">
        <ele>576.44775390625</ele>
        <time>2011-04-25T07:46:40Z</time>
      </trkpt>
      <trkpt lat="35.348429940640926" lon="-5.366697991266847">
        <ele>575.486328125</ele>
        <time>2011-04-25T07:46:45Z</time>
      </trkpt>
      <trkpt lat="35.349937593564391" lon="-5.366467656567693">
        <ele>569.23779296875</ele>
        <time>2011-04-25T07:46:56Z</time>
      </trkpt>
      <trkpt lat="35.350444363430142" lon="-5.366699164733291">
        <ele>567.315185546875</ele>
        <time>2011-04-25T07:47:01Z</time>
      </trkpt>
      <trkpt lat="35.350493984296918" lon="-5.367205180227757">
        <ele>560.5859375</ele>
        <time>2011-04-25T07:47:05Z</time>
      </trkpt>
      <trkpt lat="35.350459953770041" lon="-5.367348846048117">
        <ele>559.624755859375</ele>
        <time>2011-04-25T07:47:06Z</time>
      </trkpt>
      <trkpt lat="35.350293656811118" lon="-5.367942033335567">
        <ele>555.779296875</ele>
        <time>2011-04-25T07:47:10Z</time>
      </trkpt>
      <trkpt lat="35.350317126139998" lon="-5.368582746013999">
        <ele>552.895263671875</ele>
        <time>2011-04-25T07:47:15Z</time>
      </trkpt>
      <trkpt lat="35.350558357313275" lon="-5.368843758478761">
        <ele>550.97265625</ele>
        <time>2011-04-25T07:47:18Z</time>
      </trkpt>
      <trkpt lat="35.351752191781998" lon="-5.369617491960526">
        <ele>548.0888671875</ele>
        <time>2011-04-25T07:47:29Z</time>
      </trkpt>
      <trkpt lat="35.352223087102175" lon="-5.369894932955504">
        <ele>546.166259765625</ele>
        <time>2011-04-25T07:47:33Z</time>
      </trkpt>
      <trkpt lat="35.353168230503798" lon="-5.370039772242308">
        <ele>540.3983154296875</ele>
        <time>2011-04-25T07:47:40Z</time>
      </trkpt>
      <trkpt lat="35.354166179895401" lon="-5.370155526325107">
        <ele>535.1109619140625</ele>
        <time>2011-04-25T07:47:47Z</time>
      </trkpt>
      <trkpt lat="35.35485559143126" lon="-5.370612591505051">
        <ele>530.304443359375</ele>
        <time>2011-04-25T07:47:53Z</time>
      </trkpt>
      <trkpt lat="35.355374263599515" lon="-5.370794981718063">
        <ele>527.42041015625</ele>
        <time>2011-04-25T07:47:57Z</time>
      </trkpt>
      <trkpt lat="35.356191666796803" lon="-5.370877962559462">
        <ele>525.0172119140625</ele>
        <time>2011-04-25T07:48:03Z</time>
      </trkpt>
      <trkpt lat="35.356704471632838" lon="-5.371190439909697">
        <ele>524.0557861328125</ele>
        <time>2011-04-25T07:48:07Z</time>
      </trkpt>
      <trkpt lat="35.357901742681861" lon="-5.372360637411475">
        <ele>521.1719970703125</ele>
        <time>2011-04-25T07:48:18Z</time>
      </trkpt>
      <trkpt lat="35.358013724908233" lon="-5.372446971014142">
        <ele>520.6912841796875</ele>
        <time>2011-04-25T07:48:19Z</time>
      </trkpt>
      <trkpt lat="35.359139749780297" lon="-5.372911496087909">
        <ele>514.442626953125</ele>
        <time>2011-04-25T07:48:28Z</time>
      </trkpt>
      <trkpt lat="35.359380478039384" lon="-5.372966816648841">
        <ele>513.4814453125</ele>
        <time>2011-04-25T07:48:30Z</time>
      </trkpt>
      <trkpt lat="35.359874675050378" lon="-5.372884757816792">
        <ele>511.0780029296875</ele>
        <time>2011-04-25T07:48:34Z</time>
      </trkpt>
      <trkpt lat="35.361158782616258" lon="-5.372314788401127">
        <ele>507.7135009765625</ele>
        <time>2011-04-25T07:48:45Z</time>
      </trkpt>
      <trkpt lat="35.362001582980156" lon="-5.371661083772779">
        <ele>504.8294677734375</ele>
        <time>2011-04-25T07:48:53Z</time>
      </trkpt>
      <trkpt lat="35.362998778000474" lon="-5.370915764942765">
        <ele>500.984130859375</ele>
        <time>2011-04-25T07:49:03Z</time>
      </trkpt>
      <trkpt lat="35.363702941685915" lon="-5.370391476899386">
        <ele>495.6968994140625</ele>
        <time>2011-04-25T07:49:10Z</time>
      </trkpt>
      <trkpt lat="35.364220188930631" lon="-5.370374964550138">
        <ele>492.3323974609375</ele>
        <time>2011-04-25T07:49:15Z</time>
      </trkpt>
      <trkpt lat="35.365436989814043" lon="-5.370968990027905">
        <ele>486.564453125</ele>
        <time>2011-04-25T07:49:25Z</time>
      </trkpt>
      <trkpt lat="35.366253051906824" lon="-5.371350534260273">
        <ele>486.564453125</ele>
        <time>2011-04-25T07:49:32Z</time>
      </trkpt>
      <trkpt lat="35.36660173907876" lon="-5.371826961636543">
        <ele>486.083740234375</ele>
        <time>2011-04-25T07:49:37Z</time>
      </trkpt>
      <trkpt lat="35.366637781262398" lon="-5.37196408957243">
        <ele>485.60302734375</ele>
        <time>2011-04-25T07:49:38Z</time>
      </trkpt>
      <trkpt lat="35.366832744330168" lon="-5.372931277379394">
        <ele>485.1224365234375</ele>
        <time>2011-04-25T07:49:45Z</time>
      </trkpt>
      <trkpt lat="35.367185119539499" lon="-5.373379960656166">
        <ele>484.641845703125</ele>
        <time>2011-04-25T07:49:50Z</time>
      </trkpt>
      <trkpt lat="35.367463231086731" lon="-5.373445674777031">
        <ele>479.8350830078125</ele>
        <time>2011-04-25T07:49:53Z</time>
      </trkpt>
      <trkpt lat="35.368215339258313" lon="-5.373446177691221">
        <ele>474.0672607421875</ele>
        <time>2011-04-25T07:50:00Z</time>
      </trkpt>
      <trkpt lat="35.368635188788176" lon="-5.373238977044821">
        <ele>471.6639404296875</ele>
        <time>2011-04-25T07:50:04Z</time>
      </trkpt>
      <trkpt lat="35.368989575654268" lon="-5.372909735888243">
        <ele>470.70263671875</ele>
        <time>2011-04-25T07:50:08Z</time>
      </trkpt>
      <trkpt lat="35.369500452652574" lon="-5.372800938785076">
        <ele>469.7413330078125</ele>
        <time>2011-04-25T07:50:13Z</time>
      </trkpt>
      <trkpt lat="35.369815696030855" lon="-5.373147195205092">
        <ele>467.8187255859375</ele>
        <time>2011-04-25T07:50:17Z</time>
      </trkpt>
      <trkpt lat="35.369876548647881" lon="-5.373267643153667">
        <ele>467.338134765625</ele>
        <time>2011-04-25T07:50:18Z</time>
      </trkpt>
      <trkpt lat="35.370201682671905" lon="-5.374191328883171">
        <ele>463.973388671875</ele>
        <time>2011-04-25T07:50:25Z</time>
      </trkpt>
      <trkpt lat="35.370558081194758" lon="-5.374536495655775">
        <ele>462.05078125</ele>
        <time>2011-04-25T07:50:30Z</time>
      </trkpt>
      <trkpt lat="35.370949432253838" lon="-5.374314375221729">
        <ele>460.6087646484375</ele>
        <time>2011-04-25T07:50:34Z</time>
      </trkpt>
      <trkpt lat="35.371097289025784" lon="-5.373941799625754">
        <ele>461.0894775390625</ele>
        <time>2011-04-25T07:50:37Z</time>
      </trkpt>
      <trkpt lat="35.371219580993056" lon="-5.373416086658835">
        <ele>461.0894775390625</ele>
        <time>2011-04-25T07:50:41Z</time>
      </trkpt>
      <trkpt lat="35.371583942323923" lon="-5.372956926003099">
        <ele>461.0894775390625</ele>
        <time>2011-04-25T07:50:46Z</time>
      </trkpt>
      <trkpt lat="35.371695337817073" lon="-5.372914932668209">
        <ele>461.0894775390625</ele>
        <time>2011-04-25T07:50:47Z</time>
      </trkpt>
      <trkpt lat="35.372413666918874" lon="-5.372680071741343">
        <ele>459.6475830078125</ele>
        <time>2011-04-25T07:50:53Z</time>
      </trkpt>
      <trkpt lat="35.372874839231372" lon="-5.372342616319656">
        <ele>460.6087646484375</ele>
        <time>2011-04-25T07:50:58Z</time>
      </trkpt>
      <trkpt lat="35.373412957414985" lon="-5.372214037925005">
        <ele>461.5701904296875</ele>
        <time>2011-04-25T07:51:03Z</time>
      </trkpt>
      <trkpt lat="35.374018298462033" lon="-5.372292157262564">
        <ele>462.5313720703125</ele>
        <time>2011-04-25T07:51:08Z</time>
      </trkpt>
      <trkpt lat="35.374443680047989" lon="-5.372507069259882">
        <ele>462.05078125</ele>
        <time>2011-04-25T07:51:12Z</time>
      </trkpt>
      <trkpt lat="35.375553946942091" lon="-5.373518262058497">
        <ele>461.5701904296875</ele>
        <time>2011-04-25T07:51:23Z</time>
      </trkpt>
      <trkpt lat="35.376273198053241" lon="-5.374204572290182">
        <ele>461.5701904296875</ele>
        <time>2011-04-25T07:51:30Z</time>
      </trkpt>
      <trkpt lat="35.376917934045196" lon="-5.374545129016042">
        <ele>461.0894775390625</ele>
        <time>2011-04-25T07:51:36Z</time>
      </trkpt>
      <trkpt lat="35.37755873054266" lon="-5.374471535906196">
        <ele>458.6861572265625</ele>
        <time>2011-04-25T07:51:42Z</time>
      </trkpt>
      <trkpt lat="35.377760399132967" lon="-5.374305741861463">
        <ele>457.2442626953125</ele>
        <time>2011-04-25T07:51:44Z</time>
      </trkpt>
      <trkpt lat="35.379194039851427" lon="-5.372936390340328">
        <ele>446.669677734375</ele>
        <time>2011-04-25T07:51:58Z</time>
      </trkpt>
      <trkpt lat="35.380249321460724" lon="-5.372140780091286">
        <ele>438.9791259765625</ele>
        <time>2011-04-25T07:52:07Z</time>
      </trkpt>
      <trkpt lat="35.380838820710778" lon="-5.372102726250887">
        <ele>437.0565185546875</ele>
        <time>2011-04-25T07:52:12Z</time>
      </trkpt>
      <trkpt lat="35.381147190928459" lon="-5.372437499463558">
        <ele>437.0565185546875</ele>
        <time>2011-04-25T07:52:15Z</time>
      </trkpt>
      <trkpt lat="35.381680950522423" lon="-5.373285077512264">
        <ele>437.0565185546875</ele>
        <time>2011-04-25T07:52:22Z</time>
      </trkpt>
      <trkpt lat="35.382120748981833" lon="-5.373497726395726">
        <ele>437.537109375</ele>
        <time>2011-04-25T07:52:27Z</time>
      </trkpt>
      <trkpt lat="35.382316885516047" lon="-5.373418433591723">
        <ele>437.0565185546875</ele>
        <time>2011-04-25T07:52:29Z</time>
      </trkpt>
      <trkpt lat="35.382953071966767" lon="-5.373145351186395">
        <ele>437.537109375</ele>
        <time>2011-04-25T07:52:35Z</time>
      </trkpt>
      <trkpt lat="35.383566543459892" lon="-5.37326336838305">
        <ele>436.575927734375</ele>
        <time>2011-04-25T07:52:40Z</time>
      </trkpt>
      <trkpt lat="35.384955340996385" lon="-5.374291324988008">
        <ele>428.4046630859375</ele>
        <time>2011-04-25T07:52:52Z</time>
      </trkpt>
      <trkpt lat="35.385770983994007" lon="-5.37490907125175">
        <ele>424.0787353515625</ele>
        <time>2011-04-25T07:52:59Z</time>
      </trkpt>
      <trkpt lat="35.386304073035717" lon="-5.374915944412351">
        <ele>416.868896484375</ele>
        <time>2011-04-25T07:53:04Z</time>
      </trkpt>
      <trkpt lat="35.38640633225441" lon="-5.37484017200768">
        <ele>416.38818359375</ele>
        <time>2011-04-25T07:53:05Z</time>
      </trkpt>
      <trkpt lat="35.387739138677716" lon="-5.373717499896884">
        <ele>410.1396484375</ele>
        <time>2011-04-25T07:53:18Z</time>
      </trkpt>
      <trkpt lat="35.388387143611908" lon="-5.373191284015775">
        <ele>407.736328125</ele>
        <time>2011-04-25T07:53:24Z</time>
      </trkpt>
      <trkpt lat="35.389164062216878" lon="-5.372948795557022">
        <ele>403.410400390625</ele>
        <time>2011-04-25T07:53:31Z</time>
      </trkpt>
      <trkpt lat="35.390223870053887" lon="-5.372770931571722">
        <ele>395.2391357421875</ele>
        <time>2011-04-25T07:53:42Z</time>
      </trkpt>
      <trkpt lat="35.391499763354659" lon="-5.372578399255872">
        <ele>391.393798828125</ele>
        <time>2011-04-25T07:53:53Z</time>
      </trkpt>
      <trkpt lat="35.392299899831414" lon="-5.372454766184092">
        <ele>388.510009765625</ele>
        <time>2011-04-25T07:54:01Z</time>
      </trkpt>
      <trkpt lat="35.393241019919515" lon="-5.372290648519993">
        <ele>385.1453857421875</ele>
        <time>2011-04-25T07:54:10Z</time>
      </trkpt>
      <trkpt lat="35.39416478946805" lon="-5.372117394581437">
        <ele>380.3387451171875</ele>
        <time>2011-04-25T07:54:20Z</time>
      </trkpt>
      <trkpt lat="35.395245552062988" lon="-5.371914384886622">
        <ele>376.4935302734375</ele>
        <time>2011-04-25T07:54:31Z</time>
      </trkpt>
      <trkpt lat="35.396188348531723" lon="-5.371485399082303">
        <ele>371.206298828125</ele>
        <time>2011-04-25T07:54:41Z</time>
      </trkpt>
      <trkpt lat="35.397189147770405" lon="-5.370863545686007">
        <ele>363.5157470703125</ele>
        <time>2011-04-25T07:54:52Z</time>
      </trkpt>
      <trkpt lat="35.397640094161034" lon="-5.37058861926198">
        <ele>361.1124267578125</ele>
        <time>2011-04-25T07:54:57Z</time>
      </trkpt>
      <trkpt lat="35.39823604747653" lon="-5.370604461058974">
        <ele>358.2283935546875</ele>
        <time>2011-04-25T07:55:03Z</time>
      </trkpt>
      <trkpt lat="35.39869436994195" lon="-5.371164958924055">
        <ele>354.3831787109375</ele>
        <time>2011-04-25T07:55:08Z</time>
      </trkpt>
      <trkpt lat="35.39955971762538" lon="-5.372620224952698">
        <ele>343.80859375</ele>
        <time>2011-04-25T07:55:16Z</time>
      </trkpt>
      <trkpt lat="35.400292463600636" lon="-5.373802660033107">
        <ele>334.1954345703125</ele>
        <time>2011-04-25T07:55:22Z</time>
      </trkpt>
      <trkpt lat="35.401031579822302" lon="-5.374430632218719">
        <ele>327.4661865234375</ele>
        <time>2011-04-25T07:55:27Z</time>
      </trkpt>
      <trkpt lat="35.401196535676718" lon="-5.374524677172303">
        <ele>326.024169921875</ele>
        <time>2011-04-25T07:55:28Z</time>
      </trkpt>
      <trkpt lat="35.402244357392192" lon="-5.374798933044076">
        <ele>318.8143310546875</ele>
        <time>2011-04-25T07:55:34Z</time>
      </trkpt>
      <trkpt lat="35.402400763705373" lon="-5.374841680750251">
        <ele>317.3724365234375</ele>
        <time>2011-04-25T07:55:35Z</time>
      </trkpt>
      <trkpt lat="35.402907533571124" lon="-5.375231271609664">
        <ele>313.5272216796875</ele>
        <time>2011-04-25T07:55:39Z</time>
      </trkpt>
      <trkpt lat="35.403124876320362" lon="-5.375488260760903">
        <ele>311.6044921875</ele>
        <time>2011-04-25T07:55:41Z</time>
      </trkpt>
      <trkpt lat="35.403962647542357" lon="-5.375884892418981">
        <ele>306.3172607421875</ele>
        <time>2011-04-25T07:55:47Z</time>
      </trkpt>
      <trkpt lat="35.405497793108225" lon="-5.376222347840667">
        <ele>296.7041015625</ele>
        <time>2011-04-25T07:55:57Z</time>
      </trkpt>
      <trkpt lat="35.406851386651397" lon="-5.37614967674017">
        <ele>283.24560546875</ele>
        <time>2011-04-25T07:56:06Z</time>
      </trkpt>
      <trkpt lat="35.407437365502119" lon="-5.376485623419285">
        <ele>277.4776611328125</ele>
        <time>2011-04-25T07:56:11Z</time>
      </trkpt>
      <trkpt lat="35.408078245818615" lon="-5.377344433218241">
        <ele>274.113037109375</ele>
        <time>2011-04-25T07:56:19Z</time>
      </trkpt>
      <trkpt lat="35.408590463921428" lon="-5.378039628267288">
        <ele>270.2677001953125</ele>
        <time>2011-04-25T07:56:26Z</time>
      </trkpt>
      <trkpt lat="35.408837143331766" lon="-5.378375994041562">
        <ele>266.9031982421875</ele>
        <time>2011-04-25T07:56:29Z</time>
      </trkpt>
      <trkpt lat="35.408999333158135" lon="-5.379080325365067">
        <ele>263.057861328125</ele>
        <time>2011-04-25T07:56:34Z</time>
      </trkpt>
      <trkpt lat="35.408923728391528" lon="-5.379357263445854">
        <ele>259.693359375</ele>
        <time>2011-04-25T07:56:36Z</time>
      </trkpt>
      <trkpt lat="35.40875818580389" lon="-5.379907619208098">
        <ele>253.9254150390625</ele>
        <time>2011-04-25T07:56:40Z</time>
      </trkpt>
      <trkpt lat="35.408827671781182" lon="-5.380553947761655">
        <ele>252.0028076171875</ele>
        <time>2011-04-25T07:56:45Z</time>
      </trkpt>
      <trkpt lat="35.409196726977825" lon="-5.380768775939941">
        <ele>246.7154541015625</ele>
        <time>2011-04-25T07:56:49Z</time>
      </trkpt>
      <trkpt lat="35.410667499527335" lon="-5.381033141165972">
        <ele>239.9862060546875</ele>
        <time>2011-04-25T07:57:00Z</time>
      </trkpt>
      <trkpt lat="35.411235876381397" lon="-5.381435891613364">
        <ele>238.0635986328125</ele>
        <time>2011-04-25T07:57:05Z</time>
      </trkpt>
      <trkpt lat="35.412607658654451" lon="-5.383125180378556">
        <ele>234.6990966796875</ele>
        <time>2011-04-25T07:57:17Z</time>
      </trkpt>
      <trkpt lat="35.413641566410661" lon="-5.3840053640306">
        <ele>232.7764892578125</ele>
        <time>2011-04-25T07:57:25Z</time>
      </trkpt>
      <trkpt lat="35.415205964818597" lon="-5.385258542373776">
        <ele>227.008544921875</ele>
        <time>2011-04-25T07:57:36Z</time>
      </trkpt>
      <trkpt lat="35.417403280735016" lon="-5.387009857222438">
        <ele>223.643798828125</ele>
        <time>2011-04-25T07:57:51Z</time>
      </trkpt>
      <trkpt lat="35.418982431292534" lon="-5.388417933136225">
        <ele>221.2406005859375</ele>
        <time>2011-04-25T07:58:02Z</time>
      </trkpt>
      <trkpt lat="35.419109836220741" lon="-5.388554222881794">
        <ele>221.2406005859375</ele>
        <time>2011-04-25T07:58:03Z</time>
      </trkpt>
      <trkpt lat="35.419484674930573" lon="-5.3891980368644">
        <ele>221.72119140625</ele>
        <time>2011-04-25T07:58:07Z</time>
      </trkpt>
      <trkpt lat="35.420329738408327" lon="-5.39129083044827">
        <ele>226.52783203125</ele>
        <time>2011-04-25T07:58:19Z</time>
      </trkpt>
      <trkpt lat="35.420902390033007" lon="-5.391806736588478">
        <ele>227.4891357421875</ele>
        <time>2011-04-25T07:58:24Z</time>
      </trkpt>
      <trkpt lat="35.42196286842227" lon="-5.392070347443223">
        <ele>225.5665283203125</ele>
        <time>2011-04-25T07:58:31Z</time>
      </trkpt>
      <trkpt lat="35.423672357574105" lon="-5.392364049330354">
        <ele>223.643798828125</ele>
        <time>2011-04-25T07:58:41Z</time>
      </trkpt>
      <trkpt lat="35.425953576341271" lon="-5.39269806817174">
        <ele>216.9146728515625</ele>
        <time>2011-04-25T07:58:54Z</time>
      </trkpt>
      <trkpt lat="35.427559716627002" lon="-5.393032841384411">
        <ele>211.62744140625</ele>
        <time>2011-04-25T07:59:03Z</time>
      </trkpt>
      <trkpt lat="35.428437469527125" lon="-5.393342049792409">
        <ele>208.2628173828125</ele>
        <time>2011-04-25T07:59:08Z</time>
      </trkpt>
      <trkpt lat="35.429291920736432" lon="-5.393149182200432">
        <ele>206.340087890625</ele>
        <time>2011-04-25T07:59:13Z</time>
      </trkpt>
      <trkpt lat="35.43156492523849" lon="-5.391727695241571">
        <ele>206.8206787109375</ele>
        <time>2011-04-25T07:59:27Z</time>
      </trkpt>
      <trkpt lat="35.432959590107203" lon="-5.390950441360474">
        <ele>207.7821044921875</ele>
        <time>2011-04-25T07:59:36Z</time>
      </trkpt>
      <trkpt lat="35.433849161490798" lon="-5.390759333968163">
        <ele>210.666015625</ele>
        <time>2011-04-25T07:59:42Z</time>
      </trkpt>
      <trkpt lat="35.433989223092794" lon="-5.390752796083689">
        <ele>210.666015625</ele>
        <time>2011-04-25T07:59:43Z</time>
      </trkpt>
      <trkpt lat="35.434504374861717" lon="-5.390914147719741">
        <ele>210.666015625</ele>
        <time>2011-04-25T07:59:47Z</time>
      </trkpt>
      <trkpt lat="35.434741834178567" lon="-5.391067955642939">
        <ele>210.1854248046875</ele>
        <time>2011-04-25T07:59:49Z</time>
      </trkpt>
      <trkpt lat="35.435343571007252" lon="-5.391021436080337">
        <ele>208.743408203125</ele>
        <time>2011-04-25T07:59:54Z</time>
      </trkpt>
      <trkpt lat="35.435457983985543" lon="-5.390918422490358">
        <ele>208.2628173828125</ele>
        <time>2011-04-25T07:59:55Z</time>
      </trkpt>
      <trkpt lat="35.435685720294714" lon="-5.390733350068331">
        <ele>208.2628173828125</ele>
        <time>2011-04-25T07:59:57Z</time>
      </trkpt>
      <trkpt lat="35.436264825984836" lon="-5.390798896551132">
        <ele>207.7821044921875</ele>
        <time>2011-04-25T08:00:02Z</time>
      </trkpt>
      <trkpt lat="35.43646146543324" lon="-5.391243975609541">
        <ele>209.704833984375</ele>
        <time>2011-04-25T08:00:05Z</time>
      </trkpt>
      <trkpt lat="35.436560623347759" lon="-5.391545221209526">
        <ele>212.588623046875</ele>
        <time>2011-04-25T08:00:07Z</time>
      </trkpt>
      <trkpt lat="35.437005618587136" lon="-5.39183615706861">
        <ele>215.9532470703125</ele>
        <time>2011-04-25T08:00:12Z</time>
      </trkpt>
      <trkpt lat="35.43732438236475" lon="-5.391703052446246">
        <ele>217.3953857421875</ele>
        <time>2011-04-25T08:00:15Z</time>
      </trkpt>
      <trkpt lat="35.438049752265215" lon="-5.391287561506033">
        <ele>223.1632080078125</ele>
        <time>2011-04-25T08:00:21Z</time>
      </trkpt>
      <trkpt lat="35.438585942611098" lon="-5.39122779853642">
        <ele>225.5665283203125</ele>
        <time>2011-04-25T08:00:25Z</time>
      </trkpt>
      <trkpt lat="35.43960434384644" lon="-5.391059322282672">
        <ele>230.373046875</ele>
        <time>2011-04-25T08:00:32Z</time>
      </trkpt>
      <trkpt lat="35.440036179497838" lon="-5.390913225710392">
        <ele>232.7764892578125</ele>
        <time>2011-04-25T08:00:35Z</time>
      </trkpt>
      <trkpt lat="35.440745539963245" lon="-5.391064267605543">
        <ele>235.1796875</ele>
        <time>2011-04-25T08:00:40Z</time>
      </trkpt>
      <trkpt lat="35.441146278753877" lon="-5.391662567853928">
        <ele>238.5443115234375</ele>
        <time>2011-04-25T08:00:44Z</time>
      </trkpt>
      <trkpt lat="35.44168196618557" lon="-5.392322139814496">
        <ele>240.467041015625</ele>
        <time>2011-04-25T08:00:49Z</time>
      </trkpt>
      <trkpt lat="35.44195999391377" lon="-5.392502853646874">
        <ele>241.42822265625</ele>
        <time>2011-04-25T08:00:51Z</time>
      </trkpt>
      <trkpt lat="35.442676143720746" lon="-5.392527831718326">
        <ele>241.42822265625</ele>
        <time>2011-04-25T08:00:56Z</time>
      </trkpt>
      <trkpt lat="35.442905556410551" lon="-5.392341837286949">
        <ele>241.908935546875</ele>
        <time>2011-04-25T08:00:58Z</time>
      </trkpt>
      <trkpt lat="35.443623047322035" lon="-5.392221221700311">
        <ele>244.7928466796875</ele>
        <time>2011-04-25T08:01:04Z</time>
      </trkpt>
      <trkpt lat="35.444910423830152" lon="-5.392767637968063">
        <ele>249.5994873046875</ele>
        <time>2011-04-25T08:01:13Z</time>
      </trkpt>
      <trkpt lat="35.445532780140638" lon="-5.392858246341348">
        <ele>252.4833984375</ele>
        <time>2011-04-25T08:01:17Z</time>
      </trkpt>
      <trkpt lat="35.446378430351615" lon="-5.393298380076885">
        <ele>255.3673095703125</ele>
        <time>2011-04-25T08:01:23Z</time>
      </trkpt>
      <trkpt lat="35.446917554363608" lon="-5.393673051148653">
        <ele>254.406005859375</ele>
        <time>2011-04-25T08:01:27Z</time>
      </trkpt>
      <trkpt lat="35.447481824085116" lon="-5.393789727240801">
        <ele>252.4833984375</ele>
        <time>2011-04-25T08:01:31Z</time>
      </trkpt>
      <trkpt lat="35.447751972824335" lon="-5.393757876008749">
        <ele>251.0413818359375</ele>
        <time>2011-04-25T08:01:33Z</time>
      </trkpt>
      <trkpt lat="35.448209457099438" lon="-5.394127685576677">
        <ele>247.196044921875</ele>
        <time>2011-04-25T08:01:38Z</time>
      </trkpt>
      <trkpt lat="35.44822278432548" lon="-5.394426165148616">
        <ele>245.754150390625</ele>
        <time>2011-04-25T08:01:40Z</time>
      </trkpt>
      <trkpt lat="35.448156567290425" lon="-5.395047347992659">
        <ele>242.8702392578125</ele>
        <time>2011-04-25T08:01:44Z</time>
      </trkpt>
      <trkpt lat="35.448363181203604" lon="-5.395652018487454">
        <ele>239.02490234375</ele>
        <time>2011-04-25T08:01:49Z</time>
      </trkpt>
      <trkpt lat="35.448744893074036" lon="-5.395842455327511">
        <ele>236.6217041015625</ele>
        <time>2011-04-25T08:01:52Z</time>
      </trkpt>
      <trkpt lat="35.449340678751469" lon="-5.396057032048702">
        <ele>233.257080078125</ele>
        <time>2011-04-25T08:01:56Z</time>
      </trkpt>
      <trkpt lat="35.449912240728736" lon="-5.396636221557856">
        <ele>228.93115234375</ele>
        <time>2011-04-25T08:02:01Z</time>
      </trkpt>
      <trkpt lat="35.450355727225542" lon="-5.397097980603576">
        <ele>225.0859375</ele>
        <time>2011-04-25T08:02:06Z</time>
      </trkpt>
      <trkpt lat="35.450865598395467" lon="-5.39685582742095">
        <ele>221.2406005859375</ele>
        <time>2011-04-25T08:02:10Z</time>
      </trkpt>
      <trkpt lat="35.450997864827514" lon="-5.396755496039987">
        <ele>220.2791748046875</ele>
        <time>2011-04-25T08:02:11Z</time>
      </trkpt>
      <trkpt lat="35.452350620180368" lon="-5.395565936341882">
        <ele>211.62744140625</ele>
        <time>2011-04-25T08:02:21Z</time>
      </trkpt>
      <trkpt lat="35.452970378100872" lon="-5.395574569702148">
        <ele>210.666015625</ele>
        <time>2011-04-25T08:02:26Z</time>
      </trkpt>
      <trkpt lat="35.453152181580663" lon="-5.395984863862395">
        <ele>211.146728515625</ele>
        <time>2011-04-25T08:02:29Z</time>
      </trkpt>
      <trkpt lat="35.453125862404704" lon="-5.396318631246686">
        <ele>212.588623046875</ele>
        <time>2011-04-25T08:02:31Z</time>
      </trkpt>
      <trkpt lat="35.45308948494494" lon="-5.396661786362529">
        <ele>214.991943359375</ele>
        <time>2011-04-25T08:02:33Z</time>
      </trkpt>
      <trkpt lat="35.453168274834752" lon="-5.397341139614582">
        <ele>218.8372802734375</ele>
        <time>2011-04-25T08:02:37Z</time>
      </trkpt>
      <trkpt lat="35.453420151025057" lon="-5.398179749026895">
        <ele>223.1632080078125</ele>
        <time>2011-04-25T08:02:42Z</time>
      </trkpt>
      <trkpt lat="35.45393094420433" lon="-5.398765141144395">
        <ele>227.4891357421875</ele>
        <time>2011-04-25T08:02:47Z</time>
      </trkpt>
      <trkpt lat="35.455473298206925" lon="-5.399504341185093">
        <ele>232.7764892578125</ele>
        <time>2011-04-25T08:02:57Z</time>
      </trkpt>
      <trkpt lat="35.455641187727451" lon="-5.399574665352702">
        <ele>233.257080078125</ele>
        <time>2011-04-25T08:02:58Z</time>
      </trkpt>
      <trkpt lat="35.456721363589168" lon="-5.399680025875568">
        <ele>238.0635986328125</ele>
        <time>2011-04-25T08:03:04Z</time>
      </trkpt>
      <trkpt lat="35.457214554771781" lon="-5.39967717602849">
        <ele>240.9476318359375</ele>
        <time>2011-04-25T08:03:07Z</time>
      </trkpt>
      <trkpt lat="35.457730293273926" lon="-5.399914467707276">
        <ele>243.83154296875</ele>
        <time>2011-04-25T08:03:11Z</time>
      </trkpt>
      <trkpt lat="35.45854652300477" lon="-5.400710999965668">
        <ele>245.754150390625</ele>
        <time>2011-04-25T08:03:18Z</time>
      </trkpt>
      <trkpt lat="35.458885822445154" lon="-5.401460761204362">
        <ele>242.8702392578125</ele>
        <time>2011-04-25T08:03:23Z</time>
      </trkpt>
      <trkpt lat="35.45911917462945" lon="-5.403108224272728">
        <ele>235.6602783203125</ele>
        <time>2011-04-25T08:03:31Z</time>
      </trkpt>
      <trkpt lat="35.458907699212432" lon="-5.403801072388887">
        <ele>230.373046875</ele>
        <time>2011-04-25T08:03:36Z</time>
      </trkpt>
      <trkpt lat="35.458718687295914" lon="-5.404060743749142">
        <ele>227.9697265625</ele>
        <time>2011-04-25T08:03:38Z</time>
      </trkpt>
      <trkpt lat="35.458515090867877" lon="-5.404749652370811">
        <ele>223.1632080078125</ele>
        <time>2011-04-25T08:03:43Z</time>
      </trkpt>
      <trkpt lat="35.458799237385392" lon="-5.405215183272958">
        <ele>218.8372802734375</ele>
        <time>2011-04-25T08:03:47Z</time>
      </trkpt>
      <trkpt lat="35.459285387769341" lon="-5.405175788328052">
        <ele>214.51123046875</ele>
        <time>2011-04-25T08:03:51Z</time>
      </trkpt>
      <trkpt lat="35.459494851529598" lon="-5.404998594895005">
        <ele>212.588623046875</ele>
        <time>2011-04-25T08:03:53Z</time>
      </trkpt>
      <trkpt lat="35.459901290014386" lon="-5.404618894681335">
        <ele>209.704833984375</ele>
        <time>2011-04-25T08:03:57Z</time>
      </trkpt>
      <trkpt lat="35.460391379892826" lon="-5.404591066762805">
        <ele>207.3013916015625</ele>
        <time>2011-04-25T08:04:01Z</time>
      </trkpt>
      <trkpt lat="35.460811648517847" lon="-5.404733223840594">
        <ele>205.3787841796875</ele>
        <time>2011-04-25T08:04:04Z</time>
      </trkpt>
      <trkpt lat="35.461500473320484" lon="-5.404664492234588">
        <ele>201.5335693359375</ele>
        <time>2011-04-25T08:04:09Z</time>
      </trkpt>
      <trkpt lat="35.461764838546515" lon="-5.404537841677666">
        <ele>200.0916748046875</ele>
        <time>2011-04-25T08:04:11Z</time>
      </trkpt>
      <trkpt lat="35.462704030796885" lon="-5.404450166970491">
        <ele>194.8043212890625</ele>
        <time>2011-04-25T08:04:17Z</time>
      </trkpt>
      <trkpt lat="35.464088385924697" lon="-5.404443377628923">
        <ele>187.11376953125</ele>
        <time>2011-04-25T08:04:25Z</time>
      </trkpt>
      <trkpt lat="35.464969323948026" lon="-5.404018582776189">
        <ele>182.30712890625</ele>
        <time>2011-04-25T08:04:31Z</time>
      </trkpt>
      <trkpt lat="35.465089017525315" lon="-5.403928142040968">
        <ele>181.3458251953125</ele>
        <time>2011-04-25T08:04:32Z</time>
      </trkpt>
      <trkpt lat="35.465443069115281" lon="-5.403449116274715">
        <ele>179.90380859375</ele>
        <time>2011-04-25T08:04:36Z</time>
      </trkpt>
      <trkpt lat="35.46596584841609" lon="-5.402886355295777">
        <ele>180.384521484375</ele>
        <time>2011-04-25T08:04:42Z</time>
      </trkpt>
      <trkpt lat="35.466459291055799" lon="-5.402978472411633">
        <ele>181.3458251953125</ele>
        <time>2011-04-25T08:04:46Z</time>
      </trkpt>
      <trkpt lat="35.466667246073484" lon="-5.403197156265378">
        <ele>181.826416015625</ele>
        <time>2011-04-25T08:04:48Z</time>
      </trkpt>
      <trkpt lat="35.466940328478813" lon="-5.403560930863023">
        <ele>182.787841796875</ele>
        <time>2011-04-25T08:04:51Z</time>
      </trkpt>
      <trkpt lat="35.467519937083125" lon="-5.403816578909755">
        <ele>186.6331787109375</ele>
        <time>2011-04-25T08:04:56Z</time>
      </trkpt>
      <trkpt lat="35.467652538791299" lon="-5.403790259733796">
        <ele>187.11376953125</ele>
        <time>2011-04-25T08:04:57Z</time>
      </trkpt>
      <trkpt lat="35.469151642173529" lon="-5.403286842629314">
        <ele>191.9202880859375</ele>
        <time>2011-04-25T08:05:07Z</time>
      </trkpt>
      <trkpt lat="35.470712017267942" lon="-5.402755765244365">
        <ele>193.3623046875</ele>
        <time>2011-04-25T08:05:17Z</time>
      </trkpt>
      <trkpt lat="35.471122730523348" lon="-5.402637161314488">
        <ele>193.3623046875</ele>
        <time>2011-04-25T08:05:20Z</time>
      </trkpt>
      <trkpt lat="35.471790935844183" lon="-5.402791555970907">
        <ele>192.401123046875</ele>
        <time>2011-04-25T08:05:25Z</time>
      </trkpt>
      <trkpt lat="35.472130151465535" lon="-5.403420953080058">
        <ele>191.4395751953125</ele>
        <time>2011-04-25T08:05:29Z</time>
      </trkpt>
      <trkpt lat="35.472173988819122" lon="-5.403615161776543">
        <ele>191.4395751953125</ele>
        <time>2011-04-25T08:05:30Z</time>
      </trkpt>
      <trkpt lat="35.47229552641511" lon="-5.404166355729103">
        <ele>190.958984375</ele>
        <time>2011-04-25T08:05:33Z</time>
      </trkpt>
      <trkpt lat="35.472719399258494" lon="-5.404721740633249">
        <ele>189.9976806640625</ele>
        <time>2011-04-25T08:05:38Z</time>
      </trkpt>
      <trkpt lat="35.47285158187151" lon="-5.404785862192512">
        <ele>189.5169677734375</ele>
        <time>2011-04-25T08:05:39Z</time>
      </trkpt>
      <trkpt lat="35.473414929583669" lon="-5.405040252953768">
        <ele>189.036376953125</ele>
        <time>2011-04-25T08:05:43Z</time>
      </trkpt>
      <trkpt lat="35.473988587036729" lon="-5.405680043622851">
        <ele>187.11376953125</ele>
        <time>2011-04-25T08:05:48Z</time>
      </trkpt>
      <trkpt lat="35.474265776574612" lon="-5.406169546768069">
        <ele>186.1524658203125</ele>
        <time>2011-04-25T08:05:51Z</time>
      </trkpt>
      <trkpt lat="35.47483641654253" lon="-5.406752089038491">
        <ele>184.2298583984375</ele>
        <time>2011-04-25T08:05:56Z</time>
      </trkpt>
      <trkpt lat="35.475124586373568" lon="-5.406897934153676">
        <ele>182.787841796875</ele>
        <time>2011-04-25T08:05:58Z</time>
      </trkpt>
      <trkpt lat="35.475752642378211" lon="-5.40700857527554">
        <ele>180.384521484375</ele>
        <time>2011-04-25T08:06:02Z</time>
      </trkpt>
      <trkpt lat="35.477459365502" lon="-5.407203454524279">
        <ele>177.02001953125</ele>
        <time>2011-04-25T08:06:12Z</time>
      </trkpt>
      <trkpt lat="35.477624740451574" lon="-5.407271347939968">
        <ele>176.539306640625</ele>
        <time>2011-04-25T08:06:13Z</time>
      </trkpt>
      <trkpt lat="35.478190938010812" lon="-5.407731682062149">
        <ele>175.0972900390625</ele>
        <time>2011-04-25T08:06:17Z</time>
      </trkpt>
      <trkpt lat="35.478538451716304" lon="-5.408179275691509">
        <ele>173.6552734375</ele>
        <time>2011-04-25T08:06:20Z</time>
      </trkpt>
      <trkpt lat="35.479264743626118" lon="-5.408548833802342">
        <ele>172.2132568359375</ele>
        <time>2011-04-25T08:06:25Z</time>
      </trkpt>
      <trkpt lat="35.479748295620084" lon="-5.408615218475461">
        <ele>171.2520751953125</ele>
        <time>2011-04-25T08:06:28Z</time>
      </trkpt>
      <trkpt lat="35.480393199250102" lon="-5.409091142937541">
        <ele>169.81005859375</ele>
        <time>2011-04-25T08:06:33Z</time>
      </trkpt>
      <trkpt lat="35.480490429326892" lon="-5.409259954467416">
        <ele>169.3294677734375</ele>
        <time>2011-04-25T08:06:34Z</time>
      </trkpt>
      <trkpt lat="35.480674244463444" lon="-5.409594895318151">
        <ele>168.3680419921875</ele>
        <time>2011-04-25T08:06:36Z</time>
      </trkpt>
      <trkpt lat="35.481309341266751" lon="-5.410093870013952">
        <ele>166.4453125</ele>
        <time>2011-04-25T08:06:41Z</time>
      </trkpt>
      <trkpt lat="35.481768753379583" lon="-5.410200739279389">
        <ele>165.484130859375</ele>
        <time>2011-04-25T08:06:44Z</time>
      </trkpt>
      <trkpt lat="35.482373675331473" lon="-5.410734247416258">
        <ele>163.5615234375</ele>
        <time>2011-04-25T08:06:49Z</time>
      </trkpt>
      <trkpt lat="35.482441736385226" lon="-5.410915967077017">
        <ele>163.080810546875</ele>
        <time>2011-04-25T08:06:50Z</time>
      </trkpt>
      <trkpt lat="35.482706520706415" lon="-5.411648796871305">
        <ele>162.1195068359375</ele>
        <time>2011-04-25T08:06:54Z</time>
      </trkpt>
      <trkpt lat="35.483209351077676" lon="-5.412233266979456">
        <ele>160.677490234375</ele>
        <time>2011-04-25T08:06:59Z</time>
      </trkpt>
      <trkpt lat="35.483352933079004" lon="-5.412298059090972">
        <ele>160.677490234375</ele>
        <time>2011-04-25T08:07:00Z</time>
      </trkpt>
      <trkpt lat="35.483658453449607" lon="-5.412414651364088">
        <ele>159.7161865234375</ele>
        <time>2011-04-25T08:07:02Z</time>
      </trkpt>
      <trkpt lat="35.484270164743066" lon="-5.41304212063551">
        <ele>157.7935791015625</ele>
        <time>2011-04-25T08:07:07Z</time>
      </trkpt>
      <trkpt lat="35.484353648498654" lon="-5.413239849731326">
        <ele>157.3128662109375</ele>
        <time>2011-04-25T08:07:08Z</time>
      </trkpt>
      <trkpt lat="35.485069546848536" lon="-5.415320489555597">
        <ele>153.4676513671875</ele>
        <time>2011-04-25T08:07:17Z</time>
      </trkpt>
      <trkpt lat="35.485566342249513" lon="-5.417035343125463">
        <ele>150.5836181640625</ele>
        <time>2011-04-25T08:07:24Z</time>
      </trkpt>
      <trkpt lat="35.486457422375679" lon="-5.419065691530705">
        <ele>147.218994140625</ele>
        <time>2011-04-25T08:07:33Z</time>
      </trkpt>
      <trkpt lat="35.487276753410697" lon="-5.420597484335303">
        <ele>144.8157958984375</ele>
        <time>2011-04-25T08:07:41Z</time>
      </trkpt>
      <trkpt lat="35.487478254362941" lon="-5.420918595045805">
        <ele>144.8157958984375</ele>
        <time>2011-04-25T08:07:43Z</time>
      </trkpt>
      <trkpt lat="35.488116620108485" lon="-5.421328386291862">
        <ele>143.8543701171875</ele>
        <time>2011-04-25T08:07:48Z</time>
      </trkpt>
      <trkpt lat="35.488281659781933" lon="-5.421336516737938">
        <ele>143.3736572265625</ele>
        <time>2011-04-25T08:07:49Z</time>
      </trkpt>
      <trkpt lat="35.488789351657033" lon="-5.421340456232429">
        <ele>141.9317626953125</ele>
        <time>2011-04-25T08:07:52Z</time>
      </trkpt>
      <trkpt lat="35.489528048783541" lon="-5.421699956059456">
        <ele>139.5284423828125</ele>
        <time>2011-04-25T08:07:57Z</time>
      </trkpt>
      <trkpt lat="35.489788558334112" lon="-5.421953340992332">
        <ele>139.0478515625</ele>
        <time>2011-04-25T08:07:59Z</time>
      </trkpt>
      <trkpt lat="35.490363053977489" lon="-5.422241929918528">
        <ele>137.6058349609375</ele>
        <time>2011-04-25T08:08:03Z</time>
      </trkpt>
      <trkpt lat="35.490672262385488" lon="-5.422290796414018">
        <ele>136.1639404296875</ele>
        <time>2011-04-25T08:08:05Z</time>
      </trkpt>
      <trkpt lat="35.491345161572099" lon="-5.422713831067085">
        <ele>134.2412109375</ele>
        <time>2011-04-25T08:08:10Z</time>
      </trkpt>
      <trkpt lat="35.491538867354393" lon="-5.423260917887092">
        <ele>132.318603515625</ele>
        <time>2011-04-25T08:08:13Z</time>
      </trkpt>
      <trkpt lat="35.491640958935022" lon="-5.423854859545827">
        <ele>131.837890625</ele>
        <time>2011-04-25T08:08:16Z</time>
      </trkpt>
      <trkpt lat="35.492072626948357" lon="-5.424619959667325">
        <ele>130.39599609375</ele>
        <time>2011-04-25T08:08:21Z</time>
      </trkpt>
      <trkpt lat="35.492302961647511" lon="-5.424891533330083">
        <ele>129.915283203125</ele>
        <time>2011-04-25T08:08:23Z</time>
      </trkpt>
      <trkpt lat="35.49261518754065" lon="-5.425614137202501">
        <ele>128.473388671875</ele>
        <time>2011-04-25T08:08:27Z</time>
      </trkpt>
      <trkpt lat="35.492960270494223" lon="-5.427083820104599">
        <ele>126.0699462890625</ele>
        <time>2011-04-25T08:08:34Z</time>
      </trkpt>
      <trkpt lat="35.493475422263145" lon="-5.427813297137618">
        <ele>122.7054443359375</ele>
        <time>2011-04-25T08:08:39Z</time>
      </trkpt>
      <trkpt lat="35.493788318708539" lon="-5.427913628518581">
        <ele>122.2247314453125</ele>
        <time>2011-04-25T08:08:41Z</time>
      </trkpt>
      <trkpt lat="35.494434647262096" lon="-5.428064167499542">
        <ele>120.7828369140625</ele>
        <time>2011-04-25T08:08:45Z</time>
      </trkpt>
      <trkpt lat="35.495076952502131" lon="-5.428579822182655">
        <ele>118.860107421875</ele>
        <time>2011-04-25T08:08:50Z</time>
      </trkpt>
      <trkpt lat="35.495522785931826" lon="-5.42931885458529">
        <ele>117.418212890625</ele>
        <time>2011-04-25T08:08:55Z</time>
      </trkpt>
      <trkpt lat="35.496110860258341" lon="-5.429737949743867">
        <ele>115.9761962890625</ele>
        <time>2011-04-25T08:09:00Z</time>
      </trkpt>
      <trkpt lat="35.496586030349135" lon="-5.430467845872045">
        <ele>114.0535888671875</ele>
        <time>2011-04-25T08:09:06Z</time>
      </trkpt>
      <trkpt lat="35.496666077524424" lon="-5.430942848324776">
        <ele>114.0535888671875</ele>
        <time>2011-04-25T08:09:09Z</time>
      </trkpt>
      <trkpt lat="35.496738245710731" lon="-5.432409681379795">
        <ele>113.572998046875</ele>
        <time>2011-04-25T08:09:19Z</time>
      </trkpt>
      <trkpt lat="35.496941339224577" lon="-5.43345658108592">
        <ele>109.2469482421875</ele>
        <time>2011-04-25T08:09:27Z</time>
      </trkpt>
      <trkpt lat="35.497413156554103" lon="-5.434577576816082">
        <ele>106.8436279296875</ele>
        <time>2011-04-25T08:09:35Z</time>
      </trkpt>
      <trkpt lat="35.49807608127594" lon="-5.435379724949598">
        <ele>105.8824462890625</ele>
        <time>2011-04-25T08:09:43Z</time>
      </trkpt>
      <trkpt lat="35.498345894739032" lon="-5.435612071305513">
        <ele>105.4017333984375</ele>
        <time>2011-04-25T08:09:46Z</time>
      </trkpt>
      <trkpt lat="35.498941764235497" lon="-5.435674851760268">
        <ele>103.959716796875</ele>
        <time>2011-04-25T08:09:52Z</time>
      </trkpt>
      <trkpt lat="35.499119963496923" lon="-5.435550129041076">
        <ele>102.998291015625</ele>
        <time>2011-04-25T08:09:54Z</time>
      </trkpt>
      <trkpt lat="35.499949939548969" lon="-5.434737587347627">
        <ele>100.5950927734375</ele>
        <time>2011-04-25T08:10:04Z</time>
      </trkpt>
      <trkpt lat="35.50059056840837" lon="-5.434662820771337">
        <ele>99.6337890625</ele>
        <time>2011-04-25T08:10:10Z</time>
      </trkpt>
      <trkpt lat="35.500821741297841" lon="-5.434761391952634">
        <ele>99.6337890625</ele>
        <time>2011-04-25T08:10:12Z</time>
      </trkpt>
      <trkpt lat="35.502249598503113" lon="-5.435508890077472">
        <ele>95.3077392578125</ele>
        <time>2011-04-25T08:10:25Z</time>
      </trkpt>
      <trkpt lat="35.503188790753484" lon="-5.435887333005667">
        <ele>94.8271484375</ele>
        <time>2011-04-25T08:10:34Z</time>
      </trkpt>
      <trkpt lat="35.504007870331407" lon="-5.435939468443394">
        <ele>95.3077392578125</ele>
        <time>2011-04-25T08:10:41Z</time>
      </trkpt>
      <trkpt lat="35.504576498642564" lon="-5.435994118452072">
        <ele>95.7884521484375</ele>
        <time>2011-04-25T08:10:47Z</time>
      </trkpt>
      <trkpt lat="35.505074551329017" lon="-5.436404664069414">
        <ele>94.8271484375</ele>
        <time>2011-04-25T08:10:53Z</time>
      </trkpt>
      <trkpt lat="35.50518712028861" lon="-5.436648996546865">
        <ele>93.8658447265625</ele>
        <time>2011-04-25T08:10:55Z</time>
      </trkpt>
      <trkpt lat="35.505635133013129" lon="-5.438190177083015">
        <ele>89.059326171875</ele>
        <time>2011-04-25T08:11:06Z</time>
      </trkpt>
      <trkpt lat="35.505683580413461" lon="-5.438311127945781">
        <ele>88.5787353515625</ele>
        <time>2011-04-25T08:11:07Z</time>
      </trkpt>
      <trkpt lat="35.506072333082557" lon="-5.438847150653601">
        <ele>87.6171875</ele>
        <time>2011-04-25T08:11:12Z</time>
      </trkpt>
      <trkpt lat="35.506897699087858" lon="-5.439432626590133">
        <ele>88.5787353515625</ele>
        <time>2011-04-25T08:11:18Z</time>
      </trkpt>
      <trkpt lat="35.508295632898808" lon="-5.440217675641179">
        <ele>87.6171875</ele>
        <time>2011-04-25T08:11:26Z</time>
      </trkpt>
      <trkpt lat="35.509240692481399" lon="-5.440449938178062">
        <ele>86.656005859375</ele>
        <time>2011-04-25T08:11:31Z</time>
      </trkpt>
      <trkpt lat="35.510209472849965" lon="-5.440311972051859">
        <ele>86.17529296875</ele>
        <time>2011-04-25T08:11:36Z</time>
      </trkpt>
      <trkpt lat="35.510735772550106" lon="-5.440051378682256">
        <ele>84.7333984375</ele>
        <time>2011-04-25T08:11:39Z</time>
      </trkpt>
      <trkpt lat="35.511583853513002" lon="-5.439128028228879">
        <ele>81.3687744140625</ele>
        <time>2011-04-25T08:11:45Z</time>
      </trkpt>
      <trkpt lat="35.511915357783437" lon="-5.438585132360458">
        <ele>81.3687744140625</ele>
        <time>2011-04-25T08:11:48Z</time>
      </trkpt>
      <trkpt lat="35.512660844251513" lon="-5.43809998780489">
        <ele>80.407470703125</ele>
        <time>2011-04-25T08:11:53Z</time>
      </trkpt>
      <trkpt lat="35.514549370855093" lon="-5.43802622705698">
        <ele>76.5621337890625</ele>
        <time>2011-04-25T08:12:03Z</time>
      </trkpt>
      <trkpt lat="35.515100061893463" lon="-5.438048020005226">
        <ele>75.600830078125</ele>
        <time>2011-04-25T08:12:06Z</time>
      </trkpt>
      <trkpt lat="35.516181662678719" lon="-5.437653986737132">
        <ele>74.6395263671875</ele>
        <time>2011-04-25T08:12:12Z</time>
      </trkpt>
      <trkpt lat="35.517113646492362" lon="-5.436993828043342">
        <ele>73.1976318359375</ele>
        <time>2011-04-25T08:12:18Z</time>
      </trkpt>
      <trkpt lat="35.517738182097673" lon="-5.436819233000279">
        <ele>73.1976318359375</ele>
        <time>2011-04-25T08:12:22Z</time>
      </trkpt>
      <trkpt lat="35.518215950578451" lon="-5.436837589368224">
        <ele>74.1588134765625</ele>
        <time>2011-04-25T08:12:25Z</time>
      </trkpt>
      <trkpt lat="35.518896393477917" lon="-5.436475742608309">
        <ele>74.6395263671875</ele>
        <time>2011-04-25T08:12:30Z</time>
      </trkpt>
      <trkpt lat="35.519001670181751" lon="-5.436329729855061">
        <ele>74.6395263671875</ele>
        <time>2011-04-25T08:12:31Z</time>
      </trkpt>
      <trkpt lat="35.519297048449516" lon="-5.435888757929206">
        <ele>75.1202392578125</ele>
        <time>2011-04-25T08:12:34Z</time>
      </trkpt>
      <trkpt lat="35.520015880465508" lon="-5.435532946139574">
        <ele>75.1202392578125</ele>
        <time>2011-04-25T08:12:39Z</time>
      </trkpt>
      <trkpt lat="35.520529020577669" lon="-5.435557588934898">
        <ele>75.1202392578125</ele>
        <time>2011-04-25T08:12:42Z</time>
      </trkpt>
      <trkpt lat="35.521383387967944" lon="-5.435957740992308">
        <ele>74.1588134765625</ele>
        <time>2011-04-25T08:12:47Z</time>
      </trkpt>
      <trkpt lat="35.522244963794947" lon="-5.436454033479095">
        <ele>72.2362060546875</ele>
        <time>2011-04-25T08:12:52Z</time>
      </trkpt>
      <trkpt lat="35.523100588470697" lon="-5.43653248809278">
        <ele>69.8328857421875</ele>
        <time>2011-04-25T08:12:57Z</time>
      </trkpt>
      <trkpt lat="35.523707522079349" lon="-5.436727618798614">
        <ele>68.87158203125</ele>
        <time>2011-04-25T08:13:01Z</time>
      </trkpt>
      <trkpt lat="35.524108177050948" lon="-5.436985027045012">
        <ele>67.9102783203125</ele>
        <time>2011-04-25T08:13:04Z</time>
      </trkpt>
      <trkpt lat="35.524759786203504" lon="-5.436985362321138">
        <ele>65.9876708984375</ele>
        <time>2011-04-25T08:13:09Z</time>
      </trkpt>
      <trkpt lat="35.524894986301661" lon="-5.436911517754197">
        <ele>65.9876708984375</ele>
        <time>2011-04-25T08:13:10Z</time>
      </trkpt>
      <trkpt lat="35.526323765516281" lon="-5.435885321348906">
        <ele>65.0263671875</ele>
        <time>2011-04-25T08:13:20Z</time>
      </trkpt>
      <trkpt lat="35.52719539962709" lon="-5.434895418584347">
        <ele>63.5843505859375</ele>
        <time>2011-04-25T08:13:27Z</time>
      </trkpt>
      <trkpt lat="35.527567472308874" lon="-5.4339549690485">
        <ele>63.1036376953125</ele>
        <time>2011-04-25T08:13:32Z</time>
      </trkpt>
      <trkpt lat="35.527628744021058" lon="-5.433757156133652">
        <ele>62.6229248046875</ele>
        <time>2011-04-25T08:13:33Z</time>
      </trkpt>
      <trkpt lat="35.528031326830387" lon="-5.433043017983437">
        <ele>61.6617431640625</ele>
        <time>2011-04-25T08:13:37Z</time>
      </trkpt>
      <trkpt lat="35.529775936156511" lon="-5.431170416995883">
        <ele>59.2584228515625</ele>
        <time>2011-04-25T08:13:49Z</time>
      </trkpt>
      <trkpt lat="35.53173428401351" lon="-5.429066391661763">
        <ele>56.8551025390625</ele>
        <time>2011-04-25T08:14:02Z</time>
      </trkpt>
      <trkpt lat="35.533491717651486" lon="-5.427176272496581">
        <ele>53.97119140625</ele>
        <time>2011-04-25T08:14:13Z</time>
      </trkpt>
      <trkpt lat="35.533618368208408" lon="-5.427024057134986">
        <ele>53.97119140625</ele>
        <time>2011-04-25T08:14:14Z</time>
      </trkpt>
      <trkpt lat="35.534013994038105" lon="-5.426028622314334">
        <ele>53.009765625</ele>
        <time>2011-04-25T08:14:19Z</time>
      </trkpt>
      <trkpt lat="35.534140979871154" lon="-5.425605168566108">
        <ele>52.5291748046875</ele>
        <time>2011-04-25T08:14:21Z</time>
      </trkpt>
      <trkpt lat="35.534614222124219" lon="-5.42502623051405">
        <ele>52.048583984375</ele>
        <time>2011-04-25T08:14:25Z</time>
      </trkpt>
      <trkpt lat="35.535098193213344" lon="-5.424914918839932">
        <ele>51.56787109375</ele>
        <time>2011-04-25T08:14:28Z</time>
      </trkpt>
      <trkpt lat="35.535932863131166" lon="-5.424775276333094">
        <ele>49.645263671875</ele>
        <time>2011-04-25T08:14:33Z</time>
      </trkpt>
      <trkpt lat="35.536645073443651" lon="-5.424247216433287">
        <ele>49.645263671875</ele>
        <time>2011-04-25T08:14:38Z</time>
      </trkpt>
      <trkpt lat="35.536782536655664" lon="-5.424135737121105">
        <ele>49.16455078125</ele>
        <time>2011-04-25T08:14:39Z</time>
      </trkpt>
      <trkpt lat="35.537619469687343" lon="-5.423928871750832">
        <ele>48.203369140625</ele>
        <time>2011-04-25T08:14:44Z</time>
      </trkpt>
      <trkpt lat="35.537794483825564" lon="-5.423970697447658">
        <ele>48.203369140625</ele>
        <time>2011-04-25T08:14:45Z</time>
      </trkpt>
      <trkpt lat="35.538297649472952" lon="-5.42410908266902">
        <ele>47.7225341796875</ele>
        <time>2011-04-25T08:14:48Z</time>
      </trkpt>
      <trkpt lat="35.538985887542367" lon="-5.424058875069022">
        <ele>47.2418212890625</ele>
        <time>2011-04-25T08:14:52Z</time>
      </trkpt>
      <trkpt lat="35.539834890514612" lon="-5.423739524558187">
        <ele>46.76123046875</ele>
        <time>2011-04-25T08:14:57Z</time>
      </trkpt>
      <trkpt lat="35.540698477998376" lon="-5.423903642222285">
        <ele>46.2806396484375</ele>
        <time>2011-04-25T08:15:02Z</time>
      </trkpt>
      <trkpt lat="35.54119368083775" lon="-5.424217125400901">
        <ele>45.7999267578125</ele>
        <time>2011-04-25T08:15:05Z</time>
      </trkpt>
      <trkpt lat="35.541890133172274" lon="-5.424398174509406">
        <ele>45.3192138671875</ele>
        <time>2011-04-25T08:15:09Z</time>
      </trkpt>
      <trkpt lat="35.543478839099407" lon="-5.424476126208901">
        <ele>43.3966064453125</ele>
        <time>2011-04-25T08:15:17Z</time>
      </trkpt>
      <trkpt lat="35.545020187273622" lon="-5.424833362922072">
        <ele>41.9547119140625</ele>
        <time>2011-04-25T08:15:25Z</time>
      </trkpt>
      <trkpt lat="35.545213725417852" lon="-5.424847863614559">
        <ele>41.4739990234375</ele>
        <time>2011-04-25T08:15:26Z</time>
      </trkpt>
      <trkpt lat="35.546533958986402" lon="-5.424529518932104">
        <ele>38.590087890625</ele>
        <time>2011-04-25T08:15:33Z</time>
      </trkpt>
      <trkpt lat="35.547380279749632" lon="-5.423946222290397">
        <ele>36.66748046875</ele>
        <time>2011-04-25T08:15:38Z</time>
      </trkpt>
      <trkpt lat="35.548949623480439" lon="-5.422398168593645">
        <ele>32.822265625</ele>
        <time>2011-04-25T08:15:48Z</time>
      </trkpt>
      <trkpt lat="35.55087729357183" lon="-5.42052598670125">
        <ele>28.9769287109375</ele>
        <time>2011-04-25T08:16:01Z</time>
      </trkpt>
      <trkpt lat="35.552641348913312" lon="-5.418806942179799">
        <ele>27.0543212890625</ele>
        <time>2011-04-25T08:16:13Z</time>
      </trkpt>
      <trkpt lat="35.553263537585735" lon="-5.417959867045283">
        <ele>25.6123046875</ele>
        <time>2011-04-25T08:16:18Z</time>
      </trkpt>
      <trkpt lat="35.55373577401042" lon="-5.416993433609605">
        <ele>24.1702880859375</ele>
        <time>2011-04-25T08:16:24Z</time>
      </trkpt>
      <trkpt lat="35.554496683180332" lon="-5.415384862571955">
        <ele>21.7669677734375</ele>
        <time>2011-04-25T08:16:36Z</time>
      </trkpt>
      <trkpt lat="35.555174695327878" lon="-5.414041997864842">
        <ele>19.36376953125</ele>
        <time>2011-04-25T08:16:46Z</time>
      </trkpt>
      <trkpt lat="35.55581197142601" lon="-5.413348143920302">
        <ele>18.40234375</ele>
        <time>2011-04-25T08:16:53Z</time>
      </trkpt>
      <trkpt lat="35.556576233357191" lon="-5.413006665185094">
        <ele>16.479736328125</ele>
        <time>2011-04-25T08:16:59Z</time>
      </trkpt>
      <trkpt lat="35.557912476360798" lon="-5.412607686594129">
        <ele>15.0377197265625</ele>
        <time>2011-04-25T08:17:07Z</time>
      </trkpt>
      <trkpt lat="35.559269255027175" lon="-5.412430493161082">
        <ele>13.1151123046875</ele>
        <time>2011-04-25T08:17:15Z</time>
      </trkpt>
      <trkpt lat="35.560592841356993" lon="-5.412334017455578">
        <ele>12.15380859375</ele>
        <time>2011-04-25T08:17:24Z</time>
      </trkpt>
      <trkpt lat="35.561722386628389" lon="-5.412249695509672">
        <ele>11.1925048828125</ele>
        <time>2011-04-25T08:17:32Z</time>
      </trkpt>
      <trkpt lat="35.563004733994603" lon="-5.412287078797817">
        <ele>7.827880859375</ele>
        <time>2011-04-25T08:17:41Z</time>
      </trkpt>
      <trkpt lat="35.563735133036971" lon="-5.412354469299316">
        <ele>6.866455078125</ele>
        <time>2011-04-25T08:17:48Z</time>
      </trkpt>
      <trkpt lat="35.563900172710419" lon="-5.412366287782788">
        <ele>6.866455078125</ele>
        <time>2011-04-25T08:17:53Z</time>
      </trkpt>
      <trkpt lat="35.564027242362499" lon="-5.412381626665592">
        <ele>6.866455078125</ele>
        <time>2011-04-25T08:18:01Z</time>
      </trkpt>
      <trkpt lat="35.564201669767499" lon="-5.412306357175112">
        <ele>8.30859375</ele>
        <time>2011-04-25T08:18:11Z</time>
      </trkpt>
      <trkpt lat="35.564412558451295" lon="-5.412290599197149">
        <ele>8.30859375</ele>
        <time>2011-04-25T08:18:23Z</time>
      </trkpt>
      <trkpt lat="35.564634343609214" lon="-5.412299484014511">
        <ele>7.827880859375</ele>
        <time>2011-04-25T08:18:41Z</time>
      </trkpt>
      <trkpt lat="35.564831485971808" lon="-5.412414567545056">
        <ele>8.30859375</ele>
        <time>2011-04-25T08:18:51Z</time>
      </trkpt>
      <trkpt lat="35.565031142905354" lon="-5.412473995238543">
        <ele>10.231201171875</ele>
        <time>2011-04-25T08:18:59Z</time>
      </trkpt>
      <trkpt lat="35.56515745818615" lon="-5.412467792630196">
        <ele>12.15380859375</ele>
        <time>2011-04-25T08:19:11Z</time>
      </trkpt>
      <trkpt lat="35.565401539206505" lon="-5.412117848172784">
        <ele>12.15380859375</ele>
        <time>2011-04-25T08:19:18Z</time>
      </trkpt>
      <trkpt lat="35.565630868077278" lon="-5.410957457497716">
        <ele>11.6732177734375</ele>
        <time>2011-04-25T08:19:28Z</time>
      </trkpt>
      <trkpt lat="35.566101679578424" lon="-5.41004047729075">
        <ele>12.6343994140625</ele>
        <time>2011-04-25T08:19:35Z</time>
      </trkpt>
      <trkpt lat="35.566768459975719" lon="-5.408737845718861">
        <ele>11.6732177734375</ele>
        <time>2011-04-25T08:19:43Z</time>
      </trkpt>
      <trkpt lat="35.567037938162684" lon="-5.40744099766016">
        <ele>11.1925048828125</ele>
        <time>2011-04-25T08:19:50Z</time>
      </trkpt>
      <trkpt lat="35.567244971171021" lon="-5.406001154333353">
        <ele>10.231201171875</ele>
        <time>2011-04-25T08:19:59Z</time>
      </trkpt>
      <trkpt lat="35.567223932594061" lon="-5.405144020915031">
        <ele>9.2698974609375</ele>
        <time>2011-04-25T08:20:05Z</time>
      </trkpt>
      <trkpt lat="35.566936768591404" lon="-5.404006345197558">
        <ele>8.30859375</ele>
        <time>2011-04-25T08:20:12Z</time>
      </trkpt>
      <trkpt lat="35.566447349265218" lon="-5.403202688321471">
        <ele>8.30859375</ele>
        <time>2011-04-25T08:20:18Z</time>
      </trkpt>
      <trkpt lat="35.565541768446565" lon="-5.402177916839719">
        <ele>9.7506103515625</ele>
        <time>2011-04-25T08:20:27Z</time>
      </trkpt>
      <trkpt lat="35.565284276381135" lon="-5.401700651273131">
        <ele>9.7506103515625</ele>
        <time>2011-04-25T08:20:32Z</time>
      </trkpt>
      <trkpt lat="35.565147148445249" lon="-5.401172172278166">
        <ele>9.7506103515625</ele>
        <time>2011-04-25T08:20:40Z</time>
      </trkpt>
      <trkpt lat="35.565136754885316" lon="-5.400407155975699">
        <ele>7.827880859375</ele>
        <time>2011-04-25T08:20:47Z</time>
      </trkpt>
      <trkpt lat="35.565366083756089" lon="-5.399247854948044">
        <ele>6.3858642578125</ele>
        <time>2011-04-25T08:20:56Z</time>
      </trkpt>
      <trkpt lat="35.565430959686637" lon="-5.398536566644907">
        <ele>4.94384765625</ele>
        <time>2011-04-25T08:21:03Z</time>
      </trkpt>
      <trkpt lat="35.565403383225203" lon="-5.39835543371737">
        <ele>4.94384765625</ele>
        <time>2011-04-25T08:21:08Z</time>
      </trkpt>
      <trkpt lat="35.565343368798494" lon="-5.398118561133742">
        <ele>5.424560546875</ele>
        <time>2011-04-25T08:21:15Z</time>
      </trkpt>
      <trkpt lat="35.565114123746753" lon="-5.397581532597542">
        <ele>6.3858642578125</ele>
        <time>2011-04-25T08:21:21Z</time>
      </trkpt>
      <trkpt lat="35.564869120717049" lon="-5.396934784948826">
        <ele>7.34716796875</ele>
        <time>2011-04-25T08:21:26Z</time>
      </trkpt>
      <trkpt lat="35.564804077148438" lon="-5.396111933514476">
        <ele>9.2698974609375</ele>
        <time>2011-04-25T08:21:31Z</time>
      </trkpt>
      <trkpt lat="35.5649458989501" lon="-5.394339663907886">
        <ele>10.7117919921875</ele>
        <time>2011-04-25T08:21:41Z</time>
      </trkpt>
      <trkpt lat="35.565004488453269" lon="-5.393814789131284">
        <ele>10.7117919921875</ele>
        <time>2011-04-25T08:21:46Z</time>
      </trkpt>
      <trkpt lat="35.565022844821215" lon="-5.393696688115597">
        <ele>10.7117919921875</ele>
        <time>2011-04-25T08:21:51Z</time>
      </trkpt>
      <trkpt lat="35.565039943903685" lon="-5.393351353704929">
        <ele>11.6732177734375</ele>
        <time>2011-04-25T08:22:06Z</time>
      </trkpt>
      <trkpt lat="35.565001722425222" lon="-5.393022866919637">
        <ele>11.6732177734375</ele>
        <time>2011-04-25T08:22:12Z</time>
      </trkpt>
      <trkpt lat="35.564912622794509" lon="-5.392320966348052">
        <ele>11.6732177734375</ele>
        <time>2011-04-25T08:22:18Z</time>
      </trkpt>
      <trkpt lat="35.564846154302359" lon="-5.391335170716047">
        <ele>10.7117919921875</ele>
        <time>2011-04-25T08:22:24Z</time>
      </trkpt>
      <trkpt lat="35.565092163160443" lon="-5.390050057321787">
        <ele>10.7117919921875</ele>
        <time>2011-04-25T08:22:31Z</time>
      </trkpt>
      <trkpt lat="35.565680656582117" lon="-5.388484569266439">
        <ele>8.30859375</ele>
        <time>2011-04-25T08:22:40Z</time>
      </trkpt>
      <trkpt lat="35.566208381205797" lon="-5.386989321559668">
        <ele>7.827880859375</ele>
        <time>2011-04-25T08:22:49Z</time>
      </trkpt>
      <trkpt lat="35.566330924630165" lon="-5.38581769913435">
        <ele>7.34716796875</ele>
        <time>2011-04-25T08:22:56Z</time>
      </trkpt>
      <trkpt lat="35.566187594085932" lon="-5.384675664827228">
        <ele>5.9052734375</ele>
        <time>2011-04-25T08:23:04Z</time>
      </trkpt>
      <trkpt lat="35.565823232755065" lon="-5.383569840341806">
        <ele>4.94384765625</ele>
        <time>2011-04-25T08:23:12Z</time>
      </trkpt>
      <trkpt lat="35.565430289134383" lon="-5.38253023289144">
        <ele>4.94384765625</ele>
        <time>2011-04-25T08:23:21Z</time>
      </trkpt>
      <trkpt lat="35.565244294703007" lon="-5.38203427568078">
        <ele>5.9052734375</ele>
        <time>2011-04-25T08:23:27Z</time>
      </trkpt>
      <trkpt lat="35.565051762387156" lon="-5.381575785577297">
        <ele>5.424560546875</ele>
        <time>2011-04-25T08:23:33Z</time>
      </trkpt>
      <trkpt lat="35.564697878435254" lon="-5.380472894757986">
        <ele>4.4632568359375</ele>
        <time>2011-04-25T08:23:41Z</time>
      </trkpt>
      <trkpt lat="35.564067140221596" lon="-5.378727531060576">
        <ele>3.982666015625</ele>
        <time>2011-04-25T08:23:51Z</time>
      </trkpt>
      <trkpt lat="35.563315786421299" lon="-5.376722747460008">
        <ele>3.501953125</ele>
        <time>2011-04-25T08:24:02Z</time>
      </trkpt>
      <trkpt lat="35.562536856159568" lon="-5.374579327180982">
        <ele>2.5406494140625</ele>
        <time>2011-04-25T08:24:14Z</time>
      </trkpt>
      <trkpt lat="35.561985578387976" lon="-5.373068070039153">
        <ele>2.06005859375</ele>
        <time>2011-04-25T08:24:24Z</time>
      </trkpt>
      <trkpt lat="35.56138526648283" lon="-5.37135723978281">
        <ele>2.06005859375</ele>
        <time>2011-04-25T08:24:35Z</time>
      </trkpt>
      <trkpt lat="35.561173371970654" lon="-5.370678640902042">
        <ele>2.06005859375</ele>
        <time>2011-04-25T08:24:41Z</time>
      </trkpt>
      <trkpt lat="35.561079662293196" lon="-5.370469596236944">
        <ele>2.5406494140625</ele>
        <time>2011-04-25T08:24:46Z</time>
      </trkpt>
      <trkpt lat="35.560936164110899" lon="-5.370339928194881">
        <ele>1.579345703125</ele>
        <time>2011-04-25T08:24:52Z</time>
      </trkpt>
      <trkpt lat="35.560819655656815" lon="-5.37007455714047">
        <ele>1.0986328125</ele>
        <time>2011-04-25T08:24:57Z</time>
      </trkpt>
      <trkpt lat="35.560819068923593" lon="-5.369950672611594">
        <ele>0.137451171875</ele>
        <time>2011-04-25T08:24:59Z</time>
      </trkpt>
      <trkpt lat="35.560609521344304" lon="-5.369334938004613">
        <ele>0.137451171875</ele>
        <time>2011-04-25T08:25:07Z</time>
      </trkpt>
      <trkpt lat="35.560457138344646" lon="-5.369107620790601">
        <ele>-0.3433837890625</ele>
        <time>2011-04-25T08:25:13Z</time>
      </trkpt>
      <trkpt lat="35.560236861929297" lon="-5.369074428454042">
        <ele>-0.8240966796875</ele>
        <time>2011-04-25T08:25:23Z</time>
      </trkpt>
      <trkpt lat="35.560154970735312" lon="-5.368999326601625">
        <ele>-1.3046875</ele>
        <time>2011-04-25T08:25:30Z</time>
      </trkpt>
      <trkpt lat="35.560087077319622" lon="-5.369078954681754">
        <ele>-3.227294921875</ele>
        <time>2011-04-25T08:31:21Z</time>
      </trkpt>
      <trkpt lat="35.56018078699708" lon="-5.368894888088107">
        <ele>1.579345703125</ele>
        <time>2011-04-25T08:33:40Z</time>
      </trkpt>
      <trkpt lat="35.560311377048492" lon="-5.368723394349217">
        <ele>4.94384765625</ele>
        <time>2011-04-25T08:37:10Z</time>
      </trkpt>
      <trkpt lat="35.560337696224451" lon="-5.36855349317193">
        <ele>6.866455078125</ele>
        <time>2011-04-25T08:37:25Z</time>
      </trkpt>
      <trkpt lat="35.560110462829471" lon="-5.367834325879812">
        <ele>7.34716796875</ele>
        <time>2011-04-25T08:37:33Z</time>
      </trkpt>
      <trkpt lat="35.55987928994" lon="-5.366833275184035">
        <ele>7.34716796875</ele>
        <time>2011-04-25T08:37:40Z</time>
      </trkpt>
      <trkpt lat="35.559771582484245" lon="-5.365280359983444">
        <ele>7.827880859375</ele>
        <time>2011-04-25T08:37:49Z</time>
      </trkpt>
      <trkpt lat="35.559932934120297" lon="-5.363813024014235">
        <ele>7.827880859375</ele>
        <time>2011-04-25T08:37:57Z</time>
      </trkpt>
      <trkpt lat="35.560387149453163" lon="-5.362320793792605">
        <ele>7.827880859375</ele>
        <time>2011-04-25T08:38:05Z</time>
      </trkpt>
      <trkpt lat="35.56111847050488" lon="-5.36053754389286">
        <ele>7.827880859375</ele>
        <time>2011-04-25T08:38:14Z</time>
      </trkpt>
      <trkpt lat="35.561889689415693" lon="-5.358642898499966">
        <ele>7.827880859375</ele>
        <time>2011-04-25T08:38:24Z</time>
      </trkpt>
      <trkpt lat="35.563069023191929" lon="-5.355763547122479">
        <ele>8.30859375</ele>
        <time>2011-04-25T08:38:40Z</time>
      </trkpt>
      <trkpt lat="35.563734043389559" lon="-5.354708936065435">
        <ele>8.30859375</ele>
        <time>2011-04-25T08:38:47Z</time>
      </trkpt>
      <trkpt lat="35.564291356131434" lon="-5.354164866730571">
        <ele>7.827880859375</ele>
        <time>2011-04-25T08:38:53Z</time>
      </trkpt>
      <trkpt lat="35.564534431323409" lon="-5.353932352736592">
        <ele>7.827880859375</ele>
        <time>2011-04-25T08:38:58Z</time>
      </trkpt>
      <trkpt lat="35.564628643915057" lon="-5.353767648339272">
        <ele>8.30859375</ele>
        <time>2011-04-25T08:39:01Z</time>
      </trkpt>
      <trkpt lat="35.564795443788171" lon="-5.353619623929262">
        <ele>8.30859375</ele>
        <time>2011-04-25T08:39:05Z</time>
      </trkpt>
      <trkpt lat="35.565325347706676" lon="-5.353331035003066">
        <ele>7.827880859375</ele>
        <time>2011-04-25T08:39:13Z</time>
      </trkpt>
      <trkpt lat="35.56601014919579" lon="-5.352810183539987">
        <ele>8.30859375</ele>
        <time>2011-04-25T08:39:20Z</time>
      </trkpt>
      <trkpt lat="35.567283947020769" lon="-5.351876523345709">
        <ele>7.827880859375</ele>
        <time>2011-04-25T08:39:30Z</time>
      </trkpt>
      <trkpt lat="35.568753629922867" lon="-5.350753683596849">
        <ele>7.34716796875</ele>
        <time>2011-04-25T08:39:40Z</time>
      </trkpt>
      <trkpt lat="35.570455826818943" lon="-5.349455745890737">
        <ele>7.34716796875</ele>
        <time>2011-04-25T08:39:51Z</time>
      </trkpt>
      <trkpt lat="35.571419578045607" lon="-5.348516134545207">
        <ele>7.34716796875</ele>
        <time>2011-04-25T08:39:58Z</time>
      </trkpt>
      <trkpt lat="35.572755569592118" lon="-5.346746882423759">
        <ele>7.827880859375</ele>
        <time>2011-04-25T08:40:09Z</time>
      </trkpt>
      <trkpt lat="35.573207270354033" lon="-5.345730576664209">
        <ele>8.30859375</ele>
        <time>2011-04-25T08:40:14Z</time>
      </trkpt>
      <trkpt lat="35.573450764641166" lon="-5.344546046108007">
        <ele>7.34716796875</ele>
        <time>2011-04-25T08:40:19Z</time>
      </trkpt>
      <trkpt lat="35.573716219514608" lon="-5.341601986438036">
        <ele>5.424560546875</ele>
        <time>2011-04-25T08:40:31Z</time>
      </trkpt>
      <trkpt lat="35.574164232239127" lon="-5.339997438713908">
        <ele>4.4632568359375</ele>
        <time>2011-04-25T08:40:38Z</time>
      </trkpt>
      <trkpt lat="35.575033016502857" lon="-5.337879080325365">
        <ele>3.501953125</ele>
        <time>2011-04-25T08:40:47Z</time>
      </trkpt>
      <trkpt lat="35.575883192941546" lon="-5.335904052481055">
        <ele>3.982666015625</ele>
        <time>2011-04-25T08:40:56Z</time>
      </trkpt>
      <trkpt lat="35.576925231143832" lon="-5.33352074213326">
        <ele>3.982666015625</ele>
        <time>2011-04-25T08:41:07Z</time>
      </trkpt>
      <trkpt lat="35.577654959633946" lon="-5.33240519464016">
        <ele>3.982666015625</ele>
        <time>2011-04-25T08:41:13Z</time>
      </trkpt>
      <trkpt lat="35.578593229874969" lon="-5.331523586064577">
        <ele>3.021240234375</ele>
        <time>2011-04-25T08:41:19Z</time>
      </trkpt>
      <trkpt lat="35.579690923914313" lon="-5.330966273322702">
        <ele>2.06005859375</ele>
        <time>2011-04-25T08:41:25Z</time>
      </trkpt>
      <trkpt lat="35.581007972359657" lon="-5.330784218385816">
        <ele>1.0986328125</ele>
        <time>2011-04-25T08:41:32Z</time>
      </trkpt>
      <trkpt lat="35.582085466012359" lon="-5.330977085977793">
        <ele>1.579345703125</ele>
        <time>2011-04-25T08:41:38Z</time>
      </trkpt>
      <trkpt lat="35.582915274426341" lon="-5.331374723464251">
        <ele>0.6180419921875</ele>
        <time>2011-04-25T08:41:44Z</time>
      </trkpt>
      <trkpt lat="35.583262871950865" lon="-5.3315603826195">
        <ele>0.6180419921875</ele>
        <time>2011-04-25T08:41:49Z</time>
      </trkpt>
      <trkpt lat="35.583523130044341" lon="-5.331564992666245">
        <ele>0.6180419921875</ele>
        <time>2011-04-25T08:41:53Z</time>
      </trkpt>
      <trkpt lat="35.583798978477716" lon="-5.331793483346701">
        <ele>0.6180419921875</ele>
        <time>2011-04-25T08:41:59Z</time>
      </trkpt>
      <trkpt lat="35.584048759192228" lon="-5.331975119188428">
        <ele>1.0986328125</ele>
        <time>2011-04-25T08:42:02Z</time>
      </trkpt>
      <trkpt lat="35.584975630044937" lon="-5.332442158833146">
        <ele>1.579345703125</ele>
        <time>2011-04-25T08:42:10Z</time>
      </trkpt>
      <trkpt lat="35.58672409504652" lon="-5.333333574235439">
        <ele>2.5406494140625</ele>
        <time>2011-04-25T08:42:23Z</time>
      </trkpt>
      <trkpt lat="35.588431991636753" lon="-5.334201939404011">
        <ele>3.982666015625</ele>
        <time>2011-04-25T08:42:35Z</time>
      </trkpt>
      <trkpt lat="35.590437529608607" lon="-5.335231069475412">
        <ele>8.30859375</ele>
        <time>2011-04-25T08:42:49Z</time>
      </trkpt>
      <trkpt lat="35.591252669692039" lon="-5.335648488253355">
        <ele>11.1925048828125</ele>
        <time>2011-04-25T08:42:56Z</time>
      </trkpt>
      <trkpt lat="35.591509994119406" lon="-5.335778491571546">
        <ele>12.6343994140625</ele>
        <time>2011-04-25T08:43:00Z</time>
      </trkpt>
      <trkpt lat="35.591684337705374" lon="-5.335811097174883">
        <ele>13.1151123046875</ele>
        <time>2011-04-25T08:43:04Z</time>
      </trkpt>
      <trkpt lat="35.592089183628559" lon="-5.336051741614938">
        <ele>13.5958251953125</ele>
        <time>2011-04-25T08:43:10Z</time>
      </trkpt>
      <trkpt lat="35.592902228236198" lon="-5.336424484848976">
        <ele>13.5958251953125</ele>
        <time>2011-04-25T08:43:18Z</time>
      </trkpt>
      <trkpt lat="35.594351962208748" lon="-5.336978361010552">
        <ele>9.7506103515625</ele>
        <time>2011-04-25T08:43:29Z</time>
      </trkpt>
      <trkpt lat="35.595420571044087" lon="-5.33736283890903">
        <ele>6.866455078125</ele>
        <time>2011-04-25T08:43:36Z</time>
      </trkpt>
      <trkpt lat="35.596929397433996" lon="-5.337922666221857">
        <ele>7.827880859375</ele>
        <time>2011-04-25T08:43:44Z</time>
      </trkpt>
      <trkpt lat="35.59948998503387" lon="-5.338849034160376">
        <ele>11.6732177734375</ele>
        <time>2011-04-25T08:43:56Z</time>
      </trkpt>
      <trkpt lat="35.600709049031138" lon="-5.339102167636156">
        <ele>16.479736328125</ele>
        <time>2011-04-25T08:44:02Z</time>
      </trkpt>
      <trkpt lat="35.601910762488842" lon="-5.338891949504614">
        <ele>19.8443603515625</ele>
        <time>2011-04-25T08:44:08Z</time>
      </trkpt>
      <trkpt lat="35.603934237733483" lon="-5.338206728920341">
        <ele>22.728271484375</ele>
        <time>2011-04-25T08:44:18Z</time>
      </trkpt>
      <trkpt lat="35.606320565566421" lon="-5.337708340957761">
        <ele>21.7669677734375</ele>
        <time>2011-04-25T08:44:29Z</time>
      </trkpt>
      <trkpt lat="35.608451580628753" lon="-5.337594598531723">
        <ele>22.24755859375</ele>
        <time>2011-04-25T08:44:38Z</time>
      </trkpt>
      <trkpt lat="35.610704468563199" lon="-5.337818898260593">
        <ele>26.5736083984375</ele>
        <time>2011-04-25T08:44:47Z</time>
      </trkpt>
      <trkpt lat="35.613653641194105" lon="-5.338349472731352">
        <ele>29.9381103515625</ele>
        <time>2011-04-25T08:44:59Z</time>
      </trkpt>
      <trkpt lat="35.615306049585342" lon="-5.338288033381105">
        <ele>29.9381103515625</ele>
        <time>2011-04-25T08:45:06Z</time>
      </trkpt>
      <trkpt lat="35.616969522088766" lon="-5.33782359212637">
        <ele>27.534912109375</ele>
        <time>2011-04-25T08:45:13Z</time>
      </trkpt>
      <trkpt lat="35.618587564677" lon="-5.33695237711072">
        <ele>25.6123046875</ele>
        <time>2011-04-25T08:45:20Z</time>
      </trkpt>
      <trkpt lat="35.62280735000968" lon="-5.334077635779977">
        <ele>25.6123046875</ele>
        <time>2011-04-25T08:45:39Z</time>
      </trkpt>
      <trkpt lat="35.625120755285025" lon="-5.332899978384376">
        <ele>28.0155029296875</ele>
        <time>2011-04-25T08:45:49Z</time>
      </trkpt>
      <trkpt lat="35.627161245793104" lon="-5.332219954580069">
        <ele>26.0928955078125</ele>
        <time>2011-04-25T08:45:57Z</time>
      </trkpt>
      <trkpt lat="35.629657376557589" lon="-5.331794824451208">
        <ele>17.9217529296875</ele>
        <time>2011-04-25T08:46:06Z</time>
      </trkpt>
      <trkpt lat="35.633888142183423" lon="-5.331303058192134">
        <ele>7.34716796875</ele>
        <time>2011-04-25T08:46:21Z</time>
      </trkpt>
      <trkpt lat="35.636629946529865" lon="-5.330660836771131">
        <ele>6.3858642578125</ele>
        <time>2011-04-25T08:46:31Z</time>
      </trkpt>
      <trkpt lat="35.642007272690535" lon="-5.329187382012606">
        <ele>12.15380859375</ele>
        <time>2011-04-25T08:46:51Z</time>
      </trkpt>
      <trkpt lat="35.645627081394196" lon="-5.328262271359563">
        <ele>11.6732177734375</ele>
        <time>2011-04-25T08:47:04Z</time>
      </trkpt>
      <trkpt lat="35.647239843383431" lon="-5.328167974948883">
        <ele>10.231201171875</ele>
        <time>2011-04-25T08:47:10Z</time>
      </trkpt>
      <trkpt lat="35.64909023232758" lon="-5.32839453779161">
        <ele>8.7891845703125</ele>
        <time>2011-04-25T08:47:17Z</time>
      </trkpt>
      <trkpt lat="35.650891251862049" lon="-5.329038267955184">
        <ele>8.30859375</ele>
        <time>2011-04-25T08:47:24Z</time>
      </trkpt>
      <trkpt lat="35.652341824024916" lon="-5.329900598153472">
        <ele>9.7506103515625</ele>
        <time>2011-04-25T08:47:30Z</time>
      </trkpt>
      <trkpt lat="35.653810333460569" lon="-5.331135420128703">
        <ele>13.1151123046875</ele>
        <time>2011-04-25T08:47:37Z</time>
      </trkpt>
      <trkpt lat="35.655234167352319" lon="-5.332821859046817">
        <ele>18.40234375</ele>
        <time>2011-04-25T08:47:45Z</time>
      </trkpt>
      <trkpt lat="35.656341249123216" lon="-5.334742236882448">
        <ele>22.24755859375</ele>
        <time>2011-04-25T08:47:53Z</time>
      </trkpt>
      <trkpt lat="35.657141720876098" lon="-5.336847184225917">
        <ele>24.6510009765625</ele>
        <time>2011-04-25T08:48:01Z</time>
      </trkpt>
      <trkpt lat="35.65820069052279" lon="-5.340811656787992">
        <ele>27.534912109375</ele>
        <time>2011-04-25T08:48:15Z</time>
      </trkpt>
      <trkpt lat="35.658890521153808" lon="-5.34278417006135">
        <ele>28.9769287109375</ele>
        <time>2011-04-25T08:48:22Z</time>
      </trkpt>
      <trkpt lat="35.659802472218871" lon="-5.344298947602511">
        <ele>30.8995361328125</ele>
        <time>2011-04-25T08:48:28Z</time>
      </trkpt>
      <trkpt lat="35.660966970026493" lon="-5.345541229471564">
        <ele>35.2254638671875</ele>
        <time>2011-04-25T08:48:34Z</time>
      </trkpt>
      <trkpt lat="35.662310840561986" lon="-5.346435494720936">
        <ele>40.5128173828125</ele>
        <time>2011-04-25T08:48:40Z</time>
      </trkpt>
      <trkpt lat="35.663751186802983" lon="-5.346952741965652">
        <ele>46.76123046875</ele>
        <time>2011-04-25T08:48:46Z</time>
      </trkpt>
      <trkpt lat="35.665181474760175" lon="-5.347088193520904">
        <ele>52.5291748046875</ele>
        <time>2011-04-25T08:48:52Z</time>
      </trkpt>
      <trkpt lat="35.666598854586482" lon="-5.34687889739871">
        <ele>58.7777099609375</ele>
        <time>2011-04-25T08:48:58Z</time>
      </trkpt>
      <trkpt lat="35.670157140120864" lon="-5.345993936061859">
        <ele>71.7554931640625</ele>
        <time>2011-04-25T08:49:13Z</time>
      </trkpt>
      <trkpt lat="35.673472350463271" lon="-5.345294969156385">
        <ele>85.2139892578125</ele>
        <time>2011-04-25T08:49:27Z</time>
      </trkpt>
      <trkpt lat="35.675317458808422" lon="-5.345321372151375">
        <ele>88.5787353515625</ele>
        <time>2011-04-25T08:49:34Z</time>
      </trkpt>
      <trkpt lat="35.67724353633821" lon="-5.345770390704274">
        <ele>89.059326171875</ele>
        <time>2011-04-25T08:49:41Z</time>
      </trkpt>
      <trkpt lat="35.679084453731775" lon="-5.346615286543965">
        <ele>85.694580078125</ele>
        <time>2011-04-25T08:49:48Z</time>
      </trkpt>
      <trkpt lat="35.681493161246181" lon="-5.347672831267119">
        <ele>76.5621337890625</ele>
        <time>2011-04-25T08:49:57Z</time>
      </trkpt>
      <trkpt lat="35.683419238775969" lon="-5.348110366612673">
        <ele>65.507080078125</ele>
        <time>2011-04-25T08:50:04Z</time>
      </trkpt>
      <trkpt lat="35.685460651293397" lon="-5.348231988027692">
        <ele>52.5291748046875</ele>
        <time>2011-04-25T08:50:11Z</time>
      </trkpt>
      <trkpt lat="35.688439244404435" lon="-5.348469028249383">
        <ele>36.66748046875</ele>
        <time>2011-04-25T08:50:21Z</time>
      </trkpt>
      <trkpt lat="35.691583128646016" lon="-5.349109740927815">
        <ele>23.208984375</ele>
        <time>2011-04-25T08:50:32Z</time>
      </trkpt>
      <trkpt lat="35.696070967242122" lon="-5.35013166256249">
        <ele>13.5958251953125</ele>
        <time>2011-04-25T08:50:48Z</time>
      </trkpt>
      <trkpt lat="35.698219835758209" lon="-5.350822499021888">
        <ele>10.7117919921875</ele>
        <time>2011-04-25T08:50:56Z</time>
      </trkpt>
      <trkpt lat="35.700280191376805" lon="-5.351949697360396">
        <ele>7.827880859375</ele>
        <time>2011-04-25T08:51:04Z</time>
      </trkpt>
      <trkpt lat="35.703238835558295" lon="-5.353918271139264">
        <ele>5.424560546875</ele>
        <time>2011-04-25T08:51:16Z</time>
      </trkpt>
      <trkpt lat="35.705278739333153" lon="-5.354869365692139">
        <ele>5.9052734375</ele>
        <time>2011-04-25T08:51:24Z</time>
      </trkpt>
      <trkpt lat="35.707359965890646" lon="-5.355450147762895">
        <ele>7.34716796875</ele>
        <time>2011-04-25T08:51:32Z</time>
      </trkpt>
      <trkpt lat="35.709471954032779" lon="-5.355687355622649">
        <ele>8.30859375</ele>
        <time>2011-04-25T08:51:40Z</time>
      </trkpt>
      <trkpt lat="35.711661642417312" lon="-5.355572775006294">
        <ele>8.7891845703125</ele>
        <time>2011-04-25T08:51:48Z</time>
      </trkpt>
      <trkpt lat="35.713922996073961" lon="-5.355062736198306">
        <ele>7.34716796875</ele>
        <time>2011-04-25T08:51:56Z</time>
      </trkpt>
      <trkpt lat="35.716428179293871" lon="-5.354147348552942">
        <ele>9.7506103515625</ele>
        <time>2011-04-25T08:52:05Z</time>
      </trkpt>
      <trkpt lat="35.718840239569545" lon="-5.353453746065497">
        <ele>12.15380859375</ele>
        <time>2011-04-25T08:52:14Z</time>
      </trkpt>
      <trkpt lat="35.721531081944704" lon="-5.353024089708924">
        <ele>17.441162109375</ele>
        <time>2011-04-25T08:52:24Z</time>
      </trkpt>
      <trkpt lat="35.724543454125524" lon="-5.352926356717944">
        <ele>23.208984375</ele>
        <time>2011-04-25T08:52:35Z</time>
      </trkpt>
      <trkpt lat="35.728495689108968" lon="-5.352940689772368">
        <ele>30.4188232421875</ele>
        <time>2011-04-25T08:52:49Z</time>
      </trkpt>
      <trkpt lat="35.731588946655393" lon="-5.352954939007759">
        <ele>30.4188232421875</ele>
        <time>2011-04-25T08:53:00Z</time>
      </trkpt>
      <trkpt lat="35.734973642975092" lon="-5.352911436930299">
        <ele>27.0543212890625</ele>
        <time>2011-04-25T08:53:12Z</time>
      </trkpt>
      <trkpt lat="35.740963686257601" lon="-5.352969858795404">
        <ele>35.2254638671875</ele>
        <time>2011-04-25T08:53:34Z</time>
      </trkpt>
      <trkpt lat="35.742644425481558" lon="-5.353048229590058">
        <ele>38.109375</ele>
        <time>2011-04-25T08:53:41Z</time>
      </trkpt>
      <trkpt lat="35.743544893339276" lon="-5.35309667699039">
        <ele>39.55126953125</ele>
        <time>2011-04-25T08:53:46Z</time>
      </trkpt>
      <trkpt lat="35.743879079818726" lon="-5.353134227916598">
        <ele>40.0321044921875</ele>
        <time>2011-04-25T08:53:50Z</time>
      </trkpt>
      <trkpt lat="35.743961725383997" lon="-5.353198349475861">
        <ele>40.5128173828125</ele>
        <time>2011-04-25T08:54:20Z</time>
      </trkpt>
      <trkpt lat="35.744144031777978" lon="-5.353240594267845">
        <ele>41.4739990234375</ele>
        <time>2011-04-25T08:54:27Z</time>
      </trkpt>
      <trkpt lat="35.744327763095498" lon="-5.353288790211082">
        <ele>42.4354248046875</ele>
        <time>2011-04-25T08:54:49Z</time>
      </trkpt>
      <trkpt lat="35.744778541848063" lon="-5.353388786315918">
        <ele>40.993408203125</ele>
        <time>2011-04-25T08:54:54Z</time>
      </trkpt>
      <trkpt lat="35.745588820427656" lon="-5.353585258126259">
        <ele>41.4739990234375</ele>
        <time>2011-04-25T08:55:00Z</time>
      </trkpt>
      <trkpt lat="35.746844848617911" lon="-5.353967053815723">
        <ele>43.3966064453125</ele>
        <time>2011-04-25T08:55:07Z</time>
      </trkpt>
      <trkpt lat="35.748551823198795" lon="-5.354452198371291">
        <ele>46.2806396484375</ele>
        <time>2011-04-25T08:55:15Z</time>
      </trkpt>
      <trkpt lat="35.75096488930285" lon="-5.355136664584279">
        <ele>50.6065673828125</ele>
        <time>2011-04-25T08:55:25Z</time>
      </trkpt>
      <trkpt lat="35.755106220021844" lon="-5.356308957561851">
        <ele>58.297119140625</ele>
        <time>2011-04-25T08:55:42Z</time>
      </trkpt>
      <trkpt lat="35.759020317345858" lon="-5.357423247769475">
        <ele>63.5843505859375</ele>
        <time>2011-04-25T08:55:58Z</time>
      </trkpt>
      <trkpt lat="35.761743932962418" lon="-5.358372246846557">
        <ele>65.0263671875</ele>
        <time>2011-04-25T08:56:09Z</time>
      </trkpt>
      <trkpt lat="35.764510044828057" lon="-5.35951972939074">
        <ele>64.545654296875</ele>
        <time>2011-04-25T08:56:21Z</time>
      </trkpt>
      <trkpt lat="35.766801154240966" lon="-5.360492030158639">
        <ele>64.545654296875</ele>
        <time>2011-04-25T08:56:31Z</time>
      </trkpt>
      <trkpt lat="35.769897429272532" lon="-5.361782424151897">
        <ele>62.142333984375</ele>
        <time>2011-04-25T08:56:45Z</time>
      </trkpt>
      <trkpt lat="35.772788180038333" lon="-5.362982964143157">
        <ele>53.97119140625</ele>
        <time>2011-04-25T08:56:58Z</time>
      </trkpt>
      <trkpt lat="35.775310462340713" lon="-5.364187527447939">
        <ele>41.9547119140625</ele>
        <time>2011-04-25T08:57:09Z</time>
      </trkpt>
      <trkpt lat="35.777255650609732" lon="-5.36553667858243">
        <ele>30.4188232421875</ele>
        <time>2011-04-25T08:57:18Z</time>
      </trkpt>
      <trkpt lat="35.779055496677756" lon="-5.367227979004383">
        <ele>21.7669677734375</ele>
        <time>2011-04-25T08:57:27Z</time>
      </trkpt>
      <trkpt lat="35.781063381582499" lon="-5.369585137814283">
        <ele>15.9990234375</ele>
        <time>2011-04-25T08:57:38Z</time>
      </trkpt>
      <trkpt lat="35.783561775460839" lon="-5.372667331248522">
        <ele>15.5184326171875</ele>
        <time>2011-04-25T08:57:52Z</time>
      </trkpt>
      <trkpt lat="35.785971991717815" lon="-5.375475017353892">
        <ele>16.96044921875</ele>
        <time>2011-04-25T08:58:05Z</time>
      </trkpt>
      <trkpt lat="35.787466736510396" lon="-5.376673545688391">
        <ele>15.5184326171875</ele>
        <time>2011-04-25T08:58:12Z</time>
      </trkpt>
      <trkpt lat="35.789153259247541" lon="-5.377607122063637">
        <ele>12.15380859375</ele>
        <time>2011-04-25T08:58:19Z</time>
      </trkpt>
      <trkpt lat="35.790995936840773" lon="-5.378207433968782">
        <ele>8.7891845703125</ele>
        <time>2011-04-25T08:58:26Z</time>
      </trkpt>
      <trkpt lat="35.792842553928494" lon="-5.378436176106334">
        <ele>7.827880859375</ele>
        <time>2011-04-25T08:58:33Z</time>
      </trkpt>
      <trkpt lat="35.794693529605865" lon="-5.378306759521365">
        <ele>8.7891845703125</ele>
        <time>2011-04-25T08:58:40Z</time>
      </trkpt>
      <trkpt lat="35.796494716778398" lon="-5.377821195870638">
        <ele>11.1925048828125</ele>
        <time>2011-04-25T08:58:47Z</time>
      </trkpt>
      <trkpt lat="35.798230525106192" lon="-5.376966828480363">
        <ele>11.1925048828125</ele>
        <time>2011-04-25T08:58:54Z</time>
      </trkpt>
      <trkpt lat="35.79969828017056" lon="-5.375929651781917">
        <ele>12.15380859375</ele>
        <time>2011-04-25T08:59:00Z</time>
      </trkpt>
      <trkpt lat="35.801272233948112" lon="-5.374378748238087">
        <ele>13.1151123046875</ele>
        <time>2011-04-25T08:59:07Z</time>
      </trkpt>
      <trkpt lat="35.803591841831803" lon="-5.371828218922019">
        <ele>15.5184326171875</ele>
        <time>2011-04-25T08:59:18Z</time>
      </trkpt>
      <trkpt lat="35.806011529639363" lon="-5.369489919394255">
        <ele>18.883056640625</ele>
        <time>2011-04-25T08:59:29Z</time>
      </trkpt>
      <trkpt lat="35.807489426806569" lon="-5.368594061583281">
        <ele>22.24755859375</ele>
        <time>2011-04-25T08:59:35Z</time>
      </trkpt>
      <trkpt lat="35.809266474097967" lon="-5.367961227893829">
        <ele>26.5736083984375</ele>
        <time>2011-04-25T08:59:42Z</time>
      </trkpt>
      <trkpt lat="35.811107223853469" lon="-5.367748830467463">
        <ele>32.341552734375</ele>
        <time>2011-04-25T08:59:49Z</time>
      </trkpt>
      <trkpt lat="35.814160834997892" lon="-5.367740951478481">
        <ele>41.9547119140625</ele>
        <time>2011-04-25T09:00:01Z</time>
      </trkpt>
      <trkpt lat="35.817319387570024" lon="-5.367545317858458">
        <ele>48.203369140625</ele>
        <time>2011-04-25T09:00:14Z</time>
      </trkpt>
      <trkpt lat="35.821250583976507" lon="-5.366955064237118">
        <ele>47.2418212890625</ele>
        <time>2011-04-25T09:00:30Z</time>
      </trkpt>
      <trkpt lat="35.823386460542679" lon="-5.366445360705257">
        <ele>42.4354248046875</ele>
        <time>2011-04-25T09:00:39Z</time>
      </trkpt>
      <trkpt lat="35.824947087094188" lon="-5.36562904715538">
        <ele>39.0706787109375</ele>
        <time>2011-04-25T09:00:46Z</time>
      </trkpt>
      <trkpt lat="35.825845878571272" lon="-5.364943072199822">
        <ele>37.628662109375</ele>
        <time>2011-04-25T09:00:51Z</time>
      </trkpt>
      <trkpt lat="35.827535418793559" lon="-5.363415218889713">
        <ele>35.7060546875</ele>
        <time>2011-04-25T09:01:02Z</time>
      </trkpt>
      <trkpt lat="35.828177640214562" lon="-5.362840387970209">
        <ele>35.2254638671875</ele>
        <time>2011-04-25T09:01:08Z</time>
      </trkpt>
      <trkpt lat="35.82829674705863" lon="-5.362720191478729">
        <ele>35.2254638671875</ele>
        <time>2011-04-25T09:01:10Z</time>
      </trkpt>
      <trkpt lat="35.828417278826237" lon="-5.362495388835669">
        <ele>35.2254638671875</ele>
        <time>2011-04-25T09:01:13Z</time>
      </trkpt>
      <trkpt lat="35.828665550798178" lon="-5.362283829599619">
        <ele>35.2254638671875</ele>
        <time>2011-04-25T09:01:17Z</time>
      </trkpt>
      <trkpt lat="35.829035863280296" lon="-5.36185534670949">
        <ele>34.26416015625</ele>
        <time>2011-04-25T09:01:22Z</time>
      </trkpt>
      <trkpt lat="35.829804064705968" lon="-5.360761843621731">
        <ele>29.9381103515625</ele>
        <time>2011-04-25T09:01:30Z</time>
      </trkpt>
      <trkpt lat="35.830771420150995" lon="-5.359477149322629">
        <ele>23.6895751953125</ele>
        <time>2011-04-25T09:01:39Z</time>
      </trkpt>
      <trkpt lat="35.831649256870151" lon="-5.358780864626169">
        <ele>22.728271484375</ele>
        <time>2011-04-25T09:01:45Z</time>
      </trkpt>
      <trkpt lat="35.832734378054738" lon="-5.358327319845557">
        <ele>26.0928955078125</ele>
        <time>2011-04-25T09:01:52Z</time>
      </trkpt>
      <trkpt lat="35.833860486745834" lon="-5.357773192226887">
        <ele>31.380126953125</ele>
        <time>2011-04-25T09:02:00Z</time>
      </trkpt>
      <trkpt lat="35.834258543327451" lon="-5.357432132586837">
        <ele>33.3028564453125</ele>
        <time>2011-04-25T09:02:04Z</time>
      </trkpt>
      <trkpt lat="35.834605554118752" lon="-5.357059892266989">
        <ele>34.744873046875</ele>
        <time>2011-04-25T09:02:10Z</time>
      </trkpt>
      <trkpt lat="35.834855586290359" lon="-5.356937348842621">
        <ele>34.744873046875</ele>
        <time>2011-04-25T09:02:13Z</time>
      </trkpt>
      <trkpt lat="35.835863342508674" lon="-5.356151545420289">
        <ele>35.7060546875</ele>
        <time>2011-04-25T09:02:24Z</time>
      </trkpt>
      <trkpt lat="35.836352175101638" lon="-5.355953397229314">
        <ele>34.744873046875</ele>
        <time>2011-04-25T09:02:29Z</time>
      </trkpt>
      <trkpt lat="35.836632633581758" lon="-5.355646032840014">
        <ele>33.3028564453125</ele>
        <time>2011-04-25T09:02:35Z</time>
      </trkpt>
      <trkpt lat="35.836665574461222" lon="-5.355488620698452">
        <ele>32.822265625</ele>
        <time>2011-04-25T09:02:40Z</time>
      </trkpt>
      <trkpt lat="35.836861459538341" lon="-5.355153847485781">
        <ele>31.380126953125</ele>
        <time>2011-04-25T09:02:47Z</time>
      </trkpt>
      <trkpt lat="35.83719908259809" lon="-5.355387032032013">
        <ele>30.8995361328125</ele>
        <time>2011-04-25T09:02:51Z</time>
      </trkpt>
      <trkpt lat="35.8373056165874" lon="-5.355434892699122">
        <ele>30.8995361328125</ele>
        <time>2011-04-25T09:02:52Z</time>
      </trkpt>
      <trkpt lat="35.838345140218735" lon="-5.355740832164884">
        <ele>30.8995361328125</ele>
        <time>2011-04-25T09:03:00Z</time>
      </trkpt>
      <trkpt lat="35.839118035510182" lon="-5.355942752212286">
        <ele>28.0155029296875</ele>
        <time>2011-04-25T09:03:06Z</time>
      </trkpt>
      <trkpt lat="35.8397301658988" lon="-5.355853568762541">
        <ele>22.728271484375</ele>
        <time>2011-04-25T09:03:11Z</time>
      </trkpt>
      <trkpt lat="35.840982086956501" lon="-5.355218974873424">
        <ele>11.6732177734375</ele>
        <time>2011-04-25T09:03:22Z</time>
      </trkpt>
      <trkpt lat="35.841309064999223" lon="-5.355020156130195">
        <ele>8.7891845703125</ele>
        <time>2011-04-25T09:03:28Z</time>
      </trkpt>
      <trkpt lat="35.841417359188199" lon="-5.354956034570932">
        <ele>7.827880859375</ele>
        <time>2011-04-25T09:03:33Z</time>
      </trkpt>
      <trkpt lat="35.841677282005548" lon="-5.354775991290808">
        <ele>5.9052734375</ele>
        <time>2011-04-25T09:03:41Z</time>
      </trkpt>
      <trkpt lat="35.842222692444921" lon="-5.35453274846077">
        <ele>3.982666015625</ele>
        <time>2011-04-25T09:03:47Z</time>
      </trkpt>
      <trkpt lat="35.843058619648218" lon="-5.354059422388673">
        <ele>3.982666015625</ele>
        <time>2011-04-25T09:03:54Z</time>
      </trkpt>
      <trkpt lat="35.843731518834829" lon="-5.353781981393695">
        <ele>3.982666015625</ele>
        <time>2011-04-25T09:03:59Z</time>
      </trkpt>
      <trkpt lat="35.844220351427794" lon="-5.353808384388685">
        <ele>3.982666015625</ele>
        <time>2011-04-25T09:04:03Z</time>
      </trkpt>
      <trkpt lat="35.84532592445612" lon="-5.354052633047104">
        <ele>5.9052734375</ele>
        <time>2011-04-25T09:04:12Z</time>
      </trkpt>
      <trkpt lat="35.845847446471453" lon="-5.353954061865807">
        <ele>5.424560546875</ele>
        <time>2011-04-25T09:04:18Z</time>
      </trkpt>
      <trkpt lat="35.846440382301807" lon="-5.353681147098541">
        <ele>5.424560546875</ele>
        <time>2011-04-25T09:04:24Z</time>
      </trkpt>
      <trkpt lat="35.847216630354524" lon="-5.353375878185034">
        <ele>6.3858642578125</ele>
        <time>2011-04-25T09:04:30Z</time>
      </trkpt>
      <trkpt lat="35.848904829472303" lon="-5.353040518239141">
        <ele>7.34716796875</ele>
        <time>2011-04-25T09:04:42Z</time>
      </trkpt>
      <trkpt lat="35.849685855209827" lon="-5.352669283747673">
        <ele>7.827880859375</ele>
        <time>2011-04-25T09:04:48Z</time>
      </trkpt>
      <trkpt lat="35.850726217031479" lon="-5.351910470053554">
        <ele>7.34716796875</ele>
        <time>2011-04-25T09:04:57Z</time>
      </trkpt>
      <trkpt lat="35.851472457870841" lon="-5.351161044090986">
        <ele>7.827880859375</ele>
        <time>2011-04-25T09:05:05Z</time>
      </trkpt>
      <trkpt lat="35.852170586585999" lon="-5.350050525739789">
        <ele>7.827880859375</ele>
        <time>2011-04-25T09:05:12Z</time>
      </trkpt>
      <trkpt lat="35.85312251932919" lon="-5.348807657137513">
        <ele>6.3858642578125</ele>
        <time>2011-04-25T09:05:20Z</time>
      </trkpt>
      <trkpt lat="35.854268157854676" lon="-5.347655480727553">
        <ele>5.424560546875</ele>
        <time>2011-04-25T09:05:29Z</time>
      </trkpt>
      <trkpt lat="35.855189329013228" lon="-5.347277540713549">
        <ele>5.424560546875</ele>
        <time>2011-04-25T09:05:35Z</time>
      </trkpt>
      <trkpt lat="35.856040176004171" lon="-5.347267985343933">
        <ele>4.4632568359375</ele>
        <time>2011-04-25T09:05:41Z</time>
      </trkpt>
      <trkpt lat="35.857400139793754" lon="-5.347269577905536">
        <ele>4.94384765625</ele>
        <time>2011-04-25T09:05:52Z</time>
      </trkpt>
      <trkpt lat="35.857607256621122" lon="-5.347218783572316">
        <ele>4.94384765625</ele>
        <time>2011-04-25T09:05:54Z</time>
      </trkpt>
      <trkpt lat="35.85780113004148" lon="-5.347130438312888">
        <ele>5.424560546875</ele>
        <time>2011-04-25T09:05:56Z</time>
      </trkpt>
      <trkpt lat="35.85882967337966" lon="-5.346682341769338">
        <ele>5.9052734375</ele>
        <time>2011-04-25T09:06:05Z</time>
      </trkpt>
      <trkpt lat="35.859783533960581" lon="-5.346478326246142">
        <ele>5.9052734375</ele>
        <time>2011-04-25T09:06:12Z</time>
      </trkpt>
      <trkpt lat="35.861153388395905" lon="-5.346166435629129">
        <ele>6.3858642578125</ele>
        <time>2011-04-25T09:06:21Z</time>
      </trkpt>
      <trkpt lat="35.862514777109027" lon="-5.345931323245168">
        <ele>6.866455078125</ele>
        <time>2011-04-25T09:06:29Z</time>
      </trkpt>
      <trkpt lat="35.863992339000106" lon="-5.345735438168049">
        <ele>7.34716796875</ele>
        <time>2011-04-25T09:06:38Z</time>
      </trkpt>
      <trkpt lat="35.865009985864162" lon="-5.345162618905306">
        <ele>7.827880859375</ele>
        <time>2011-04-25T09:06:45Z</time>
      </trkpt>
      <trkpt lat="35.865866197273135" lon="-5.344927757978439">
        <ele>7.827880859375</ele>
        <time>2011-04-25T09:06:51Z</time>
      </trkpt>
      <trkpt lat="35.86631253361702" lon="-5.344930524006486">
        <ele>7.827880859375</ele>
        <time>2011-04-25T09:06:56Z</time>
      </trkpt>
      <trkpt lat="35.866697179153562" lon="-5.344931948930025">
        <ele>8.30859375</ele>
        <time>2011-04-25T09:07:02Z</time>
      </trkpt>
      <trkpt lat="35.866888621822" lon="-5.344999339431524">
        <ele>7.827880859375</ele>
        <time>2011-04-25T09:07:06Z</time>
      </trkpt>
      <trkpt lat="35.867215767502785" lon="-5.345105621963739">
        <ele>7.827880859375</ele>
        <time>2011-04-25T09:07:13Z</time>
      </trkpt>
      <trkpt lat="35.867501255124807" lon="-5.3450973238796">
        <ele>7.827880859375</ele>
        <time>2011-04-25T09:07:23Z</time>
      </trkpt>
      <trkpt lat="35.867842398583889" lon="-5.345079135149717">
        <ele>7.827880859375</ele>
        <time>2011-04-25T09:07:47Z</time>
      </trkpt>
      <trkpt lat="35.868248585611582" lon="-5.345042422413826">
        <ele>7.34716796875</ele>
        <time>2011-04-25T09:07:55Z</time>
      </trkpt>
      <trkpt lat="35.869128266349435" lon="-5.344886519014835">
        <ele>7.34716796875</ele>
        <time>2011-04-25T09:08:07Z</time>
      </trkpt>
      <trkpt lat="35.869438648223877" lon="-5.344795575365424">
        <ele>7.34716796875</ele>
        <time>2011-04-25T09:08:16Z</time>
      </trkpt>
      <trkpt lat="35.869536129757762" lon="-5.344809740781784">
        <ele>8.7891845703125</ele>
        <time>2011-04-25T09:15:01Z</time>
      </trkpt>
      <trkpt lat="35.869766967371106" lon="-5.344762383028865">
        <ele>9.2698974609375</ele>
        <time>2011-04-25T09:15:11Z</time>
      </trkpt>
      <trkpt lat="35.869934018701315" lon="-5.344652077183127">
        <ele>7.827880859375</ele>
        <time>2011-04-25T09:16:20Z</time>
      </trkpt>
      <trkpt lat="35.870006019249558" lon="-5.34473916515708">
        <ele>-0.8240966796875</ele>
        <time>2011-04-25T09:16:35Z</time>
      </trkpt>
      <trkpt lat="35.87018396705389" lon="-5.344784930348396">
        <ele>-21.4923095703125</ele>
        <time>2011-04-25T09:17:14Z</time>
      </trkpt>
      <trkpt lat="35.870125126093626" lon="-5.34488283097744">
        <ele>1.579345703125</ele>
        <time>2011-04-25T09:17:38Z</time>
      </trkpt>
      <trkpt lat="35.870171897113323" lon="-5.344780739396811">
        <ele>0.6180419921875</ele>
        <time>2011-04-25T09:18:45Z</time>
      </trkpt>
      <trkpt lat="35.870580766350031" lon="-5.344636151567102">
        <ele>0.6180419921875</ele>
        <time>2011-04-25T09:18:53Z</time>
      </trkpt>
      <trkpt lat="35.871029365807772" lon="-5.344543363898993">
        <ele>1.579345703125</ele>
        <time>2011-04-25T09:19:03Z</time>
      </trkpt>
      <trkpt lat="35.871345279738307" lon="-5.344448983669281">
        <ele>2.5406494140625</ele>
        <time>2011-04-25T09:19:10Z</time>
      </trkpt>
      <trkpt lat="35.871573686599731" lon="-5.344335492700338">
        <ele>3.501953125</ele>
        <time>2011-04-25T09:19:17Z</time>
      </trkpt>
      <trkpt lat="35.87177443318069" lon="-5.344157880172133">
        <ele>3.982666015625</ele>
        <time>2011-04-25T09:19:25Z</time>
      </trkpt>
      <trkpt lat="35.872098561376333" lon="-5.34389628097415">
        <ele>4.94384765625</ele>
        <time>2011-04-25T09:19:38Z</time>
      </trkpt>
      <trkpt lat="35.872278353199363" lon="-5.343739120289683">
        <ele>5.9052734375</ele>
        <time>2011-04-25T09:19:46Z</time>
      </trkpt>
      <trkpt lat="35.872742626816034" lon="-5.343333017081022">
        <ele>1.0986328125</ele>
        <time>2011-04-25T09:19:59Z</time>
      </trkpt>
      <trkpt lat="35.872960556298494" lon="-5.343120284378529">
        <ele>0.6180419921875</ele>
        <time>2011-04-25T09:20:07Z</time>
      </trkpt>
      <trkpt lat="35.873074550181627" lon="-5.343058845028281">
        <ele>5.9052734375</ele>
        <time>2011-04-25T09:22:58Z</time>
      </trkpt>
      <trkpt lat="35.873304130509496" lon="-5.342905959114432">
        <ele>5.9052734375</ele>
        <time>2011-04-25T09:23:06Z</time>
      </trkpt>
      <trkpt lat="35.87349439971149" lon="-5.342731196433306">
        <ele>5.9052734375</ele>
        <time>2011-04-25T09:23:15Z</time>
      </trkpt>
      <trkpt lat="35.874028075486422" lon="-5.342354094609618">
        <ele>5.9052734375</ele>
        <time>2011-04-25T09:24:15Z</time>
      </trkpt>
      <trkpt lat="35.874691838398576" lon="-5.341839948669076">
        <ele>5.9052734375</ele>
        <time>2011-04-25T09:24:24Z</time>
      </trkpt>
      <trkpt lat="35.875697834417224" lon="-5.34106076695025">
        <ele>5.9052734375</ele>
        <time>2011-04-25T09:24:34Z</time>
      </trkpt>
      <trkpt lat="35.87657474912703" lon="-5.340322237461805">
        <ele>5.9052734375</ele>
        <time>2011-04-25T09:24:43Z</time>
      </trkpt>
      <trkpt lat="35.877255024388433" lon="-5.339522520080209">
        <ele>5.9052734375</ele>
        <time>2011-04-25T09:24:52Z</time>
      </trkpt>
      <trkpt lat="35.878638876602054" lon="-5.337852090597153">
        <ele>5.424560546875</ele>
        <time>2011-04-25T09:25:09Z</time>
      </trkpt>
      <trkpt lat="35.879125529900193" lon="-5.337012894451618">
        <ele>5.9052734375</ele>
        <time>2011-04-25T09:25:18Z</time>
      </trkpt>
      <trkpt lat="35.879690889269114" lon="-5.335769187659025">
        <ele>6.3858642578125</ele>
        <time>2011-04-25T09:25:31Z</time>
      </trkpt>
      <trkpt lat="35.879959696903825" lon="-5.335066616535187">
        <ele>7.34716796875</ele>
        <time>2011-04-25T09:25:41Z</time>
      </trkpt>
      <trkpt lat="35.880031865090132" lon="-5.33434359356761">
        <ele>8.7891845703125</ele>
        <time>2011-04-25T09:25:47Z</time>
      </trkpt>
      <trkpt lat="35.880006635561585" lon="-5.333557287231088">
        <ele>10.7117919921875</ele>
        <time>2011-04-25T09:25:52Z</time>
      </trkpt>
      <trkpt lat="35.879586534574628" lon="-5.332034965977073">
        <ele>11.6732177734375</ele>
        <time>2011-04-25T09:26:02Z</time>
      </trkpt>
      <trkpt lat="35.879267854616046" lon="-5.331002231687307">
        <ele>9.2698974609375</ele>
        <time>2011-04-25T09:26:10Z</time>
      </trkpt>
      <trkpt lat="35.878901230171323" lon="-5.329769337549806">
        <ele>8.30859375</ele>
        <time>2011-04-25T09:26:20Z</time>
      </trkpt>
      <trkpt lat="35.878706853836775" lon="-5.329091241583228">
        <ele>8.7891845703125</ele>
        <time>2011-04-25T09:26:25Z</time>
      </trkpt>
      <trkpt lat="35.878849178552628" lon="-5.328190186992288">
        <ele>8.30859375</ele>
        <time>2011-04-25T09:26:31Z</time>
      </trkpt>
      <trkpt lat="35.879233991727233" lon="-5.327794477343559">
        <ele>8.30859375</ele>
        <time>2011-04-25T09:26:35Z</time>
      </trkpt>
      <trkpt lat="35.879915943369269" lon="-5.327392145991325">
        <ele>7.827880859375</ele>
        <time>2011-04-25T09:26:41Z</time>
      </trkpt>
      <trkpt lat="35.880703423172235" lon="-5.326483547687531">
        <ele>7.827880859375</ele>
        <time>2011-04-25T09:26:50Z</time>
      </trkpt>
      <trkpt lat="35.881850654259324" lon="-5.325139593333006">
        <ele>8.30859375</ele>
        <time>2011-04-25T09:27:03Z</time>
      </trkpt>
      <trkpt lat="35.882730167359114" lon="-5.324640953913331">
        <ele>9.2698974609375</ele>
        <time>2011-04-25T09:27:11Z</time>
      </trkpt>
      <trkpt lat="35.883596185594797" lon="-5.324053717777133">
        <ele>12.15380859375</ele>
        <time>2011-04-25T09:27:19Z</time>
      </trkpt>
      <trkpt lat="35.884950533509254" lon="-5.322824930772185">
        <ele>11.6732177734375</ele>
        <time>2011-04-25T09:27:33Z</time>
      </trkpt>
      <trkpt lat="35.8857736364007" lon="-5.322081539779902">
        <ele>11.1925048828125</ele>
        <time>2011-04-25T09:27:43Z</time>
      </trkpt>
      <trkpt lat="35.886465227231383" lon="-5.321262124925852">
        <ele>11.1925048828125</ele>
        <time>2011-04-25T09:27:52Z</time>
      </trkpt>
      <trkpt lat="35.886858087033033" lon="-5.320573216304183">
        <ele>11.6732177734375</ele>
        <time>2011-04-25T09:28:00Z</time>
      </trkpt>
      <trkpt lat="35.886974344030023" lon="-5.320355873554945">
        <ele>12.6343994140625</ele>
        <time>2011-04-25T09:28:15Z</time>
      </trkpt>
      <trkpt lat="35.88730207644403" lon="-5.319798644632101">
        <ele>12.15380859375</ele>
        <time>2011-04-25T09:28:23Z</time>
      </trkpt>
      <trkpt lat="35.887461332604289" lon="-5.319053158164024">
        <ele>12.6343994140625</ele>
        <time>2011-04-25T09:28:30Z</time>
      </trkpt>
      <trkpt lat="35.887533919885755" lon="-5.317755891010165">
        <ele>12.6343994140625</ele>
        <time>2011-04-25T09:28:41Z</time>
      </trkpt>
      <trkpt lat="35.887555461376905" lon="-5.317241745069623">
        <ele>11.6732177734375</ele>
        <time>2011-04-25T09:28:48Z</time>
      </trkpt>
      <trkpt lat="35.887566274031997" lon="-5.31706178560853">
        <ele>11.1925048828125</ele>
        <time>2011-04-25T09:28:53Z</time>
      </trkpt>
      <trkpt lat="35.887713627889752" lon="-5.317022642120719">
        <ele>10.7117919921875</ele>
        <time>2011-04-25T09:28:57Z</time>
      </trkpt>
      <trkpt lat="35.888158120214939" lon="-5.31709305010736">
        <ele>10.7117919921875</ele>
        <time>2011-04-25T09:29:07Z</time>
      </trkpt>
      <trkpt lat="35.888606971129775" lon="-5.317059857770801">
        <ele>11.1925048828125</ele>
        <time>2011-04-25T09:29:19Z</time>
      </trkpt>
      <trkpt lat="35.888800341635942" lon="-5.31704175285995">
        <ele>11.6732177734375</ele>
        <time>2011-04-25T09:29:31Z</time>
      </trkpt>
      <trkpt lat="35.889028748497367" lon="-5.31700948253274">
        <ele>10.7117919921875</ele>
        <time>2011-04-25T09:29:38Z</time>
      </trkpt>
      <trkpt lat="35.889208288863301" lon="-5.317282732576132">
        <ele>10.7117919921875</ele>
        <time>2011-04-25T09:29:44Z</time>
      </trkpt>
      <trkpt lat="35.889248354360461" lon="-5.317632257938385">
        <ele>9.7506103515625</ele>
        <time>2011-04-25T09:29:48Z</time>
      </trkpt>
      <trkpt lat="35.889493776485324" lon="-5.317983878776431">
        <ele>7.827880859375</ele>
        <time>2011-04-25T09:29:54Z</time>
      </trkpt>
      <trkpt lat="35.889680692926049" lon="-5.318071637302637">
        <ele>7.34716796875</ele>
        <time>2011-04-25T09:29:57Z</time>
      </trkpt>
      <trkpt lat="35.889967773109674" lon="-5.317980442196131">
        <ele>5.9052734375</ele>
        <time>2011-04-25T09:30:03Z</time>
      </trkpt>
      <trkpt lat="35.890170866623521" lon="-5.317912381142378">
        <ele>5.9052734375</ele>
        <time>2011-04-25T09:30:08Z</time>
      </trkpt>
      <trkpt lat="35.890158880501986" lon="-5.318136429414153">
        <ele>5.424560546875</ele>
        <time>2011-04-25T09:30:12Z</time>
      </trkpt>
      <trkpt lat="35.890036337077618" lon="-5.318996161222458">
        <ele>5.424560546875</ele>
        <time>2011-04-25T09:30:23Z</time>
      </trkpt>
      <trkpt lat="35.889995936304331" lon="-5.319303190335631">
        <ele>5.9052734375</ele>
        <time>2011-04-25T09:30:29Z</time>
      </trkpt>
      <trkpt lat="35.889950254932046" lon="-5.319449622184038">
        <ele>6.3858642578125</ele>
        <time>2011-04-25T09:30:37Z</time>
      </trkpt>
      <trkpt lat="35.889689074829221" lon="-5.319929737597704">
        <ele>8.30859375</ele>
        <time>2011-04-25T09:30:46Z</time>
      </trkpt>
      <trkpt lat="35.889429654926062" lon="-5.320200053974986">
        <ele>10.7117919921875</ele>
        <time>2011-04-25T09:30:50Z</time>
      </trkpt>
      <trkpt lat="35.889264279976487" lon="-5.320638678967953">
        <ele>12.6343994140625</ele>
        <time>2011-04-25T09:30:56Z</time>
      </trkpt>
      <trkpt lat="35.889336364343762" lon="-5.320992562919855">
        <ele>12.15380859375</ele>
        <time>2011-04-25T09:31:00Z</time>
      </trkpt>
      <trkpt lat="35.889432672411203" lon="-5.321271093562245">
        <ele>11.6732177734375</ele>
        <time>2011-04-25T09:31:04Z</time>
      </trkpt>
      <trkpt lat="35.889372657984495" lon="-5.321482736617327">
        <ele>11.6732177734375</ele>
        <time>2011-04-25T09:31:09Z</time>
      </trkpt>
      <trkpt lat="35.88929864577949" lon="-5.321312164887786">
        <ele>11.1925048828125</ele>
        <time>2011-04-25T09:31:13Z</time>
      </trkpt>
      <trkpt lat="35.889250952750444" lon="-5.320921232923865">
        <ele>11.1925048828125</ele>
        <time>2011-04-25T09:31:18Z</time>
      </trkpt>
      <trkpt lat="35.889172498136759" lon="-5.320696765556932">
        <ele>11.1925048828125</ele>
        <time>2011-04-25T09:31:21Z</time>
      </trkpt>
      <trkpt lat="35.888834958896041" lon="-5.320395939052105">
        <ele>11.6732177734375</ele>
        <time>2011-04-25T09:31:28Z</time>
      </trkpt>
      <trkpt lat="35.88858718983829" lon="-5.32036442309618">
        <ele>12.6343994140625</ele>
        <time>2011-04-25T09:31:34Z</time>
      </trkpt>
      <trkpt lat="35.888275383040309" lon="-5.32041035592556">
        <ele>13.1151123046875</ele>
        <time>2011-04-25T09:31:43Z</time>
      </trkpt>
      <trkpt lat="35.888111935928464" lon="-5.320457294583321">
        <ele>14.076416015625</ele>
        <time>2011-04-25T09:31:50Z</time>
      </trkpt>
      <trkpt lat="35.887705916538835" lon="-5.320589644834399">
        <ele>12.6343994140625</ele>
        <time>2011-04-25T09:31:58Z</time>
      </trkpt>
      <trkpt lat="35.887607345357537" lon="-5.320611018687487">
        <ele>13.1151123046875</ele>
        <time>2011-04-25T09:32:31Z</time>
      </trkpt>
      <trkpt lat="35.88747357018292" lon="-5.320645133033395">
        <ele>14.076416015625</ele>
        <time>2011-04-25T09:32:35Z</time>
      </trkpt>
      <trkpt lat="35.887380698695779" lon="-5.320548741146922">
        <ele>14.076416015625</ele>
        <time>2011-04-25T09:32:39Z</time>
      </trkpt>
      <trkpt lat="35.887281624600291" lon="-5.320337684825063">
        <ele>13.5958251953125</ele>
        <time>2011-04-25T09:32:50Z</time>
      </trkpt>
      <trkpt lat="35.887214653193951" lon="-5.320164933800697">
        <ele>11.6732177734375</ele>
        <time>2011-04-25T09:33:07Z</time>
      </trkpt>
      <trkpt lat="35.887358319014311" lon="-5.319655984640122">
        <ele>9.2698974609375</ele>
        <time>2011-04-25T09:33:17Z</time>
      </trkpt>
      <trkpt lat="35.887444736436009" lon="-5.31907201744616">
        <ele>9.7506103515625</ele>
        <time>2011-04-25T09:33:23Z</time>
      </trkpt>
      <trkpt lat="35.887517239898443" lon="-5.317840967327356">
        <ele>9.2698974609375</ele>
        <time>2011-04-25T09:33:36Z</time>
      </trkpt>
      <trkpt lat="35.887540290132165" lon="-5.317209893837571">
        <ele>8.7891845703125</ele>
        <time>2011-04-25T09:33:46Z</time>
      </trkpt>
      <trkpt lat="35.887547750025988" lon="-5.317076370120049">
        <ele>8.7891845703125</ele>
        <time>2011-04-25T09:33:50Z</time>
      </trkpt>
      <trkpt lat="35.887671718373895" lon="-5.317033873870969">
        <ele>7.827880859375</ele>
        <time>2011-04-25T09:33:54Z</time>
      </trkpt>
      <trkpt lat="35.88799299672246" lon="-5.317091457545757">
        <ele>8.30859375</ele>
        <time>2011-04-25T09:34:04Z</time>
      </trkpt>
      <trkpt lat="35.888192737475038" lon="-5.317115178331733">
        <ele>9.2698974609375</ele>
        <time>2011-04-25T09:34:09Z</time>
      </trkpt>
      <trkpt lat="35.888556763529778" lon="-5.317072598263621">
        <ele>9.2698974609375</ele>
        <time>2011-04-25T09:34:18Z</time>
      </trkpt>
      <trkpt lat="35.88867561891675" lon="-5.317056253552437">
        <ele>9.7506103515625</ele>
        <time>2011-04-25T09:34:26Z</time>
      </trkpt>
      <trkpt lat="35.888774441555142" lon="-5.317043932154775">
        <ele>10.231201171875</ele>
        <time>2011-04-25T09:34:39Z</time>
      </trkpt>
      <trkpt lat="35.888963369652629" lon="-5.317005878314376">
        <ele>9.7506103515625</ele>
        <time>2011-04-25T09:34:49Z</time>
      </trkpt>
      <trkpt lat="35.889063365757465" lon="-5.317008644342423">
        <ele>8.7891845703125</ele>
        <time>2011-04-25T09:34:54Z</time>
      </trkpt>
      <trkpt lat="35.889200074598193" lon="-5.317324474453926">
        <ele>8.7891845703125</ele>
        <time>2011-04-25T09:35:00Z</time>
      </trkpt>
      <trkpt lat="35.889234356582165" lon="-5.317637789994478">
        <ele>8.7891845703125</ele>
        <time>2011-04-25T09:35:04Z</time>
      </trkpt>
      <trkpt lat="35.889484891667962" lon="-5.317983627319336">
        <ele>9.2698974609375</ele>
        <time>2011-04-25T09:35:10Z</time>
      </trkpt>
      <trkpt lat="35.889821089804173" lon="-5.318087060004473">
        <ele>6.3858642578125</ele>
        <time>2011-04-25T09:35:17Z</time>
      </trkpt>
      <trkpt lat="35.889907758682966" lon="-5.318020926788449">
        <ele>5.424560546875</ele>
        <time>2011-04-25T09:35:23Z</time>
      </trkpt>
      <trkpt lat="35.890270778909326" lon="-5.317644998431206">
        <ele>3.501953125</ele>
        <time>2011-04-25T09:35:32Z</time>
      </trkpt>
      <trkpt lat="35.890715857967734" lon="-5.317179299890995">
        <ele>0.6180419921875</ele>
        <time>2011-04-25T09:35:44Z</time>
      </trkpt>
      <trkpt lat="35.890885088592768" lon="-5.317125655710697">
        <ele>0.6180419921875</ele>
        <time>2011-04-25T09:35:52Z</time>
      </trkpt>
      <trkpt lat="35.891011822968721" lon="-5.317454980686307">
        <ele>1.0986328125</ele>
        <time>2011-04-25T09:36:00Z</time>
      </trkpt>
      <trkpt lat="35.89101173914969" lon="-5.31760317273438">
        <ele>1.0986328125</ele>
        <time>2011-04-25T09:36:02Z</time>
      </trkpt>
      <trkpt lat="35.891142580658197" lon="-5.31830633059144">
        <ele>1.579345703125</ele>
        <time>2011-04-25T09:36:12Z</time>
      </trkpt>
      <trkpt lat="35.891344416886568" lon="-5.319151058793068">
        <ele>3.021240234375</ele>
        <time>2011-04-25T09:36:24Z</time>
      </trkpt>
      <trkpt lat="35.891580954194069" lon="-5.319763943552971">
        <ele>3.982666015625</ele>
        <time>2011-04-25T09:36:33Z</time>
      </trkpt>
      <trkpt lat="35.891799721866846" lon="-5.320088574662805">
        <ele>3.501953125</ele>
        <time>2011-04-25T09:36:41Z</time>
      </trkpt>
      <trkpt lat="35.892255529761314" lon="-5.320822326466441">
        <ele>3.501953125</ele>
        <time>2011-04-25T09:36:52Z</time>
      </trkpt>
      <trkpt lat="35.892582759261131" lon="-5.32127033919096">
        <ele>3.021240234375</ele>
        <time>2011-04-25T09:36:59Z</time>
      </trkpt>
      <trkpt lat="35.892727263271809" lon="-5.32134803943336">
        <ele>2.5406494140625</ele>
        <time>2011-04-25T09:37:02Z</time>
      </trkpt>
      <trkpt lat="35.892856176942587" lon="-5.321538392454386">
        <ele>2.5406494140625</ele>
        <time>2011-04-25T09:37:06Z</time>
      </trkpt>
      <trkpt lat="35.8931421674788" lon="-5.321996798738837">
        <ele>2.06005859375</ele>
        <time>2011-04-25T09:37:13Z</time>
      </trkpt>
      <trkpt lat="35.893590850755572" lon="-5.322619238868356">
        <ele>1.579345703125</ele>
        <time>2011-04-25T09:37:21Z</time>
      </trkpt>
      <trkpt lat="35.893894778564572" lon="-5.323024922981858">
        <ele>1.579345703125</ele>
        <time>2011-04-25T09:37:30Z</time>
      </trkpt>
      <trkpt lat="35.893978681415319" lon="-5.323172276839614">
        <ele>1.0986328125</ele>
        <time>2011-04-25T09:37:32Z</time>
      </trkpt>
      <trkpt lat="35.894133243709803" lon="-5.323386350646615">
        <ele>1.0986328125</ele>
        <time>2011-04-25T09:37:35Z</time>
      </trkpt>
      <trkpt lat="35.894689634442329" lon="-5.323806451633573">
        <ele>1.579345703125</ele>
        <time>2011-04-25T09:37:43Z</time>
      </trkpt>
      <trkpt lat="35.895239822566509" lon="-5.324505586177111">
        <ele>0.6180419921875</ele>
        <time>2011-04-25T09:37:51Z</time>
      </trkpt>
      <trkpt lat="35.895536122843623" lon="-5.324868774041534">
        <ele>0.6180419921875</ele>
        <time>2011-04-25T09:37:57Z</time>
      </trkpt>
      <trkpt lat="35.895645087584853" lon="-5.325015038251877">
        <ele>0.6180419921875</ele>
        <time>2011-04-25T09:38:04Z</time>
      </trkpt>
      <trkpt lat="35.895916158333421" lon="-5.325286947190762">
        <ele>-5.14990234375</ele>
        <time>2011-04-25T09:39:00Z</time>
      </trkpt>
      <trkpt lat="35.896058985963464" lon="-5.325125847011805">
        <ele>-2.2659912109375</ele>
        <time>2011-04-25T09:39:07Z</time>
      </trkpt>
      <trkpt lat="35.896081617102027" lon="-5.324999950826168">
        <ele>-0.3433837890625</ele>
        <time>2011-04-25T09:39:15Z</time>
      </trkpt>
      <trkpt lat="35.895988661795855" lon="-5.324874222278595">
        <ele>-1.7852783203125</ele>
        <time>2011-04-25T09:39:58Z</time>
      </trkpt>
      <trkpt lat="35.895868465304375" lon="-5.324660567566752">
        <ele>1.579345703125</ele>
        <time>2011-04-25T09:40:09Z</time>
      </trkpt>
      <trkpt lat="35.895714573562145" lon="-5.324504999443889">
        <ele>1.0986328125</ele>
        <time>2011-04-25T09:40:13Z</time>
      </trkpt>
      <trkpt lat="35.895312996581197" lon="-5.323986746370792">
        <ele>0.6180419921875</ele>
        <time>2011-04-25T09:40:20Z</time>
      </trkpt>
      <trkpt lat="35.89439895004034" lon="-5.322675816714764">
        <ele>-0.3433837890625</ele>
        <time>2011-04-25T09:40:33Z</time>
      </trkpt>
      <trkpt lat="35.894017573446035" lon="-5.322146331891418">
        <ele>-0.3433837890625</ele>
        <time>2011-04-25T09:40:40Z</time>
      </trkpt>
      <trkpt lat="35.893947081640363" lon="-5.321988249197602">
        <ele>8.30859375</ele>
        <time>2011-04-25T10:06:22Z</time>
      </trkpt>
      <trkpt lat="35.893992930650711" lon="-5.321796471253038">
        <ele>7.827880859375</ele>
        <time>2011-04-25T10:06:27Z</time>
      </trkpt>
      <trkpt lat="35.894123269245028" lon="-5.321618691086769">
        <ele>6.3858642578125</ele>
        <time>2011-04-25T10:06:36Z</time>
      </trkpt>
      <trkpt lat="35.894188564270735" lon="-5.321540823206306">
        <ele>8.30859375</ele>
        <time>2011-04-25T10:07:08Z</time>
      </trkpt>
      <trkpt lat="35.894205830991268" lon="-5.321415681391954">
        <ele>-9.95654296875</ele>
        <time>2011-04-25T10:08:53Z</time>
      </trkpt>
      <trkpt lat="35.89421521872282" lon="-5.321224993094802">
        <ele>-7.5531005859375</ele>
        <time>2011-04-25T10:09:43Z</time>
      </trkpt>
      <trkpt lat="35.894375229254365" lon="-5.321137737482786">
        <ele>-5.14990234375</ele>
        <time>2011-04-25T10:09:50Z</time>
      </trkpt>
      <trkpt lat="35.894554182887077" lon="-5.320979068055749">
        <ele>-3.227294921875</ele>
        <time>2011-04-25T10:09:56Z</time>
      </trkpt>
      <trkpt lat="35.894511351361871" lon="-5.320842023938894">
        <ele>-1.7852783203125</ele>
        <time>2011-04-25T10:10:00Z</time>
      </trkpt>
      <trkpt lat="35.894419234246016" lon="-5.320755019783974">
        <ele>-1.3046875</ele>
        <time>2011-04-25T10:10:04Z</time>
      </trkpt>
      <trkpt lat="35.894453097134829" lon="-5.320650329813361">
        <ele>23.6895751953125</ele>
        <time>2011-04-25T10:10:54Z</time>
      </trkpt>
      <trkpt lat="35.894414037466049" lon="-5.320765245705843">
        <ele>21.7669677734375</ele>
        <time>2011-04-25T10:11:11Z</time>
      </trkpt>
      <trkpt lat="35.894391825422645" lon="-5.320652844384313">
        <ele>2.06005859375</ele>
        <time>2011-04-25T10:11:31Z</time>
      </trkpt>
      <trkpt lat="35.894370870664716" lon="-5.320381354540587">
        <ele>8.30859375</ele>
        <time>2011-04-25T10:12:24Z</time>
      </trkpt>
      <trkpt lat="35.894323848187923" lon="-5.320236599072814">
        <ele>15.0377197265625</ele>
        <time>2011-04-25T10:12:57Z</time>
      </trkpt>
      <trkpt lat="35.894318483769894" lon="-5.320143140852451">
        <ele>24.1702880859375</ele>
        <time>2011-04-25T10:13:05Z</time>
      </trkpt>
    </trkseg>
  </trk>

  <trk>
    <name>110425-España</name>
    <extensions>
      <gpxx:TrackExtension xmlns:gpxx="http://www.garmin.com/xmlschemas/GpxExtensions/v3">
        <gpxx:DisplayColor>Blue</gpxx:DisplayColor>
      </gpxx:TrackExtension>
    </extensions>
    <trkseg>
      <trkpt lat="36.133783254772425" lon="-5.433917585760355">
        <ele>-39.2767333984375</ele>
        <time>2011-04-25T11:26:18Z</time>
      </trkpt>
      <trkpt lat="36.129690790548921" lon="-5.43845085427165">
        <ele>-10.9178466796875</ele>
        <time>2011-04-25T11:33:11Z</time>
      </trkpt>
      <trkpt lat="36.129710823297501" lon="-5.438590496778488">
        <ele>4.94384765625</ele>
        <time>2011-04-25T11:34:06Z</time>
      </trkpt>
      <trkpt lat="36.129721468314528" lon="-5.438471725210547">
        <ele>5.424560546875</ele>
        <time>2011-04-25T11:35:03Z</time>
      </trkpt>
      <trkpt lat="36.129770167171955" lon="-5.438293945044279">
        <ele>8.7891845703125</ele>
        <time>2011-04-25T11:35:10Z</time>
      </trkpt>
      <trkpt lat="36.129848789423704" lon="-5.438120942562819">
        <ele>10.7117919921875</ele>
        <time>2011-04-25T11:35:20Z</time>
      </trkpt>
      <trkpt lat="36.130021372810006" lon="-5.437991945073009">
        <ele>3.021240234375</ele>
        <time>2011-04-25T11:35:31Z</time>
      </trkpt>
      <trkpt lat="36.130133355036378" lon="-5.43826955370605">
        <ele>1.0986328125</ele>
        <time>2011-04-25T11:35:40Z</time>
      </trkpt>
      <trkpt lat="36.130067557096481" lon="-5.438596028834581">
        <ele>0.137451171875</ele>
        <time>2011-04-25T11:35:49Z</time>
      </trkpt>
      <trkpt lat="36.130214491859078" lon="-5.438818065449596">
        <ele>0.6180419921875</ele>
        <time>2011-04-25T11:35:56Z</time>
      </trkpt>
      <trkpt lat="36.130674574524164" lon="-5.439235735684633">
        <ele>5.9052734375</ele>
        <time>2011-04-25T11:36:10Z</time>
      </trkpt>
      <trkpt lat="36.130945477634668" lon="-5.439488785341382">
        <ele>5.9052734375</ele>
        <time>2011-04-25T11:36:16Z</time>
      </trkpt>
      <trkpt lat="36.131044467911124" lon="-5.439882734790444">
        <ele>3.501953125</ele>
        <time>2011-04-25T11:36:23Z</time>
      </trkpt>
      <trkpt lat="36.130988225340843" lon="-5.439998153597117">
        <ele>2.5406494140625</ele>
        <time>2011-04-25T11:36:25Z</time>
      </trkpt>
      <trkpt lat="36.130681782960892" lon="-5.440595783293247">
        <ele>1.579345703125</ele>
        <time>2011-04-25T11:36:35Z</time>
      </trkpt>
      <trkpt lat="36.130518168210983" lon="-5.441062990576029">
        <ele>-0.3433837890625</ele>
        <time>2011-04-25T11:36:46Z</time>
      </trkpt>
      <trkpt lat="36.130398390814662" lon="-5.441355183720589">
        <ele>-0.8240966796875</ele>
        <time>2011-04-25T11:36:57Z</time>
      </trkpt>
      <trkpt lat="36.130193118005991" lon="-5.441613597795367">
        <ele>-2.2659912109375</ele>
        <time>2011-04-25T11:37:05Z</time>
      </trkpt>
      <trkpt lat="36.130086584016681" lon="-5.441807052120566">
        <ele>-2.2659912109375</ele>
        <time>2011-04-25T11:37:13Z</time>
      </trkpt>
      <trkpt lat="36.130053056403995" lon="-5.441976869478822">
        <ele>-2.2659912109375</ele>
        <time>2011-04-25T11:37:19Z</time>
      </trkpt>
      <trkpt lat="36.129893967881799" lon="-5.442240983247757">
        <ele>-2.2659912109375</ele>
        <time>2011-04-25T11:37:24Z</time>
      </trkpt>
      <trkpt lat="36.12968978472054" lon="-5.442429324612021">
        <ele>-3.227294921875</ele>
        <time>2011-04-25T11:37:29Z</time>
      </trkpt>
      <trkpt lat="36.129353335127234" lon="-5.443201130256057">
        <ele>-4.1885986328125</ele>
        <time>2011-04-25T11:37:41Z</time>
      </trkpt>
      <trkpt lat="36.129150660708547" lon="-5.443710833787918">
        <ele>-2.7467041015625</ele>
        <time>2011-04-25T11:37:50Z</time>
      </trkpt>
      <trkpt lat="36.129498593509197" lon="-5.444051474332809">
        <ele>-1.7852783203125</ele>
        <time>2011-04-25T11:38:00Z</time>
      </trkpt>
      <trkpt lat="36.129728173837066" lon="-5.444193799048662">
        <ele>-2.2659912109375</ele>
        <time>2011-04-25T11:38:04Z</time>
      </trkpt>
      <trkpt lat="36.130028916522861" lon="-5.444178795441985">
        <ele>-2.7467041015625</ele>
        <time>2011-04-25T11:38:11Z</time>
      </trkpt>
      <trkpt lat="36.130286492407322" lon="-5.443899091333151">
        <ele>-3.227294921875</ele>
        <time>2011-04-25T11:38:17Z</time>
      </trkpt>
      <trkpt lat="36.130728637799621" lon="-5.442975824698806">
        <ele>-2.7467041015625</ele>
        <time>2011-04-25T11:38:27Z</time>
      </trkpt>
      <trkpt lat="36.131235659122467" lon="-5.442017521709204">
        <ele>-2.2659912109375</ele>
        <time>2011-04-25T11:38:36Z</time>
      </trkpt>
      <trkpt lat="36.131841335445642" lon="-5.441510751843453">
        <ele>-1.7852783203125</ele>
        <time>2011-04-25T11:38:44Z</time>
      </trkpt>
      <trkpt lat="36.132481042295694" lon="-5.441309837624431">
        <ele>-2.2659912109375</ele>
        <time>2011-04-25T11:38:51Z</time>
      </trkpt>
      <trkpt lat="36.133733969181776" lon="-5.441128620877862">
        <ele>0.6180419921875</ele>
        <time>2011-04-25T11:39:02Z</time>
      </trkpt>
      <trkpt lat="36.134368730708957" lon="-5.441010016947985">
        <ele>0.6180419921875</ele>
        <time>2011-04-25T11:39:09Z</time>
      </trkpt>
      <trkpt lat="36.13473828881979" lon="-5.440778844058514">
        <ele>0.6180419921875</ele>
        <time>2011-04-25T11:39:17Z</time>
      </trkpt>
      <trkpt lat="36.134889498353004" lon="-5.440777419134975">
        <ele>1.0986328125</ele>
        <time>2011-04-25T11:39:25Z</time>
      </trkpt>
      <trkpt lat="36.134955966845155" lon="-5.440917564556003">
        <ele>7.827880859375</ele>
        <time>2011-04-25T11:45:08Z</time>
      </trkpt>
      <trkpt lat="36.13528948277235" lon="-5.441124681383371">
        <ele>6.866455078125</ele>
        <time>2011-04-25T11:45:15Z</time>
      </trkpt>
      <trkpt lat="36.136152232065797" lon="-5.441155359148979">
        <ele>4.94384765625</ele>
        <time>2011-04-25T11:45:24Z</time>
      </trkpt>
      <trkpt lat="36.137527283281088" lon="-5.441043041646481">
        <ele>3.982666015625</ele>
        <time>2011-04-25T11:45:36Z</time>
      </trkpt>
      <trkpt lat="36.138779539614916" lon="-5.441029043868184">
        <ele>3.021240234375</ele>
        <time>2011-04-25T11:45:48Z</time>
      </trkpt>
      <trkpt lat="36.13987572491169" lon="-5.44102686457336">
        <ele>2.5406494140625</ele>
        <time>2011-04-25T11:45:57Z</time>
      </trkpt>
      <trkpt lat="36.140745766460896" lon="-5.441029546782374">
        <ele>2.5406494140625</ele>
        <time>2011-04-25T11:46:05Z</time>
      </trkpt>
      <trkpt lat="36.142206564545631" lon="-5.440925443544984">
        <ele>3.021240234375</ele>
        <time>2011-04-25T11:46:19Z</time>
      </trkpt>
      <trkpt lat="36.143709439784288" lon="-5.440870290622115">
        <ele>5.9052734375</ele>
        <time>2011-04-25T11:46:33Z</time>
      </trkpt>
      <trkpt lat="36.14486807025969" lon="-5.440814550966024">
        <ele>10.7117919921875</ele>
        <time>2011-04-25T11:46:42Z</time>
      </trkpt>
      <trkpt lat="36.146473623812199" lon="-5.440878756344318">
        <ele>18.40234375</ele>
        <time>2011-04-25T11:46:53Z</time>
      </trkpt>
      <trkpt lat="36.147420695051551" lon="-5.441283769905567">
        <ele>21.7669677734375</ele>
        <time>2011-04-25T11:47:00Z</time>
      </trkpt>
      <trkpt lat="36.148271039128304" lon="-5.442024730145931">
        <ele>21.7669677734375</ele>
        <time>2011-04-25T11:47:07Z</time>
      </trkpt>
      <trkpt lat="36.148865148425102" lon="-5.442925533279777">
        <ele>19.36376953125</ele>
        <time>2011-04-25T11:47:13Z</time>
      </trkpt>
      <trkpt lat="36.149218948557973" lon="-5.444039655849338">
        <ele>8.7891845703125</ele>
        <time>2011-04-25T11:47:20Z</time>
      </trkpt>
      <trkpt lat="36.149470238015056" lon="-5.445357542484999">
        <ele>-1.7852783203125</ele>
        <time>2011-04-25T11:47:29Z</time>
      </trkpt>
      <trkpt lat="36.149593787267804" lon="-5.446026083081961">
        <ele>-8.9952392578125</ele>
        <time>2011-04-25T11:47:37Z</time>
      </trkpt>
      <trkpt lat="36.149674085900187" lon="-5.446504522114992">
        <ele>-14.282470703125</ele>
        <time>2011-04-25T11:47:46Z</time>
      </trkpt>
      <trkpt lat="36.149707529693842" lon="-5.446744076907635">
        <ele>-18.6083984375</ele>
        <time>2011-04-25T11:47:55Z</time>
      </trkpt>
      <trkpt lat="36.149719599634409" lon="-5.446967035531998">
        <ele>-19.5697021484375</ele>
        <time>2011-04-25T11:48:06Z</time>
      </trkpt>
      <trkpt lat="36.149945827201009" lon="-5.447565084323287">
        <ele>-21.9730224609375</ele>
        <time>2011-04-25T11:48:12Z</time>
      </trkpt>
      <trkpt lat="36.1502605676651" lon="-5.447993483394384">
        <ele>-21.9730224609375</ele>
        <time>2011-04-25T11:48:16Z</time>
      </trkpt>
      <trkpt lat="36.150461146607995" lon="-5.44817553833127">
        <ele>-22.45361328125</ele>
        <time>2011-04-25T11:48:18Z</time>
      </trkpt>
      <trkpt lat="36.151311490684748" lon="-5.448468988761306">
        <ele>-20.531005859375</ele>
        <time>2011-04-25T11:48:24Z</time>
      </trkpt>
      <trkpt lat="36.152085475623608" lon="-5.448268661275506">
        <ele>-12.8404541015625</ele>
        <time>2011-04-25T11:48:29Z</time>
      </trkpt>
      <trkpt lat="36.152518652379513" lon="-5.447942772880197">
        <ele>-8.5146484375</ele>
        <time>2011-04-25T11:48:32Z</time>
      </trkpt>
      <trkpt lat="36.153432447463274" lon="-5.447118747979403">
        <ele>-3.7078857421875</ele>
        <time>2011-04-25T11:48:38Z</time>
      </trkpt>
      <trkpt lat="36.15439779125154" lon="-5.446903333067894">
        <ele>0.137451171875</ele>
        <time>2011-04-25T11:48:43Z</time>
      </trkpt>
      <trkpt lat="36.155162891373038" lon="-5.447225281968713">
        <ele>0.137451171875</ele>
        <time>2011-04-25T11:48:47Z</time>
      </trkpt>
      <trkpt lat="36.155708469450474" lon="-5.447861468419433">
        <ele>-0.8240966796875</ele>
        <time>2011-04-25T11:48:51Z</time>
      </trkpt>
      <trkpt lat="36.155946599319577" lon="-5.448830248787999">
        <ele>-10.437255859375</ele>
        <time>2011-04-25T11:48:56Z</time>
      </trkpt>
      <trkpt lat="36.15595506504178" lon="-5.449047842994332">
        <ele>-11.3984375</ele>
        <time>2011-04-25T11:48:57Z</time>
      </trkpt>
      <trkpt lat="36.15596286021173" lon="-5.451322859153152">
        <ele>-11.3984375</ele>
        <time>2011-04-25T11:49:08Z</time>
      </trkpt>
      <trkpt lat="36.156009631231427" lon="-5.453104851767421">
        <ele>-2.7467041015625</ele>
        <time>2011-04-25T11:49:18Z</time>
      </trkpt>
      <trkpt lat="36.15607132203877" lon="-5.456049246713519">
        <ele>5.424560546875</ele>
        <time>2011-04-25T11:49:37Z</time>
      </trkpt>
      <trkpt lat="36.156933149322867" lon="-5.456301458179951">
        <ele>12.6343994140625</ele>
        <time>2011-04-25T11:49:43Z</time>
      </trkpt>
      <trkpt lat="36.157679641619325" lon="-5.457300832495093">
        <ele>16.96044921875</ele>
        <time>2011-04-25T11:49:51Z</time>
      </trkpt>
      <trkpt lat="36.158833997324109" lon="-5.458559459075332">
        <ele>12.15380859375</ele>
        <time>2011-04-25T11:50:00Z</time>
      </trkpt>
      <trkpt lat="36.160054486244917" lon="-5.459398655220866">
        <ele>8.30859375</ele>
        <time>2011-04-25T11:50:07Z</time>
      </trkpt>
      <trkpt lat="36.160441394895315" lon="-5.459544081240892">
        <ele>7.34716796875</ele>
        <time>2011-04-25T11:50:09Z</time>
      </trkpt>
      <trkpt lat="36.161627098917961" lon="-5.459541063755751">
        <ele>4.4632568359375</ele>
        <time>2011-04-25T11:50:15Z</time>
      </trkpt>
      <trkpt lat="36.163050765171647" lon="-5.459071341902018">
        <ele>1.579345703125</ele>
        <time>2011-04-25T11:50:22Z</time>
      </trkpt>
      <trkpt lat="36.165263587608933" lon="-5.458161234855652">
        <ele>0.6180419921875</ele>
        <time>2011-04-25T11:50:33Z</time>
      </trkpt>
      <trkpt lat="36.167778242379427" lon="-5.45692834071815">
        <ele>3.021240234375</ele>
        <time>2011-04-25T11:50:45Z</time>
      </trkpt>
      <trkpt lat="36.16911088116467" lon="-5.456629861146212">
        <ele>3.021240234375</ele>
        <time>2011-04-25T11:50:51Z</time>
      </trkpt>
      <trkpt lat="36.170701263472438" lon="-5.45620271936059">
        <ele>3.021240234375</ele>
        <time>2011-04-25T11:50:58Z</time>
      </trkpt>
      <trkpt lat="36.173565443605185" lon="-5.455114832147956">
        <ele>3.982666015625</ele>
        <time>2011-04-25T11:51:11Z</time>
      </trkpt>
      <trkpt lat="36.174827171489596" lon="-5.454418128356338">
        <ele>4.4632568359375</ele>
        <time>2011-04-25T11:51:17Z</time>
      </trkpt>
      <trkpt lat="36.175656225532293" lon="-5.453455466777086">
        <ele>5.424560546875</ele>
        <time>2011-04-25T11:51:22Z</time>
      </trkpt>
      <trkpt lat="36.176781496033072" lon="-5.451584039255977">
        <ele>3.501953125</ele>
        <time>2011-04-25T11:51:30Z</time>
      </trkpt>
      <trkpt lat="36.178132994100451" lon="-5.449215983971953">
        <ele>1.579345703125</ele>
        <time>2011-04-25T11:51:40Z</time>
      </trkpt>
      <trkpt lat="36.180059993639588" lon="-5.44596103951335">
        <ele>-3.7078857421875</ele>
        <time>2011-04-25T11:51:54Z</time>
      </trkpt>
      <trkpt lat="36.181751126423478" lon="-5.443110521882772">
        <ele>-5.14990234375</ele>
        <time>2011-04-25T11:52:06Z</time>
      </trkpt>
      <trkpt lat="36.183439828455448" lon="-5.440346170216799">
        <ele>-4.6693115234375</ele>
        <time>2011-04-25T11:52:18Z</time>
      </trkpt>
      <trkpt lat="36.18436686694622" lon="-5.439141942188144">
        <ele>-3.7078857421875</ele>
        <time>2011-04-25T11:52:24Z</time>
      </trkpt>
      <trkpt lat="36.186462175101042" lon="-5.437274957075715">
        <ele>1.0986328125</ele>
        <time>2011-04-25T11:52:35Z</time>
      </trkpt>
      <trkpt lat="36.18931663222611" lon="-5.434750830754638">
        <ele>2.5406494140625</ele>
        <time>2011-04-25T11:52:49Z</time>
      </trkpt>
      <trkpt lat="36.192433945834637" lon="-5.431996788829565">
        <ele>4.94384765625</ele>
        <time>2011-04-25T11:53:04Z</time>
      </trkpt>
      <trkpt lat="36.194188026711345" lon="-5.430581253021956">
        <ele>5.9052734375</ele>
        <time>2011-04-25T11:53:12Z</time>
      </trkpt>
      <trkpt lat="36.197571298107505" lon="-5.42808067984879">
        <ele>6.3858642578125</ele>
        <time>2011-04-25T11:53:27Z</time>
      </trkpt>
      <trkpt lat="36.199519755318761" lon="-5.426396420225501">
        <ele>6.3858642578125</ele>
        <time>2011-04-25T11:53:36Z</time>
      </trkpt>
      <trkpt lat="36.201484221965075" lon="-5.424335645511746">
        <ele>6.866455078125</ele>
        <time>2011-04-25T11:53:46Z</time>
      </trkpt>
      <trkpt lat="36.202785260975361" lon="-5.422880044206977">
        <ele>6.3858642578125</ele>
        <time>2011-04-25T11:53:53Z</time>
      </trkpt>
      <trkpt lat="36.203414238989353" lon="-5.421570036560297">
        <ele>7.34716796875</ele>
        <time>2011-04-25T11:53:58Z</time>
      </trkpt>
      <trkpt lat="36.20359436608851" lon="-5.42066378518939">
        <ele>8.7891845703125</ele>
        <time>2011-04-25T11:54:01Z</time>
      </trkpt>
      <trkpt lat="36.203807266429067" lon="-5.41836328804493">
        <ele>11.6732177734375</ele>
        <time>2011-04-25T11:54:09Z</time>
      </trkpt>
      <trkpt lat="36.204210268333554" lon="-5.417139027267695">
        <ele>11.1925048828125</ele>
        <time>2011-04-25T11:54:14Z</time>
      </trkpt>
      <trkpt lat="36.205080477520823" lon="-5.415523163974285">
        <ele>11.6732177734375</ele>
        <time>2011-04-25T11:54:21Z</time>
      </trkpt>
      <trkpt lat="36.205985387787223" lon="-5.413122251629829">
        <ele>12.6343994140625</ele>
        <time>2011-04-25T11:54:30Z</time>
      </trkpt>
      <trkpt lat="36.206765659153461" lon="-5.410461667925119">
        <ele>8.7891845703125</ele>
        <time>2011-04-25T11:54:39Z</time>
      </trkpt>
      <trkpt lat="36.20726739987731" lon="-5.407691281288862">
        <ele>5.424560546875</ele>
        <time>2011-04-25T11:54:48Z</time>
      </trkpt>
      <trkpt lat="36.207816749811172" lon="-5.404171217232943">
        <ele>6.866455078125</ele>
        <time>2011-04-25T11:55:00Z</time>
      </trkpt>
      <trkpt lat="36.207683980464935" lon="-5.402461560443044">
        <ele>7.827880859375</ele>
        <time>2011-04-25T11:55:06Z</time>
      </trkpt>
      <trkpt lat="36.2073421664536" lon="-5.399110056459904">
        <ele>8.7891845703125</ele>
        <time>2011-04-25T11:55:17Z</time>
      </trkpt>
      <trkpt lat="36.206918964162469" lon="-5.394183676689863">
        <ele>23.6895751953125</ele>
        <time>2011-04-25T11:55:32Z</time>
      </trkpt>
      <trkpt lat="36.207146868109703" lon="-5.392313087359071">
        <ele>28.9769287109375</ele>
        <time>2011-04-25T11:55:38Z</time>
      </trkpt>
      <trkpt lat="36.207612818107009" lon="-5.38882864639163">
        <ele>39.55126953125</ele>
        <time>2011-04-25T11:55:50Z</time>
      </trkpt>
      <trkpt lat="36.207602340728045" lon="-5.388026665896177">
        <ele>41.9547119140625</ele>
        <time>2011-04-25T11:55:53Z</time>
      </trkpt>
      <trkpt lat="36.207154160365462" lon="-5.386608196422458">
        <ele>45.3192138671875</ele>
        <time>2011-04-25T11:55:59Z</time>
      </trkpt>
      <trkpt lat="36.206566840410233" lon="-5.384908765554428">
        <ele>46.2806396484375</ele>
        <time>2011-04-25T11:56:06Z</time>
      </trkpt>
      <trkpt lat="36.206552423536777" lon="-5.383839653804898">
        <ele>48.203369140625</ele>
        <time>2011-04-25T11:56:10Z</time>
      </trkpt>
      <trkpt lat="36.206948217004538" lon="-5.382565939798951">
        <ele>51.087158203125</ele>
        <time>2011-04-25T11:56:15Z</time>
      </trkpt>
      <trkpt lat="36.207553222775459" lon="-5.38174593821168">
        <ele>54.932373046875</ele>
        <time>2011-04-25T11:56:19Z</time>
      </trkpt>
      <trkpt lat="36.20833751745522" lon="-5.381229277700186">
        <ele>59.2584228515625</ele>
        <time>2011-04-25T11:56:23Z</time>
      </trkpt>
      <trkpt lat="36.211049817502499" lon="-5.380163183435798">
        <ele>68.87158203125</ele>
        <time>2011-04-25T11:56:35Z</time>
      </trkpt>
      <trkpt lat="36.214061519131064" lon="-5.378980161622167">
        <ele>81.849365234375</ele>
        <time>2011-04-25T11:56:47Z</time>
      </trkpt>
      <trkpt lat="36.217095768079162" lon="-5.377585077658296">
        <ele>95.3077392578125</ele>
        <time>2011-04-25T11:56:59Z</time>
      </trkpt>
      <trkpt lat="36.218530498445034" lon="-5.37642527371645">
        <ele>96.269287109375</ele>
        <time>2011-04-25T11:57:05Z</time>
      </trkpt>
      <trkpt lat="36.219721734523773" lon="-5.374963469803333">
        <ele>93.8658447265625</ele>
        <time>2011-04-25T11:57:11Z</time>
      </trkpt>
      <trkpt lat="36.221089325845242" lon="-5.372862964868546">
        <ele>91.4625244140625</ele>
        <time>2011-04-25T11:57:19Z</time>
      </trkpt>
      <trkpt lat="36.222431436181068" lon="-5.371188092976809">
        <ele>90.5013427734375</ele>
        <time>2011-04-25T11:57:26Z</time>
      </trkpt>
      <trkpt lat="36.224386934190989" lon="-5.368905952200294">
        <ele>99.153076171875</ele>
        <time>2011-04-25T11:57:36Z</time>
      </trkpt>
      <trkpt lat="36.226616436615586" lon="-5.366191221401095">
        <ele>115.49560546875</ele>
        <time>2011-04-25T11:57:48Z</time>
      </trkpt>
      <trkpt lat="36.227312218397856" lon="-5.364757077768445">
        <ele>121.744140625</ele>
        <time>2011-04-25T11:57:53Z</time>
      </trkpt>
      <trkpt lat="36.2276691198349" lon="-5.363083882257342">
        <ele>125.58935546875</ele>
        <time>2011-04-25T11:57:58Z</time>
      </trkpt>
      <trkpt lat="36.227721758186817" lon="-5.360962422564626">
        <ele>128.9541015625</ele>
        <time>2011-04-25T11:58:04Z</time>
      </trkpt>
      <trkpt lat="36.227923342958093" lon="-5.359266763553023">
        <ele>131.3572998046875</ele>
        <time>2011-04-25T11:58:09Z</time>
      </trkpt>
      <trkpt lat="36.228434471413493" lon="-5.357756763696671">
        <ele>134.721923828125</ele>
        <time>2011-04-25T11:58:14Z</time>
      </trkpt>
      <trkpt lat="36.229797620326281" lon="-5.354875484481454">
        <ele>139.5284423828125</ele>
        <time>2011-04-25T11:58:24Z</time>
      </trkpt>
      <trkpt lat="36.232173973694444" lon="-5.350016159936786">
        <ele>149.1416015625</ele>
        <time>2011-04-25T11:58:41Z</time>
      </trkpt>
      <trkpt lat="36.233232943341136" lon="-5.348463328555226">
        <ele>152.50634765625</ele>
        <time>2011-04-25T11:58:47Z</time>
      </trkpt>
      <trkpt lat="36.235621618106961" lon="-5.345679530873895">
        <ele>158.274169921875</ele>
        <time>2011-04-25T11:58:59Z</time>
      </trkpt>
      <trkpt lat="36.237902166321874" lon="-5.343277947977185">
        <ele>157.7935791015625</ele>
        <time>2011-04-25T11:59:10Z</time>
      </trkpt>
      <trkpt lat="36.239344859495759" lon="-5.342306569218636">
        <ele>153.4676513671875</ele>
        <time>2011-04-25T11:59:16Z</time>
      </trkpt>
      <trkpt lat="36.241652397438884" lon="-5.341120781376958">
        <ele>142.89306640625</ele>
        <time>2011-04-25T11:59:25Z</time>
      </trkpt>
      <trkpt lat="36.243813838809729" lon="-5.339646572247148">
        <ele>132.318603515625</ele>
        <time>2011-04-25T11:59:34Z</time>
      </trkpt>
      <trkpt lat="36.246221540495753" lon="-5.338080916553736">
        <ele>121.744140625</ele>
        <time>2011-04-25T11:59:44Z</time>
      </trkpt>
      <trkpt lat="36.247582845389843" lon="-5.337763745337725">
        <ele>116.456787109375</ele>
        <time>2011-04-25T11:59:49Z</time>
      </trkpt>
      <trkpt lat="36.249005841091275" lon="-5.337893664836884">
        <ele>110.208251953125</ele>
        <time>2011-04-25T11:59:54Z</time>
      </trkpt>
      <trkpt lat="36.250327080488205" lon="-5.338445277884603">
        <ele>103.959716796875</ele>
        <time>2011-04-25T11:59:59Z</time>
      </trkpt>
      <trkpt lat="36.252113683149219" lon="-5.339265866205096">
        <ele>99.153076171875</ele>
        <time>2011-04-25T12:00:06Z</time>
      </trkpt>
      <trkpt lat="36.253370381891727" lon="-5.33932177349925">
        <ele>102.037109375</ele>
        <time>2011-04-25T12:00:11Z</time>
      </trkpt>
      <trkpt lat="36.254532784223557" lon="-5.338949030265212">
        <ele>104.9210205078125</ele>
        <time>2011-04-25T12:00:16Z</time>
      </trkpt>
      <trkpt lat="36.255561746656895" lon="-5.338208070024848">
        <ele>105.4017333984375</ele>
        <time>2011-04-25T12:00:21Z</time>
      </trkpt>
      <trkpt lat="36.256415527313948" lon="-5.337118757888675">
        <ele>102.037109375</ele>
        <time>2011-04-25T12:00:26Z</time>
      </trkpt>
      <trkpt lat="36.257639620453119" lon="-5.334923034533858">
        <ele>92.4239501953125</ele>
        <time>2011-04-25T12:00:35Z</time>
      </trkpt>
      <trkpt lat="36.259831739589572" lon="-5.330940373241901">
        <ele>74.1588134765625</ele>
        <time>2011-04-25T12:00:52Z</time>
      </trkpt>
      <trkpt lat="36.260366337373853" lon="-5.329516874626279">
        <ele>74.6395263671875</ele>
        <time>2011-04-25T12:00:58Z</time>
      </trkpt>
      <trkpt lat="36.26053866930306" lon="-5.328835174441338">
        <ele>77.5234375</ele>
        <time>2011-04-25T12:01:02Z</time>
      </trkpt>
      <trkpt lat="36.260729525238276" lon="-5.328485397621989">
        <ele>79.9266357421875</ele>
        <time>2011-04-25T12:01:10Z</time>
      </trkpt>
      <trkpt lat="36.261209221556783" lon="-5.327825322747231">
        <ele>76.5621337890625</ele>
        <time>2011-04-25T12:01:16Z</time>
      </trkpt>
      <trkpt lat="36.26154818572104" lon="-5.327336573973298">
        <ele>72.7169189453125</ele>
        <time>2011-04-25T12:01:19Z</time>
      </trkpt>
      <trkpt lat="36.262159897014499" lon="-5.32572079449892">
        <ele>66.46826171875</ele>
        <time>2011-04-25T12:01:26Z</time>
      </trkpt>
      <trkpt lat="36.26258309930563" lon="-5.323976268991828">
        <ele>57.8165283203125</ele>
        <time>2011-04-25T12:01:32Z</time>
      </trkpt>
      <trkpt lat="36.262882836163044" lon="-5.321940556168556">
        <ele>49.16455078125</ele>
        <time>2011-04-25T12:01:38Z</time>
      </trkpt>
      <trkpt lat="36.263310480862856" lon="-5.319848265498877">
        <ele>40.0321044921875</ele>
        <time>2011-04-25T12:01:44Z</time>
      </trkpt>
      <trkpt lat="36.263890927657485" lon="-5.318600535392761">
        <ele>33.783447265625</ele>
        <time>2011-04-25T12:01:48Z</time>
      </trkpt>
      <trkpt lat="36.264741355553269" lon="-5.317535195499659">
        <ele>29.45751953125</ele>
        <time>2011-04-25T12:01:52Z</time>
      </trkpt>
      <trkpt lat="36.265824716538191" lon="-5.316766491159797">
        <ele>26.5736083984375</ele>
        <time>2011-04-25T12:01:56Z</time>
      </trkpt>
      <trkpt lat="36.26701595261693" lon="-5.316407326608896">
        <ele>26.5736083984375</ele>
        <time>2011-04-25T12:02:00Z</time>
      </trkpt>
      <trkpt lat="36.268178690224886" lon="-5.316431382670999">
        <ele>30.8995361328125</ele>
        <time>2011-04-25T12:02:04Z</time>
      </trkpt>
      <trkpt lat="36.269532032310963" lon="-5.31686045229435">
        <ele>36.66748046875</ele>
        <time>2011-04-25T12:02:09Z</time>
      </trkpt>
      <trkpt lat="36.271377392113209" lon="-5.317352470010519">
        <ele>46.76123046875</ele>
        <time>2011-04-25T12:02:16Z</time>
      </trkpt>
      <trkpt lat="36.27298797480762" lon="-5.31734517775476">
        <ele>57.3358154296875</ele>
        <time>2011-04-25T12:02:22Z</time>
      </trkpt>
      <trkpt lat="36.274584559723735" lon="-5.31692935153842">
        <ele>66.948974609375</ele>
        <time>2011-04-25T12:02:28Z</time>
      </trkpt>
      <trkpt lat="36.276122555136681" lon="-5.316106919199228">
        <ele>70.794189453125</ele>
        <time>2011-04-25T12:02:34Z</time>
      </trkpt>
      <trkpt lat="36.278811134397984" lon="-5.314384521916509">
        <ele>65.9876708984375</ele>
        <time>2011-04-25T12:02:45Z</time>
      </trkpt>
      <trkpt lat="36.280576279386878" lon="-5.313580194488168">
        <ele>60.2197265625</ele>
        <time>2011-04-25T12:02:52Z</time>
      </trkpt>
      <trkpt lat="36.284652817994356" lon="-5.312072122469544">
        <ele>46.76123046875</ele>
        <time>2011-04-25T12:03:08Z</time>
      </trkpt>
      <trkpt lat="36.286104982718825" lon="-5.311226220801473">
        <ele>41.4739990234375</ele>
        <time>2011-04-25T12:03:14Z</time>
      </trkpt>
      <trkpt lat="36.28744943998754" lon="-5.310046132653952">
        <ele>34.26416015625</ele>
        <time>2011-04-25T12:03:20Z</time>
      </trkpt>
      <trkpt lat="36.288597593083978" lon="-5.308538982644677">
        <ele>28.4962158203125</ele>
        <time>2011-04-25T12:03:26Z</time>
      </trkpt>
      <trkpt lat="36.289484230801463" lon="-5.306889340281487">
        <ele>26.5736083984375</ele>
        <time>2011-04-25T12:03:32Z</time>
      </trkpt>
      <trkpt lat="36.290453681722283" lon="-5.304476693272591">
        <ele>26.0928955078125</ele>
        <time>2011-04-25T12:03:40Z</time>
      </trkpt>
      <trkpt lat="36.291946917772293" lon="-5.30049679800868">
        <ele>20.324951171875</ele>
        <time>2011-04-25T12:03:53Z</time>
      </trkpt>
      <trkpt lat="36.292776558548212" lon="-5.297937467694283">
        <ele>15.0377197265625</ele>
        <time>2011-04-25T12:04:01Z</time>
      </trkpt>
      <trkpt lat="36.293958658352494" lon="-5.293705193325877">
        <ele>10.7117919921875</ele>
        <time>2011-04-25T12:04:14Z</time>
      </trkpt>
      <trkpt lat="36.295215943828225" lon="-5.289556821808219">
        <ele>11.1925048828125</ele>
        <time>2011-04-25T12:04:27Z</time>
      </trkpt>
      <trkpt lat="36.296043070033193" lon="-5.286768330261111">
        <ele>14.076416015625</ele>
        <time>2011-04-25T12:04:36Z</time>
      </trkpt>
      <trkpt lat="36.296926438808441" lon="-5.28443799354136">
        <ele>19.36376953125</ele>
        <time>2011-04-25T12:04:44Z</time>
      </trkpt>
      <trkpt lat="36.298036957159638" lon="-5.282547455281019">
        <ele>21.286376953125</ele>
        <time>2011-04-25T12:04:51Z</time>
      </trkpt>
      <trkpt lat="36.299282927066088" lon="-5.28109579347074">
        <ele>21.286376953125</ele>
        <time>2011-04-25T12:04:57Z</time>
      </trkpt>
      <trkpt lat="36.300771720707417" lon="-5.279883937910199">
        <ele>20.8056640625</ele>
        <time>2011-04-25T12:05:03Z</time>
      </trkpt>
      <trkpt lat="36.302416585385799" lon="-5.279028061777353">
        <ele>23.208984375</ele>
        <time>2011-04-25T12:05:09Z</time>
      </trkpt>
      <trkpt lat="36.304106460884213" lon="-5.278542246669531">
        <ele>28.0155029296875</ele>
        <time>2011-04-25T12:05:15Z</time>
      </trkpt>
      <trkpt lat="36.307769184932113" lon="-5.277865743264556">
        <ele>41.4739990234375</ele>
        <time>2011-04-25T12:05:28Z</time>
      </trkpt>
      <trkpt lat="36.310540661215782" lon="-5.276975249871612">
        <ele>53.97119140625</ele>
        <time>2011-04-25T12:05:38Z</time>
      </trkpt>
      <trkpt lat="36.31296462379396" lon="-5.27581955306232">
        <ele>66.46826171875</ele>
        <time>2011-04-25T12:05:47Z</time>
      </trkpt>
      <trkpt lat="36.315274257212877" lon="-5.274361772462726">
        <ele>81.3687744140625</ele>
        <time>2011-04-25T12:05:56Z</time>
      </trkpt>
      <trkpt lat="36.317348778247833" lon="-5.272696036845446">
        <ele>97.23046875</ele>
        <time>2011-04-25T12:06:05Z</time>
      </trkpt>
      <trkpt lat="36.319411396980286" lon="-5.270623024553061">
        <ele>114.5341796875</ele>
        <time>2011-04-25T12:06:15Z</time>
      </trkpt>
      <trkpt lat="36.321427579969168" lon="-5.26813929900527">
        <ele>133.2799072265625</ele>
        <time>2011-04-25T12:06:26Z</time>
      </trkpt>
      <trkpt lat="36.323133883997798" lon="-5.266229985281825">
        <ele>145.777099609375</ele>
        <time>2011-04-25T12:06:35Z</time>
      </trkpt>
      <trkpt lat="36.324497871100903" lon="-5.265268916264176">
        <ele>151.544921875</ele>
        <time>2011-04-25T12:06:41Z</time>
      </trkpt>
      <trkpt lat="36.326039973646402" lon="-5.264642452821136">
        <ele>154.9095458984375</ele>
        <time>2011-04-25T12:06:47Z</time>
      </trkpt>
      <trkpt lat="36.327656591311097" lon="-5.264398790895939">
        <ele>157.3128662109375</ele>
        <time>2011-04-25T12:06:53Z</time>
      </trkpt>
      <trkpt lat="36.32914898917079" lon="-5.264478418976069">
        <ele>156.8321533203125</ele>
        <time>2011-04-25T12:06:59Z</time>
      </trkpt>
      <trkpt lat="36.330505767837167" lon="-5.264836829155684">
        <ele>154.428955078125</ele>
        <time>2011-04-25T12:07:05Z</time>
      </trkpt>
      <trkpt lat="36.331502627581358" lon="-5.26531501673162">
        <ele>152.50634765625</ele>
        <time>2011-04-25T12:07:11Z</time>
      </trkpt>
      <trkpt lat="36.332278624176979" lon="-5.265731262043119">
        <ele>149.622314453125</ele>
        <time>2011-04-25T12:07:17Z</time>
      </trkpt>
      <trkpt lat="36.332855382934213" lon="-5.266047343611717">
        <ele>147.69970703125</ele>
        <time>2011-04-25T12:07:23Z</time>
      </trkpt>
      <trkpt lat="36.333031235262752" lon="-5.266229063272476">
        <ele>146.7384033203125</ele>
        <time>2011-04-25T12:07:28Z</time>
      </trkpt>
      <trkpt lat="36.333342958241701" lon="-5.266419583931565">
        <ele>145.777099609375</ele>
        <time>2011-04-25T13:19:08Z</time>
      </trkpt>
      <trkpt lat="36.333583099767566" lon="-5.266677746549249">
        <ele>144.8157958984375</ele>
        <time>2011-04-25T13:19:14Z</time>
      </trkpt>
      <trkpt lat="36.333764651790261" lon="-5.267070019617677">
        <ele>143.8543701171875</ele>
        <time>2011-04-25T13:19:20Z</time>
      </trkpt>
      <trkpt lat="36.33395123295486" lon="-5.267294822260737">
        <ele>142.89306640625</ele>
        <time>2011-04-25T13:19:24Z</time>
      </trkpt>
      <trkpt lat="36.334635782986879" lon="-5.267738476395607">
        <ele>140.970458984375</ele>
        <time>2011-04-25T13:19:32Z</time>
      </trkpt>
      <trkpt lat="36.33549484424293" lon="-5.268207779154182">
        <ele>139.0478515625</ele>
        <time>2011-04-25T13:19:38Z</time>
      </trkpt>
      <trkpt lat="36.336732683703303" lon="-5.268632154911757">
        <ele>136.1639404296875</ele>
        <time>2011-04-25T13:19:45Z</time>
      </trkpt>
      <trkpt lat="36.338248634710908" lon="-5.268772635608912">
        <ele>133.760498046875</ele>
        <time>2011-04-25T13:19:53Z</time>
      </trkpt>
      <trkpt lat="36.340203965082765" lon="-5.268574738875032">
        <ele>134.2412109375</ele>
        <time>2011-04-25T13:20:03Z</time>
      </trkpt>
      <trkpt lat="36.341868694871664" lon="-5.268603572621942">
        <ele>133.760498046875</ele>
        <time>2011-04-25T13:20:11Z</time>
      </trkpt>
      <trkpt lat="36.343389842659235" lon="-5.268971957266331">
        <ele>131.3572998046875</ele>
        <time>2011-04-25T13:20:18Z</time>
      </trkpt>
      <trkpt lat="36.344897663220763" lon="-5.269689448177815">
        <ele>127.511962890625</ele>
        <time>2011-04-25T13:20:25Z</time>
      </trkpt>
      <trkpt lat="36.347434362396598" lon="-5.271049831062555">
        <ele>118.37939453125</ele>
        <time>2011-04-25T13:20:37Z</time>
      </trkpt>
      <trkpt lat="36.34884805418551" lon="-5.271401787176728">
        <ele>115.014892578125</ele>
        <time>2011-04-25T13:20:43Z</time>
      </trkpt>
      <trkpt lat="36.350635997951031" lon="-5.271419975906611">
        <ele>111.6502685546875</ele>
        <time>2011-04-25T13:20:50Z</time>
      </trkpt>
      <trkpt lat="36.352238282561302" lon="-5.271062152460218">
        <ele>108.7662353515625</ele>
        <time>2011-04-25T13:20:56Z</time>
      </trkpt>
      <trkpt lat="36.353989178314805" lon="-5.270250281319022">
        <ele>106.363037109375</ele>
        <time>2011-04-25T13:21:03Z</time>
      </trkpt>
      <trkpt lat="36.356391431763768" lon="-5.269049825146794">
        <ele>102.5177001953125</ele>
        <time>2011-04-25T13:21:13Z</time>
      </trkpt>
      <trkpt lat="36.358515992760658" lon="-5.268346080556512">
        <ele>101.556396484375</ele>
        <time>2011-04-25T13:21:21Z</time>
      </trkpt>
      <trkpt lat="36.360747842118144" lon="-5.267955651506782">
        <ele>105.4017333984375</ele>
        <time>2011-04-25T13:21:29Z</time>
      </trkpt>
      <trkpt lat="36.3630002271384" lon="-5.267932433634996">
        <ele>113.572998046875</ele>
        <time>2011-04-25T13:21:37Z</time>
      </trkpt>
      <trkpt lat="36.365470038726926" lon="-5.268266871571541">
        <ele>123.1861572265625</ele>
        <time>2011-04-25T13:21:46Z</time>
      </trkpt>
      <trkpt lat="36.36845969595015" lon="-5.268652942031622">
        <ele>133.760498046875</ele>
        <time>2011-04-25T13:21:57Z</time>
      </trkpt>
      <trkpt lat="36.370358364656568" lon="-5.268432162702084">
        <ele>139.5284423828125</ele>
        <time>2011-04-25T13:22:04Z</time>
      </trkpt>
      <trkpt lat="36.372037092223763" lon="-5.267911562696099">
        <ele>142.4124755859375</ele>
        <time>2011-04-25T13:22:11Z</time>
      </trkpt>
      <trkpt lat="36.373472241684794" lon="-5.267166579142213">
        <ele>142.89306640625</ele>
        <time>2011-04-25T13:22:18Z</time>
      </trkpt>
      <trkpt lat="36.374964555725455" lon="-5.266063688322902">
        <ele>140.0091552734375</ele>
        <time>2011-04-25T13:22:26Z</time>
      </trkpt>
      <trkpt lat="36.375602837651968" lon="-5.265486175194383">
        <ele>138.0865478515625</ele>
        <time>2011-04-25T13:22:31Z</time>
      </trkpt>
      <trkpt lat="36.376136848703027" lon="-5.265012178570032">
        <ele>137.125244140625</ele>
        <time>2011-04-25T13:22:37Z</time>
      </trkpt>
      <trkpt lat="36.376301888376474" lon="-5.264838840812445">
        <ele>136.6446533203125</ele>
        <time>2011-04-25T13:22:42Z</time>
      </trkpt>
      <trkpt lat="36.376472963020205" lon="-5.264746220782399">
        <ele>123.1861572265625</ele>
        <time>2011-04-25T13:23:33Z</time>
      </trkpt>
      <trkpt lat="36.376901948824525" lon="-5.264357971027494">
        <ele>126.0699462890625</ele>
        <time>2011-04-25T13:23:40Z</time>
      </trkpt>
      <trkpt lat="36.377705940976739" lon="-5.263754641637206">
        <ele>127.0313720703125</ele>
        <time>2011-04-25T13:23:47Z</time>
      </trkpt>
      <trkpt lat="36.378966998308897" lon="-5.263009993359447">
        <ele>125.1087646484375</ele>
        <time>2011-04-25T13:23:56Z</time>
      </trkpt>
      <trkpt lat="36.380704985931516" lon="-5.262319575995207">
        <ele>118.860107421875</ele>
        <time>2011-04-25T13:24:07Z</time>
      </trkpt>
      <trkpt lat="36.382260248064995" lon="-5.261972984299064">
        <ele>111.6502685546875</ele>
        <time>2011-04-25T13:24:16Z</time>
      </trkpt>
      <trkpt lat="36.384075935930014" lon="-5.26184817776084">
        <ele>102.037109375</ele>
        <time>2011-04-25T13:24:26Z</time>
      </trkpt>
      <trkpt lat="36.385998241603374" lon="-5.261639133095741">
        <ele>89.059326171875</ele>
        <time>2011-04-25T13:24:36Z</time>
      </trkpt>
      <trkpt lat="36.387425763532519" lon="-5.261013926938176">
        <ele>79.9266357421875</ele>
        <time>2011-04-25T13:24:44Z</time>
      </trkpt>
      <trkpt lat="36.388580119237304" lon="-5.260092755779624">
        <ele>73.67822265625</ele>
        <time>2011-04-25T13:24:51Z</time>
      </trkpt>
      <trkpt lat="36.38957915827632" lon="-5.258814683184028">
        <ele>70.794189453125</ele>
        <time>2011-04-25T13:24:58Z</time>
      </trkpt>
      <trkpt lat="36.390340570360422" lon="-5.257216338068247">
        <ele>69.8328857421875</ele>
        <time>2011-04-25T13:25:05Z</time>
      </trkpt>
      <trkpt lat="36.391241541132331" lon="-5.254844427108765">
        <ele>72.2362060546875</ele>
        <time>2011-04-25T13:25:15Z</time>
      </trkpt>
      <trkpt lat="36.392201436683536" lon="-5.253372481092811">
        <ele>73.67822265625</ele>
        <time>2011-04-25T13:25:22Z</time>
      </trkpt>
      <trkpt lat="36.393279265612364" lon="-5.252334969118238">
        <ele>73.1976318359375</ele>
        <time>2011-04-25T13:25:28Z</time>
      </trkpt>
      <trkpt lat="36.394542921334505" lon="-5.251592919230461">
        <ele>70.794189453125</ele>
        <time>2011-04-25T13:25:34Z</time>
      </trkpt>
      <trkpt lat="36.396114444360137" lon="-5.251108948141336">
        <ele>66.948974609375</ele>
        <time>2011-04-25T13:25:41Z</time>
      </trkpt>
      <trkpt lat="36.397794764488935" lon="-5.250419788062573">
        <ele>65.507080078125</ele>
        <time>2011-04-25T13:25:49Z</time>
      </trkpt>
      <trkpt lat="36.39911625534296" lon="-5.249359142035246">
        <ele>68.390869140625</ele>
        <time>2011-04-25T13:25:56Z</time>
      </trkpt>
      <trkpt lat="36.400121245533228" lon="-5.248051229864359">
        <ele>74.6395263671875</ele>
        <time>2011-04-25T13:26:02Z</time>
      </trkpt>
      <trkpt lat="36.400886429473758" lon="-5.246411645784974">
        <ele>81.849365234375</ele>
        <time>2011-04-25T13:26:08Z</time>
      </trkpt>
      <trkpt lat="36.401336034759879" lon="-5.244588498026133">
        <ele>89.059326171875</ele>
        <time>2011-04-25T13:26:14Z</time>
      </trkpt>
      <trkpt lat="36.401454890146852" lon="-5.242661498486996">
        <ele>96.269287109375</ele>
        <time>2011-04-25T13:26:20Z</time>
      </trkpt>
      <trkpt lat="36.401717746630311" lon="-5.232724836096168">
        <ele>134.2412109375</ele>
        <time>2011-04-25T13:26:51Z</time>
      </trkpt>
      <trkpt lat="36.401726379990578" lon="-5.232404563575983">
        <ele>182.787841796875</ele>
        <time>2011-04-25T13:26:53Z</time>
      </trkpt>
      <trkpt lat="36.406905390322208" lon="-5.228900341317058">
        <ele>90.98193359375</ele>
        <time>2011-04-25T13:27:06Z</time>
      </trkpt>
      <trkpt lat="36.409348463639617" lon="-5.225335266441107">
        <ele>89.5399169921875</ele>
        <time>2011-04-25T13:27:19Z</time>
      </trkpt>
      <trkpt lat="36.410881681367755" lon="-5.223698867484927">
        <ele>93.8658447265625</ele>
        <time>2011-04-25T13:27:26Z</time>
      </trkpt>
      <trkpt lat="36.412594188004732" lon="-5.22233035415411">
        <ele>97.23046875</ele>
        <time>2011-04-25T13:27:33Z</time>
      </trkpt>
      <trkpt lat="36.414444241672754" lon="-5.221326788887382">
        <ele>100.114501953125</ele>
        <time>2011-04-25T13:27:40Z</time>
      </trkpt>
      <trkpt lat="36.416382053866982" lon="-5.220673587173224">
        <ele>102.998291015625</ele>
        <time>2011-04-25T13:27:47Z</time>
      </trkpt>
      <trkpt lat="36.418857648968697" lon="-5.219796169549227">
        <ele>107.8050537109375</ele>
        <time>2011-04-25T13:27:56Z</time>
      </trkpt>
      <trkpt lat="36.420108061283827" lon="-5.218899641185999">
        <ele>110.208251953125</ele>
        <time>2011-04-25T13:28:01Z</time>
      </trkpt>
      <trkpt lat="36.4214011374861" lon="-5.217492822557688">
        <ele>113.09228515625</ele>
        <time>2011-04-25T13:28:07Z</time>
      </trkpt>
      <trkpt lat="36.422660266980529" lon="-5.215567834675312">
        <ele>115.9761962890625</ele>
        <time>2011-04-25T13:28:14Z</time>
      </trkpt>
      <trkpt lat="36.423698784783483" lon="-5.213400945067406">
        <ele>116.9375</ele>
        <time>2011-04-25T13:28:21Z</time>
      </trkpt>
      <trkpt lat="36.424899408593774" lon="-5.210322858765721">
        <ele>118.37939453125</ele>
        <time>2011-04-25T13:28:31Z</time>
      </trkpt>
      <trkpt lat="36.426403289660811" lon="-5.204889960587025">
        <ele>111.6502685546875</ele>
        <time>2011-04-25T13:28:48Z</time>
      </trkpt>
      <trkpt lat="36.42749922350049" lon="-5.203102016821504">
        <ele>107.8050537109375</ele>
        <time>2011-04-25T13:28:54Z</time>
      </trkpt>
      <trkpt lat="36.43017933703959" lon="-5.199506599456072">
        <ele>102.037109375</ele>
        <time>2011-04-25T13:29:07Z</time>
      </trkpt>
      <trkpt lat="36.434102570638061" lon="-5.194256426766515">
        <ele>141.9317626953125</ele>
        <time>2011-04-25T13:29:27Z</time>
      </trkpt>
      <trkpt lat="36.43258829601109" lon="-5.19173732958734">
        <ele>90.5013427734375</ele>
        <time>2011-04-25T13:29:33Z</time>
      </trkpt>
      <trkpt lat="36.432628780603409" lon="-5.188531670719385">
        <ele>75.1202392578125</ele>
        <time>2011-04-25T13:29:42Z</time>
      </trkpt>
      <trkpt lat="36.432857774198055" lon="-5.184968020766974">
        <ele>60.2197265625</ele>
        <time>2011-04-25T13:29:52Z</time>
      </trkpt>
      <trkpt lat="36.433411985635757" lon="-5.181826734915376">
        <ele>58.297119140625</ele>
        <time>2011-04-25T13:30:01Z</time>
      </trkpt>
      <trkpt lat="36.4338743314147" lon="-5.178796844556928">
        <ele>65.507080078125</ele>
        <time>2011-04-25T13:30:10Z</time>
      </trkpt>
      <trkpt lat="36.433820938691497" lon="-5.176745792850852">
        <ele>68.87158203125</ele>
        <time>2011-04-25T13:30:16Z</time>
      </trkpt>
      <trkpt lat="36.43338818103075" lon="-5.173912374302745">
        <ele>69.8328857421875</ele>
        <time>2011-04-25T13:30:24Z</time>
      </trkpt>
      <trkpt lat="36.433069920167327" lon="-5.170612083747983">
        <ele>64.545654296875</ele>
        <time>2011-04-25T13:30:33Z</time>
      </trkpt>
      <trkpt lat="36.433046199381351" lon="-5.16725018620491">
        <ele>50.1259765625</ele>
        <time>2011-04-25T13:30:42Z</time>
      </trkpt>
      <trkpt lat="36.433055838569999" lon="-5.163239361718297">
        <ele>35.7060546875</ele>
        <time>2011-04-25T13:30:53Z</time>
      </trkpt>
      <trkpt lat="36.43329044803977" lon="-5.160695873200893">
        <ele>36.66748046875</ele>
        <time>2011-04-25T13:31:00Z</time>
      </trkpt>
      <trkpt lat="36.433794284239411" lon="-5.158312898129225">
        <ele>40.5128173828125</ele>
        <time>2011-04-25T13:31:07Z</time>
      </trkpt>
      <trkpt lat="36.435189284384251" lon="-5.152931464836001">
        <ele>50.1259765625</ele>
        <time>2011-04-25T13:31:23Z</time>
      </trkpt>
      <trkpt lat="36.435628579929471" lon="-5.150436675176024">
        <ele>53.97119140625</ele>
        <time>2011-04-25T13:31:30Z</time>
      </trkpt>
      <trkpt lat="36.435724133625627" lon="-5.147893941029906">
        <ele>54.932373046875</ele>
        <time>2011-04-25T13:31:37Z</time>
      </trkpt>
      <trkpt lat="36.435476448386908" lon="-5.144264996051788">
        <ele>49.645263671875</ele>
        <time>2011-04-25T13:31:47Z</time>
      </trkpt>
      <trkpt lat="36.435304032638669" lon="-5.141107952222228">
        <ele>42.916015625</ele>
        <time>2011-04-25T13:31:56Z</time>
      </trkpt>
      <trkpt lat="36.435548029839993" lon="-5.139368791133165">
        <ele>38.590087890625</ele>
        <time>2011-04-25T13:32:01Z</time>
      </trkpt>
      <trkpt lat="36.43605949357152" lon="-5.13774236664176">
        <ele>33.783447265625</ele>
        <time>2011-04-25T13:32:06Z</time>
      </trkpt>
      <trkpt lat="36.436817888170481" lon="-5.136234043166041">
        <ele>31.380126953125</ele>
        <time>2011-04-25T13:32:11Z</time>
      </trkpt>
      <trkpt lat="36.437950450927019" lon="-5.13463418930769">
        <ele>31.8607177734375</ele>
        <time>2011-04-25T13:32:17Z</time>
      </trkpt>
      <trkpt lat="36.43928149715066" lon="-5.133275734260678">
        <ele>35.2254638671875</ele>
        <time>2011-04-25T13:32:23Z</time>
      </trkpt>
      <trkpt lat="36.440761657431722" lon="-5.132231349125505">
        <ele>38.109375</ele>
        <time>2011-04-25T13:32:29Z</time>
      </trkpt>
      <trkpt lat="36.442358996719122" lon="-5.131506565958262">
        <ele>41.4739990234375</ele>
        <time>2011-04-25T13:32:35Z</time>
      </trkpt>
      <trkpt lat="36.445409255102277" lon="-5.130592435598373">
        <ele>48.203369140625</ele>
        <time>2011-04-25T13:32:46Z</time>
      </trkpt>
      <trkpt lat="36.447583269327879" lon="-5.129695069044828">
        <ele>52.048583984375</ele>
        <time>2011-04-25T13:32:54Z</time>
      </trkpt>
      <trkpt lat="36.44994243979454" lon="-5.128300152719021">
        <ele>54.932373046875</ele>
        <time>2011-04-25T13:33:03Z</time>
      </trkpt>
      <trkpt lat="36.45187203772366" lon="-5.126754445955157">
        <ele>58.297119140625</ele>
        <time>2011-04-25T13:33:11Z</time>
      </trkpt>
      <trkpt lat="36.453646067529917" lon="-5.124931717291474">
        <ele>63.1036376953125</ele>
        <time>2011-04-25T13:33:19Z</time>
      </trkpt>
      <trkpt lat="36.455469131469727" lon="-5.122553436085582">
        <ele>70.794189453125</ele>
        <time>2011-04-25T13:33:28Z</time>
      </trkpt>
      <trkpt lat="36.457616072148085" lon="-5.119660254567862">
        <ele>80.407470703125</ele>
        <time>2011-04-25T13:33:39Z</time>
      </trkpt>
      <trkpt lat="36.459193043410778" lon="-5.118112452328205">
        <ele>85.2139892578125</ele>
        <time>2011-04-25T13:33:46Z</time>
      </trkpt>
      <trkpt lat="36.460942346602678" lon="-5.116867739707232">
        <ele>87.6171875</ele>
        <time>2011-04-25T13:33:53Z</time>
      </trkpt>
      <trkpt lat="36.462814444676042" lon="-5.115964841097593">
        <ele>86.656005859375</ele>
        <time>2011-04-25T13:34:00Z</time>
      </trkpt>
      <trkpt lat="36.465055597946048" lon="-5.115305269137025">
        <ele>84.252685546875</ele>
        <time>2011-04-25T13:34:08Z</time>
      </trkpt>
      <trkpt lat="36.468438450247049" lon="-5.114452997222543">
        <ele>82.330078125</ele>
        <time>2011-04-25T13:34:20Z</time>
      </trkpt>
      <trkpt lat="36.469982899725437" lon="-5.11356744915247">
        <ele>81.3687744140625</ele>
        <time>2011-04-25T13:34:26Z</time>
      </trkpt>
      <trkpt lat="36.471376223489642" lon="-5.112267164513469">
        <ele>82.810791015625</ele>
        <time>2011-04-25T13:34:32Z</time>
      </trkpt>
      <trkpt lat="36.472521862015128" lon="-5.11062883771956">
        <ele>87.6171875</ele>
        <time>2011-04-25T13:34:38Z</time>
      </trkpt>
      <trkpt lat="36.473382264375687" lon="-5.10879747569561">
        <ele>96.7498779296875</ele>
        <time>2011-04-25T13:34:44Z</time>
      </trkpt>
      <trkpt lat="36.473911162465811" lon="-5.106835355982184">
        <ele>104.9210205078125</ele>
        <time>2011-04-25T13:34:50Z</time>
      </trkpt>
      <trkpt lat="36.474120961502194" lon="-5.104801822453737">
        <ele>112.1309814453125</ele>
        <time>2011-04-25T13:34:56Z</time>
      </trkpt>
      <trkpt lat="36.474070083349943" lon="-5.102762589231134">
        <ele>119.8214111328125</ele>
        <time>2011-04-25T13:35:02Z</time>
      </trkpt>
      <trkpt lat="36.473775124177337" lon="-5.099089974537492">
        <ele>135.2025146484375</ele>
        <time>2011-04-25T13:35:13Z</time>
      </trkpt>
      <trkpt lat="36.473872773349285" lon="-5.097062392160296">
        <ele>142.4124755859375</ele>
        <time>2011-04-25T13:35:19Z</time>
      </trkpt>
      <trkpt lat="36.474284743890166" lon="-5.095047298818827">
        <ele>146.7384033203125</ele>
        <time>2011-04-25T13:35:25Z</time>
      </trkpt>
      <trkpt lat="36.475022519007325" lon="-5.093092890456319">
        <ele>148.180419921875</ele>
        <time>2011-04-25T13:35:31Z</time>
      </trkpt>
      <trkpt lat="36.476109065115452" lon="-5.091244094073772">
        <ele>145.777099609375</ele>
        <time>2011-04-25T13:35:37Z</time>
      </trkpt>
      <trkpt lat="36.477235425263643" lon="-5.08992075920105">
        <ele>141.9317626953125</ele>
        <time>2011-04-25T13:35:42Z</time>
      </trkpt>
      <trkpt lat="36.479414468631148" lon="-5.087869875133038">
        <ele>129.4346923828125</ele>
        <time>2011-04-25T13:35:51Z</time>
      </trkpt>
      <trkpt lat="36.481375247240067" lon="-5.085734836757183">
        <ele>118.37939453125</ele>
        <time>2011-04-25T13:36:00Z</time>
      </trkpt>
      <trkpt lat="36.482910141348839" lon="-5.08349971845746">
        <ele>108.28564453125</ele>
        <time>2011-04-25T13:36:08Z</time>
      </trkpt>
      <trkpt lat="36.484194835647941" lon="-5.081034516915679">
        <ele>97.711181640625</ele>
        <time>2011-04-25T13:36:16Z</time>
      </trkpt>
      <trkpt lat="36.485171997919679" lon="-5.078354068100452">
        <ele>89.5399169921875</ele>
        <time>2011-04-25T13:36:24Z</time>
      </trkpt>
      <trkpt lat="36.485802233219147" lon="-5.075689880177379">
        <ele>86.17529296875</ele>
        <time>2011-04-25T13:36:32Z</time>
      </trkpt>
      <trkpt lat="36.486079674214125" lon="-5.073376055806875">
        <ele>85.2139892578125</ele>
        <time>2011-04-25T13:36:39Z</time>
      </trkpt>
      <trkpt lat="36.486155781894922" lon="-5.07010686211288">
        <ele>88.0980224609375</ele>
        <time>2011-04-25T13:36:49Z</time>
      </trkpt>
      <trkpt lat="36.48586886934936" lon="-5.067133381962776">
        <ele>92.4239501953125</ele>
        <time>2011-04-25T13:36:58Z</time>
      </trkpt>
      <trkpt lat="36.485290434211493" lon="-5.064403647556901">
        <ele>96.269287109375</ele>
        <time>2011-04-25T13:37:06Z</time>
      </trkpt>
      <trkpt lat="36.483637522906065" lon="-5.0582214910537">
        <ele>103.47900390625</ele>
        <time>2011-04-25T13:37:24Z</time>
      </trkpt>
      <trkpt lat="36.483823684975505" lon="-5.055977487936616">
        <ele>105.8824462890625</ele>
        <time>2011-04-25T13:37:29Z</time>
      </trkpt>
      <trkpt lat="36.484020994976163" lon="-5.053710769861937">
        <ele>107.3243408203125</ele>
        <time>2011-04-25T13:37:35Z</time>
      </trkpt>
      <trkpt lat="36.484564142301679" lon="-5.051206089556217">
        <ele>109.2469482421875</ele>
        <time>2011-04-25T13:37:42Z</time>
      </trkpt>
      <trkpt lat="36.485417755320668" lon="-5.048887487500906">
        <ele>113.09228515625</ele>
        <time>2011-04-25T13:37:49Z</time>
      </trkpt>
      <trkpt lat="36.486527435481548" lon="-5.046853786334395">
        <ele>117.8988037109375</ele>
        <time>2011-04-25T13:37:56Z</time>
      </trkpt>
      <trkpt lat="36.487845657393336" lon="-5.045067686587572">
        <ele>123.666748046875</ele>
        <time>2011-04-25T13:38:03Z</time>
      </trkpt>
      <trkpt lat="36.489816745743155" lon="-5.043044127523899">
        <ele>132.79931640625</ele>
        <time>2011-04-25T13:38:12Z</time>
      </trkpt>
      <trkpt lat="36.492701293900609" lon="-5.040015578269959">
        <ele>145.29638671875</ele>
        <time>2011-04-25T13:38:25Z</time>
      </trkpt>
      <trkpt lat="36.494072321802378" lon="-5.038109365850687">
        <ele>147.218994140625</ele>
        <time>2011-04-25T13:38:32Z</time>
      </trkpt>
      <trkpt lat="36.495376545935869" lon="-5.035680374130607">
        <ele>144.8157958984375</ele>
        <time>2011-04-25T13:38:40Z</time>
      </trkpt>
      <trkpt lat="36.496359491720796" lon="-5.03309422172606">
        <ele>137.125244140625</ele>
        <time>2011-04-25T13:38:48Z</time>
      </trkpt>
      <trkpt lat="36.497019063681364" lon="-5.030424669384956">
        <ele>126.0699462890625</ele>
        <time>2011-04-25T13:38:56Z</time>
      </trkpt>
      <trkpt lat="36.497354675084352" lon="-5.027634585276246">
        <ele>113.572998046875</ele>
        <time>2011-04-25T13:39:04Z</time>
      </trkpt>
      <trkpt lat="36.497382083907723" lon="-5.025106435641646">
        <ele>102.998291015625</ele>
        <time>2011-04-25T13:39:11Z</time>
      </trkpt>
      <trkpt lat="36.497079916298389" lon="-5.02123273909092">
        <ele>86.656005859375</ele>
        <time>2011-04-25T13:39:22Z</time>
      </trkpt>
      <trkpt lat="36.497108917683363" lon="-5.019080433994532">
        <ele>78.4847412109375</ele>
        <time>2011-04-25T13:39:28Z</time>
      </trkpt>
      <trkpt lat="36.497412174940109" lon="-5.017238091677427">
        <ele>72.2362060546875</ele>
        <time>2011-04-25T13:39:33Z</time>
      </trkpt>
      <trkpt lat="36.498018018901348" lon="-5.015210844576359">
        <ele>67.4296875</ele>
        <time>2011-04-25T13:39:39Z</time>
      </trkpt>
      <trkpt lat="36.498549599200487" lon="-5.013530356809497">
        <ele>66.46826171875</ele>
        <time>2011-04-25T13:39:45Z</time>
      </trkpt>
      <trkpt lat="36.498984787613153" lon="-5.011733528226614">
        <ele>65.9876708984375</ele>
        <time>2011-04-25T13:39:52Z</time>
      </trkpt>
      <trkpt lat="36.499244878068566" lon="-5.010237190872431">
        <ele>65.507080078125</ele>
        <time>2011-04-25T13:39:59Z</time>
      </trkpt>
      <trkpt lat="36.499329786747694" lon="-5.009271930903196">
        <ele>62.6229248046875</ele>
        <time>2011-04-25T13:40:05Z</time>
      </trkpt>
      <trkpt lat="36.499363398179412" lon="-5.008860128000379">
        <ele>60.7003173828125</ele>
        <time>2011-04-25T13:40:10Z</time>
      </trkpt>
      <trkpt lat="36.499389549717307" lon="-5.00858997926116">
        <ele>62.142333984375</ele>
        <time>2011-04-25T13:41:42Z</time>
      </trkpt>
      <trkpt lat="36.499381754547358" lon="-5.007908195257187">
        <ele>58.7777099609375</ele>
        <time>2011-04-25T13:41:49Z</time>
      </trkpt>
      <trkpt lat="36.499380581080914" lon="-5.006798347458243">
        <ele>57.8165283203125</ele>
        <time>2011-04-25T13:41:58Z</time>
      </trkpt>
      <trkpt lat="36.499508321285248" lon="-5.005869716405869">
        <ele>57.8165283203125</ele>
        <time>2011-04-25T13:42:05Z</time>
      </trkpt>
      <trkpt lat="36.499739326536655" lon="-5.004409421235323">
        <ele>59.7391357421875</ele>
        <time>2011-04-25T13:42:13Z</time>
      </trkpt>
      <trkpt lat="36.500152135267854" lon="-5.002684257924557">
        <ele>62.142333984375</ele>
        <time>2011-04-25T13:42:21Z</time>
      </trkpt>
      <trkpt lat="36.500757392495871" lon="-5.000947527587414">
        <ele>64.0650634765625</ele>
        <time>2011-04-25T13:42:28Z</time>
      </trkpt>
      <trkpt lat="36.501594744622707" lon="-4.999142987653613">
        <ele>66.46826171875</ele>
        <time>2011-04-25T13:42:35Z</time>
      </trkpt>
      <trkpt lat="36.503248997032642" lon="-4.996301522478461">
        <ele>68.390869140625</ele>
        <time>2011-04-25T13:42:47Z</time>
      </trkpt>
      <trkpt lat="36.503386124968529" lon="-4.996067248284817">
        <ele>68.390869140625</ele>
        <time>2011-04-25T13:42:48Z</time>
      </trkpt>
      <trkpt lat="36.505267359316349" lon="-4.99459563754499">
        <ele>75.600830078125</ele>
        <time>2011-04-25T13:42:57Z</time>
      </trkpt>
      <trkpt lat="36.506931586191058" lon="-4.993387050926685">
        <ele>74.6395263671875</ele>
        <time>2011-04-25T13:43:05Z</time>
      </trkpt>
      <trkpt lat="36.508547868579626" lon="-4.992422964423895">
        <ele>74.6395263671875</ele>
        <time>2011-04-25T13:43:13Z</time>
      </trkpt>
      <trkpt lat="36.510612918063998" lon="-4.990989658981562">
        <ele>75.1202392578125</ele>
        <time>2011-04-25T13:43:23Z</time>
      </trkpt>
      <trkpt lat="36.512123085558414" lon="-4.989503463730216">
        <ele>79.446044921875</ele>
        <time>2011-04-25T13:43:31Z</time>
      </trkpt>
      <trkpt lat="36.513458238914609" lon="-4.987715352326632">
        <ele>86.656005859375</ele>
        <time>2011-04-25T13:43:39Z</time>
      </trkpt>
      <trkpt lat="36.515566874295473" lon="-4.984847484156489">
        <ele>102.998291015625</ele>
        <time>2011-04-25T13:43:52Z</time>
      </trkpt>
      <trkpt lat="36.516993474215269" lon="-4.983444856479764">
        <ele>112.611572265625</ele>
        <time>2011-04-25T13:44:00Z</time>
      </trkpt>
      <trkpt lat="36.519528245553374" lon="-4.981469074264169">
        <ele>127.511962890625</ele>
        <time>2011-04-25T13:44:13Z</time>
      </trkpt>
      <trkpt lat="36.521200519055128" lon="-4.979889336973429">
        <ele>136.1639404296875</ele>
        <time>2011-04-25T13:44:22Z</time>
      </trkpt>
      <trkpt lat="36.522826943546534" lon="-4.977846834808588">
        <ele>140.4898681640625</ele>
        <time>2011-04-25T13:44:32Z</time>
      </trkpt>
      <trkpt lat="36.524088671430945" lon="-4.975767284631729">
        <ele>141.4510498046875</ele>
        <time>2011-04-25T13:44:41Z</time>
      </trkpt>
      <trkpt lat="36.525093661621213" lon="-4.97347516939044">
        <ele>132.318603515625</ele>
        <time>2011-04-25T13:44:50Z</time>
      </trkpt>
      <trkpt lat="36.525791455060244" lon="-4.971184646710753">
        <ele>121.2635498046875</ele>
        <time>2011-04-25T13:44:58Z</time>
      </trkpt>
      <trkpt lat="36.526182387024164" lon="-4.968999065458775">
        <ele>110.6888427734375</ele>
        <time>2011-04-25T13:45:05Z</time>
      </trkpt>
      <trkpt lat="36.526299985125661" lon="-4.96671793051064">
        <ele>102.5177001953125</ele>
        <time>2011-04-25T13:45:12Z</time>
      </trkpt>
      <trkpt lat="36.526143746450543" lon="-4.96479176916182">
        <ele>98.19189453125</ele>
        <time>2011-04-25T13:45:18Z</time>
      </trkpt>
      <trkpt lat="36.52543606236577" lon="-4.960077535361052">
        <ele>91.4625244140625</ele>
        <time>2011-04-25T13:45:34Z</time>
      </trkpt>
      <trkpt lat="36.525661367923021" lon="-4.957947861403227">
        <ele>99.153076171875</ele>
        <time>2011-04-25T13:45:42Z</time>
      </trkpt>
      <trkpt lat="36.52601215057075" lon="-4.955405965447426">
        <ele>98.6724853515625</ele>
        <time>2011-04-25T13:45:50Z</time>
      </trkpt>
      <trkpt lat="36.526237037032843" lon="-4.952638177201152">
        <ele>98.6724853515625</ele>
        <time>2011-04-25T13:45:58Z</time>
      </trkpt>
      <trkpt lat="36.526102088391781" lon="-4.950134670361877">
        <ele>102.037109375</ele>
        <time>2011-04-25T13:46:05Z</time>
      </trkpt>
      <trkpt lat="36.525651561096311" lon="-4.947737026959658">
        <ele>109.2469482421875</ele>
        <time>2011-04-25T13:46:12Z</time>
      </trkpt>
      <trkpt lat="36.524896267801523" lon="-4.945457149296999">
        <ele>114.0535888671875</ele>
        <time>2011-04-25T13:46:19Z</time>
      </trkpt>
      <trkpt lat="36.523822378367186" lon="-4.943302664905787">
        <ele>113.09228515625</ele>
        <time>2011-04-25T13:46:26Z</time>
      </trkpt>
      <trkpt lat="36.522431736811996" lon="-4.94133903644979">
        <ele>104.9210205078125</ele>
        <time>2011-04-25T13:46:33Z</time>
      </trkpt>
      <trkpt lat="36.520787961781025" lon="-4.939632648602128">
        <ele>96.269287109375</ele>
        <time>2011-04-25T13:46:40Z</time>
      </trkpt>
      <trkpt lat="36.518979649990797" lon="-4.938285341486335">
        <ele>84.252685546875</ele>
        <time>2011-04-25T13:46:47Z</time>
      </trkpt>
      <trkpt lat="36.516276989132166" lon="-4.936361275613308">
        <ele>60.2197265625</ele>
        <time>2011-04-25T13:46:58Z</time>
      </trkpt>
      <trkpt lat="36.515217265114188" lon="-4.935209518298507">
        <ele>49.645263671875</ele>
        <time>2011-04-25T13:47:03Z</time>
      </trkpt>
      <trkpt lat="36.514345798641443" lon="-4.933799095451832">
        <ele>40.0321044921875</ele>
        <time>2011-04-25T13:47:08Z</time>
      </trkpt>
      <trkpt lat="36.513075353577733" lon="-4.931074054911733">
        <ele>33.3028564453125</ele>
        <time>2011-04-25T13:47:17Z</time>
      </trkpt>
      <trkpt lat="36.512714931741357" lon="-4.929363979026675">
        <ele>32.341552734375</ele>
        <time>2011-04-25T13:47:22Z</time>
      </trkpt>
      <trkpt lat="36.512680146843195" lon="-4.927557595074177">
        <ele>31.8607177734375</ele>
        <time>2011-04-25T13:47:27Z</time>
      </trkpt>
      <trkpt lat="36.512870667502284" lon="-4.92446718737483">
        <ele>35.2254638671875</ele>
        <time>2011-04-25T13:47:36Z</time>
      </trkpt>
      <trkpt lat="36.513145174831152" lon="-4.921376528218389">
        <ele>38.109375</ele>
        <time>2011-04-25T13:47:45Z</time>
      </trkpt>
      <trkpt lat="36.513835927471519" lon="-4.916865220293403">
        <ele>50.6065673828125</ele>
        <time>2011-04-25T13:47:58Z</time>
      </trkpt>
      <trkpt lat="36.514635477215052" lon="-4.912099353969097">
        <ele>63.1036376953125</ele>
        <time>2011-04-25T13:48:12Z</time>
      </trkpt>
      <trkpt lat="36.515349028632045" lon="-4.909905390813947">
        <ele>66.948974609375</ele>
        <time>2011-04-25T13:48:19Z</time>
      </trkpt>
      <trkpt lat="36.516254357993603" lon="-4.907371792942286">
        <ele>65.507080078125</ele>
        <time>2011-04-25T13:48:27Z</time>
      </trkpt>
      <trkpt lat="36.516434568911791" lon="-4.905594578012824">
        <ele>54.4517822265625</ele>
        <time>2011-04-25T13:48:32Z</time>
      </trkpt>
      <trkpt lat="36.516450997442007" lon="-4.90273735485971">
        <ele>62.6229248046875</ele>
        <time>2011-04-25T13:48:40Z</time>
      </trkpt>
      <trkpt lat="36.516615366563201" lon="-4.899692963808775">
        <ele>67.9102783203125</ele>
        <time>2011-04-25T13:48:49Z</time>
      </trkpt>
      <trkpt lat="36.517032030969858" lon="-4.898027144372463">
        <ele>71.7554931640625</ele>
        <time>2011-04-25T13:48:54Z</time>
      </trkpt>
      <trkpt lat="36.518351845443249" lon="-4.894019085913897">
        <ele>75.600830078125</ele>
        <time>2011-04-25T13:49:06Z</time>
      </trkpt>
      <trkpt lat="36.518857190385461" lon="-4.8918551299721">
        <ele>66.948974609375</ele>
        <time>2011-04-25T13:49:12Z</time>
      </trkpt>
      <trkpt lat="36.51903354562819" lon="-4.889594865962863">
        <ele>60.7003173828125</ele>
        <time>2011-04-25T13:49:18Z</time>
      </trkpt>
      <trkpt lat="36.519316770136356" lon="-4.887201078236103">
        <ele>58.297119140625</ele>
        <time>2011-04-25T13:49:25Z</time>
      </trkpt>
      <trkpt lat="36.520190751180053" lon="-4.883226547390223">
        <ele>64.0650634765625</ele>
        <time>2011-04-25T13:49:37Z</time>
      </trkpt>
      <trkpt lat="36.520648319274187" lon="-4.880213337019086">
        <ele>66.948974609375</ele>
        <time>2011-04-25T13:49:46Z</time>
      </trkpt>
      <trkpt lat="36.520474227145314" lon="-4.878845829516649">
        <ele>63.5843505859375</ele>
        <time>2011-04-25T13:49:50Z</time>
      </trkpt>
      <trkpt lat="36.519914567470551" lon="-4.87680827267468">
        <ele>61.6617431640625</ele>
        <time>2011-04-25T13:49:56Z</time>
      </trkpt>
      <trkpt lat="36.51957736350596" lon="-4.874623781070113">
        <ele>61.6617431640625</ele>
        <time>2011-04-25T13:50:02Z</time>
      </trkpt>
      <trkpt lat="36.519629834219813" lon="-4.872767273336649">
        <ele>61.6617431640625</ele>
        <time>2011-04-25T13:50:07Z</time>
      </trkpt>
      <trkpt lat="36.520022861659527" lon="-4.870616979897022">
        <ele>63.1036376953125</ele>
        <time>2011-04-25T13:50:13Z</time>
      </trkpt>
      <trkpt lat="36.52063088491559" lon="-4.867593543604016">
        <ele>68.87158203125</ele>
        <time>2011-04-25T13:50:22Z</time>
      </trkpt>
      <trkpt lat="36.520908242091537" lon="-4.864832544699311">
        <ele>75.600830078125</ele>
        <time>2011-04-25T13:50:30Z</time>
      </trkpt>
      <trkpt lat="36.52128417044878" lon="-4.861720595508814">
        <ele>80.407470703125</ele>
        <time>2011-04-25T13:50:39Z</time>
      </trkpt>
      <trkpt lat="36.521924380213022" lon="-4.859677422791719">
        <ele>82.810791015625</ele>
        <time>2011-04-25T13:50:45Z</time>
      </trkpt>
      <trkpt lat="36.522845048457384" lon="-4.857761990278959">
        <ele>83.2913818359375</ele>
        <time>2011-04-25T13:50:51Z</time>
      </trkpt>
      <trkpt lat="36.523978365585208" lon="-4.855239037424326">
        <ele>80.88818359375</ele>
        <time>2011-04-25T13:50:59Z</time>
      </trkpt>
      <trkpt lat="36.524336943402886" lon="-4.8535739723593">
        <ele>79.446044921875</ele>
        <time>2011-04-25T13:51:04Z</time>
      </trkpt>
      <trkpt lat="36.524426797404885" lon="-4.851482268422842">
        <ele>82.330078125</ele>
        <time>2011-04-25T13:51:10Z</time>
      </trkpt>
      <trkpt lat="36.524178860709071" lon="-4.84976707957685">
        <ele>86.17529296875</ele>
        <time>2011-04-25T13:51:15Z</time>
      </trkpt>
      <trkpt lat="36.523514343425632" lon="-4.847832787781954">
        <ele>90.98193359375</ele>
        <time>2011-04-25T13:51:21Z</time>
      </trkpt>
      <trkpt lat="36.52269677259028" lon="-4.846393782645464">
        <ele>96.7498779296875</ele>
        <time>2011-04-25T13:51:26Z</time>
      </trkpt>
      <trkpt lat="36.52126899920404" lon="-4.844648921862245">
        <ele>103.959716796875</ele>
        <time>2011-04-25T13:51:33Z</time>
      </trkpt>
      <trkpt lat="36.519874669611454" lon="-4.842742290347815">
        <ele>101.556396484375</ele>
        <time>2011-04-25T13:51:40Z</time>
      </trkpt>
      <trkpt lat="36.519131194800138" lon="-4.84107194468379">
        <ele>96.269287109375</ele>
        <time>2011-04-25T13:51:45Z</time>
      </trkpt>
      <trkpt lat="36.51869885623455" lon="-4.839281989261508">
        <ele>90.0206298828125</ele>
        <time>2011-04-25T13:51:50Z</time>
      </trkpt>
      <trkpt lat="36.518510347232223" lon="-4.837098252028227">
        <ele>83.2913818359375</ele>
        <time>2011-04-25T13:51:56Z</time>
      </trkpt>
      <trkpt lat="36.518568769097328" lon="-4.834270449355245">
        <ele>72.2362060546875</ele>
        <time>2011-04-25T13:52:04Z</time>
      </trkpt>
      <trkpt lat="36.518544796854258" lon="-4.831382380798459">
        <ele>62.142333984375</ele>
        <time>2011-04-25T13:52:12Z</time>
      </trkpt>
      <trkpt lat="36.518191248178482" lon="-4.829616565257311">
        <ele>56.37451171875</ele>
        <time>2011-04-25T13:52:17Z</time>
      </trkpt>
      <trkpt lat="36.51756914332509" lon="-4.828022159636021">
        <ele>54.4517822265625</ele>
        <time>2011-04-25T13:52:22Z</time>
      </trkpt>
      <trkpt lat="36.516166850924492" lon="-4.825438018888235">
        <ele>61.1810302734375</ele>
        <time>2011-04-25T13:52:31Z</time>
      </trkpt>
      <trkpt lat="36.515228245407343" lon="-4.823327623307705">
        <ele>67.9102783203125</ele>
        <time>2011-04-25T13:52:38Z</time>
      </trkpt>
      <trkpt lat="36.514854161068797" lon="-4.821626851335168">
        <ele>71.7554931640625</ele>
        <time>2011-04-25T13:52:43Z</time>
      </trkpt>
      <trkpt lat="36.514750141650438" lon="-4.819467086344957">
        <ele>75.1202392578125</ele>
        <time>2011-04-25T13:52:49Z</time>
      </trkpt>
      <trkpt lat="36.514976369217038" lon="-4.817721471190453">
        <ele>77.5234375</ele>
        <time>2011-04-25T13:52:54Z</time>
      </trkpt>
      <trkpt lat="36.515718838199973" lon="-4.81503582559526">
        <ele>80.88818359375</ele>
        <time>2011-04-25T13:53:02Z</time>
      </trkpt>
      <trkpt lat="36.516907894983888" lon="-4.810948725789785">
        <ele>91.4625244140625</ele>
        <time>2011-04-25T13:53:14Z</time>
      </trkpt>
      <trkpt lat="36.517268652096391" lon="-4.808518225327134">
        <ele>97.23046875</ele>
        <time>2011-04-25T13:53:21Z</time>
      </trkpt>
      <trkpt lat="36.517323888838291" lon="-4.806062076240778">
        <ele>102.5177001953125</ele>
        <time>2011-04-25T13:53:28Z</time>
      </trkpt>
      <trkpt lat="36.517086932435632" lon="-4.803609363734722">
        <ele>109.2469482421875</ele>
        <time>2011-04-25T13:53:35Z</time>
      </trkpt>
      <trkpt lat="36.516552586108446" lon="-4.801213396713138">
        <ele>114.5341796875</ele>
        <time>2011-04-25T13:53:42Z</time>
      </trkpt>
      <trkpt lat="36.51555254124105" lon="-4.798189792782068">
        <ele>115.9761962890625</ele>
        <time>2011-04-25T13:53:51Z</time>
      </trkpt>
      <trkpt lat="36.514939656481147" lon="-4.795788293704391">
        <ele>111.6502685546875</ele>
        <time>2011-04-25T13:53:58Z</time>
      </trkpt>
      <trkpt lat="36.514751818031073" lon="-4.793638335540891">
        <ele>106.8436279296875</ele>
        <time>2011-04-25T13:54:04Z</time>
      </trkpt>
      <trkpt lat="36.514735892415047" lon="-4.790465282276273">
        <ele>98.6724853515625</ele>
        <time>2011-04-25T13:54:13Z</time>
      </trkpt>
      <trkpt lat="36.51440866291523" lon="-4.78837282396853">
        <ele>93.3851318359375</ele>
        <time>2011-04-25T13:54:19Z</time>
      </trkpt>
      <trkpt lat="36.513753868639469" lon="-4.786400478333235">
        <ele>89.5399169921875</ele>
        <time>2011-04-25T13:54:25Z</time>
      </trkpt>
      <trkpt lat="36.51272926479578" lon="-4.78348508477211">
        <ele>86.656005859375</ele>
        <time>2011-04-25T13:54:34Z</time>
      </trkpt>
      <trkpt lat="36.512470850721002" lon="-4.781719436869025">
        <ele>84.7333984375</ele>
        <time>2011-04-25T13:54:39Z</time>
      </trkpt>
      <trkpt lat="36.512518459931016" lon="-4.779198998585343">
        <ele>79.446044921875</ele>
        <time>2011-04-25T13:54:46Z</time>
      </trkpt>
      <trkpt lat="36.512515861541033" lon="-4.776365077123046">
        <ele>75.600830078125</ele>
        <time>2011-04-25T13:54:54Z</time>
      </trkpt>
      <trkpt lat="36.512205479666591" lon="-4.774643685668707">
        <ele>74.6395263671875</ele>
        <time>2011-04-25T13:54:59Z</time>
      </trkpt>
      <trkpt lat="36.511502740904689" lon="-4.772720625624061">
        <ele>68.390869140625</ele>
        <time>2011-04-25T13:55:05Z</time>
      </trkpt>
      <trkpt lat="36.51043756864965" lon="-4.769863318651915">
        <ele>67.4296875</ele>
        <time>2011-04-25T13:55:14Z</time>
      </trkpt>
      <trkpt lat="36.51004915125668" lon="-4.76767991669476">
        <ele>65.9876708984375</ele>
        <time>2011-04-25T13:55:20Z</time>
      </trkpt>
      <trkpt lat="36.509883692488074" lon="-4.764571571722627">
        <ele>64.0650634765625</ele>
        <time>2011-04-25T13:55:29Z</time>
      </trkpt>
      <trkpt lat="36.509436434134841" lon="-4.76253854110837">
        <ele>65.9876708984375</ele>
        <time>2011-04-25T13:55:35Z</time>
      </trkpt>
      <trkpt lat="36.508600423112512" lon="-4.760660827159882">
        <ele>69.352294921875</ele>
        <time>2011-04-25T13:55:41Z</time>
      </trkpt>
      <trkpt lat="36.506924629211426" lon="-4.757653316482902">
        <ele>73.1976318359375</ele>
        <time>2011-04-25T13:55:51Z</time>
      </trkpt>
      <trkpt lat="36.506309229880571" lon="-4.756007781252265">
        <ele>74.6395263671875</ele>
        <time>2011-04-25T13:55:56Z</time>
      </trkpt>
      <trkpt lat="36.505984431132674" lon="-4.754280690103769">
        <ele>77.5234375</ele>
        <time>2011-04-25T13:56:01Z</time>
      </trkpt>
      <trkpt lat="36.505923494696617" lon="-4.752203738316894">
        <ele>79.9266357421875</ele>
        <time>2011-04-25T13:56:07Z</time>
      </trkpt>
      <trkpt lat="36.506140753626823" lon="-4.748686943203211">
        <ele>81.849365234375</ele>
        <time>2011-04-25T13:56:17Z</time>
      </trkpt>
      <trkpt lat="36.506095323711634" lon="-4.746150998398662">
        <ele>84.7333984375</ele>
        <time>2011-04-25T13:56:24Z</time>
      </trkpt>
      <trkpt lat="36.505728447809815" lon="-4.743675068020821">
        <ele>87.1365966796875</ele>
        <time>2011-04-25T13:56:31Z</time>
      </trkpt>
      <trkpt lat="36.505088238045573" lon="-4.741332242265344">
        <ele>92.4239501953125</ele>
        <time>2011-04-25T13:56:38Z</time>
      </trkpt>
      <trkpt lat="36.50410839356482" lon="-4.738182658329606">
        <ele>102.5177001953125</ele>
        <time>2011-04-25T13:56:48Z</time>
      </trkpt>
      <trkpt lat="36.503765992820263" lon="-4.736170917749405">
        <ele>110.208251953125</ele>
        <time>2011-04-25T13:56:54Z</time>
      </trkpt>
      <trkpt lat="36.503769680857658" lon="-4.73444583825767">
        <ele>115.9761962890625</ele>
        <time>2011-04-25T13:56:59Z</time>
      </trkpt>
      <trkpt lat="36.504130521789193" lon="-4.732403922826052">
        <ele>121.744140625</ele>
        <time>2011-04-25T13:57:05Z</time>
      </trkpt>
      <trkpt lat="36.5048295725137" lon="-4.730471223592758">
        <ele>127.9925537109375</ele>
        <time>2011-04-25T13:57:11Z</time>
      </trkpt>
      <trkpt lat="36.507396781817079" lon="-4.724126541987062">
        <ele>147.69970703125</ele>
        <time>2011-04-25T13:57:31Z</time>
      </trkpt>
      <trkpt lat="36.506651630625129" lon="-4.722173977643251">
        <ele>136.6446533203125</ele>
        <time>2011-04-25T13:57:36Z</time>
      </trkpt>
      <trkpt lat="36.506335632875562" lon="-4.720248067751527">
        <ele>129.4346923828125</ele>
        <time>2011-04-25T13:57:42Z</time>
      </trkpt>
      <trkpt lat="36.506080320104957" lon="-4.719312395900488">
        <ele>124.1473388671875</ele>
        <time>2011-04-25T13:57:46Z</time>
      </trkpt>
      <trkpt lat="36.50591385550797" lon="-4.718754747882485">
        <ele>121.2635498046875</ele>
        <time>2011-04-25T13:57:50Z</time>
      </trkpt>
      <trkpt lat="36.505758874118328" lon="-4.718286283314228">
        <ele>118.860107421875</ele>
        <time>2011-04-25T13:57:56Z</time>
      </trkpt>
      <trkpt lat="36.505719143897295" lon="-4.718164829537273">
        <ele>122.7054443359375</ele>
        <time>2011-04-25T13:58:15Z</time>
      </trkpt>
      <trkpt lat="36.505691483616829" lon="-4.718054942786694">
        <ele>124.6280517578125</ele>
        <time>2011-04-25T13:58:48Z</time>
      </trkpt>
      <trkpt lat="36.505618141964078" lon="-4.717946983873844">
        <ele>109.7276611328125</ele>
        <time>2011-04-25T13:59:43Z</time>
      </trkpt>
      <trkpt lat="36.505580842494965" lon="-4.717643894255161">
        <ele>101.07568359375</ele>
        <time>2011-04-25T13:59:54Z</time>
      </trkpt>
      <trkpt lat="36.505434745922685" lon="-4.717022040858865">
        <ele>104.9210205078125</ele>
        <time>2011-04-25T13:59:59Z</time>
      </trkpt>
      <trkpt lat="36.505280854180455" lon="-4.7157958522439">
        <ele>105.8824462890625</ele>
        <time>2011-04-25T14:00:06Z</time>
      </trkpt>
      <trkpt lat="36.505237184464931" lon="-4.714212343096733">
        <ele>103.47900390625</ele>
        <time>2011-04-25T14:00:13Z</time>
      </trkpt>
      <trkpt lat="36.505433153361082" lon="-4.712604861706495">
        <ele>99.153076171875</ele>
        <time>2011-04-25T14:00:19Z</time>
      </trkpt>
      <trkpt lat="36.505942437797785" lon="-4.710845248773694">
        <ele>93.3851318359375</ele>
        <time>2011-04-25T14:00:25Z</time>
      </trkpt>
      <trkpt lat="36.506800157949328" lon="-4.709137436002493">
        <ele>85.2139892578125</ele>
        <time>2011-04-25T14:00:31Z</time>
      </trkpt>
      <trkpt lat="36.507986783981323" lon="-4.707672195509076">
        <ele>75.1202392578125</ele>
        <time>2011-04-25T14:00:37Z</time>
      </trkpt>
      <trkpt lat="36.509453868493438" lon="-4.706485569477081">
        <ele>65.507080078125</ele>
        <time>2011-04-25T14:00:43Z</time>
      </trkpt>
      <trkpt lat="36.511983275413513" lon="-4.704486066475511">
        <ele>50.6065673828125</ele>
        <time>2011-04-25T14:00:53Z</time>
      </trkpt>
      <trkpt lat="36.513259839266539" lon="-4.702915884554386">
        <ele>43.3966064453125</ele>
        <time>2011-04-25T14:00:59Z</time>
      </trkpt>
      <trkpt lat="36.51424303650856" lon="-4.701079828664661">
        <ele>40.993408203125</ele>
        <time>2011-04-25T14:01:05Z</time>
      </trkpt>
      <trkpt lat="36.514920042827725" lon="-4.699017880484462">
        <ele>40.5128173828125</ele>
        <time>2011-04-25T14:01:11Z</time>
      </trkpt>
      <trkpt lat="36.515643484890461" lon="-4.695700826123357">
        <ele>40.993408203125</ele>
        <time>2011-04-25T14:01:20Z</time>
      </trkpt>
      <trkpt lat="36.516432724893093" lon="-4.69311953522265">
        <ele>41.4739990234375</ele>
        <time>2011-04-25T14:01:27Z</time>
      </trkpt>
      <trkpt lat="36.517583895474672" lon="-4.690691465511918">
        <ele>44.838623046875</ele>
        <time>2011-04-25T14:01:34Z</time>
      </trkpt>
      <trkpt lat="36.518837995827198" lon="-4.688850296661258">
        <ele>47.2418212890625</ele>
        <time>2011-04-25T14:01:40Z</time>
      </trkpt>
      <trkpt lat="36.520792823284864" lon="-4.686770746484399">
        <ele>52.5291748046875</ele>
        <time>2011-04-25T14:01:48Z</time>
      </trkpt>
      <trkpt lat="36.522552436217666" lon="-4.685414638370276">
        <ele>57.3358154296875</ele>
        <time>2011-04-25T14:01:55Z</time>
      </trkpt>
      <trkpt lat="36.524148685857654" lon="-4.684577537700534">
        <ele>61.6617431640625</ele>
        <time>2011-04-25T14:02:01Z</time>
      </trkpt>
      <trkpt lat="36.526380283758044" lon="-4.683803385123611">
        <ele>66.46826171875</ele>
        <time>2011-04-25T14:02:09Z</time>
      </trkpt>
      <trkpt lat="36.531038861721754" lon="-4.682367984205484">
        <ele>80.407470703125</ele>
        <time>2011-04-25T14:02:26Z</time>
      </trkpt>
      <trkpt lat="36.534489272162318" lon="-4.681143220514059">
        <ele>88.0980224609375</ele>
        <time>2011-04-25T14:02:39Z</time>
      </trkpt>
      <trkpt lat="36.536274449899793" lon="-4.680016273632646">
        <ele>87.1365966796875</ele>
        <time>2011-04-25T14:02:46Z</time>
      </trkpt>
      <trkpt lat="36.537636676803231" lon="-4.678661171346903">
        <ele>84.7333984375</ele>
        <time>2011-04-25T14:02:52Z</time>
      </trkpt>
      <trkpt lat="36.538611073046923" lon="-4.677253430709243">
        <ele>80.88818359375</ele>
        <time>2011-04-25T14:02:57Z</time>
      </trkpt>
      <trkpt lat="36.539387656375766" lon="-4.675618959590793">
        <ele>75.600830078125</ele>
        <time>2011-04-25T14:03:02Z</time>
      </trkpt>
      <trkpt lat="36.540008336305618" lon="-4.673499595373869">
        <ele>67.9102783203125</ele>
        <time>2011-04-25T14:03:08Z</time>
      </trkpt>
      <trkpt lat="36.540267085656524" lon="-4.671247629448772">
        <ele>57.3358154296875</ele>
        <time>2011-04-25T14:03:14Z</time>
      </trkpt>
      <trkpt lat="36.540309749543667" lon="-4.667965527623892">
        <ele>42.4354248046875</ele>
        <time>2011-04-25T14:03:23Z</time>
      </trkpt>
      <trkpt lat="36.540427263826132" lon="-4.664638582617044">
        <ele>27.534912109375</ele>
        <time>2011-04-25T14:03:32Z</time>
      </trkpt>
      <trkpt lat="36.540831942111254" lon="-4.662547381594777">
        <ele>20.324951171875</ele>
        <time>2011-04-25T14:03:38Z</time>
      </trkpt>
      <trkpt lat="36.541537698358297" lon="-4.660717947408557">
        <ele>17.9217529296875</ele>
        <time>2011-04-25T14:03:44Z</time>
      </trkpt>
      <trkpt lat="36.542493067681789" lon="-4.65914667584002">
        <ele>17.9217529296875</ele>
        <time>2011-04-25T14:03:50Z</time>
      </trkpt>
      <trkpt lat="36.543676173314452" lon="-4.65784253552556">
        <ele>18.40234375</ele>
        <time>2011-04-25T14:03:56Z</time>
      </trkpt>
      <trkpt lat="36.545102521777153" lon="-4.656798569485545">
        <ele>18.883056640625</ele>
        <time>2011-04-25T14:04:02Z</time>
      </trkpt>
      <trkpt lat="36.546743949875236" lon="-4.656113181263208">
        <ele>20.8056640625</ele>
        <time>2011-04-25T14:04:08Z</time>
      </trkpt>
      <trkpt lat="36.548514794558287" lon="-4.655842194333673">
        <ele>22.24755859375</ele>
        <time>2011-04-25T14:04:14Z</time>
      </trkpt>
      <trkpt lat="36.551253078505397" lon="-4.65586063452065">
        <ele>25.1317138671875</ele>
        <time>2011-04-25T14:04:23Z</time>
      </trkpt>
      <trkpt lat="36.555078579112887" lon="-4.65598426759243">
        <ele>35.7060546875</ele>
        <time>2011-04-25T14:04:36Z</time>
      </trkpt>
      <trkpt lat="36.559187388047576" lon="-4.656113516539335">
        <ele>56.37451171875</ele>
        <time>2011-04-25T14:04:51Z</time>
      </trkpt>
      <trkpt lat="36.561835147440434" lon="-4.655951578170061">
        <ele>71.27490234375</ele>
        <time>2011-04-25T14:05:01Z</time>
      </trkpt>
      <trkpt lat="36.563352355733514" lon="-4.655448831617832">
        <ele>79.9266357421875</ele>
        <time>2011-04-25T14:05:07Z</time>
      </trkpt>
      <trkpt lat="36.564763532951474" lon="-4.654619777575135">
        <ele>88.0980224609375</ele>
        <time>2011-04-25T14:05:13Z</time>
      </trkpt>
      <trkpt lat="36.566029116511345" lon="-4.65347464196384">
        <ele>94.8271484375</ele>
        <time>2011-04-25T14:05:19Z</time>
      </trkpt>
      <trkpt lat="36.567126056179404" lon="-4.652013592422009">
        <ele>100.114501953125</ele>
        <time>2011-04-25T14:05:25Z</time>
      </trkpt>
      <trkpt lat="36.568013783544302" lon="-4.650239059701562">
        <ele>102.998291015625</ele>
        <time>2011-04-25T14:05:31Z</time>
      </trkpt>
      <trkpt lat="36.568627757951617" lon="-4.64816227555275">
        <ele>103.959716796875</ele>
        <time>2011-04-25T14:05:37Z</time>
      </trkpt>
      <trkpt lat="36.568867564201355" lon="-4.646209627389908">
        <ele>101.07568359375</ele>
        <time>2011-04-25T14:05:42Z</time>
      </trkpt>
      <trkpt lat="36.568805370479822" lon="-4.644132927060127">
        <ele>95.3077392578125</ele>
        <time>2011-04-25T14:05:47Z</time>
      </trkpt>
      <trkpt lat="36.568409074097872" lon="-4.642162593081594">
        <ele>87.6171875</ele>
        <time>2011-04-25T14:05:52Z</time>
      </trkpt>
      <trkpt lat="36.567648081108928" lon="-4.640085389837623">
        <ele>81.3687744140625</ele>
        <time>2011-04-25T14:05:58Z</time>
      </trkpt>
      <trkpt lat="36.566251823678613" lon="-4.63694435544312">
        <ele>70.794189453125</ele>
        <time>2011-04-25T14:06:08Z</time>
      </trkpt>
      <trkpt lat="36.565698282793164" lon="-4.634918784722686">
        <ele>62.6229248046875</ele>
        <time>2011-04-25T14:06:14Z</time>
      </trkpt>
      <trkpt lat="36.565544558688998" lon="-4.633149448782206">
        <ele>55.893798828125</ele>
        <time>2011-04-25T14:06:19Z</time>
      </trkpt>
      <trkpt lat="36.565721919760108" lon="-4.631104851141572">
        <ele>47.2418212890625</ele>
        <time>2011-04-25T14:06:25Z</time>
      </trkpt>
      <trkpt lat="36.566287698224187" lon="-4.629127979278565">
        <ele>40.993408203125</ele>
        <time>2011-04-25T14:06:31Z</time>
      </trkpt>
      <trkpt lat="36.56705254688859" lon="-4.627607334405184">
        <ele>38.109375</ele>
        <time>2011-04-25T14:06:36Z</time>
      </trkpt>
      <trkpt lat="36.568262055516243" lon="-4.62606112472713">
        <ele>39.0706787109375</ele>
        <time>2011-04-25T14:06:42Z</time>
      </trkpt>
      <trkpt lat="36.569885462522507" lon="-4.624565877020359">
        <ele>45.3192138671875</ele>
        <time>2011-04-25T14:06:49Z</time>
      </trkpt>
      <trkpt lat="36.572418473660946" lon="-4.622490853071213">
        <ele>63.5843505859375</ele>
        <time>2011-04-25T14:07:00Z</time>
      </trkpt>
      <trkpt lat="36.573795871809125" lon="-4.620964424684644">
        <ele>75.600830078125</ele>
        <time>2011-04-25T14:07:07Z</time>
      </trkpt>
      <trkpt lat="36.574930949136615" lon="-4.619185868650675">
        <ele>87.1365966796875</ele>
        <time>2011-04-25T14:07:14Z</time>
      </trkpt>
      <trkpt lat="36.575783723965287" lon="-4.617178654298186">
        <ele>98.19189453125</ele>
        <time>2011-04-25T14:07:21Z</time>
      </trkpt>
      <trkpt lat="36.576874628663063" lon="-4.613879537209868">
        <ele>115.014892578125</ele>
        <time>2011-04-25T14:07:32Z</time>
      </trkpt>
      <trkpt lat="36.577849360182881" lon="-4.611588595435023">
        <ele>127.0313720703125</ele>
        <time>2011-04-25T14:07:40Z</time>
      </trkpt>
      <trkpt lat="36.579093653708696" lon="-4.609516588971019">
        <ele>138.5672607421875</ele>
        <time>2011-04-25T14:07:48Z</time>
      </trkpt>
      <trkpt lat="36.580548333004117" lon="-4.607693944126368">
        <ele>148.6610107421875</ele>
        <time>2011-04-25T14:07:56Z</time>
      </trkpt>
      <trkpt lat="36.583509994670749" lon="-4.604141274467111">
        <ele>170.2906494140625</ele>
        <time>2011-04-25T14:08:12Z</time>
      </trkpt>
      <trkpt lat="36.585035668686032" lon="-4.601982180029154">
        <ele>183.2684326171875</ele>
        <time>2011-04-25T14:08:21Z</time>
      </trkpt>
      <trkpt lat="36.585947955027223" lon="-4.600035231560469">
        <ele>192.401123046875</ele>
        <time>2011-04-25T14:08:28Z</time>
      </trkpt>
      <trkpt lat="36.586608616635203" lon="-4.597869431599975">
        <ele>202.494873046875</ele>
        <time>2011-04-25T14:08:35Z</time>
      </trkpt>
      <trkpt lat="36.586964931339025" lon="-4.595529036596417">
        <ele>214.0306396484375</ele>
        <time>2011-04-25T14:08:42Z</time>
      </trkpt>
      <trkpt lat="36.587361562997103" lon="-4.59067658521235">
        <ele>237.5828857421875</ele>
        <time>2011-04-25T14:08:56Z</time>
      </trkpt>
      <trkpt lat="36.587800942361355" lon="-4.588256059214473">
        <ele>248.1575927734375</ele>
        <time>2011-04-25T14:09:03Z</time>
      </trkpt>
      <trkpt lat="36.588439894840121" lon="-4.586266363039613">
        <ele>257.2900390625</ele>
        <time>2011-04-25T14:09:09Z</time>
      </trkpt>
      <trkpt lat="36.589688966050744" lon="-4.583499999716878">
        <ele>270.2677001953125</ele>
        <time>2011-04-25T14:09:18Z</time>
      </trkpt>
      <trkpt lat="36.590889086946845" lon="-4.581672996282578">
        <ele>280.8424072265625</ele>
        <time>2011-04-25T14:09:25Z</time>
      </trkpt>
      <trkpt lat="36.592635875567794" lon="-4.579628231003881">
        <ele>294.30078125</ele>
        <time>2011-04-25T14:09:34Z</time>
      </trkpt>
      <trkpt lat="36.594450054690242" lon="-4.577868534252048">
        <ele>304.3946533203125</ele>
        <time>2011-04-25T14:09:43Z</time>
      </trkpt>
      <trkpt lat="36.596607472747564" lon="-4.575822176411748">
        <ele>308.2398681640625</ele>
        <time>2011-04-25T14:09:53Z</time>
      </trkpt>
      <trkpt lat="36.599542731419206" lon="-4.573037456721067">
        <ele>302.471923828125</ele>
        <time>2011-04-25T14:10:06Z</time>
      </trkpt>
      <trkpt lat="36.602430632337928" lon="-4.570286683738232">
        <ele>283.7261962890625</ele>
        <time>2011-04-25T14:10:18Z</time>
      </trkpt>
      <trkpt lat="36.603484069928527" lon="-4.56900735385716">
        <ele>275.5550537109375</ele>
        <time>2011-04-25T14:10:23Z</time>
      </trkpt>
      <trkpt lat="36.604224527254701" lon="-4.56752928905189">
        <ele>268.3450927734375</ele>
        <time>2011-04-25T14:10:28Z</time>
      </trkpt>
      <trkpt lat="36.604650327935815" lon="-4.565931782126427">
        <ele>264.019287109375</ele>
        <time>2011-04-25T14:10:33Z</time>
      </trkpt>
      <trkpt lat="36.60483087413013" lon="-4.56430627964437">
        <ele>261.615966796875</ele>
        <time>2011-04-25T14:10:38Z</time>
      </trkpt>
      <trkpt lat="36.605026423931122" lon="-4.561268342658877">
        <ele>257.2900390625</ele>
        <time>2011-04-25T14:10:47Z</time>
      </trkpt>
      <trkpt lat="36.6054558288306" lon="-4.55969363451004">
        <ele>254.8865966796875</ele>
        <time>2011-04-25T14:10:52Z</time>
      </trkpt>
      <trkpt lat="36.606312543153763" lon="-4.557283753529191">
        <ele>253.4447021484375</ele>
        <time>2011-04-25T14:11:00Z</time>
      </trkpt>
      <trkpt lat="36.606572298333049" lon="-4.555619191378355">
        <ele>252.9639892578125</ele>
        <time>2011-04-25T14:11:05Z</time>
      </trkpt>
      <trkpt lat="36.606523096561432" lon="-4.553993521258235">
        <ele>253.9254150390625</ele>
        <time>2011-04-25T14:11:10Z</time>
      </trkpt>
      <trkpt lat="36.606160160154104" lon="-4.552127122879028">
        <ele>256.3287353515625</ele>
        <time>2011-04-25T14:11:16Z</time>
      </trkpt>
      <trkpt lat="36.605737125501037" lon="-4.549879934638739">
        <ele>252.0028076171875</ele>
        <time>2011-04-25T14:11:23Z</time>
      </trkpt>
      <trkpt lat="36.605711728334427" lon="-4.54793474636972">
        <ele>245.2734375</ele>
        <time>2011-04-25T14:11:29Z</time>
      </trkpt>
      <trkpt lat="36.606016829609871" lon="-4.545977655798197">
        <ele>237.102294921875</ele>
        <time>2011-04-25T14:11:35Z</time>
      </trkpt>
      <trkpt lat="36.606667516753078" lon="-4.544031461700797">
        <ele>226.047119140625</ele>
        <time>2011-04-25T14:11:41Z</time>
      </trkpt>
      <trkpt lat="36.607984397560358" lon="-4.54120877198875">
        <ele>209.704833984375</ele>
        <time>2011-04-25T14:11:50Z</time>
      </trkpt>
      <trkpt lat="36.609605792909861" lon="-4.537606397643685">
        <ele>190.4783935546875</ele>
        <time>2011-04-25T14:12:01Z</time>
      </trkpt>
      <trkpt lat="36.610179198905826" lon="-4.535425258800387">
        <ele>180.865234375</ele>
        <time>2011-04-25T14:12:07Z</time>
      </trkpt>
      <trkpt lat="36.610507853329182" lon="-4.532780516892672">
        <ele>171.732666015625</ele>
        <time>2011-04-25T14:12:14Z</time>
      </trkpt>
      <trkpt lat="36.6109299659729" lon="-4.530620919540525">
        <ele>165.00341796875</ele>
        <time>2011-04-25T14:12:20Z</time>
      </trkpt>
      <trkpt lat="36.611692635342479" lon="-4.529020562767983">
        <ele>158.274169921875</ele>
        <time>2011-04-25T14:12:25Z</time>
      </trkpt>
      <trkpt lat="36.612913543358445" lon="-4.527395647019148">
        <ele>150.5836181640625</ele>
        <time>2011-04-25T14:12:31Z</time>
      </trkpt>
      <trkpt lat="36.613837480545044" lon="-4.525899225845933">
        <ele>144.335205078125</ele>
        <time>2011-04-25T14:12:36Z</time>
      </trkpt>
      <trkpt lat="36.614408874884248" lon="-4.524126034229994">
        <ele>139.0478515625</ele>
        <time>2011-04-25T14:12:41Z</time>
      </trkpt>
      <trkpt lat="36.615193337202072" lon="-4.521376937627792">
        <ele>135.68310546875</ele>
        <time>2011-04-25T14:12:49Z</time>
      </trkpt>
      <trkpt lat="36.616070838645101" lon="-4.519954277202487">
        <ele>134.2412109375</ele>
        <time>2011-04-25T14:12:54Z</time>
      </trkpt>
      <trkpt lat="36.617183368653059" lon="-4.518897738307715">
        <ele>134.2412109375</ele>
        <time>2011-04-25T14:12:59Z</time>
      </trkpt>
      <trkpt lat="36.618465129286051" lon="-4.518233556300402">
        <ele>136.1639404296875</ele>
        <time>2011-04-25T14:13:04Z</time>
      </trkpt>
      <trkpt lat="36.620170176029205" lon="-4.517863495275378">
        <ele>135.68310546875</ele>
        <time>2011-04-25T14:13:10Z</time>
      </trkpt>
      <trkpt lat="36.622798070311546" lon="-4.517214484512806">
        <ele>130.876708984375</ele>
        <time>2011-04-25T14:13:19Z</time>
      </trkpt>
      <trkpt lat="36.624691458418965" lon="-4.516304880380631">
        <ele>123.666748046875</ele>
        <time>2011-04-25T14:13:26Z</time>
      </trkpt>
      <trkpt lat="36.627490259706974" lon="-4.514294816181064">
        <ele>110.208251953125</ele>
        <time>2011-04-25T14:13:37Z</time>
      </trkpt>
      <trkpt lat="36.629908438771963" lon="-4.512825720012188">
        <ele>99.6337890625</ele>
        <time>2011-04-25T14:13:46Z</time>
      </trkpt>
      <trkpt lat="36.633106134831905" lon="-4.511387217789888">
        <ele>91.4625244140625</ele>
        <time>2011-04-25T14:13:58Z</time>
      </trkpt>
      <trkpt lat="36.635950868949294" lon="-4.510043179616332">
        <ele>84.7333984375</ele>
        <time>2011-04-25T14:14:09Z</time>
      </trkpt>
      <trkpt lat="36.638760818168521" lon="-4.50867248699069">
        <ele>78.4847412109375</ele>
        <time>2011-04-25T14:14:21Z</time>
      </trkpt>
      <trkpt lat="36.640615649521351" lon="-4.50756867416203">
        <ele>72.7169189453125</ele>
        <time>2011-04-25T14:14:29Z</time>
      </trkpt>
      <trkpt lat="36.641870252788067" lon="-4.506357153877616">
        <ele>65.9876708984375</ele>
        <time>2011-04-25T14:14:35Z</time>
      </trkpt>
      <trkpt lat="36.642659744247794" lon="-4.505050582811236">
        <ele>60.7003173828125</ele>
        <time>2011-04-25T14:14:40Z</time>
      </trkpt>
      <trkpt lat="36.643177745863795" lon="-4.503525327891111">
        <ele>54.4517822265625</ele>
        <time>2011-04-25T14:14:45Z</time>
      </trkpt>
      <trkpt lat="36.64336608722806" lon="-4.501852467656136">
        <ele>47.7225341796875</ele>
        <time>2011-04-25T14:14:50Z</time>
      </trkpt>
      <trkpt lat="36.643213285133243" lon="-4.500113977119327">
        <ele>41.9547119140625</ele>
        <time>2011-04-25T14:14:55Z</time>
      </trkpt>
      <trkpt lat="36.642758566886187" lon="-4.497443418949843">
        <ele>33.783447265625</ele>
        <time>2011-04-25T14:15:03Z</time>
      </trkpt>
      <trkpt lat="36.642826879397035" lon="-4.495874075219035">
        <ele>30.4188232421875</ele>
        <time>2011-04-25T14:15:08Z</time>
      </trkpt>
      <trkpt lat="36.643191240727901" lon="-4.494477398693562">
        <ele>27.534912109375</ele>
        <time>2011-04-25T14:15:13Z</time>
      </trkpt>
      <trkpt lat="36.643949216231704" lon="-4.493043590337038">
        <ele>25.1317138671875</ele>
        <time>2011-04-25T14:15:19Z</time>
      </trkpt>
      <trkpt lat="36.644860245287418" lon="-4.492035917937756">
        <ele>24.1702880859375</ele>
        <time>2011-04-25T14:15:24Z</time>
      </trkpt>
      <trkpt lat="36.646177964285016" lon="-4.491089936345816">
        <ele>24.6510009765625</ele>
        <time>2011-04-25T14:15:30Z</time>
      </trkpt>
      <trkpt lat="36.647630799561739" lon="-4.489924348890781">
        <ele>25.6123046875</ele>
        <time>2011-04-25T14:15:37Z</time>
      </trkpt>
      <trkpt lat="36.648382237181067" lon="-4.488706039264798">
        <ele>24.6510009765625</ele>
        <time>2011-04-25T14:15:42Z</time>
      </trkpt>
      <trkpt lat="36.648738384246826" lon="-4.487540787085891">
        <ele>23.208984375</ele>
        <time>2011-04-25T14:15:46Z</time>
      </trkpt>
      <trkpt lat="36.648882050067186" lon="-4.486061548814178">
        <ele>20.324951171875</ele>
        <time>2011-04-25T14:15:51Z</time>
      </trkpt>
      <trkpt lat="36.649101236835122" lon="-4.483437342569232">
        <ele>15.0377197265625</ele>
        <time>2011-04-25T14:16:00Z</time>
      </trkpt>
      <trkpt lat="36.649568779394031" lon="-4.482086095958948">
        <ele>11.6732177734375</ele>
        <time>2011-04-25T14:16:05Z</time>
      </trkpt>
      <trkpt lat="36.650286521762609" lon="-4.481001729145646">
        <ele>9.2698974609375</ele>
        <time>2011-04-25T14:16:10Z</time>
      </trkpt>
      <trkpt lat="36.651406679302454" lon="-4.480000929906964">
        <ele>8.30859375</ele>
        <time>2011-04-25T14:16:16Z</time>
      </trkpt>
      <trkpt lat="36.652845097705722" lon="-4.478815058246255">
        <ele>8.7891845703125</ele>
        <time>2011-04-25T14:16:24Z</time>
      </trkpt>
      <trkpt lat="36.65462164208293" lon="-4.477343028411269">
        <ele>5.424560546875</ele>
        <time>2011-04-25T14:16:34Z</time>
      </trkpt>
      <trkpt lat="36.656613098457456" lon="-4.475687853991985">
        <ele>3.501953125</ele>
        <time>2011-04-25T14:16:44Z</time>
      </trkpt>
      <trkpt lat="36.658906387165189" lon="-4.473768649622798">
        <ele>3.501953125</ele>
        <time>2011-04-25T14:16:56Z</time>
      </trkpt>
      <trkpt lat="36.659901319071651" lon="-4.472939344123006">
        <ele>3.501953125</ele>
        <time>2011-04-25T14:17:02Z</time>
      </trkpt>
      <trkpt lat="36.660312870517373" lon="-4.472591495141387">
        <ele>3.982666015625</ele>
        <time>2011-04-25T14:17:07Z</time>
      </trkpt>
      <trkpt lat="36.660946877673268" lon="-4.472059747204185">
        <ele>4.4632568359375</ele>
        <time>2011-04-25T14:17:14Z</time>
      </trkpt>
      <trkpt lat="36.661848938092589" lon="-4.47130898013711">
        <ele>4.94384765625</ele>
        <time>2011-04-25T14:17:21Z</time>
      </trkpt>
      <trkpt lat="36.663177218288183" lon="-4.470204496756196">
        <ele>5.424560546875</ele>
        <time>2011-04-25T14:17:30Z</time>
      </trkpt>
      <trkpt lat="36.664760392159224" lon="-4.468868086114526">
        <ele>5.424560546875</ele>
        <time>2011-04-25T14:17:41Z</time>
      </trkpt>
      <trkpt lat="36.666202917695045" lon="-4.467722363770008">
        <ele>5.424560546875</ele>
        <time>2011-04-25T14:17:50Z</time>
      </trkpt>
      <trkpt lat="36.667436147108674" lon="-4.467167565599084">
        <ele>5.424560546875</ele>
        <time>2011-04-25T14:17:57Z</time>
      </trkpt>
      <trkpt lat="36.668626042082906" lon="-4.466992551460862">
        <ele>7.34716796875</ele>
        <time>2011-04-25T14:18:03Z</time>
      </trkpt>
      <trkpt lat="36.670575756579638" lon="-4.466952988877893">
        <ele>7.827880859375</ele>
        <time>2011-04-25T14:18:12Z</time>
      </trkpt>
      <trkpt lat="36.671757018193603" lon="-4.466555770486593">
        <ele>7.827880859375</ele>
        <time>2011-04-25T14:18:18Z</time>
      </trkpt>
      <trkpt lat="36.673035426065326" lon="-4.465665360912681">
        <ele>8.30859375</ele>
        <time>2011-04-25T14:18:25Z</time>
      </trkpt>
      <trkpt lat="36.674864944070578" lon="-4.464270444586873">
        <ele>7.827880859375</ele>
        <time>2011-04-25T14:18:35Z</time>
      </trkpt>
      <trkpt lat="36.676367484033108" lon="-4.463600981980562">
        <ele>7.34716796875</ele>
        <time>2011-04-25T14:18:42Z</time>
      </trkpt>
      <trkpt lat="36.678052749484777" lon="-4.463237458840013">
        <ele>7.827880859375</ele>
        <time>2011-04-25T14:18:49Z</time>
      </trkpt>
      <trkpt lat="36.679565096274018" lon="-4.463054146617651">
        <ele>7.34716796875</ele>
        <time>2011-04-25T14:18:56Z</time>
      </trkpt>
      <trkpt lat="36.682138592004776" lon="-4.46275063790381">
        <ele>4.4632568359375</ele>
        <time>2011-04-25T14:19:08Z</time>
      </trkpt>
      <trkpt lat="36.684406148269773" lon="-4.462420726194978">
        <ele>3.021240234375</ele>
        <time>2011-04-25T14:19:17Z</time>
      </trkpt>
      <trkpt lat="36.686761546880007" lon="-4.46205141954124">
        <ele>3.982666015625</ele>
        <time>2011-04-25T14:19:26Z</time>
      </trkpt>
      <trkpt lat="36.688972190022469" lon="-4.461910435929894">
        <ele>5.9052734375</ele>
        <time>2011-04-25T14:19:35Z</time>
      </trkpt>
      <trkpt lat="36.691035898402333" lon="-4.461442893370986">
        <ele>6.866455078125</ele>
        <time>2011-04-25T14:19:44Z</time>
      </trkpt>
      <trkpt lat="36.692968178540468" lon="-4.460687264800072">
        <ele>8.7891845703125</ele>
        <time>2011-04-25T14:19:53Z</time>
      </trkpt>
      <trkpt lat="36.69526188634336" lon="-4.45960926823318">
        <ele>11.6732177734375</ele>
        <time>2011-04-25T14:20:04Z</time>
      </trkpt>
      <trkpt lat="36.697818534448743" lon="-4.458561865612865">
        <ele>16.96044921875</ele>
        <time>2011-04-25T14:20:16Z</time>
      </trkpt>
      <trkpt lat="36.699433140456676" lon="-4.4580989331007">
        <ele>20.324951171875</ele>
        <time>2011-04-25T14:20:24Z</time>
      </trkpt>
      <trkpt lat="36.701242960989475" lon="-4.457810176536441">
        <ele>20.324951171875</ele>
        <time>2011-04-25T14:20:33Z</time>
      </trkpt>
      <trkpt lat="36.703133499249816" lon="-4.457646561786532">
        <ele>19.8443603515625</ele>
        <time>2011-04-25T14:20:41Z</time>
      </trkpt>
      <trkpt lat="36.705524018034339" lon="-4.457642454653978">
        <ele>17.9217529296875</ele>
        <time>2011-04-25T14:20:50Z</time>
      </trkpt>
      <trkpt lat="36.709300149232149" lon="-4.457777319476008">
        <ele>19.36376953125</ele>
        <time>2011-04-25T14:21:04Z</time>
      </trkpt>
      <trkpt lat="36.713732583448291" lon="-4.457926349714398">
        <ele>26.5736083984375</ele>
        <time>2011-04-25T14:21:20Z</time>
      </trkpt>
      <trkpt lat="36.715463194996119" lon="-4.457983262836933">
        <ele>31.8607177734375</ele>
        <time>2011-04-25T14:21:27Z</time>
      </trkpt>
      <trkpt lat="36.71742464415729" lon="-4.457983933389187">
        <ele>37.1480712890625</ele>
        <time>2011-04-25T14:21:36Z</time>
      </trkpt>
      <trkpt lat="36.718888459727168" lon="-4.457653686404228">
        <ele>40.5128173828125</ele>
        <time>2011-04-25T14:21:43Z</time>
      </trkpt>
      <trkpt lat="36.720379265025258" lon="-4.456938961520791">
        <ele>42.916015625</ele>
        <time>2011-04-25T14:21:50Z</time>
      </trkpt>
      <trkpt lat="36.723725153133273" lon="-4.455024870112538">
        <ele>45.7999267578125</ele>
        <time>2011-04-25T14:22:06Z</time>
      </trkpt>
      <trkpt lat="36.725799674168229" lon="-4.453702624887228">
        <ele>58.7777099609375</ele>
        <time>2011-04-25T14:22:16Z</time>
      </trkpt>
      <trkpt lat="36.727152680978179" lon="-4.453470362350345">
        <ele>68.87158203125</ele>
        <time>2011-04-25T14:22:22Z</time>
      </trkpt>
      <trkpt lat="36.727382596582174" lon="-4.453498693183065">
        <ele>70.3134765625</ele>
        <time>2011-04-25T14:22:23Z</time>
      </trkpt>
      <trkpt lat="36.729238936677575" lon="-4.454022226855159">
        <ele>81.849365234375</ele>
        <time>2011-04-25T14:22:31Z</time>
      </trkpt>
      <trkpt lat="36.730718677863479" lon="-4.454178465530276">
        <ele>91.4625244140625</ele>
        <time>2011-04-25T14:22:37Z</time>
      </trkpt>
      <trkpt lat="36.73245339654386" lon="-4.453922733664513">
        <ele>102.5177001953125</ele>
        <time>2011-04-25T14:22:44Z</time>
      </trkpt>
      <trkpt lat="36.734616933390498" lon="-4.453722070902586">
        <ele>114.0535888671875</ele>
        <time>2011-04-25T14:22:53Z</time>
      </trkpt>
      <trkpt lat="36.736053340137005" lon="-4.454045780003071">
        <ele>115.9761962890625</ele>
        <time>2011-04-25T14:22:59Z</time>
      </trkpt>
      <trkpt lat="36.737285982817411" lon="-4.45400613360107">
        <ele>116.456787109375</ele>
        <time>2011-04-25T14:23:04Z</time>
      </trkpt>
      <trkpt lat="36.738256691023707" lon="-4.453567760065198">
        <ele>116.9375</ele>
        <time>2011-04-25T14:23:08Z</time>
      </trkpt>
      <trkpt lat="36.739079793915153" lon="-4.452760331332684">
        <ele>116.9375</ele>
        <time>2011-04-25T14:23:12Z</time>
      </trkpt>
      <trkpt lat="36.739686727523804" lon="-4.451691722497344">
        <ele>117.418212890625</ele>
        <time>2011-04-25T14:23:16Z</time>
      </trkpt>
      <trkpt lat="36.740171872079372" lon="-4.450121624395251">
        <ele>118.37939453125</ele>
        <time>2011-04-25T14:23:21Z</time>
      </trkpt>
      <trkpt lat="36.740814093500376" lon="-4.447595234960318">
        <ele>119.8214111328125</ele>
        <time>2011-04-25T14:23:29Z</time>
      </trkpt>
      <trkpt lat="36.741593861952424" lon="-4.445860097184777">
        <ele>120.7828369140625</ele>
        <time>2011-04-25T14:23:35Z</time>
      </trkpt>
      <trkpt lat="36.742533976212144" lon="-4.444668358191848">
        <ele>120.7828369140625</ele>
        <time>2011-04-25T14:23:40Z</time>
      </trkpt>
      <trkpt lat="36.744389729574323" lon="-4.442902626469731">
        <ele>121.744140625</ele>
        <time>2011-04-25T14:23:49Z</time>
      </trkpt>
      <trkpt lat="36.745226997882128" lon="-4.442120930179954">
        <ele>121.744140625</ele>
        <time>2011-04-25T14:23:54Z</time>
      </trkpt>
      <trkpt lat="36.746215978637338" lon="-4.440876888111234">
        <ele>116.456787109375</ele>
        <time>2011-04-25T14:24:01Z</time>
      </trkpt>
      <trkpt lat="36.746725346893072" lon="-4.439625972881913">
        <ele>111.1695556640625</ele>
        <time>2011-04-25T14:24:06Z</time>
      </trkpt>
      <trkpt lat="36.746977223083377" lon="-4.437907682731748">
        <ele>106.8436279296875</ele>
        <time>2011-04-25T14:24:12Z</time>
      </trkpt>
      <trkpt lat="36.747374692931771" lon="-4.435827378183603">
        <ele>101.07568359375</ele>
        <time>2011-04-25T14:24:19Z</time>
      </trkpt>
      <trkpt lat="36.748100565746427" lon="-4.434182178229094">
        <ele>94.3465576171875</ele>
        <time>2011-04-25T14:24:25Z</time>
      </trkpt>
      <trkpt lat="36.748999692499638" lon="-4.432932520285249">
        <ele>86.17529296875</ele>
        <time>2011-04-25T14:24:30Z</time>
      </trkpt>
      <trkpt lat="36.750107193365693" lon="-4.431932140141726">
        <ele>77.5234375</ele>
        <time>2011-04-25T14:24:35Z</time>
      </trkpt>
      <trkpt lat="36.751780556514859" lon="-4.430917678400874">
        <ele>64.545654296875</ele>
        <time>2011-04-25T14:24:42Z</time>
      </trkpt>
      <trkpt lat="36.753250239416957" lon="-4.430036153644323">
        <ele>54.932373046875</ele>
        <time>2011-04-25T14:24:49Z</time>
      </trkpt>
      <trkpt lat="36.753993378952146" lon="-4.429040970280767">
        <ele>49.16455078125</ele>
        <time>2011-04-25T14:24:54Z</time>
      </trkpt>
      <trkpt lat="36.754094464704394" lon="-4.428801080211997">
        <ele>48.203369140625</ele>
        <time>2011-04-25T14:24:55Z</time>
      </trkpt>
      <trkpt lat="36.754793431609869" lon="-4.42725227214396">
        <ele>41.9547119140625</ele>
        <time>2011-04-25T14:25:02Z</time>
      </trkpt>
      <trkpt lat="36.75492687150836" lon="-4.427067870274186">
        <ele>40.993408203125</ele>
        <time>2011-04-25T14:25:03Z</time>
      </trkpt>
      <trkpt lat="36.755636734887958" lon="-4.426485160365701">
        <ele>37.628662109375</ele>
        <time>2011-04-25T14:25:07Z</time>
      </trkpt>
      <trkpt lat="36.756039317697287" lon="-4.426312074065208">
        <ele>37.1480712890625</ele>
        <time>2011-04-25T14:25:09Z</time>
      </trkpt>
      <trkpt lat="36.757293166592717" lon="-4.426367562264204">
        <ele>44.3580322265625</ele>
        <time>2011-04-25T14:25:15Z</time>
      </trkpt>
      <trkpt lat="36.758735021576285" lon="-4.426294136792421">
        <ele>51.087158203125</ele>
        <time>2011-04-25T14:25:22Z</time>
      </trkpt>
      <trkpt lat="36.759988199919462" lon="-4.425609838217497">
        <ele>57.3358154296875</ele>
        <time>2011-04-25T14:25:28Z</time>
      </trkpt>
      <trkpt lat="36.761614121496677" lon="-4.424401251599193">
        <ele>65.507080078125</ele>
        <time>2011-04-25T14:25:36Z</time>
      </trkpt>
      <trkpt lat="36.762794377282262" lon="-4.424019120633602">
        <ele>71.27490234375</ele>
        <time>2011-04-25T14:25:41Z</time>
      </trkpt>
      <trkpt lat="36.765434928238392" lon="-4.423621818423271">
        <ele>83.77197265625</ele>
        <time>2011-04-25T14:25:52Z</time>
      </trkpt>
      <trkpt lat="36.766641670837998" lon="-4.423742685467005">
        <ele>90.0206298828125</ele>
        <time>2011-04-25T14:25:57Z</time>
      </trkpt>
      <trkpt lat="36.767828799784184" lon="-4.424268817529082">
        <ele>95.7884521484375</ele>
        <time>2011-04-25T14:26:02Z</time>
      </trkpt>
      <trkpt lat="36.769939363002777" lon="-4.425372797995806">
        <ele>107.3243408203125</ele>
        <time>2011-04-25T14:26:11Z</time>
      </trkpt>
      <trkpt lat="36.771216094493866" lon="-4.425566755235195">
        <ele>114.0535888671875</ele>
        <time>2011-04-25T14:26:16Z</time>
      </trkpt>
      <trkpt lat="36.774615375325084" lon="-4.425526689738035">
        <ele>128.473388671875</ele>
        <time>2011-04-25T14:26:29Z</time>
      </trkpt>
      <trkpt lat="36.77634883671999" lon="-4.425544543191791">
        <ele>131.3572998046875</ele>
        <time>2011-04-25T14:26:36Z</time>
      </trkpt>
      <trkpt lat="36.777437478303909" lon="-4.426071094349027">
        <ele>130.876708984375</ele>
        <time>2011-04-25T14:26:41Z</time>
      </trkpt>
      <trkpt lat="36.778889056295156" lon="-4.427376156672835">
        <ele>129.4346923828125</ele>
        <time>2011-04-25T14:26:49Z</time>
      </trkpt>
      <trkpt lat="36.780079621821642" lon="-4.427989460527897">
        <ele>128.9541015625</ele>
        <time>2011-04-25T14:26:55Z</time>
      </trkpt>
      <trkpt lat="36.780723938718438" lon="-4.428325071930885">
        <ele>128.473388671875</ele>
        <time>2011-04-25T14:26:58Z</time>
      </trkpt>
      <trkpt lat="36.781624490395188" lon="-4.429310783743858">
        <ele>127.511962890625</ele>
        <time>2011-04-25T14:27:03Z</time>
      </trkpt>
      <trkpt lat="36.781867565587163" lon="-4.429843621328473">
        <ele>127.511962890625</ele>
        <time>2011-04-25T14:27:05Z</time>
      </trkpt>
      <trkpt lat="36.782760322093964" lon="-4.432356096804142">
        <ele>128.9541015625</ele>
        <time>2011-04-25T14:27:14Z</time>
      </trkpt>
      <trkpt lat="36.783591639250517" lon="-4.433387070894241">
        <ele>129.4346923828125</ele>
        <time>2011-04-25T14:27:19Z</time>
      </trkpt>
      <trkpt lat="36.784516330808401" lon="-4.4337915815413">
        <ele>129.4346923828125</ele>
        <time>2011-04-25T14:27:23Z</time>
      </trkpt>
      <trkpt lat="36.785525595769286" lon="-4.433662835508585">
        <ele>128.9541015625</ele>
        <time>2011-04-25T14:27:27Z</time>
      </trkpt>
      <trkpt lat="36.788092385977507" lon="-4.432724146172404">
        <ele>132.318603515625</ele>
        <time>2011-04-25T14:27:37Z</time>
      </trkpt>
      <trkpt lat="36.788349878042936" lon="-4.432660527527332">
        <ele>132.79931640625</ele>
        <time>2011-04-25T14:27:38Z</time>
      </trkpt>
      <trkpt lat="36.789640188217163" lon="-4.432789357379079">
        <ele>136.1639404296875</ele>
        <time>2011-04-25T14:27:43Z</time>
      </trkpt>
      <trkpt lat="36.791643127799034" lon="-4.433500645682216">
        <ele>142.4124755859375</ele>
        <time>2011-04-25T14:27:51Z</time>
      </trkpt>
      <trkpt lat="36.793207861483097" lon="-4.433344155550003">
        <ele>147.69970703125</ele>
        <time>2011-04-25T14:27:57Z</time>
      </trkpt>
      <trkpt lat="36.795075517147779" lon="-4.433274418115616">
        <ele>154.9095458984375</ele>
        <time>2011-04-25T14:28:04Z</time>
      </trkpt>
      <trkpt lat="36.796267256140709" lon="-4.433858469128609">
        <ele>158.274169921875</ele>
        <time>2011-04-25T14:28:09Z</time>
      </trkpt>
      <trkpt lat="36.796734044328332" lon="-4.434133060276508">
        <ele>159.2354736328125</ele>
        <time>2011-04-25T14:28:11Z</time>
      </trkpt>
      <trkpt lat="36.798022259026766" lon="-4.43433447740972">
        <ele>164.0421142578125</ele>
        <time>2011-04-25T14:28:16Z</time>
      </trkpt>
      <trkpt lat="36.800617631524801" lon="-4.434062819927931">
        <ele>175.577880859375</ele>
        <time>2011-04-25T14:28:26Z</time>
      </trkpt>
      <trkpt lat="36.801625052466989" lon="-4.434403879567981">
        <ele>178.942626953125</ele>
        <time>2011-04-25T14:28:30Z</time>
      </trkpt>
      <trkpt lat="36.802784437313676" lon="-4.435257744044066">
        <ele>180.865234375</ele>
        <time>2011-04-25T14:28:35Z</time>
      </trkpt>
      <trkpt lat="36.805267492309213" lon="-4.437353974208236">
        <ele>189.9976806640625</ele>
        <time>2011-04-25T14:28:46Z</time>
      </trkpt>
      <trkpt lat="36.806533075869083" lon="-4.438057551160455">
        <ele>192.8817138671875</ele>
        <time>2011-04-25T14:28:51Z</time>
      </trkpt>
      <trkpt lat="36.807621968910098" lon="-4.438223596662283">
        <ele>195.284912109375</ele>
        <time>2011-04-25T14:28:55Z</time>
      </trkpt>
      <trkpt lat="36.809235569089651" lon="-4.438102729618549">
        <ele>197.20751953125</ele>
        <time>2011-04-25T14:29:01Z</time>
      </trkpt>
      <trkpt lat="36.810411047190428" lon="-4.438370782881975">
        <ele>198.6495361328125</ele>
        <time>2011-04-25T14:29:06Z</time>
      </trkpt>
      <trkpt lat="36.811423245817423" lon="-4.43906145170331">
        <ele>200.0916748046875</ele>
        <time>2011-04-25T14:29:11Z</time>
      </trkpt>
      <trkpt lat="36.812223382294178" lon="-4.440135592594743">
        <ele>200.572265625</ele>
        <time>2011-04-25T14:29:16Z</time>
      </trkpt>
      <trkpt lat="36.812713472172618" lon="-4.441504776477814">
        <ele>202.494873046875</ele>
        <time>2011-04-25T14:29:21Z</time>
      </trkpt>
      <trkpt lat="36.812852192670107" lon="-4.442969262599945">
        <ele>205.3787841796875</ele>
        <time>2011-04-25T14:29:26Z</time>
      </trkpt>
      <trkpt lat="36.813065679743886" lon="-4.445635797455907">
        <ele>210.666015625</ele>
        <time>2011-04-25T14:29:35Z</time>
      </trkpt>
      <trkpt lat="36.813496677204967" lon="-4.446723433211446">
        <ele>213.550048828125</ele>
        <time>2011-04-25T14:29:39Z</time>
      </trkpt>
      <trkpt lat="36.814290191978216" lon="-4.447762873023748">
        <ele>217.8759765625</ele>
        <time>2011-04-25T14:29:44Z</time>
      </trkpt>
      <trkpt lat="36.815252183005214" lon="-4.448326053097844">
        <ele>222.6824951171875</ele>
        <time>2011-04-25T14:29:49Z</time>
      </trkpt>
      <trkpt lat="36.81612079963088" lon="-4.448432670906186">
        <ele>225.5665283203125</ele>
        <time>2011-04-25T14:29:53Z</time>
      </trkpt>
      <trkpt lat="36.817376995459199" lon="-4.44793495349586">
        <ele>226.52783203125</ele>
        <time>2011-04-25T14:29:59Z</time>
      </trkpt>
      <trkpt lat="36.817937660962343" lon="-4.447447629645467">
        <ele>227.9697265625</ele>
        <time>2011-04-25T14:30:02Z</time>
      </trkpt>
      <trkpt lat="36.81963013485074" lon="-4.445807794108987">
        <ele>237.102294921875</ele>
        <time>2011-04-25T14:30:11Z</time>
      </trkpt>
      <trkpt lat="36.820786418393254" lon="-4.4452562648803">
        <ele>242.8702392578125</ele>
        <time>2011-04-25T14:30:16Z</time>
      </trkpt>
      <trkpt lat="36.82418997399509" lon="-4.444172317162156">
        <ele>257.2900390625</ele>
        <time>2011-04-25T14:30:30Z</time>
      </trkpt>
      <trkpt lat="36.82545798830688" lon="-4.444040888920426">
        <ele>260.654541015625</ele>
        <time>2011-04-25T14:30:35Z</time>
      </trkpt>
      <trkpt lat="36.826732540503144" lon="-4.444295698776841">
        <ele>264.4998779296875</ele>
        <time>2011-04-25T14:30:40Z</time>
      </trkpt>
      <trkpt lat="36.827934170141816" lon="-4.444929957389832">
        <ele>266.4224853515625</ele>
        <time>2011-04-25T14:30:45Z</time>
      </trkpt>
      <trkpt lat="36.829239735379815" lon="-4.446090934798122">
        <ele>268.8258056640625</ele>
        <time>2011-04-25T14:30:51Z</time>
      </trkpt>
      <trkpt lat="36.830584779381752" lon="-4.447210673242807">
        <ele>273.15185546875</ele>
        <time>2011-04-25T14:30:57Z</time>
      </trkpt>
      <trkpt lat="36.832145825028419" lon="-4.447958925738931">
        <ele>279.4002685546875</ele>
        <time>2011-04-25T14:31:03Z</time>
      </trkpt>
      <trkpt lat="36.833361620083451" lon="-4.448779430240393">
        <ele>283.7261962890625</ele>
        <time>2011-04-25T14:31:08Z</time>
      </trkpt>
      <trkpt lat="36.834563249722123" lon="-4.450117852538824">
        <ele>289.494140625</ele>
        <time>2011-04-25T14:31:14Z</time>
      </trkpt>
      <trkpt lat="36.835880130529404" lon="-4.451290061697364">
        <ele>296.2235107421875</ele>
        <time>2011-04-25T14:31:20Z</time>
      </trkpt>
      <trkpt lat="36.837177984416485" lon="-4.451772859320045">
        <ele>301.0299072265625</ele>
        <time>2011-04-25T14:31:25Z</time>
      </trkpt>
      <trkpt lat="36.83849947527051" lon="-4.4517457857728">
        <ele>304.875244140625</ele>
        <time>2011-04-25T14:31:30Z</time>
      </trkpt>
      <trkpt lat="36.839740499854088" lon="-4.451328618451953">
        <ele>309.201171875</ele>
        <time>2011-04-25T14:31:35Z</time>
      </trkpt>
      <trkpt lat="36.841718545183539" lon="-4.450458744540811">
        <ele>315.4498291015625</ele>
        <time>2011-04-25T14:31:43Z</time>
      </trkpt>
      <trkpt lat="36.84309502132237" lon="-4.450314743444324">
        <ele>317.85302734375</ele>
        <time>2011-04-25T14:31:48Z</time>
      </trkpt>
      <trkpt lat="36.844447860494256" lon="-4.450635183602572">
        <ele>320.25634765625</ele>
        <time>2011-04-25T14:31:53Z</time>
      </trkpt>
      <trkpt lat="36.847138870507479" lon="-4.451370863243938">
        <ele>325.06298828125</ele>
        <time>2011-04-25T14:32:03Z</time>
      </trkpt>
      <trkpt lat="36.848743669688702" lon="-4.45155568420887">
        <ele>329.388916015625</ele>
        <time>2011-04-25T14:32:09Z</time>
      </trkpt>
      <trkpt lat="36.84900208376348" lon="-4.451501872390509">
        <ele>330.3502197265625</ele>
        <time>2011-04-25T14:32:10Z</time>
      </trkpt>
      <trkpt lat="36.850193571299314" lon="-4.450819920748472">
        <ele>332.7535400390625</ele>
        <time>2011-04-25T14:32:15Z</time>
      </trkpt>
      <trkpt lat="36.850881977006793" lon="-4.449942838400602">
        <ele>332.2728271484375</ele>
        <time>2011-04-25T14:32:19Z</time>
      </trkpt>
      <trkpt lat="36.851008627563715" lon="-4.449690375477076">
        <ele>332.7535400390625</ele>
        <time>2011-04-25T14:32:20Z</time>
      </trkpt>
      <trkpt lat="36.85230472125113" lon="-4.446730390191078">
        <ele>338.521484375</ele>
        <time>2011-04-25T14:32:31Z</time>
      </trkpt>
      <trkpt lat="36.853160932660103" lon="-4.445160627365112">
        <ele>342.8472900390625</ele>
        <time>2011-04-25T14:32:37Z</time>
      </trkpt>
      <trkpt lat="36.85428905300796" lon="-4.443859420716763">
        <ele>348.1346435546875</ele>
        <time>2011-04-25T14:32:43Z</time>
      </trkpt>
      <trkpt lat="36.855469727888703" lon="-4.443150898441672">
        <ele>351.9798583984375</ele>
        <time>2011-04-25T14:32:48Z</time>
      </trkpt>
      <trkpt lat="36.856779232621193" lon="-4.442937998101115">
        <ele>354.86376953125</ele>
        <time>2011-04-25T14:32:53Z</time>
      </trkpt>
      <trkpt lat="36.85826157219708" lon="-4.442551843822002">
        <ele>361.5931396484375</ele>
        <time>2011-04-25T14:32:59Z</time>
      </trkpt>
      <trkpt lat="36.859116274863482" lon="-4.441845836117864">
        <ele>365.4383544921875</ele>
        <time>2011-04-25T14:33:03Z</time>
      </trkpt>
      <trkpt lat="36.859751539304852" lon="-4.440874122083187">
        <ele>369.7642822265625</ele>
        <time>2011-04-25T14:33:07Z</time>
      </trkpt>
      <trkpt lat="36.86084789223969" lon="-4.438614444807172">
        <ele>378.4161376953125</ele>
        <time>2011-04-25T14:33:16Z</time>
      </trkpt>
      <trkpt lat="36.861682226881385" lon="-4.43729798309505">
        <ele>384.18408203125</ele>
        <time>2011-04-25T14:33:22Z</time>
      </trkpt>
      <trkpt lat="36.862779082730412" lon="-4.436317468062043">
        <ele>389.47119140625</ele>
        <time>2011-04-25T14:33:28Z</time>
      </trkpt>
      <trkpt lat="36.863919608294964" lon="-4.435410127043724">
        <ele>394.758544921875</ele>
        <time>2011-04-25T14:33:34Z</time>
      </trkpt>
      <trkpt lat="36.865288121625781" lon="-4.435864677652717">
        <ele>400.0458984375</ele>
        <time>2011-04-25T14:33:40Z</time>
      </trkpt>
      <trkpt lat="36.867616279050708" lon="-4.435935588553548">
        <ele>409.6590576171875</ele>
        <time>2011-04-25T14:33:50Z</time>
      </trkpt>
      <trkpt lat="36.870123222470284" lon="-4.436179250478745">
        <ele>419.272216796875</ele>
        <time>2011-04-25T14:34:00Z</time>
      </trkpt>
      <trkpt lat="36.871381346136332" lon="-4.43588680587709">
        <ele>423.5980224609375</ele>
        <time>2011-04-25T14:34:05Z</time>
      </trkpt>
      <trkpt lat="36.873374059796333" lon="-4.435322871431708">
        <ele>430.3272705078125</ele>
        <time>2011-04-25T14:34:13Z</time>
      </trkpt>
      <trkpt lat="36.874809628352523" lon="-4.432527171447873">
        <ele>427.443359375</ele>
        <time>2011-04-25T14:34:23Z</time>
      </trkpt>
      <trkpt lat="36.876406045630574" lon="-4.430878618732095">
        <ele>432.730712890625</ele>
        <time>2011-04-25T14:34:31Z</time>
      </trkpt>
      <trkpt lat="36.878006821498275" lon="-4.429245572537184">
        <ele>440.4212646484375</ele>
        <time>2011-04-25T14:34:39Z</time>
      </trkpt>
      <trkpt lat="36.878877952694893" lon="-4.42760263569653">
        <ele>446.669677734375</ele>
        <time>2011-04-25T14:34:45Z</time>
      </trkpt>
      <trkpt lat="36.880210088565946" lon="-4.425095776095986">
        <ele>456.7635498046875</ele>
        <time>2011-04-25T14:34:54Z</time>
      </trkpt>
      <trkpt lat="36.881268555298448" lon="-4.424020126461983">
        <ele>460.128173828125</ele>
        <time>2011-04-25T14:34:59Z</time>
      </trkpt>
      <trkpt lat="36.882573533803225" lon="-4.423323841765523">
        <ele>461.0894775390625</ele>
        <time>2011-04-25T14:35:04Z</time>
      </trkpt>
      <trkpt lat="36.885698474943638" lon="-4.422172335907817">
        <ele>461.0894775390625</ele>
        <time>2011-04-25T14:35:15Z</time>
      </trkpt>
      <trkpt lat="36.888800784945488" lon="-4.421137422323227">
        <ele>463.973388671875</ele>
        <time>2011-04-25T14:35:26Z</time>
      </trkpt>
      <trkpt lat="36.890244986861944" lon="-4.421063074842095">
        <ele>465.41552734375</ele>
        <time>2011-04-25T14:35:31Z</time>
      </trkpt>
      <trkpt lat="36.891664043068886" lon="-4.421377647668123">
        <ele>467.338134765625</ele>
        <time>2011-04-25T14:35:36Z</time>
      </trkpt>
      <trkpt lat="36.893204469233751" lon="-4.422112321481109">
        <ele>468.780029296875</ele>
        <time>2011-04-25T14:35:42Z</time>
      </trkpt>
      <trkpt lat="36.894469130784273" lon="-4.422798380255699">
        <ele>469.7413330078125</ele>
        <time>2011-04-25T14:35:48Z</time>
      </trkpt>
      <trkpt lat="36.895447047427297" lon="-4.423549566417933">
        <ele>473.586669921875</ele>
        <time>2011-04-25T14:35:54Z</time>
      </trkpt>
      <trkpt lat="36.896182727068663" lon="-4.424610966816545">
        <ele>478.3931884765625</ele>
        <time>2011-04-25T14:36:00Z</time>
      </trkpt>
      <trkpt lat="36.896598134189844" lon="-4.425750486552715">
        <ele>481.2772216796875</ele>
        <time>2011-04-25T14:36:05Z</time>
      </trkpt>
      <trkpt lat="36.896747164428234" lon="-4.427130566909909">
        <ele>487.525634765625</ele>
        <time>2011-04-25T14:36:10Z</time>
      </trkpt>
      <trkpt lat="36.896668877452612" lon="-4.429545477032661">
        <ele>496.6583251953125</ele>
        <time>2011-04-25T14:36:18Z</time>
      </trkpt>
      <trkpt lat="36.896792678162456" lon="-4.431353788822889">
        <ele>506.271484375</ele>
        <time>2011-04-25T14:36:24Z</time>
      </trkpt>
      <trkpt lat="36.89738804474473" lon="-4.434007918462157">
        <ele>517.8072509765625</ele>
        <time>2011-04-25T14:36:33Z</time>
      </trkpt>
      <trkpt lat="36.898111151531339" lon="-4.435304347425699">
        <ele>521.652587890625</ele>
        <time>2011-04-25T14:36:38Z</time>
      </trkpt>
      <trkpt lat="36.899280427023768" lon="-4.436628520488739">
        <ele>521.1719970703125</ele>
        <time>2011-04-25T14:36:44Z</time>
      </trkpt>
      <trkpt lat="36.901177586987615" lon="-4.438711926341057">
        <ele>511.0780029296875</ele>
        <time>2011-04-25T14:36:53Z</time>
      </trkpt>
      <trkpt lat="36.902522966265678" lon="-4.440577989444137">
        <ele>502.90673828125</ele>
        <time>2011-04-25T14:37:00Z</time>
      </trkpt>
      <trkpt lat="36.904422137886286" lon="-4.443802759051323">
        <ele>498.100341796875</ele>
        <time>2011-04-25T14:37:11Z</time>
      </trkpt>
      <trkpt lat="36.905387230217457" lon="-4.44508133456111">
        <ele>497.138916015625</ele>
        <time>2011-04-25T14:37:16Z</time>
      </trkpt>
      <trkpt lat="36.906381156295538" lon="-4.445757083594799">
        <ele>497.138916015625</ele>
        <time>2011-04-25T14:37:20Z</time>
      </trkpt>
      <trkpt lat="36.9074762519449" lon="-4.446069058030844">
        <ele>495.6968994140625</ele>
        <time>2011-04-25T14:37:24Z</time>
      </trkpt>
      <trkpt lat="36.908019734546542" lon="-4.446105351671577">
        <ele>495.2161865234375</ele>
        <time>2011-04-25T14:37:26Z</time>
      </trkpt>
      <trkpt lat="36.909335693344474" lon="-4.445659350603819">
        <ele>494.735595703125</ele>
        <time>2011-04-25T14:37:31Z</time>
      </trkpt>
      <trkpt lat="36.91086539067328" lon="-4.444578755646944">
        <ele>494.2550048828125</ele>
        <time>2011-04-25T14:37:38Z</time>
      </trkpt>
      <trkpt lat="36.91248225979507" lon="-4.44344736635685">
        <ele>495.2161865234375</ele>
        <time>2011-04-25T14:37:45Z</time>
      </trkpt>
      <trkpt lat="36.913531087338924" lon="-4.443184845149517">
        <ele>498.100341796875</ele>
        <time>2011-04-25T14:37:49Z</time>
      </trkpt>
      <trkpt lat="36.914753671735525" lon="-4.443312333896756">
        <ele>500.5035400390625</ele>
        <time>2011-04-25T14:37:54Z</time>
      </trkpt>
      <trkpt lat="36.915856143459678" lon="-4.443886326625943">
        <ele>501.46484375</ele>
        <time>2011-04-25T14:37:59Z</time>
      </trkpt>
      <trkpt lat="36.917503522709012" lon="-4.445174289867282">
        <ele>506.7520751953125</ele>
        <time>2011-04-25T14:38:07Z</time>
      </trkpt>
      <trkpt lat="36.919152829796076" lon="-4.44613485597074">
        <ele>510.5972900390625</ele>
        <time>2011-04-25T14:38:14Z</time>
      </trkpt>
      <trkpt lat="36.921183178201318" lon="-4.446895932778716">
        <ele>518.7685546875</ele>
        <time>2011-04-25T14:38:22Z</time>
      </trkpt>
      <trkpt lat="36.9230732973665" lon="-4.44719466380775">
        <ele>525.9783935546875</ele>
        <time>2011-04-25T14:38:29Z</time>
      </trkpt>
      <trkpt lat="36.925030220299959" lon="-4.447180163115263">
        <ele>535.1109619140625</ele>
        <time>2011-04-25T14:38:36Z</time>
      </trkpt>
      <trkpt lat="36.926939031109214" lon="-4.446834996342659">
        <ele>544.24365234375</ele>
        <time>2011-04-25T14:38:43Z</time>
      </trkpt>
      <trkpt lat="36.930090459063649" lon="-4.446189422160387">
        <ele>550.011474609375</ele>
        <time>2011-04-25T14:38:55Z</time>
      </trkpt>
      <trkpt lat="36.932273525744677" lon="-4.445571340620518">
        <ele>553.3759765625</ele>
        <time>2011-04-25T14:39:04Z</time>
      </trkpt>
      <trkpt lat="36.933296117931604" lon="-4.444852257147431">
        <ele>557.221435546875</ele>
        <time>2011-04-25T14:39:09Z</time>
      </trkpt>
      <trkpt lat="36.93412802182138" lon="-4.443810470402241">
        <ele>562.028076171875</ele>
        <time>2011-04-25T14:39:14Z</time>
      </trkpt>
      <trkpt lat="36.935008959844708" lon="-4.442060748115182">
        <ele>571.160400390625</ele>
        <time>2011-04-25T14:39:21Z</time>
      </trkpt>
      <trkpt lat="36.935880091041327" lon="-4.44060648791492">
        <ele>578.85107421875</ele>
        <time>2011-04-25T14:39:27Z</time>
      </trkpt>
      <trkpt lat="36.936883321031928" lon="-4.439678778871894">
        <ele>584.13818359375</ele>
        <time>2011-04-25T14:39:32Z</time>
      </trkpt>
      <trkpt lat="36.938116131350398" lon="-4.439114760607481">
        <ele>588.46435546875</ele>
        <time>2011-04-25T14:39:37Z</time>
      </trkpt>
      <trkpt lat="36.939476933330297" lon="-4.438998838886619">
        <ele>592.790283203125</ele>
        <time>2011-04-25T14:39:42Z</time>
      </trkpt>
      <trkpt lat="36.941399993374944" lon="-4.439374851062894">
        <ele>602.403076171875</ele>
        <time>2011-04-25T14:39:49Z</time>
      </trkpt>
      <trkpt lat="36.945031536743045" lon="-4.440175574272871">
        <ele>622.591064453125</ele>
        <time>2011-04-25T14:40:03Z</time>
      </trkpt>
      <trkpt lat="36.947778454050422" lon="-4.440435161814094">
        <ele>637.491455078125</ele>
        <time>2011-04-25T14:40:14Z</time>
      </trkpt>
      <trkpt lat="36.949432035908103" lon="-4.440655186772347">
        <ele>647.1044921875</ele>
        <time>2011-04-25T14:40:21Z</time>
      </trkpt>
      <trkpt lat="36.950513636693358" lon="-4.44125248119235">
        <ele>654.795166015625</ele>
        <time>2011-04-25T14:40:26Z</time>
      </trkpt>
      <trkpt lat="36.951430281624198" lon="-4.442184632644057">
        <ele>662.485595703125</ele>
        <time>2011-04-25T14:40:31Z</time>
      </trkpt>
      <trkpt lat="36.952791418880224" lon="-4.444056730717421">
        <ele>677.38623046875</ele>
        <time>2011-04-25T14:40:40Z</time>
      </trkpt>
      <trkpt lat="36.953928843140602" lon="-4.445302365347743">
        <ele>690.364013671875</ele>
        <time>2011-04-25T14:40:47Z</time>
      </trkpt>
      <trkpt lat="36.955233067274094" lon="-4.446210796013475">
        <ele>702.861083984375</ele>
        <time>2011-04-25T14:40:54Z</time>
      </trkpt>
      <trkpt lat="36.956647597253323" lon="-4.446738688275218">
        <ele>713.435546875</ele>
        <time>2011-04-25T14:41:01Z</time>
      </trkpt>
      <trkpt lat="36.958093559369445" lon="-4.446905739605427">
        <ele>724.010009765625</ele>
        <time>2011-04-25T14:41:08Z</time>
      </trkpt>
      <trkpt lat="36.959717553108931" lon="-4.44667624309659">
        <ele>737.94921875</ele>
        <time>2011-04-25T14:41:16Z</time>
      </trkpt>
      <trkpt lat="36.961447494104505" lon="-4.446071740239859">
        <ele>751.888427734375</ele>
        <time>2011-04-25T14:41:25Z</time>
      </trkpt>
      <trkpt lat="36.963134771212935" lon="-4.445072533562779">
        <ele>764.385498046875</ele>
        <time>2011-04-25T14:41:34Z</time>
      </trkpt>
      <trkpt lat="36.96543937548995" lon="-4.443305879831314">
        <ele>782.169921875</ele>
        <time>2011-04-25T14:41:47Z</time>
      </trkpt>
      <trkpt lat="36.966637736186385" lon="-4.442179016768932">
        <ele>793.224853515625</ele>
        <time>2011-04-25T14:41:54Z</time>
      </trkpt>
      <trkpt lat="36.967812543734908" lon="-4.440487381070852">
        <ele>806.20263671875</ele>
        <time>2011-04-25T14:42:02Z</time>
      </trkpt>
      <trkpt lat="36.969202598556876" lon="-4.438297776505351">
        <ele>812.93212890625</ele>
        <time>2011-04-25T14:42:11Z</time>
      </trkpt>
      <trkpt lat="36.970784096047282" lon="-4.435807848349214">
        <ele>809.086669921875</ele>
        <time>2011-04-25T14:42:20Z</time>
      </trkpt>
      <trkpt lat="36.971648689359426" lon="-4.434036249294877">
        <ele>802.838134765625</ele>
        <time>2011-04-25T14:42:26Z</time>
      </trkpt>
      <trkpt lat="36.972057474777102" lon="-4.432325754314661">
        <ele>795.628173828125</ele>
        <time>2011-04-25T14:42:31Z</time>
      </trkpt>
      <trkpt lat="36.972319325432181" lon="-4.429740523919463">
        <ele>785.534423828125</ele>
        <time>2011-04-25T14:42:38Z</time>
      </trkpt>
      <trkpt lat="36.972775887697935" lon="-4.426065059378743">
        <ele>772.075927734375</ele>
        <time>2011-04-25T14:42:48Z</time>
      </trkpt>
      <trkpt lat="36.973464963957667" lon="-4.422548180446029">
        <ele>759.578857421875</ele>
        <time>2011-04-25T14:42:58Z</time>
      </trkpt>
      <trkpt lat="36.974554024636745" lon="-4.418082470074296">
        <ele>742.275146484375</ele>
        <time>2011-04-25T14:43:11Z</time>
      </trkpt>
      <trkpt lat="36.975661441683769" lon="-4.414454782381654">
        <ele>728.816650390625</ele>
        <time>2011-04-25T14:43:22Z</time>
      </trkpt>
      <trkpt lat="36.976659223437309" lon="-4.412192087620497">
        <ele>720.6455078125</ele>
        <time>2011-04-25T14:43:29Z</time>
      </trkpt>
      <trkpt lat="36.978568788617849" lon="-4.408122338354588">
        <ele>702.861083984375</ele>
        <time>2011-04-25T14:43:42Z</time>
      </trkpt>
      <trkpt lat="36.9801807962358" lon="-4.405112564563751">
        <ele>689.402587890625</ele>
        <time>2011-04-25T14:43:52Z</time>
      </trkpt>
      <trkpt lat="36.981368595734239" lon="-4.403561325743794">
        <ele>684.115478515625</ele>
        <time>2011-04-25T14:43:58Z</time>
      </trkpt>
      <trkpt lat="36.982987141236663" lon="-4.402070185169578">
        <ele>678.828125</ele>
        <time>2011-04-25T14:44:05Z</time>
      </trkpt>
      <trkpt lat="36.984547767788172" lon="-4.401105092838407">
        <ele>674.502197265625</ele>
        <time>2011-04-25T14:44:11Z</time>
      </trkpt>
      <trkpt lat="36.986227668821812" lon="-4.400473097339273">
        <ele>670.656982421875</ele>
        <time>2011-04-25T14:44:17Z</time>
      </trkpt>
      <trkpt lat="36.988840559497476" lon="-4.399984767660499">
        <ele>662.96630859375</ele>
        <time>2011-04-25T14:44:26Z</time>
      </trkpt>
      <trkpt lat="36.99196214787662" lon="-4.399374229833484">
        <ele>654.314697265625</ele>
        <time>2011-04-25T14:44:37Z</time>
      </trkpt>
      <trkpt lat="36.994237918406725" lon="-4.398803925141692">
        <ele>644.701171875</ele>
        <time>2011-04-25T14:44:45Z</time>
      </trkpt>
      <trkpt lat="36.99718264862895" lon="-4.39849253743887">
        <ele>634.607421875</ele>
        <time>2011-04-25T14:44:55Z</time>
      </trkpt>
      <trkpt lat="36.999457832425833" lon="-4.398050643503666">
        <ele>629.320068359375</ele>
        <time>2011-04-25T14:45:03Z</time>
      </trkpt>
      <trkpt lat="37.001364631578326" lon="-4.397254530340433">
        <ele>627.397705078125</ele>
        <time>2011-04-25T14:45:10Z</time>
      </trkpt>
      <trkpt lat="37.003113348037004" lon="-4.396065976470709">
        <ele>627.878173828125</ele>
        <time>2011-04-25T14:45:17Z</time>
      </trkpt>
      <trkpt lat="37.004648242145777" lon="-4.394575171172619">
        <ele>628.839599609375</ele>
        <time>2011-04-25T14:45:24Z</time>
      </trkpt>
      <trkpt lat="37.006834242492914" lon="-4.392006788402796">
        <ele>628.35888671875</ele>
        <time>2011-04-25T14:45:35Z</time>
      </trkpt>
      <trkpt lat="37.008592430502176" lon="-4.390399223193526">
        <ele>628.35888671875</ele>
        <time>2011-04-25T14:45:43Z</time>
      </trkpt>
      <trkpt lat="37.010059598833323" lon="-4.38950814306736">
        <ele>630.281494140625</ele>
        <time>2011-04-25T14:45:49Z</time>
      </trkpt>
      <trkpt lat="37.011859193444252" lon="-4.388822922483087">
        <ele>635.088134765625</ele>
        <time>2011-04-25T14:45:56Z</time>
      </trkpt>
      <trkpt lat="37.013708744198084" lon="-4.38857045955956">
        <ele>640.85595703125</ele>
        <time>2011-04-25T14:46:03Z</time>
      </trkpt>
      <trkpt lat="37.015587044879794" lon="-4.388707587495446">
        <ele>646.6240234375</ele>
        <time>2011-04-25T14:46:10Z</time>
      </trkpt>
      <trkpt lat="37.018872331827879" lon="-4.389318963512778">
        <ele>659.12109375</ele>
        <time>2011-04-25T14:46:22Z</time>
      </trkpt>
      <trkpt lat="37.021066378802061" lon="-4.389615682885051">
        <ele>668.253662109375</ele>
        <time>2011-04-25T14:46:30Z</time>
      </trkpt>
      <trkpt lat="37.023554043844342" lon="-4.389612162485719">
        <ele>679.30859375</ele>
        <time>2011-04-25T14:46:39Z</time>
      </trkpt>
      <trkpt lat="37.027188688516617" lon="-4.389110589399934">
        <ele>694.689697265625</ele>
        <time>2011-04-25T14:46:52Z</time>
      </trkpt>
      <trkpt lat="37.029451886191964" lon="-4.388983687385917">
        <ele>704.30322265625</ele>
        <time>2011-04-25T14:47:00Z</time>
      </trkpt>
      <trkpt lat="37.031957237049937" lon="-4.389202622696757">
        <ele>714.87744140625</ele>
        <time>2011-04-25T14:47:09Z</time>
      </trkpt>
      <trkpt lat="37.034495277330279" lon="-4.389321645721793">
        <ele>724.971435546875</ele>
        <time>2011-04-25T14:47:18Z</time>
      </trkpt>
      <trkpt lat="37.036211052909493" lon="-4.388953177258372">
        <ele>729.297119140625</ele>
        <time>2011-04-25T14:47:24Z</time>
      </trkpt>
      <trkpt lat="37.037849882617593" lon="-4.388165529817343">
        <ele>733.142578125</ele>
        <time>2011-04-25T14:47:30Z</time>
      </trkpt>
      <trkpt lat="37.039259467273951" lon="-4.38702592626214">
        <ele>736.026611328125</ele>
        <time>2011-04-25T14:47:36Z</time>
      </trkpt>
      <trkpt lat="37.040473585948348" lon="-4.38562992028892">
        <ele>740.8330078125</ele>
        <time>2011-04-25T14:47:42Z</time>
      </trkpt>
      <trkpt lat="37.041467344388366" lon="-4.383958484977484">
        <ele>746.120361328125</ele>
        <time>2011-04-25T14:47:48Z</time>
      </trkpt>
      <trkpt lat="37.04268372617662" lon="-4.381206622347236">
        <ele>753.81103515625</ele>
        <time>2011-04-25T14:47:57Z</time>
      </trkpt>
      <trkpt lat="37.043656362220645" lon="-4.379441225901246">
        <ele>758.617431640625</ele>
        <time>2011-04-25T14:48:03Z</time>
      </trkpt>
      <trkpt lat="37.044899482280016" lon="-4.37794279307127">
        <ele>759.578857421875</ele>
        <time>2011-04-25T14:48:09Z</time>
      </trkpt>
      <trkpt lat="37.04723241738975" lon="-4.375228229910135">
        <ele>757.65625</ele>
        <time>2011-04-25T14:48:20Z</time>
      </trkpt>
      <trkpt lat="37.048636386170983" lon="-4.372994368895888">
        <ele>755.2529296875</ele>
        <time>2011-04-25T14:48:28Z</time>
      </trkpt>
      <trkpt lat="37.049797028303146" lon="-4.37056839466095">
        <ele>753.81103515625</ele>
        <time>2011-04-25T14:48:36Z</time>
      </trkpt>
      <trkpt lat="37.05169502645731" lon="-4.365890119224787">
        <ele>751.888427734375</ele>
        <time>2011-04-25T14:48:51Z</time>
      </trkpt>
      <trkpt lat="37.053471151739359" lon="-4.361444860696793">
        <ele>755.2529296875</ele>
        <time>2011-04-25T14:49:05Z</time>
      </trkpt>
      <trkpt lat="37.054888866841793" lon="-4.358146749436855">
        <ele>755.2529296875</ele>
        <time>2011-04-25T14:49:15Z</time>
      </trkpt>
      <trkpt lat="37.056601960211992" lon="-4.354583434760571">
        <ele>753.81103515625</ele>
        <time>2011-04-25T14:49:26Z</time>
      </trkpt>
      <trkpt lat="37.058580089360476" lon="-4.351013246923685">
        <ele>751.888427734375</ele>
        <time>2011-04-25T14:49:38Z</time>
      </trkpt>
      <trkpt lat="37.060473561286926" lon="-4.348006155341864">
        <ele>749.9658203125</ele>
        <time>2011-04-25T14:49:49Z</time>
      </trkpt>
      <trkpt lat="37.063163565471768" lon="-4.34393716044724">
        <ele>749.485107421875</ele>
        <time>2011-04-25T14:50:04Z</time>
      </trkpt>
      <trkpt lat="37.064429316669703" lon="-4.341498026624322">
        <ele>749.9658203125</ele>
        <time>2011-04-25T14:50:12Z</time>
      </trkpt>
      <trkpt lat="37.06526767462492" lon="-4.339148495346308">
        <ele>750.446533203125</ele>
        <time>2011-04-25T14:50:19Z</time>
      </trkpt>
      <trkpt lat="37.065817695111036" lon="-4.336728975176811">
        <ele>748.523681640625</ele>
        <time>2011-04-25T14:50:26Z</time>
      </trkpt>
      <trkpt lat="37.066233772784472" lon="-4.333526082336903">
        <ele>744.19775390625</ele>
        <time>2011-04-25T14:50:35Z</time>
      </trkpt>
      <trkpt lat="37.066641468554735" lon="-4.331114357337356">
        <ele>740.8330078125</ele>
        <time>2011-04-25T14:50:42Z</time>
      </trkpt>
      <trkpt lat="37.06731746904552" lon="-4.329141089692712">
        <ele>739.871826171875</ele>
        <time>2011-04-25T14:50:48Z</time>
      </trkpt>
      <trkpt lat="37.068285746499896" lon="-4.327352056279779">
        <ele>739.39111328125</ele>
        <time>2011-04-25T14:50:54Z</time>
      </trkpt>
      <trkpt lat="37.069699354469776" lon="-4.32550166733563">
        <ele>739.39111328125</ele>
        <time>2011-04-25T14:51:01Z</time>
      </trkpt>
      <trkpt lat="37.071878146380186" lon="-4.323012325912714">
        <ele>739.871826171875</ele>
        <time>2011-04-25T14:51:11Z</time>
      </trkpt>
      <trkpt lat="37.073960965499282" lon="-4.321088679134846">
        <ele>740.3525390625</ele>
        <time>2011-04-25T14:51:20Z</time>
      </trkpt>
      <trkpt lat="37.076203878968954" lon="-4.319506259635091">
        <ele>740.8330078125</ele>
        <time>2011-04-25T14:51:29Z</time>
      </trkpt>
      <trkpt lat="37.078613927587867" lon="-4.318252829834819">
        <ele>741.313720703125</ele>
        <time>2011-04-25T14:51:38Z</time>
      </trkpt>
      <trkpt lat="37.081610877066851" lon="-4.317091349512339">
        <ele>741.79443359375</ele>
        <time>2011-04-25T14:51:49Z</time>
      </trkpt>
      <trkpt lat="37.084424933418632" lon="-4.31642247363925">
        <ele>743.236328125</ele>
        <time>2011-04-25T14:51:59Z</time>
      </trkpt>
      <trkpt lat="37.086685197427869" lon="-4.316172190010548">
        <ele>744.67822265625</ele>
        <time>2011-04-25T14:52:07Z</time>
      </trkpt>
      <trkpt lat="37.089526494964957" lon="-4.315603477880359">
        <ele>746.120361328125</ele>
        <time>2011-04-25T14:52:17Z</time>
      </trkpt>
      <trkpt lat="37.091604452580214" lon="-4.315509181469679">
        <ele>746.120361328125</ele>
        <time>2011-04-25T14:52:24Z</time>
      </trkpt>
      <trkpt lat="37.095410255715251" lon="-4.315555617213249">
        <ele>751.40771484375</ele>
        <time>2011-04-25T14:52:37Z</time>
      </trkpt>
      <trkpt lat="37.097986685112119" lon="-4.315366856753826">
        <ele>756.214111328125</ele>
        <time>2011-04-25T14:52:46Z</time>
      </trkpt>
      <trkpt lat="37.099971771240234" lon="-4.314830247312784">
        <ele>759.09814453125</ele>
        <time>2011-04-25T14:52:53Z</time>
      </trkpt>
      <trkpt lat="37.10188209079206" lon="-4.313940340653062">
        <ele>760.5400390625</ele>
        <time>2011-04-25T14:53:00Z</time>
      </trkpt>
      <trkpt lat="37.104739397764206" lon="-4.312208136543632">
        <ele>763.904541015625</ele>
        <time>2011-04-25T14:53:11Z</time>
      </trkpt>
      <trkpt lat="37.107178196310997" lon="-4.31036252528429">
        <ele>766.788818359375</ele>
        <time>2011-04-25T14:53:21Z</time>
      </trkpt>
      <trkpt lat="37.109765354543924" lon="-4.308061525225639">
        <ele>768.230712890625</ele>
        <time>2011-04-25T14:53:32Z</time>
      </trkpt>
      <trkpt lat="37.112187556922436" lon="-4.305485263466835">
        <ele>767.26953125</ele>
        <time>2011-04-25T14:53:43Z</time>
      </trkpt>
      <trkpt lat="37.11438269354403" lon="-4.302690317854285">
        <ele>766.30810546875</ele>
        <time>2011-04-25T14:53:54Z</time>
      </trkpt>
      <trkpt lat="37.116056978702545" lon="-4.300194773823023">
        <ele>766.788818359375</ele>
        <time>2011-04-25T14:54:03Z</time>
      </trkpt>
      <trkpt lat="37.118354961276054" lon="-4.296483099460602">
        <ele>767.75</ele>
        <time>2011-04-25T14:54:16Z</time>
      </trkpt>
      <trkpt lat="37.119843335822225" lon="-4.294744776561856">
        <ele>768.230712890625</ele>
        <time>2011-04-25T14:54:23Z</time>
      </trkpt>
      <trkpt lat="37.121459282934666" lon="-4.293348267674446">
        <ele>768.230712890625</ele>
        <time>2011-04-25T14:54:30Z</time>
      </trkpt>
      <trkpt lat="37.123235324397683" lon="-4.292263146489859">
        <ele>763.424072265625</ele>
        <time>2011-04-25T14:54:37Z</time>
      </trkpt>
      <trkpt lat="37.125368351116776" lon="-4.291365863755345">
        <ele>752.368896484375</ele>
        <time>2011-04-25T14:54:45Z</time>
      </trkpt>
      <trkpt lat="37.127440441399813" lon="-4.290494481101632">
        <ele>739.39111328125</ele>
        <time>2011-04-25T14:54:53Z</time>
      </trkpt>
      <trkpt lat="37.12868046015501" lon="-4.28956258110702">
        <ele>734.584716796875</ele>
        <time>2011-04-25T14:54:58Z</time>
      </trkpt>
      <trkpt lat="37.129743788391352" lon="-4.288288867101073">
        <ele>732.181396484375</ele>
        <time>2011-04-25T14:55:03Z</time>
      </trkpt>
      <trkpt lat="37.131219925358891" lon="-4.28646806627512">
        <ele>731.700439453125</ele>
        <time>2011-04-25T14:55:10Z</time>
      </trkpt>
      <trkpt lat="37.132501183077693" lon="-4.28556315600872">
        <ele>730.7392578125</ele>
        <time>2011-04-25T14:55:15Z</time>
      </trkpt>
      <trkpt lat="37.134528765454888" lon="-4.284216267988086">
        <ele>726.413330078125</ele>
        <time>2011-04-25T14:55:23Z</time>
      </trkpt>
      <trkpt lat="37.135620759800076" lon="-4.283029055222869">
        <ele>726.413330078125</ele>
        <time>2011-04-25T14:55:28Z</time>
      </trkpt>
      <trkpt lat="37.136893132701516" lon="-4.28108973428607">
        <ele>728.816650390625</ele>
        <time>2011-04-25T14:55:35Z</time>
      </trkpt>
      <trkpt lat="37.138376478105783" lon="-4.278406854718924">
        <ele>734.584716796875</ele>
        <time>2011-04-25T14:55:44Z</time>
      </trkpt>
      <trkpt lat="37.139461431652308" lon="-4.275908544659615">
        <ele>746.120361328125</ele>
        <time>2011-04-25T14:55:52Z</time>
      </trkpt>
      <trkpt lat="37.140194596722722" lon="-4.273317446932197">
        <ele>755.733642578125</ele>
        <time>2011-04-25T14:56:00Z</time>
      </trkpt>
      <trkpt lat="37.141142589971423" lon="-4.270330974832177">
        <ele>759.09814453125</ele>
        <time>2011-04-25T14:56:09Z</time>
      </trkpt>
      <trkpt lat="37.142075495794415" lon="-4.267918830737472">
        <ele>756.214111328125</ele>
        <time>2011-04-25T14:56:17Z</time>
      </trkpt>
      <trkpt lat="37.142807822674513" lon="-4.265763340517879">
        <ele>750.446533203125</ele>
        <time>2011-04-25T14:56:25Z</time>
      </trkpt>
      <trkpt lat="37.143192384392023" lon="-4.263860564678907">
        <ele>742.755859375</ele>
        <time>2011-04-25T14:56:31Z</time>
      </trkpt>
      <trkpt lat="37.143723545596004" lon="-4.260752890259028">
        <ele>736.50732421875</ele>
        <time>2011-04-25T14:56:40Z</time>
      </trkpt>
      <trkpt lat="37.144396947696805" lon="-4.258778365328908">
        <ele>734.584716796875</ele>
        <time>2011-04-25T14:56:46Z</time>
      </trkpt>
      <trkpt lat="37.145518781617284" lon="-4.256122056394815">
        <ele>731.700439453125</ele>
        <time>2011-04-25T14:56:54Z</time>
      </trkpt>
      <trkpt lat="37.146121356636286" lon="-4.253969667479396">
        <ele>729.297119140625</ele>
        <time>2011-04-25T14:57:00Z</time>
      </trkpt>
      <trkpt lat="37.146421764045954" lon="-4.25174854695797">
        <ele>724.49072265625</ele>
        <time>2011-04-25T14:57:06Z</time>
      </trkpt>
      <trkpt lat="37.146411873400211" lon="-4.24955022521317">
        <ele>717.761474609375</ele>
        <time>2011-04-25T14:57:12Z</time>
      </trkpt>
      <trkpt lat="37.146120518445969" lon="-4.247452234849334">
        <ele>708.62890625</ele>
        <time>2011-04-25T14:57:18Z</time>
      </trkpt>
      <trkpt lat="37.145520793274045" lon="-4.244517395272851">
        <ele>694.689697265625</ele>
        <time>2011-04-25T14:57:27Z</time>
      </trkpt>
      <trkpt lat="37.145535377785563" lon="-4.242923995479941">
        <ele>687.47998046875</ele>
        <time>2011-04-25T14:57:32Z</time>
      </trkpt>
      <trkpt lat="37.145699327811599" lon="-4.240662893280387">
        <ele>677.38623046875</ele>
        <time>2011-04-25T14:57:39Z</time>
      </trkpt>
      <trkpt lat="37.14546287432313" lon="-4.23903152346611">
        <ele>670.17626953125</ele>
        <time>2011-04-25T14:57:44Z</time>
      </trkpt>
      <trkpt lat="37.145336726680398" lon="-4.237347263842821">
        <ele>662.96630859375</ele>
        <time>2011-04-25T14:57:49Z</time>
      </trkpt>
      <trkpt lat="37.145564630627632" lon="-4.235958550125361">
        <ele>657.198486328125</ele>
        <time>2011-04-25T14:57:53Z</time>
      </trkpt>
      <trkpt lat="37.146089924499393" lon="-4.23466949723661">
        <ele>650.94970703125</ele>
        <time>2011-04-25T14:57:57Z</time>
      </trkpt>
      <trkpt lat="37.146870782598853" lon="-4.233599379658699">
        <ele>644.220703125</ele>
        <time>2011-04-25T14:58:01Z</time>
      </trkpt>
      <trkpt lat="37.1480702329427" lon="-4.232048559933901">
        <ele>635.088134765625</ele>
        <time>2011-04-25T14:58:07Z</time>
      </trkpt>
      <trkpt lat="37.148500140756369" lon="-4.230743246152997">
        <ele>628.35888671875</ele>
        <time>2011-04-25T14:58:11Z</time>
      </trkpt>
      <trkpt lat="37.148738522082567" lon="-4.228975670412183">
        <ele>620.66845703125</ele>
        <time>2011-04-25T14:58:16Z</time>
      </trkpt>
      <trkpt lat="37.148920828476548" lon="-4.228303525596857">
        <ele>617.7841796875</ele>
        <time>2011-04-25T14:58:18Z</time>
      </trkpt>
      <trkpt lat="37.149776620790362" lon="-4.226887738332152">
        <ele>610.574462890625</ele>
        <time>2011-04-25T14:58:23Z</time>
      </trkpt>
      <trkpt lat="37.150734588503838" lon="-4.226174270734191">
        <ele>603.364501953125</ele>
        <time>2011-04-25T14:58:27Z</time>
      </trkpt>
      <trkpt lat="37.151266671717167" lon="-4.225985426455736">
        <ele>599.03857421875</ele>
        <time>2011-04-25T14:58:29Z</time>
      </trkpt>
      <trkpt lat="37.153465831652284" lon="-4.225275982171297">
        <ele>583.1767578125</ele>
        <time>2011-04-25T14:58:37Z</time>
      </trkpt>
      <trkpt lat="37.154662935063243" lon="-4.224257497116923">
        <ele>575.005859375</ele>
        <time>2011-04-25T14:58:42Z</time>
      </trkpt>
      <trkpt lat="37.155409092083573" lon="-4.223141698166728">
        <ele>568.2763671875</ele>
        <time>2011-04-25T14:58:46Z</time>
      </trkpt>
      <trkpt lat="37.156078470870852" lon="-4.221552321687341">
        <ele>559.624755859375</ele>
        <time>2011-04-25T14:58:51Z</time>
      </trkpt>
      <trkpt lat="37.157231653109193" lon="-4.218719657510519">
        <ele>545.685546875</ele>
        <time>2011-04-25T14:59:00Z</time>
      </trkpt>
      <trkpt lat="37.158279391005635" lon="-4.217085437849164">
        <ele>536.0723876953125</ele>
        <time>2011-04-25T14:59:06Z</time>
      </trkpt>
      <trkpt lat="37.158944830298424" lon="-4.215568983927369">
        <ele>528.862548828125</ele>
        <time>2011-04-25T14:59:11Z</time>
      </trkpt>
      <trkpt lat="37.159219924360514" lon="-4.213864775374532">
        <ele>520.6912841796875</ele>
        <time>2011-04-25T14:59:16Z</time>
      </trkpt>
      <trkpt lat="37.159080784767866" lon="-4.212140031158924">
        <ele>513.000732421875</ele>
        <time>2011-04-25T14:59:21Z</time>
      </trkpt>
      <trkpt lat="37.158584659919143" lon="-4.21054151840508">
        <ele>505.3101806640625</ele>
        <time>2011-04-25T14:59:26Z</time>
      </trkpt>
      <trkpt lat="37.157180523499846" lon="-4.206808973103762">
        <ele>499.542236328125</ele>
        <time>2011-04-25T14:59:38Z</time>
      </trkpt>
      <trkpt lat="37.156942561268806" lon="-4.205634081736207">
        <ele>505.7908935546875</ele>
        <time>2011-04-25T14:59:42Z</time>
      </trkpt>
      <trkpt lat="37.157056219875813" lon="-4.204144449904561">
        <ele>515.8846435546875</ele>
        <time>2011-04-25T14:59:48Z</time>
      </trkpt>
      <trkpt lat="37.15763172134757" lon="-4.202327337116003">
        <ele>527.42041015625</ele>
        <time>2011-04-25T14:59:56Z</time>
      </trkpt>
      <trkpt lat="37.158087445423007" lon="-4.200648190453649">
        <ele>536.5531005859375</ele>
        <time>2011-04-25T15:00:03Z</time>
      </trkpt>
      <trkpt lat="37.158682895824313" lon="-4.198635863140225">
        <ele>543.7628173828125</ele>
        <time>2011-04-25T15:00:11Z</time>
      </trkpt>
      <trkpt lat="37.159497952088714" lon="-4.197167437523603">
        <ele>548.0888671875</ele>
        <time>2011-04-25T15:00:17Z</time>
      </trkpt>
      <trkpt lat="37.160518281161785" lon="-4.195324843749404">
        <ele>549.53076171875</ele>
        <time>2011-04-25T15:00:24Z</time>
      </trkpt>
      <trkpt lat="37.161064194515347" lon="-4.193501695990562">
        <ele>548.5693359375</ele>
        <time>2011-04-25T15:00:30Z</time>
      </trkpt>
      <trkpt lat="37.161948485299945" lon="-4.189498834311962">
        <ele>558.182861328125</ele>
        <time>2011-04-25T15:00:42Z</time>
      </trkpt>
      <trkpt lat="37.162676118314266" lon="-4.186967667192221">
        <ele>571.160400390625</ele>
        <time>2011-04-25T15:00:50Z</time>
      </trkpt>
      <trkpt lat="37.163483882322907" lon="-4.185271672904491">
        <ele>576.928466796875</ele>
        <time>2011-04-25T15:00:56Z</time>
      </trkpt>
      <trkpt lat="37.164972256869078" lon="-4.1828035376966">
        <ele>577.4091796875</ele>
        <time>2011-04-25T15:01:05Z</time>
      </trkpt>
      <trkpt lat="37.165993256494403" lon="-4.180700182914734">
        <ele>574.525146484375</ele>
        <time>2011-04-25T15:01:12Z</time>
      </trkpt>
      <trkpt lat="37.166450824588537" lon="-4.179084822535515">
        <ele>572.6025390625</ele>
        <time>2011-04-25T15:01:17Z</time>
      </trkpt>
      <trkpt lat="37.166661461815238" lon="-4.177052462473512">
        <ele>570.198974609375</ele>
        <time>2011-04-25T15:01:23Z</time>
      </trkpt>
      <trkpt lat="37.166497763246298" lon="-4.175004176795483">
        <ele>568.2763671875</ele>
        <time>2011-04-25T15:01:29Z</time>
      </trkpt>
      <trkpt lat="37.165937852114439" lon="-4.172625727951527">
        <ele>570.198974609375</ele>
        <time>2011-04-25T15:01:36Z</time>
      </trkpt>
      <trkpt lat="37.165014585480094" lon="-4.169307248666883">
        <ele>580.773681640625</ele>
        <time>2011-04-25T15:01:46Z</time>
      </trkpt>
      <trkpt lat="37.164724990725517" lon="-4.166849758476019">
        <ele>588.945068359375</ele>
        <time>2011-04-25T15:01:53Z</time>
      </trkpt>
      <trkpt lat="37.164607560262084" lon="-4.163386020809412">
        <ele>600</ele>
        <time>2011-04-25T15:02:03Z</time>
      </trkpt>
      <trkpt lat="37.164244456216693" lon="-4.161368580535054">
        <ele>605.76806640625</ele>
        <time>2011-04-25T15:02:09Z</time>
      </trkpt>
      <trkpt lat="37.16364867053926" lon="-4.159791776910424">
        <ele>609.132568359375</ele>
        <time>2011-04-25T15:02:14Z</time>
      </trkpt>
      <trkpt lat="37.162533961236477" lon="-4.157806439325213">
        <ele>609.61328125</ele>
        <time>2011-04-25T15:02:21Z</time>
      </trkpt>
      <trkpt lat="37.161301486194134" lon="-4.155482724308968">
        <ele>607.2099609375</ele>
        <time>2011-04-25T15:02:29Z</time>
      </trkpt>
      <trkpt lat="37.16080435551703" lon="-4.153761081397533">
        <ele>603.364501953125</ele>
        <time>2011-04-25T15:02:34Z</time>
      </trkpt>
      <trkpt lat="37.160424068570137" lon="-4.151292527094483">
        <ele>600.480712890625</ele>
        <time>2011-04-25T15:02:41Z</time>
      </trkpt>
      <trkpt lat="37.15992827899754" lon="-4.149243319407105">
        <ele>601.922607421875</ele>
        <time>2011-04-25T15:02:47Z</time>
      </trkpt>
      <trkpt lat="37.15932042337954" lon="-4.146918263286352">
        <ele>605.287353515625</ele>
        <time>2011-04-25T15:02:54Z</time>
      </trkpt>
      <trkpt lat="37.159291673451662" lon="-4.145468194037676">
        <ele>604.806640625</ele>
        <time>2011-04-25T15:02:58Z</time>
      </trkpt>
      <trkpt lat="37.159557547420263" lon="-4.144027680158615">
        <ele>600.480712890625</ele>
        <time>2011-04-25T15:03:02Z</time>
      </trkpt>
      <trkpt lat="37.160408059135079" lon="-4.141277074813843">
        <ele>586.060791015625</ele>
        <time>2011-04-25T15:03:10Z</time>
      </trkpt>
      <trkpt lat="37.160656582564116" lon="-4.139514360576868">
        <ele>575.967041015625</ele>
        <time>2011-04-25T15:03:15Z</time>
      </trkpt>
      <trkpt lat="37.160548372194171" lon="-4.138150373473764">
        <ele>568.2763671875</ele>
        <time>2011-04-25T15:03:19Z</time>
      </trkpt>
      <trkpt lat="37.160131875425577" lon="-4.13661883212626">
        <ele>559.624755859375</ele>
        <time>2011-04-25T15:03:24Z</time>
      </trkpt>
      <trkpt lat="37.159308353438973" lon="-4.133974425494671">
        <ele>544.7242431640625</ele>
        <time>2011-04-25T15:03:33Z</time>
      </trkpt>
      <trkpt lat="37.159183882176876" lon="-4.132437938824296">
        <ele>537.03369140625</ele>
        <time>2011-04-25T15:03:38Z</time>
      </trkpt>
      <trkpt lat="37.1594347525388" lon="-4.130944954231381">
        <ele>528.862548828125</ele>
        <time>2011-04-25T15:03:43Z</time>
      </trkpt>
      <trkpt lat="37.160003129392862" lon="-4.129559593275189">
        <ele>520.6912841796875</ele>
        <time>2011-04-25T15:03:48Z</time>
      </trkpt>
      <trkpt lat="37.161016836762428" lon="-4.127605017274618">
        <ele>511.5587158203125</ele>
        <time>2011-04-25T15:03:56Z</time>
      </trkpt>
      <trkpt lat="37.161558140069246" lon="-4.125964595004916">
        <ele>508.194091796875</ele>
        <time>2011-04-25T15:04:02Z</time>
      </trkpt>
      <trkpt lat="37.162040853872895" lon="-4.123659320175648">
        <ele>501.945556640625</ele>
        <time>2011-04-25T15:04:09Z</time>
      </trkpt>
      <trkpt lat="37.162773264572024" lon="-4.120119558647275">
        <ele>490.890380859375</ele>
        <time>2011-04-25T15:04:19Z</time>
      </trkpt>
      <trkpt lat="37.163160340860486" lon="-4.117351518943906">
        <ele>486.564453125</ele>
        <time>2011-04-25T15:04:27Z</time>
      </trkpt>
      <trkpt lat="37.162995468825102" lon="-4.115624343976378">
        <ele>485.1224365234375</ele>
        <time>2011-04-25T15:04:32Z</time>
      </trkpt>
      <trkpt lat="37.162517532706261" lon="-4.113702038303018">
        <ele>484.1611328125</ele>
        <time>2011-04-25T15:04:38Z</time>
      </trkpt>
      <trkpt lat="37.161924177780747" lon="-4.110901392996311">
        <ele>486.564453125</ele>
        <time>2011-04-25T15:04:47Z</time>
      </trkpt>
      <trkpt lat="37.161925854161382" lon="-4.108899375423789">
        <ele>487.0450439453125</ele>
        <time>2011-04-25T15:04:53Z</time>
      </trkpt>
      <trkpt lat="37.162134144455194" lon="-4.106097724288702">
        <ele>485.1224365234375</ele>
        <time>2011-04-25T15:05:01Z</time>
      </trkpt>
      <trkpt lat="37.162597747519612" lon="-4.104370884597302">
        <ele>484.641845703125</ele>
        <time>2011-04-25T15:05:06Z</time>
      </trkpt>
      <trkpt lat="37.163310796022415" lon="-4.10277203656733">
        <ele>484.1611328125</ele>
        <time>2011-04-25T15:05:11Z</time>
      </trkpt>
      <trkpt lat="37.165132183581591" lon="-4.099075365811586">
        <ele>482.71923828125</ele>
        <time>2011-04-25T15:05:23Z</time>
      </trkpt>
      <trkpt lat="37.165633924305439" lon="-4.097385574132204">
        <ele>484.1611328125</ele>
        <time>2011-04-25T15:05:28Z</time>
      </trkpt>
      <trkpt lat="37.165930643677711" lon="-4.095251122489572">
        <ele>485.1224365234375</ele>
        <time>2011-04-25T15:05:34Z</time>
      </trkpt>
      <trkpt lat="37.166065173223615" lon="-4.09203389659524">
        <ele>484.641845703125</ele>
        <time>2011-04-25T15:05:43Z</time>
      </trkpt>
      <trkpt lat="37.166357198730111" lon="-4.089272981509566">
        <ele>489.9290771484375</ele>
        <time>2011-04-25T15:05:51Z</time>
      </trkpt>
      <trkpt lat="37.16684284619987" lon="-4.087988454848528">
        <ele>491.8516845703125</ele>
        <time>2011-04-25T15:05:55Z</time>
      </trkpt>
      <trkpt lat="37.1676045935601" lon="-4.086893694475293">
        <ele>491.8516845703125</ele>
        <time>2011-04-25T15:05:59Z</time>
      </trkpt>
      <trkpt lat="37.169013088569045" lon="-4.085556026548147">
        <ele>495.2161865234375</ele>
        <time>2011-04-25T15:06:05Z</time>
      </trkpt>
      <trkpt lat="37.171546518802643" lon="-4.083280591294169">
        <ele>500.984130859375</ele>
        <time>2011-04-25T15:06:16Z</time>
      </trkpt>
      <trkpt lat="37.173104546964169" lon="-4.082242241129279">
        <ele>497.138916015625</ele>
        <time>2011-04-25T15:06:22Z</time>
      </trkpt>
      <trkpt lat="37.174516730010509" lon="-4.081810740754008">
        <ele>494.2550048828125</ele>
        <time>2011-04-25T15:06:27Z</time>
      </trkpt>
      <trkpt lat="37.178423032164574" lon="-4.080630652606487">
        <ele>485.1224365234375</ele>
        <time>2011-04-25T15:06:41Z</time>
      </trkpt>
      <trkpt lat="37.179433889687061" lon="-4.079969488084316">
        <ele>485.1224365234375</ele>
        <time>2011-04-25T15:06:45Z</time>
      </trkpt>
      <trkpt lat="37.180243330076337" lon="-4.078989643603563">
        <ele>484.1611328125</ele>
        <time>2011-04-25T15:06:49Z</time>
      </trkpt>
      <trkpt lat="37.1807961165905" lon="-4.077753145247698">
        <ele>481.7578125</ele>
        <time>2011-04-25T15:06:53Z</time>
      </trkpt>
      <trkpt lat="37.181046232581139" lon="-4.076348589733243">
        <ele>479.3544921875</ele>
        <time>2011-04-25T15:06:57Z</time>
      </trkpt>
      <trkpt lat="37.180964341387153" lon="-4.074881421402097">
        <ele>476.9512939453125</ele>
        <time>2011-04-25T15:07:01Z</time>
      </trkpt>
      <trkpt lat="37.180411471053958" lon="-4.071660926565528">
        <ele>476.4705810546875</ele>
        <time>2011-04-25T15:07:10Z</time>
      </trkpt>
      <trkpt lat="37.180189434438944" lon="-4.069159850478172">
        <ele>477.9124755859375</ele>
        <time>2011-04-25T15:07:17Z</time>
      </trkpt>
      <trkpt lat="37.180224470794201" lon="-4.06592795625329">
        <ele>479.3544921875</ele>
        <time>2011-04-25T15:07:26Z</time>
      </trkpt>
      <trkpt lat="37.180375345051289" lon="-4.060058193281293">
        <ele>482.71923828125</ele>
        <time>2011-04-25T15:07:42Z</time>
      </trkpt>
      <trkpt lat="37.180529236793518" lon="-4.056813390925527">
        <ele>484.1611328125</ele>
        <time>2011-04-25T15:07:51Z</time>
      </trkpt>
      <trkpt lat="37.180943721905351" lon="-4.052132852375507">
        <ele>484.641845703125</ele>
        <time>2011-04-25T15:08:04Z</time>
      </trkpt>
      <trkpt lat="37.181392991915345" lon="-4.047371344640851">
        <ele>496.6583251953125</ele>
        <time>2011-04-25T15:08:18Z</time>
      </trkpt>
      <trkpt lat="37.18189112842083" lon="-4.042168948799372">
        <ele>506.271484375</ele>
        <time>2011-04-25T15:08:33Z</time>
      </trkpt>
      <trkpt lat="37.18233285471797" lon="-4.038414275273681">
        <ele>507.7135009765625</ele>
        <time>2011-04-25T15:08:43Z</time>
      </trkpt>
      <trkpt lat="37.18275211751461" lon="-4.03659456409514">
        <ele>509.1553955078125</ele>
        <time>2011-04-25T15:08:48Z</time>
      </trkpt>
      <trkpt lat="37.183474553748965" lon="-4.034956069663167">
        <ele>510.11669921875</ele>
        <time>2011-04-25T15:08:53Z</time>
      </trkpt>
      <trkpt lat="37.184411231428385" lon="-4.033561320975423">
        <ele>512.0394287109375</ele>
        <time>2011-04-25T15:08:58Z</time>
      </trkpt>
      <trkpt lat="37.186484076082706" lon="-4.031144063919783">
        <ele>511.0780029296875</ele>
        <time>2011-04-25T15:09:08Z</time>
      </trkpt>
      <trkpt lat="37.189995339140296" lon="-4.027084456756711">
        <ele>504.8294677734375</ele>
        <time>2011-04-25T15:09:25Z</time>
      </trkpt>
      <trkpt lat="37.192293154075742" lon="-4.024471146985889">
        <ele>510.5972900390625</ele>
        <time>2011-04-25T15:09:36Z</time>
      </trkpt>
      <trkpt lat="37.193614561110735" lon="-4.022659985348582">
        <ele>518.7685546875</ele>
        <time>2011-04-25T15:09:43Z</time>
      </trkpt>
      <trkpt lat="37.194499690085649" lon="-4.020890649408102">
        <ele>525.497802734375</ele>
        <time>2011-04-25T15:09:49Z</time>
      </trkpt>
      <trkpt lat="37.195040574297309" lon="-4.018873376771808">
        <ele>528.3818359375</ele>
        <time>2011-04-25T15:09:55Z</time>
      </trkpt>
      <trkpt lat="37.195251462981105" lon="-4.016683772206307">
        <ele>528.862548828125</ele>
        <time>2011-04-25T15:10:01Z</time>
      </trkpt>
      <trkpt lat="37.195452461019158" lon="-4.012505896389484">
        <ele>525.0172119140625</ele>
        <time>2011-04-25T15:10:12Z</time>
      </trkpt>
      <trkpt lat="37.195365875959396" lon="-4.010291565209627">
        <ele>515.8846435546875</ele>
        <time>2011-04-25T15:10:18Z</time>
      </trkpt>
      <trkpt lat="37.194986594840884" lon="-4.008839651942253">
        <ele>508.6746826171875</ele>
        <time>2011-04-25T15:10:22Z</time>
      </trkpt>
      <trkpt lat="37.194073554128408" lon="-4.006840065121651">
        <ele>500.02294921875</ele>
        <time>2011-04-25T15:10:28Z</time>
      </trkpt>
      <trkpt lat="37.193190436810255" lon="-4.004444936290383">
        <ele>497.138916015625</ele>
        <time>2011-04-25T15:10:35Z</time>
      </trkpt>
      <trkpt lat="37.192930681630969" lon="-4.002664536237717">
        <ele>497.61962890625</ele>
        <time>2011-04-25T15:10:40Z</time>
      </trkpt>
      <trkpt lat="37.192793469876051" lon="-3.998771561309695">
        <ele>504.348876953125</ele>
        <time>2011-04-25T15:10:51Z</time>
      </trkpt>
      <trkpt lat="37.192946523427963" lon="-3.99632035754621">
        <ele>513.9620361328125</ele>
        <time>2011-04-25T15:10:58Z</time>
      </trkpt>
      <trkpt lat="37.193715395405889" lon="-3.991156937554479">
        <ele>538.956298828125</ele>
        <time>2011-04-25T15:11:13Z</time>
      </trkpt>
      <trkpt lat="37.193783624097705" lon="-3.988693999126554">
        <ele>545.685546875</ele>
        <time>2011-04-25T15:11:20Z</time>
      </trkpt>
      <trkpt lat="37.19347357749939" lon="-3.986134752631187">
        <ele>548.5693359375</ele>
        <time>2011-04-25T15:11:27Z</time>
      </trkpt>
      <trkpt lat="37.192726163193583" lon="-3.981372071430087">
        <ele>555.779296875</ele>
        <time>2011-04-25T15:11:40Z</time>
      </trkpt>
      <trkpt lat="37.191991070285439" lon="-3.977519664913416">
        <ele>556.260009765625</ele>
        <time>2011-04-25T15:11:51Z</time>
      </trkpt>
      <trkpt lat="37.191128740087152" lon="-3.975221430882812">
        <ele>556.74072265625</ele>
        <time>2011-04-25T15:11:58Z</time>
      </trkpt>
      <trkpt lat="37.189174331724644" lon="-3.969959942623973">
        <ele>552.41455078125</ele>
        <time>2011-04-25T15:12:14Z</time>
      </trkpt>
      <trkpt lat="37.187864826992154" lon="-3.966348683461547">
        <ele>553.3759765625</ele>
        <time>2011-04-25T15:12:25Z</time>
      </trkpt>
      <trkpt lat="37.187096793204546" lon="-3.963284678757191">
        <ele>556.74072265625</ele>
        <time>2011-04-25T15:12:34Z</time>
      </trkpt>
      <trkpt lat="37.186374021694064" lon="-3.961275033652782">
        <ele>559.14404296875</ele>
        <time>2011-04-25T15:12:40Z</time>
      </trkpt>
      <trkpt lat="37.184886569157243" lon="-3.958146655932069">
        <ele>564.43115234375</ele>
        <time>2011-04-25T15:12:50Z</time>
      </trkpt>
      <trkpt lat="37.183860037475824" lon="-3.955656392499805">
        <ele>567.795654296875</ele>
        <time>2011-04-25T15:12:58Z</time>
      </trkpt>
      <trkpt lat="37.182220788672566" lon="-3.950648792088032">
        <ele>574.525146484375</ele>
        <time>2011-04-25T15:13:13Z</time>
      </trkpt>
      <trkpt lat="37.180340643972158" lon="-3.94489805214107">
        <ele>584.13818359375</ele>
        <time>2011-04-25T15:13:30Z</time>
      </trkpt>
      <trkpt lat="37.179727256298065" lon="-3.94249839708209">
        <ele>587.9833984375</ele>
        <time>2011-04-25T15:13:37Z</time>
      </trkpt>
      <trkpt lat="37.179673025384545" lon="-3.940711291506887">
        <ele>587.02197265625</ele>
        <time>2011-04-25T15:13:42Z</time>
      </trkpt>
      <trkpt lat="37.180058844387531" lon="-3.937833365052939">
        <ele>583.1767578125</ele>
        <time>2011-04-25T15:13:50Z</time>
      </trkpt>
      <trkpt lat="37.180568380281329" lon="-3.934331573545933">
        <ele>592.790283203125</ele>
        <time>2011-04-25T15:14:00Z</time>
      </trkpt>
      <trkpt lat="37.180645829066634" lon="-3.931847847998142">
        <ele>597.115966796875</ele>
        <time>2011-04-25T15:14:07Z</time>
      </trkpt>
      <trkpt lat="37.180717326700687" lon="-3.92708265222609">
        <ele>592.3095703125</ele>
        <time>2011-04-25T15:14:20Z</time>
      </trkpt>
      <trkpt lat="37.180635184049606" lon="-3.923847572878003">
        <ele>585.580078125</ele>
        <time>2011-04-25T15:14:29Z</time>
      </trkpt>
      <trkpt lat="37.180264955386519" lon="-3.920698743313551">
        <ele>578.370361328125</ele>
        <time>2011-04-25T15:14:38Z</time>
      </trkpt>
      <trkpt lat="37.179520893841982" lon="-3.915971769019961">
        <ele>575.486328125</ele>
        <time>2011-04-25T15:14:52Z</time>
      </trkpt>
      <trkpt lat="37.178824860602617" lon="-3.911063326522708">
        <ele>579.812255859375</ele>
        <time>2011-04-25T15:15:07Z</time>
      </trkpt>
      <trkpt lat="37.178511042147875" lon="-3.907231874763966">
        <ele>582.215576171875</ele>
        <time>2011-04-25T15:15:18Z</time>
      </trkpt>
      <trkpt lat="37.178411381319165" lon="-3.90340612269938">
        <ele>580.773681640625</ele>
        <time>2011-04-25T15:15:29Z</time>
      </trkpt>
      <trkpt lat="37.178677339106798" lon="-3.901767879724503">
        <ele>575.005859375</ele>
        <time>2011-04-25T15:15:34Z</time>
      </trkpt>
      <trkpt lat="37.179267341271043" lon="-3.900220161303878">
        <ele>568.757080078125</ele>
        <time>2011-04-25T15:15:39Z</time>
      </trkpt>
      <trkpt lat="37.180280881002545" lon="-3.898171540349722">
        <ele>567.315185546875</ele>
        <time>2011-04-25T15:15:46Z</time>
      </trkpt>
      <trkpt lat="37.181339850649238" lon="-3.895935416221619">
        <ele>571.160400390625</ele>
        <time>2011-04-25T15:15:55Z</time>
      </trkpt>
      <trkpt lat="37.181920381262898" lon="-3.893790822476149">
        <ele>574.04443359375</ele>
        <time>2011-04-25T15:16:03Z</time>
      </trkpt>
      <trkpt lat="37.182640722021461" lon="-3.891898272559047">
        <ele>575.486328125</ele>
        <time>2011-04-25T15:16:10Z</time>
      </trkpt>
      <trkpt lat="37.183847967535257" lon="-3.889296529814601">
        <ele>575.486328125</ele>
        <time>2011-04-25T15:16:19Z</time>
      </trkpt>
      <trkpt lat="37.185338772833347" lon="-3.88604024425149">
        <ele>573.56396484375</ele>
        <time>2011-04-25T15:16:29Z</time>
      </trkpt>
      <trkpt lat="37.187593672424555" lon="-3.881099363788962">
        <ele>574.525146484375</ele>
        <time>2011-04-25T15:16:44Z</time>
      </trkpt>
      <trkpt lat="37.189871286973357" lon="-3.875962430611253">
        <ele>568.757080078125</ele>
        <time>2011-04-25T15:17:00Z</time>
      </trkpt>
      <trkpt lat="37.191218258813024" lon="-3.873017784208059">
        <ele>555.779296875</ele>
        <time>2011-04-25T15:17:10Z</time>
      </trkpt>
      <trkpt lat="37.192189721390605" lon="-3.871461264789105">
        <ele>549.050048828125</ele>
        <time>2011-04-25T15:17:16Z</time>
      </trkpt>
      <trkpt lat="37.19440346583724" lon="-3.868344034999609">
        <ele>538.956298828125</ele>
        <time>2011-04-25T15:17:28Z</time>
      </trkpt>
      <trkpt lat="37.195126572623849" lon="-3.866849541664124">
        <ele>536.5531005859375</ele>
        <time>2011-04-25T15:17:33Z</time>
      </trkpt>
      <trkpt lat="37.195504596456885" lon="-3.865142734721303">
        <ele>534.149658203125</ele>
        <time>2011-04-25T15:17:38Z</time>
      </trkpt>
      <trkpt lat="37.195481797680259" lon="-3.863318748772144">
        <ele>530.78515625</ele>
        <time>2011-04-25T15:17:43Z</time>
      </trkpt>
      <trkpt lat="37.195108467712998" lon="-3.861516136676073">
        <ele>530.304443359375</ele>
        <time>2011-04-25T15:17:48Z</time>
      </trkpt>
      <trkpt lat="37.194344289600849" lon="-3.85875036008656">
        <ele>535.1109619140625</ele>
        <time>2011-04-25T15:17:56Z</time>
      </trkpt>
      <trkpt lat="37.194204479455948" lon="-3.857005247846246">
        <ele>539.4368896484375</ele>
        <time>2011-04-25T15:18:01Z</time>
      </trkpt>
      <trkpt lat="37.194144129753113" lon="-3.852520091459155">
        <ele>545.204833984375</ele>
        <time>2011-04-25T15:18:14Z</time>
      </trkpt>
      <trkpt lat="37.193928966298699" lon="-3.848397368565202">
        <ele>539.9176025390625</ele>
        <time>2011-04-25T15:18:26Z</time>
      </trkpt>
      <trkpt lat="37.194061987102032" lon="-3.846306251361966">
        <ele>540.87890625</ele>
        <time>2011-04-25T15:18:32Z</time>
      </trkpt>
      <trkpt lat="37.194194169715047" lon="-3.843391025438905">
        <ele>546.6468505859375</ele>
        <time>2011-04-25T15:18:40Z</time>
      </trkpt>
      <trkpt lat="37.193871382623911" lon="-3.841609116643667">
        <ele>550.97265625</ele>
        <time>2011-04-25T15:18:45Z</time>
      </trkpt>
      <trkpt lat="37.193174343556166" lon="-3.839974729344249">
        <ele>554.81787109375</ele>
        <time>2011-04-25T15:18:50Z</time>
      </trkpt>
      <trkpt lat="37.191881937906146" lon="-3.837890988215804">
        <ele>558.663330078125</ele>
        <time>2011-04-25T15:18:57Z</time>
      </trkpt>
      <trkpt lat="37.190490961074829" lon="-3.835708927363157">
        <ele>561.54736328125</ele>
        <time>2011-04-25T15:19:05Z</time>
      </trkpt>
      <trkpt lat="37.189239040017128" lon="-3.833376746624708">
        <ele>564.911865234375</ele>
        <time>2011-04-25T15:19:13Z</time>
      </trkpt>
      <trkpt lat="37.188880378380418" lon="-3.83200672455132">
        <ele>567.315185546875</ele>
        <time>2011-04-25T15:19:17Z</time>
      </trkpt>
      <trkpt lat="37.188840229064226" lon="-3.830561097711325">
        <ele>569.23779296875</ele>
        <time>2011-04-25T15:19:21Z</time>
      </trkpt>
      <trkpt lat="37.189128650352359" lon="-3.829134833067656">
        <ele>571.160400390625</ele>
        <time>2011-04-25T15:19:25Z</time>
      </trkpt>
      <trkpt lat="37.189834574237466" lon="-3.827457530423999">
        <ele>571.160400390625</ele>
        <time>2011-04-25T15:19:30Z</time>
      </trkpt>
      <trkpt lat="37.191649088636041" lon="-3.823912320658565">
        <ele>556.74072265625</ele>
        <time>2011-04-25T15:19:41Z</time>
      </trkpt>
      <trkpt lat="37.192874690517783" lon="-3.821567986160517">
        <ele>550.97265625</ele>
        <time>2011-04-25T15:19:49Z</time>
      </trkpt>
      <trkpt lat="37.194562470540404" lon="-3.818077091127634">
        <ele>549.53076171875</ele>
        <time>2011-04-25T15:20:01Z</time>
      </trkpt>
      <trkpt lat="37.195065133273602" lon="-3.816116899251938">
        <ele>550.011474609375</ele>
        <time>2011-04-25T15:20:07Z</time>
      </trkpt>
      <trkpt lat="37.19520234502852" lon="-3.814370026811957">
        <ele>550.97265625</ele>
        <time>2011-04-25T15:20:12Z</time>
      </trkpt>
      <trkpt lat="37.195104444399476" lon="-3.811803823336959">
        <ele>551.453369140625</ele>
        <time>2011-04-25T15:20:19Z</time>
      </trkpt>
      <trkpt lat="37.194859525188804" lon="-3.808602439239621">
        <ele>553.3759765625</ele>
        <time>2011-04-25T15:20:28Z</time>
      </trkpt>
      <trkpt lat="37.194506227970123" lon="-3.804704351350665">
        <ele>554.81787109375</ele>
        <time>2011-04-25T15:20:39Z</time>
      </trkpt>
      <trkpt lat="37.194185787811875" lon="-3.801090158522129">
        <ele>555.298583984375</ele>
        <time>2011-04-25T15:20:49Z</time>
      </trkpt>
      <trkpt lat="37.193562425673008" lon="-3.797230459749699">
        <ele>555.779296875</ele>
        <time>2011-04-25T15:21:00Z</time>
      </trkpt>
      <trkpt lat="37.19286572188139" lon="-3.792971782386303">
        <ele>556.260009765625</ele>
        <time>2011-04-25T15:21:12Z</time>
      </trkpt>
      <trkpt lat="37.191851260140538" lon="-3.786967489868403">
        <ele>557.7021484375</ele>
        <time>2011-04-25T15:21:29Z</time>
      </trkpt>
      <trkpt lat="37.19123762100935" lon="-3.784166844561696">
        <ele>559.624755859375</ele>
        <time>2011-04-25T15:21:37Z</time>
      </trkpt>
      <trkpt lat="37.190693719312549" lon="-3.781375251710415">
        <ele>560.105224609375</ele>
        <time>2011-04-25T15:21:45Z</time>
      </trkpt>
      <trkpt lat="37.190729174762964" lon="-3.779184389859438">
        <ele>559.14404296875</ele>
        <time>2011-04-25T15:21:51Z</time>
      </trkpt>
      <trkpt lat="37.190640745684505" lon="-3.77664509229362">
        <ele>560.105224609375</ele>
        <time>2011-04-25T15:21:58Z</time>
      </trkpt>
      <trkpt lat="37.190464893355966" lon="-3.774154158309102">
        <ele>562.028076171875</ele>
        <time>2011-04-25T15:22:05Z</time>
      </trkpt>
      <trkpt lat="37.190645523369312" lon="-3.771282183006406">
        <ele>563.950439453125</ele>
        <time>2011-04-25T15:22:13Z</time>
      </trkpt>
      <trkpt lat="37.190556256100535" lon="-3.768126228824258">
        <ele>564.911865234375</ele>
        <time>2011-04-25T15:22:22Z</time>
      </trkpt>
      <trkpt lat="37.190673686563969" lon="-3.765731686726213">
        <ele>565.873291015625</ele>
        <time>2011-04-25T15:22:29Z</time>
      </trkpt>
      <trkpt lat="37.191133098676801" lon="-3.763289451599121">
        <ele>566.353759765625</ele>
        <time>2011-04-25T15:22:36Z</time>
      </trkpt>
      <trkpt lat="37.191394530236721" lon="-3.760015480220318">
        <ele>567.315185546875</ele>
        <time>2011-04-25T15:22:45Z</time>
      </trkpt>
      <trkpt lat="37.191824018955231" lon="-3.756105657666922">
        <ele>569.718505859375</ele>
        <time>2011-04-25T15:22:56Z</time>
      </trkpt>
      <trkpt lat="37.191800465807319" lon="-3.753641881048679">
        <ele>569.718505859375</ele>
        <time>2011-04-25T15:23:03Z</time>
      </trkpt>
      <trkpt lat="37.191440965980291" lon="-3.749888045713306">
        <ele>569.718505859375</ele>
        <time>2011-04-25T15:23:14Z</time>
      </trkpt>
      <trkpt lat="37.191022792831063" lon="-3.746580379083753">
        <ele>570.6796875</ele>
        <time>2011-04-25T15:23:24Z</time>
      </trkpt>
      <trkpt lat="37.190652564167976" lon="-3.742580534890294">
        <ele>571.160400390625</ele>
        <time>2011-04-25T15:23:36Z</time>
      </trkpt>
      <trkpt lat="37.190704364329576" lon="-3.740645153447986">
        <ele>572.121826171875</ele>
        <time>2011-04-25T15:23:42Z</time>
      </trkpt>
      <trkpt lat="37.19111499376595" lon="-3.738770624622703">
        <ele>573.083251953125</ele>
        <time>2011-04-25T15:23:48Z</time>
      </trkpt>
      <trkpt lat="37.19192954711616" lon="-3.736293185502291">
        <ele>574.04443359375</ele>
        <time>2011-04-25T15:23:56Z</time>
      </trkpt>
      <trkpt lat="37.192994887009263" lon="-3.733878526836634">
        <ele>575.005859375</ele>
        <time>2011-04-25T15:24:04Z</time>
      </trkpt>
      <trkpt lat="37.1943399310112" lon="-3.731537628918886">
        <ele>575.967041015625</ele>
        <time>2011-04-25T15:24:12Z</time>
      </trkpt>
      <trkpt lat="37.196020670235157" lon="-3.729375181719661">
        <ele>574.525146484375</ele>
        <time>2011-04-25T15:24:20Z</time>
      </trkpt>
      <trkpt lat="37.197666121646762" lon="-3.727709446102381">
        <ele>575.005859375</ele>
        <time>2011-04-25T15:24:27Z</time>
      </trkpt>
      <trkpt lat="37.199881458655" lon="-3.725949330255389">
        <ele>576.928466796875</ele>
        <time>2011-04-25T15:24:36Z</time>
      </trkpt>
      <trkpt lat="37.201989339664578" lon="-3.724787179380655">
        <ele>578.370361328125</ele>
        <time>2011-04-25T15:24:44Z</time>
      </trkpt>
      <trkpt lat="37.205016380175948" lon="-3.72349108569324">
        <ele>582.215576171875</ele>
        <time>2011-04-25T15:24:55Z</time>
      </trkpt>
      <trkpt lat="37.207367084920406" lon="-3.722208822146058">
        <ele>587.502685546875</ele>
        <time>2011-04-25T15:25:04Z</time>
      </trkpt>
      <trkpt lat="37.209345046430826" lon="-3.720673341304064">
        <ele>586.060791015625</ele>
        <time>2011-04-25T15:25:12Z</time>
      </trkpt>
      <trkpt lat="37.211231980472803" lon="-3.718738043680787">
        <ele>581.25439453125</ele>
        <time>2011-04-25T15:25:20Z</time>
      </trkpt>
      <trkpt lat="37.21284625120461" lon="-3.716628821566701">
        <ele>579.33154296875</ele>
        <time>2011-04-25T15:25:28Z</time>
      </trkpt>
      <trkpt lat="37.214185427874327" lon="-3.714331844821572">
        <ele>577.8896484375</ele>
        <time>2011-04-25T15:25:36Z</time>
      </trkpt>
      <trkpt lat="37.215751335024834" lon="-3.711683247238398">
        <ele>577.8896484375</ele>
        <time>2011-04-25T15:25:45Z</time>
      </trkpt>
      <trkpt lat="37.217355379834771" lon="-3.70962574146688">
        <ele>579.812255859375</ele>
        <time>2011-04-25T15:25:53Z</time>
      </trkpt>
      <trkpt lat="37.218963028863072" lon="-3.708115993067622">
        <ele>585.580078125</ele>
        <time>2011-04-25T15:26:00Z</time>
      </trkpt>
      <trkpt lat="37.220715936273336" lon="-3.706910340115428">
        <ele>589.90625</ele>
        <time>2011-04-25T15:26:07Z</time>
      </trkpt>
      <trkpt lat="37.223143838346004" lon="-3.705548867583275">
        <ele>587.502685546875</ele>
        <time>2011-04-25T15:26:16Z</time>
      </trkpt>
      <trkpt lat="37.22435493953526" lon="-3.704423597082496">
        <ele>585.099609375</ele>
        <time>2011-04-25T15:26:21Z</time>
      </trkpt>
      <trkpt lat="37.225285246968269" lon="-3.703014850616455">
        <ele>584.618896484375</ele>
        <time>2011-04-25T15:26:26Z</time>
      </trkpt>
      <trkpt lat="37.22591464407742" lon="-3.701467718929052">
        <ele>588.46435546875</ele>
        <time>2011-04-25T15:26:31Z</time>
      </trkpt>
      <trkpt lat="37.226277329027653" lon="-3.69946519844234">
        <ele>597.115966796875</ele>
        <time>2011-04-25T15:26:37Z</time>
      </trkpt>
      <trkpt lat="37.226431556046009" lon="-3.696763543412089">
        <ele>610.574462890625</ele>
        <time>2011-04-25T15:26:45Z</time>
      </trkpt>
      <trkpt lat="37.22678585909307" lon="-3.695144578814507">
        <ele>619.226318359375</ele>
        <time>2011-04-25T15:26:50Z</time>
      </trkpt>
      <trkpt lat="37.227522125467658" lon="-3.693718230351806">
        <ele>626.9169921875</ele>
        <time>2011-04-25T15:26:55Z</time>
      </trkpt>
      <trkpt lat="37.229199931025505" lon="-3.691414380446076">
        <ele>640.37548828125</ele>
        <time>2011-04-25T15:27:04Z</time>
      </trkpt>
      <trkpt lat="37.231147298589349" lon="-3.688398823142052">
        <ele>653.833984375</ele>
        <time>2011-04-25T15:27:15Z</time>
      </trkpt>
      <trkpt lat="37.231711316853762" lon="-3.686753455549479">
        <ele>656.7177734375</ele>
        <time>2011-04-25T15:27:20Z</time>
      </trkpt>
      <trkpt lat="37.231908962130547" lon="-3.684936761856079">
        <ele>658.159912109375</ele>
        <time>2011-04-25T15:27:25Z</time>
      </trkpt>
      <trkpt lat="37.231769990175962" lon="-3.682638192549348">
        <ele>656.237060546875</ele>
        <time>2011-04-25T15:27:31Z</time>
      </trkpt>
      <trkpt lat="37.23131644539535" lon="-3.67765674367547">
        <ele>643.25927734375</ele>
        <time>2011-04-25T15:27:44Z</time>
      </trkpt>
      <trkpt lat="37.231170935556293" lon="-3.674627188593149">
        <ele>636.049560546875</ele>
        <time>2011-04-25T15:27:52Z</time>
      </trkpt>
      <trkpt lat="37.231286270543933" lon="-3.671793350949884">
        <ele>633.64599609375</ele>
        <time>2011-04-25T15:28:00Z</time>
      </trkpt>
      <trkpt lat="37.231642669066787" lon="-3.669582875445485">
        <ele>634.126708984375</ele>
        <time>2011-04-25T15:28:07Z</time>
      </trkpt>
      <trkpt lat="37.232271982356906" lon="-3.66728606633842">
        <ele>637.491455078125</ele>
        <time>2011-04-25T15:28:15Z</time>
      </trkpt>
      <trkpt lat="37.233174294233322" lon="-3.665086571127176">
        <ele>643.25927734375</ele>
        <time>2011-04-25T15:28:23Z</time>
      </trkpt>
      <trkpt lat="37.234426382929087" lon="-3.662792779505253">
        <ele>649.988525390625</ele>
        <time>2011-04-25T15:28:32Z</time>
      </trkpt>
      <trkpt lat="37.236208627000451" lon="-3.660048544406891">
        <ele>661.043701171875</ele>
        <time>2011-04-25T15:28:44Z</time>
      </trkpt>
      <trkpt lat="37.238312736153603" lon="-3.656909186393023">
        <ele>675.46337890625</ele>
        <time>2011-04-25T15:28:58Z</time>
      </trkpt>
      <trkpt lat="37.240064637735486" lon="-3.65418934263289">
        <ele>686.518798828125</ele>
        <time>2011-04-25T15:29:10Z</time>
      </trkpt>
      <trkpt lat="37.24136509001255" lon="-3.651989176869392">
        <ele>696.1318359375</ele>
        <time>2011-04-25T15:29:20Z</time>
      </trkpt>
      <trkpt lat="37.241680165752769" lon="-3.651317534968257">
        <ele>699.015625</ele>
        <time>2011-04-25T15:29:24Z</time>
      </trkpt>
      <trkpt lat="37.241741186007857" lon="-3.651177138090134">
        <ele>699.496337890625</ele>
        <time>2011-04-25T15:29:25Z</time>
      </trkpt>
      <trkpt lat="37.241724673658609" lon="-3.650575065985322">
        <ele>699.97705078125</ele>
        <time>2011-04-25T15:29:30Z</time>
      </trkpt>
      <trkpt lat="37.241333490237594" lon="-3.650476578623056">
        <ele>695.651123046875</ele>
        <time>2011-04-25T15:29:34Z</time>
      </trkpt>
      <trkpt lat="37.241083541885018" lon="-3.650851836428046">
        <ele>691.805908203125</ele>
        <time>2011-04-25T15:29:37Z</time>
      </trkpt>
      <trkpt lat="37.241185382008553" lon="-3.651314182206988">
        <ele>687.47998046875</ele>
        <time>2011-04-25T15:29:41Z</time>
      </trkpt>
      <trkpt lat="37.241343799978495" lon="-3.651484670117497">
        <ele>686.999267578125</ele>
        <time>2011-04-25T15:29:43Z</time>
      </trkpt>
      <trkpt lat="37.242405451834202" lon="-3.652281537652016">
        <ele>685.076904296875</ele>
        <time>2011-04-25T15:29:53Z</time>
      </trkpt>
      <trkpt lat="37.243380099534988" lon="-3.652902971953154">
        <ele>685.557373046875</ele>
        <time>2011-04-25T15:30:02Z</time>
      </trkpt>
      <trkpt lat="37.244412750005722" lon="-3.653463134542108">
        <ele>686.0380859375</ele>
        <time>2011-04-25T15:30:11Z</time>
      </trkpt>
      <trkpt lat="37.245709849521518" lon="-3.654170148074627">
        <ele>687.47998046875</ele>
        <time>2011-04-25T15:30:21Z</time>
      </trkpt>
      <trkpt lat="37.247396623715758" lon="-3.655103472992778">
        <ele>688.44140625</ele>
        <time>2011-04-25T15:30:33Z</time>
      </trkpt>
      <trkpt lat="37.247912362217903" lon="-3.65537722595036">
        <ele>688.922119140625</ele>
        <time>2011-04-25T15:30:38Z</time>
      </trkpt>
      <trkpt lat="37.24887334741652" lon="-3.655907884240151">
        <ele>689.88330078125</ele>
        <time>2011-04-25T15:30:45Z</time>
      </trkpt>
      <trkpt lat="37.250166088342667" lon="-3.656615233048797">
        <ele>690.364013671875</ele>
        <time>2011-04-25T15:30:52Z</time>
      </trkpt>
      <trkpt lat="37.252129130065441" lon="-3.657599352300167">
        <ele>691.805908203125</ele>
        <time>2011-04-25T15:31:01Z</time>
      </trkpt>
      <trkpt lat="37.254119832068682" lon="-3.6582469381392">
        <ele>693.728515625</ele>
        <time>2011-04-25T15:31:09Z</time>
      </trkpt>
      <trkpt lat="37.25632787682116" lon="-3.658583471551538">
        <ele>694.689697265625</ele>
        <time>2011-04-25T15:31:17Z</time>
      </trkpt>
      <trkpt lat="37.259217873215675" lon="-3.658996447920799">
        <ele>694.209228515625</ele>
        <time>2011-04-25T15:31:28Z</time>
      </trkpt>
      <trkpt lat="37.262503495439887" lon="-3.659405736252666">
        <ele>692.767333984375</ele>
        <time>2011-04-25T15:31:41Z</time>
      </trkpt>
      <trkpt lat="37.265158630907536" lon="-3.659421158954501">
        <ele>687.960693359375</ele>
        <time>2011-04-25T15:31:51Z</time>
      </trkpt>
      <trkpt lat="37.267278833314776" lon="-3.659001560881734">
        <ele>683.634521484375</ele>
        <time>2011-04-25T15:31:59Z</time>
      </trkpt>
      <trkpt lat="37.27040427736938" lon="-3.658100254833698">
        <ele>677.86669921875</ele>
        <time>2011-04-25T15:32:11Z</time>
      </trkpt>
      <trkpt lat="37.272019051015377" lon="-3.658027919009328">
        <ele>674.021484375</ele>
        <time>2011-04-25T15:32:17Z</time>
      </trkpt>
      <trkpt lat="37.274440163746476" lon="-3.658363027498126">
        <ele>667.772705078125</ele>
        <time>2011-04-25T15:32:26Z</time>
      </trkpt>
      <trkpt lat="37.276735045015812" lon="-3.658617753535509">
        <ele>662.005126953125</ele>
        <time>2011-04-25T15:32:35Z</time>
      </trkpt>
      <trkpt lat="37.278535729274154" lon="-3.658427819609642">
        <ele>658.159912109375</ele>
        <time>2011-04-25T15:32:42Z</time>
      </trkpt>
      <trkpt lat="37.28038502857089" lon="-3.657925575971603">
        <ele>655.756591796875</ele>
        <time>2011-04-25T15:32:50Z</time>
      </trkpt>
      <trkpt lat="37.282264921814203" lon="-3.657535146921873">
        <ele>653.833984375</ele>
        <time>2011-04-25T15:32:58Z</time>
      </trkpt>
      <trkpt lat="37.283830493688583" lon="-3.65763857960701">
        <ele>654.314697265625</ele>
        <time>2011-04-25T15:33:04Z</time>
      </trkpt>
      <trkpt lat="37.285875845700502" lon="-3.658173764124513">
        <ele>657.198486328125</ele>
        <time>2011-04-25T15:33:12Z</time>
      </trkpt>
      <trkpt lat="37.2875009290874" lon="-3.658394291996956">
        <ele>660.082275390625</ele>
        <time>2011-04-25T15:33:19Z</time>
      </trkpt>
      <trkpt lat="37.288870699703693" lon="-3.658156581223011">
        <ele>662.005126953125</ele>
        <time>2011-04-25T15:33:25Z</time>
      </trkpt>
      <trkpt lat="37.290419256314635" lon="-3.657482843846083">
        <ele>665.36962890625</ele>
        <time>2011-04-25T15:33:32Z</time>
      </trkpt>
      <trkpt lat="37.292737020179629" lon="-3.65653183311224">
        <ele>670.17626953125</ele>
        <time>2011-04-25T15:33:42Z</time>
      </trkpt>
      <trkpt lat="37.294231345877051" lon="-3.656415576115251">
        <ele>672.57958984375</ele>
        <time>2011-04-25T15:33:48Z</time>
      </trkpt>
      <trkpt lat="37.295666579157114" lon="-3.656717576086521">
        <ele>673.541015625</ele>
        <time>2011-04-25T15:33:54Z</time>
      </trkpt>
      <trkpt lat="37.297542029991746" lon="-3.657576218247414">
        <ele>673.541015625</ele>
        <time>2011-04-25T15:34:02Z</time>
      </trkpt>
      <trkpt lat="37.300100354477763" lon="-3.658658741042018">
        <ele>672.098876953125</ele>
        <time>2011-04-25T15:34:13Z</time>
      </trkpt>
      <trkpt lat="37.301561823114753" lon="-3.658808693289757">
        <ele>670.17626953125</ele>
        <time>2011-04-25T15:34:19Z</time>
      </trkpt>
      <trkpt lat="37.302969144657254" lon="-3.658579280599952">
        <ele>669.215087890625</ele>
        <time>2011-04-25T15:34:25Z</time>
      </trkpt>
      <trkpt lat="37.304316619411111" lon="-3.658007550984621">
        <ele>667.292236328125</ele>
        <time>2011-04-25T15:34:31Z</time>
      </trkpt>
      <trkpt lat="37.305525876581669" lon="-3.657121919095516">
        <ele>667.292236328125</ele>
        <time>2011-04-25T15:34:37Z</time>
      </trkpt>
      <trkpt lat="37.3067382350564" lon="-3.65574024617672">
        <ele>667.292236328125</ele>
        <time>2011-04-25T15:34:44Z</time>
      </trkpt>
      <trkpt lat="37.307737525552511" lon="-3.654042659327388">
        <ele>667.772705078125</ele>
        <time>2011-04-25T15:34:51Z</time>
      </trkpt>
      <trkpt lat="37.308952063322067" lon="-3.652131166309118">
        <ele>670.656982421875</ele>
        <time>2011-04-25T15:34:59Z</time>
      </trkpt>
      <trkpt lat="37.309932745993137" lon="-3.651189627125859">
        <ele>671.6181640625</ele>
        <time>2011-04-25T15:35:04Z</time>
      </trkpt>
      <trkpt lat="37.31185756623745" lon="-3.649832177907229">
        <ele>673.541015625</ele>
        <time>2011-04-25T15:35:13Z</time>
      </trkpt>
      <trkpt lat="37.312984261661768" lon="-3.648775555193424">
        <ele>674.502197265625</ele>
        <time>2011-04-25T15:35:19Z</time>
      </trkpt>
      <trkpt lat="37.314216652885079" lon="-3.64702214486897">
        <ele>676.905517578125</ele>
        <time>2011-04-25T15:35:27Z</time>
      </trkpt>
      <trkpt lat="37.315416941419244" lon="-3.645639969035983">
        <ele>678.347412109375</ele>
        <time>2011-04-25T15:35:34Z</time>
      </trkpt>
      <trkpt lat="37.316660480573773" lon="-3.644788786768913">
        <ele>679.30859375</ele>
        <time>2011-04-25T15:35:40Z</time>
      </trkpt>
      <trkpt lat="37.31901646591723" lon="-3.643234865739942">
        <ele>680.27001953125</ele>
        <time>2011-04-25T15:35:51Z</time>
      </trkpt>
      <trkpt lat="37.320066718384624" lon="-3.642056370154023">
        <ele>681.2314453125</ele>
        <time>2011-04-25T15:35:57Z</time>
      </trkpt>
      <trkpt lat="37.320884624496102" lon="-3.640627758577466">
        <ele>683.15380859375</ele>
        <time>2011-04-25T15:36:03Z</time>
      </trkpt>
      <trkpt lat="37.322448017075658" lon="-3.637214144691825">
        <ele>688.44140625</ele>
        <time>2011-04-25T15:36:16Z</time>
      </trkpt>
      <trkpt lat="37.323589297011495" lon="-3.635182119905949">
        <ele>692.28662109375</ele>
        <time>2011-04-25T15:36:24Z</time>
      </trkpt>
      <trkpt lat="37.324776677414775" lon="-3.634001780301333">
        <ele>693.247802734375</ele>
        <time>2011-04-25T15:36:30Z</time>
      </trkpt>
      <trkpt lat="37.325955173000693" lon="-3.633369784802198">
        <ele>693.728515625</ele>
        <time>2011-04-25T15:36:35Z</time>
      </trkpt>
      <trkpt lat="37.327232575044036" lon="-3.633079016581178">
        <ele>695.17041015625</ele>
        <time>2011-04-25T15:36:40Z</time>
      </trkpt>
      <trkpt lat="37.330620037391782" lon="-3.632666794583201">
        <ele>699.015625</ele>
        <time>2011-04-25T15:36:53Z</time>
      </trkpt>
      <trkpt lat="37.331843879073858" lon="-3.632223475724459">
        <ele>699.97705078125</ele>
        <time>2011-04-25T15:36:58Z</time>
      </trkpt>
      <trkpt lat="37.332937382161617" lon="-3.631447730585933">
        <ele>701.89990234375</ele>
        <time>2011-04-25T15:37:03Z</time>
      </trkpt>
      <trkpt lat="37.334016719833016" lon="-3.630158258602023">
        <ele>703.822509765625</ele>
        <time>2011-04-25T15:37:09Z</time>
      </trkpt>
      <trkpt lat="37.336254352703691" lon="-3.626788733527064">
        <ele>709.109619140625</ele>
        <time>2011-04-25T15:37:23Z</time>
      </trkpt>
      <trkpt lat="37.338895993307233" lon="-3.622971028089523">
        <ele>716.319580078125</ele>
        <time>2011-04-25T15:37:39Z</time>
      </trkpt>
      <trkpt lat="37.340319072827697" lon="-3.621621457859874">
        <ele>719.20361328125</ele>
        <time>2011-04-25T15:37:46Z</time>
      </trkpt>
      <trkpt lat="37.341854050755501" lon="-3.620667262002826">
        <ele>722.08740234375</ele>
        <time>2011-04-25T15:37:53Z</time>
      </trkpt>
      <trkpt lat="37.345352238044143" lon="-3.618780160322785">
        <ele>728.3359375</ele>
        <time>2011-04-25T15:38:09Z</time>
      </trkpt>
      <trkpt lat="37.348682032898068" lon="-3.616946199908853">
        <ele>736.50732421875</ele>
        <time>2011-04-25T15:38:25Z</time>
      </trkpt>
      <trkpt lat="37.350929221138358" lon="-3.615436870604754">
        <ele>744.19775390625</ele>
        <time>2011-04-25T15:38:36Z</time>
      </trkpt>
      <trkpt lat="37.3532082606107" lon="-3.613961823284626">
        <ele>750.446533203125</ele>
        <time>2011-04-25T15:38:47Z</time>
      </trkpt>
      <trkpt lat="37.35542225651443" lon="-3.612995473667979">
        <ele>754.772216796875</ele>
        <time>2011-04-25T15:38:57Z</time>
      </trkpt>
      <trkpt lat="37.357856780290604" lon="-3.611770458519459">
        <ele>761.020751953125</ele>
        <time>2011-04-25T15:39:08Z</time>
      </trkpt>
      <trkpt lat="37.359542464837432" lon="-3.610523231327534">
        <ele>769.192138671875</ele>
        <time>2011-04-25T15:39:16Z</time>
      </trkpt>
      <trkpt lat="37.361223539337516" lon="-3.608810473233461">
        <ele>776.882568359375</ele>
        <time>2011-04-25T15:39:25Z</time>
      </trkpt>
      <trkpt lat="37.363273333758116" lon="-3.606765540316701">
        <ele>784.092529296875</ele>
        <time>2011-04-25T15:39:36Z</time>
      </trkpt>
      <trkpt lat="37.365582883358002" lon="-3.605171637609601">
        <ele>785.534423828125</ele>
        <time>2011-04-25T15:39:47Z</time>
      </trkpt>
      <trkpt lat="37.366938991472125" lon="-3.603952825069428">
        <ele>791.782958984375</ele>
        <time>2011-04-25T15:39:54Z</time>
      </trkpt>
      <trkpt lat="37.368075074627995" lon="-3.602514741942287">
        <ele>798.03173828125</ele>
        <time>2011-04-25T15:40:01Z</time>
      </trkpt>
      <trkpt lat="37.370256632566452" lon="-3.599440762773156">
        <ele>804.2802734375</ele>
        <time>2011-04-25T15:40:15Z</time>
      </trkpt>
      <trkpt lat="37.372796265408397" lon="-3.596200738102198">
        <ele>811.00927734375</ele>
        <time>2011-04-25T15:40:30Z</time>
      </trkpt>
      <trkpt lat="37.375598838552833" lon="-3.593039168044925">
        <ele>820.141845703125</ele>
        <time>2011-04-25T15:40:45Z</time>
      </trkpt>
      <trkpt lat="37.379905460402369" lon="-3.588514868170023">
        <ele>833.11962890625</ele>
        <time>2011-04-25T15:41:07Z</time>
      </trkpt>
      <trkpt lat="37.382654724642634" lon="-3.585677342489362">
        <ele>841.771484375</ele>
        <time>2011-04-25T15:41:21Z</time>
      </trkpt>
      <trkpt lat="37.38412574864924" lon="-3.584557268768549">
        <ele>849.462158203125</ele>
        <time>2011-04-25T15:41:28Z</time>
      </trkpt>
      <trkpt lat="37.385513288900256" lon="-3.584014624357224">
        <ele>855.710693359375</ele>
        <time>2011-04-25T15:41:34Z</time>
      </trkpt>
      <trkpt lat="37.387441881000996" lon="-3.583622267469764">
        <ele>864.84326171875</ele>
        <time>2011-04-25T15:41:42Z</time>
      </trkpt>
      <trkpt lat="37.388793965801597" lon="-3.582978956401348">
        <ele>869.64990234375</ele>
        <time>2011-04-25T15:41:48Z</time>
      </trkpt>
      <trkpt lat="37.389791831374168" lon="-3.582057785242796">
        <ele>871.572265625</ele>
        <time>2011-04-25T15:41:53Z</time>
      </trkpt>
      <trkpt lat="37.390577718615532" lon="-3.580866968259215">
        <ele>870.13037109375</ele>
        <time>2011-04-25T15:41:58Z</time>
      </trkpt>
      <trkpt lat="37.391628473997116" lon="-3.578695971518755">
        <ele>865.323974609375</ele>
        <time>2011-04-25T15:42:06Z</time>
      </trkpt>
      <trkpt lat="37.392983241006732" lon="-3.576281564310193">
        <ele>858.114013671875</ele>
        <time>2011-04-25T15:42:15Z</time>
      </trkpt>
      <trkpt lat="37.394441524520516" lon="-3.574373256415129">
        <ele>855.22998046875</ele>
        <time>2011-04-25T15:42:23Z</time>
      </trkpt>
      <trkpt lat="37.396071385592222" lon="-3.572788070887327">
        <ele>855.710693359375</ele>
        <time>2011-04-25T15:42:31Z</time>
      </trkpt>
      <trkpt lat="37.398479925468564" lon="-3.570956289768219">
        <ele>855.710693359375</ele>
        <time>2011-04-25T15:42:42Z</time>
      </trkpt>
      <trkpt lat="37.401684997603297" lon="-3.568633832037449">
        <ele>861.478759765625</ele>
        <time>2011-04-25T15:42:56Z</time>
      </trkpt>
      <trkpt lat="37.403467493131757" lon="-3.567135985940695">
        <ele>867.72705078125</ele>
        <time>2011-04-25T15:43:04Z</time>
      </trkpt>
      <trkpt lat="37.405691128224134" lon="-3.56512114405632">
        <ele>875.898193359375</ele>
        <time>2011-04-25T15:43:14Z</time>
      </trkpt>
      <trkpt lat="37.40694816224277" lon="-3.56447909027338">
        <ele>880.224365234375</ele>
        <time>2011-04-25T15:43:19Z</time>
      </trkpt>
      <trkpt lat="37.408331343904138" lon="-3.564272057265043">
        <ele>884.069580078125</ele>
        <time>2011-04-25T15:43:24Z</time>
      </trkpt>
      <trkpt lat="37.410299750044942" lon="-3.564300639554858">
        <ele>889.356689453125</ele>
        <time>2011-04-25T15:43:31Z</time>
      </trkpt>
      <trkpt lat="37.411654684692621" lon="-3.563906271010637">
        <ele>894.16357421875</ele>
        <time>2011-04-25T15:43:36Z</time>
      </trkpt>
      <trkpt lat="37.41291917860508" lon="-3.563057687133551">
        <ele>899.931396484375</ele>
        <time>2011-04-25T15:43:41Z</time>
      </trkpt>
      <trkpt lat="37.413767846301198" lon="-3.562078848481178">
        <ele>904.73779296875</ele>
        <time>2011-04-25T15:43:45Z</time>
      </trkpt>
      <trkpt lat="37.414546189829707" lon="-3.560591395944357">
        <ele>909.544677734375</ele>
        <time>2011-04-25T15:43:50Z</time>
      </trkpt>
      <trkpt lat="37.415801798924804" lon="-3.557834336534143">
        <ele>918.677001953125</ele>
        <time>2011-04-25T15:43:59Z</time>
      </trkpt>
      <trkpt lat="37.416731016710401" lon="-3.556599095463753">
        <ele>922.522216796875</ele>
        <time>2011-04-25T15:44:04Z</time>
      </trkpt>
      <trkpt lat="37.418101290240884" lon="-3.555478351190686">
        <ele>927.8095703125</ele>
        <time>2011-04-25T15:44:10Z</time>
      </trkpt>
      <trkpt lat="37.419404927641153" lon="-3.554939646273851">
        <ele>931.65478515625</ele>
        <time>2011-04-25T15:44:15Z</time>
      </trkpt>
      <trkpt lat="37.420783583074808" lon="-3.554749879986048">
        <ele>935.5</ele>
        <time>2011-04-25T15:44:20Z</time>
      </trkpt>
      <trkpt lat="37.422172632068396" lon="-3.554956829175353">
        <ele>938.86474609375</ele>
        <time>2011-04-25T15:44:25Z</time>
      </trkpt>
      <trkpt lat="37.423510551452637" lon="-3.55554741807282">
        <ele>942.2294921875</ele>
        <time>2011-04-25T15:44:30Z</time>
      </trkpt>
      <trkpt lat="37.424961626529694" lon="-3.556670593097806">
        <ele>947.997314453125</ele>
        <time>2011-04-25T15:44:36Z</time>
      </trkpt>
      <trkpt lat="37.42646936327219" lon="-3.558332556858659">
        <ele>951.842529296875</ele>
        <time>2011-04-25T15:44:43Z</time>
      </trkpt>
      <trkpt lat="37.429102957248688" lon="-3.561703758314252">
        <ele>965.78173828125</ele>
        <time>2011-04-25T15:44:56Z</time>
      </trkpt>
      <trkpt lat="37.430679174140096" lon="-3.56315927579999">
        <ele>972.510986328125</ele>
        <time>2011-04-25T15:45:03Z</time>
      </trkpt>
      <trkpt lat="37.431953474879265" lon="-3.563849190250039">
        <ele>977.317626953125</ele>
        <time>2011-04-25T15:45:08Z</time>
      </trkpt>
      <trkpt lat="37.433319389820099" lon="-3.564121518284082">
        <ele>982.1240234375</ele>
        <time>2011-04-25T15:45:13Z</time>
      </trkpt>
      <trkpt lat="37.434709528461099" lon="-3.56391959823668">
        <ele>985.008056640625</ele>
        <time>2011-04-25T15:45:18Z</time>
      </trkpt>
      <trkpt lat="37.436031270772219" lon="-3.563267737627029">
        <ele>988.853515625</ele>
        <time>2011-04-25T15:45:23Z</time>
      </trkpt>
      <trkpt lat="37.437204318121076" lon="-3.562197368592024">
        <ele>989.333984375</ele>
        <time>2011-04-25T15:45:28Z</time>
      </trkpt>
      <trkpt lat="37.439466174691916" lon="-3.559983456507325">
        <ele>986.930419921875</ele>
        <time>2011-04-25T15:45:38Z</time>
      </trkpt>
      <trkpt lat="37.441053790971637" lon="-3.559076953679323">
        <ele>982.604736328125</ele>
        <time>2011-04-25T15:45:44Z</time>
      </trkpt>
      <trkpt lat="37.442727657034993" lon="-3.558632964268327">
        <ele>975.394775390625</ele>
        <time>2011-04-25T15:45:50Z</time>
      </trkpt>
      <trkpt lat="37.444454832002521" lon="-3.558585690334439">
        <ele>968.66552734375</ele>
        <time>2011-04-25T15:45:56Z</time>
      </trkpt>
      <trkpt lat="37.445827955380082" lon="-3.558933287858963">
        <ele>963.37841796875</ele>
        <time>2011-04-25T15:46:01Z</time>
      </trkpt>
      <trkpt lat="37.447396963834763" lon="-3.559720851480961">
        <ele>956.649169921875</ele>
        <time>2011-04-25T15:46:07Z</time>
      </trkpt>
      <trkpt lat="37.450136421248317" lon="-3.561512734740973">
        <ele>948.95849609375</ele>
        <time>2011-04-25T15:46:18Z</time>
      </trkpt>
      <trkpt lat="37.452164338901639" lon="-3.56252015568316">
        <ele>947.997314453125</ele>
        <time>2011-04-25T15:46:26Z</time>
      </trkpt>
      <trkpt lat="37.454038532450795" lon="-3.563049975782633">
        <ele>950.400634765625</ele>
        <time>2011-04-25T15:46:33Z</time>
      </trkpt>
      <trkpt lat="37.455953042954206" lon="-3.563212584704161">
        <ele>955.687744140625</ele>
        <time>2011-04-25T15:46:40Z</time>
      </trkpt>
      <trkpt lat="37.457848861813545" lon="-3.563001360744238">
        <ele>962.4169921875</ele>
        <time>2011-04-25T15:46:47Z</time>
      </trkpt>
      <trkpt lat="37.46079602278769" lon="-3.562408844009042">
        <ele>975.87548828125</ele>
        <time>2011-04-25T15:46:58Z</time>
      </trkpt>
      <trkpt lat="37.4621597584337" lon="-3.562479754909873">
        <ele>982.1240234375</ele>
        <time>2011-04-25T15:47:03Z</time>
      </trkpt>
      <trkpt lat="37.463477728888392" lon="-3.562989039346576">
        <ele>987.4111328125</ele>
        <time>2011-04-25T15:47:08Z</time>
      </trkpt>
      <trkpt lat="37.464663097634912" lon="-3.563918843865395">
        <ele>993.17919921875</ele>
        <time>2011-04-25T15:47:13Z</time>
      </trkpt>
      <trkpt lat="37.46563003398478" lon="-3.565218541771174">
        <ele>997.98583984375</ele>
        <time>2011-04-25T15:47:18Z</time>
      </trkpt>
      <trkpt lat="37.466515749692917" lon="-3.567100362852216">
        <ele>1004.234619140625</ele>
        <time>2011-04-25T15:47:24Z</time>
      </trkpt>
      <trkpt lat="37.467522416263819" lon="-3.56893734075129">
        <ele>1008.560302734375</ele>
        <time>2011-04-25T15:47:30Z</time>
      </trkpt>
      <trkpt lat="37.468688674271107" lon="-3.570142239332199">
        <ele>1010.002197265625</ele>
        <time>2011-04-25T15:47:35Z</time>
      </trkpt>
      <trkpt lat="37.46978678740561" lon="-3.570777336135507">
        <ele>1009.521728515625</ele>
        <time>2011-04-25T15:47:39Z</time>
      </trkpt>
      <trkpt lat="37.470975173637271" lon="-3.571097524836659">
        <ele>1007.118408203125</ele>
        <time>2011-04-25T15:47:43Z</time>
      </trkpt>
      <trkpt lat="37.472189459949732" lon="-3.571061482653022">
        <ele>1002.3115234375</ele>
        <time>2011-04-25T15:47:47Z</time>
      </trkpt>
      <trkpt lat="37.473653024062514" lon="-3.570629730820656">
        <ele>999.427734375</ele>
        <time>2011-04-25T15:47:52Z</time>
      </trkpt>
      <trkpt lat="37.476092157885432" lon="-3.569868486374617">
        <ele>1003.753662109375</ele>
        <time>2011-04-25T15:48:01Z</time>
      </trkpt>
      <trkpt lat="37.477963753044605" lon="-3.569646365940571">
        <ele>1009.521728515625</ele>
        <time>2011-04-25T15:48:08Z</time>
      </trkpt>
      <trkpt lat="37.479596380144358" lon="-3.569866558536887">
        <ele>1014.808837890625</ele>
        <time>2011-04-25T15:48:14Z</time>
      </trkpt>
      <trkpt lat="37.481211824342608" lon="-3.570473995059729">
        <ele>1019.615478515625</ele>
        <time>2011-04-25T15:48:20Z</time>
      </trkpt>
      <trkpt lat="37.482752753421664" lon="-3.571475548669696">
        <ele>1024.90283203125</ele>
        <time>2011-04-25T15:48:26Z</time>
      </trkpt>
      <trkpt lat="37.48414414934814" lon="-3.572838697582483">
        <ele>1028.748046875</ele>
        <time>2011-04-25T15:48:32Z</time>
      </trkpt>
      <trkpt lat="37.48530512675643" lon="-3.57453259639442">
        <ele>1033.554443359375</ele>
        <time>2011-04-25T15:48:38Z</time>
      </trkpt>
      <trkpt lat="37.487089047208428" lon="-3.577448995783925">
        <ele>1035.47705078125</ele>
        <time>2011-04-25T15:48:48Z</time>
      </trkpt>
      <trkpt lat="37.488868944346905" lon="-3.579712361097336">
        <ele>1030.18994140625</ele>
        <time>2011-04-25T15:48:57Z</time>
      </trkpt>
      <trkpt lat="37.489897068589926" lon="-3.581346161663532">
        <ele>1023.4609375</ele>
        <time>2011-04-25T15:49:03Z</time>
      </trkpt>
      <trkpt lat="37.490525795146823" lon="-3.582952721044421">
        <ele>1017.692626953125</ele>
        <time>2011-04-25T15:49:08Z</time>
      </trkpt>
      <trkpt lat="37.490886049345136" lon="-3.584672939032316">
        <ele>1011.4443359375</ele>
        <time>2011-04-25T15:49:13Z</time>
      </trkpt>
      <trkpt lat="37.490983698517084" lon="-3.586464738473296">
        <ele>1005.676513671875</ele>
        <time>2011-04-25T15:49:18Z</time>
      </trkpt>
      <trkpt lat="37.490769792348146" lon="-3.588282354176045">
        <ele>1001.350341796875</ele>
        <time>2011-04-25T15:49:23Z</time>
      </trkpt>
      <trkpt lat="37.490287162363529" lon="-3.590008020401001">
        <ele>993.17919921875</ele>
        <time>2011-04-25T15:49:28Z</time>
      </trkpt>
      <trkpt lat="37.489311676472425" lon="-3.592216484248638">
        <ele>985.488525390625</ele>
        <time>2011-04-25T15:49:35Z</time>
      </trkpt>
      <trkpt lat="37.487174039706588" lon="-3.596820160746574">
        <ele>969.626953125</ele>
        <time>2011-04-25T15:49:50Z</time>
      </trkpt>
      <trkpt lat="37.486370634287596" lon="-3.599037760868669">
        <ele>962.897705078125</ele>
        <time>2011-04-25T15:49:57Z</time>
      </trkpt>
      <trkpt lat="37.486193021759391" lon="-3.600763343274593">
        <ele>960.013671875</ele>
        <time>2011-04-25T15:50:02Z</time>
      </trkpt>
      <trkpt lat="37.486377423629165" lon="-3.602513568475843">
        <ele>958.09130859375</ele>
        <time>2011-04-25T15:50:07Z</time>
      </trkpt>
      <trkpt lat="37.486924426630139" lon="-3.604136388748884">
        <ele>957.1298828125</ele>
        <time>2011-04-25T15:50:12Z</time>
      </trkpt>
      <trkpt lat="37.48791198246181" lon="-3.605856355279684">
        <ele>956.16845703125</ele>
        <time>2011-04-25T15:50:18Z</time>
      </trkpt>
      <trkpt lat="37.488826531916857" lon="-3.607684532180429">
        <ele>956.16845703125</ele>
        <time>2011-04-25T15:50:24Z</time>
      </trkpt>
      <trkpt lat="37.4894027877599" lon="-3.609788892790675">
        <ele>954.726318359375</ele>
        <time>2011-04-25T15:50:30Z</time>
      </trkpt>
      <trkpt lat="37.48954544775188" lon="-3.611626625061035">
        <ele>953.76513671875</ele>
        <time>2011-04-25T15:50:35Z</time>
      </trkpt>
      <trkpt lat="37.489366075024009" lon="-3.613782785832882">
        <ele>952.8037109375</ele>
        <time>2011-04-25T15:50:41Z</time>
      </trkpt>
      <trkpt lat="37.489137584343553" lon="-3.616963047534227">
        <ele>950.881103515625</ele>
        <time>2011-04-25T15:50:50Z</time>
      </trkpt>
      <trkpt lat="37.489360794425011" lon="-3.618706231936812">
        <ele>949.919921875</ele>
        <time>2011-04-25T15:50:55Z</time>
      </trkpt>
      <trkpt lat="37.489957753568888" lon="-3.620332572609186">
        <ele>948.95849609375</ele>
        <time>2011-04-25T15:51:00Z</time>
      </trkpt>
      <trkpt lat="37.49084715731442" lon="-3.621727488934994">
        <ele>947.997314453125</ele>
        <time>2011-04-25T15:51:05Z</time>
      </trkpt>
      <trkpt lat="37.491997489705682" lon="-3.622767264023423">
        <ele>947.5166015625</ele>
        <time>2011-04-25T15:51:10Z</time>
      </trkpt>
      <trkpt lat="37.493752324953675" lon="-3.623867891728878">
        <ele>949.919921875</ele>
        <time>2011-04-25T15:51:17Z</time>
      </trkpt>
      <trkpt lat="37.499050525948405" lon="-3.626925861462951">
        <ele>954.245849609375</ele>
        <time>2011-04-25T15:51:38Z</time>
      </trkpt>
      <trkpt lat="37.503630649298429" lon="-3.62959717400372">
        <ele>959.052490234375</ele>
        <time>2011-04-25T15:51:56Z</time>
      </trkpt>
      <trkpt lat="37.506917025893927" lon="-3.631668677553535">
        <ele>972.99169921875</ele>
        <time>2011-04-25T15:52:09Z</time>
      </trkpt>
      <trkpt lat="37.509840046986938" lon="-3.633895497769117">
        <ele>979.720703125</ele>
        <time>2011-04-25T15:52:21Z</time>
      </trkpt>
      <trkpt lat="37.51246115192771" lon="-3.635881338268518">
        <ele>984.52734375</ele>
        <time>2011-04-25T15:52:32Z</time>
      </trkpt>
      <trkpt lat="37.514964239671826" lon="-3.637340124696493">
        <ele>988.372802734375</ele>
        <time>2011-04-25T15:52:42Z</time>
      </trkpt>
      <trkpt lat="37.516301237046719" lon="-3.637793669477105">
        <ele>991.256591796875</ele>
        <time>2011-04-25T15:52:47Z</time>
      </trkpt>
      <trkpt lat="37.517710821703076" lon="-3.637825017794967">
        <ele>994.62109375</ele>
        <time>2011-04-25T15:52:52Z</time>
      </trkpt>
      <trkpt lat="37.521983161568642" lon="-3.637314476072788">
        <ele>1004.715087890625</ele>
        <time>2011-04-25T15:53:07Z</time>
      </trkpt>
      <trkpt lat="37.525871358811855" lon="-3.636878030374646">
        <ele>1018.654052734375</ele>
        <time>2011-04-25T15:53:21Z</time>
      </trkpt>
      <trkpt lat="37.529251696541905" lon="-3.636483829468489">
        <ele>1037.880615234375</ele>
        <time>2011-04-25T15:53:34Z</time>
      </trkpt>
      <trkpt lat="37.531824186444283" lon="-3.636031877249479">
        <ele>1049.416259765625</ele>
        <time>2011-04-25T15:53:44Z</time>
      </trkpt>
      <trkpt lat="37.534289890900254" lon="-3.635814869776368">
        <ele>1048.935546875</ele>
        <time>2011-04-25T15:53:53Z</time>
      </trkpt>
      <trkpt lat="37.536591645330191" lon="-3.635778743773699">
        <ele>1035.957763671875</ele>
        <time>2011-04-25T15:54:02Z</time>
      </trkpt>
      <trkpt lat="37.539011165499687" lon="-3.635774720460177">
        <ele>1019.615478515625</ele>
        <time>2011-04-25T15:54:11Z</time>
      </trkpt>
      <trkpt lat="37.540645720437169" lon="-3.635342130437493">
        <ele>1009.041015625</ele>
        <time>2011-04-25T15:54:17Z</time>
      </trkpt>
      <trkpt lat="37.542818980291486" lon="-3.634752966463566">
        <ele>995.101806640625</ele>
        <time>2011-04-25T15:54:25Z</time>
      </trkpt>
      <trkpt lat="37.544490583240986" lon="-3.634786494076252">
        <ele>985.008056640625</ele>
        <time>2011-04-25T15:54:31Z</time>
      </trkpt>
      <trkpt lat="37.545759435743093" lon="-3.634730922058225">
        <ele>977.317626953125</ele>
        <time>2011-04-25T15:54:36Z</time>
      </trkpt>
      <trkpt lat="37.54703558050096" lon="-3.634383324533701">
        <ele>969.626953125</ele>
        <time>2011-04-25T15:54:41Z</time>
      </trkpt>
      <trkpt lat="37.548295296728611" lon="-3.633661726489663">
        <ele>961.9365234375</ele>
        <time>2011-04-25T15:54:46Z</time>
      </trkpt>
      <trkpt lat="37.549423584714532" lon="-3.632607283070684">
        <ele>953.76513671875</ele>
        <time>2011-04-25T15:54:51Z</time>
      </trkpt>
      <trkpt lat="37.550801150500774" lon="-3.63091497682035">
        <ele>944.152099609375</ele>
        <time>2011-04-25T15:54:58Z</time>
      </trkpt>
      <trkpt lat="37.552322717383504" lon="-3.629574626684189">
        <ele>933.577392578125</ele>
        <time>2011-04-25T15:55:05Z</time>
      </trkpt>
      <trkpt lat="37.554379887878895" lon="-3.62818063236773">
        <ele>919.15771484375</ele>
        <time>2011-04-25T15:55:14Z</time>
      </trkpt>
      <trkpt lat="37.555881841108203" lon="-3.626759732142091">
        <ele>910.025146484375</ele>
        <time>2011-04-25T15:55:21Z</time>
      </trkpt>
      <trkpt lat="37.557119261473417" lon="-3.625978035852313">
        <ele>902.815185546875</ele>
        <time>2011-04-25T15:55:26Z</time>
      </trkpt>
      <trkpt lat="37.558559942990541" lon="-3.625614261254668">
        <ele>894.64404296875</ele>
        <time>2011-04-25T15:55:31Z</time>
      </trkpt>
      <trkpt lat="37.56037998944521" lon="-3.625575369223952">
        <ele>884.069580078125</ele>
        <time>2011-04-25T15:55:37Z</time>
      </trkpt>
      <trkpt lat="37.561839865520597" lon="-3.625208158046007">
        <ele>875.41748046875</ele>
        <time>2011-04-25T15:55:42Z</time>
      </trkpt>
      <trkpt lat="37.563111986964941" lon="-3.624355718493462">
        <ele>866.765869140625</ele>
        <time>2011-04-25T15:55:47Z</time>
      </trkpt>
      <trkpt lat="37.564730532467365" lon="-3.622749242931604">
        <ele>853.7880859375</ele>
        <time>2011-04-25T15:55:54Z</time>
      </trkpt>
      <trkpt lat="37.567012086510658" lon="-3.620432736352086">
        <ele>837.92626953125</ele>
        <time>2011-04-25T15:56:04Z</time>
      </trkpt>
      <trkpt lat="37.568163424730301" lon="-3.618939751759172">
        <ele>833.11962890625</ele>
        <time>2011-04-25T15:56:10Z</time>
      </trkpt>
      <trkpt lat="37.569499667733908" lon="-3.61677017994225">
        <ele>831.197265625</ele>
        <time>2011-04-25T15:56:18Z</time>
      </trkpt>
      <trkpt lat="37.570488480851054" lon="-3.615701822564006">
        <ele>828.7939453125</ele>
        <time>2011-04-25T15:56:23Z</time>
      </trkpt>
      <trkpt lat="37.571632526814938" lon="-3.614365998655558">
        <ele>825.90966796875</ele>
        <time>2011-04-25T15:56:29Z</time>
      </trkpt>
      <trkpt lat="37.572295619174838" lon="-3.612944092601538">
        <ele>822.545166015625</ele>
        <time>2011-04-25T15:56:34Z</time>
      </trkpt>
      <trkpt lat="37.573394738137722" lon="-3.610238078981638">
        <ele>816.296630859375</ele>
        <time>2011-04-25T15:56:43Z</time>
      </trkpt>
      <trkpt lat="37.574406685307622" lon="-3.608598746359348">
        <ele>812.93212890625</ele>
        <time>2011-04-25T15:56:49Z</time>
      </trkpt>
      <trkpt lat="37.575859520584345" lon="-3.606956228613854">
        <ele>808.60595703125</ele>
        <time>2011-04-25T15:56:56Z</time>
      </trkpt>
      <trkpt lat="37.576876580715179" lon="-3.606339655816555">
        <ele>806.20263671875</ele>
        <time>2011-04-25T15:57:00Z</time>
      </trkpt>
      <trkpt lat="37.57828482426703" lon="-3.606023574247956">
        <ele>800.43505859375</ele>
        <time>2011-04-25T15:57:05Z</time>
      </trkpt>
      <trkpt lat="37.580292792990804" lon="-3.605816289782524">
        <ele>792.744384765625</ele>
        <time>2011-04-25T15:57:12Z</time>
      </trkpt>
      <trkpt lat="37.581360563635826" lon="-3.605265431106091">
        <ele>789.379638671875</ele>
        <time>2011-04-25T15:57:16Z</time>
      </trkpt>
      <trkpt lat="37.582303527742624" lon="-3.604360185563564">
        <ele>786.495849609375</ele>
        <time>2011-04-25T15:57:20Z</time>
      </trkpt>
      <trkpt lat="37.583782598376274" lon="-3.602601829916239">
        <ele>781.689208984375</ele>
        <time>2011-04-25T15:57:27Z</time>
      </trkpt>
      <trkpt lat="37.584811141714454" lon="-3.601962793618441">
        <ele>778.80517578125</ele>
        <time>2011-04-25T15:57:31Z</time>
      </trkpt>
      <trkpt lat="37.585969772189856" lon="-3.601711085066199">
        <ele>775.921142578125</ele>
        <time>2011-04-25T15:57:35Z</time>
      </trkpt>
      <trkpt lat="37.587189255282283" lon="-3.601866317912936">
        <ele>772.556640625</ele>
        <time>2011-04-25T15:57:39Z</time>
      </trkpt>
      <trkpt lat="37.589638195931911" lon="-3.602222632616758">
        <ele>769.6728515625</ele>
        <time>2011-04-25T15:57:47Z</time>
      </trkpt>
      <trkpt lat="37.59267739020288" lon="-3.602217854931951">
        <ele>762.943359375</ele>
        <time>2011-04-25T15:57:57Z</time>
      </trkpt>
      <trkpt lat="37.595367981120944" lon="-3.602472916245461">
        <ele>755.733642578125</ele>
        <time>2011-04-25T15:58:06Z</time>
      </trkpt>
      <trkpt lat="37.597091551870108" lon="-3.602435449138284">
        <ele>753.330322265625</ele>
        <time>2011-04-25T15:58:12Z</time>
      </trkpt>
      <trkpt lat="37.598482025787234" lon="-3.601923817768693">
        <ele>752.849609375</ele>
        <time>2011-04-25T15:58:17Z</time>
      </trkpt>
      <trkpt lat="37.601829171180725" lon="-3.600323544815183">
        <ele>749.00439453125</ele>
        <time>2011-04-25T15:58:29Z</time>
      </trkpt>
      <trkpt lat="37.603278737515211" lon="-3.600021125748754">
        <ele>743.717041015625</ele>
        <time>2011-04-25T15:58:34Z</time>
      </trkpt>
      <trkpt lat="37.604457652196288" lon="-3.600219190120697">
        <ele>739.871826171875</ele>
        <time>2011-04-25T15:58:38Z</time>
      </trkpt>
      <trkpt lat="37.60700885206461" lon="-3.601108090952039">
        <ele>732.662109375</ele>
        <time>2011-04-25T15:58:47Z</time>
      </trkpt>
      <trkpt lat="37.608302934095263" lon="-3.601907724514604">
        <ele>730.7392578125</ele>
        <time>2011-04-25T15:58:52Z</time>
      </trkpt>
      <trkpt lat="37.609657449647784" lon="-3.602354731410742">
        <ele>728.816650390625</ele>
        <time>2011-04-25T15:58:57Z</time>
      </trkpt>
      <trkpt lat="37.610795795917511" lon="-3.602293794974685">
        <ele>724.49072265625</ele>
        <time>2011-04-25T15:59:01Z</time>
      </trkpt>
      <trkpt lat="37.612177971750498" lon="-3.601768920198083">
        <ele>720.164794921875</ele>
        <time>2011-04-25T15:59:06Z</time>
      </trkpt>
      <trkpt lat="37.614928158000112" lon="-3.600375931710005">
        <ele>715.358154296875</ele>
        <time>2011-04-25T15:59:16Z</time>
      </trkpt>
      <trkpt lat="37.616098523139954" lon="-3.60011475160718">
        <ele>713.435546875</ele>
        <time>2011-04-25T15:59:20Z</time>
      </trkpt>
      <trkpt lat="37.617276180535555" lon="-3.600277695804834">
        <ele>711.512939453125</ele>
        <time>2011-04-25T15:59:24Z</time>
      </trkpt>
      <trkpt lat="37.618367085233331" lon="-3.600853197276592">
        <ele>708.1484375</ele>
        <time>2011-04-25T15:59:28Z</time>
      </trkpt>
      <trkpt lat="37.619564021006227" lon="-3.601932786405087">
        <ele>703.341796875</ele>
        <time>2011-04-25T15:59:33Z</time>
      </trkpt>
      <trkpt lat="37.620865060016513" lon="-3.602759158238769">
        <ele>699.015625</ele>
        <time>2011-04-25T15:59:38Z</time>
      </trkpt>
      <trkpt lat="37.622028468176723" lon="-3.603043556213379">
        <ele>695.651123046875</ele>
        <time>2011-04-25T15:59:42Z</time>
      </trkpt>
      <trkpt lat="37.62442602775991" lon="-3.603154197335243">
        <ele>688.922119140625</ele>
        <time>2011-04-25T15:59:50Z</time>
      </trkpt>
      <trkpt lat="37.628868436440825" lon="-3.603334994986653">
        <ele>680.27001953125</ele>
        <time>2011-04-25T16:00:05Z</time>
      </trkpt>
      <trkpt lat="37.631268678233027" lon="-3.603599276393652">
        <ele>672.57958984375</ele>
        <time>2011-04-25T16:00:13Z</time>
      </trkpt>
      <trkpt lat="37.632415490224957" lon="-3.60413177870214">
        <ele>667.292236328125</ele>
        <time>2011-04-25T16:00:17Z</time>
      </trkpt>
      <trkpt lat="37.634302591904998" lon="-3.605203069746494">
        <ele>662.005126953125</ele>
        <time>2011-04-25T16:00:24Z</time>
      </trkpt>
      <trkpt lat="37.635703627020121" lon="-3.60549308359623">
        <ele>660.56298828125</ele>
        <time>2011-04-25T16:00:29Z</time>
      </trkpt>
      <trkpt lat="37.637685360386968" lon="-3.605714784935117">
        <ele>659.601806640625</ele>
        <time>2011-04-25T16:00:36Z</time>
      </trkpt>
      <trkpt lat="37.639838252216578" lon="-3.606406794860959">
        <ele>659.12109375</ele>
        <time>2011-04-25T16:00:44Z</time>
      </trkpt>
      <trkpt lat="37.641829876229167" lon="-3.606804432347417">
        <ele>656.237060546875</ele>
        <time>2011-04-25T16:00:51Z</time>
      </trkpt>
      <trkpt lat="37.644174881279469" lon="-3.606967628002167">
        <ele>646.143310546875</ele>
        <time>2011-04-25T16:00:59Z</time>
      </trkpt>
      <trkpt lat="37.64669674448669" lon="-3.606850868090987">
        <ele>635.568603515625</ele>
        <time>2011-04-25T16:01:08Z</time>
      </trkpt>
      <trkpt lat="37.648998834192753" lon="-3.606435460969806">
        <ele>631.723388671875</ele>
        <time>2011-04-25T16:01:16Z</time>
      </trkpt>
      <trkpt lat="37.652055462822318" lon="-3.605472547933459">
        <ele>628.839599609375</ele>
        <time>2011-04-25T16:01:27Z</time>
      </trkpt>
      <trkpt lat="37.654510270804167" lon="-3.604881037026644">
        <ele>627.878173828125</ele>
        <time>2011-04-25T16:01:36Z</time>
      </trkpt>
      <trkpt lat="37.655811477452517" lon="-3.605160489678383">
        <ele>626.436279296875</ele>
        <time>2011-04-25T16:01:41Z</time>
      </trkpt>
      <trkpt lat="37.656980669125915" lon="-3.605967331677675">
        <ele>624.032958984375</ele>
        <time>2011-04-25T16:01:46Z</time>
      </trkpt>
      <trkpt lat="37.657907539978623" lon="-3.607237860560417">
        <ele>623.07177734375</ele>
        <time>2011-04-25T16:01:51Z</time>
      </trkpt>
      <trkpt lat="37.658381368964911" lon="-3.608566224575043">
        <ele>620.66845703125</ele>
        <time>2011-04-25T16:01:55Z</time>
      </trkpt>
      <trkpt lat="37.659496916458011" lon="-3.611523192375898">
        <ele>616.822998046875</ele>
        <time>2011-04-25T16:02:04Z</time>
      </trkpt>
      <trkpt lat="37.660295460373163" lon="-3.612613761797547">
        <ele>615.86181640625</ele>
        <time>2011-04-25T16:02:08Z</time>
      </trkpt>
      <trkpt lat="37.661728765815496" lon="-3.613965343683958">
        <ele>617.3037109375</ele>
        <time>2011-04-25T16:02:14Z</time>
      </trkpt>
      <trkpt lat="37.662797458469868" lon="-3.615297144278884">
        <ele>615.86181640625</ele>
        <time>2011-04-25T16:02:19Z</time>
      </trkpt>
      <trkpt lat="37.664571236819029" lon="-3.617421621456742">
        <ele>611.05517578125</ele>
        <time>2011-04-25T16:02:27Z</time>
      </trkpt>
      <trkpt lat="37.665913850069046" lon="-3.618266936391592">
        <ele>608.65185546875</ele>
        <time>2011-04-25T16:02:32Z</time>
      </trkpt>
      <trkpt lat="37.668085265904665" lon="-3.619228173047304">
        <ele>604.326171875</ele>
        <time>2011-04-25T16:02:40Z</time>
      </trkpt>
      <trkpt lat="37.670780718326569" lon="-3.620479423552752">
        <ele>598.557861328125</ele>
        <time>2011-04-25T16:02:50Z</time>
      </trkpt>
      <trkpt lat="37.672018893063068" lon="-3.621480977162719">
        <ele>596.635498046875</ele>
        <time>2011-04-25T16:02:55Z</time>
      </trkpt>
      <trkpt lat="37.673291768878698" lon="-3.622993743047118">
        <ele>594.232177734375</ele>
        <time>2011-04-25T16:03:01Z</time>
      </trkpt>
      <trkpt lat="37.674242276698351" lon="-3.623771835118532">
        <ele>592.3095703125</ele>
        <time>2011-04-25T16:03:05Z</time>
      </trkpt>
      <trkpt lat="37.675585141405463" lon="-3.624422689899802">
        <ele>590.867431640625</ele>
        <time>2011-04-25T16:03:10Z</time>
      </trkpt>
      <trkpt lat="37.678566835820675" lon="-3.625522395595908">
        <ele>586.060791015625</ele>
        <time>2011-04-25T16:03:21Z</time>
      </trkpt>
      <trkpt lat="37.682044990360737" lon="-3.627140522003174">
        <ele>582.6962890625</ele>
        <time>2011-04-25T16:03:34Z</time>
      </trkpt>
      <trkpt lat="37.683800077065825" lon="-3.628255734220147">
        <ele>583.657470703125</ele>
        <time>2011-04-25T16:03:41Z</time>
      </trkpt>
      <trkpt lat="37.685572765767574" lon="-3.629392571747303">
        <ele>583.657470703125</ele>
        <time>2011-04-25T16:03:48Z</time>
      </trkpt>
      <trkpt lat="37.686722343787551" lon="-3.629562053829432">
        <ele>583.657470703125</ele>
        <time>2011-04-25T16:03:52Z</time>
      </trkpt>
      <trkpt lat="37.688435185700655" lon="-3.62964746542275">
        <ele>584.13818359375</ele>
        <time>2011-04-25T16:03:58Z</time>
      </trkpt>
      <trkpt lat="37.689517959952354" lon="-3.630086844787002">
        <ele>585.580078125</ele>
        <time>2011-04-25T16:04:02Z</time>
      </trkpt>
      <trkpt lat="37.693298198282719" lon="-3.632056843489409">
        <ele>591.34814453125</ele>
        <time>2011-04-25T16:04:17Z</time>
      </trkpt>
      <trkpt lat="37.694634944200516" lon="-3.63178912550211">
        <ele>592.3095703125</ele>
        <time>2011-04-25T16:04:23Z</time>
      </trkpt>
      <trkpt lat="37.69611032679677" lon="-3.632729826495051">
        <ele>591.828857421875</ele>
        <time>2011-04-25T16:04:29Z</time>
      </trkpt>
      <trkpt lat="37.697952166199684" lon="-3.633752083405852">
        <ele>589.90625</ele>
        <time>2011-04-25T16:04:36Z</time>
      </trkpt>
      <trkpt lat="37.699857288971543" lon="-3.634408973157406">
        <ele>584.618896484375</ele>
        <time>2011-04-25T16:04:43Z</time>
      </trkpt>
      <trkpt lat="37.701995931565762" lon="-3.635342633351684">
        <ele>578.370361328125</ele>
        <time>2011-04-25T16:04:51Z</time>
      </trkpt>
      <trkpt lat="37.704114289954305" lon="-3.63658843562007">
        <ele>575.005859375</ele>
        <time>2011-04-25T16:04:59Z</time>
      </trkpt>
      <trkpt lat="37.707894025370479" lon="-3.638619622215629">
        <ele>556.260009765625</ele>
        <time>2011-04-25T16:05:13Z</time>
      </trkpt>
      <trkpt lat="37.709891432896256" lon="-3.639984279870987">
        <ele>545.204833984375</ele>
        <time>2011-04-25T16:05:21Z</time>
      </trkpt>
      <trkpt lat="37.711232621222734" lon="-3.641357067972422">
        <ele>543.2821044921875</ele>
        <time>2011-04-25T16:05:27Z</time>
      </trkpt>
      <trkpt lat="37.712817387655377" lon="-3.643474839627743">
        <ele>551.453369140625</ele>
        <time>2011-04-25T16:05:35Z</time>
      </trkpt>
      <trkpt lat="37.714560991153121" lon="-3.645664025098085">
        <ele>565.392578125</ele>
        <time>2011-04-25T16:05:44Z</time>
      </trkpt>
      <trkpt lat="37.716819746419787" lon="-3.647989416494966">
        <ele>581.73486328125</ele>
        <time>2011-04-25T16:05:55Z</time>
      </trkpt>
      <trkpt lat="37.71799991838634" lon="-3.649338567629457">
        <ele>587.9833984375</ele>
        <time>2011-04-25T16:06:01Z</time>
      </trkpt>
      <trkpt lat="37.718747835606337" lon="-3.650819566100836">
        <ele>588.945068359375</ele>
        <time>2011-04-25T16:06:06Z</time>
      </trkpt>
      <trkpt lat="37.719167182222009" lon="-3.652607090771198">
        <ele>585.099609375</ele>
        <time>2011-04-25T16:06:11Z</time>
      </trkpt>
      <trkpt lat="37.719192998483777" lon="-3.654500395059586">
        <ele>575.967041015625</ele>
        <time>2011-04-25T16:06:16Z</time>
      </trkpt>
      <trkpt lat="37.718901559710503" lon="-3.656020034104586">
        <ele>567.795654296875</ele>
        <time>2011-04-25T16:06:20Z</time>
      </trkpt>
      <trkpt lat="37.718189433217049" lon="-3.657818287611008">
        <ele>558.182861328125</ele>
        <time>2011-04-25T16:06:25Z</time>
      </trkpt>
      <trkpt lat="37.717167846858501" lon="-3.660657657310367">
        <ele>553.3759765625</ele>
        <time>2011-04-25T16:06:33Z</time>
      </trkpt>
      <trkpt lat="37.716765934601426" lon="-3.662798563018441">
        <ele>553.3759765625</ele>
        <time>2011-04-25T16:06:39Z</time>
      </trkpt>
      <trkpt lat="37.716633081436157" lon="-3.665026975795627">
        <ele>550.4921875</ele>
        <time>2011-04-25T16:06:45Z</time>
      </trkpt>
      <trkpt lat="37.716780351474881" lon="-3.667707592248917">
        <ele>543.2821044921875</ele>
        <time>2011-04-25T16:06:52Z</time>
      </trkpt>
      <trkpt lat="37.717095175758004" lon="-3.671372244134545">
        <ele>529.82373046875</ele>
        <time>2011-04-25T16:07:02Z</time>
      </trkpt>
      <trkpt lat="37.71762172691524" lon="-3.673092797398567">
        <ele>521.652587890625</ele>
        <time>2011-04-25T16:07:07Z</time>
      </trkpt>
      <trkpt lat="37.718511633574963" lon="-3.674574969336391">
        <ele>516.845947265625</ele>
        <time>2011-04-25T16:07:12Z</time>
      </trkpt>
      <trkpt lat="37.719651069492102" lon="-3.675699569284916">
        <ele>513.4814453125</ele>
        <time>2011-04-25T16:07:17Z</time>
      </trkpt>
      <trkpt lat="37.72144571878016" lon="-3.676892817020416">
        <ele>510.11669921875</ele>
        <time>2011-04-25T16:07:24Z</time>
      </trkpt>
      <trkpt lat="37.725295191630721" lon="-3.679447369650006">
        <ele>498.5809326171875</ele>
        <time>2011-04-25T16:07:39Z</time>
      </trkpt>
      <trkpt lat="37.728886920958757" lon="-3.681820956990123">
        <ele>491.3709716796875</ele>
        <time>2011-04-25T16:07:53Z</time>
      </trkpt>
      <trkpt lat="37.731905663385987" lon="-3.683780897408724">
        <ele>487.0450439453125</ele>
        <time>2011-04-25T16:08:05Z</time>
      </trkpt>
      <trkpt lat="37.733964929357171" lon="-3.684926955029368">
        <ele>483.680419921875</ele>
        <time>2011-04-25T16:08:13Z</time>
      </trkpt>
      <trkpt lat="37.735377196222544" lon="-3.685255777090788">
        <ele>483.1998291015625</ele>
        <time>2011-04-25T16:08:18Z</time>
      </trkpt>
      <trkpt lat="37.737101940438151" lon="-3.685177322477102">
        <ele>486.083740234375</ele>
        <time>2011-04-25T16:08:24Z</time>
      </trkpt>
      <trkpt lat="37.738760886713862" lon="-3.684651274234057">
        <ele>494.2550048828125</ele>
        <time>2011-04-25T16:08:30Z</time>
      </trkpt>
      <trkpt lat="37.740636421367526" lon="-3.684151628986001">
        <ele>504.8294677734375</ele>
        <time>2011-04-25T16:08:37Z</time>
      </trkpt>
      <trkpt lat="37.742261169478297" lon="-3.684133188799024">
        <ele>512.52001953125</ele>
        <time>2011-04-25T16:08:43Z</time>
      </trkpt>
      <trkpt lat="37.744185151532292" lon="-3.684530993923545">
        <ele>518.7685546875</ele>
        <time>2011-04-25T16:08:50Z</time>
      </trkpt>
      <trkpt lat="37.745830351486802" lon="-3.685285281389952">
        <ele>520.2105712890625</ele>
        <time>2011-04-25T16:08:56Z</time>
      </trkpt>
      <trkpt lat="37.747397348284721" lon="-3.686449863016605">
        <ele>520.6912841796875</ele>
        <time>2011-04-25T16:09:02Z</time>
      </trkpt>
      <trkpt lat="37.74879083968699" lon="-3.687974866479635">
        <ele>521.652587890625</ele>
        <time>2011-04-25T16:09:08Z</time>
      </trkpt>
      <trkpt lat="37.749903285875916" lon="-3.689727019518614">
        <ele>524.0557861328125</ele>
        <time>2011-04-25T16:09:14Z</time>
      </trkpt>
      <trkpt lat="37.750746924430132" lon="-3.691712357103825">
        <ele>527.9010009765625</ele>
        <time>2011-04-25T16:09:20Z</time>
      </trkpt>
      <trkpt lat="37.751762140542269" lon="-3.694749036803842">
        <ele>529.82373046875</ele>
        <time>2011-04-25T16:09:29Z</time>
      </trkpt>
      <trkpt lat="37.752771656960249" lon="-3.696945263072848">
        <ele>532.707763671875</ele>
        <time>2011-04-25T16:09:36Z</time>
      </trkpt>
      <trkpt lat="37.754055932164192" lon="-3.698927247896791">
        <ele>534.149658203125</ele>
        <time>2011-04-25T16:09:43Z</time>
      </trkpt>
      <trkpt lat="37.755777323618531" lon="-3.70093354023993">
        <ele>537.03369140625</ele>
        <time>2011-04-25T16:09:51Z</time>
      </trkpt>
      <trkpt lat="37.757647326216102" lon="-3.703300673514605">
        <ele>538.4757080078125</ele>
        <time>2011-04-25T16:10:00Z</time>
      </trkpt>
      <trkpt lat="37.758815260604024" lon="-3.705383576452732">
        <ele>536.5531005859375</ele>
        <time>2011-04-25T16:10:07Z</time>
      </trkpt>
      <trkpt lat="37.759710866957903" lon="-3.707650126889348">
        <ele>531.2657470703125</ele>
        <time>2011-04-25T16:10:14Z</time>
      </trkpt>
      <trkpt lat="37.760334564372897" lon="-3.710079118609428">
        <ele>522.1331787109375</ele>
        <time>2011-04-25T16:10:21Z</time>
      </trkpt>
      <trkpt lat="37.760851979255676" lon="-3.713310677558184">
        <ele>506.7520751953125</ele>
        <time>2011-04-25T16:10:30Z</time>
      </trkpt>
      <trkpt lat="37.761407280340791" lon="-3.715383857488632">
        <ele>496.177734375</ele>
        <time>2011-04-25T16:10:36Z</time>
      </trkpt>
      <trkpt lat="37.762281093746424" lon="-3.717270875349641">
        <ele>487.0450439453125</ele>
        <time>2011-04-25T16:10:42Z</time>
      </trkpt>
      <trkpt lat="37.763449279591441" lon="-3.718916578218341">
        <ele>476.9512939453125</ele>
        <time>2011-04-25T16:10:48Z</time>
      </trkpt>
      <trkpt lat="37.764809494838119" lon="-3.720268495380878">
        <ele>468.780029296875</ele>
        <time>2011-04-25T16:10:54Z</time>
      </trkpt>
      <trkpt lat="37.766794497147202" lon="-3.722377046942711">
        <ele>455.321533203125</ele>
        <time>2011-04-25T16:11:03Z</time>
      </trkpt>
      <trkpt lat="37.768153455108404" lon="-3.724390882998705">
        <ele>443.7857666015625</ele>
        <time>2011-04-25T16:11:10Z</time>
      </trkpt>
      <trkpt lat="37.769233547151089" lon="-3.726599346846342">
        <ele>437.0565185546875</ele>
        <time>2011-04-25T16:11:17Z</time>
      </trkpt>
      <trkpt lat="37.770004095509648" lon="-3.72891585342586">
        <ele>433.69189453125</ele>
        <time>2011-04-25T16:11:24Z</time>
      </trkpt>
      <trkpt lat="37.770549757406116" lon="-3.731665872037411">
        <ele>428.4046630859375</ele>
        <time>2011-04-25T16:11:32Z</time>
      </trkpt>
      <trkpt lat="37.771338662132621" lon="-3.735818518325687">
        <ele>422.156005859375</ele>
        <time>2011-04-25T16:11:44Z</time>
      </trkpt>
      <trkpt lat="37.772206189110875" lon="-3.738453285768628">
        <ele>417.349609375</ele>
        <time>2011-04-25T16:11:52Z</time>
      </trkpt>
      <trkpt lat="37.773442938923836" lon="-3.741371529176831">
        <ele>406.77490234375</ele>
        <time>2011-04-25T16:12:01Z</time>
      </trkpt>
      <trkpt lat="37.77510448358953" lon="-3.744565872475505">
        <ele>393.7972412109375</ele>
        <time>2011-04-25T16:12:11Z</time>
      </trkpt>
      <trkpt lat="37.77695445343852" lon="-3.747430136427283">
        <ele>389.951904296875</ele>
        <time>2011-04-25T16:12:21Z</time>
      </trkpt>
      <trkpt lat="37.779151434078813" lon="-3.750235140323639">
        <ele>395.2391357421875</ele>
        <time>2011-04-25T16:12:32Z</time>
      </trkpt>
      <trkpt lat="37.78155486099422" lon="-3.752733031287789">
        <ele>401.007080078125</ele>
        <time>2011-04-25T16:12:43Z</time>
      </trkpt>
      <trkpt lat="37.783987624570727" lon="-3.75478676520288">
        <ele>405.813720703125</ele>
        <time>2011-04-25T16:12:53Z</time>
      </trkpt>
      <trkpt lat="37.786397840827703" lon="-3.756374968215823">
        <ele>409.6590576171875</ele>
        <time>2011-04-25T16:13:02Z</time>
      </trkpt>
      <trkpt lat="37.788382675498724" lon="-3.757239980623126">
        <ele>407.736328125</ele>
        <time>2011-04-25T16:13:09Z</time>
      </trkpt>
      <trkpt lat="37.790366588160396" lon="-3.75778203830123">
        <ele>404.3717041015625</ele>
        <time>2011-04-25T16:13:16Z</time>
      </trkpt>
      <trkpt lat="37.792925834655762" lon="-3.758060736581683">
        <ele>401.007080078125</ele>
        <time>2011-04-25T16:13:25Z</time>
      </trkpt>
      <trkpt lat="37.795496564358473" lon="-3.75793743878603">
        <ele>397.6424560546875</ele>
        <time>2011-04-25T16:13:34Z</time>
      </trkpt>
      <trkpt lat="37.798705827444792" lon="-3.757789665833116">
        <ele>394.2779541015625</ele>
        <time>2011-04-25T16:13:45Z</time>
      </trkpt>
      <trkpt lat="37.800729973241687" lon="-3.758120248094201">
        <ele>391.87451171875</ele>
        <time>2011-04-25T16:13:52Z</time>
      </trkpt>
      <trkpt lat="37.80293483287096" lon="-3.758910493925214">
        <ele>388.9906005859375</ele>
        <time>2011-04-25T16:14:00Z</time>
      </trkpt>
      <trkpt lat="37.804745240136981" lon="-3.759958986192942">
        <ele>386.58740234375</ele>
        <time>2011-04-25T16:14:07Z</time>
      </trkpt>
      <trkpt lat="37.806745329871774" lon="-3.761543668806553">
        <ele>382.7420654296875</ele>
        <time>2011-04-25T16:14:15Z</time>
      </trkpt>
      <trkpt lat="37.809249758720398" lon="-3.763379724696279">
        <ele>381.7806396484375</ele>
        <time>2011-04-25T16:14:25Z</time>
      </trkpt>
      <trkpt lat="37.811349090188742" lon="-3.764474485069513">
        <ele>384.18408203125</ele>
        <time>2011-04-25T16:14:33Z</time>
      </trkpt>
      <trkpt lat="37.813554033637047" lon="-3.765222737565637">
        <ele>386.58740234375</ele>
        <time>2011-04-25T16:14:41Z</time>
      </trkpt>
      <trkpt lat="37.815874479711056" lon="-3.765599671751261">
        <ele>386.106689453125</ele>
        <time>2011-04-25T16:14:49Z</time>
      </trkpt>
      <trkpt lat="37.818589797243476" lon="-3.765628840774298">
        <ele>382.7420654296875</ele>
        <time>2011-04-25T16:14:58Z</time>
      </trkpt>
      <trkpt lat="37.82084695994854" lon="-3.765646358951926">
        <ele>384.18408203125</ele>
        <time>2011-04-25T16:15:06Z</time>
      </trkpt>
      <trkpt lat="37.824520580470562" lon="-3.765877028927207">
        <ele>386.58740234375</ele>
        <time>2011-04-25T16:15:19Z</time>
      </trkpt>
      <trkpt lat="37.82748794183135" lon="-3.766048438847065">
        <ele>382.7420654296875</ele>
        <time>2011-04-25T16:15:29Z</time>
      </trkpt>
      <trkpt lat="37.829834958538413" lon="-3.765914496034384">
        <ele>378.8968505859375</ele>
        <time>2011-04-25T16:15:37Z</time>
      </trkpt>
      <trkpt lat="37.831816943362355" lon="-3.765508057549596">
        <ele>375.5321044921875</ele>
        <time>2011-04-25T16:15:44Z</time>
      </trkpt>
      <trkpt lat="37.835143972188234" lon="-3.764610774815083">
        <ele>374.57080078125</ele>
        <time>2011-04-25T16:15:56Z</time>
      </trkpt>
      <trkpt lat="37.83864333294332" lon="-3.763729920610786">
        <ele>376.0128173828125</ele>
        <time>2011-04-25T16:16:08Z</time>
      </trkpt>
      <trkpt lat="37.841275753453374" lon="-3.763370839878917">
        <ele>374.090087890625</ele>
        <time>2011-04-25T16:16:17Z</time>
      </trkpt>
      <trkpt lat="37.844179831445217" lon="-3.763401098549366">
        <ele>371.206298828125</ele>
        <time>2011-04-25T16:16:27Z</time>
      </trkpt>
      <trkpt lat="37.846778556704521" lon="-3.763754228129983">
        <ele>367.841552734375</ele>
        <time>2011-04-25T16:16:36Z</time>
      </trkpt>
      <trkpt lat="37.850292166694999" lon="-3.764543132856488">
        <ele>359.67041015625</ele>
        <time>2011-04-25T16:16:48Z</time>
      </trkpt>
      <trkpt lat="37.852566679939628" lon="-3.765059458091855">
        <ele>353.421875</ele>
        <time>2011-04-25T16:16:56Z</time>
      </trkpt>
      <trkpt lat="37.854809928685427" lon="-3.765253163874149">
        <ele>348.1346435546875</ele>
        <time>2011-04-25T16:17:04Z</time>
      </trkpt>
      <trkpt lat="37.857389375567436" lon="-3.765017129480839">
        <ele>343.80859375</ele>
        <time>2011-04-25T16:17:13Z</time>
      </trkpt>
      <trkpt lat="37.860218686982989" lon="-3.764320593327284">
        <ele>347.6539306640625</ele>
        <time>2011-04-25T16:17:23Z</time>
      </trkpt>
      <trkpt lat="37.863364750519395" lon="-3.763636546209455">
        <ele>346.692626953125</ele>
        <time>2011-04-25T16:17:34Z</time>
      </trkpt>
      <trkpt lat="37.865359475836158" lon="-3.763704188168049">
        <ele>340.9246826171875</ele>
        <time>2011-04-25T16:17:41Z</time>
      </trkpt>
      <trkpt lat="37.867246242240071" lon="-3.764162678271532">
        <ele>332.2728271484375</ele>
        <time>2011-04-25T16:17:48Z</time>
      </trkpt>
      <trkpt lat="37.869403744116426" lon="-3.765150988474488">
        <ele>326.985595703125</ele>
        <time>2011-04-25T16:17:56Z</time>
      </trkpt>
      <trkpt lat="37.873147437348962" lon="-3.767076898366213">
        <ele>326.5048828125</ele>
        <time>2011-04-25T16:18:10Z</time>
      </trkpt>
      <trkpt lat="37.877172091975808" lon="-3.769091991707683">
        <ele>316.8917236328125</ele>
        <time>2011-04-25T16:18:25Z</time>
      </trkpt>
      <trkpt lat="37.881070766597986" lon="-3.771055117249489">
        <ele>314.9691162109375</ele>
        <time>2011-04-25T16:18:40Z</time>
      </trkpt>
      <trkpt lat="37.882868098095059" lon="-3.772225650027394">
        <ele>314.0078125</ele>
        <time>2011-04-25T16:18:47Z</time>
      </trkpt>
      <trkpt lat="37.88427148014307" lon="-3.773622997105122">
        <ele>314.0078125</ele>
        <time>2011-04-25T16:18:53Z</time>
      </trkpt>
      <trkpt lat="37.886235862970352" lon="-3.776069590821862">
        <ele>316.8917236328125</ele>
        <time>2011-04-25T16:19:02Z</time>
      </trkpt>
      <trkpt lat="37.887667575851083" lon="-3.777463333681226">
        <ele>316.8917236328125</ele>
        <time>2011-04-25T16:19:08Z</time>
      </trkpt>
      <trkpt lat="37.889211857691407" lon="-3.778425492346287">
        <ele>314.4884033203125</ele>
        <time>2011-04-25T16:19:14Z</time>
      </trkpt>
      <trkpt lat="37.890882957726717" lon="-3.779039299115539">
        <ele>309.201171875</ele>
        <time>2011-04-25T16:19:20Z</time>
      </trkpt>
      <trkpt lat="37.89507114328444" lon="-3.780168257653713">
        <ele>304.875244140625</ele>
        <time>2011-04-25T16:19:34Z</time>
      </trkpt>
      <trkpt lat="37.898548543453217" lon="-3.781056990846992">
        <ele>302.9525146484375</ele>
        <time>2011-04-25T16:19:46Z</time>
      </trkpt>
      <trkpt lat="37.902716780081391" lon="-3.782181590795517">
        <ele>300.54931640625</ele>
        <time>2011-04-25T16:20:01Z</time>
      </trkpt>
      <trkpt lat="37.906537838280201" lon="-3.783288337290287">
        <ele>300.0687255859375</ele>
        <time>2011-04-25T16:20:15Z</time>
      </trkpt>
      <trkpt lat="37.908392669633031" lon="-3.784190732985735">
        <ele>302.9525146484375</ele>
        <time>2011-04-25T16:20:22Z</time>
      </trkpt>
      <trkpt lat="37.910388065502048" lon="-3.785601323470473">
        <ele>307.75927734375</ele>
        <time>2011-04-25T16:20:30Z</time>
      </trkpt>
      <trkpt lat="37.912910683080554" lon="-3.787411646917462">
        <ele>313.5272216796875</ele>
        <time>2011-04-25T16:20:40Z</time>
      </trkpt>
      <trkpt lat="37.914536856114864" lon="-3.788122432306409">
        <ele>313.5272216796875</ele>
        <time>2011-04-25T16:20:46Z</time>
      </trkpt>
      <trkpt lat="37.915681237354875" lon="-3.788370369002223">
        <ele>312.085205078125</ele>
        <time>2011-04-25T16:20:50Z</time>
      </trkpt>
      <trkpt lat="37.918625632300973" lon="-3.788144728168845">
        <ele>305.35595703125</ele>
        <time>2011-04-25T16:21:00Z</time>
      </trkpt>
      <trkpt lat="37.920262366533279" lon="-3.787440899759531">
        <ele>304.3946533203125</ele>
        <time>2011-04-25T16:21:06Z</time>
      </trkpt>
      <trkpt lat="37.924667643383145" lon="-3.784339679405093">
        <ele>316.8917236328125</ele>
        <time>2011-04-25T16:21:24Z</time>
      </trkpt>
      <trkpt lat="37.926805280148983" lon="-3.783219857141376">
        <ele>318.3336181640625</ele>
        <time>2011-04-25T16:21:32Z</time>
      </trkpt>
      <trkpt lat="37.928524743765593" lon="-3.782755499705672">
        <ele>315.4498291015625</ele>
        <time>2011-04-25T16:21:38Z</time>
      </trkpt>
      <trkpt lat="37.930238172411919" lon="-3.782683331519365">
        <ele>309.681884765625</ele>
        <time>2011-04-25T16:21:44Z</time>
      </trkpt>
      <trkpt lat="37.931981859728694" lon="-3.783019445836544">
        <ele>303.4332275390625</ele>
        <time>2011-04-25T16:21:50Z</time>
      </trkpt>
      <trkpt lat="37.933891844004393" lon="-3.783792173489928">
        <ele>301.9913330078125</ele>
        <time>2011-04-25T16:21:57Z</time>
      </trkpt>
      <trkpt lat="37.935916744172573" lon="-3.785080052912235">
        <ele>298.626708984375</ele>
        <time>2011-04-25T16:22:05Z</time>
      </trkpt>
      <trkpt lat="37.939573936164379" lon="-3.787794699892402">
        <ele>296.2235107421875</ele>
        <time>2011-04-25T16:22:20Z</time>
      </trkpt>
      <trkpt lat="37.942737434059381" lon="-3.790054628625512">
        <ele>285.168212890625</ele>
        <time>2011-04-25T16:22:33Z</time>
      </trkpt>
      <trkpt lat="37.944824025034904" lon="-3.791164057329297">
        <ele>276.516357421875</ele>
        <time>2011-04-25T16:22:41Z</time>
      </trkpt>
      <trkpt lat="37.947032488882542" lon="-3.791942149400711">
        <ele>274.113037109375</ele>
        <time>2011-04-25T16:22:49Z</time>
      </trkpt>
      <trkpt lat="37.949188062921166" lon="-3.792313970625401">
        <ele>278.919677734375</ele>
        <time>2011-04-25T16:22:57Z</time>
      </trkpt>
      <trkpt lat="37.951235845685005" lon="-3.792313551530242">
        <ele>289.0135498046875</ele>
        <time>2011-04-25T16:23:05Z</time>
      </trkpt>
      <trkpt lat="37.953506335616112" lon="-3.791954386979342">
        <ele>302.471923828125</ele>
        <time>2011-04-25T16:23:14Z</time>
      </trkpt>
      <trkpt lat="37.956536058336496" lon="-3.791078059002757">
        <ele>314.4884033203125</ele>
        <time>2011-04-25T16:23:26Z</time>
      </trkpt>
      <trkpt lat="37.959792427718639" lon="-3.790052868425846">
        <ele>319.2950439453125</ele>
        <time>2011-04-25T16:23:38Z</time>
      </trkpt>
      <trkpt lat="37.962429542094469" lon="-3.789532436057925">
        <ele>315.930419921875</ele>
        <time>2011-04-25T16:23:47Z</time>
      </trkpt>
      <trkpt lat="37.964753927662969" lon="-3.789433697238565">
        <ele>310.1624755859375</ele>
        <time>2011-04-25T16:23:55Z</time>
      </trkpt>
      <trkpt lat="37.966820234432817" lon="-3.789659086614847">
        <ele>304.875244140625</ele>
        <time>2011-04-25T16:24:02Z</time>
      </trkpt>
      <trkpt lat="37.969512837007642" lon="-3.790308348834515">
        <ele>299.5880126953125</ele>
        <time>2011-04-25T16:24:11Z</time>
      </trkpt>
      <trkpt lat="37.973229624330997" lon="-3.79136455245316">
        <ele>288.05224609375</ele>
        <time>2011-04-25T16:24:24Z</time>
      </trkpt>
      <trkpt lat="37.975579490885139" lon="-3.79176763817668">
        <ele>275.074462890625</ele>
        <time>2011-04-25T16:24:32Z</time>
      </trkpt>
      <trkpt lat="37.97781796194613" lon="-3.791854390874505">
        <ele>263.057861328125</ele>
        <time>2011-04-25T16:24:39Z</time>
      </trkpt>
      <trkpt lat="37.981314221397042" lon="-3.791956147179008">
        <ele>252.4833984375</ele>
        <time>2011-04-25T16:24:50Z</time>
      </trkpt>
      <trkpt lat="37.982794381678104" lon="-3.792240126058459">
        <ele>251.0413818359375</ele>
        <time>2011-04-25T16:24:55Z</time>
      </trkpt>
      <trkpt lat="37.984812492504716" lon="-3.793021654710174">
        <ele>252.0028076171875</ele>
        <time>2011-04-25T16:25:02Z</time>
      </trkpt>
      <trkpt lat="37.98759788274765" lon="-3.794192690402269">
        <ele>256.809326171875</ele>
        <time>2011-04-25T16:25:12Z</time>
      </trkpt>
      <trkpt lat="37.990925582125783" lon="-3.795614764094353">
        <ele>256.809326171875</ele>
        <time>2011-04-25T16:25:24Z</time>
      </trkpt>
      <trkpt lat="37.99263171851635" lon="-3.796069733798504">
        <ele>253.9254150390625</ele>
        <time>2011-04-25T16:25:30Z</time>
      </trkpt>
      <trkpt lat="37.994612278416753" lon="-3.796174172312021">
        <ele>253.9254150390625</ele>
        <time>2011-04-25T16:25:37Z</time>
      </trkpt>
      <trkpt lat="37.996295364573598" lon="-3.795889690518379">
        <ele>259.693359375</ele>
        <time>2011-04-25T16:25:43Z</time>
      </trkpt>
      <trkpt lat="37.998144328594208" lon="-3.795104138553143">
        <ele>265.4613037109375</ele>
        <time>2011-04-25T16:25:50Z</time>
      </trkpt>
      <trkpt lat="37.999625746160746" lon="-3.794067883864045">
        <ele>268.8258056640625</ele>
        <time>2011-04-25T16:25:56Z</time>
      </trkpt>
      <trkpt lat="38.000982273370028" lon="-3.79265746101737">
        <ele>270.7484130859375</ele>
        <time>2011-04-25T16:26:02Z</time>
      </trkpt>
      <trkpt lat="38.0027986317873" lon="-3.790388479828835">
        <ele>273.15185546875</ele>
        <time>2011-04-25T16:26:11Z</time>
      </trkpt>
      <trkpt lat="38.004615744575858" lon="-3.788281939923763">
        <ele>276.03564453125</ele>
        <time>2011-04-25T16:26:20Z</time>
      </trkpt>
      <trkpt lat="38.006071345880628" lon="-3.787181144580245">
        <ele>279.4002685546875</ele>
        <time>2011-04-25T16:26:26Z</time>
      </trkpt>
      <trkpt lat="38.007671535015106" lon="-3.786448398604989">
        <ele>286.6102294921875</ele>
        <time>2011-04-25T16:26:32Z</time>
      </trkpt>
      <trkpt lat="38.009622758254409" lon="-3.786020334810019">
        <ele>295.261962890625</ele>
        <time>2011-04-25T16:26:39Z</time>
      </trkpt>
      <trkpt lat="38.012144370004535" lon="-3.785452377051115">
        <ele>303.4332275390625</ele>
        <time>2011-04-25T16:26:48Z</time>
      </trkpt>
      <trkpt lat="38.013499639928341" lon="-3.784763384610415">
        <ele>304.875244140625</ele>
        <time>2011-04-25T16:26:53Z</time>
      </trkpt>
      <trkpt lat="38.01620221696794" lon="-3.782996227964759">
        <ele>301.5106201171875</ele>
        <time>2011-04-25T16:27:03Z</time>
      </trkpt>
      <trkpt lat="38.019687244668603" lon="-3.780684247612953">
        <ele>287.5714111328125</ele>
        <time>2011-04-25T16:27:16Z</time>
      </trkpt>
      <trkpt lat="38.022582940757275" lon="-3.778878534212709">
        <ele>276.03564453125</ele>
        <time>2011-04-25T16:27:27Z</time>
      </trkpt>
      <trkpt lat="38.026480441913009" lon="-3.776749698445201">
        <ele>260.654541015625</ele>
        <time>2011-04-25T16:27:42Z</time>
      </trkpt>
      <trkpt lat="38.032561596482992" lon="-3.773606736212969">
        <ele>254.8865966796875</ele>
        <time>2011-04-25T16:28:05Z</time>
      </trkpt>
      <trkpt lat="38.036294560879469" lon="-3.771631792187691">
        <ele>262.0965576171875</ele>
        <time>2011-04-25T16:28:19Z</time>
      </trkpt>
      <trkpt lat="38.038883898407221" lon="-3.769990783184767">
        <ele>266.9031982421875</ele>
        <time>2011-04-25T16:28:29Z</time>
      </trkpt>
      <trkpt lat="38.041834495961666" lon="-3.767812745645642">
        <ele>271.709716796875</ele>
        <time>2011-04-25T16:28:41Z</time>
      </trkpt>
      <trkpt lat="38.044731449335814" lon="-3.765297839418054">
        <ele>271.709716796875</ele>
        <time>2011-04-25T16:28:53Z</time>
      </trkpt>
      <trkpt lat="38.046965394169092" lon="-3.762972699478269">
        <ele>269.787109375</ele>
        <time>2011-04-25T16:29:03Z</time>
      </trkpt>
      <trkpt lat="38.049022732302547" lon="-3.760531386360526">
        <ele>268.3450927734375</ele>
        <time>2011-04-25T16:29:13Z</time>
      </trkpt>
      <trkpt lat="38.051866376772523" lon="-3.757036970928311">
        <ele>266.9031982421875</ele>
        <time>2011-04-25T16:29:27Z</time>
      </trkpt>
      <trkpt lat="38.054963741451502" lon="-3.753222618252039">
        <ele>264.9805908203125</ele>
        <time>2011-04-25T16:29:42Z</time>
      </trkpt>
      <trkpt lat="38.057408072054386" lon="-3.750239247456193">
        <ele>271.709716796875</ele>
        <time>2011-04-25T16:29:54Z</time>
      </trkpt>
      <trkpt lat="38.059990787878633" lon="-3.747417395934463">
        <ele>286.1295166015625</ele>
        <time>2011-04-25T16:30:06Z</time>
      </trkpt>
      <trkpt lat="38.062403267249465" lon="-3.745410768315196">
        <ele>298.1461181640625</ele>
        <time>2011-04-25T16:30:16Z</time>
      </trkpt>
      <trkpt lat="38.065480766817927" lon="-3.743278998881578">
        <ele>311.123779296875</ele>
        <time>2011-04-25T16:30:28Z</time>
      </trkpt>
      <trkpt lat="38.06824704632163" lon="-3.741248147562146">
        <ele>314.0078125</ele>
        <time>2011-04-25T16:30:39Z</time>
      </trkpt>
      <trkpt lat="38.071429654955864" lon="-3.738755956292152">
        <ele>307.278564453125</ele>
        <time>2011-04-25T16:30:52Z</time>
      </trkpt>
      <trkpt lat="38.073719842359424" lon="-3.737270683050156">
        <ele>306.3172607421875</ele>
        <time>2011-04-25T16:31:01Z</time>
      </trkpt>
      <trkpt lat="38.075853623449802" lon="-3.736361498013139">
        <ele>311.6044921875</ele>
        <time>2011-04-25T16:31:09Z</time>
      </trkpt>
      <trkpt lat="38.078035181388259" lon="-3.735858416184783">
        <ele>317.85302734375</ele>
        <time>2011-04-25T16:31:17Z</time>
      </trkpt>
      <trkpt lat="38.080289242789149" lon="-3.735752888023853">
        <ele>323.140380859375</ele>
        <time>2011-04-25T16:31:25Z</time>
      </trkpt>
      <trkpt lat="38.082573227584362" lon="-3.736068047583103">
        <ele>327.94677734375</ele>
        <time>2011-04-25T16:31:33Z</time>
      </trkpt>
      <trkpt lat="38.085178826004267" lon="-3.736774222925305">
        <ele>333.234130859375</ele>
        <time>2011-04-25T16:31:42Z</time>
      </trkpt>
      <trkpt lat="38.088230760768056" lon="-3.73766471631825">
        <ele>336.598876953125</ele>
        <time>2011-04-25T16:31:53Z</time>
      </trkpt>
      <trkpt lat="38.090899474918842" lon="-3.738276092335582">
        <ele>335.6373291015625</ele>
        <time>2011-04-25T16:32:03Z</time>
      </trkpt>
      <trkpt lat="38.092855392023921" lon="-3.738710442557931">
        <ele>334.1954345703125</ele>
        <time>2011-04-25T16:32:12Z</time>
      </trkpt>
      <trkpt lat="38.095958875492215" lon="-3.739485768601298">
        <ele>332.7535400390625</ele>
        <time>2011-04-25T16:32:26Z</time>
      </trkpt>
      <trkpt lat="38.097837762907147" lon="-3.740214994177222">
        <ele>331.7921142578125</ele>
        <time>2011-04-25T16:32:35Z</time>
      </trkpt>
      <trkpt lat="38.09968052431941" lon="-3.741165418177843">
        <ele>330.3502197265625</ele>
        <time>2011-04-25T16:32:43Z</time>
      </trkpt>
      <trkpt lat="38.101618252694607" lon="-3.742351373657584">
        <ele>327.94677734375</ele>
        <time>2011-04-25T16:32:51Z</time>
      </trkpt>
      <trkpt lat="38.104173056781292" lon="-3.744022725149989">
        <ele>330.8309326171875</ele>
        <time>2011-04-25T16:33:02Z</time>
      </trkpt>
      <trkpt lat="38.107237983494997" lon="-3.746076375246048">
        <ele>340.9246826171875</ele>
        <time>2011-04-25T16:33:15Z</time>
      </trkpt>
      <trkpt lat="38.10994022525847" lon="-3.748249048367143">
        <ele>347.1732177734375</ele>
        <time>2011-04-25T16:33:27Z</time>
      </trkpt>
      <trkpt lat="38.112009465694427" lon="-3.750212676823139">
        <ele>346.2120361328125</ele>
        <time>2011-04-25T16:33:37Z</time>
      </trkpt>
      <trkpt lat="38.113920371979475" lon="-3.752324497327209">
        <ele>349.0958251953125</ele>
        <time>2011-04-25T16:33:47Z</time>
      </trkpt>
      <trkpt lat="38.115612342953682" lon="-3.754362892359495">
        <ele>357.26708984375</ele>
        <time>2011-04-25T16:33:57Z</time>
      </trkpt>
      <trkpt lat="38.118214588612318" lon="-3.757424550130963">
        <ele>372.16748046875</ele>
        <time>2011-04-25T16:34:13Z</time>
      </trkpt>
      <trkpt lat="38.119474472478032" lon="-3.758718045428395">
        <ele>377.9354248046875</ele>
        <time>2011-04-25T16:34:21Z</time>
      </trkpt>
      <trkpt lat="38.120299251750112" lon="-3.759080227464438">
        <ele>376.9742431640625</ele>
        <time>2011-04-25T16:34:26Z</time>
      </trkpt>
      <trkpt lat="38.121139872819185" lon="-3.759067822247744">
        <ele>375.051513671875</ele>
        <time>2011-04-25T16:34:31Z</time>
      </trkpt>
      <trkpt lat="38.121284963563085" lon="-3.759020799770951">
        <ele>374.57080078125</ele>
        <time>2011-04-25T16:34:32Z</time>
      </trkpt>
      <trkpt lat="38.121931543573737" lon="-3.758573792874813">
        <ele>371.6868896484375</ele>
        <time>2011-04-25T16:34:38Z</time>
      </trkpt>
      <trkpt lat="38.122794795781374" lon="-3.757813889533281">
        <ele>368.322265625</ele>
        <time>2011-04-25T16:34:47Z</time>
      </trkpt>
      <trkpt lat="38.123912774026394" lon="-3.756833290681243">
        <ele>365.9189453125</ele>
        <time>2011-04-25T16:34:56Z</time>
      </trkpt>
      <trkpt lat="38.125409279018641" lon="-3.755526216700673">
        <ele>361.5931396484375</ele>
        <time>2011-04-25T16:35:08Z</time>
      </trkpt>
      <trkpt lat="38.125581694766879" lon="-3.755342653021216">
        <ele>361.1124267578125</ele>
        <time>2011-04-25T16:35:10Z</time>
      </trkpt>
      <trkpt lat="38.125737095251679" lon="-3.75500226393342">
        <ele>360.6317138671875</ele>
        <time>2011-04-25T16:35:15Z</time>
      </trkpt>
      <trkpt lat="38.125720331445336" lon="-3.754822388291359">
        <ele>361.1124267578125</ele>
        <time>2011-04-25T16:35:30Z</time>
      </trkpt>
      <trkpt lat="38.125883191823959" lon="-3.75476622954011">
        <ele>362.07373046875</ele>
        <time>2011-04-25T16:36:38Z</time>
      </trkpt>
      <trkpt lat="38.125980589538813" lon="-3.754719877615571">
        <ele>361.1124267578125</ele>
        <time>2011-04-25T16:37:06Z</time>
      </trkpt>
      <trkpt lat="38.126172535121441" lon="-3.754774443805218">
        <ele>342.36669921875</ele>
        <time>2011-04-25T16:41:15Z</time>
      </trkpt>
      <trkpt lat="38.126147473230958" lon="-3.754523657262325">
        <ele>352.941162109375</ele>
        <time>2011-04-25T16:43:08Z</time>
      </trkpt>
      <trkpt lat="38.126523653045297" lon="-3.754017557948828">
        <ele>357.747802734375</ele>
        <time>2011-04-25T16:43:19Z</time>
      </trkpt>
      <trkpt lat="38.126796567812562" lon="-3.753731651231647">
        <ele>359.67041015625</ele>
        <time>2011-04-25T16:43:26Z</time>
      </trkpt>
      <trkpt lat="38.126935036852956" lon="-3.753651352599263">
        <ele>360.151123046875</ele>
        <time>2011-04-25T16:43:31Z</time>
      </trkpt>
      <trkpt lat="38.127010725438595" lon="-3.75419994816184">
        <ele>373.12890625</ele>
        <time>2011-04-25T17:02:52Z</time>
      </trkpt>
      <trkpt lat="38.127096053212881" lon="-3.754163067787886">
        <ele>366.3995361328125</ele>
        <time>2011-04-25T17:02:58Z</time>
      </trkpt>
      <trkpt lat="38.127507772296667" lon="-3.753802059218288">
        <ele>362.07373046875</ele>
        <time>2011-04-25T17:03:04Z</time>
      </trkpt>
      <trkpt lat="38.128170697018504" lon="-3.753277519717813">
        <ele>362.07373046875</ele>
        <time>2011-04-25T17:03:10Z</time>
      </trkpt>
      <trkpt lat="38.129383726045489" lon="-3.752443017438054">
        <ele>360.6317138671875</ele>
        <time>2011-04-25T17:03:18Z</time>
      </trkpt>
      <trkpt lat="38.130792388692498" lon="-3.7512974627316">
        <ele>358.2283935546875</ele>
        <time>2011-04-25T17:03:26Z</time>
      </trkpt>
      <trkpt lat="38.13211128115654" lon="-3.749995920807123">
        <ele>355.344482421875</ele>
        <time>2011-04-25T17:03:33Z</time>
      </trkpt>
      <trkpt lat="38.133554728701711" lon="-3.74815852381289">
        <ele>352.941162109375</ele>
        <time>2011-04-25T17:03:41Z</time>
      </trkpt>
      <trkpt lat="38.135287435725331" lon="-3.745692735537887">
        <ele>349.0958251953125</ele>
        <time>2011-04-25T17:03:51Z</time>
      </trkpt>
      <trkpt lat="38.136697690933943" lon="-3.744123140349984">
        <ele>345.2506103515625</ele>
        <time>2011-04-25T17:03:58Z</time>
      </trkpt>
      <trkpt lat="38.137704357504845" lon="-3.742485987022519">
        <ele>348.1346435546875</ele>
        <time>2011-04-25T17:04:04Z</time>
      </trkpt>
      <trkpt lat="38.138815127313137" lon="-3.740126397460699">
        <ele>354.86376953125</ele>
        <time>2011-04-25T17:04:12Z</time>
      </trkpt>
      <trkpt lat="38.140397295355797" lon="-3.736230069771409">
        <ele>365.4383544921875</ele>
        <time>2011-04-25T17:04:25Z</time>
      </trkpt>
      <trkpt lat="38.141512842848897" lon="-3.733540736138821">
        <ele>364.9576416015625</ele>
        <time>2011-04-25T17:04:34Z</time>
      </trkpt>
      <trkpt lat="38.142019445076585" lon="-3.731247698888183">
        <ele>360.6317138671875</ele>
        <time>2011-04-25T17:04:41Z</time>
      </trkpt>
      <trkpt lat="38.142902897670865" lon="-3.727381797507405">
        <ele>362.07373046875</ele>
        <time>2011-04-25T17:04:53Z</time>
      </trkpt>
      <trkpt lat="38.143547717481852" lon="-3.725826283916831">
        <ele>362.5543212890625</ele>
        <time>2011-04-25T17:04:58Z</time>
      </trkpt>
      <trkpt lat="38.144499398767948" lon="-3.724533878266811">
        <ele>363.5157470703125</ele>
        <time>2011-04-25T17:05:03Z</time>
      </trkpt>
      <trkpt lat="38.14543473534286" lon="-3.723748996853828">
        <ele>363.5157470703125</ele>
        <time>2011-04-25T17:05:07Z</time>
      </trkpt>
      <trkpt lat="38.147358633577824" lon="-3.722630431875587">
        <ele>363.5157470703125</ele>
        <time>2011-04-25T17:05:15Z</time>
      </trkpt>
      <trkpt lat="38.150266567245126" lon="-3.721058238297701">
        <ele>355.344482421875</ele>
        <time>2011-04-25T17:05:27Z</time>
      </trkpt>
      <trkpt lat="38.151688138023019" lon="-3.719997173175216">
        <ele>353.902587890625</ele>
        <time>2011-04-25T17:05:33Z</time>
      </trkpt>
      <trkpt lat="38.1543536670506" lon="-3.717826260253787">
        <ele>358.708984375</ele>
        <time>2011-04-25T17:05:44Z</time>
      </trkpt>
      <trkpt lat="38.157879849895835" lon="-3.715392826125026">
        <ele>349.5765380859375</ele>
        <time>2011-04-25T17:05:58Z</time>
      </trkpt>
      <trkpt lat="38.160995990037918" lon="-3.713256027549505">
        <ele>341.885986328125</ele>
        <time>2011-04-25T17:06:10Z</time>
      </trkpt>
      <trkpt lat="38.164262417703867" lon="-3.710881182923913">
        <ele>337.56005859375</ele>
        <time>2011-04-25T17:06:23Z</time>
      </trkpt>
      <trkpt lat="38.166326880455017" lon="-3.708980083465576">
        <ele>342.8472900390625</ele>
        <time>2011-04-25T17:06:32Z</time>
      </trkpt>
      <trkpt lat="38.16776555031538" lon="-3.707892866805196">
        <ele>344.77001953125</ele>
        <time>2011-04-25T17:06:38Z</time>
      </trkpt>
      <trkpt lat="38.169368421658874" lon="-3.707303032279015">
        <ele>344.77001953125</ele>
        <time>2011-04-25T17:06:44Z</time>
      </trkpt>
      <trkpt lat="38.172067394480109" lon="-3.706220090389252">
        <ele>347.1732177734375</ele>
        <time>2011-04-25T17:06:54Z</time>
      </trkpt>
      <trkpt lat="38.173530455678701" lon="-3.705157097429037">
        <ele>350.0572509765625</ele>
        <time>2011-04-25T17:07:00Z</time>
      </trkpt>
      <trkpt lat="38.174533350393176" lon="-3.703911546617746">
        <ele>352.4605712890625</ele>
        <time>2011-04-25T17:07:05Z</time>
      </trkpt>
      <trkpt lat="38.17544287070632" lon="-3.702082196250558">
        <ele>355.8251953125</ele>
        <time>2011-04-25T17:07:11Z</time>
      </trkpt>
      <trkpt lat="38.176863268017769" lon="-3.699343074113131">
        <ele>356.3057861328125</ele>
        <time>2011-04-25T17:07:20Z</time>
      </trkpt>
      <trkpt lat="38.178593292832375" lon="-3.696826826781035">
        <ele>354.3831787109375</ele>
        <time>2011-04-25T17:07:29Z</time>
      </trkpt>
      <trkpt lat="38.180061718448997" lon="-3.695032764226198">
        <ele>352.941162109375</ele>
        <time>2011-04-25T17:07:36Z</time>
      </trkpt>
      <trkpt lat="38.181348340585828" lon="-3.694173619151115">
        <ele>351.4991455078125</ele>
        <time>2011-04-25T17:07:41Z</time>
      </trkpt>
      <trkpt lat="38.183008963242173" lon="-3.693631729111075">
        <ele>349.0958251953125</ele>
        <time>2011-04-25T17:07:47Z</time>
      </trkpt>
      <trkpt lat="38.185239974409342" lon="-3.692983891814947">
        <ele>347.1732177734375</ele>
        <time>2011-04-25T17:07:55Z</time>
      </trkpt>
      <trkpt lat="38.186499942094088" lon="-3.692122232168913">
        <ele>346.2120361328125</ele>
        <time>2011-04-25T17:08:00Z</time>
      </trkpt>
      <trkpt lat="38.187528485432267" lon="-3.690895037725568">
        <ele>345.2506103515625</ele>
        <time>2011-04-25T17:08:05Z</time>
      </trkpt>
      <trkpt lat="38.188247568905354" lon="-3.689392246305943">
        <ele>346.692626953125</ele>
        <time>2011-04-25T17:08:10Z</time>
      </trkpt>
      <trkpt lat="38.188623497262597" lon="-3.687721397727728">
        <ele>349.5765380859375</ele>
        <time>2011-04-25T17:08:15Z</time>
      </trkpt>
      <trkpt lat="38.188683595508337" lon="-3.685952564701438">
        <ele>351.0184326171875</ele>
        <time>2011-04-25T17:08:20Z</time>
      </trkpt>
      <trkpt lat="38.188483854755759" lon="-3.68304044008255">
        <ele>351.9798583984375</ele>
        <time>2011-04-25T17:08:28Z</time>
      </trkpt>
      <trkpt lat="38.188541941344738" lon="-3.680853853002191">
        <ele>350.0572509765625</ele>
        <time>2011-04-25T17:08:34Z</time>
      </trkpt>
      <trkpt lat="38.188968747854233" lon="-3.679099269211292">
        <ele>348.615234375</ele>
        <time>2011-04-25T17:08:39Z</time>
      </trkpt>
      <trkpt lat="38.189758826047182" lon="-3.677525566890836">
        <ele>348.615234375</ele>
        <time>2011-04-25T17:08:44Z</time>
      </trkpt>
      <trkpt lat="38.190793236717582" lon="-3.676255792379379">
        <ele>349.5765380859375</ele>
        <time>2011-04-25T17:08:49Z</time>
      </trkpt>
      <trkpt lat="38.192598363384604" lon="-3.674596259370446">
        <ele>350.537841796875</ele>
        <time>2011-04-25T17:08:57Z</time>
      </trkpt>
      <trkpt lat="38.195875436067581" lon="-3.671672232449055">
        <ele>344.2894287109375</ele>
        <time>2011-04-25T17:09:11Z</time>
      </trkpt>
      <trkpt lat="38.196879839524627" lon="-3.670330541208386">
        <ele>343.327880859375</ele>
        <time>2011-04-25T17:09:16Z</time>
      </trkpt>
      <trkpt lat="38.198316330090165" lon="-3.668060135096312">
        <ele>345.2506103515625</ele>
        <time>2011-04-25T17:09:24Z</time>
      </trkpt>
      <trkpt lat="38.199492730200291" lon="-3.666988844051957">
        <ele>346.692626953125</ele>
        <time>2011-04-25T17:09:29Z</time>
      </trkpt>
      <trkpt lat="38.20110322907567" lon="-3.666133135557175">
        <ele>349.0958251953125</ele>
        <time>2011-04-25T17:09:35Z</time>
      </trkpt>
      <trkpt lat="38.203730871900916" lon="-3.664728244766593">
        <ele>356.3057861328125</ele>
        <time>2011-04-25T17:09:45Z</time>
      </trkpt>
      <trkpt lat="38.204865949228406" lon="-3.663630886003375">
        <ele>358.708984375</ele>
        <time>2011-04-25T17:09:50Z</time>
      </trkpt>
      <trkpt lat="38.205790976062417" lon="-3.662235047668219">
        <ele>360.151123046875</ele>
        <time>2011-04-25T17:09:55Z</time>
      </trkpt>
      <trkpt lat="38.206466473639011" lon="-3.660620860755444">
        <ele>361.5931396484375</ele>
        <time>2011-04-25T17:10:00Z</time>
      </trkpt>
      <trkpt lat="38.207603646442294" lon="-3.656963165849447">
        <ele>363.5157470703125</ele>
        <time>2011-04-25T17:10:11Z</time>
      </trkpt>
      <trkpt lat="38.208812149241567" lon="-3.653308153152466">
        <ele>363.0350341796875</ele>
        <time>2011-04-25T17:10:22Z</time>
      </trkpt>
      <trkpt lat="38.209674982354045" lon="-3.651829585433006">
        <ele>364.9576416015625</ele>
        <time>2011-04-25T17:10:27Z</time>
      </trkpt>
      <trkpt lat="38.210775945335627" lon="-3.650611862540245">
        <ele>366.3995361328125</ele>
        <time>2011-04-25T17:10:32Z</time>
      </trkpt>
      <trkpt lat="38.212335566058755" lon="-3.649060456082225">
        <ele>367.841552734375</ele>
        <time>2011-04-25T17:10:39Z</time>
      </trkpt>
      <trkpt lat="38.213696619495749" lon="-3.647326324135065">
        <ele>369.7642822265625</ele>
        <time>2011-04-25T17:10:46Z</time>
      </trkpt>
      <trkpt lat="38.215048033744097" lon="-3.646204825490713">
        <ele>372.16748046875</ele>
        <time>2011-04-25T17:10:52Z</time>
      </trkpt>
      <trkpt lat="38.21683606132865" lon="-3.644694155082107">
        <ele>376.4935302734375</ele>
        <time>2011-04-25T17:11:00Z</time>
      </trkpt>
      <trkpt lat="38.220025291666389" lon="-3.64145077764988">
        <ele>380.3387451171875</ele>
        <time>2011-04-25T17:11:15Z</time>
      </trkpt>
      <trkpt lat="38.222084557637572" lon="-3.639642298221588">
        <ele>384.18408203125</ele>
        <time>2011-04-25T17:11:24Z</time>
      </trkpt>
      <trkpt lat="38.223060630261898" lon="-3.638417534530163">
        <ele>384.18408203125</ele>
        <time>2011-04-25T17:11:29Z</time>
      </trkpt>
      <trkpt lat="38.223938131704926" lon="-3.636691616848111">
        <ele>386.106689453125</ele>
        <time>2011-04-25T17:11:35Z</time>
      </trkpt>
      <trkpt lat="38.224516063928604" lon="-3.634819854050875">
        <ele>389.47119140625</ele>
        <time>2011-04-25T17:11:41Z</time>
      </trkpt>
      <trkpt lat="38.225524239242077" lon="-3.631523754447699">
        <ele>392.3553466796875</ele>
        <time>2011-04-25T17:11:52Z</time>
      </trkpt>
      <trkpt lat="38.226291351020336" lon="-3.630276778712869">
        <ele>392.3553466796875</ele>
        <time>2011-04-25T17:11:57Z</time>
      </trkpt>
      <trkpt lat="38.227287624031305" lon="-3.629357032477856">
        <ele>393.7972412109375</ele>
        <time>2011-04-25T17:12:02Z</time>
      </trkpt>
      <trkpt lat="38.228471064940095" lon="-3.628868451341987">
        <ele>396.2005615234375</ele>
        <time>2011-04-25T17:12:07Z</time>
      </trkpt>
      <trkpt lat="38.229748969897628" lon="-3.628802821040154">
        <ele>399.0843505859375</ele>
        <time>2011-04-25T17:12:12Z</time>
      </trkpt>
      <trkpt lat="38.232404189184308" lon="-3.629103731364012">
        <ele>404.852294921875</ele>
        <time>2011-04-25T17:12:22Z</time>
      </trkpt>
      <trkpt lat="38.235810175538063" lon="-3.629504218697548">
        <ele>412.062255859375</ele>
        <time>2011-04-25T17:12:34Z</time>
      </trkpt>
      <trkpt lat="38.239662246778607" lon="-3.629814684391022">
        <ele>424.0787353515625</ele>
        <time>2011-04-25T17:12:47Z</time>
      </trkpt>
      <trkpt lat="38.241402162238955" lon="-3.629733631387353">
        <ele>434.172607421875</ele>
        <time>2011-04-25T17:12:53Z</time>
      </trkpt>
      <trkpt lat="38.243295466527343" lon="-3.629187550395727">
        <ele>447.1502685546875</ele>
        <time>2011-04-25T17:13:00Z</time>
      </trkpt>
      <trkpt lat="38.245119117200375" lon="-3.628772059455514">
        <ele>459.6475830078125</ele>
        <time>2011-04-25T17:13:07Z</time>
      </trkpt>
      <trkpt lat="38.247125074267387" lon="-3.628355143591762">
        <ele>472.6253662109375</ele>
        <time>2011-04-25T17:13:15Z</time>
      </trkpt>
      <trkpt lat="38.248242465779185" lon="-3.627587528899312">
        <ele>478.3931884765625</ele>
        <time>2011-04-25T17:13:20Z</time>
      </trkpt>
      <trkpt lat="38.249864866957068" lon="-3.626525960862637">
        <ele>484.641845703125</ele>
        <time>2011-04-25T17:13:27Z</time>
      </trkpt>
      <trkpt lat="38.251176550984383" lon="-3.626281879842281">
        <ele>489.9290771484375</ele>
        <time>2011-04-25T17:13:32Z</time>
      </trkpt>
      <trkpt lat="38.253030460327864" lon="-3.626157240942121">
        <ele>500.984130859375</ele>
        <time>2011-04-25T17:13:39Z</time>
      </trkpt>
      <trkpt lat="38.254005359485745" lon="-3.625721633434296">
        <ele>507.7135009765625</ele>
        <time>2011-04-25T17:13:43Z</time>
      </trkpt>
      <trkpt lat="38.255642177537084" lon="-3.624882940202951">
        <ele>519.7298583984375</ele>
        <time>2011-04-25T17:13:50Z</time>
      </trkpt>
      <trkpt lat="38.258538627997041" lon="-3.624216495081782">
        <ele>538.956298828125</ele>
        <time>2011-04-25T17:14:02Z</time>
      </trkpt>
      <trkpt lat="38.261578073725104" lon="-3.623452987521887">
        <ele>557.221435546875</ele>
        <time>2011-04-25T17:14:15Z</time>
      </trkpt>
      <trkpt lat="38.262673420831561" lon="-3.622771287336946">
        <ele>561.54736328125</ele>
        <time>2011-04-25T17:14:20Z</time>
      </trkpt>
      <trkpt lat="38.263391833752394" lon="-3.621874339878559">
        <ele>563.950439453125</ele>
        <time>2011-04-25T17:14:24Z</time>
      </trkpt>
      <trkpt lat="38.263905141502619" lon="-3.620725097134709">
        <ele>566.353759765625</ele>
        <time>2011-04-25T17:14:28Z</time>
      </trkpt>
      <trkpt lat="38.265197463333607" lon="-3.61692164093256">
        <ele>575.967041015625</ele>
        <time>2011-04-25T17:14:40Z</time>
      </trkpt>
      <trkpt lat="38.26702119782567" lon="-3.611644478514791">
        <ele>588.945068359375</ele>
        <time>2011-04-25T17:14:56Z</time>
      </trkpt>
      <trkpt lat="38.267929125577211" lon="-3.609762322157621">
        <ele>588.945068359375</ele>
        <time>2011-04-25T17:15:02Z</time>
      </trkpt>
      <trkpt lat="38.26906805858016" lon="-3.608453152701259">
        <ele>585.099609375</ele>
        <time>2011-04-25T17:15:07Z</time>
      </trkpt>
      <trkpt lat="38.270202884450555" lon="-3.607702972367406">
        <ele>581.25439453125</ele>
        <time>2011-04-25T17:15:11Z</time>
      </trkpt>
      <trkpt lat="38.272098116576672" lon="-3.606958156451583">
        <ele>579.33154296875</ele>
        <time>2011-04-25T17:15:17Z</time>
      </trkpt>
      <trkpt lat="38.274894990026951" lon="-3.605735739693046">
        <ele>587.502685546875</ele>
        <time>2011-04-25T17:15:26Z</time>
      </trkpt>
      <trkpt lat="38.275956641882658" lon="-3.604832170531154">
        <ele>592.3095703125</ele>
        <time>2011-04-25T17:15:30Z</time>
      </trkpt>
      <trkpt lat="38.276816373690963" lon="-3.60365686006844">
        <ele>597.115966796875</ele>
        <time>2011-04-25T17:15:34Z</time>
      </trkpt>
      <trkpt lat="38.278446653857827" lon="-3.600899046286941">
        <ele>607.2099609375</ele>
        <time>2011-04-25T17:15:43Z</time>
      </trkpt>
      <trkpt lat="38.280477086082101" lon="-3.597298935055733">
        <ele>604.806640625</ele>
        <time>2011-04-25T17:15:55Z</time>
      </trkpt>
      <trkpt lat="38.281218549236655" lon="-3.595239333808422">
        <ele>605.76806640625</ele>
        <time>2011-04-25T17:16:01Z</time>
      </trkpt>
      <trkpt lat="38.282216750085354" lon="-3.591964356601238">
        <ele>604.806640625</ele>
        <time>2011-04-25T17:16:10Z</time>
      </trkpt>
      <trkpt lat="38.282946394756436" lon="-3.590623922646046">
        <ele>602.403076171875</ele>
        <time>2011-04-25T17:16:14Z</time>
      </trkpt>
      <trkpt lat="38.283970998600125" lon="-3.589608371257782">
        <ele>599.03857421875</ele>
        <time>2011-04-25T17:16:18Z</time>
      </trkpt>
      <trkpt lat="38.28487423248589" lon="-3.589132195338607">
        <ele>596.635498046875</ele>
        <time>2011-04-25T17:16:21Z</time>
      </trkpt>
      <trkpt lat="38.286176444962621" lon="-3.588947793468833">
        <ele>592.790283203125</ele>
        <time>2011-04-25T17:16:25Z</time>
      </trkpt>
      <trkpt lat="38.288995027542114" lon="-3.589250547811389">
        <ele>596.635498046875</ele>
        <time>2011-04-25T17:16:34Z</time>
      </trkpt>
      <trkpt lat="38.291532648727298" lon="-3.589545171707869">
        <ele>611.535888671875</ele>
        <time>2011-04-25T17:16:43Z</time>
      </trkpt>
      <trkpt lat="38.293174831196666" lon="-3.589370828121901">
        <ele>621.629638671875</ele>
        <time>2011-04-25T17:16:49Z</time>
      </trkpt>
      <trkpt lat="38.294186778366566" lon="-3.588854838162661">
        <ele>628.839599609375</ele>
        <time>2011-04-25T17:16:53Z</time>
      </trkpt>
      <trkpt lat="38.295439537614584" lon="-3.587487498298287">
        <ele>635.088134765625</ele>
        <time>2011-04-25T17:16:59Z</time>
      </trkpt>
      <trkpt lat="38.297151960432529" lon="-3.584932442754507">
        <ele>639.894775390625</ele>
        <time>2011-04-25T17:17:08Z</time>
      </trkpt>
      <trkpt lat="38.299873983487487" lon="-3.580878786742687">
        <ele>657.198486328125</ele>
        <time>2011-04-25T17:17:22Z</time>
      </trkpt>
      <trkpt lat="38.3011460211128" lon="-3.579371888190508">
        <ele>666.8115234375</ele>
        <time>2011-04-25T17:17:28Z</time>
      </trkpt>
      <trkpt lat="38.302175821736455" lon="-3.578832345083356">
        <ele>673.060302734375</ele>
        <time>2011-04-25T17:17:32Z</time>
      </trkpt>
      <trkpt lat="38.304034173488617" lon="-3.578347954899073">
        <ele>683.15380859375</ele>
        <time>2011-04-25T17:17:39Z</time>
      </trkpt>
      <trkpt lat="38.307719863951206" lon="-3.577428963035345">
        <ele>702.861083984375</ele>
        <time>2011-04-25T17:17:53Z</time>
      </trkpt>
      <trkpt lat="38.308731894940138" lon="-3.576907943934202">
        <ele>707.18701171875</ele>
        <time>2011-04-25T17:17:57Z</time>
      </trkpt>
      <trkpt lat="38.309847358614206" lon="-3.575844699516892">
        <ele>711.99365234375</ele>
        <time>2011-04-25T17:18:02Z</time>
      </trkpt>
      <trkpt lat="38.312386991456151" lon="-3.572853952646256">
        <ele>724.010009765625</ele>
        <time>2011-04-25T17:18:14Z</time>
      </trkpt>
      <trkpt lat="38.313076486811042" lon="-3.571669673547149">
        <ele>727.855224609375</ele>
        <time>2011-04-25T17:18:18Z</time>
      </trkpt>
      <trkpt lat="38.313581245020032" lon="-3.569952137768269">
        <ele>732.662109375</ele>
        <time>2011-04-25T17:18:23Z</time>
      </trkpt>
      <trkpt lat="38.314192956313491" lon="-3.567940061911941">
        <ele>735.5458984375</ele>
        <time>2011-04-25T17:18:29Z</time>
      </trkpt>
      <trkpt lat="38.314899718388915" lon="-3.566792495548725">
        <ele>734.584716796875</ele>
        <time>2011-04-25T17:18:33Z</time>
      </trkpt>
      <trkpt lat="38.316187597811222" lon="-3.565380983054638">
        <ele>728.816650390625</ele>
        <time>2011-04-25T17:18:39Z</time>
      </trkpt>
      <trkpt lat="38.317023441195488" lon="-3.563977936282754">
        <ele>725.9326171875</ele>
        <time>2011-04-25T17:18:44Z</time>
      </trkpt>
      <trkpt lat="38.318194225430489" lon="-3.561193216592073">
        <ele>724.971435546875</ele>
        <time>2011-04-25T17:18:53Z</time>
      </trkpt>
      <trkpt lat="38.318989835679531" lon="-3.559777764603496">
        <ele>730.7392578125</ele>
        <time>2011-04-25T17:18:58Z</time>
      </trkpt>
      <trkpt lat="38.320834524929523" lon="-3.55707828886807">
        <ele>738.91064453125</ele>
        <time>2011-04-25T17:19:08Z</time>
      </trkpt>
      <trkpt lat="38.322060126811266" lon="-3.556031389161944">
        <ele>740.8330078125</ele>
        <time>2011-04-25T17:19:13Z</time>
      </trkpt>
      <trkpt lat="38.323169723153114" lon="-3.554882816970348">
        <ele>743.717041015625</ele>
        <time>2011-04-25T17:19:18Z</time>
      </trkpt>
      <trkpt lat="38.324780724942684" lon="-3.55241434648633">
        <ele>745.158935546875</ele>
        <time>2011-04-25T17:19:27Z</time>
      </trkpt>
      <trkpt lat="38.327146684750915" lon="-3.548731673508883">
        <ele>732.181396484375</ele>
        <time>2011-04-25T17:19:40Z</time>
      </trkpt>
      <trkpt lat="38.3294718246907" lon="-3.545169867575169">
        <ele>730.7392578125</ele>
        <time>2011-04-25T17:19:53Z</time>
      </trkpt>
      <trkpt lat="38.330992134287953" lon="-3.543152678757906">
        <ele>734.584716796875</ele>
        <time>2011-04-25T17:20:01Z</time>
      </trkpt>
      <trkpt lat="38.332011541351676" lon="-3.542537363246083">
        <ele>737.468505859375</ele>
        <time>2011-04-25T17:20:05Z</time>
      </trkpt>
      <trkpt lat="38.333158018067479" lon="-3.542372491210699">
        <ele>739.871826171875</ele>
        <time>2011-04-25T17:20:09Z</time>
      </trkpt>
      <trkpt lat="38.334301728755236" lon="-3.54266669601202">
        <ele>740.8330078125</ele>
        <time>2011-04-25T17:20:13Z</time>
      </trkpt>
      <trkpt lat="38.336170976981521" lon="-3.543607899919152">
        <ele>741.313720703125</ele>
        <time>2011-04-25T17:20:20Z</time>
      </trkpt>
      <trkpt lat="38.338716393336654" lon="-3.544869627803564">
        <ele>746.120361328125</ele>
        <time>2011-04-25T17:20:30Z</time>
      </trkpt>
      <trkpt lat="38.340269476175308" lon="-3.545209933072329">
        <ele>751.40771484375</ele>
        <time>2011-04-25T17:20:36Z</time>
      </trkpt>
      <trkpt lat="38.341303635388613" lon="-3.54510348290205">
        <ele>755.2529296875</ele>
        <time>2011-04-25T17:20:40Z</time>
      </trkpt>
      <trkpt lat="38.342209970578551" lon="-3.544666282832623">
        <ele>758.617431640625</ele>
        <time>2011-04-25T17:20:44Z</time>
      </trkpt>
      <trkpt lat="38.342857891693711" lon="-3.544074520468712">
        <ele>760.059326171875</ele>
        <time>2011-04-25T17:20:48Z</time>
      </trkpt>
      <trkpt lat="38.343605389818549" lon="-3.542927540838718">
        <ele>761.50146484375</ele>
        <time>2011-04-25T17:20:54Z</time>
      </trkpt>
      <trkpt lat="38.344378788024187" lon="-3.541583083570004">
        <ele>760.059326171875</ele>
        <time>2011-04-25T17:21:01Z</time>
      </trkpt>
      <trkpt lat="38.344850521534681" lon="-3.540663672611117">
        <ele>757.175537109375</ele>
        <time>2011-04-25T17:21:06Z</time>
      </trkpt>
      <trkpt lat="38.345260983332992" lon="-3.539301361888647">
        <ele>753.330322265625</ele>
        <time>2011-04-25T17:21:13Z</time>
      </trkpt>
      <trkpt lat="38.345372127369046" lon="-3.538597198203206">
        <ele>751.888427734375</ele>
        <time>2011-04-25T17:21:17Z</time>
      </trkpt>
      <trkpt lat="38.345269616693258" lon="-3.537782561033964">
        <ele>752.368896484375</ele>
        <time>2011-04-25T17:21:22Z</time>
      </trkpt>
      <trkpt lat="38.34494817070663" lon="-3.536572549492121">
        <ele>755.733642578125</ele>
        <time>2011-04-25T17:21:30Z</time>
      </trkpt>
      <trkpt lat="38.344980021938682" lon="-3.535443423315883">
        <ele>760.059326171875</ele>
        <time>2011-04-25T17:21:37Z</time>
      </trkpt>
      <trkpt lat="38.345270035788417" lon="-3.53457648307085">
        <ele>761.50146484375</ele>
        <time>2011-04-25T17:21:42Z</time>
      </trkpt>
      <trkpt lat="38.345572873950005" lon="-3.534103827551007">
        <ele>760.059326171875</ele>
        <time>2011-04-25T17:21:45Z</time>
      </trkpt>
      <trkpt lat="38.346161032095551" lon="-3.533604685217142">
        <ele>756.214111328125</ele>
        <time>2011-04-25T17:21:49Z</time>
      </trkpt>
      <trkpt lat="38.347649993374944" lon="-3.532764399424195">
        <ele>746.120361328125</ele>
        <time>2011-04-25T17:21:58Z</time>
      </trkpt>
      <trkpt lat="38.348126420751214" lon="-3.532008519396186">
        <ele>740.8330078125</ele>
        <time>2011-04-25T17:22:03Z</time>
      </trkpt>
      <trkpt lat="38.348066573962569" lon="-3.531411895528436">
        <ele>737.468505859375</ele>
        <time>2011-04-25T17:22:06Z</time>
      </trkpt>
      <trkpt lat="38.347793323919177" lon="-3.530901353806257">
        <ele>734.10400390625</ele>
        <time>2011-04-25T17:22:09Z</time>
      </trkpt>
      <trkpt lat="38.347574388608336" lon="-3.530592229217291">
        <ele>732.662109375</ele>
        <time>2011-04-25T17:22:11Z</time>
      </trkpt>
      <trkpt lat="38.347331061959267" lon="-3.529629399999976">
        <ele>728.3359375</ele>
        <time>2011-04-25T17:22:16Z</time>
      </trkpt>
      <trkpt lat="38.347383616492152" lon="-3.529244251549244">
        <ele>726.89404296875</ele>
        <time>2011-04-25T17:22:18Z</time>
      </trkpt>
      <trkpt lat="38.347681425511837" lon="-3.527556052431464">
        <ele>724.010009765625</ele>
        <time>2011-04-25T17:22:28Z</time>
      </trkpt>
      <trkpt lat="38.347990969195962" lon="-3.527059759944677">
        <ele>722.568115234375</ele>
        <time>2011-04-25T17:22:33Z</time>
      </trkpt>
      <trkpt lat="38.348331525921822" lon="-3.527177358046174">
        <ele>720.164794921875</ele>
        <time>2011-04-25T17:22:37Z</time>
      </trkpt>
      <trkpt lat="38.34848047234118" lon="-3.527728049084544">
        <ele>716.80029296875</ele>
        <time>2011-04-25T17:22:41Z</time>
      </trkpt>
      <trkpt lat="38.348493045195937" lon="-3.527907254174352">
        <ele>715.8388671875</ele>
        <time>2011-04-25T17:22:42Z</time>
      </trkpt>
      <trkpt lat="38.348564794287086" lon="-3.528882823884487">
        <ele>711.0322265625</ele>
        <time>2011-04-25T17:22:47Z</time>
      </trkpt>
      <trkpt lat="38.348923120647669" lon="-3.529700059443712">
        <ele>705.7451171875</ele>
        <time>2011-04-25T17:22:52Z</time>
      </trkpt>
      <trkpt lat="38.34920022636652" lon="-3.529887981712818">
        <ele>703.822509765625</ele>
        <time>2011-04-25T17:22:54Z</time>
      </trkpt>
      <trkpt lat="38.350603356957436" lon="-3.530632378533483">
        <ele>695.17041015625</ele>
        <time>2011-04-25T17:23:03Z</time>
      </trkpt>
      <trkpt lat="38.351238034665585" lon="-3.530610166490078">
        <ele>692.28662109375</ele>
        <time>2011-04-25T17:23:07Z</time>
      </trkpt>
      <trkpt lat="38.352156355977058" lon="-3.530114041641355">
        <ele>683.15380859375</ele>
        <time>2011-04-25T17:23:13Z</time>
      </trkpt>
      <trkpt lat="38.352627921849489" lon="-3.529567457735539">
        <ele>678.347412109375</ele>
        <time>2011-04-25T17:23:17Z</time>
      </trkpt>
      <trkpt lat="38.35293335840106" lon="-3.528863629326224">
        <ele>674.502197265625</ele>
        <time>2011-04-25T17:23:21Z</time>
      </trkpt>
      <trkpt lat="38.353054560720921" lon="-3.527680272236466">
        <ele>668.734375</ele>
        <time>2011-04-25T17:23:27Z</time>
      </trkpt>
      <trkpt lat="38.353071743622422" lon="-3.526230957359076">
        <ele>662.96630859375</ele>
        <time>2011-04-25T17:23:35Z</time>
      </trkpt>
      <trkpt lat="38.352876864373684" lon="-3.525023125112057">
        <ele>657.67919921875</ele>
        <time>2011-04-25T17:23:42Z</time>
      </trkpt>
      <trkpt lat="38.352837720885873" lon="-3.52485322393477">
        <ele>656.7177734375</ele>
        <time>2011-04-25T17:23:43Z</time>
      </trkpt>
      <trkpt lat="38.35289865732193" lon="-3.523979661986232">
        <ele>653.833984375</ele>
        <time>2011-04-25T17:23:48Z</time>
      </trkpt>
      <trkpt lat="38.35295825265348" lon="-3.523827865719795">
        <ele>653.833984375</ele>
        <time>2011-04-25T17:23:49Z</time>
      </trkpt>
      <trkpt lat="38.353179953992367" lon="-3.522733189165592">
        <ele>652.87255859375</ele>
        <time>2011-04-25T17:23:56Z</time>
      </trkpt>
      <trkpt lat="38.35324021987617" lon="-3.522002622485161">
        <ele>653.353271484375</ele>
        <time>2011-04-25T17:24:01Z</time>
      </trkpt>
      <trkpt lat="38.353569461032748" lon="-3.521577995270491">
        <ele>654.314697265625</ele>
        <time>2011-04-25T17:24:06Z</time>
      </trkpt>
      <trkpt lat="38.353844471275806" lon="-3.521864237263799">
        <ele>653.833984375</ele>
        <time>2011-04-25T17:24:09Z</time>
      </trkpt>
      <trkpt lat="38.353872047737241" lon="-3.522369246929884">
        <ele>653.353271484375</ele>
        <time>2011-04-25T17:24:12Z</time>
      </trkpt>
      <trkpt lat="38.353718826547265" lon="-3.523943619802594">
        <ele>647.585205078125</ele>
        <time>2011-04-25T17:24:20Z</time>
      </trkpt>
      <trkpt lat="38.353840531781316" lon="-3.524675192311406">
        <ele>643.739990234375</ele>
        <time>2011-04-25T17:24:24Z</time>
      </trkpt>
      <trkpt lat="38.354391725733876" lon="-3.52666069753468">
        <ele>632.684814453125</ele>
        <time>2011-04-25T17:24:34Z</time>
      </trkpt>
      <trkpt lat="38.354717865586281" lon="-3.528000377118588">
        <ele>626.9169921875</ele>
        <time>2011-04-25T17:24:41Z</time>
      </trkpt>
      <trkpt lat="38.355178534984589" lon="-3.528645029291511">
        <ele>622.1103515625</ele>
        <time>2011-04-25T17:24:46Z</time>
      </trkpt>
      <trkpt lat="38.355312561616302" lon="-3.528725327923894">
        <ele>621.629638671875</ele>
        <time>2011-04-25T17:24:47Z</time>
      </trkpt>
      <trkpt lat="38.355729896575212" lon="-3.528924230486155">
        <ele>621.149169921875</ele>
        <time>2011-04-25T17:24:50Z</time>
      </trkpt>
      <trkpt lat="38.356311852112412" lon="-3.528950298205018">
        <ele>619.70703125</ele>
        <time>2011-04-25T17:24:54Z</time>
      </trkpt>
      <trkpt lat="38.358086971566081" lon="-3.52841779589653">
        <ele>611.05517578125</ele>
        <time>2011-04-25T17:25:07Z</time>
      </trkpt>
      <trkpt lat="38.35885064676404" lon="-3.528187461197376">
        <ele>608.65185546875</ele>
        <time>2011-04-25T17:25:13Z</time>
      </trkpt>
      <trkpt lat="38.359379796311259" lon="-3.527664346620441">
        <ele>604.806640625</ele>
        <time>2011-04-25T17:25:18Z</time>
      </trkpt>
      <trkpt lat="38.359510973095894" lon="-3.527329824864864">
        <ele>603.364501953125</ele>
        <time>2011-04-25T17:25:20Z</time>
      </trkpt>
      <trkpt lat="38.360219495370984" lon="-3.525166371837258">
        <ele>596.15478515625</ele>
        <time>2011-04-25T17:25:32Z</time>
      </trkpt>
      <trkpt lat="38.361020721495152" lon="-3.523708172142506">
        <ele>588.945068359375</ele>
        <time>2011-04-25T17:25:41Z</time>
      </trkpt>
      <trkpt lat="38.361652968451381" lon="-3.523201150819659">
        <ele>587.502685546875</ele>
        <time>2011-04-25T17:25:46Z</time>
      </trkpt>
      <trkpt lat="38.363826731219888" lon="-3.522473182529211">
        <ele>589.90625</ele>
        <time>2011-04-25T17:25:59Z</time>
      </trkpt>
      <trkpt lat="38.366122199222445" lon="-3.521694671362639">
        <ele>589.425537109375</ele>
        <time>2011-04-25T17:26:12Z</time>
      </trkpt>
      <trkpt lat="38.367112185806036" lon="-3.52132729254663">
        <ele>587.02197265625</ele>
        <time>2011-04-25T17:26:18Z</time>
      </trkpt>
      <trkpt lat="38.36762448772788" lon="-3.520844327285886">
        <ele>585.099609375</ele>
        <time>2011-04-25T17:26:22Z</time>
      </trkpt>
      <trkpt lat="38.369033569470048" lon="-3.518782630562782">
        <ele>579.812255859375</ele>
        <time>2011-04-25T17:26:34Z</time>
      </trkpt>
      <trkpt lat="38.3706920966506" lon="-3.516391525045037">
        <ele>575.005859375</ele>
        <time>2011-04-25T17:26:47Z</time>
      </trkpt>
      <trkpt lat="38.371601197868586" lon="-3.514810698106885">
        <ele>571.160400390625</ele>
        <time>2011-04-25T17:26:55Z</time>
      </trkpt>
      <trkpt lat="38.372016940265894" lon="-3.513349564746022">
        <ele>569.718505859375</ele>
        <time>2011-04-25T17:27:01Z</time>
      </trkpt>
      <trkpt lat="38.372149541974068" lon="-3.511683577671647">
        <ele>568.757080078125</ele>
        <time>2011-04-25T17:27:07Z</time>
      </trkpt>
      <trkpt lat="38.372223135083914" lon="-3.510874388739467">
        <ele>569.23779296875</ele>
        <time>2011-04-25T17:27:10Z</time>
      </trkpt>
      <trkpt lat="38.372652623802423" lon="-3.509708466008306">
        <ele>570.198974609375</ele>
        <time>2011-04-25T17:27:15Z</time>
      </trkpt>
      <trkpt lat="38.373234579339623" lon="-3.509041853249073">
        <ele>570.6796875</ele>
        <time>2011-04-25T17:27:19Z</time>
      </trkpt>
      <trkpt lat="38.373972522094846" lon="-3.508676234632731">
        <ele>570.6796875</ele>
        <time>2011-04-25T17:27:23Z</time>
      </trkpt>
      <trkpt lat="38.374800151214004" lon="-3.508664583787322">
        <ele>570.6796875</ele>
        <time>2011-04-25T17:27:27Z</time>
      </trkpt>
      <trkpt lat="38.37561747059226" lon="-3.509027771651745">
        <ele>570.6796875</ele>
        <time>2011-04-25T17:27:31Z</time>
      </trkpt>
      <trkpt lat="38.375811260193586" lon="-3.509166492149234">
        <ele>570.6796875</ele>
        <time>2011-04-25T17:27:32Z</time>
      </trkpt>
      <trkpt lat="38.37790128774941" lon="-3.510796185582876">
        <ele>572.121826171875</ele>
        <time>2011-04-25T17:27:43Z</time>
      </trkpt>
      <trkpt lat="38.378885993734002" lon="-3.511139173060656">
        <ele>574.04443359375</ele>
        <time>2011-04-25T17:27:48Z</time>
      </trkpt>
      <trkpt lat="38.379876483231783" lon="-3.511101538315415">
        <ele>575.486328125</ele>
        <time>2011-04-25T17:27:53Z</time>
      </trkpt>
      <trkpt lat="38.380785835906863" lon="-3.51070448756218">
        <ele>577.4091796875</ele>
        <time>2011-04-25T17:27:58Z</time>
      </trkpt>
      <trkpt lat="38.381697870790958" lon="-3.509853389114142">
        <ele>579.33154296875</ele>
        <time>2011-04-25T17:28:04Z</time>
      </trkpt>
      <trkpt lat="38.382653743028641" lon="-3.508455539122224">
        <ele>582.6962890625</ele>
        <time>2011-04-25T17:28:11Z</time>
      </trkpt>
      <trkpt lat="38.382977368310094" lon="-3.50809863768518">
        <ele>584.13818359375</ele>
        <time>2011-04-25T17:28:13Z</time>
      </trkpt>
      <trkpt lat="38.383955452591181" lon="-3.507626317441464">
        <ele>587.502685546875</ele>
        <time>2011-04-25T17:28:18Z</time>
      </trkpt>
      <trkpt lat="38.384774951264262" lon="-3.50765791721642">
        <ele>591.828857421875</ele>
        <time>2011-04-25T17:28:22Z</time>
      </trkpt>
      <trkpt lat="38.385556060820818" lon="-3.507769480347633">
        <ele>593.75146484375</ele>
        <time>2011-04-25T17:28:26Z</time>
      </trkpt>
      <trkpt lat="38.386441189795732" lon="-3.507420457899571">
        <ele>598.557861328125</ele>
        <time>2011-04-25T17:28:31Z</time>
      </trkpt>
      <trkpt lat="38.388022603467107" lon="-3.506387639790773">
        <ele>606.729248046875</ele>
        <time>2011-04-25T17:28:40Z</time>
      </trkpt>
      <trkpt lat="38.392726862803102" lon="-3.503828560933471">
        <ele>626.9169921875</ele>
        <time>2011-04-25T17:29:06Z</time>
      </trkpt>
      <trkpt lat="38.393595730885863" lon="-3.506334917619824">
        <ele>620.66845703125</ele>
        <time>2011-04-25T17:29:14Z</time>
      </trkpt>
      <trkpt lat="38.39474874548614" lon="-3.506151689216495">
        <ele>625.474853515625</ele>
        <time>2011-04-25T17:29:21Z</time>
      </trkpt>
      <trkpt lat="38.396075768396258" lon="-3.505566883832216">
        <ele>637.97216796875</ele>
        <time>2011-04-25T17:29:29Z</time>
      </trkpt>
      <trkpt lat="38.397418046370149" lon="-3.504688125103712">
        <ele>641.336669921875</ele>
        <time>2011-04-25T17:29:37Z</time>
      </trkpt>
      <trkpt lat="38.398626549169421" lon="-3.503558496013284">
        <ele>646.143310546875</ele>
        <time>2011-04-25T17:29:44Z</time>
      </trkpt>
      <trkpt lat="38.399656936526299" lon="-3.502076743170619">
        <ele>652.391845703125</ele>
        <time>2011-04-25T17:29:51Z</time>
      </trkpt>
      <trkpt lat="38.40095579624176" lon="-3.50014672614634">
        <ele>658.640380859375</ele>
        <time>2011-04-25T17:30:00Z</time>
      </trkpt>
      <trkpt lat="38.401939496397972" lon="-3.499486986547709">
        <ele>661.5244140625</ele>
        <time>2011-04-25T17:30:05Z</time>
      </trkpt>
      <trkpt lat="38.403101731091738" lon="-3.499259082600474">
        <ele>662.96630859375</ele>
        <time>2011-04-25T17:30:10Z</time>
      </trkpt>
      <trkpt lat="38.405444724485278" lon="-3.499164367094636">
        <ele>667.292236328125</ele>
        <time>2011-04-25T17:30:20Z</time>
      </trkpt>
      <trkpt lat="38.405669778585434" lon="-3.499212730675936">
        <ele>667.772705078125</ele>
        <time>2011-04-25T17:30:21Z</time>
      </trkpt>
      <trkpt lat="38.407327886670828" lon="-3.499737940728664">
        <ele>667.772705078125</ele>
        <time>2011-04-25T17:30:29Z</time>
      </trkpt>
      <trkpt lat="38.40850411914289" lon="-3.499536523595452">
        <ele>667.292236328125</ele>
        <time>2011-04-25T17:30:34Z</time>
      </trkpt>
      <trkpt lat="38.410679223015904" lon="-3.498826073482633">
        <ele>670.656982421875</ele>
        <time>2011-04-25T17:30:43Z</time>
      </trkpt>
      <trkpt lat="38.412980977445841" lon="-3.498216876760125">
        <ele>676.905517578125</ele>
        <time>2011-04-25T17:30:52Z</time>
      </trkpt>
      <trkpt lat="38.414334654808044" lon="-3.498296588659287">
        <ele>677.38623046875</ele>
        <time>2011-04-25T17:30:57Z</time>
      </trkpt>
      <trkpt lat="38.415637956932187" lon="-3.498790198937058">
        <ele>675.944091796875</ele>
        <time>2011-04-25T17:31:02Z</time>
      </trkpt>
      <trkpt lat="38.417406789958477" lon="-3.499937346205115">
        <ele>672.098876953125</ele>
        <time>2011-04-25T17:31:09Z</time>
      </trkpt>
      <trkpt lat="38.418780583888292" lon="-3.500611670315266">
        <ele>669.69580078125</ele>
        <time>2011-04-25T17:31:14Z</time>
      </trkpt>
      <trkpt lat="38.419987997040153" lon="-3.50067151710391">
        <ele>669.69580078125</ele>
        <time>2011-04-25T17:31:18Z</time>
      </trkpt>
      <trkpt lat="38.420587135478854" lon="-3.500506980344653">
        <ele>669.69580078125</ele>
        <time>2011-04-25T17:31:20Z</time>
      </trkpt>
      <trkpt lat="38.421694049611688" lon="-3.499735929071903">
        <ele>671.1376953125</ele>
        <time>2011-04-25T17:31:24Z</time>
      </trkpt>
      <trkpt lat="38.423246378079057" lon="-3.498610071837902">
        <ele>677.38623046875</ele>
        <time>2011-04-25T17:31:30Z</time>
      </trkpt>
      <trkpt lat="38.424383634701371" lon="-3.498380575329065">
        <ele>682.192626953125</ele>
        <time>2011-04-25T17:31:34Z</time>
      </trkpt>
      <trkpt lat="38.426365032792091" lon="-3.498432291671634">
        <ele>692.28662109375</ele>
        <time>2011-04-25T17:31:41Z</time>
      </trkpt>
      <trkpt lat="38.428033366799355" lon="-3.498176475986838">
        <ele>699.015625</ele>
        <time>2011-04-25T17:31:47Z</time>
      </trkpt>
      <trkpt lat="38.430805932730436" lon="-3.497346332296729">
        <ele>698.054443359375</ele>
        <time>2011-04-25T17:31:57Z</time>
      </trkpt>
      <trkpt lat="38.433916959911585" lon="-3.496494730934501">
        <ele>695.17041015625</ele>
        <time>2011-04-25T17:32:08Z</time>
      </trkpt>
      <trkpt lat="38.435314642265439" lon="-3.496438656002283">
        <ele>695.17041015625</ele>
        <time>2011-04-25T17:32:13Z</time>
      </trkpt>
      <trkpt lat="38.438153676688671" lon="-3.496723473072052">
        <ele>687.47998046875</ele>
        <time>2011-04-25T17:32:23Z</time>
      </trkpt>
      <trkpt lat="38.439629394561052" lon="-3.496645772829652">
        <ele>686.518798828125</ele>
        <time>2011-04-25T17:32:28Z</time>
      </trkpt>
      <trkpt lat="38.441611798480153" lon="-3.496158951893449">
        <ele>688.44140625</ele>
        <time>2011-04-25T17:32:35Z</time>
      </trkpt>
      <trkpt lat="38.443036554381251" lon="-3.496237155050039">
        <ele>689.88330078125</ele>
        <time>2011-04-25T17:32:40Z</time>
      </trkpt>
      <trkpt lat="38.444999260827899" lon="-3.496836880221963">
        <ele>691.805908203125</ele>
        <time>2011-04-25T17:32:47Z</time>
      </trkpt>
      <trkpt lat="38.446444049477577" lon="-3.496974846348167">
        <ele>694.689697265625</ele>
        <time>2011-04-25T17:32:52Z</time>
      </trkpt>
      <trkpt lat="38.449968220666051" lon="-3.496883735060692">
        <ele>699.496337890625</ele>
        <time>2011-04-25T17:33:04Z</time>
      </trkpt>
      <trkpt lat="38.452287996187806" lon="-3.497013738378882">
        <ele>708.1484375</ele>
        <time>2011-04-25T17:33:12Z</time>
      </trkpt>
      <trkpt lat="38.454186916351318" lon="-3.497601561248303">
        <ele>719.20361328125</ele>
        <time>2011-04-25T17:33:19Z</time>
      </trkpt>
      <trkpt lat="38.456731578335166" lon="-3.498777626082301">
        <ele>734.10400390625</ele>
        <time>2011-04-25T17:33:29Z</time>
      </trkpt>
      <trkpt lat="38.458599485456944" lon="-3.499677591025829">
        <ele>739.871826171875</ele>
        <time>2011-04-25T17:33:38Z</time>
      </trkpt>
      <trkpt lat="38.460871567949653" lon="-3.50075064226985">
        <ele>747.562255859375</ele>
        <time>2011-04-25T17:33:48Z</time>
      </trkpt>
      <trkpt lat="38.46210571937263" lon="-3.501291694119573">
        <ele>754.291748046875</ele>
        <time>2011-04-25T17:33:54Z</time>
      </trkpt>
      <trkpt lat="38.463663663715124" lon="-3.501998959109187">
        <ele>760.5400390625</ele>
        <time>2011-04-25T17:34:03Z</time>
      </trkpt>
      <trkpt lat="38.464910387992859" lon="-3.502166764810681">
        <ele>762.943359375</ele>
        <time>2011-04-25T17:34:09Z</time>
      </trkpt>
      <trkpt lat="38.466573273763061" lon="-3.501990828663111">
        <ele>765.346923828125</ele>
        <time>2011-04-25T17:34:16Z</time>
      </trkpt>
      <trkpt lat="38.468525419011712" lon="-3.502010526135564">
        <ele>767.75</ele>
        <time>2011-04-25T17:34:24Z</time>
      </trkpt>
      <trkpt lat="38.470801776275039" lon="-3.502653082832694">
        <ele>770.634033203125</ele>
        <time>2011-04-25T17:34:33Z</time>
      </trkpt>
      <trkpt lat="38.473455319181085" lon="-3.503363030031323">
        <ele>778.324462890625</ele>
        <time>2011-04-25T17:34:43Z</time>
      </trkpt>
      <trkpt lat="38.474464332684875" lon="-3.503654720261693">
        <ele>779.766357421875</ele>
        <time>2011-04-25T17:34:48Z</time>
      </trkpt>
      <trkpt lat="38.475454738363624" lon="-3.503786232322455">
        <ele>779.766357421875</ele>
        <time>2011-04-25T17:34:53Z</time>
      </trkpt>
      <trkpt lat="38.476603645831347" lon="-3.503357833251357">
        <ele>774.479248046875</ele>
        <time>2011-04-25T17:34:59Z</time>
      </trkpt>
      <trkpt lat="38.476785784587264" lon="-3.503261776641011">
        <ele>773.51806640625</ele>
        <time>2011-04-25T17:35:00Z</time>
      </trkpt>
      <trkpt lat="38.477789433673024" lon="-3.503116853535175">
        <ele>767.75</ele>
        <time>2011-04-25T17:35:05Z</time>
      </trkpt>
      <trkpt lat="38.479564050212502" lon="-3.503351965919137">
        <ele>760.059326171875</ele>
        <time>2011-04-25T17:35:13Z</time>
      </trkpt>
      <trkpt lat="38.480588821694255" lon="-3.502961620688438">
        <ele>757.65625</ele>
        <time>2011-04-25T17:35:18Z</time>
      </trkpt>
      <trkpt lat="38.482665941119194" lon="-3.501616576686502">
        <ele>761.50146484375</ele>
        <time>2011-04-25T17:35:28Z</time>
      </trkpt>
      <trkpt lat="38.48359365016222" lon="-3.501216256991029">
        <ele>766.30810546875</ele>
        <time>2011-04-25T17:35:33Z</time>
      </trkpt>
      <trkpt lat="38.484997367486358" lon="-3.500709654763341">
        <ele>769.6728515625</ele>
        <time>2011-04-25T17:35:40Z</time>
      </trkpt>
      <trkpt lat="38.486175779253244" lon="-3.50064704194665">
        <ele>769.6728515625</ele>
        <time>2011-04-25T17:35:45Z</time>
      </trkpt>
      <trkpt lat="38.487698016688228" lon="-3.500984245911241">
        <ele>768.230712890625</ele>
        <time>2011-04-25T17:35:51Z</time>
      </trkpt>
      <trkpt lat="38.490119380876422" lon="-3.501785723492503">
        <ele>767.26953125</ele>
        <time>2011-04-25T17:36:00Z</time>
      </trkpt>
      <trkpt lat="38.493571216240525" lon="-3.502930775284767">
        <ele>770.634033203125</ele>
        <time>2011-04-25T17:36:12Z</time>
      </trkpt>
      <trkpt lat="38.496062066406012" lon="-3.503625299781561">
        <ele>777.84375</ele>
        <time>2011-04-25T17:36:21Z</time>
      </trkpt>
      <trkpt lat="38.497464023530483" lon="-3.503548773005605">
        <ele>779.766357421875</ele>
        <time>2011-04-25T17:36:26Z</time>
      </trkpt>
      <trkpt lat="38.498839158564806" lon="-3.502998417243362">
        <ele>779.766357421875</ele>
        <time>2011-04-25T17:36:31Z</time>
      </trkpt>
      <trkpt lat="38.501208387315273" lon="-3.501517837867141">
        <ele>781.208740234375</ele>
        <time>2011-04-25T17:36:40Z</time>
      </trkpt>
      <trkpt lat="38.50449132733047" lon="-3.499516071751714">
        <ele>796.109130859375</ele>
        <time>2011-04-25T17:36:53Z</time>
      </trkpt>
      <trkpt lat="38.506644554436207" lon="-3.498032977804542">
        <ele>807.1640625</ele>
        <time>2011-04-25T17:37:02Z</time>
      </trkpt>
      <trkpt lat="38.509416533634067" lon="-3.495623599737883">
        <ele>817.738525390625</ele>
        <time>2011-04-25T17:37:14Z</time>
      </trkpt>
      <trkpt lat="38.512397473677993" lon="-3.493119170889258">
        <ele>820.62255859375</ele>
        <time>2011-04-25T17:37:26Z</time>
      </trkpt>
      <trkpt lat="38.514325646683574" lon="-3.491811091080308">
        <ele>813.412841796875</ele>
        <time>2011-04-25T17:37:33Z</time>
      </trkpt>
      <trkpt lat="38.51603614166379" lon="-3.491097623482347">
        <ele>806.683349609375</ele>
        <time>2011-04-25T17:37:39Z</time>
      </trkpt>
      <trkpt lat="38.517781421542168" lon="-3.490755138918757">
        <ele>799.954345703125</ele>
        <time>2011-04-25T17:37:45Z</time>
      </trkpt>
      <trkpt lat="38.519437350332737" lon="-3.490769555792213">
        <ele>794.186279296875</ele>
        <time>2011-04-25T17:37:51Z</time>
      </trkpt>
      <trkpt lat="38.521329732611775" lon="-3.491163337603211">
        <ele>788.899169921875</ele>
        <time>2011-04-25T17:37:58Z</time>
      </trkpt>
      <trkpt lat="38.523624697700143" lon="-3.491990966722369">
        <ele>786.01513671875</ele>
        <time>2011-04-25T17:38:06Z</time>
      </trkpt>
      <trkpt lat="38.525766944512725" lon="-3.49296628497541">
        <ele>783.131103515625</ele>
        <time>2011-04-25T17:38:14Z</time>
      </trkpt>
      <trkpt lat="38.528002984821796" lon="-3.494482487440109">
        <ele>780.72802734375</ele>
        <time>2011-04-25T17:38:23Z</time>
      </trkpt>
      <trkpt lat="38.529378119856119" lon="-3.494713995605707">
        <ele>779.28564453125</ele>
        <time>2011-04-25T17:38:28Z</time>
      </trkpt>
      <trkpt lat="38.529665870591998" lon="-3.494670242071152">
        <ele>778.80517578125</ele>
        <time>2011-04-25T17:38:29Z</time>
      </trkpt>
      <trkpt lat="38.532740520313382" lon="-3.494029780849814">
        <ele>775.4404296875</ele>
        <time>2011-04-25T17:38:40Z</time>
      </trkpt>
      <trkpt lat="38.536965167149901" lon="-3.493313798680902">
        <ele>770.634033203125</ele>
        <time>2011-04-25T17:38:55Z</time>
      </trkpt>
      <trkpt lat="38.541170116513968" lon="-3.49259739741683">
        <ele>769.192138671875</ele>
        <time>2011-04-25T17:39:10Z</time>
      </trkpt>
      <trkpt lat="38.546454990282655" lon="-3.491699444130063">
        <ele>774.479248046875</ele>
        <time>2011-04-25T17:39:29Z</time>
      </trkpt>
      <trkpt lat="38.54961764998734" lon="-3.491155039519072">
        <ele>771.59521484375</ele>
        <time>2011-04-25T17:39:40Z</time>
      </trkpt>
      <trkpt lat="38.552662124857306" lon="-3.490647934377194">
        <ele>771.59521484375</ele>
        <time>2011-04-25T17:39:51Z</time>
      </trkpt>
      <trkpt lat="38.558302978053689" lon="-3.489735731855035">
        <ele>770.1533203125</ele>
        <time>2011-04-25T17:40:11Z</time>
      </trkpt>
      <trkpt lat="38.562444895505905" lon="-3.488979516550899">
        <ele>768.71142578125</ele>
        <time>2011-04-25T17:40:26Z</time>
      </trkpt>
      <trkpt lat="38.564509944990277" lon="-3.488387167453766">
        <ele>769.6728515625</ele>
        <time>2011-04-25T17:40:34Z</time>
      </trkpt>
      <trkpt lat="38.566375253722072" lon="-3.487129462882876">
        <ele>771.59521484375</ele>
        <time>2011-04-25T17:40:42Z</time>
      </trkpt>
      <trkpt lat="38.568696035072207" lon="-3.485652152448893">
        <ele>772.075927734375</ele>
        <time>2011-04-25T17:40:52Z</time>
      </trkpt>
      <trkpt lat="38.570329081267118" lon="-3.485001297667623">
        <ele>769.6728515625</ele>
        <time>2011-04-25T17:40:58Z</time>
      </trkpt>
      <trkpt lat="38.57405056245625" lon="-3.483798829838634">
        <ele>776.40185546875</ele>
        <time>2011-04-25T17:41:11Z</time>
      </trkpt>
      <trkpt lat="38.576314263045788" lon="-3.483316451311112">
        <ele>786.01513671875</ele>
        <time>2011-04-25T17:41:19Z</time>
      </trkpt>
      <trkpt lat="38.578171944245696" lon="-3.482728041708469">
        <ele>796.109130859375</ele>
        <time>2011-04-25T17:41:26Z</time>
      </trkpt>
      <trkpt lat="38.580240597948432" lon="-3.48218472674489">
        <ele>807.644775390625</ele>
        <time>2011-04-25T17:41:34Z</time>
      </trkpt>
      <trkpt lat="38.581784795969725" lon="-3.482188498601317">
        <ele>810.528564453125</ele>
        <time>2011-04-25T17:41:40Z</time>
      </trkpt>
      <trkpt lat="38.582771178334951" lon="-3.481849953532219">
        <ele>811.489990234375</ele>
        <time>2011-04-25T17:41:44Z</time>
      </trkpt>
      <trkpt lat="38.583444077521563" lon="-3.481323067098856">
        <ele>809.086669921875</ele>
        <time>2011-04-25T17:41:47Z</time>
      </trkpt>
      <trkpt lat="38.58417347073555" lon="-3.480279687792063">
        <ele>802.838134765625</ele>
        <time>2011-04-25T17:41:51Z</time>
      </trkpt>
      <trkpt lat="38.585611134767532" lon="-3.477444425225258">
        <ele>795.1474609375</ele>
        <time>2011-04-25T17:42:01Z</time>
      </trkpt>
      <trkpt lat="38.587242336943746" lon="-3.47429676912725">
        <ele>786.01513671875</ele>
        <time>2011-04-25T17:42:12Z</time>
      </trkpt>
      <trkpt lat="38.588297283276916" lon="-3.472833791747689">
        <ele>781.208740234375</ele>
        <time>2011-04-25T17:42:18Z</time>
      </trkpt>
      <trkpt lat="38.589237816631794" lon="-3.472168939188123">
        <ele>779.28564453125</ele>
        <time>2011-04-25T17:42:22Z</time>
      </trkpt>
      <trkpt lat="38.590318998321891" lon="-3.471840033307672">
        <ele>778.324462890625</ele>
        <time>2011-04-25T17:42:26Z</time>
      </trkpt>
      <trkpt lat="38.591745430603623" lon="-3.47185118123889">
        <ele>774.479248046875</ele>
        <time>2011-04-25T17:42:31Z</time>
      </trkpt>
      <trkpt lat="38.592913029715419" lon="-3.471711371093988">
        <ele>772.075927734375</ele>
        <time>2011-04-25T17:42:35Z</time>
      </trkpt>
      <trkpt lat="38.595210341736674" lon="-3.470934955403209">
        <ele>766.788818359375</ele>
        <time>2011-04-25T17:42:43Z</time>
      </trkpt>
      <trkpt lat="38.599112285301089" lon="-3.469575075432658">
        <ele>761.982177734375</ele>
        <time>2011-04-25T17:42:57Z</time>
      </trkpt>
      <trkpt lat="38.60322997905314" lon="-3.46816984936595">
        <ele>768.71142578125</ele>
        <time>2011-04-25T17:43:12Z</time>
      </trkpt>
      <trkpt lat="38.605428887531161" lon="-3.467124374583364">
        <ele>773.99853515625</ele>
        <time>2011-04-25T17:43:20Z</time>
      </trkpt>
      <trkpt lat="38.607808761298656" lon="-3.465548660606146">
        <ele>779.28564453125</ele>
        <time>2011-04-25T17:43:29Z</time>
      </trkpt>
      <trkpt lat="38.608386190608144" lon="-3.465393343940377">
        <ele>779.766357421875</ele>
        <time>2011-04-25T17:43:31Z</time>
      </trkpt>
      <trkpt lat="38.609785130247474" lon="-3.465469367802143">
        <ele>779.766357421875</ele>
        <time>2011-04-25T17:43:36Z</time>
      </trkpt>
      <trkpt lat="38.610879555344582" lon="-3.465679669752717">
        <ele>777.36328125</ele>
        <time>2011-04-25T17:43:41Z</time>
      </trkpt>
      <trkpt lat="38.612889116629958" lon="-3.465877063572407">
        <ele>769.192138671875</ele>
        <time>2011-04-25T17:43:51Z</time>
      </trkpt>
      <trkpt lat="38.614760627970099" lon="-3.465517647564411">
        <ele>760.5400390625</ele>
        <time>2011-04-25T17:44:01Z</time>
      </trkpt>
      <trkpt lat="38.615645840764046" lon="-3.464941643178463">
        <ele>755.2529296875</ele>
        <time>2011-04-25T17:44:06Z</time>
      </trkpt>
      <trkpt lat="38.617262793704867" lon="-3.463795837014914">
        <ele>749.485107421875</ele>
        <time>2011-04-25T17:44:14Z</time>
      </trkpt>
      <trkpt lat="38.618493843823671" lon="-3.463352937251329">
        <ele>748.043212890625</ele>
        <time>2011-04-25T17:44:19Z</time>
      </trkpt>
      <trkpt lat="38.619844252243638" lon="-3.463267525658011">
        <ele>744.67822265625</ele>
        <time>2011-04-25T17:44:24Z</time>
      </trkpt>
      <trkpt lat="38.62287774682045" lon="-3.463536752387881">
        <ele>736.98779296875</ele>
        <time>2011-04-25T17:44:35Z</time>
      </trkpt>
      <trkpt lat="38.626112155616283" lon="-3.463846882805228">
        <ele>740.3525390625</ele>
        <time>2011-04-25T17:44:47Z</time>
      </trkpt>
      <trkpt lat="38.628114592283964" lon="-3.464175034314394">
        <ele>740.8330078125</ele>
        <time>2011-04-25T17:44:55Z</time>
      </trkpt>
      <trkpt lat="38.629301385954022" lon="-3.464754140004516">
        <ele>737.94921875</ele>
        <time>2011-04-25T17:45:00Z</time>
      </trkpt>
      <trkpt lat="38.630410982295871" lon="-3.465653518214822">
        <ele>735.5458984375</ele>
        <time>2011-04-25T17:45:05Z</time>
      </trkpt>
      <trkpt lat="38.632124746218324" lon="-3.467495357617736">
        <ele>731.219970703125</ele>
        <time>2011-04-25T17:45:13Z</time>
      </trkpt>
      <trkpt lat="38.635093281045556" lon="-3.470699423924089">
        <ele>726.413330078125</ele>
        <time>2011-04-25T17:45:26Z</time>
      </trkpt>
      <trkpt lat="38.637985372915864" lon="-3.473792178556323">
        <ele>725.9326171875</ele>
        <time>2011-04-25T17:45:39Z</time>
      </trkpt>
      <trkpt lat="38.640834130346775" lon="-3.476756857708097">
        <ele>727.855224609375</ele>
        <time>2011-04-25T17:45:52Z</time>
      </trkpt>
      <trkpt lat="38.642275733873248" lon="-3.477908698841929">
        <ele>725.451904296875</ele>
        <time>2011-04-25T17:45:58Z</time>
      </trkpt>
      <trkpt lat="38.643648438155651" lon="-3.47832846455276">
        <ele>722.568115234375</ele>
        <time>2011-04-25T17:46:03Z</time>
      </trkpt>
      <trkpt lat="38.645030027255416" lon="-3.478241292759776">
        <ele>720.6455078125</ele>
        <time>2011-04-25T17:46:08Z</time>
      </trkpt>
      <trkpt lat="38.646361827850342" lon="-3.477660762146115">
        <ele>719.20361328125</ele>
        <time>2011-04-25T17:46:13Z</time>
      </trkpt>
      <trkpt lat="38.647504532709718" lon="-3.476601121947169">
        <ele>716.80029296875</ele>
        <time>2011-04-25T17:46:18Z</time>
      </trkpt>
      <trkpt lat="38.648234428837895" lon="-3.475431678816676">
        <ele>715.358154296875</ele>
        <time>2011-04-25T17:46:22Z</time>
      </trkpt>
      <trkpt lat="38.648883188143373" lon="-3.473767368122935">
        <ele>714.87744140625</ele>
        <time>2011-04-25T17:46:27Z</time>
      </trkpt>
      <trkpt lat="38.650535847991705" lon="-3.469053050503135">
        <ele>719.20361328125</ele>
        <time>2011-04-25T17:46:41Z</time>
      </trkpt>
      <trkpt lat="38.65257365629077" lon="-3.463396271690726">
        <ele>728.816650390625</ele>
        <time>2011-04-25T17:46:58Z</time>
      </trkpt>
      <trkpt lat="38.653517374768853" lon="-3.461621236056089">
        <ele>734.584716796875</ele>
        <time>2011-04-25T17:47:04Z</time>
      </trkpt>
      <trkpt lat="38.654582798480988" lon="-3.460440058261156">
        <ele>737.468505859375</ele>
        <time>2011-04-25T17:47:09Z</time>
      </trkpt>
      <trkpt lat="38.656284073367715" lon="-3.459077579900622">
        <ele>737.94921875</ele>
        <time>2011-04-25T17:47:16Z</time>
      </trkpt>
      <trkpt lat="38.658860670402646" lon="-3.457150999456644">
        <ele>733.623291015625</ele>
        <time>2011-04-25T17:47:26Z</time>
      </trkpt>
      <trkpt lat="38.660808457061648" lon="-3.45570839010179">
        <ele>733.623291015625</ele>
        <time>2011-04-25T17:47:34Z</time>
      </trkpt>
      <trkpt lat="38.663480691611767" lon="-3.453706288710237">
        <ele>733.623291015625</ele>
        <time>2011-04-25T17:47:45Z</time>
      </trkpt>
      <trkpt lat="38.666194081306458" lon="-3.451661942526698">
        <ele>730.258544921875</ele>
        <time>2011-04-25T17:47:56Z</time>
      </trkpt>
      <trkpt lat="38.670052941888571" lon="-3.448754847049713">
        <ele>732.181396484375</ele>
        <time>2011-04-25T17:48:12Z</time>
      </trkpt>
      <trkpt lat="38.673091130331159" lon="-3.446463821455836">
        <ele>731.219970703125</ele>
        <time>2011-04-25T17:48:24Z</time>
      </trkpt>
      <trkpt lat="38.675518780946732" lon="-3.444591639563441">
        <ele>729.297119140625</ele>
        <time>2011-04-25T17:48:34Z</time>
      </trkpt>
      <trkpt lat="38.678373573347926" lon="-3.44243916682899">
        <ele>723.048828125</ele>
        <time>2011-04-25T17:48:46Z</time>
      </trkpt>
      <trkpt lat="38.681726921349764" lon="-3.43988218344748">
        <ele>716.80029296875</ele>
        <time>2011-04-25T17:49:00Z</time>
      </trkpt>
      <trkpt lat="38.68474499322474" lon="-3.437600629404187">
        <ele>717.761474609375</ele>
        <time>2011-04-25T17:49:13Z</time>
      </trkpt>
      <trkpt lat="38.687585536390543" lon="-3.43544103205204">
        <ele>713.916015625</ele>
        <time>2011-04-25T17:49:25Z</time>
      </trkpt>
      <trkpt lat="38.691567778587341" lon="-3.432462941855192">
        <ele>711.99365234375</ele>
        <time>2011-04-25T17:49:41Z</time>
      </trkpt>
      <trkpt lat="38.694675285369158" lon="-3.430110141634941">
        <ele>708.1484375</ele>
        <time>2011-04-25T17:49:53Z</time>
      </trkpt>
      <trkpt lat="38.697891840711236" lon="-3.427635552361608">
        <ele>705.264404296875</ele>
        <time>2011-04-25T17:50:06Z</time>
      </trkpt>
      <trkpt lat="38.701534196734428" lon="-3.424839433282614">
        <ele>703.822509765625</ele>
        <time>2011-04-25T17:50:21Z</time>
      </trkpt>
      <trkpt lat="38.704112134873867" lon="-3.422717386856675">
        <ele>704.78369140625</ele>
        <time>2011-04-25T17:50:32Z</time>
      </trkpt>
      <trkpt lat="38.708766018971801" lon="-3.419234538450837">
        <ele>706.2255859375</ele>
        <time>2011-04-25T17:50:51Z</time>
      </trkpt>
      <trkpt lat="38.710366794839501" lon="-3.418412273749709">
        <ele>703.341796875</ele>
        <time>2011-04-25T17:50:57Z</time>
      </trkpt>
      <trkpt lat="38.712114170193672" lon="-3.417995860800147">
        <ele>699.97705078125</ele>
        <time>2011-04-25T17:51:03Z</time>
      </trkpt>
      <trkpt lat="38.714812975376844" lon="-3.417854038998485">
        <ele>698.534912109375</ele>
        <time>2011-04-25T17:51:12Z</time>
      </trkpt>
      <trkpt lat="38.717692494392395" lon="-3.417678521946073">
        <ele>698.054443359375</ele>
        <time>2011-04-25T17:51:22Z</time>
      </trkpt>
      <trkpt lat="38.721544565632939" lon="-3.417423628270626">
        <ele>698.054443359375</ele>
        <time>2011-04-25T17:51:36Z</time>
      </trkpt>
      <trkpt lat="38.726351922377944" lon="-3.417093129828572">
        <ele>700.4580078125</ele>
        <time>2011-04-25T17:51:53Z</time>
      </trkpt>
      <trkpt lat="38.729447443038225" lon="-3.416990032419562">
        <ele>702.38037109375</ele>
        <time>2011-04-25T17:52:04Z</time>
      </trkpt>
      <trkpt lat="38.732302067801356" lon="-3.417474590241909">
        <ele>698.534912109375</ele>
        <time>2011-04-25T17:52:14Z</time>
      </trkpt>
      <trkpt lat="38.735211929306388" lon="-3.417933331802487">
        <ele>696.1318359375</ele>
        <time>2011-04-25T17:52:24Z</time>
      </trkpt>
      <trkpt lat="38.738705171272159" lon="-3.418527692556381">
        <ele>695.17041015625</ele>
        <time>2011-04-25T17:52:37Z</time>
      </trkpt>
      <trkpt lat="38.742775842547417" lon="-3.419206542894244">
        <ele>694.209228515625</ele>
        <time>2011-04-25T17:52:52Z</time>
      </trkpt>
      <trkpt lat="38.747290670871735" lon="-3.419964099302888">
        <ele>692.28662109375</ele>
        <time>2011-04-25T17:53:08Z</time>
      </trkpt>
      <trkpt lat="38.749830136075616" lon="-3.420147830620408">
        <ele>692.767333984375</ele>
        <time>2011-04-25T17:53:17Z</time>
      </trkpt>
      <trkpt lat="38.751223459839821" lon="-3.419730998575687">
        <ele>691.805908203125</ele>
        <time>2011-04-25T17:53:22Z</time>
      </trkpt>
      <trkpt lat="38.752533886581659" lon="-3.418908817693591">
        <ele>691.805908203125</ele>
        <time>2011-04-25T17:53:27Z</time>
      </trkpt>
      <trkpt lat="38.754968158900738" lon="-3.416904117912054">
        <ele>692.767333984375</ele>
        <time>2011-04-25T17:53:37Z</time>
      </trkpt>
      <trkpt lat="38.758908156305552" lon="-3.413644479587674">
        <ele>697.093017578125</ele>
        <time>2011-04-25T17:53:54Z</time>
      </trkpt>
      <trkpt lat="38.761548036709428" lon="-3.411515140905976">
        <ele>697.093017578125</ele>
        <time>2011-04-25T17:54:05Z</time>
      </trkpt>
      <trkpt lat="38.764234436675906" lon="-3.409305419772863">
        <ele>695.17041015625</ele>
        <time>2011-04-25T17:54:16Z</time>
      </trkpt>
      <trkpt lat="38.767544031143188" lon="-3.406592449173331">
        <ele>706.706298828125</ele>
        <time>2011-04-25T17:54:30Z</time>
      </trkpt>
      <trkpt lat="38.770124316215515" lon="-3.404477527365089">
        <ele>701.89990234375</ele>
        <time>2011-04-25T17:54:41Z</time>
      </trkpt>
      <trkpt lat="38.772868635132909" lon="-3.402211228385568">
        <ele>703.341796875</ele>
        <time>2011-04-25T17:54:53Z</time>
      </trkpt>
      <trkpt lat="38.775594430044293" lon="-3.399993125349283">
        <ele>711.0322265625</ele>
        <time>2011-04-25T17:55:06Z</time>
      </trkpt>
      <trkpt lat="38.778339922428131" lon="-3.397693131119013">
        <ele>704.30322265625</ele>
        <time>2011-04-25T17:55:20Z</time>
      </trkpt>
      <trkpt lat="38.780847284942865" lon="-3.395625483244658">
        <ele>705.264404296875</ele>
        <time>2011-04-25T17:55:32Z</time>
      </trkpt>
      <trkpt lat="38.78367324359715" lon="-3.393300846219063">
        <ele>706.706298828125</ele>
        <time>2011-04-25T17:55:45Z</time>
      </trkpt>
      <trkpt lat="38.785098334774375" lon="-3.392303651198745">
        <ele>709.59033203125</ele>
        <time>2011-04-25T17:55:52Z</time>
      </trkpt>
      <trkpt lat="38.786346986889839" lon="-3.391920849680901">
        <ele>712.954833984375</ele>
        <time>2011-04-25T17:55:58Z</time>
      </trkpt>
      <trkpt lat="38.787657916545868" lon="-3.391962759196758">
        <ele>716.319580078125</ele>
        <time>2011-04-25T17:56:04Z</time>
      </trkpt>
      <trkpt lat="38.790603736415505" lon="-3.392584277316928">
        <ele>723.529541015625</ele>
        <time>2011-04-25T17:56:17Z</time>
      </trkpt>
      <trkpt lat="38.793620467185974" lon="-3.393224822357297">
        <ele>729.77783203125</ele>
        <time>2011-04-25T17:56:30Z</time>
      </trkpt>
      <trkpt lat="38.79582742229104" lon="-3.393735699355602">
        <ele>726.413330078125</ele>
        <time>2011-04-25T17:56:40Z</time>
      </trkpt>
      <trkpt lat="38.798598060384393" lon="-3.3943747356534">
        <ele>719.20361328125</ele>
        <time>2011-04-25T17:56:51Z</time>
      </trkpt>
      <trkpt lat="38.801849149167538" lon="-3.395076217129827">
        <ele>706.706298828125</ele>
        <time>2011-04-25T17:57:04Z</time>
      </trkpt>
      <trkpt lat="38.805400058627129" lon="-3.395881718024612">
        <ele>700.4580078125</ele>
        <time>2011-04-25T17:57:18Z</time>
      </trkpt>
      <trkpt lat="38.807561248540878" lon="-3.396198721602559">
        <ele>699.97705078125</ele>
        <time>2011-04-25T17:57:26Z</time>
      </trkpt>
      <trkpt lat="38.81007581949234" lon="-3.396101072430611">
        <ele>700.9384765625</ele>
        <time>2011-04-25T17:57:35Z</time>
      </trkpt>
      <trkpt lat="38.814160069450736" lon="-3.395878784358501">
        <ele>701.89990234375</ele>
        <time>2011-04-25T17:57:49Z</time>
      </trkpt>
      <trkpt lat="38.817621460184455" lon="-3.395700585097075">
        <ele>700.9384765625</ele>
        <time>2011-04-25T17:58:01Z</time>
      </trkpt>
      <trkpt lat="38.819942241534591" lon="-3.395580388605595">
        <ele>698.534912109375</ele>
        <time>2011-04-25T17:58:10Z</time>
      </trkpt>
      <trkpt lat="38.822817653417587" lon="-3.395463628694415">
        <ele>696.612548828125</ele>
        <time>2011-04-25T17:58:22Z</time>
      </trkpt>
      <trkpt lat="38.826575763523579" lon="-3.395277466624975">
        <ele>696.612548828125</ele>
        <time>2011-04-25T17:58:37Z</time>
      </trkpt>
      <trkpt lat="38.82927356287837" lon="-3.395132375881076">
        <ele>693.728515625</ele>
        <time>2011-04-25T17:58:48Z</time>
      </trkpt>
      <trkpt lat="38.832328096032143" lon="-3.394969599321485">
        <ele>691.805908203125</ele>
        <time>2011-04-25T17:59:00Z</time>
      </trkpt>
      <trkpt lat="38.836915260180831" lon="-3.394690230488777">
        <ele>691.805908203125</ele>
        <time>2011-04-25T17:59:17Z</time>
      </trkpt>
      <trkpt lat="38.840878056362271" lon="-3.394508259370923">
        <ele>691.3251953125</ele>
        <time>2011-04-25T17:59:31Z</time>
      </trkpt>
      <trkpt lat="38.844769271090627" lon="-3.394312374293804">
        <ele>692.767333984375</ele>
        <time>2011-04-25T17:59:44Z</time>
      </trkpt>
      <trkpt lat="38.849392561241984" lon="-3.394074160605669">
        <ele>692.767333984375</ele>
        <time>2011-04-25T17:59:59Z</time>
      </trkpt>
      <trkpt lat="38.851872263476253" lon="-3.393909372389317">
        <ele>692.28662109375</ele>
        <time>2011-04-25T18:00:08Z</time>
      </trkpt>
      <trkpt lat="38.855466088280082" lon="-3.393719270825386">
        <ele>691.3251953125</ele>
        <time>2011-04-25T18:00:21Z</time>
      </trkpt>
      <trkpt lat="38.859784696251154" lon="-3.393501592800021">
        <ele>690.844482421875</ele>
        <time>2011-04-25T18:00:36Z</time>
      </trkpt>
      <trkpt lat="38.864391054958105" lon="-3.39327628724277">
        <ele>690.364013671875</ele>
        <time>2011-04-25T18:00:52Z</time>
      </trkpt>
      <trkpt lat="38.869283236563206" lon="-3.393015945330262">
        <ele>688.44140625</ele>
        <time>2011-04-25T18:01:09Z</time>
      </trkpt>
      <trkpt lat="38.874430060386658" lon="-3.3927480597049">
        <ele>687.47998046875</ele>
        <time>2011-04-25T18:01:27Z</time>
      </trkpt>
      <trkpt lat="38.879597336053848" lon="-3.392477827146649">
        <ele>682.67333984375</ele>
        <time>2011-04-25T18:01:45Z</time>
      </trkpt>
      <trkpt lat="38.884485075250268" lon="-3.392222598195076">
        <ele>683.15380859375</ele>
        <time>2011-04-25T18:02:02Z</time>
      </trkpt>
      <trkpt lat="38.888288363814354" lon="-3.392018163576722">
        <ele>686.518798828125</ele>
        <time>2011-04-25T18:02:15Z</time>
      </trkpt>
      <trkpt lat="38.892053933814168" lon="-3.391604265198112">
        <ele>687.47998046875</ele>
        <time>2011-04-25T18:02:28Z</time>
      </trkpt>
      <trkpt lat="38.897003196179867" lon="-3.39105349034071">
        <ele>686.518798828125</ele>
        <time>2011-04-25T18:02:45Z</time>
      </trkpt>
      <trkpt lat="38.900940679013729" lon="-3.390591060742736">
        <ele>685.076904296875</ele>
        <time>2011-04-25T18:02:59Z</time>
      </trkpt>
      <trkpt lat="38.90481797978282" lon="-3.390146568417549">
        <ele>683.634521484375</ele>
        <time>2011-04-25T18:03:13Z</time>
      </trkpt>
      <trkpt lat="38.909188387915492" lon="-3.389634182676673">
        <ele>681.2314453125</ele>
        <time>2011-04-25T18:03:29Z</time>
      </trkpt>
      <trkpt lat="38.912930488586426" lon="-3.389185918495059">
        <ele>680.750732421875</ele>
        <time>2011-04-25T18:03:42Z</time>
      </trkpt>
      <trkpt lat="38.9170210249722" lon="-3.388710161671042">
        <ele>680.750732421875</ele>
        <time>2011-04-25T18:03:56Z</time>
      </trkpt>
      <trkpt lat="38.92217606306076" lon="-3.388114543631673">
        <ele>679.789306640625</ele>
        <time>2011-04-25T18:04:14Z</time>
      </trkpt>
      <trkpt lat="38.926571952179074" lon="-3.387650270015001">
        <ele>678.347412109375</ele>
        <time>2011-04-25T18:04:29Z</time>
      </trkpt>
      <trkpt lat="38.930828869342804" lon="-3.387164454907179">
        <ele>677.38623046875</ele>
        <time>2011-04-25T18:04:44Z</time>
      </trkpt>
      <trkpt lat="38.93505728803575" lon="-3.386702528223395">
        <ele>676.905517578125</ele>
        <time>2011-04-25T18:04:59Z</time>
      </trkpt>
      <trkpt lat="38.939115134999156" lon="-3.386239092797041">
        <ele>676.4248046875</ele>
        <time>2011-04-25T18:05:13Z</time>
      </trkpt>
      <trkpt lat="38.94332192838192" lon="-3.385738441720605">
        <ele>674.98291015625</ele>
        <time>2011-04-25T18:05:28Z</time>
      </trkpt>
      <trkpt lat="38.947565769776702" lon="-3.385228319093585">
        <ele>674.98291015625</ele>
        <time>2011-04-25T18:05:43Z</time>
      </trkpt>
      <trkpt lat="38.951232517138124" lon="-3.384777372702956">
        <ele>674.502197265625</ele>
        <time>2011-04-25T18:05:56Z</time>
      </trkpt>
      <trkpt lat="38.955801827833056" lon="-3.38424738496542">
        <ele>679.789306640625</ele>
        <time>2011-04-25T18:06:12Z</time>
      </trkpt>
      <trkpt lat="38.959657670930028" lon="-3.383832229301333">
        <ele>681.7119140625</ele>
        <time>2011-04-25T18:06:26Z</time>
      </trkpt>
      <trkpt lat="38.963731359690428" lon="-3.383352197706699">
        <ele>678.347412109375</ele>
        <time>2011-04-25T18:06:41Z</time>
      </trkpt>
      <trkpt lat="38.966907598078251" lon="-3.382976269349456">
        <ele>676.905517578125</ele>
        <time>2011-04-25T18:06:53Z</time>
      </trkpt>
      <trkpt lat="38.970560682937503" lon="-3.382562370970845">
        <ele>670.656982421875</ele>
        <time>2011-04-25T18:07:07Z</time>
      </trkpt>
      <trkpt lat="38.974123746156693" lon="-3.382149143144488">
        <ele>668.734375</ele>
        <time>2011-04-25T18:07:20Z</time>
      </trkpt>
      <trkpt lat="38.977448428049684" lon="-3.381772125139833">
        <ele>668.253662109375</ele>
        <time>2011-04-25T18:07:32Z</time>
      </trkpt>
      <trkpt lat="38.981954539194703" lon="-3.381283124908805">
        <ele>665.850341796875</ele>
        <time>2011-04-25T18:07:48Z</time>
      </trkpt>
      <trkpt lat="38.983404356986284" lon="-3.381371553987265">
        <ele>664.888916015625</ele>
        <time>2011-04-25T18:07:53Z</time>
      </trkpt>
      <trkpt lat="38.985072690993547" lon="-3.381900787353516">
        <ele>664.888916015625</ele>
        <time>2011-04-25T18:07:59Z</time>
      </trkpt>
      <trkpt lat="38.98659635335207" lon="-3.382846266031265">
        <ele>664.408203125</ele>
        <time>2011-04-25T18:08:05Z</time>
      </trkpt>
      <trkpt lat="38.987960843369365" lon="-3.384154764935374">
        <ele>667.292236328125</ele>
        <time>2011-04-25T18:08:11Z</time>
      </trkpt>
      <trkpt lat="38.990221861749887" lon="-3.386563388630748">
        <ele>668.734375</ele>
        <time>2011-04-25T18:08:22Z</time>
      </trkpt>
      <trkpt lat="38.991815680637956" lon="-3.38811001740396">
        <ele>662.485595703125</ele>
        <time>2011-04-25T18:08:29Z</time>
      </trkpt>
      <trkpt lat="38.993413439020514" lon="-3.389104027301073">
        <ele>659.601806640625</ele>
        <time>2011-04-25T18:08:35Z</time>
      </trkpt>
      <trkpt lat="38.99509409442544" lon="-3.389646168798208">
        <ele>659.601806640625</ele>
        <time>2011-04-25T18:08:41Z</time>
      </trkpt>
      <trkpt lat="38.996815318241715" lon="-3.38975278660655">
        <ele>660.082275390625</ele>
        <time>2011-04-25T18:08:47Z</time>
      </trkpt>
      <trkpt lat="38.998516425490379" lon="-3.389423042535782">
        <ele>661.043701171875</ele>
        <time>2011-04-25T18:08:53Z</time>
      </trkpt>
      <trkpt lat="39.000056935474277" lon="-3.388679651543498">
        <ele>663.927490234375</ele>
        <time>2011-04-25T18:08:59Z</time>
      </trkpt>
      <trkpt lat="39.001667434349656" lon="-3.387444075196981">
        <ele>668.734375</ele>
        <time>2011-04-25T18:09:06Z</time>
      </trkpt>
      <trkpt lat="39.003376755863428" lon="-3.385642636567354">
        <ele>669.215087890625</ele>
        <time>2011-04-25T18:09:14Z</time>
      </trkpt>
      <trkpt lat="39.005436860024929" lon="-3.383424449712038">
        <ele>662.485595703125</ele>
        <time>2011-04-25T18:09:23Z</time>
      </trkpt>
      <trkpt lat="39.008752573281527" lon="-3.379755187779665">
        <ele>660.082275390625</ele>
        <time>2011-04-25T18:09:38Z</time>
      </trkpt>
      <trkpt lat="39.012649739161134" lon="-3.375486452132464">
        <ele>663.447021484375</ele>
        <time>2011-04-25T18:09:56Z</time>
      </trkpt>
      <trkpt lat="39.013854889199138" lon="-3.37447333149612">
        <ele>661.5244140625</ele>
        <time>2011-04-25T18:10:01Z</time>
      </trkpt>
      <trkpt lat="39.01516598649323" lon="-3.373802192509174">
        <ele>657.67919921875</ele>
        <time>2011-04-25T18:10:06Z</time>
      </trkpt>
      <trkpt lat="39.016811437904835" lon="-3.373454846441746">
        <ele>654.795166015625</ele>
        <time>2011-04-25T18:10:12Z</time>
      </trkpt>
      <trkpt lat="39.018542133271694" lon="-3.373493319377303">
        <ele>653.353271484375</ele>
        <time>2011-04-25T18:10:18Z</time>
      </trkpt>
      <trkpt lat="39.022300746291876" lon="-3.373662382364273">
        <ele>655.27587890625</ele>
        <time>2011-04-25T18:10:31Z</time>
      </trkpt>
      <trkpt lat="39.026593873277307" lon="-3.373777884989977">
        <ele>656.7177734375</ele>
        <time>2011-04-25T18:10:46Z</time>
      </trkpt>
      <trkpt lat="39.029475236311555" lon="-3.373879222199321">
        <ele>655.756591796875</ele>
        <time>2011-04-25T18:10:56Z</time>
      </trkpt>
      <trkpt lat="39.03309328481555" lon="-3.374016433954239">
        <ele>655.756591796875</ele>
        <time>2011-04-25T18:11:09Z</time>
      </trkpt>
      <trkpt lat="39.037727890536189" lon="-3.374198991805315">
        <ele>657.198486328125</ele>
        <time>2011-04-25T18:11:25Z</time>
      </trkpt>
      <trkpt lat="39.042242299765348" lon="-3.374387919902802">
        <ele>657.67919921875</ele>
        <time>2011-04-25T18:11:41Z</time>
      </trkpt>
      <trkpt lat="39.047964373603463" lon="-3.374618841335177">
        <ele>657.198486328125</ele>
        <time>2011-04-25T18:12:01Z</time>
      </trkpt>
      <trkpt lat="39.052508370950818" lon="-3.374804332852364">
        <ele>655.27587890625</ele>
        <time>2011-04-25T18:12:17Z</time>
      </trkpt>
      <trkpt lat="39.055709335952997" lon="-3.37496736086905">
        <ele>654.795166015625</ele>
        <time>2011-04-25T18:12:28Z</time>
      </trkpt>
      <trkpt lat="39.058896722272038" lon="-3.375095184892416">
        <ele>655.27587890625</ele>
        <time>2011-04-25T18:12:39Z</time>
      </trkpt>
      <trkpt lat="39.062349479645491" lon="-3.375192666426301">
        <ele>654.795166015625</ele>
        <time>2011-04-25T18:12:51Z</time>
      </trkpt>
      <trkpt lat="39.065148197114468" lon="-3.375313030555844">
        <ele>654.314697265625</ele>
        <time>2011-04-25T18:13:01Z</time>
      </trkpt>
      <trkpt lat="39.068924244493246" lon="-3.375464491546154">
        <ele>653.353271484375</ele>
        <time>2011-04-25T18:13:14Z</time>
      </trkpt>
      <trkpt lat="39.073051493614912" lon="-3.37562307715416">
        <ele>651.9111328125</ele>
        <time>2011-04-25T18:13:28Z</time>
      </trkpt>
      <trkpt lat="39.078884460031986" lon="-3.375893980264664">
        <ele>651.9111328125</ele>
        <time>2011-04-25T18:13:48Z</time>
      </trkpt>
      <trkpt lat="39.083517473191023" lon="-3.376053739339113">
        <ele>650.46923828125</ele>
        <time>2011-04-25T18:14:04Z</time>
      </trkpt>
      <trkpt lat="39.086966458708048" lon="-3.37618307210505">
        <ele>650.46923828125</ele>
        <time>2011-04-25T18:14:16Z</time>
      </trkpt>
      <trkpt lat="39.090992119163275" lon="-3.376342076808214">
        <ele>650.46923828125</ele>
        <time>2011-04-25T18:14:30Z</time>
      </trkpt>
      <trkpt lat="39.095605099573731" lon="-3.37653343565762">
        <ele>649.988525390625</ele>
        <time>2011-04-25T18:14:46Z</time>
      </trkpt>
      <trkpt lat="39.099980033934116" lon="-3.376752957701683">
        <ele>651.430419921875</ele>
        <time>2011-04-25T18:15:01Z</time>
      </trkpt>
      <trkpt lat="39.10320513881743" lon="-3.376841386780143">
        <ele>650.94970703125</ele>
        <time>2011-04-25T18:15:12Z</time>
      </trkpt>
      <trkpt lat="39.108127159997821" lon="-3.377046575769782">
        <ele>652.391845703125</ele>
        <time>2011-04-25T18:15:29Z</time>
      </trkpt>
      <trkpt lat="39.113028896972537" lon="-3.377247489988804">
        <ele>653.353271484375</ele>
        <time>2011-04-25T18:15:46Z</time>
      </trkpt>
      <trkpt lat="39.117368292063475" lon="-3.377417391166091">
        <ele>652.87255859375</ele>
        <time>2011-04-25T18:16:01Z</time>
      </trkpt>
      <trkpt lat="39.120736056938767" lon="-3.377599529922009">
        <ele>653.353271484375</ele>
        <time>2011-04-25T18:16:13Z</time>
      </trkpt>
      <trkpt lat="39.124144222587347" lon="-3.377728275954723">
        <ele>651.9111328125</ele>
        <time>2011-04-25T18:16:25Z</time>
      </trkpt>
      <trkpt lat="39.126763064414263" lon="-3.377988031134009">
        <ele>651.430419921875</ele>
        <time>2011-04-25T18:16:34Z</time>
      </trkpt>
      <trkpt lat="39.12935852073133" lon="-3.378728488460183">
        <ele>649.5078125</ele>
        <time>2011-04-25T18:16:43Z</time>
      </trkpt>
      <trkpt lat="39.133618120104074" lon="-3.380327085033059">
        <ele>650.46923828125</ele>
        <time>2011-04-25T18:16:58Z</time>
      </trkpt>
      <trkpt lat="39.139020591974258" lon="-3.382367240265012">
        <ele>648.54638671875</ele>
        <time>2011-04-25T18:17:17Z</time>
      </trkpt>
      <trkpt lat="39.142794795334339" lon="-3.38379543274641">
        <ele>650.94970703125</ele>
        <time>2011-04-25T18:17:31Z</time>
      </trkpt>
      <trkpt lat="39.145821332931519" lon="-3.384967055171728">
        <ele>650.46923828125</ele>
        <time>2011-04-25T18:17:42Z</time>
      </trkpt>
      <trkpt lat="39.150230549275875" lon="-3.386611668393016">
        <ele>648.54638671875</ele>
        <time>2011-04-25T18:17:58Z</time>
      </trkpt>
      <trkpt lat="39.154423177242279" lon="-3.388179754838347">
        <ele>647.585205078125</ele>
        <time>2011-04-25T18:18:13Z</time>
      </trkpt>
      <trkpt lat="39.158970527350903" lon="-3.38987248018384">
        <ele>647.585205078125</ele>
        <time>2011-04-25T18:18:29Z</time>
      </trkpt>
      <trkpt lat="39.162558149546385" lon="-3.391199167817831">
        <ele>648.06591796875</ele>
        <time>2011-04-25T18:18:42Z</time>
      </trkpt>
      <trkpt lat="39.16699661873281" lon="-3.392864735797048">
        <ele>647.585205078125</ele>
        <time>2011-04-25T18:18:58Z</time>
      </trkpt>
      <trkpt lat="39.171203831210732" lon="-3.394473139196634">
        <ele>644.701171875</ele>
        <time>2011-04-25T18:19:13Z</time>
      </trkpt>
      <trkpt lat="39.174894634634256" lon="-3.395888591185212">
        <ele>646.143310546875</ele>
        <time>2011-04-25T18:19:26Z</time>
      </trkpt>
      <trkpt lat="39.178445041179657" lon="-3.397234054282308">
        <ele>648.54638671875</ele>
        <time>2011-04-25T18:19:39Z</time>
      </trkpt>
      <trkpt lat="39.183449959382415" lon="-3.399080755189061">
        <ele>647.1044921875</ele>
        <time>2011-04-25T18:19:57Z</time>
      </trkpt>
      <trkpt lat="39.187567988410592" lon="-3.400606429204345">
        <ele>646.143310546875</ele>
        <time>2011-04-25T18:20:12Z</time>
      </trkpt>
      <trkpt lat="39.192515490576625" lon="-3.402475928887725">
        <ele>646.6240234375</ele>
        <time>2011-04-25T18:20:30Z</time>
      </trkpt>
      <trkpt lat="39.19698815792799" lon="-3.404183238744736">
        <ele>647.585205078125</ele>
        <time>2011-04-25T18:20:46Z</time>
      </trkpt>
      <trkpt lat="39.200827656313777" lon="-3.405830869451165">
        <ele>643.25927734375</ele>
        <time>2011-04-25T18:21:00Z</time>
      </trkpt>
      <trkpt lat="39.20460244640708" lon="-3.4074592217803">
        <ele>645.181884765625</ele>
        <time>2011-04-25T18:21:14Z</time>
      </trkpt>
      <trkpt lat="39.208660461008549" lon="-3.40921145863831">
        <ele>644.220703125</ele>
        <time>2011-04-25T18:21:29Z</time>
      </trkpt>
      <trkpt lat="39.211839465424418" lon="-3.410582989454269">
        <ele>643.739990234375</ele>
        <time>2011-04-25T18:21:41Z</time>
      </trkpt>
      <trkpt lat="39.216323951259255" lon="-3.412547120824456">
        <ele>642.77880859375</ele>
        <time>2011-04-25T18:21:58Z</time>
      </trkpt>
      <trkpt lat="39.219134068116546" lon="-3.413534425199032">
        <ele>641.336669921875</ele>
        <time>2011-04-25T18:22:08Z</time>
      </trkpt>
      <trkpt lat="39.220919329673052" lon="-3.413647161796689">
        <ele>641.336669921875</ele>
        <time>2011-04-25T18:22:14Z</time>
      </trkpt>
      <trkpt lat="39.22272764146328" lon="-3.413250027224422">
        <ele>640.37548828125</ele>
        <time>2011-04-25T18:22:20Z</time>
      </trkpt>
      <trkpt lat="39.224488930776715" lon="-3.412444945424795">
        <ele>639.894775390625</ele>
        <time>2011-04-25T18:22:26Z</time>
      </trkpt>
      <trkpt lat="39.226719019934535" lon="-3.411321435123682">
        <ele>639.894775390625</ele>
        <time>2011-04-25T18:22:34Z</time>
      </trkpt>
      <trkpt lat="39.228363381698728" lon="-3.410861855372787">
        <ele>639.4140625</ele>
        <time>2011-04-25T18:22:40Z</time>
      </trkpt>
      <trkpt lat="39.23004194162786" lon="-3.410806450992823">
        <ele>638.93359375</ele>
        <time>2011-04-25T18:22:46Z</time>
      </trkpt>
      <trkpt lat="39.232939481735229" lon="-3.411156227812171">
        <ele>634.607421875</ele>
        <time>2011-04-25T18:22:56Z</time>
      </trkpt>
      <trkpt lat="39.238047329708934" lon="-3.411842286586762">
        <ele>630.76220703125</ele>
        <time>2011-04-25T18:23:13Z</time>
      </trkpt>
      <trkpt lat="39.24011112190783" lon="-3.412392977625132">
        <ele>627.397705078125</ele>
        <time>2011-04-25T18:23:20Z</time>
      </trkpt>
      <trkpt lat="39.241675939410925" lon="-3.413310376927257">
        <ele>625.474853515625</ele>
        <time>2011-04-25T18:23:26Z</time>
      </trkpt>
      <trkpt lat="39.242848483845592" lon="-3.414392732083798">
        <ele>624.994384765625</ele>
        <time>2011-04-25T18:23:31Z</time>
      </trkpt>
      <trkpt lat="39.244048018008471" lon="-3.416049750521779">
        <ele>623.552490234375</ele>
        <time>2011-04-25T18:23:37Z</time>
      </trkpt>
      <trkpt lat="39.244960388168693" lon="-3.418050091713667">
        <ele>622.591064453125</ele>
        <time>2011-04-25T18:23:43Z</time>
      </trkpt>
      <trkpt lat="39.245498841628432" lon="-3.420198457315564">
        <ele>622.591064453125</ele>
        <time>2011-04-25T18:23:49Z</time>
      </trkpt>
      <trkpt lat="39.245941489934921" lon="-3.423404032364488">
        <ele>621.629638671875</ele>
        <time>2011-04-25T18:23:58Z</time>
      </trkpt>
      <trkpt lat="39.24644717015326" lon="-3.42590494081378">
        <ele>621.629638671875</ele>
        <time>2011-04-25T18:24:05Z</time>
      </trkpt>
      <trkpt lat="39.247096264734864" lon="-3.427604036405683">
        <ele>622.1103515625</ele>
        <time>2011-04-25T18:24:10Z</time>
      </trkpt>
      <trkpt lat="39.247993044555187" lon="-3.429126860573888">
        <ele>622.1103515625</ele>
        <time>2011-04-25T18:24:15Z</time>
      </trkpt>
      <trkpt lat="39.24910431727767" lon="-3.430419182404876">
        <ele>622.1103515625</ele>
        <time>2011-04-25T18:24:20Z</time>
      </trkpt>
      <trkpt lat="39.250620771199465" lon="-3.431599941104651">
        <ele>621.629638671875</ele>
        <time>2011-04-25T18:24:26Z</time>
      </trkpt>
      <trkpt lat="39.253704221919179" lon="-3.433553259819746">
        <ele>622.1103515625</ele>
        <time>2011-04-25T18:24:38Z</time>
      </trkpt>
      <trkpt lat="39.257630556821823" lon="-3.436041846871376">
        <ele>624.513671875</ele>
        <time>2011-04-25T18:24:53Z</time>
      </trkpt>
      <trkpt lat="39.261808767914772" lon="-3.438697066158056">
        <ele>634.126708984375</ele>
        <time>2011-04-25T18:25:09Z</time>
      </trkpt>
      <trkpt lat="39.266288056969643" lon="-3.441565437242389">
        <ele>637.97216796875</ele>
        <time>2011-04-25T18:25:26Z</time>
      </trkpt>
      <trkpt lat="39.268856775015593" lon="-3.44316964969039">
        <ele>638.93359375</ele>
        <time>2011-04-25T18:25:36Z</time>
      </trkpt>
      <trkpt lat="39.272189252078533" lon="-3.445359338074923">
        <ele>641.8173828125</ele>
        <time>2011-04-25T18:25:49Z</time>
      </trkpt>
      <trkpt lat="39.276333684101701" lon="-3.448040038347244">
        <ele>644.701171875</ele>
        <time>2011-04-25T18:26:05Z</time>
      </trkpt>
      <trkpt lat="39.280230347067118" lon="-3.450489146634936">
        <ele>640.85595703125</ele>
        <time>2011-04-25T18:26:20Z</time>
      </trkpt>
      <trkpt lat="39.285333333536983" lon="-3.45376898534596">
        <ele>647.1044921875</ele>
        <time>2011-04-25T18:26:40Z</time>
      </trkpt>
      <trkpt lat="39.289467791095376" lon="-3.456427892670035">
        <ele>654.314697265625</ele>
        <time>2011-04-25T18:26:56Z</time>
      </trkpt>
      <trkpt lat="39.293452966958284" lon="-3.459060899913311">
        <ele>655.756591796875</ele>
        <time>2011-04-25T18:27:11Z</time>
      </trkpt>
      <trkpt lat="39.296200638636947" lon="-3.460890585556626">
        <ele>658.159912109375</ele>
        <time>2011-04-25T18:27:22Z</time>
      </trkpt>
      <trkpt lat="39.299254082143307" lon="-3.462957143783569">
        <ele>661.043701171875</ele>
        <time>2011-04-25T18:27:34Z</time>
      </trkpt>
      <trkpt lat="39.302913034334779" lon="-3.465348416939378">
        <ele>664.888916015625</ele>
        <time>2011-04-25T18:27:48Z</time>
      </trkpt>
      <trkpt lat="39.307789960876107" lon="-3.46855734474957">
        <ele>668.734375</ele>
        <time>2011-04-25T18:28:07Z</time>
      </trkpt>
      <trkpt lat="39.309138944372535" lon="-3.469164278358221">
        <ele>670.17626953125</ele>
        <time>2011-04-25T18:28:12Z</time>
      </trkpt>
      <trkpt lat="39.310563448816538" lon="-3.469389248639345">
        <ele>670.656982421875</ele>
        <time>2011-04-25T18:28:17Z</time>
      </trkpt>
      <trkpt lat="39.312013769522309" lon="-3.469223622232676">
        <ele>670.17626953125</ele>
        <time>2011-04-25T18:28:22Z</time>
      </trkpt>
      <trkpt lat="39.314021989703178" lon="-3.468648372218013">
        <ele>670.656982421875</ele>
        <time>2011-04-25T18:28:29Z</time>
      </trkpt>
      <trkpt lat="39.315218171104789" lon="-3.46866337582469">
        <ele>669.215087890625</ele>
        <time>2011-04-25T18:28:33Z</time>
      </trkpt>
      <trkpt lat="39.31635576300323" lon="-3.469068221747875">
        <ele>668.253662109375</ele>
        <time>2011-04-25T18:28:37Z</time>
      </trkpt>
      <trkpt lat="39.317360837012529" lon="-3.469828963279724">
        <ele>668.253662109375</ele>
        <time>2011-04-25T18:28:41Z</time>
      </trkpt>
      <trkpt lat="39.318174216896296" lon="-3.470878293737769">
        <ele>669.215087890625</ele>
        <time>2011-04-25T18:28:45Z</time>
      </trkpt>
      <trkpt lat="39.319197479635477" lon="-3.472669338807464">
        <ele>671.6181640625</ele>
        <time>2011-04-25T18:28:51Z</time>
      </trkpt>
      <trkpt lat="39.3202462233603" lon="-3.473879937082529">
        <ele>673.541015625</ele>
        <time>2011-04-25T18:28:56Z</time>
      </trkpt>
      <trkpt lat="39.321408877149224" lon="-3.474748386070132">
        <ele>674.502197265625</ele>
        <time>2011-04-25T18:29:01Z</time>
      </trkpt>
      <trkpt lat="39.322891719639301" lon="-3.476054957136512">
        <ele>674.98291015625</ele>
        <time>2011-04-25T18:29:08Z</time>
      </trkpt>
      <trkpt lat="39.324462153017521" lon="-3.477534530684352">
        <ele>676.4248046875</ele>
        <time>2011-04-25T18:29:15Z</time>
      </trkpt>
      <trkpt lat="39.32579604908824" lon="-3.478200891986489">
        <ele>678.347412109375</ele>
        <time>2011-04-25T18:29:20Z</time>
      </trkpt>
      <trkpt lat="39.326961720362306" lon="-3.478378588333726">
        <ele>679.30859375</ele>
        <time>2011-04-25T18:29:24Z</time>
      </trkpt>
      <trkpt lat="39.32844003662467" lon="-3.478164682164788">
        <ele>681.7119140625</ele>
        <time>2011-04-25T18:29:29Z</time>
      </trkpt>
      <trkpt lat="39.330196967348456" lon="-3.478048928081989">
        <ele>686.0380859375</ele>
        <time>2011-04-25T18:29:35Z</time>
      </trkpt>
      <trkpt lat="39.331307569518685" lon="-3.478443128988147">
        <ele>686.518798828125</ele>
        <time>2011-04-25T18:29:39Z</time>
      </trkpt>
      <trkpt lat="39.332321276888251" lon="-3.479217616841197">
        <ele>684.115478515625</ele>
        <time>2011-04-25T18:29:43Z</time>
      </trkpt>
      <trkpt lat="39.333150582388043" lon="-3.480267953127623">
        <ele>683.634521484375</ele>
        <time>2011-04-25T18:29:47Z</time>
      </trkpt>
      <trkpt lat="39.334167474880815" lon="-3.481990098953247">
        <ele>685.076904296875</ele>
        <time>2011-04-25T18:29:53Z</time>
      </trkpt>
      <trkpt lat="39.335170453414321" lon="-3.483247719705105">
        <ele>686.0380859375</ele>
        <time>2011-04-25T18:29:58Z</time>
      </trkpt>
      <trkpt lat="39.336385577917099" lon="-3.484228486195207">
        <ele>687.47998046875</ele>
        <time>2011-04-25T18:30:03Z</time>
      </trkpt>
      <trkpt lat="39.337751157581806" lon="-3.484890069812536">
        <ele>687.960693359375</ele>
        <time>2011-04-25T18:30:08Z</time>
      </trkpt>
      <trkpt lat="39.339226456359029" lon="-3.485201960429549">
        <ele>687.960693359375</ele>
        <time>2011-04-25T18:30:13Z</time>
      </trkpt>
      <trkpt lat="39.342574859037995" lon="-3.485720716416836">
        <ele>688.44140625</ele>
        <time>2011-04-25T18:30:24Z</time>
      </trkpt>
      <trkpt lat="39.345892164856195" lon="-3.486564019694924">
        <ele>690.364013671875</ele>
        <time>2011-04-25T18:30:35Z</time>
      </trkpt>
      <trkpt lat="39.350069453939795" lon="-3.487586444243789">
        <ele>693.247802734375</ele>
        <time>2011-04-25T18:30:49Z</time>
      </trkpt>
      <trkpt lat="39.353227922692895" lon="-3.488249452784658">
        <ele>693.728515625</ele>
        <time>2011-04-25T18:31:00Z</time>
      </trkpt>
      <trkpt lat="39.357245787978172" lon="-3.489159476011992">
        <ele>695.651123046875</ele>
        <time>2011-04-25T18:31:14Z</time>
      </trkpt>
      <trkpt lat="39.361553499475121" lon="-3.490230850875378">
        <ele>701.419189453125</ele>
        <time>2011-04-25T18:31:29Z</time>
      </trkpt>
      <trkpt lat="39.364863345399499" lon="-3.491052445024252">
        <ele>709.59033203125</ele>
        <time>2011-04-25T18:31:41Z</time>
      </trkpt>
      <trkpt lat="39.367024367675185" lon="-3.491831375285983">
        <ele>710.551513671875</ele>
        <time>2011-04-25T18:31:49Z</time>
      </trkpt>
      <trkpt lat="39.370364472270012" lon="-3.493182454258204">
        <ele>707.18701171875</ele>
        <time>2011-04-25T18:32:01Z</time>
      </trkpt>
      <trkpt lat="39.374604290351272" lon="-3.494897726923227">
        <ele>703.341796875</ele>
        <time>2011-04-25T18:32:16Z</time>
      </trkpt>
      <trkpt lat="39.379089698195457" lon="-3.496714839711785">
        <ele>699.97705078125</ele>
        <time>2011-04-25T18:32:32Z</time>
      </trkpt>
      <trkpt lat="39.383562784641981" lon="-3.498518038541079">
        <ele>700.4580078125</ele>
        <time>2011-04-25T18:32:48Z</time>
      </trkpt>
      <trkpt lat="39.388352120295167" lon="-3.50046087987721">
        <ele>699.496337890625</ele>
        <time>2011-04-25T18:33:05Z</time>
      </trkpt>
      <trkpt lat="39.392985384911299" lon="-3.502331133931875">
        <ele>700.4580078125</ele>
        <time>2011-04-25T18:33:21Z</time>
      </trkpt>
      <trkpt lat="39.398009330034256" lon="-3.504373887553811">
        <ele>700.9384765625</ele>
        <time>2011-04-25T18:33:38Z</time>
      </trkpt>
      <trkpt lat="39.401638023555279" lon="-3.505845749750733">
        <ele>699.015625</ele>
        <time>2011-04-25T18:33:51Z</time>
      </trkpt>
      <trkpt lat="39.406054951250553" lon="-3.507666382938623">
        <ele>698.054443359375</ele>
        <time>2011-04-25T18:34:07Z</time>
      </trkpt>
      <trkpt lat="39.410237520933151" lon="-3.509360030293465">
        <ele>699.015625</ele>
        <time>2011-04-25T18:34:22Z</time>
      </trkpt>
      <trkpt lat="39.414224373176694" lon="-3.510944880545139">
        <ele>697.57373046875</ele>
        <time>2011-04-25T18:34:36Z</time>
      </trkpt>
      <trkpt lat="39.418981270864606" lon="-3.512872634455562">
        <ele>698.054443359375</ele>
        <time>2011-04-25T18:34:53Z</time>
      </trkpt>
      <trkpt lat="39.425611775368452" lon="-3.515567583963275">
        <ele>698.534912109375</ele>
        <time>2011-04-25T18:35:17Z</time>
      </trkpt>
      <trkpt lat="39.430162645876408" lon="-3.517413530498743">
        <ele>694.209228515625</ele>
        <time>2011-04-25T18:35:33Z</time>
      </trkpt>
      <trkpt lat="39.434949131682515" lon="-3.51938989944756">
        <ele>695.651123046875</ele>
        <time>2011-04-25T18:35:50Z</time>
      </trkpt>
      <trkpt lat="39.437882294878364" lon="-3.520895540714264">
        <ele>699.496337890625</ele>
        <time>2011-04-25T18:36:01Z</time>
      </trkpt>
      <trkpt lat="39.441874427720904" lon="-3.523194948211312">
        <ele>695.651123046875</ele>
        <time>2011-04-25T18:36:16Z</time>
      </trkpt>
      <trkpt lat="39.445049241185188" lon="-3.525015916675329">
        <ele>686.0380859375</ele>
        <time>2011-04-25T18:36:27Z</time>
      </trkpt>
      <trkpt lat="39.447619467973709" lon="-3.526337072253227">
        <ele>683.15380859375</ele>
        <time>2011-04-25T18:36:36Z</time>
      </trkpt>
      <trkpt lat="39.449015473946929" lon="-3.526647370308638">
        <ele>686.518798828125</ele>
        <time>2011-04-25T18:36:41Z</time>
      </trkpt>
      <trkpt lat="39.450642317533493" lon="-3.526546116918325">
        <ele>688.44140625</ele>
        <time>2011-04-25T18:36:47Z</time>
      </trkpt>
      <trkpt lat="39.451973363757133" lon="-3.52607287466526">
        <ele>688.922119140625</ele>
        <time>2011-04-25T18:36:52Z</time>
      </trkpt>
      <trkpt lat="39.453282784670591" lon="-3.525244491174817">
        <ele>686.999267578125</ele>
        <time>2011-04-25T18:36:57Z</time>
      </trkpt>
      <trkpt lat="39.456232879310846" lon="-3.523024963214994">
        <ele>683.634521484375</ele>
        <time>2011-04-25T18:37:08Z</time>
      </trkpt>
      <trkpt lat="39.460149323567748" lon="-3.520084675401449">
        <ele>683.15380859375</ele>
        <time>2011-04-25T18:37:23Z</time>
      </trkpt>
      <trkpt lat="39.46314032189548" lon="-3.517899261787534">
        <ele>683.15380859375</ele>
        <time>2011-04-25T18:37:35Z</time>
      </trkpt>
      <trkpt lat="39.464748976752162" lon="-3.517170371487737">
        <ele>683.15380859375</ele>
        <time>2011-04-25T18:37:41Z</time>
      </trkpt>
      <trkpt lat="39.466356793418527" lon="-3.51692914031446">
        <ele>685.076904296875</ele>
        <time>2011-04-25T18:37:47Z</time>
      </trkpt>
      <trkpt lat="39.46790442802012" lon="-3.517120163887739">
        <ele>685.557373046875</ele>
        <time>2011-04-25T18:37:53Z</time>
      </trkpt>
      <trkpt lat="39.469471927732229" lon="-3.517758864909411">
        <ele>684.115478515625</ele>
        <time>2011-04-25T18:37:59Z</time>
      </trkpt>
      <trkpt lat="39.472092026844621" lon="-3.51921446621418">
        <ele>683.634521484375</ele>
        <time>2011-04-25T18:38:09Z</time>
      </trkpt>
      <trkpt lat="39.474819162860513" lon="-3.520750617608428">
        <ele>687.47998046875</ele>
        <time>2011-04-25T18:38:19Z</time>
      </trkpt>
      <trkpt lat="39.479404650628567" lon="-3.523361161351204">
        <ele>695.651123046875</ele>
        <time>2011-04-25T18:38:36Z</time>
      </trkpt>
      <trkpt lat="39.482187358662486" lon="-3.524803854525089">
        <ele>697.093017578125</ele>
        <time>2011-04-25T18:38:46Z</time>
      </trkpt>
      <trkpt lat="39.483960131183267" lon="-3.525172658264637">
        <ele>698.534912109375</ele>
        <time>2011-04-25T18:38:52Z</time>
      </trkpt>
      <trkpt lat="39.487162521108985" lon="-3.525575827807188">
        <ele>699.97705078125</ele>
        <time>2011-04-25T18:39:03Z</time>
      </trkpt>
      <trkpt lat="39.490923648700118" lon="-3.526065163314343">
        <ele>700.9384765625</ele>
        <time>2011-04-25T18:39:16Z</time>
      </trkpt>
      <trkpt lat="39.493755893781781" lon="-3.526619877666235">
        <ele>701.89990234375</ele>
        <time>2011-04-25T18:39:26Z</time>
      </trkpt>
      <trkpt lat="39.497689688578248" lon="-3.527521435171366">
        <ele>700.4580078125</ele>
        <time>2011-04-25T18:39:40Z</time>
      </trkpt>
      <trkpt lat="39.499119725078344" lon="-3.527445998042822">
        <ele>701.419189453125</ele>
        <time>2011-04-25T18:39:45Z</time>
      </trkpt>
      <trkpt lat="39.502217676490545" lon="-3.526826072484255">
        <ele>703.341796875</ele>
        <time>2011-04-25T18:39:56Z</time>
      </trkpt>
      <trkpt lat="39.506808528676629" lon="-3.525906493887305">
        <ele>703.822509765625</ele>
        <time>2011-04-25T18:40:12Z</time>
      </trkpt>
      <trkpt lat="39.512245031073689" lon="-3.524852050468326">
        <ele>703.822509765625</ele>
        <time>2011-04-25T18:40:31Z</time>
      </trkpt>
      <trkpt lat="39.515951760113239" lon="-3.52415643632412">
        <ele>702.861083984375</ele>
        <time>2011-04-25T18:40:44Z</time>
      </trkpt>
      <trkpt lat="39.521333863958716" lon="-3.523097634315491">
        <ele>703.341796875</ele>
        <time>2011-04-25T18:41:03Z</time>
      </trkpt>
      <trkpt lat="39.524159235879779" lon="-3.522384585812688">
        <ele>705.7451171875</ele>
        <time>2011-04-25T18:41:13Z</time>
      </trkpt>
      <trkpt lat="39.52783084474504" lon="-3.521651588380337">
        <ele>711.512939453125</ele>
        <time>2011-04-25T18:41:26Z</time>
      </trkpt>
      <trkpt lat="39.532951768487692" lon="-3.520682556554675">
        <ele>715.358154296875</ele>
        <time>2011-04-25T18:41:44Z</time>
      </trkpt>
      <trkpt lat="39.536697557196021" lon="-3.520005466416478">
        <ele>706.2255859375</ele>
        <time>2011-04-25T18:41:57Z</time>
      </trkpt>
      <trkpt lat="39.540685247629881" lon="-3.519282778725028">
        <ele>695.651123046875</ele>
        <time>2011-04-25T18:42:11Z</time>
      </trkpt>
      <trkpt lat="39.545712377876043" lon="-3.518370073288679">
        <ele>704.78369140625</ele>
        <time>2011-04-25T18:42:29Z</time>
      </trkpt>
      <trkpt lat="39.549170332029462" lon="-3.517735060304403">
        <ele>704.30322265625</ele>
        <time>2011-04-25T18:42:41Z</time>
      </trkpt>
      <trkpt lat="39.553725896403193" lon="-3.516879854723811">
        <ele>706.2255859375</ele>
        <time>2011-04-25T18:42:57Z</time>
      </trkpt>
      <trkpt lat="39.5570825971663" lon="-3.516258671879768">
        <ele>706.706298828125</ele>
        <time>2011-04-25T18:43:09Z</time>
      </trkpt>
      <trkpt lat="39.56101312302053" lon="-3.515555346384645">
        <ele>706.706298828125</ele>
        <time>2011-04-25T18:43:23Z</time>
      </trkpt>
      <trkpt lat="39.565036771818995" lon="-3.514860654249787">
        <ele>707.667724609375</ele>
        <time>2011-04-25T18:43:37Z</time>
      </trkpt>
      <trkpt lat="39.569892156869173" lon="-3.513991953805089">
        <ele>708.1484375</ele>
        <time>2011-04-25T18:43:54Z</time>
      </trkpt>
      <trkpt lat="39.57151816226542" lon="-3.51401592604816">
        <ele>707.667724609375</ele>
        <time>2011-04-25T18:44:00Z</time>
      </trkpt>
      <trkpt lat="39.573376597836614" lon="-3.514481792226434">
        <ele>705.264404296875</ele>
        <time>2011-04-25T18:44:07Z</time>
      </trkpt>
      <trkpt lat="39.576193587854505" lon="-3.515452751889825">
        <ele>699.496337890625</ele>
        <time>2011-04-25T18:44:17Z</time>
      </trkpt>
      <trkpt lat="39.58023089915514" lon="-3.516853116452694">
        <ele>703.822509765625</ele>
        <time>2011-04-25T18:44:31Z</time>
      </trkpt>
      <trkpt lat="39.585551647469401" lon="-3.518654387444258">
        <ele>711.0322265625</ele>
        <time>2011-04-25T18:44:50Z</time>
      </trkpt>
      <trkpt lat="39.590545920655131" lon="-3.520341580733657">
        <ele>715.8388671875</ele>
        <time>2011-04-25T18:45:08Z</time>
      </trkpt>
      <trkpt lat="39.595816545188427" lon="-3.522171182557941">
        <ele>718.722900390625</ele>
        <time>2011-04-25T18:45:27Z</time>
      </trkpt>
      <trkpt lat="39.599712872877717" lon="-3.52371764369309">
        <ele>716.319580078125</ele>
        <time>2011-04-25T18:45:41Z</time>
      </trkpt>
      <trkpt lat="39.603215418756008" lon="-3.525059251114726">
        <ele>714.396728515625</ele>
        <time>2011-04-25T18:45:54Z</time>
      </trkpt>
      <trkpt lat="39.604644449427724" lon="-3.525302326306701">
        <ele>710.551513671875</ele>
        <time>2011-04-25T18:45:59Z</time>
      </trkpt>
      <trkpt lat="39.60608228109777" lon="-3.525088084861636">
        <ele>711.0322265625</ele>
        <time>2011-04-25T18:46:04Z</time>
      </trkpt>
      <trkpt lat="39.608556618914008" lon="-3.52454049512744">
        <ele>710.551513671875</ele>
        <time>2011-04-25T18:46:13Z</time>
      </trkpt>
      <trkpt lat="39.610908916220069" lon="-3.524007573723793">
        <ele>710.07080078125</ele>
        <time>2011-04-25T18:46:21Z</time>
      </trkpt>
      <trkpt lat="39.615035662427545" lon="-3.523012641817331">
        <ele>709.109619140625</ele>
        <time>2011-04-25T18:46:35Z</time>
      </trkpt>
      <trkpt lat="39.619275564327836" lon="-3.52205341681838">
        <ele>708.62890625</ele>
        <time>2011-04-25T18:46:50Z</time>
      </trkpt>
      <trkpt lat="39.625305254012346" lon="-3.520685154944658">
        <ele>709.109619140625</ele>
        <time>2011-04-25T18:47:11Z</time>
      </trkpt>
      <trkpt lat="39.629849754273891" lon="-3.519664574414492">
        <ele>709.109619140625</ele>
        <time>2011-04-25T18:47:27Z</time>
      </trkpt>
      <trkpt lat="39.634682843461633" lon="-3.518574591726065">
        <ele>709.109619140625</ele>
        <time>2011-04-25T18:47:44Z</time>
      </trkpt>
      <trkpt lat="39.640356469899416" lon="-3.517301548272371">
        <ele>709.109619140625</ele>
        <time>2011-04-25T18:48:04Z</time>
      </trkpt>
      <trkpt lat="39.646012242883444" lon="-3.516025990247726">
        <ele>709.59033203125</ele>
        <time>2011-04-25T18:48:24Z</time>
      </trkpt>
      <trkpt lat="39.651195276528597" lon="-3.514860318973661">
        <ele>710.07080078125</ele>
        <time>2011-04-25T18:48:42Z</time>
      </trkpt>
      <trkpt lat="39.655276341363788" lon="-3.513979632407427">
        <ele>710.551513671875</ele>
        <time>2011-04-25T18:48:56Z</time>
      </trkpt>
      <trkpt lat="39.658960523083806" lon="-3.513101125136018">
        <ele>709.59033203125</ele>
        <time>2011-04-25T18:49:09Z</time>
      </trkpt>
      <trkpt lat="39.663700321689248" lon="-3.512039892375469">
        <ele>709.109619140625</ele>
        <time>2011-04-25T18:49:26Z</time>
      </trkpt>
      <trkpt lat="39.668154045939445" lon="-3.510973798111081">
        <ele>708.1484375</ele>
        <time>2011-04-25T18:49:42Z</time>
      </trkpt>
      <trkpt lat="39.670152794569731" lon="-3.510222779586911">
        <ele>703.341796875</ele>
        <time>2011-04-25T18:49:50Z</time>
      </trkpt>
      <trkpt lat="39.673095680773258" lon="-3.509101532399654">
        <ele>684.59619140625</ele>
        <time>2011-04-25T18:50:02Z</time>
      </trkpt>
      <trkpt lat="39.677066523581743" lon="-3.507598824799061">
        <ele>668.253662109375</ele>
        <time>2011-04-25T18:50:17Z</time>
      </trkpt>
      <trkpt lat="39.681791234761477" lon="-3.505776347592473">
        <ele>659.12109375</ele>
        <time>2011-04-25T18:50:34Z</time>
      </trkpt>
      <trkpt lat="39.68307844363153" lon="-3.505025329068303">
        <ele>657.198486328125</ele>
        <time>2011-04-25T18:50:39Z</time>
      </trkpt>
      <trkpt lat="39.684468749910593" lon="-3.503699982538819">
        <ele>653.833984375</ele>
        <time>2011-04-25T18:50:45Z</time>
      </trkpt>
      <trkpt lat="39.687952687963843" lon="-3.50018628872931">
        <ele>648.06591796875</ele>
        <time>2011-04-25T18:51:00Z</time>
      </trkpt>
      <trkpt lat="39.69008051790297" lon="-3.498155688866973">
        <ele>646.143310546875</ele>
        <time>2011-04-25T18:51:09Z</time>
      </trkpt>
      <trkpt lat="39.691419443115592" lon="-3.49737323820591">
        <ele>644.220703125</ele>
        <time>2011-04-25T18:51:14Z</time>
      </trkpt>
      <trkpt lat="39.692850485444069" lon="-3.496954143047333">
        <ele>642.298095703125</ele>
        <time>2011-04-25T18:51:19Z</time>
      </trkpt>
      <trkpt lat="39.694331986829638" lon="-3.496980126947165">
        <ele>640.85595703125</ele>
        <time>2011-04-25T18:51:24Z</time>
      </trkpt>
      <trkpt lat="39.695795886218548" lon="-3.497354043647647">
        <ele>639.894775390625</ele>
        <time>2011-04-25T18:51:29Z</time>
      </trkpt>
      <trkpt lat="39.698061347007751" lon="-3.498316956683993">
        <ele>638.452880859375</ele>
        <time>2011-04-25T18:51:37Z</time>
      </trkpt>
      <trkpt lat="39.699820540845394" lon="-3.498607976362109">
        <ele>637.0107421875</ele>
        <time>2011-04-25T18:51:43Z</time>
      </trkpt>
      <trkpt lat="39.701593648642302" lon="-3.498441847041249">
        <ele>636.5302734375</ele>
        <time>2011-04-25T18:51:49Z</time>
      </trkpt>
      <trkpt lat="39.704121127724648" lon="-3.497771043330431">
        <ele>637.0107421875</ele>
        <time>2011-04-25T18:51:58Z</time>
      </trkpt>
      <trkpt lat="39.708283580839634" lon="-3.496676366776228">
        <ele>640.85595703125</ele>
        <time>2011-04-25T18:52:13Z</time>
      </trkpt>
      <trkpt lat="39.7129927854985" lon="-3.495460236445069">
        <ele>651.430419921875</ele>
        <time>2011-04-25T18:52:30Z</time>
      </trkpt>
      <trkpt lat="39.716811329126358" lon="-3.494520289823413">
        <ele>654.314697265625</ele>
        <time>2011-04-25T18:52:43Z</time>
      </trkpt>
      <trkpt lat="39.719019290059805" lon="-3.4939303714782">
        <ele>657.67919921875</ele>
        <time>2011-04-25T18:52:51Z</time>
      </trkpt>
      <trkpt lat="39.721826473250985" lon="-3.493244396522641">
        <ele>653.353271484375</ele>
        <time>2011-04-25T18:53:01Z</time>
      </trkpt>
      <trkpt lat="39.725503362715244" lon="-3.49228709936142">
        <ele>651.430419921875</ele>
        <time>2011-04-25T18:53:14Z</time>
      </trkpt>
      <trkpt lat="39.72919232212007" lon="-3.491368861868978">
        <ele>653.353271484375</ele>
        <time>2011-04-25T18:53:27Z</time>
      </trkpt>
      <trkpt lat="39.733644118532538" lon="-3.49018894135952">
        <ele>657.198486328125</ele>
        <time>2011-04-25T18:53:43Z</time>
      </trkpt>
      <trkpt lat="39.738811561837792" lon="-3.488861666992307">
        <ele>667.772705078125</ele>
        <time>2011-04-25T18:54:02Z</time>
      </trkpt>
      <trkpt lat="39.741611452773213" lon="-3.487968491390348">
        <ele>671.1376953125</ele>
        <time>2011-04-25T18:54:12Z</time>
      </trkpt>
      <trkpt lat="39.74530192092061" lon="-3.486697291955352">
        <ele>669.69580078125</ele>
        <time>2011-04-25T18:54:25Z</time>
      </trkpt>
      <trkpt lat="39.748929692432284" lon="-3.485442185774446">
        <ele>665.36962890625</ele>
        <time>2011-04-25T18:54:38Z</time>
      </trkpt>
      <trkpt lat="39.752731723710895" lon="-3.48412455059588">
        <ele>672.098876953125</ele>
        <time>2011-04-25T18:54:52Z</time>
      </trkpt>
      <trkpt lat="39.756438285112381" lon="-3.48282334394753">
        <ele>679.789306640625</ele>
        <time>2011-04-25T18:55:06Z</time>
      </trkpt>
      <trkpt lat="39.760568384081125" lon="-3.481425493955612">
        <ele>685.557373046875</ele>
        <time>2011-04-25T18:55:21Z</time>
      </trkpt>
      <trkpt lat="39.76253243163228" lon="-3.481073873117566">
        <ele>691.805908203125</ele>
        <time>2011-04-25T18:55:28Z</time>
      </trkpt>
      <trkpt lat="39.766803849488497" lon="-3.480365518480539">
        <ele>695.651123046875</ele>
        <time>2011-04-25T18:55:43Z</time>
      </trkpt>
      <trkpt lat="39.77186081930995" lon="-3.479518862441182">
        <ele>696.1318359375</ele>
        <time>2011-04-25T18:56:00Z</time>
      </trkpt>
      <trkpt lat="39.775641476735473" lon="-3.478961130604148">
        <ele>697.093017578125</ele>
        <time>2011-04-25T18:56:13Z</time>
      </trkpt>
      <trkpt lat="39.777605691924691" lon="-3.478996586054564">
        <ele>697.57373046875</ele>
        <time>2011-04-25T18:56:20Z</time>
      </trkpt>
      <trkpt lat="39.779218789190054" lon="-3.479483490809798">
        <ele>697.093017578125</ele>
        <time>2011-04-25T18:56:26Z</time>
      </trkpt>
      <trkpt lat="39.78076315484941" lon="-3.480422180145979">
        <ele>694.689697265625</ele>
        <time>2011-04-25T18:56:32Z</time>
      </trkpt>
      <trkpt lat="39.782737176865339" lon="-3.482021782547236">
        <ele>689.402587890625</ele>
        <time>2011-04-25T18:56:40Z</time>
      </trkpt>
      <trkpt lat="39.784365780651569" lon="-3.482938427478075">
        <ele>685.076904296875</ele>
        <time>2011-04-25T18:56:46Z</time>
      </trkpt>
      <trkpt lat="39.786069318652153" lon="-3.483416195958853">
        <ele>679.30859375</ele>
        <time>2011-04-25T18:56:52Z</time>
      </trkpt>
      <trkpt lat="39.787791464477777" lon="-3.483442682772875">
        <ele>672.098876953125</ele>
        <time>2011-04-25T18:56:58Z</time>
      </trkpt>
      <trkpt lat="39.789506234228611" lon="-3.483010847121477">
        <ele>664.888916015625</ele>
        <time>2011-04-25T18:57:04Z</time>
      </trkpt>
      <trkpt lat="39.79252053424716" lon="-3.481792872771621">
        <ele>652.391845703125</ele>
        <time>2011-04-25T18:57:15Z</time>
      </trkpt>
      <trkpt lat="39.796260287985206" lon="-3.480353029444814">
        <ele>641.8173828125</ele>
        <time>2011-04-25T18:57:29Z</time>
      </trkpt>
      <trkpt lat="39.799290178343654" lon="-3.479295317083597">
        <ele>632.2041015625</ele>
        <time>2011-04-25T18:57:40Z</time>
      </trkpt>
      <trkpt lat="39.801320778205991" lon="-3.479023324325681">
        <ele>625.474853515625</ele>
        <time>2011-04-25T18:57:47Z</time>
      </trkpt>
      <trkpt lat="39.805385246872902" lon="-3.478669188916683">
        <ele>617.3037109375</ele>
        <time>2011-04-25T18:58:01Z</time>
      </trkpt>
      <trkpt lat="39.808316985145211" lon="-3.478552848100662">
        <ele>606.24853515625</ele>
        <time>2011-04-25T18:58:11Z</time>
      </trkpt>
      <trkpt lat="39.810261921957135" lon="-3.478901870548725">
        <ele>603.84521484375</ele>
        <time>2011-04-25T18:58:18Z</time>
      </trkpt>
      <trkpt lat="39.814004357904196" lon="-3.479653056710959">
        <ele>607.2099609375</ele>
        <time>2011-04-25T18:58:32Z</time>
      </trkpt>
      <trkpt lat="39.818800231441855" lon="-3.4806421212852">
        <ele>620.66845703125</ele>
        <time>2011-04-25T18:58:50Z</time>
      </trkpt>
      <trkpt lat="39.820022732019424" lon="-3.481276128441095">
        <ele>625.474853515625</ele>
        <time>2011-04-25T18:58:55Z</time>
      </trkpt>
      <trkpt lat="39.821593919768929" lon="-3.482571467757225">
        <ele>629.320068359375</ele>
        <time>2011-04-25T18:59:02Z</time>
      </trkpt>
      <trkpt lat="39.823949486017227" lon="-3.484319262206554">
        <ele>633.64599609375</ele>
        <time>2011-04-25T18:59:12Z</time>
      </trkpt>
      <trkpt lat="39.82528505846858" lon="-3.484600223600864">
        <ele>637.491455078125</ele>
        <time>2011-04-25T18:59:17Z</time>
      </trkpt>
      <trkpt lat="39.826652063056827" lon="-3.484405344352126">
        <ele>641.336669921875</ele>
        <time>2011-04-25T18:59:22Z</time>
      </trkpt>
      <trkpt lat="39.831591099500656" lon="-3.483564723283052">
        <ele>658.159912109375</ele>
        <time>2011-04-25T18:59:40Z</time>
      </trkpt>
      <trkpt lat="39.833141667768359" lon="-3.483115117996931">
        <ele>666.330810546875</ele>
        <time>2011-04-25T18:59:46Z</time>
      </trkpt>
      <trkpt lat="39.834247073158622" lon="-3.482266031205654">
        <ele>672.57958984375</ele>
        <time>2011-04-25T18:59:51Z</time>
      </trkpt>
      <trkpt lat="39.835146451368928" lon="-3.481032885611057">
        <ele>678.828125</ele>
        <time>2011-04-25T18:59:56Z</time>
      </trkpt>
      <trkpt lat="39.83623911626637" lon="-3.478665836155415">
        <ele>686.518798828125</ele>
        <time>2011-04-25T19:00:04Z</time>
      </trkpt>
      <trkpt lat="39.83779982663691" lon="-3.475798219442368">
        <ele>695.17041015625</ele>
        <time>2011-04-25T19:00:14Z</time>
      </trkpt>
      <trkpt lat="39.83890607021749" lon="-3.474712176248431">
        <ele>698.534912109375</ele>
        <time>2011-04-25T19:00:19Z</time>
      </trkpt>
      <trkpt lat="39.84020384028554" lon="-3.474033325910568">
        <ele>700.9384765625</ele>
        <time>2011-04-25T19:00:24Z</time>
      </trkpt>
      <trkpt lat="39.841896397992969" lon="-3.473632084205747">
        <ele>702.861083984375</ele>
        <time>2011-04-25T19:00:30Z</time>
      </trkpt>
      <trkpt lat="39.845912754535675" lon="-3.47274636849761">
        <ele>702.38037109375</ele>
        <time>2011-04-25T19:00:44Z</time>
      </trkpt>
      <trkpt lat="39.849286722019315" lon="-3.472024518996477">
        <ele>702.861083984375</ele>
        <time>2011-04-25T19:00:56Z</time>
      </trkpt>
      <trkpt lat="39.851527959108353" lon="-3.471905495971441">
        <ele>705.7451171875</ele>
        <time>2011-04-25T19:01:04Z</time>
      </trkpt>
      <trkpt lat="39.852899992838502" lon="-3.472088975831866">
        <ele>706.706298828125</ele>
        <time>2011-04-25T19:01:09Z</time>
      </trkpt>
      <trkpt lat="39.854388367384672" lon="-3.472728095948696">
        <ele>709.109619140625</ele>
        <time>2011-04-25T19:01:15Z</time>
      </trkpt>
      <trkpt lat="39.856254430487752" lon="-3.47391614690423">
        <ele>711.512939453125</ele>
        <time>2011-04-25T19:01:23Z</time>
      </trkpt>
      <trkpt lat="39.858021168038249" lon="-3.474756851792336">
        <ele>710.551513671875</ele>
        <time>2011-04-25T19:01:30Z</time>
      </trkpt>
      <trkpt lat="39.861307125538588" lon="-3.475936353206635">
        <ele>709.59033203125</ele>
        <time>2011-04-25T19:01:42Z</time>
      </trkpt>
      <trkpt lat="39.864677488803864" lon="-3.477138234302402">
        <ele>716.80029296875</ele>
        <time>2011-04-25T19:01:54Z</time>
      </trkpt>
      <trkpt lat="39.866389576345682" lon="-3.477382734417915">
        <ele>718.722900390625</ele>
        <time>2011-04-25T19:02:00Z</time>
      </trkpt>
      <trkpt lat="39.869056027382612" lon="-3.477339064702392">
        <ele>722.568115234375</ele>
        <time>2011-04-25T19:02:09Z</time>
      </trkpt>
      <trkpt lat="39.871996566653252" lon="-3.476753672584891">
        <ele>724.971435546875</ele>
        <time>2011-04-25T19:02:19Z</time>
      </trkpt>
      <trkpt lat="39.875179175287485" lon="-3.475948171690106">
        <ele>722.08740234375</ele>
        <time>2011-04-25T19:02:30Z</time>
      </trkpt>
      <trkpt lat="39.877315387129784" lon="-3.474757019430399">
        <ele>716.80029296875</ele>
        <time>2011-04-25T19:02:38Z</time>
      </trkpt>
      <trkpt lat="39.88183113746345" lon="-3.472238425165415">
        <ele>712.47412109375</ele>
        <time>2011-04-25T19:02:55Z</time>
      </trkpt>
      <trkpt lat="39.884827667847276" lon="-3.470752816647291">
        <ele>713.435546875</ele>
        <time>2011-04-25T19:03:06Z</time>
      </trkpt>
      <trkpt lat="39.886263655498624" lon="-3.470556093379855">
        <ele>714.396728515625</ele>
        <time>2011-04-25T19:03:11Z</time>
      </trkpt>
      <trkpt lat="39.88770249299705" lon="-3.470759270712733">
        <ele>714.87744140625</ele>
        <time>2011-04-25T19:03:16Z</time>
      </trkpt>
      <trkpt lat="39.889044938609004" lon="-3.471322869881988">
        <ele>716.319580078125</ele>
        <time>2011-04-25T19:03:21Z</time>
      </trkpt>
      <trkpt lat="39.891349878162146" lon="-3.472497258335352">
        <ele>720.164794921875</ele>
        <time>2011-04-25T19:03:30Z</time>
      </trkpt>
      <trkpt lat="39.892652845010161" lon="-3.472673026844859">
        <ele>722.568115234375</ele>
        <time>2011-04-25T19:03:35Z</time>
      </trkpt>
      <trkpt lat="39.897239338606596" lon="-3.47275709733367">
        <ele>725.451904296875</ele>
        <time>2011-04-25T19:03:52Z</time>
      </trkpt>
      <trkpt lat="39.900080636143684" lon="-3.472935548052192">
        <ele>720.164794921875</ele>
        <time>2011-04-25T19:04:02Z</time>
      </trkpt>
      <trkpt lat="39.902723031118512" lon="-3.473585145547986">
        <ele>720.6455078125</ele>
        <time>2011-04-25T19:04:11Z</time>
      </trkpt>
      <trkpt lat="39.906978774815798" lon="-3.474655598402023">
        <ele>724.49072265625</ele>
        <time>2011-04-25T19:04:26Z</time>
      </trkpt>
      <trkpt lat="39.911466278135777" lon="-3.475767374038696">
        <ele>727.374755859375</ele>
        <time>2011-04-25T19:04:42Z</time>
      </trkpt>
      <trkpt lat="39.914552578702569" lon="-3.476674128323793">
        <ele>730.7392578125</ele>
        <time>2011-04-25T19:04:53Z</time>
      </trkpt>
      <trkpt lat="39.918635068461299" lon="-3.478402644395828">
        <ele>732.181396484375</ele>
        <time>2011-04-25T19:05:08Z</time>
      </trkpt>
      <trkpt lat="39.92155322805047" lon="-3.479807954281569">
        <ele>736.026611328125</ele>
        <time>2011-04-25T19:05:19Z</time>
      </trkpt>
      <trkpt lat="39.924034355208278" lon="-3.481522472575307">
        <ele>734.584716796875</ele>
        <time>2011-04-25T19:05:29Z</time>
      </trkpt>
      <trkpt lat="39.926465442404151" lon="-3.482833653688431">
        <ele>732.181396484375</ele>
        <time>2011-04-25T19:05:38Z</time>
      </trkpt>
      <trkpt lat="39.93057576008141" lon="-3.485078159719706">
        <ele>733.623291015625</ele>
        <time>2011-04-25T19:05:53Z</time>
      </trkpt>
      <trkpt lat="39.934664787724614" lon="-3.48762801848352">
        <ele>734.584716796875</ele>
        <time>2011-04-25T19:06:08Z</time>
      </trkpt>
      <trkpt lat="39.937549168244004" lon="-3.489456949755549">
        <ele>736.98779296875</ele>
        <time>2011-04-25T19:06:19Z</time>
      </trkpt>
      <trkpt lat="39.940309580415487" lon="-3.491373639553785">
        <ele>735.0654296875</ele>
        <time>2011-04-25T19:06:30Z</time>
      </trkpt>
      <trkpt lat="39.942928422242403" lon="-3.493140963837504">
        <ele>732.181396484375</ele>
        <time>2011-04-25T19:06:40Z</time>
      </trkpt>
      <trkpt lat="39.944900516420603" lon="-3.494631266221404">
        <ele>732.181396484375</ele>
        <time>2011-04-25T19:06:48Z</time>
      </trkpt>
      <trkpt lat="39.946121592074633" lon="-3.496166579425335">
        <ele>731.700439453125</ele>
        <time>2011-04-25T19:06:54Z</time>
      </trkpt>
      <trkpt lat="39.948431896045804" lon="-3.499371986836195">
        <ele>731.700439453125</ele>
        <time>2011-04-25T19:07:06Z</time>
      </trkpt>
      <trkpt lat="39.949013264849782" lon="-3.500591050833464">
        <ele>731.219970703125</ele>
        <time>2011-04-25T19:07:10Z</time>
      </trkpt>
      <trkpt lat="39.950376162305474" lon="-3.504545632749796">
        <ele>729.77783203125</ele>
        <time>2011-04-25T19:07:22Z</time>
      </trkpt>
      <trkpt lat="39.951593298465014" lon="-3.508629631251097">
        <ele>729.77783203125</ele>
        <time>2011-04-25T19:07:34Z</time>
      </trkpt>
      <trkpt lat="39.951641075313091" lon="-3.510485384613276">
        <ele>729.297119140625</ele>
        <time>2011-04-25T19:07:39Z</time>
      </trkpt>
      <trkpt lat="39.951624646782875" lon="-3.515276145190001">
        <ele>726.413330078125</ele>
        <time>2011-04-25T19:07:52Z</time>
      </trkpt>
      <trkpt lat="39.951888341456652" lon="-3.517059395089746">
        <ele>721.606689453125</ele>
        <time>2011-04-25T19:07:57Z</time>
      </trkpt>
      <trkpt lat="39.952490832656622" lon="-3.518781792372465">
        <ele>713.916015625</ele>
        <time>2011-04-25T19:08:02Z</time>
      </trkpt>
      <trkpt lat="39.953400772064924" lon="-3.520324481651187">
        <ele>705.264404296875</ele>
        <time>2011-04-25T19:08:07Z</time>
      </trkpt>
      <trkpt lat="39.956323374062777" lon="-3.52467292919755">
        <ele>678.347412109375</ele>
        <time>2011-04-25T19:08:22Z</time>
      </trkpt>
      <trkpt lat="39.95794384740293" lon="-3.527111643925309">
        <ele>663.447021484375</ele>
        <time>2011-04-25T19:08:31Z</time>
      </trkpt>
      <trkpt lat="39.959879899397492" lon="-3.529971884563565">
        <ele>648.54638671875</ele>
        <time>2011-04-25T19:08:42Z</time>
      </trkpt>
      <trkpt lat="39.962821444496512" lon="-3.533944739028812">
        <ele>643.25927734375</ele>
        <time>2011-04-25T19:08:57Z</time>
      </trkpt>
      <trkpt lat="39.964970145374537" lon="-3.536981167271733">
        <ele>635.568603515625</ele>
        <time>2011-04-25T19:09:08Z</time>
      </trkpt>
      <trkpt lat="39.965848149731755" lon="-3.538920069113374">
        <ele>633.165283203125</ele>
        <time>2011-04-25T19:09:14Z</time>
      </trkpt>
      <trkpt lat="39.96819918975234" lon="-3.54458405636251">
        <ele>624.994384765625</ele>
        <time>2011-04-25T19:09:31Z</time>
      </trkpt>
      <trkpt lat="39.970398936420679" lon="-3.549793744459748">
        <ele>616.34228515625</ele>
        <time>2011-04-25T19:09:47Z</time>
      </trkpt>
      <trkpt lat="39.972531879320741" lon="-3.554751221090555">
        <ele>608.65185546875</ele>
        <time>2011-04-25T19:10:02Z</time>
      </trkpt>
      <trkpt lat="39.975272761657834" lon="-3.561216853559017">
        <ele>596.15478515625</ele>
        <time>2011-04-25T19:10:22Z</time>
      </trkpt>
      <trkpt lat="39.977531852200627" lon="-3.566453028470278">
        <ele>575.486328125</ele>
        <time>2011-04-25T19:10:38Z</time>
      </trkpt>
      <trkpt lat="39.979110918939114" lon="-3.570123966783285">
        <ele>561.54736328125</ele>
        <time>2011-04-25T19:10:50Z</time>
      </trkpt>
      <trkpt lat="39.980341298505664" lon="-3.572707939893007">
        <ele>552.895263671875</ele>
        <time>2011-04-25T19:10:59Z</time>
      </trkpt>
      <trkpt lat="39.981782231479883" lon="-3.575628362596035">
        <ele>542.3209228515625</ele>
        <time>2011-04-25T19:11:09Z</time>
      </trkpt>
      <trkpt lat="39.984540799632668" lon="-3.581114653497934">
        <ele>533.1883544921875</ele>
        <time>2011-04-25T19:11:27Z</time>
      </trkpt>
      <trkpt lat="39.986315919086337" lon="-3.584639998152852">
        <ele>533.6689453125</ele>
        <time>2011-04-25T19:11:39Z</time>
      </trkpt>
      <trkpt lat="39.988092882558703" lon="-3.588161068037152">
        <ele>525.9783935546875</ele>
        <time>2011-04-25T19:11:51Z</time>
      </trkpt>
      <trkpt lat="39.989563655108213" lon="-3.591100769117475">
        <ele>523.5751953125</ele>
        <time>2011-04-25T19:12:01Z</time>
      </trkpt>
      <trkpt lat="39.991634152829647" lon="-3.595214188098908">
        <ele>521.652587890625</ele>
        <time>2011-04-25T19:12:15Z</time>
      </trkpt>
      <trkpt lat="39.994310662150383" lon="-3.600539295002818">
        <ele>520.2105712890625</ele>
        <time>2011-04-25T19:12:33Z</time>
      </trkpt>
      <trkpt lat="39.995580436661839" lon="-3.60276997089386">
        <ele>519.7298583984375</ele>
        <time>2011-04-25T19:12:41Z</time>
      </trkpt>
      <trkpt lat="39.996666060760617" lon="-3.603832544758916">
        <ele>519.249267578125</ele>
        <time>2011-04-25T19:12:46Z</time>
      </trkpt>
      <trkpt lat="39.999385569244623" lon="-3.606136729940772">
        <ele>517.32666015625</ele>
        <time>2011-04-25T19:12:58Z</time>
      </trkpt>
      <trkpt lat="40.000971676781774" lon="-3.607812523841858">
        <ele>514.442626953125</ele>
        <time>2011-04-25T19:13:06Z</time>
      </trkpt>
      <trkpt lat="40.002628024667501" lon="-3.609625194221735">
        <ele>512.0394287109375</ele>
        <time>2011-04-25T19:13:14Z</time>
      </trkpt>
      <trkpt lat="40.005136895924807" lon="-3.611895516514778">
        <ele>513.000732421875</ele>
        <time>2011-04-25T19:13:25Z</time>
      </trkpt>
      <trkpt lat="40.00720052048564" lon="-3.613773733377457">
        <ele>509.1553955078125</ele>
        <time>2011-04-25T19:13:35Z</time>
      </trkpt>
      <trkpt lat="40.009193485602736" lon="-3.615663768723607">
        <ele>494.735595703125</ele>
        <time>2011-04-25T19:13:45Z</time>
      </trkpt>
      <trkpt lat="40.010046679526567" lon="-3.616897249594331">
        <ele>486.564453125</ele>
        <time>2011-04-25T19:13:50Z</time>
      </trkpt>
      <trkpt lat="40.010679429396987" lon="-3.618371794000268">
        <ele>477.431884765625</ele>
        <time>2011-04-25T19:13:55Z</time>
      </trkpt>
      <trkpt lat="40.011054687201977" lon="-3.620055885985494">
        <ele>471.183349609375</ele>
        <time>2011-04-25T19:14:00Z</time>
      </trkpt>
      <trkpt lat="40.01130354590714" lon="-3.622809844091535">
        <ele>464.4541015625</ele>
        <time>2011-04-25T19:14:08Z</time>
      </trkpt>
      <trkpt lat="40.011708978563547" lon="-3.627431960776448">
        <ele>447.6309814453125</ele>
        <time>2011-04-25T19:14:21Z</time>
      </trkpt>
      <trkpt lat="40.01207023859024" lon="-3.629096774384379">
        <ele>445.7083740234375</ele>
        <time>2011-04-25T19:14:26Z</time>
      </trkpt>
      <trkpt lat="40.012639872729778" lon="-3.6302181892097">
        <ele>446.1890869140625</ele>
        <time>2011-04-25T19:14:30Z</time>
      </trkpt>
      <trkpt lat="40.013630362227559" lon="-3.631288642063737">
        <ele>446.669677734375</ele>
        <time>2011-04-25T19:14:35Z</time>
      </trkpt>
      <trkpt lat="40.015208842232823" lon="-3.632492450997233">
        <ele>446.669677734375</ele>
        <time>2011-04-25T19:14:42Z</time>
      </trkpt>
      <trkpt lat="40.01619178801775" lon="-3.633604981005192">
        <ele>442.824462890625</ele>
        <time>2011-04-25T19:14:47Z</time>
      </trkpt>
      <trkpt lat="40.018124235793948" lon="-3.636194737628102">
        <ele>431.28857421875</ele>
        <time>2011-04-25T19:14:57Z</time>
      </trkpt>
      <trkpt lat="40.019101733341813" lon="-3.637976227328181">
        <ele>424.0787353515625</ele>
        <time>2011-04-25T19:15:03Z</time>
      </trkpt>
      <trkpt lat="40.019809752702713" lon="-3.639951422810555">
        <ele>421.19482421875</ele>
        <time>2011-04-25T19:15:09Z</time>
      </trkpt>
      <trkpt lat="40.021189833059907" lon="-3.644357370212674">
        <ele>406.77490234375</ele>
        <time>2011-04-25T19:15:22Z</time>
      </trkpt>
      <trkpt lat="40.022077392786741" lon="-3.646722827106714">
        <ele>395.7198486328125</ele>
        <time>2011-04-25T19:15:29Z</time>
      </trkpt>
      <trkpt lat="40.023152371868491" lon="-3.648441536352038">
        <ele>392.8359375</ele>
        <time>2011-04-25T19:15:35Z</time>
      </trkpt>
      <trkpt lat="40.024276720359921" lon="-3.650585962459445">
        <ele>390.4326171875</ele>
        <time>2011-04-25T19:15:42Z</time>
      </trkpt>
      <trkpt lat="40.025783954188228" lon="-3.653649128973484">
        <ele>388.029296875</ele>
        <time>2011-04-25T19:15:52Z</time>
      </trkpt>
      <trkpt lat="40.026793386787176" lon="-3.654928961768746">
        <ele>388.029296875</ele>
        <time>2011-04-25T19:15:57Z</time>
      </trkpt>
      <trkpt lat="40.027996525168419" lon="-3.655930599197745">
        <ele>387.0679931640625</ele>
        <time>2011-04-25T19:16:02Z</time>
      </trkpt>
      <trkpt lat="40.031795119866729" lon="-3.658659579232335">
        <ele>396.68115234375</ele>
        <time>2011-04-25T19:16:17Z</time>
      </trkpt>
      <trkpt lat="40.033653890714049" lon="-3.660129681229591">
        <ele>401.48779296875</ele>
        <time>2011-04-25T19:16:25Z</time>
      </trkpt>
      <trkpt lat="40.035283081233501" lon="-3.66136827506125">
        <ele>405.3330078125</ele>
        <time>2011-04-25T19:16:32Z</time>
      </trkpt>
      <trkpt lat="40.036850664764643" lon="-3.661962887272239">
        <ele>411.5816650390625</ele>
        <time>2011-04-25T19:16:38Z</time>
      </trkpt>
      <trkpt lat="40.040075685828924" lon="-3.663002662360668">
        <ele>425.0401611328125</ele>
        <time>2011-04-25T19:16:50Z</time>
      </trkpt>
      <trkpt lat="40.041166925802827" lon="-3.66295387968421">
        <ele>433.2113037109375</ele>
        <time>2011-04-25T19:16:54Z</time>
      </trkpt>
      <trkpt lat="40.042479280382395" lon="-3.662395477294922">
        <ele>442.824462890625</ele>
        <time>2011-04-25T19:16:59Z</time>
      </trkpt>
      <trkpt lat="40.045363828539848" lon="-3.660687580704689">
        <ele>461.5701904296875</ele>
        <time>2011-04-25T19:17:10Z</time>
      </trkpt>
      <trkpt lat="40.047408929094672" lon="-3.65935318171978">
        <ele>473.586669921875</ele>
        <time>2011-04-25T19:17:18Z</time>
      </trkpt>
      <trkpt lat="40.049155717715621" lon="-3.657556688413024">
        <ele>479.3544921875</ele>
        <time>2011-04-25T19:17:26Z</time>
      </trkpt>
      <trkpt lat="40.051877573132515" lon="-3.654981935396791">
        <ele>485.60302734375</ele>
        <time>2011-04-25T19:17:38Z</time>
      </trkpt>
      <trkpt lat="40.055096140131354" lon="-3.652721084654331">
        <ele>494.2550048828125</ele>
        <time>2011-04-25T19:17:51Z</time>
      </trkpt>
      <trkpt lat="40.058503886684775" lon="-3.650292595848441">
        <ele>496.177734375</ele>
        <time>2011-04-25T19:18:05Z</time>
      </trkpt>
      <trkpt lat="40.060306331142783" lon="-3.649260280653834">
        <ele>496.177734375</ele>
        <time>2011-04-25T19:18:12Z</time>
      </trkpt>
      <trkpt lat="40.062194773927331" lon="-3.648673379793763">
        <ele>496.177734375</ele>
        <time>2011-04-25T19:18:19Z</time>
      </trkpt>
      <trkpt lat="40.06459585390985" lon="-3.647794621065259">
        <ele>496.6583251953125</ele>
        <time>2011-04-25T19:18:28Z</time>
      </trkpt>
      <trkpt lat="40.066123958677053" lon="-3.646794492378831">
        <ele>498.100341796875</ele>
        <time>2011-04-25T19:18:34Z</time>
      </trkpt>
      <trkpt lat="40.06799278780818" lon="-3.645107634365559">
        <ele>499.0615234375</ele>
        <time>2011-04-25T19:18:42Z</time>
      </trkpt>
      <trkpt lat="40.069562885910273" lon="-3.643779354169965">
        <ele>500.02294921875</ele>
        <time>2011-04-25T19:18:49Z</time>
      </trkpt>
      <trkpt lat="40.07149918936193" lon="-3.642682749778032">
        <ele>500.5035400390625</ele>
        <time>2011-04-25T19:18:57Z</time>
      </trkpt>
      <trkpt lat="40.074652042239904" lon="-3.640904864296317">
        <ele>502.4261474609375</ele>
        <time>2011-04-25T19:19:10Z</time>
      </trkpt>
      <trkpt lat="40.076924795284867" lon="-3.639446664601564">
        <ele>501.945556640625</ele>
        <time>2011-04-25T19:19:20Z</time>
      </trkpt>
      <trkpt lat="40.079127727076411" lon="-3.638103129342198">
        <ele>500.02294921875</ele>
        <time>2011-04-25T19:19:30Z</time>
      </trkpt>
      <trkpt lat="40.080681564286351" lon="-3.637616392225027">
        <ele>496.177734375</ele>
        <time>2011-04-25T19:19:36Z</time>
      </trkpt>
      <trkpt lat="40.082888184115291" lon="-3.63745428621769">
        <ele>496.6583251953125</ele>
        <time>2011-04-25T19:19:44Z</time>
      </trkpt>
      <trkpt lat="40.08509187027812" lon="-3.637145664542913">
        <ele>501.945556640625</ele>
        <time>2011-04-25T19:19:52Z</time>
      </trkpt>
      <trkpt lat="40.086414786055684" lon="-3.63651174120605">
        <ele>503.8681640625</ele>
        <time>2011-04-25T19:19:57Z</time>
      </trkpt>
      <trkpt lat="40.088740345090628" lon="-3.634908450767398">
        <ele>505.7908935546875</ele>
        <time>2011-04-25T19:20:06Z</time>
      </trkpt>
      <trkpt lat="40.090678995475173" lon="-3.633865490555763">
        <ele>507.7135009765625</ele>
        <time>2011-04-25T19:20:13Z</time>
      </trkpt>
      <trkpt lat="40.091885235160589" lon="-3.633758286014199">
        <ele>506.7520751953125</ele>
        <time>2011-04-25T19:20:17Z</time>
      </trkpt>
      <trkpt lat="40.094185899943113" lon="-3.633749233558774">
        <ele>506.7520751953125</ele>
        <time>2011-04-25T19:20:25Z</time>
      </trkpt>
      <trkpt lat="40.095496578142047" lon="-3.633376574143767">
        <ele>513.000732421875</ele>
        <time>2011-04-25T19:20:30Z</time>
      </trkpt>
      <trkpt lat="40.097565148025751" lon="-3.632854884490371">
        <ele>529.3431396484375</ele>
        <time>2011-04-25T19:20:38Z</time>
      </trkpt>
      <trkpt lat="40.098590757697821" lon="-3.633007183670998">
        <ele>536.5531005859375</ele>
        <time>2011-04-25T19:20:42Z</time>
      </trkpt>
      <trkpt lat="40.099791632965207" lon="-3.633674886077642">
        <ele>546.6468505859375</ele>
        <time>2011-04-25T19:20:47Z</time>
      </trkpt>
      <trkpt lat="40.100777428597212" lon="-3.634800994768739">
        <ele>554.81787109375</ele>
        <time>2011-04-25T19:20:52Z</time>
      </trkpt>
      <trkpt lat="40.101333148777485" lon="-3.635971862822771">
        <ele>562.9892578125</ele>
        <time>2011-04-25T19:20:56Z</time>
      </trkpt>
      <trkpt lat="40.101737827062607" lon="-3.637626953423023">
        <ele>571.160400390625</ele>
        <time>2011-04-25T19:21:01Z</time>
      </trkpt>
      <trkpt lat="40.102313160896301" lon="-3.640242023393512">
        <ele>584.618896484375</ele>
        <time>2011-04-25T19:21:09Z</time>
      </trkpt>
      <trkpt lat="40.103149423375726" lon="-3.642221493646503">
        <ele>594.232177734375</ele>
        <time>2011-04-25T19:21:16Z</time>
      </trkpt>
      <trkpt lat="40.104392962530255" lon="-3.64457949064672">
        <ele>601.44189453125</ele>
        <time>2011-04-25T19:21:25Z</time>
      </trkpt>
      <trkpt lat="40.105469785630703" lon="-3.645841469988227">
        <ele>604.326171875</ele>
        <time>2011-04-25T19:21:31Z</time>
      </trkpt>
      <trkpt lat="40.106763364747167" lon="-3.646829947829247">
        <ele>606.24853515625</ele>
        <time>2011-04-25T19:21:37Z</time>
      </trkpt>
      <trkpt lat="40.10917198844254" lon="-3.648219332098961">
        <ele>604.806640625</ele>
        <time>2011-04-25T19:21:47Z</time>
      </trkpt>
      <trkpt lat="40.113068735226989" lon="-3.650415055453777">
        <ele>603.364501953125</ele>
        <time>2011-04-25T19:22:03Z</time>
      </trkpt>
      <trkpt lat="40.116437589749694" lon="-3.652386981993914">
        <ele>607.2099609375</ele>
        <time>2011-04-25T19:22:17Z</time>
      </trkpt>
      <trkpt lat="40.118914777413011" lon="-3.653822299093008">
        <ele>610.574462890625</ele>
        <time>2011-04-25T19:22:27Z</time>
      </trkpt>
      <trkpt lat="40.122052039951086" lon="-3.655484681949019">
        <ele>615.86181640625</ele>
        <time>2011-04-25T19:22:40Z</time>
      </trkpt>
      <trkpt lat="40.123671926558018" lon="-3.655839990824461">
        <ele>613.93896484375</ele>
        <time>2011-04-25T19:22:46Z</time>
      </trkpt>
      <trkpt lat="40.126627050340176" lon="-3.65622203797102">
        <ele>618.264892578125</ele>
        <time>2011-04-25T19:22:57Z</time>
      </trkpt>
      <trkpt lat="40.130515331402421" lon="-3.65674682892859">
        <ele>621.149169921875</ele>
        <time>2011-04-25T19:23:11Z</time>
      </trkpt>
      <trkpt lat="40.134692033752799" lon="-3.65730338729918">
        <ele>626.9169921875</ele>
        <time>2011-04-25T19:23:26Z</time>
      </trkpt>
      <trkpt lat="40.138049488887191" lon="-3.657670179381967">
        <ele>624.513671875</ele>
        <time>2011-04-25T19:23:39Z</time>
      </trkpt>
      <trkpt lat="40.141521440818906" lon="-3.658048873767257">
        <ele>626.436279296875</ele>
        <time>2011-04-25T19:23:53Z</time>
      </trkpt>
      <trkpt lat="40.144855342805386" lon="-3.658449780195952">
        <ele>627.397705078125</ele>
        <time>2011-04-25T19:24:06Z</time>
      </trkpt>
      <trkpt lat="40.14792756177485" lon="-3.658782541751862">
        <ele>625.474853515625</ele>
        <time>2011-04-25T19:24:18Z</time>
      </trkpt>
      <trkpt lat="40.151381576433778" lon="-3.659119745716453">
        <ele>628.839599609375</ele>
        <time>2011-04-25T19:24:31Z</time>
      </trkpt>
      <trkpt lat="40.156572740525007" lon="-3.659750567749143">
        <ele>632.684814453125</ele>
        <time>2011-04-25T19:24:50Z</time>
      </trkpt>
      <trkpt lat="40.158379292115569" lon="-3.660413324832916">
        <ele>630.76220703125</ele>
        <time>2011-04-25T19:24:57Z</time>
      </trkpt>
      <trkpt lat="40.162512324750423" lon="-3.662112252786756">
        <ele>624.032958984375</ele>
        <time>2011-04-25T19:25:13Z</time>
      </trkpt>
      <trkpt lat="40.166169265285134" lon="-3.66362476721406">
        <ele>623.07177734375</ele>
        <time>2011-04-25T19:25:27Z</time>
      </trkpt>
      <trkpt lat="40.169546836987138" lon="-3.665007026866078">
        <ele>622.591064453125</ele>
        <time>2011-04-25T19:25:40Z</time>
      </trkpt>
      <trkpt lat="40.173676684498787" lon="-3.666687179356813">
        <ele>625.95556640625</ele>
        <time>2011-04-25T19:25:56Z</time>
      </trkpt>
      <trkpt lat="40.17790543846786" lon="-3.668414689600468">
        <ele>619.226318359375</ele>
        <time>2011-04-25T19:26:13Z</time>
      </trkpt>
      <trkpt lat="40.181569419801235" lon="-3.669890994206071">
        <ele>612.0166015625</ele>
        <time>2011-04-25T19:26:27Z</time>
      </trkpt>
      <trkpt lat="40.185943683609366" lon="-3.671657396480441">
        <ele>608.17138671875</ele>
        <time>2011-04-25T19:26:44Z</time>
      </trkpt>
      <trkpt lat="40.18784562125802" lon="-3.672204734757543">
        <ele>599.519287109375</ele>
        <time>2011-04-25T19:26:51Z</time>
      </trkpt>
      <trkpt lat="40.189258893951774" lon="-3.672187132760882">
        <ele>597.5966796875</ele>
        <time>2011-04-25T19:26:56Z</time>
      </trkpt>
      <trkpt lat="40.191206345334649" lon="-3.672063751146197">
        <ele>599.03857421875</ele>
        <time>2011-04-25T19:27:03Z</time>
      </trkpt>
      <trkpt lat="40.192523477599025" lon="-3.67254763841629">
        <ele>602.8837890625</ele>
        <time>2011-04-25T19:27:08Z</time>
      </trkpt>
      <trkpt lat="40.193458646535873" lon="-3.673300920054317">
        <ele>606.24853515625</ele>
        <time>2011-04-25T19:27:12Z</time>
      </trkpt>
      <trkpt lat="40.194664718583226" lon="-3.674637330695987">
        <ele>610.09375</ele>
        <time>2011-04-25T19:27:18Z</time>
      </trkpt>
      <trkpt lat="40.195943294093013" lon="-3.675681967288256">
        <ele>612.977783203125</ele>
        <time>2011-04-25T19:27:24Z</time>
      </trkpt>
      <trkpt lat="40.197578771039844" lon="-3.676445139572024">
        <ele>612.977783203125</ele>
        <time>2011-04-25T19:27:31Z</time>
      </trkpt>
      <trkpt lat="40.201297737658024" lon="-3.677922617644072">
        <ele>616.34228515625</ele>
        <time>2011-04-25T19:27:46Z</time>
      </trkpt>
      <trkpt lat="40.205281153321266" lon="-3.679537894204259">
        <ele>617.3037109375</ele>
        <time>2011-04-25T19:28:02Z</time>
      </trkpt>
      <trkpt lat="40.20883365534246" lon="-3.680986538529396">
        <ele>623.07177734375</ele>
        <time>2011-04-25T19:28:16Z</time>
      </trkpt>
      <trkpt lat="40.211932193487883" lon="-3.6822400521487">
        <ele>625.474853515625</ele>
        <time>2011-04-25T19:28:29Z</time>
      </trkpt>
      <trkpt lat="40.214288430288434" lon="-3.68319584056735">
        <ele>625.95556640625</ele>
        <time>2011-04-25T19:28:40Z</time>
      </trkpt>
      <trkpt lat="40.217672120779753" lon="-3.684544153511524">
        <ele>627.397705078125</ele>
        <time>2011-04-25T19:28:55Z</time>
      </trkpt>
      <trkpt lat="40.220887586474419" lon="-3.685822393745184">
        <ele>627.878173828125</ele>
        <time>2011-04-25T19:29:09Z</time>
      </trkpt>
      <trkpt lat="40.223511876538396" lon="-3.686930146068335">
        <ele>630.76220703125</ele>
        <time>2011-04-25T19:29:20Z</time>
      </trkpt>
      <trkpt lat="40.227625798434019" lon="-3.688609460368753">
        <ele>635.088134765625</ele>
        <time>2011-04-25T19:29:37Z</time>
      </trkpt>
      <trkpt lat="40.229835938662291" lon="-3.689277330413461">
        <ele>635.568603515625</ele>
        <time>2011-04-25T19:29:46Z</time>
      </trkpt>
      <trkpt lat="40.231634778901935" lon="-3.689389061182737">
        <ele>633.64599609375</ele>
        <time>2011-04-25T19:29:53Z</time>
      </trkpt>
      <trkpt lat="40.234529385343194" lon="-3.689495595172048">
        <ele>627.878173828125</ele>
        <time>2011-04-25T19:30:04Z</time>
      </trkpt>
      <trkpt lat="40.237375292927027" lon="-3.689592825248838">
        <ele>623.552490234375</ele>
        <time>2011-04-25T19:30:15Z</time>
      </trkpt>
      <trkpt lat="40.240707769989967" lon="-3.689631130546331">
        <ele>618.74560546875</ele>
        <time>2011-04-25T19:30:28Z</time>
      </trkpt>
      <trkpt lat="40.244006467983127" lon="-3.689703717827797">
        <ele>615.381103515625</ele>
        <time>2011-04-25T19:30:41Z</time>
      </trkpt>
      <trkpt lat="40.247594173997641" lon="-3.689809078350663">
        <ele>611.535888671875</ele>
        <time>2011-04-25T19:30:55Z</time>
      </trkpt>
      <trkpt lat="40.251041818410158" lon="-3.689908990636468">
        <ele>602.8837890625</ele>
        <time>2011-04-25T19:31:08Z</time>
      </trkpt>
      <trkpt lat="40.2554517891258" lon="-3.69003807194531">
        <ele>599.519287109375</ele>
        <time>2011-04-25T19:31:25Z</time>
      </trkpt>
      <trkpt lat="40.258990377187729" lon="-3.690144270658493">
        <ele>598.077392578125</ele>
        <time>2011-04-25T19:31:39Z</time>
      </trkpt>
      <trkpt lat="40.261655151844025" lon="-3.690227838233113">
        <ele>597.5966796875</ele>
        <time>2011-04-25T19:31:50Z</time>
      </trkpt>
      <trkpt lat="40.265460284426808" lon="-3.690383741632104">
        <ele>602.403076171875</ele>
        <time>2011-04-25T19:32:05Z</time>
      </trkpt>
      <trkpt lat="40.269299279898405" lon="-3.690518438816071">
        <ele>599.519287109375</ele>
        <time>2011-04-25T19:32:20Z</time>
      </trkpt>
      <trkpt lat="40.272207045927644" lon="-3.690556827932596">
        <ele>595.674072265625</ele>
        <time>2011-04-25T19:32:31Z</time>
      </trkpt>
      <trkpt lat="40.275590233504772" lon="-3.690657494589686">
        <ele>606.729248046875</ele>
        <time>2011-04-25T19:32:44Z</time>
      </trkpt>
      <trkpt lat="40.27878331951797" lon="-3.690755730494857">
        <ele>599.03857421875</ele>
        <time>2011-04-25T19:32:56Z</time>
      </trkpt>
      <trkpt lat="40.281122289597988" lon="-3.690825216472149">
        <ele>600.961181640625</ele>
        <time>2011-04-25T19:33:05Z</time>
      </trkpt>
      <trkpt lat="40.284521989524364" lon="-3.690935773774982">
        <ele>600.480712890625</ele>
        <time>2011-04-25T19:33:19Z</time>
      </trkpt>
      <trkpt lat="40.287920432165265" lon="-3.691010121256113">
        <ele>600.480712890625</ele>
        <time>2011-04-25T19:33:34Z</time>
      </trkpt>
      <trkpt lat="40.290171727538109" lon="-3.690894534811378">
        <ele>599.519287109375</ele>
        <time>2011-04-25T19:33:44Z</time>
      </trkpt>
      <trkpt lat="40.292227640748024" lon="-3.690936779603362">
        <ele>600</ele>
        <time>2011-04-25T19:33:53Z</time>
      </trkpt>
      <trkpt lat="40.294089931994677" lon="-3.691035686060786">
        <ele>601.922607421875</ele>
        <time>2011-04-25T19:34:02Z</time>
      </trkpt>
      <trkpt lat="40.295449644327164" lon="-3.691057898104191">
        <ele>601.922607421875</ele>
        <time>2011-04-25T19:34:10Z</time>
      </trkpt>
      <trkpt lat="40.295992372557521" lon="-3.691032668575645">
        <ele>602.8837890625</ele>
        <time>2011-04-25T19:34:15Z</time>
      </trkpt>
      <trkpt lat="40.296309879049659" lon="-3.691013138741255">
        <ele>603.84521484375</ele>
        <time>2011-04-25T19:34:22Z</time>
      </trkpt>
      <trkpt lat="40.296397218480706" lon="-3.69107885286212">
        <ele>604.806640625</ele>
        <time>2011-04-25T19:35:39Z</time>
      </trkpt>
      <trkpt lat="40.296832239255309" lon="-3.691026298329234">
        <ele>606.24853515625</ele>
        <time>2011-04-25T19:35:46Z</time>
      </trkpt>
      <trkpt lat="40.296984622254968" lon="-3.691033339127898">
        <ele>606.729248046875</ele>
        <time>2011-04-25T19:35:48Z</time>
      </trkpt>
      <trkpt lat="40.297308247536421" lon="-3.691145991906524">
        <ele>607.690673828125</ele>
        <time>2011-04-25T19:35:52Z</time>
      </trkpt>
      <trkpt lat="40.29810905456543" lon="-3.691266439855099">
        <ele>607.690673828125</ele>
        <time>2011-04-25T19:35:59Z</time>
      </trkpt>
      <trkpt lat="40.29921043664217" lon="-3.691330058500171">
        <ele>607.690673828125</ele>
        <time>2011-04-25T19:36:06Z</time>
      </trkpt>
      <trkpt lat="40.300602419301867" lon="-3.691423516720533">
        <ele>608.17138671875</ele>
        <time>2011-04-25T19:36:13Z</time>
      </trkpt>
      <trkpt lat="40.303088156506419" lon="-3.691507084295154">
        <ele>612.977783203125</ele>
        <time>2011-04-25T19:36:24Z</time>
      </trkpt>
      <trkpt lat="40.306081166490912" lon="-3.691607918590307">
        <ele>619.70703125</ele>
        <time>2011-04-25T19:36:37Z</time>
      </trkpt>
      <trkpt lat="40.310280080884695" lon="-3.691751416772604">
        <ele>618.264892578125</ele>
        <time>2011-04-25T19:36:55Z</time>
      </trkpt>
      <trkpt lat="40.314195854589343" lon="-3.691857028752565">
        <ele>619.226318359375</ele>
        <time>2011-04-25T19:37:11Z</time>
      </trkpt>
      <trkpt lat="40.319015197455883" lon="-3.69200186803937">
        <ele>615.86181640625</ele>
        <time>2011-04-25T19:37:30Z</time>
      </trkpt>
      <trkpt lat="40.321199940517545" lon="-3.691927855834365">
        <ele>614.900390625</ele>
        <time>2011-04-25T19:37:39Z</time>
      </trkpt>
      <trkpt lat="40.323565062135458" lon="-3.691321928054094">
        <ele>611.535888671875</ele>
        <time>2011-04-25T19:37:49Z</time>
      </trkpt>
      <trkpt lat="40.325864721089602" lon="-3.690422968938947">
        <ele>607.2099609375</ele>
        <time>2011-04-25T19:37:59Z</time>
      </trkpt>
      <trkpt lat="40.32714681699872" lon="-3.689523339271545">
        <ele>603.84521484375</ele>
        <time>2011-04-25T19:38:05Z</time>
      </trkpt>
      <trkpt lat="40.328700989484787" lon="-3.687965059652925">
        <ele>598.077392578125</ele>
        <time>2011-04-25T19:38:13Z</time>
      </trkpt>
      <trkpt lat="40.330086937174201" lon="-3.686047196388245">
        <ele>592.3095703125</ele>
        <time>2011-04-25T19:38:21Z</time>
      </trkpt>
      <trkpt lat="40.331208435818553" lon="-3.683858346194029">
        <ele>587.02197265625</ele>
        <time>2011-04-25T19:38:29Z</time>
      </trkpt>
      <trkpt lat="40.332403276115656" lon="-3.680931637063623">
        <ele>584.13818359375</ele>
        <time>2011-04-25T19:38:39Z</time>
      </trkpt>
      <trkpt lat="40.333563666790724" lon="-3.678777990862727">
        <ele>580.773681640625</ele>
        <time>2011-04-25T19:38:47Z</time>
      </trkpt>
      <trkpt lat="40.334954643622041" lon="-3.676932882517576">
        <ele>577.8896484375</ele>
        <time>2011-04-25T19:38:55Z</time>
      </trkpt>
      <trkpt lat="40.336510743945837" lon="-3.675399161875248">
        <ele>575.486328125</ele>
        <time>2011-04-25T19:39:03Z</time>
      </trkpt>
      <trkpt lat="40.338371023535728" lon="-3.674079347401857">
        <ele>573.56396484375</ele>
        <time>2011-04-25T19:39:12Z</time>
      </trkpt>
      <trkpt lat="40.340165421366692" lon="-3.673228919506073">
        <ele>574.04443359375</ele>
        <time>2011-04-25T19:39:20Z</time>
      </trkpt>
      <trkpt lat="40.341982785612345" lon="-3.672722987830639">
        <ele>578.370361328125</ele>
        <time>2011-04-25T19:39:28Z</time>
      </trkpt>
      <trkpt lat="40.344006177037954" lon="-3.672546884045005">
        <ele>583.657470703125</ele>
        <time>2011-04-25T19:39:37Z</time>
      </trkpt>
      <trkpt lat="40.346268955618143" lon="-3.672812674194574">
        <ele>583.1767578125</ele>
        <time>2011-04-25T19:39:47Z</time>
      </trkpt>
      <trkpt lat="40.348342470824718" lon="-3.673518346622586">
        <ele>576.928466796875</ele>
        <time>2011-04-25T19:39:56Z</time>
      </trkpt>
      <trkpt lat="40.350382626056671" lon="-3.674623584374785">
        <ele>569.23779296875</ele>
        <time>2011-04-25T19:40:05Z</time>
      </trkpt>
      <trkpt lat="40.352478018030524" lon="-3.676111372187734">
        <ele>566.353759765625</ele>
        <time>2011-04-25T19:40:15Z</time>
      </trkpt>
      <trkpt lat="40.353479655459523" lon="-3.677334627136588">
        <ele>567.315185546875</ele>
        <time>2011-04-25T19:40:21Z</time>
      </trkpt>
      <trkpt lat="40.3544997330755" lon="-3.678521253168583">
        <ele>568.2763671875</ele>
        <time>2011-04-25T19:40:27Z</time>
      </trkpt>
      <trkpt lat="40.355547973886132" lon="-3.679148554801941">
        <ele>569.23779296875</ele>
        <time>2011-04-25T19:40:32Z</time>
      </trkpt>
      <trkpt lat="40.356706771999598" lon="-3.679331950843334">
        <ele>569.23779296875</ele>
        <time>2011-04-25T19:40:37Z</time>
      </trkpt>
      <trkpt lat="40.358076291158795" lon="-3.678990555927157">
        <ele>569.718505859375</ele>
        <time>2011-04-25T19:40:43Z</time>
      </trkpt>
      <trkpt lat="40.359315220266581" lon="-3.678211458027363">
        <ele>571.640869140625</ele>
        <time>2011-04-25T19:40:49Z</time>
      </trkpt>
      <trkpt lat="40.360429426655173" lon="-3.677578959614039">
        <ele>573.56396484375</ele>
        <time>2011-04-25T19:40:55Z</time>
      </trkpt>
      <trkpt lat="40.361384125426412" lon="-3.677503690123558">
        <ele>573.083251953125</ele>
        <time>2011-04-25T19:41:00Z</time>
      </trkpt>
      <trkpt lat="40.362761188298464" lon="-3.677889341488481">
        <ele>576.44775390625</ele>
        <time>2011-04-25T19:41:07Z</time>
      </trkpt>
      <trkpt lat="40.364149147644639" lon="-3.67801389656961">
        <ele>582.6962890625</ele>
        <time>2011-04-25T19:41:14Z</time>
      </trkpt>
      <trkpt lat="40.366448974236846" lon="-3.678142474964261">
        <ele>585.099609375</ele>
        <time>2011-04-25T19:41:25Z</time>
      </trkpt>
      <trkpt lat="40.368587616831064" lon="-3.678428716957569">
        <ele>580.773681640625</ele>
        <time>2011-04-25T19:41:35Z</time>
      </trkpt>
      <trkpt lat="40.370397437363863" lon="-3.679020060226321">
        <ele>577.4091796875</ele>
        <time>2011-04-25T19:41:43Z</time>
      </trkpt>
      <trkpt lat="40.372143974527717" lon="-3.679953720420599">
        <ele>578.370361328125</ele>
        <time>2011-04-25T19:41:51Z</time>
      </trkpt>
      <trkpt lat="40.373765621334314" lon="-3.6812090780586">
        <ele>578.85107421875</ele>
        <time>2011-04-25T19:41:59Z</time>
      </trkpt>
      <trkpt lat="40.376331489533186" lon="-3.68348116055131">
        <ele>573.083251953125</ele>
        <time>2011-04-25T19:42:12Z</time>
      </trkpt>
      <trkpt lat="40.378612037748098" lon="-3.685306739062071">
        <ele>575.486328125</ele>
        <time>2011-04-25T19:42:23Z</time>
      </trkpt>
      <trkpt lat="40.380824273452163" lon="-3.686769381165505">
        <ele>581.73486328125</ele>
        <time>2011-04-25T19:42:34Z</time>
      </trkpt>
      <trkpt lat="40.381853738799691" lon="-3.68756071664393">
        <ele>585.099609375</ele>
        <time>2011-04-25T19:42:40Z</time>
      </trkpt>
      <trkpt lat="40.382488165050745" lon="-3.688506865873933">
        <ele>584.13818359375</ele>
        <time>2011-04-25T19:42:45Z</time>
      </trkpt>
      <trkpt lat="40.38354822434485" lon="-3.690788084641099">
        <ele>575.005859375</ele>
        <time>2011-04-25T19:42:55Z</time>
      </trkpt>
      <trkpt lat="40.384632255882025" lon="-3.692267490550876">
        <ele>573.083251953125</ele>
        <time>2011-04-25T19:43:02Z</time>
      </trkpt>
      <trkpt lat="40.386592950671911" lon="-3.694670163094997">
        <ele>574.525146484375</ele>
        <time>2011-04-25T19:43:15Z</time>
      </trkpt>
      <trkpt lat="40.388316521421075" lon="-3.696715766564012">
        <ele>566.353759765625</ele>
        <time>2011-04-25T19:43:28Z</time>
      </trkpt>
      <trkpt lat="40.391425956040621" lon="-3.699909020215273">
        <ele>557.221435546875</ele>
        <time>2011-04-25T19:43:47Z</time>
      </trkpt>
      <trkpt lat="40.391323864459991" lon="-3.699694694951177">
        <ele>568.2763671875</ele>
        <time>2011-04-25T19:43:52Z</time>
      </trkpt>
      <trkpt lat="40.391227891668677" lon="-3.69975982233882">
        <ele>568.2763671875</ele>
        <time>2011-04-25T19:44:04Z</time>
      </trkpt>
      <trkpt lat="40.394705291837454" lon="-3.703461270779371">
        <ele>538.956298828125</ele>
        <time>2011-04-25T19:44:14Z</time>
      </trkpt>
      <trkpt lat="40.394966723397374" lon="-3.703817836940289">
        <ele>570.198974609375</ele>
        <time>2011-04-25T19:44:21Z</time>
      </trkpt>
      <trkpt lat="40.394877791404724" lon="-3.703724127262831">
        <ele>573.56396484375</ele>
        <time>2011-04-25T19:44:49Z</time>
      </trkpt>
      <trkpt lat="40.394947277382016" lon="-3.704249337315559">
        <ele>631.242919921875</ele>
        <time>2011-04-25T19:45:26Z</time>
      </trkpt>
      <trkpt lat="40.400700448080897" lon="-3.720814744010568">
        <ele>579.812255859375</ele>
        <time>2011-04-25T19:45:51Z</time>
      </trkpt>
      <trkpt lat="40.400803461670876" lon="-3.720954470336437">
        <ele>580.773681640625</ele>
        <time>2011-04-25T19:45:52Z</time>
      </trkpt>
      <trkpt lat="40.401728320866823" lon="-3.722183257341385">
        <ele>583.657470703125</ele>
        <time>2011-04-25T19:46:01Z</time>
      </trkpt>
      <trkpt lat="40.403387099504471" lon="-3.722155764698982">
        <ele>576.44775390625</ele>
        <time>2011-04-25T19:46:11Z</time>
      </trkpt>
      <trkpt lat="40.404627956449986" lon="-3.722338071092963">
        <ele>572.121826171875</ele>
        <time>2011-04-25T19:46:20Z</time>
      </trkpt>
      <trkpt lat="40.406293356791139" lon="-3.7223638035357">
        <ele>565.873291015625</ele>
        <time>2011-04-25T19:46:29Z</time>
      </trkpt>
      <trkpt lat="40.410278867930174" lon="-3.721529887989163">
        <ele>563.950439453125</ele>
        <time>2011-04-25T19:46:44Z</time>
      </trkpt>
      <trkpt lat="40.41052152402699" lon="-3.721473645418882">
        <ele>575.486328125</ele>
        <time>2011-04-25T19:46:56Z</time>
      </trkpt>
      <trkpt lat="40.411722734570503" lon="-3.721354370936751">
        <ele>582.215576171875</ele>
        <time>2011-04-25T19:47:05Z</time>
      </trkpt>
      <trkpt lat="40.413078758865595" lon="-3.721140380948782">
        <ele>587.9833984375</ele>
        <time>2011-04-25T19:47:15Z</time>
      </trkpt>
      <trkpt lat="40.413604052737355" lon="-3.721072990447283">
        <ele>588.945068359375</ele>
        <time>2011-04-25T19:47:21Z</time>
      </trkpt>
      <trkpt lat="40.413847882300615" lon="-3.721052538603544">
        <ele>589.90625</ele>
        <time>2011-04-25T19:47:26Z</time>
      </trkpt>
      <trkpt lat="40.414050640538335" lon="-3.72131958603859">
        <ele>588.945068359375</ele>
        <time>2011-04-25T19:47:32Z</time>
      </trkpt>
      <trkpt lat="40.414063967764378" lon="-3.722507888451219">
        <ele>587.02197265625</ele>
        <time>2011-04-25T19:47:41Z</time>
      </trkpt>
      <trkpt lat="40.41407628916204" lon="-3.723460324108601">
        <ele>586.54150390625</ele>
        <time>2011-04-25T19:47:49Z</time>
      </trkpt>
      <trkpt lat="40.414083581417799" lon="-3.723761485889554">
        <ele>585.580078125</ele>
        <time>2011-04-25T19:47:55Z</time>
      </trkpt>
      <trkpt lat="40.414091041311622" lon="-3.723990395665169">
        <ele>583.1767578125</ele>
        <time>2011-04-25T19:48:16Z</time>
      </trkpt>
      <trkpt lat="40.414099171757698" lon="-3.724628929048777">
        <ele>584.13818359375</ele>
        <time>2011-04-25T19:48:22Z</time>
      </trkpt>
      <trkpt lat="40.413992973044515" lon="-3.725912449881434">
        <ele>589.425537109375</ele>
        <time>2011-04-25T19:48:31Z</time>
      </trkpt>
      <trkpt lat="40.413885936141014" lon="-3.72679715976119">
        <ele>592.790283203125</ele>
        <time>2011-04-25T19:48:38Z</time>
      </trkpt>
      <trkpt lat="40.413855761289597" lon="-3.727058339864016">
        <ele>594.232177734375</ele>
        <time>2011-04-25T19:48:44Z</time>
      </trkpt>
      <trkpt lat="40.413832543417811" lon="-3.727292865514755">
        <ele>600</ele>
        <time>2011-04-25T19:49:20Z</time>
      </trkpt>
      <trkpt lat="40.413746042177081" lon="-3.7280089315027">
        <ele>600.480712890625</ele>
        <time>2011-04-25T19:49:27Z</time>
      </trkpt>
      <trkpt lat="40.413665072992444" lon="-3.728614188730717">
        <ele>602.403076171875</ele>
        <time>2011-04-25T19:49:33Z</time>
      </trkpt>
      <trkpt lat="40.413509421050549" lon="-3.729025153443217">
        <ele>603.364501953125</ele>
        <time>2011-04-25T19:49:40Z</time>
      </trkpt>
      <trkpt lat="40.413391822949052" lon="-3.729074941948056">
        <ele>604.806640625</ele>
        <time>2011-04-25T19:49:52Z</time>
      </trkpt>
      <trkpt lat="40.41298764757812" lon="-3.72894024476409">
        <ele>610.574462890625</ele>
        <time>2011-04-25T19:50:03Z</time>
      </trkpt>
      <trkpt lat="40.412707692012191" lon="-3.7288498878479">
        <ele>616.34228515625</ele>
        <time>2011-04-25T19:50:12Z</time>
      </trkpt>
      <trkpt lat="40.412415079772472" lon="-3.728795573115349">
        <ele>617.7841796875</ele>
        <time>2011-04-25T19:50:22Z</time>
      </trkpt>
      <trkpt lat="40.412304857745767" lon="-3.728871177881956">
        <ele>614.900390625</ele>
        <time>2011-04-25T19:50:30Z</time>
      </trkpt>
      <trkpt lat="40.412091454491019" lon="-3.729385826736689">
        <ele>608.65185546875</ele>
        <time>2011-04-25T19:50:40Z</time>
      </trkpt>
      <trkpt lat="40.411913590505719" lon="-3.729892428964376">
        <ele>608.17138671875</ele>
        <time>2011-04-25T19:50:50Z</time>
      </trkpt>
      <trkpt lat="40.412078713998199" lon="-3.729606606066227">
        <ele>617.3037109375</ele>
        <time>2011-04-25T20:05:23Z</time>
      </trkpt>
      <trkpt lat="40.411979975178838" lon="-3.729744991287589">
        <ele>621.149169921875</ele>
        <time>2011-04-25T20:05:32Z</time>
      </trkpt>
    </trkseg>
  </trk>

  <trk>
    <name>110425-Travesia</name>
    <extensions>
      <gpxx:TrackExtension xmlns:gpxx="http://www.garmin.com/xmlschemas/GpxExtensions/v3">
        <gpxx:DisplayColor>Green</gpxx:DisplayColor>
      </gpxx:TrackExtension>
    </extensions>
    <trkseg>
      <trkpt lat="35.894559463486075" lon="-5.319715831428766">
        <ele>-40.238037109375</ele>
        <time>2011-04-25T10:35:38Z</time>
      </trkpt>
      <trkpt lat="35.894471034407616" lon="-5.319439312443137">
        <ele>-7.072509765625</ele>
        <time>2011-04-25T10:35:48Z</time>
      </trkpt>
      <trkpt lat="35.894505064934492" lon="-5.319164888933301">
        <ele>14.076416015625</ele>
        <time>2011-04-25T10:36:01Z</time>
      </trkpt>
      <trkpt lat="35.894611347466707" lon="-5.318878730759025">
        <ele>8.7891845703125</ele>
        <time>2011-04-25T10:36:16Z</time>
      </trkpt>
      <trkpt lat="35.894858026877046" lon="-5.318725928664208">
        <ele>14.5570068359375</ele>
        <time>2011-04-25T10:36:36Z</time>
      </trkpt>
      <trkpt lat="35.895052989944816" lon="-5.318744452670217">
        <ele>6.3858642578125</ele>
        <time>2011-04-25T10:36:53Z</time>
      </trkpt>
      <trkpt lat="35.89521249756217" lon="-5.318968752399087">
        <ele>4.4632568359375</ele>
        <time>2011-04-25T10:37:10Z</time>
      </trkpt>
      <trkpt lat="35.895293466746807" lon="-5.31922833994031">
        <ele>3.501953125</ele>
        <time>2011-04-25T10:37:26Z</time>
      </trkpt>
      <trkpt lat="35.895255329087377" lon="-5.31939497217536">
        <ele>0.137451171875</ele>
        <time>2011-04-25T10:37:36Z</time>
      </trkpt>
      <trkpt lat="35.895056929439306" lon="-5.319502595812082">
        <ele>4.4632568359375</ele>
        <time>2011-04-25T10:37:51Z</time>
      </trkpt>
      <trkpt lat="35.894744116812944" lon="-5.319355744868517">
        <ele>2.5406494140625</ele>
        <time>2011-04-25T10:38:06Z</time>
      </trkpt>
      <trkpt lat="35.894336421042681" lon="-5.318955341354013">
        <ele>-10.437255859375</ele>
        <time>2011-04-25T10:38:22Z</time>
      </trkpt>
      <trkpt lat="35.894198790192604" lon="-5.318330721929669">
        <ele>-19.5697021484375</ele>
        <time>2011-04-25T10:38:37Z</time>
      </trkpt>
      <trkpt lat="35.894086724147201" lon="-5.317694870755076">
        <ele>-15.24365234375</ele>
        <time>2011-04-25T10:38:52Z</time>
      </trkpt>
      <trkpt lat="35.894129890948534" lon="-5.316764479503036">
        <ele>-9.475830078125</ele>
        <time>2011-04-25T10:39:08Z</time>
      </trkpt>
      <trkpt lat="35.894204238429666" lon="-5.315695954486728">
        <ele>-10.437255859375</ele>
        <time>2011-04-25T10:39:24Z</time>
      </trkpt>
      <trkpt lat="35.894358465448022" lon="-5.31459616497159">
        <ele>12.15380859375</ele>
        <time>2011-04-25T10:39:40Z</time>
      </trkpt>
      <trkpt lat="35.894375564530492" lon="-5.313389087095857">
        <ele>17.9217529296875</ele>
        <time>2011-04-25T10:39:56Z</time>
      </trkpt>
      <trkpt lat="35.894562229514122" lon="-5.312124593183398">
        <ele>25.6123046875</ele>
        <time>2011-04-25T10:40:13Z</time>
      </trkpt>
      <trkpt lat="35.894842520356178" lon="-5.311026647686958">
        <ele>17.441162109375</ele>
        <time>2011-04-25T10:40:30Z</time>
      </trkpt>
      <trkpt lat="35.895315175876021" lon="-5.310285016894341">
        <ele>14.076416015625</ele>
        <time>2011-04-25T10:40:45Z</time>
      </trkpt>
      <trkpt lat="35.895978435873985" lon="-5.3096844535321">
        <ele>15.0377197265625</ele>
        <time>2011-04-25T10:41:01Z</time>
      </trkpt>
      <trkpt lat="35.896548321470618" lon="-5.309451017528772">
        <ele>22.728271484375</ele>
        <time>2011-04-25T10:41:15Z</time>
      </trkpt>
      <trkpt lat="35.897365640848875" lon="-5.30947582796216">
        <ele>24.1702880859375</ele>
        <time>2011-04-25T10:41:28Z</time>
      </trkpt>
      <trkpt lat="35.898380437865853" lon="-5.309645896777511">
        <ele>24.6510009765625</ele>
        <time>2011-04-25T10:41:41Z</time>
      </trkpt>
      <trkpt lat="35.899681560695171" lon="-5.310018723830581">
        <ele>27.0543212890625</ele>
        <time>2011-04-25T10:41:54Z</time>
      </trkpt>
      <trkpt lat="35.901258531957865" lon="-5.310609731823206">
        <ele>26.5736083984375</ele>
        <time>2011-04-25T10:42:08Z</time>
      </trkpt>
      <trkpt lat="35.903326347470284" lon="-5.31119235791266">
        <ele>15.5184326171875</ele>
        <time>2011-04-25T10:42:25Z</time>
      </trkpt>
      <trkpt lat="35.905429199337959" lon="-5.311850588768721">
        <ele>12.6343994140625</ele>
        <time>2011-04-25T10:42:42Z</time>
      </trkpt>
      <trkpt lat="35.90754697099328" lon="-5.312647623941302">
        <ele>9.2698974609375</ele>
        <time>2011-04-25T10:43:00Z</time>
      </trkpt>
      <trkpt lat="35.909707993268967" lon="-5.313658565282822">
        <ele>19.8443603515625</ele>
        <time>2011-04-25T10:43:18Z</time>
      </trkpt>
      <trkpt lat="35.911672879010439" lon="-5.314487870782614">
        <ele>18.40234375</ele>
        <time>2011-04-25T10:43:34Z</time>
      </trkpt>
      <trkpt lat="35.91365092433989" lon="-5.315220532938838">
        <ele>13.5958251953125</ele>
        <time>2011-04-25T10:43:50Z</time>
      </trkpt>
      <trkpt lat="35.915780682116747" lon="-5.316042797639966">
        <ele>8.7891845703125</ele>
        <time>2011-04-25T10:44:07Z</time>
      </trkpt>
      <trkpt lat="35.917617995291948" lon="-5.316740842536092">
        <ele>15.5184326171875</ele>
        <time>2011-04-25T10:44:22Z</time>
      </trkpt>
      <trkpt lat="35.920153185725212" lon="-5.31768724322319">
        <ele>19.36376953125</ele>
        <time>2011-04-25T10:44:43Z</time>
      </trkpt>
      <trkpt lat="35.922081358730793" lon="-5.318356873467565">
        <ele>5.9052734375</ele>
        <time>2011-04-25T10:44:59Z</time>
      </trkpt>
      <trkpt lat="35.924234837293625" lon="-5.319246025756002">
        <ele>12.6343994140625</ele>
        <time>2011-04-25T10:45:16Z</time>
      </trkpt>
      <trkpt lat="35.926243560388684" lon="-5.319988746196032">
        <ele>18.40234375</ele>
        <time>2011-04-25T10:45:32Z</time>
      </trkpt>
      <trkpt lat="35.928093362599611" lon="-5.320713277906179">
        <ele>28.9769287109375</ele>
        <time>2011-04-25T10:45:47Z</time>
      </trkpt>
      <trkpt lat="35.93005808070302" lon="-5.321453651413322">
        <ele>37.1480712890625</ele>
        <time>2011-04-25T10:46:02Z</time>
      </trkpt>
      <trkpt lat="35.932450694963336" lon="-5.322333751246333">
        <ele>43.8773193359375</ele>
        <time>2011-04-25T10:46:21Z</time>
      </trkpt>
      <trkpt lat="35.934341484680772" lon="-5.323005896061659">
        <ele>32.822265625</ele>
        <time>2011-04-25T10:46:36Z</time>
      </trkpt>
      <trkpt lat="35.936717251315713" lon="-5.323850372806191">
        <ele>28.4962158203125</ele>
        <time>2011-04-25T10:46:55Z</time>
      </trkpt>
      <trkpt lat="35.938847595825791" lon="-5.324592087417841">
        <ele>23.6895751953125</ele>
        <time>2011-04-25T10:47:12Z</time>
      </trkpt>
      <trkpt lat="35.940606454387307" lon="-5.325228776782751">
        <ele>25.1317138671875</ele>
        <time>2011-04-25T10:47:26Z</time>
      </trkpt>
      <trkpt lat="35.942566730082035" lon="-5.325897233560681">
        <ele>24.6510009765625</ele>
        <time>2011-04-25T10:47:42Z</time>
      </trkpt>
      <trkpt lat="35.944438241422176" lon="-5.326483882963657">
        <ele>42.916015625</ele>
        <time>2011-04-25T10:47:56Z</time>
      </trkpt>
      <trkpt lat="35.946512678638101" lon="-5.327204642817378">
        <ele>51.087158203125</ele>
        <time>2011-04-25T10:48:12Z</time>
      </trkpt>
      <trkpt lat="35.948446467518806" lon="-5.327862119302154">
        <ele>62.142333984375</ele>
        <time>2011-04-25T10:48:27Z</time>
      </trkpt>
      <trkpt lat="35.950315045192838" lon="-5.328352460637689">
        <ele>52.048583984375</ele>
        <time>2011-04-25T10:48:42Z</time>
      </trkpt>
      <trkpt lat="35.952211786061525" lon="-5.328719587996602">
        <ele>24.1702880859375</ele>
        <time>2011-04-25T10:48:57Z</time>
      </trkpt>
      <trkpt lat="35.954702720046043" lon="-5.329159051179886">
        <ele>5.424560546875</ele>
        <time>2011-04-25T10:49:16Z</time>
      </trkpt>
      <trkpt lat="35.957252327352762" lon="-5.32943531870842">
        <ele>-4.1885986328125</ele>
        <time>2011-04-25T10:49:35Z</time>
      </trkpt>
      <trkpt lat="35.95947252586484" lon="-5.329770930111408">
        <ele>-6.5919189453125</ele>
        <time>2011-04-25T10:49:52Z</time>
      </trkpt>
      <trkpt lat="35.961860362440348" lon="-5.330062033608556">
        <ele>-10.437255859375</ele>
        <time>2011-04-25T10:50:10Z</time>
      </trkpt>
      <trkpt lat="35.964325480163097" lon="-5.330415749922395">
        <ele>-7.072509765625</ele>
        <time>2011-04-25T10:50:29Z</time>
      </trkpt>
      <trkpt lat="35.966558586806059" lon="-5.33070232719183">
        <ele>-12.8404541015625</ele>
        <time>2011-04-25T10:50:46Z</time>
      </trkpt>
      <trkpt lat="35.968650374561548" lon="-5.330967698246241">
        <ele>-19.5697021484375</ele>
        <time>2011-04-25T10:51:02Z</time>
      </trkpt>
      <trkpt lat="35.970664629712701" lon="-5.331217395141721">
        <ele>-15.724365234375</ele>
        <time>2011-04-25T10:51:17Z</time>
      </trkpt>
      <trkpt lat="35.972379567101598" lon="-5.331528196111321">
        <ele>-10.437255859375</ele>
        <time>2011-04-25T10:51:30Z</time>
      </trkpt>
      <trkpt lat="35.974727841094136" lon="-5.332128340378404">
        <ele>-0.8240966796875</ele>
        <time>2011-04-25T10:51:48Z</time>
      </trkpt>
      <trkpt lat="35.976692559197545" lon="-5.332652544602752">
        <ele>6.3858642578125</ele>
        <time>2011-04-25T10:52:03Z</time>
      </trkpt>
      <trkpt lat="35.97874553874135" lon="-5.333199379965663">
        <ele>11.6732177734375</ele>
        <time>2011-04-25T10:52:19Z</time>
      </trkpt>
      <trkpt lat="35.980823999270797" lon="-5.333795417100191">
        <ele>10.7117919921875</ele>
        <time>2011-04-25T10:52:35Z</time>
      </trkpt>
      <trkpt lat="35.98294042982161" lon="-5.334421377629042">
        <ele>8.7891845703125</ele>
        <time>2011-04-25T10:52:52Z</time>
      </trkpt>
      <trkpt lat="35.985275292769074" lon="-5.335062593221664">
        <ele>13.5958251953125</ele>
        <time>2011-04-25T10:53:10Z</time>
      </trkpt>
      <trkpt lat="35.987625997513533" lon="-5.335670532658696">
        <ele>20.8056640625</ele>
        <time>2011-04-25T10:53:28Z</time>
      </trkpt>
      <trkpt lat="35.989975025877357" lon="-5.336378384381533">
        <ele>47.7225341796875</ele>
        <time>2011-04-25T10:53:46Z</time>
      </trkpt>
      <trkpt lat="35.992188937962055" lon="-5.337001495063305">
        <ele>56.37451171875</ele>
        <time>2011-04-25T10:54:03Z</time>
      </trkpt>
      <trkpt lat="35.994272343814373" lon="-5.337527543306351">
        <ele>67.4296875</ele>
        <time>2011-04-25T10:54:19Z</time>
      </trkpt>
      <trkpt lat="35.996673172339797" lon="-5.338176134973764">
        <ele>64.545654296875</ele>
        <time>2011-04-25T10:54:38Z</time>
      </trkpt>
      <trkpt lat="35.998868476599455" lon="-5.338726155459881">
        <ele>59.2584228515625</ele>
        <time>2011-04-25T10:54:55Z</time>
      </trkpt>
      <trkpt lat="36.000784076750278" lon="-5.339164193719626">
        <ele>47.7225341796875</ele>
        <time>2011-04-25T10:55:11Z</time>
      </trkpt>
      <trkpt lat="36.002818197011948" lon="-5.339678591117263">
        <ele>49.16455078125</ele>
        <time>2011-04-25T10:55:27Z</time>
      </trkpt>
      <trkpt lat="36.004882995039225" lon="-5.340163568034768">
        <ele>51.56787109375</ele>
        <time>2011-04-25T10:55:43Z</time>
      </trkpt>
      <trkpt lat="36.007511140778661" lon="-5.340852057561278">
        <ele>60.2197265625</ele>
        <time>2011-04-25T10:56:03Z</time>
      </trkpt>
      <trkpt lat="36.009745337069035" lon="-5.34131976775825">
        <ele>50.6065673828125</ele>
        <time>2011-04-25T10:56:20Z</time>
      </trkpt>
      <trkpt lat="36.01184768602252" lon="-5.341793429106474">
        <ele>45.3192138671875</ele>
        <time>2011-04-25T10:56:36Z</time>
      </trkpt>
      <trkpt lat="36.014010887593031" lon="-5.342435734346509">
        <ele>34.744873046875</ele>
        <time>2011-04-25T10:56:53Z</time>
      </trkpt>
      <trkpt lat="36.016574995592237" lon="-5.343240732327104">
        <ele>39.55126953125</ele>
        <time>2011-04-25T10:57:13Z</time>
      </trkpt>
      <trkpt lat="36.018629064783454" lon="-5.343945566564798">
        <ele>46.76123046875</ele>
        <time>2011-04-25T10:57:29Z</time>
      </trkpt>
      <trkpt lat="36.020936770364642" lon="-5.344721646979451">
        <ele>52.048583984375</ele>
        <time>2011-04-25T10:57:47Z</time>
      </trkpt>
      <trkpt lat="36.023591570556164" lon="-5.345678189769387">
        <ele>46.2806396484375</ele>
        <time>2011-04-25T10:58:08Z</time>
      </trkpt>
      <trkpt lat="36.026044618338346" lon="-5.346493246033788">
        <ele>32.341552734375</ele>
        <time>2011-04-25T10:58:28Z</time>
      </trkpt>
      <trkpt lat="36.028473190963268" lon="-5.347404945641756">
        <ele>20.8056640625</ele>
        <time>2011-04-25T10:58:47Z</time>
      </trkpt>
      <trkpt lat="36.031006956472993" lon="-5.348335169255734">
        <ele>12.15380859375</ele>
        <time>2011-04-25T10:59:07Z</time>
      </trkpt>
      <trkpt lat="36.033503171056509" lon="-5.34921158105135">
        <ele>2.5406494140625</ele>
        <time>2011-04-25T10:59:27Z</time>
      </trkpt>
      <trkpt lat="36.036268780007958" lon="-5.350249176844955">
        <ele>5.9052734375</ele>
        <time>2011-04-25T10:59:49Z</time>
      </trkpt>
      <trkpt lat="36.0383509285748" lon="-5.351137155666947">
        <ele>10.231201171875</ele>
        <time>2011-04-25T11:00:06Z</time>
      </trkpt>
      <trkpt lat="36.040384965017438" lon="-5.351925725117326">
        <ele>19.36376953125</ele>
        <time>2011-04-25T11:00:23Z</time>
      </trkpt>
      <trkpt lat="36.042489660903811" lon="-5.35280498676002">
        <ele>33.3028564453125</ele>
        <time>2011-04-25T11:00:40Z</time>
      </trkpt>
      <trkpt lat="36.044361758977175" lon="-5.353564471006393">
        <ele>26.0928955078125</ele>
        <time>2011-04-25T11:00:55Z</time>
      </trkpt>
      <trkpt lat="36.045975778251886" lon="-5.354217756539583">
        <ele>15.0377197265625</ele>
        <time>2011-04-25T11:01:08Z</time>
      </trkpt>
      <trkpt lat="36.048468975350261" lon="-5.355151584371924">
        <ele>-20.531005859375</ele>
        <time>2011-04-25T11:01:28Z</time>
      </trkpt>
      <trkpt lat="36.050483146682382" lon="-5.355945266783238">
        <ele>-5.6304931640625</ele>
        <time>2011-04-25T11:01:44Z</time>
      </trkpt>
      <trkpt lat="36.052944073453546" lon="-5.356915891170502">
        <ele>-2.2659912109375</ele>
        <time>2011-04-25T11:02:03Z</time>
      </trkpt>
      <trkpt lat="36.056112181395292" lon="-5.358131770044565">
        <ele>-9.95654296875</ele>
        <time>2011-04-25T11:02:28Z</time>
      </trkpt>
      <trkpt lat="36.058507058769464" lon="-5.359091833233833">
        <ele>-14.282470703125</ele>
        <time>2011-04-25T11:02:47Z</time>
      </trkpt>
      <trkpt lat="36.060995729640126" lon="-5.360103193670511">
        <ele>-14.7630615234375</ele>
        <time>2011-04-25T11:03:07Z</time>
      </trkpt>
      <trkpt lat="36.063649859279394" lon="-5.361180519685149">
        <ele>-3.227294921875</ele>
        <time>2011-04-25T11:03:28Z</time>
      </trkpt>
      <trkpt lat="36.06556654907763" lon="-5.362034048885107">
        <ele>-0.8240966796875</ele>
        <time>2011-04-25T11:03:43Z</time>
      </trkpt>
      <trkpt lat="36.067717093974352" lon="-5.362943485379219">
        <ele>2.5406494140625</ele>
        <time>2011-04-25T11:04:00Z</time>
      </trkpt>
      <trkpt lat="36.069592796266079" lon="-5.363651420921087">
        <ele>-14.282470703125</ele>
        <time>2011-04-25T11:04:15Z</time>
      </trkpt>
      <trkpt lat="36.07199152931571" lon="-5.364708043634892">
        <ele>-11.879150390625</ele>
        <time>2011-04-25T11:04:34Z</time>
      </trkpt>
      <trkpt lat="36.073904279619455" lon="-5.365779753774405">
        <ele>-4.1885986328125</ele>
        <time>2011-04-25T11:04:50Z</time>
      </trkpt>
      <trkpt lat="36.076591769233346" lon="-5.367244491353631">
        <ele>-18.1278076171875</ele>
        <time>2011-04-25T11:05:12Z</time>
      </trkpt>
      <trkpt lat="36.07916459441185" lon="-5.368780475109816">
        <ele>-27.740966796875</ele>
        <time>2011-04-25T11:05:33Z</time>
      </trkpt>
      <trkpt lat="36.081577995792031" lon="-5.370325595140457">
        <ele>-16.2052001953125</ele>
        <time>2011-04-25T11:05:53Z</time>
      </trkpt>
      <trkpt lat="36.083686295896769" lon="-5.371328825131059">
        <ele>-25.337646484375</ele>
        <time>2011-04-25T11:06:09Z</time>
      </trkpt>
      <trkpt lat="36.085834661498666" lon="-5.372399026528001">
        <ele>-0.3433837890625</ele>
        <time>2011-04-25T11:06:26Z</time>
      </trkpt>
      <trkpt lat="36.087835673242807" lon="-5.373423462733626">
        <ele>7.827880859375</ele>
        <time>2011-04-25T11:06:42Z</time>
      </trkpt>
      <trkpt lat="36.090169865638018" lon="-5.374780828133225">
        <ele>18.40234375</ele>
        <time>2011-04-25T11:07:01Z</time>
      </trkpt>
      <trkpt lat="36.092209685593843" lon="-5.375850358977914">
        <ele>18.883056640625</ele>
        <time>2011-04-25T11:07:18Z</time>
      </trkpt>
      <trkpt lat="36.094285799190402" lon="-5.377027597278357">
        <ele>27.0543212890625</ele>
        <time>2011-04-25T11:07:35Z</time>
      </trkpt>
      <trkpt lat="36.096281027421355" lon="-5.37813794799149">
        <ele>27.0543212890625</ele>
        <time>2011-04-25T11:07:51Z</time>
      </trkpt>
      <trkpt lat="36.098539447411895" lon="-5.379308732226491">
        <ele>31.8607177734375</ele>
        <time>2011-04-25T11:08:09Z</time>
      </trkpt>
      <trkpt lat="36.10075025819242" lon="-5.380479181185365">
        <ele>51.56787109375</ele>
        <time>2011-04-25T11:08:27Z</time>
      </trkpt>
      <trkpt lat="36.103181261569262" lon="-5.381649546325207">
        <ele>43.8773193359375</ele>
        <time>2011-04-25T11:08:46Z</time>
      </trkpt>
      <trkpt lat="36.105692479759455" lon="-5.382952261716127">
        <ele>37.1480712890625</ele>
        <time>2011-04-25T11:09:06Z</time>
      </trkpt>
      <trkpt lat="36.108025331050158" lon="-5.384288839995861">
        <ele>42.916015625</ele>
        <time>2011-04-25T11:09:25Z</time>
      </trkpt>
      <trkpt lat="36.109980158507824" lon="-5.385422995314002">
        <ele>48.6839599609375</ele>
        <time>2011-04-25T11:09:41Z</time>
      </trkpt>
      <trkpt lat="36.112082926556468" lon="-5.386710371822119">
        <ele>57.8165283203125</ele>
        <time>2011-04-25T11:09:58Z</time>
      </trkpt>
      <trkpt lat="36.113948486745358" lon="-5.38777956739068">
        <ele>37.628662109375</ele>
        <time>2011-04-25T11:10:13Z</time>
      </trkpt>
      <trkpt lat="36.116160470992327" lon="-5.389037858694792">
        <ele>22.728271484375</ele>
        <time>2011-04-25T11:10:31Z</time>
      </trkpt>
      <trkpt lat="36.117862584069371" lon="-5.390022229403257">
        <ele>14.076416015625</ele>
        <time>2011-04-25T11:10:45Z</time>
      </trkpt>
      <trkpt lat="36.119710290804505" lon="-5.391354281455278">
        <ele>30.8995361328125</ele>
        <time>2011-04-25T11:11:00Z</time>
      </trkpt>
      <trkpt lat="36.12122138030827" lon="-5.392283499240875">
        <ele>44.3580322265625</ele>
        <time>2011-04-25T11:11:12Z</time>
      </trkpt>
      <trkpt lat="36.122820982709527" lon="-5.393146583810449">
        <ele>50.1259765625</ele>
        <time>2011-04-25T11:11:25Z</time>
      </trkpt>
      <trkpt lat="36.12443751655519" lon="-5.394007572904229">
        <ele>23.208984375</ele>
        <time>2011-04-25T11:11:39Z</time>
      </trkpt>
      <trkpt lat="36.126254880800843" lon="-5.394994039088488">
        <ele>33.3028564453125</ele>
        <time>2011-04-25T11:11:54Z</time>
      </trkpt>
      <trkpt lat="36.128588235005736" lon="-5.396331874653697">
        <ele>76.5621337890625</ele>
        <time>2011-04-25T11:12:13Z</time>
      </trkpt>
      <trkpt lat="36.130224633961916" lon="-5.397296296432614">
        <ele>71.27490234375</ele>
        <time>2011-04-25T11:12:27Z</time>
      </trkpt>
      <trkpt lat="36.131992544978857" lon="-5.398504631593823">
        <ele>36.66748046875</ele>
        <time>2011-04-25T11:12:43Z</time>
      </trkpt>
      <trkpt lat="36.133317137137055" lon="-5.399779267609119">
        <ele>18.883056640625</ele>
        <time>2011-04-25T11:12:56Z</time>
      </trkpt>
      <trkpt lat="36.135134836658835" lon="-5.401929896324873">
        <ele>20.8056640625</ele>
        <time>2011-04-25T11:13:14Z</time>
      </trkpt>
      <trkpt lat="36.136985057964921" lon="-5.404122937470675">
        <ele>8.30859375</ele>
        <time>2011-04-25T11:13:33Z</time>
      </trkpt>
      <trkpt lat="36.138290371745825" lon="-5.405839551240206">
        <ele>10.231201171875</ele>
        <time>2011-04-25T11:13:48Z</time>
      </trkpt>
      <trkpt lat="36.139398291707039" lon="-5.407093651592732">
        <ele>33.3028564453125</ele>
        <time>2011-04-25T11:14:02Z</time>
      </trkpt>
      <trkpt lat="36.140536637976766" lon="-5.408183047547936">
        <ele>29.9381103515625</ele>
        <time>2011-04-25T11:14:18Z</time>
      </trkpt>
      <trkpt lat="36.141438949853182" lon="-5.409205975010991">
        <ele>41.9547119140625</ele>
        <time>2011-04-25T11:14:32Z</time>
      </trkpt>
      <trkpt lat="36.142561286687851" lon="-5.410455130040646">
        <ele>41.9547119140625</ele>
        <time>2011-04-25T11:14:52Z</time>
      </trkpt>
      <trkpt lat="36.143344826996326" lon="-5.41137496009469">
        <ele>49.16455078125</ele>
        <time>2011-04-25T11:15:07Z</time>
      </trkpt>
      <trkpt lat="36.144248899072409" lon="-5.412284061312676">
        <ele>31.380126953125</ele>
        <time>2011-04-25T11:15:25Z</time>
      </trkpt>
      <trkpt lat="36.145074851810932" lon="-5.413102973252535">
        <ele>14.5570068359375</ele>
        <time>2011-04-25T11:15:44Z</time>
      </trkpt>
      <trkpt lat="36.145852860063314" lon="-5.414126152172685">
        <ele>4.94384765625</ele>
        <time>2011-04-25T11:16:03Z</time>
      </trkpt>
      <trkpt lat="36.146585186943412" lon="-5.415269276127219">
        <ele>-18.6083984375</ele>
        <time>2011-04-25T11:16:22Z</time>
      </trkpt>
      <trkpt lat="36.147265546023846" lon="-5.416571656242013">
        <ele>-15.24365234375</ele>
        <time>2011-04-25T11:16:41Z</time>
      </trkpt>
      <trkpt lat="36.147891925647855" lon="-5.417839335277677">
        <ele>-31.10546875</ele>
        <time>2011-04-25T11:17:00Z</time>
      </trkpt>
      <trkpt lat="36.14852542988956" lon="-5.419206758961082">
        <ele>1.579345703125</ele>
        <time>2011-04-25T11:17:18Z</time>
      </trkpt>
      <trkpt lat="36.148847294971347" lon="-5.420282576233149">
        <ele>14.5570068359375</ele>
        <time>2011-04-25T11:17:34Z</time>
      </trkpt>
      <trkpt lat="36.14930922165513" lon="-5.421950994059444">
        <ele>58.7777099609375</ele>
        <time>2011-04-25T11:17:56Z</time>
      </trkpt>
      <trkpt lat="36.149856392294168" lon="-5.423365021124482">
        <ele>48.6839599609375</ele>
        <time>2011-04-25T11:18:15Z</time>
      </trkpt>
      <trkpt lat="36.150226872414351" lon="-5.424814084544778">
        <ele>65.9876708984375</ele>
        <time>2011-04-25T11:18:33Z</time>
      </trkpt>
      <trkpt lat="36.150348242372274" lon="-5.425882693380117">
        <ele>37.1480712890625</ele>
        <time>2011-04-25T11:18:48Z</time>
      </trkpt>
      <trkpt lat="36.150255119428039" lon="-5.427089519798756">
        <ele>20.324951171875</ele>
        <time>2011-04-25T11:19:05Z</time>
      </trkpt>
      <trkpt lat="36.150051187723875" lon="-5.428007673472166">
        <ele>20.324951171875</ele>
        <time>2011-04-25T11:19:18Z</time>
      </trkpt>
      <trkpt lat="36.14992143586278" lon="-5.428929263725877">
        <ele>26.5736083984375</ele>
        <time>2011-04-25T11:19:32Z</time>
      </trkpt>
      <trkpt lat="36.149641899392009" lon="-5.429531335830689">
        <ele>17.9217529296875</ele>
        <time>2011-04-25T11:19:45Z</time>
      </trkpt>
      <trkpt lat="36.14933218806982" lon="-5.430141035467386">
        <ele>9.7506103515625</ele>
        <time>2011-04-25T11:20:00Z</time>
      </trkpt>
      <trkpt lat="36.148999761790037" lon="-5.430551832541823">
        <ele>9.7506103515625</ele>
        <time>2011-04-25T11:20:13Z</time>
      </trkpt>
      <trkpt lat="36.148744197562337" lon="-5.430761463940144">
        <ele>3.021240234375</ele>
        <time>2011-04-25T11:20:20Z</time>
      </trkpt>
      <trkpt lat="36.148264752700925" lon="-5.431016692891717">
        <ele>9.7506103515625</ele>
        <time>2011-04-25T11:20:32Z</time>
      </trkpt>
      <trkpt lat="36.147800227627158" lon="-5.431344257667661">
        <ele>11.6732177734375</ele>
        <time>2011-04-25T11:20:46Z</time>
      </trkpt>
      <trkpt lat="36.147246351465583" lon="-5.431640474125743">
        <ele>9.7506103515625</ele>
        <time>2011-04-25T11:21:00Z</time>
      </trkpt>
      <trkpt lat="36.146982740610838" lon="-5.43172487989068">
        <ele>7.34716796875</ele>
        <time>2011-04-25T11:21:07Z</time>
      </trkpt>
      <trkpt lat="36.146492650732398" lon="-5.432043392211199">
        <ele>16.96044921875</ele>
        <time>2011-04-25T11:21:20Z</time>
      </trkpt>
      <trkpt lat="36.146123595535755" lon="-5.43217146769166">
        <ele>6.866455078125</ele>
        <time>2011-04-25T11:21:31Z</time>
      </trkpt>
      <trkpt lat="36.145879682153463" lon="-5.432252939790487">
        <ele>0.6180419921875</ele>
        <time>2011-04-25T11:21:37Z</time>
      </trkpt>
      <trkpt lat="36.145310383290052" lon="-5.432346733286977">
        <ele>-12.35986328125</ele>
        <time>2011-04-25T11:21:50Z</time>
      </trkpt>
      <trkpt lat="36.144841248169541" lon="-5.432355869561434">
        <ele>-12.35986328125</ele>
        <time>2011-04-25T11:21:59Z</time>
      </trkpt>
      <trkpt lat="36.144722392782569" lon="-5.432368777692318">
        <ele>-11.3984375</ele>
        <time>2011-04-25T11:22:02Z</time>
      </trkpt>
      <trkpt lat="36.144616445526481" lon="-5.432382943108678">
        <ele>-7.072509765625</ele>
        <time>2011-04-25T11:22:05Z</time>
      </trkpt>
      <trkpt lat="36.144111352041364" lon="-5.432495763525367">
        <ele>-23.8956298828125</ele>
        <time>2011-04-25T11:22:17Z</time>
      </trkpt>
      <trkpt lat="36.143947821110487" lon="-5.432553766295314">
        <ele>-28.2215576171875</ele>
        <time>2011-04-25T11:22:20Z</time>
      </trkpt>
      <trkpt lat="36.143806083127856" lon="-5.432536751031876">
        <ele>-28.7021484375</ele>
        <time>2011-04-25T11:22:23Z</time>
      </trkpt>
      <trkpt lat="36.143542220816016" lon="-5.432596681639552">
        <ele>-25.818359375</ele>
        <time>2011-04-25T11:22:29Z</time>
      </trkpt>
      <trkpt lat="36.143007203936577" lon="-5.432466762140393">
        <ele>-27.26025390625</ele>
        <time>2011-04-25T11:22:42Z</time>
      </trkpt>
      <trkpt lat="36.143033104017377" lon="-5.432869009673595">
        <ele>-44.083251953125</ele>
        <time>2011-04-25T11:22:53Z</time>
      </trkpt>
      <trkpt lat="36.142638986930251" lon="-5.432878732681274">
        <ele>-35.912109375</ele>
        <time>2011-04-25T11:23:03Z</time>
      </trkpt>
      <trkpt lat="36.142093744128942" lon="-5.432957354933024">
        <ele>-35.4315185546875</ele>
        <time>2011-04-25T11:23:17Z</time>
      </trkpt>
      <trkpt lat="36.141451606526971" lon="-5.433057099580765">
        <ele>13.5958251953125</ele>
        <time>2011-04-25T11:23:36Z</time>
      </trkpt>
      <trkpt lat="36.138631347566843" lon="-5.433262204751372">
        <ele>-25.818359375</ele>
        <time>2011-04-25T11:24:51Z</time>
      </trkpt>
      <trkpt lat="36.137818554416299" lon="-5.433061458170414">
        <ele>-26.779541015625</ele>
        <time>2011-04-25T11:25:09Z</time>
      </trkpt>
      <trkpt lat="36.136990590021014" lon="-5.433803172782064">
        <ele>-86.8619384765625</ele>
        <time>2011-04-25T11:25:12Z</time>
      </trkpt>
      <trkpt lat="36.13667618483305" lon="-5.433867629617453">
        <ele>-81.5748291015625</ele>
        <time>2011-04-25T11:25:23Z</time>
      </trkpt>
      <trkpt lat="36.136262286454439" lon="-5.433956310153008">
        <ele>-74.845458984375</ele>
        <time>2011-04-25T11:25:33Z</time>
      </trkpt>
      <trkpt lat="36.135686198249459" lon="-5.434069633483887">
        <ele>-85.900634765625</ele>
        <time>2011-04-25T11:25:43Z</time>
      </trkpt>
      <trkpt lat="36.135078761726618" lon="-5.434009451419115">
        <ele>-84.9393310546875</ele>
        <time>2011-04-25T11:25:54Z</time>
      </trkpt>
    </trkseg>
  </trk>

</gpx>
